<?xml version="1.0" encoding="UTF-8" standalone="no" ?>
<gpx xmlns="http://www.topografix.com/GPX/1/1" xmlns:xsi="http://www.w3.org/2001/XMLSchema-instance" xsi:schemaLocation="http://www.topografix.com/GPX/1/1 http://www.topografix.com/GPX/1/1/gpx.xsd" version="1.1" creator="VisuGPX - https://www.visugpx.com">
  <metadata>
    <name>Marion, Combaz, Chauchefoin et Coillu</name>
  </metadata>
  <trk>
    <name><![CDATA[Marion, Combaz, Chauchefoin et Coillu_1]]></name>
    <extensions>
      <line xmlns="http://www.topografix.com/GPX/gpx_style/0/2">
        <color>0000FF</color>
        <width>4</width>
      </line>
    </extensions>
    <trkseg>
      <trkpt lat="45.87365" lon="6.46035">
        <ele>1470.7</ele>
        <time>2024-04-27T06:33:42Z</time>
      </trkpt>
      <trkpt lat="45.87365" lon="6.46035">
        <ele>1470.7</ele>
        <time>2024-04-27T06:33:43Z</time>
      </trkpt>
      <trkpt lat="45.87362" lon="6.4603">
        <ele>1470.7</ele>
        <time>2024-04-27T06:33:44Z</time>
      </trkpt>
      <trkpt lat="45.87362" lon="6.46028">
        <ele>1470.7</ele>
        <time>2024-04-27T06:33:45Z</time>
      </trkpt>
      <trkpt lat="45.87361" lon="6.46027">
        <ele>1469.6</ele>
        <time>2024-04-27T06:33:46Z</time>
      </trkpt>
      <trkpt lat="45.87361" lon="6.46025">
        <ele>1469.6</ele>
        <time>2024-04-27T06:33:47Z</time>
      </trkpt>
      <trkpt lat="45.8736" lon="6.46024">
        <ele>1469.6</ele>
        <time>2024-04-27T06:33:48Z</time>
      </trkpt>
      <trkpt lat="45.8736" lon="6.46022">
        <ele>1469.6</ele>
        <time>2024-04-27T06:33:49Z</time>
      </trkpt>
      <trkpt lat="45.87359" lon="6.4602">
        <ele>1469.6</ele>
        <time>2024-04-27T06:33:50Z</time>
      </trkpt>
      <trkpt lat="45.87359" lon="6.46018">
        <ele>1469.6</ele>
        <time>2024-04-27T06:33:51Z</time>
      </trkpt>
      <trkpt lat="45.87359" lon="6.46016">
        <ele>1469.6</ele>
        <time>2024-04-27T06:33:52Z</time>
      </trkpt>
      <trkpt lat="45.87358" lon="6.46014">
        <ele>1469.6</ele>
        <time>2024-04-27T06:33:53Z</time>
      </trkpt>
      <trkpt lat="45.87358" lon="6.46012">
        <ele>1468.7</ele>
        <time>2024-04-27T06:33:54Z</time>
      </trkpt>
      <trkpt lat="45.87358" lon="6.4601">
        <ele>1468.7</ele>
        <time>2024-04-27T06:33:55Z</time>
      </trkpt>
      <trkpt lat="45.87358" lon="6.46008">
        <ele>1468.7</ele>
        <time>2024-04-27T06:33:56Z</time>
      </trkpt>
      <trkpt lat="45.87357" lon="6.46007">
        <ele>1468.7</ele>
        <time>2024-04-27T06:33:57Z</time>
      </trkpt>
      <trkpt lat="45.87357" lon="6.46005">
        <ele>1468.7</ele>
        <time>2024-04-27T06:33:58Z</time>
      </trkpt>
      <trkpt lat="45.87357" lon="6.46003">
        <ele>1468.7</ele>
        <time>2024-04-27T06:33:59Z</time>
      </trkpt>
      <trkpt lat="45.87356" lon="6.46001">
        <ele>1468.7</ele>
        <time>2024-04-27T06:34:00Z</time>
      </trkpt>
      <trkpt lat="45.87356" lon="6.46">
        <ele>1468.7</ele>
        <time>2024-04-27T06:34:01Z</time>
      </trkpt>
      <trkpt lat="45.87355" lon="6.45998">
        <ele>1468.7</ele>
        <time>2024-04-27T06:34:02Z</time>
      </trkpt>
      <trkpt lat="45.87355" lon="6.45997">
        <ele>1468.7</ele>
        <time>2024-04-27T06:34:03Z</time>
      </trkpt>
      <trkpt lat="45.87354" lon="6.45995">
        <ele>1468.7</ele>
        <time>2024-04-27T06:34:04Z</time>
      </trkpt>
      <trkpt lat="45.87354" lon="6.45994">
        <ele>1468.7</ele>
        <time>2024-04-27T06:34:05Z</time>
      </trkpt>
      <trkpt lat="45.87353" lon="6.45993">
        <ele>1468.7</ele>
        <time>2024-04-27T06:34:06Z</time>
      </trkpt>
      <trkpt lat="45.87353" lon="6.45991">
        <ele>1468.7</ele>
        <time>2024-04-27T06:34:07Z</time>
      </trkpt>
      <trkpt lat="45.87352" lon="6.4599">
        <ele>1468.7</ele>
        <time>2024-04-27T06:34:08Z</time>
      </trkpt>
      <trkpt lat="45.87351" lon="6.45989">
        <ele>1468.7</ele>
        <time>2024-04-27T06:34:09Z</time>
      </trkpt>
      <trkpt lat="45.8735" lon="6.45988">
        <ele>1468.7</ele>
        <time>2024-04-27T06:34:10Z</time>
      </trkpt>
      <trkpt lat="45.87349" lon="6.45986">
        <ele>1468.7</ele>
        <time>2024-04-27T06:34:11Z</time>
      </trkpt>
      <trkpt lat="45.87349" lon="6.45985">
        <ele>1468.7</ele>
        <time>2024-04-27T06:34:12Z</time>
      </trkpt>
      <trkpt lat="45.87348" lon="6.45984">
        <ele>1468.7</ele>
        <time>2024-04-27T06:34:13Z</time>
      </trkpt>
      <trkpt lat="45.87348" lon="6.45983">
        <ele>1468.7</ele>
        <time>2024-04-27T06:34:14Z</time>
      </trkpt>
      <trkpt lat="45.87348" lon="6.45981">
        <ele>1468.7</ele>
        <time>2024-04-27T06:34:15Z</time>
      </trkpt>
      <trkpt lat="45.87347" lon="6.4598">
        <ele>1467.6</ele>
        <time>2024-04-27T06:34:16Z</time>
      </trkpt>
      <trkpt lat="45.87346" lon="6.45979">
        <ele>1467.6</ele>
        <time>2024-04-27T06:34:17Z</time>
      </trkpt>
      <trkpt lat="45.87346" lon="6.45977">
        <ele>1467.6</ele>
        <time>2024-04-27T06:34:18Z</time>
      </trkpt>
      <trkpt lat="45.87345" lon="6.45976">
        <ele>1467.6</ele>
        <time>2024-04-27T06:34:19Z</time>
      </trkpt>
      <trkpt lat="45.87345" lon="6.45975">
        <ele>1467.6</ele>
        <time>2024-04-27T06:34:20Z</time>
      </trkpt>
      <trkpt lat="45.87344" lon="6.45973">
        <ele>1467.6</ele>
        <time>2024-04-27T06:34:21Z</time>
      </trkpt>
      <trkpt lat="45.87344" lon="6.45972">
        <ele>1467.6</ele>
        <time>2024-04-27T06:34:22Z</time>
      </trkpt>
      <trkpt lat="45.87343" lon="6.4597">
        <ele>1467.6</ele>
        <time>2024-04-27T06:34:23Z</time>
      </trkpt>
      <trkpt lat="45.87343" lon="6.45969">
        <ele>1467.6</ele>
        <time>2024-04-27T06:34:24Z</time>
      </trkpt>
      <trkpt lat="45.87342" lon="6.45968">
        <ele>1467.6</ele>
        <time>2024-04-27T06:34:25Z</time>
      </trkpt>
      <trkpt lat="45.87342" lon="6.45967">
        <ele>1467.6</ele>
        <time>2024-04-27T06:34:26Z</time>
      </trkpt>
      <trkpt lat="45.87341" lon="6.45965">
        <ele>1467.6</ele>
        <time>2024-04-27T06:34:27Z</time>
      </trkpt>
      <trkpt lat="45.8734" lon="6.45964">
        <ele>1467.6</ele>
        <time>2024-04-27T06:34:28Z</time>
      </trkpt>
      <trkpt lat="45.8734" lon="6.45963">
        <ele>1467.6</ele>
        <time>2024-04-27T06:34:29Z</time>
      </trkpt>
      <trkpt lat="45.87339" lon="6.45961">
        <ele>1467.6</ele>
        <time>2024-04-27T06:34:30Z</time>
      </trkpt>
      <trkpt lat="45.87338" lon="6.4596">
        <ele>1467.6</ele>
        <time>2024-04-27T06:34:31Z</time>
      </trkpt>
      <trkpt lat="45.87338" lon="6.45958">
        <ele>1467.6</ele>
        <time>2024-04-27T06:34:32Z</time>
      </trkpt>
      <trkpt lat="45.87337" lon="6.45956">
        <ele>1467.6</ele>
        <time>2024-04-27T06:34:33Z</time>
      </trkpt>
      <trkpt lat="45.87336" lon="6.45955">
        <ele>1467.6</ele>
        <time>2024-04-27T06:34:34Z</time>
      </trkpt>
      <trkpt lat="45.87336" lon="6.45953">
        <ele>1467.6</ele>
        <time>2024-04-27T06:34:35Z</time>
      </trkpt>
      <trkpt lat="45.87335" lon="6.45951">
        <ele>1467.6</ele>
        <time>2024-04-27T06:34:36Z</time>
      </trkpt>
      <trkpt lat="45.87335" lon="6.4595">
        <ele>1467.6</ele>
        <time>2024-04-27T06:34:37Z</time>
      </trkpt>
      <trkpt lat="45.87334" lon="6.45948">
        <ele>1466.7</ele>
        <time>2024-04-27T06:34:38Z</time>
      </trkpt>
      <trkpt lat="45.87333" lon="6.45947">
        <ele>1466.7</ele>
        <time>2024-04-27T06:34:39Z</time>
      </trkpt>
      <trkpt lat="45.87333" lon="6.45946">
        <ele>1466.7</ele>
        <time>2024-04-27T06:34:40Z</time>
      </trkpt>
      <trkpt lat="45.87332" lon="6.45944">
        <ele>1466.7</ele>
        <time>2024-04-27T06:34:41Z</time>
      </trkpt>
      <trkpt lat="45.87332" lon="6.45943">
        <ele>1466.7</ele>
        <time>2024-04-27T06:34:42Z</time>
      </trkpt>
      <trkpt lat="45.87331" lon="6.45941">
        <ele>1466.7</ele>
        <time>2024-04-27T06:34:43Z</time>
      </trkpt>
      <trkpt lat="45.87331" lon="6.4594">
        <ele>1466.7</ele>
        <time>2024-04-27T06:34:44Z</time>
      </trkpt>
      <trkpt lat="45.8733" lon="6.45938">
        <ele>1466.7</ele>
        <time>2024-04-27T06:34:45Z</time>
      </trkpt>
      <trkpt lat="45.8733" lon="6.45937">
        <ele>1466.7</ele>
        <time>2024-04-27T06:34:46Z</time>
      </trkpt>
      <trkpt lat="45.8733" lon="6.45936">
        <ele>1466.7</ele>
        <time>2024-04-27T06:34:47Z</time>
      </trkpt>
      <trkpt lat="45.87329" lon="6.45935">
        <ele>1466.7</ele>
        <time>2024-04-27T06:34:48Z</time>
      </trkpt>
      <trkpt lat="45.87328" lon="6.45934">
        <ele>1466.7</ele>
        <time>2024-04-27T06:34:49Z</time>
      </trkpt>
      <trkpt lat="45.87328" lon="6.45933">
        <ele>1466.7</ele>
        <time>2024-04-27T06:34:50Z</time>
      </trkpt>
      <trkpt lat="45.87328" lon="6.45932">
        <ele>1466.7</ele>
        <time>2024-04-27T06:34:51Z</time>
      </trkpt>
      <trkpt lat="45.87328" lon="6.45931">
        <ele>1465.6</ele>
        <time>2024-04-27T06:34:52Z</time>
      </trkpt>
      <trkpt lat="45.87327" lon="6.4593">
        <ele>1465.6</ele>
        <time>2024-04-27T06:34:53Z</time>
      </trkpt>
      <trkpt lat="45.87327" lon="6.45929">
        <ele>1465.6</ele>
        <time>2024-04-27T06:34:54Z</time>
      </trkpt>
      <trkpt lat="45.87328" lon="6.45929">
        <ele>1465.6</ele>
        <time>2024-04-27T06:34:55Z</time>
      </trkpt>
      <trkpt lat="45.87327" lon="6.45929">
        <ele>1465.6</ele>
        <time>2024-04-27T06:34:56Z</time>
      </trkpt>
      <trkpt lat="45.87327" lon="6.4593">
        <ele>1466.7</ele>
        <time>2024-04-27T06:34:57Z</time>
      </trkpt>
      <trkpt lat="45.87326" lon="6.4593">
        <ele>1466.7</ele>
        <time>2024-04-27T06:34:58Z</time>
      </trkpt>
      <trkpt lat="45.87326" lon="6.45929">
        <ele>1466.7</ele>
        <time>2024-04-27T06:34:59Z</time>
      </trkpt>
      <trkpt lat="45.87325" lon="6.45928">
        <ele>1466.7</ele>
        <time>2024-04-27T06:35:00Z</time>
      </trkpt>
      <trkpt lat="45.87325" lon="6.45927">
        <ele>1466.7</ele>
        <time>2024-04-27T06:35:01Z</time>
      </trkpt>
      <trkpt lat="45.87324" lon="6.45925">
        <ele>1466.7</ele>
        <time>2024-04-27T06:35:02Z</time>
      </trkpt>
      <trkpt lat="45.87324" lon="6.45922">
        <ele>1466.7</ele>
        <time>2024-04-27T06:35:03Z</time>
      </trkpt>
      <trkpt lat="45.87323" lon="6.45921">
        <ele>1466.7</ele>
        <time>2024-04-27T06:35:04Z</time>
      </trkpt>
      <trkpt lat="45.87323" lon="6.45919">
        <ele>1466.7</ele>
        <time>2024-04-27T06:35:05Z</time>
      </trkpt>
      <trkpt lat="45.87322" lon="6.45918">
        <ele>1466.7</ele>
        <time>2024-04-27T06:35:06Z</time>
      </trkpt>
      <trkpt lat="45.87322" lon="6.45917">
        <ele>1466.7</ele>
        <time>2024-04-27T06:35:07Z</time>
      </trkpt>
      <trkpt lat="45.87321" lon="6.45915">
        <ele>1465.6</ele>
        <time>2024-04-27T06:35:08Z</time>
      </trkpt>
      <trkpt lat="45.8732" lon="6.45914">
        <ele>1465.6</ele>
        <time>2024-04-27T06:35:09Z</time>
      </trkpt>
      <trkpt lat="45.87319" lon="6.45912">
        <ele>1465.6</ele>
        <time>2024-04-27T06:35:10Z</time>
      </trkpt>
      <trkpt lat="45.87317" lon="6.45911">
        <ele>1465.6</ele>
        <time>2024-04-27T06:35:11Z</time>
      </trkpt>
      <trkpt lat="45.87315" lon="6.45909">
        <ele>1465.6</ele>
        <time>2024-04-27T06:35:12Z</time>
      </trkpt>
      <trkpt lat="45.87313" lon="6.45908">
        <ele>1465.6</ele>
        <time>2024-04-27T06:35:13Z</time>
      </trkpt>
      <trkpt lat="45.87311" lon="6.45907">
        <ele>1464.6</ele>
        <time>2024-04-27T06:35:14Z</time>
      </trkpt>
      <trkpt lat="45.8731" lon="6.45907">
        <ele>1464.6</ele>
        <time>2024-04-27T06:35:15Z</time>
      </trkpt>
      <trkpt lat="45.87308" lon="6.45906">
        <ele>1464.6</ele>
        <time>2024-04-27T06:35:16Z</time>
      </trkpt>
      <trkpt lat="45.87307" lon="6.45905">
        <ele>1464.6</ele>
        <time>2024-04-27T06:35:17Z</time>
      </trkpt>
      <trkpt lat="45.87305" lon="6.45905">
        <ele>1464.6</ele>
        <time>2024-04-27T06:35:18Z</time>
      </trkpt>
      <trkpt lat="45.87303" lon="6.45905">
        <ele>1464.6</ele>
        <time>2024-04-27T06:35:19Z</time>
      </trkpt>
      <trkpt lat="45.87302" lon="6.45904">
        <ele>1463.7</ele>
        <time>2024-04-27T06:35:20Z</time>
      </trkpt>
      <trkpt lat="45.873" lon="6.45904">
        <ele>1463.7</ele>
        <time>2024-04-27T06:35:21Z</time>
      </trkpt>
      <trkpt lat="45.87299" lon="6.45903">
        <ele>1463.7</ele>
        <time>2024-04-27T06:35:22Z</time>
      </trkpt>
      <trkpt lat="45.87297" lon="6.45903">
        <ele>1463.7</ele>
        <time>2024-04-27T06:35:23Z</time>
      </trkpt>
      <trkpt lat="45.87296" lon="6.45903">
        <ele>1463.7</ele>
        <time>2024-04-27T06:35:24Z</time>
      </trkpt>
      <trkpt lat="45.87295" lon="6.45902">
        <ele>1463.7</ele>
        <time>2024-04-27T06:35:25Z</time>
      </trkpt>
      <trkpt lat="45.87294" lon="6.45901">
        <ele>1462.6</ele>
        <time>2024-04-27T06:35:26Z</time>
      </trkpt>
      <trkpt lat="45.87293" lon="6.459">
        <ele>1462.6</ele>
        <time>2024-04-27T06:35:27Z</time>
      </trkpt>
      <trkpt lat="45.87292" lon="6.45899">
        <ele>1462.6</ele>
        <time>2024-04-27T06:35:28Z</time>
      </trkpt>
      <trkpt lat="45.8729" lon="6.45899">
        <ele>1462.6</ele>
        <time>2024-04-27T06:35:29Z</time>
      </trkpt>
      <trkpt lat="45.8729" lon="6.45898">
        <ele>1462.6</ele>
        <time>2024-04-27T06:35:30Z</time>
      </trkpt>
      <trkpt lat="45.87289" lon="6.45897">
        <ele>1462.6</ele>
        <time>2024-04-27T06:35:31Z</time>
      </trkpt>
      <trkpt lat="45.87287" lon="6.45896">
        <ele>1462.6</ele>
        <time>2024-04-27T06:35:32Z</time>
      </trkpt>
      <trkpt lat="45.87286" lon="6.45896">
        <ele>1462.6</ele>
        <time>2024-04-27T06:35:33Z</time>
      </trkpt>
      <trkpt lat="45.87285" lon="6.45895">
        <ele>1462.6</ele>
        <time>2024-04-27T06:35:34Z</time>
      </trkpt>
      <trkpt lat="45.87284" lon="6.45895">
        <ele>1462.6</ele>
        <time>2024-04-27T06:35:35Z</time>
      </trkpt>
      <trkpt lat="45.87283" lon="6.45894">
        <ele>1462.6</ele>
        <time>2024-04-27T06:35:36Z</time>
      </trkpt>
      <trkpt lat="45.87282" lon="6.45894">
        <ele>1462.6</ele>
        <time>2024-04-27T06:35:37Z</time>
      </trkpt>
      <trkpt lat="45.87281" lon="6.45894">
        <ele>1461.7</ele>
        <time>2024-04-27T06:35:38Z</time>
      </trkpt>
      <trkpt lat="45.8728" lon="6.45893">
        <ele>1461.7</ele>
        <time>2024-04-27T06:35:39Z</time>
      </trkpt>
      <trkpt lat="45.87279" lon="6.45893">
        <ele>1461.7</ele>
        <time>2024-04-27T06:35:40Z</time>
      </trkpt>
      <trkpt lat="45.87278" lon="6.45893">
        <ele>1461.7</ele>
        <time>2024-04-27T06:35:41Z</time>
      </trkpt>
      <trkpt lat="45.87277" lon="6.45891">
        <ele>1462.6</ele>
        <time>2024-04-27T06:35:42Z</time>
      </trkpt>
      <trkpt lat="45.87276" lon="6.4589">
        <ele>1462.6</ele>
        <time>2024-04-27T06:35:43Z</time>
      </trkpt>
      <trkpt lat="45.87275" lon="6.45889">
        <ele>1462.6</ele>
        <time>2024-04-27T06:35:44Z</time>
      </trkpt>
      <trkpt lat="45.87274" lon="6.45889">
        <ele>1462.6</ele>
        <time>2024-04-27T06:35:45Z</time>
      </trkpt>
      <trkpt lat="45.87273" lon="6.45888">
        <ele>1462.6</ele>
        <time>2024-04-27T06:35:46Z</time>
      </trkpt>
      <trkpt lat="45.87272" lon="6.45886">
        <ele>1462.6</ele>
        <time>2024-04-27T06:35:47Z</time>
      </trkpt>
      <trkpt lat="45.87271" lon="6.45885">
        <ele>1462.6</ele>
        <time>2024-04-27T06:35:48Z</time>
      </trkpt>
      <trkpt lat="45.87271" lon="6.45884">
        <ele>1462.6</ele>
        <time>2024-04-27T06:35:49Z</time>
      </trkpt>
      <trkpt lat="45.8727" lon="6.45883">
        <ele>1462.6</ele>
        <time>2024-04-27T06:35:50Z</time>
      </trkpt>
      <trkpt lat="45.87268" lon="6.45882">
        <ele>1462.6</ele>
        <time>2024-04-27T06:35:51Z</time>
      </trkpt>
      <trkpt lat="45.87267" lon="6.45881">
        <ele>1462.6</ele>
        <time>2024-04-27T06:35:52Z</time>
      </trkpt>
      <trkpt lat="45.87266" lon="6.4588">
        <ele>1462.6</ele>
        <time>2024-04-27T06:35:53Z</time>
      </trkpt>
      <trkpt lat="45.87265" lon="6.45879">
        <ele>1462.6</ele>
        <time>2024-04-27T06:35:54Z</time>
      </trkpt>
      <trkpt lat="45.87265" lon="6.45879">
        <ele>1462.6</ele>
        <time>2024-04-27T06:35:55Z</time>
      </trkpt>
      <trkpt lat="45.87263" lon="6.45878">
        <ele>1462.6</ele>
        <time>2024-04-27T06:35:56Z</time>
      </trkpt>
      <trkpt lat="45.87262" lon="6.45877">
        <ele>1462.6</ele>
        <time>2024-04-27T06:35:57Z</time>
      </trkpt>
      <trkpt lat="45.87261" lon="6.45877">
        <ele>1462.6</ele>
        <time>2024-04-27T06:35:58Z</time>
      </trkpt>
      <trkpt lat="45.8726" lon="6.45876">
        <ele>1462.6</ele>
        <time>2024-04-27T06:35:59Z</time>
      </trkpt>
      <trkpt lat="45.87259" lon="6.45876">
        <ele>1463.7</ele>
        <time>2024-04-27T06:36:00Z</time>
      </trkpt>
      <trkpt lat="45.87258" lon="6.45875">
        <ele>1463.7</ele>
        <time>2024-04-27T06:36:01Z</time>
      </trkpt>
      <trkpt lat="45.87257" lon="6.45874">
        <ele>1463.7</ele>
        <time>2024-04-27T06:36:02Z</time>
      </trkpt>
      <trkpt lat="45.87256" lon="6.45873">
        <ele>1463.7</ele>
        <time>2024-04-27T06:36:03Z</time>
      </trkpt>
      <trkpt lat="45.87255" lon="6.45873">
        <ele>1464.6</ele>
        <time>2024-04-27T06:36:04Z</time>
      </trkpt>
      <trkpt lat="45.87254" lon="6.45873">
        <ele>1464.6</ele>
        <time>2024-04-27T06:36:05Z</time>
      </trkpt>
      <trkpt lat="45.87252" lon="6.45872">
        <ele>1464.6</ele>
        <time>2024-04-27T06:36:06Z</time>
      </trkpt>
      <trkpt lat="45.87251" lon="6.45872">
        <ele>1464.6</ele>
        <time>2024-04-27T06:36:07Z</time>
      </trkpt>
      <trkpt lat="45.8725" lon="6.45872">
        <ele>1464.6</ele>
        <time>2024-04-27T06:36:08Z</time>
      </trkpt>
      <trkpt lat="45.87249" lon="6.45872">
        <ele>1464.6</ele>
        <time>2024-04-27T06:36:09Z</time>
      </trkpt>
      <trkpt lat="45.87248" lon="6.45871">
        <ele>1464.6</ele>
        <time>2024-04-27T06:36:10Z</time>
      </trkpt>
      <trkpt lat="45.87248" lon="6.45871">
        <ele>1464.6</ele>
        <time>2024-04-27T06:36:11Z</time>
      </trkpt>
      <trkpt lat="45.87247" lon="6.45871">
        <ele>1464.6</ele>
        <time>2024-04-27T06:36:12Z</time>
      </trkpt>
      <trkpt lat="45.87245" lon="6.45871">
        <ele>1464.6</ele>
        <time>2024-04-27T06:36:13Z</time>
      </trkpt>
      <trkpt lat="45.87244" lon="6.45871">
        <ele>1464.6</ele>
        <time>2024-04-27T06:36:14Z</time>
      </trkpt>
      <trkpt lat="45.87243" lon="6.45871">
        <ele>1464.6</ele>
        <time>2024-04-27T06:36:15Z</time>
      </trkpt>
      <trkpt lat="45.87242" lon="6.45872">
        <ele>1464.6</ele>
        <time>2024-04-27T06:36:16Z</time>
      </trkpt>
      <trkpt lat="45.87241" lon="6.45871">
        <ele>1464.6</ele>
        <time>2024-04-27T06:36:17Z</time>
      </trkpt>
      <trkpt lat="45.87239" lon="6.45871">
        <ele>1464.6</ele>
        <time>2024-04-27T06:36:18Z</time>
      </trkpt>
      <trkpt lat="45.87238" lon="6.45871">
        <ele>1464.6</ele>
        <time>2024-04-27T06:36:19Z</time>
      </trkpt>
      <trkpt lat="45.87238" lon="6.45871">
        <ele>1464.6</ele>
        <time>2024-04-27T06:36:20Z</time>
      </trkpt>
      <trkpt lat="45.87236" lon="6.45871">
        <ele>1464.6</ele>
        <time>2024-04-27T06:36:21Z</time>
      </trkpt>
      <trkpt lat="45.87234" lon="6.45871">
        <ele>1464.6</ele>
        <time>2024-04-27T06:36:22Z</time>
      </trkpt>
      <trkpt lat="45.87233" lon="6.45871">
        <ele>1464.6</ele>
        <time>2024-04-27T06:36:23Z</time>
      </trkpt>
      <trkpt lat="45.87232" lon="6.45871">
        <ele>1464.6</ele>
        <time>2024-04-27T06:36:24Z</time>
      </trkpt>
      <trkpt lat="45.8723" lon="6.45871">
        <ele>1464.6</ele>
        <time>2024-04-27T06:36:25Z</time>
      </trkpt>
      <trkpt lat="45.87229" lon="6.45871">
        <ele>1464.6</ele>
        <time>2024-04-27T06:36:26Z</time>
      </trkpt>
      <trkpt lat="45.87228" lon="6.4587">
        <ele>1464.6</ele>
        <time>2024-04-27T06:36:27Z</time>
      </trkpt>
      <trkpt lat="45.87227" lon="6.4587">
        <ele>1464.6</ele>
        <time>2024-04-27T06:36:28Z</time>
      </trkpt>
      <trkpt lat="45.87226" lon="6.4587">
        <ele>1464.6</ele>
        <time>2024-04-27T06:36:29Z</time>
      </trkpt>
      <trkpt lat="45.87225" lon="6.45869">
        <ele>1464.6</ele>
        <time>2024-04-27T06:36:30Z</time>
      </trkpt>
      <trkpt lat="45.87224" lon="6.45869">
        <ele>1464.6</ele>
        <time>2024-04-27T06:36:31Z</time>
      </trkpt>
      <trkpt lat="45.87223" lon="6.45868">
        <ele>1465.6</ele>
        <time>2024-04-27T06:36:32Z</time>
      </trkpt>
      <trkpt lat="45.87222" lon="6.45867">
        <ele>1465.6</ele>
        <time>2024-04-27T06:36:33Z</time>
      </trkpt>
      <trkpt lat="45.8722" lon="6.45867">
        <ele>1465.6</ele>
        <time>2024-04-27T06:36:34Z</time>
      </trkpt>
      <trkpt lat="45.87219" lon="6.45867">
        <ele>1465.6</ele>
        <time>2024-04-27T06:36:35Z</time>
      </trkpt>
      <trkpt lat="45.87218" lon="6.45867">
        <ele>1465.6</ele>
        <time>2024-04-27T06:36:36Z</time>
      </trkpt>
      <trkpt lat="45.87217" lon="6.45867">
        <ele>1465.6</ele>
        <time>2024-04-27T06:36:37Z</time>
      </trkpt>
      <trkpt lat="45.87216" lon="6.45867">
        <ele>1465.6</ele>
        <time>2024-04-27T06:36:38Z</time>
      </trkpt>
      <trkpt lat="45.87215" lon="6.45866">
        <ele>1465.6</ele>
        <time>2024-04-27T06:36:39Z</time>
      </trkpt>
      <trkpt lat="45.87213" lon="6.45867">
        <ele>1465.6</ele>
        <time>2024-04-27T06:36:40Z</time>
      </trkpt>
      <trkpt lat="45.87212" lon="6.45867">
        <ele>1465.6</ele>
        <time>2024-04-27T06:36:41Z</time>
      </trkpt>
      <trkpt lat="45.87211" lon="6.45867">
        <ele>1465.6</ele>
        <time>2024-04-27T06:36:42Z</time>
      </trkpt>
      <trkpt lat="45.8721" lon="6.45867">
        <ele>1465.6</ele>
        <time>2024-04-27T06:36:43Z</time>
      </trkpt>
      <trkpt lat="45.87208" lon="6.45867">
        <ele>1465.6</ele>
        <time>2024-04-27T06:36:44Z</time>
      </trkpt>
      <trkpt lat="45.87207" lon="6.45868">
        <ele>1465.6</ele>
        <time>2024-04-27T06:36:45Z</time>
      </trkpt>
      <trkpt lat="45.87206" lon="6.45868">
        <ele>1465.6</ele>
        <time>2024-04-27T06:36:46Z</time>
      </trkpt>
      <trkpt lat="45.87205" lon="6.45869">
        <ele>1465.6</ele>
        <time>2024-04-27T06:36:47Z</time>
      </trkpt>
      <trkpt lat="45.87204" lon="6.45869">
        <ele>1465.6</ele>
        <time>2024-04-27T06:36:48Z</time>
      </trkpt>
      <trkpt lat="45.87202" lon="6.45869">
        <ele>1465.6</ele>
        <time>2024-04-27T06:36:49Z</time>
      </trkpt>
      <trkpt lat="45.87201" lon="6.45869">
        <ele>1465.6</ele>
        <time>2024-04-27T06:36:50Z</time>
      </trkpt>
      <trkpt lat="45.872" lon="6.4587">
        <ele>1465.6</ele>
        <time>2024-04-27T06:36:51Z</time>
      </trkpt>
      <trkpt lat="45.87198" lon="6.4587">
        <ele>1465.6</ele>
        <time>2024-04-27T06:36:52Z</time>
      </trkpt>
      <trkpt lat="45.87197" lon="6.4587">
        <ele>1465.6</ele>
        <time>2024-04-27T06:36:53Z</time>
      </trkpt>
      <trkpt lat="45.87196" lon="6.4587">
        <ele>1465.6</ele>
        <time>2024-04-27T06:36:54Z</time>
      </trkpt>
      <trkpt lat="45.87195" lon="6.45871">
        <ele>1465.6</ele>
        <time>2024-04-27T06:36:55Z</time>
      </trkpt>
      <trkpt lat="45.87194" lon="6.45871">
        <ele>1464.6</ele>
        <time>2024-04-27T06:36:56Z</time>
      </trkpt>
      <trkpt lat="45.87193" lon="6.45871">
        <ele>1464.6</ele>
        <time>2024-04-27T06:36:57Z</time>
      </trkpt>
      <trkpt lat="45.87192" lon="6.45871">
        <ele>1464.6</ele>
        <time>2024-04-27T06:36:58Z</time>
      </trkpt>
      <trkpt lat="45.8719" lon="6.45871">
        <ele>1464.6</ele>
        <time>2024-04-27T06:36:59Z</time>
      </trkpt>
      <trkpt lat="45.87189" lon="6.45871">
        <ele>1464.6</ele>
        <time>2024-04-27T06:37:00Z</time>
      </trkpt>
      <trkpt lat="45.87188" lon="6.45871">
        <ele>1464.6</ele>
        <time>2024-04-27T06:37:01Z</time>
      </trkpt>
      <trkpt lat="45.87187" lon="6.4587">
        <ele>1464.6</ele>
        <time>2024-04-27T06:37:02Z</time>
      </trkpt>
      <trkpt lat="45.87186" lon="6.4587">
        <ele>1464.6</ele>
        <time>2024-04-27T06:37:03Z</time>
      </trkpt>
      <trkpt lat="45.87185" lon="6.4587">
        <ele>1464.6</ele>
        <time>2024-04-27T06:37:04Z</time>
      </trkpt>
      <trkpt lat="45.87184" lon="6.4587">
        <ele>1464.6</ele>
        <time>2024-04-27T06:37:05Z</time>
      </trkpt>
      <trkpt lat="45.87183" lon="6.4587">
        <ele>1464.6</ele>
        <time>2024-04-27T06:37:06Z</time>
      </trkpt>
      <trkpt lat="45.87182" lon="6.4587">
        <ele>1464.6</ele>
        <time>2024-04-27T06:37:07Z</time>
      </trkpt>
      <trkpt lat="45.87181" lon="6.4587">
        <ele>1464.6</ele>
        <time>2024-04-27T06:37:08Z</time>
      </trkpt>
      <trkpt lat="45.87179" lon="6.45869">
        <ele>1464.6</ele>
        <time>2024-04-27T06:37:09Z</time>
      </trkpt>
      <trkpt lat="45.87178" lon="6.4587">
        <ele>1465.6</ele>
        <time>2024-04-27T06:37:10Z</time>
      </trkpt>
      <trkpt lat="45.87177" lon="6.45869">
        <ele>1465.6</ele>
        <time>2024-04-27T06:37:11Z</time>
      </trkpt>
      <trkpt lat="45.87176" lon="6.45869">
        <ele>1465.6</ele>
        <time>2024-04-27T06:37:12Z</time>
      </trkpt>
      <trkpt lat="45.87175" lon="6.45869">
        <ele>1465.6</ele>
        <time>2024-04-27T06:37:13Z</time>
      </trkpt>
      <trkpt lat="45.87174" lon="6.45869">
        <ele>1465.6</ele>
        <time>2024-04-27T06:37:14Z</time>
      </trkpt>
      <trkpt lat="45.87173" lon="6.45869">
        <ele>1465.6</ele>
        <time>2024-04-27T06:37:15Z</time>
      </trkpt>
      <trkpt lat="45.87172" lon="6.45868">
        <ele>1465.6</ele>
        <time>2024-04-27T06:37:16Z</time>
      </trkpt>
      <trkpt lat="45.8717" lon="6.45868">
        <ele>1465.6</ele>
        <time>2024-04-27T06:37:17Z</time>
      </trkpt>
      <trkpt lat="45.87169" lon="6.45868">
        <ele>1465.6</ele>
        <time>2024-04-27T06:37:18Z</time>
      </trkpt>
      <trkpt lat="45.87168" lon="6.45868">
        <ele>1465.6</ele>
        <time>2024-04-27T06:37:19Z</time>
      </trkpt>
      <trkpt lat="45.87167" lon="6.45867">
        <ele>1465.6</ele>
        <time>2024-04-27T06:37:20Z</time>
      </trkpt>
      <trkpt lat="45.87166" lon="6.45867">
        <ele>1465.6</ele>
        <time>2024-04-27T06:37:21Z</time>
      </trkpt>
      <trkpt lat="45.87165" lon="6.45867">
        <ele>1465.6</ele>
        <time>2024-04-27T06:37:22Z</time>
      </trkpt>
      <trkpt lat="45.87164" lon="6.45866">
        <ele>1465.6</ele>
        <time>2024-04-27T06:37:23Z</time>
      </trkpt>
      <trkpt lat="45.87163" lon="6.45866">
        <ele>1465.6</ele>
        <time>2024-04-27T06:37:24Z</time>
      </trkpt>
      <trkpt lat="45.87163" lon="6.45865">
        <ele>1465.6</ele>
        <time>2024-04-27T06:37:25Z</time>
      </trkpt>
      <trkpt lat="45.87162" lon="6.45864">
        <ele>1465.6</ele>
        <time>2024-04-27T06:37:26Z</time>
      </trkpt>
      <trkpt lat="45.87161" lon="6.45863">
        <ele>1465.6</ele>
        <time>2024-04-27T06:37:27Z</time>
      </trkpt>
      <trkpt lat="45.8716" lon="6.45862">
        <ele>1465.6</ele>
        <time>2024-04-27T06:37:28Z</time>
      </trkpt>
      <trkpt lat="45.87158" lon="6.45862">
        <ele>1465.6</ele>
        <time>2024-04-27T06:37:29Z</time>
      </trkpt>
      <trkpt lat="45.87157" lon="6.45861">
        <ele>1465.6</ele>
        <time>2024-04-27T06:37:30Z</time>
      </trkpt>
      <trkpt lat="45.87156" lon="6.45861">
        <ele>1465.6</ele>
        <time>2024-04-27T06:37:31Z</time>
      </trkpt>
      <trkpt lat="45.87155" lon="6.4586">
        <ele>1465.6</ele>
        <time>2024-04-27T06:37:32Z</time>
      </trkpt>
      <trkpt lat="45.87154" lon="6.45859">
        <ele>1465.6</ele>
        <time>2024-04-27T06:37:33Z</time>
      </trkpt>
      <trkpt lat="45.87153" lon="6.45859">
        <ele>1465.6</ele>
        <time>2024-04-27T06:37:34Z</time>
      </trkpt>
      <trkpt lat="45.87151" lon="6.45859">
        <ele>1465.6</ele>
        <time>2024-04-27T06:37:35Z</time>
      </trkpt>
      <trkpt lat="45.8715" lon="6.45858">
        <ele>1465.6</ele>
        <time>2024-04-27T06:37:36Z</time>
      </trkpt>
      <trkpt lat="45.87149" lon="6.45858">
        <ele>1465.6</ele>
        <time>2024-04-27T06:37:37Z</time>
      </trkpt>
      <trkpt lat="45.87149" lon="6.45857">
        <ele>1465.6</ele>
        <time>2024-04-27T06:37:38Z</time>
      </trkpt>
      <trkpt lat="45.87148" lon="6.45857">
        <ele>1465.6</ele>
        <time>2024-04-27T06:37:39Z</time>
      </trkpt>
      <trkpt lat="45.87147" lon="6.45857">
        <ele>1465.6</ele>
        <time>2024-04-27T06:37:40Z</time>
      </trkpt>
      <trkpt lat="45.87146" lon="6.45856">
        <ele>1465.6</ele>
        <time>2024-04-27T06:37:41Z</time>
      </trkpt>
      <trkpt lat="45.87145" lon="6.45856">
        <ele>1465.6</ele>
        <time>2024-04-27T06:37:42Z</time>
      </trkpt>
      <trkpt lat="45.87144" lon="6.45855">
        <ele>1465.6</ele>
        <time>2024-04-27T06:37:43Z</time>
      </trkpt>
      <trkpt lat="45.87143" lon="6.45854">
        <ele>1465.6</ele>
        <time>2024-04-27T06:37:44Z</time>
      </trkpt>
      <trkpt lat="45.87142" lon="6.45853">
        <ele>1465.6</ele>
        <time>2024-04-27T06:37:45Z</time>
      </trkpt>
      <trkpt lat="45.87141" lon="6.45853">
        <ele>1465.6</ele>
        <time>2024-04-27T06:37:46Z</time>
      </trkpt>
      <trkpt lat="45.87141" lon="6.45852">
        <ele>1465.6</ele>
        <time>2024-04-27T06:37:47Z</time>
      </trkpt>
      <trkpt lat="45.8714" lon="6.45852">
        <ele>1465.6</ele>
        <time>2024-04-27T06:37:48Z</time>
      </trkpt>
      <trkpt lat="45.87138" lon="6.45851">
        <ele>1465.6</ele>
        <time>2024-04-27T06:37:49Z</time>
      </trkpt>
      <trkpt lat="45.87137" lon="6.45851">
        <ele>1465.6</ele>
        <time>2024-04-27T06:37:50Z</time>
      </trkpt>
      <trkpt lat="45.87137" lon="6.45851">
        <ele>1465.6</ele>
        <time>2024-04-27T06:37:51Z</time>
      </trkpt>
      <trkpt lat="45.87135" lon="6.4585">
        <ele>1465.6</ele>
        <time>2024-04-27T06:37:52Z</time>
      </trkpt>
      <trkpt lat="45.87134" lon="6.4585">
        <ele>1465.6</ele>
        <time>2024-04-27T06:37:53Z</time>
      </trkpt>
      <trkpt lat="45.87133" lon="6.45849">
        <ele>1465.6</ele>
        <time>2024-04-27T06:37:54Z</time>
      </trkpt>
      <trkpt lat="45.87131" lon="6.45848">
        <ele>1465.6</ele>
        <time>2024-04-27T06:37:55Z</time>
      </trkpt>
      <trkpt lat="45.8713" lon="6.45848">
        <ele>1466.7</ele>
        <time>2024-04-27T06:37:56Z</time>
      </trkpt>
      <trkpt lat="45.87129" lon="6.45847">
        <ele>1466.7</ele>
        <time>2024-04-27T06:37:57Z</time>
      </trkpt>
      <trkpt lat="45.87128" lon="6.45847">
        <ele>1466.7</ele>
        <time>2024-04-27T06:37:58Z</time>
      </trkpt>
      <trkpt lat="45.87127" lon="6.45847">
        <ele>1466.7</ele>
        <time>2024-04-27T06:37:59Z</time>
      </trkpt>
      <trkpt lat="45.87126" lon="6.45846">
        <ele>1466.7</ele>
        <time>2024-04-27T06:38:00Z</time>
      </trkpt>
      <trkpt lat="45.87125" lon="6.45846">
        <ele>1466.7</ele>
        <time>2024-04-27T06:38:01Z</time>
      </trkpt>
      <trkpt lat="45.87124" lon="6.45846">
        <ele>1466.7</ele>
        <time>2024-04-27T06:38:02Z</time>
      </trkpt>
      <trkpt lat="45.87123" lon="6.45846">
        <ele>1466.7</ele>
        <time>2024-04-27T06:38:03Z</time>
      </trkpt>
      <trkpt lat="45.87122" lon="6.45845">
        <ele>1467.6</ele>
        <time>2024-04-27T06:38:04Z</time>
      </trkpt>
      <trkpt lat="45.87121" lon="6.45845">
        <ele>1467.6</ele>
        <time>2024-04-27T06:38:05Z</time>
      </trkpt>
      <trkpt lat="45.8712" lon="6.45845">
        <ele>1467.6</ele>
        <time>2024-04-27T06:38:06Z</time>
      </trkpt>
      <trkpt lat="45.87119" lon="6.45844">
        <ele>1467.6</ele>
        <time>2024-04-27T06:38:07Z</time>
      </trkpt>
      <trkpt lat="45.87119" lon="6.45844">
        <ele>1468.7</ele>
        <time>2024-04-27T06:38:08Z</time>
      </trkpt>
      <trkpt lat="45.87117" lon="6.45843">
        <ele>1468.7</ele>
        <time>2024-04-27T06:38:09Z</time>
      </trkpt>
      <trkpt lat="45.87116" lon="6.45843">
        <ele>1468.7</ele>
        <time>2024-04-27T06:38:10Z</time>
      </trkpt>
      <trkpt lat="45.87116" lon="6.45843">
        <ele>1468.7</ele>
        <time>2024-04-27T06:38:11Z</time>
      </trkpt>
      <trkpt lat="45.87115" lon="6.45842">
        <ele>1468.7</ele>
        <time>2024-04-27T06:38:12Z</time>
      </trkpt>
      <trkpt lat="45.87114" lon="6.45842">
        <ele>1468.7</ele>
        <time>2024-04-27T06:38:13Z</time>
      </trkpt>
      <trkpt lat="45.87112" lon="6.45842">
        <ele>1469.6</ele>
        <time>2024-04-27T06:38:14Z</time>
      </trkpt>
      <trkpt lat="45.87111" lon="6.45841">
        <ele>1469.6</ele>
        <time>2024-04-27T06:38:15Z</time>
      </trkpt>
      <trkpt lat="45.8711" lon="6.45841">
        <ele>1469.6</ele>
        <time>2024-04-27T06:38:16Z</time>
      </trkpt>
      <trkpt lat="45.8711" lon="6.45841">
        <ele>1469.6</ele>
        <time>2024-04-27T06:38:17Z</time>
      </trkpt>
      <trkpt lat="45.87109" lon="6.4584">
        <ele>1470.7</ele>
        <time>2024-04-27T06:38:18Z</time>
      </trkpt>
      <trkpt lat="45.87108" lon="6.45839">
        <ele>1470.7</ele>
        <time>2024-04-27T06:38:19Z</time>
      </trkpt>
      <trkpt lat="45.87107" lon="6.45839">
        <ele>1470.7</ele>
        <time>2024-04-27T06:38:20Z</time>
      </trkpt>
      <trkpt lat="45.87106" lon="6.45838">
        <ele>1470.7</ele>
        <time>2024-04-27T06:38:21Z</time>
      </trkpt>
      <trkpt lat="45.87105" lon="6.45837">
        <ele>1470.7</ele>
        <time>2024-04-27T06:38:22Z</time>
      </trkpt>
      <trkpt lat="45.87104" lon="6.45837">
        <ele>1470.7</ele>
        <time>2024-04-27T06:38:23Z</time>
      </trkpt>
      <trkpt lat="45.87103" lon="6.45836">
        <ele>1470.7</ele>
        <time>2024-04-27T06:38:24Z</time>
      </trkpt>
      <trkpt lat="45.87103" lon="6.45836">
        <ele>1470.7</ele>
        <time>2024-04-27T06:38:25Z</time>
      </trkpt>
      <trkpt lat="45.87102" lon="6.45836">
        <ele>1470.7</ele>
        <time>2024-04-27T06:38:26Z</time>
      </trkpt>
      <trkpt lat="45.87101" lon="6.45835">
        <ele>1470.7</ele>
        <time>2024-04-27T06:38:27Z</time>
      </trkpt>
      <trkpt lat="45.871" lon="6.45834">
        <ele>1471.6</ele>
        <time>2024-04-27T06:38:28Z</time>
      </trkpt>
      <trkpt lat="45.871" lon="6.45832">
        <ele>1471.6</ele>
        <time>2024-04-27T06:38:29Z</time>
      </trkpt>
      <trkpt lat="45.87099" lon="6.45831">
        <ele>1471.6</ele>
        <time>2024-04-27T06:38:30Z</time>
      </trkpt>
      <trkpt lat="45.87099" lon="6.4583">
        <ele>1471.6</ele>
        <time>2024-04-27T06:38:31Z</time>
      </trkpt>
      <trkpt lat="45.87098" lon="6.45828">
        <ele>1471.6</ele>
        <time>2024-04-27T06:38:32Z</time>
      </trkpt>
      <trkpt lat="45.87098" lon="6.45827">
        <ele>1471.6</ele>
        <time>2024-04-27T06:38:33Z</time>
      </trkpt>
      <trkpt lat="45.87097" lon="6.45825">
        <ele>1471.6</ele>
        <time>2024-04-27T06:38:34Z</time>
      </trkpt>
      <trkpt lat="45.87097" lon="6.45824">
        <ele>1471.6</ele>
        <time>2024-04-27T06:38:35Z</time>
      </trkpt>
      <trkpt lat="45.87096" lon="6.45823">
        <ele>1471.6</ele>
        <time>2024-04-27T06:38:36Z</time>
      </trkpt>
      <trkpt lat="45.87095" lon="6.45822">
        <ele>1471.6</ele>
        <time>2024-04-27T06:38:37Z</time>
      </trkpt>
      <trkpt lat="45.87094" lon="6.45822">
        <ele>1472.7</ele>
        <time>2024-04-27T06:38:38Z</time>
      </trkpt>
      <trkpt lat="45.87093" lon="6.45821">
        <ele>1472.7</ele>
        <time>2024-04-27T06:38:39Z</time>
      </trkpt>
      <trkpt lat="45.87093" lon="6.4582">
        <ele>1472.7</ele>
        <time>2024-04-27T06:38:40Z</time>
      </trkpt>
      <trkpt lat="45.87092" lon="6.45819">
        <ele>1472.7</ele>
        <time>2024-04-27T06:38:41Z</time>
      </trkpt>
      <trkpt lat="45.87091" lon="6.45819">
        <ele>1473.6</ele>
        <time>2024-04-27T06:38:42Z</time>
      </trkpt>
      <trkpt lat="45.8709" lon="6.45818">
        <ele>1473.6</ele>
        <time>2024-04-27T06:38:43Z</time>
      </trkpt>
      <trkpt lat="45.87089" lon="6.45818">
        <ele>1473.6</ele>
        <time>2024-04-27T06:38:44Z</time>
      </trkpt>
      <trkpt lat="45.87088" lon="6.45818">
        <ele>1473.6</ele>
        <time>2024-04-27T06:38:45Z</time>
      </trkpt>
      <trkpt lat="45.87087" lon="6.45818">
        <ele>1474.6</ele>
        <time>2024-04-27T06:38:46Z</time>
      </trkpt>
      <trkpt lat="45.87087" lon="6.45818">
        <ele>1474.6</ele>
        <time>2024-04-27T06:38:47Z</time>
      </trkpt>
      <trkpt lat="45.87086" lon="6.45818">
        <ele>1474.6</ele>
        <time>2024-04-27T06:38:48Z</time>
      </trkpt>
      <trkpt lat="45.87085" lon="6.45817">
        <ele>1474.6</ele>
        <time>2024-04-27T06:38:49Z</time>
      </trkpt>
      <trkpt lat="45.87084" lon="6.45816">
        <ele>1475.7</ele>
        <time>2024-04-27T06:38:50Z</time>
      </trkpt>
      <trkpt lat="45.87084" lon="6.45815">
        <ele>1475.7</ele>
        <time>2024-04-27T06:38:51Z</time>
      </trkpt>
      <trkpt lat="45.87083" lon="6.45813">
        <ele>1475.7</ele>
        <time>2024-04-27T06:38:52Z</time>
      </trkpt>
      <trkpt lat="45.87083" lon="6.45812">
        <ele>1475.7</ele>
        <time>2024-04-27T06:38:53Z</time>
      </trkpt>
      <trkpt lat="45.87082" lon="6.45811">
        <ele>1476.6</ele>
        <time>2024-04-27T06:38:54Z</time>
      </trkpt>
      <trkpt lat="45.87082" lon="6.45809">
        <ele>1476.6</ele>
        <time>2024-04-27T06:38:55Z</time>
      </trkpt>
      <trkpt lat="45.87081" lon="6.45808">
        <ele>1476.6</ele>
        <time>2024-04-27T06:38:56Z</time>
      </trkpt>
      <trkpt lat="45.87081" lon="6.45806">
        <ele>1476.6</ele>
        <time>2024-04-27T06:38:57Z</time>
      </trkpt>
      <trkpt lat="45.87081" lon="6.45805">
        <ele>1476.6</ele>
        <time>2024-04-27T06:38:58Z</time>
      </trkpt>
      <trkpt lat="45.8708" lon="6.45803">
        <ele>1476.6</ele>
        <time>2024-04-27T06:38:59Z</time>
      </trkpt>
      <trkpt lat="45.8708" lon="6.45802">
        <ele>1476.6</ele>
        <time>2024-04-27T06:39:00Z</time>
      </trkpt>
      <trkpt lat="45.87079" lon="6.45801">
        <ele>1476.6</ele>
        <time>2024-04-27T06:39:01Z</time>
      </trkpt>
      <trkpt lat="45.87079" lon="6.458">
        <ele>1477.7</ele>
        <time>2024-04-27T06:39:02Z</time>
      </trkpt>
      <trkpt lat="45.87079" lon="6.45798">
        <ele>1477.7</ele>
        <time>2024-04-27T06:39:03Z</time>
      </trkpt>
      <trkpt lat="45.87078" lon="6.45797">
        <ele>1477.7</ele>
        <time>2024-04-27T06:39:04Z</time>
      </trkpt>
      <trkpt lat="45.87078" lon="6.45795">
        <ele>1477.7</ele>
        <time>2024-04-27T06:39:05Z</time>
      </trkpt>
      <trkpt lat="45.87078" lon="6.45794">
        <ele>1477.7</ele>
        <time>2024-04-27T06:39:06Z</time>
      </trkpt>
      <trkpt lat="45.87078" lon="6.45792">
        <ele>1477.7</ele>
        <time>2024-04-27T06:39:07Z</time>
      </trkpt>
      <trkpt lat="45.87078" lon="6.45791">
        <ele>1477.7</ele>
        <time>2024-04-27T06:39:08Z</time>
      </trkpt>
      <trkpt lat="45.87077" lon="6.4579">
        <ele>1477.7</ele>
        <time>2024-04-27T06:39:09Z</time>
      </trkpt>
      <trkpt lat="45.87077" lon="6.45788">
        <ele>1477.7</ele>
        <time>2024-04-27T06:39:10Z</time>
      </trkpt>
      <trkpt lat="45.87076" lon="6.45787">
        <ele>1477.7</ele>
        <time>2024-04-27T06:39:11Z</time>
      </trkpt>
      <trkpt lat="45.87075" lon="6.45786">
        <ele>1478.6</ele>
        <time>2024-04-27T06:39:12Z</time>
      </trkpt>
      <trkpt lat="45.87075" lon="6.45785">
        <ele>1478.6</ele>
        <time>2024-04-27T06:39:13Z</time>
      </trkpt>
      <trkpt lat="45.87075" lon="6.45784">
        <ele>1478.6</ele>
        <time>2024-04-27T06:39:14Z</time>
      </trkpt>
      <trkpt lat="45.87075" lon="6.45782">
        <ele>1478.6</ele>
        <time>2024-04-27T06:39:15Z</time>
      </trkpt>
      <trkpt lat="45.87075" lon="6.45781">
        <ele>1479.7</ele>
        <time>2024-04-27T06:39:16Z</time>
      </trkpt>
      <trkpt lat="45.87075" lon="6.4578">
        <ele>1479.7</ele>
        <time>2024-04-27T06:39:17Z</time>
      </trkpt>
      <trkpt lat="45.87074" lon="6.45778">
        <ele>1479.7</ele>
        <time>2024-04-27T06:39:18Z</time>
      </trkpt>
      <trkpt lat="45.87074" lon="6.45778">
        <ele>1479.7</ele>
        <time>2024-04-27T06:39:19Z</time>
      </trkpt>
      <trkpt lat="45.87074" lon="6.45776">
        <ele>1479.7</ele>
        <time>2024-04-27T06:39:20Z</time>
      </trkpt>
      <trkpt lat="45.87073" lon="6.45775">
        <ele>1479.7</ele>
        <time>2024-04-27T06:39:21Z</time>
      </trkpt>
      <trkpt lat="45.87073" lon="6.45774">
        <ele>1479.7</ele>
        <time>2024-04-27T06:39:22Z</time>
      </trkpt>
      <trkpt lat="45.87072" lon="6.45772">
        <ele>1479.7</ele>
        <time>2024-04-27T06:39:23Z</time>
      </trkpt>
      <trkpt lat="45.87072" lon="6.45771">
        <ele>1479.7</ele>
        <time>2024-04-27T06:39:24Z</time>
      </trkpt>
      <trkpt lat="45.87072" lon="6.4577">
        <ele>1479.7</ele>
        <time>2024-04-27T06:39:25Z</time>
      </trkpt>
      <trkpt lat="45.87071" lon="6.45769">
        <ele>1480.6</ele>
        <time>2024-04-27T06:39:26Z</time>
      </trkpt>
      <trkpt lat="45.87071" lon="6.45767">
        <ele>1480.6</ele>
        <time>2024-04-27T06:39:27Z</time>
      </trkpt>
      <trkpt lat="45.87071" lon="6.45766">
        <ele>1480.6</ele>
        <time>2024-04-27T06:39:28Z</time>
      </trkpt>
      <trkpt lat="45.8707" lon="6.45764">
        <ele>1480.6</ele>
        <time>2024-04-27T06:39:29Z</time>
      </trkpt>
      <trkpt lat="45.8707" lon="6.45763">
        <ele>1480.6</ele>
        <time>2024-04-27T06:39:30Z</time>
      </trkpt>
      <trkpt lat="45.8707" lon="6.45762">
        <ele>1480.6</ele>
        <time>2024-04-27T06:39:31Z</time>
      </trkpt>
      <trkpt lat="45.87069" lon="6.4576">
        <ele>1480.6</ele>
        <time>2024-04-27T06:39:32Z</time>
      </trkpt>
      <trkpt lat="45.87069" lon="6.45759">
        <ele>1480.6</ele>
        <time>2024-04-27T06:39:33Z</time>
      </trkpt>
      <trkpt lat="45.87069" lon="6.45757">
        <ele>1481.7</ele>
        <time>2024-04-27T06:39:34Z</time>
      </trkpt>
      <trkpt lat="45.87069" lon="6.45756">
        <ele>1481.7</ele>
        <time>2024-04-27T06:39:35Z</time>
      </trkpt>
      <trkpt lat="45.87068" lon="6.45754">
        <ele>1481.7</ele>
        <time>2024-04-27T06:39:36Z</time>
      </trkpt>
      <trkpt lat="45.87068" lon="6.45753">
        <ele>1481.7</ele>
        <time>2024-04-27T06:39:37Z</time>
      </trkpt>
      <trkpt lat="45.87068" lon="6.45751">
        <ele>1481.7</ele>
        <time>2024-04-27T06:39:38Z</time>
      </trkpt>
      <trkpt lat="45.87068" lon="6.4575">
        <ele>1481.7</ele>
        <time>2024-04-27T06:39:39Z</time>
      </trkpt>
      <trkpt lat="45.87068" lon="6.45749">
        <ele>1481.7</ele>
        <time>2024-04-27T06:39:40Z</time>
      </trkpt>
      <trkpt lat="45.87067" lon="6.45748">
        <ele>1481.7</ele>
        <time>2024-04-27T06:39:41Z</time>
      </trkpt>
      <trkpt lat="45.87067" lon="6.45747">
        <ele>1481.7</ele>
        <time>2024-04-27T06:39:42Z</time>
      </trkpt>
      <trkpt lat="45.87066" lon="6.45746">
        <ele>1481.7</ele>
        <time>2024-04-27T06:39:43Z</time>
      </trkpt>
      <trkpt lat="45.87065" lon="6.45745">
        <ele>1482.7</ele>
        <time>2024-04-27T06:39:44Z</time>
      </trkpt>
      <trkpt lat="45.87065" lon="6.45744">
        <ele>1482.7</ele>
        <time>2024-04-27T06:39:45Z</time>
      </trkpt>
      <trkpt lat="45.87065" lon="6.45743">
        <ele>1482.7</ele>
        <time>2024-04-27T06:39:46Z</time>
      </trkpt>
      <trkpt lat="45.87065" lon="6.45741">
        <ele>1482.7</ele>
        <time>2024-04-27T06:39:47Z</time>
      </trkpt>
      <trkpt lat="45.87065" lon="6.4574">
        <ele>1482.7</ele>
        <time>2024-04-27T06:39:48Z</time>
      </trkpt>
      <trkpt lat="45.87064" lon="6.45739">
        <ele>1482.7</ele>
        <time>2024-04-27T06:39:49Z</time>
      </trkpt>
      <trkpt lat="45.87064" lon="6.45737">
        <ele>1482.7</ele>
        <time>2024-04-27T06:39:50Z</time>
      </trkpt>
      <trkpt lat="45.87064" lon="6.45736">
        <ele>1482.7</ele>
        <time>2024-04-27T06:39:51Z</time>
      </trkpt>
      <trkpt lat="45.87064" lon="6.45735">
        <ele>1483.6</ele>
        <time>2024-04-27T06:39:52Z</time>
      </trkpt>
      <trkpt lat="45.87063" lon="6.45734">
        <ele>1483.6</ele>
        <time>2024-04-27T06:39:53Z</time>
      </trkpt>
      <trkpt lat="45.87063" lon="6.45733">
        <ele>1483.6</ele>
        <time>2024-04-27T06:39:54Z</time>
      </trkpt>
      <trkpt lat="45.87062" lon="6.45731">
        <ele>1483.6</ele>
        <time>2024-04-27T06:39:55Z</time>
      </trkpt>
      <trkpt lat="45.87062" lon="6.4573">
        <ele>1484.7</ele>
        <time>2024-04-27T06:39:56Z</time>
      </trkpt>
      <trkpt lat="45.87062" lon="6.45729">
        <ele>1484.7</ele>
        <time>2024-04-27T06:39:57Z</time>
      </trkpt>
      <trkpt lat="45.87061" lon="6.45728">
        <ele>1484.7</ele>
        <time>2024-04-27T06:39:58Z</time>
      </trkpt>
      <trkpt lat="45.87061" lon="6.45727">
        <ele>1484.7</ele>
        <time>2024-04-27T06:39:59Z</time>
      </trkpt>
      <trkpt lat="45.87061" lon="6.45726">
        <ele>1485.6</ele>
        <time>2024-04-27T06:40:00Z</time>
      </trkpt>
      <trkpt lat="45.8706" lon="6.45725">
        <ele>1485.6</ele>
        <time>2024-04-27T06:40:01Z</time>
      </trkpt>
      <trkpt lat="45.8706" lon="6.45724">
        <ele>1485.6</ele>
        <time>2024-04-27T06:40:02Z</time>
      </trkpt>
      <trkpt lat="45.8706" lon="6.45723">
        <ele>1485.6</ele>
        <time>2024-04-27T06:40:03Z</time>
      </trkpt>
      <trkpt lat="45.8706" lon="6.45721">
        <ele>1485.6</ele>
        <time>2024-04-27T06:40:04Z</time>
      </trkpt>
      <trkpt lat="45.87059" lon="6.4572">
        <ele>1485.6</ele>
        <time>2024-04-27T06:40:05Z</time>
      </trkpt>
      <trkpt lat="45.87059" lon="6.45719">
        <ele>1486.7</ele>
        <time>2024-04-27T06:40:06Z</time>
      </trkpt>
      <trkpt lat="45.87058" lon="6.45719">
        <ele>1486.7</ele>
        <time>2024-04-27T06:40:07Z</time>
      </trkpt>
      <trkpt lat="45.87058" lon="6.45718">
        <ele>1486.7</ele>
        <time>2024-04-27T06:40:08Z</time>
      </trkpt>
      <trkpt lat="45.87058" lon="6.45718">
        <ele>1486.7</ele>
        <time>2024-04-27T06:40:09Z</time>
      </trkpt>
      <trkpt lat="45.87057" lon="6.45717">
        <ele>1486.7</ele>
        <time>2024-04-27T06:40:10Z</time>
      </trkpt>
      <trkpt lat="45.87057" lon="6.45717">
        <ele>1486.7</ele>
        <time>2024-04-27T06:40:11Z</time>
      </trkpt>
      <trkpt lat="45.87056" lon="6.45716">
        <ele>1486.7</ele>
        <time>2024-04-27T06:40:12Z</time>
      </trkpt>
      <trkpt lat="45.87055" lon="6.45716">
        <ele>1486.7</ele>
        <time>2024-04-27T06:40:13Z</time>
      </trkpt>
      <trkpt lat="45.87055" lon="6.45715">
        <ele>1486.7</ele>
        <time>2024-04-27T06:40:14Z</time>
      </trkpt>
      <trkpt lat="45.87054" lon="6.45714">
        <ele>1486.7</ele>
        <time>2024-04-27T06:40:15Z</time>
      </trkpt>
      <trkpt lat="45.87054" lon="6.45713">
        <ele>1486.7</ele>
        <time>2024-04-27T06:40:16Z</time>
      </trkpt>
      <trkpt lat="45.87054" lon="6.45712">
        <ele>1486.7</ele>
        <time>2024-04-27T06:40:17Z</time>
      </trkpt>
      <trkpt lat="45.87053" lon="6.45711">
        <ele>1486.7</ele>
        <time>2024-04-27T06:40:18Z</time>
      </trkpt>
      <trkpt lat="45.87052" lon="6.45711">
        <ele>1486.7</ele>
        <time>2024-04-27T06:40:19Z</time>
      </trkpt>
      <trkpt lat="45.87052" lon="6.45709">
        <ele>1486.7</ele>
        <time>2024-04-27T06:40:20Z</time>
      </trkpt>
      <trkpt lat="45.87052" lon="6.45708">
        <ele>1486.7</ele>
        <time>2024-04-27T06:40:21Z</time>
      </trkpt>
      <trkpt lat="45.87051" lon="6.45706">
        <ele>1486.7</ele>
        <time>2024-04-27T06:40:22Z</time>
      </trkpt>
      <trkpt lat="45.87051" lon="6.45705">
        <ele>1486.7</ele>
        <time>2024-04-27T06:40:23Z</time>
      </trkpt>
      <trkpt lat="45.87051" lon="6.45703">
        <ele>1486.7</ele>
        <time>2024-04-27T06:40:24Z</time>
      </trkpt>
      <trkpt lat="45.87051" lon="6.45702">
        <ele>1486.7</ele>
        <time>2024-04-27T06:40:25Z</time>
      </trkpt>
      <trkpt lat="45.8705" lon="6.457">
        <ele>1486.7</ele>
        <time>2024-04-27T06:40:26Z</time>
      </trkpt>
      <trkpt lat="45.8705" lon="6.45699">
        <ele>1486.7</ele>
        <time>2024-04-27T06:40:27Z</time>
      </trkpt>
      <trkpt lat="45.87049" lon="6.45698">
        <ele>1486.7</ele>
        <time>2024-04-27T06:40:28Z</time>
      </trkpt>
      <trkpt lat="45.87049" lon="6.45696">
        <ele>1486.7</ele>
        <time>2024-04-27T06:40:29Z</time>
      </trkpt>
      <trkpt lat="45.87049" lon="6.45694">
        <ele>1487.6</ele>
        <time>2024-04-27T06:40:30Z</time>
      </trkpt>
      <trkpt lat="45.87048" lon="6.45693">
        <ele>1487.6</ele>
        <time>2024-04-27T06:40:31Z</time>
      </trkpt>
      <trkpt lat="45.87048" lon="6.45691">
        <ele>1487.6</ele>
        <time>2024-04-27T06:40:32Z</time>
      </trkpt>
      <trkpt lat="45.87048" lon="6.4569">
        <ele>1487.6</ele>
        <time>2024-04-27T06:40:33Z</time>
      </trkpt>
      <trkpt lat="45.87048" lon="6.45689">
        <ele>1488.7</ele>
        <time>2024-04-27T06:40:34Z</time>
      </trkpt>
      <trkpt lat="45.87048" lon="6.45687">
        <ele>1488.7</ele>
        <time>2024-04-27T06:40:35Z</time>
      </trkpt>
      <trkpt lat="45.87048" lon="6.45687">
        <ele>1488.7</ele>
        <time>2024-04-27T06:40:36Z</time>
      </trkpt>
      <trkpt lat="45.87048" lon="6.45686">
        <ele>1488.7</ele>
        <time>2024-04-27T06:40:37Z</time>
      </trkpt>
      <trkpt lat="45.87048" lon="6.45686">
        <ele>1488.7</ele>
        <time>2024-04-27T06:40:38Z</time>
      </trkpt>
      <trkpt lat="45.87048" lon="6.45686">
        <ele>1488.7</ele>
        <time>2024-04-27T06:40:39Z</time>
      </trkpt>
      <trkpt lat="45.87048" lon="6.45686">
        <ele>1488.7</ele>
        <time>2024-04-27T06:40:40Z</time>
      </trkpt>
      <trkpt lat="45.87048" lon="6.45685">
        <ele>1488.7</ele>
        <time>2024-04-27T06:40:41Z</time>
      </trkpt>
      <trkpt lat="45.87048" lon="6.45685">
        <ele>1488.7</ele>
        <time>2024-04-27T06:40:42Z</time>
      </trkpt>
      <trkpt lat="45.87048" lon="6.45685">
        <ele>1488.7</ele>
        <time>2024-04-27T06:40:43Z</time>
      </trkpt>
      <trkpt lat="45.87047" lon="6.45685">
        <ele>1488.7</ele>
        <time>2024-04-27T06:40:44Z</time>
      </trkpt>
      <trkpt lat="45.87047" lon="6.45685">
        <ele>1488.7</ele>
        <time>2024-04-27T06:40:45Z</time>
      </trkpt>
      <trkpt lat="45.87046" lon="6.45685">
        <ele>1488.7</ele>
        <time>2024-04-27T06:40:46Z</time>
      </trkpt>
      <trkpt lat="45.87045" lon="6.45685">
        <ele>1488.7</ele>
        <time>2024-04-27T06:40:47Z</time>
      </trkpt>
      <trkpt lat="45.87045" lon="6.45685">
        <ele>1488.7</ele>
        <time>2024-04-27T06:40:48Z</time>
      </trkpt>
      <trkpt lat="45.87044" lon="6.45685">
        <ele>1488.7</ele>
        <time>2024-04-27T06:40:49Z</time>
      </trkpt>
      <trkpt lat="45.87043" lon="6.45685">
        <ele>1489.6</ele>
        <time>2024-04-27T06:40:50Z</time>
      </trkpt>
      <trkpt lat="45.87043" lon="6.45685">
        <ele>1489.6</ele>
        <time>2024-04-27T06:40:51Z</time>
      </trkpt>
      <trkpt lat="45.87042" lon="6.45686">
        <ele>1489.6</ele>
        <time>2024-04-27T06:40:52Z</time>
      </trkpt>
      <trkpt lat="45.87042" lon="6.45686">
        <ele>1489.6</ele>
        <time>2024-04-27T06:40:53Z</time>
      </trkpt>
      <trkpt lat="45.87041" lon="6.45687">
        <ele>1490.6</ele>
        <time>2024-04-27T06:40:54Z</time>
      </trkpt>
      <trkpt lat="45.8704" lon="6.45687">
        <ele>1490.6</ele>
        <time>2024-04-27T06:40:55Z</time>
      </trkpt>
      <trkpt lat="45.8704" lon="6.45687">
        <ele>1490.6</ele>
        <time>2024-04-27T06:40:56Z</time>
      </trkpt>
      <trkpt lat="45.8704" lon="6.45687">
        <ele>1490.6</ele>
        <time>2024-04-27T06:40:57Z</time>
      </trkpt>
      <trkpt lat="45.87039" lon="6.45688">
        <ele>1491.7</ele>
        <time>2024-04-27T06:40:58Z</time>
      </trkpt>
      <trkpt lat="45.87038" lon="6.45688">
        <ele>1491.7</ele>
        <time>2024-04-27T06:40:59Z</time>
      </trkpt>
      <trkpt lat="45.87037" lon="6.45688">
        <ele>1491.7</ele>
        <time>2024-04-27T06:41:00Z</time>
      </trkpt>
      <trkpt lat="45.87037" lon="6.45688">
        <ele>1491.7</ele>
        <time>2024-04-27T06:41:01Z</time>
      </trkpt>
      <trkpt lat="45.87036" lon="6.45689">
        <ele>1491.7</ele>
        <time>2024-04-27T06:41:02Z</time>
      </trkpt>
      <trkpt lat="45.87036" lon="6.45689">
        <ele>1491.7</ele>
        <time>2024-04-27T06:41:03Z</time>
      </trkpt>
      <trkpt lat="45.87035" lon="6.4569">
        <ele>1491.7</ele>
        <time>2024-04-27T06:41:04Z</time>
      </trkpt>
      <trkpt lat="45.87034" lon="6.4569">
        <ele>1491.7</ele>
        <time>2024-04-27T06:41:05Z</time>
      </trkpt>
      <trkpt lat="45.87033" lon="6.4569">
        <ele>1492.6</ele>
        <time>2024-04-27T06:41:06Z</time>
      </trkpt>
      <trkpt lat="45.87033" lon="6.45691">
        <ele>1492.6</ele>
        <time>2024-04-27T06:41:07Z</time>
      </trkpt>
      <trkpt lat="45.87032" lon="6.45692">
        <ele>1492.6</ele>
        <time>2024-04-27T06:41:08Z</time>
      </trkpt>
      <trkpt lat="45.87032" lon="6.45692">
        <ele>1492.6</ele>
        <time>2024-04-27T06:41:09Z</time>
      </trkpt>
      <trkpt lat="45.87031" lon="6.45693">
        <ele>1492.6</ele>
        <time>2024-04-27T06:41:10Z</time>
      </trkpt>
      <trkpt lat="45.87031" lon="6.45693">
        <ele>1492.6</ele>
        <time>2024-04-27T06:41:11Z</time>
      </trkpt>
      <trkpt lat="45.87031" lon="6.45694">
        <ele>1493.7</ele>
        <time>2024-04-27T06:41:12Z</time>
      </trkpt>
      <trkpt lat="45.8703" lon="6.45694">
        <ele>1493.7</ele>
        <time>2024-04-27T06:41:13Z</time>
      </trkpt>
      <trkpt lat="45.8703" lon="6.45695">
        <ele>1493.7</ele>
        <time>2024-04-27T06:41:14Z</time>
      </trkpt>
      <trkpt lat="45.87029" lon="6.45695">
        <ele>1493.7</ele>
        <time>2024-04-27T06:41:15Z</time>
      </trkpt>
      <trkpt lat="45.87029" lon="6.45696">
        <ele>1493.7</ele>
        <time>2024-04-27T06:41:16Z</time>
      </trkpt>
      <trkpt lat="45.87028" lon="6.45696">
        <ele>1493.7</ele>
        <time>2024-04-27T06:41:17Z</time>
      </trkpt>
      <trkpt lat="45.87028" lon="6.45696">
        <ele>1493.7</ele>
        <time>2024-04-27T06:41:18Z</time>
      </trkpt>
      <trkpt lat="45.87027" lon="6.45697">
        <ele>1493.7</ele>
        <time>2024-04-27T06:41:19Z</time>
      </trkpt>
      <trkpt lat="45.87027" lon="6.45698">
        <ele>1493.7</ele>
        <time>2024-04-27T06:41:20Z</time>
      </trkpt>
      <trkpt lat="45.87026" lon="6.45698">
        <ele>1493.7</ele>
        <time>2024-04-27T06:41:21Z</time>
      </trkpt>
      <trkpt lat="45.87026" lon="6.45699">
        <ele>1494.6</ele>
        <time>2024-04-27T06:41:22Z</time>
      </trkpt>
      <trkpt lat="45.87026" lon="6.457">
        <ele>1494.6</ele>
        <time>2024-04-27T06:41:23Z</time>
      </trkpt>
      <trkpt lat="45.87025" lon="6.457">
        <ele>1494.6</ele>
        <time>2024-04-27T06:41:24Z</time>
      </trkpt>
      <trkpt lat="45.87025" lon="6.45701">
        <ele>1494.6</ele>
        <time>2024-04-27T06:41:25Z</time>
      </trkpt>
      <trkpt lat="45.87024" lon="6.45701">
        <ele>1495.7</ele>
        <time>2024-04-27T06:41:26Z</time>
      </trkpt>
      <trkpt lat="45.87024" lon="6.45701">
        <ele>1495.7</ele>
        <time>2024-04-27T06:41:27Z</time>
      </trkpt>
      <trkpt lat="45.87023" lon="6.45701">
        <ele>1495.7</ele>
        <time>2024-04-27T06:41:28Z</time>
      </trkpt>
      <trkpt lat="45.87023" lon="6.45701">
        <ele>1495.7</ele>
        <time>2024-04-27T06:41:29Z</time>
      </trkpt>
      <trkpt lat="45.87022" lon="6.45701">
        <ele>1495.7</ele>
        <time>2024-04-27T06:41:30Z</time>
      </trkpt>
      <trkpt lat="45.87021" lon="6.45701">
        <ele>1495.7</ele>
        <time>2024-04-27T06:41:31Z</time>
      </trkpt>
      <trkpt lat="45.87021" lon="6.45701">
        <ele>1495.7</ele>
        <time>2024-04-27T06:41:32Z</time>
      </trkpt>
      <trkpt lat="45.8702" lon="6.457">
        <ele>1495.7</ele>
        <time>2024-04-27T06:41:33Z</time>
      </trkpt>
      <trkpt lat="45.8702" lon="6.457">
        <ele>1496.6</ele>
        <time>2024-04-27T06:41:34Z</time>
      </trkpt>
      <trkpt lat="45.87019" lon="6.45699">
        <ele>1496.6</ele>
        <time>2024-04-27T06:41:35Z</time>
      </trkpt>
      <trkpt lat="45.87018" lon="6.45699">
        <ele>1496.6</ele>
        <time>2024-04-27T06:41:36Z</time>
      </trkpt>
      <trkpt lat="45.87018" lon="6.45698">
        <ele>1496.6</ele>
        <time>2024-04-27T06:41:37Z</time>
      </trkpt>
      <trkpt lat="45.87017" lon="6.45698">
        <ele>1496.6</ele>
        <time>2024-04-27T06:41:38Z</time>
      </trkpt>
      <trkpt lat="45.87017" lon="6.45697">
        <ele>1496.6</ele>
        <time>2024-04-27T06:41:39Z</time>
      </trkpt>
      <trkpt lat="45.87016" lon="6.45697">
        <ele>1497.7</ele>
        <time>2024-04-27T06:41:40Z</time>
      </trkpt>
      <trkpt lat="45.87015" lon="6.45697">
        <ele>1497.7</ele>
        <time>2024-04-27T06:41:41Z</time>
      </trkpt>
      <trkpt lat="45.87014" lon="6.45696">
        <ele>1497.7</ele>
        <time>2024-04-27T06:41:42Z</time>
      </trkpt>
      <trkpt lat="45.87014" lon="6.45696">
        <ele>1497.7</ele>
        <time>2024-04-27T06:41:43Z</time>
      </trkpt>
      <trkpt lat="45.87014" lon="6.45695">
        <ele>1497.7</ele>
        <time>2024-04-27T06:41:44Z</time>
      </trkpt>
      <trkpt lat="45.87013" lon="6.45694">
        <ele>1497.7</ele>
        <time>2024-04-27T06:41:45Z</time>
      </trkpt>
      <trkpt lat="45.87012" lon="6.45694">
        <ele>1498.6</ele>
        <time>2024-04-27T06:41:46Z</time>
      </trkpt>
      <trkpt lat="45.87012" lon="6.45693">
        <ele>1498.6</ele>
        <time>2024-04-27T06:41:47Z</time>
      </trkpt>
      <trkpt lat="45.87011" lon="6.45692">
        <ele>1499.6</ele>
        <time>2024-04-27T06:41:48Z</time>
      </trkpt>
      <trkpt lat="45.87011" lon="6.45691">
        <ele>1499.6</ele>
        <time>2024-04-27T06:41:49Z</time>
      </trkpt>
      <trkpt lat="45.87011" lon="6.45691">
        <ele>1499.6</ele>
        <time>2024-04-27T06:41:50Z</time>
      </trkpt>
      <trkpt lat="45.8701" lon="6.4569">
        <ele>1499.6</ele>
        <time>2024-04-27T06:41:51Z</time>
      </trkpt>
      <trkpt lat="45.8701" lon="6.4569">
        <ele>1500.7</ele>
        <time>2024-04-27T06:41:52Z</time>
      </trkpt>
      <trkpt lat="45.8701" lon="6.4569">
        <ele>1500.7</ele>
        <time>2024-04-27T06:41:53Z</time>
      </trkpt>
      <trkpt lat="45.8701" lon="6.4569">
        <ele>1500.7</ele>
        <time>2024-04-27T06:41:54Z</time>
      </trkpt>
      <trkpt lat="45.8701" lon="6.45691">
        <ele>1500.7</ele>
        <time>2024-04-27T06:41:55Z</time>
      </trkpt>
      <trkpt lat="45.8701" lon="6.45692">
        <ele>1500.7</ele>
        <time>2024-04-27T06:41:56Z</time>
      </trkpt>
      <trkpt lat="45.8701" lon="6.45693">
        <ele>1500.7</ele>
        <time>2024-04-27T06:41:57Z</time>
      </trkpt>
      <trkpt lat="45.8701" lon="6.45694">
        <ele>1500.7</ele>
        <time>2024-04-27T06:41:58Z</time>
      </trkpt>
      <trkpt lat="45.87009" lon="6.45695">
        <ele>1500.7</ele>
        <time>2024-04-27T06:41:59Z</time>
      </trkpt>
      <trkpt lat="45.87009" lon="6.45696">
        <ele>1501.6</ele>
        <time>2024-04-27T06:42:00Z</time>
      </trkpt>
      <trkpt lat="45.87008" lon="6.45698">
        <ele>1501.6</ele>
        <time>2024-04-27T06:42:01Z</time>
      </trkpt>
      <trkpt lat="45.87008" lon="6.45699">
        <ele>1501.6</ele>
        <time>2024-04-27T06:42:02Z</time>
      </trkpt>
      <trkpt lat="45.87007" lon="6.457">
        <ele>1501.6</ele>
        <time>2024-04-27T06:42:03Z</time>
      </trkpt>
      <trkpt lat="45.87006" lon="6.457">
        <ele>1501.6</ele>
        <time>2024-04-27T06:42:04Z</time>
      </trkpt>
      <trkpt lat="45.87006" lon="6.45701">
        <ele>1501.6</ele>
        <time>2024-04-27T06:42:05Z</time>
      </trkpt>
      <trkpt lat="45.87005" lon="6.45701">
        <ele>1502.7</ele>
        <time>2024-04-27T06:42:06Z</time>
      </trkpt>
      <trkpt lat="45.87005" lon="6.45702">
        <ele>1502.7</ele>
        <time>2024-04-27T06:42:07Z</time>
      </trkpt>
      <trkpt lat="45.87004" lon="6.45702">
        <ele>1502.7</ele>
        <time>2024-04-27T06:42:08Z</time>
      </trkpt>
      <trkpt lat="45.87004" lon="6.45702">
        <ele>1502.7</ele>
        <time>2024-04-27T06:42:09Z</time>
      </trkpt>
      <trkpt lat="45.87003" lon="6.45702">
        <ele>1503.6</ele>
        <time>2024-04-27T06:42:10Z</time>
      </trkpt>
      <trkpt lat="45.87003" lon="6.45703">
        <ele>1503.6</ele>
        <time>2024-04-27T06:42:11Z</time>
      </trkpt>
      <trkpt lat="45.87002" lon="6.45703">
        <ele>1503.6</ele>
        <time>2024-04-27T06:42:12Z</time>
      </trkpt>
      <trkpt lat="45.87002" lon="6.45704">
        <ele>1503.6</ele>
        <time>2024-04-27T06:42:13Z</time>
      </trkpt>
      <trkpt lat="45.87002" lon="6.45705">
        <ele>1504.7</ele>
        <time>2024-04-27T06:42:14Z</time>
      </trkpt>
      <trkpt lat="45.87001" lon="6.45706">
        <ele>1504.7</ele>
        <time>2024-04-27T06:42:15Z</time>
      </trkpt>
      <trkpt lat="45.87001" lon="6.45706">
        <ele>1504.7</ele>
        <time>2024-04-27T06:42:16Z</time>
      </trkpt>
      <trkpt lat="45.87001" lon="6.45707">
        <ele>1504.7</ele>
        <time>2024-04-27T06:42:17Z</time>
      </trkpt>
      <trkpt lat="45.87" lon="6.45708">
        <ele>1505.6</ele>
        <time>2024-04-27T06:42:18Z</time>
      </trkpt>
      <trkpt lat="45.87" lon="6.45709">
        <ele>1505.6</ele>
        <time>2024-04-27T06:42:19Z</time>
      </trkpt>
      <trkpt lat="45.86999" lon="6.45709">
        <ele>1505.6</ele>
        <time>2024-04-27T06:42:20Z</time>
      </trkpt>
      <trkpt lat="45.86999" lon="6.4571">
        <ele>1505.6</ele>
        <time>2024-04-27T06:42:21Z</time>
      </trkpt>
      <trkpt lat="45.86998" lon="6.4571">
        <ele>1506.6</ele>
        <time>2024-04-27T06:42:22Z</time>
      </trkpt>
      <trkpt lat="45.86997" lon="6.4571">
        <ele>1506.6</ele>
        <time>2024-04-27T06:42:23Z</time>
      </trkpt>
      <trkpt lat="45.86997" lon="6.4571">
        <ele>1506.6</ele>
        <time>2024-04-27T06:42:24Z</time>
      </trkpt>
      <trkpt lat="45.86996" lon="6.4571">
        <ele>1506.6</ele>
        <time>2024-04-27T06:42:25Z</time>
      </trkpt>
      <trkpt lat="45.86996" lon="6.4571">
        <ele>1506.6</ele>
        <time>2024-04-27T06:42:26Z</time>
      </trkpt>
      <trkpt lat="45.86995" lon="6.4571">
        <ele>1506.6</ele>
        <time>2024-04-27T06:42:27Z</time>
      </trkpt>
      <trkpt lat="45.86995" lon="6.4571">
        <ele>1506.6</ele>
        <time>2024-04-27T06:42:28Z</time>
      </trkpt>
      <trkpt lat="45.86995" lon="6.4571">
        <ele>1506.6</ele>
        <time>2024-04-27T06:42:29Z</time>
      </trkpt>
      <trkpt lat="45.86995" lon="6.4571">
        <ele>1507.7</ele>
        <time>2024-04-27T06:42:30Z</time>
      </trkpt>
      <trkpt lat="45.86994" lon="6.4571">
        <ele>1507.7</ele>
        <time>2024-04-27T06:42:31Z</time>
      </trkpt>
      <trkpt lat="45.86993" lon="6.4571">
        <ele>1507.7</ele>
        <time>2024-04-27T06:42:32Z</time>
      </trkpt>
      <trkpt lat="45.86993" lon="6.45711">
        <ele>1507.7</ele>
        <time>2024-04-27T06:42:33Z</time>
      </trkpt>
      <trkpt lat="45.86992" lon="6.45711">
        <ele>1507.7</ele>
        <time>2024-04-27T06:42:34Z</time>
      </trkpt>
      <trkpt lat="45.86992" lon="6.45712">
        <ele>1507.7</ele>
        <time>2024-04-27T06:42:35Z</time>
      </trkpt>
      <trkpt lat="45.86992" lon="6.45712">
        <ele>1507.7</ele>
        <time>2024-04-27T06:42:36Z</time>
      </trkpt>
      <trkpt lat="45.86992" lon="6.45714">
        <ele>1507.7</ele>
        <time>2024-04-27T06:42:37Z</time>
      </trkpt>
      <trkpt lat="45.86991" lon="6.45715">
        <ele>1507.7</ele>
        <time>2024-04-27T06:42:38Z</time>
      </trkpt>
      <trkpt lat="45.86991" lon="6.45715">
        <ele>1507.7</ele>
        <time>2024-04-27T06:42:39Z</time>
      </trkpt>
      <trkpt lat="45.86991" lon="6.45716">
        <ele>1507.7</ele>
        <time>2024-04-27T06:42:40Z</time>
      </trkpt>
      <trkpt lat="45.8699" lon="6.45717">
        <ele>1507.7</ele>
        <time>2024-04-27T06:42:41Z</time>
      </trkpt>
      <trkpt lat="45.8699" lon="6.45718">
        <ele>1507.7</ele>
        <time>2024-04-27T06:42:42Z</time>
      </trkpt>
      <trkpt lat="45.8699" lon="6.45719">
        <ele>1507.7</ele>
        <time>2024-04-27T06:42:43Z</time>
      </trkpt>
      <trkpt lat="45.8699" lon="6.45719">
        <ele>1508.6</ele>
        <time>2024-04-27T06:42:44Z</time>
      </trkpt>
      <trkpt lat="45.86989" lon="6.4572">
        <ele>1508.6</ele>
        <time>2024-04-27T06:42:45Z</time>
      </trkpt>
      <trkpt lat="45.86989" lon="6.4572">
        <ele>1508.6</ele>
        <time>2024-04-27T06:42:46Z</time>
      </trkpt>
      <trkpt lat="45.86989" lon="6.4572">
        <ele>1508.6</ele>
        <time>2024-04-27T06:42:47Z</time>
      </trkpt>
      <trkpt lat="45.86989" lon="6.45721">
        <ele>1509.7</ele>
        <time>2024-04-27T06:42:48Z</time>
      </trkpt>
      <trkpt lat="45.86989" lon="6.45722">
        <ele>1509.7</ele>
        <time>2024-04-27T06:42:49Z</time>
      </trkpt>
      <trkpt lat="45.86988" lon="6.45723">
        <ele>1509.7</ele>
        <time>2024-04-27T06:42:50Z</time>
      </trkpt>
      <trkpt lat="45.86988" lon="6.45723">
        <ele>1509.7</ele>
        <time>2024-04-27T06:42:51Z</time>
      </trkpt>
      <trkpt lat="45.86988" lon="6.45724">
        <ele>1509.7</ele>
        <time>2024-04-27T06:42:52Z</time>
      </trkpt>
      <trkpt lat="45.86988" lon="6.45725">
        <ele>1509.7</ele>
        <time>2024-04-27T06:42:53Z</time>
      </trkpt>
      <trkpt lat="45.86987" lon="6.45726">
        <ele>1510.6</ele>
        <time>2024-04-27T06:42:54Z</time>
      </trkpt>
      <trkpt lat="45.86987" lon="6.45727">
        <ele>1510.6</ele>
        <time>2024-04-27T06:42:55Z</time>
      </trkpt>
      <trkpt lat="45.86986" lon="6.45728">
        <ele>1510.6</ele>
        <time>2024-04-27T06:42:56Z</time>
      </trkpt>
      <trkpt lat="45.86986" lon="6.45729">
        <ele>1510.6</ele>
        <time>2024-04-27T06:42:57Z</time>
      </trkpt>
      <trkpt lat="45.86985" lon="6.4573">
        <ele>1510.6</ele>
        <time>2024-04-27T06:42:58Z</time>
      </trkpt>
      <trkpt lat="45.86984" lon="6.45731">
        <ele>1510.6</ele>
        <time>2024-04-27T06:42:59Z</time>
      </trkpt>
      <trkpt lat="45.86983" lon="6.45732">
        <ele>1510.6</ele>
        <time>2024-04-27T06:43:00Z</time>
      </trkpt>
      <trkpt lat="45.86982" lon="6.45733">
        <ele>1510.6</ele>
        <time>2024-04-27T06:43:01Z</time>
      </trkpt>
      <trkpt lat="45.86981" lon="6.45733">
        <ele>1510.6</ele>
        <time>2024-04-27T06:43:02Z</time>
      </trkpt>
      <trkpt lat="45.8698" lon="6.45733">
        <ele>1510.6</ele>
        <time>2024-04-27T06:43:03Z</time>
      </trkpt>
      <trkpt lat="45.86979" lon="6.45734">
        <ele>1510.6</ele>
        <time>2024-04-27T06:43:04Z</time>
      </trkpt>
      <trkpt lat="45.86979" lon="6.45734">
        <ele>1510.6</ele>
        <time>2024-04-27T06:43:05Z</time>
      </trkpt>
      <trkpt lat="45.86978" lon="6.45734">
        <ele>1510.6</ele>
        <time>2024-04-27T06:43:06Z</time>
      </trkpt>
      <trkpt lat="45.86977" lon="6.45734">
        <ele>1510.6</ele>
        <time>2024-04-27T06:43:07Z</time>
      </trkpt>
      <trkpt lat="45.86976" lon="6.45734">
        <ele>1511.7</ele>
        <time>2024-04-27T06:43:08Z</time>
      </trkpt>
      <trkpt lat="45.86975" lon="6.45734">
        <ele>1511.7</ele>
        <time>2024-04-27T06:43:09Z</time>
      </trkpt>
      <trkpt lat="45.86975" lon="6.45734">
        <ele>1511.7</ele>
        <time>2024-04-27T06:43:10Z</time>
      </trkpt>
      <trkpt lat="45.86974" lon="6.45735">
        <ele>1511.7</ele>
        <time>2024-04-27T06:43:11Z</time>
      </trkpt>
      <trkpt lat="45.86973" lon="6.45735">
        <ele>1511.7</ele>
        <time>2024-04-27T06:43:12Z</time>
      </trkpt>
      <trkpt lat="45.86972" lon="6.45736">
        <ele>1511.7</ele>
        <time>2024-04-27T06:43:13Z</time>
      </trkpt>
      <trkpt lat="45.86971" lon="6.45736">
        <ele>1512.6</ele>
        <time>2024-04-27T06:43:14Z</time>
      </trkpt>
      <trkpt lat="45.86971" lon="6.45736">
        <ele>1512.6</ele>
        <time>2024-04-27T06:43:15Z</time>
      </trkpt>
      <trkpt lat="45.8697" lon="6.45736">
        <ele>1512.6</ele>
        <time>2024-04-27T06:43:16Z</time>
      </trkpt>
      <trkpt lat="45.8697" lon="6.45736">
        <ele>1512.6</ele>
        <time>2024-04-27T06:43:17Z</time>
      </trkpt>
      <trkpt lat="45.8697" lon="6.45736">
        <ele>1513.7</ele>
        <time>2024-04-27T06:43:18Z</time>
      </trkpt>
      <trkpt lat="45.86969" lon="6.45736">
        <ele>1513.7</ele>
        <time>2024-04-27T06:43:19Z</time>
      </trkpt>
      <trkpt lat="45.86969" lon="6.45736">
        <ele>1513.7</ele>
        <time>2024-04-27T06:43:20Z</time>
      </trkpt>
      <trkpt lat="45.86969" lon="6.45736">
        <ele>1513.7</ele>
        <time>2024-04-27T06:43:21Z</time>
      </trkpt>
      <trkpt lat="45.86969" lon="6.45736">
        <ele>1513.7</ele>
        <time>2024-04-27T06:43:22Z</time>
      </trkpt>
      <trkpt lat="45.86969" lon="6.45736">
        <ele>1513.7</ele>
        <time>2024-04-27T06:43:23Z</time>
      </trkpt>
      <trkpt lat="45.86969" lon="6.45736">
        <ele>1513.7</ele>
        <time>2024-04-27T06:43:24Z</time>
      </trkpt>
      <trkpt lat="45.86969" lon="6.45736">
        <ele>1513.7</ele>
        <time>2024-04-27T06:43:25Z</time>
      </trkpt>
      <trkpt lat="45.86969" lon="6.45736">
        <ele>1513.7</ele>
        <time>2024-04-27T06:43:26Z</time>
      </trkpt>
      <trkpt lat="45.86969" lon="6.45736">
        <ele>1513.7</ele>
        <time>2024-04-27T06:43:27Z</time>
      </trkpt>
      <trkpt lat="45.86969" lon="6.45736">
        <ele>1513.7</ele>
        <time>2024-04-27T06:43:28Z</time>
      </trkpt>
      <trkpt lat="45.86969" lon="6.45736">
        <ele>1513.7</ele>
        <time>2024-04-27T06:43:29Z</time>
      </trkpt>
      <trkpt lat="45.86968" lon="6.45736">
        <ele>1513.7</ele>
        <time>2024-04-27T06:43:30Z</time>
      </trkpt>
      <trkpt lat="45.86968" lon="6.45735">
        <ele>1513.7</ele>
        <time>2024-04-27T06:43:31Z</time>
      </trkpt>
      <trkpt lat="45.86968" lon="6.45735">
        <ele>1513.7</ele>
        <time>2024-04-27T06:43:32Z</time>
      </trkpt>
      <trkpt lat="45.86967" lon="6.45735">
        <ele>1513.7</ele>
        <time>2024-04-27T06:43:33Z</time>
      </trkpt>
      <trkpt lat="45.86967" lon="6.45734">
        <ele>1514.6</ele>
        <time>2024-04-27T06:43:34Z</time>
      </trkpt>
      <trkpt lat="45.86967" lon="6.45734">
        <ele>1514.6</ele>
        <time>2024-04-27T06:43:35Z</time>
      </trkpt>
      <trkpt lat="45.86967" lon="6.45734">
        <ele>1514.6</ele>
        <time>2024-04-27T06:43:36Z</time>
      </trkpt>
      <trkpt lat="45.86967" lon="6.45733">
        <ele>1514.6</ele>
        <time>2024-04-27T06:43:37Z</time>
      </trkpt>
      <trkpt lat="45.86967" lon="6.45733">
        <ele>1514.6</ele>
        <time>2024-04-27T06:43:38Z</time>
      </trkpt>
      <trkpt lat="45.86967" lon="6.45733">
        <ele>1514.6</ele>
        <time>2024-04-27T06:43:39Z</time>
      </trkpt>
      <trkpt lat="45.86967" lon="6.45732">
        <ele>1515.6</ele>
        <time>2024-04-27T06:43:40Z</time>
      </trkpt>
      <trkpt lat="45.86967" lon="6.45732">
        <ele>1515.6</ele>
        <time>2024-04-27T06:43:41Z</time>
      </trkpt>
      <trkpt lat="45.86967" lon="6.45732">
        <ele>1515.6</ele>
        <time>2024-04-27T06:43:42Z</time>
      </trkpt>
      <trkpt lat="45.86967" lon="6.45732">
        <ele>1515.6</ele>
        <time>2024-04-27T06:43:43Z</time>
      </trkpt>
      <trkpt lat="45.86967" lon="6.45732">
        <ele>1515.6</ele>
        <time>2024-04-27T06:43:44Z</time>
      </trkpt>
      <trkpt lat="45.86967" lon="6.45732">
        <ele>1515.6</ele>
        <time>2024-04-27T06:43:45Z</time>
      </trkpt>
      <trkpt lat="45.86967" lon="6.45732">
        <ele>1515.6</ele>
        <time>2024-04-27T06:43:46Z</time>
      </trkpt>
      <trkpt lat="45.86967" lon="6.45732">
        <ele>1515.6</ele>
        <time>2024-04-27T06:43:47Z</time>
      </trkpt>
      <trkpt lat="45.86967" lon="6.45732">
        <ele>1515.6</ele>
        <time>2024-04-27T06:43:48Z</time>
      </trkpt>
      <trkpt lat="45.86967" lon="6.45732">
        <ele>1515.6</ele>
        <time>2024-04-27T06:43:49Z</time>
      </trkpt>
      <trkpt lat="45.86967" lon="6.45732">
        <ele>1515.6</ele>
        <time>2024-04-27T06:43:50Z</time>
      </trkpt>
      <trkpt lat="45.86967" lon="6.45732">
        <ele>1515.6</ele>
        <time>2024-04-27T06:43:51Z</time>
      </trkpt>
      <trkpt lat="45.86967" lon="6.45732">
        <ele>1515.6</ele>
        <time>2024-04-27T06:43:52Z</time>
      </trkpt>
      <trkpt lat="45.86967" lon="6.45732">
        <ele>1515.6</ele>
        <time>2024-04-27T06:43:53Z</time>
      </trkpt>
      <trkpt lat="45.86967" lon="6.45732">
        <ele>1515.6</ele>
        <time>2024-04-27T06:43:54Z</time>
      </trkpt>
      <trkpt lat="45.86967" lon="6.45732">
        <ele>1515.6</ele>
        <time>2024-04-27T06:43:55Z</time>
      </trkpt>
      <trkpt lat="45.86967" lon="6.45732">
        <ele>1515.6</ele>
        <time>2024-04-27T06:43:56Z</time>
      </trkpt>
      <trkpt lat="45.86967" lon="6.45732">
        <ele>1515.6</ele>
        <time>2024-04-27T06:43:57Z</time>
      </trkpt>
      <trkpt lat="45.86967" lon="6.45732">
        <ele>1515.6</ele>
        <time>2024-04-27T06:43:58Z</time>
      </trkpt>
      <trkpt lat="45.86967" lon="6.45732">
        <ele>1515.6</ele>
        <time>2024-04-27T06:43:59Z</time>
      </trkpt>
      <trkpt lat="45.86967" lon="6.45732">
        <ele>1515.6</ele>
        <time>2024-04-27T06:44:00Z</time>
      </trkpt>
      <trkpt lat="45.86967" lon="6.45732">
        <ele>1515.6</ele>
        <time>2024-04-27T06:44:01Z</time>
      </trkpt>
      <trkpt lat="45.86967" lon="6.45732">
        <ele>1515.6</ele>
        <time>2024-04-27T06:44:02Z</time>
      </trkpt>
      <trkpt lat="45.86967" lon="6.45732">
        <ele>1515.6</ele>
        <time>2024-04-27T06:44:03Z</time>
      </trkpt>
      <trkpt lat="45.86967" lon="6.45732">
        <ele>1515.6</ele>
        <time>2024-04-27T06:44:04Z</time>
      </trkpt>
      <trkpt lat="45.86967" lon="6.45732">
        <ele>1515.6</ele>
        <time>2024-04-27T06:44:05Z</time>
      </trkpt>
      <trkpt lat="45.86967" lon="6.45732">
        <ele>1515.6</ele>
        <time>2024-04-27T06:44:06Z</time>
      </trkpt>
      <trkpt lat="45.86967" lon="6.45732">
        <ele>1515.6</ele>
        <time>2024-04-27T06:44:07Z</time>
      </trkpt>
      <trkpt lat="45.86967" lon="6.45732">
        <ele>1515.6</ele>
        <time>2024-04-27T06:44:08Z</time>
      </trkpt>
      <trkpt lat="45.86967" lon="6.45732">
        <ele>1516.7</ele>
        <time>2024-04-27T06:44:09Z</time>
      </trkpt>
      <trkpt lat="45.86967" lon="6.45732">
        <ele>1516.7</ele>
        <time>2024-04-27T06:44:10Z</time>
      </trkpt>
      <trkpt lat="45.86967" lon="6.45732">
        <ele>1516.7</ele>
        <time>2024-04-27T06:44:11Z</time>
      </trkpt>
      <trkpt lat="45.86967" lon="6.45732">
        <ele>1516.7</ele>
        <time>2024-04-27T06:44:12Z</time>
      </trkpt>
      <trkpt lat="45.86967" lon="6.45732">
        <ele>1516.7</ele>
        <time>2024-04-27T06:44:13Z</time>
      </trkpt>
      <trkpt lat="45.86967" lon="6.45732">
        <ele>1516.7</ele>
        <time>2024-04-27T06:44:14Z</time>
      </trkpt>
      <trkpt lat="45.86967" lon="6.45732">
        <ele>1517.6</ele>
        <time>2024-04-27T06:44:15Z</time>
      </trkpt>
      <trkpt lat="45.86967" lon="6.45731">
        <ele>1517.6</ele>
        <time>2024-04-27T06:44:16Z</time>
      </trkpt>
      <trkpt lat="45.86966" lon="6.4573">
        <ele>1517.6</ele>
        <time>2024-04-27T06:44:17Z</time>
      </trkpt>
      <trkpt lat="45.86965" lon="6.45728">
        <ele>1517.6</ele>
        <time>2024-04-27T06:44:18Z</time>
      </trkpt>
      <trkpt lat="45.86964" lon="6.45727">
        <ele>1518.7</ele>
        <time>2024-04-27T06:44:19Z</time>
      </trkpt>
      <trkpt lat="45.86963" lon="6.45726">
        <ele>1518.7</ele>
        <time>2024-04-27T06:44:20Z</time>
      </trkpt>
      <trkpt lat="45.86962" lon="6.45724">
        <ele>1518.7</ele>
        <time>2024-04-27T06:44:21Z</time>
      </trkpt>
      <trkpt lat="45.8696" lon="6.45723">
        <ele>1518.7</ele>
        <time>2024-04-27T06:44:22Z</time>
      </trkpt>
      <trkpt lat="45.86959" lon="6.45722">
        <ele>1519.6</ele>
        <time>2024-04-27T06:44:23Z</time>
      </trkpt>
      <trkpt lat="45.86958" lon="6.45721">
        <ele>1519.6</ele>
        <time>2024-04-27T06:44:24Z</time>
      </trkpt>
      <trkpt lat="45.86957" lon="6.4572">
        <ele>1519.6</ele>
        <time>2024-04-27T06:44:25Z</time>
      </trkpt>
      <trkpt lat="45.86956" lon="6.4572">
        <ele>1519.6</ele>
        <time>2024-04-27T06:44:26Z</time>
      </trkpt>
      <trkpt lat="45.86955" lon="6.4572">
        <ele>1519.6</ele>
        <time>2024-04-27T06:44:27Z</time>
      </trkpt>
      <trkpt lat="45.86955" lon="6.4572">
        <ele>1519.6</ele>
        <time>2024-04-27T06:44:28Z</time>
      </trkpt>
      <trkpt lat="45.86954" lon="6.4572">
        <ele>1519.6</ele>
        <time>2024-04-27T06:44:29Z</time>
      </trkpt>
      <trkpt lat="45.86953" lon="6.45719">
        <ele>1519.6</ele>
        <time>2024-04-27T06:44:30Z</time>
      </trkpt>
      <trkpt lat="45.86953" lon="6.45719">
        <ele>1520.7</ele>
        <time>2024-04-27T06:44:31Z</time>
      </trkpt>
      <trkpt lat="45.86952" lon="6.45719">
        <ele>1520.7</ele>
        <time>2024-04-27T06:44:32Z</time>
      </trkpt>
      <trkpt lat="45.86952" lon="6.45719">
        <ele>1520.7</ele>
        <time>2024-04-27T06:44:33Z</time>
      </trkpt>
      <trkpt lat="45.86951" lon="6.45719">
        <ele>1520.7</ele>
        <time>2024-04-27T06:44:34Z</time>
      </trkpt>
      <trkpt lat="45.8695" lon="6.45719">
        <ele>1521.6</ele>
        <time>2024-04-27T06:44:35Z</time>
      </trkpt>
      <trkpt lat="45.86949" lon="6.4572">
        <ele>1521.6</ele>
        <time>2024-04-27T06:44:36Z</time>
      </trkpt>
      <trkpt lat="45.86948" lon="6.4572">
        <ele>1522.6</ele>
        <time>2024-04-27T06:44:37Z</time>
      </trkpt>
      <trkpt lat="45.86947" lon="6.4572">
        <ele>1522.6</ele>
        <time>2024-04-27T06:44:38Z</time>
      </trkpt>
      <trkpt lat="45.86947" lon="6.4572">
        <ele>1522.6</ele>
        <time>2024-04-27T06:44:39Z</time>
      </trkpt>
      <trkpt lat="45.86946" lon="6.4572">
        <ele>1522.6</ele>
        <time>2024-04-27T06:44:40Z</time>
      </trkpt>
      <trkpt lat="45.86945" lon="6.4572">
        <ele>1523.7</ele>
        <time>2024-04-27T06:44:41Z</time>
      </trkpt>
      <trkpt lat="45.86945" lon="6.4572">
        <ele>1523.7</ele>
        <time>2024-04-27T06:44:42Z</time>
      </trkpt>
      <trkpt lat="45.86944" lon="6.4572">
        <ele>1523.7</ele>
        <time>2024-04-27T06:44:43Z</time>
      </trkpt>
      <trkpt lat="45.86943" lon="6.4572">
        <ele>1523.7</ele>
        <time>2024-04-27T06:44:44Z</time>
      </trkpt>
      <trkpt lat="45.86943" lon="6.4572">
        <ele>1524.6</ele>
        <time>2024-04-27T06:44:45Z</time>
      </trkpt>
      <trkpt lat="45.86942" lon="6.45719">
        <ele>1524.6</ele>
        <time>2024-04-27T06:44:46Z</time>
      </trkpt>
      <trkpt lat="45.86942" lon="6.45719">
        <ele>1524.6</ele>
        <time>2024-04-27T06:44:47Z</time>
      </trkpt>
      <trkpt lat="45.86941" lon="6.45718">
        <ele>1524.6</ele>
        <time>2024-04-27T06:44:48Z</time>
      </trkpt>
      <trkpt lat="45.8694" lon="6.45718">
        <ele>1524.6</ele>
        <time>2024-04-27T06:44:49Z</time>
      </trkpt>
      <trkpt lat="45.86939" lon="6.45718">
        <ele>1524.6</ele>
        <time>2024-04-27T06:44:50Z</time>
      </trkpt>
      <trkpt lat="45.86939" lon="6.45718">
        <ele>1524.6</ele>
        <time>2024-04-27T06:44:51Z</time>
      </trkpt>
      <trkpt lat="45.86938" lon="6.45718">
        <ele>1524.6</ele>
        <time>2024-04-27T06:44:52Z</time>
      </trkpt>
      <trkpt lat="45.86937" lon="6.45718">
        <ele>1526.6</ele>
        <time>2024-04-27T06:44:53Z</time>
      </trkpt>
      <trkpt lat="45.86937" lon="6.45717">
        <ele>1526.6</ele>
        <time>2024-04-27T06:44:54Z</time>
      </trkpt>
      <trkpt lat="45.86936" lon="6.45717">
        <ele>1527.7</ele>
        <time>2024-04-27T06:44:55Z</time>
      </trkpt>
      <trkpt lat="45.86936" lon="6.45716">
        <ele>1527.7</ele>
        <time>2024-04-27T06:44:56Z</time>
      </trkpt>
      <trkpt lat="45.86935" lon="6.45716">
        <ele>1527.7</ele>
        <time>2024-04-27T06:44:57Z</time>
      </trkpt>
      <trkpt lat="45.86935" lon="6.45715">
        <ele>1527.7</ele>
        <time>2024-04-27T06:44:58Z</time>
      </trkpt>
      <trkpt lat="45.86934" lon="6.45715">
        <ele>1527.7</ele>
        <time>2024-04-27T06:44:59Z</time>
      </trkpt>
      <trkpt lat="45.86934" lon="6.45714">
        <ele>1527.7</ele>
        <time>2024-04-27T06:45:00Z</time>
      </trkpt>
      <trkpt lat="45.86933" lon="6.45714">
        <ele>1528.6</ele>
        <time>2024-04-27T06:45:01Z</time>
      </trkpt>
      <trkpt lat="45.86933" lon="6.45712">
        <ele>1528.6</ele>
        <time>2024-04-27T06:45:02Z</time>
      </trkpt>
      <trkpt lat="45.86932" lon="6.45712">
        <ele>1529.7</ele>
        <time>2024-04-27T06:45:03Z</time>
      </trkpt>
      <trkpt lat="45.86932" lon="6.45711">
        <ele>1529.7</ele>
        <time>2024-04-27T06:45:04Z</time>
      </trkpt>
      <trkpt lat="45.86931" lon="6.4571">
        <ele>1529.7</ele>
        <time>2024-04-27T06:45:05Z</time>
      </trkpt>
      <trkpt lat="45.86931" lon="6.45709">
        <ele>1529.7</ele>
        <time>2024-04-27T06:45:06Z</time>
      </trkpt>
      <trkpt lat="45.8693" lon="6.45708">
        <ele>1530.6</ele>
        <time>2024-04-27T06:45:07Z</time>
      </trkpt>
      <trkpt lat="45.8693" lon="6.45707">
        <ele>1530.6</ele>
        <time>2024-04-27T06:45:08Z</time>
      </trkpt>
      <trkpt lat="45.8693" lon="6.45707">
        <ele>1531.6</ele>
        <time>2024-04-27T06:45:09Z</time>
      </trkpt>
      <trkpt lat="45.86929" lon="6.45706">
        <ele>1531.6</ele>
        <time>2024-04-27T06:45:10Z</time>
      </trkpt>
      <trkpt lat="45.86929" lon="6.45705">
        <ele>1531.6</ele>
        <time>2024-04-27T06:45:11Z</time>
      </trkpt>
      <trkpt lat="45.86929" lon="6.45705">
        <ele>1531.6</ele>
        <time>2024-04-27T06:45:12Z</time>
      </trkpt>
      <trkpt lat="45.86928" lon="6.45704">
        <ele>1532.7</ele>
        <time>2024-04-27T06:45:13Z</time>
      </trkpt>
      <trkpt lat="45.86928" lon="6.45703">
        <ele>1532.7</ele>
        <time>2024-04-27T06:45:14Z</time>
      </trkpt>
      <trkpt lat="45.86928" lon="6.45702">
        <ele>1532.7</ele>
        <time>2024-04-27T06:45:15Z</time>
      </trkpt>
      <trkpt lat="45.86927" lon="6.45702">
        <ele>1532.7</ele>
        <time>2024-04-27T06:45:16Z</time>
      </trkpt>
      <trkpt lat="45.86927" lon="6.45701">
        <ele>1532.7</ele>
        <time>2024-04-27T06:45:17Z</time>
      </trkpt>
      <trkpt lat="45.86926" lon="6.45701">
        <ele>1532.7</ele>
        <time>2024-04-27T06:45:18Z</time>
      </trkpt>
      <trkpt lat="45.86926" lon="6.45701">
        <ele>1532.7</ele>
        <time>2024-04-27T06:45:19Z</time>
      </trkpt>
      <trkpt lat="45.86925" lon="6.45701">
        <ele>1532.7</ele>
        <time>2024-04-27T06:45:20Z</time>
      </trkpt>
      <trkpt lat="45.86924" lon="6.457">
        <ele>1532.7</ele>
        <time>2024-04-27T06:45:21Z</time>
      </trkpt>
      <trkpt lat="45.86924" lon="6.457">
        <ele>1532.7</ele>
        <time>2024-04-27T06:45:22Z</time>
      </trkpt>
      <trkpt lat="45.86923" lon="6.457">
        <ele>1533.6</ele>
        <time>2024-04-27T06:45:23Z</time>
      </trkpt>
      <trkpt lat="45.86923" lon="6.457">
        <ele>1533.6</ele>
        <time>2024-04-27T06:45:24Z</time>
      </trkpt>
      <trkpt lat="45.86922" lon="6.45699">
        <ele>1533.6</ele>
        <time>2024-04-27T06:45:25Z</time>
      </trkpt>
      <trkpt lat="45.86922" lon="6.45699">
        <ele>1533.6</ele>
        <time>2024-04-27T06:45:26Z</time>
      </trkpt>
      <trkpt lat="45.86921" lon="6.45698">
        <ele>1534.7</ele>
        <time>2024-04-27T06:45:27Z</time>
      </trkpt>
      <trkpt lat="45.8692" lon="6.45698">
        <ele>1534.7</ele>
        <time>2024-04-27T06:45:28Z</time>
      </trkpt>
      <trkpt lat="45.8692" lon="6.45698">
        <ele>1534.7</ele>
        <time>2024-04-27T06:45:29Z</time>
      </trkpt>
      <trkpt lat="45.86919" lon="6.45697">
        <ele>1534.7</ele>
        <time>2024-04-27T06:45:30Z</time>
      </trkpt>
      <trkpt lat="45.86919" lon="6.45697">
        <ele>1535.6</ele>
        <time>2024-04-27T06:45:31Z</time>
      </trkpt>
      <trkpt lat="45.86919" lon="6.45696">
        <ele>1535.6</ele>
        <time>2024-04-27T06:45:32Z</time>
      </trkpt>
      <trkpt lat="45.86918" lon="6.45696">
        <ele>1535.6</ele>
        <time>2024-04-27T06:45:33Z</time>
      </trkpt>
      <trkpt lat="45.86918" lon="6.45696">
        <ele>1535.6</ele>
        <time>2024-04-27T06:45:34Z</time>
      </trkpt>
      <trkpt lat="45.86917" lon="6.45695">
        <ele>1535.6</ele>
        <time>2024-04-27T06:45:35Z</time>
      </trkpt>
      <trkpt lat="45.86917" lon="6.45695">
        <ele>1535.6</ele>
        <time>2024-04-27T06:45:36Z</time>
      </trkpt>
      <trkpt lat="45.86917" lon="6.45694">
        <ele>1536.7</ele>
        <time>2024-04-27T06:45:37Z</time>
      </trkpt>
      <trkpt lat="45.86916" lon="6.45694">
        <ele>1536.7</ele>
        <time>2024-04-27T06:45:38Z</time>
      </trkpt>
      <trkpt lat="45.86916" lon="6.45693">
        <ele>1536.7</ele>
        <time>2024-04-27T06:45:39Z</time>
      </trkpt>
      <trkpt lat="45.86916" lon="6.45692">
        <ele>1536.7</ele>
        <time>2024-04-27T06:45:40Z</time>
      </trkpt>
      <trkpt lat="45.86916" lon="6.45692">
        <ele>1537.6</ele>
        <time>2024-04-27T06:45:41Z</time>
      </trkpt>
      <trkpt lat="45.86915" lon="6.45692">
        <ele>1537.6</ele>
        <time>2024-04-27T06:45:42Z</time>
      </trkpt>
      <trkpt lat="45.86915" lon="6.45691">
        <ele>1538.6</ele>
        <time>2024-04-27T06:45:43Z</time>
      </trkpt>
      <trkpt lat="45.86915" lon="6.45691">
        <ele>1538.6</ele>
        <time>2024-04-27T06:45:44Z</time>
      </trkpt>
      <trkpt lat="45.86914" lon="6.4569">
        <ele>1538.6</ele>
        <time>2024-04-27T06:45:45Z</time>
      </trkpt>
      <trkpt lat="45.86914" lon="6.4569">
        <ele>1538.6</ele>
        <time>2024-04-27T06:45:46Z</time>
      </trkpt>
      <trkpt lat="45.86913" lon="6.45689">
        <ele>1538.6</ele>
        <time>2024-04-27T06:45:47Z</time>
      </trkpt>
      <trkpt lat="45.86913" lon="6.45689">
        <ele>1538.6</ele>
        <time>2024-04-27T06:45:48Z</time>
      </trkpt>
      <trkpt lat="45.86913" lon="6.45688">
        <ele>1538.6</ele>
        <time>2024-04-27T06:45:49Z</time>
      </trkpt>
      <trkpt lat="45.86912" lon="6.45687">
        <ele>1538.6</ele>
        <time>2024-04-27T06:45:50Z</time>
      </trkpt>
      <trkpt lat="45.86911" lon="6.45687">
        <ele>1540.6</ele>
        <time>2024-04-27T06:45:51Z</time>
      </trkpt>
      <trkpt lat="45.86911" lon="6.45687">
        <ele>1540.6</ele>
        <time>2024-04-27T06:45:52Z</time>
      </trkpt>
      <trkpt lat="45.8691" lon="6.45686">
        <ele>1540.6</ele>
        <time>2024-04-27T06:45:53Z</time>
      </trkpt>
      <trkpt lat="45.8691" lon="6.45686">
        <ele>1540.6</ele>
        <time>2024-04-27T06:45:54Z</time>
      </trkpt>
      <trkpt lat="45.86909" lon="6.45686">
        <ele>1540.6</ele>
        <time>2024-04-27T06:45:55Z</time>
      </trkpt>
      <trkpt lat="45.86909" lon="6.45685">
        <ele>1540.6</ele>
        <time>2024-04-27T06:45:56Z</time>
      </trkpt>
      <trkpt lat="45.86908" lon="6.45685">
        <ele>1540.6</ele>
        <time>2024-04-27T06:45:57Z</time>
      </trkpt>
      <trkpt lat="45.86907" lon="6.45685">
        <ele>1540.6</ele>
        <time>2024-04-27T06:45:58Z</time>
      </trkpt>
      <trkpt lat="45.86907" lon="6.45684">
        <ele>1540.6</ele>
        <time>2024-04-27T06:45:59Z</time>
      </trkpt>
      <trkpt lat="45.86907" lon="6.45684">
        <ele>1540.6</ele>
        <time>2024-04-27T06:46:00Z</time>
      </trkpt>
      <trkpt lat="45.86907" lon="6.45684">
        <ele>1541.7</ele>
        <time>2024-04-27T06:46:01Z</time>
      </trkpt>
      <trkpt lat="45.86906" lon="6.45684">
        <ele>1541.7</ele>
        <time>2024-04-27T06:46:02Z</time>
      </trkpt>
      <trkpt lat="45.86905" lon="6.45684">
        <ele>1541.7</ele>
        <time>2024-04-27T06:46:03Z</time>
      </trkpt>
      <trkpt lat="45.86905" lon="6.45683">
        <ele>1541.7</ele>
        <time>2024-04-27T06:46:04Z</time>
      </trkpt>
      <trkpt lat="45.86904" lon="6.45683">
        <ele>1541.7</ele>
        <time>2024-04-27T06:46:05Z</time>
      </trkpt>
      <trkpt lat="45.86904" lon="6.45683">
        <ele>1541.7</ele>
        <time>2024-04-27T06:46:06Z</time>
      </trkpt>
      <trkpt lat="45.86903" lon="6.45683">
        <ele>1541.7</ele>
        <time>2024-04-27T06:46:07Z</time>
      </trkpt>
      <trkpt lat="45.86902" lon="6.45683">
        <ele>1541.7</ele>
        <time>2024-04-27T06:46:08Z</time>
      </trkpt>
      <trkpt lat="45.86902" lon="6.45683">
        <ele>1542.6</ele>
        <time>2024-04-27T06:46:09Z</time>
      </trkpt>
      <trkpt lat="45.86901" lon="6.45682">
        <ele>1542.6</ele>
        <time>2024-04-27T06:46:10Z</time>
      </trkpt>
      <trkpt lat="45.86901" lon="6.45682">
        <ele>1542.6</ele>
        <time>2024-04-27T06:46:11Z</time>
      </trkpt>
      <trkpt lat="45.869" lon="6.45682">
        <ele>1542.6</ele>
        <time>2024-04-27T06:46:12Z</time>
      </trkpt>
      <trkpt lat="45.86899" lon="6.45681">
        <ele>1543.7</ele>
        <time>2024-04-27T06:46:13Z</time>
      </trkpt>
      <trkpt lat="45.86899" lon="6.45681">
        <ele>1543.7</ele>
        <time>2024-04-27T06:46:14Z</time>
      </trkpt>
      <trkpt lat="45.86898" lon="6.45681">
        <ele>1543.7</ele>
        <time>2024-04-27T06:46:15Z</time>
      </trkpt>
      <trkpt lat="45.86897" lon="6.45681">
        <ele>1543.7</ele>
        <time>2024-04-27T06:46:16Z</time>
      </trkpt>
      <trkpt lat="45.86897" lon="6.4568">
        <ele>1544.6</ele>
        <time>2024-04-27T06:46:17Z</time>
      </trkpt>
      <trkpt lat="45.86896" lon="6.4568">
        <ele>1544.6</ele>
        <time>2024-04-27T06:46:18Z</time>
      </trkpt>
      <trkpt lat="45.86896" lon="6.4568">
        <ele>1544.6</ele>
        <time>2024-04-27T06:46:19Z</time>
      </trkpt>
      <trkpt lat="45.86895" lon="6.4568">
        <ele>1544.6</ele>
        <time>2024-04-27T06:46:20Z</time>
      </trkpt>
      <trkpt lat="45.86894" lon="6.4568">
        <ele>1545.7</ele>
        <time>2024-04-27T06:46:21Z</time>
      </trkpt>
      <trkpt lat="45.86894" lon="6.4568">
        <ele>1545.7</ele>
        <time>2024-04-27T06:46:22Z</time>
      </trkpt>
      <trkpt lat="45.86893" lon="6.4568">
        <ele>1545.7</ele>
        <time>2024-04-27T06:46:23Z</time>
      </trkpt>
      <trkpt lat="45.86893" lon="6.4568">
        <ele>1545.7</ele>
        <time>2024-04-27T06:46:24Z</time>
      </trkpt>
      <trkpt lat="45.86892" lon="6.45681">
        <ele>1545.7</ele>
        <time>2024-04-27T06:46:25Z</time>
      </trkpt>
      <trkpt lat="45.86891" lon="6.45681">
        <ele>1545.7</ele>
        <time>2024-04-27T06:46:26Z</time>
      </trkpt>
      <trkpt lat="45.8689" lon="6.45681">
        <ele>1545.7</ele>
        <time>2024-04-27T06:46:27Z</time>
      </trkpt>
      <trkpt lat="45.8689" lon="6.45681">
        <ele>1545.7</ele>
        <time>2024-04-27T06:46:28Z</time>
      </trkpt>
      <trkpt lat="45.86889" lon="6.45682">
        <ele>1545.7</ele>
        <time>2024-04-27T06:46:29Z</time>
      </trkpt>
      <trkpt lat="45.86889" lon="6.45683">
        <ele>1545.7</ele>
        <time>2024-04-27T06:46:30Z</time>
      </trkpt>
      <trkpt lat="45.86888" lon="6.45683">
        <ele>1547.6</ele>
        <time>2024-04-27T06:46:31Z</time>
      </trkpt>
      <trkpt lat="45.86887" lon="6.45683">
        <ele>1547.6</ele>
        <time>2024-04-27T06:46:32Z</time>
      </trkpt>
      <trkpt lat="45.86887" lon="6.45683">
        <ele>1547.6</ele>
        <time>2024-04-27T06:46:33Z</time>
      </trkpt>
      <trkpt lat="45.86886" lon="6.45684">
        <ele>1547.6</ele>
        <time>2024-04-27T06:46:34Z</time>
      </trkpt>
      <trkpt lat="45.86886" lon="6.45684">
        <ele>1548.7</ele>
        <time>2024-04-27T06:46:35Z</time>
      </trkpt>
      <trkpt lat="45.86885" lon="6.45685">
        <ele>1548.7</ele>
        <time>2024-04-27T06:46:36Z</time>
      </trkpt>
      <trkpt lat="45.86885" lon="6.45685">
        <ele>1548.7</ele>
        <time>2024-04-27T06:46:37Z</time>
      </trkpt>
      <trkpt lat="45.86884" lon="6.45685">
        <ele>1548.7</ele>
        <time>2024-04-27T06:46:38Z</time>
      </trkpt>
      <trkpt lat="45.86884" lon="6.45686">
        <ele>1549.6</ele>
        <time>2024-04-27T06:46:39Z</time>
      </trkpt>
      <trkpt lat="45.86883" lon="6.45686">
        <ele>1549.6</ele>
        <time>2024-04-27T06:46:40Z</time>
      </trkpt>
      <trkpt lat="45.86883" lon="6.45686">
        <ele>1549.6</ele>
        <time>2024-04-27T06:46:41Z</time>
      </trkpt>
      <trkpt lat="45.86882" lon="6.45687">
        <ele>1549.6</ele>
        <time>2024-04-27T06:46:42Z</time>
      </trkpt>
      <trkpt lat="45.86881" lon="6.45687">
        <ele>1550.7</ele>
        <time>2024-04-27T06:46:43Z</time>
      </trkpt>
      <trkpt lat="45.86881" lon="6.45687">
        <ele>1550.7</ele>
        <time>2024-04-27T06:46:44Z</time>
      </trkpt>
      <trkpt lat="45.8688" lon="6.45687">
        <ele>1550.7</ele>
        <time>2024-04-27T06:46:45Z</time>
      </trkpt>
      <trkpt lat="45.8688" lon="6.45687">
        <ele>1550.7</ele>
        <time>2024-04-27T06:46:46Z</time>
      </trkpt>
      <trkpt lat="45.8688" lon="6.45687">
        <ele>1551.6</ele>
        <time>2024-04-27T06:46:47Z</time>
      </trkpt>
      <trkpt lat="45.8688" lon="6.45687">
        <ele>1551.6</ele>
        <time>2024-04-27T06:46:48Z</time>
      </trkpt>
      <trkpt lat="45.86879" lon="6.45688">
        <ele>1551.6</ele>
        <time>2024-04-27T06:46:49Z</time>
      </trkpt>
      <trkpt lat="45.86878" lon="6.45688">
        <ele>1551.6</ele>
        <time>2024-04-27T06:46:50Z</time>
      </trkpt>
      <trkpt lat="45.86878" lon="6.45688">
        <ele>1552.7</ele>
        <time>2024-04-27T06:46:51Z</time>
      </trkpt>
      <trkpt lat="45.86877" lon="6.45688">
        <ele>1552.7</ele>
        <time>2024-04-27T06:46:52Z</time>
      </trkpt>
      <trkpt lat="45.86877" lon="6.45689">
        <ele>1552.7</ele>
        <time>2024-04-27T06:46:53Z</time>
      </trkpt>
      <trkpt lat="45.86876" lon="6.45689">
        <ele>1552.7</ele>
        <time>2024-04-27T06:46:54Z</time>
      </trkpt>
      <trkpt lat="45.86876" lon="6.45689">
        <ele>1552.7</ele>
        <time>2024-04-27T06:46:55Z</time>
      </trkpt>
      <trkpt lat="45.86875" lon="6.4569">
        <ele>1552.7</ele>
        <time>2024-04-27T06:46:56Z</time>
      </trkpt>
      <trkpt lat="45.86874" lon="6.4569">
        <ele>1553.6</ele>
        <time>2024-04-27T06:46:57Z</time>
      </trkpt>
      <trkpt lat="45.86874" lon="6.45691">
        <ele>1553.6</ele>
        <time>2024-04-27T06:46:58Z</time>
      </trkpt>
      <trkpt lat="45.86874" lon="6.45691">
        <ele>1553.6</ele>
        <time>2024-04-27T06:46:59Z</time>
      </trkpt>
      <trkpt lat="45.86873" lon="6.45692">
        <ele>1553.6</ele>
        <time>2024-04-27T06:47:00Z</time>
      </trkpt>
      <trkpt lat="45.86873" lon="6.45692">
        <ele>1554.7</ele>
        <time>2024-04-27T06:47:01Z</time>
      </trkpt>
      <trkpt lat="45.86872" lon="6.45693">
        <ele>1554.7</ele>
        <time>2024-04-27T06:47:02Z</time>
      </trkpt>
      <trkpt lat="45.86872" lon="6.45693">
        <ele>1554.7</ele>
        <time>2024-04-27T06:47:03Z</time>
      </trkpt>
      <trkpt lat="45.86871" lon="6.45693">
        <ele>1554.7</ele>
        <time>2024-04-27T06:47:04Z</time>
      </trkpt>
      <trkpt lat="45.86871" lon="6.45694">
        <ele>1554.7</ele>
        <time>2024-04-27T06:47:05Z</time>
      </trkpt>
      <trkpt lat="45.8687" lon="6.45694">
        <ele>1554.7</ele>
        <time>2024-04-27T06:47:06Z</time>
      </trkpt>
      <trkpt lat="45.8687" lon="6.45694">
        <ele>1555.7</ele>
        <time>2024-04-27T06:47:07Z</time>
      </trkpt>
      <trkpt lat="45.86869" lon="6.45694">
        <ele>1555.7</ele>
        <time>2024-04-27T06:47:08Z</time>
      </trkpt>
      <trkpt lat="45.86869" lon="6.45695">
        <ele>1555.7</ele>
        <time>2024-04-27T06:47:09Z</time>
      </trkpt>
      <trkpt lat="45.86868" lon="6.45695">
        <ele>1555.7</ele>
        <time>2024-04-27T06:47:10Z</time>
      </trkpt>
      <trkpt lat="45.86868" lon="6.45695">
        <ele>1555.7</ele>
        <time>2024-04-27T06:47:11Z</time>
      </trkpt>
      <trkpt lat="45.86867" lon="6.45695">
        <ele>1555.7</ele>
        <time>2024-04-27T06:47:12Z</time>
      </trkpt>
      <trkpt lat="45.86866" lon="6.45696">
        <ele>1555.7</ele>
        <time>2024-04-27T06:47:13Z</time>
      </trkpt>
      <trkpt lat="45.86866" lon="6.45696">
        <ele>1555.7</ele>
        <time>2024-04-27T06:47:14Z</time>
      </trkpt>
      <trkpt lat="45.86865" lon="6.45697">
        <ele>1558.6</ele>
        <time>2024-04-27T06:47:15Z</time>
      </trkpt>
      <trkpt lat="45.86865" lon="6.45697">
        <ele>1558.6</ele>
        <time>2024-04-27T06:47:16Z</time>
      </trkpt>
      <trkpt lat="45.86864" lon="6.45697">
        <ele>1558.6</ele>
        <time>2024-04-27T06:47:17Z</time>
      </trkpt>
      <trkpt lat="45.86864" lon="6.45697">
        <ele>1558.6</ele>
        <time>2024-04-27T06:47:18Z</time>
      </trkpt>
      <trkpt lat="45.86863" lon="6.45698">
        <ele>1558.6</ele>
        <time>2024-04-27T06:47:19Z</time>
      </trkpt>
      <trkpt lat="45.86863" lon="6.45698">
        <ele>1558.6</ele>
        <time>2024-04-27T06:47:20Z</time>
      </trkpt>
      <trkpt lat="45.86862" lon="6.45699">
        <ele>1559.7</ele>
        <time>2024-04-27T06:47:21Z</time>
      </trkpt>
      <trkpt lat="45.86862" lon="6.45699">
        <ele>1559.7</ele>
        <time>2024-04-27T06:47:22Z</time>
      </trkpt>
      <trkpt lat="45.86861" lon="6.45699">
        <ele>1559.7</ele>
        <time>2024-04-27T06:47:23Z</time>
      </trkpt>
      <trkpt lat="45.86861" lon="6.45699">
        <ele>1559.7</ele>
        <time>2024-04-27T06:47:24Z</time>
      </trkpt>
      <trkpt lat="45.86861" lon="6.45699">
        <ele>1560.6</ele>
        <time>2024-04-27T06:47:25Z</time>
      </trkpt>
      <trkpt lat="45.8686" lon="6.45699">
        <ele>1560.6</ele>
        <time>2024-04-27T06:47:26Z</time>
      </trkpt>
      <trkpt lat="45.8686" lon="6.45699">
        <ele>1560.6</ele>
        <time>2024-04-27T06:47:27Z</time>
      </trkpt>
      <trkpt lat="45.86859" lon="6.457">
        <ele>1560.6</ele>
        <time>2024-04-27T06:47:28Z</time>
      </trkpt>
      <trkpt lat="45.86859" lon="6.457">
        <ele>1561.7</ele>
        <time>2024-04-27T06:47:29Z</time>
      </trkpt>
      <trkpt lat="45.86859" lon="6.457">
        <ele>1561.7</ele>
        <time>2024-04-27T06:47:30Z</time>
      </trkpt>
      <trkpt lat="45.86858" lon="6.457">
        <ele>1561.7</ele>
        <time>2024-04-27T06:47:31Z</time>
      </trkpt>
      <trkpt lat="45.86858" lon="6.457">
        <ele>1561.7</ele>
        <time>2024-04-27T06:47:32Z</time>
      </trkpt>
      <trkpt lat="45.86857" lon="6.45701">
        <ele>1561.7</ele>
        <time>2024-04-27T06:47:33Z</time>
      </trkpt>
      <trkpt lat="45.86857" lon="6.45701">
        <ele>1561.7</ele>
        <time>2024-04-27T06:47:34Z</time>
      </trkpt>
      <trkpt lat="45.86857" lon="6.45702">
        <ele>1562.6</ele>
        <time>2024-04-27T06:47:35Z</time>
      </trkpt>
      <trkpt lat="45.86857" lon="6.45703">
        <ele>1562.6</ele>
        <time>2024-04-27T06:47:36Z</time>
      </trkpt>
      <trkpt lat="45.86856" lon="6.45703">
        <ele>1562.6</ele>
        <time>2024-04-27T06:47:37Z</time>
      </trkpt>
      <trkpt lat="45.86856" lon="6.45704">
        <ele>1562.6</ele>
        <time>2024-04-27T06:47:38Z</time>
      </trkpt>
      <trkpt lat="45.86855" lon="6.45704">
        <ele>1563.6</ele>
        <time>2024-04-27T06:47:39Z</time>
      </trkpt>
      <trkpt lat="45.86855" lon="6.45705">
        <ele>1563.6</ele>
        <time>2024-04-27T06:47:40Z</time>
      </trkpt>
      <trkpt lat="45.86855" lon="6.45706">
        <ele>1563.6</ele>
        <time>2024-04-27T06:47:41Z</time>
      </trkpt>
      <trkpt lat="45.86855" lon="6.45707">
        <ele>1563.6</ele>
        <time>2024-04-27T06:47:42Z</time>
      </trkpt>
      <trkpt lat="45.86854" lon="6.45707">
        <ele>1563.6</ele>
        <time>2024-04-27T06:47:43Z</time>
      </trkpt>
      <trkpt lat="45.86854" lon="6.45708">
        <ele>1563.6</ele>
        <time>2024-04-27T06:47:44Z</time>
      </trkpt>
      <trkpt lat="45.86854" lon="6.45709">
        <ele>1564.7</ele>
        <time>2024-04-27T06:47:45Z</time>
      </trkpt>
      <trkpt lat="45.86853" lon="6.4571">
        <ele>1564.7</ele>
        <time>2024-04-27T06:47:46Z</time>
      </trkpt>
      <trkpt lat="45.86853" lon="6.45711">
        <ele>1564.7</ele>
        <time>2024-04-27T06:47:47Z</time>
      </trkpt>
      <trkpt lat="45.86853" lon="6.45712">
        <ele>1564.7</ele>
        <time>2024-04-27T06:47:48Z</time>
      </trkpt>
      <trkpt lat="45.86852" lon="6.45712">
        <ele>1565.6</ele>
        <time>2024-04-27T06:47:49Z</time>
      </trkpt>
      <trkpt lat="45.86852" lon="6.45713">
        <ele>1565.6</ele>
        <time>2024-04-27T06:47:50Z</time>
      </trkpt>
      <trkpt lat="45.86851" lon="6.45713">
        <ele>1565.6</ele>
        <time>2024-04-27T06:47:51Z</time>
      </trkpt>
      <trkpt lat="45.86851" lon="6.45714">
        <ele>1565.6</ele>
        <time>2024-04-27T06:47:52Z</time>
      </trkpt>
      <trkpt lat="45.86851" lon="6.45715">
        <ele>1566.7</ele>
        <time>2024-04-27T06:47:53Z</time>
      </trkpt>
      <trkpt lat="45.8685" lon="6.45715">
        <ele>1566.7</ele>
        <time>2024-04-27T06:47:54Z</time>
      </trkpt>
      <trkpt lat="45.86849" lon="6.45716">
        <ele>1566.7</ele>
        <time>2024-04-27T06:47:55Z</time>
      </trkpt>
      <trkpt lat="45.86849" lon="6.45716">
        <ele>1566.7</ele>
        <time>2024-04-27T06:47:56Z</time>
      </trkpt>
      <trkpt lat="45.86848" lon="6.45716">
        <ele>1566.7</ele>
        <time>2024-04-27T06:47:57Z</time>
      </trkpt>
      <trkpt lat="45.86848" lon="6.45716">
        <ele>1566.7</ele>
        <time>2024-04-27T06:47:58Z</time>
      </trkpt>
      <trkpt lat="45.86847" lon="6.45717">
        <ele>1567.6</ele>
        <time>2024-04-27T06:47:59Z</time>
      </trkpt>
      <trkpt lat="45.86847" lon="6.45717">
        <ele>1567.6</ele>
        <time>2024-04-27T06:48:00Z</time>
      </trkpt>
      <trkpt lat="45.86847" lon="6.45717">
        <ele>1567.6</ele>
        <time>2024-04-27T06:48:01Z</time>
      </trkpt>
      <trkpt lat="45.86846" lon="6.45718">
        <ele>1567.6</ele>
        <time>2024-04-27T06:48:02Z</time>
      </trkpt>
      <trkpt lat="45.86846" lon="6.45718">
        <ele>1568.7</ele>
        <time>2024-04-27T06:48:03Z</time>
      </trkpt>
      <trkpt lat="45.86845" lon="6.45718">
        <ele>1568.7</ele>
        <time>2024-04-27T06:48:04Z</time>
      </trkpt>
      <trkpt lat="45.86845" lon="6.45719">
        <ele>1568.7</ele>
        <time>2024-04-27T06:48:05Z</time>
      </trkpt>
      <trkpt lat="45.86844" lon="6.45719">
        <ele>1568.7</ele>
        <time>2024-04-27T06:48:06Z</time>
      </trkpt>
      <trkpt lat="45.86844" lon="6.4572">
        <ele>1568.7</ele>
        <time>2024-04-27T06:48:07Z</time>
      </trkpt>
      <trkpt lat="45.86843" lon="6.4572">
        <ele>1568.7</ele>
        <time>2024-04-27T06:48:08Z</time>
      </trkpt>
      <trkpt lat="45.86843" lon="6.45721">
        <ele>1569.6</ele>
        <time>2024-04-27T06:48:09Z</time>
      </trkpt>
      <trkpt lat="45.86843" lon="6.45721">
        <ele>1569.6</ele>
        <time>2024-04-27T06:48:10Z</time>
      </trkpt>
      <trkpt lat="45.86842" lon="6.45721">
        <ele>1570.7</ele>
        <time>2024-04-27T06:48:11Z</time>
      </trkpt>
      <trkpt lat="45.86841" lon="6.45722">
        <ele>1570.7</ele>
        <time>2024-04-27T06:48:12Z</time>
      </trkpt>
      <trkpt lat="45.86841" lon="6.45722">
        <ele>1570.7</ele>
        <time>2024-04-27T06:48:13Z</time>
      </trkpt>
      <trkpt lat="45.8684" lon="6.45722">
        <ele>1570.7</ele>
        <time>2024-04-27T06:48:14Z</time>
      </trkpt>
      <trkpt lat="45.8684" lon="6.45723">
        <ele>1570.7</ele>
        <time>2024-04-27T06:48:15Z</time>
      </trkpt>
      <trkpt lat="45.8684" lon="6.45723">
        <ele>1570.7</ele>
        <time>2024-04-27T06:48:16Z</time>
      </trkpt>
      <trkpt lat="45.86839" lon="6.45724">
        <ele>1570.7</ele>
        <time>2024-04-27T06:48:17Z</time>
      </trkpt>
      <trkpt lat="45.86839" lon="6.45724">
        <ele>1570.7</ele>
        <time>2024-04-27T06:48:18Z</time>
      </trkpt>
      <trkpt lat="45.86838" lon="6.45724">
        <ele>1570.7</ele>
        <time>2024-04-27T06:48:19Z</time>
      </trkpt>
      <trkpt lat="45.86837" lon="6.45725">
        <ele>1570.7</ele>
        <time>2024-04-27T06:48:20Z</time>
      </trkpt>
      <trkpt lat="45.86837" lon="6.45725">
        <ele>1570.7</ele>
        <time>2024-04-27T06:48:21Z</time>
      </trkpt>
      <trkpt lat="45.86836" lon="6.45725">
        <ele>1570.7</ele>
        <time>2024-04-27T06:48:22Z</time>
      </trkpt>
      <trkpt lat="45.86836" lon="6.45725">
        <ele>1573.7</ele>
        <time>2024-04-27T06:48:23Z</time>
      </trkpt>
      <trkpt lat="45.86835" lon="6.45725">
        <ele>1573.7</ele>
        <time>2024-04-27T06:48:24Z</time>
      </trkpt>
      <trkpt lat="45.86835" lon="6.45725">
        <ele>1573.7</ele>
        <time>2024-04-27T06:48:25Z</time>
      </trkpt>
      <trkpt lat="45.86834" lon="6.45725">
        <ele>1573.7</ele>
        <time>2024-04-27T06:48:26Z</time>
      </trkpt>
      <trkpt lat="45.86834" lon="6.45725">
        <ele>1574.6</ele>
        <time>2024-04-27T06:48:27Z</time>
      </trkpt>
      <trkpt lat="45.86834" lon="6.45724">
        <ele>1574.6</ele>
        <time>2024-04-27T06:48:28Z</time>
      </trkpt>
      <trkpt lat="45.86833" lon="6.45724">
        <ele>1574.6</ele>
        <time>2024-04-27T06:48:29Z</time>
      </trkpt>
      <trkpt lat="45.86833" lon="6.45724">
        <ele>1574.6</ele>
        <time>2024-04-27T06:48:30Z</time>
      </trkpt>
      <trkpt lat="45.86833" lon="6.45723">
        <ele>1575.7</ele>
        <time>2024-04-27T06:48:31Z</time>
      </trkpt>
      <trkpt lat="45.86833" lon="6.45723">
        <ele>1575.7</ele>
        <time>2024-04-27T06:48:32Z</time>
      </trkpt>
      <trkpt lat="45.86832" lon="6.45721">
        <ele>1575.7</ele>
        <time>2024-04-27T06:48:33Z</time>
      </trkpt>
      <trkpt lat="45.86832" lon="6.45721">
        <ele>1575.7</ele>
        <time>2024-04-27T06:48:34Z</time>
      </trkpt>
      <trkpt lat="45.86831" lon="6.4572">
        <ele>1576.6</ele>
        <time>2024-04-27T06:48:35Z</time>
      </trkpt>
      <trkpt lat="45.86831" lon="6.45719">
        <ele>1576.6</ele>
        <time>2024-04-27T06:48:36Z</time>
      </trkpt>
      <trkpt lat="45.86831" lon="6.45718">
        <ele>1577.7</ele>
        <time>2024-04-27T06:48:37Z</time>
      </trkpt>
      <trkpt lat="45.86831" lon="6.45717">
        <ele>1577.7</ele>
        <time>2024-04-27T06:48:38Z</time>
      </trkpt>
      <trkpt lat="45.86831" lon="6.45717">
        <ele>1577.7</ele>
        <time>2024-04-27T06:48:39Z</time>
      </trkpt>
      <trkpt lat="45.8683" lon="6.45716">
        <ele>1577.7</ele>
        <time>2024-04-27T06:48:40Z</time>
      </trkpt>
      <trkpt lat="45.8683" lon="6.45716">
        <ele>1577.7</ele>
        <time>2024-04-27T06:48:41Z</time>
      </trkpt>
      <trkpt lat="45.86829" lon="6.45715">
        <ele>1577.7</ele>
        <time>2024-04-27T06:48:42Z</time>
      </trkpt>
      <trkpt lat="45.86829" lon="6.45715">
        <ele>1578.6</ele>
        <time>2024-04-27T06:48:43Z</time>
      </trkpt>
      <trkpt lat="45.86828" lon="6.45715">
        <ele>1578.6</ele>
        <time>2024-04-27T06:48:44Z</time>
      </trkpt>
      <trkpt lat="45.86828" lon="6.45715">
        <ele>1578.6</ele>
        <time>2024-04-27T06:48:45Z</time>
      </trkpt>
      <trkpt lat="45.86827" lon="6.45715">
        <ele>1578.6</ele>
        <time>2024-04-27T06:48:46Z</time>
      </trkpt>
      <trkpt lat="45.86827" lon="6.45715">
        <ele>1578.6</ele>
        <time>2024-04-27T06:48:47Z</time>
      </trkpt>
      <trkpt lat="45.86826" lon="6.45715">
        <ele>1578.6</ele>
        <time>2024-04-27T06:48:48Z</time>
      </trkpt>
      <trkpt lat="45.86826" lon="6.45715">
        <ele>1578.6</ele>
        <time>2024-04-27T06:48:49Z</time>
      </trkpt>
      <trkpt lat="45.86825" lon="6.45715">
        <ele>1578.6</ele>
        <time>2024-04-27T06:48:50Z</time>
      </trkpt>
      <trkpt lat="45.86825" lon="6.45715">
        <ele>1578.6</ele>
        <time>2024-04-27T06:48:51Z</time>
      </trkpt>
      <trkpt lat="45.86824" lon="6.45715">
        <ele>1578.6</ele>
        <time>2024-04-27T06:48:52Z</time>
      </trkpt>
      <trkpt lat="45.86824" lon="6.45715">
        <ele>1579.6</ele>
        <time>2024-04-27T06:48:53Z</time>
      </trkpt>
      <trkpt lat="45.86823" lon="6.45715">
        <ele>1579.6</ele>
        <time>2024-04-27T06:48:54Z</time>
      </trkpt>
      <trkpt lat="45.86823" lon="6.45716">
        <ele>1579.6</ele>
        <time>2024-04-27T06:48:55Z</time>
      </trkpt>
      <trkpt lat="45.86823" lon="6.45716">
        <ele>1579.6</ele>
        <time>2024-04-27T06:48:56Z</time>
      </trkpt>
      <trkpt lat="45.86822" lon="6.45717">
        <ele>1580.7</ele>
        <time>2024-04-27T06:48:57Z</time>
      </trkpt>
      <trkpt lat="45.86821" lon="6.45717">
        <ele>1580.7</ele>
        <time>2024-04-27T06:48:58Z</time>
      </trkpt>
      <trkpt lat="45.86821" lon="6.45717">
        <ele>1580.7</ele>
        <time>2024-04-27T06:48:59Z</time>
      </trkpt>
      <trkpt lat="45.8682" lon="6.45717">
        <ele>1580.7</ele>
        <time>2024-04-27T06:49:00Z</time>
      </trkpt>
      <trkpt lat="45.86819" lon="6.45718">
        <ele>1580.7</ele>
        <time>2024-04-27T06:49:01Z</time>
      </trkpt>
      <trkpt lat="45.86819" lon="6.45718">
        <ele>1580.7</ele>
        <time>2024-04-27T06:49:02Z</time>
      </trkpt>
      <trkpt lat="45.86818" lon="6.45718">
        <ele>1581.6</ele>
        <time>2024-04-27T06:49:03Z</time>
      </trkpt>
      <trkpt lat="45.86817" lon="6.45718">
        <ele>1581.6</ele>
        <time>2024-04-27T06:49:04Z</time>
      </trkpt>
      <trkpt lat="45.86817" lon="6.45719">
        <ele>1581.6</ele>
        <time>2024-04-27T06:49:05Z</time>
      </trkpt>
      <trkpt lat="45.86816" lon="6.45719">
        <ele>1581.6</ele>
        <time>2024-04-27T06:49:06Z</time>
      </trkpt>
      <trkpt lat="45.86816" lon="6.45719">
        <ele>1582.7</ele>
        <time>2024-04-27T06:49:07Z</time>
      </trkpt>
      <trkpt lat="45.86816" lon="6.45719">
        <ele>1582.7</ele>
        <time>2024-04-27T06:49:08Z</time>
      </trkpt>
      <trkpt lat="45.86815" lon="6.45719">
        <ele>1582.7</ele>
        <time>2024-04-27T06:49:09Z</time>
      </trkpt>
      <trkpt lat="45.86815" lon="6.45719">
        <ele>1582.7</ele>
        <time>2024-04-27T06:49:10Z</time>
      </trkpt>
      <trkpt lat="45.86814" lon="6.45719">
        <ele>1583.6</ele>
        <time>2024-04-27T06:49:11Z</time>
      </trkpt>
      <trkpt lat="45.86814" lon="6.4572">
        <ele>1583.6</ele>
        <time>2024-04-27T06:49:12Z</time>
      </trkpt>
      <trkpt lat="45.86813" lon="6.4572">
        <ele>1583.6</ele>
        <time>2024-04-27T06:49:13Z</time>
      </trkpt>
      <trkpt lat="45.86812" lon="6.45721">
        <ele>1583.6</ele>
        <time>2024-04-27T06:49:14Z</time>
      </trkpt>
      <trkpt lat="45.86812" lon="6.45721">
        <ele>1584.7</ele>
        <time>2024-04-27T06:49:15Z</time>
      </trkpt>
      <trkpt lat="45.86811" lon="6.45722">
        <ele>1584.7</ele>
        <time>2024-04-27T06:49:16Z</time>
      </trkpt>
      <trkpt lat="45.86811" lon="6.45722">
        <ele>1584.7</ele>
        <time>2024-04-27T06:49:17Z</time>
      </trkpt>
      <trkpt lat="45.8681" lon="6.45722">
        <ele>1584.7</ele>
        <time>2024-04-27T06:49:18Z</time>
      </trkpt>
      <trkpt lat="45.8681" lon="6.45722">
        <ele>1585.6</ele>
        <time>2024-04-27T06:49:19Z</time>
      </trkpt>
      <trkpt lat="45.86809" lon="6.45723">
        <ele>1585.6</ele>
        <time>2024-04-27T06:49:20Z</time>
      </trkpt>
      <trkpt lat="45.86808" lon="6.45723">
        <ele>1585.6</ele>
        <time>2024-04-27T06:49:21Z</time>
      </trkpt>
      <trkpt lat="45.86808" lon="6.45723">
        <ele>1585.6</ele>
        <time>2024-04-27T06:49:22Z</time>
      </trkpt>
      <trkpt lat="45.86807" lon="6.45723">
        <ele>1586.7</ele>
        <time>2024-04-27T06:49:23Z</time>
      </trkpt>
      <trkpt lat="45.86807" lon="6.45723">
        <ele>1586.7</ele>
        <time>2024-04-27T06:49:24Z</time>
      </trkpt>
      <trkpt lat="45.86806" lon="6.45723">
        <ele>1586.7</ele>
        <time>2024-04-27T06:49:25Z</time>
      </trkpt>
      <trkpt lat="45.86806" lon="6.45723">
        <ele>1586.7</ele>
        <time>2024-04-27T06:49:26Z</time>
      </trkpt>
      <trkpt lat="45.86805" lon="6.45723">
        <ele>1587.6</ele>
        <time>2024-04-27T06:49:27Z</time>
      </trkpt>
      <trkpt lat="45.86805" lon="6.45723">
        <ele>1587.6</ele>
        <time>2024-04-27T06:49:28Z</time>
      </trkpt>
      <trkpt lat="45.86804" lon="6.45724">
        <ele>1587.6</ele>
        <time>2024-04-27T06:49:29Z</time>
      </trkpt>
      <trkpt lat="45.86804" lon="6.45724">
        <ele>1587.6</ele>
        <time>2024-04-27T06:49:30Z</time>
      </trkpt>
      <trkpt lat="45.86803" lon="6.45724">
        <ele>1588.6</ele>
        <time>2024-04-27T06:49:31Z</time>
      </trkpt>
      <trkpt lat="45.86803" lon="6.45724">
        <ele>1588.6</ele>
        <time>2024-04-27T06:49:32Z</time>
      </trkpt>
      <trkpt lat="45.86802" lon="6.45724">
        <ele>1589.7</ele>
        <time>2024-04-27T06:49:33Z</time>
      </trkpt>
      <trkpt lat="45.86801" lon="6.45725">
        <ele>1589.7</ele>
        <time>2024-04-27T06:49:34Z</time>
      </trkpt>
      <trkpt lat="45.86801" lon="6.45725">
        <ele>1589.7</ele>
        <time>2024-04-27T06:49:35Z</time>
      </trkpt>
      <trkpt lat="45.868" lon="6.45725">
        <ele>1589.7</ele>
        <time>2024-04-27T06:49:36Z</time>
      </trkpt>
      <trkpt lat="45.868" lon="6.45725">
        <ele>1589.7</ele>
        <time>2024-04-27T06:49:37Z</time>
      </trkpt>
      <trkpt lat="45.86799" lon="6.45726">
        <ele>1589.7</ele>
        <time>2024-04-27T06:49:38Z</time>
      </trkpt>
      <trkpt lat="45.86799" lon="6.45726">
        <ele>1590.6</ele>
        <time>2024-04-27T06:49:39Z</time>
      </trkpt>
      <trkpt lat="45.86799" lon="6.45726">
        <ele>1590.6</ele>
        <time>2024-04-27T06:49:40Z</time>
      </trkpt>
      <trkpt lat="45.86798" lon="6.45726">
        <ele>1590.6</ele>
        <time>2024-04-27T06:49:41Z</time>
      </trkpt>
      <trkpt lat="45.86798" lon="6.45726">
        <ele>1590.6</ele>
        <time>2024-04-27T06:49:42Z</time>
      </trkpt>
      <trkpt lat="45.86797" lon="6.45727">
        <ele>1591.7</ele>
        <time>2024-04-27T06:49:43Z</time>
      </trkpt>
      <trkpt lat="45.86797" lon="6.45727">
        <ele>1591.7</ele>
        <time>2024-04-27T06:49:44Z</time>
      </trkpt>
      <trkpt lat="45.86796" lon="6.45727">
        <ele>1591.7</ele>
        <time>2024-04-27T06:49:45Z</time>
      </trkpt>
      <trkpt lat="45.86796" lon="6.45727">
        <ele>1591.7</ele>
        <time>2024-04-27T06:49:46Z</time>
      </trkpt>
      <trkpt lat="45.86795" lon="6.45728">
        <ele>1592.6</ele>
        <time>2024-04-27T06:49:47Z</time>
      </trkpt>
      <trkpt lat="45.86795" lon="6.45728">
        <ele>1592.6</ele>
        <time>2024-04-27T06:49:48Z</time>
      </trkpt>
      <trkpt lat="45.86795" lon="6.45728">
        <ele>1592.6</ele>
        <time>2024-04-27T06:49:49Z</time>
      </trkpt>
      <trkpt lat="45.86794" lon="6.45728">
        <ele>1592.6</ele>
        <time>2024-04-27T06:49:50Z</time>
      </trkpt>
      <trkpt lat="45.86794" lon="6.45728">
        <ele>1593.7</ele>
        <time>2024-04-27T06:49:51Z</time>
      </trkpt>
      <trkpt lat="45.86794" lon="6.45729">
        <ele>1593.7</ele>
        <time>2024-04-27T06:49:52Z</time>
      </trkpt>
      <trkpt lat="45.86793" lon="6.45729">
        <ele>1593.7</ele>
        <time>2024-04-27T06:49:53Z</time>
      </trkpt>
      <trkpt lat="45.86793" lon="6.45729">
        <ele>1593.7</ele>
        <time>2024-04-27T06:49:54Z</time>
      </trkpt>
      <trkpt lat="45.86792" lon="6.45729">
        <ele>1594.6</ele>
        <time>2024-04-27T06:49:55Z</time>
      </trkpt>
      <trkpt lat="45.86792" lon="6.4573">
        <ele>1594.6</ele>
        <time>2024-04-27T06:49:56Z</time>
      </trkpt>
      <trkpt lat="45.86791" lon="6.4573">
        <ele>1594.6</ele>
        <time>2024-04-27T06:49:57Z</time>
      </trkpt>
      <trkpt lat="45.86791" lon="6.4573">
        <ele>1594.6</ele>
        <time>2024-04-27T06:49:58Z</time>
      </trkpt>
      <trkpt lat="45.8679" lon="6.45729">
        <ele>1595.6</ele>
        <time>2024-04-27T06:49:59Z</time>
      </trkpt>
      <trkpt lat="45.8679" lon="6.45729">
        <ele>1595.6</ele>
        <time>2024-04-27T06:50:00Z</time>
      </trkpt>
      <trkpt lat="45.86789" lon="6.45729">
        <ele>1595.6</ele>
        <time>2024-04-27T06:50:01Z</time>
      </trkpt>
      <trkpt lat="45.86789" lon="6.45729">
        <ele>1595.6</ele>
        <time>2024-04-27T06:50:02Z</time>
      </trkpt>
      <trkpt lat="45.86788" lon="6.45728">
        <ele>1596.7</ele>
        <time>2024-04-27T06:50:03Z</time>
      </trkpt>
      <trkpt lat="45.86788" lon="6.45728">
        <ele>1596.7</ele>
        <time>2024-04-27T06:50:04Z</time>
      </trkpt>
      <trkpt lat="45.86788" lon="6.45728">
        <ele>1596.7</ele>
        <time>2024-04-27T06:50:05Z</time>
      </trkpt>
      <trkpt lat="45.86788" lon="6.45727">
        <ele>1596.7</ele>
        <time>2024-04-27T06:50:06Z</time>
      </trkpt>
      <trkpt lat="45.86787" lon="6.45727">
        <ele>1597.6</ele>
        <time>2024-04-27T06:50:07Z</time>
      </trkpt>
      <trkpt lat="45.86787" lon="6.45727">
        <ele>1597.6</ele>
        <time>2024-04-27T06:50:08Z</time>
      </trkpt>
      <trkpt lat="45.86786" lon="6.45727">
        <ele>1597.6</ele>
        <time>2024-04-27T06:50:09Z</time>
      </trkpt>
      <trkpt lat="45.86786" lon="6.45727">
        <ele>1597.6</ele>
        <time>2024-04-27T06:50:10Z</time>
      </trkpt>
      <trkpt lat="45.86785" lon="6.45727">
        <ele>1597.6</ele>
        <time>2024-04-27T06:50:11Z</time>
      </trkpt>
      <trkpt lat="45.86785" lon="6.45727">
        <ele>1597.6</ele>
        <time>2024-04-27T06:50:12Z</time>
      </trkpt>
      <trkpt lat="45.86784" lon="6.45727">
        <ele>1597.6</ele>
        <time>2024-04-27T06:50:13Z</time>
      </trkpt>
      <trkpt lat="45.86784" lon="6.45727">
        <ele>1597.6</ele>
        <time>2024-04-27T06:50:14Z</time>
      </trkpt>
      <trkpt lat="45.86783" lon="6.45727">
        <ele>1597.6</ele>
        <time>2024-04-27T06:50:15Z</time>
      </trkpt>
      <trkpt lat="45.86783" lon="6.45728">
        <ele>1597.6</ele>
        <time>2024-04-27T06:50:16Z</time>
      </trkpt>
      <trkpt lat="45.86782" lon="6.45728">
        <ele>1598.7</ele>
        <time>2024-04-27T06:50:17Z</time>
      </trkpt>
      <trkpt lat="45.86782" lon="6.45729">
        <ele>1598.7</ele>
        <time>2024-04-27T06:50:18Z</time>
      </trkpt>
      <trkpt lat="45.86781" lon="6.45729">
        <ele>1598.7</ele>
        <time>2024-04-27T06:50:19Z</time>
      </trkpt>
      <trkpt lat="45.86781" lon="6.45729">
        <ele>1598.7</ele>
        <time>2024-04-27T06:50:20Z</time>
      </trkpt>
      <trkpt lat="45.8678" lon="6.45729">
        <ele>1599.6</ele>
        <time>2024-04-27T06:50:21Z</time>
      </trkpt>
      <trkpt lat="45.8678" lon="6.45729">
        <ele>1599.6</ele>
        <time>2024-04-27T06:50:22Z</time>
      </trkpt>
      <trkpt lat="45.8678" lon="6.4573">
        <ele>1599.6</ele>
        <time>2024-04-27T06:50:23Z</time>
      </trkpt>
      <trkpt lat="45.86779" lon="6.4573">
        <ele>1599.6</ele>
        <time>2024-04-27T06:50:24Z</time>
      </trkpt>
      <trkpt lat="45.86779" lon="6.4573">
        <ele>1599.6</ele>
        <time>2024-04-27T06:50:25Z</time>
      </trkpt>
      <trkpt lat="45.86778" lon="6.4573">
        <ele>1599.6</ele>
        <time>2024-04-27T06:50:26Z</time>
      </trkpt>
      <trkpt lat="45.86777" lon="6.4573">
        <ele>1600.7</ele>
        <time>2024-04-27T06:50:27Z</time>
      </trkpt>
      <trkpt lat="45.86777" lon="6.45731">
        <ele>1600.7</ele>
        <time>2024-04-27T06:50:28Z</time>
      </trkpt>
      <trkpt lat="45.86776" lon="6.45731">
        <ele>1600.7</ele>
        <time>2024-04-27T06:50:29Z</time>
      </trkpt>
      <trkpt lat="45.86776" lon="6.45731">
        <ele>1600.7</ele>
        <time>2024-04-27T06:50:30Z</time>
      </trkpt>
      <trkpt lat="45.86775" lon="6.45731">
        <ele>1601.6</ele>
        <time>2024-04-27T06:50:31Z</time>
      </trkpt>
      <trkpt lat="45.86775" lon="6.45731">
        <ele>1601.6</ele>
        <time>2024-04-27T06:50:32Z</time>
      </trkpt>
      <trkpt lat="45.86774" lon="6.45731">
        <ele>1601.6</ele>
        <time>2024-04-27T06:50:33Z</time>
      </trkpt>
      <trkpt lat="45.86773" lon="6.45731">
        <ele>1601.6</ele>
        <time>2024-04-27T06:50:34Z</time>
      </trkpt>
      <trkpt lat="45.86773" lon="6.45732">
        <ele>1602.7</ele>
        <time>2024-04-27T06:50:35Z</time>
      </trkpt>
      <trkpt lat="45.86772" lon="6.45731">
        <ele>1602.7</ele>
        <time>2024-04-27T06:50:36Z</time>
      </trkpt>
      <trkpt lat="45.86772" lon="6.45731">
        <ele>1602.7</ele>
        <time>2024-04-27T06:50:37Z</time>
      </trkpt>
      <trkpt lat="45.86772" lon="6.45731">
        <ele>1602.7</ele>
        <time>2024-04-27T06:50:38Z</time>
      </trkpt>
      <trkpt lat="45.86771" lon="6.45731">
        <ele>1603.6</ele>
        <time>2024-04-27T06:50:39Z</time>
      </trkpt>
      <trkpt lat="45.86771" lon="6.45731">
        <ele>1603.6</ele>
        <time>2024-04-27T06:50:40Z</time>
      </trkpt>
      <trkpt lat="45.86771" lon="6.45731">
        <ele>1603.6</ele>
        <time>2024-04-27T06:50:41Z</time>
      </trkpt>
      <trkpt lat="45.8677" lon="6.45731">
        <ele>1603.6</ele>
        <time>2024-04-27T06:50:42Z</time>
      </trkpt>
      <trkpt lat="45.8677" lon="6.45731">
        <ele>1604.6</ele>
        <time>2024-04-27T06:50:43Z</time>
      </trkpt>
      <trkpt lat="45.86769" lon="6.45731">
        <ele>1604.6</ele>
        <time>2024-04-27T06:50:44Z</time>
      </trkpt>
      <trkpt lat="45.86769" lon="6.45731">
        <ele>1604.6</ele>
        <time>2024-04-27T06:50:45Z</time>
      </trkpt>
      <trkpt lat="45.86769" lon="6.45731">
        <ele>1604.6</ele>
        <time>2024-04-27T06:50:46Z</time>
      </trkpt>
      <trkpt lat="45.86768" lon="6.45731">
        <ele>1604.6</ele>
        <time>2024-04-27T06:50:47Z</time>
      </trkpt>
      <trkpt lat="45.86768" lon="6.45731">
        <ele>1604.6</ele>
        <time>2024-04-27T06:50:48Z</time>
      </trkpt>
      <trkpt lat="45.86768" lon="6.45731">
        <ele>1604.6</ele>
        <time>2024-04-27T06:50:49Z</time>
      </trkpt>
      <trkpt lat="45.86767" lon="6.4573">
        <ele>1604.6</ele>
        <time>2024-04-27T06:50:50Z</time>
      </trkpt>
      <trkpt lat="45.86767" lon="6.4573">
        <ele>1604.6</ele>
        <time>2024-04-27T06:50:51Z</time>
      </trkpt>
      <trkpt lat="45.86766" lon="6.45729">
        <ele>1604.6</ele>
        <time>2024-04-27T06:50:52Z</time>
      </trkpt>
      <trkpt lat="45.86766" lon="6.45729">
        <ele>1607.7</ele>
        <time>2024-04-27T06:50:53Z</time>
      </trkpt>
      <trkpt lat="45.86765" lon="6.45728">
        <ele>1607.7</ele>
        <time>2024-04-27T06:50:54Z</time>
      </trkpt>
      <trkpt lat="45.86765" lon="6.45728">
        <ele>1607.7</ele>
        <time>2024-04-27T06:50:55Z</time>
      </trkpt>
      <trkpt lat="45.86765" lon="6.45728">
        <ele>1607.7</ele>
        <time>2024-04-27T06:50:56Z</time>
      </trkpt>
      <trkpt lat="45.86764" lon="6.45728">
        <ele>1607.7</ele>
        <time>2024-04-27T06:50:57Z</time>
      </trkpt>
      <trkpt lat="45.86764" lon="6.45728">
        <ele>1607.7</ele>
        <time>2024-04-27T06:50:58Z</time>
      </trkpt>
      <trkpt lat="45.86764" lon="6.45728">
        <ele>1607.7</ele>
        <time>2024-04-27T06:50:59Z</time>
      </trkpt>
      <trkpt lat="45.86763" lon="6.45727">
        <ele>1607.7</ele>
        <time>2024-04-27T06:51:00Z</time>
      </trkpt>
      <trkpt lat="45.86763" lon="6.45727">
        <ele>1608.6</ele>
        <time>2024-04-27T06:51:01Z</time>
      </trkpt>
      <trkpt lat="45.86763" lon="6.45726">
        <ele>1608.6</ele>
        <time>2024-04-27T06:51:02Z</time>
      </trkpt>
      <trkpt lat="45.86762" lon="6.45726">
        <ele>1608.6</ele>
        <time>2024-04-27T06:51:03Z</time>
      </trkpt>
      <trkpt lat="45.86762" lon="6.45726">
        <ele>1608.6</ele>
        <time>2024-04-27T06:51:04Z</time>
      </trkpt>
      <trkpt lat="45.86762" lon="6.45726">
        <ele>1609.7</ele>
        <time>2024-04-27T06:51:05Z</time>
      </trkpt>
      <trkpt lat="45.86761" lon="6.45725">
        <ele>1609.7</ele>
        <time>2024-04-27T06:51:06Z</time>
      </trkpt>
      <trkpt lat="45.86761" lon="6.45725">
        <ele>1609.7</ele>
        <time>2024-04-27T06:51:07Z</time>
      </trkpt>
      <trkpt lat="45.8676" lon="6.45724">
        <ele>1609.7</ele>
        <time>2024-04-27T06:51:08Z</time>
      </trkpt>
      <trkpt lat="45.8676" lon="6.45724">
        <ele>1610.6</ele>
        <time>2024-04-27T06:51:09Z</time>
      </trkpt>
      <trkpt lat="45.8676" lon="6.45723">
        <ele>1610.6</ele>
        <time>2024-04-27T06:51:10Z</time>
      </trkpt>
      <trkpt lat="45.86759" lon="6.45723">
        <ele>1610.6</ele>
        <time>2024-04-27T06:51:11Z</time>
      </trkpt>
      <trkpt lat="45.86759" lon="6.45723">
        <ele>1610.6</ele>
        <time>2024-04-27T06:51:12Z</time>
      </trkpt>
      <trkpt lat="45.86758" lon="6.45722">
        <ele>1611.7</ele>
        <time>2024-04-27T06:51:13Z</time>
      </trkpt>
      <trkpt lat="45.86758" lon="6.45722">
        <ele>1611.7</ele>
        <time>2024-04-27T06:51:14Z</time>
      </trkpt>
      <trkpt lat="45.86758" lon="6.45722">
        <ele>1611.7</ele>
        <time>2024-04-27T06:51:15Z</time>
      </trkpt>
      <trkpt lat="45.86757" lon="6.45722">
        <ele>1611.7</ele>
        <time>2024-04-27T06:51:16Z</time>
      </trkpt>
      <trkpt lat="45.86757" lon="6.45722">
        <ele>1611.7</ele>
        <time>2024-04-27T06:51:17Z</time>
      </trkpt>
      <trkpt lat="45.86757" lon="6.45722">
        <ele>1611.7</ele>
        <time>2024-04-27T06:51:18Z</time>
      </trkpt>
      <trkpt lat="45.86756" lon="6.45722">
        <ele>1612.7</ele>
        <time>2024-04-27T06:51:19Z</time>
      </trkpt>
      <trkpt lat="45.86756" lon="6.45722">
        <ele>1612.7</ele>
        <time>2024-04-27T06:51:20Z</time>
      </trkpt>
      <trkpt lat="45.86755" lon="6.45722">
        <ele>1612.7</ele>
        <time>2024-04-27T06:51:21Z</time>
      </trkpt>
      <trkpt lat="45.86755" lon="6.45722">
        <ele>1612.7</ele>
        <time>2024-04-27T06:51:22Z</time>
      </trkpt>
      <trkpt lat="45.86755" lon="6.45722">
        <ele>1613.6</ele>
        <time>2024-04-27T06:51:23Z</time>
      </trkpt>
      <trkpt lat="45.86754" lon="6.45722">
        <ele>1613.6</ele>
        <time>2024-04-27T06:51:24Z</time>
      </trkpt>
      <trkpt lat="45.86754" lon="6.45722">
        <ele>1614.7</ele>
        <time>2024-04-27T06:51:25Z</time>
      </trkpt>
      <trkpt lat="45.86753" lon="6.45722">
        <ele>1614.7</ele>
        <time>2024-04-27T06:51:26Z</time>
      </trkpt>
      <trkpt lat="45.86753" lon="6.45722">
        <ele>1614.7</ele>
        <time>2024-04-27T06:51:27Z</time>
      </trkpt>
      <trkpt lat="45.86753" lon="6.45722">
        <ele>1614.7</ele>
        <time>2024-04-27T06:51:28Z</time>
      </trkpt>
      <trkpt lat="45.86752" lon="6.45722">
        <ele>1615.6</ele>
        <time>2024-04-27T06:51:29Z</time>
      </trkpt>
      <trkpt lat="45.86752" lon="6.45722">
        <ele>1615.6</ele>
        <time>2024-04-27T06:51:30Z</time>
      </trkpt>
      <trkpt lat="45.86752" lon="6.45722">
        <ele>1615.6</ele>
        <time>2024-04-27T06:51:31Z</time>
      </trkpt>
      <trkpt lat="45.86752" lon="6.45722">
        <ele>1615.6</ele>
        <time>2024-04-27T06:51:32Z</time>
      </trkpt>
      <trkpt lat="45.8675" lon="6.45723">
        <ele>1616.7</ele>
        <time>2024-04-27T06:51:33Z</time>
      </trkpt>
      <trkpt lat="45.8675" lon="6.45723">
        <ele>1616.7</ele>
        <time>2024-04-27T06:51:34Z</time>
      </trkpt>
      <trkpt lat="45.8675" lon="6.45724">
        <ele>1616.7</ele>
        <time>2024-04-27T06:51:35Z</time>
      </trkpt>
      <trkpt lat="45.86749" lon="6.45724">
        <ele>1616.7</ele>
        <time>2024-04-27T06:51:36Z</time>
      </trkpt>
      <trkpt lat="45.86749" lon="6.45724">
        <ele>1617.6</ele>
        <time>2024-04-27T06:51:37Z</time>
      </trkpt>
      <trkpt lat="45.86749" lon="6.45725">
        <ele>1617.6</ele>
        <time>2024-04-27T06:51:38Z</time>
      </trkpt>
      <trkpt lat="45.86748" lon="6.45725">
        <ele>1617.6</ele>
        <time>2024-04-27T06:51:39Z</time>
      </trkpt>
      <trkpt lat="45.86748" lon="6.45725">
        <ele>1617.6</ele>
        <time>2024-04-27T06:51:40Z</time>
      </trkpt>
      <trkpt lat="45.86747" lon="6.45726">
        <ele>1618.7</ele>
        <time>2024-04-27T06:51:41Z</time>
      </trkpt>
      <trkpt lat="45.86747" lon="6.45727">
        <ele>1618.7</ele>
        <time>2024-04-27T06:51:42Z</time>
      </trkpt>
      <trkpt lat="45.86746" lon="6.45727">
        <ele>1618.7</ele>
        <time>2024-04-27T06:51:43Z</time>
      </trkpt>
      <trkpt lat="45.86746" lon="6.45727">
        <ele>1618.7</ele>
        <time>2024-04-27T06:51:44Z</time>
      </trkpt>
      <trkpt lat="45.86745" lon="6.45727">
        <ele>1618.7</ele>
        <time>2024-04-27T06:51:45Z</time>
      </trkpt>
      <trkpt lat="45.86745" lon="6.45727">
        <ele>1618.7</ele>
        <time>2024-04-27T06:51:46Z</time>
      </trkpt>
      <trkpt lat="45.86745" lon="6.45726">
        <ele>1619.6</ele>
        <time>2024-04-27T06:51:47Z</time>
      </trkpt>
      <trkpt lat="45.86745" lon="6.45725">
        <ele>1619.6</ele>
        <time>2024-04-27T06:51:48Z</time>
      </trkpt>
      <trkpt lat="45.86745" lon="6.45725">
        <ele>1619.6</ele>
        <time>2024-04-27T06:51:49Z</time>
      </trkpt>
      <trkpt lat="45.86745" lon="6.45725">
        <ele>1619.6</ele>
        <time>2024-04-27T06:51:50Z</time>
      </trkpt>
      <trkpt lat="45.86744" lon="6.45724">
        <ele>1619.6</ele>
        <time>2024-04-27T06:51:51Z</time>
      </trkpt>
      <trkpt lat="45.86744" lon="6.45724">
        <ele>1619.6</ele>
        <time>2024-04-27T06:51:52Z</time>
      </trkpt>
      <trkpt lat="45.86744" lon="6.45724">
        <ele>1619.6</ele>
        <time>2024-04-27T06:51:53Z</time>
      </trkpt>
      <trkpt lat="45.86745" lon="6.45724">
        <ele>1619.6</ele>
        <time>2024-04-27T06:51:54Z</time>
      </trkpt>
      <trkpt lat="45.86744" lon="6.45724">
        <ele>1619.6</ele>
        <time>2024-04-27T06:51:55Z</time>
      </trkpt>
      <trkpt lat="45.86744" lon="6.45724">
        <ele>1619.6</ele>
        <time>2024-04-27T06:51:56Z</time>
      </trkpt>
      <trkpt lat="45.86744" lon="6.45724">
        <ele>1619.6</ele>
        <time>2024-04-27T06:51:57Z</time>
      </trkpt>
      <trkpt lat="45.86744" lon="6.45723">
        <ele>1619.6</ele>
        <time>2024-04-27T06:51:58Z</time>
      </trkpt>
      <trkpt lat="45.86744" lon="6.45724">
        <ele>1620.6</ele>
        <time>2024-04-27T06:51:59Z</time>
      </trkpt>
      <trkpt lat="45.86744" lon="6.45724">
        <ele>1620.6</ele>
        <time>2024-04-27T06:52:00Z</time>
      </trkpt>
      <trkpt lat="45.86744" lon="6.45724">
        <ele>1619.6</ele>
        <time>2024-04-27T06:52:01Z</time>
      </trkpt>
      <trkpt lat="45.86744" lon="6.45724">
        <ele>1619.6</ele>
        <time>2024-04-27T06:52:02Z</time>
      </trkpt>
      <trkpt lat="45.86744" lon="6.45724">
        <ele>1619.6</ele>
        <time>2024-04-27T06:52:03Z</time>
      </trkpt>
      <trkpt lat="45.86744" lon="6.45724">
        <ele>1619.6</ele>
        <time>2024-04-27T06:52:04Z</time>
      </trkpt>
      <trkpt lat="45.86744" lon="6.45724">
        <ele>1619.6</ele>
        <time>2024-04-27T06:52:05Z</time>
      </trkpt>
      <trkpt lat="45.86744" lon="6.45724">
        <ele>1619.6</ele>
        <time>2024-04-27T06:52:06Z</time>
      </trkpt>
      <trkpt lat="45.86744" lon="6.45724">
        <ele>1619.6</ele>
        <time>2024-04-27T06:52:07Z</time>
      </trkpt>
      <trkpt lat="45.86744" lon="6.45724">
        <ele>1619.6</ele>
        <time>2024-04-27T06:52:08Z</time>
      </trkpt>
      <trkpt lat="45.86744" lon="6.45724">
        <ele>1619.6</ele>
        <time>2024-04-27T06:52:09Z</time>
      </trkpt>
      <trkpt lat="45.86744" lon="6.45724">
        <ele>1619.6</ele>
        <time>2024-04-27T06:52:10Z</time>
      </trkpt>
      <trkpt lat="45.86744" lon="6.45724">
        <ele>1619.6</ele>
        <time>2024-04-27T06:52:11Z</time>
      </trkpt>
      <trkpt lat="45.86744" lon="6.45724">
        <ele>1619.6</ele>
        <time>2024-04-27T06:52:12Z</time>
      </trkpt>
      <trkpt lat="45.86744" lon="6.45724">
        <ele>1619.6</ele>
        <time>2024-04-27T06:52:13Z</time>
      </trkpt>
      <trkpt lat="45.86744" lon="6.45724">
        <ele>1619.6</ele>
        <time>2024-04-27T06:52:14Z</time>
      </trkpt>
      <trkpt lat="45.86744" lon="6.45724">
        <ele>1620.6</ele>
        <time>2024-04-27T06:52:15Z</time>
      </trkpt>
      <trkpt lat="45.86744" lon="6.45724">
        <ele>1620.6</ele>
        <time>2024-04-27T06:52:16Z</time>
      </trkpt>
      <trkpt lat="45.86744" lon="6.45724">
        <ele>1620.6</ele>
        <time>2024-04-27T06:52:17Z</time>
      </trkpt>
      <trkpt lat="45.86744" lon="6.45724">
        <ele>1620.6</ele>
        <time>2024-04-27T06:52:18Z</time>
      </trkpt>
      <trkpt lat="45.86744" lon="6.45724">
        <ele>1620.6</ele>
        <time>2024-04-27T06:52:19Z</time>
      </trkpt>
      <trkpt lat="45.86744" lon="6.45724">
        <ele>1620.6</ele>
        <time>2024-04-27T06:52:20Z</time>
      </trkpt>
      <trkpt lat="45.86744" lon="6.45724">
        <ele>1620.6</ele>
        <time>2024-04-27T06:52:21Z</time>
      </trkpt>
      <trkpt lat="45.86744" lon="6.45724">
        <ele>1620.6</ele>
        <time>2024-04-27T06:52:22Z</time>
      </trkpt>
      <trkpt lat="45.86744" lon="6.45724">
        <ele>1621.7</ele>
        <time>2024-04-27T06:52:23Z</time>
      </trkpt>
      <trkpt lat="45.86744" lon="6.45724">
        <ele>1621.7</ele>
        <time>2024-04-27T06:52:24Z</time>
      </trkpt>
      <trkpt lat="45.86744" lon="6.45723">
        <ele>1621.7</ele>
        <time>2024-04-27T06:52:25Z</time>
      </trkpt>
      <trkpt lat="45.86744" lon="6.45723">
        <ele>1621.7</ele>
        <time>2024-04-27T06:52:26Z</time>
      </trkpt>
      <trkpt lat="45.86744" lon="6.45723">
        <ele>1621.7</ele>
        <time>2024-04-27T06:52:27Z</time>
      </trkpt>
      <trkpt lat="45.86744" lon="6.45723">
        <ele>1621.7</ele>
        <time>2024-04-27T06:52:28Z</time>
      </trkpt>
      <trkpt lat="45.86744" lon="6.45723">
        <ele>1621.7</ele>
        <time>2024-04-27T06:52:29Z</time>
      </trkpt>
      <trkpt lat="45.86744" lon="6.45723">
        <ele>1621.7</ele>
        <time>2024-04-27T06:52:30Z</time>
      </trkpt>
      <trkpt lat="45.86744" lon="6.45723">
        <ele>1621.7</ele>
        <time>2024-04-27T06:52:31Z</time>
      </trkpt>
      <trkpt lat="45.86744" lon="6.45723">
        <ele>1621.7</ele>
        <time>2024-04-27T06:52:32Z</time>
      </trkpt>
      <trkpt lat="45.86744" lon="6.45723">
        <ele>1621.7</ele>
        <time>2024-04-27T06:52:33Z</time>
      </trkpt>
      <trkpt lat="45.86744" lon="6.45723">
        <ele>1621.7</ele>
        <time>2024-04-27T06:52:34Z</time>
      </trkpt>
      <trkpt lat="45.86744" lon="6.45723">
        <ele>1621.7</ele>
        <time>2024-04-27T06:52:35Z</time>
      </trkpt>
      <trkpt lat="45.86744" lon="6.45723">
        <ele>1621.7</ele>
        <time>2024-04-27T06:52:36Z</time>
      </trkpt>
      <trkpt lat="45.86744" lon="6.45723">
        <ele>1620.6</ele>
        <time>2024-04-27T06:52:37Z</time>
      </trkpt>
      <trkpt lat="45.86744" lon="6.45723">
        <ele>1620.6</ele>
        <time>2024-04-27T06:52:38Z</time>
      </trkpt>
      <trkpt lat="45.86744" lon="6.45723">
        <ele>1620.6</ele>
        <time>2024-04-27T06:52:39Z</time>
      </trkpt>
      <trkpt lat="45.86744" lon="6.45723">
        <ele>1620.6</ele>
        <time>2024-04-27T06:52:40Z</time>
      </trkpt>
      <trkpt lat="45.86744" lon="6.45723">
        <ele>1620.6</ele>
        <time>2024-04-27T06:52:41Z</time>
      </trkpt>
      <trkpt lat="45.86744" lon="6.45723">
        <ele>1620.6</ele>
        <time>2024-04-27T06:52:42Z</time>
      </trkpt>
      <trkpt lat="45.86744" lon="6.45723">
        <ele>1620.6</ele>
        <time>2024-04-27T06:52:43Z</time>
      </trkpt>
      <trkpt lat="45.86744" lon="6.45723">
        <ele>1620.6</ele>
        <time>2024-04-27T06:52:44Z</time>
      </trkpt>
      <trkpt lat="45.86744" lon="6.45723">
        <ele>1620.6</ele>
        <time>2024-04-27T06:52:45Z</time>
      </trkpt>
      <trkpt lat="45.86744" lon="6.45723">
        <ele>1620.6</ele>
        <time>2024-04-27T06:52:46Z</time>
      </trkpt>
      <trkpt lat="45.86744" lon="6.45723">
        <ele>1620.6</ele>
        <time>2024-04-27T06:52:47Z</time>
      </trkpt>
      <trkpt lat="45.86744" lon="6.45723">
        <ele>1620.6</ele>
        <time>2024-04-27T06:52:48Z</time>
      </trkpt>
      <trkpt lat="45.86744" lon="6.45723">
        <ele>1620.6</ele>
        <time>2024-04-27T06:52:49Z</time>
      </trkpt>
      <trkpt lat="45.86744" lon="6.45723">
        <ele>1620.6</ele>
        <time>2024-04-27T06:52:50Z</time>
      </trkpt>
      <trkpt lat="45.86744" lon="6.45723">
        <ele>1620.6</ele>
        <time>2024-04-27T06:52:51Z</time>
      </trkpt>
      <trkpt lat="45.86744" lon="6.45723">
        <ele>1620.6</ele>
        <time>2024-04-27T06:52:52Z</time>
      </trkpt>
      <trkpt lat="45.86744" lon="6.45724">
        <ele>1620.6</ele>
        <time>2024-04-27T06:52:53Z</time>
      </trkpt>
      <trkpt lat="45.86744" lon="6.45724">
        <ele>1620.6</ele>
        <time>2024-04-27T06:52:54Z</time>
      </trkpt>
      <trkpt lat="45.86744" lon="6.45724">
        <ele>1620.6</ele>
        <time>2024-04-27T06:52:55Z</time>
      </trkpt>
      <trkpt lat="45.86744" lon="6.45724">
        <ele>1620.6</ele>
        <time>2024-04-27T06:52:56Z</time>
      </trkpt>
      <trkpt lat="45.86744" lon="6.45724">
        <ele>1620.6</ele>
        <time>2024-04-27T06:52:57Z</time>
      </trkpt>
      <trkpt lat="45.86744" lon="6.45724">
        <ele>1620.6</ele>
        <time>2024-04-27T06:52:58Z</time>
      </trkpt>
      <trkpt lat="45.86744" lon="6.45724">
        <ele>1620.6</ele>
        <time>2024-04-27T06:52:59Z</time>
      </trkpt>
      <trkpt lat="45.86744" lon="6.45724">
        <ele>1620.6</ele>
        <time>2024-04-27T06:53:00Z</time>
      </trkpt>
      <trkpt lat="45.86744" lon="6.45724">
        <ele>1620.6</ele>
        <time>2024-04-27T06:53:01Z</time>
      </trkpt>
      <trkpt lat="45.86745" lon="6.45724">
        <ele>1620.6</ele>
        <time>2024-04-27T06:53:02Z</time>
      </trkpt>
      <trkpt lat="45.86745" lon="6.45724">
        <ele>1620.6</ele>
        <time>2024-04-27T06:53:03Z</time>
      </trkpt>
      <trkpt lat="45.86745" lon="6.45724">
        <ele>1620.6</ele>
        <time>2024-04-27T06:53:04Z</time>
      </trkpt>
      <trkpt lat="45.86745" lon="6.45724">
        <ele>1620.6</ele>
        <time>2024-04-27T06:53:05Z</time>
      </trkpt>
      <trkpt lat="45.86745" lon="6.45724">
        <ele>1620.6</ele>
        <time>2024-04-27T06:53:06Z</time>
      </trkpt>
      <trkpt lat="45.86745" lon="6.45724">
        <ele>1621.7</ele>
        <time>2024-04-27T06:53:07Z</time>
      </trkpt>
      <trkpt lat="45.86745" lon="6.45724">
        <ele>1621.7</ele>
        <time>2024-04-27T06:53:08Z</time>
      </trkpt>
      <trkpt lat="45.86745" lon="6.45724">
        <ele>1621.7</ele>
        <time>2024-04-27T06:53:09Z</time>
      </trkpt>
      <trkpt lat="45.86745" lon="6.45724">
        <ele>1621.7</ele>
        <time>2024-04-27T06:53:10Z</time>
      </trkpt>
      <trkpt lat="45.86745" lon="6.45724">
        <ele>1621.7</ele>
        <time>2024-04-27T06:53:11Z</time>
      </trkpt>
      <trkpt lat="45.86745" lon="6.45724">
        <ele>1621.7</ele>
        <time>2024-04-27T06:53:12Z</time>
      </trkpt>
      <trkpt lat="45.86745" lon="6.45724">
        <ele>1621.7</ele>
        <time>2024-04-27T06:53:13Z</time>
      </trkpt>
      <trkpt lat="45.86745" lon="6.45724">
        <ele>1621.7</ele>
        <time>2024-04-27T06:53:14Z</time>
      </trkpt>
      <trkpt lat="45.86745" lon="6.45724">
        <ele>1621.7</ele>
        <time>2024-04-27T06:53:15Z</time>
      </trkpt>
      <trkpt lat="45.86745" lon="6.45724">
        <ele>1621.7</ele>
        <time>2024-04-27T06:53:16Z</time>
      </trkpt>
      <trkpt lat="45.86745" lon="6.45724">
        <ele>1621.7</ele>
        <time>2024-04-27T06:53:17Z</time>
      </trkpt>
      <trkpt lat="45.86745" lon="6.45724">
        <ele>1621.7</ele>
        <time>2024-04-27T06:53:18Z</time>
      </trkpt>
      <trkpt lat="45.86745" lon="6.45724">
        <ele>1621.7</ele>
        <time>2024-04-27T06:53:19Z</time>
      </trkpt>
      <trkpt lat="45.86745" lon="6.45724">
        <ele>1621.7</ele>
        <time>2024-04-27T06:53:20Z</time>
      </trkpt>
      <trkpt lat="45.86745" lon="6.45724">
        <ele>1621.7</ele>
        <time>2024-04-27T06:53:21Z</time>
      </trkpt>
      <trkpt lat="45.86745" lon="6.45724">
        <ele>1621.7</ele>
        <time>2024-04-27T06:53:22Z</time>
      </trkpt>
      <trkpt lat="45.86745" lon="6.45724">
        <ele>1621.7</ele>
        <time>2024-04-27T06:53:23Z</time>
      </trkpt>
      <trkpt lat="45.86745" lon="6.45724">
        <ele>1621.7</ele>
        <time>2024-04-27T06:53:24Z</time>
      </trkpt>
      <trkpt lat="45.86745" lon="6.45724">
        <ele>1619.6</ele>
        <time>2024-04-27T06:53:25Z</time>
      </trkpt>
      <trkpt lat="45.86745" lon="6.45724">
        <ele>1619.6</ele>
        <time>2024-04-27T06:53:26Z</time>
      </trkpt>
      <trkpt lat="45.86745" lon="6.45724">
        <ele>1619.6</ele>
        <time>2024-04-27T06:53:27Z</time>
      </trkpt>
      <trkpt lat="45.86745" lon="6.45724">
        <ele>1619.6</ele>
        <time>2024-04-27T06:53:28Z</time>
      </trkpt>
      <trkpt lat="45.86745" lon="6.45724">
        <ele>1619.6</ele>
        <time>2024-04-27T06:53:29Z</time>
      </trkpt>
      <trkpt lat="45.86745" lon="6.45724">
        <ele>1619.6</ele>
        <time>2024-04-27T06:53:30Z</time>
      </trkpt>
      <trkpt lat="45.86745" lon="6.45724">
        <ele>1619.6</ele>
        <time>2024-04-27T06:53:31Z</time>
      </trkpt>
      <trkpt lat="45.86745" lon="6.45724">
        <ele>1619.6</ele>
        <time>2024-04-27T06:53:32Z</time>
      </trkpt>
      <trkpt lat="45.86745" lon="6.45724">
        <ele>1619.6</ele>
        <time>2024-04-27T06:53:33Z</time>
      </trkpt>
      <trkpt lat="45.86745" lon="6.45724">
        <ele>1619.6</ele>
        <time>2024-04-27T06:53:34Z</time>
      </trkpt>
      <trkpt lat="45.86745" lon="6.45724">
        <ele>1620.6</ele>
        <time>2024-04-27T06:53:35Z</time>
      </trkpt>
      <trkpt lat="45.86745" lon="6.45724">
        <ele>1620.6</ele>
        <time>2024-04-27T06:53:36Z</time>
      </trkpt>
      <trkpt lat="45.86746" lon="6.45724">
        <ele>1621.7</ele>
        <time>2024-04-27T06:53:37Z</time>
      </trkpt>
      <trkpt lat="45.86746" lon="6.45724">
        <ele>1621.7</ele>
        <time>2024-04-27T06:53:38Z</time>
      </trkpt>
      <trkpt lat="45.86746" lon="6.45724">
        <ele>1621.7</ele>
        <time>2024-04-27T06:53:39Z</time>
      </trkpt>
      <trkpt lat="45.86746" lon="6.45724">
        <ele>1621.7</ele>
        <time>2024-04-27T06:53:40Z</time>
      </trkpt>
      <trkpt lat="45.86746" lon="6.45724">
        <ele>1621.7</ele>
        <time>2024-04-27T06:53:41Z</time>
      </trkpt>
      <trkpt lat="45.86746" lon="6.45724">
        <ele>1621.7</ele>
        <time>2024-04-27T06:53:42Z</time>
      </trkpt>
      <trkpt lat="45.86745" lon="6.45724">
        <ele>1621.7</ele>
        <time>2024-04-27T06:53:43Z</time>
      </trkpt>
      <trkpt lat="45.86745" lon="6.45724">
        <ele>1621.7</ele>
        <time>2024-04-27T06:53:44Z</time>
      </trkpt>
      <trkpt lat="45.86745" lon="6.45724">
        <ele>1621.7</ele>
        <time>2024-04-27T06:53:45Z</time>
      </trkpt>
      <trkpt lat="45.86745" lon="6.45724">
        <ele>1621.7</ele>
        <time>2024-04-27T06:53:46Z</time>
      </trkpt>
      <trkpt lat="45.86745" lon="6.45723">
        <ele>1621.7</ele>
        <time>2024-04-27T06:53:47Z</time>
      </trkpt>
      <trkpt lat="45.86745" lon="6.45723">
        <ele>1621.7</ele>
        <time>2024-04-27T06:53:48Z</time>
      </trkpt>
      <trkpt lat="45.86745" lon="6.45723">
        <ele>1621.7</ele>
        <time>2024-04-27T06:53:49Z</time>
      </trkpt>
      <trkpt lat="45.86745" lon="6.45723">
        <ele>1621.7</ele>
        <time>2024-04-27T06:53:50Z</time>
      </trkpt>
      <trkpt lat="45.86744" lon="6.45722">
        <ele>1620.6</ele>
        <time>2024-04-27T06:53:51Z</time>
      </trkpt>
      <trkpt lat="45.86743" lon="6.45721">
        <ele>1620.6</ele>
        <time>2024-04-27T06:53:52Z</time>
      </trkpt>
      <trkpt lat="45.86742" lon="6.45721">
        <ele>1620.6</ele>
        <time>2024-04-27T06:53:53Z</time>
      </trkpt>
      <trkpt lat="45.86741" lon="6.4572">
        <ele>1620.6</ele>
        <time>2024-04-27T06:53:54Z</time>
      </trkpt>
      <trkpt lat="45.8674" lon="6.4572">
        <ele>1620.6</ele>
        <time>2024-04-27T06:53:55Z</time>
      </trkpt>
      <trkpt lat="45.86739" lon="6.45719">
        <ele>1620.6</ele>
        <time>2024-04-27T06:53:56Z</time>
      </trkpt>
      <trkpt lat="45.86738" lon="6.45718">
        <ele>1620.6</ele>
        <time>2024-04-27T06:53:57Z</time>
      </trkpt>
      <trkpt lat="45.86738" lon="6.45718">
        <ele>1620.6</ele>
        <time>2024-04-27T06:53:58Z</time>
      </trkpt>
      <trkpt lat="45.86736" lon="6.45717">
        <ele>1622.6</ele>
        <time>2024-04-27T06:53:59Z</time>
      </trkpt>
      <trkpt lat="45.86736" lon="6.45717">
        <ele>1622.6</ele>
        <time>2024-04-27T06:54:00Z</time>
      </trkpt>
      <trkpt lat="45.86735" lon="6.45718">
        <ele>1622.6</ele>
        <time>2024-04-27T06:54:01Z</time>
      </trkpt>
      <trkpt lat="45.86735" lon="6.45718">
        <ele>1622.6</ele>
        <time>2024-04-27T06:54:02Z</time>
      </trkpt>
      <trkpt lat="45.86735" lon="6.45719">
        <ele>1623.7</ele>
        <time>2024-04-27T06:54:03Z</time>
      </trkpt>
      <trkpt lat="45.86734" lon="6.45719">
        <ele>1623.7</ele>
        <time>2024-04-27T06:54:04Z</time>
      </trkpt>
      <trkpt lat="45.86733" lon="6.45719">
        <ele>1624.6</ele>
        <time>2024-04-27T06:54:05Z</time>
      </trkpt>
      <trkpt lat="45.86733" lon="6.45719">
        <ele>1624.6</ele>
        <time>2024-04-27T06:54:06Z</time>
      </trkpt>
      <trkpt lat="45.86732" lon="6.4572">
        <ele>1624.6</ele>
        <time>2024-04-27T06:54:07Z</time>
      </trkpt>
      <trkpt lat="45.86732" lon="6.4572">
        <ele>1624.6</ele>
        <time>2024-04-27T06:54:08Z</time>
      </trkpt>
      <trkpt lat="45.86731" lon="6.4572">
        <ele>1624.6</ele>
        <time>2024-04-27T06:54:09Z</time>
      </trkpt>
      <trkpt lat="45.86731" lon="6.45721">
        <ele>1624.6</ele>
        <time>2024-04-27T06:54:10Z</time>
      </trkpt>
      <trkpt lat="45.8673" lon="6.45721">
        <ele>1625.7</ele>
        <time>2024-04-27T06:54:11Z</time>
      </trkpt>
      <trkpt lat="45.8673" lon="6.45721">
        <ele>1625.7</ele>
        <time>2024-04-27T06:54:12Z</time>
      </trkpt>
      <trkpt lat="45.86729" lon="6.45721">
        <ele>1626.6</ele>
        <time>2024-04-27T06:54:13Z</time>
      </trkpt>
      <trkpt lat="45.86729" lon="6.45722">
        <ele>1626.6</ele>
        <time>2024-04-27T06:54:14Z</time>
      </trkpt>
      <trkpt lat="45.86728" lon="6.45722">
        <ele>1626.6</ele>
        <time>2024-04-27T06:54:15Z</time>
      </trkpt>
      <trkpt lat="45.86728" lon="6.45722">
        <ele>1626.6</ele>
        <time>2024-04-27T06:54:16Z</time>
      </trkpt>
      <trkpt lat="45.86727" lon="6.45721">
        <ele>1626.6</ele>
        <time>2024-04-27T06:54:17Z</time>
      </trkpt>
      <trkpt lat="45.86727" lon="6.45721">
        <ele>1626.6</ele>
        <time>2024-04-27T06:54:18Z</time>
      </trkpt>
      <trkpt lat="45.86726" lon="6.4572">
        <ele>1627.7</ele>
        <time>2024-04-27T06:54:19Z</time>
      </trkpt>
      <trkpt lat="45.86726" lon="6.4572">
        <ele>1627.7</ele>
        <time>2024-04-27T06:54:20Z</time>
      </trkpt>
      <trkpt lat="45.86725" lon="6.4572">
        <ele>1627.7</ele>
        <time>2024-04-27T06:54:21Z</time>
      </trkpt>
      <trkpt lat="45.86725" lon="6.4572">
        <ele>1627.7</ele>
        <time>2024-04-27T06:54:22Z</time>
      </trkpt>
      <trkpt lat="45.86725" lon="6.4572">
        <ele>1627.7</ele>
        <time>2024-04-27T06:54:23Z</time>
      </trkpt>
      <trkpt lat="45.86724" lon="6.45719">
        <ele>1627.7</ele>
        <time>2024-04-27T06:54:24Z</time>
      </trkpt>
      <trkpt lat="45.86723" lon="6.45719">
        <ele>1628.7</ele>
        <time>2024-04-27T06:54:25Z</time>
      </trkpt>
      <trkpt lat="45.86723" lon="6.45718">
        <ele>1628.7</ele>
        <time>2024-04-27T06:54:26Z</time>
      </trkpt>
      <trkpt lat="45.86723" lon="6.45718">
        <ele>1628.7</ele>
        <time>2024-04-27T06:54:27Z</time>
      </trkpt>
      <trkpt lat="45.86722" lon="6.45718">
        <ele>1628.7</ele>
        <time>2024-04-27T06:54:28Z</time>
      </trkpt>
      <trkpt lat="45.86722" lon="6.45718">
        <ele>1629.6</ele>
        <time>2024-04-27T06:54:29Z</time>
      </trkpt>
      <trkpt lat="45.86722" lon="6.45718">
        <ele>1629.6</ele>
        <time>2024-04-27T06:54:30Z</time>
      </trkpt>
      <trkpt lat="45.86721" lon="6.45718">
        <ele>1629.6</ele>
        <time>2024-04-27T06:54:31Z</time>
      </trkpt>
      <trkpt lat="45.86721" lon="6.45718">
        <ele>1629.6</ele>
        <time>2024-04-27T06:54:32Z</time>
      </trkpt>
      <trkpt lat="45.8672" lon="6.45718">
        <ele>1629.6</ele>
        <time>2024-04-27T06:54:33Z</time>
      </trkpt>
      <trkpt lat="45.8672" lon="6.45718">
        <ele>1629.6</ele>
        <time>2024-04-27T06:54:34Z</time>
      </trkpt>
      <trkpt lat="45.8672" lon="6.45718">
        <ele>1630.7</ele>
        <time>2024-04-27T06:54:35Z</time>
      </trkpt>
      <trkpt lat="45.86719" lon="6.45718">
        <ele>1630.7</ele>
        <time>2024-04-27T06:54:36Z</time>
      </trkpt>
      <trkpt lat="45.86719" lon="6.45717">
        <ele>1631.6</ele>
        <time>2024-04-27T06:54:37Z</time>
      </trkpt>
      <trkpt lat="45.86718" lon="6.45717">
        <ele>1631.6</ele>
        <time>2024-04-27T06:54:38Z</time>
      </trkpt>
      <trkpt lat="45.86717" lon="6.45717">
        <ele>1632.7</ele>
        <time>2024-04-27T06:54:39Z</time>
      </trkpt>
      <trkpt lat="45.86717" lon="6.45717">
        <ele>1632.7</ele>
        <time>2024-04-27T06:54:40Z</time>
      </trkpt>
      <trkpt lat="45.86717" lon="6.45717">
        <ele>1632.7</ele>
        <time>2024-04-27T06:54:41Z</time>
      </trkpt>
      <trkpt lat="45.86716" lon="6.45717">
        <ele>1632.7</ele>
        <time>2024-04-27T06:54:42Z</time>
      </trkpt>
      <trkpt lat="45.86716" lon="6.45718">
        <ele>1632.7</ele>
        <time>2024-04-27T06:54:43Z</time>
      </trkpt>
      <trkpt lat="45.86716" lon="6.45718">
        <ele>1632.7</ele>
        <time>2024-04-27T06:54:44Z</time>
      </trkpt>
      <trkpt lat="45.86715" lon="6.45718">
        <ele>1632.7</ele>
        <time>2024-04-27T06:54:45Z</time>
      </trkpt>
      <trkpt lat="45.86714" lon="6.45717">
        <ele>1632.7</ele>
        <time>2024-04-27T06:54:46Z</time>
      </trkpt>
      <trkpt lat="45.86714" lon="6.45717">
        <ele>1633.6</ele>
        <time>2024-04-27T06:54:47Z</time>
      </trkpt>
      <trkpt lat="45.86713" lon="6.45717">
        <ele>1633.6</ele>
        <time>2024-04-27T06:54:48Z</time>
      </trkpt>
      <trkpt lat="45.86713" lon="6.45716">
        <ele>1633.6</ele>
        <time>2024-04-27T06:54:49Z</time>
      </trkpt>
      <trkpt lat="45.86712" lon="6.45716">
        <ele>1633.6</ele>
        <time>2024-04-27T06:54:50Z</time>
      </trkpt>
      <trkpt lat="45.86711" lon="6.45716">
        <ele>1634.7</ele>
        <time>2024-04-27T06:54:51Z</time>
      </trkpt>
      <trkpt lat="45.86711" lon="6.45716">
        <ele>1634.7</ele>
        <time>2024-04-27T06:54:52Z</time>
      </trkpt>
      <trkpt lat="45.8671" lon="6.45716">
        <ele>1634.7</ele>
        <time>2024-04-27T06:54:53Z</time>
      </trkpt>
      <trkpt lat="45.8671" lon="6.45715">
        <ele>1634.7</ele>
        <time>2024-04-27T06:54:54Z</time>
      </trkpt>
      <trkpt lat="45.86709" lon="6.45715">
        <ele>1634.7</ele>
        <time>2024-04-27T06:54:55Z</time>
      </trkpt>
      <trkpt lat="45.86709" lon="6.45715">
        <ele>1634.7</ele>
        <time>2024-04-27T06:54:56Z</time>
      </trkpt>
      <trkpt lat="45.86708" lon="6.45714">
        <ele>1634.7</ele>
        <time>2024-04-27T06:54:57Z</time>
      </trkpt>
      <trkpt lat="45.86708" lon="6.45714">
        <ele>1634.7</ele>
        <time>2024-04-27T06:54:58Z</time>
      </trkpt>
      <trkpt lat="45.86707" lon="6.45714">
        <ele>1634.7</ele>
        <time>2024-04-27T06:54:59Z</time>
      </trkpt>
      <trkpt lat="45.86707" lon="6.45714">
        <ele>1634.7</ele>
        <time>2024-04-27T06:55:00Z</time>
      </trkpt>
      <trkpt lat="45.86706" lon="6.45714">
        <ele>1634.7</ele>
        <time>2024-04-27T06:55:01Z</time>
      </trkpt>
      <trkpt lat="45.86706" lon="6.45713">
        <ele>1634.7</ele>
        <time>2024-04-27T06:55:02Z</time>
      </trkpt>
      <trkpt lat="45.86705" lon="6.45712">
        <ele>1637.7</ele>
        <time>2024-04-27T06:55:03Z</time>
      </trkpt>
      <trkpt lat="45.86704" lon="6.45712">
        <ele>1637.7</ele>
        <time>2024-04-27T06:55:04Z</time>
      </trkpt>
      <trkpt lat="45.86704" lon="6.45711">
        <ele>1637.7</ele>
        <time>2024-04-27T06:55:05Z</time>
      </trkpt>
      <trkpt lat="45.86704" lon="6.45711">
        <ele>1637.7</ele>
        <time>2024-04-27T06:55:06Z</time>
      </trkpt>
      <trkpt lat="45.86704" lon="6.4571">
        <ele>1637.7</ele>
        <time>2024-04-27T06:55:07Z</time>
      </trkpt>
      <trkpt lat="45.86704" lon="6.45709">
        <ele>1637.7</ele>
        <time>2024-04-27T06:55:08Z</time>
      </trkpt>
      <trkpt lat="45.86704" lon="6.45708">
        <ele>1638.6</ele>
        <time>2024-04-27T06:55:09Z</time>
      </trkpt>
      <trkpt lat="45.86704" lon="6.45707">
        <ele>1638.6</ele>
        <time>2024-04-27T06:55:10Z</time>
      </trkpt>
      <trkpt lat="45.86704" lon="6.45706">
        <ele>1639.7</ele>
        <time>2024-04-27T06:55:11Z</time>
      </trkpt>
      <trkpt lat="45.86705" lon="6.45706">
        <ele>1639.7</ele>
        <time>2024-04-27T06:55:12Z</time>
      </trkpt>
      <trkpt lat="45.86705" lon="6.45705">
        <ele>1639.7</ele>
        <time>2024-04-27T06:55:13Z</time>
      </trkpt>
      <trkpt lat="45.86705" lon="6.45704">
        <ele>1639.7</ele>
        <time>2024-04-27T06:55:14Z</time>
      </trkpt>
      <trkpt lat="45.86705" lon="6.45703">
        <ele>1640.6</ele>
        <time>2024-04-27T06:55:15Z</time>
      </trkpt>
      <trkpt lat="45.86705" lon="6.45702">
        <ele>1640.6</ele>
        <time>2024-04-27T06:55:16Z</time>
      </trkpt>
      <trkpt lat="45.86705" lon="6.45701">
        <ele>1640.6</ele>
        <time>2024-04-27T06:55:17Z</time>
      </trkpt>
      <trkpt lat="45.86705" lon="6.457">
        <ele>1640.6</ele>
        <time>2024-04-27T06:55:18Z</time>
      </trkpt>
      <trkpt lat="45.86705" lon="6.457">
        <ele>1640.6</ele>
        <time>2024-04-27T06:55:19Z</time>
      </trkpt>
      <trkpt lat="45.86705" lon="6.45699">
        <ele>1640.6</ele>
        <time>2024-04-27T06:55:20Z</time>
      </trkpt>
      <trkpt lat="45.86705" lon="6.45698">
        <ele>1640.6</ele>
        <time>2024-04-27T06:55:21Z</time>
      </trkpt>
      <trkpt lat="45.86704" lon="6.45698">
        <ele>1640.6</ele>
        <time>2024-04-27T06:55:22Z</time>
      </trkpt>
      <trkpt lat="45.86704" lon="6.45697">
        <ele>1641.7</ele>
        <time>2024-04-27T06:55:23Z</time>
      </trkpt>
      <trkpt lat="45.86704" lon="6.45696">
        <ele>1641.7</ele>
        <time>2024-04-27T06:55:24Z</time>
      </trkpt>
      <trkpt lat="45.86704" lon="6.45695">
        <ele>1641.7</ele>
        <time>2024-04-27T06:55:25Z</time>
      </trkpt>
      <trkpt lat="45.86703" lon="6.45694">
        <ele>1641.7</ele>
        <time>2024-04-27T06:55:26Z</time>
      </trkpt>
      <trkpt lat="45.86703" lon="6.45693">
        <ele>1641.7</ele>
        <time>2024-04-27T06:55:27Z</time>
      </trkpt>
      <trkpt lat="45.86703" lon="6.45693">
        <ele>1641.7</ele>
        <time>2024-04-27T06:55:28Z</time>
      </trkpt>
      <trkpt lat="45.86703" lon="6.45692">
        <ele>1642.6</ele>
        <time>2024-04-27T06:55:29Z</time>
      </trkpt>
      <trkpt lat="45.86703" lon="6.45691">
        <ele>1642.6</ele>
        <time>2024-04-27T06:55:30Z</time>
      </trkpt>
      <trkpt lat="45.86703" lon="6.4569">
        <ele>1642.6</ele>
        <time>2024-04-27T06:55:31Z</time>
      </trkpt>
      <trkpt lat="45.86703" lon="6.45689">
        <ele>1642.6</ele>
        <time>2024-04-27T06:55:32Z</time>
      </trkpt>
      <trkpt lat="45.86703" lon="6.45689">
        <ele>1642.6</ele>
        <time>2024-04-27T06:55:33Z</time>
      </trkpt>
      <trkpt lat="45.86703" lon="6.45688">
        <ele>1642.6</ele>
        <time>2024-04-27T06:55:34Z</time>
      </trkpt>
      <trkpt lat="45.86702" lon="6.45688">
        <ele>1643.7</ele>
        <time>2024-04-27T06:55:35Z</time>
      </trkpt>
      <trkpt lat="45.86702" lon="6.45687">
        <ele>1643.7</ele>
        <time>2024-04-27T06:55:36Z</time>
      </trkpt>
      <trkpt lat="45.86702" lon="6.45687">
        <ele>1643.7</ele>
        <time>2024-04-27T06:55:37Z</time>
      </trkpt>
      <trkpt lat="45.86701" lon="6.45686">
        <ele>1643.7</ele>
        <time>2024-04-27T06:55:38Z</time>
      </trkpt>
      <trkpt lat="45.86701" lon="6.45685">
        <ele>1644.6</ele>
        <time>2024-04-27T06:55:39Z</time>
      </trkpt>
      <trkpt lat="45.86701" lon="6.45685">
        <ele>1644.6</ele>
        <time>2024-04-27T06:55:40Z</time>
      </trkpt>
      <trkpt lat="45.86701" lon="6.45684">
        <ele>1644.6</ele>
        <time>2024-04-27T06:55:41Z</time>
      </trkpt>
      <trkpt lat="45.86701" lon="6.45683">
        <ele>1644.6</ele>
        <time>2024-04-27T06:55:42Z</time>
      </trkpt>
      <trkpt lat="45.86701" lon="6.45682">
        <ele>1645.6</ele>
        <time>2024-04-27T06:55:43Z</time>
      </trkpt>
      <trkpt lat="45.86701" lon="6.45682">
        <ele>1645.6</ele>
        <time>2024-04-27T06:55:44Z</time>
      </trkpt>
      <trkpt lat="45.86701" lon="6.45681">
        <ele>1645.6</ele>
        <time>2024-04-27T06:55:45Z</time>
      </trkpt>
      <trkpt lat="45.86701" lon="6.4568">
        <ele>1645.6</ele>
        <time>2024-04-27T06:55:46Z</time>
      </trkpt>
      <trkpt lat="45.86701" lon="6.45679">
        <ele>1645.6</ele>
        <time>2024-04-27T06:55:47Z</time>
      </trkpt>
      <trkpt lat="45.86701" lon="6.45679">
        <ele>1645.6</ele>
        <time>2024-04-27T06:55:48Z</time>
      </trkpt>
      <trkpt lat="45.86701" lon="6.45678">
        <ele>1646.7</ele>
        <time>2024-04-27T06:55:49Z</time>
      </trkpt>
      <trkpt lat="45.867" lon="6.45677">
        <ele>1646.7</ele>
        <time>2024-04-27T06:55:50Z</time>
      </trkpt>
      <trkpt lat="45.867" lon="6.45676">
        <ele>1646.7</ele>
        <time>2024-04-27T06:55:51Z</time>
      </trkpt>
      <trkpt lat="45.867" lon="6.45676">
        <ele>1646.7</ele>
        <time>2024-04-27T06:55:52Z</time>
      </trkpt>
      <trkpt lat="45.867" lon="6.45675">
        <ele>1646.7</ele>
        <time>2024-04-27T06:55:53Z</time>
      </trkpt>
      <trkpt lat="45.867" lon="6.45674">
        <ele>1646.7</ele>
        <time>2024-04-27T06:55:54Z</time>
      </trkpt>
      <trkpt lat="45.86699" lon="6.45673">
        <ele>1647.6</ele>
        <time>2024-04-27T06:55:55Z</time>
      </trkpt>
      <trkpt lat="45.86699" lon="6.45673">
        <ele>1647.6</ele>
        <time>2024-04-27T06:55:56Z</time>
      </trkpt>
      <trkpt lat="45.86699" lon="6.45672">
        <ele>1647.6</ele>
        <time>2024-04-27T06:55:57Z</time>
      </trkpt>
      <trkpt lat="45.86699" lon="6.45671">
        <ele>1647.6</ele>
        <time>2024-04-27T06:55:58Z</time>
      </trkpt>
      <trkpt lat="45.86699" lon="6.4567">
        <ele>1647.6</ele>
        <time>2024-04-27T06:55:59Z</time>
      </trkpt>
      <trkpt lat="45.86699" lon="6.45669">
        <ele>1647.6</ele>
        <time>2024-04-27T06:56:00Z</time>
      </trkpt>
      <trkpt lat="45.86699" lon="6.45669">
        <ele>1648.7</ele>
        <time>2024-04-27T06:56:01Z</time>
      </trkpt>
      <trkpt lat="45.86699" lon="6.45668">
        <ele>1648.7</ele>
        <time>2024-04-27T06:56:02Z</time>
      </trkpt>
      <trkpt lat="45.86699" lon="6.45667">
        <ele>1648.7</ele>
        <time>2024-04-27T06:56:03Z</time>
      </trkpt>
      <trkpt lat="45.86699" lon="6.45666">
        <ele>1648.7</ele>
        <time>2024-04-27T06:56:04Z</time>
      </trkpt>
      <trkpt lat="45.86699" lon="6.45665">
        <ele>1649.6</ele>
        <time>2024-04-27T06:56:05Z</time>
      </trkpt>
      <trkpt lat="45.867" lon="6.45664">
        <ele>1649.6</ele>
        <time>2024-04-27T06:56:06Z</time>
      </trkpt>
      <trkpt lat="45.867" lon="6.45664">
        <ele>1650.7</ele>
        <time>2024-04-27T06:56:07Z</time>
      </trkpt>
      <trkpt lat="45.867" lon="6.45663">
        <ele>1650.7</ele>
        <time>2024-04-27T06:56:08Z</time>
      </trkpt>
      <trkpt lat="45.867" lon="6.45661">
        <ele>1651.6</ele>
        <time>2024-04-27T06:56:09Z</time>
      </trkpt>
      <trkpt lat="45.867" lon="6.4566">
        <ele>1651.6</ele>
        <time>2024-04-27T06:56:10Z</time>
      </trkpt>
      <trkpt lat="45.867" lon="6.45659">
        <ele>1651.6</ele>
        <time>2024-04-27T06:56:11Z</time>
      </trkpt>
      <trkpt lat="45.867" lon="6.45659">
        <ele>1651.6</ele>
        <time>2024-04-27T06:56:12Z</time>
      </trkpt>
      <trkpt lat="45.867" lon="6.45658">
        <ele>1651.6</ele>
        <time>2024-04-27T06:56:13Z</time>
      </trkpt>
      <trkpt lat="45.867" lon="6.45657">
        <ele>1651.6</ele>
        <time>2024-04-27T06:56:14Z</time>
      </trkpt>
      <trkpt lat="45.867" lon="6.45656">
        <ele>1652.6</ele>
        <time>2024-04-27T06:56:15Z</time>
      </trkpt>
      <trkpt lat="45.867" lon="6.45655">
        <ele>1652.6</ele>
        <time>2024-04-27T06:56:16Z</time>
      </trkpt>
      <trkpt lat="45.867" lon="6.45654">
        <ele>1652.6</ele>
        <time>2024-04-27T06:56:17Z</time>
      </trkpt>
      <trkpt lat="45.867" lon="6.45654">
        <ele>1652.6</ele>
        <time>2024-04-27T06:56:18Z</time>
      </trkpt>
      <trkpt lat="45.867" lon="6.45653">
        <ele>1652.6</ele>
        <time>2024-04-27T06:56:19Z</time>
      </trkpt>
      <trkpt lat="45.867" lon="6.45653">
        <ele>1652.6</ele>
        <time>2024-04-27T06:56:20Z</time>
      </trkpt>
      <trkpt lat="45.867" lon="6.45652">
        <ele>1652.6</ele>
        <time>2024-04-27T06:56:21Z</time>
      </trkpt>
      <trkpt lat="45.867" lon="6.45651">
        <ele>1652.6</ele>
        <time>2024-04-27T06:56:22Z</time>
      </trkpt>
      <trkpt lat="45.867" lon="6.45651">
        <ele>1652.6</ele>
        <time>2024-04-27T06:56:23Z</time>
      </trkpt>
      <trkpt lat="45.86699" lon="6.4565">
        <ele>1652.6</ele>
        <time>2024-04-27T06:56:24Z</time>
      </trkpt>
      <trkpt lat="45.86699" lon="6.45649">
        <ele>1653.7</ele>
        <time>2024-04-27T06:56:25Z</time>
      </trkpt>
      <trkpt lat="45.86699" lon="6.45649">
        <ele>1653.7</ele>
        <time>2024-04-27T06:56:26Z</time>
      </trkpt>
      <trkpt lat="45.86699" lon="6.45647">
        <ele>1653.7</ele>
        <time>2024-04-27T06:56:27Z</time>
      </trkpt>
      <trkpt lat="45.86699" lon="6.45647">
        <ele>1653.7</ele>
        <time>2024-04-27T06:56:28Z</time>
      </trkpt>
      <trkpt lat="45.867" lon="6.45645">
        <ele>1654.6</ele>
        <time>2024-04-27T06:56:29Z</time>
      </trkpt>
      <trkpt lat="45.867" lon="6.45645">
        <ele>1654.6</ele>
        <time>2024-04-27T06:56:30Z</time>
      </trkpt>
      <trkpt lat="45.86699" lon="6.45644">
        <ele>1655.7</ele>
        <time>2024-04-27T06:56:31Z</time>
      </trkpt>
      <trkpt lat="45.86699" lon="6.45644">
        <ele>1655.7</ele>
        <time>2024-04-27T06:56:32Z</time>
      </trkpt>
      <trkpt lat="45.86699" lon="6.45644">
        <ele>1655.7</ele>
        <time>2024-04-27T06:56:33Z</time>
      </trkpt>
      <trkpt lat="45.86699" lon="6.45642">
        <ele>1655.7</ele>
        <time>2024-04-27T06:56:34Z</time>
      </trkpt>
      <trkpt lat="45.86699" lon="6.45642">
        <ele>1656.6</ele>
        <time>2024-04-27T06:56:35Z</time>
      </trkpt>
      <trkpt lat="45.86699" lon="6.45641">
        <ele>1656.6</ele>
        <time>2024-04-27T06:56:36Z</time>
      </trkpt>
      <trkpt lat="45.86699" lon="6.4564">
        <ele>1656.6</ele>
        <time>2024-04-27T06:56:37Z</time>
      </trkpt>
      <trkpt lat="45.86699" lon="6.45639">
        <ele>1656.6</ele>
        <time>2024-04-27T06:56:38Z</time>
      </trkpt>
      <trkpt lat="45.86699" lon="6.45638">
        <ele>1656.6</ele>
        <time>2024-04-27T06:56:39Z</time>
      </trkpt>
      <trkpt lat="45.86699" lon="6.45638">
        <ele>1656.6</ele>
        <time>2024-04-27T06:56:40Z</time>
      </trkpt>
      <trkpt lat="45.86699" lon="6.45637">
        <ele>1656.6</ele>
        <time>2024-04-27T06:56:41Z</time>
      </trkpt>
      <trkpt lat="45.86699" lon="6.45636">
        <ele>1656.6</ele>
        <time>2024-04-27T06:56:42Z</time>
      </trkpt>
      <trkpt lat="45.86699" lon="6.45635">
        <ele>1657.7</ele>
        <time>2024-04-27T06:56:43Z</time>
      </trkpt>
      <trkpt lat="45.86699" lon="6.45634">
        <ele>1657.7</ele>
        <time>2024-04-27T06:56:44Z</time>
      </trkpt>
      <trkpt lat="45.86699" lon="6.45633">
        <ele>1657.7</ele>
        <time>2024-04-27T06:56:45Z</time>
      </trkpt>
      <trkpt lat="45.86699" lon="6.45632">
        <ele>1657.7</ele>
        <time>2024-04-27T06:56:46Z</time>
      </trkpt>
      <trkpt lat="45.86699" lon="6.45631">
        <ele>1658.6</ele>
        <time>2024-04-27T06:56:47Z</time>
      </trkpt>
      <trkpt lat="45.86699" lon="6.4563">
        <ele>1658.6</ele>
        <time>2024-04-27T06:56:48Z</time>
      </trkpt>
      <trkpt lat="45.86699" lon="6.45629">
        <ele>1658.6</ele>
        <time>2024-04-27T06:56:49Z</time>
      </trkpt>
      <trkpt lat="45.86699" lon="6.45629">
        <ele>1658.6</ele>
        <time>2024-04-27T06:56:50Z</time>
      </trkpt>
      <trkpt lat="45.86699" lon="6.45628">
        <ele>1659.7</ele>
        <time>2024-04-27T06:56:51Z</time>
      </trkpt>
      <trkpt lat="45.86699" lon="6.45628">
        <ele>1659.7</ele>
        <time>2024-04-27T06:56:52Z</time>
      </trkpt>
      <trkpt lat="45.86699" lon="6.45627">
        <ele>1659.7</ele>
        <time>2024-04-27T06:56:53Z</time>
      </trkpt>
      <trkpt lat="45.86699" lon="6.45627">
        <ele>1659.7</ele>
        <time>2024-04-27T06:56:54Z</time>
      </trkpt>
      <trkpt lat="45.86699" lon="6.45626">
        <ele>1659.7</ele>
        <time>2024-04-27T06:56:55Z</time>
      </trkpt>
      <trkpt lat="45.86698" lon="6.45625">
        <ele>1659.7</ele>
        <time>2024-04-27T06:56:56Z</time>
      </trkpt>
      <trkpt lat="45.86698" lon="6.45624">
        <ele>1659.7</ele>
        <time>2024-04-27T06:56:57Z</time>
      </trkpt>
      <trkpt lat="45.86698" lon="6.45624">
        <ele>1659.7</ele>
        <time>2024-04-27T06:56:58Z</time>
      </trkpt>
      <trkpt lat="45.86698" lon="6.45623">
        <ele>1660.6</ele>
        <time>2024-04-27T06:56:59Z</time>
      </trkpt>
      <trkpt lat="45.86697" lon="6.45623">
        <ele>1660.6</ele>
        <time>2024-04-27T06:57:00Z</time>
      </trkpt>
      <trkpt lat="45.86697" lon="6.45622">
        <ele>1660.6</ele>
        <time>2024-04-27T06:57:01Z</time>
      </trkpt>
      <trkpt lat="45.86697" lon="6.45622">
        <ele>1660.6</ele>
        <time>2024-04-27T06:57:02Z</time>
      </trkpt>
      <trkpt lat="45.86696" lon="6.45621">
        <ele>1660.6</ele>
        <time>2024-04-27T06:57:03Z</time>
      </trkpt>
      <trkpt lat="45.86696" lon="6.45621">
        <ele>1660.6</ele>
        <time>2024-04-27T06:57:04Z</time>
      </trkpt>
      <trkpt lat="45.86695" lon="6.45621">
        <ele>1660.6</ele>
        <time>2024-04-27T06:57:05Z</time>
      </trkpt>
      <trkpt lat="45.86695" lon="6.4562">
        <ele>1660.6</ele>
        <time>2024-04-27T06:57:06Z</time>
      </trkpt>
      <trkpt lat="45.86695" lon="6.4562">
        <ele>1661.6</ele>
        <time>2024-04-27T06:57:07Z</time>
      </trkpt>
      <trkpt lat="45.86694" lon="6.4562">
        <ele>1661.6</ele>
        <time>2024-04-27T06:57:08Z</time>
      </trkpt>
      <trkpt lat="45.86694" lon="6.45619">
        <ele>1661.6</ele>
        <time>2024-04-27T06:57:09Z</time>
      </trkpt>
      <trkpt lat="45.86694" lon="6.45618">
        <ele>1661.6</ele>
        <time>2024-04-27T06:57:10Z</time>
      </trkpt>
      <trkpt lat="45.86694" lon="6.45618">
        <ele>1662.7</ele>
        <time>2024-04-27T06:57:11Z</time>
      </trkpt>
      <trkpt lat="45.86693" lon="6.45618">
        <ele>1662.7</ele>
        <time>2024-04-27T06:57:12Z</time>
      </trkpt>
      <trkpt lat="45.86693" lon="6.45618">
        <ele>1663.6</ele>
        <time>2024-04-27T06:57:13Z</time>
      </trkpt>
      <trkpt lat="45.86692" lon="6.45618">
        <ele>1663.6</ele>
        <time>2024-04-27T06:57:14Z</time>
      </trkpt>
      <trkpt lat="45.86692" lon="6.45618">
        <ele>1663.6</ele>
        <time>2024-04-27T06:57:15Z</time>
      </trkpt>
      <trkpt lat="45.86691" lon="6.45618">
        <ele>1663.6</ele>
        <time>2024-04-27T06:57:16Z</time>
      </trkpt>
      <trkpt lat="45.8669" lon="6.45619">
        <ele>1663.6</ele>
        <time>2024-04-27T06:57:17Z</time>
      </trkpt>
      <trkpt lat="45.86689" lon="6.4562">
        <ele>1663.6</ele>
        <time>2024-04-27T06:57:18Z</time>
      </trkpt>
      <trkpt lat="45.86688" lon="6.45621">
        <ele>1663.6</ele>
        <time>2024-04-27T06:57:19Z</time>
      </trkpt>
      <trkpt lat="45.86688" lon="6.45621">
        <ele>1663.6</ele>
        <time>2024-04-27T06:57:20Z</time>
      </trkpt>
      <trkpt lat="45.86688" lon="6.45621">
        <ele>1664.7</ele>
        <time>2024-04-27T06:57:21Z</time>
      </trkpt>
      <trkpt lat="45.86687" lon="6.45621">
        <ele>1664.7</ele>
        <time>2024-04-27T06:57:22Z</time>
      </trkpt>
      <trkpt lat="45.86687" lon="6.45622">
        <ele>1665.6</ele>
        <time>2024-04-27T06:57:23Z</time>
      </trkpt>
      <trkpt lat="45.86686" lon="6.45623">
        <ele>1665.6</ele>
        <time>2024-04-27T06:57:24Z</time>
      </trkpt>
      <trkpt lat="45.86685" lon="6.45623">
        <ele>1665.6</ele>
        <time>2024-04-27T06:57:25Z</time>
      </trkpt>
      <trkpt lat="45.86685" lon="6.45623">
        <ele>1665.6</ele>
        <time>2024-04-27T06:57:26Z</time>
      </trkpt>
      <trkpt lat="45.86685" lon="6.45623">
        <ele>1666.7</ele>
        <time>2024-04-27T06:57:27Z</time>
      </trkpt>
      <trkpt lat="45.86684" lon="6.45623">
        <ele>1666.7</ele>
        <time>2024-04-27T06:57:28Z</time>
      </trkpt>
      <trkpt lat="45.86684" lon="6.45624">
        <ele>1666.7</ele>
        <time>2024-04-27T06:57:29Z</time>
      </trkpt>
      <trkpt lat="45.86684" lon="6.45624">
        <ele>1666.7</ele>
        <time>2024-04-27T06:57:30Z</time>
      </trkpt>
      <trkpt lat="45.86683" lon="6.45624">
        <ele>1667.6</ele>
        <time>2024-04-27T06:57:31Z</time>
      </trkpt>
      <trkpt lat="45.86682" lon="6.45624">
        <ele>1667.6</ele>
        <time>2024-04-27T06:57:32Z</time>
      </trkpt>
      <trkpt lat="45.86682" lon="6.45624">
        <ele>1668.6</ele>
        <time>2024-04-27T06:57:33Z</time>
      </trkpt>
      <trkpt lat="45.86682" lon="6.45624">
        <ele>1668.6</ele>
        <time>2024-04-27T06:57:34Z</time>
      </trkpt>
      <trkpt lat="45.86681" lon="6.45624">
        <ele>1668.6</ele>
        <time>2024-04-27T06:57:35Z</time>
      </trkpt>
      <trkpt lat="45.86681" lon="6.45624">
        <ele>1668.6</ele>
        <time>2024-04-27T06:57:36Z</time>
      </trkpt>
      <trkpt lat="45.8668" lon="6.45623">
        <ele>1668.6</ele>
        <time>2024-04-27T06:57:37Z</time>
      </trkpt>
      <trkpt lat="45.8668" lon="6.45623">
        <ele>1668.6</ele>
        <time>2024-04-27T06:57:38Z</time>
      </trkpt>
      <trkpt lat="45.8668" lon="6.45623">
        <ele>1668.6</ele>
        <time>2024-04-27T06:57:39Z</time>
      </trkpt>
      <trkpt lat="45.8668" lon="6.45623">
        <ele>1668.6</ele>
        <time>2024-04-27T06:57:40Z</time>
      </trkpt>
      <trkpt lat="45.8668" lon="6.45622">
        <ele>1669.7</ele>
        <time>2024-04-27T06:57:41Z</time>
      </trkpt>
      <trkpt lat="45.86679" lon="6.45621">
        <ele>1669.7</ele>
        <time>2024-04-27T06:57:42Z</time>
      </trkpt>
      <trkpt lat="45.86679" lon="6.45621">
        <ele>1669.7</ele>
        <time>2024-04-27T06:57:43Z</time>
      </trkpt>
      <trkpt lat="45.86679" lon="6.4562">
        <ele>1669.7</ele>
        <time>2024-04-27T06:57:44Z</time>
      </trkpt>
      <trkpt lat="45.86679" lon="6.4562">
        <ele>1669.7</ele>
        <time>2024-04-27T06:57:45Z</time>
      </trkpt>
      <trkpt lat="45.86678" lon="6.4562">
        <ele>1669.7</ele>
        <time>2024-04-27T06:57:46Z</time>
      </trkpt>
      <trkpt lat="45.86678" lon="6.45619">
        <ele>1670.6</ele>
        <time>2024-04-27T06:57:47Z</time>
      </trkpt>
      <trkpt lat="45.86678" lon="6.45619">
        <ele>1670.6</ele>
        <time>2024-04-27T06:57:48Z</time>
      </trkpt>
      <trkpt lat="45.86677" lon="6.45618">
        <ele>1670.6</ele>
        <time>2024-04-27T06:57:49Z</time>
      </trkpt>
      <trkpt lat="45.86677" lon="6.45618">
        <ele>1670.6</ele>
        <time>2024-04-27T06:57:50Z</time>
      </trkpt>
      <trkpt lat="45.86677" lon="6.45618">
        <ele>1670.6</ele>
        <time>2024-04-27T06:57:51Z</time>
      </trkpt>
      <trkpt lat="45.86676" lon="6.45617">
        <ele>1670.6</ele>
        <time>2024-04-27T06:57:52Z</time>
      </trkpt>
      <trkpt lat="45.86676" lon="6.45617">
        <ele>1670.6</ele>
        <time>2024-04-27T06:57:53Z</time>
      </trkpt>
      <trkpt lat="45.86676" lon="6.45616">
        <ele>1670.6</ele>
        <time>2024-04-27T06:57:54Z</time>
      </trkpt>
      <trkpt lat="45.86676" lon="6.45616">
        <ele>1671.7</ele>
        <time>2024-04-27T06:57:55Z</time>
      </trkpt>
      <trkpt lat="45.86675" lon="6.45616">
        <ele>1671.7</ele>
        <time>2024-04-27T06:57:56Z</time>
      </trkpt>
      <trkpt lat="45.86675" lon="6.45616">
        <ele>1671.7</ele>
        <time>2024-04-27T06:57:57Z</time>
      </trkpt>
      <trkpt lat="45.86675" lon="6.45617">
        <ele>1671.7</ele>
        <time>2024-04-27T06:57:58Z</time>
      </trkpt>
      <trkpt lat="45.86674" lon="6.45617">
        <ele>1672.6</ele>
        <time>2024-04-27T06:57:59Z</time>
      </trkpt>
      <trkpt lat="45.86674" lon="6.45617">
        <ele>1672.6</ele>
        <time>2024-04-27T06:58:00Z</time>
      </trkpt>
      <trkpt lat="45.86673" lon="6.45617">
        <ele>1672.6</ele>
        <time>2024-04-27T06:58:01Z</time>
      </trkpt>
      <trkpt lat="45.86673" lon="6.45617">
        <ele>1672.6</ele>
        <time>2024-04-27T06:58:02Z</time>
      </trkpt>
      <trkpt lat="45.86673" lon="6.45617">
        <ele>1673.7</ele>
        <time>2024-04-27T06:58:03Z</time>
      </trkpt>
      <trkpt lat="45.86672" lon="6.45617">
        <ele>1673.7</ele>
        <time>2024-04-27T06:58:04Z</time>
      </trkpt>
      <trkpt lat="45.86672" lon="6.45617">
        <ele>1673.7</ele>
        <time>2024-04-27T06:58:05Z</time>
      </trkpt>
      <trkpt lat="45.86671" lon="6.45617">
        <ele>1673.7</ele>
        <time>2024-04-27T06:58:06Z</time>
      </trkpt>
      <trkpt lat="45.86671" lon="6.45617">
        <ele>1673.7</ele>
        <time>2024-04-27T06:58:07Z</time>
      </trkpt>
      <trkpt lat="45.86671" lon="6.45617">
        <ele>1673.7</ele>
        <time>2024-04-27T06:58:08Z</time>
      </trkpt>
      <trkpt lat="45.8667" lon="6.45617">
        <ele>1673.7</ele>
        <time>2024-04-27T06:58:09Z</time>
      </trkpt>
      <trkpt lat="45.8667" lon="6.45617">
        <ele>1673.7</ele>
        <time>2024-04-27T06:58:10Z</time>
      </trkpt>
      <trkpt lat="45.86669" lon="6.45617">
        <ele>1674.6</ele>
        <time>2024-04-27T06:58:11Z</time>
      </trkpt>
      <trkpt lat="45.86669" lon="6.45617">
        <ele>1674.6</ele>
        <time>2024-04-27T06:58:12Z</time>
      </trkpt>
      <trkpt lat="45.86668" lon="6.45617">
        <ele>1674.6</ele>
        <time>2024-04-27T06:58:13Z</time>
      </trkpt>
      <trkpt lat="45.86668" lon="6.45617">
        <ele>1674.6</ele>
        <time>2024-04-27T06:58:14Z</time>
      </trkpt>
      <trkpt lat="45.86667" lon="6.45617">
        <ele>1675.7</ele>
        <time>2024-04-27T06:58:15Z</time>
      </trkpt>
      <trkpt lat="45.86667" lon="6.45617">
        <ele>1675.7</ele>
        <time>2024-04-27T06:58:16Z</time>
      </trkpt>
      <trkpt lat="45.86667" lon="6.45617">
        <ele>1675.7</ele>
        <time>2024-04-27T06:58:17Z</time>
      </trkpt>
      <trkpt lat="45.86666" lon="6.45618">
        <ele>1675.7</ele>
        <time>2024-04-27T06:58:18Z</time>
      </trkpt>
      <trkpt lat="45.86666" lon="6.45618">
        <ele>1675.7</ele>
        <time>2024-04-27T06:58:19Z</time>
      </trkpt>
      <trkpt lat="45.86665" lon="6.45618">
        <ele>1675.7</ele>
        <time>2024-04-27T06:58:20Z</time>
      </trkpt>
      <trkpt lat="45.86665" lon="6.45618">
        <ele>1675.7</ele>
        <time>2024-04-27T06:58:21Z</time>
      </trkpt>
      <trkpt lat="45.86664" lon="6.45618">
        <ele>1675.7</ele>
        <time>2024-04-27T06:58:22Z</time>
      </trkpt>
      <trkpt lat="45.86663" lon="6.45618">
        <ele>1675.7</ele>
        <time>2024-04-27T06:58:23Z</time>
      </trkpt>
      <trkpt lat="45.86663" lon="6.45618">
        <ele>1675.7</ele>
        <time>2024-04-27T06:58:24Z</time>
      </trkpt>
      <trkpt lat="45.86662" lon="6.45618">
        <ele>1676.6</ele>
        <time>2024-04-27T06:58:25Z</time>
      </trkpt>
      <trkpt lat="45.86662" lon="6.45618">
        <ele>1676.6</ele>
        <time>2024-04-27T06:58:26Z</time>
      </trkpt>
      <trkpt lat="45.86661" lon="6.45618">
        <ele>1676.6</ele>
        <time>2024-04-27T06:58:27Z</time>
      </trkpt>
      <trkpt lat="45.86661" lon="6.45619">
        <ele>1676.6</ele>
        <time>2024-04-27T06:58:28Z</time>
      </trkpt>
      <trkpt lat="45.86661" lon="6.45619">
        <ele>1677.6</ele>
        <time>2024-04-27T06:58:29Z</time>
      </trkpt>
      <trkpt lat="45.8666" lon="6.45619">
        <ele>1677.6</ele>
        <time>2024-04-27T06:58:30Z</time>
      </trkpt>
      <trkpt lat="45.86659" lon="6.45619">
        <ele>1678.7</ele>
        <time>2024-04-27T06:58:31Z</time>
      </trkpt>
      <trkpt lat="45.86659" lon="6.45619">
        <ele>1678.7</ele>
        <time>2024-04-27T06:58:32Z</time>
      </trkpt>
      <trkpt lat="45.86658" lon="6.45619">
        <ele>1678.7</ele>
        <time>2024-04-27T06:58:33Z</time>
      </trkpt>
      <trkpt lat="45.86658" lon="6.45619">
        <ele>1678.7</ele>
        <time>2024-04-27T06:58:34Z</time>
      </trkpt>
      <trkpt lat="45.86657" lon="6.4562">
        <ele>1679.6</ele>
        <time>2024-04-27T06:58:35Z</time>
      </trkpt>
      <trkpt lat="45.86657" lon="6.4562">
        <ele>1679.6</ele>
        <time>2024-04-27T06:58:36Z</time>
      </trkpt>
      <trkpt lat="45.86656" lon="6.4562">
        <ele>1679.6</ele>
        <time>2024-04-27T06:58:37Z</time>
      </trkpt>
      <trkpt lat="45.86656" lon="6.45619">
        <ele>1679.6</ele>
        <time>2024-04-27T06:58:38Z</time>
      </trkpt>
      <trkpt lat="45.86656" lon="6.45619">
        <ele>1679.6</ele>
        <time>2024-04-27T06:58:39Z</time>
      </trkpt>
      <trkpt lat="45.86655" lon="6.45619">
        <ele>1679.6</ele>
        <time>2024-04-27T06:58:40Z</time>
      </trkpt>
      <trkpt lat="45.86655" lon="6.45619">
        <ele>1679.6</ele>
        <time>2024-04-27T06:58:41Z</time>
      </trkpt>
      <trkpt lat="45.86655" lon="6.45619">
        <ele>1679.6</ele>
        <time>2024-04-27T06:58:42Z</time>
      </trkpt>
      <trkpt lat="45.86654" lon="6.45619">
        <ele>1679.6</ele>
        <time>2024-04-27T06:58:43Z</time>
      </trkpt>
      <trkpt lat="45.86653" lon="6.45619">
        <ele>1679.6</ele>
        <time>2024-04-27T06:58:44Z</time>
      </trkpt>
      <trkpt lat="45.86653" lon="6.45618">
        <ele>1679.6</ele>
        <time>2024-04-27T06:58:45Z</time>
      </trkpt>
      <trkpt lat="45.86652" lon="6.45618">
        <ele>1679.6</ele>
        <time>2024-04-27T06:58:46Z</time>
      </trkpt>
      <trkpt lat="45.86652" lon="6.45617">
        <ele>1681.6</ele>
        <time>2024-04-27T06:58:47Z</time>
      </trkpt>
      <trkpt lat="45.86652" lon="6.45617">
        <ele>1681.6</ele>
        <time>2024-04-27T06:58:48Z</time>
      </trkpt>
      <trkpt lat="45.86651" lon="6.45617">
        <ele>1681.6</ele>
        <time>2024-04-27T06:58:49Z</time>
      </trkpt>
      <trkpt lat="45.86651" lon="6.45617">
        <ele>1681.6</ele>
        <time>2024-04-27T06:58:50Z</time>
      </trkpt>
      <trkpt lat="45.8665" lon="6.45618">
        <ele>1682.7</ele>
        <time>2024-04-27T06:58:51Z</time>
      </trkpt>
      <trkpt lat="45.8665" lon="6.45618">
        <ele>1682.7</ele>
        <time>2024-04-27T06:58:52Z</time>
      </trkpt>
      <trkpt lat="45.86649" lon="6.45618">
        <ele>1682.7</ele>
        <time>2024-04-27T06:58:53Z</time>
      </trkpt>
      <trkpt lat="45.86649" lon="6.45618">
        <ele>1682.7</ele>
        <time>2024-04-27T06:58:54Z</time>
      </trkpt>
      <trkpt lat="45.86649" lon="6.45617">
        <ele>1682.7</ele>
        <time>2024-04-27T06:58:55Z</time>
      </trkpt>
      <trkpt lat="45.86648" lon="6.45617">
        <ele>1682.7</ele>
        <time>2024-04-27T06:58:56Z</time>
      </trkpt>
      <trkpt lat="45.86648" lon="6.45616">
        <ele>1682.7</ele>
        <time>2024-04-27T06:58:57Z</time>
      </trkpt>
      <trkpt lat="45.86648" lon="6.45615">
        <ele>1682.7</ele>
        <time>2024-04-27T06:58:58Z</time>
      </trkpt>
      <trkpt lat="45.86649" lon="6.45614">
        <ele>1682.7</ele>
        <time>2024-04-27T06:58:59Z</time>
      </trkpt>
      <trkpt lat="45.86648" lon="6.45613">
        <ele>1682.7</ele>
        <time>2024-04-27T06:59:00Z</time>
      </trkpt>
      <trkpt lat="45.86648" lon="6.45613">
        <ele>1685.7</ele>
        <time>2024-04-27T06:59:01Z</time>
      </trkpt>
      <trkpt lat="45.86649" lon="6.45612">
        <ele>1685.7</ele>
        <time>2024-04-27T06:59:02Z</time>
      </trkpt>
      <trkpt lat="45.86648" lon="6.45611">
        <ele>1686.6</ele>
        <time>2024-04-27T06:59:03Z</time>
      </trkpt>
      <trkpt lat="45.86648" lon="6.45611">
        <ele>1686.6</ele>
        <time>2024-04-27T06:59:04Z</time>
      </trkpt>
      <trkpt lat="45.86648" lon="6.45611">
        <ele>1686.6</ele>
        <time>2024-04-27T06:59:05Z</time>
      </trkpt>
      <trkpt lat="45.86648" lon="6.4561">
        <ele>1686.6</ele>
        <time>2024-04-27T06:59:06Z</time>
      </trkpt>
      <trkpt lat="45.86647" lon="6.45609">
        <ele>1687.7</ele>
        <time>2024-04-27T06:59:07Z</time>
      </trkpt>
      <trkpt lat="45.86647" lon="6.45609">
        <ele>1687.7</ele>
        <time>2024-04-27T06:59:08Z</time>
      </trkpt>
      <trkpt lat="45.86647" lon="6.45608">
        <ele>1687.7</ele>
        <time>2024-04-27T06:59:09Z</time>
      </trkpt>
      <trkpt lat="45.86647" lon="6.45607">
        <ele>1687.7</ele>
        <time>2024-04-27T06:59:10Z</time>
      </trkpt>
      <trkpt lat="45.86646" lon="6.45606">
        <ele>1687.7</ele>
        <time>2024-04-27T06:59:11Z</time>
      </trkpt>
      <trkpt lat="45.86646" lon="6.45606">
        <ele>1687.7</ele>
        <time>2024-04-27T06:59:12Z</time>
      </trkpt>
      <trkpt lat="45.86646" lon="6.45605">
        <ele>1687.7</ele>
        <time>2024-04-27T06:59:13Z</time>
      </trkpt>
      <trkpt lat="45.86646" lon="6.45604">
        <ele>1687.7</ele>
        <time>2024-04-27T06:59:14Z</time>
      </trkpt>
      <trkpt lat="45.86647" lon="6.45604">
        <ele>1688.6</ele>
        <time>2024-04-27T06:59:15Z</time>
      </trkpt>
      <trkpt lat="45.86647" lon="6.45603">
        <ele>1688.6</ele>
        <time>2024-04-27T06:59:16Z</time>
      </trkpt>
      <trkpt lat="45.86647" lon="6.45602">
        <ele>1688.6</ele>
        <time>2024-04-27T06:59:17Z</time>
      </trkpt>
      <trkpt lat="45.86647" lon="6.45602">
        <ele>1688.6</ele>
        <time>2024-04-27T06:59:18Z</time>
      </trkpt>
      <trkpt lat="45.86646" lon="6.45601">
        <ele>1689.7</ele>
        <time>2024-04-27T06:59:19Z</time>
      </trkpt>
      <trkpt lat="45.86646" lon="6.45601">
        <ele>1689.7</ele>
        <time>2024-04-27T06:59:20Z</time>
      </trkpt>
      <trkpt lat="45.86646" lon="6.456">
        <ele>1689.7</ele>
        <time>2024-04-27T06:59:21Z</time>
      </trkpt>
      <trkpt lat="45.86646" lon="6.45599">
        <ele>1689.7</ele>
        <time>2024-04-27T06:59:22Z</time>
      </trkpt>
      <trkpt lat="45.86646" lon="6.45598">
        <ele>1689.7</ele>
        <time>2024-04-27T06:59:23Z</time>
      </trkpt>
      <trkpt lat="45.86646" lon="6.45598">
        <ele>1689.7</ele>
        <time>2024-04-27T06:59:24Z</time>
      </trkpt>
      <trkpt lat="45.86646" lon="6.45597">
        <ele>1690.6</ele>
        <time>2024-04-27T06:59:25Z</time>
      </trkpt>
      <trkpt lat="45.86646" lon="6.45596">
        <ele>1690.6</ele>
        <time>2024-04-27T06:59:26Z</time>
      </trkpt>
      <trkpt lat="45.86647" lon="6.45595">
        <ele>1691.7</ele>
        <time>2024-04-27T06:59:27Z</time>
      </trkpt>
      <trkpt lat="45.86647" lon="6.45595">
        <ele>1691.7</ele>
        <time>2024-04-27T06:59:28Z</time>
      </trkpt>
      <trkpt lat="45.86647" lon="6.45594">
        <ele>1691.7</ele>
        <time>2024-04-27T06:59:29Z</time>
      </trkpt>
      <trkpt lat="45.86647" lon="6.45594">
        <ele>1691.7</ele>
        <time>2024-04-27T06:59:30Z</time>
      </trkpt>
      <trkpt lat="45.86648" lon="6.45593">
        <ele>1692.6</ele>
        <time>2024-04-27T06:59:31Z</time>
      </trkpt>
      <trkpt lat="45.86648" lon="6.45592">
        <ele>1692.6</ele>
        <time>2024-04-27T06:59:32Z</time>
      </trkpt>
      <trkpt lat="45.86649" lon="6.45591">
        <ele>1692.6</ele>
        <time>2024-04-27T06:59:33Z</time>
      </trkpt>
      <trkpt lat="45.86649" lon="6.4559">
        <ele>1692.6</ele>
        <time>2024-04-27T06:59:34Z</time>
      </trkpt>
      <trkpt lat="45.86649" lon="6.4559">
        <ele>1693.6</ele>
        <time>2024-04-27T06:59:35Z</time>
      </trkpt>
      <trkpt lat="45.86649" lon="6.4559">
        <ele>1693.6</ele>
        <time>2024-04-27T06:59:36Z</time>
      </trkpt>
      <trkpt lat="45.8665" lon="6.45589">
        <ele>1693.6</ele>
        <time>2024-04-27T06:59:37Z</time>
      </trkpt>
      <trkpt lat="45.8665" lon="6.45589">
        <ele>1693.6</ele>
        <time>2024-04-27T06:59:38Z</time>
      </trkpt>
      <trkpt lat="45.8665" lon="6.45587">
        <ele>1693.6</ele>
        <time>2024-04-27T06:59:39Z</time>
      </trkpt>
      <trkpt lat="45.8665" lon="6.45587">
        <ele>1693.6</ele>
        <time>2024-04-27T06:59:40Z</time>
      </trkpt>
      <trkpt lat="45.86651" lon="6.45586">
        <ele>1694.7</ele>
        <time>2024-04-27T06:59:41Z</time>
      </trkpt>
      <trkpt lat="45.86651" lon="6.45586">
        <ele>1694.7</ele>
        <time>2024-04-27T06:59:42Z</time>
      </trkpt>
      <trkpt lat="45.86651" lon="6.45585">
        <ele>1694.7</ele>
        <time>2024-04-27T06:59:43Z</time>
      </trkpt>
      <trkpt lat="45.86651" lon="6.45585">
        <ele>1694.7</ele>
        <time>2024-04-27T06:59:44Z</time>
      </trkpt>
      <trkpt lat="45.86651" lon="6.45584">
        <ele>1695.6</ele>
        <time>2024-04-27T06:59:45Z</time>
      </trkpt>
      <trkpt lat="45.86651" lon="6.45584">
        <ele>1695.6</ele>
        <time>2024-04-27T06:59:46Z</time>
      </trkpt>
      <trkpt lat="45.86651" lon="6.45583">
        <ele>1695.6</ele>
        <time>2024-04-27T06:59:47Z</time>
      </trkpt>
      <trkpt lat="45.86651" lon="6.45583">
        <ele>1695.6</ele>
        <time>2024-04-27T06:59:48Z</time>
      </trkpt>
      <trkpt lat="45.86651" lon="6.45582">
        <ele>1695.6</ele>
        <time>2024-04-27T06:59:49Z</time>
      </trkpt>
      <trkpt lat="45.86651" lon="6.45581">
        <ele>1695.6</ele>
        <time>2024-04-27T06:59:50Z</time>
      </trkpt>
      <trkpt lat="45.86651" lon="6.4558">
        <ele>1696.7</ele>
        <time>2024-04-27T06:59:51Z</time>
      </trkpt>
      <trkpt lat="45.86651" lon="6.4558">
        <ele>1696.7</ele>
        <time>2024-04-27T06:59:52Z</time>
      </trkpt>
      <trkpt lat="45.86651" lon="6.45579">
        <ele>1696.7</ele>
        <time>2024-04-27T06:59:53Z</time>
      </trkpt>
      <trkpt lat="45.86651" lon="6.45579">
        <ele>1696.7</ele>
        <time>2024-04-27T06:59:54Z</time>
      </trkpt>
      <trkpt lat="45.86651" lon="6.45578">
        <ele>1696.7</ele>
        <time>2024-04-27T06:59:55Z</time>
      </trkpt>
      <trkpt lat="45.86651" lon="6.45578">
        <ele>1696.7</ele>
        <time>2024-04-27T06:59:56Z</time>
      </trkpt>
      <trkpt lat="45.86651" lon="6.45578">
        <ele>1697.6</ele>
        <time>2024-04-27T06:59:57Z</time>
      </trkpt>
      <trkpt lat="45.8665" lon="6.45577">
        <ele>1697.6</ele>
        <time>2024-04-27T06:59:58Z</time>
      </trkpt>
      <trkpt lat="45.8665" lon="6.45577">
        <ele>1697.6</ele>
        <time>2024-04-27T06:59:59Z</time>
      </trkpt>
      <trkpt lat="45.8665" lon="6.45576">
        <ele>1697.6</ele>
        <time>2024-04-27T07:00:00Z</time>
      </trkpt>
      <trkpt lat="45.8665" lon="6.45576">
        <ele>1697.6</ele>
        <time>2024-04-27T07:00:01Z</time>
      </trkpt>
      <trkpt lat="45.86649" lon="6.45575">
        <ele>1697.6</ele>
        <time>2024-04-27T07:00:02Z</time>
      </trkpt>
      <trkpt lat="45.86649" lon="6.45575">
        <ele>1698.7</ele>
        <time>2024-04-27T07:00:03Z</time>
      </trkpt>
      <trkpt lat="45.86649" lon="6.45574">
        <ele>1698.7</ele>
        <time>2024-04-27T07:00:04Z</time>
      </trkpt>
      <trkpt lat="45.86648" lon="6.45573">
        <ele>1698.7</ele>
        <time>2024-04-27T07:00:05Z</time>
      </trkpt>
      <trkpt lat="45.86648" lon="6.45573">
        <ele>1698.7</ele>
        <time>2024-04-27T07:00:06Z</time>
      </trkpt>
      <trkpt lat="45.86648" lon="6.45573">
        <ele>1699.6</ele>
        <time>2024-04-27T07:00:07Z</time>
      </trkpt>
      <trkpt lat="45.86647" lon="6.45572">
        <ele>1699.6</ele>
        <time>2024-04-27T07:00:08Z</time>
      </trkpt>
      <trkpt lat="45.86647" lon="6.45572">
        <ele>1699.6</ele>
        <time>2024-04-27T07:00:09Z</time>
      </trkpt>
      <trkpt lat="45.86647" lon="6.45572">
        <ele>1699.6</ele>
        <time>2024-04-27T07:00:10Z</time>
      </trkpt>
      <trkpt lat="45.86647" lon="6.45572">
        <ele>1700.7</ele>
        <time>2024-04-27T07:00:11Z</time>
      </trkpt>
      <trkpt lat="45.86647" lon="6.45572">
        <ele>1700.7</ele>
        <time>2024-04-27T07:00:12Z</time>
      </trkpt>
      <trkpt lat="45.86646" lon="6.45571">
        <ele>1700.7</ele>
        <time>2024-04-27T07:00:13Z</time>
      </trkpt>
      <trkpt lat="45.86646" lon="6.45571">
        <ele>1700.7</ele>
        <time>2024-04-27T07:00:14Z</time>
      </trkpt>
      <trkpt lat="45.86645" lon="6.4557">
        <ele>1700.7</ele>
        <time>2024-04-27T07:00:15Z</time>
      </trkpt>
      <trkpt lat="45.86645" lon="6.4557">
        <ele>1700.7</ele>
        <time>2024-04-27T07:00:16Z</time>
      </trkpt>
      <trkpt lat="45.86645" lon="6.4557">
        <ele>1701.7</ele>
        <time>2024-04-27T07:00:17Z</time>
      </trkpt>
      <trkpt lat="45.86645" lon="6.45569">
        <ele>1701.7</ele>
        <time>2024-04-27T07:00:18Z</time>
      </trkpt>
      <trkpt lat="45.86645" lon="6.45569">
        <ele>1702.6</ele>
        <time>2024-04-27T07:00:19Z</time>
      </trkpt>
      <trkpt lat="45.86644" lon="6.45568">
        <ele>1702.6</ele>
        <time>2024-04-27T07:00:20Z</time>
      </trkpt>
      <trkpt lat="45.86644" lon="6.45567">
        <ele>1703.7</ele>
        <time>2024-04-27T07:00:21Z</time>
      </trkpt>
      <trkpt lat="45.86643" lon="6.45567">
        <ele>1703.7</ele>
        <time>2024-04-27T07:00:22Z</time>
      </trkpt>
      <trkpt lat="45.86643" lon="6.45566">
        <ele>1703.7</ele>
        <time>2024-04-27T07:00:23Z</time>
      </trkpt>
      <trkpt lat="45.86643" lon="6.45565">
        <ele>1703.7</ele>
        <time>2024-04-27T07:00:24Z</time>
      </trkpt>
      <trkpt lat="45.86642" lon="6.45564">
        <ele>1703.7</ele>
        <time>2024-04-27T07:00:25Z</time>
      </trkpt>
      <trkpt lat="45.86642" lon="6.45564">
        <ele>1703.7</ele>
        <time>2024-04-27T07:00:26Z</time>
      </trkpt>
      <trkpt lat="45.86641" lon="6.45564">
        <ele>1703.7</ele>
        <time>2024-04-27T07:00:27Z</time>
      </trkpt>
      <trkpt lat="45.86641" lon="6.45564">
        <ele>1703.7</ele>
        <time>2024-04-27T07:00:28Z</time>
      </trkpt>
      <trkpt lat="45.8664" lon="6.45564">
        <ele>1703.7</ele>
        <time>2024-04-27T07:00:29Z</time>
      </trkpt>
      <trkpt lat="45.8664" lon="6.45563">
        <ele>1703.7</ele>
        <time>2024-04-27T07:00:30Z</time>
      </trkpt>
      <trkpt lat="45.86639" lon="6.45563">
        <ele>1703.7</ele>
        <time>2024-04-27T07:00:31Z</time>
      </trkpt>
      <trkpt lat="45.86639" lon="6.45563">
        <ele>1703.7</ele>
        <time>2024-04-27T07:00:32Z</time>
      </trkpt>
      <trkpt lat="45.86638" lon="6.45563">
        <ele>1704.6</ele>
        <time>2024-04-27T07:00:33Z</time>
      </trkpt>
      <trkpt lat="45.86638" lon="6.45562">
        <ele>1704.6</ele>
        <time>2024-04-27T07:00:34Z</time>
      </trkpt>
      <trkpt lat="45.86637" lon="6.45562">
        <ele>1704.6</ele>
        <time>2024-04-27T07:00:35Z</time>
      </trkpt>
      <trkpt lat="45.86637" lon="6.45562">
        <ele>1704.6</ele>
        <time>2024-04-27T07:00:36Z</time>
      </trkpt>
      <trkpt lat="45.86636" lon="6.45562">
        <ele>1705.7</ele>
        <time>2024-04-27T07:00:37Z</time>
      </trkpt>
      <trkpt lat="45.86635" lon="6.45562">
        <ele>1705.7</ele>
        <time>2024-04-27T07:00:38Z</time>
      </trkpt>
      <trkpt lat="45.86635" lon="6.45562">
        <ele>1705.7</ele>
        <time>2024-04-27T07:00:39Z</time>
      </trkpt>
      <trkpt lat="45.86634" lon="6.45562">
        <ele>1705.7</ele>
        <time>2024-04-27T07:00:40Z</time>
      </trkpt>
      <trkpt lat="45.86633" lon="6.45563">
        <ele>1706.6</ele>
        <time>2024-04-27T07:00:41Z</time>
      </trkpt>
      <trkpt lat="45.86633" lon="6.45563">
        <ele>1706.6</ele>
        <time>2024-04-27T07:00:42Z</time>
      </trkpt>
      <trkpt lat="45.86632" lon="6.45563">
        <ele>1706.6</ele>
        <time>2024-04-27T07:00:43Z</time>
      </trkpt>
      <trkpt lat="45.86632" lon="6.45564">
        <ele>1706.6</ele>
        <time>2024-04-27T07:00:44Z</time>
      </trkpt>
      <trkpt lat="45.86631" lon="6.45564">
        <ele>1706.6</ele>
        <time>2024-04-27T07:00:45Z</time>
      </trkpt>
      <trkpt lat="45.8663" lon="6.45565">
        <ele>1706.6</ele>
        <time>2024-04-27T07:00:46Z</time>
      </trkpt>
      <trkpt lat="45.8663" lon="6.45565">
        <ele>1706.6</ele>
        <time>2024-04-27T07:00:47Z</time>
      </trkpt>
      <trkpt lat="45.86629" lon="6.45565">
        <ele>1706.6</ele>
        <time>2024-04-27T07:00:48Z</time>
      </trkpt>
      <trkpt lat="45.86629" lon="6.45565">
        <ele>1706.6</ele>
        <time>2024-04-27T07:00:49Z</time>
      </trkpt>
      <trkpt lat="45.86629" lon="6.45565">
        <ele>1706.6</ele>
        <time>2024-04-27T07:00:50Z</time>
      </trkpt>
      <trkpt lat="45.86628" lon="6.45565">
        <ele>1707.7</ele>
        <time>2024-04-27T07:00:51Z</time>
      </trkpt>
      <trkpt lat="45.86628" lon="6.45566">
        <ele>1707.7</ele>
        <time>2024-04-27T07:00:52Z</time>
      </trkpt>
      <trkpt lat="45.86627" lon="6.45566">
        <ele>1707.7</ele>
        <time>2024-04-27T07:00:53Z</time>
      </trkpt>
      <trkpt lat="45.86626" lon="6.45566">
        <ele>1707.7</ele>
        <time>2024-04-27T07:00:54Z</time>
      </trkpt>
      <trkpt lat="45.86626" lon="6.45566">
        <ele>1707.7</ele>
        <time>2024-04-27T07:00:55Z</time>
      </trkpt>
      <trkpt lat="45.86625" lon="6.45566">
        <ele>1707.7</ele>
        <time>2024-04-27T07:00:56Z</time>
      </trkpt>
      <trkpt lat="45.86625" lon="6.45566">
        <ele>1707.7</ele>
        <time>2024-04-27T07:00:57Z</time>
      </trkpt>
      <trkpt lat="45.86625" lon="6.45567">
        <ele>1707.7</ele>
        <time>2024-04-27T07:00:58Z</time>
      </trkpt>
      <trkpt lat="45.86624" lon="6.45567">
        <ele>1710.7</ele>
        <time>2024-04-27T07:00:59Z</time>
      </trkpt>
      <trkpt lat="45.86624" lon="6.45567">
        <ele>1710.7</ele>
        <time>2024-04-27T07:01:00Z</time>
      </trkpt>
      <trkpt lat="45.86623" lon="6.45567">
        <ele>1710.7</ele>
        <time>2024-04-27T07:01:01Z</time>
      </trkpt>
      <trkpt lat="45.86623" lon="6.45567">
        <ele>1710.7</ele>
        <time>2024-04-27T07:01:02Z</time>
      </trkpt>
      <trkpt lat="45.86622" lon="6.45567">
        <ele>1711.6</ele>
        <time>2024-04-27T07:01:03Z</time>
      </trkpt>
      <trkpt lat="45.86622" lon="6.45567">
        <ele>1711.6</ele>
        <time>2024-04-27T07:01:04Z</time>
      </trkpt>
      <trkpt lat="45.86621" lon="6.45567">
        <ele>1711.6</ele>
        <time>2024-04-27T07:01:05Z</time>
      </trkpt>
      <trkpt lat="45.86621" lon="6.45567">
        <ele>1711.6</ele>
        <time>2024-04-27T07:01:06Z</time>
      </trkpt>
      <trkpt lat="45.8662" lon="6.45567">
        <ele>1711.6</ele>
        <time>2024-04-27T07:01:07Z</time>
      </trkpt>
      <trkpt lat="45.8662" lon="6.45567">
        <ele>1711.6</ele>
        <time>2024-04-27T07:01:08Z</time>
      </trkpt>
      <trkpt lat="45.86619" lon="6.45567">
        <ele>1711.6</ele>
        <time>2024-04-27T07:01:09Z</time>
      </trkpt>
      <trkpt lat="45.86619" lon="6.45567">
        <ele>1711.6</ele>
        <time>2024-04-27T07:01:10Z</time>
      </trkpt>
      <trkpt lat="45.86618" lon="6.45567">
        <ele>1712.7</ele>
        <time>2024-04-27T07:01:11Z</time>
      </trkpt>
      <trkpt lat="45.86618" lon="6.45567">
        <ele>1712.7</ele>
        <time>2024-04-27T07:01:12Z</time>
      </trkpt>
      <trkpt lat="45.86618" lon="6.45567">
        <ele>1712.7</ele>
        <time>2024-04-27T07:01:13Z</time>
      </trkpt>
      <trkpt lat="45.86617" lon="6.45567">
        <ele>1712.7</ele>
        <time>2024-04-27T07:01:14Z</time>
      </trkpt>
      <trkpt lat="45.86617" lon="6.45567">
        <ele>1713.6</ele>
        <time>2024-04-27T07:01:15Z</time>
      </trkpt>
      <trkpt lat="45.86616" lon="6.45567">
        <ele>1713.6</ele>
        <time>2024-04-27T07:01:16Z</time>
      </trkpt>
      <trkpt lat="45.86616" lon="6.45568">
        <ele>1713.6</ele>
        <time>2024-04-27T07:01:17Z</time>
      </trkpt>
      <trkpt lat="45.86616" lon="6.45568">
        <ele>1713.6</ele>
        <time>2024-04-27T07:01:18Z</time>
      </trkpt>
      <trkpt lat="45.86615" lon="6.45568">
        <ele>1714.7</ele>
        <time>2024-04-27T07:01:19Z</time>
      </trkpt>
      <trkpt lat="45.86615" lon="6.45568">
        <ele>1714.7</ele>
        <time>2024-04-27T07:01:20Z</time>
      </trkpt>
      <trkpt lat="45.86614" lon="6.45568">
        <ele>1714.7</ele>
        <time>2024-04-27T07:01:21Z</time>
      </trkpt>
      <trkpt lat="45.86614" lon="6.45569">
        <ele>1714.7</ele>
        <time>2024-04-27T07:01:22Z</time>
      </trkpt>
      <trkpt lat="45.86614" lon="6.45569">
        <ele>1714.7</ele>
        <time>2024-04-27T07:01:23Z</time>
      </trkpt>
      <trkpt lat="45.86613" lon="6.45568">
        <ele>1714.7</ele>
        <time>2024-04-27T07:01:24Z</time>
      </trkpt>
      <trkpt lat="45.86613" lon="6.45568">
        <ele>1714.7</ele>
        <time>2024-04-27T07:01:25Z</time>
      </trkpt>
      <trkpt lat="45.86613" lon="6.45568">
        <ele>1714.7</ele>
        <time>2024-04-27T07:01:26Z</time>
      </trkpt>
      <trkpt lat="45.86612" lon="6.45568">
        <ele>1714.7</ele>
        <time>2024-04-27T07:01:27Z</time>
      </trkpt>
      <trkpt lat="45.86611" lon="6.45568">
        <ele>1714.7</ele>
        <time>2024-04-27T07:01:28Z</time>
      </trkpt>
      <trkpt lat="45.86611" lon="6.45568">
        <ele>1714.7</ele>
        <time>2024-04-27T07:01:29Z</time>
      </trkpt>
      <trkpt lat="45.86611" lon="6.45568">
        <ele>1714.7</ele>
        <time>2024-04-27T07:01:30Z</time>
      </trkpt>
      <trkpt lat="45.8661" lon="6.45568">
        <ele>1716.7</ele>
        <time>2024-04-27T07:01:31Z</time>
      </trkpt>
      <trkpt lat="45.8661" lon="6.45568">
        <ele>1716.7</ele>
        <time>2024-04-27T07:01:32Z</time>
      </trkpt>
      <trkpt lat="45.86609" lon="6.45568">
        <ele>1716.7</ele>
        <time>2024-04-27T07:01:33Z</time>
      </trkpt>
      <trkpt lat="45.86609" lon="6.45569">
        <ele>1716.7</ele>
        <time>2024-04-27T07:01:34Z</time>
      </trkpt>
      <trkpt lat="45.86609" lon="6.45569">
        <ele>1717.6</ele>
        <time>2024-04-27T07:01:35Z</time>
      </trkpt>
      <trkpt lat="45.86609" lon="6.45569">
        <ele>1717.6</ele>
        <time>2024-04-27T07:01:36Z</time>
      </trkpt>
      <trkpt lat="45.86609" lon="6.45568">
        <ele>1717.6</ele>
        <time>2024-04-27T07:01:37Z</time>
      </trkpt>
      <trkpt lat="45.86608" lon="6.45568">
        <ele>1717.6</ele>
        <time>2024-04-27T07:01:38Z</time>
      </trkpt>
      <trkpt lat="45.86608" lon="6.45569">
        <ele>1718.6</ele>
        <time>2024-04-27T07:01:39Z</time>
      </trkpt>
      <trkpt lat="45.86607" lon="6.45569">
        <ele>1718.6</ele>
        <time>2024-04-27T07:01:40Z</time>
      </trkpt>
      <trkpt lat="45.86607" lon="6.45569">
        <ele>1719.7</ele>
        <time>2024-04-27T07:01:41Z</time>
      </trkpt>
      <trkpt lat="45.86606" lon="6.4557">
        <ele>1719.7</ele>
        <time>2024-04-27T07:01:42Z</time>
      </trkpt>
      <trkpt lat="45.86606" lon="6.4557">
        <ele>1719.7</ele>
        <time>2024-04-27T07:01:43Z</time>
      </trkpt>
      <trkpt lat="45.86606" lon="6.4557">
        <ele>1719.7</ele>
        <time>2024-04-27T07:01:44Z</time>
      </trkpt>
      <trkpt lat="45.86606" lon="6.45571">
        <ele>1719.7</ele>
        <time>2024-04-27T07:01:45Z</time>
      </trkpt>
      <trkpt lat="45.86606" lon="6.45571">
        <ele>1719.7</ele>
        <time>2024-04-27T07:01:46Z</time>
      </trkpt>
      <trkpt lat="45.86606" lon="6.45572">
        <ele>1719.7</ele>
        <time>2024-04-27T07:01:47Z</time>
      </trkpt>
      <trkpt lat="45.86605" lon="6.45572">
        <ele>1719.7</ele>
        <time>2024-04-27T07:01:48Z</time>
      </trkpt>
      <trkpt lat="45.86605" lon="6.45572">
        <ele>1720.6</ele>
        <time>2024-04-27T07:01:49Z</time>
      </trkpt>
      <trkpt lat="45.86605" lon="6.45572">
        <ele>1720.6</ele>
        <time>2024-04-27T07:01:50Z</time>
      </trkpt>
      <trkpt lat="45.86605" lon="6.45573">
        <ele>1720.6</ele>
        <time>2024-04-27T07:01:51Z</time>
      </trkpt>
      <trkpt lat="45.86604" lon="6.45573">
        <ele>1720.6</ele>
        <time>2024-04-27T07:01:52Z</time>
      </trkpt>
      <trkpt lat="45.86604" lon="6.45573">
        <ele>1721.7</ele>
        <time>2024-04-27T07:01:53Z</time>
      </trkpt>
      <trkpt lat="45.86604" lon="6.45573">
        <ele>1721.7</ele>
        <time>2024-04-27T07:01:54Z</time>
      </trkpt>
      <trkpt lat="45.86604" lon="6.45574">
        <ele>1721.7</ele>
        <time>2024-04-27T07:01:55Z</time>
      </trkpt>
      <trkpt lat="45.86604" lon="6.45574">
        <ele>1721.7</ele>
        <time>2024-04-27T07:01:56Z</time>
      </trkpt>
      <trkpt lat="45.86604" lon="6.45575">
        <ele>1722.6</ele>
        <time>2024-04-27T07:01:57Z</time>
      </trkpt>
      <trkpt lat="45.86604" lon="6.45576">
        <ele>1722.6</ele>
        <time>2024-04-27T07:01:58Z</time>
      </trkpt>
      <trkpt lat="45.86603" lon="6.45577">
        <ele>1722.6</ele>
        <time>2024-04-27T07:01:59Z</time>
      </trkpt>
      <trkpt lat="45.86603" lon="6.45577">
        <ele>1722.6</ele>
        <time>2024-04-27T07:02:00Z</time>
      </trkpt>
      <trkpt lat="45.86603" lon="6.45578">
        <ele>1723.7</ele>
        <time>2024-04-27T07:02:01Z</time>
      </trkpt>
      <trkpt lat="45.86603" lon="6.45578">
        <ele>1723.7</ele>
        <time>2024-04-27T07:02:02Z</time>
      </trkpt>
      <trkpt lat="45.86602" lon="6.45578">
        <ele>1723.7</ele>
        <time>2024-04-27T07:02:03Z</time>
      </trkpt>
      <trkpt lat="45.86602" lon="6.45578">
        <ele>1723.7</ele>
        <time>2024-04-27T07:02:04Z</time>
      </trkpt>
      <trkpt lat="45.86601" lon="6.45579">
        <ele>1723.7</ele>
        <time>2024-04-27T07:02:05Z</time>
      </trkpt>
      <trkpt lat="45.86601" lon="6.45579">
        <ele>1723.7</ele>
        <time>2024-04-27T07:02:06Z</time>
      </trkpt>
      <trkpt lat="45.866" lon="6.45579">
        <ele>1723.7</ele>
        <time>2024-04-27T07:02:07Z</time>
      </trkpt>
      <trkpt lat="45.866" lon="6.4558">
        <ele>1723.7</ele>
        <time>2024-04-27T07:02:08Z</time>
      </trkpt>
      <trkpt lat="45.866" lon="6.4558">
        <ele>1723.7</ele>
        <time>2024-04-27T07:02:09Z</time>
      </trkpt>
      <trkpt lat="45.86599" lon="6.4558">
        <ele>1723.7</ele>
        <time>2024-04-27T07:02:10Z</time>
      </trkpt>
      <trkpt lat="45.86599" lon="6.4558">
        <ele>1726.7</ele>
        <time>2024-04-27T07:02:11Z</time>
      </trkpt>
      <trkpt lat="45.86598" lon="6.4558">
        <ele>1726.7</ele>
        <time>2024-04-27T07:02:12Z</time>
      </trkpt>
      <trkpt lat="45.86598" lon="6.4558">
        <ele>1726.7</ele>
        <time>2024-04-27T07:02:13Z</time>
      </trkpt>
      <trkpt lat="45.86597" lon="6.45581">
        <ele>1726.7</ele>
        <time>2024-04-27T07:02:14Z</time>
      </trkpt>
      <trkpt lat="45.86597" lon="6.45581">
        <ele>1726.7</ele>
        <time>2024-04-27T07:02:15Z</time>
      </trkpt>
      <trkpt lat="45.86597" lon="6.45581">
        <ele>1726.7</ele>
        <time>2024-04-27T07:02:16Z</time>
      </trkpt>
      <trkpt lat="45.86596" lon="6.45581">
        <ele>1726.7</ele>
        <time>2024-04-27T07:02:17Z</time>
      </trkpt>
      <trkpt lat="45.86596" lon="6.4558">
        <ele>1726.7</ele>
        <time>2024-04-27T07:02:18Z</time>
      </trkpt>
      <trkpt lat="45.86596" lon="6.4558">
        <ele>1727.6</ele>
        <time>2024-04-27T07:02:19Z</time>
      </trkpt>
      <trkpt lat="45.86596" lon="6.45579">
        <ele>1727.6</ele>
        <time>2024-04-27T07:02:20Z</time>
      </trkpt>
      <trkpt lat="45.86595" lon="6.45579">
        <ele>1727.6</ele>
        <time>2024-04-27T07:02:21Z</time>
      </trkpt>
      <trkpt lat="45.86595" lon="6.45579">
        <ele>1727.6</ele>
        <time>2024-04-27T07:02:22Z</time>
      </trkpt>
      <trkpt lat="45.86595" lon="6.45578">
        <ele>1728.7</ele>
        <time>2024-04-27T07:02:23Z</time>
      </trkpt>
      <trkpt lat="45.86595" lon="6.45579">
        <ele>1728.7</ele>
        <time>2024-04-27T07:02:24Z</time>
      </trkpt>
      <trkpt lat="45.86595" lon="6.4558">
        <ele>1728.7</ele>
        <time>2024-04-27T07:02:25Z</time>
      </trkpt>
      <trkpt lat="45.86595" lon="6.4558">
        <ele>1728.7</ele>
        <time>2024-04-27T07:02:26Z</time>
      </trkpt>
      <trkpt lat="45.86594" lon="6.4558">
        <ele>1728.7</ele>
        <time>2024-04-27T07:02:27Z</time>
      </trkpt>
      <trkpt lat="45.86594" lon="6.45581">
        <ele>1728.7</ele>
        <time>2024-04-27T07:02:28Z</time>
      </trkpt>
      <trkpt lat="45.86594" lon="6.45581">
        <ele>1728.7</ele>
        <time>2024-04-27T07:02:29Z</time>
      </trkpt>
      <trkpt lat="45.86593" lon="6.45581">
        <ele>1728.7</ele>
        <time>2024-04-27T07:02:30Z</time>
      </trkpt>
      <trkpt lat="45.86593" lon="6.45581">
        <ele>1729.6</ele>
        <time>2024-04-27T07:02:31Z</time>
      </trkpt>
      <trkpt lat="45.86592" lon="6.45582">
        <ele>1729.6</ele>
        <time>2024-04-27T07:02:32Z</time>
      </trkpt>
      <trkpt lat="45.86591" lon="6.45582">
        <ele>1729.6</ele>
        <time>2024-04-27T07:02:33Z</time>
      </trkpt>
      <trkpt lat="45.8659" lon="6.45583">
        <ele>1729.6</ele>
        <time>2024-04-27T07:02:34Z</time>
      </trkpt>
      <trkpt lat="45.8659" lon="6.45583">
        <ele>1729.6</ele>
        <time>2024-04-27T07:02:35Z</time>
      </trkpt>
      <trkpt lat="45.86589" lon="6.45584">
        <ele>1729.6</ele>
        <time>2024-04-27T07:02:36Z</time>
      </trkpt>
      <trkpt lat="45.86589" lon="6.45584">
        <ele>1730.7</ele>
        <time>2024-04-27T07:02:37Z</time>
      </trkpt>
      <trkpt lat="45.86588" lon="6.45584">
        <ele>1730.7</ele>
        <time>2024-04-27T07:02:38Z</time>
      </trkpt>
      <trkpt lat="45.86588" lon="6.45584">
        <ele>1730.7</ele>
        <time>2024-04-27T07:02:39Z</time>
      </trkpt>
      <trkpt lat="45.86588" lon="6.45585">
        <ele>1730.7</ele>
        <time>2024-04-27T07:02:40Z</time>
      </trkpt>
      <trkpt lat="45.86588" lon="6.45585">
        <ele>1730.7</ele>
        <time>2024-04-27T07:02:41Z</time>
      </trkpt>
      <trkpt lat="45.86588" lon="6.45585">
        <ele>1730.7</ele>
        <time>2024-04-27T07:02:42Z</time>
      </trkpt>
      <trkpt lat="45.86588" lon="6.45585">
        <ele>1730.7</ele>
        <time>2024-04-27T07:02:43Z</time>
      </trkpt>
      <trkpt lat="45.86588" lon="6.45586">
        <ele>1730.7</ele>
        <time>2024-04-27T07:02:44Z</time>
      </trkpt>
      <trkpt lat="45.86587" lon="6.45587">
        <ele>1730.7</ele>
        <time>2024-04-27T07:02:45Z</time>
      </trkpt>
      <trkpt lat="45.86586" lon="6.45588">
        <ele>1730.7</ele>
        <time>2024-04-27T07:02:46Z</time>
      </trkpt>
      <trkpt lat="45.86586" lon="6.45588">
        <ele>1731.6</ele>
        <time>2024-04-27T07:02:47Z</time>
      </trkpt>
      <trkpt lat="45.86586" lon="6.45589">
        <ele>1731.6</ele>
        <time>2024-04-27T07:02:48Z</time>
      </trkpt>
      <trkpt lat="45.86586" lon="6.4559">
        <ele>1731.6</ele>
        <time>2024-04-27T07:02:49Z</time>
      </trkpt>
      <trkpt lat="45.86585" lon="6.4559">
        <ele>1731.6</ele>
        <time>2024-04-27T07:02:50Z</time>
      </trkpt>
      <trkpt lat="45.86585" lon="6.4559">
        <ele>1732.7</ele>
        <time>2024-04-27T07:02:51Z</time>
      </trkpt>
      <trkpt lat="45.86584" lon="6.45591">
        <ele>1732.7</ele>
        <time>2024-04-27T07:02:52Z</time>
      </trkpt>
      <trkpt lat="45.86584" lon="6.45591">
        <ele>1732.7</ele>
        <time>2024-04-27T07:02:53Z</time>
      </trkpt>
      <trkpt lat="45.86584" lon="6.45591">
        <ele>1732.7</ele>
        <time>2024-04-27T07:02:54Z</time>
      </trkpt>
      <trkpt lat="45.86583" lon="6.45592">
        <ele>1732.7</ele>
        <time>2024-04-27T07:02:55Z</time>
      </trkpt>
      <trkpt lat="45.86583" lon="6.45592">
        <ele>1732.7</ele>
        <time>2024-04-27T07:02:56Z</time>
      </trkpt>
      <trkpt lat="45.86583" lon="6.45592">
        <ele>1733.6</ele>
        <time>2024-04-27T07:02:57Z</time>
      </trkpt>
      <trkpt lat="45.86582" lon="6.45593">
        <ele>1733.6</ele>
        <time>2024-04-27T07:02:58Z</time>
      </trkpt>
      <trkpt lat="45.86582" lon="6.45593">
        <ele>1733.6</ele>
        <time>2024-04-27T07:02:59Z</time>
      </trkpt>
      <trkpt lat="45.86583" lon="6.45593">
        <ele>1733.6</ele>
        <time>2024-04-27T07:03:00Z</time>
      </trkpt>
      <trkpt lat="45.86583" lon="6.45593">
        <ele>1734.6</ele>
        <time>2024-04-27T07:03:01Z</time>
      </trkpt>
      <trkpt lat="45.86583" lon="6.45593">
        <ele>1734.6</ele>
        <time>2024-04-27T07:03:02Z</time>
      </trkpt>
      <trkpt lat="45.86583" lon="6.45593">
        <ele>1734.6</ele>
        <time>2024-04-27T07:03:03Z</time>
      </trkpt>
      <trkpt lat="45.86583" lon="6.45593">
        <ele>1734.6</ele>
        <time>2024-04-27T07:03:04Z</time>
      </trkpt>
      <trkpt lat="45.86583" lon="6.45594">
        <ele>1734.6</ele>
        <time>2024-04-27T07:03:05Z</time>
      </trkpt>
      <trkpt lat="45.86582" lon="6.45595">
        <ele>1734.6</ele>
        <time>2024-04-27T07:03:06Z</time>
      </trkpt>
      <trkpt lat="45.86582" lon="6.45595">
        <ele>1734.6</ele>
        <time>2024-04-27T07:03:07Z</time>
      </trkpt>
      <trkpt lat="45.86581" lon="6.45597">
        <ele>1734.6</ele>
        <time>2024-04-27T07:03:08Z</time>
      </trkpt>
      <trkpt lat="45.86581" lon="6.45597">
        <ele>1735.7</ele>
        <time>2024-04-27T07:03:09Z</time>
      </trkpt>
      <trkpt lat="45.8658" lon="6.45598">
        <ele>1735.7</ele>
        <time>2024-04-27T07:03:10Z</time>
      </trkpt>
      <trkpt lat="45.86579" lon="6.45598">
        <ele>1735.7</ele>
        <time>2024-04-27T07:03:11Z</time>
      </trkpt>
      <trkpt lat="45.86579" lon="6.45598">
        <ele>1735.7</ele>
        <time>2024-04-27T07:03:12Z</time>
      </trkpt>
      <trkpt lat="45.86579" lon="6.45598">
        <ele>1736.6</ele>
        <time>2024-04-27T07:03:13Z</time>
      </trkpt>
      <trkpt lat="45.86579" lon="6.45598">
        <ele>1736.6</ele>
        <time>2024-04-27T07:03:14Z</time>
      </trkpt>
      <trkpt lat="45.86579" lon="6.45598">
        <ele>1736.6</ele>
        <time>2024-04-27T07:03:15Z</time>
      </trkpt>
      <trkpt lat="45.86578" lon="6.45598">
        <ele>1736.6</ele>
        <time>2024-04-27T07:03:16Z</time>
      </trkpt>
      <trkpt lat="45.86578" lon="6.45599">
        <ele>1736.6</ele>
        <time>2024-04-27T07:03:17Z</time>
      </trkpt>
      <trkpt lat="45.86577" lon="6.45599">
        <ele>1736.6</ele>
        <time>2024-04-27T07:03:18Z</time>
      </trkpt>
      <trkpt lat="45.86577" lon="6.456">
        <ele>1736.6</ele>
        <time>2024-04-27T07:03:19Z</time>
      </trkpt>
      <trkpt lat="45.86576" lon="6.456">
        <ele>1736.6</ele>
        <time>2024-04-27T07:03:20Z</time>
      </trkpt>
      <trkpt lat="45.86576" lon="6.45601">
        <ele>1737.7</ele>
        <time>2024-04-27T07:03:21Z</time>
      </trkpt>
      <trkpt lat="45.86575" lon="6.456">
        <ele>1737.7</ele>
        <time>2024-04-27T07:03:22Z</time>
      </trkpt>
      <trkpt lat="45.86575" lon="6.456">
        <ele>1738.6</ele>
        <time>2024-04-27T07:03:23Z</time>
      </trkpt>
      <trkpt lat="45.86575" lon="6.45599">
        <ele>1738.6</ele>
        <time>2024-04-27T07:03:24Z</time>
      </trkpt>
      <trkpt lat="45.86575" lon="6.45599">
        <ele>1738.6</ele>
        <time>2024-04-27T07:03:25Z</time>
      </trkpt>
      <trkpt lat="45.86575" lon="6.45598">
        <ele>1738.6</ele>
        <time>2024-04-27T07:03:26Z</time>
      </trkpt>
      <trkpt lat="45.86575" lon="6.45598">
        <ele>1739.7</ele>
        <time>2024-04-27T07:03:27Z</time>
      </trkpt>
      <trkpt lat="45.86576" lon="6.45596">
        <ele>1739.7</ele>
        <time>2024-04-27T07:03:28Z</time>
      </trkpt>
      <trkpt lat="45.86575" lon="6.45596">
        <ele>1739.7</ele>
        <time>2024-04-27T07:03:29Z</time>
      </trkpt>
      <trkpt lat="45.86575" lon="6.45596">
        <ele>1739.7</ele>
        <time>2024-04-27T07:03:30Z</time>
      </trkpt>
      <trkpt lat="45.86575" lon="6.45594">
        <ele>1740.6</ele>
        <time>2024-04-27T07:03:31Z</time>
      </trkpt>
      <trkpt lat="45.86575" lon="6.45593">
        <ele>1740.6</ele>
        <time>2024-04-27T07:03:32Z</time>
      </trkpt>
      <trkpt lat="45.86575" lon="6.45593">
        <ele>1740.6</ele>
        <time>2024-04-27T07:03:33Z</time>
      </trkpt>
      <trkpt lat="45.86575" lon="6.45592">
        <ele>1740.6</ele>
        <time>2024-04-27T07:03:34Z</time>
      </trkpt>
      <trkpt lat="45.86574" lon="6.45592">
        <ele>1741.6</ele>
        <time>2024-04-27T07:03:35Z</time>
      </trkpt>
      <trkpt lat="45.86574" lon="6.45591">
        <ele>1741.6</ele>
        <time>2024-04-27T07:03:36Z</time>
      </trkpt>
      <trkpt lat="45.86574" lon="6.4559">
        <ele>1741.6</ele>
        <time>2024-04-27T07:03:37Z</time>
      </trkpt>
      <trkpt lat="45.86574" lon="6.4559">
        <ele>1741.6</ele>
        <time>2024-04-27T07:03:38Z</time>
      </trkpt>
      <trkpt lat="45.86574" lon="6.4559">
        <ele>1742.7</ele>
        <time>2024-04-27T07:03:39Z</time>
      </trkpt>
      <trkpt lat="45.86574" lon="6.45589">
        <ele>1742.7</ele>
        <time>2024-04-27T07:03:40Z</time>
      </trkpt>
      <trkpt lat="45.86574" lon="6.45589">
        <ele>1742.7</ele>
        <time>2024-04-27T07:03:41Z</time>
      </trkpt>
      <trkpt lat="45.86574" lon="6.45589">
        <ele>1742.7</ele>
        <time>2024-04-27T07:03:42Z</time>
      </trkpt>
      <trkpt lat="45.86573" lon="6.45589">
        <ele>1742.7</ele>
        <time>2024-04-27T07:03:43Z</time>
      </trkpt>
      <trkpt lat="45.86573" lon="6.45589">
        <ele>1742.7</ele>
        <time>2024-04-27T07:03:44Z</time>
      </trkpt>
      <trkpt lat="45.86573" lon="6.45589">
        <ele>1742.7</ele>
        <time>2024-04-27T07:03:45Z</time>
      </trkpt>
      <trkpt lat="45.86573" lon="6.45589">
        <ele>1742.7</ele>
        <time>2024-04-27T07:03:46Z</time>
      </trkpt>
      <trkpt lat="45.86573" lon="6.45588">
        <ele>1742.7</ele>
        <time>2024-04-27T07:03:47Z</time>
      </trkpt>
      <trkpt lat="45.86573" lon="6.45589">
        <ele>1742.7</ele>
        <time>2024-04-27T07:03:48Z</time>
      </trkpt>
      <trkpt lat="45.86573" lon="6.45589">
        <ele>1743.6</ele>
        <time>2024-04-27T07:03:49Z</time>
      </trkpt>
      <trkpt lat="45.86572" lon="6.45589">
        <ele>1743.6</ele>
        <time>2024-04-27T07:03:50Z</time>
      </trkpt>
      <trkpt lat="45.86571" lon="6.45589">
        <ele>1743.6</ele>
        <time>2024-04-27T07:03:51Z</time>
      </trkpt>
      <trkpt lat="45.86571" lon="6.45589">
        <ele>1743.6</ele>
        <time>2024-04-27T07:03:52Z</time>
      </trkpt>
      <trkpt lat="45.86571" lon="6.45589">
        <ele>1744.7</ele>
        <time>2024-04-27T07:03:53Z</time>
      </trkpt>
      <trkpt lat="45.86571" lon="6.45589">
        <ele>1744.7</ele>
        <time>2024-04-27T07:03:54Z</time>
      </trkpt>
      <trkpt lat="45.86571" lon="6.4559">
        <ele>1745.6</ele>
        <time>2024-04-27T07:03:55Z</time>
      </trkpt>
      <trkpt lat="45.8657" lon="6.4559">
        <ele>1745.6</ele>
        <time>2024-04-27T07:03:56Z</time>
      </trkpt>
      <trkpt lat="45.8657" lon="6.4559">
        <ele>1745.6</ele>
        <time>2024-04-27T07:03:57Z</time>
      </trkpt>
      <trkpt lat="45.8657" lon="6.45591">
        <ele>1745.6</ele>
        <time>2024-04-27T07:03:58Z</time>
      </trkpt>
      <trkpt lat="45.86569" lon="6.45591">
        <ele>1745.6</ele>
        <time>2024-04-27T07:03:59Z</time>
      </trkpt>
      <trkpt lat="45.86569" lon="6.45591">
        <ele>1745.6</ele>
        <time>2024-04-27T07:04:00Z</time>
      </trkpt>
      <trkpt lat="45.86568" lon="6.45592">
        <ele>1745.6</ele>
        <time>2024-04-27T07:04:01Z</time>
      </trkpt>
      <trkpt lat="45.86568" lon="6.45593">
        <ele>1745.6</ele>
        <time>2024-04-27T07:04:02Z</time>
      </trkpt>
      <trkpt lat="45.86567" lon="6.45594">
        <ele>1745.6</ele>
        <time>2024-04-27T07:04:03Z</time>
      </trkpt>
      <trkpt lat="45.86567" lon="6.45594">
        <ele>1745.6</ele>
        <time>2024-04-27T07:04:04Z</time>
      </trkpt>
      <trkpt lat="45.86567" lon="6.45594">
        <ele>1745.6</ele>
        <time>2024-04-27T07:04:05Z</time>
      </trkpt>
      <trkpt lat="45.86567" lon="6.45595">
        <ele>1745.6</ele>
        <time>2024-04-27T07:04:06Z</time>
      </trkpt>
      <trkpt lat="45.86567" lon="6.45595">
        <ele>1745.6</ele>
        <time>2024-04-27T07:04:07Z</time>
      </trkpt>
      <trkpt lat="45.86566" lon="6.45596">
        <ele>1745.6</ele>
        <time>2024-04-27T07:04:08Z</time>
      </trkpt>
      <trkpt lat="45.86566" lon="6.45597">
        <ele>1745.6</ele>
        <time>2024-04-27T07:04:09Z</time>
      </trkpt>
      <trkpt lat="45.86565" lon="6.45597">
        <ele>1745.6</ele>
        <time>2024-04-27T07:04:10Z</time>
      </trkpt>
      <trkpt lat="45.86565" lon="6.45598">
        <ele>1746.7</ele>
        <time>2024-04-27T07:04:11Z</time>
      </trkpt>
      <trkpt lat="45.86565" lon="6.45598">
        <ele>1746.7</ele>
        <time>2024-04-27T07:04:12Z</time>
      </trkpt>
      <trkpt lat="45.86565" lon="6.45599">
        <ele>1746.7</ele>
        <time>2024-04-27T07:04:13Z</time>
      </trkpt>
      <trkpt lat="45.86565" lon="6.45599">
        <ele>1746.7</ele>
        <time>2024-04-27T07:04:14Z</time>
      </trkpt>
      <trkpt lat="45.86564" lon="6.45599">
        <ele>1747.6</ele>
        <time>2024-04-27T07:04:15Z</time>
      </trkpt>
      <trkpt lat="45.86564" lon="6.456">
        <ele>1747.6</ele>
        <time>2024-04-27T07:04:16Z</time>
      </trkpt>
      <trkpt lat="45.86563" lon="6.45601">
        <ele>1747.6</ele>
        <time>2024-04-27T07:04:17Z</time>
      </trkpt>
      <trkpt lat="45.86563" lon="6.45601">
        <ele>1747.6</ele>
        <time>2024-04-27T07:04:18Z</time>
      </trkpt>
      <trkpt lat="45.86563" lon="6.45601">
        <ele>1748.7</ele>
        <time>2024-04-27T07:04:19Z</time>
      </trkpt>
      <trkpt lat="45.86563" lon="6.45601">
        <ele>1748.7</ele>
        <time>2024-04-27T07:04:20Z</time>
      </trkpt>
      <trkpt lat="45.86562" lon="6.45602">
        <ele>1748.7</ele>
        <time>2024-04-27T07:04:21Z</time>
      </trkpt>
      <trkpt lat="45.86562" lon="6.45603">
        <ele>1748.7</ele>
        <time>2024-04-27T07:04:22Z</time>
      </trkpt>
      <trkpt lat="45.86562" lon="6.45603">
        <ele>1748.7</ele>
        <time>2024-04-27T07:04:23Z</time>
      </trkpt>
      <trkpt lat="45.86561" lon="6.45603">
        <ele>1748.7</ele>
        <time>2024-04-27T07:04:24Z</time>
      </trkpt>
      <trkpt lat="45.8656" lon="6.45604">
        <ele>1749.6</ele>
        <time>2024-04-27T07:04:25Z</time>
      </trkpt>
      <trkpt lat="45.8656" lon="6.45604">
        <ele>1749.6</ele>
        <time>2024-04-27T07:04:26Z</time>
      </trkpt>
      <trkpt lat="45.8656" lon="6.45604">
        <ele>1749.6</ele>
        <time>2024-04-27T07:04:27Z</time>
      </trkpt>
      <trkpt lat="45.86559" lon="6.45605">
        <ele>1749.6</ele>
        <time>2024-04-27T07:04:28Z</time>
      </trkpt>
      <trkpt lat="45.86559" lon="6.45605">
        <ele>1750.6</ele>
        <time>2024-04-27T07:04:29Z</time>
      </trkpt>
      <trkpt lat="45.86558" lon="6.45606">
        <ele>1750.6</ele>
        <time>2024-04-27T07:04:30Z</time>
      </trkpt>
      <trkpt lat="45.86558" lon="6.45607">
        <ele>1750.6</ele>
        <time>2024-04-27T07:04:31Z</time>
      </trkpt>
      <trkpt lat="45.86558" lon="6.45607">
        <ele>1750.6</ele>
        <time>2024-04-27T07:04:32Z</time>
      </trkpt>
      <trkpt lat="45.86557" lon="6.45607">
        <ele>1750.6</ele>
        <time>2024-04-27T07:04:33Z</time>
      </trkpt>
      <trkpt lat="45.86557" lon="6.45608">
        <ele>1750.6</ele>
        <time>2024-04-27T07:04:34Z</time>
      </trkpt>
      <trkpt lat="45.86557" lon="6.45608">
        <ele>1750.6</ele>
        <time>2024-04-27T07:04:35Z</time>
      </trkpt>
      <trkpt lat="45.86556" lon="6.45609">
        <ele>1750.6</ele>
        <time>2024-04-27T07:04:36Z</time>
      </trkpt>
      <trkpt lat="45.86556" lon="6.45609">
        <ele>1751.7</ele>
        <time>2024-04-27T07:04:37Z</time>
      </trkpt>
      <trkpt lat="45.86555" lon="6.4561">
        <ele>1751.7</ele>
        <time>2024-04-27T07:04:38Z</time>
      </trkpt>
      <trkpt lat="45.86555" lon="6.45611">
        <ele>1751.7</ele>
        <time>2024-04-27T07:04:39Z</time>
      </trkpt>
      <trkpt lat="45.86554" lon="6.45611">
        <ele>1751.7</ele>
        <time>2024-04-27T07:04:40Z</time>
      </trkpt>
      <trkpt lat="45.86554" lon="6.45611">
        <ele>1751.7</ele>
        <time>2024-04-27T07:04:41Z</time>
      </trkpt>
      <trkpt lat="45.86554" lon="6.45612">
        <ele>1751.7</ele>
        <time>2024-04-27T07:04:42Z</time>
      </trkpt>
      <trkpt lat="45.86554" lon="6.45612">
        <ele>1751.7</ele>
        <time>2024-04-27T07:04:43Z</time>
      </trkpt>
      <trkpt lat="45.86554" lon="6.45612">
        <ele>1751.7</ele>
        <time>2024-04-27T07:04:44Z</time>
      </trkpt>
      <trkpt lat="45.86554" lon="6.45612">
        <ele>1752.6</ele>
        <time>2024-04-27T07:04:45Z</time>
      </trkpt>
      <trkpt lat="45.86553" lon="6.45613">
        <ele>1752.6</ele>
        <time>2024-04-27T07:04:46Z</time>
      </trkpt>
      <trkpt lat="45.86553" lon="6.45614">
        <ele>1752.6</ele>
        <time>2024-04-27T07:04:47Z</time>
      </trkpt>
      <trkpt lat="45.86552" lon="6.45615">
        <ele>1752.6</ele>
        <time>2024-04-27T07:04:48Z</time>
      </trkpt>
      <trkpt lat="45.86552" lon="6.45615">
        <ele>1753.7</ele>
        <time>2024-04-27T07:04:49Z</time>
      </trkpt>
      <trkpt lat="45.86552" lon="6.45616">
        <ele>1753.7</ele>
        <time>2024-04-27T07:04:50Z</time>
      </trkpt>
      <trkpt lat="45.86552" lon="6.45616">
        <ele>1753.7</ele>
        <time>2024-04-27T07:04:51Z</time>
      </trkpt>
      <trkpt lat="45.86551" lon="6.45616">
        <ele>1753.7</ele>
        <time>2024-04-27T07:04:52Z</time>
      </trkpt>
      <trkpt lat="45.86551" lon="6.45616">
        <ele>1753.7</ele>
        <time>2024-04-27T07:04:53Z</time>
      </trkpt>
      <trkpt lat="45.86551" lon="6.45616">
        <ele>1753.7</ele>
        <time>2024-04-27T07:04:54Z</time>
      </trkpt>
      <trkpt lat="45.8655" lon="6.45615">
        <ele>1753.7</ele>
        <time>2024-04-27T07:04:55Z</time>
      </trkpt>
      <trkpt lat="45.86549" lon="6.45615">
        <ele>1753.7</ele>
        <time>2024-04-27T07:04:56Z</time>
      </trkpt>
      <trkpt lat="45.86549" lon="6.45614">
        <ele>1753.7</ele>
        <time>2024-04-27T07:04:57Z</time>
      </trkpt>
      <trkpt lat="45.86548" lon="6.45614">
        <ele>1753.7</ele>
        <time>2024-04-27T07:04:58Z</time>
      </trkpt>
      <trkpt lat="45.86548" lon="6.45614">
        <ele>1756.6</ele>
        <time>2024-04-27T07:04:59Z</time>
      </trkpt>
      <trkpt lat="45.86547" lon="6.45614">
        <ele>1756.6</ele>
        <time>2024-04-27T07:05:00Z</time>
      </trkpt>
      <trkpt lat="45.86547" lon="6.45614">
        <ele>1756.6</ele>
        <time>2024-04-27T07:05:01Z</time>
      </trkpt>
      <trkpt lat="45.86546" lon="6.45614">
        <ele>1756.6</ele>
        <time>2024-04-27T07:05:02Z</time>
      </trkpt>
      <trkpt lat="45.86546" lon="6.45613">
        <ele>1757.7</ele>
        <time>2024-04-27T07:05:03Z</time>
      </trkpt>
      <trkpt lat="45.86545" lon="6.45613">
        <ele>1757.7</ele>
        <time>2024-04-27T07:05:04Z</time>
      </trkpt>
      <trkpt lat="45.86544" lon="6.45613">
        <ele>1757.7</ele>
        <time>2024-04-27T07:05:05Z</time>
      </trkpt>
      <trkpt lat="45.86544" lon="6.45612">
        <ele>1757.7</ele>
        <time>2024-04-27T07:05:06Z</time>
      </trkpt>
      <trkpt lat="45.86544" lon="6.45612">
        <ele>1758.7</ele>
        <time>2024-04-27T07:05:07Z</time>
      </trkpt>
      <trkpt lat="45.86543" lon="6.45611">
        <ele>1758.7</ele>
        <time>2024-04-27T07:05:08Z</time>
      </trkpt>
      <trkpt lat="45.86543" lon="6.4561">
        <ele>1759.6</ele>
        <time>2024-04-27T07:05:09Z</time>
      </trkpt>
      <trkpt lat="45.86543" lon="6.4561">
        <ele>1759.6</ele>
        <time>2024-04-27T07:05:10Z</time>
      </trkpt>
      <trkpt lat="45.86543" lon="6.4561">
        <ele>1759.6</ele>
        <time>2024-04-27T07:05:11Z</time>
      </trkpt>
      <trkpt lat="45.86543" lon="6.4561">
        <ele>1759.6</ele>
        <time>2024-04-27T07:05:12Z</time>
      </trkpt>
      <trkpt lat="45.86543" lon="6.4561">
        <ele>1759.6</ele>
        <time>2024-04-27T07:05:13Z</time>
      </trkpt>
      <trkpt lat="45.86543" lon="6.4561">
        <ele>1759.6</ele>
        <time>2024-04-27T07:05:14Z</time>
      </trkpt>
      <trkpt lat="45.86543" lon="6.4561">
        <ele>1759.6</ele>
        <time>2024-04-27T07:05:15Z</time>
      </trkpt>
      <trkpt lat="45.86543" lon="6.4561">
        <ele>1759.6</ele>
        <time>2024-04-27T07:05:16Z</time>
      </trkpt>
      <trkpt lat="45.86543" lon="6.4561">
        <ele>1759.6</ele>
        <time>2024-04-27T07:05:17Z</time>
      </trkpt>
      <trkpt lat="45.86543" lon="6.45611">
        <ele>1759.6</ele>
        <time>2024-04-27T07:05:18Z</time>
      </trkpt>
      <trkpt lat="45.86543" lon="6.45611">
        <ele>1759.6</ele>
        <time>2024-04-27T07:05:19Z</time>
      </trkpt>
      <trkpt lat="45.86542" lon="6.45612">
        <ele>1759.6</ele>
        <time>2024-04-27T07:05:20Z</time>
      </trkpt>
      <trkpt lat="45.86542" lon="6.45612">
        <ele>1759.6</ele>
        <time>2024-04-27T07:05:21Z</time>
      </trkpt>
      <trkpt lat="45.86542" lon="6.45613">
        <ele>1759.6</ele>
        <time>2024-04-27T07:05:22Z</time>
      </trkpt>
      <trkpt lat="45.86541" lon="6.45614">
        <ele>1759.6</ele>
        <time>2024-04-27T07:05:23Z</time>
      </trkpt>
      <trkpt lat="45.86541" lon="6.45614">
        <ele>1759.6</ele>
        <time>2024-04-27T07:05:24Z</time>
      </trkpt>
      <trkpt lat="45.86541" lon="6.45615">
        <ele>1760.7</ele>
        <time>2024-04-27T07:05:25Z</time>
      </trkpt>
      <trkpt lat="45.86541" lon="6.45616">
        <ele>1760.7</ele>
        <time>2024-04-27T07:05:26Z</time>
      </trkpt>
      <trkpt lat="45.86541" lon="6.45616">
        <ele>1760.7</ele>
        <time>2024-04-27T07:05:27Z</time>
      </trkpt>
      <trkpt lat="45.8654" lon="6.45617">
        <ele>1760.7</ele>
        <time>2024-04-27T07:05:28Z</time>
      </trkpt>
      <trkpt lat="45.8654" lon="6.45618">
        <ele>1761.6</ele>
        <time>2024-04-27T07:05:29Z</time>
      </trkpt>
      <trkpt lat="45.86539" lon="6.45619">
        <ele>1761.6</ele>
        <time>2024-04-27T07:05:30Z</time>
      </trkpt>
      <trkpt lat="45.86539" lon="6.45619">
        <ele>1761.6</ele>
        <time>2024-04-27T07:05:31Z</time>
      </trkpt>
      <trkpt lat="45.86539" lon="6.45619">
        <ele>1761.6</ele>
        <time>2024-04-27T07:05:32Z</time>
      </trkpt>
      <trkpt lat="45.86539" lon="6.4562">
        <ele>1761.6</ele>
        <time>2024-04-27T07:05:33Z</time>
      </trkpt>
      <trkpt lat="45.86539" lon="6.45621">
        <ele>1761.6</ele>
        <time>2024-04-27T07:05:34Z</time>
      </trkpt>
      <trkpt lat="45.86538" lon="6.45621">
        <ele>1761.6</ele>
        <time>2024-04-27T07:05:35Z</time>
      </trkpt>
      <trkpt lat="45.86538" lon="6.45621">
        <ele>1761.6</ele>
        <time>2024-04-27T07:05:36Z</time>
      </trkpt>
      <trkpt lat="45.86538" lon="6.45622">
        <ele>1762.7</ele>
        <time>2024-04-27T07:05:37Z</time>
      </trkpt>
      <trkpt lat="45.86538" lon="6.45622">
        <ele>1762.7</ele>
        <time>2024-04-27T07:05:38Z</time>
      </trkpt>
      <trkpt lat="45.86537" lon="6.45622">
        <ele>1762.7</ele>
        <time>2024-04-27T07:05:39Z</time>
      </trkpt>
      <trkpt lat="45.86537" lon="6.45623">
        <ele>1762.7</ele>
        <time>2024-04-27T07:05:40Z</time>
      </trkpt>
      <trkpt lat="45.86536" lon="6.45623">
        <ele>1763.6</ele>
        <time>2024-04-27T07:05:41Z</time>
      </trkpt>
      <trkpt lat="45.86535" lon="6.45624">
        <ele>1763.6</ele>
        <time>2024-04-27T07:05:42Z</time>
      </trkpt>
      <trkpt lat="45.86535" lon="6.45624">
        <ele>1763.6</ele>
        <time>2024-04-27T07:05:43Z</time>
      </trkpt>
      <trkpt lat="45.86535" lon="6.45624">
        <ele>1763.6</ele>
        <time>2024-04-27T07:05:44Z</time>
      </trkpt>
      <trkpt lat="45.86534" lon="6.45624">
        <ele>1764.7</ele>
        <time>2024-04-27T07:05:45Z</time>
      </trkpt>
      <trkpt lat="45.86534" lon="6.45624">
        <ele>1764.7</ele>
        <time>2024-04-27T07:05:46Z</time>
      </trkpt>
      <trkpt lat="45.86533" lon="6.45624">
        <ele>1764.7</ele>
        <time>2024-04-27T07:05:47Z</time>
      </trkpt>
      <trkpt lat="45.86533" lon="6.45624">
        <ele>1764.7</ele>
        <time>2024-04-27T07:05:48Z</time>
      </trkpt>
      <trkpt lat="45.86532" lon="6.45624">
        <ele>1765.6</ele>
        <time>2024-04-27T07:05:49Z</time>
      </trkpt>
      <trkpt lat="45.86531" lon="6.45624">
        <ele>1765.6</ele>
        <time>2024-04-27T07:05:50Z</time>
      </trkpt>
      <trkpt lat="45.86531" lon="6.45624">
        <ele>1765.6</ele>
        <time>2024-04-27T07:05:51Z</time>
      </trkpt>
      <trkpt lat="45.8653" lon="6.45624">
        <ele>1765.6</ele>
        <time>2024-04-27T07:05:52Z</time>
      </trkpt>
      <trkpt lat="45.8653" lon="6.45624">
        <ele>1765.6</ele>
        <time>2024-04-27T07:05:53Z</time>
      </trkpt>
      <trkpt lat="45.86529" lon="6.45623">
        <ele>1765.6</ele>
        <time>2024-04-27T07:05:54Z</time>
      </trkpt>
      <trkpt lat="45.86529" lon="6.45623">
        <ele>1766.6</ele>
        <time>2024-04-27T07:05:55Z</time>
      </trkpt>
      <trkpt lat="45.86528" lon="6.45623">
        <ele>1766.6</ele>
        <time>2024-04-27T07:05:56Z</time>
      </trkpt>
      <trkpt lat="45.86528" lon="6.45622">
        <ele>1766.6</ele>
        <time>2024-04-27T07:05:57Z</time>
      </trkpt>
      <trkpt lat="45.86528" lon="6.45622">
        <ele>1766.6</ele>
        <time>2024-04-27T07:05:58Z</time>
      </trkpt>
      <trkpt lat="45.86528" lon="6.45621">
        <ele>1767.7</ele>
        <time>2024-04-27T07:05:59Z</time>
      </trkpt>
      <trkpt lat="45.86527" lon="6.45621">
        <ele>1767.7</ele>
        <time>2024-04-27T07:06:00Z</time>
      </trkpt>
      <trkpt lat="45.86527" lon="6.45621">
        <ele>1767.7</ele>
        <time>2024-04-27T07:06:01Z</time>
      </trkpt>
      <trkpt lat="45.86526" lon="6.45621">
        <ele>1767.7</ele>
        <time>2024-04-27T07:06:02Z</time>
      </trkpt>
      <trkpt lat="45.86525" lon="6.4562">
        <ele>1768.6</ele>
        <time>2024-04-27T07:06:03Z</time>
      </trkpt>
      <trkpt lat="45.86525" lon="6.4562">
        <ele>1768.6</ele>
        <time>2024-04-27T07:06:04Z</time>
      </trkpt>
      <trkpt lat="45.86525" lon="6.4562">
        <ele>1768.6</ele>
        <time>2024-04-27T07:06:05Z</time>
      </trkpt>
      <trkpt lat="45.86525" lon="6.45619">
        <ele>1768.6</ele>
        <time>2024-04-27T07:06:06Z</time>
      </trkpt>
      <trkpt lat="45.86525" lon="6.45619">
        <ele>1768.6</ele>
        <time>2024-04-27T07:06:07Z</time>
      </trkpt>
      <trkpt lat="45.86525" lon="6.45619">
        <ele>1768.6</ele>
        <time>2024-04-27T07:06:08Z</time>
      </trkpt>
      <trkpt lat="45.86524" lon="6.45619">
        <ele>1768.6</ele>
        <time>2024-04-27T07:06:09Z</time>
      </trkpt>
      <trkpt lat="45.86524" lon="6.45619">
        <ele>1768.6</ele>
        <time>2024-04-27T07:06:10Z</time>
      </trkpt>
      <trkpt lat="45.86523" lon="6.45619">
        <ele>1769.7</ele>
        <time>2024-04-27T07:06:11Z</time>
      </trkpt>
      <trkpt lat="45.86523" lon="6.45619">
        <ele>1769.7</ele>
        <time>2024-04-27T07:06:12Z</time>
      </trkpt>
      <trkpt lat="45.86523" lon="6.45618">
        <ele>1769.7</ele>
        <time>2024-04-27T07:06:13Z</time>
      </trkpt>
      <trkpt lat="45.86523" lon="6.45618">
        <ele>1769.7</ele>
        <time>2024-04-27T07:06:14Z</time>
      </trkpt>
      <trkpt lat="45.86523" lon="6.45618">
        <ele>1770.6</ele>
        <time>2024-04-27T07:06:15Z</time>
      </trkpt>
      <trkpt lat="45.86522" lon="6.45616">
        <ele>1770.6</ele>
        <time>2024-04-27T07:06:16Z</time>
      </trkpt>
      <trkpt lat="45.86522" lon="6.45615">
        <ele>1771.7</ele>
        <time>2024-04-27T07:06:17Z</time>
      </trkpt>
      <trkpt lat="45.86522" lon="6.45615">
        <ele>1771.7</ele>
        <time>2024-04-27T07:06:18Z</time>
      </trkpt>
      <trkpt lat="45.86522" lon="6.45613">
        <ele>1771.7</ele>
        <time>2024-04-27T07:06:19Z</time>
      </trkpt>
      <trkpt lat="45.86522" lon="6.45613">
        <ele>1771.7</ele>
        <time>2024-04-27T07:06:20Z</time>
      </trkpt>
      <trkpt lat="45.86523" lon="6.45613">
        <ele>1772.6</ele>
        <time>2024-04-27T07:06:21Z</time>
      </trkpt>
      <trkpt lat="45.86523" lon="6.45612">
        <ele>1772.6</ele>
        <time>2024-04-27T07:06:22Z</time>
      </trkpt>
      <trkpt lat="45.86523" lon="6.45611">
        <ele>1772.6</ele>
        <time>2024-04-27T07:06:23Z</time>
      </trkpt>
      <trkpt lat="45.86523" lon="6.4561">
        <ele>1772.6</ele>
        <time>2024-04-27T07:06:24Z</time>
      </trkpt>
      <trkpt lat="45.86523" lon="6.45609">
        <ele>1772.6</ele>
        <time>2024-04-27T07:06:25Z</time>
      </trkpt>
      <trkpt lat="45.86523" lon="6.45608">
        <ele>1772.6</ele>
        <time>2024-04-27T07:06:26Z</time>
      </trkpt>
      <trkpt lat="45.86523" lon="6.45607">
        <ele>1772.6</ele>
        <time>2024-04-27T07:06:27Z</time>
      </trkpt>
      <trkpt lat="45.86524" lon="6.45606">
        <ele>1772.6</ele>
        <time>2024-04-27T07:06:28Z</time>
      </trkpt>
      <trkpt lat="45.86524" lon="6.45605">
        <ele>1773.7</ele>
        <time>2024-04-27T07:06:29Z</time>
      </trkpt>
      <trkpt lat="45.86524" lon="6.45604">
        <ele>1773.7</ele>
        <time>2024-04-27T07:06:30Z</time>
      </trkpt>
      <trkpt lat="45.86523" lon="6.45604">
        <ele>1773.7</ele>
        <time>2024-04-27T07:06:31Z</time>
      </trkpt>
      <trkpt lat="45.86524" lon="6.45603">
        <ele>1773.7</ele>
        <time>2024-04-27T07:06:32Z</time>
      </trkpt>
      <trkpt lat="45.86524" lon="6.45602">
        <ele>1773.7</ele>
        <time>2024-04-27T07:06:33Z</time>
      </trkpt>
      <trkpt lat="45.86524" lon="6.45601">
        <ele>1773.7</ele>
        <time>2024-04-27T07:06:34Z</time>
      </trkpt>
      <trkpt lat="45.86524" lon="6.45599">
        <ele>1773.7</ele>
        <time>2024-04-27T07:06:35Z</time>
      </trkpt>
      <trkpt lat="45.86524" lon="6.45599">
        <ele>1773.7</ele>
        <time>2024-04-27T07:06:36Z</time>
      </trkpt>
      <trkpt lat="45.86524" lon="6.45599">
        <ele>1774.7</ele>
        <time>2024-04-27T07:06:37Z</time>
      </trkpt>
      <trkpt lat="45.86524" lon="6.45598">
        <ele>1774.7</ele>
        <time>2024-04-27T07:06:38Z</time>
      </trkpt>
      <trkpt lat="45.86525" lon="6.45597">
        <ele>1774.7</ele>
        <time>2024-04-27T07:06:39Z</time>
      </trkpt>
      <trkpt lat="45.86525" lon="6.45596">
        <ele>1774.7</ele>
        <time>2024-04-27T07:06:40Z</time>
      </trkpt>
      <trkpt lat="45.86525" lon="6.45596">
        <ele>1775.6</ele>
        <time>2024-04-27T07:06:41Z</time>
      </trkpt>
      <trkpt lat="45.86525" lon="6.45595">
        <ele>1775.6</ele>
        <time>2024-04-27T07:06:42Z</time>
      </trkpt>
      <trkpt lat="45.86525" lon="6.45594">
        <ele>1776.7</ele>
        <time>2024-04-27T07:06:43Z</time>
      </trkpt>
      <trkpt lat="45.86525" lon="6.45593">
        <ele>1776.7</ele>
        <time>2024-04-27T07:06:44Z</time>
      </trkpt>
      <trkpt lat="45.86525" lon="6.45592">
        <ele>1776.7</ele>
        <time>2024-04-27T07:06:45Z</time>
      </trkpt>
      <trkpt lat="45.86525" lon="6.45592">
        <ele>1776.7</ele>
        <time>2024-04-27T07:06:46Z</time>
      </trkpt>
      <trkpt lat="45.86525" lon="6.45591">
        <ele>1776.7</ele>
        <time>2024-04-27T07:06:47Z</time>
      </trkpt>
      <trkpt lat="45.86525" lon="6.4559">
        <ele>1776.7</ele>
        <time>2024-04-27T07:06:48Z</time>
      </trkpt>
      <trkpt lat="45.86525" lon="6.4559">
        <ele>1776.7</ele>
        <time>2024-04-27T07:06:49Z</time>
      </trkpt>
      <trkpt lat="45.86525" lon="6.45589">
        <ele>1776.7</ele>
        <time>2024-04-27T07:06:50Z</time>
      </trkpt>
      <trkpt lat="45.86525" lon="6.45588">
        <ele>1777.6</ele>
        <time>2024-04-27T07:06:51Z</time>
      </trkpt>
      <trkpt lat="45.86525" lon="6.45587">
        <ele>1777.6</ele>
        <time>2024-04-27T07:06:52Z</time>
      </trkpt>
      <trkpt lat="45.86525" lon="6.45586">
        <ele>1777.6</ele>
        <time>2024-04-27T07:06:53Z</time>
      </trkpt>
      <trkpt lat="45.86525" lon="6.45585">
        <ele>1777.6</ele>
        <time>2024-04-27T07:06:54Z</time>
      </trkpt>
      <trkpt lat="45.86525" lon="6.45584">
        <ele>1777.6</ele>
        <time>2024-04-27T07:06:55Z</time>
      </trkpt>
      <trkpt lat="45.86525" lon="6.45583">
        <ele>1777.6</ele>
        <time>2024-04-27T07:06:56Z</time>
      </trkpt>
      <trkpt lat="45.86525" lon="6.45583">
        <ele>1778.7</ele>
        <time>2024-04-27T07:06:57Z</time>
      </trkpt>
      <trkpt lat="45.86525" lon="6.45582">
        <ele>1778.7</ele>
        <time>2024-04-27T07:06:58Z</time>
      </trkpt>
      <trkpt lat="45.86524" lon="6.45581">
        <ele>1778.7</ele>
        <time>2024-04-27T07:06:59Z</time>
      </trkpt>
      <trkpt lat="45.86524" lon="6.4558">
        <ele>1778.7</ele>
        <time>2024-04-27T07:07:00Z</time>
      </trkpt>
      <trkpt lat="45.86524" lon="6.45579">
        <ele>1779.6</ele>
        <time>2024-04-27T07:07:01Z</time>
      </trkpt>
      <trkpt lat="45.86524" lon="6.45578">
        <ele>1779.6</ele>
        <time>2024-04-27T07:07:02Z</time>
      </trkpt>
      <trkpt lat="45.86524" lon="6.45577">
        <ele>1779.6</ele>
        <time>2024-04-27T07:07:03Z</time>
      </trkpt>
      <trkpt lat="45.86524" lon="6.45576">
        <ele>1779.6</ele>
        <time>2024-04-27T07:07:04Z</time>
      </trkpt>
      <trkpt lat="45.86524" lon="6.45575">
        <ele>1779.6</ele>
        <time>2024-04-27T07:07:05Z</time>
      </trkpt>
      <trkpt lat="45.86524" lon="6.45575">
        <ele>1779.6</ele>
        <time>2024-04-27T07:07:06Z</time>
      </trkpt>
      <trkpt lat="45.86524" lon="6.45574">
        <ele>1779.6</ele>
        <time>2024-04-27T07:07:07Z</time>
      </trkpt>
      <trkpt lat="45.86524" lon="6.45573">
        <ele>1779.6</ele>
        <time>2024-04-27T07:07:08Z</time>
      </trkpt>
      <trkpt lat="45.86523" lon="6.45572">
        <ele>1779.6</ele>
        <time>2024-04-27T07:07:09Z</time>
      </trkpt>
      <trkpt lat="45.86523" lon="6.45571">
        <ele>1779.6</ele>
        <time>2024-04-27T07:07:10Z</time>
      </trkpt>
      <trkpt lat="45.86523" lon="6.4557">
        <ele>1779.6</ele>
        <time>2024-04-27T07:07:11Z</time>
      </trkpt>
      <trkpt lat="45.86523" lon="6.45569">
        <ele>1779.6</ele>
        <time>2024-04-27T07:07:12Z</time>
      </trkpt>
      <trkpt lat="45.86523" lon="6.45568">
        <ele>1779.6</ele>
        <time>2024-04-27T07:07:13Z</time>
      </trkpt>
      <trkpt lat="45.86523" lon="6.45567">
        <ele>1779.6</ele>
        <time>2024-04-27T07:07:14Z</time>
      </trkpt>
      <trkpt lat="45.86523" lon="6.45567">
        <ele>1779.6</ele>
        <time>2024-04-27T07:07:15Z</time>
      </trkpt>
      <trkpt lat="45.86523" lon="6.45566">
        <ele>1779.6</ele>
        <time>2024-04-27T07:07:16Z</time>
      </trkpt>
      <trkpt lat="45.86523" lon="6.45565">
        <ele>1781.6</ele>
        <time>2024-04-27T07:07:17Z</time>
      </trkpt>
      <trkpt lat="45.86523" lon="6.45564">
        <ele>1781.6</ele>
        <time>2024-04-27T07:07:18Z</time>
      </trkpt>
      <trkpt lat="45.86522" lon="6.45563">
        <ele>1782.6</ele>
        <time>2024-04-27T07:07:19Z</time>
      </trkpt>
      <trkpt lat="45.86522" lon="6.45562">
        <ele>1782.6</ele>
        <time>2024-04-27T07:07:20Z</time>
      </trkpt>
      <trkpt lat="45.86522" lon="6.45561">
        <ele>1783.7</ele>
        <time>2024-04-27T07:07:21Z</time>
      </trkpt>
      <trkpt lat="45.86522" lon="6.4556">
        <ele>1783.7</ele>
        <time>2024-04-27T07:07:22Z</time>
      </trkpt>
      <trkpt lat="45.86522" lon="6.45559">
        <ele>1783.7</ele>
        <time>2024-04-27T07:07:23Z</time>
      </trkpt>
      <trkpt lat="45.86522" lon="6.45559">
        <ele>1783.7</ele>
        <time>2024-04-27T07:07:24Z</time>
      </trkpt>
      <trkpt lat="45.86522" lon="6.45558">
        <ele>1783.7</ele>
        <time>2024-04-27T07:07:25Z</time>
      </trkpt>
      <trkpt lat="45.86521" lon="6.45557">
        <ele>1783.7</ele>
        <time>2024-04-27T07:07:26Z</time>
      </trkpt>
      <trkpt lat="45.86521" lon="6.45556">
        <ele>1784.6</ele>
        <time>2024-04-27T07:07:27Z</time>
      </trkpt>
      <trkpt lat="45.86521" lon="6.45556">
        <ele>1784.6</ele>
        <time>2024-04-27T07:07:28Z</time>
      </trkpt>
      <trkpt lat="45.86521" lon="6.45555">
        <ele>1784.6</ele>
        <time>2024-04-27T07:07:29Z</time>
      </trkpt>
      <trkpt lat="45.8652" lon="6.45554">
        <ele>1784.6</ele>
        <time>2024-04-27T07:07:30Z</time>
      </trkpt>
      <trkpt lat="45.8652" lon="6.45553">
        <ele>1784.6</ele>
        <time>2024-04-27T07:07:31Z</time>
      </trkpt>
      <trkpt lat="45.86519" lon="6.45552">
        <ele>1784.6</ele>
        <time>2024-04-27T07:07:32Z</time>
      </trkpt>
      <trkpt lat="45.86519" lon="6.45551">
        <ele>1784.6</ele>
        <time>2024-04-27T07:07:33Z</time>
      </trkpt>
      <trkpt lat="45.86519" lon="6.45551">
        <ele>1784.6</ele>
        <time>2024-04-27T07:07:34Z</time>
      </trkpt>
      <trkpt lat="45.86519" lon="6.4555">
        <ele>1785.7</ele>
        <time>2024-04-27T07:07:35Z</time>
      </trkpt>
      <trkpt lat="45.86518" lon="6.45549">
        <ele>1785.7</ele>
        <time>2024-04-27T07:07:36Z</time>
      </trkpt>
      <trkpt lat="45.86518" lon="6.45549">
        <ele>1785.7</ele>
        <time>2024-04-27T07:07:37Z</time>
      </trkpt>
      <trkpt lat="45.86518" lon="6.45548">
        <ele>1785.7</ele>
        <time>2024-04-27T07:07:38Z</time>
      </trkpt>
      <trkpt lat="45.86518" lon="6.45547">
        <ele>1785.7</ele>
        <time>2024-04-27T07:07:39Z</time>
      </trkpt>
      <trkpt lat="45.86517" lon="6.45547">
        <ele>1785.7</ele>
        <time>2024-04-27T07:07:40Z</time>
      </trkpt>
      <trkpt lat="45.86517" lon="6.45547">
        <ele>1785.7</ele>
        <time>2024-04-27T07:07:41Z</time>
      </trkpt>
      <trkpt lat="45.86517" lon="6.45547">
        <ele>1785.7</ele>
        <time>2024-04-27T07:07:42Z</time>
      </trkpt>
      <trkpt lat="45.86516" lon="6.45547">
        <ele>1786.6</ele>
        <time>2024-04-27T07:07:43Z</time>
      </trkpt>
      <trkpt lat="45.86516" lon="6.45547">
        <ele>1786.6</ele>
        <time>2024-04-27T07:07:44Z</time>
      </trkpt>
      <trkpt lat="45.86516" lon="6.45547">
        <ele>1786.6</ele>
        <time>2024-04-27T07:07:45Z</time>
      </trkpt>
      <trkpt lat="45.86516" lon="6.45547">
        <ele>1786.6</ele>
        <time>2024-04-27T07:07:46Z</time>
      </trkpt>
      <trkpt lat="45.86515" lon="6.45547">
        <ele>1786.6</ele>
        <time>2024-04-27T07:07:47Z</time>
      </trkpt>
      <trkpt lat="45.86515" lon="6.45547">
        <ele>1786.6</ele>
        <time>2024-04-27T07:07:48Z</time>
      </trkpt>
      <trkpt lat="45.86515" lon="6.45547">
        <ele>1787.7</ele>
        <time>2024-04-27T07:07:49Z</time>
      </trkpt>
      <trkpt lat="45.86514" lon="6.45548">
        <ele>1787.7</ele>
        <time>2024-04-27T07:07:50Z</time>
      </trkpt>
      <trkpt lat="45.86513" lon="6.45548">
        <ele>1787.7</ele>
        <time>2024-04-27T07:07:51Z</time>
      </trkpt>
      <trkpt lat="45.86513" lon="6.45547">
        <ele>1787.7</ele>
        <time>2024-04-27T07:07:52Z</time>
      </trkpt>
      <trkpt lat="45.86513" lon="6.45547">
        <ele>1788.6</ele>
        <time>2024-04-27T07:07:53Z</time>
      </trkpt>
      <trkpt lat="45.86513" lon="6.45547">
        <ele>1788.6</ele>
        <time>2024-04-27T07:07:54Z</time>
      </trkpt>
      <trkpt lat="45.86512" lon="6.45547">
        <ele>1788.6</ele>
        <time>2024-04-27T07:07:55Z</time>
      </trkpt>
      <trkpt lat="45.86513" lon="6.45548">
        <ele>1788.6</ele>
        <time>2024-04-27T07:07:56Z</time>
      </trkpt>
      <trkpt lat="45.86513" lon="6.45547">
        <ele>1789.7</ele>
        <time>2024-04-27T07:07:57Z</time>
      </trkpt>
      <trkpt lat="45.86513" lon="6.45546">
        <ele>1789.7</ele>
        <time>2024-04-27T07:07:58Z</time>
      </trkpt>
      <trkpt lat="45.86512" lon="6.45546">
        <ele>1789.7</ele>
        <time>2024-04-27T07:07:59Z</time>
      </trkpt>
      <trkpt lat="45.86512" lon="6.45546">
        <ele>1789.7</ele>
        <time>2024-04-27T07:08:00Z</time>
      </trkpt>
      <trkpt lat="45.86512" lon="6.45545">
        <ele>1790.6</ele>
        <time>2024-04-27T07:08:01Z</time>
      </trkpt>
      <trkpt lat="45.86511" lon="6.45545">
        <ele>1790.6</ele>
        <time>2024-04-27T07:08:02Z</time>
      </trkpt>
      <trkpt lat="45.86511" lon="6.45544">
        <ele>1791.6</ele>
        <time>2024-04-27T07:08:03Z</time>
      </trkpt>
      <trkpt lat="45.86511" lon="6.45544">
        <ele>1791.6</ele>
        <time>2024-04-27T07:08:04Z</time>
      </trkpt>
      <trkpt lat="45.86511" lon="6.45543">
        <ele>1791.6</ele>
        <time>2024-04-27T07:08:05Z</time>
      </trkpt>
      <trkpt lat="45.8651" lon="6.45543">
        <ele>1791.6</ele>
        <time>2024-04-27T07:08:06Z</time>
      </trkpt>
      <trkpt lat="45.8651" lon="6.45543">
        <ele>1791.6</ele>
        <time>2024-04-27T07:08:07Z</time>
      </trkpt>
      <trkpt lat="45.86509" lon="6.45543">
        <ele>1791.6</ele>
        <time>2024-04-27T07:08:08Z</time>
      </trkpt>
      <trkpt lat="45.86508" lon="6.45542">
        <ele>1791.6</ele>
        <time>2024-04-27T07:08:09Z</time>
      </trkpt>
      <trkpt lat="45.86508" lon="6.45541">
        <ele>1791.6</ele>
        <time>2024-04-27T07:08:10Z</time>
      </trkpt>
      <trkpt lat="45.86508" lon="6.4554">
        <ele>1792.7</ele>
        <time>2024-04-27T07:08:11Z</time>
      </trkpt>
      <trkpt lat="45.86508" lon="6.4554">
        <ele>1792.7</ele>
        <time>2024-04-27T07:08:12Z</time>
      </trkpt>
      <trkpt lat="45.86507" lon="6.4554">
        <ele>1792.7</ele>
        <time>2024-04-27T07:08:13Z</time>
      </trkpt>
      <trkpt lat="45.86507" lon="6.4554">
        <ele>1792.7</ele>
        <time>2024-04-27T07:08:14Z</time>
      </trkpt>
      <trkpt lat="45.86506" lon="6.4554">
        <ele>1793.6</ele>
        <time>2024-04-27T07:08:15Z</time>
      </trkpt>
      <trkpt lat="45.86506" lon="6.4554">
        <ele>1793.6</ele>
        <time>2024-04-27T07:08:16Z</time>
      </trkpt>
      <trkpt lat="45.86505" lon="6.4554">
        <ele>1793.6</ele>
        <time>2024-04-27T07:08:17Z</time>
      </trkpt>
      <trkpt lat="45.86505" lon="6.4554">
        <ele>1793.6</ele>
        <time>2024-04-27T07:08:18Z</time>
      </trkpt>
      <trkpt lat="45.86505" lon="6.4554">
        <ele>1794.7</ele>
        <time>2024-04-27T07:08:19Z</time>
      </trkpt>
      <trkpt lat="45.86504" lon="6.4554">
        <ele>1794.7</ele>
        <time>2024-04-27T07:08:20Z</time>
      </trkpt>
      <trkpt lat="45.86504" lon="6.4554">
        <ele>1794.7</ele>
        <time>2024-04-27T07:08:21Z</time>
      </trkpt>
      <trkpt lat="45.86503" lon="6.4554">
        <ele>1794.7</ele>
        <time>2024-04-27T07:08:22Z</time>
      </trkpt>
      <trkpt lat="45.86503" lon="6.4554">
        <ele>1795.6</ele>
        <time>2024-04-27T07:08:23Z</time>
      </trkpt>
      <trkpt lat="45.86503" lon="6.45539">
        <ele>1795.6</ele>
        <time>2024-04-27T07:08:24Z</time>
      </trkpt>
      <trkpt lat="45.86502" lon="6.45539">
        <ele>1795.6</ele>
        <time>2024-04-27T07:08:25Z</time>
      </trkpt>
      <trkpt lat="45.86501" lon="6.45539">
        <ele>1795.6</ele>
        <time>2024-04-27T07:08:26Z</time>
      </trkpt>
      <trkpt lat="45.86501" lon="6.45539">
        <ele>1796.7</ele>
        <time>2024-04-27T07:08:27Z</time>
      </trkpt>
      <trkpt lat="45.86501" lon="6.45539">
        <ele>1796.7</ele>
        <time>2024-04-27T07:08:28Z</time>
      </trkpt>
      <trkpt lat="45.865" lon="6.45539">
        <ele>1796.7</ele>
        <time>2024-04-27T07:08:29Z</time>
      </trkpt>
      <trkpt lat="45.865" lon="6.45539">
        <ele>1796.7</ele>
        <time>2024-04-27T07:08:30Z</time>
      </trkpt>
      <trkpt lat="45.865" lon="6.45539">
        <ele>1797.6</ele>
        <time>2024-04-27T07:08:31Z</time>
      </trkpt>
      <trkpt lat="45.86499" lon="6.45539">
        <ele>1797.6</ele>
        <time>2024-04-27T07:08:32Z</time>
      </trkpt>
      <trkpt lat="45.86499" lon="6.45539">
        <ele>1797.6</ele>
        <time>2024-04-27T07:08:33Z</time>
      </trkpt>
      <trkpt lat="45.86498" lon="6.45538">
        <ele>1797.6</ele>
        <time>2024-04-27T07:08:34Z</time>
      </trkpt>
      <trkpt lat="45.86498" lon="6.45538">
        <ele>1798.6</ele>
        <time>2024-04-27T07:08:35Z</time>
      </trkpt>
      <trkpt lat="45.86498" lon="6.45538">
        <ele>1798.6</ele>
        <time>2024-04-27T07:08:36Z</time>
      </trkpt>
      <trkpt lat="45.86497" lon="6.45538">
        <ele>1798.6</ele>
        <time>2024-04-27T07:08:37Z</time>
      </trkpt>
      <trkpt lat="45.86497" lon="6.45538">
        <ele>1798.6</ele>
        <time>2024-04-27T07:08:38Z</time>
      </trkpt>
      <trkpt lat="45.86497" lon="6.45537">
        <ele>1799.7</ele>
        <time>2024-04-27T07:08:39Z</time>
      </trkpt>
      <trkpt lat="45.86496" lon="6.45537">
        <ele>1799.7</ele>
        <time>2024-04-27T07:08:40Z</time>
      </trkpt>
      <trkpt lat="45.86496" lon="6.45537">
        <ele>1799.7</ele>
        <time>2024-04-27T07:08:41Z</time>
      </trkpt>
      <trkpt lat="45.86495" lon="6.45537">
        <ele>1799.7</ele>
        <time>2024-04-27T07:08:42Z</time>
      </trkpt>
      <trkpt lat="45.86495" lon="6.45536">
        <ele>1800.6</ele>
        <time>2024-04-27T07:08:43Z</time>
      </trkpt>
      <trkpt lat="45.86494" lon="6.45536">
        <ele>1800.6</ele>
        <time>2024-04-27T07:08:44Z</time>
      </trkpt>
      <trkpt lat="45.86494" lon="6.45536">
        <ele>1800.6</ele>
        <time>2024-04-27T07:08:45Z</time>
      </trkpt>
      <trkpt lat="45.86494" lon="6.45535">
        <ele>1800.6</ele>
        <time>2024-04-27T07:08:46Z</time>
      </trkpt>
      <trkpt lat="45.86493" lon="6.45535">
        <ele>1800.6</ele>
        <time>2024-04-27T07:08:47Z</time>
      </trkpt>
      <trkpt lat="45.86493" lon="6.45535">
        <ele>1800.6</ele>
        <time>2024-04-27T07:08:48Z</time>
      </trkpt>
      <trkpt lat="45.86493" lon="6.45535">
        <ele>1800.6</ele>
        <time>2024-04-27T07:08:49Z</time>
      </trkpt>
      <trkpt lat="45.86492" lon="6.45535">
        <ele>1800.6</ele>
        <time>2024-04-27T07:08:50Z</time>
      </trkpt>
      <trkpt lat="45.86492" lon="6.45535">
        <ele>1800.6</ele>
        <time>2024-04-27T07:08:51Z</time>
      </trkpt>
      <trkpt lat="45.86491" lon="6.45534">
        <ele>1800.6</ele>
        <time>2024-04-27T07:08:52Z</time>
      </trkpt>
      <trkpt lat="45.86491" lon="6.45534">
        <ele>1800.6</ele>
        <time>2024-04-27T07:08:53Z</time>
      </trkpt>
      <trkpt lat="45.86491" lon="6.45534">
        <ele>1800.6</ele>
        <time>2024-04-27T07:08:54Z</time>
      </trkpt>
      <trkpt lat="45.8649" lon="6.45534">
        <ele>1803.7</ele>
        <time>2024-04-27T07:08:55Z</time>
      </trkpt>
      <trkpt lat="45.8649" lon="6.45534">
        <ele>1803.7</ele>
        <time>2024-04-27T07:08:56Z</time>
      </trkpt>
      <trkpt lat="45.8649" lon="6.45533">
        <ele>1803.7</ele>
        <time>2024-04-27T07:08:57Z</time>
      </trkpt>
      <trkpt lat="45.86489" lon="6.45533">
        <ele>1803.7</ele>
        <time>2024-04-27T07:08:58Z</time>
      </trkpt>
      <trkpt lat="45.86489" lon="6.45533">
        <ele>1804.6</ele>
        <time>2024-04-27T07:08:59Z</time>
      </trkpt>
      <trkpt lat="45.86489" lon="6.45533">
        <ele>1804.6</ele>
        <time>2024-04-27T07:09:00Z</time>
      </trkpt>
      <trkpt lat="45.86488" lon="6.45533">
        <ele>1804.6</ele>
        <time>2024-04-27T07:09:01Z</time>
      </trkpt>
      <trkpt lat="45.86488" lon="6.45534">
        <ele>1804.6</ele>
        <time>2024-04-27T07:09:02Z</time>
      </trkpt>
      <trkpt lat="45.86488" lon="6.45533">
        <ele>1805.7</ele>
        <time>2024-04-27T07:09:03Z</time>
      </trkpt>
      <trkpt lat="45.86487" lon="6.45533">
        <ele>1805.7</ele>
        <time>2024-04-27T07:09:04Z</time>
      </trkpt>
      <trkpt lat="45.86487" lon="6.45533">
        <ele>1805.7</ele>
        <time>2024-04-27T07:09:05Z</time>
      </trkpt>
      <trkpt lat="45.86486" lon="6.45533">
        <ele>1805.7</ele>
        <time>2024-04-27T07:09:06Z</time>
      </trkpt>
      <trkpt lat="45.86486" lon="6.45533">
        <ele>1805.7</ele>
        <time>2024-04-27T07:09:07Z</time>
      </trkpt>
      <trkpt lat="45.86485" lon="6.45533">
        <ele>1805.7</ele>
        <time>2024-04-27T07:09:08Z</time>
      </trkpt>
      <trkpt lat="45.86485" lon="6.45533">
        <ele>1805.7</ele>
        <time>2024-04-27T07:09:09Z</time>
      </trkpt>
      <trkpt lat="45.86484" lon="6.45533">
        <ele>1805.7</ele>
        <time>2024-04-27T07:09:10Z</time>
      </trkpt>
      <trkpt lat="45.86484" lon="6.45533">
        <ele>1807.6</ele>
        <time>2024-04-27T07:09:11Z</time>
      </trkpt>
      <trkpt lat="45.86483" lon="6.45532">
        <ele>1807.6</ele>
        <time>2024-04-27T07:09:12Z</time>
      </trkpt>
      <trkpt lat="45.86483" lon="6.45532">
        <ele>1807.6</ele>
        <time>2024-04-27T07:09:13Z</time>
      </trkpt>
      <trkpt lat="45.86482" lon="6.45532">
        <ele>1807.6</ele>
        <time>2024-04-27T07:09:14Z</time>
      </trkpt>
      <trkpt lat="45.86482" lon="6.45533">
        <ele>1808.7</ele>
        <time>2024-04-27T07:09:15Z</time>
      </trkpt>
      <trkpt lat="45.86481" lon="6.45533">
        <ele>1808.7</ele>
        <time>2024-04-27T07:09:16Z</time>
      </trkpt>
      <trkpt lat="45.86481" lon="6.45532">
        <ele>1808.7</ele>
        <time>2024-04-27T07:09:17Z</time>
      </trkpt>
      <trkpt lat="45.8648" lon="6.45532">
        <ele>1808.7</ele>
        <time>2024-04-27T07:09:18Z</time>
      </trkpt>
      <trkpt lat="45.8648" lon="6.45532">
        <ele>1808.7</ele>
        <time>2024-04-27T07:09:19Z</time>
      </trkpt>
      <trkpt lat="45.8648" lon="6.45532">
        <ele>1808.7</ele>
        <time>2024-04-27T07:09:20Z</time>
      </trkpt>
      <trkpt lat="45.8648" lon="6.45531">
        <ele>1809.6</ele>
        <time>2024-04-27T07:09:21Z</time>
      </trkpt>
      <trkpt lat="45.86479" lon="6.45531">
        <ele>1809.6</ele>
        <time>2024-04-27T07:09:22Z</time>
      </trkpt>
      <trkpt lat="45.86478" lon="6.4553">
        <ele>1809.6</ele>
        <time>2024-04-27T07:09:23Z</time>
      </trkpt>
      <trkpt lat="45.86478" lon="6.4553">
        <ele>1809.6</ele>
        <time>2024-04-27T07:09:24Z</time>
      </trkpt>
      <trkpt lat="45.86478" lon="6.4553">
        <ele>1810.7</ele>
        <time>2024-04-27T07:09:25Z</time>
      </trkpt>
      <trkpt lat="45.86478" lon="6.45529">
        <ele>1810.7</ele>
        <time>2024-04-27T07:09:26Z</time>
      </trkpt>
      <trkpt lat="45.86477" lon="6.4553">
        <ele>1810.7</ele>
        <time>2024-04-27T07:09:27Z</time>
      </trkpt>
      <trkpt lat="45.86477" lon="6.4553">
        <ele>1810.7</ele>
        <time>2024-04-27T07:09:28Z</time>
      </trkpt>
      <trkpt lat="45.86476" lon="6.45529">
        <ele>1811.6</ele>
        <time>2024-04-27T07:09:29Z</time>
      </trkpt>
      <trkpt lat="45.86476" lon="6.4553">
        <ele>1811.6</ele>
        <time>2024-04-27T07:09:30Z</time>
      </trkpt>
      <trkpt lat="45.86476" lon="6.4553">
        <ele>1811.6</ele>
        <time>2024-04-27T07:09:31Z</time>
      </trkpt>
      <trkpt lat="45.86475" lon="6.4553">
        <ele>1811.6</ele>
        <time>2024-04-27T07:09:32Z</time>
      </trkpt>
      <trkpt lat="45.86475" lon="6.45529">
        <ele>1811.6</ele>
        <time>2024-04-27T07:09:33Z</time>
      </trkpt>
      <trkpt lat="45.86474" lon="6.45529">
        <ele>1812.7</ele>
        <time>2024-04-27T07:09:34Z</time>
      </trkpt>
      <trkpt lat="45.86474" lon="6.45529">
        <ele>1812.7</ele>
        <time>2024-04-27T07:09:35Z</time>
      </trkpt>
      <trkpt lat="45.86474" lon="6.45528">
        <ele>1812.7</ele>
        <time>2024-04-27T07:09:36Z</time>
      </trkpt>
      <trkpt lat="45.86474" lon="6.45528">
        <ele>1812.7</ele>
        <time>2024-04-27T07:09:37Z</time>
      </trkpt>
      <trkpt lat="45.86473" lon="6.45528">
        <ele>1812.7</ele>
        <time>2024-04-27T07:09:38Z</time>
      </trkpt>
      <trkpt lat="45.86473" lon="6.45528">
        <ele>1812.7</ele>
        <time>2024-04-27T07:09:39Z</time>
      </trkpt>
      <trkpt lat="45.86472" lon="6.45528">
        <ele>1813.6</ele>
        <time>2024-04-27T07:09:40Z</time>
      </trkpt>
      <trkpt lat="45.86472" lon="6.45528">
        <ele>1813.6</ele>
        <time>2024-04-27T07:09:41Z</time>
      </trkpt>
      <trkpt lat="45.86471" lon="6.45528">
        <ele>1813.6</ele>
        <time>2024-04-27T07:09:42Z</time>
      </trkpt>
      <trkpt lat="45.86471" lon="6.45527">
        <ele>1813.6</ele>
        <time>2024-04-27T07:09:43Z</time>
      </trkpt>
      <trkpt lat="45.86471" lon="6.45527">
        <ele>1813.6</ele>
        <time>2024-04-27T07:09:44Z</time>
      </trkpt>
      <trkpt lat="45.86471" lon="6.45526">
        <ele>1813.6</ele>
        <time>2024-04-27T07:09:45Z</time>
      </trkpt>
      <trkpt lat="45.86471" lon="6.45526">
        <ele>1814.6</ele>
        <time>2024-04-27T07:09:46Z</time>
      </trkpt>
      <trkpt lat="45.86471" lon="6.45526">
        <ele>1814.6</ele>
        <time>2024-04-27T07:09:47Z</time>
      </trkpt>
      <trkpt lat="45.86471" lon="6.45526">
        <ele>1814.6</ele>
        <time>2024-04-27T07:09:48Z</time>
      </trkpt>
      <trkpt lat="45.86471" lon="6.45526">
        <ele>1814.6</ele>
        <time>2024-04-27T07:09:49Z</time>
      </trkpt>
      <trkpt lat="45.8647" lon="6.45526">
        <ele>1814.6</ele>
        <time>2024-04-27T07:09:50Z</time>
      </trkpt>
      <trkpt lat="45.8647" lon="6.45526">
        <ele>1814.6</ele>
        <time>2024-04-27T07:09:51Z</time>
      </trkpt>
      <trkpt lat="45.8647" lon="6.45526">
        <ele>1814.6</ele>
        <time>2024-04-27T07:09:52Z</time>
      </trkpt>
      <trkpt lat="45.86469" lon="6.45527">
        <ele>1814.6</ele>
        <time>2024-04-27T07:09:53Z</time>
      </trkpt>
      <trkpt lat="45.86469" lon="6.45527">
        <ele>1815.7</ele>
        <time>2024-04-27T07:09:54Z</time>
      </trkpt>
      <trkpt lat="45.86468" lon="6.45527">
        <ele>1815.7</ele>
        <time>2024-04-27T07:09:55Z</time>
      </trkpt>
      <trkpt lat="45.86468" lon="6.45527">
        <ele>1815.7</ele>
        <time>2024-04-27T07:09:56Z</time>
      </trkpt>
      <trkpt lat="45.86468" lon="6.45527">
        <ele>1815.7</ele>
        <time>2024-04-27T07:09:57Z</time>
      </trkpt>
      <trkpt lat="45.86468" lon="6.45527">
        <ele>1816.6</ele>
        <time>2024-04-27T07:09:58Z</time>
      </trkpt>
      <trkpt lat="45.86467" lon="6.45526">
        <ele>1816.6</ele>
        <time>2024-04-27T07:09:59Z</time>
      </trkpt>
      <trkpt lat="45.86467" lon="6.45526">
        <ele>1816.6</ele>
        <time>2024-04-27T07:10:00Z</time>
      </trkpt>
      <trkpt lat="45.86466" lon="6.45525">
        <ele>1816.6</ele>
        <time>2024-04-27T07:10:01Z</time>
      </trkpt>
      <trkpt lat="45.86467" lon="6.45524">
        <ele>1816.6</ele>
        <time>2024-04-27T07:10:02Z</time>
      </trkpt>
      <trkpt lat="45.86467" lon="6.45524">
        <ele>1816.6</ele>
        <time>2024-04-27T07:10:03Z</time>
      </trkpt>
      <trkpt lat="45.86467" lon="6.45523">
        <ele>1816.6</ele>
        <time>2024-04-27T07:10:04Z</time>
      </trkpt>
      <trkpt lat="45.86466" lon="6.45522">
        <ele>1816.6</ele>
        <time>2024-04-27T07:10:05Z</time>
      </trkpt>
      <trkpt lat="45.86466" lon="6.45522">
        <ele>1816.6</ele>
        <time>2024-04-27T07:10:06Z</time>
      </trkpt>
      <trkpt lat="45.86465" lon="6.45522">
        <ele>1816.6</ele>
        <time>2024-04-27T07:10:07Z</time>
      </trkpt>
      <trkpt lat="45.86465" lon="6.45522">
        <ele>1816.6</ele>
        <time>2024-04-27T07:10:08Z</time>
      </trkpt>
      <trkpt lat="45.86464" lon="6.45521">
        <ele>1816.6</ele>
        <time>2024-04-27T07:10:09Z</time>
      </trkpt>
      <trkpt lat="45.86464" lon="6.45521">
        <ele>1818.6</ele>
        <time>2024-04-27T07:10:10Z</time>
      </trkpt>
      <trkpt lat="45.86463" lon="6.45521">
        <ele>1818.6</ele>
        <time>2024-04-27T07:10:11Z</time>
      </trkpt>
      <trkpt lat="45.86463" lon="6.45521">
        <ele>1819.7</ele>
        <time>2024-04-27T07:10:12Z</time>
      </trkpt>
      <trkpt lat="45.86462" lon="6.4552">
        <ele>1819.7</ele>
        <time>2024-04-27T07:10:13Z</time>
      </trkpt>
      <trkpt lat="45.86462" lon="6.45519">
        <ele>1819.7</ele>
        <time>2024-04-27T07:10:14Z</time>
      </trkpt>
      <trkpt lat="45.86462" lon="6.45518">
        <ele>1819.7</ele>
        <time>2024-04-27T07:10:15Z</time>
      </trkpt>
      <trkpt lat="45.86462" lon="6.45518">
        <ele>1819.7</ele>
        <time>2024-04-27T07:10:16Z</time>
      </trkpt>
      <trkpt lat="45.86462" lon="6.45517">
        <ele>1819.7</ele>
        <time>2024-04-27T07:10:17Z</time>
      </trkpt>
      <trkpt lat="45.86461" lon="6.45517">
        <ele>1819.7</ele>
        <time>2024-04-27T07:10:18Z</time>
      </trkpt>
      <trkpt lat="45.86461" lon="6.45517">
        <ele>1819.7</ele>
        <time>2024-04-27T07:10:19Z</time>
      </trkpt>
      <trkpt lat="45.86461" lon="6.45518">
        <ele>1820.6</ele>
        <time>2024-04-27T07:10:20Z</time>
      </trkpt>
      <trkpt lat="45.86461" lon="6.45518">
        <ele>1820.6</ele>
        <time>2024-04-27T07:10:21Z</time>
      </trkpt>
      <trkpt lat="45.86461" lon="6.45518">
        <ele>1820.6</ele>
        <time>2024-04-27T07:10:22Z</time>
      </trkpt>
      <trkpt lat="45.86462" lon="6.45517">
        <ele>1820.6</ele>
        <time>2024-04-27T07:10:23Z</time>
      </trkpt>
      <trkpt lat="45.86462" lon="6.45517">
        <ele>1820.6</ele>
        <time>2024-04-27T07:10:24Z</time>
      </trkpt>
      <trkpt lat="45.86463" lon="6.45517">
        <ele>1820.6</ele>
        <time>2024-04-27T07:10:25Z</time>
      </trkpt>
      <trkpt lat="45.86464" lon="6.45516">
        <ele>1820.6</ele>
        <time>2024-04-27T07:10:26Z</time>
      </trkpt>
      <trkpt lat="45.86464" lon="6.45516">
        <ele>1820.6</ele>
        <time>2024-04-27T07:10:27Z</time>
      </trkpt>
      <trkpt lat="45.86463" lon="6.45515">
        <ele>1819.7</ele>
        <time>2024-04-27T07:10:28Z</time>
      </trkpt>
      <trkpt lat="45.86462" lon="6.45515">
        <ele>1819.7</ele>
        <time>2024-04-27T07:10:29Z</time>
      </trkpt>
      <trkpt lat="45.86461" lon="6.45516">
        <ele>1819.7</ele>
        <time>2024-04-27T07:10:30Z</time>
      </trkpt>
      <trkpt lat="45.86461" lon="6.45515">
        <ele>1819.7</ele>
        <time>2024-04-27T07:10:31Z</time>
      </trkpt>
      <trkpt lat="45.86461" lon="6.45515">
        <ele>1819.7</ele>
        <time>2024-04-27T07:10:32Z</time>
      </trkpt>
      <trkpt lat="45.86461" lon="6.45515">
        <ele>1819.7</ele>
        <time>2024-04-27T07:10:33Z</time>
      </trkpt>
      <trkpt lat="45.86461" lon="6.45515">
        <ele>1819.7</ele>
        <time>2024-04-27T07:10:34Z</time>
      </trkpt>
      <trkpt lat="45.86461" lon="6.45515">
        <ele>1819.7</ele>
        <time>2024-04-27T07:10:35Z</time>
      </trkpt>
      <trkpt lat="45.86461" lon="6.45515">
        <ele>1819.7</ele>
        <time>2024-04-27T07:10:36Z</time>
      </trkpt>
      <trkpt lat="45.86461" lon="6.45515">
        <ele>1819.7</ele>
        <time>2024-04-27T07:10:37Z</time>
      </trkpt>
      <trkpt lat="45.86461" lon="6.45515">
        <ele>1819.7</ele>
        <time>2024-04-27T07:10:38Z</time>
      </trkpt>
      <trkpt lat="45.86461" lon="6.45515">
        <ele>1819.7</ele>
        <time>2024-04-27T07:10:39Z</time>
      </trkpt>
      <trkpt lat="45.86461" lon="6.45515">
        <ele>1819.7</ele>
        <time>2024-04-27T07:10:40Z</time>
      </trkpt>
      <trkpt lat="45.86461" lon="6.45515">
        <ele>1819.7</ele>
        <time>2024-04-27T07:10:41Z</time>
      </trkpt>
      <trkpt lat="45.86461" lon="6.45515">
        <ele>1819.7</ele>
        <time>2024-04-27T07:10:42Z</time>
      </trkpt>
      <trkpt lat="45.86461" lon="6.45515">
        <ele>1819.7</ele>
        <time>2024-04-27T07:10:43Z</time>
      </trkpt>
      <trkpt lat="45.86461" lon="6.45515">
        <ele>1819.7</ele>
        <time>2024-04-27T07:10:44Z</time>
      </trkpt>
      <trkpt lat="45.86461" lon="6.45515">
        <ele>1819.7</ele>
        <time>2024-04-27T07:10:45Z</time>
      </trkpt>
      <trkpt lat="45.86461" lon="6.45515">
        <ele>1820.6</ele>
        <time>2024-04-27T07:10:46Z</time>
      </trkpt>
      <trkpt lat="45.86461" lon="6.45515">
        <ele>1820.6</ele>
        <time>2024-04-27T07:10:47Z</time>
      </trkpt>
      <trkpt lat="45.86461" lon="6.45515">
        <ele>1820.6</ele>
        <time>2024-04-27T07:10:48Z</time>
      </trkpt>
      <trkpt lat="45.86461" lon="6.45515">
        <ele>1820.6</ele>
        <time>2024-04-27T07:10:49Z</time>
      </trkpt>
      <trkpt lat="45.86461" lon="6.45515">
        <ele>1820.6</ele>
        <time>2024-04-27T07:10:50Z</time>
      </trkpt>
      <trkpt lat="45.86461" lon="6.45515">
        <ele>1820.6</ele>
        <time>2024-04-27T07:10:51Z</time>
      </trkpt>
      <trkpt lat="45.86461" lon="6.45515">
        <ele>1820.6</ele>
        <time>2024-04-27T07:10:52Z</time>
      </trkpt>
      <trkpt lat="45.86461" lon="6.45515">
        <ele>1820.6</ele>
        <time>2024-04-27T07:10:53Z</time>
      </trkpt>
      <trkpt lat="45.86461" lon="6.45515">
        <ele>1820.6</ele>
        <time>2024-04-27T07:10:54Z</time>
      </trkpt>
      <trkpt lat="45.86461" lon="6.45515">
        <ele>1820.6</ele>
        <time>2024-04-27T07:10:55Z</time>
      </trkpt>
      <trkpt lat="45.86461" lon="6.45515">
        <ele>1820.6</ele>
        <time>2024-04-27T07:10:56Z</time>
      </trkpt>
      <trkpt lat="45.86461" lon="6.45515">
        <ele>1820.6</ele>
        <time>2024-04-27T07:10:57Z</time>
      </trkpt>
      <trkpt lat="45.86461" lon="6.45515">
        <ele>1819.7</ele>
        <time>2024-04-27T07:10:58Z</time>
      </trkpt>
      <trkpt lat="45.86461" lon="6.45515">
        <ele>1819.7</ele>
        <time>2024-04-27T07:10:59Z</time>
      </trkpt>
      <trkpt lat="45.86461" lon="6.45515">
        <ele>1819.7</ele>
        <time>2024-04-27T07:11:00Z</time>
      </trkpt>
      <trkpt lat="45.86461" lon="6.45515">
        <ele>1819.7</ele>
        <time>2024-04-27T07:11:01Z</time>
      </trkpt>
      <trkpt lat="45.86461" lon="6.45515">
        <ele>1819.7</ele>
        <time>2024-04-27T07:11:02Z</time>
      </trkpt>
      <trkpt lat="45.86461" lon="6.45515">
        <ele>1819.7</ele>
        <time>2024-04-27T07:11:03Z</time>
      </trkpt>
      <trkpt lat="45.86461" lon="6.45515">
        <ele>1819.7</ele>
        <time>2024-04-27T07:11:04Z</time>
      </trkpt>
      <trkpt lat="45.86461" lon="6.45515">
        <ele>1819.7</ele>
        <time>2024-04-27T07:11:05Z</time>
      </trkpt>
      <trkpt lat="45.86461" lon="6.45515">
        <ele>1819.7</ele>
        <time>2024-04-27T07:11:06Z</time>
      </trkpt>
      <trkpt lat="45.86461" lon="6.45516">
        <ele>1819.7</ele>
        <time>2024-04-27T07:11:07Z</time>
      </trkpt>
      <trkpt lat="45.86461" lon="6.45516">
        <ele>1820.6</ele>
        <time>2024-04-27T07:11:08Z</time>
      </trkpt>
      <trkpt lat="45.86461" lon="6.45516">
        <ele>1820.6</ele>
        <time>2024-04-27T07:11:09Z</time>
      </trkpt>
      <trkpt lat="45.86461" lon="6.45516">
        <ele>1820.6</ele>
        <time>2024-04-27T07:11:10Z</time>
      </trkpt>
      <trkpt lat="45.86461" lon="6.45516">
        <ele>1820.6</ele>
        <time>2024-04-27T07:11:11Z</time>
      </trkpt>
      <trkpt lat="45.86461" lon="6.45517">
        <ele>1820.6</ele>
        <time>2024-04-27T07:11:12Z</time>
      </trkpt>
      <trkpt lat="45.86461" lon="6.45517">
        <ele>1820.6</ele>
        <time>2024-04-27T07:11:13Z</time>
      </trkpt>
      <trkpt lat="45.86461" lon="6.45517">
        <ele>1820.6</ele>
        <time>2024-04-27T07:11:14Z</time>
      </trkpt>
      <trkpt lat="45.86461" lon="6.45517">
        <ele>1820.6</ele>
        <time>2024-04-27T07:11:15Z</time>
      </trkpt>
      <trkpt lat="45.86461" lon="6.45516">
        <ele>1820.6</ele>
        <time>2024-04-27T07:11:16Z</time>
      </trkpt>
      <trkpt lat="45.86461" lon="6.45516">
        <ele>1820.6</ele>
        <time>2024-04-27T07:11:17Z</time>
      </trkpt>
      <trkpt lat="45.86461" lon="6.45516">
        <ele>1820.6</ele>
        <time>2024-04-27T07:11:18Z</time>
      </trkpt>
      <trkpt lat="45.86462" lon="6.45516">
        <ele>1820.6</ele>
        <time>2024-04-27T07:11:19Z</time>
      </trkpt>
      <trkpt lat="45.86462" lon="6.45516">
        <ele>1820.6</ele>
        <time>2024-04-27T07:11:20Z</time>
      </trkpt>
      <trkpt lat="45.86462" lon="6.45516">
        <ele>1820.6</ele>
        <time>2024-04-27T07:11:21Z</time>
      </trkpt>
      <trkpt lat="45.86462" lon="6.45516">
        <ele>1819.7</ele>
        <time>2024-04-27T07:11:22Z</time>
      </trkpt>
      <trkpt lat="45.86463" lon="6.45516">
        <ele>1819.7</ele>
        <time>2024-04-27T07:11:23Z</time>
      </trkpt>
      <trkpt lat="45.86463" lon="6.45516">
        <ele>1819.7</ele>
        <time>2024-04-27T07:11:24Z</time>
      </trkpt>
      <trkpt lat="45.86463" lon="6.45516">
        <ele>1819.7</ele>
        <time>2024-04-27T07:11:25Z</time>
      </trkpt>
      <trkpt lat="45.86463" lon="6.45516">
        <ele>1820.6</ele>
        <time>2024-04-27T07:11:26Z</time>
      </trkpt>
      <trkpt lat="45.86463" lon="6.45516">
        <ele>1820.6</ele>
        <time>2024-04-27T07:11:27Z</time>
      </trkpt>
      <trkpt lat="45.86463" lon="6.45516">
        <ele>1821.7</ele>
        <time>2024-04-27T07:11:28Z</time>
      </trkpt>
      <trkpt lat="45.86463" lon="6.45516">
        <ele>1821.7</ele>
        <time>2024-04-27T07:11:29Z</time>
      </trkpt>
      <trkpt lat="45.86463" lon="6.45516">
        <ele>1821.7</ele>
        <time>2024-04-27T07:11:30Z</time>
      </trkpt>
      <trkpt lat="45.86463" lon="6.45516">
        <ele>1821.7</ele>
        <time>2024-04-27T07:11:31Z</time>
      </trkpt>
      <trkpt lat="45.86463" lon="6.45516">
        <ele>1821.7</ele>
        <time>2024-04-27T07:11:32Z</time>
      </trkpt>
      <trkpt lat="45.86463" lon="6.45516">
        <ele>1821.7</ele>
        <time>2024-04-27T07:11:33Z</time>
      </trkpt>
      <trkpt lat="45.86463" lon="6.45516">
        <ele>1821.7</ele>
        <time>2024-04-27T07:11:34Z</time>
      </trkpt>
      <trkpt lat="45.86463" lon="6.45516">
        <ele>1821.7</ele>
        <time>2024-04-27T07:11:35Z</time>
      </trkpt>
      <trkpt lat="45.86463" lon="6.45516">
        <ele>1821.7</ele>
        <time>2024-04-27T07:11:36Z</time>
      </trkpt>
      <trkpt lat="45.86463" lon="6.45516">
        <ele>1821.7</ele>
        <time>2024-04-27T07:11:37Z</time>
      </trkpt>
      <trkpt lat="45.86463" lon="6.45516">
        <ele>1821.7</ele>
        <time>2024-04-27T07:11:38Z</time>
      </trkpt>
      <trkpt lat="45.86463" lon="6.45516">
        <ele>1821.7</ele>
        <time>2024-04-27T07:11:39Z</time>
      </trkpt>
      <trkpt lat="45.86463" lon="6.45516">
        <ele>1821.7</ele>
        <time>2024-04-27T07:11:40Z</time>
      </trkpt>
      <trkpt lat="45.86463" lon="6.45516">
        <ele>1821.7</ele>
        <time>2024-04-27T07:11:41Z</time>
      </trkpt>
      <trkpt lat="45.86463" lon="6.45516">
        <ele>1821.7</ele>
        <time>2024-04-27T07:11:42Z</time>
      </trkpt>
      <trkpt lat="45.86462" lon="6.45516">
        <ele>1821.7</ele>
        <time>2024-04-27T07:11:43Z</time>
      </trkpt>
      <trkpt lat="45.86462" lon="6.45516">
        <ele>1821.7</ele>
        <time>2024-04-27T07:11:44Z</time>
      </trkpt>
      <trkpt lat="45.86461" lon="6.45516">
        <ele>1821.7</ele>
        <time>2024-04-27T07:11:45Z</time>
      </trkpt>
      <trkpt lat="45.8646" lon="6.45516">
        <ele>1821.7</ele>
        <time>2024-04-27T07:11:46Z</time>
      </trkpt>
      <trkpt lat="45.86459" lon="6.45516">
        <ele>1821.7</ele>
        <time>2024-04-27T07:11:47Z</time>
      </trkpt>
      <trkpt lat="45.86458" lon="6.45516">
        <ele>1823.6</ele>
        <time>2024-04-27T07:11:48Z</time>
      </trkpt>
      <trkpt lat="45.86457" lon="6.45516">
        <ele>1823.6</ele>
        <time>2024-04-27T07:11:49Z</time>
      </trkpt>
      <trkpt lat="45.86456" lon="6.45517">
        <ele>1823.6</ele>
        <time>2024-04-27T07:11:50Z</time>
      </trkpt>
      <trkpt lat="45.86455" lon="6.45517">
        <ele>1823.6</ele>
        <time>2024-04-27T07:11:51Z</time>
      </trkpt>
      <trkpt lat="45.86453" lon="6.45516">
        <ele>1823.6</ele>
        <time>2024-04-27T07:11:52Z</time>
      </trkpt>
      <trkpt lat="45.86452" lon="6.45517">
        <ele>1823.6</ele>
        <time>2024-04-27T07:11:53Z</time>
      </trkpt>
      <trkpt lat="45.8645" lon="6.45517">
        <ele>1823.6</ele>
        <time>2024-04-27T07:11:54Z</time>
      </trkpt>
      <trkpt lat="45.86449" lon="6.45517">
        <ele>1823.6</ele>
        <time>2024-04-27T07:11:55Z</time>
      </trkpt>
      <trkpt lat="45.86449" lon="6.45517">
        <ele>1824.7</ele>
        <time>2024-04-27T07:11:56Z</time>
      </trkpt>
      <trkpt lat="45.86449" lon="6.45517">
        <ele>1824.7</ele>
        <time>2024-04-27T07:11:57Z</time>
      </trkpt>
      <trkpt lat="45.86449" lon="6.45517">
        <ele>1824.7</ele>
        <time>2024-04-27T07:11:58Z</time>
      </trkpt>
      <trkpt lat="45.86448" lon="6.45517">
        <ele>1824.7</ele>
        <time>2024-04-27T07:11:59Z</time>
      </trkpt>
      <trkpt lat="45.86448" lon="6.45517">
        <ele>1824.7</ele>
        <time>2024-04-27T07:12:00Z</time>
      </trkpt>
      <trkpt lat="45.86447" lon="6.45517">
        <ele>1824.7</ele>
        <time>2024-04-27T07:12:01Z</time>
      </trkpt>
      <trkpt lat="45.86447" lon="6.45517">
        <ele>1824.7</ele>
        <time>2024-04-27T07:12:02Z</time>
      </trkpt>
      <trkpt lat="45.86446" lon="6.45517">
        <ele>1824.7</ele>
        <time>2024-04-27T07:12:03Z</time>
      </trkpt>
      <trkpt lat="45.86446" lon="6.45517">
        <ele>1826.7</ele>
        <time>2024-04-27T07:12:04Z</time>
      </trkpt>
      <trkpt lat="45.86445" lon="6.45518">
        <ele>1826.7</ele>
        <time>2024-04-27T07:12:05Z</time>
      </trkpt>
      <trkpt lat="45.86445" lon="6.45518">
        <ele>1826.7</ele>
        <time>2024-04-27T07:12:06Z</time>
      </trkpt>
      <trkpt lat="45.86445" lon="6.45519">
        <ele>1826.7</ele>
        <time>2024-04-27T07:12:07Z</time>
      </trkpt>
      <trkpt lat="45.86444" lon="6.45519">
        <ele>1827.6</ele>
        <time>2024-04-27T07:12:08Z</time>
      </trkpt>
      <trkpt lat="45.86444" lon="6.4552">
        <ele>1827.6</ele>
        <time>2024-04-27T07:12:09Z</time>
      </trkpt>
      <trkpt lat="45.86444" lon="6.4552">
        <ele>1827.6</ele>
        <time>2024-04-27T07:12:10Z</time>
      </trkpt>
      <trkpt lat="45.86443" lon="6.45521">
        <ele>1827.6</ele>
        <time>2024-04-27T07:12:11Z</time>
      </trkpt>
      <trkpt lat="45.86443" lon="6.45521">
        <ele>1828.7</ele>
        <time>2024-04-27T07:12:12Z</time>
      </trkpt>
      <trkpt lat="45.86442" lon="6.45522">
        <ele>1828.7</ele>
        <time>2024-04-27T07:12:13Z</time>
      </trkpt>
      <trkpt lat="45.86442" lon="6.45522">
        <ele>1828.7</ele>
        <time>2024-04-27T07:12:14Z</time>
      </trkpt>
      <trkpt lat="45.86442" lon="6.45522">
        <ele>1828.7</ele>
        <time>2024-04-27T07:12:15Z</time>
      </trkpt>
      <trkpt lat="45.86441" lon="6.45523">
        <ele>1828.7</ele>
        <time>2024-04-27T07:12:16Z</time>
      </trkpt>
      <trkpt lat="45.86441" lon="6.45523">
        <ele>1828.7</ele>
        <time>2024-04-27T07:12:17Z</time>
      </trkpt>
      <trkpt lat="45.86441" lon="6.45524">
        <ele>1829.6</ele>
        <time>2024-04-27T07:12:18Z</time>
      </trkpt>
      <trkpt lat="45.8644" lon="6.45524">
        <ele>1829.6</ele>
        <time>2024-04-27T07:12:19Z</time>
      </trkpt>
      <trkpt lat="45.8644" lon="6.45524">
        <ele>1829.6</ele>
        <time>2024-04-27T07:12:20Z</time>
      </trkpt>
      <trkpt lat="45.86439" lon="6.45525">
        <ele>1829.6</ele>
        <time>2024-04-27T07:12:21Z</time>
      </trkpt>
      <trkpt lat="45.86439" lon="6.45526">
        <ele>1829.6</ele>
        <time>2024-04-27T07:12:22Z</time>
      </trkpt>
      <trkpt lat="45.86438" lon="6.45527">
        <ele>1829.6</ele>
        <time>2024-04-27T07:12:23Z</time>
      </trkpt>
      <trkpt lat="45.86438" lon="6.45527">
        <ele>1829.6</ele>
        <time>2024-04-27T07:12:24Z</time>
      </trkpt>
      <trkpt lat="45.86437" lon="6.45528">
        <ele>1829.6</ele>
        <time>2024-04-27T07:12:25Z</time>
      </trkpt>
      <trkpt lat="45.86436" lon="6.45528">
        <ele>1829.6</ele>
        <time>2024-04-27T07:12:26Z</time>
      </trkpt>
      <trkpt lat="45.86436" lon="6.45529">
        <ele>1829.6</ele>
        <time>2024-04-27T07:12:27Z</time>
      </trkpt>
      <trkpt lat="45.86435" lon="6.4553">
        <ele>1830.7</ele>
        <time>2024-04-27T07:12:28Z</time>
      </trkpt>
      <trkpt lat="45.86435" lon="6.4553">
        <ele>1830.7</ele>
        <time>2024-04-27T07:12:29Z</time>
      </trkpt>
      <trkpt lat="45.86434" lon="6.4553">
        <ele>1830.7</ele>
        <time>2024-04-27T07:12:30Z</time>
      </trkpt>
      <trkpt lat="45.86434" lon="6.45531">
        <ele>1830.7</ele>
        <time>2024-04-27T07:12:31Z</time>
      </trkpt>
      <trkpt lat="45.86434" lon="6.45532">
        <ele>1830.7</ele>
        <time>2024-04-27T07:12:32Z</time>
      </trkpt>
      <trkpt lat="45.86433" lon="6.45532">
        <ele>1830.7</ele>
        <time>2024-04-27T07:12:33Z</time>
      </trkpt>
      <trkpt lat="45.86433" lon="6.45531">
        <ele>1831.7</ele>
        <time>2024-04-27T07:12:34Z</time>
      </trkpt>
      <trkpt lat="45.86433" lon="6.4553">
        <ele>1831.7</ele>
        <time>2024-04-27T07:12:35Z</time>
      </trkpt>
      <trkpt lat="45.86433" lon="6.4553">
        <ele>1831.7</ele>
        <time>2024-04-27T07:12:36Z</time>
      </trkpt>
      <trkpt lat="45.86433" lon="6.45529">
        <ele>1831.7</ele>
        <time>2024-04-27T07:12:37Z</time>
      </trkpt>
      <trkpt lat="45.86433" lon="6.45528">
        <ele>1833.7</ele>
        <time>2024-04-27T07:12:38Z</time>
      </trkpt>
      <trkpt lat="45.86432" lon="6.45528">
        <ele>1833.7</ele>
        <time>2024-04-27T07:12:39Z</time>
      </trkpt>
      <trkpt lat="45.86432" lon="6.45527">
        <ele>1833.7</ele>
        <time>2024-04-27T07:12:40Z</time>
      </trkpt>
      <trkpt lat="45.86432" lon="6.45526">
        <ele>1833.7</ele>
        <time>2024-04-27T07:12:41Z</time>
      </trkpt>
      <trkpt lat="45.86432" lon="6.45525">
        <ele>1833.7</ele>
        <time>2024-04-27T07:12:42Z</time>
      </trkpt>
      <trkpt lat="45.86432" lon="6.45525">
        <ele>1833.7</ele>
        <time>2024-04-27T07:12:43Z</time>
      </trkpt>
      <trkpt lat="45.86432" lon="6.45524">
        <ele>1834.6</ele>
        <time>2024-04-27T07:12:44Z</time>
      </trkpt>
      <trkpt lat="45.86432" lon="6.45522">
        <ele>1834.6</ele>
        <time>2024-04-27T07:12:45Z</time>
      </trkpt>
      <trkpt lat="45.86432" lon="6.45521">
        <ele>1834.6</ele>
        <time>2024-04-27T07:12:46Z</time>
      </trkpt>
      <trkpt lat="45.86432" lon="6.45521">
        <ele>1834.6</ele>
        <time>2024-04-27T07:12:47Z</time>
      </trkpt>
      <trkpt lat="45.86433" lon="6.4552">
        <ele>1835.7</ele>
        <time>2024-04-27T07:12:48Z</time>
      </trkpt>
      <trkpt lat="45.86433" lon="6.45519">
        <ele>1835.7</ele>
        <time>2024-04-27T07:12:49Z</time>
      </trkpt>
      <trkpt lat="45.86433" lon="6.45518">
        <ele>1835.7</ele>
        <time>2024-04-27T07:12:50Z</time>
      </trkpt>
      <trkpt lat="45.86433" lon="6.45517">
        <ele>1835.7</ele>
        <time>2024-04-27T07:12:51Z</time>
      </trkpt>
      <trkpt lat="45.86433" lon="6.45516">
        <ele>1835.7</ele>
        <time>2024-04-27T07:12:52Z</time>
      </trkpt>
      <trkpt lat="45.86433" lon="6.45515">
        <ele>1835.7</ele>
        <time>2024-04-27T07:12:53Z</time>
      </trkpt>
      <trkpt lat="45.86433" lon="6.45514">
        <ele>1835.7</ele>
        <time>2024-04-27T07:12:54Z</time>
      </trkpt>
      <trkpt lat="45.86433" lon="6.45513">
        <ele>1835.7</ele>
        <time>2024-04-27T07:12:55Z</time>
      </trkpt>
      <trkpt lat="45.86433" lon="6.45512">
        <ele>1836.6</ele>
        <time>2024-04-27T07:12:56Z</time>
      </trkpt>
      <trkpt lat="45.86432" lon="6.45511">
        <ele>1836.6</ele>
        <time>2024-04-27T07:12:57Z</time>
      </trkpt>
      <trkpt lat="45.86432" lon="6.45511">
        <ele>1836.6</ele>
        <time>2024-04-27T07:12:58Z</time>
      </trkpt>
      <trkpt lat="45.86432" lon="6.4551">
        <ele>1836.6</ele>
        <time>2024-04-27T07:12:59Z</time>
      </trkpt>
      <trkpt lat="45.86431" lon="6.45509">
        <ele>1836.6</ele>
        <time>2024-04-27T07:13:00Z</time>
      </trkpt>
      <trkpt lat="45.86431" lon="6.45509">
        <ele>1836.6</ele>
        <time>2024-04-27T07:13:01Z</time>
      </trkpt>
      <trkpt lat="45.8643" lon="6.45508">
        <ele>1837.7</ele>
        <time>2024-04-27T07:13:02Z</time>
      </trkpt>
      <trkpt lat="45.8643" lon="6.45508">
        <ele>1837.7</ele>
        <time>2024-04-27T07:13:03Z</time>
      </trkpt>
      <trkpt lat="45.8643" lon="6.45507">
        <ele>1837.7</ele>
        <time>2024-04-27T07:13:04Z</time>
      </trkpt>
      <trkpt lat="45.8643" lon="6.45506">
        <ele>1837.7</ele>
        <time>2024-04-27T07:13:05Z</time>
      </trkpt>
      <trkpt lat="45.86429" lon="6.45506">
        <ele>1838.6</ele>
        <time>2024-04-27T07:13:06Z</time>
      </trkpt>
      <trkpt lat="45.86429" lon="6.45505">
        <ele>1838.6</ele>
        <time>2024-04-27T07:13:07Z</time>
      </trkpt>
      <trkpt lat="45.8643" lon="6.45504">
        <ele>1838.6</ele>
        <time>2024-04-27T07:13:08Z</time>
      </trkpt>
      <trkpt lat="45.86429" lon="6.45503">
        <ele>1838.6</ele>
        <time>2024-04-27T07:13:09Z</time>
      </trkpt>
      <trkpt lat="45.86429" lon="6.45502">
        <ele>1838.6</ele>
        <time>2024-04-27T07:13:10Z</time>
      </trkpt>
      <trkpt lat="45.86429" lon="6.45502">
        <ele>1838.6</ele>
        <time>2024-04-27T07:13:11Z</time>
      </trkpt>
      <trkpt lat="45.86428" lon="6.45501">
        <ele>1839.6</ele>
        <time>2024-04-27T07:13:12Z</time>
      </trkpt>
      <trkpt lat="45.86428" lon="6.455">
        <ele>1839.6</ele>
        <time>2024-04-27T07:13:13Z</time>
      </trkpt>
      <trkpt lat="45.86428" lon="6.45499">
        <ele>1839.6</ele>
        <time>2024-04-27T07:13:14Z</time>
      </trkpt>
      <trkpt lat="45.86427" lon="6.45498">
        <ele>1839.6</ele>
        <time>2024-04-27T07:13:15Z</time>
      </trkpt>
      <trkpt lat="45.86427" lon="6.45497">
        <ele>1839.6</ele>
        <time>2024-04-27T07:13:16Z</time>
      </trkpt>
      <trkpt lat="45.86427" lon="6.45496">
        <ele>1839.6</ele>
        <time>2024-04-27T07:13:17Z</time>
      </trkpt>
      <trkpt lat="45.86427" lon="6.45495">
        <ele>1839.6</ele>
        <time>2024-04-27T07:13:18Z</time>
      </trkpt>
      <trkpt lat="45.86426" lon="6.45494">
        <ele>1839.6</ele>
        <time>2024-04-27T07:13:19Z</time>
      </trkpt>
      <trkpt lat="45.86426" lon="6.45494">
        <ele>1839.6</ele>
        <time>2024-04-27T07:13:20Z</time>
      </trkpt>
      <trkpt lat="45.86425" lon="6.45493">
        <ele>1839.6</ele>
        <time>2024-04-27T07:13:21Z</time>
      </trkpt>
      <trkpt lat="45.86425" lon="6.45492">
        <ele>1839.6</ele>
        <time>2024-04-27T07:13:22Z</time>
      </trkpt>
      <trkpt lat="45.86425" lon="6.45492">
        <ele>1839.6</ele>
        <time>2024-04-27T07:13:23Z</time>
      </trkpt>
      <trkpt lat="45.86425" lon="6.45491">
        <ele>1839.6</ele>
        <time>2024-04-27T07:13:24Z</time>
      </trkpt>
      <trkpt lat="45.86425" lon="6.4549">
        <ele>1839.6</ele>
        <time>2024-04-27T07:13:25Z</time>
      </trkpt>
      <trkpt lat="45.86425" lon="6.4549">
        <ele>1839.6</ele>
        <time>2024-04-27T07:13:26Z</time>
      </trkpt>
      <trkpt lat="45.86425" lon="6.45488">
        <ele>1839.6</ele>
        <time>2024-04-27T07:13:27Z</time>
      </trkpt>
      <trkpt lat="45.86425" lon="6.45487">
        <ele>1840.7</ele>
        <time>2024-04-27T07:13:28Z</time>
      </trkpt>
      <trkpt lat="45.86425" lon="6.45486">
        <ele>1840.7</ele>
        <time>2024-04-27T07:13:29Z</time>
      </trkpt>
      <trkpt lat="45.86425" lon="6.45485">
        <ele>1840.7</ele>
        <time>2024-04-27T07:13:30Z</time>
      </trkpt>
      <trkpt lat="45.86425" lon="6.45484">
        <ele>1840.7</ele>
        <time>2024-04-27T07:13:31Z</time>
      </trkpt>
      <trkpt lat="45.86425" lon="6.45483">
        <ele>1840.7</ele>
        <time>2024-04-27T07:13:32Z</time>
      </trkpt>
      <trkpt lat="45.86425" lon="6.45481">
        <ele>1840.7</ele>
        <time>2024-04-27T07:13:33Z</time>
      </trkpt>
      <trkpt lat="45.86425" lon="6.4548">
        <ele>1841.6</ele>
        <time>2024-04-27T07:13:34Z</time>
      </trkpt>
      <trkpt lat="45.86425" lon="6.45479">
        <ele>1841.6</ele>
        <time>2024-04-27T07:13:35Z</time>
      </trkpt>
      <trkpt lat="45.86425" lon="6.45478">
        <ele>1841.6</ele>
        <time>2024-04-27T07:13:36Z</time>
      </trkpt>
      <trkpt lat="45.86426" lon="6.45477">
        <ele>1841.6</ele>
        <time>2024-04-27T07:13:37Z</time>
      </trkpt>
      <trkpt lat="45.86426" lon="6.45476">
        <ele>1841.6</ele>
        <time>2024-04-27T07:13:38Z</time>
      </trkpt>
      <trkpt lat="45.86426" lon="6.45475">
        <ele>1841.6</ele>
        <time>2024-04-27T07:13:39Z</time>
      </trkpt>
      <trkpt lat="45.86426" lon="6.45474">
        <ele>1841.6</ele>
        <time>2024-04-27T07:13:40Z</time>
      </trkpt>
      <trkpt lat="45.86426" lon="6.45473">
        <ele>1841.6</ele>
        <time>2024-04-27T07:13:41Z</time>
      </trkpt>
      <trkpt lat="45.86426" lon="6.45473">
        <ele>1841.6</ele>
        <time>2024-04-27T07:13:42Z</time>
      </trkpt>
      <trkpt lat="45.86426" lon="6.45472">
        <ele>1841.6</ele>
        <time>2024-04-27T07:13:43Z</time>
      </trkpt>
      <trkpt lat="45.86426" lon="6.4547">
        <ele>1841.6</ele>
        <time>2024-04-27T07:13:44Z</time>
      </trkpt>
      <trkpt lat="45.86425" lon="6.4547">
        <ele>1841.6</ele>
        <time>2024-04-27T07:13:45Z</time>
      </trkpt>
      <trkpt lat="45.86426" lon="6.45469">
        <ele>1841.6</ele>
        <time>2024-04-27T07:13:46Z</time>
      </trkpt>
      <trkpt lat="45.86426" lon="6.45468">
        <ele>1841.6</ele>
        <time>2024-04-27T07:13:47Z</time>
      </trkpt>
      <trkpt lat="45.86425" lon="6.45467">
        <ele>1842.7</ele>
        <time>2024-04-27T07:13:48Z</time>
      </trkpt>
      <trkpt lat="45.86426" lon="6.45466">
        <ele>1842.7</ele>
        <time>2024-04-27T07:13:49Z</time>
      </trkpt>
      <trkpt lat="45.86427" lon="6.45465">
        <ele>1842.7</ele>
        <time>2024-04-27T07:13:50Z</time>
      </trkpt>
      <trkpt lat="45.86427" lon="6.45464">
        <ele>1842.7</ele>
        <time>2024-04-27T07:13:51Z</time>
      </trkpt>
      <trkpt lat="45.86427" lon="6.45463">
        <ele>1843.6</ele>
        <time>2024-04-27T07:13:52Z</time>
      </trkpt>
      <trkpt lat="45.86427" lon="6.45462">
        <ele>1843.6</ele>
        <time>2024-04-27T07:13:53Z</time>
      </trkpt>
      <trkpt lat="45.86427" lon="6.45462">
        <ele>1843.6</ele>
        <time>2024-04-27T07:13:54Z</time>
      </trkpt>
      <trkpt lat="45.86428" lon="6.45461">
        <ele>1843.6</ele>
        <time>2024-04-27T07:13:55Z</time>
      </trkpt>
      <trkpt lat="45.86428" lon="6.4546">
        <ele>1843.6</ele>
        <time>2024-04-27T07:13:56Z</time>
      </trkpt>
      <trkpt lat="45.86429" lon="6.45459">
        <ele>1843.6</ele>
        <time>2024-04-27T07:13:57Z</time>
      </trkpt>
      <trkpt lat="45.86429" lon="6.45458">
        <ele>1844.7</ele>
        <time>2024-04-27T07:13:58Z</time>
      </trkpt>
      <trkpt lat="45.8643" lon="6.45457">
        <ele>1844.7</ele>
        <time>2024-04-27T07:13:59Z</time>
      </trkpt>
      <trkpt lat="45.8643" lon="6.45456">
        <ele>1844.7</ele>
        <time>2024-04-27T07:14:00Z</time>
      </trkpt>
      <trkpt lat="45.8643" lon="6.45455">
        <ele>1844.7</ele>
        <time>2024-04-27T07:14:01Z</time>
      </trkpt>
      <trkpt lat="45.8643" lon="6.45455">
        <ele>1844.7</ele>
        <time>2024-04-27T07:14:02Z</time>
      </trkpt>
      <trkpt lat="45.8643" lon="6.45454">
        <ele>1844.7</ele>
        <time>2024-04-27T07:14:03Z</time>
      </trkpt>
      <trkpt lat="45.8643" lon="6.45453">
        <ele>1845.6</ele>
        <time>2024-04-27T07:14:04Z</time>
      </trkpt>
      <trkpt lat="45.8643" lon="6.45453">
        <ele>1845.6</ele>
        <time>2024-04-27T07:14:05Z</time>
      </trkpt>
      <trkpt lat="45.8643" lon="6.45452">
        <ele>1845.6</ele>
        <time>2024-04-27T07:14:06Z</time>
      </trkpt>
      <trkpt lat="45.86431" lon="6.45452">
        <ele>1845.6</ele>
        <time>2024-04-27T07:14:07Z</time>
      </trkpt>
      <trkpt lat="45.86431" lon="6.45451">
        <ele>1846.7</ele>
        <time>2024-04-27T07:14:08Z</time>
      </trkpt>
      <trkpt lat="45.86431" lon="6.45452">
        <ele>1846.7</ele>
        <time>2024-04-27T07:14:09Z</time>
      </trkpt>
      <trkpt lat="45.86431" lon="6.45451">
        <ele>1846.7</ele>
        <time>2024-04-27T07:14:10Z</time>
      </trkpt>
      <trkpt lat="45.86432" lon="6.4545">
        <ele>1846.7</ele>
        <time>2024-04-27T07:14:11Z</time>
      </trkpt>
      <trkpt lat="45.86432" lon="6.45449">
        <ele>1847.7</ele>
        <time>2024-04-27T07:14:12Z</time>
      </trkpt>
      <trkpt lat="45.86432" lon="6.45448">
        <ele>1847.7</ele>
        <time>2024-04-27T07:14:13Z</time>
      </trkpt>
      <trkpt lat="45.86433" lon="6.45448">
        <ele>1847.7</ele>
        <time>2024-04-27T07:14:14Z</time>
      </trkpt>
      <trkpt lat="45.86433" lon="6.45447">
        <ele>1847.7</ele>
        <time>2024-04-27T07:14:15Z</time>
      </trkpt>
      <trkpt lat="45.86433" lon="6.45447">
        <ele>1847.7</ele>
        <time>2024-04-27T07:14:16Z</time>
      </trkpt>
      <trkpt lat="45.86433" lon="6.45446">
        <ele>1847.7</ele>
        <time>2024-04-27T07:14:17Z</time>
      </trkpt>
      <trkpt lat="45.86433" lon="6.45445">
        <ele>1848.6</ele>
        <time>2024-04-27T07:14:18Z</time>
      </trkpt>
      <trkpt lat="45.86433" lon="6.45445">
        <ele>1848.6</ele>
        <time>2024-04-27T07:14:19Z</time>
      </trkpt>
      <trkpt lat="45.86433" lon="6.45444">
        <ele>1848.6</ele>
        <time>2024-04-27T07:14:20Z</time>
      </trkpt>
      <trkpt lat="45.86433" lon="6.45443">
        <ele>1848.6</ele>
        <time>2024-04-27T07:14:21Z</time>
      </trkpt>
      <trkpt lat="45.86433" lon="6.45442">
        <ele>1848.6</ele>
        <time>2024-04-27T07:14:22Z</time>
      </trkpt>
      <trkpt lat="45.86433" lon="6.45441">
        <ele>1848.6</ele>
        <time>2024-04-27T07:14:23Z</time>
      </trkpt>
      <trkpt lat="45.86433" lon="6.4544">
        <ele>1849.7</ele>
        <time>2024-04-27T07:14:24Z</time>
      </trkpt>
      <trkpt lat="45.86433" lon="6.4544">
        <ele>1849.7</ele>
        <time>2024-04-27T07:14:25Z</time>
      </trkpt>
      <trkpt lat="45.86434" lon="6.45439">
        <ele>1849.7</ele>
        <time>2024-04-27T07:14:26Z</time>
      </trkpt>
      <trkpt lat="45.86434" lon="6.45438">
        <ele>1849.7</ele>
        <time>2024-04-27T07:14:27Z</time>
      </trkpt>
      <trkpt lat="45.86434" lon="6.45437">
        <ele>1850.6</ele>
        <time>2024-04-27T07:14:28Z</time>
      </trkpt>
      <trkpt lat="45.86433" lon="6.45437">
        <ele>1850.6</ele>
        <time>2024-04-27T07:14:29Z</time>
      </trkpt>
      <trkpt lat="45.86433" lon="6.45437">
        <ele>1850.6</ele>
        <time>2024-04-27T07:14:30Z</time>
      </trkpt>
      <trkpt lat="45.86433" lon="6.45436">
        <ele>1850.6</ele>
        <time>2024-04-27T07:14:31Z</time>
      </trkpt>
      <trkpt lat="45.86433" lon="6.45436">
        <ele>1851.7</ele>
        <time>2024-04-27T07:14:32Z</time>
      </trkpt>
      <trkpt lat="45.86433" lon="6.45435">
        <ele>1851.7</ele>
        <time>2024-04-27T07:14:33Z</time>
      </trkpt>
      <trkpt lat="45.86433" lon="6.45435">
        <ele>1851.7</ele>
        <time>2024-04-27T07:14:34Z</time>
      </trkpt>
      <trkpt lat="45.86432" lon="6.45434">
        <ele>1851.7</ele>
        <time>2024-04-27T07:14:35Z</time>
      </trkpt>
      <trkpt lat="45.86433" lon="6.45433">
        <ele>1852.6</ele>
        <time>2024-04-27T07:14:36Z</time>
      </trkpt>
      <trkpt lat="45.86433" lon="6.45433">
        <ele>1852.6</ele>
        <time>2024-04-27T07:14:37Z</time>
      </trkpt>
      <trkpt lat="45.86432" lon="6.45432">
        <ele>1852.6</ele>
        <time>2024-04-27T07:14:38Z</time>
      </trkpt>
      <trkpt lat="45.86433" lon="6.45431">
        <ele>1852.6</ele>
        <time>2024-04-27T07:14:39Z</time>
      </trkpt>
      <trkpt lat="45.86433" lon="6.4543">
        <ele>1852.6</ele>
        <time>2024-04-27T07:14:40Z</time>
      </trkpt>
      <trkpt lat="45.86433" lon="6.45429">
        <ele>1852.6</ele>
        <time>2024-04-27T07:14:41Z</time>
      </trkpt>
      <trkpt lat="45.86432" lon="6.45429">
        <ele>1853.7</ele>
        <time>2024-04-27T07:14:42Z</time>
      </trkpt>
      <trkpt lat="45.86432" lon="6.45428">
        <ele>1853.7</ele>
        <time>2024-04-27T07:14:43Z</time>
      </trkpt>
      <trkpt lat="45.86432" lon="6.45428">
        <ele>1853.7</ele>
        <time>2024-04-27T07:14:44Z</time>
      </trkpt>
      <trkpt lat="45.86432" lon="6.45428">
        <ele>1853.7</ele>
        <time>2024-04-27T07:14:45Z</time>
      </trkpt>
      <trkpt lat="45.86431" lon="6.45428">
        <ele>1853.7</ele>
        <time>2024-04-27T07:14:46Z</time>
      </trkpt>
      <trkpt lat="45.86431" lon="6.45427">
        <ele>1853.7</ele>
        <time>2024-04-27T07:14:47Z</time>
      </trkpt>
      <trkpt lat="45.86432" lon="6.45426">
        <ele>1853.7</ele>
        <time>2024-04-27T07:14:48Z</time>
      </trkpt>
      <trkpt lat="45.86432" lon="6.45425">
        <ele>1853.7</ele>
        <time>2024-04-27T07:14:49Z</time>
      </trkpt>
      <trkpt lat="45.86431" lon="6.45425">
        <ele>1853.7</ele>
        <time>2024-04-27T07:14:50Z</time>
      </trkpt>
      <trkpt lat="45.86431" lon="6.45425">
        <ele>1853.7</ele>
        <time>2024-04-27T07:14:51Z</time>
      </trkpt>
      <trkpt lat="45.86431" lon="6.45424">
        <ele>1853.7</ele>
        <time>2024-04-27T07:14:52Z</time>
      </trkpt>
      <trkpt lat="45.86431" lon="6.45423">
        <ele>1853.7</ele>
        <time>2024-04-27T07:14:53Z</time>
      </trkpt>
      <trkpt lat="45.86431" lon="6.45423">
        <ele>1854.6</ele>
        <time>2024-04-27T07:14:54Z</time>
      </trkpt>
      <trkpt lat="45.86431" lon="6.45422">
        <ele>1854.6</ele>
        <time>2024-04-27T07:14:55Z</time>
      </trkpt>
      <trkpt lat="45.86431" lon="6.45423">
        <ele>1854.6</ele>
        <time>2024-04-27T07:14:56Z</time>
      </trkpt>
      <trkpt lat="45.86431" lon="6.45422">
        <ele>1854.6</ele>
        <time>2024-04-27T07:14:57Z</time>
      </trkpt>
      <trkpt lat="45.86431" lon="6.45422">
        <ele>1855.6</ele>
        <time>2024-04-27T07:14:58Z</time>
      </trkpt>
      <trkpt lat="45.86431" lon="6.45421">
        <ele>1855.6</ele>
        <time>2024-04-27T07:14:59Z</time>
      </trkpt>
      <trkpt lat="45.86431" lon="6.4542">
        <ele>1855.6</ele>
        <time>2024-04-27T07:15:00Z</time>
      </trkpt>
      <trkpt lat="45.86431" lon="6.4542">
        <ele>1855.6</ele>
        <time>2024-04-27T07:15:01Z</time>
      </trkpt>
      <trkpt lat="45.86431" lon="6.45419">
        <ele>1856.7</ele>
        <time>2024-04-27T07:15:02Z</time>
      </trkpt>
      <trkpt lat="45.86431" lon="6.45419">
        <ele>1856.7</ele>
        <time>2024-04-27T07:15:03Z</time>
      </trkpt>
      <trkpt lat="45.86431" lon="6.45418">
        <ele>1856.7</ele>
        <time>2024-04-27T07:15:04Z</time>
      </trkpt>
      <trkpt lat="45.86431" lon="6.45417">
        <ele>1856.7</ele>
        <time>2024-04-27T07:15:05Z</time>
      </trkpt>
      <trkpt lat="45.86432" lon="6.45416">
        <ele>1857.6</ele>
        <time>2024-04-27T07:15:06Z</time>
      </trkpt>
      <trkpt lat="45.86432" lon="6.45415">
        <ele>1857.6</ele>
        <time>2024-04-27T07:15:07Z</time>
      </trkpt>
      <trkpt lat="45.86432" lon="6.45414">
        <ele>1857.6</ele>
        <time>2024-04-27T07:15:08Z</time>
      </trkpt>
      <trkpt lat="45.86432" lon="6.45414">
        <ele>1857.6</ele>
        <time>2024-04-27T07:15:09Z</time>
      </trkpt>
      <trkpt lat="45.86432" lon="6.45413">
        <ele>1858.7</ele>
        <time>2024-04-27T07:15:10Z</time>
      </trkpt>
      <trkpt lat="45.86432" lon="6.45412">
        <ele>1858.7</ele>
        <time>2024-04-27T07:15:11Z</time>
      </trkpt>
      <trkpt lat="45.86432" lon="6.45411">
        <ele>1858.7</ele>
        <time>2024-04-27T07:15:12Z</time>
      </trkpt>
      <trkpt lat="45.86432" lon="6.4541">
        <ele>1858.7</ele>
        <time>2024-04-27T07:15:13Z</time>
      </trkpt>
      <trkpt lat="45.86432" lon="6.4541">
        <ele>1859.6</ele>
        <time>2024-04-27T07:15:14Z</time>
      </trkpt>
      <trkpt lat="45.86432" lon="6.45409">
        <ele>1859.6</ele>
        <time>2024-04-27T07:15:15Z</time>
      </trkpt>
      <trkpt lat="45.86431" lon="6.45409">
        <ele>1859.6</ele>
        <time>2024-04-27T07:15:16Z</time>
      </trkpt>
      <trkpt lat="45.86431" lon="6.45408">
        <ele>1859.6</ele>
        <time>2024-04-27T07:15:17Z</time>
      </trkpt>
      <trkpt lat="45.86431" lon="6.45407">
        <ele>1859.6</ele>
        <time>2024-04-27T07:15:18Z</time>
      </trkpt>
      <trkpt lat="45.86431" lon="6.45406">
        <ele>1859.6</ele>
        <time>2024-04-27T07:15:19Z</time>
      </trkpt>
      <trkpt lat="45.8643" lon="6.45405">
        <ele>1859.6</ele>
        <time>2024-04-27T07:15:20Z</time>
      </trkpt>
      <trkpt lat="45.8643" lon="6.45405">
        <ele>1859.6</ele>
        <time>2024-04-27T07:15:21Z</time>
      </trkpt>
      <trkpt lat="45.86429" lon="6.45404">
        <ele>1859.6</ele>
        <time>2024-04-27T07:15:22Z</time>
      </trkpt>
      <trkpt lat="45.86429" lon="6.45403">
        <ele>1859.6</ele>
        <time>2024-04-27T07:15:23Z</time>
      </trkpt>
      <trkpt lat="45.86429" lon="6.45403">
        <ele>1860.7</ele>
        <time>2024-04-27T07:15:24Z</time>
      </trkpt>
      <trkpt lat="45.86429" lon="6.45403">
        <ele>1860.7</ele>
        <time>2024-04-27T07:15:25Z</time>
      </trkpt>
      <trkpt lat="45.86428" lon="6.45402">
        <ele>1860.7</ele>
        <time>2024-04-27T07:15:26Z</time>
      </trkpt>
      <trkpt lat="45.86428" lon="6.45401">
        <ele>1860.7</ele>
        <time>2024-04-27T07:15:27Z</time>
      </trkpt>
      <trkpt lat="45.86428" lon="6.454">
        <ele>1861.6</ele>
        <time>2024-04-27T07:15:28Z</time>
      </trkpt>
      <trkpt lat="45.86428" lon="6.454">
        <ele>1861.6</ele>
        <time>2024-04-27T07:15:29Z</time>
      </trkpt>
      <trkpt lat="45.86428" lon="6.45399">
        <ele>1861.6</ele>
        <time>2024-04-27T07:15:30Z</time>
      </trkpt>
      <trkpt lat="45.86428" lon="6.45398">
        <ele>1861.6</ele>
        <time>2024-04-27T07:15:31Z</time>
      </trkpt>
      <trkpt lat="45.86428" lon="6.45398">
        <ele>1861.6</ele>
        <time>2024-04-27T07:15:32Z</time>
      </trkpt>
      <trkpt lat="45.86428" lon="6.45397">
        <ele>1861.6</ele>
        <time>2024-04-27T07:15:33Z</time>
      </trkpt>
      <trkpt lat="45.86428" lon="6.45397">
        <ele>1861.6</ele>
        <time>2024-04-27T07:15:34Z</time>
      </trkpt>
      <trkpt lat="45.86427" lon="6.45396">
        <ele>1861.6</ele>
        <time>2024-04-27T07:15:35Z</time>
      </trkpt>
      <trkpt lat="45.86427" lon="6.45396">
        <ele>1862.7</ele>
        <time>2024-04-27T07:15:36Z</time>
      </trkpt>
      <trkpt lat="45.86427" lon="6.45395">
        <ele>1862.7</ele>
        <time>2024-04-27T07:15:37Z</time>
      </trkpt>
      <trkpt lat="45.86427" lon="6.45395">
        <ele>1862.7</ele>
        <time>2024-04-27T07:15:38Z</time>
      </trkpt>
      <trkpt lat="45.86428" lon="6.45394">
        <ele>1862.7</ele>
        <time>2024-04-27T07:15:39Z</time>
      </trkpt>
      <trkpt lat="45.86428" lon="6.45392">
        <ele>1863.7</ele>
        <time>2024-04-27T07:15:40Z</time>
      </trkpt>
      <trkpt lat="45.86428" lon="6.45392">
        <ele>1863.7</ele>
        <time>2024-04-27T07:15:41Z</time>
      </trkpt>
      <trkpt lat="45.86428" lon="6.45391">
        <ele>1863.7</ele>
        <time>2024-04-27T07:15:42Z</time>
      </trkpt>
      <trkpt lat="45.86428" lon="6.4539">
        <ele>1863.7</ele>
        <time>2024-04-27T07:15:43Z</time>
      </trkpt>
      <trkpt lat="45.86428" lon="6.4539">
        <ele>1864.6</ele>
        <time>2024-04-27T07:15:44Z</time>
      </trkpt>
      <trkpt lat="45.86428" lon="6.4539">
        <ele>1864.6</ele>
        <time>2024-04-27T07:15:45Z</time>
      </trkpt>
      <trkpt lat="45.86428" lon="6.45389">
        <ele>1864.6</ele>
        <time>2024-04-27T07:15:46Z</time>
      </trkpt>
      <trkpt lat="45.86428" lon="6.45388">
        <ele>1864.6</ele>
        <time>2024-04-27T07:15:47Z</time>
      </trkpt>
      <trkpt lat="45.86428" lon="6.45388">
        <ele>1864.6</ele>
        <time>2024-04-27T07:15:48Z</time>
      </trkpt>
      <trkpt lat="45.86428" lon="6.45387">
        <ele>1864.6</ele>
        <time>2024-04-27T07:15:49Z</time>
      </trkpt>
      <trkpt lat="45.86428" lon="6.45386">
        <ele>1865.7</ele>
        <time>2024-04-27T07:15:50Z</time>
      </trkpt>
      <trkpt lat="45.86428" lon="6.45385">
        <ele>1865.7</ele>
        <time>2024-04-27T07:15:51Z</time>
      </trkpt>
      <trkpt lat="45.86428" lon="6.45385">
        <ele>1866.6</ele>
        <time>2024-04-27T07:15:52Z</time>
      </trkpt>
      <trkpt lat="45.86428" lon="6.45384">
        <ele>1866.6</ele>
        <time>2024-04-27T07:15:53Z</time>
      </trkpt>
      <trkpt lat="45.86428" lon="6.45384">
        <ele>1866.6</ele>
        <time>2024-04-27T07:15:54Z</time>
      </trkpt>
      <trkpt lat="45.86427" lon="6.45383">
        <ele>1866.6</ele>
        <time>2024-04-27T07:15:55Z</time>
      </trkpt>
      <trkpt lat="45.86427" lon="6.45382">
        <ele>1867.7</ele>
        <time>2024-04-27T07:15:56Z</time>
      </trkpt>
      <trkpt lat="45.86427" lon="6.45382">
        <ele>1867.7</ele>
        <time>2024-04-27T07:15:57Z</time>
      </trkpt>
      <trkpt lat="45.86427" lon="6.45382">
        <ele>1867.7</ele>
        <time>2024-04-27T07:15:58Z</time>
      </trkpt>
      <trkpt lat="45.86427" lon="6.45381">
        <ele>1867.7</ele>
        <time>2024-04-27T07:15:59Z</time>
      </trkpt>
      <trkpt lat="45.86427" lon="6.4538">
        <ele>1867.7</ele>
        <time>2024-04-27T07:16:00Z</time>
      </trkpt>
      <trkpt lat="45.86426" lon="6.4538">
        <ele>1867.7</ele>
        <time>2024-04-27T07:16:01Z</time>
      </trkpt>
      <trkpt lat="45.86426" lon="6.4538">
        <ele>1868.6</ele>
        <time>2024-04-27T07:16:02Z</time>
      </trkpt>
      <trkpt lat="45.86426" lon="6.45379">
        <ele>1868.6</ele>
        <time>2024-04-27T07:16:03Z</time>
      </trkpt>
      <trkpt lat="45.86426" lon="6.45379">
        <ele>1868.6</ele>
        <time>2024-04-27T07:16:04Z</time>
      </trkpt>
      <trkpt lat="45.86426" lon="6.45378">
        <ele>1868.6</ele>
        <time>2024-04-27T07:16:05Z</time>
      </trkpt>
      <trkpt lat="45.86426" lon="6.45377">
        <ele>1869.7</ele>
        <time>2024-04-27T07:16:06Z</time>
      </trkpt>
      <trkpt lat="45.86426" lon="6.45376">
        <ele>1869.7</ele>
        <time>2024-04-27T07:16:07Z</time>
      </trkpt>
      <trkpt lat="45.86426" lon="6.45375">
        <ele>1869.7</ele>
        <time>2024-04-27T07:16:08Z</time>
      </trkpt>
      <trkpt lat="45.86426" lon="6.45374">
        <ele>1869.7</ele>
        <time>2024-04-27T07:16:09Z</time>
      </trkpt>
      <trkpt lat="45.86425" lon="6.45374">
        <ele>1869.7</ele>
        <time>2024-04-27T07:16:10Z</time>
      </trkpt>
      <trkpt lat="45.86425" lon="6.45373">
        <ele>1869.7</ele>
        <time>2024-04-27T07:16:11Z</time>
      </trkpt>
      <trkpt lat="45.86425" lon="6.45373">
        <ele>1869.7</ele>
        <time>2024-04-27T07:16:12Z</time>
      </trkpt>
      <trkpt lat="45.86425" lon="6.45372">
        <ele>1869.7</ele>
        <time>2024-04-27T07:16:13Z</time>
      </trkpt>
      <trkpt lat="45.86424" lon="6.45372">
        <ele>1870.6</ele>
        <time>2024-04-27T07:16:14Z</time>
      </trkpt>
      <trkpt lat="45.86424" lon="6.45372">
        <ele>1870.6</ele>
        <time>2024-04-27T07:16:15Z</time>
      </trkpt>
      <trkpt lat="45.86423" lon="6.45371">
        <ele>1870.6</ele>
        <time>2024-04-27T07:16:16Z</time>
      </trkpt>
      <trkpt lat="45.86423" lon="6.4537">
        <ele>1870.6</ele>
        <time>2024-04-27T07:16:17Z</time>
      </trkpt>
      <trkpt lat="45.86423" lon="6.45369">
        <ele>1870.6</ele>
        <time>2024-04-27T07:16:18Z</time>
      </trkpt>
      <trkpt lat="45.86423" lon="6.45369">
        <ele>1870.6</ele>
        <time>2024-04-27T07:16:19Z</time>
      </trkpt>
      <trkpt lat="45.86423" lon="6.45369">
        <ele>1870.6</ele>
        <time>2024-04-27T07:16:20Z</time>
      </trkpt>
      <trkpt lat="45.86422" lon="6.45368">
        <ele>1870.6</ele>
        <time>2024-04-27T07:16:21Z</time>
      </trkpt>
      <trkpt lat="45.86422" lon="6.45367">
        <ele>1871.6</ele>
        <time>2024-04-27T07:16:22Z</time>
      </trkpt>
      <trkpt lat="45.86422" lon="6.45367">
        <ele>1871.6</ele>
        <time>2024-04-27T07:16:23Z</time>
      </trkpt>
      <trkpt lat="45.86422" lon="6.45367">
        <ele>1871.6</ele>
        <time>2024-04-27T07:16:24Z</time>
      </trkpt>
      <trkpt lat="45.86422" lon="6.45366">
        <ele>1871.6</ele>
        <time>2024-04-27T07:16:25Z</time>
      </trkpt>
      <trkpt lat="45.86421" lon="6.45366">
        <ele>1871.6</ele>
        <time>2024-04-27T07:16:26Z</time>
      </trkpt>
      <trkpt lat="45.86421" lon="6.45365">
        <ele>1871.6</ele>
        <time>2024-04-27T07:16:27Z</time>
      </trkpt>
      <trkpt lat="45.86421" lon="6.45365">
        <ele>1871.6</ele>
        <time>2024-04-27T07:16:28Z</time>
      </trkpt>
      <trkpt lat="45.86421" lon="6.45364">
        <ele>1871.6</ele>
        <time>2024-04-27T07:16:29Z</time>
      </trkpt>
      <trkpt lat="45.86421" lon="6.45363">
        <ele>1872.7</ele>
        <time>2024-04-27T07:16:30Z</time>
      </trkpt>
      <trkpt lat="45.86421" lon="6.45362">
        <ele>1872.7</ele>
        <time>2024-04-27T07:16:31Z</time>
      </trkpt>
      <trkpt lat="45.86421" lon="6.45361">
        <ele>1872.7</ele>
        <time>2024-04-27T07:16:32Z</time>
      </trkpt>
      <trkpt lat="45.86422" lon="6.4536">
        <ele>1872.7</ele>
        <time>2024-04-27T07:16:33Z</time>
      </trkpt>
      <trkpt lat="45.86422" lon="6.4536">
        <ele>1873.6</ele>
        <time>2024-04-27T07:16:34Z</time>
      </trkpt>
      <trkpt lat="45.86422" lon="6.45359">
        <ele>1873.6</ele>
        <time>2024-04-27T07:16:35Z</time>
      </trkpt>
      <trkpt lat="45.86422" lon="6.45358">
        <ele>1874.7</ele>
        <time>2024-04-27T07:16:36Z</time>
      </trkpt>
      <trkpt lat="45.86422" lon="6.45357">
        <ele>1874.7</ele>
        <time>2024-04-27T07:16:37Z</time>
      </trkpt>
      <trkpt lat="45.86422" lon="6.45356">
        <ele>1874.7</ele>
        <time>2024-04-27T07:16:38Z</time>
      </trkpt>
      <trkpt lat="45.86423" lon="6.45356">
        <ele>1874.7</ele>
        <time>2024-04-27T07:16:39Z</time>
      </trkpt>
      <trkpt lat="45.86423" lon="6.45355">
        <ele>1875.6</ele>
        <time>2024-04-27T07:16:40Z</time>
      </trkpt>
      <trkpt lat="45.86423" lon="6.45353">
        <ele>1875.6</ele>
        <time>2024-04-27T07:16:41Z</time>
      </trkpt>
      <trkpt lat="45.86423" lon="6.45353">
        <ele>1875.6</ele>
        <time>2024-04-27T07:16:42Z</time>
      </trkpt>
      <trkpt lat="45.86422" lon="6.45352">
        <ele>1875.6</ele>
        <time>2024-04-27T07:16:43Z</time>
      </trkpt>
      <trkpt lat="45.86422" lon="6.45352">
        <ele>1875.6</ele>
        <time>2024-04-27T07:16:44Z</time>
      </trkpt>
      <trkpt lat="45.86422" lon="6.45352">
        <ele>1875.6</ele>
        <time>2024-04-27T07:16:45Z</time>
      </trkpt>
      <trkpt lat="45.86423" lon="6.45351">
        <ele>1876.7</ele>
        <time>2024-04-27T07:16:46Z</time>
      </trkpt>
      <trkpt lat="45.86423" lon="6.45351">
        <ele>1876.7</ele>
        <time>2024-04-27T07:16:47Z</time>
      </trkpt>
      <trkpt lat="45.86422" lon="6.45351">
        <ele>1876.7</ele>
        <time>2024-04-27T07:16:48Z</time>
      </trkpt>
      <trkpt lat="45.86422" lon="6.4535">
        <ele>1876.7</ele>
        <time>2024-04-27T07:16:49Z</time>
      </trkpt>
      <trkpt lat="45.86422" lon="6.45349">
        <ele>1877.6</ele>
        <time>2024-04-27T07:16:50Z</time>
      </trkpt>
      <trkpt lat="45.86423" lon="6.45348">
        <ele>1877.6</ele>
        <time>2024-04-27T07:16:51Z</time>
      </trkpt>
      <trkpt lat="45.86423" lon="6.45346">
        <ele>1877.6</ele>
        <time>2024-04-27T07:16:52Z</time>
      </trkpt>
      <trkpt lat="45.86423" lon="6.45346">
        <ele>1877.6</ele>
        <time>2024-04-27T07:16:53Z</time>
      </trkpt>
      <trkpt lat="45.86423" lon="6.45345">
        <ele>1878.7</ele>
        <time>2024-04-27T07:16:54Z</time>
      </trkpt>
      <trkpt lat="45.86423" lon="6.45345">
        <ele>1878.7</ele>
        <time>2024-04-27T07:16:55Z</time>
      </trkpt>
      <trkpt lat="45.86422" lon="6.45345">
        <ele>1878.7</ele>
        <time>2024-04-27T07:16:56Z</time>
      </trkpt>
      <trkpt lat="45.86422" lon="6.45345">
        <ele>1878.7</ele>
        <time>2024-04-27T07:16:57Z</time>
      </trkpt>
      <trkpt lat="45.86422" lon="6.45345">
        <ele>1878.7</ele>
        <time>2024-04-27T07:16:58Z</time>
      </trkpt>
      <trkpt lat="45.86422" lon="6.45344">
        <ele>1878.7</ele>
        <time>2024-04-27T07:16:59Z</time>
      </trkpt>
      <trkpt lat="45.86422" lon="6.45344">
        <ele>1879.6</ele>
        <time>2024-04-27T07:17:00Z</time>
      </trkpt>
      <trkpt lat="45.86421" lon="6.45343">
        <ele>1879.6</ele>
        <time>2024-04-27T07:17:01Z</time>
      </trkpt>
      <trkpt lat="45.86421" lon="6.45343">
        <ele>1880.6</ele>
        <time>2024-04-27T07:17:02Z</time>
      </trkpt>
      <trkpt lat="45.86421" lon="6.45342">
        <ele>1880.6</ele>
        <time>2024-04-27T07:17:03Z</time>
      </trkpt>
      <trkpt lat="45.86421" lon="6.45341">
        <ele>1880.6</ele>
        <time>2024-04-27T07:17:04Z</time>
      </trkpt>
      <trkpt lat="45.86421" lon="6.45341">
        <ele>1880.6</ele>
        <time>2024-04-27T07:17:05Z</time>
      </trkpt>
      <trkpt lat="45.86421" lon="6.4534">
        <ele>1880.6</ele>
        <time>2024-04-27T07:17:06Z</time>
      </trkpt>
      <trkpt lat="45.86421" lon="6.4534">
        <ele>1880.6</ele>
        <time>2024-04-27T07:17:07Z</time>
      </trkpt>
      <trkpt lat="45.86421" lon="6.45339">
        <ele>1880.6</ele>
        <time>2024-04-27T07:17:08Z</time>
      </trkpt>
      <trkpt lat="45.86421" lon="6.45338">
        <ele>1880.6</ele>
        <time>2024-04-27T07:17:09Z</time>
      </trkpt>
      <trkpt lat="45.86421" lon="6.45338">
        <ele>1881.7</ele>
        <time>2024-04-27T07:17:10Z</time>
      </trkpt>
      <trkpt lat="45.86421" lon="6.45337">
        <ele>1881.7</ele>
        <time>2024-04-27T07:17:11Z</time>
      </trkpt>
      <trkpt lat="45.86421" lon="6.45337">
        <ele>1881.7</ele>
        <time>2024-04-27T07:17:12Z</time>
      </trkpt>
      <trkpt lat="45.8642" lon="6.45336">
        <ele>1881.7</ele>
        <time>2024-04-27T07:17:13Z</time>
      </trkpt>
      <trkpt lat="45.8642" lon="6.45336">
        <ele>1881.7</ele>
        <time>2024-04-27T07:17:14Z</time>
      </trkpt>
      <trkpt lat="45.8642" lon="6.45335">
        <ele>1881.7</ele>
        <time>2024-04-27T07:17:15Z</time>
      </trkpt>
      <trkpt lat="45.86419" lon="6.45335">
        <ele>1882.6</ele>
        <time>2024-04-27T07:17:16Z</time>
      </trkpt>
      <trkpt lat="45.86419" lon="6.45335">
        <ele>1882.6</ele>
        <time>2024-04-27T07:17:17Z</time>
      </trkpt>
      <trkpt lat="45.86419" lon="6.45334">
        <ele>1882.6</ele>
        <time>2024-04-27T07:17:18Z</time>
      </trkpt>
      <trkpt lat="45.86419" lon="6.45334">
        <ele>1882.6</ele>
        <time>2024-04-27T07:17:19Z</time>
      </trkpt>
      <trkpt lat="45.86418" lon="6.45334">
        <ele>1882.6</ele>
        <time>2024-04-27T07:17:20Z</time>
      </trkpt>
      <trkpt lat="45.86418" lon="6.45334">
        <ele>1882.6</ele>
        <time>2024-04-27T07:17:21Z</time>
      </trkpt>
      <trkpt lat="45.86418" lon="6.45334">
        <ele>1883.7</ele>
        <time>2024-04-27T07:17:22Z</time>
      </trkpt>
      <trkpt lat="45.86418" lon="6.45334">
        <ele>1883.7</ele>
        <time>2024-04-27T07:17:23Z</time>
      </trkpt>
      <trkpt lat="45.86417" lon="6.45334">
        <ele>1883.7</ele>
        <time>2024-04-27T07:17:24Z</time>
      </trkpt>
      <trkpt lat="45.86417" lon="6.45334">
        <ele>1883.7</ele>
        <time>2024-04-27T07:17:25Z</time>
      </trkpt>
      <trkpt lat="45.86417" lon="6.45334">
        <ele>1883.7</ele>
        <time>2024-04-27T07:17:26Z</time>
      </trkpt>
      <trkpt lat="45.86416" lon="6.45334">
        <ele>1883.7</ele>
        <time>2024-04-27T07:17:27Z</time>
      </trkpt>
      <trkpt lat="45.86416" lon="6.45335">
        <ele>1884.6</ele>
        <time>2024-04-27T07:17:28Z</time>
      </trkpt>
      <trkpt lat="45.86415" lon="6.45335">
        <ele>1884.6</ele>
        <time>2024-04-27T07:17:29Z</time>
      </trkpt>
      <trkpt lat="45.86415" lon="6.45335">
        <ele>1884.6</ele>
        <time>2024-04-27T07:17:30Z</time>
      </trkpt>
      <trkpt lat="45.86415" lon="6.45335">
        <ele>1884.6</ele>
        <time>2024-04-27T07:17:31Z</time>
      </trkpt>
      <trkpt lat="45.86415" lon="6.45335">
        <ele>1884.6</ele>
        <time>2024-04-27T07:17:32Z</time>
      </trkpt>
      <trkpt lat="45.86414" lon="6.45336">
        <ele>1884.6</ele>
        <time>2024-04-27T07:17:33Z</time>
      </trkpt>
      <trkpt lat="45.86414" lon="6.45336">
        <ele>1884.6</ele>
        <time>2024-04-27T07:17:34Z</time>
      </trkpt>
      <trkpt lat="45.86413" lon="6.45336">
        <ele>1884.6</ele>
        <time>2024-04-27T07:17:35Z</time>
      </trkpt>
      <trkpt lat="45.86412" lon="6.45336">
        <ele>1885.7</ele>
        <time>2024-04-27T07:17:36Z</time>
      </trkpt>
      <trkpt lat="45.86412" lon="6.45336">
        <ele>1885.7</ele>
        <time>2024-04-27T07:17:37Z</time>
      </trkpt>
      <trkpt lat="45.86411" lon="6.45336">
        <ele>1885.7</ele>
        <time>2024-04-27T07:17:38Z</time>
      </trkpt>
      <trkpt lat="45.86411" lon="6.45336">
        <ele>1885.7</ele>
        <time>2024-04-27T07:17:39Z</time>
      </trkpt>
      <trkpt lat="45.86411" lon="6.45336">
        <ele>1886.6</ele>
        <time>2024-04-27T07:17:40Z</time>
      </trkpt>
      <trkpt lat="45.8641" lon="6.45336">
        <ele>1886.6</ele>
        <time>2024-04-27T07:17:41Z</time>
      </trkpt>
      <trkpt lat="45.8641" lon="6.45337">
        <ele>1886.6</ele>
        <time>2024-04-27T07:17:42Z</time>
      </trkpt>
      <trkpt lat="45.8641" lon="6.45337">
        <ele>1886.6</ele>
        <time>2024-04-27T07:17:43Z</time>
      </trkpt>
      <trkpt lat="45.86409" lon="6.45337">
        <ele>1887.6</ele>
        <time>2024-04-27T07:17:44Z</time>
      </trkpt>
      <trkpt lat="45.86408" lon="6.45337">
        <ele>1887.6</ele>
        <time>2024-04-27T07:17:45Z</time>
      </trkpt>
      <trkpt lat="45.86408" lon="6.45337">
        <ele>1887.6</ele>
        <time>2024-04-27T07:17:46Z</time>
      </trkpt>
      <trkpt lat="45.86408" lon="6.45337">
        <ele>1887.6</ele>
        <time>2024-04-27T07:17:47Z</time>
      </trkpt>
      <trkpt lat="45.86407" lon="6.45337">
        <ele>1888.7</ele>
        <time>2024-04-27T07:17:48Z</time>
      </trkpt>
      <trkpt lat="45.86407" lon="6.45338">
        <ele>1888.7</ele>
        <time>2024-04-27T07:17:49Z</time>
      </trkpt>
      <trkpt lat="45.86407" lon="6.45338">
        <ele>1888.7</ele>
        <time>2024-04-27T07:17:50Z</time>
      </trkpt>
      <trkpt lat="45.86406" lon="6.45338">
        <ele>1888.7</ele>
        <time>2024-04-27T07:17:51Z</time>
      </trkpt>
      <trkpt lat="45.86406" lon="6.45338">
        <ele>1888.7</ele>
        <time>2024-04-27T07:17:52Z</time>
      </trkpt>
      <trkpt lat="45.86405" lon="6.45339">
        <ele>1888.7</ele>
        <time>2024-04-27T07:17:53Z</time>
      </trkpt>
      <trkpt lat="45.86405" lon="6.45339">
        <ele>1889.6</ele>
        <time>2024-04-27T07:17:54Z</time>
      </trkpt>
      <trkpt lat="45.86404" lon="6.45339">
        <ele>1889.6</ele>
        <time>2024-04-27T07:17:55Z</time>
      </trkpt>
      <trkpt lat="45.86404" lon="6.4534">
        <ele>1889.6</ele>
        <time>2024-04-27T07:17:56Z</time>
      </trkpt>
      <trkpt lat="45.86404" lon="6.4534">
        <ele>1889.6</ele>
        <time>2024-04-27T07:17:57Z</time>
      </trkpt>
      <trkpt lat="45.86403" lon="6.4534">
        <ele>1889.6</ele>
        <time>2024-04-27T07:17:58Z</time>
      </trkpt>
      <trkpt lat="45.86403" lon="6.4534">
        <ele>1889.6</ele>
        <time>2024-04-27T07:17:59Z</time>
      </trkpt>
      <trkpt lat="45.86403" lon="6.45341">
        <ele>1890.7</ele>
        <time>2024-04-27T07:18:00Z</time>
      </trkpt>
      <trkpt lat="45.86403" lon="6.45341">
        <ele>1890.7</ele>
        <time>2024-04-27T07:18:01Z</time>
      </trkpt>
      <trkpt lat="45.86402" lon="6.45342">
        <ele>1890.7</ele>
        <time>2024-04-27T07:18:02Z</time>
      </trkpt>
      <trkpt lat="45.86402" lon="6.45342">
        <ele>1890.7</ele>
        <time>2024-04-27T07:18:03Z</time>
      </trkpt>
      <trkpt lat="45.86401" lon="6.45342">
        <ele>1890.7</ele>
        <time>2024-04-27T07:18:04Z</time>
      </trkpt>
      <trkpt lat="45.864" lon="6.45343">
        <ele>1890.7</ele>
        <time>2024-04-27T07:18:05Z</time>
      </trkpt>
      <trkpt lat="45.864" lon="6.45343">
        <ele>1890.7</ele>
        <time>2024-04-27T07:18:06Z</time>
      </trkpt>
      <trkpt lat="45.864" lon="6.45343">
        <ele>1890.7</ele>
        <time>2024-04-27T07:18:07Z</time>
      </trkpt>
      <trkpt lat="45.864" lon="6.45342">
        <ele>1890.7</ele>
        <time>2024-04-27T07:18:08Z</time>
      </trkpt>
      <trkpt lat="45.86399" lon="6.45342">
        <ele>1890.7</ele>
        <time>2024-04-27T07:18:09Z</time>
      </trkpt>
      <trkpt lat="45.86399" lon="6.45342">
        <ele>1891.6</ele>
        <time>2024-04-27T07:18:10Z</time>
      </trkpt>
      <trkpt lat="45.86399" lon="6.45343">
        <ele>1891.6</ele>
        <time>2024-04-27T07:18:11Z</time>
      </trkpt>
      <trkpt lat="45.86398" lon="6.45344">
        <ele>1891.6</ele>
        <time>2024-04-27T07:18:12Z</time>
      </trkpt>
      <trkpt lat="45.86398" lon="6.45344">
        <ele>1891.6</ele>
        <time>2024-04-27T07:18:13Z</time>
      </trkpt>
      <trkpt lat="45.86397" lon="6.45345">
        <ele>1892.7</ele>
        <time>2024-04-27T07:18:14Z</time>
      </trkpt>
      <trkpt lat="45.86397" lon="6.45345">
        <ele>1892.7</ele>
        <time>2024-04-27T07:18:15Z</time>
      </trkpt>
      <trkpt lat="45.86396" lon="6.45345">
        <ele>1892.7</ele>
        <time>2024-04-27T07:18:16Z</time>
      </trkpt>
      <trkpt lat="45.86396" lon="6.45346">
        <ele>1892.7</ele>
        <time>2024-04-27T07:18:17Z</time>
      </trkpt>
      <trkpt lat="45.86396" lon="6.45346">
        <ele>1893.6</ele>
        <time>2024-04-27T07:18:18Z</time>
      </trkpt>
      <trkpt lat="45.86395" lon="6.45346">
        <ele>1893.6</ele>
        <time>2024-04-27T07:18:19Z</time>
      </trkpt>
      <trkpt lat="45.86394" lon="6.45347">
        <ele>1893.6</ele>
        <time>2024-04-27T07:18:20Z</time>
      </trkpt>
      <trkpt lat="45.86394" lon="6.45347">
        <ele>1893.6</ele>
        <time>2024-04-27T07:18:21Z</time>
      </trkpt>
      <trkpt lat="45.86394" lon="6.45347">
        <ele>1894.7</ele>
        <time>2024-04-27T07:18:22Z</time>
      </trkpt>
      <trkpt lat="45.86394" lon="6.45347">
        <ele>1894.7</ele>
        <time>2024-04-27T07:18:23Z</time>
      </trkpt>
      <trkpt lat="45.86393" lon="6.45347">
        <ele>1894.7</ele>
        <time>2024-04-27T07:18:24Z</time>
      </trkpt>
      <trkpt lat="45.86393" lon="6.45347">
        <ele>1894.7</ele>
        <time>2024-04-27T07:18:25Z</time>
      </trkpt>
      <trkpt lat="45.86392" lon="6.45347">
        <ele>1894.7</ele>
        <time>2024-04-27T07:18:26Z</time>
      </trkpt>
      <trkpt lat="45.86392" lon="6.45348">
        <ele>1894.7</ele>
        <time>2024-04-27T07:18:27Z</time>
      </trkpt>
      <trkpt lat="45.86392" lon="6.45348">
        <ele>1895.6</ele>
        <time>2024-04-27T07:18:28Z</time>
      </trkpt>
      <trkpt lat="45.86391" lon="6.45349">
        <ele>1895.6</ele>
        <time>2024-04-27T07:18:29Z</time>
      </trkpt>
      <trkpt lat="45.86391" lon="6.45349">
        <ele>1895.6</ele>
        <time>2024-04-27T07:18:30Z</time>
      </trkpt>
      <trkpt lat="45.8639" lon="6.45349">
        <ele>1895.6</ele>
        <time>2024-04-27T07:18:31Z</time>
      </trkpt>
      <trkpt lat="45.8639" lon="6.4535">
        <ele>1895.6</ele>
        <time>2024-04-27T07:18:32Z</time>
      </trkpt>
      <trkpt lat="45.86389" lon="6.4535">
        <ele>1895.6</ele>
        <time>2024-04-27T07:18:33Z</time>
      </trkpt>
      <trkpt lat="45.86389" lon="6.4535">
        <ele>1895.6</ele>
        <time>2024-04-27T07:18:34Z</time>
      </trkpt>
      <trkpt lat="45.86388" lon="6.4535">
        <ele>1895.6</ele>
        <time>2024-04-27T07:18:35Z</time>
      </trkpt>
      <trkpt lat="45.86388" lon="6.4535">
        <ele>1896.6</ele>
        <time>2024-04-27T07:18:36Z</time>
      </trkpt>
      <trkpt lat="45.86387" lon="6.4535">
        <ele>1896.6</ele>
        <time>2024-04-27T07:18:37Z</time>
      </trkpt>
      <trkpt lat="45.86387" lon="6.45349">
        <ele>1896.6</ele>
        <time>2024-04-27T07:18:38Z</time>
      </trkpt>
      <trkpt lat="45.86387" lon="6.45349">
        <ele>1896.6</ele>
        <time>2024-04-27T07:18:39Z</time>
      </trkpt>
      <trkpt lat="45.86386" lon="6.45349">
        <ele>1897.7</ele>
        <time>2024-04-27T07:18:40Z</time>
      </trkpt>
      <trkpt lat="45.86386" lon="6.45349">
        <ele>1897.7</ele>
        <time>2024-04-27T07:18:41Z</time>
      </trkpt>
      <trkpt lat="45.86386" lon="6.45349">
        <ele>1897.7</ele>
        <time>2024-04-27T07:18:42Z</time>
      </trkpt>
      <trkpt lat="45.86385" lon="6.45349">
        <ele>1897.7</ele>
        <time>2024-04-27T07:18:43Z</time>
      </trkpt>
      <trkpt lat="45.86385" lon="6.45349">
        <ele>1898.6</ele>
        <time>2024-04-27T07:18:44Z</time>
      </trkpt>
      <trkpt lat="45.86384" lon="6.45349">
        <ele>1898.6</ele>
        <time>2024-04-27T07:18:45Z</time>
      </trkpt>
      <trkpt lat="45.86385" lon="6.45349">
        <ele>1898.6</ele>
        <time>2024-04-27T07:18:46Z</time>
      </trkpt>
      <trkpt lat="45.86384" lon="6.4535">
        <ele>1898.6</ele>
        <time>2024-04-27T07:18:47Z</time>
      </trkpt>
      <trkpt lat="45.86384" lon="6.4535">
        <ele>1899.7</ele>
        <time>2024-04-27T07:18:48Z</time>
      </trkpt>
      <trkpt lat="45.86384" lon="6.4535">
        <ele>1899.7</ele>
        <time>2024-04-27T07:18:49Z</time>
      </trkpt>
      <trkpt lat="45.86384" lon="6.45351">
        <ele>1899.7</ele>
        <time>2024-04-27T07:18:50Z</time>
      </trkpt>
      <trkpt lat="45.86384" lon="6.4535">
        <ele>1899.7</ele>
        <time>2024-04-27T07:18:51Z</time>
      </trkpt>
      <trkpt lat="45.86383" lon="6.45351">
        <ele>1899.7</ele>
        <time>2024-04-27T07:18:52Z</time>
      </trkpt>
      <trkpt lat="45.86382" lon="6.45351">
        <ele>1899.7</ele>
        <time>2024-04-27T07:18:53Z</time>
      </trkpt>
      <trkpt lat="45.86382" lon="6.45352">
        <ele>1900.6</ele>
        <time>2024-04-27T07:18:54Z</time>
      </trkpt>
      <trkpt lat="45.86382" lon="6.45352">
        <ele>1900.6</ele>
        <time>2024-04-27T07:18:55Z</time>
      </trkpt>
      <trkpt lat="45.86381" lon="6.45352">
        <ele>1901.7</ele>
        <time>2024-04-27T07:18:56Z</time>
      </trkpt>
      <trkpt lat="45.86381" lon="6.45352">
        <ele>1901.7</ele>
        <time>2024-04-27T07:18:57Z</time>
      </trkpt>
      <trkpt lat="45.8638" lon="6.45352">
        <ele>1901.7</ele>
        <time>2024-04-27T07:18:58Z</time>
      </trkpt>
      <trkpt lat="45.86379" lon="6.45353">
        <ele>1901.7</ele>
        <time>2024-04-27T07:18:59Z</time>
      </trkpt>
      <trkpt lat="45.86379" lon="6.45352">
        <ele>1901.7</ele>
        <time>2024-04-27T07:19:00Z</time>
      </trkpt>
      <trkpt lat="45.86379" lon="6.45352">
        <ele>1901.7</ele>
        <time>2024-04-27T07:19:01Z</time>
      </trkpt>
      <trkpt lat="45.86379" lon="6.45352">
        <ele>1902.6</ele>
        <time>2024-04-27T07:19:02Z</time>
      </trkpt>
      <trkpt lat="45.86378" lon="6.45352">
        <ele>1902.6</ele>
        <time>2024-04-27T07:19:03Z</time>
      </trkpt>
      <trkpt lat="45.86378" lon="6.45352">
        <ele>1902.6</ele>
        <time>2024-04-27T07:19:04Z</time>
      </trkpt>
      <trkpt lat="45.86378" lon="6.45352">
        <ele>1902.6</ele>
        <time>2024-04-27T07:19:05Z</time>
      </trkpt>
      <trkpt lat="45.86377" lon="6.45353">
        <ele>1902.6</ele>
        <time>2024-04-27T07:19:06Z</time>
      </trkpt>
      <trkpt lat="45.86377" lon="6.45353">
        <ele>1902.6</ele>
        <time>2024-04-27T07:19:07Z</time>
      </trkpt>
      <trkpt lat="45.86377" lon="6.45353">
        <ele>1903.7</ele>
        <time>2024-04-27T07:19:08Z</time>
      </trkpt>
      <trkpt lat="45.86376" lon="6.45353">
        <ele>1903.7</ele>
        <time>2024-04-27T07:19:09Z</time>
      </trkpt>
      <trkpt lat="45.86376" lon="6.45353">
        <ele>1903.7</ele>
        <time>2024-04-27T07:19:10Z</time>
      </trkpt>
      <trkpt lat="45.86375" lon="6.45354">
        <ele>1903.7</ele>
        <time>2024-04-27T07:19:11Z</time>
      </trkpt>
      <trkpt lat="45.86375" lon="6.45354">
        <ele>1903.7</ele>
        <time>2024-04-27T07:19:12Z</time>
      </trkpt>
      <trkpt lat="45.86374" lon="6.45354">
        <ele>1903.7</ele>
        <time>2024-04-27T07:19:13Z</time>
      </trkpt>
      <trkpt lat="45.86374" lon="6.45354">
        <ele>1904.7</ele>
        <time>2024-04-27T07:19:14Z</time>
      </trkpt>
      <trkpt lat="45.86373" lon="6.45354">
        <ele>1904.7</ele>
        <time>2024-04-27T07:19:15Z</time>
      </trkpt>
      <trkpt lat="45.86373" lon="6.45355">
        <ele>1904.7</ele>
        <time>2024-04-27T07:19:16Z</time>
      </trkpt>
      <trkpt lat="45.86372" lon="6.45355">
        <ele>1904.7</ele>
        <time>2024-04-27T07:19:17Z</time>
      </trkpt>
      <trkpt lat="45.86372" lon="6.45355">
        <ele>1904.7</ele>
        <time>2024-04-27T07:19:18Z</time>
      </trkpt>
      <trkpt lat="45.86371" lon="6.45355">
        <ele>1904.7</ele>
        <time>2024-04-27T07:19:19Z</time>
      </trkpt>
      <trkpt lat="45.86371" lon="6.45356">
        <ele>1904.7</ele>
        <time>2024-04-27T07:19:20Z</time>
      </trkpt>
      <trkpt lat="45.86371" lon="6.45356">
        <ele>1904.7</ele>
        <time>2024-04-27T07:19:21Z</time>
      </trkpt>
      <trkpt lat="45.8637" lon="6.45356">
        <ele>1905.6</ele>
        <time>2024-04-27T07:19:22Z</time>
      </trkpt>
      <trkpt lat="45.8637" lon="6.45356">
        <ele>1905.6</ele>
        <time>2024-04-27T07:19:23Z</time>
      </trkpt>
      <trkpt lat="45.86369" lon="6.45356">
        <ele>1905.6</ele>
        <time>2024-04-27T07:19:24Z</time>
      </trkpt>
      <trkpt lat="45.86369" lon="6.45356">
        <ele>1905.6</ele>
        <time>2024-04-27T07:19:25Z</time>
      </trkpt>
      <trkpt lat="45.86368" lon="6.45356">
        <ele>1905.6</ele>
        <time>2024-04-27T07:19:26Z</time>
      </trkpt>
      <trkpt lat="45.86368" lon="6.45357">
        <ele>1905.6</ele>
        <time>2024-04-27T07:19:27Z</time>
      </trkpt>
      <trkpt lat="45.86367" lon="6.45358">
        <ele>1906.7</ele>
        <time>2024-04-27T07:19:28Z</time>
      </trkpt>
      <trkpt lat="45.86366" lon="6.45358">
        <ele>1906.7</ele>
        <time>2024-04-27T07:19:29Z</time>
      </trkpt>
      <trkpt lat="45.86366" lon="6.45359">
        <ele>1906.7</ele>
        <time>2024-04-27T07:19:30Z</time>
      </trkpt>
      <trkpt lat="45.86366" lon="6.45359">
        <ele>1906.7</ele>
        <time>2024-04-27T07:19:31Z</time>
      </trkpt>
      <trkpt lat="45.86365" lon="6.45359">
        <ele>1906.7</ele>
        <time>2024-04-27T07:19:32Z</time>
      </trkpt>
      <trkpt lat="45.86365" lon="6.45359">
        <ele>1906.7</ele>
        <time>2024-04-27T07:19:33Z</time>
      </trkpt>
      <trkpt lat="45.86365" lon="6.45358">
        <ele>1906.7</ele>
        <time>2024-04-27T07:19:34Z</time>
      </trkpt>
      <trkpt lat="45.86365" lon="6.45358">
        <ele>1906.7</ele>
        <time>2024-04-27T07:19:35Z</time>
      </trkpt>
      <trkpt lat="45.86364" lon="6.45358">
        <ele>1907.6</ele>
        <time>2024-04-27T07:19:36Z</time>
      </trkpt>
      <trkpt lat="45.86363" lon="6.45359">
        <ele>1907.6</ele>
        <time>2024-04-27T07:19:37Z</time>
      </trkpt>
      <trkpt lat="45.86363" lon="6.45359">
        <ele>1907.6</ele>
        <time>2024-04-27T07:19:38Z</time>
      </trkpt>
      <trkpt lat="45.86362" lon="6.45358">
        <ele>1907.6</ele>
        <time>2024-04-27T07:19:39Z</time>
      </trkpt>
      <trkpt lat="45.86362" lon="6.45358">
        <ele>1908.7</ele>
        <time>2024-04-27T07:19:40Z</time>
      </trkpt>
      <trkpt lat="45.86362" lon="6.45358">
        <ele>1908.7</ele>
        <time>2024-04-27T07:19:41Z</time>
      </trkpt>
      <trkpt lat="45.86361" lon="6.45358">
        <ele>1908.7</ele>
        <time>2024-04-27T07:19:42Z</time>
      </trkpt>
      <trkpt lat="45.86361" lon="6.45358">
        <ele>1908.7</ele>
        <time>2024-04-27T07:19:43Z</time>
      </trkpt>
      <trkpt lat="45.8636" lon="6.45358">
        <ele>1909.6</ele>
        <time>2024-04-27T07:19:44Z</time>
      </trkpt>
      <trkpt lat="45.8636" lon="6.45358">
        <ele>1909.6</ele>
        <time>2024-04-27T07:19:45Z</time>
      </trkpt>
      <trkpt lat="45.86361" lon="6.45358">
        <ele>1909.6</ele>
        <time>2024-04-27T07:19:46Z</time>
      </trkpt>
      <trkpt lat="45.86361" lon="6.45357">
        <ele>1909.6</ele>
        <time>2024-04-27T07:19:47Z</time>
      </trkpt>
      <trkpt lat="45.8636" lon="6.45358">
        <ele>1909.6</ele>
        <time>2024-04-27T07:19:48Z</time>
      </trkpt>
      <trkpt lat="45.8636" lon="6.45358">
        <ele>1909.6</ele>
        <time>2024-04-27T07:19:49Z</time>
      </trkpt>
      <trkpt lat="45.86359" lon="6.45358">
        <ele>1909.6</ele>
        <time>2024-04-27T07:19:50Z</time>
      </trkpt>
      <trkpt lat="45.86359" lon="6.45358">
        <ele>1909.6</ele>
        <time>2024-04-27T07:19:51Z</time>
      </trkpt>
      <trkpt lat="45.86359" lon="6.45357">
        <ele>1910.7</ele>
        <time>2024-04-27T07:19:52Z</time>
      </trkpt>
      <trkpt lat="45.86358" lon="6.45357">
        <ele>1910.7</ele>
        <time>2024-04-27T07:19:53Z</time>
      </trkpt>
      <trkpt lat="45.86358" lon="6.45358">
        <ele>1910.7</ele>
        <time>2024-04-27T07:19:54Z</time>
      </trkpt>
      <trkpt lat="45.86357" lon="6.45358">
        <ele>1910.7</ele>
        <time>2024-04-27T07:19:55Z</time>
      </trkpt>
      <trkpt lat="45.86357" lon="6.45358">
        <ele>1910.7</ele>
        <time>2024-04-27T07:19:56Z</time>
      </trkpt>
      <trkpt lat="45.86356" lon="6.45358">
        <ele>1910.7</ele>
        <time>2024-04-27T07:19:57Z</time>
      </trkpt>
      <trkpt lat="45.86355" lon="6.45358">
        <ele>1911.6</ele>
        <time>2024-04-27T07:19:58Z</time>
      </trkpt>
      <trkpt lat="45.86355" lon="6.45357">
        <ele>1911.6</ele>
        <time>2024-04-27T07:19:59Z</time>
      </trkpt>
      <trkpt lat="45.86355" lon="6.45357">
        <ele>1911.6</ele>
        <time>2024-04-27T07:20:00Z</time>
      </trkpt>
      <trkpt lat="45.86355" lon="6.45356">
        <ele>1911.6</ele>
        <time>2024-04-27T07:20:01Z</time>
      </trkpt>
      <trkpt lat="45.86354" lon="6.45356">
        <ele>1911.6</ele>
        <time>2024-04-27T07:20:02Z</time>
      </trkpt>
      <trkpt lat="45.86354" lon="6.45356">
        <ele>1911.6</ele>
        <time>2024-04-27T07:20:03Z</time>
      </trkpt>
      <trkpt lat="45.86354" lon="6.45356">
        <ele>1911.6</ele>
        <time>2024-04-27T07:20:04Z</time>
      </trkpt>
      <trkpt lat="45.86353" lon="6.45356">
        <ele>1911.6</ele>
        <time>2024-04-27T07:20:05Z</time>
      </trkpt>
      <trkpt lat="45.86353" lon="6.45356">
        <ele>1912.6</ele>
        <time>2024-04-27T07:20:06Z</time>
      </trkpt>
      <trkpt lat="45.86352" lon="6.45356">
        <ele>1912.6</ele>
        <time>2024-04-27T07:20:07Z</time>
      </trkpt>
      <trkpt lat="45.86352" lon="6.45356">
        <ele>1912.6</ele>
        <time>2024-04-27T07:20:08Z</time>
      </trkpt>
      <trkpt lat="45.86351" lon="6.45356">
        <ele>1912.6</ele>
        <time>2024-04-27T07:20:09Z</time>
      </trkpt>
      <trkpt lat="45.86351" lon="6.45357">
        <ele>1912.6</ele>
        <time>2024-04-27T07:20:10Z</time>
      </trkpt>
      <trkpt lat="45.8635" lon="6.45357">
        <ele>1912.6</ele>
        <time>2024-04-27T07:20:11Z</time>
      </trkpt>
      <trkpt lat="45.8635" lon="6.45357">
        <ele>1913.7</ele>
        <time>2024-04-27T07:20:12Z</time>
      </trkpt>
      <trkpt lat="45.86349" lon="6.45356">
        <ele>1913.7</ele>
        <time>2024-04-27T07:20:13Z</time>
      </trkpt>
      <trkpt lat="45.86349" lon="6.45356">
        <ele>1913.7</ele>
        <time>2024-04-27T07:20:14Z</time>
      </trkpt>
      <trkpt lat="45.86349" lon="6.45357">
        <ele>1913.7</ele>
        <time>2024-04-27T07:20:15Z</time>
      </trkpt>
      <trkpt lat="45.86348" lon="6.45357">
        <ele>1914.6</ele>
        <time>2024-04-27T07:20:16Z</time>
      </trkpt>
      <trkpt lat="45.86348" lon="6.45357">
        <ele>1914.6</ele>
        <time>2024-04-27T07:20:17Z</time>
      </trkpt>
      <trkpt lat="45.86348" lon="6.45357">
        <ele>1914.6</ele>
        <time>2024-04-27T07:20:18Z</time>
      </trkpt>
      <trkpt lat="45.86347" lon="6.45357">
        <ele>1914.6</ele>
        <time>2024-04-27T07:20:19Z</time>
      </trkpt>
      <trkpt lat="45.86347" lon="6.45357">
        <ele>1914.6</ele>
        <time>2024-04-27T07:20:20Z</time>
      </trkpt>
      <trkpt lat="45.86346" lon="6.45358">
        <ele>1914.6</ele>
        <time>2024-04-27T07:20:21Z</time>
      </trkpt>
      <trkpt lat="45.86345" lon="6.45358">
        <ele>1915.7</ele>
        <time>2024-04-27T07:20:22Z</time>
      </trkpt>
      <trkpt lat="45.86345" lon="6.45358">
        <ele>1915.7</ele>
        <time>2024-04-27T07:20:23Z</time>
      </trkpt>
      <trkpt lat="45.86345" lon="6.45358">
        <ele>1915.7</ele>
        <time>2024-04-27T07:20:24Z</time>
      </trkpt>
      <trkpt lat="45.86345" lon="6.45358">
        <ele>1915.7</ele>
        <time>2024-04-27T07:20:25Z</time>
      </trkpt>
      <trkpt lat="45.86344" lon="6.45358">
        <ele>1915.7</ele>
        <time>2024-04-27T07:20:26Z</time>
      </trkpt>
      <trkpt lat="45.86344" lon="6.45358">
        <ele>1915.7</ele>
        <time>2024-04-27T07:20:27Z</time>
      </trkpt>
      <trkpt lat="45.86343" lon="6.45358">
        <ele>1916.6</ele>
        <time>2024-04-27T07:20:28Z</time>
      </trkpt>
      <trkpt lat="45.86343" lon="6.45358">
        <ele>1916.6</ele>
        <time>2024-04-27T07:20:29Z</time>
      </trkpt>
      <trkpt lat="45.86342" lon="6.45358">
        <ele>1916.6</ele>
        <time>2024-04-27T07:20:30Z</time>
      </trkpt>
      <trkpt lat="45.86342" lon="6.45358">
        <ele>1916.6</ele>
        <time>2024-04-27T07:20:31Z</time>
      </trkpt>
      <trkpt lat="45.86342" lon="6.45358">
        <ele>1917.7</ele>
        <time>2024-04-27T07:20:32Z</time>
      </trkpt>
      <trkpt lat="45.86341" lon="6.45357">
        <ele>1917.7</ele>
        <time>2024-04-27T07:20:33Z</time>
      </trkpt>
      <trkpt lat="45.86341" lon="6.45357">
        <ele>1917.7</ele>
        <time>2024-04-27T07:20:34Z</time>
      </trkpt>
      <trkpt lat="45.86341" lon="6.45356">
        <ele>1917.7</ele>
        <time>2024-04-27T07:20:35Z</time>
      </trkpt>
      <trkpt lat="45.86341" lon="6.45356">
        <ele>1918.6</ele>
        <time>2024-04-27T07:20:36Z</time>
      </trkpt>
      <trkpt lat="45.8634" lon="6.45356">
        <ele>1918.6</ele>
        <time>2024-04-27T07:20:37Z</time>
      </trkpt>
      <trkpt lat="45.8634" lon="6.45356">
        <ele>1918.6</ele>
        <time>2024-04-27T07:20:38Z</time>
      </trkpt>
      <trkpt lat="45.8634" lon="6.45355">
        <ele>1918.6</ele>
        <time>2024-04-27T07:20:39Z</time>
      </trkpt>
      <trkpt lat="45.8634" lon="6.45354">
        <ele>1919.7</ele>
        <time>2024-04-27T07:20:40Z</time>
      </trkpt>
      <trkpt lat="45.8634" lon="6.45354">
        <ele>1919.7</ele>
        <time>2024-04-27T07:20:41Z</time>
      </trkpt>
      <trkpt lat="45.8634" lon="6.45354">
        <ele>1919.7</ele>
        <time>2024-04-27T07:20:42Z</time>
      </trkpt>
      <trkpt lat="45.8634" lon="6.45353">
        <ele>1919.7</ele>
        <time>2024-04-27T07:20:43Z</time>
      </trkpt>
      <trkpt lat="45.8634" lon="6.45353">
        <ele>1920.7</ele>
        <time>2024-04-27T07:20:44Z</time>
      </trkpt>
      <trkpt lat="45.8634" lon="6.45352">
        <ele>1920.7</ele>
        <time>2024-04-27T07:20:45Z</time>
      </trkpt>
      <trkpt lat="45.8634" lon="6.45351">
        <ele>1920.7</ele>
        <time>2024-04-27T07:20:46Z</time>
      </trkpt>
      <trkpt lat="45.86341" lon="6.4535">
        <ele>1920.7</ele>
        <time>2024-04-27T07:20:47Z</time>
      </trkpt>
      <trkpt lat="45.86341" lon="6.4535">
        <ele>1921.6</ele>
        <time>2024-04-27T07:20:48Z</time>
      </trkpt>
      <trkpt lat="45.86341" lon="6.45349">
        <ele>1921.6</ele>
        <time>2024-04-27T07:20:49Z</time>
      </trkpt>
      <trkpt lat="45.86341" lon="6.45349">
        <ele>1921.6</ele>
        <time>2024-04-27T07:20:50Z</time>
      </trkpt>
      <trkpt lat="45.86341" lon="6.45349">
        <ele>1921.6</ele>
        <time>2024-04-27T07:20:51Z</time>
      </trkpt>
      <trkpt lat="45.86341" lon="6.45348">
        <ele>1921.6</ele>
        <time>2024-04-27T07:20:52Z</time>
      </trkpt>
      <trkpt lat="45.86341" lon="6.45348">
        <ele>1921.6</ele>
        <time>2024-04-27T07:20:53Z</time>
      </trkpt>
      <trkpt lat="45.86341" lon="6.45347">
        <ele>1921.6</ele>
        <time>2024-04-27T07:20:54Z</time>
      </trkpt>
      <trkpt lat="45.86341" lon="6.45346">
        <ele>1921.6</ele>
        <time>2024-04-27T07:20:55Z</time>
      </trkpt>
      <trkpt lat="45.86341" lon="6.45345">
        <ele>1922.7</ele>
        <time>2024-04-27T07:20:56Z</time>
      </trkpt>
      <trkpt lat="45.86342" lon="6.45344">
        <ele>1922.7</ele>
        <time>2024-04-27T07:20:57Z</time>
      </trkpt>
      <trkpt lat="45.86342" lon="6.45344">
        <ele>1922.7</ele>
        <time>2024-04-27T07:20:58Z</time>
      </trkpt>
      <trkpt lat="45.86342" lon="6.45342">
        <ele>1922.7</ele>
        <time>2024-04-27T07:20:59Z</time>
      </trkpt>
      <trkpt lat="45.86342" lon="6.45342">
        <ele>1922.7</ele>
        <time>2024-04-27T07:21:00Z</time>
      </trkpt>
      <trkpt lat="45.86342" lon="6.45341">
        <ele>1922.7</ele>
        <time>2024-04-27T07:21:01Z</time>
      </trkpt>
      <trkpt lat="45.86342" lon="6.45341">
        <ele>1923.6</ele>
        <time>2024-04-27T07:21:02Z</time>
      </trkpt>
      <trkpt lat="45.86342" lon="6.45341">
        <ele>1923.6</ele>
        <time>2024-04-27T07:21:03Z</time>
      </trkpt>
      <trkpt lat="45.86342" lon="6.45341">
        <ele>1923.6</ele>
        <time>2024-04-27T07:21:04Z</time>
      </trkpt>
      <trkpt lat="45.86342" lon="6.45341">
        <ele>1923.6</ele>
        <time>2024-04-27T07:21:05Z</time>
      </trkpt>
      <trkpt lat="45.86341" lon="6.45341">
        <ele>1923.6</ele>
        <time>2024-04-27T07:21:06Z</time>
      </trkpt>
      <trkpt lat="45.86341" lon="6.45342">
        <ele>1923.6</ele>
        <time>2024-04-27T07:21:07Z</time>
      </trkpt>
      <trkpt lat="45.8634" lon="6.45342">
        <ele>1923.6</ele>
        <time>2024-04-27T07:21:08Z</time>
      </trkpt>
      <trkpt lat="45.86339" lon="6.45343">
        <ele>1923.6</ele>
        <time>2024-04-27T07:21:09Z</time>
      </trkpt>
      <trkpt lat="45.86339" lon="6.45343">
        <ele>1923.6</ele>
        <time>2024-04-27T07:21:10Z</time>
      </trkpt>
      <trkpt lat="45.86338" lon="6.45343">
        <ele>1923.6</ele>
        <time>2024-04-27T07:21:11Z</time>
      </trkpt>
      <trkpt lat="45.86337" lon="6.45343">
        <ele>1924.7</ele>
        <time>2024-04-27T07:21:12Z</time>
      </trkpt>
      <trkpt lat="45.86337" lon="6.45343">
        <ele>1924.7</ele>
        <time>2024-04-27T07:21:13Z</time>
      </trkpt>
      <trkpt lat="45.86336" lon="6.45343">
        <ele>1924.7</ele>
        <time>2024-04-27T07:21:14Z</time>
      </trkpt>
      <trkpt lat="45.86335" lon="6.45343">
        <ele>1924.7</ele>
        <time>2024-04-27T07:21:15Z</time>
      </trkpt>
      <trkpt lat="45.86334" lon="6.45343">
        <ele>1924.7</ele>
        <time>2024-04-27T07:21:16Z</time>
      </trkpt>
      <trkpt lat="45.86334" lon="6.45343">
        <ele>1924.7</ele>
        <time>2024-04-27T07:21:17Z</time>
      </trkpt>
      <trkpt lat="45.86333" lon="6.45343">
        <ele>1924.7</ele>
        <time>2024-04-27T07:21:18Z</time>
      </trkpt>
      <trkpt lat="45.86333" lon="6.45342">
        <ele>1924.7</ele>
        <time>2024-04-27T07:21:19Z</time>
      </trkpt>
      <trkpt lat="45.86333" lon="6.45342">
        <ele>1924.7</ele>
        <time>2024-04-27T07:21:20Z</time>
      </trkpt>
      <trkpt lat="45.86334" lon="6.45341">
        <ele>1924.7</ele>
        <time>2024-04-27T07:21:21Z</time>
      </trkpt>
      <trkpt lat="45.86334" lon="6.45341">
        <ele>1926.7</ele>
        <time>2024-04-27T07:21:22Z</time>
      </trkpt>
      <trkpt lat="45.86334" lon="6.4534">
        <ele>1926.7</ele>
        <time>2024-04-27T07:21:23Z</time>
      </trkpt>
      <trkpt lat="45.86335" lon="6.45339">
        <ele>1927.6</ele>
        <time>2024-04-27T07:21:24Z</time>
      </trkpt>
      <trkpt lat="45.86335" lon="6.45337">
        <ele>1927.6</ele>
        <time>2024-04-27T07:21:25Z</time>
      </trkpt>
      <trkpt lat="45.86336" lon="6.45337">
        <ele>1927.6</ele>
        <time>2024-04-27T07:21:26Z</time>
      </trkpt>
      <trkpt lat="45.86336" lon="6.45336">
        <ele>1927.6</ele>
        <time>2024-04-27T07:21:27Z</time>
      </trkpt>
      <trkpt lat="45.86336" lon="6.45335">
        <ele>1928.6</ele>
        <time>2024-04-27T07:21:28Z</time>
      </trkpt>
      <trkpt lat="45.86336" lon="6.45335">
        <ele>1928.6</ele>
        <time>2024-04-27T07:21:29Z</time>
      </trkpt>
      <trkpt lat="45.86336" lon="6.45335">
        <ele>1928.6</ele>
        <time>2024-04-27T07:21:30Z</time>
      </trkpt>
      <trkpt lat="45.86337" lon="6.45334">
        <ele>1928.6</ele>
        <time>2024-04-27T07:21:31Z</time>
      </trkpt>
      <trkpt lat="45.86337" lon="6.45333">
        <ele>1929.7</ele>
        <time>2024-04-27T07:21:32Z</time>
      </trkpt>
      <trkpt lat="45.86338" lon="6.45332">
        <ele>1929.7</ele>
        <time>2024-04-27T07:21:33Z</time>
      </trkpt>
      <trkpt lat="45.86338" lon="6.45331">
        <ele>1929.7</ele>
        <time>2024-04-27T07:21:34Z</time>
      </trkpt>
      <trkpt lat="45.86338" lon="6.4533">
        <ele>1929.7</ele>
        <time>2024-04-27T07:21:35Z</time>
      </trkpt>
      <trkpt lat="45.86339" lon="6.4533">
        <ele>1930.6</ele>
        <time>2024-04-27T07:21:36Z</time>
      </trkpt>
      <trkpt lat="45.86339" lon="6.45329">
        <ele>1930.6</ele>
        <time>2024-04-27T07:21:37Z</time>
      </trkpt>
      <trkpt lat="45.86339" lon="6.45328">
        <ele>1930.6</ele>
        <time>2024-04-27T07:21:38Z</time>
      </trkpt>
      <trkpt lat="45.8634" lon="6.45327">
        <ele>1930.6</ele>
        <time>2024-04-27T07:21:39Z</time>
      </trkpt>
      <trkpt lat="45.8634" lon="6.45327">
        <ele>1930.6</ele>
        <time>2024-04-27T07:21:40Z</time>
      </trkpt>
      <trkpt lat="45.8634" lon="6.45327">
        <ele>1930.6</ele>
        <time>2024-04-27T07:21:41Z</time>
      </trkpt>
      <trkpt lat="45.8634" lon="6.45326">
        <ele>1930.6</ele>
        <time>2024-04-27T07:21:42Z</time>
      </trkpt>
      <trkpt lat="45.86341" lon="6.45324">
        <ele>1930.6</ele>
        <time>2024-04-27T07:21:43Z</time>
      </trkpt>
      <trkpt lat="45.86341" lon="6.45323">
        <ele>1930.6</ele>
        <time>2024-04-27T07:21:44Z</time>
      </trkpt>
      <trkpt lat="45.86341" lon="6.45322">
        <ele>1930.6</ele>
        <time>2024-04-27T07:21:45Z</time>
      </trkpt>
      <trkpt lat="45.86341" lon="6.45319">
        <ele>1930.6</ele>
        <time>2024-04-27T07:21:46Z</time>
      </trkpt>
      <trkpt lat="45.86341" lon="6.45318">
        <ele>1930.6</ele>
        <time>2024-04-27T07:21:47Z</time>
      </trkpt>
      <trkpt lat="45.86341" lon="6.45318">
        <ele>1931.7</ele>
        <time>2024-04-27T07:21:48Z</time>
      </trkpt>
      <trkpt lat="45.86341" lon="6.45317">
        <ele>1931.7</ele>
        <time>2024-04-27T07:21:49Z</time>
      </trkpt>
      <trkpt lat="45.86341" lon="6.45317">
        <ele>1932.6</ele>
        <time>2024-04-27T07:21:50Z</time>
      </trkpt>
      <trkpt lat="45.86342" lon="6.45317">
        <ele>1932.6</ele>
        <time>2024-04-27T07:21:51Z</time>
      </trkpt>
      <trkpt lat="45.86342" lon="6.45317">
        <ele>1932.6</ele>
        <time>2024-04-27T07:21:52Z</time>
      </trkpt>
      <trkpt lat="45.86342" lon="6.45316">
        <ele>1932.6</ele>
        <time>2024-04-27T07:21:53Z</time>
      </trkpt>
      <trkpt lat="45.86342" lon="6.45315">
        <ele>1933.7</ele>
        <time>2024-04-27T07:21:54Z</time>
      </trkpt>
      <trkpt lat="45.86342" lon="6.45315">
        <ele>1933.7</ele>
        <time>2024-04-27T07:21:55Z</time>
      </trkpt>
      <trkpt lat="45.86343" lon="6.45314">
        <ele>1933.7</ele>
        <time>2024-04-27T07:21:56Z</time>
      </trkpt>
      <trkpt lat="45.86343" lon="6.45313">
        <ele>1933.7</ele>
        <time>2024-04-27T07:21:57Z</time>
      </trkpt>
      <trkpt lat="45.86343" lon="6.45313">
        <ele>1933.7</ele>
        <time>2024-04-27T07:21:58Z</time>
      </trkpt>
      <trkpt lat="45.86343" lon="6.45312">
        <ele>1933.7</ele>
        <time>2024-04-27T07:21:59Z</time>
      </trkpt>
      <trkpt lat="45.86344" lon="6.45311">
        <ele>1933.7</ele>
        <time>2024-04-27T07:22:00Z</time>
      </trkpt>
      <trkpt lat="45.86344" lon="6.45309">
        <ele>1933.7</ele>
        <time>2024-04-27T07:22:01Z</time>
      </trkpt>
      <trkpt lat="45.86344" lon="6.45309">
        <ele>1933.7</ele>
        <time>2024-04-27T07:22:02Z</time>
      </trkpt>
      <trkpt lat="45.86344" lon="6.45309">
        <ele>1933.7</ele>
        <time>2024-04-27T07:22:03Z</time>
      </trkpt>
      <trkpt lat="45.86343" lon="6.45309">
        <ele>1934.6</ele>
        <time>2024-04-27T07:22:04Z</time>
      </trkpt>
      <trkpt lat="45.86344" lon="6.45308">
        <ele>1934.6</ele>
        <time>2024-04-27T07:22:05Z</time>
      </trkpt>
      <trkpt lat="45.86344" lon="6.45307">
        <ele>1934.6</ele>
        <time>2024-04-27T07:22:06Z</time>
      </trkpt>
      <trkpt lat="45.86344" lon="6.45306">
        <ele>1934.6</ele>
        <time>2024-04-27T07:22:07Z</time>
      </trkpt>
      <trkpt lat="45.86345" lon="6.45305">
        <ele>1934.6</ele>
        <time>2024-04-27T07:22:08Z</time>
      </trkpt>
      <trkpt lat="45.86345" lon="6.45304">
        <ele>1934.6</ele>
        <time>2024-04-27T07:22:09Z</time>
      </trkpt>
      <trkpt lat="45.86345" lon="6.45304">
        <ele>1935.7</ele>
        <time>2024-04-27T07:22:10Z</time>
      </trkpt>
      <trkpt lat="45.86345" lon="6.45303">
        <ele>1935.7</ele>
        <time>2024-04-27T07:22:11Z</time>
      </trkpt>
      <trkpt lat="45.86345" lon="6.45303">
        <ele>1935.7</ele>
        <time>2024-04-27T07:22:12Z</time>
      </trkpt>
      <trkpt lat="45.86345" lon="6.45302">
        <ele>1935.7</ele>
        <time>2024-04-27T07:22:13Z</time>
      </trkpt>
      <trkpt lat="45.86345" lon="6.45301">
        <ele>1935.7</ele>
        <time>2024-04-27T07:22:14Z</time>
      </trkpt>
      <trkpt lat="45.86345" lon="6.453">
        <ele>1935.7</ele>
        <time>2024-04-27T07:22:15Z</time>
      </trkpt>
      <trkpt lat="45.86346" lon="6.453">
        <ele>1936.7</ele>
        <time>2024-04-27T07:22:16Z</time>
      </trkpt>
      <trkpt lat="45.86345" lon="6.453">
        <ele>1936.7</ele>
        <time>2024-04-27T07:22:17Z</time>
      </trkpt>
      <trkpt lat="45.86345" lon="6.45299">
        <ele>1936.7</ele>
        <time>2024-04-27T07:22:18Z</time>
      </trkpt>
      <trkpt lat="45.86345" lon="6.45298">
        <ele>1936.7</ele>
        <time>2024-04-27T07:22:19Z</time>
      </trkpt>
      <trkpt lat="45.86345" lon="6.45298">
        <ele>1936.7</ele>
        <time>2024-04-27T07:22:20Z</time>
      </trkpt>
      <trkpt lat="45.86345" lon="6.45298">
        <ele>1936.7</ele>
        <time>2024-04-27T07:22:21Z</time>
      </trkpt>
      <trkpt lat="45.86345" lon="6.45298">
        <ele>1937.6</ele>
        <time>2024-04-27T07:22:22Z</time>
      </trkpt>
      <trkpt lat="45.86345" lon="6.45298">
        <ele>1937.6</ele>
        <time>2024-04-27T07:22:23Z</time>
      </trkpt>
      <trkpt lat="45.86345" lon="6.45298">
        <ele>1937.6</ele>
        <time>2024-04-27T07:22:24Z</time>
      </trkpt>
      <trkpt lat="45.86344" lon="6.45298">
        <ele>1937.6</ele>
        <time>2024-04-27T07:22:25Z</time>
      </trkpt>
      <trkpt lat="45.86344" lon="6.45298">
        <ele>1937.6</ele>
        <time>2024-04-27T07:22:26Z</time>
      </trkpt>
      <trkpt lat="45.86344" lon="6.45298">
        <ele>1937.6</ele>
        <time>2024-04-27T07:22:27Z</time>
      </trkpt>
      <trkpt lat="45.86343" lon="6.45298">
        <ele>1937.6</ele>
        <time>2024-04-27T07:22:28Z</time>
      </trkpt>
      <trkpt lat="45.86343" lon="6.45298">
        <ele>1937.6</ele>
        <time>2024-04-27T07:22:29Z</time>
      </trkpt>
      <trkpt lat="45.86342" lon="6.45299">
        <ele>1937.6</ele>
        <time>2024-04-27T07:22:30Z</time>
      </trkpt>
      <trkpt lat="45.86341" lon="6.45299">
        <ele>1937.6</ele>
        <time>2024-04-27T07:22:31Z</time>
      </trkpt>
      <trkpt lat="45.86341" lon="6.45299">
        <ele>1937.6</ele>
        <time>2024-04-27T07:22:32Z</time>
      </trkpt>
      <trkpt lat="45.8634" lon="6.45299">
        <ele>1937.6</ele>
        <time>2024-04-27T07:22:33Z</time>
      </trkpt>
      <trkpt lat="45.86339" lon="6.45299">
        <ele>1938.7</ele>
        <time>2024-04-27T07:22:34Z</time>
      </trkpt>
      <trkpt lat="45.86339" lon="6.453">
        <ele>1938.7</ele>
        <time>2024-04-27T07:22:35Z</time>
      </trkpt>
      <trkpt lat="45.86338" lon="6.453">
        <ele>1938.7</ele>
        <time>2024-04-27T07:22:36Z</time>
      </trkpt>
      <trkpt lat="45.86338" lon="6.45301">
        <ele>1938.7</ele>
        <time>2024-04-27T07:22:37Z</time>
      </trkpt>
      <trkpt lat="45.86337" lon="6.45302">
        <ele>1939.6</ele>
        <time>2024-04-27T07:22:38Z</time>
      </trkpt>
      <trkpt lat="45.86337" lon="6.45302">
        <ele>1939.6</ele>
        <time>2024-04-27T07:22:39Z</time>
      </trkpt>
      <trkpt lat="45.86336" lon="6.45303">
        <ele>1939.6</ele>
        <time>2024-04-27T07:22:40Z</time>
      </trkpt>
      <trkpt lat="45.86336" lon="6.45303">
        <ele>1939.6</ele>
        <time>2024-04-27T07:22:41Z</time>
      </trkpt>
      <trkpt lat="45.86335" lon="6.45304">
        <ele>1939.6</ele>
        <time>2024-04-27T07:22:42Z</time>
      </trkpt>
      <trkpt lat="45.86334" lon="6.45305">
        <ele>1939.6</ele>
        <time>2024-04-27T07:22:43Z</time>
      </trkpt>
      <trkpt lat="45.86334" lon="6.45305">
        <ele>1939.6</ele>
        <time>2024-04-27T07:22:44Z</time>
      </trkpt>
      <trkpt lat="45.86333" lon="6.45305">
        <ele>1939.6</ele>
        <time>2024-04-27T07:22:45Z</time>
      </trkpt>
      <trkpt lat="45.86333" lon="6.45305">
        <ele>1940.7</ele>
        <time>2024-04-27T07:22:46Z</time>
      </trkpt>
      <trkpt lat="45.86333" lon="6.45305">
        <ele>1940.7</ele>
        <time>2024-04-27T07:22:47Z</time>
      </trkpt>
      <trkpt lat="45.86333" lon="6.45305">
        <ele>1940.7</ele>
        <time>2024-04-27T07:22:48Z</time>
      </trkpt>
      <trkpt lat="45.86333" lon="6.45305">
        <ele>1940.7</ele>
        <time>2024-04-27T07:22:49Z</time>
      </trkpt>
      <trkpt lat="45.86332" lon="6.45305">
        <ele>1941.6</ele>
        <time>2024-04-27T07:22:50Z</time>
      </trkpt>
      <trkpt lat="45.86331" lon="6.45306">
        <ele>1941.6</ele>
        <time>2024-04-27T07:22:51Z</time>
      </trkpt>
      <trkpt lat="45.86331" lon="6.45306">
        <ele>1941.6</ele>
        <time>2024-04-27T07:22:52Z</time>
      </trkpt>
      <trkpt lat="45.8633" lon="6.45306">
        <ele>1941.6</ele>
        <time>2024-04-27T07:22:53Z</time>
      </trkpt>
      <trkpt lat="45.8633" lon="6.45306">
        <ele>1941.6</ele>
        <time>2024-04-27T07:22:54Z</time>
      </trkpt>
      <trkpt lat="45.8633" lon="6.45306">
        <ele>1941.6</ele>
        <time>2024-04-27T07:22:55Z</time>
      </trkpt>
      <trkpt lat="45.86329" lon="6.45306">
        <ele>1942.7</ele>
        <time>2024-04-27T07:22:56Z</time>
      </trkpt>
      <trkpt lat="45.86329" lon="6.45306">
        <ele>1942.7</ele>
        <time>2024-04-27T07:22:57Z</time>
      </trkpt>
      <trkpt lat="45.86327" lon="6.45307">
        <ele>1942.7</ele>
        <time>2024-04-27T07:22:58Z</time>
      </trkpt>
      <trkpt lat="45.86327" lon="6.45308">
        <ele>1942.7</ele>
        <time>2024-04-27T07:22:59Z</time>
      </trkpt>
      <trkpt lat="45.86326" lon="6.45309">
        <ele>1942.7</ele>
        <time>2024-04-27T07:23:00Z</time>
      </trkpt>
      <trkpt lat="45.86325" lon="6.45309">
        <ele>1942.7</ele>
        <time>2024-04-27T07:23:01Z</time>
      </trkpt>
      <trkpt lat="45.86325" lon="6.45309">
        <ele>1942.7</ele>
        <time>2024-04-27T07:23:02Z</time>
      </trkpt>
      <trkpt lat="45.86324" lon="6.45309">
        <ele>1942.7</ele>
        <time>2024-04-27T07:23:03Z</time>
      </trkpt>
      <trkpt lat="45.86324" lon="6.4531">
        <ele>1943.6</ele>
        <time>2024-04-27T07:23:04Z</time>
      </trkpt>
      <trkpt lat="45.86324" lon="6.4531">
        <ele>1943.6</ele>
        <time>2024-04-27T07:23:05Z</time>
      </trkpt>
      <trkpt lat="45.86323" lon="6.4531">
        <ele>1943.6</ele>
        <time>2024-04-27T07:23:06Z</time>
      </trkpt>
      <trkpt lat="45.86322" lon="6.4531">
        <ele>1943.6</ele>
        <time>2024-04-27T07:23:07Z</time>
      </trkpt>
      <trkpt lat="45.86322" lon="6.4531">
        <ele>1944.6</ele>
        <time>2024-04-27T07:23:08Z</time>
      </trkpt>
      <trkpt lat="45.86322" lon="6.4531">
        <ele>1944.6</ele>
        <time>2024-04-27T07:23:09Z</time>
      </trkpt>
      <trkpt lat="45.86321" lon="6.45311">
        <ele>1944.6</ele>
        <time>2024-04-27T07:23:10Z</time>
      </trkpt>
      <trkpt lat="45.8632" lon="6.45311">
        <ele>1944.6</ele>
        <time>2024-04-27T07:23:11Z</time>
      </trkpt>
      <trkpt lat="45.8632" lon="6.45311">
        <ele>1945.7</ele>
        <time>2024-04-27T07:23:12Z</time>
      </trkpt>
      <trkpt lat="45.86319" lon="6.45311">
        <ele>1945.7</ele>
        <time>2024-04-27T07:23:13Z</time>
      </trkpt>
      <trkpt lat="45.86319" lon="6.4531">
        <ele>1945.7</ele>
        <time>2024-04-27T07:23:14Z</time>
      </trkpt>
      <trkpt lat="45.86319" lon="6.4531">
        <ele>1945.7</ele>
        <time>2024-04-27T07:23:15Z</time>
      </trkpt>
      <trkpt lat="45.86318" lon="6.4531">
        <ele>1945.7</ele>
        <time>2024-04-27T07:23:16Z</time>
      </trkpt>
      <trkpt lat="45.86317" lon="6.4531">
        <ele>1945.7</ele>
        <time>2024-04-27T07:23:17Z</time>
      </trkpt>
      <trkpt lat="45.86317" lon="6.45311">
        <ele>1946.6</ele>
        <time>2024-04-27T07:23:18Z</time>
      </trkpt>
      <trkpt lat="45.86316" lon="6.45311">
        <ele>1946.6</ele>
        <time>2024-04-27T07:23:19Z</time>
      </trkpt>
      <trkpt lat="45.86315" lon="6.45312">
        <ele>1946.6</ele>
        <time>2024-04-27T07:23:20Z</time>
      </trkpt>
      <trkpt lat="45.86315" lon="6.45312">
        <ele>1946.6</ele>
        <time>2024-04-27T07:23:21Z</time>
      </trkpt>
      <trkpt lat="45.86314" lon="6.45312">
        <ele>1946.6</ele>
        <time>2024-04-27T07:23:22Z</time>
      </trkpt>
      <trkpt lat="45.86313" lon="6.45313">
        <ele>1946.6</ele>
        <time>2024-04-27T07:23:23Z</time>
      </trkpt>
      <trkpt lat="45.86313" lon="6.45313">
        <ele>1946.6</ele>
        <time>2024-04-27T07:23:24Z</time>
      </trkpt>
      <trkpt lat="45.86312" lon="6.45314">
        <ele>1946.6</ele>
        <time>2024-04-27T07:23:25Z</time>
      </trkpt>
      <trkpt lat="45.86312" lon="6.45314">
        <ele>1947.7</ele>
        <time>2024-04-27T07:23:26Z</time>
      </trkpt>
      <trkpt lat="45.86312" lon="6.45314">
        <ele>1947.7</ele>
        <time>2024-04-27T07:23:27Z</time>
      </trkpt>
      <trkpt lat="45.86311" lon="6.45315">
        <ele>1947.7</ele>
        <time>2024-04-27T07:23:28Z</time>
      </trkpt>
      <trkpt lat="45.8631" lon="6.45315">
        <ele>1947.7</ele>
        <time>2024-04-27T07:23:29Z</time>
      </trkpt>
      <trkpt lat="45.86309" lon="6.45316">
        <ele>1947.7</ele>
        <time>2024-04-27T07:23:30Z</time>
      </trkpt>
      <trkpt lat="45.86308" lon="6.45316">
        <ele>1947.7</ele>
        <time>2024-04-27T07:23:31Z</time>
      </trkpt>
      <trkpt lat="45.86308" lon="6.45317">
        <ele>1948.6</ele>
        <time>2024-04-27T07:23:32Z</time>
      </trkpt>
      <trkpt lat="45.86307" lon="6.45317">
        <ele>1948.6</ele>
        <time>2024-04-27T07:23:33Z</time>
      </trkpt>
      <trkpt lat="45.86307" lon="6.45317">
        <ele>1948.6</ele>
        <time>2024-04-27T07:23:34Z</time>
      </trkpt>
      <trkpt lat="45.86306" lon="6.45317">
        <ele>1948.6</ele>
        <time>2024-04-27T07:23:35Z</time>
      </trkpt>
      <trkpt lat="45.86306" lon="6.45316">
        <ele>1948.6</ele>
        <time>2024-04-27T07:23:36Z</time>
      </trkpt>
      <trkpt lat="45.86306" lon="6.45317">
        <ele>1948.6</ele>
        <time>2024-04-27T07:23:37Z</time>
      </trkpt>
      <trkpt lat="45.86306" lon="6.45316">
        <ele>1948.6</ele>
        <time>2024-04-27T07:23:38Z</time>
      </trkpt>
      <trkpt lat="45.86307" lon="6.45316">
        <ele>1948.6</ele>
        <time>2024-04-27T07:23:39Z</time>
      </trkpt>
      <trkpt lat="45.86307" lon="6.45315">
        <ele>1949.7</ele>
        <time>2024-04-27T07:23:40Z</time>
      </trkpt>
      <trkpt lat="45.86307" lon="6.45315">
        <ele>1949.7</ele>
        <time>2024-04-27T07:23:41Z</time>
      </trkpt>
      <trkpt lat="45.86307" lon="6.45314">
        <ele>1949.7</ele>
        <time>2024-04-27T07:23:42Z</time>
      </trkpt>
      <trkpt lat="45.86307" lon="6.45313">
        <ele>1949.7</ele>
        <time>2024-04-27T07:23:43Z</time>
      </trkpt>
      <trkpt lat="45.86308" lon="6.45313">
        <ele>1949.7</ele>
        <time>2024-04-27T07:23:44Z</time>
      </trkpt>
      <trkpt lat="45.86308" lon="6.45314">
        <ele>1949.7</ele>
        <time>2024-04-27T07:23:45Z</time>
      </trkpt>
      <trkpt lat="45.86308" lon="6.45313">
        <ele>1949.7</ele>
        <time>2024-04-27T07:23:46Z</time>
      </trkpt>
      <trkpt lat="45.86308" lon="6.45312">
        <ele>1949.7</ele>
        <time>2024-04-27T07:23:47Z</time>
      </trkpt>
      <trkpt lat="45.86309" lon="6.4531">
        <ele>1949.7</ele>
        <time>2024-04-27T07:23:48Z</time>
      </trkpt>
      <trkpt lat="45.86309" lon="6.4531">
        <ele>1949.7</ele>
        <time>2024-04-27T07:23:49Z</time>
      </trkpt>
      <trkpt lat="45.8631" lon="6.45309">
        <ele>1949.7</ele>
        <time>2024-04-27T07:23:50Z</time>
      </trkpt>
      <trkpt lat="45.8631" lon="6.45308">
        <ele>1949.7</ele>
        <time>2024-04-27T07:23:51Z</time>
      </trkpt>
      <trkpt lat="45.8631" lon="6.45308">
        <ele>1951.7</ele>
        <time>2024-04-27T07:23:52Z</time>
      </trkpt>
      <trkpt lat="45.8631" lon="6.45307">
        <ele>1951.7</ele>
        <time>2024-04-27T07:23:53Z</time>
      </trkpt>
      <trkpt lat="45.8631" lon="6.45306">
        <ele>1951.7</ele>
        <time>2024-04-27T07:23:54Z</time>
      </trkpt>
      <trkpt lat="45.8631" lon="6.45305">
        <ele>1951.7</ele>
        <time>2024-04-27T07:23:55Z</time>
      </trkpt>
      <trkpt lat="45.8631" lon="6.45304">
        <ele>1951.7</ele>
        <time>2024-04-27T07:23:56Z</time>
      </trkpt>
      <trkpt lat="45.8631" lon="6.45304">
        <ele>1951.7</ele>
        <time>2024-04-27T07:23:57Z</time>
      </trkpt>
      <trkpt lat="45.8631" lon="6.45304">
        <ele>1951.7</ele>
        <time>2024-04-27T07:23:58Z</time>
      </trkpt>
      <trkpt lat="45.8631" lon="6.45303">
        <ele>1951.7</ele>
        <time>2024-04-27T07:23:59Z</time>
      </trkpt>
      <trkpt lat="45.86311" lon="6.45302">
        <ele>1952.6</ele>
        <time>2024-04-27T07:24:00Z</time>
      </trkpt>
      <trkpt lat="45.86311" lon="6.453">
        <ele>1952.6</ele>
        <time>2024-04-27T07:24:01Z</time>
      </trkpt>
      <trkpt lat="45.86311" lon="6.453">
        <ele>1953.6</ele>
        <time>2024-04-27T07:24:02Z</time>
      </trkpt>
      <trkpt lat="45.86311" lon="6.45299">
        <ele>1953.6</ele>
        <time>2024-04-27T07:24:03Z</time>
      </trkpt>
      <trkpt lat="45.86311" lon="6.45299">
        <ele>1953.6</ele>
        <time>2024-04-27T07:24:04Z</time>
      </trkpt>
      <trkpt lat="45.8631" lon="6.45299">
        <ele>1953.6</ele>
        <time>2024-04-27T07:24:05Z</time>
      </trkpt>
      <trkpt lat="45.8631" lon="6.45298">
        <ele>1953.6</ele>
        <time>2024-04-27T07:24:06Z</time>
      </trkpt>
      <trkpt lat="45.8631" lon="6.45298">
        <ele>1953.6</ele>
        <time>2024-04-27T07:24:07Z</time>
      </trkpt>
      <trkpt lat="45.8631" lon="6.45299">
        <ele>1953.6</ele>
        <time>2024-04-27T07:24:08Z</time>
      </trkpt>
      <trkpt lat="45.8631" lon="6.45299">
        <ele>1953.6</ele>
        <time>2024-04-27T07:24:09Z</time>
      </trkpt>
      <trkpt lat="45.8631" lon="6.45299">
        <ele>1953.6</ele>
        <time>2024-04-27T07:24:10Z</time>
      </trkpt>
      <trkpt lat="45.86309" lon="6.45299">
        <ele>1953.6</ele>
        <time>2024-04-27T07:24:11Z</time>
      </trkpt>
      <trkpt lat="45.86309" lon="6.45299">
        <ele>1953.6</ele>
        <time>2024-04-27T07:24:12Z</time>
      </trkpt>
      <trkpt lat="45.86308" lon="6.45299">
        <ele>1953.6</ele>
        <time>2024-04-27T07:24:13Z</time>
      </trkpt>
      <trkpt lat="45.86308" lon="6.453">
        <ele>1953.6</ele>
        <time>2024-04-27T07:24:14Z</time>
      </trkpt>
      <trkpt lat="45.86307" lon="6.453">
        <ele>1953.6</ele>
        <time>2024-04-27T07:24:15Z</time>
      </trkpt>
      <trkpt lat="45.86307" lon="6.45299">
        <ele>1953.6</ele>
        <time>2024-04-27T07:24:16Z</time>
      </trkpt>
      <trkpt lat="45.86306" lon="6.45299">
        <ele>1953.6</ele>
        <time>2024-04-27T07:24:17Z</time>
      </trkpt>
      <trkpt lat="45.86305" lon="6.45299">
        <ele>1953.6</ele>
        <time>2024-04-27T07:24:18Z</time>
      </trkpt>
      <trkpt lat="45.86305" lon="6.45299">
        <ele>1953.6</ele>
        <time>2024-04-27T07:24:19Z</time>
      </trkpt>
      <trkpt lat="45.86304" lon="6.45299">
        <ele>1955.6</ele>
        <time>2024-04-27T07:24:20Z</time>
      </trkpt>
      <trkpt lat="45.86303" lon="6.45299">
        <ele>1955.6</ele>
        <time>2024-04-27T07:24:21Z</time>
      </trkpt>
      <trkpt lat="45.86302" lon="6.453">
        <ele>1955.6</ele>
        <time>2024-04-27T07:24:22Z</time>
      </trkpt>
      <trkpt lat="45.86302" lon="6.453">
        <ele>1955.6</ele>
        <time>2024-04-27T07:24:23Z</time>
      </trkpt>
      <trkpt lat="45.86301" lon="6.45301">
        <ele>1955.6</ele>
        <time>2024-04-27T07:24:24Z</time>
      </trkpt>
      <trkpt lat="45.863" lon="6.45302">
        <ele>1955.6</ele>
        <time>2024-04-27T07:24:25Z</time>
      </trkpt>
      <trkpt lat="45.863" lon="6.45302">
        <ele>1956.7</ele>
        <time>2024-04-27T07:24:26Z</time>
      </trkpt>
      <trkpt lat="45.86299" lon="6.45302">
        <ele>1956.7</ele>
        <time>2024-04-27T07:24:27Z</time>
      </trkpt>
      <trkpt lat="45.863" lon="6.45301">
        <ele>1956.7</ele>
        <time>2024-04-27T07:24:28Z</time>
      </trkpt>
      <trkpt lat="45.863" lon="6.453">
        <ele>1956.7</ele>
        <time>2024-04-27T07:24:29Z</time>
      </trkpt>
      <trkpt lat="45.863" lon="6.453">
        <ele>1957.6</ele>
        <time>2024-04-27T07:24:30Z</time>
      </trkpt>
      <trkpt lat="45.863" lon="6.45299">
        <ele>1957.6</ele>
        <time>2024-04-27T07:24:31Z</time>
      </trkpt>
      <trkpt lat="45.863" lon="6.45299">
        <ele>1957.6</ele>
        <time>2024-04-27T07:24:32Z</time>
      </trkpt>
      <trkpt lat="45.86301" lon="6.45298">
        <ele>1957.6</ele>
        <time>2024-04-27T07:24:33Z</time>
      </trkpt>
      <trkpt lat="45.86301" lon="6.45298">
        <ele>1958.7</ele>
        <time>2024-04-27T07:24:34Z</time>
      </trkpt>
      <trkpt lat="45.86301" lon="6.45298">
        <ele>1958.7</ele>
        <time>2024-04-27T07:24:35Z</time>
      </trkpt>
      <trkpt lat="45.86301" lon="6.45297">
        <ele>1958.7</ele>
        <time>2024-04-27T07:24:36Z</time>
      </trkpt>
      <trkpt lat="45.86302" lon="6.45295">
        <ele>1958.7</ele>
        <time>2024-04-27T07:24:37Z</time>
      </trkpt>
      <trkpt lat="45.86302" lon="6.45293">
        <ele>1958.7</ele>
        <time>2024-04-27T07:24:38Z</time>
      </trkpt>
      <trkpt lat="45.86303" lon="6.45292">
        <ele>1958.7</ele>
        <time>2024-04-27T07:24:39Z</time>
      </trkpt>
      <trkpt lat="45.86303" lon="6.45292">
        <ele>1958.7</ele>
        <time>2024-04-27T07:24:40Z</time>
      </trkpt>
      <trkpt lat="45.86303" lon="6.45291">
        <ele>1958.7</ele>
        <time>2024-04-27T07:24:41Z</time>
      </trkpt>
      <trkpt lat="45.86304" lon="6.4529">
        <ele>1959.6</ele>
        <time>2024-04-27T07:24:42Z</time>
      </trkpt>
      <trkpt lat="45.86304" lon="6.45289">
        <ele>1959.6</ele>
        <time>2024-04-27T07:24:43Z</time>
      </trkpt>
      <trkpt lat="45.86304" lon="6.45289">
        <ele>1959.6</ele>
        <time>2024-04-27T07:24:44Z</time>
      </trkpt>
      <trkpt lat="45.86305" lon="6.45288">
        <ele>1959.6</ele>
        <time>2024-04-27T07:24:45Z</time>
      </trkpt>
      <trkpt lat="45.86305" lon="6.45287">
        <ele>1960.7</ele>
        <time>2024-04-27T07:24:46Z</time>
      </trkpt>
      <trkpt lat="45.86305" lon="6.45287">
        <ele>1960.7</ele>
        <time>2024-04-27T07:24:47Z</time>
      </trkpt>
      <trkpt lat="45.86305" lon="6.45286">
        <ele>1960.7</ele>
        <time>2024-04-27T07:24:48Z</time>
      </trkpt>
      <trkpt lat="45.86305" lon="6.45286">
        <ele>1960.7</ele>
        <time>2024-04-27T07:24:49Z</time>
      </trkpt>
      <trkpt lat="45.86305" lon="6.45285">
        <ele>1960.7</ele>
        <time>2024-04-27T07:24:50Z</time>
      </trkpt>
      <trkpt lat="45.86305" lon="6.45284">
        <ele>1960.7</ele>
        <time>2024-04-27T07:24:51Z</time>
      </trkpt>
      <trkpt lat="45.86304" lon="6.45284">
        <ele>1961.7</ele>
        <time>2024-04-27T07:24:52Z</time>
      </trkpt>
      <trkpt lat="45.86305" lon="6.45283">
        <ele>1961.7</ele>
        <time>2024-04-27T07:24:53Z</time>
      </trkpt>
      <trkpt lat="45.86305" lon="6.45281">
        <ele>1961.7</ele>
        <time>2024-04-27T07:24:54Z</time>
      </trkpt>
      <trkpt lat="45.86305" lon="6.45281">
        <ele>1961.7</ele>
        <time>2024-04-27T07:24:55Z</time>
      </trkpt>
      <trkpt lat="45.86305" lon="6.45281">
        <ele>1961.7</ele>
        <time>2024-04-27T07:24:56Z</time>
      </trkpt>
      <trkpt lat="45.86305" lon="6.4528">
        <ele>1961.7</ele>
        <time>2024-04-27T07:24:57Z</time>
      </trkpt>
      <trkpt lat="45.86305" lon="6.45279">
        <ele>1962.6</ele>
        <time>2024-04-27T07:24:58Z</time>
      </trkpt>
      <trkpt lat="45.86306" lon="6.45278">
        <ele>1962.6</ele>
        <time>2024-04-27T07:24:59Z</time>
      </trkpt>
      <trkpt lat="45.86306" lon="6.45278">
        <ele>1962.6</ele>
        <time>2024-04-27T07:25:00Z</time>
      </trkpt>
      <trkpt lat="45.86307" lon="6.45276">
        <ele>1962.6</ele>
        <time>2024-04-27T07:25:01Z</time>
      </trkpt>
      <trkpt lat="45.86307" lon="6.45275">
        <ele>1962.6</ele>
        <time>2024-04-27T07:25:02Z</time>
      </trkpt>
      <trkpt lat="45.86306" lon="6.45275">
        <ele>1962.6</ele>
        <time>2024-04-27T07:25:03Z</time>
      </trkpt>
      <trkpt lat="45.86307" lon="6.45275">
        <ele>1962.6</ele>
        <time>2024-04-27T07:25:04Z</time>
      </trkpt>
      <trkpt lat="45.86306" lon="6.45274">
        <ele>1962.6</ele>
        <time>2024-04-27T07:25:05Z</time>
      </trkpt>
      <trkpt lat="45.86306" lon="6.45273">
        <ele>1962.6</ele>
        <time>2024-04-27T07:25:06Z</time>
      </trkpt>
      <trkpt lat="45.86306" lon="6.45273">
        <ele>1962.6</ele>
        <time>2024-04-27T07:25:07Z</time>
      </trkpt>
      <trkpt lat="45.86306" lon="6.45274">
        <ele>1963.7</ele>
        <time>2024-04-27T07:25:08Z</time>
      </trkpt>
      <trkpt lat="45.86306" lon="6.45274">
        <ele>1963.7</ele>
        <time>2024-04-27T07:25:09Z</time>
      </trkpt>
      <trkpt lat="45.86305" lon="6.45274">
        <ele>1963.7</ele>
        <time>2024-04-27T07:25:10Z</time>
      </trkpt>
      <trkpt lat="45.86305" lon="6.45274">
        <ele>1963.7</ele>
        <time>2024-04-27T07:25:11Z</time>
      </trkpt>
      <trkpt lat="45.86305" lon="6.45274">
        <ele>1963.7</ele>
        <time>2024-04-27T07:25:12Z</time>
      </trkpt>
      <trkpt lat="45.86305" lon="6.45274">
        <ele>1963.7</ele>
        <time>2024-04-27T07:25:13Z</time>
      </trkpt>
      <trkpt lat="45.86305" lon="6.45274">
        <ele>1963.7</ele>
        <time>2024-04-27T07:25:14Z</time>
      </trkpt>
      <trkpt lat="45.86304" lon="6.45274">
        <ele>1963.7</ele>
        <time>2024-04-27T07:25:15Z</time>
      </trkpt>
      <trkpt lat="45.86304" lon="6.45274">
        <ele>1963.7</ele>
        <time>2024-04-27T07:25:16Z</time>
      </trkpt>
      <trkpt lat="45.86303" lon="6.45275">
        <ele>1963.7</ele>
        <time>2024-04-27T07:25:17Z</time>
      </trkpt>
      <trkpt lat="45.86303" lon="6.45274">
        <ele>1964.6</ele>
        <time>2024-04-27T07:25:18Z</time>
      </trkpt>
      <trkpt lat="45.86302" lon="6.45274">
        <ele>1964.6</ele>
        <time>2024-04-27T07:25:19Z</time>
      </trkpt>
      <trkpt lat="45.86302" lon="6.45275">
        <ele>1964.6</ele>
        <time>2024-04-27T07:25:20Z</time>
      </trkpt>
      <trkpt lat="45.86301" lon="6.45275">
        <ele>1964.6</ele>
        <time>2024-04-27T07:25:21Z</time>
      </trkpt>
      <trkpt lat="45.86301" lon="6.45275">
        <ele>1965.7</ele>
        <time>2024-04-27T07:25:22Z</time>
      </trkpt>
      <trkpt lat="45.863" lon="6.45275">
        <ele>1965.7</ele>
        <time>2024-04-27T07:25:23Z</time>
      </trkpt>
      <trkpt lat="45.863" lon="6.45275">
        <ele>1965.7</ele>
        <time>2024-04-27T07:25:24Z</time>
      </trkpt>
      <trkpt lat="45.86299" lon="6.45276">
        <ele>1965.7</ele>
        <time>2024-04-27T07:25:25Z</time>
      </trkpt>
      <trkpt lat="45.86298" lon="6.45276">
        <ele>1965.7</ele>
        <time>2024-04-27T07:25:26Z</time>
      </trkpt>
      <trkpt lat="45.86298" lon="6.45276">
        <ele>1965.7</ele>
        <time>2024-04-27T07:25:27Z</time>
      </trkpt>
      <trkpt lat="45.86297" lon="6.45276">
        <ele>1965.7</ele>
        <time>2024-04-27T07:25:28Z</time>
      </trkpt>
      <trkpt lat="45.86297" lon="6.45276">
        <ele>1965.7</ele>
        <time>2024-04-27T07:25:29Z</time>
      </trkpt>
      <trkpt lat="45.86296" lon="6.45276">
        <ele>1965.7</ele>
        <time>2024-04-27T07:25:30Z</time>
      </trkpt>
      <trkpt lat="45.86296" lon="6.45276">
        <ele>1965.7</ele>
        <time>2024-04-27T07:25:31Z</time>
      </trkpt>
      <trkpt lat="45.86295" lon="6.45277">
        <ele>1965.7</ele>
        <time>2024-04-27T07:25:32Z</time>
      </trkpt>
      <trkpt lat="45.86294" lon="6.45277">
        <ele>1965.7</ele>
        <time>2024-04-27T07:25:33Z</time>
      </trkpt>
      <trkpt lat="45.86293" lon="6.45279">
        <ele>1967.7</ele>
        <time>2024-04-27T07:25:34Z</time>
      </trkpt>
      <trkpt lat="45.86293" lon="6.45279">
        <ele>1967.7</ele>
        <time>2024-04-27T07:25:35Z</time>
      </trkpt>
      <trkpt lat="45.86292" lon="6.45279">
        <ele>1968.6</ele>
        <time>2024-04-27T07:25:36Z</time>
      </trkpt>
      <trkpt lat="45.86292" lon="6.45279">
        <ele>1968.6</ele>
        <time>2024-04-27T07:25:37Z</time>
      </trkpt>
      <trkpt lat="45.86292" lon="6.45279">
        <ele>1968.6</ele>
        <time>2024-04-27T07:25:38Z</time>
      </trkpt>
      <trkpt lat="45.86292" lon="6.45279">
        <ele>1968.6</ele>
        <time>2024-04-27T07:25:39Z</time>
      </trkpt>
      <trkpt lat="45.86291" lon="6.45279">
        <ele>1969.6</ele>
        <time>2024-04-27T07:25:40Z</time>
      </trkpt>
      <trkpt lat="45.86291" lon="6.45279">
        <ele>1969.6</ele>
        <time>2024-04-27T07:25:41Z</time>
      </trkpt>
      <trkpt lat="45.8629" lon="6.4528">
        <ele>1969.6</ele>
        <time>2024-04-27T07:25:42Z</time>
      </trkpt>
      <trkpt lat="45.8629" lon="6.4528">
        <ele>1969.6</ele>
        <time>2024-04-27T07:25:43Z</time>
      </trkpt>
      <trkpt lat="45.86289" lon="6.45281">
        <ele>1969.6</ele>
        <time>2024-04-27T07:25:44Z</time>
      </trkpt>
      <trkpt lat="45.86289" lon="6.45281">
        <ele>1969.6</ele>
        <time>2024-04-27T07:25:45Z</time>
      </trkpt>
      <trkpt lat="45.86288" lon="6.45281">
        <ele>1970.7</ele>
        <time>2024-04-27T07:25:46Z</time>
      </trkpt>
      <trkpt lat="45.86288" lon="6.4528">
        <ele>1970.7</ele>
        <time>2024-04-27T07:25:47Z</time>
      </trkpt>
      <trkpt lat="45.86288" lon="6.4528">
        <ele>1970.7</ele>
        <time>2024-04-27T07:25:48Z</time>
      </trkpt>
      <trkpt lat="45.86287" lon="6.4528">
        <ele>1970.7</ele>
        <time>2024-04-27T07:25:49Z</time>
      </trkpt>
      <trkpt lat="45.86287" lon="6.4528">
        <ele>1971.6</ele>
        <time>2024-04-27T07:25:50Z</time>
      </trkpt>
      <trkpt lat="45.86287" lon="6.4528">
        <ele>1971.6</ele>
        <time>2024-04-27T07:25:51Z</time>
      </trkpt>
      <trkpt lat="45.86286" lon="6.4528">
        <ele>1971.6</ele>
        <time>2024-04-27T07:25:52Z</time>
      </trkpt>
      <trkpt lat="45.86285" lon="6.4528">
        <ele>1971.6</ele>
        <time>2024-04-27T07:25:53Z</time>
      </trkpt>
      <trkpt lat="45.86285" lon="6.4528">
        <ele>1972.7</ele>
        <time>2024-04-27T07:25:54Z</time>
      </trkpt>
      <trkpt lat="45.86284" lon="6.4528">
        <ele>1972.7</ele>
        <time>2024-04-27T07:25:55Z</time>
      </trkpt>
      <trkpt lat="45.86284" lon="6.4528">
        <ele>1972.7</ele>
        <time>2024-04-27T07:25:56Z</time>
      </trkpt>
      <trkpt lat="45.86284" lon="6.4528">
        <ele>1972.7</ele>
        <time>2024-04-27T07:25:57Z</time>
      </trkpt>
      <trkpt lat="45.86284" lon="6.4528">
        <ele>1972.7</ele>
        <time>2024-04-27T07:25:58Z</time>
      </trkpt>
      <trkpt lat="45.86283" lon="6.4528">
        <ele>1972.7</ele>
        <time>2024-04-27T07:25:59Z</time>
      </trkpt>
      <trkpt lat="45.86283" lon="6.4528">
        <ele>1972.7</ele>
        <time>2024-04-27T07:26:00Z</time>
      </trkpt>
      <trkpt lat="45.86283" lon="6.4528">
        <ele>1972.7</ele>
        <time>2024-04-27T07:26:01Z</time>
      </trkpt>
      <trkpt lat="45.86282" lon="6.45281">
        <ele>1972.7</ele>
        <time>2024-04-27T07:26:02Z</time>
      </trkpt>
      <trkpt lat="45.86281" lon="6.45282">
        <ele>1972.7</ele>
        <time>2024-04-27T07:26:03Z</time>
      </trkpt>
      <trkpt lat="45.8628" lon="6.45282">
        <ele>1973.6</ele>
        <time>2024-04-27T07:26:04Z</time>
      </trkpt>
      <trkpt lat="45.8628" lon="6.45282">
        <ele>1973.6</ele>
        <time>2024-04-27T07:26:05Z</time>
      </trkpt>
      <trkpt lat="45.8628" lon="6.45282">
        <ele>1973.6</ele>
        <time>2024-04-27T07:26:06Z</time>
      </trkpt>
      <trkpt lat="45.86279" lon="6.45282">
        <ele>1973.6</ele>
        <time>2024-04-27T07:26:07Z</time>
      </trkpt>
      <trkpt lat="45.86279" lon="6.45282">
        <ele>1973.6</ele>
        <time>2024-04-27T07:26:08Z</time>
      </trkpt>
      <trkpt lat="45.86279" lon="6.45282">
        <ele>1973.6</ele>
        <time>2024-04-27T07:26:09Z</time>
      </trkpt>
      <trkpt lat="45.86278" lon="6.45283">
        <ele>1974.7</ele>
        <time>2024-04-27T07:26:10Z</time>
      </trkpt>
      <trkpt lat="45.86278" lon="6.45282">
        <ele>1974.7</ele>
        <time>2024-04-27T07:26:11Z</time>
      </trkpt>
      <trkpt lat="45.86277" lon="6.45283">
        <ele>1974.7</ele>
        <time>2024-04-27T07:26:12Z</time>
      </trkpt>
      <trkpt lat="45.86277" lon="6.45282">
        <ele>1974.7</ele>
        <time>2024-04-27T07:26:13Z</time>
      </trkpt>
      <trkpt lat="45.86276" lon="6.45282">
        <ele>1974.7</ele>
        <time>2024-04-27T07:26:14Z</time>
      </trkpt>
      <trkpt lat="45.86275" lon="6.45284">
        <ele>1974.7</ele>
        <time>2024-04-27T07:26:15Z</time>
      </trkpt>
      <trkpt lat="45.86274" lon="6.45284">
        <ele>1974.7</ele>
        <time>2024-04-27T07:26:16Z</time>
      </trkpt>
      <trkpt lat="45.86274" lon="6.45284">
        <ele>1974.7</ele>
        <time>2024-04-27T07:26:17Z</time>
      </trkpt>
      <trkpt lat="45.86274" lon="6.45284">
        <ele>1974.7</ele>
        <time>2024-04-27T07:26:18Z</time>
      </trkpt>
      <trkpt lat="45.86274" lon="6.45283">
        <ele>1974.7</ele>
        <time>2024-04-27T07:26:19Z</time>
      </trkpt>
      <trkpt lat="45.86274" lon="6.45282">
        <ele>1977.7</ele>
        <time>2024-04-27T07:26:20Z</time>
      </trkpt>
      <trkpt lat="45.86273" lon="6.45283">
        <ele>1977.7</ele>
        <time>2024-04-27T07:26:21Z</time>
      </trkpt>
      <trkpt lat="45.86273" lon="6.45284">
        <ele>1977.7</ele>
        <time>2024-04-27T07:26:22Z</time>
      </trkpt>
      <trkpt lat="45.86272" lon="6.45284">
        <ele>1977.7</ele>
        <time>2024-04-27T07:26:23Z</time>
      </trkpt>
      <trkpt lat="45.86271" lon="6.45284">
        <ele>1978.6</ele>
        <time>2024-04-27T07:26:24Z</time>
      </trkpt>
      <trkpt lat="45.86271" lon="6.45284">
        <ele>1978.6</ele>
        <time>2024-04-27T07:26:25Z</time>
      </trkpt>
      <trkpt lat="45.86271" lon="6.45284">
        <ele>1978.6</ele>
        <time>2024-04-27T07:26:26Z</time>
      </trkpt>
      <trkpt lat="45.86272" lon="6.45283">
        <ele>1978.6</ele>
        <time>2024-04-27T07:26:27Z</time>
      </trkpt>
      <trkpt lat="45.86272" lon="6.45282">
        <ele>1978.6</ele>
        <time>2024-04-27T07:26:28Z</time>
      </trkpt>
      <trkpt lat="45.86272" lon="6.45282">
        <ele>1978.6</ele>
        <time>2024-04-27T07:26:29Z</time>
      </trkpt>
      <trkpt lat="45.86272" lon="6.4528">
        <ele>1979.7</ele>
        <time>2024-04-27T07:26:30Z</time>
      </trkpt>
      <trkpt lat="45.86272" lon="6.45279">
        <ele>1979.7</ele>
        <time>2024-04-27T07:26:31Z</time>
      </trkpt>
      <trkpt lat="45.86273" lon="6.45279">
        <ele>1979.7</ele>
        <time>2024-04-27T07:26:32Z</time>
      </trkpt>
      <trkpt lat="45.86273" lon="6.45278">
        <ele>1979.7</ele>
        <time>2024-04-27T07:26:33Z</time>
      </trkpt>
      <trkpt lat="45.86273" lon="6.45277">
        <ele>1979.7</ele>
        <time>2024-04-27T07:26:34Z</time>
      </trkpt>
      <trkpt lat="45.86274" lon="6.45276">
        <ele>1979.7</ele>
        <time>2024-04-27T07:26:35Z</time>
      </trkpt>
      <trkpt lat="45.86274" lon="6.45276">
        <ele>1979.7</ele>
        <time>2024-04-27T07:26:36Z</time>
      </trkpt>
      <trkpt lat="45.86274" lon="6.45275">
        <ele>1979.7</ele>
        <time>2024-04-27T07:26:37Z</time>
      </trkpt>
      <trkpt lat="45.86275" lon="6.45274">
        <ele>1979.7</ele>
        <time>2024-04-27T07:26:38Z</time>
      </trkpt>
      <trkpt lat="45.86274" lon="6.45274">
        <ele>1979.7</ele>
        <time>2024-04-27T07:26:39Z</time>
      </trkpt>
      <trkpt lat="45.86274" lon="6.45273">
        <ele>1980.6</ele>
        <time>2024-04-27T07:26:40Z</time>
      </trkpt>
      <trkpt lat="45.86274" lon="6.45273">
        <ele>1980.6</ele>
        <time>2024-04-27T07:26:41Z</time>
      </trkpt>
      <trkpt lat="45.86274" lon="6.45273">
        <ele>1980.6</ele>
        <time>2024-04-27T07:26:42Z</time>
      </trkpt>
      <trkpt lat="45.86274" lon="6.45272">
        <ele>1980.6</ele>
        <time>2024-04-27T07:26:43Z</time>
      </trkpt>
      <trkpt lat="45.86274" lon="6.45271">
        <ele>1980.6</ele>
        <time>2024-04-27T07:26:44Z</time>
      </trkpt>
      <trkpt lat="45.86274" lon="6.45271">
        <ele>1980.6</ele>
        <time>2024-04-27T07:26:45Z</time>
      </trkpt>
      <trkpt lat="45.86273" lon="6.4527">
        <ele>1981.7</ele>
        <time>2024-04-27T07:26:46Z</time>
      </trkpt>
      <trkpt lat="45.86274" lon="6.45269">
        <ele>1981.7</ele>
        <time>2024-04-27T07:26:47Z</time>
      </trkpt>
      <trkpt lat="45.86274" lon="6.45268">
        <ele>1981.7</ele>
        <time>2024-04-27T07:26:48Z</time>
      </trkpt>
      <trkpt lat="45.86274" lon="6.45267">
        <ele>1981.7</ele>
        <time>2024-04-27T07:26:49Z</time>
      </trkpt>
      <trkpt lat="45.86274" lon="6.45266">
        <ele>1981.7</ele>
        <time>2024-04-27T07:26:50Z</time>
      </trkpt>
      <trkpt lat="45.86274" lon="6.45265">
        <ele>1981.7</ele>
        <time>2024-04-27T07:26:51Z</time>
      </trkpt>
      <trkpt lat="45.86274" lon="6.45264">
        <ele>1981.7</ele>
        <time>2024-04-27T07:26:52Z</time>
      </trkpt>
      <trkpt lat="45.86273" lon="6.45263">
        <ele>1981.7</ele>
        <time>2024-04-27T07:26:53Z</time>
      </trkpt>
      <trkpt lat="45.86273" lon="6.45262">
        <ele>1981.7</ele>
        <time>2024-04-27T07:26:54Z</time>
      </trkpt>
      <trkpt lat="45.86273" lon="6.4526">
        <ele>1981.7</ele>
        <time>2024-04-27T07:26:55Z</time>
      </trkpt>
      <trkpt lat="45.86274" lon="6.45259">
        <ele>1981.7</ele>
        <time>2024-04-27T07:26:56Z</time>
      </trkpt>
      <trkpt lat="45.86274" lon="6.45258">
        <ele>1981.7</ele>
        <time>2024-04-27T07:26:57Z</time>
      </trkpt>
      <trkpt lat="45.86274" lon="6.45258">
        <ele>1982.6</ele>
        <time>2024-04-27T07:26:58Z</time>
      </trkpt>
      <trkpt lat="45.86275" lon="6.45257">
        <ele>1982.6</ele>
        <time>2024-04-27T07:26:59Z</time>
      </trkpt>
      <trkpt lat="45.86274" lon="6.45256">
        <ele>1983.7</ele>
        <time>2024-04-27T07:27:00Z</time>
      </trkpt>
      <trkpt lat="45.86274" lon="6.45256">
        <ele>1983.7</ele>
        <time>2024-04-27T07:27:01Z</time>
      </trkpt>
      <trkpt lat="45.86274" lon="6.45256">
        <ele>1983.7</ele>
        <time>2024-04-27T07:27:02Z</time>
      </trkpt>
      <trkpt lat="45.86274" lon="6.45256">
        <ele>1983.7</ele>
        <time>2024-04-27T07:27:03Z</time>
      </trkpt>
      <trkpt lat="45.86274" lon="6.45256">
        <ele>1983.7</ele>
        <time>2024-04-27T07:27:04Z</time>
      </trkpt>
      <trkpt lat="45.86274" lon="6.45255">
        <ele>1983.7</ele>
        <time>2024-04-27T07:27:05Z</time>
      </trkpt>
      <trkpt lat="45.86275" lon="6.45255">
        <ele>1984.6</ele>
        <time>2024-04-27T07:27:06Z</time>
      </trkpt>
      <trkpt lat="45.86275" lon="6.45254">
        <ele>1984.6</ele>
        <time>2024-04-27T07:27:07Z</time>
      </trkpt>
      <trkpt lat="45.86275" lon="6.45255">
        <ele>1984.6</ele>
        <time>2024-04-27T07:27:08Z</time>
      </trkpt>
      <trkpt lat="45.86275" lon="6.45255">
        <ele>1984.6</ele>
        <time>2024-04-27T07:27:09Z</time>
      </trkpt>
      <trkpt lat="45.86275" lon="6.45255">
        <ele>1984.6</ele>
        <time>2024-04-27T07:27:10Z</time>
      </trkpt>
      <trkpt lat="45.86275" lon="6.45255">
        <ele>1984.6</ele>
        <time>2024-04-27T07:27:11Z</time>
      </trkpt>
      <trkpt lat="45.86274" lon="6.45256">
        <ele>1984.6</ele>
        <time>2024-04-27T07:27:12Z</time>
      </trkpt>
      <trkpt lat="45.86273" lon="6.45256">
        <ele>1984.6</ele>
        <time>2024-04-27T07:27:13Z</time>
      </trkpt>
      <trkpt lat="45.86273" lon="6.45257">
        <ele>1984.6</ele>
        <time>2024-04-27T07:27:14Z</time>
      </trkpt>
      <trkpt lat="45.86272" lon="6.45258">
        <ele>1984.6</ele>
        <time>2024-04-27T07:27:15Z</time>
      </trkpt>
      <trkpt lat="45.86271" lon="6.45259">
        <ele>1984.6</ele>
        <time>2024-04-27T07:27:16Z</time>
      </trkpt>
      <trkpt lat="45.8627" lon="6.4526">
        <ele>1984.6</ele>
        <time>2024-04-27T07:27:17Z</time>
      </trkpt>
      <trkpt lat="45.8627" lon="6.4526">
        <ele>1984.6</ele>
        <time>2024-04-27T07:27:18Z</time>
      </trkpt>
      <trkpt lat="45.86269" lon="6.4526">
        <ele>1984.6</ele>
        <time>2024-04-27T07:27:19Z</time>
      </trkpt>
      <trkpt lat="45.86268" lon="6.45261">
        <ele>1984.6</ele>
        <time>2024-04-27T07:27:20Z</time>
      </trkpt>
      <trkpt lat="45.86267" lon="6.45262">
        <ele>1984.6</ele>
        <time>2024-04-27T07:27:21Z</time>
      </trkpt>
      <trkpt lat="45.86266" lon="6.45262">
        <ele>1985.6</ele>
        <time>2024-04-27T07:27:22Z</time>
      </trkpt>
      <trkpt lat="45.86266" lon="6.45263">
        <ele>1985.6</ele>
        <time>2024-04-27T07:27:23Z</time>
      </trkpt>
      <trkpt lat="45.86266" lon="6.45263">
        <ele>1985.6</ele>
        <time>2024-04-27T07:27:24Z</time>
      </trkpt>
      <trkpt lat="45.86265" lon="6.45264">
        <ele>1985.6</ele>
        <time>2024-04-27T07:27:25Z</time>
      </trkpt>
      <trkpt lat="45.86265" lon="6.45265">
        <ele>1986.7</ele>
        <time>2024-04-27T07:27:26Z</time>
      </trkpt>
      <trkpt lat="45.86264" lon="6.45265">
        <ele>1986.7</ele>
        <time>2024-04-27T07:27:27Z</time>
      </trkpt>
      <trkpt lat="45.86264" lon="6.45265">
        <ele>1986.7</ele>
        <time>2024-04-27T07:27:28Z</time>
      </trkpt>
      <trkpt lat="45.86263" lon="6.45266">
        <ele>1986.7</ele>
        <time>2024-04-27T07:27:29Z</time>
      </trkpt>
      <trkpt lat="45.86263" lon="6.45267">
        <ele>1986.7</ele>
        <time>2024-04-27T07:27:30Z</time>
      </trkpt>
      <trkpt lat="45.86262" lon="6.45268">
        <ele>1986.7</ele>
        <time>2024-04-27T07:27:31Z</time>
      </trkpt>
      <trkpt lat="45.86261" lon="6.45269">
        <ele>1987.6</ele>
        <time>2024-04-27T07:27:32Z</time>
      </trkpt>
      <trkpt lat="45.86261" lon="6.4527">
        <ele>1987.6</ele>
        <time>2024-04-27T07:27:33Z</time>
      </trkpt>
      <trkpt lat="45.86261" lon="6.4527">
        <ele>1987.6</ele>
        <time>2024-04-27T07:27:34Z</time>
      </trkpt>
      <trkpt lat="45.8626" lon="6.45271">
        <ele>1987.6</ele>
        <time>2024-04-27T07:27:35Z</time>
      </trkpt>
      <trkpt lat="45.8626" lon="6.45271">
        <ele>1987.6</ele>
        <time>2024-04-27T07:27:36Z</time>
      </trkpt>
      <trkpt lat="45.86259" lon="6.45272">
        <ele>1987.6</ele>
        <time>2024-04-27T07:27:37Z</time>
      </trkpt>
      <trkpt lat="45.86259" lon="6.45272">
        <ele>1988.7</ele>
        <time>2024-04-27T07:27:38Z</time>
      </trkpt>
      <trkpt lat="45.86258" lon="6.45272">
        <ele>1988.7</ele>
        <time>2024-04-27T07:27:39Z</time>
      </trkpt>
      <trkpt lat="45.86258" lon="6.45272">
        <ele>1988.7</ele>
        <time>2024-04-27T07:27:40Z</time>
      </trkpt>
      <trkpt lat="45.86257" lon="6.45273">
        <ele>1988.7</ele>
        <time>2024-04-27T07:27:41Z</time>
      </trkpt>
      <trkpt lat="45.86257" lon="6.45273">
        <ele>1989.6</ele>
        <time>2024-04-27T07:27:42Z</time>
      </trkpt>
      <trkpt lat="45.86256" lon="6.45273">
        <ele>1989.6</ele>
        <time>2024-04-27T07:27:43Z</time>
      </trkpt>
      <trkpt lat="45.86256" lon="6.45273">
        <ele>1989.6</ele>
        <time>2024-04-27T07:27:44Z</time>
      </trkpt>
      <trkpt lat="45.86256" lon="6.45273">
        <ele>1989.6</ele>
        <time>2024-04-27T07:27:45Z</time>
      </trkpt>
      <trkpt lat="45.86255" lon="6.45273">
        <ele>1990.7</ele>
        <time>2024-04-27T07:27:46Z</time>
      </trkpt>
      <trkpt lat="45.86255" lon="6.45273">
        <ele>1990.7</ele>
        <time>2024-04-27T07:27:47Z</time>
      </trkpt>
      <trkpt lat="45.86254" lon="6.45274">
        <ele>1990.7</ele>
        <time>2024-04-27T07:27:48Z</time>
      </trkpt>
      <trkpt lat="45.86254" lon="6.45275">
        <ele>1990.7</ele>
        <time>2024-04-27T07:27:49Z</time>
      </trkpt>
      <trkpt lat="45.86253" lon="6.45275">
        <ele>1991.6</ele>
        <time>2024-04-27T07:27:50Z</time>
      </trkpt>
      <trkpt lat="45.86253" lon="6.45275">
        <ele>1991.6</ele>
        <time>2024-04-27T07:27:51Z</time>
      </trkpt>
      <trkpt lat="45.86253" lon="6.45275">
        <ele>1992.7</ele>
        <time>2024-04-27T07:27:52Z</time>
      </trkpt>
      <trkpt lat="45.86253" lon="6.45274">
        <ele>1992.7</ele>
        <time>2024-04-27T07:27:53Z</time>
      </trkpt>
      <trkpt lat="45.86252" lon="6.45274">
        <ele>1992.7</ele>
        <time>2024-04-27T07:27:54Z</time>
      </trkpt>
      <trkpt lat="45.86252" lon="6.45273">
        <ele>1992.7</ele>
        <time>2024-04-27T07:27:55Z</time>
      </trkpt>
      <trkpt lat="45.86252" lon="6.45272">
        <ele>1992.7</ele>
        <time>2024-04-27T07:27:56Z</time>
      </trkpt>
      <trkpt lat="45.86253" lon="6.45271">
        <ele>1992.7</ele>
        <time>2024-04-27T07:27:57Z</time>
      </trkpt>
      <trkpt lat="45.86254" lon="6.45269">
        <ele>1992.7</ele>
        <time>2024-04-27T07:27:58Z</time>
      </trkpt>
      <trkpt lat="45.86254" lon="6.45268">
        <ele>1992.7</ele>
        <time>2024-04-27T07:27:59Z</time>
      </trkpt>
      <trkpt lat="45.86254" lon="6.45267">
        <ele>1993.7</ele>
        <time>2024-04-27T07:28:00Z</time>
      </trkpt>
      <trkpt lat="45.86254" lon="6.45267">
        <ele>1993.7</ele>
        <time>2024-04-27T07:28:01Z</time>
      </trkpt>
      <trkpt lat="45.86254" lon="6.45266">
        <ele>1993.7</ele>
        <time>2024-04-27T07:28:02Z</time>
      </trkpt>
      <trkpt lat="45.86254" lon="6.45265">
        <ele>1993.7</ele>
        <time>2024-04-27T07:28:03Z</time>
      </trkpt>
      <trkpt lat="45.86254" lon="6.45265">
        <ele>1994.6</ele>
        <time>2024-04-27T07:28:04Z</time>
      </trkpt>
      <trkpt lat="45.86254" lon="6.45264">
        <ele>1994.6</ele>
        <time>2024-04-27T07:28:05Z</time>
      </trkpt>
      <trkpt lat="45.86254" lon="6.45263">
        <ele>1994.6</ele>
        <time>2024-04-27T07:28:06Z</time>
      </trkpt>
      <trkpt lat="45.86255" lon="6.45262">
        <ele>1994.6</ele>
        <time>2024-04-27T07:28:07Z</time>
      </trkpt>
      <trkpt lat="45.86255" lon="6.45261">
        <ele>1994.6</ele>
        <time>2024-04-27T07:28:08Z</time>
      </trkpt>
      <trkpt lat="45.86255" lon="6.4526">
        <ele>1994.6</ele>
        <time>2024-04-27T07:28:09Z</time>
      </trkpt>
      <trkpt lat="45.86256" lon="6.45259">
        <ele>1994.6</ele>
        <time>2024-04-27T07:28:10Z</time>
      </trkpt>
      <trkpt lat="45.86256" lon="6.45258">
        <ele>1994.6</ele>
        <time>2024-04-27T07:28:11Z</time>
      </trkpt>
      <trkpt lat="45.86255" lon="6.45258">
        <ele>1995.7</ele>
        <time>2024-04-27T07:28:12Z</time>
      </trkpt>
      <trkpt lat="45.86256" lon="6.45256">
        <ele>1995.7</ele>
        <time>2024-04-27T07:28:13Z</time>
      </trkpt>
      <trkpt lat="45.86256" lon="6.45256">
        <ele>1995.7</ele>
        <time>2024-04-27T07:28:14Z</time>
      </trkpt>
      <trkpt lat="45.86255" lon="6.45255">
        <ele>1995.7</ele>
        <time>2024-04-27T07:28:15Z</time>
      </trkpt>
      <trkpt lat="45.86255" lon="6.45254">
        <ele>1995.7</ele>
        <time>2024-04-27T07:28:16Z</time>
      </trkpt>
      <trkpt lat="45.86256" lon="6.45253">
        <ele>1995.7</ele>
        <time>2024-04-27T07:28:17Z</time>
      </trkpt>
      <trkpt lat="45.86256" lon="6.45252">
        <ele>1995.7</ele>
        <time>2024-04-27T07:28:18Z</time>
      </trkpt>
      <trkpt lat="45.86256" lon="6.45251">
        <ele>1995.7</ele>
        <time>2024-04-27T07:28:19Z</time>
      </trkpt>
      <trkpt lat="45.86255" lon="6.4525">
        <ele>1996.6</ele>
        <time>2024-04-27T07:28:20Z</time>
      </trkpt>
      <trkpt lat="45.86255" lon="6.45249">
        <ele>1996.6</ele>
        <time>2024-04-27T07:28:21Z</time>
      </trkpt>
      <trkpt lat="45.86255" lon="6.45249">
        <ele>1996.6</ele>
        <time>2024-04-27T07:28:22Z</time>
      </trkpt>
      <trkpt lat="45.86255" lon="6.45248">
        <ele>1996.6</ele>
        <time>2024-04-27T07:28:23Z</time>
      </trkpt>
      <trkpt lat="45.86255" lon="6.45247">
        <ele>1997.7</ele>
        <time>2024-04-27T07:28:24Z</time>
      </trkpt>
      <trkpt lat="45.86255" lon="6.45247">
        <ele>1997.7</ele>
        <time>2024-04-27T07:28:25Z</time>
      </trkpt>
      <trkpt lat="45.86255" lon="6.45247">
        <ele>1997.7</ele>
        <time>2024-04-27T07:28:26Z</time>
      </trkpt>
      <trkpt lat="45.86255" lon="6.45246">
        <ele>1997.7</ele>
        <time>2024-04-27T07:28:27Z</time>
      </trkpt>
      <trkpt lat="45.86255" lon="6.45244">
        <ele>1997.7</ele>
        <time>2024-04-27T07:28:28Z</time>
      </trkpt>
      <trkpt lat="45.86255" lon="6.45244">
        <ele>1997.7</ele>
        <time>2024-04-27T07:28:29Z</time>
      </trkpt>
      <trkpt lat="45.86255" lon="6.45243">
        <ele>1997.7</ele>
        <time>2024-04-27T07:28:30Z</time>
      </trkpt>
      <trkpt lat="45.86255" lon="6.45242">
        <ele>1997.7</ele>
        <time>2024-04-27T07:28:31Z</time>
      </trkpt>
      <trkpt lat="45.86256" lon="6.45241">
        <ele>1997.7</ele>
        <time>2024-04-27T07:28:32Z</time>
      </trkpt>
      <trkpt lat="45.86256" lon="6.4524">
        <ele>1997.7</ele>
        <time>2024-04-27T07:28:33Z</time>
      </trkpt>
      <trkpt lat="45.86256" lon="6.45239">
        <ele>1998.6</ele>
        <time>2024-04-27T07:28:34Z</time>
      </trkpt>
      <trkpt lat="45.86256" lon="6.45238">
        <ele>1998.6</ele>
        <time>2024-04-27T07:28:35Z</time>
      </trkpt>
      <trkpt lat="45.86256" lon="6.45237">
        <ele>1998.6</ele>
        <time>2024-04-27T07:28:36Z</time>
      </trkpt>
      <trkpt lat="45.86256" lon="6.45236">
        <ele>1998.6</ele>
        <time>2024-04-27T07:28:37Z</time>
      </trkpt>
      <trkpt lat="45.86256" lon="6.45235">
        <ele>1999.7</ele>
        <time>2024-04-27T07:28:38Z</time>
      </trkpt>
      <trkpt lat="45.86256" lon="6.45235">
        <ele>1999.7</ele>
        <time>2024-04-27T07:28:39Z</time>
      </trkpt>
      <trkpt lat="45.86256" lon="6.45234">
        <ele>1999.7</ele>
        <time>2024-04-27T07:28:40Z</time>
      </trkpt>
      <trkpt lat="45.86256" lon="6.45234">
        <ele>1999.7</ele>
        <time>2024-04-27T07:28:41Z</time>
      </trkpt>
      <trkpt lat="45.86256" lon="6.45233">
        <ele>1999.7</ele>
        <time>2024-04-27T07:28:42Z</time>
      </trkpt>
      <trkpt lat="45.86256" lon="6.45232">
        <ele>1999.7</ele>
        <time>2024-04-27T07:28:43Z</time>
      </trkpt>
      <trkpt lat="45.86257" lon="6.45232">
        <ele>1999.7</ele>
        <time>2024-04-27T07:28:44Z</time>
      </trkpt>
      <trkpt lat="45.86256" lon="6.45232">
        <ele>1999.7</ele>
        <time>2024-04-27T07:28:45Z</time>
      </trkpt>
      <trkpt lat="45.86256" lon="6.45232">
        <ele>1999.7</ele>
        <time>2024-04-27T07:28:46Z</time>
      </trkpt>
      <trkpt lat="45.86256" lon="6.45232">
        <ele>1999.7</ele>
        <time>2024-04-27T07:28:47Z</time>
      </trkpt>
      <trkpt lat="45.86255" lon="6.45233">
        <ele>2001.6</ele>
        <time>2024-04-27T07:28:48Z</time>
      </trkpt>
      <trkpt lat="45.86255" lon="6.45233">
        <ele>2001.6</ele>
        <time>2024-04-27T07:28:49Z</time>
      </trkpt>
      <trkpt lat="45.86254" lon="6.45233">
        <ele>2001.6</ele>
        <time>2024-04-27T07:28:50Z</time>
      </trkpt>
      <trkpt lat="45.86254" lon="6.45234">
        <ele>2001.6</ele>
        <time>2024-04-27T07:28:51Z</time>
      </trkpt>
      <trkpt lat="45.86253" lon="6.45234">
        <ele>2001.6</ele>
        <time>2024-04-27T07:28:52Z</time>
      </trkpt>
      <trkpt lat="45.86253" lon="6.45235">
        <ele>2001.6</ele>
        <time>2024-04-27T07:28:53Z</time>
      </trkpt>
      <trkpt lat="45.86252" lon="6.45236">
        <ele>2001.6</ele>
        <time>2024-04-27T07:28:54Z</time>
      </trkpt>
      <trkpt lat="45.86251" lon="6.45236">
        <ele>2001.6</ele>
        <time>2024-04-27T07:28:55Z</time>
      </trkpt>
      <trkpt lat="45.8625" lon="6.45237">
        <ele>2001.6</ele>
        <time>2024-04-27T07:28:56Z</time>
      </trkpt>
      <trkpt lat="45.86249" lon="6.45237">
        <ele>2001.6</ele>
        <time>2024-04-27T07:28:57Z</time>
      </trkpt>
      <trkpt lat="45.86248" lon="6.45239">
        <ele>2002.7</ele>
        <time>2024-04-27T07:28:58Z</time>
      </trkpt>
      <trkpt lat="45.86247" lon="6.4524">
        <ele>2002.7</ele>
        <time>2024-04-27T07:28:59Z</time>
      </trkpt>
      <trkpt lat="45.86247" lon="6.45239">
        <ele>2003.6</ele>
        <time>2024-04-27T07:29:00Z</time>
      </trkpt>
      <trkpt lat="45.86247" lon="6.45239">
        <ele>2003.6</ele>
        <time>2024-04-27T07:29:01Z</time>
      </trkpt>
      <trkpt lat="45.86246" lon="6.4524">
        <ele>2003.6</ele>
        <time>2024-04-27T07:29:02Z</time>
      </trkpt>
      <trkpt lat="45.86245" lon="6.45241">
        <ele>2003.6</ele>
        <time>2024-04-27T07:29:03Z</time>
      </trkpt>
      <trkpt lat="45.86245" lon="6.45241">
        <ele>2003.6</ele>
        <time>2024-04-27T07:29:04Z</time>
      </trkpt>
      <trkpt lat="45.86244" lon="6.45242">
        <ele>2003.6</ele>
        <time>2024-04-27T07:29:05Z</time>
      </trkpt>
      <trkpt lat="45.86244" lon="6.45243">
        <ele>2003.6</ele>
        <time>2024-04-27T07:29:06Z</time>
      </trkpt>
      <trkpt lat="45.86244" lon="6.45243">
        <ele>2003.6</ele>
        <time>2024-04-27T07:29:07Z</time>
      </trkpt>
      <trkpt lat="45.86244" lon="6.45243">
        <ele>2003.6</ele>
        <time>2024-04-27T07:29:08Z</time>
      </trkpt>
      <trkpt lat="45.86243" lon="6.45244">
        <ele>2003.6</ele>
        <time>2024-04-27T07:29:09Z</time>
      </trkpt>
      <trkpt lat="45.86242" lon="6.45245">
        <ele>2004.7</ele>
        <time>2024-04-27T07:29:10Z</time>
      </trkpt>
      <trkpt lat="45.86242" lon="6.45245">
        <ele>2004.7</ele>
        <time>2024-04-27T07:29:11Z</time>
      </trkpt>
      <trkpt lat="45.86241" lon="6.45246">
        <ele>2004.7</ele>
        <time>2024-04-27T07:29:12Z</time>
      </trkpt>
      <trkpt lat="45.86241" lon="6.45246">
        <ele>2004.7</ele>
        <time>2024-04-27T07:29:13Z</time>
      </trkpt>
      <trkpt lat="45.8624" lon="6.45248">
        <ele>2005.6</ele>
        <time>2024-04-27T07:29:14Z</time>
      </trkpt>
      <trkpt lat="45.86241" lon="6.45248">
        <ele>2005.6</ele>
        <time>2024-04-27T07:29:15Z</time>
      </trkpt>
      <trkpt lat="45.86241" lon="6.45248">
        <ele>2005.6</ele>
        <time>2024-04-27T07:29:16Z</time>
      </trkpt>
      <trkpt lat="45.86241" lon="6.45248">
        <ele>2005.6</ele>
        <time>2024-04-27T07:29:17Z</time>
      </trkpt>
      <trkpt lat="45.8624" lon="6.45249">
        <ele>2006.7</ele>
        <time>2024-04-27T07:29:18Z</time>
      </trkpt>
      <trkpt lat="45.86239" lon="6.45249">
        <ele>2006.7</ele>
        <time>2024-04-27T07:29:19Z</time>
      </trkpt>
      <trkpt lat="45.86239" lon="6.45249">
        <ele>2006.7</ele>
        <time>2024-04-27T07:29:20Z</time>
      </trkpt>
      <trkpt lat="45.86238" lon="6.45249">
        <ele>2006.7</ele>
        <time>2024-04-27T07:29:21Z</time>
      </trkpt>
      <trkpt lat="45.86238" lon="6.45249">
        <ele>2007.6</ele>
        <time>2024-04-27T07:29:22Z</time>
      </trkpt>
      <trkpt lat="45.86237" lon="6.45249">
        <ele>2007.6</ele>
        <time>2024-04-27T07:29:23Z</time>
      </trkpt>
      <trkpt lat="45.86238" lon="6.45248">
        <ele>2007.6</ele>
        <time>2024-04-27T07:29:24Z</time>
      </trkpt>
      <trkpt lat="45.86238" lon="6.45247">
        <ele>2007.6</ele>
        <time>2024-04-27T07:29:25Z</time>
      </trkpt>
      <trkpt lat="45.86237" lon="6.45247">
        <ele>2008.7</ele>
        <time>2024-04-27T07:29:26Z</time>
      </trkpt>
      <trkpt lat="45.86237" lon="6.45246">
        <ele>2008.7</ele>
        <time>2024-04-27T07:29:27Z</time>
      </trkpt>
      <trkpt lat="45.86238" lon="6.45245">
        <ele>2008.7</ele>
        <time>2024-04-27T07:29:28Z</time>
      </trkpt>
      <trkpt lat="45.86238" lon="6.45245">
        <ele>2008.7</ele>
        <time>2024-04-27T07:29:29Z</time>
      </trkpt>
      <trkpt lat="45.86238" lon="6.45244">
        <ele>2009.7</ele>
        <time>2024-04-27T07:29:30Z</time>
      </trkpt>
      <trkpt lat="45.86237" lon="6.45244">
        <ele>2009.7</ele>
        <time>2024-04-27T07:29:31Z</time>
      </trkpt>
      <trkpt lat="45.86238" lon="6.45243">
        <ele>2009.7</ele>
        <time>2024-04-27T07:29:32Z</time>
      </trkpt>
      <trkpt lat="45.86238" lon="6.45243">
        <ele>2009.7</ele>
        <time>2024-04-27T07:29:33Z</time>
      </trkpt>
      <trkpt lat="45.86238" lon="6.45242">
        <ele>2009.7</ele>
        <time>2024-04-27T07:29:34Z</time>
      </trkpt>
      <trkpt lat="45.86238" lon="6.45241">
        <ele>2009.7</ele>
        <time>2024-04-27T07:29:35Z</time>
      </trkpt>
      <trkpt lat="45.86238" lon="6.4524">
        <ele>2010.6</ele>
        <time>2024-04-27T07:29:36Z</time>
      </trkpt>
      <trkpt lat="45.86238" lon="6.4524">
        <ele>2010.6</ele>
        <time>2024-04-27T07:29:37Z</time>
      </trkpt>
      <trkpt lat="45.86237" lon="6.45239">
        <ele>2010.6</ele>
        <time>2024-04-27T07:29:38Z</time>
      </trkpt>
      <trkpt lat="45.86238" lon="6.45239">
        <ele>2010.6</ele>
        <time>2024-04-27T07:29:39Z</time>
      </trkpt>
      <trkpt lat="45.86238" lon="6.45239">
        <ele>2010.6</ele>
        <time>2024-04-27T07:29:40Z</time>
      </trkpt>
      <trkpt lat="45.86238" lon="6.45238">
        <ele>2010.6</ele>
        <time>2024-04-27T07:29:41Z</time>
      </trkpt>
      <trkpt lat="45.86237" lon="6.45238">
        <ele>2010.6</ele>
        <time>2024-04-27T07:29:42Z</time>
      </trkpt>
      <trkpt lat="45.86237" lon="6.45238">
        <ele>2010.6</ele>
        <time>2024-04-27T07:29:43Z</time>
      </trkpt>
      <trkpt lat="45.86237" lon="6.45237">
        <ele>2010.6</ele>
        <time>2024-04-27T07:29:44Z</time>
      </trkpt>
      <trkpt lat="45.86237" lon="6.45236">
        <ele>2010.6</ele>
        <time>2024-04-27T07:29:45Z</time>
      </trkpt>
      <trkpt lat="45.86237" lon="6.45235">
        <ele>2010.6</ele>
        <time>2024-04-27T07:29:46Z</time>
      </trkpt>
      <trkpt lat="45.86237" lon="6.45235">
        <ele>2010.6</ele>
        <time>2024-04-27T07:29:47Z</time>
      </trkpt>
      <trkpt lat="45.86237" lon="6.45233">
        <ele>2011.7</ele>
        <time>2024-04-27T07:29:48Z</time>
      </trkpt>
      <trkpt lat="45.86238" lon="6.45232">
        <ele>2011.7</ele>
        <time>2024-04-27T07:29:49Z</time>
      </trkpt>
      <trkpt lat="45.86239" lon="6.45231">
        <ele>2011.7</ele>
        <time>2024-04-27T07:29:50Z</time>
      </trkpt>
      <trkpt lat="45.86239" lon="6.4523">
        <ele>2011.7</ele>
        <time>2024-04-27T07:29:51Z</time>
      </trkpt>
      <trkpt lat="45.8624" lon="6.45229">
        <ele>2011.7</ele>
        <time>2024-04-27T07:29:52Z</time>
      </trkpt>
      <trkpt lat="45.86241" lon="6.45228">
        <ele>2011.7</ele>
        <time>2024-04-27T07:29:53Z</time>
      </trkpt>
      <trkpt lat="45.86241" lon="6.45227">
        <ele>2012.6</ele>
        <time>2024-04-27T07:29:54Z</time>
      </trkpt>
      <trkpt lat="45.86241" lon="6.45226">
        <ele>2012.6</ele>
        <time>2024-04-27T07:29:55Z</time>
      </trkpt>
      <trkpt lat="45.86241" lon="6.45226">
        <ele>2012.6</ele>
        <time>2024-04-27T07:29:56Z</time>
      </trkpt>
      <trkpt lat="45.86241" lon="6.45226">
        <ele>2012.6</ele>
        <time>2024-04-27T07:29:57Z</time>
      </trkpt>
      <trkpt lat="45.86241" lon="6.45225">
        <ele>2012.6</ele>
        <time>2024-04-27T07:29:58Z</time>
      </trkpt>
      <trkpt lat="45.86241" lon="6.45224">
        <ele>2012.6</ele>
        <time>2024-04-27T07:29:59Z</time>
      </trkpt>
      <trkpt lat="45.86241" lon="6.45224">
        <ele>2013.7</ele>
        <time>2024-04-27T07:30:00Z</time>
      </trkpt>
      <trkpt lat="45.86241" lon="6.45223">
        <ele>2013.7</ele>
        <time>2024-04-27T07:30:01Z</time>
      </trkpt>
      <trkpt lat="45.86242" lon="6.45222">
        <ele>2012.6</ele>
        <time>2024-04-27T07:30:02Z</time>
      </trkpt>
      <trkpt lat="45.86242" lon="6.45221">
        <ele>2012.6</ele>
        <time>2024-04-27T07:30:03Z</time>
      </trkpt>
      <trkpt lat="45.86242" lon="6.45219">
        <ele>2013.7</ele>
        <time>2024-04-27T07:30:04Z</time>
      </trkpt>
      <trkpt lat="45.86242" lon="6.45218">
        <ele>2013.7</ele>
        <time>2024-04-27T07:30:05Z</time>
      </trkpt>
      <trkpt lat="45.86242" lon="6.45218">
        <ele>2013.7</ele>
        <time>2024-04-27T07:30:06Z</time>
      </trkpt>
      <trkpt lat="45.86242" lon="6.45217">
        <ele>2013.7</ele>
        <time>2024-04-27T07:30:07Z</time>
      </trkpt>
      <trkpt lat="45.86242" lon="6.45216">
        <ele>2014.6</ele>
        <time>2024-04-27T07:30:08Z</time>
      </trkpt>
      <trkpt lat="45.86242" lon="6.45215">
        <ele>2014.6</ele>
        <time>2024-04-27T07:30:09Z</time>
      </trkpt>
      <trkpt lat="45.86242" lon="6.45215">
        <ele>2014.6</ele>
        <time>2024-04-27T07:30:10Z</time>
      </trkpt>
      <trkpt lat="45.86241" lon="6.45215">
        <ele>2014.6</ele>
        <time>2024-04-27T07:30:11Z</time>
      </trkpt>
      <trkpt lat="45.86241" lon="6.45215">
        <ele>2015.7</ele>
        <time>2024-04-27T07:30:12Z</time>
      </trkpt>
      <trkpt lat="45.8624" lon="6.45215">
        <ele>2015.7</ele>
        <time>2024-04-27T07:30:13Z</time>
      </trkpt>
      <trkpt lat="45.86239" lon="6.45215">
        <ele>2015.7</ele>
        <time>2024-04-27T07:30:14Z</time>
      </trkpt>
      <trkpt lat="45.86239" lon="6.45215">
        <ele>2015.7</ele>
        <time>2024-04-27T07:30:15Z</time>
      </trkpt>
      <trkpt lat="45.86239" lon="6.45215">
        <ele>2016.6</ele>
        <time>2024-04-27T07:30:16Z</time>
      </trkpt>
      <trkpt lat="45.86238" lon="6.45215">
        <ele>2016.6</ele>
        <time>2024-04-27T07:30:17Z</time>
      </trkpt>
      <trkpt lat="45.86238" lon="6.45214">
        <ele>2016.6</ele>
        <time>2024-04-27T07:30:18Z</time>
      </trkpt>
      <trkpt lat="45.86239" lon="6.45213">
        <ele>2016.6</ele>
        <time>2024-04-27T07:30:19Z</time>
      </trkpt>
      <trkpt lat="45.86239" lon="6.45212">
        <ele>2017.6</ele>
        <time>2024-04-27T07:30:20Z</time>
      </trkpt>
      <trkpt lat="45.86238" lon="6.45212">
        <ele>2017.6</ele>
        <time>2024-04-27T07:30:21Z</time>
      </trkpt>
      <trkpt lat="45.86238" lon="6.45211">
        <ele>2018.7</ele>
        <time>2024-04-27T07:30:22Z</time>
      </trkpt>
      <trkpt lat="45.86238" lon="6.4521">
        <ele>2018.7</ele>
        <time>2024-04-27T07:30:23Z</time>
      </trkpt>
      <trkpt lat="45.86238" lon="6.45209">
        <ele>2018.7</ele>
        <time>2024-04-27T07:30:24Z</time>
      </trkpt>
      <trkpt lat="45.86239" lon="6.45209">
        <ele>2018.7</ele>
        <time>2024-04-27T07:30:25Z</time>
      </trkpt>
      <trkpt lat="45.86239" lon="6.45208">
        <ele>2019.6</ele>
        <time>2024-04-27T07:30:26Z</time>
      </trkpt>
      <trkpt lat="45.86238" lon="6.45208">
        <ele>2019.6</ele>
        <time>2024-04-27T07:30:27Z</time>
      </trkpt>
      <trkpt lat="45.86238" lon="6.45207">
        <ele>2019.6</ele>
        <time>2024-04-27T07:30:28Z</time>
      </trkpt>
      <trkpt lat="45.86238" lon="6.45206">
        <ele>2019.6</ele>
        <time>2024-04-27T07:30:29Z</time>
      </trkpt>
      <trkpt lat="45.86238" lon="6.45205">
        <ele>2019.6</ele>
        <time>2024-04-27T07:30:30Z</time>
      </trkpt>
      <trkpt lat="45.86238" lon="6.45204">
        <ele>2019.6</ele>
        <time>2024-04-27T07:30:31Z</time>
      </trkpt>
      <trkpt lat="45.86238" lon="6.45203">
        <ele>2019.6</ele>
        <time>2024-04-27T07:30:32Z</time>
      </trkpt>
      <trkpt lat="45.86238" lon="6.45203">
        <ele>2019.6</ele>
        <time>2024-04-27T07:30:33Z</time>
      </trkpt>
      <trkpt lat="45.86237" lon="6.45203">
        <ele>2020.7</ele>
        <time>2024-04-27T07:30:34Z</time>
      </trkpt>
      <trkpt lat="45.86237" lon="6.45203">
        <ele>2020.7</ele>
        <time>2024-04-27T07:30:35Z</time>
      </trkpt>
      <trkpt lat="45.86236" lon="6.45202">
        <ele>2020.7</ele>
        <time>2024-04-27T07:30:36Z</time>
      </trkpt>
      <trkpt lat="45.86236" lon="6.45201">
        <ele>2020.7</ele>
        <time>2024-04-27T07:30:37Z</time>
      </trkpt>
      <trkpt lat="45.86236" lon="6.452">
        <ele>2021.6</ele>
        <time>2024-04-27T07:30:38Z</time>
      </trkpt>
      <trkpt lat="45.86236" lon="6.45199">
        <ele>2021.6</ele>
        <time>2024-04-27T07:30:39Z</time>
      </trkpt>
      <trkpt lat="45.86235" lon="6.45199">
        <ele>2022.7</ele>
        <time>2024-04-27T07:30:40Z</time>
      </trkpt>
      <trkpt lat="45.86235" lon="6.45198">
        <ele>2022.7</ele>
        <time>2024-04-27T07:30:41Z</time>
      </trkpt>
      <trkpt lat="45.86235" lon="6.45197">
        <ele>2022.7</ele>
        <time>2024-04-27T07:30:42Z</time>
      </trkpt>
      <trkpt lat="45.86235" lon="6.45196">
        <ele>2022.7</ele>
        <time>2024-04-27T07:30:43Z</time>
      </trkpt>
      <trkpt lat="45.86235" lon="6.45196">
        <ele>2022.7</ele>
        <time>2024-04-27T07:30:44Z</time>
      </trkpt>
      <trkpt lat="45.86236" lon="6.45195">
        <ele>2022.7</ele>
        <time>2024-04-27T07:30:45Z</time>
      </trkpt>
      <trkpt lat="45.86236" lon="6.45195">
        <ele>2022.7</ele>
        <time>2024-04-27T07:30:46Z</time>
      </trkpt>
      <trkpt lat="45.86236" lon="6.45194">
        <ele>2022.7</ele>
        <time>2024-04-27T07:30:47Z</time>
      </trkpt>
      <trkpt lat="45.86234" lon="6.45195">
        <ele>2022.7</ele>
        <time>2024-04-27T07:30:48Z</time>
      </trkpt>
      <trkpt lat="45.86234" lon="6.45195">
        <ele>2022.7</ele>
        <time>2024-04-27T07:30:49Z</time>
      </trkpt>
      <trkpt lat="45.86233" lon="6.45195">
        <ele>2022.7</ele>
        <time>2024-04-27T07:30:50Z</time>
      </trkpt>
      <trkpt lat="45.86232" lon="6.45195">
        <ele>2022.7</ele>
        <time>2024-04-27T07:30:51Z</time>
      </trkpt>
      <trkpt lat="45.86231" lon="6.45194">
        <ele>2023.6</ele>
        <time>2024-04-27T07:30:52Z</time>
      </trkpt>
      <trkpt lat="45.86231" lon="6.45195">
        <ele>2023.6</ele>
        <time>2024-04-27T07:30:53Z</time>
      </trkpt>
      <trkpt lat="45.8623" lon="6.45195">
        <ele>2023.6</ele>
        <time>2024-04-27T07:30:54Z</time>
      </trkpt>
      <trkpt lat="45.8623" lon="6.45195">
        <ele>2023.6</ele>
        <time>2024-04-27T07:30:55Z</time>
      </trkpt>
      <trkpt lat="45.8623" lon="6.45196">
        <ele>2023.6</ele>
        <time>2024-04-27T07:30:56Z</time>
      </trkpt>
      <trkpt lat="45.8623" lon="6.45196">
        <ele>2023.6</ele>
        <time>2024-04-27T07:30:57Z</time>
      </trkpt>
      <trkpt lat="45.86229" lon="6.45197">
        <ele>2023.6</ele>
        <time>2024-04-27T07:30:58Z</time>
      </trkpt>
      <trkpt lat="45.86229" lon="6.45197">
        <ele>2023.6</ele>
        <time>2024-04-27T07:30:59Z</time>
      </trkpt>
      <trkpt lat="45.86228" lon="6.45197">
        <ele>2023.6</ele>
        <time>2024-04-27T07:31:00Z</time>
      </trkpt>
      <trkpt lat="45.86228" lon="6.45198">
        <ele>2023.6</ele>
        <time>2024-04-27T07:31:01Z</time>
      </trkpt>
      <trkpt lat="45.86228" lon="6.45197">
        <ele>2024.7</ele>
        <time>2024-04-27T07:31:02Z</time>
      </trkpt>
      <trkpt lat="45.86228" lon="6.45198">
        <ele>2024.7</ele>
        <time>2024-04-27T07:31:03Z</time>
      </trkpt>
      <trkpt lat="45.86228" lon="6.45198">
        <ele>2024.7</ele>
        <time>2024-04-27T07:31:04Z</time>
      </trkpt>
      <trkpt lat="45.86228" lon="6.45198">
        <ele>2024.7</ele>
        <time>2024-04-27T07:31:05Z</time>
      </trkpt>
      <trkpt lat="45.86227" lon="6.45199">
        <ele>2025.6</ele>
        <time>2024-04-27T07:31:06Z</time>
      </trkpt>
      <trkpt lat="45.86227" lon="6.452">
        <ele>2025.6</ele>
        <time>2024-04-27T07:31:07Z</time>
      </trkpt>
      <trkpt lat="45.86226" lon="6.45201">
        <ele>2025.6</ele>
        <time>2024-04-27T07:31:08Z</time>
      </trkpt>
      <trkpt lat="45.86225" lon="6.45202">
        <ele>2025.6</ele>
        <time>2024-04-27T07:31:09Z</time>
      </trkpt>
      <trkpt lat="45.86225" lon="6.45201">
        <ele>2026.6</ele>
        <time>2024-04-27T07:31:10Z</time>
      </trkpt>
      <trkpt lat="45.86225" lon="6.45202">
        <ele>2026.6</ele>
        <time>2024-04-27T07:31:11Z</time>
      </trkpt>
      <trkpt lat="45.86226" lon="6.45202">
        <ele>2026.6</ele>
        <time>2024-04-27T07:31:12Z</time>
      </trkpt>
      <trkpt lat="45.86226" lon="6.45203">
        <ele>2026.6</ele>
        <time>2024-04-27T07:31:13Z</time>
      </trkpt>
      <trkpt lat="45.86226" lon="6.45204">
        <ele>2026.6</ele>
        <time>2024-04-27T07:31:14Z</time>
      </trkpt>
      <trkpt lat="45.86226" lon="6.45205">
        <ele>2026.6</ele>
        <time>2024-04-27T07:31:15Z</time>
      </trkpt>
      <trkpt lat="45.86226" lon="6.45205">
        <ele>2027.7</ele>
        <time>2024-04-27T07:31:16Z</time>
      </trkpt>
      <trkpt lat="45.86226" lon="6.45204">
        <ele>2027.7</ele>
        <time>2024-04-27T07:31:17Z</time>
      </trkpt>
      <trkpt lat="45.86226" lon="6.45204">
        <ele>2027.7</ele>
        <time>2024-04-27T07:31:18Z</time>
      </trkpt>
      <trkpt lat="45.86224" lon="6.45205">
        <ele>2027.7</ele>
        <time>2024-04-27T07:31:19Z</time>
      </trkpt>
      <trkpt lat="45.86224" lon="6.45205">
        <ele>2027.7</ele>
        <time>2024-04-27T07:31:20Z</time>
      </trkpt>
      <trkpt lat="45.86223" lon="6.45206">
        <ele>2027.7</ele>
        <time>2024-04-27T07:31:21Z</time>
      </trkpt>
      <trkpt lat="45.86222" lon="6.45206">
        <ele>2027.7</ele>
        <time>2024-04-27T07:31:22Z</time>
      </trkpt>
      <trkpt lat="45.86222" lon="6.45207">
        <ele>2027.7</ele>
        <time>2024-04-27T07:31:23Z</time>
      </trkpt>
      <trkpt lat="45.86221" lon="6.45208">
        <ele>2028.6</ele>
        <time>2024-04-27T07:31:24Z</time>
      </trkpt>
      <trkpt lat="45.8622" lon="6.45208">
        <ele>2028.6</ele>
        <time>2024-04-27T07:31:25Z</time>
      </trkpt>
      <trkpt lat="45.8622" lon="6.45208">
        <ele>2028.6</ele>
        <time>2024-04-27T07:31:26Z</time>
      </trkpt>
      <trkpt lat="45.86218" lon="6.45209">
        <ele>2028.6</ele>
        <time>2024-04-27T07:31:27Z</time>
      </trkpt>
      <trkpt lat="45.86219" lon="6.45209">
        <ele>2028.6</ele>
        <time>2024-04-27T07:31:28Z</time>
      </trkpt>
      <trkpt lat="45.86218" lon="6.4521">
        <ele>2028.6</ele>
        <time>2024-04-27T07:31:29Z</time>
      </trkpt>
      <trkpt lat="45.86218" lon="6.4521">
        <ele>2028.6</ele>
        <time>2024-04-27T07:31:30Z</time>
      </trkpt>
      <trkpt lat="45.86217" lon="6.45212">
        <ele>2028.6</ele>
        <time>2024-04-27T07:31:31Z</time>
      </trkpt>
      <trkpt lat="45.86216" lon="6.45213">
        <ele>2029.7</ele>
        <time>2024-04-27T07:31:32Z</time>
      </trkpt>
      <trkpt lat="45.86215" lon="6.45214">
        <ele>2029.7</ele>
        <time>2024-04-27T07:31:33Z</time>
      </trkpt>
      <trkpt lat="45.86215" lon="6.45215">
        <ele>2029.7</ele>
        <time>2024-04-27T07:31:34Z</time>
      </trkpt>
      <trkpt lat="45.86215" lon="6.45215">
        <ele>2029.7</ele>
        <time>2024-04-27T07:31:35Z</time>
      </trkpt>
      <trkpt lat="45.86214" lon="6.45217">
        <ele>2029.7</ele>
        <time>2024-04-27T07:31:36Z</time>
      </trkpt>
      <trkpt lat="45.86214" lon="6.45217">
        <ele>2029.7</ele>
        <time>2024-04-27T07:31:37Z</time>
      </trkpt>
      <trkpt lat="45.86215" lon="6.45217">
        <ele>2030.6</ele>
        <time>2024-04-27T07:31:38Z</time>
      </trkpt>
      <trkpt lat="45.86215" lon="6.45217">
        <ele>2030.6</ele>
        <time>2024-04-27T07:31:39Z</time>
      </trkpt>
      <trkpt lat="45.86215" lon="6.45217">
        <ele>2030.6</ele>
        <time>2024-04-27T07:31:40Z</time>
      </trkpt>
      <trkpt lat="45.86214" lon="6.45217">
        <ele>2030.6</ele>
        <time>2024-04-27T07:31:41Z</time>
      </trkpt>
      <trkpt lat="45.86213" lon="6.45218">
        <ele>2030.6</ele>
        <time>2024-04-27T07:31:42Z</time>
      </trkpt>
      <trkpt lat="45.86213" lon="6.45218">
        <ele>2030.6</ele>
        <time>2024-04-27T07:31:43Z</time>
      </trkpt>
      <trkpt lat="45.86212" lon="6.45219">
        <ele>2030.6</ele>
        <time>2024-04-27T07:31:44Z</time>
      </trkpt>
      <trkpt lat="45.86212" lon="6.45219">
        <ele>2030.6</ele>
        <time>2024-04-27T07:31:45Z</time>
      </trkpt>
      <trkpt lat="45.86211" lon="6.4522">
        <ele>2031.7</ele>
        <time>2024-04-27T07:31:46Z</time>
      </trkpt>
      <trkpt lat="45.8621" lon="6.4522">
        <ele>2031.7</ele>
        <time>2024-04-27T07:31:47Z</time>
      </trkpt>
      <trkpt lat="45.8621" lon="6.45221">
        <ele>2031.7</ele>
        <time>2024-04-27T07:31:48Z</time>
      </trkpt>
      <trkpt lat="45.86209" lon="6.45221">
        <ele>2031.7</ele>
        <time>2024-04-27T07:31:49Z</time>
      </trkpt>
      <trkpt lat="45.86209" lon="6.45221">
        <ele>2031.7</ele>
        <time>2024-04-27T07:31:50Z</time>
      </trkpt>
      <trkpt lat="45.86209" lon="6.45222">
        <ele>2031.7</ele>
        <time>2024-04-27T07:31:51Z</time>
      </trkpt>
      <trkpt lat="45.86209" lon="6.45222">
        <ele>2032.6</ele>
        <time>2024-04-27T07:31:52Z</time>
      </trkpt>
      <trkpt lat="45.86209" lon="6.45222">
        <ele>2032.6</ele>
        <time>2024-04-27T07:31:53Z</time>
      </trkpt>
      <trkpt lat="45.86209" lon="6.45222">
        <ele>2032.6</ele>
        <time>2024-04-27T07:31:54Z</time>
      </trkpt>
      <trkpt lat="45.86208" lon="6.45223">
        <ele>2032.6</ele>
        <time>2024-04-27T07:31:55Z</time>
      </trkpt>
      <trkpt lat="45.86208" lon="6.45223">
        <ele>2032.6</ele>
        <time>2024-04-27T07:31:56Z</time>
      </trkpt>
      <trkpt lat="45.86208" lon="6.45223">
        <ele>2032.6</ele>
        <time>2024-04-27T07:31:57Z</time>
      </trkpt>
      <trkpt lat="45.86208" lon="6.45224">
        <ele>2033.7</ele>
        <time>2024-04-27T07:31:58Z</time>
      </trkpt>
      <trkpt lat="45.86208" lon="6.45224">
        <ele>2033.7</ele>
        <time>2024-04-27T07:31:59Z</time>
      </trkpt>
      <trkpt lat="45.86207" lon="6.45224">
        <ele>2033.7</ele>
        <time>2024-04-27T07:32:00Z</time>
      </trkpt>
      <trkpt lat="45.86207" lon="6.45224">
        <ele>2033.7</ele>
        <time>2024-04-27T07:32:01Z</time>
      </trkpt>
      <trkpt lat="45.86207" lon="6.45224">
        <ele>2033.7</ele>
        <time>2024-04-27T07:32:02Z</time>
      </trkpt>
      <trkpt lat="45.86207" lon="6.45224">
        <ele>2033.7</ele>
        <time>2024-04-27T07:32:03Z</time>
      </trkpt>
      <trkpt lat="45.86207" lon="6.45224">
        <ele>2033.7</ele>
        <time>2024-04-27T07:32:04Z</time>
      </trkpt>
      <trkpt lat="45.86207" lon="6.45224">
        <ele>2033.7</ele>
        <time>2024-04-27T07:32:05Z</time>
      </trkpt>
      <trkpt lat="45.86207" lon="6.45224">
        <ele>2033.7</ele>
        <time>2024-04-27T07:32:06Z</time>
      </trkpt>
      <trkpt lat="45.86207" lon="6.45224">
        <ele>2033.7</ele>
        <time>2024-04-27T07:32:07Z</time>
      </trkpt>
      <trkpt lat="45.86207" lon="6.45224">
        <ele>2034.7</ele>
        <time>2024-04-27T07:32:08Z</time>
      </trkpt>
      <trkpt lat="45.86207" lon="6.45224">
        <ele>2034.7</ele>
        <time>2024-04-27T07:32:09Z</time>
      </trkpt>
      <trkpt lat="45.86207" lon="6.45224">
        <ele>2034.7</ele>
        <time>2024-04-27T07:32:10Z</time>
      </trkpt>
      <trkpt lat="45.86207" lon="6.45225">
        <ele>2034.7</ele>
        <time>2024-04-27T07:32:11Z</time>
      </trkpt>
      <trkpt lat="45.86205" lon="6.45227">
        <ele>2034.7</ele>
        <time>2024-04-27T07:32:12Z</time>
      </trkpt>
      <trkpt lat="45.86204" lon="6.45228">
        <ele>2034.7</ele>
        <time>2024-04-27T07:32:13Z</time>
      </trkpt>
      <trkpt lat="45.86203" lon="6.4523">
        <ele>2035.6</ele>
        <time>2024-04-27T07:32:14Z</time>
      </trkpt>
      <trkpt lat="45.86202" lon="6.45231">
        <ele>2035.6</ele>
        <time>2024-04-27T07:32:15Z</time>
      </trkpt>
      <trkpt lat="45.86201" lon="6.45232">
        <ele>2035.6</ele>
        <time>2024-04-27T07:32:16Z</time>
      </trkpt>
      <trkpt lat="45.862" lon="6.45233">
        <ele>2035.6</ele>
        <time>2024-04-27T07:32:17Z</time>
      </trkpt>
      <trkpt lat="45.86199" lon="6.45234">
        <ele>2036.7</ele>
        <time>2024-04-27T07:32:18Z</time>
      </trkpt>
      <trkpt lat="45.86198" lon="6.45235">
        <ele>2036.7</ele>
        <time>2024-04-27T07:32:19Z</time>
      </trkpt>
      <trkpt lat="45.86197" lon="6.45236">
        <ele>2036.7</ele>
        <time>2024-04-27T07:32:20Z</time>
      </trkpt>
      <trkpt lat="45.86196" lon="6.45237">
        <ele>2036.7</ele>
        <time>2024-04-27T07:32:21Z</time>
      </trkpt>
      <trkpt lat="45.86196" lon="6.45237">
        <ele>2036.7</ele>
        <time>2024-04-27T07:32:22Z</time>
      </trkpt>
      <trkpt lat="45.86195" lon="6.45238">
        <ele>2036.7</ele>
        <time>2024-04-27T07:32:23Z</time>
      </trkpt>
      <trkpt lat="45.86195" lon="6.45239">
        <ele>2037.6</ele>
        <time>2024-04-27T07:32:24Z</time>
      </trkpt>
      <trkpt lat="45.86195" lon="6.4524">
        <ele>2037.6</ele>
        <time>2024-04-27T07:32:25Z</time>
      </trkpt>
      <trkpt lat="45.86195" lon="6.4524">
        <ele>2037.6</ele>
        <time>2024-04-27T07:32:26Z</time>
      </trkpt>
      <trkpt lat="45.86194" lon="6.45241">
        <ele>2037.6</ele>
        <time>2024-04-27T07:32:27Z</time>
      </trkpt>
      <trkpt lat="45.86193" lon="6.45243">
        <ele>2037.6</ele>
        <time>2024-04-27T07:32:28Z</time>
      </trkpt>
      <trkpt lat="45.86193" lon="6.45243">
        <ele>2037.6</ele>
        <time>2024-04-27T07:32:29Z</time>
      </trkpt>
      <trkpt lat="45.86193" lon="6.45243">
        <ele>2037.6</ele>
        <time>2024-04-27T07:32:30Z</time>
      </trkpt>
      <trkpt lat="45.86193" lon="6.45243">
        <ele>2037.6</ele>
        <time>2024-04-27T07:32:31Z</time>
      </trkpt>
      <trkpt lat="45.86193" lon="6.45243">
        <ele>2038.7</ele>
        <time>2024-04-27T07:32:32Z</time>
      </trkpt>
      <trkpt lat="45.86193" lon="6.45243">
        <ele>2038.7</ele>
        <time>2024-04-27T07:32:33Z</time>
      </trkpt>
      <trkpt lat="45.86192" lon="6.45243">
        <ele>2038.7</ele>
        <time>2024-04-27T07:32:34Z</time>
      </trkpt>
      <trkpt lat="45.86192" lon="6.45245">
        <ele>2038.7</ele>
        <time>2024-04-27T07:32:35Z</time>
      </trkpt>
      <trkpt lat="45.86191" lon="6.45246">
        <ele>2038.7</ele>
        <time>2024-04-27T07:32:36Z</time>
      </trkpt>
      <trkpt lat="45.86191" lon="6.45246">
        <ele>2038.7</ele>
        <time>2024-04-27T07:32:37Z</time>
      </trkpt>
      <trkpt lat="45.86191" lon="6.45247">
        <ele>2039.6</ele>
        <time>2024-04-27T07:32:38Z</time>
      </trkpt>
      <trkpt lat="45.86192" lon="6.45248">
        <ele>2039.6</ele>
        <time>2024-04-27T07:32:39Z</time>
      </trkpt>
      <trkpt lat="45.86191" lon="6.45248">
        <ele>2039.6</ele>
        <time>2024-04-27T07:32:40Z</time>
      </trkpt>
      <trkpt lat="45.86191" lon="6.4525">
        <ele>2039.6</ele>
        <time>2024-04-27T07:32:41Z</time>
      </trkpt>
      <trkpt lat="45.8619" lon="6.4525">
        <ele>2039.6</ele>
        <time>2024-04-27T07:32:42Z</time>
      </trkpt>
      <trkpt lat="45.86189" lon="6.45252">
        <ele>2039.6</ele>
        <time>2024-04-27T07:32:43Z</time>
      </trkpt>
      <trkpt lat="45.86189" lon="6.45253">
        <ele>2040.7</ele>
        <time>2024-04-27T07:32:44Z</time>
      </trkpt>
      <trkpt lat="45.86189" lon="6.45254">
        <ele>2040.7</ele>
        <time>2024-04-27T07:32:45Z</time>
      </trkpt>
      <trkpt lat="45.86188" lon="6.45255">
        <ele>2040.7</ele>
        <time>2024-04-27T07:32:46Z</time>
      </trkpt>
      <trkpt lat="45.86188" lon="6.45256">
        <ele>2040.7</ele>
        <time>2024-04-27T07:32:47Z</time>
      </trkpt>
      <trkpt lat="45.86188" lon="6.45257">
        <ele>2040.7</ele>
        <time>2024-04-27T07:32:48Z</time>
      </trkpt>
      <trkpt lat="45.86188" lon="6.45258">
        <ele>2040.7</ele>
        <time>2024-04-27T07:32:49Z</time>
      </trkpt>
      <trkpt lat="45.86187" lon="6.45259">
        <ele>2040.7</ele>
        <time>2024-04-27T07:32:50Z</time>
      </trkpt>
      <trkpt lat="45.86187" lon="6.4526">
        <ele>2040.7</ele>
        <time>2024-04-27T07:32:51Z</time>
      </trkpt>
      <trkpt lat="45.86187" lon="6.4526">
        <ele>2040.7</ele>
        <time>2024-04-27T07:32:52Z</time>
      </trkpt>
      <trkpt lat="45.86186" lon="6.45261">
        <ele>2040.7</ele>
        <time>2024-04-27T07:32:53Z</time>
      </trkpt>
      <trkpt lat="45.86186" lon="6.45262">
        <ele>2040.7</ele>
        <time>2024-04-27T07:32:54Z</time>
      </trkpt>
      <trkpt lat="45.86186" lon="6.45263">
        <ele>2040.7</ele>
        <time>2024-04-27T07:32:55Z</time>
      </trkpt>
      <trkpt lat="45.86186" lon="6.45264">
        <ele>2041.6</ele>
        <time>2024-04-27T07:32:56Z</time>
      </trkpt>
      <trkpt lat="45.86186" lon="6.45266">
        <ele>2041.6</ele>
        <time>2024-04-27T07:32:57Z</time>
      </trkpt>
      <trkpt lat="45.86186" lon="6.45266">
        <ele>2041.6</ele>
        <time>2024-04-27T07:32:58Z</time>
      </trkpt>
      <trkpt lat="45.86185" lon="6.45267">
        <ele>2041.6</ele>
        <time>2024-04-27T07:32:59Z</time>
      </trkpt>
      <trkpt lat="45.86185" lon="6.45268">
        <ele>2041.6</ele>
        <time>2024-04-27T07:33:00Z</time>
      </trkpt>
      <trkpt lat="45.86186" lon="6.45269">
        <ele>2041.6</ele>
        <time>2024-04-27T07:33:01Z</time>
      </trkpt>
      <trkpt lat="45.86186" lon="6.4527">
        <ele>2041.6</ele>
        <time>2024-04-27T07:33:02Z</time>
      </trkpt>
      <trkpt lat="45.86185" lon="6.45271">
        <ele>2041.6</ele>
        <time>2024-04-27T07:33:03Z</time>
      </trkpt>
      <trkpt lat="45.86185" lon="6.45272">
        <ele>2042.6</ele>
        <time>2024-04-27T07:33:04Z</time>
      </trkpt>
      <trkpt lat="45.86185" lon="6.45273">
        <ele>2042.6</ele>
        <time>2024-04-27T07:33:05Z</time>
      </trkpt>
      <trkpt lat="45.86185" lon="6.45274">
        <ele>2042.6</ele>
        <time>2024-04-27T07:33:06Z</time>
      </trkpt>
      <trkpt lat="45.86185" lon="6.45274">
        <ele>2042.6</ele>
        <time>2024-04-27T07:33:07Z</time>
      </trkpt>
      <trkpt lat="45.86184" lon="6.45275">
        <ele>2042.6</ele>
        <time>2024-04-27T07:33:08Z</time>
      </trkpt>
      <trkpt lat="45.86184" lon="6.45275">
        <ele>2042.6</ele>
        <time>2024-04-27T07:33:09Z</time>
      </trkpt>
      <trkpt lat="45.86184" lon="6.45274">
        <ele>2042.6</ele>
        <time>2024-04-27T07:33:10Z</time>
      </trkpt>
      <trkpt lat="45.86184" lon="6.45274">
        <ele>2042.6</ele>
        <time>2024-04-27T07:33:11Z</time>
      </trkpt>
      <trkpt lat="45.86184" lon="6.45274">
        <ele>2043.7</ele>
        <time>2024-04-27T07:33:12Z</time>
      </trkpt>
      <trkpt lat="45.86183" lon="6.45273">
        <ele>2043.7</ele>
        <time>2024-04-27T07:33:13Z</time>
      </trkpt>
      <trkpt lat="45.86183" lon="6.45273">
        <ele>2043.7</ele>
        <time>2024-04-27T07:33:14Z</time>
      </trkpt>
      <trkpt lat="45.86183" lon="6.45273">
        <ele>2043.7</ele>
        <time>2024-04-27T07:33:15Z</time>
      </trkpt>
      <trkpt lat="45.86183" lon="6.45272">
        <ele>2044.6</ele>
        <time>2024-04-27T07:33:16Z</time>
      </trkpt>
      <trkpt lat="45.86183" lon="6.45271">
        <ele>2044.6</ele>
        <time>2024-04-27T07:33:17Z</time>
      </trkpt>
      <trkpt lat="45.86183" lon="6.4527">
        <ele>2044.6</ele>
        <time>2024-04-27T07:33:18Z</time>
      </trkpt>
      <trkpt lat="45.86182" lon="6.45269">
        <ele>2044.6</ele>
        <time>2024-04-27T07:33:19Z</time>
      </trkpt>
      <trkpt lat="45.86182" lon="6.45268">
        <ele>2044.6</ele>
        <time>2024-04-27T07:33:20Z</time>
      </trkpt>
      <trkpt lat="45.86182" lon="6.45268">
        <ele>2044.6</ele>
        <time>2024-04-27T07:33:21Z</time>
      </trkpt>
      <trkpt lat="45.86181" lon="6.45267">
        <ele>2044.6</ele>
        <time>2024-04-27T07:33:22Z</time>
      </trkpt>
      <trkpt lat="45.86181" lon="6.45266">
        <ele>2044.6</ele>
        <time>2024-04-27T07:33:23Z</time>
      </trkpt>
      <trkpt lat="45.86181" lon="6.45266">
        <ele>2044.6</ele>
        <time>2024-04-27T07:33:24Z</time>
      </trkpt>
      <trkpt lat="45.86181" lon="6.45265">
        <ele>2044.6</ele>
        <time>2024-04-27T07:33:25Z</time>
      </trkpt>
      <trkpt lat="45.86181" lon="6.45265">
        <ele>2046.6</ele>
        <time>2024-04-27T07:33:26Z</time>
      </trkpt>
      <trkpt lat="45.8618" lon="6.45264">
        <ele>2046.6</ele>
        <time>2024-04-27T07:33:27Z</time>
      </trkpt>
      <trkpt lat="45.8618" lon="6.45265">
        <ele>2046.6</ele>
        <time>2024-04-27T07:33:28Z</time>
      </trkpt>
      <trkpt lat="45.86179" lon="6.45265">
        <ele>2046.6</ele>
        <time>2024-04-27T07:33:29Z</time>
      </trkpt>
      <trkpt lat="45.86179" lon="6.45264">
        <ele>2047.7</ele>
        <time>2024-04-27T07:33:30Z</time>
      </trkpt>
      <trkpt lat="45.86179" lon="6.45263">
        <ele>2047.7</ele>
        <time>2024-04-27T07:33:31Z</time>
      </trkpt>
      <trkpt lat="45.86178" lon="6.45262">
        <ele>2047.7</ele>
        <time>2024-04-27T07:33:32Z</time>
      </trkpt>
      <trkpt lat="45.86178" lon="6.45262">
        <ele>2047.7</ele>
        <time>2024-04-27T07:33:33Z</time>
      </trkpt>
      <trkpt lat="45.86178" lon="6.45261">
        <ele>2047.7</ele>
        <time>2024-04-27T07:33:34Z</time>
      </trkpt>
      <trkpt lat="45.86177" lon="6.45261">
        <ele>2047.7</ele>
        <time>2024-04-27T07:33:35Z</time>
      </trkpt>
      <trkpt lat="45.86178" lon="6.45261">
        <ele>2047.7</ele>
        <time>2024-04-27T07:33:36Z</time>
      </trkpt>
      <trkpt lat="45.86178" lon="6.45261">
        <ele>2047.7</ele>
        <time>2024-04-27T07:33:37Z</time>
      </trkpt>
      <trkpt lat="45.86178" lon="6.45262">
        <ele>2047.7</ele>
        <time>2024-04-27T07:33:38Z</time>
      </trkpt>
      <trkpt lat="45.86178" lon="6.45262">
        <ele>2047.7</ele>
        <time>2024-04-27T07:33:39Z</time>
      </trkpt>
      <trkpt lat="45.86178" lon="6.45262">
        <ele>2047.7</ele>
        <time>2024-04-27T07:33:40Z</time>
      </trkpt>
      <trkpt lat="45.86178" lon="6.45262">
        <ele>2047.7</ele>
        <time>2024-04-27T07:33:41Z</time>
      </trkpt>
      <trkpt lat="45.86177" lon="6.45263">
        <ele>2047.7</ele>
        <time>2024-04-27T07:33:42Z</time>
      </trkpt>
      <trkpt lat="45.86177" lon="6.45264">
        <ele>2047.7</ele>
        <time>2024-04-27T07:33:43Z</time>
      </trkpt>
      <trkpt lat="45.86177" lon="6.45264">
        <ele>2047.7</ele>
        <time>2024-04-27T07:33:44Z</time>
      </trkpt>
      <trkpt lat="45.86177" lon="6.45265">
        <ele>2047.7</ele>
        <time>2024-04-27T07:33:45Z</time>
      </trkpt>
      <trkpt lat="45.86177" lon="6.45266">
        <ele>2047.7</ele>
        <time>2024-04-27T07:33:46Z</time>
      </trkpt>
      <trkpt lat="45.86177" lon="6.45266">
        <ele>2047.7</ele>
        <time>2024-04-27T07:33:47Z</time>
      </trkpt>
      <trkpt lat="45.86177" lon="6.45267">
        <ele>2047.7</ele>
        <time>2024-04-27T07:33:48Z</time>
      </trkpt>
      <trkpt lat="45.86176" lon="6.45268">
        <ele>2047.7</ele>
        <time>2024-04-27T07:33:49Z</time>
      </trkpt>
      <trkpt lat="45.86177" lon="6.45269">
        <ele>2047.7</ele>
        <time>2024-04-27T07:33:50Z</time>
      </trkpt>
      <trkpt lat="45.86177" lon="6.45269">
        <ele>2047.7</ele>
        <time>2024-04-27T07:33:51Z</time>
      </trkpt>
      <trkpt lat="45.86176" lon="6.4527">
        <ele>2047.7</ele>
        <time>2024-04-27T07:33:52Z</time>
      </trkpt>
      <trkpt lat="45.86176" lon="6.45271">
        <ele>2047.7</ele>
        <time>2024-04-27T07:33:53Z</time>
      </trkpt>
      <trkpt lat="45.86176" lon="6.45272">
        <ele>2047.7</ele>
        <time>2024-04-27T07:33:54Z</time>
      </trkpt>
      <trkpt lat="45.86176" lon="6.45273">
        <ele>2047.7</ele>
        <time>2024-04-27T07:33:55Z</time>
      </trkpt>
      <trkpt lat="45.86177" lon="6.45274">
        <ele>2049.7</ele>
        <time>2024-04-27T07:33:56Z</time>
      </trkpt>
      <trkpt lat="45.86177" lon="6.45275">
        <ele>2049.7</ele>
        <time>2024-04-27T07:33:57Z</time>
      </trkpt>
      <trkpt lat="45.86177" lon="6.45275">
        <ele>2049.7</ele>
        <time>2024-04-27T07:33:58Z</time>
      </trkpt>
      <trkpt lat="45.86177" lon="6.45276">
        <ele>2049.7</ele>
        <time>2024-04-27T07:33:59Z</time>
      </trkpt>
      <trkpt lat="45.86177" lon="6.45277">
        <ele>2049.7</ele>
        <time>2024-04-27T07:34:00Z</time>
      </trkpt>
      <trkpt lat="45.86176" lon="6.45278">
        <ele>2049.7</ele>
        <time>2024-04-27T07:34:01Z</time>
      </trkpt>
      <trkpt lat="45.86176" lon="6.45279">
        <ele>2051.6</ele>
        <time>2024-04-27T07:34:02Z</time>
      </trkpt>
      <trkpt lat="45.86176" lon="6.4528">
        <ele>2051.6</ele>
        <time>2024-04-27T07:34:03Z</time>
      </trkpt>
      <trkpt lat="45.86176" lon="6.4528">
        <ele>2051.6</ele>
        <time>2024-04-27T07:34:04Z</time>
      </trkpt>
      <trkpt lat="45.86175" lon="6.45281">
        <ele>2051.6</ele>
        <time>2024-04-27T07:34:05Z</time>
      </trkpt>
      <trkpt lat="45.86175" lon="6.45281">
        <ele>2051.6</ele>
        <time>2024-04-27T07:34:06Z</time>
      </trkpt>
      <trkpt lat="45.86175" lon="6.45281">
        <ele>2051.6</ele>
        <time>2024-04-27T07:34:07Z</time>
      </trkpt>
      <trkpt lat="45.86176" lon="6.45281">
        <ele>2051.6</ele>
        <time>2024-04-27T07:34:08Z</time>
      </trkpt>
      <trkpt lat="45.86175" lon="6.45281">
        <ele>2051.6</ele>
        <time>2024-04-27T07:34:09Z</time>
      </trkpt>
      <trkpt lat="45.86174" lon="6.4528">
        <ele>2051.6</ele>
        <time>2024-04-27T07:34:10Z</time>
      </trkpt>
      <trkpt lat="45.86174" lon="6.45279">
        <ele>2051.6</ele>
        <time>2024-04-27T07:34:11Z</time>
      </trkpt>
      <trkpt lat="45.86173" lon="6.45279">
        <ele>2051.6</ele>
        <time>2024-04-27T07:34:12Z</time>
      </trkpt>
      <trkpt lat="45.86172" lon="6.45279">
        <ele>2052.7</ele>
        <time>2024-04-27T07:34:13Z</time>
      </trkpt>
      <trkpt lat="45.86172" lon="6.45278">
        <ele>2052.7</ele>
        <time>2024-04-27T07:34:14Z</time>
      </trkpt>
      <trkpt lat="45.86172" lon="6.45277">
        <ele>2052.7</ele>
        <time>2024-04-27T07:34:15Z</time>
      </trkpt>
      <trkpt lat="45.86172" lon="6.45276">
        <ele>2052.7</ele>
        <time>2024-04-27T07:34:16Z</time>
      </trkpt>
      <trkpt lat="45.86172" lon="6.45275">
        <ele>2052.7</ele>
        <time>2024-04-27T07:34:17Z</time>
      </trkpt>
      <trkpt lat="45.86172" lon="6.45275">
        <ele>2052.7</ele>
        <time>2024-04-27T07:34:18Z</time>
      </trkpt>
      <trkpt lat="45.86171" lon="6.45275">
        <ele>2053.6</ele>
        <time>2024-04-27T07:34:19Z</time>
      </trkpt>
      <trkpt lat="45.86171" lon="6.45275">
        <ele>2053.6</ele>
        <time>2024-04-27T07:34:20Z</time>
      </trkpt>
      <trkpt lat="45.8617" lon="6.45274">
        <ele>2053.6</ele>
        <time>2024-04-27T07:34:21Z</time>
      </trkpt>
      <trkpt lat="45.8617" lon="6.45273">
        <ele>2053.6</ele>
        <time>2024-04-27T07:34:22Z</time>
      </trkpt>
      <trkpt lat="45.8617" lon="6.45272">
        <ele>2053.6</ele>
        <time>2024-04-27T07:34:23Z</time>
      </trkpt>
      <trkpt lat="45.86169" lon="6.45271">
        <ele>2053.6</ele>
        <time>2024-04-27T07:34:24Z</time>
      </trkpt>
      <trkpt lat="45.86169" lon="6.4527">
        <ele>2054.7</ele>
        <time>2024-04-27T07:34:25Z</time>
      </trkpt>
      <trkpt lat="45.86169" lon="6.45269">
        <ele>2054.7</ele>
        <time>2024-04-27T07:34:26Z</time>
      </trkpt>
      <trkpt lat="45.86169" lon="6.45268">
        <ele>2054.7</ele>
        <time>2024-04-27T07:34:27Z</time>
      </trkpt>
      <trkpt lat="45.86169" lon="6.45267">
        <ele>2054.7</ele>
        <time>2024-04-27T07:34:28Z</time>
      </trkpt>
      <trkpt lat="45.86169" lon="6.45266">
        <ele>2054.7</ele>
        <time>2024-04-27T07:34:29Z</time>
      </trkpt>
      <trkpt lat="45.86169" lon="6.45266">
        <ele>2054.7</ele>
        <time>2024-04-27T07:34:30Z</time>
      </trkpt>
      <trkpt lat="45.86169" lon="6.45265">
        <ele>2055.6</ele>
        <time>2024-04-27T07:34:31Z</time>
      </trkpt>
      <trkpt lat="45.86169" lon="6.45264">
        <ele>2055.6</ele>
        <time>2024-04-27T07:34:32Z</time>
      </trkpt>
      <trkpt lat="45.86169" lon="6.45263">
        <ele>2055.6</ele>
        <time>2024-04-27T07:34:33Z</time>
      </trkpt>
      <trkpt lat="45.86169" lon="6.45263">
        <ele>2055.6</ele>
        <time>2024-04-27T07:34:34Z</time>
      </trkpt>
      <trkpt lat="45.86168" lon="6.45263">
        <ele>2055.6</ele>
        <time>2024-04-27T07:34:35Z</time>
      </trkpt>
      <trkpt lat="45.86168" lon="6.45263">
        <ele>2055.6</ele>
        <time>2024-04-27T07:34:36Z</time>
      </trkpt>
      <trkpt lat="45.86168" lon="6.45263">
        <ele>2056.7</ele>
        <time>2024-04-27T07:34:37Z</time>
      </trkpt>
      <trkpt lat="45.86168" lon="6.45264">
        <ele>2056.7</ele>
        <time>2024-04-27T07:34:38Z</time>
      </trkpt>
      <trkpt lat="45.86168" lon="6.45265">
        <ele>2056.7</ele>
        <time>2024-04-27T07:34:39Z</time>
      </trkpt>
      <trkpt lat="45.86168" lon="6.45266">
        <ele>2056.7</ele>
        <time>2024-04-27T07:34:40Z</time>
      </trkpt>
      <trkpt lat="45.86168" lon="6.45266">
        <ele>2056.7</ele>
        <time>2024-04-27T07:34:41Z</time>
      </trkpt>
      <trkpt lat="45.86168" lon="6.45267">
        <ele>2056.7</ele>
        <time>2024-04-27T07:34:42Z</time>
      </trkpt>
      <trkpt lat="45.86168" lon="6.45268">
        <ele>2056.7</ele>
        <time>2024-04-27T07:34:43Z</time>
      </trkpt>
      <trkpt lat="45.86167" lon="6.45268">
        <ele>2056.7</ele>
        <time>2024-04-27T07:34:44Z</time>
      </trkpt>
      <trkpt lat="45.86166" lon="6.45269">
        <ele>2056.7</ele>
        <time>2024-04-27T07:34:45Z</time>
      </trkpt>
      <trkpt lat="45.86166" lon="6.45269">
        <ele>2056.7</ele>
        <time>2024-04-27T07:34:46Z</time>
      </trkpt>
      <trkpt lat="45.86167" lon="6.4527">
        <ele>2056.7</ele>
        <time>2024-04-27T07:34:47Z</time>
      </trkpt>
      <trkpt lat="45.86167" lon="6.45271">
        <ele>2056.7</ele>
        <time>2024-04-27T07:34:48Z</time>
      </trkpt>
      <trkpt lat="45.86166" lon="6.45272">
        <ele>2056.7</ele>
        <time>2024-04-27T07:34:49Z</time>
      </trkpt>
      <trkpt lat="45.86166" lon="6.45272">
        <ele>2056.7</ele>
        <time>2024-04-27T07:34:50Z</time>
      </trkpt>
      <trkpt lat="45.86166" lon="6.45273">
        <ele>2056.7</ele>
        <time>2024-04-27T07:34:51Z</time>
      </trkpt>
      <trkpt lat="45.86166" lon="6.45274">
        <ele>2056.7</ele>
        <time>2024-04-27T07:34:52Z</time>
      </trkpt>
      <trkpt lat="45.86166" lon="6.45274">
        <ele>2056.7</ele>
        <time>2024-04-27T07:34:53Z</time>
      </trkpt>
      <trkpt lat="45.86166" lon="6.45275">
        <ele>2056.7</ele>
        <time>2024-04-27T07:34:54Z</time>
      </trkpt>
      <trkpt lat="45.86165" lon="6.45276">
        <ele>2056.7</ele>
        <time>2024-04-27T07:34:55Z</time>
      </trkpt>
      <trkpt lat="45.86165" lon="6.45277">
        <ele>2056.7</ele>
        <time>2024-04-27T07:34:56Z</time>
      </trkpt>
      <trkpt lat="45.86165" lon="6.45277">
        <ele>2056.7</ele>
        <time>2024-04-27T07:34:57Z</time>
      </trkpt>
      <trkpt lat="45.86165" lon="6.45278">
        <ele>2056.7</ele>
        <time>2024-04-27T07:34:58Z</time>
      </trkpt>
      <trkpt lat="45.86165" lon="6.45279">
        <ele>2057.6</ele>
        <time>2024-04-27T07:34:59Z</time>
      </trkpt>
      <trkpt lat="45.86165" lon="6.45279">
        <ele>2057.6</ele>
        <time>2024-04-27T07:35:00Z</time>
      </trkpt>
      <trkpt lat="45.86164" lon="6.4528">
        <ele>2057.6</ele>
        <time>2024-04-27T07:35:01Z</time>
      </trkpt>
      <trkpt lat="45.86164" lon="6.45281">
        <ele>2057.6</ele>
        <time>2024-04-27T07:35:02Z</time>
      </trkpt>
      <trkpt lat="45.86164" lon="6.45281">
        <ele>2058.6</ele>
        <time>2024-04-27T07:35:03Z</time>
      </trkpt>
      <trkpt lat="45.86164" lon="6.45282">
        <ele>2058.6</ele>
        <time>2024-04-27T07:35:04Z</time>
      </trkpt>
      <trkpt lat="45.86164" lon="6.45282">
        <ele>2058.6</ele>
        <time>2024-04-27T07:35:05Z</time>
      </trkpt>
      <trkpt lat="45.86163" lon="6.45283">
        <ele>2058.6</ele>
        <time>2024-04-27T07:35:06Z</time>
      </trkpt>
      <trkpt lat="45.86163" lon="6.45284">
        <ele>2058.6</ele>
        <time>2024-04-27T07:35:07Z</time>
      </trkpt>
      <trkpt lat="45.86163" lon="6.45284">
        <ele>2058.6</ele>
        <time>2024-04-27T07:35:08Z</time>
      </trkpt>
      <trkpt lat="45.86163" lon="6.45285">
        <ele>2059.7</ele>
        <time>2024-04-27T07:35:09Z</time>
      </trkpt>
      <trkpt lat="45.86163" lon="6.45286">
        <ele>2059.7</ele>
        <time>2024-04-27T07:35:10Z</time>
      </trkpt>
      <trkpt lat="45.86162" lon="6.45286">
        <ele>2059.7</ele>
        <time>2024-04-27T07:35:11Z</time>
      </trkpt>
      <trkpt lat="45.86162" lon="6.45287">
        <ele>2059.7</ele>
        <time>2024-04-27T07:35:12Z</time>
      </trkpt>
      <trkpt lat="45.86161" lon="6.45288">
        <ele>2060.6</ele>
        <time>2024-04-27T07:35:13Z</time>
      </trkpt>
      <trkpt lat="45.86161" lon="6.45288">
        <ele>2060.6</ele>
        <time>2024-04-27T07:35:14Z</time>
      </trkpt>
      <trkpt lat="45.86161" lon="6.45288">
        <ele>2060.6</ele>
        <time>2024-04-27T07:35:15Z</time>
      </trkpt>
      <trkpt lat="45.8616" lon="6.45288">
        <ele>2060.6</ele>
        <time>2024-04-27T07:35:16Z</time>
      </trkpt>
      <trkpt lat="45.8616" lon="6.45287">
        <ele>2061.7</ele>
        <time>2024-04-27T07:35:17Z</time>
      </trkpt>
      <trkpt lat="45.8616" lon="6.45286">
        <ele>2061.7</ele>
        <time>2024-04-27T07:35:18Z</time>
      </trkpt>
      <trkpt lat="45.8616" lon="6.45286">
        <ele>2061.7</ele>
        <time>2024-04-27T07:35:19Z</time>
      </trkpt>
      <trkpt lat="45.8616" lon="6.45285">
        <ele>2061.7</ele>
        <time>2024-04-27T07:35:20Z</time>
      </trkpt>
      <trkpt lat="45.8616" lon="6.45284">
        <ele>2062.6</ele>
        <time>2024-04-27T07:35:21Z</time>
      </trkpt>
      <trkpt lat="45.8616" lon="6.45284">
        <ele>2062.6</ele>
        <time>2024-04-27T07:35:22Z</time>
      </trkpt>
      <trkpt lat="45.86159" lon="6.45283">
        <ele>2062.6</ele>
        <time>2024-04-27T07:35:23Z</time>
      </trkpt>
      <trkpt lat="45.86159" lon="6.45283">
        <ele>2062.6</ele>
        <time>2024-04-27T07:35:24Z</time>
      </trkpt>
      <trkpt lat="45.86159" lon="6.45282">
        <ele>2063.7</ele>
        <time>2024-04-27T07:35:25Z</time>
      </trkpt>
      <trkpt lat="45.86158" lon="6.45282">
        <ele>2063.7</ele>
        <time>2024-04-27T07:35:26Z</time>
      </trkpt>
      <trkpt lat="45.86158" lon="6.45281">
        <ele>2063.7</ele>
        <time>2024-04-27T07:35:27Z</time>
      </trkpt>
      <trkpt lat="45.86158" lon="6.4528">
        <ele>2063.7</ele>
        <time>2024-04-27T07:35:28Z</time>
      </trkpt>
      <trkpt lat="45.86158" lon="6.4528">
        <ele>2064.6</ele>
        <time>2024-04-27T07:35:29Z</time>
      </trkpt>
      <trkpt lat="45.86158" lon="6.45279">
        <ele>2064.6</ele>
        <time>2024-04-27T07:35:30Z</time>
      </trkpt>
      <trkpt lat="45.86158" lon="6.45278">
        <ele>2064.6</ele>
        <time>2024-04-27T07:35:31Z</time>
      </trkpt>
      <trkpt lat="45.86158" lon="6.45277">
        <ele>2064.6</ele>
        <time>2024-04-27T07:35:32Z</time>
      </trkpt>
      <trkpt lat="45.86158" lon="6.45276">
        <ele>2064.6</ele>
        <time>2024-04-27T07:35:33Z</time>
      </trkpt>
      <trkpt lat="45.86158" lon="6.45275">
        <ele>2064.6</ele>
        <time>2024-04-27T07:35:34Z</time>
      </trkpt>
      <trkpt lat="45.86158" lon="6.45274">
        <ele>2065.7</ele>
        <time>2024-04-27T07:35:35Z</time>
      </trkpt>
      <trkpt lat="45.86158" lon="6.45274">
        <ele>2065.7</ele>
        <time>2024-04-27T07:35:36Z</time>
      </trkpt>
      <trkpt lat="45.86158" lon="6.45273">
        <ele>2065.7</ele>
        <time>2024-04-27T07:35:37Z</time>
      </trkpt>
      <trkpt lat="45.86158" lon="6.45271">
        <ele>2065.7</ele>
        <time>2024-04-27T07:35:38Z</time>
      </trkpt>
      <trkpt lat="45.86158" lon="6.4527">
        <ele>2065.7</ele>
        <time>2024-04-27T07:35:39Z</time>
      </trkpt>
      <trkpt lat="45.86158" lon="6.4527">
        <ele>2065.7</ele>
        <time>2024-04-27T07:35:40Z</time>
      </trkpt>
      <trkpt lat="45.86158" lon="6.45269">
        <ele>2066.7</ele>
        <time>2024-04-27T07:35:41Z</time>
      </trkpt>
      <trkpt lat="45.86158" lon="6.45269">
        <ele>2066.7</ele>
        <time>2024-04-27T07:35:42Z</time>
      </trkpt>
      <trkpt lat="45.86157" lon="6.45269">
        <ele>2066.7</ele>
        <time>2024-04-27T07:35:43Z</time>
      </trkpt>
      <trkpt lat="45.86156" lon="6.45269">
        <ele>2066.7</ele>
        <time>2024-04-27T07:35:44Z</time>
      </trkpt>
      <trkpt lat="45.86156" lon="6.45269">
        <ele>2067.6</ele>
        <time>2024-04-27T07:35:45Z</time>
      </trkpt>
      <trkpt lat="45.86156" lon="6.45269">
        <ele>2067.6</ele>
        <time>2024-04-27T07:35:46Z</time>
      </trkpt>
      <trkpt lat="45.86156" lon="6.45268">
        <ele>2067.6</ele>
        <time>2024-04-27T07:35:47Z</time>
      </trkpt>
      <trkpt lat="45.86156" lon="6.45267">
        <ele>2067.6</ele>
        <time>2024-04-27T07:35:48Z</time>
      </trkpt>
      <trkpt lat="45.86156" lon="6.45266">
        <ele>2068.7</ele>
        <time>2024-04-27T07:35:49Z</time>
      </trkpt>
      <trkpt lat="45.86156" lon="6.45265">
        <ele>2068.7</ele>
        <time>2024-04-27T07:35:50Z</time>
      </trkpt>
      <trkpt lat="45.86156" lon="6.45264">
        <ele>2068.7</ele>
        <time>2024-04-27T07:35:51Z</time>
      </trkpt>
      <trkpt lat="45.86156" lon="6.45264">
        <ele>2068.7</ele>
        <time>2024-04-27T07:35:52Z</time>
      </trkpt>
      <trkpt lat="45.86156" lon="6.45263">
        <ele>2068.7</ele>
        <time>2024-04-27T07:35:53Z</time>
      </trkpt>
      <trkpt lat="45.86155" lon="6.45263">
        <ele>2068.7</ele>
        <time>2024-04-27T07:35:54Z</time>
      </trkpt>
      <trkpt lat="45.86155" lon="6.45264">
        <ele>2068.7</ele>
        <time>2024-04-27T07:35:55Z</time>
      </trkpt>
      <trkpt lat="45.86155" lon="6.45264">
        <ele>2068.7</ele>
        <time>2024-04-27T07:35:56Z</time>
      </trkpt>
      <trkpt lat="45.86155" lon="6.45264">
        <ele>2068.7</ele>
        <time>2024-04-27T07:35:57Z</time>
      </trkpt>
      <trkpt lat="45.86154" lon="6.45264">
        <ele>2068.7</ele>
        <time>2024-04-27T07:35:58Z</time>
      </trkpt>
      <trkpt lat="45.86155" lon="6.45265">
        <ele>2068.7</ele>
        <time>2024-04-27T07:35:59Z</time>
      </trkpt>
      <trkpt lat="45.86155" lon="6.45265">
        <ele>2068.7</ele>
        <time>2024-04-27T07:36:00Z</time>
      </trkpt>
      <trkpt lat="45.86155" lon="6.45265">
        <ele>2068.7</ele>
        <time>2024-04-27T07:36:01Z</time>
      </trkpt>
      <trkpt lat="45.86155" lon="6.45265">
        <ele>2068.7</ele>
        <time>2024-04-27T07:36:02Z</time>
      </trkpt>
      <trkpt lat="45.86155" lon="6.45265">
        <ele>2068.7</ele>
        <time>2024-04-27T07:36:03Z</time>
      </trkpt>
      <trkpt lat="45.86155" lon="6.45266">
        <ele>2068.7</ele>
        <time>2024-04-27T07:36:04Z</time>
      </trkpt>
      <trkpt lat="45.86155" lon="6.45267">
        <ele>2068.7</ele>
        <time>2024-04-27T07:36:05Z</time>
      </trkpt>
      <trkpt lat="45.86155" lon="6.45267">
        <ele>2068.7</ele>
        <time>2024-04-27T07:36:06Z</time>
      </trkpt>
      <trkpt lat="45.86154" lon="6.45268">
        <ele>2068.7</ele>
        <time>2024-04-27T07:36:07Z</time>
      </trkpt>
      <trkpt lat="45.86154" lon="6.45268">
        <ele>2068.7</ele>
        <time>2024-04-27T07:36:08Z</time>
      </trkpt>
      <trkpt lat="45.86154" lon="6.45269">
        <ele>2068.7</ele>
        <time>2024-04-27T07:36:09Z</time>
      </trkpt>
      <trkpt lat="45.86154" lon="6.45269">
        <ele>2068.7</ele>
        <time>2024-04-27T07:36:10Z</time>
      </trkpt>
      <trkpt lat="45.86153" lon="6.4527">
        <ele>2068.7</ele>
        <time>2024-04-27T07:36:11Z</time>
      </trkpt>
      <trkpt lat="45.86153" lon="6.4527">
        <ele>2068.7</ele>
        <time>2024-04-27T07:36:12Z</time>
      </trkpt>
      <trkpt lat="45.86153" lon="6.4527">
        <ele>2068.7</ele>
        <time>2024-04-27T07:36:13Z</time>
      </trkpt>
      <trkpt lat="45.86152" lon="6.45271">
        <ele>2068.7</ele>
        <time>2024-04-27T07:36:14Z</time>
      </trkpt>
      <trkpt lat="45.86151" lon="6.45271">
        <ele>2068.7</ele>
        <time>2024-04-27T07:36:15Z</time>
      </trkpt>
      <trkpt lat="45.86151" lon="6.45272">
        <ele>2068.7</ele>
        <time>2024-04-27T07:36:16Z</time>
      </trkpt>
      <trkpt lat="45.86151" lon="6.45272">
        <ele>2069.6</ele>
        <time>2024-04-27T07:36:17Z</time>
      </trkpt>
      <trkpt lat="45.8615" lon="6.45273">
        <ele>2069.6</ele>
        <time>2024-04-27T07:36:18Z</time>
      </trkpt>
      <trkpt lat="45.8615" lon="6.45274">
        <ele>2069.6</ele>
        <time>2024-04-27T07:36:19Z</time>
      </trkpt>
      <trkpt lat="45.8615" lon="6.45275">
        <ele>2069.6</ele>
        <time>2024-04-27T07:36:20Z</time>
      </trkpt>
      <trkpt lat="45.8615" lon="6.45276">
        <ele>2070.7</ele>
        <time>2024-04-27T07:36:21Z</time>
      </trkpt>
      <trkpt lat="45.86149" lon="6.45277">
        <ele>2070.7</ele>
        <time>2024-04-27T07:36:22Z</time>
      </trkpt>
      <trkpt lat="45.86149" lon="6.45277">
        <ele>2070.7</ele>
        <time>2024-04-27T07:36:23Z</time>
      </trkpt>
      <trkpt lat="45.86149" lon="6.45278">
        <ele>2070.7</ele>
        <time>2024-04-27T07:36:24Z</time>
      </trkpt>
      <trkpt lat="45.86148" lon="6.45278">
        <ele>2070.7</ele>
        <time>2024-04-27T07:36:25Z</time>
      </trkpt>
      <trkpt lat="45.86148" lon="6.45279">
        <ele>2070.7</ele>
        <time>2024-04-27T07:36:26Z</time>
      </trkpt>
      <trkpt lat="45.86148" lon="6.45279">
        <ele>2071.6</ele>
        <time>2024-04-27T07:36:27Z</time>
      </trkpt>
      <trkpt lat="45.86148" lon="6.45279">
        <ele>2071.6</ele>
        <time>2024-04-27T07:36:28Z</time>
      </trkpt>
      <trkpt lat="45.86147" lon="6.4528">
        <ele>2071.6</ele>
        <time>2024-04-27T07:36:29Z</time>
      </trkpt>
      <trkpt lat="45.86147" lon="6.4528">
        <ele>2071.6</ele>
        <time>2024-04-27T07:36:30Z</time>
      </trkpt>
      <trkpt lat="45.86147" lon="6.45281">
        <ele>2071.6</ele>
        <time>2024-04-27T07:36:31Z</time>
      </trkpt>
      <trkpt lat="45.86146" lon="6.45282">
        <ele>2071.6</ele>
        <time>2024-04-27T07:36:32Z</time>
      </trkpt>
      <trkpt lat="45.86146" lon="6.45283">
        <ele>2071.6</ele>
        <time>2024-04-27T07:36:33Z</time>
      </trkpt>
      <trkpt lat="45.86146" lon="6.45283">
        <ele>2071.6</ele>
        <time>2024-04-27T07:36:34Z</time>
      </trkpt>
      <trkpt lat="45.86146" lon="6.45284">
        <ele>2072.7</ele>
        <time>2024-04-27T07:36:35Z</time>
      </trkpt>
      <trkpt lat="45.86146" lon="6.45285">
        <ele>2072.7</ele>
        <time>2024-04-27T07:36:36Z</time>
      </trkpt>
      <trkpt lat="45.86146" lon="6.45286">
        <ele>2072.7</ele>
        <time>2024-04-27T07:36:37Z</time>
      </trkpt>
      <trkpt lat="45.86146" lon="6.45287">
        <ele>2072.7</ele>
        <time>2024-04-27T07:36:38Z</time>
      </trkpt>
      <trkpt lat="45.86145" lon="6.45287">
        <ele>2072.7</ele>
        <time>2024-04-27T07:36:39Z</time>
      </trkpt>
      <trkpt lat="45.86146" lon="6.45288">
        <ele>2072.7</ele>
        <time>2024-04-27T07:36:40Z</time>
      </trkpt>
      <trkpt lat="45.86146" lon="6.45289">
        <ele>2072.7</ele>
        <time>2024-04-27T07:36:41Z</time>
      </trkpt>
      <trkpt lat="45.86145" lon="6.4529">
        <ele>2072.7</ele>
        <time>2024-04-27T07:36:42Z</time>
      </trkpt>
      <trkpt lat="45.86145" lon="6.4529">
        <ele>2072.7</ele>
        <time>2024-04-27T07:36:43Z</time>
      </trkpt>
      <trkpt lat="45.86145" lon="6.45291">
        <ele>2072.7</ele>
        <time>2024-04-27T07:36:44Z</time>
      </trkpt>
      <trkpt lat="45.86145" lon="6.45292">
        <ele>2072.7</ele>
        <time>2024-04-27T07:36:45Z</time>
      </trkpt>
      <trkpt lat="45.86145" lon="6.45292">
        <ele>2072.7</ele>
        <time>2024-04-27T07:36:46Z</time>
      </trkpt>
      <trkpt lat="45.86145" lon="6.45293">
        <ele>2073.6</ele>
        <time>2024-04-27T07:36:47Z</time>
      </trkpt>
      <trkpt lat="45.86145" lon="6.45294">
        <ele>2073.6</ele>
        <time>2024-04-27T07:36:48Z</time>
      </trkpt>
      <trkpt lat="45.86144" lon="6.45295">
        <ele>2073.6</ele>
        <time>2024-04-27T07:36:49Z</time>
      </trkpt>
      <trkpt lat="45.86144" lon="6.45295">
        <ele>2073.6</ele>
        <time>2024-04-27T07:36:50Z</time>
      </trkpt>
      <trkpt lat="45.86144" lon="6.45296">
        <ele>2074.6</ele>
        <time>2024-04-27T07:36:51Z</time>
      </trkpt>
      <trkpt lat="45.86144" lon="6.45296">
        <ele>2074.6</ele>
        <time>2024-04-27T07:36:52Z</time>
      </trkpt>
      <trkpt lat="45.86143" lon="6.45296">
        <ele>2074.6</ele>
        <time>2024-04-27T07:36:53Z</time>
      </trkpt>
      <trkpt lat="45.86143" lon="6.45295">
        <ele>2074.6</ele>
        <time>2024-04-27T07:36:54Z</time>
      </trkpt>
      <trkpt lat="45.86143" lon="6.45295">
        <ele>2075.7</ele>
        <time>2024-04-27T07:36:55Z</time>
      </trkpt>
      <trkpt lat="45.86142" lon="6.45294">
        <ele>2075.7</ele>
        <time>2024-04-27T07:36:56Z</time>
      </trkpt>
      <trkpt lat="45.86142" lon="6.45294">
        <ele>2075.7</ele>
        <time>2024-04-27T07:36:57Z</time>
      </trkpt>
      <trkpt lat="45.86142" lon="6.45294">
        <ele>2075.7</ele>
        <time>2024-04-27T07:36:58Z</time>
      </trkpt>
      <trkpt lat="45.86142" lon="6.45293">
        <ele>2076.6</ele>
        <time>2024-04-27T07:36:59Z</time>
      </trkpt>
      <trkpt lat="45.86141" lon="6.45292">
        <ele>2076.6</ele>
        <time>2024-04-27T07:37:00Z</time>
      </trkpt>
      <trkpt lat="45.86141" lon="6.45292">
        <ele>2076.6</ele>
        <time>2024-04-27T07:37:01Z</time>
      </trkpt>
      <trkpt lat="45.86141" lon="6.45291">
        <ele>2076.6</ele>
        <time>2024-04-27T07:37:02Z</time>
      </trkpt>
      <trkpt lat="45.86141" lon="6.4529">
        <ele>2076.6</ele>
        <time>2024-04-27T07:37:03Z</time>
      </trkpt>
      <trkpt lat="45.86142" lon="6.45289">
        <ele>2076.6</ele>
        <time>2024-04-27T07:37:04Z</time>
      </trkpt>
      <trkpt lat="45.86142" lon="6.45288">
        <ele>2077.7</ele>
        <time>2024-04-27T07:37:05Z</time>
      </trkpt>
      <trkpt lat="45.86142" lon="6.45287">
        <ele>2077.7</ele>
        <time>2024-04-27T07:37:06Z</time>
      </trkpt>
      <trkpt lat="45.86142" lon="6.45285">
        <ele>2077.7</ele>
        <time>2024-04-27T07:37:07Z</time>
      </trkpt>
      <trkpt lat="45.86141" lon="6.45285">
        <ele>2077.7</ele>
        <time>2024-04-27T07:37:08Z</time>
      </trkpt>
      <trkpt lat="45.86141" lon="6.45284">
        <ele>2077.7</ele>
        <time>2024-04-27T07:37:09Z</time>
      </trkpt>
      <trkpt lat="45.8614" lon="6.45284">
        <ele>2077.7</ele>
        <time>2024-04-27T07:37:10Z</time>
      </trkpt>
      <trkpt lat="45.8614" lon="6.45283">
        <ele>2077.7</ele>
        <time>2024-04-27T07:37:11Z</time>
      </trkpt>
      <trkpt lat="45.86141" lon="6.45282">
        <ele>2077.7</ele>
        <time>2024-04-27T07:37:12Z</time>
      </trkpt>
      <trkpt lat="45.86141" lon="6.45281">
        <ele>2077.7</ele>
        <time>2024-04-27T07:37:13Z</time>
      </trkpt>
      <trkpt lat="45.86141" lon="6.45282">
        <ele>2077.7</ele>
        <time>2024-04-27T07:37:14Z</time>
      </trkpt>
      <trkpt lat="45.8614" lon="6.45281">
        <ele>2079.7</ele>
        <time>2024-04-27T07:37:15Z</time>
      </trkpt>
      <trkpt lat="45.86141" lon="6.4528">
        <ele>2079.7</ele>
        <time>2024-04-27T07:37:16Z</time>
      </trkpt>
      <trkpt lat="45.8614" lon="6.4528">
        <ele>2079.7</ele>
        <time>2024-04-27T07:37:17Z</time>
      </trkpt>
      <trkpt lat="45.8614" lon="6.45279">
        <ele>2079.7</ele>
        <time>2024-04-27T07:37:18Z</time>
      </trkpt>
      <trkpt lat="45.86139" lon="6.45278">
        <ele>2080.6</ele>
        <time>2024-04-27T07:37:19Z</time>
      </trkpt>
      <trkpt lat="45.86139" lon="6.45277">
        <ele>2080.6</ele>
        <time>2024-04-27T07:37:20Z</time>
      </trkpt>
      <trkpt lat="45.86139" lon="6.45277">
        <ele>2080.6</ele>
        <time>2024-04-27T07:37:21Z</time>
      </trkpt>
      <trkpt lat="45.86138" lon="6.45276">
        <ele>2080.6</ele>
        <time>2024-04-27T07:37:22Z</time>
      </trkpt>
      <trkpt lat="45.86138" lon="6.45276">
        <ele>2080.6</ele>
        <time>2024-04-27T07:37:23Z</time>
      </trkpt>
      <trkpt lat="45.86138" lon="6.45275">
        <ele>2080.6</ele>
        <time>2024-04-27T07:37:24Z</time>
      </trkpt>
      <trkpt lat="45.86138" lon="6.45274">
        <ele>2080.6</ele>
        <time>2024-04-27T07:37:25Z</time>
      </trkpt>
      <trkpt lat="45.86138" lon="6.45273">
        <ele>2080.6</ele>
        <time>2024-04-27T07:37:26Z</time>
      </trkpt>
      <trkpt lat="45.86138" lon="6.45272">
        <ele>2081.7</ele>
        <time>2024-04-27T07:37:27Z</time>
      </trkpt>
      <trkpt lat="45.86138" lon="6.45271">
        <ele>2081.7</ele>
        <time>2024-04-27T07:37:28Z</time>
      </trkpt>
      <trkpt lat="45.86138" lon="6.45271">
        <ele>2082.7</ele>
        <time>2024-04-27T07:37:29Z</time>
      </trkpt>
      <trkpt lat="45.86137" lon="6.4527">
        <ele>2082.7</ele>
        <time>2024-04-27T07:37:30Z</time>
      </trkpt>
      <trkpt lat="45.86137" lon="6.4527">
        <ele>2082.7</ele>
        <time>2024-04-27T07:37:31Z</time>
      </trkpt>
      <trkpt lat="45.86137" lon="6.4527">
        <ele>2082.7</ele>
        <time>2024-04-27T07:37:32Z</time>
      </trkpt>
      <trkpt lat="45.86136" lon="6.45271">
        <ele>2082.7</ele>
        <time>2024-04-27T07:37:33Z</time>
      </trkpt>
      <trkpt lat="45.86136" lon="6.45272">
        <ele>2082.7</ele>
        <time>2024-04-27T07:37:34Z</time>
      </trkpt>
      <trkpt lat="45.86136" lon="6.45273">
        <ele>2082.7</ele>
        <time>2024-04-27T07:37:35Z</time>
      </trkpt>
      <trkpt lat="45.86136" lon="6.45273">
        <ele>2082.7</ele>
        <time>2024-04-27T07:37:36Z</time>
      </trkpt>
      <trkpt lat="45.86136" lon="6.45274">
        <ele>2082.7</ele>
        <time>2024-04-27T07:37:37Z</time>
      </trkpt>
      <trkpt lat="45.86135" lon="6.45274">
        <ele>2082.7</ele>
        <time>2024-04-27T07:37:38Z</time>
      </trkpt>
      <trkpt lat="45.86135" lon="6.45275">
        <ele>2082.7</ele>
        <time>2024-04-27T07:37:39Z</time>
      </trkpt>
      <trkpt lat="45.86135" lon="6.45275">
        <ele>2082.7</ele>
        <time>2024-04-27T07:37:40Z</time>
      </trkpt>
      <trkpt lat="45.86134" lon="6.45276">
        <ele>2082.7</ele>
        <time>2024-04-27T07:37:41Z</time>
      </trkpt>
      <trkpt lat="45.86133" lon="6.45276">
        <ele>2082.7</ele>
        <time>2024-04-27T07:37:42Z</time>
      </trkpt>
      <trkpt lat="45.86133" lon="6.45277">
        <ele>2082.7</ele>
        <time>2024-04-27T07:37:43Z</time>
      </trkpt>
      <trkpt lat="45.86133" lon="6.45277">
        <ele>2082.7</ele>
        <time>2024-04-27T07:37:44Z</time>
      </trkpt>
      <trkpt lat="45.86132" lon="6.45278">
        <ele>2083.6</ele>
        <time>2024-04-27T07:37:45Z</time>
      </trkpt>
      <trkpt lat="45.86132" lon="6.45278">
        <ele>2083.6</ele>
        <time>2024-04-27T07:37:46Z</time>
      </trkpt>
      <trkpt lat="45.86132" lon="6.45279">
        <ele>2083.6</ele>
        <time>2024-04-27T07:37:47Z</time>
      </trkpt>
      <trkpt lat="45.86132" lon="6.4528">
        <ele>2083.6</ele>
        <time>2024-04-27T07:37:48Z</time>
      </trkpt>
      <trkpt lat="45.86131" lon="6.45281">
        <ele>2083.6</ele>
        <time>2024-04-27T07:37:49Z</time>
      </trkpt>
      <trkpt lat="45.86131" lon="6.45282">
        <ele>2083.6</ele>
        <time>2024-04-27T07:37:50Z</time>
      </trkpt>
      <trkpt lat="45.86131" lon="6.45283">
        <ele>2083.6</ele>
        <time>2024-04-27T07:37:51Z</time>
      </trkpt>
      <trkpt lat="45.86131" lon="6.45284">
        <ele>2083.6</ele>
        <time>2024-04-27T07:37:52Z</time>
      </trkpt>
      <trkpt lat="45.8613" lon="6.45284">
        <ele>2083.6</ele>
        <time>2024-04-27T07:37:53Z</time>
      </trkpt>
      <trkpt lat="45.86129" lon="6.45285">
        <ele>2083.6</ele>
        <time>2024-04-27T07:37:54Z</time>
      </trkpt>
      <trkpt lat="45.86129" lon="6.45285">
        <ele>2083.6</ele>
        <time>2024-04-27T07:37:55Z</time>
      </trkpt>
      <trkpt lat="45.86129" lon="6.45286">
        <ele>2083.6</ele>
        <time>2024-04-27T07:37:56Z</time>
      </trkpt>
      <trkpt lat="45.86129" lon="6.45287">
        <ele>2083.6</ele>
        <time>2024-04-27T07:37:57Z</time>
      </trkpt>
      <trkpt lat="45.86129" lon="6.45287">
        <ele>2083.6</ele>
        <time>2024-04-27T07:37:58Z</time>
      </trkpt>
      <trkpt lat="45.86129" lon="6.45288">
        <ele>2083.6</ele>
        <time>2024-04-27T07:37:59Z</time>
      </trkpt>
      <trkpt lat="45.86129" lon="6.45289">
        <ele>2083.6</ele>
        <time>2024-04-27T07:38:00Z</time>
      </trkpt>
      <trkpt lat="45.86129" lon="6.4529">
        <ele>2083.6</ele>
        <time>2024-04-27T07:38:01Z</time>
      </trkpt>
      <trkpt lat="45.86129" lon="6.4529">
        <ele>2083.6</ele>
        <time>2024-04-27T07:38:02Z</time>
      </trkpt>
      <trkpt lat="45.86129" lon="6.45291">
        <ele>2085.6</ele>
        <time>2024-04-27T07:38:03Z</time>
      </trkpt>
      <trkpt lat="45.86128" lon="6.45292">
        <ele>2085.6</ele>
        <time>2024-04-27T07:38:04Z</time>
      </trkpt>
      <trkpt lat="45.86128" lon="6.45292">
        <ele>2085.6</ele>
        <time>2024-04-27T07:38:05Z</time>
      </trkpt>
      <trkpt lat="45.86127" lon="6.45294">
        <ele>2085.6</ele>
        <time>2024-04-27T07:38:06Z</time>
      </trkpt>
      <trkpt lat="45.86127" lon="6.45295">
        <ele>2086.7</ele>
        <time>2024-04-27T07:38:07Z</time>
      </trkpt>
      <trkpt lat="45.86126" lon="6.45295">
        <ele>2086.7</ele>
        <time>2024-04-27T07:38:08Z</time>
      </trkpt>
      <trkpt lat="45.86126" lon="6.45296">
        <ele>2086.7</ele>
        <time>2024-04-27T07:38:09Z</time>
      </trkpt>
      <trkpt lat="45.86126" lon="6.45296">
        <ele>2086.7</ele>
        <time>2024-04-27T07:38:10Z</time>
      </trkpt>
      <trkpt lat="45.86126" lon="6.45297">
        <ele>2086.7</ele>
        <time>2024-04-27T07:38:11Z</time>
      </trkpt>
      <trkpt lat="45.86126" lon="6.45296">
        <ele>2086.7</ele>
        <time>2024-04-27T07:38:12Z</time>
      </trkpt>
      <trkpt lat="45.86125" lon="6.45296">
        <ele>2086.7</ele>
        <time>2024-04-27T07:38:13Z</time>
      </trkpt>
      <trkpt lat="45.86125" lon="6.45296">
        <ele>2086.7</ele>
        <time>2024-04-27T07:38:14Z</time>
      </trkpt>
      <trkpt lat="45.86124" lon="6.45296">
        <ele>2087.6</ele>
        <time>2024-04-27T07:38:15Z</time>
      </trkpt>
      <trkpt lat="45.86124" lon="6.45296">
        <ele>2087.6</ele>
        <time>2024-04-27T07:38:16Z</time>
      </trkpt>
      <trkpt lat="45.86123" lon="6.45295">
        <ele>2087.6</ele>
        <time>2024-04-27T07:38:17Z</time>
      </trkpt>
      <trkpt lat="45.86123" lon="6.45295">
        <ele>2087.6</ele>
        <time>2024-04-27T07:38:18Z</time>
      </trkpt>
      <trkpt lat="45.86123" lon="6.45294">
        <ele>2087.6</ele>
        <time>2024-04-27T07:38:19Z</time>
      </trkpt>
      <trkpt lat="45.86123" lon="6.45293">
        <ele>2087.6</ele>
        <time>2024-04-27T07:38:20Z</time>
      </trkpt>
      <trkpt lat="45.86123" lon="6.45293">
        <ele>2088.7</ele>
        <time>2024-04-27T07:38:21Z</time>
      </trkpt>
      <trkpt lat="45.86123" lon="6.45292">
        <ele>2088.7</ele>
        <time>2024-04-27T07:38:22Z</time>
      </trkpt>
      <trkpt lat="45.86123" lon="6.45292">
        <ele>2088.7</ele>
        <time>2024-04-27T07:38:23Z</time>
      </trkpt>
      <trkpt lat="45.86122" lon="6.45291">
        <ele>2088.7</ele>
        <time>2024-04-27T07:38:24Z</time>
      </trkpt>
      <trkpt lat="45.86122" lon="6.4529">
        <ele>2088.7</ele>
        <time>2024-04-27T07:38:25Z</time>
      </trkpt>
      <trkpt lat="45.86122" lon="6.45289">
        <ele>2088.7</ele>
        <time>2024-04-27T07:38:26Z</time>
      </trkpt>
      <trkpt lat="45.86122" lon="6.45288">
        <ele>2089.6</ele>
        <time>2024-04-27T07:38:27Z</time>
      </trkpt>
      <trkpt lat="45.86122" lon="6.45286">
        <ele>2089.6</ele>
        <time>2024-04-27T07:38:28Z</time>
      </trkpt>
      <trkpt lat="45.86122" lon="6.45285">
        <ele>2089.6</ele>
        <time>2024-04-27T07:38:29Z</time>
      </trkpt>
      <trkpt lat="45.86122" lon="6.45285">
        <ele>2089.6</ele>
        <time>2024-04-27T07:38:30Z</time>
      </trkpt>
      <trkpt lat="45.86123" lon="6.45284">
        <ele>2090.6</ele>
        <time>2024-04-27T07:38:31Z</time>
      </trkpt>
      <trkpt lat="45.86123" lon="6.45283">
        <ele>2090.6</ele>
        <time>2024-04-27T07:38:32Z</time>
      </trkpt>
      <trkpt lat="45.86124" lon="6.45282">
        <ele>2091.7</ele>
        <time>2024-04-27T07:38:33Z</time>
      </trkpt>
      <trkpt lat="45.86124" lon="6.45281">
        <ele>2091.7</ele>
        <time>2024-04-27T07:38:34Z</time>
      </trkpt>
      <trkpt lat="45.86124" lon="6.4528">
        <ele>2092.6</ele>
        <time>2024-04-27T07:38:35Z</time>
      </trkpt>
      <trkpt lat="45.86124" lon="6.45279">
        <ele>2092.6</ele>
        <time>2024-04-27T07:38:36Z</time>
      </trkpt>
      <trkpt lat="45.86123" lon="6.45278">
        <ele>2092.6</ele>
        <time>2024-04-27T07:38:37Z</time>
      </trkpt>
      <trkpt lat="45.86123" lon="6.45278">
        <ele>2092.6</ele>
        <time>2024-04-27T07:38:38Z</time>
      </trkpt>
      <trkpt lat="45.86122" lon="6.45277">
        <ele>2092.6</ele>
        <time>2024-04-27T07:38:39Z</time>
      </trkpt>
      <trkpt lat="45.86122" lon="6.45276">
        <ele>2092.6</ele>
        <time>2024-04-27T07:38:40Z</time>
      </trkpt>
      <trkpt lat="45.86122" lon="6.45275">
        <ele>2093.7</ele>
        <time>2024-04-27T07:38:41Z</time>
      </trkpt>
      <trkpt lat="45.86123" lon="6.45274">
        <ele>2093.7</ele>
        <time>2024-04-27T07:38:42Z</time>
      </trkpt>
      <trkpt lat="45.86123" lon="6.45273">
        <ele>2093.7</ele>
        <time>2024-04-27T07:38:43Z</time>
      </trkpt>
      <trkpt lat="45.86123" lon="6.45272">
        <ele>2093.7</ele>
        <time>2024-04-27T07:38:44Z</time>
      </trkpt>
      <trkpt lat="45.86124" lon="6.45271">
        <ele>2093.7</ele>
        <time>2024-04-27T07:38:45Z</time>
      </trkpt>
      <trkpt lat="45.86124" lon="6.4527">
        <ele>2093.7</ele>
        <time>2024-04-27T07:38:46Z</time>
      </trkpt>
      <trkpt lat="45.86125" lon="6.4527">
        <ele>2093.7</ele>
        <time>2024-04-27T07:38:47Z</time>
      </trkpt>
      <trkpt lat="45.86125" lon="6.4527">
        <ele>2093.7</ele>
        <time>2024-04-27T07:38:48Z</time>
      </trkpt>
      <trkpt lat="45.86124" lon="6.45271">
        <ele>2093.7</ele>
        <time>2024-04-27T07:38:49Z</time>
      </trkpt>
      <trkpt lat="45.86124" lon="6.45271">
        <ele>2093.7</ele>
        <time>2024-04-27T07:38:50Z</time>
      </trkpt>
      <trkpt lat="45.86125" lon="6.45272">
        <ele>2093.7</ele>
        <time>2024-04-27T07:38:51Z</time>
      </trkpt>
      <trkpt lat="45.86124" lon="6.45272">
        <ele>2093.7</ele>
        <time>2024-04-27T07:38:52Z</time>
      </trkpt>
      <trkpt lat="45.86124" lon="6.45272">
        <ele>2093.7</ele>
        <time>2024-04-27T07:38:53Z</time>
      </trkpt>
      <trkpt lat="45.86124" lon="6.45273">
        <ele>2093.7</ele>
        <time>2024-04-27T07:38:54Z</time>
      </trkpt>
      <trkpt lat="45.86124" lon="6.45274">
        <ele>2093.7</ele>
        <time>2024-04-27T07:38:55Z</time>
      </trkpt>
      <trkpt lat="45.86124" lon="6.45274">
        <ele>2093.7</ele>
        <time>2024-04-27T07:38:56Z</time>
      </trkpt>
      <trkpt lat="45.86124" lon="6.45274">
        <ele>2094.6</ele>
        <time>2024-04-27T07:38:57Z</time>
      </trkpt>
      <trkpt lat="45.86124" lon="6.45274">
        <ele>2094.6</ele>
        <time>2024-04-27T07:38:58Z</time>
      </trkpt>
      <trkpt lat="45.86124" lon="6.45274">
        <ele>2094.6</ele>
        <time>2024-04-27T07:38:59Z</time>
      </trkpt>
      <trkpt lat="45.86124" lon="6.45274">
        <ele>2094.6</ele>
        <time>2024-04-27T07:39:00Z</time>
      </trkpt>
      <trkpt lat="45.86124" lon="6.45274">
        <ele>2094.6</ele>
        <time>2024-04-27T07:39:01Z</time>
      </trkpt>
      <trkpt lat="45.86124" lon="6.45274">
        <ele>2094.6</ele>
        <time>2024-04-27T07:39:02Z</time>
      </trkpt>
      <trkpt lat="45.86124" lon="6.45274">
        <ele>2094.6</ele>
        <time>2024-04-27T07:39:03Z</time>
      </trkpt>
      <trkpt lat="45.86124" lon="6.45274">
        <ele>2094.6</ele>
        <time>2024-04-27T07:39:04Z</time>
      </trkpt>
      <trkpt lat="45.86124" lon="6.45274">
        <ele>2094.6</ele>
        <time>2024-04-27T07:39:05Z</time>
      </trkpt>
      <trkpt lat="45.86124" lon="6.45274">
        <ele>2094.6</ele>
        <time>2024-04-27T07:39:06Z</time>
      </trkpt>
      <trkpt lat="45.86124" lon="6.45274">
        <ele>2095.7</ele>
        <time>2024-04-27T07:39:07Z</time>
      </trkpt>
      <trkpt lat="45.86124" lon="6.45274">
        <ele>2095.7</ele>
        <time>2024-04-27T07:39:08Z</time>
      </trkpt>
      <trkpt lat="45.86124" lon="6.45274">
        <ele>2095.7</ele>
        <time>2024-04-27T07:39:09Z</time>
      </trkpt>
      <trkpt lat="45.86123" lon="6.45275">
        <ele>2095.7</ele>
        <time>2024-04-27T07:39:10Z</time>
      </trkpt>
      <trkpt lat="45.86121" lon="6.45276">
        <ele>2096.6</ele>
        <time>2024-04-27T07:39:11Z</time>
      </trkpt>
      <trkpt lat="45.8612" lon="6.45277">
        <ele>2096.6</ele>
        <time>2024-04-27T07:39:12Z</time>
      </trkpt>
      <trkpt lat="45.8612" lon="6.45278">
        <ele>2096.6</ele>
        <time>2024-04-27T07:39:13Z</time>
      </trkpt>
      <trkpt lat="45.86119" lon="6.45278">
        <ele>2096.6</ele>
        <time>2024-04-27T07:39:14Z</time>
      </trkpt>
      <trkpt lat="45.86118" lon="6.45279">
        <ele>2096.6</ele>
        <time>2024-04-27T07:39:15Z</time>
      </trkpt>
      <trkpt lat="45.86117" lon="6.45279">
        <ele>2096.6</ele>
        <time>2024-04-27T07:39:16Z</time>
      </trkpt>
      <trkpt lat="45.86116" lon="6.45279">
        <ele>2097.7</ele>
        <time>2024-04-27T07:39:17Z</time>
      </trkpt>
      <trkpt lat="45.86116" lon="6.45278">
        <ele>2097.7</ele>
        <time>2024-04-27T07:39:18Z</time>
      </trkpt>
      <trkpt lat="45.86116" lon="6.45277">
        <ele>2098.6</ele>
        <time>2024-04-27T07:39:19Z</time>
      </trkpt>
      <trkpt lat="45.86116" lon="6.45277">
        <ele>2098.6</ele>
        <time>2024-04-27T07:39:20Z</time>
      </trkpt>
      <trkpt lat="45.86116" lon="6.45276">
        <ele>2098.6</ele>
        <time>2024-04-27T07:39:21Z</time>
      </trkpt>
      <trkpt lat="45.86115" lon="6.45274">
        <ele>2098.6</ele>
        <time>2024-04-27T07:39:22Z</time>
      </trkpt>
      <trkpt lat="45.86117" lon="6.45273">
        <ele>2098.6</ele>
        <time>2024-04-27T07:39:23Z</time>
      </trkpt>
      <trkpt lat="45.86117" lon="6.45272">
        <ele>2098.6</ele>
        <time>2024-04-27T07:39:24Z</time>
      </trkpt>
      <trkpt lat="45.86117" lon="6.45271">
        <ele>2098.6</ele>
        <time>2024-04-27T07:39:25Z</time>
      </trkpt>
      <trkpt lat="45.86117" lon="6.4527">
        <ele>2098.6</ele>
        <time>2024-04-27T07:39:26Z</time>
      </trkpt>
      <trkpt lat="45.86117" lon="6.45269">
        <ele>2099.6</ele>
        <time>2024-04-27T07:39:27Z</time>
      </trkpt>
      <trkpt lat="45.86117" lon="6.45268">
        <ele>2099.6</ele>
        <time>2024-04-27T07:39:28Z</time>
      </trkpt>
      <trkpt lat="45.86116" lon="6.45267">
        <ele>2099.6</ele>
        <time>2024-04-27T07:39:29Z</time>
      </trkpt>
      <trkpt lat="45.86116" lon="6.45266">
        <ele>2099.6</ele>
        <time>2024-04-27T07:39:30Z</time>
      </trkpt>
      <trkpt lat="45.86115" lon="6.45265">
        <ele>2099.6</ele>
        <time>2024-04-27T07:39:31Z</time>
      </trkpt>
      <trkpt lat="45.86115" lon="6.45265">
        <ele>2099.6</ele>
        <time>2024-04-27T07:39:32Z</time>
      </trkpt>
      <trkpt lat="45.86115" lon="6.45263">
        <ele>2100.7</ele>
        <time>2024-04-27T07:39:33Z</time>
      </trkpt>
      <trkpt lat="45.86115" lon="6.45263">
        <ele>2100.7</ele>
        <time>2024-04-27T07:39:34Z</time>
      </trkpt>
      <trkpt lat="45.86115" lon="6.45263">
        <ele>2100.7</ele>
        <time>2024-04-27T07:39:35Z</time>
      </trkpt>
      <trkpt lat="45.86115" lon="6.45262">
        <ele>2100.7</ele>
        <time>2024-04-27T07:39:36Z</time>
      </trkpt>
      <trkpt lat="45.86115" lon="6.45261">
        <ele>2100.7</ele>
        <time>2024-04-27T07:39:37Z</time>
      </trkpt>
      <trkpt lat="45.86115" lon="6.4526">
        <ele>2100.7</ele>
        <time>2024-04-27T07:39:38Z</time>
      </trkpt>
      <trkpt lat="45.86115" lon="6.45259">
        <ele>2101.6</ele>
        <time>2024-04-27T07:39:39Z</time>
      </trkpt>
      <trkpt lat="45.86115" lon="6.45259">
        <ele>2101.6</ele>
        <time>2024-04-27T07:39:40Z</time>
      </trkpt>
      <trkpt lat="45.86116" lon="6.45258">
        <ele>2101.6</ele>
        <time>2024-04-27T07:39:41Z</time>
      </trkpt>
      <trkpt lat="45.86116" lon="6.45257">
        <ele>2101.6</ele>
        <time>2024-04-27T07:39:42Z</time>
      </trkpt>
      <trkpt lat="45.86116" lon="6.45256">
        <ele>2102.7</ele>
        <time>2024-04-27T07:39:43Z</time>
      </trkpt>
      <trkpt lat="45.86116" lon="6.45256">
        <ele>2102.7</ele>
        <time>2024-04-27T07:39:44Z</time>
      </trkpt>
      <trkpt lat="45.86116" lon="6.45255">
        <ele>2102.7</ele>
        <time>2024-04-27T07:39:45Z</time>
      </trkpt>
      <trkpt lat="45.86116" lon="6.45254">
        <ele>2102.7</ele>
        <time>2024-04-27T07:39:46Z</time>
      </trkpt>
      <trkpt lat="45.86117" lon="6.45254">
        <ele>2102.7</ele>
        <time>2024-04-27T07:39:47Z</time>
      </trkpt>
      <trkpt lat="45.86117" lon="6.45254">
        <ele>2102.7</ele>
        <time>2024-04-27T07:39:48Z</time>
      </trkpt>
      <trkpt lat="45.86117" lon="6.45255">
        <ele>2102.7</ele>
        <time>2024-04-27T07:39:49Z</time>
      </trkpt>
      <trkpt lat="45.86116" lon="6.45255">
        <ele>2102.7</ele>
        <time>2024-04-27T07:39:50Z</time>
      </trkpt>
      <trkpt lat="45.86116" lon="6.45256">
        <ele>2102.7</ele>
        <time>2024-04-27T07:39:51Z</time>
      </trkpt>
      <trkpt lat="45.86116" lon="6.45256">
        <ele>2102.7</ele>
        <time>2024-04-27T07:39:52Z</time>
      </trkpt>
      <trkpt lat="45.86116" lon="6.45256">
        <ele>2102.7</ele>
        <time>2024-04-27T07:39:53Z</time>
      </trkpt>
      <trkpt lat="45.86115" lon="6.45257">
        <ele>2102.7</ele>
        <time>2024-04-27T07:39:54Z</time>
      </trkpt>
      <trkpt lat="45.86115" lon="6.45257">
        <ele>2102.7</ele>
        <time>2024-04-27T07:39:55Z</time>
      </trkpt>
      <trkpt lat="45.86115" lon="6.45258">
        <ele>2102.7</ele>
        <time>2024-04-27T07:39:56Z</time>
      </trkpt>
      <trkpt lat="45.86114" lon="6.45258">
        <ele>2102.7</ele>
        <time>2024-04-27T07:39:57Z</time>
      </trkpt>
      <trkpt lat="45.86113" lon="6.45259">
        <ele>2102.7</ele>
        <time>2024-04-27T07:39:58Z</time>
      </trkpt>
      <trkpt lat="45.86113" lon="6.4526">
        <ele>2102.7</ele>
        <time>2024-04-27T07:39:59Z</time>
      </trkpt>
      <trkpt lat="45.86113" lon="6.45261">
        <ele>2102.7</ele>
        <time>2024-04-27T07:40:00Z</time>
      </trkpt>
      <trkpt lat="45.86113" lon="6.45262">
        <ele>2103.6</ele>
        <time>2024-04-27T07:40:01Z</time>
      </trkpt>
      <trkpt lat="45.86113" lon="6.45262">
        <ele>2103.6</ele>
        <time>2024-04-27T07:40:02Z</time>
      </trkpt>
      <trkpt lat="45.86114" lon="6.45263">
        <ele>2103.6</ele>
        <time>2024-04-27T07:40:03Z</time>
      </trkpt>
      <trkpt lat="45.86114" lon="6.45263">
        <ele>2103.6</ele>
        <time>2024-04-27T07:40:04Z</time>
      </trkpt>
      <trkpt lat="45.86113" lon="6.45263">
        <ele>2103.6</ele>
        <time>2024-04-27T07:40:05Z</time>
      </trkpt>
      <trkpt lat="45.86113" lon="6.45264">
        <ele>2103.6</ele>
        <time>2024-04-27T07:40:06Z</time>
      </trkpt>
      <trkpt lat="45.86112" lon="6.45265">
        <ele>2103.6</ele>
        <time>2024-04-27T07:40:07Z</time>
      </trkpt>
      <trkpt lat="45.86112" lon="6.45266">
        <ele>2103.6</ele>
        <time>2024-04-27T07:40:08Z</time>
      </trkpt>
      <trkpt lat="45.86111" lon="6.45267">
        <ele>2103.6</ele>
        <time>2024-04-27T07:40:09Z</time>
      </trkpt>
      <trkpt lat="45.8611" lon="6.45267">
        <ele>2103.6</ele>
        <time>2024-04-27T07:40:10Z</time>
      </trkpt>
      <trkpt lat="45.8611" lon="6.45268">
        <ele>2104.7</ele>
        <time>2024-04-27T07:40:11Z</time>
      </trkpt>
      <trkpt lat="45.8611" lon="6.45268">
        <ele>2104.7</ele>
        <time>2024-04-27T07:40:12Z</time>
      </trkpt>
      <trkpt lat="45.86109" lon="6.45269">
        <ele>2105.6</ele>
        <time>2024-04-27T07:40:13Z</time>
      </trkpt>
      <trkpt lat="45.86109" lon="6.45269">
        <ele>2105.6</ele>
        <time>2024-04-27T07:40:14Z</time>
      </trkpt>
      <trkpt lat="45.86109" lon="6.45269">
        <ele>2105.6</ele>
        <time>2024-04-27T07:40:15Z</time>
      </trkpt>
      <trkpt lat="45.86109" lon="6.45269">
        <ele>2105.6</ele>
        <time>2024-04-27T07:40:16Z</time>
      </trkpt>
      <trkpt lat="45.86108" lon="6.45269">
        <ele>2105.6</ele>
        <time>2024-04-27T07:40:17Z</time>
      </trkpt>
      <trkpt lat="45.86108" lon="6.45269">
        <ele>2105.6</ele>
        <time>2024-04-27T07:40:18Z</time>
      </trkpt>
      <trkpt lat="45.86107" lon="6.45268">
        <ele>2105.6</ele>
        <time>2024-04-27T07:40:19Z</time>
      </trkpt>
      <trkpt lat="45.86107" lon="6.45268">
        <ele>2105.6</ele>
        <time>2024-04-27T07:40:20Z</time>
      </trkpt>
      <trkpt lat="45.86107" lon="6.45267">
        <ele>2105.6</ele>
        <time>2024-04-27T07:40:21Z</time>
      </trkpt>
      <trkpt lat="45.86107" lon="6.45267">
        <ele>2105.6</ele>
        <time>2024-04-27T07:40:22Z</time>
      </trkpt>
      <trkpt lat="45.86107" lon="6.45266">
        <ele>2105.6</ele>
        <time>2024-04-27T07:40:23Z</time>
      </trkpt>
      <trkpt lat="45.86106" lon="6.45266">
        <ele>2105.6</ele>
        <time>2024-04-27T07:40:24Z</time>
      </trkpt>
      <trkpt lat="45.86106" lon="6.45265">
        <ele>2107.7</ele>
        <time>2024-04-27T07:40:25Z</time>
      </trkpt>
      <trkpt lat="45.86106" lon="6.45264">
        <ele>2107.7</ele>
        <time>2024-04-27T07:40:26Z</time>
      </trkpt>
      <trkpt lat="45.86106" lon="6.45264">
        <ele>2108.6</ele>
        <time>2024-04-27T07:40:27Z</time>
      </trkpt>
      <trkpt lat="45.86105" lon="6.45263">
        <ele>2108.6</ele>
        <time>2024-04-27T07:40:28Z</time>
      </trkpt>
      <trkpt lat="45.86105" lon="6.45262">
        <ele>2108.6</ele>
        <time>2024-04-27T07:40:29Z</time>
      </trkpt>
      <trkpt lat="45.86105" lon="6.45261">
        <ele>2108.6</ele>
        <time>2024-04-27T07:40:30Z</time>
      </trkpt>
      <trkpt lat="45.86105" lon="6.45261">
        <ele>2109.7</ele>
        <time>2024-04-27T07:40:31Z</time>
      </trkpt>
      <trkpt lat="45.86105" lon="6.4526">
        <ele>2109.7</ele>
        <time>2024-04-27T07:40:32Z</time>
      </trkpt>
      <trkpt lat="45.86105" lon="6.4526">
        <ele>2109.7</ele>
        <time>2024-04-27T07:40:33Z</time>
      </trkpt>
      <trkpt lat="45.86104" lon="6.4526">
        <ele>2109.7</ele>
        <time>2024-04-27T07:40:34Z</time>
      </trkpt>
      <trkpt lat="45.86104" lon="6.4526">
        <ele>2110.6</ele>
        <time>2024-04-27T07:40:35Z</time>
      </trkpt>
      <trkpt lat="45.86104" lon="6.45259">
        <ele>2110.6</ele>
        <time>2024-04-27T07:40:36Z</time>
      </trkpt>
      <trkpt lat="45.86103" lon="6.45258">
        <ele>2110.6</ele>
        <time>2024-04-27T07:40:37Z</time>
      </trkpt>
      <trkpt lat="45.86103" lon="6.45257">
        <ele>2110.6</ele>
        <time>2024-04-27T07:40:38Z</time>
      </trkpt>
      <trkpt lat="45.86103" lon="6.45257">
        <ele>2110.6</ele>
        <time>2024-04-27T07:40:39Z</time>
      </trkpt>
      <trkpt lat="45.86103" lon="6.45256">
        <ele>2110.6</ele>
        <time>2024-04-27T07:40:40Z</time>
      </trkpt>
      <trkpt lat="45.86104" lon="6.45255">
        <ele>2111.7</ele>
        <time>2024-04-27T07:40:41Z</time>
      </trkpt>
      <trkpt lat="45.86103" lon="6.45254">
        <ele>2111.7</ele>
        <time>2024-04-27T07:40:42Z</time>
      </trkpt>
      <trkpt lat="45.86103" lon="6.45253">
        <ele>2111.7</ele>
        <time>2024-04-27T07:40:43Z</time>
      </trkpt>
      <trkpt lat="45.86103" lon="6.45251">
        <ele>2111.7</ele>
        <time>2024-04-27T07:40:44Z</time>
      </trkpt>
      <trkpt lat="45.86103" lon="6.4525">
        <ele>2112.6</ele>
        <time>2024-04-27T07:40:45Z</time>
      </trkpt>
      <trkpt lat="45.86103" lon="6.4525">
        <ele>2112.6</ele>
        <time>2024-04-27T07:40:46Z</time>
      </trkpt>
      <trkpt lat="45.86103" lon="6.45251">
        <ele>2112.6</ele>
        <time>2024-04-27T07:40:47Z</time>
      </trkpt>
      <trkpt lat="45.86103" lon="6.45251">
        <ele>2112.6</ele>
        <time>2024-04-27T07:40:48Z</time>
      </trkpt>
      <trkpt lat="45.86103" lon="6.4525">
        <ele>2112.6</ele>
        <time>2024-04-27T07:40:49Z</time>
      </trkpt>
      <trkpt lat="45.86103" lon="6.4525">
        <ele>2112.6</ele>
        <time>2024-04-27T07:40:50Z</time>
      </trkpt>
      <trkpt lat="45.86103" lon="6.4525">
        <ele>2112.6</ele>
        <time>2024-04-27T07:40:51Z</time>
      </trkpt>
      <trkpt lat="45.86103" lon="6.4525">
        <ele>2112.6</ele>
        <time>2024-04-27T07:40:52Z</time>
      </trkpt>
      <trkpt lat="45.86103" lon="6.45251">
        <ele>2112.6</ele>
        <time>2024-04-27T07:40:53Z</time>
      </trkpt>
      <trkpt lat="45.86103" lon="6.45251">
        <ele>2112.6</ele>
        <time>2024-04-27T07:40:54Z</time>
      </trkpt>
      <trkpt lat="45.86102" lon="6.45251">
        <ele>2112.6</ele>
        <time>2024-04-27T07:40:55Z</time>
      </trkpt>
      <trkpt lat="45.86103" lon="6.45252">
        <ele>2112.6</ele>
        <time>2024-04-27T07:40:56Z</time>
      </trkpt>
      <trkpt lat="45.86102" lon="6.45252">
        <ele>2112.6</ele>
        <time>2024-04-27T07:40:57Z</time>
      </trkpt>
      <trkpt lat="45.86102" lon="6.45253">
        <ele>2112.6</ele>
        <time>2024-04-27T07:40:58Z</time>
      </trkpt>
      <trkpt lat="45.86102" lon="6.45253">
        <ele>2113.7</ele>
        <time>2024-04-27T07:40:59Z</time>
      </trkpt>
      <trkpt lat="45.86102" lon="6.45254">
        <ele>2113.7</ele>
        <time>2024-04-27T07:41:00Z</time>
      </trkpt>
      <trkpt lat="45.86102" lon="6.45254">
        <ele>2113.7</ele>
        <time>2024-04-27T07:41:01Z</time>
      </trkpt>
      <trkpt lat="45.86102" lon="6.45255">
        <ele>2113.7</ele>
        <time>2024-04-27T07:41:02Z</time>
      </trkpt>
      <trkpt lat="45.86102" lon="6.45256">
        <ele>2113.7</ele>
        <time>2024-04-27T07:41:03Z</time>
      </trkpt>
      <trkpt lat="45.86102" lon="6.45256">
        <ele>2113.7</ele>
        <time>2024-04-27T07:41:04Z</time>
      </trkpt>
      <trkpt lat="45.86101" lon="6.45257">
        <ele>2113.7</ele>
        <time>2024-04-27T07:41:05Z</time>
      </trkpt>
      <trkpt lat="45.86101" lon="6.45258">
        <ele>2113.7</ele>
        <time>2024-04-27T07:41:06Z</time>
      </trkpt>
      <trkpt lat="45.861" lon="6.45259">
        <ele>2114.6</ele>
        <time>2024-04-27T07:41:07Z</time>
      </trkpt>
      <trkpt lat="45.861" lon="6.45259">
        <ele>2114.6</ele>
        <time>2024-04-27T07:41:08Z</time>
      </trkpt>
      <trkpt lat="45.86099" lon="6.45259">
        <ele>2114.6</ele>
        <time>2024-04-27T07:41:09Z</time>
      </trkpt>
      <trkpt lat="45.86099" lon="6.45259">
        <ele>2114.6</ele>
        <time>2024-04-27T07:41:10Z</time>
      </trkpt>
      <trkpt lat="45.86099" lon="6.45259">
        <ele>2114.6</ele>
        <time>2024-04-27T07:41:11Z</time>
      </trkpt>
      <trkpt lat="45.86099" lon="6.4526">
        <ele>2114.6</ele>
        <time>2024-04-27T07:41:12Z</time>
      </trkpt>
      <trkpt lat="45.86098" lon="6.45261">
        <ele>2115.6</ele>
        <time>2024-04-27T07:41:13Z</time>
      </trkpt>
      <trkpt lat="45.86098" lon="6.45261">
        <ele>2115.6</ele>
        <time>2024-04-27T07:41:14Z</time>
      </trkpt>
      <trkpt lat="45.86097" lon="6.45262">
        <ele>2115.6</ele>
        <time>2024-04-27T07:41:15Z</time>
      </trkpt>
      <trkpt lat="45.86098" lon="6.45262">
        <ele>2115.6</ele>
        <time>2024-04-27T07:41:16Z</time>
      </trkpt>
      <trkpt lat="45.86098" lon="6.45264">
        <ele>2116.7</ele>
        <time>2024-04-27T07:41:17Z</time>
      </trkpt>
      <trkpt lat="45.86097" lon="6.45264">
        <ele>2116.7</ele>
        <time>2024-04-27T07:41:18Z</time>
      </trkpt>
      <trkpt lat="45.86097" lon="6.45266">
        <ele>2116.7</ele>
        <time>2024-04-27T07:41:19Z</time>
      </trkpt>
      <trkpt lat="45.86097" lon="6.45267">
        <ele>2116.7</ele>
        <time>2024-04-27T07:41:20Z</time>
      </trkpt>
      <trkpt lat="45.86096" lon="6.45267">
        <ele>2117.6</ele>
        <time>2024-04-27T07:41:21Z</time>
      </trkpt>
      <trkpt lat="45.86096" lon="6.45268">
        <ele>2117.6</ele>
        <time>2024-04-27T07:41:22Z</time>
      </trkpt>
      <trkpt lat="45.86096" lon="6.45268">
        <ele>2117.6</ele>
        <time>2024-04-27T07:41:23Z</time>
      </trkpt>
      <trkpt lat="45.86096" lon="6.45269">
        <ele>2117.6</ele>
        <time>2024-04-27T07:41:24Z</time>
      </trkpt>
      <trkpt lat="45.86096" lon="6.45269">
        <ele>2117.6</ele>
        <time>2024-04-27T07:41:25Z</time>
      </trkpt>
      <trkpt lat="45.86095" lon="6.4527">
        <ele>2117.6</ele>
        <time>2024-04-27T07:41:26Z</time>
      </trkpt>
      <trkpt lat="45.86095" lon="6.45271">
        <ele>2117.6</ele>
        <time>2024-04-27T07:41:27Z</time>
      </trkpt>
      <trkpt lat="45.86094" lon="6.45271">
        <ele>2117.6</ele>
        <time>2024-04-27T07:41:28Z</time>
      </trkpt>
      <trkpt lat="45.86093" lon="6.45271">
        <ele>2118.7</ele>
        <time>2024-04-27T07:41:29Z</time>
      </trkpt>
      <trkpt lat="45.86093" lon="6.45272">
        <ele>2118.7</ele>
        <time>2024-04-27T07:41:30Z</time>
      </trkpt>
      <trkpt lat="45.86092" lon="6.45272">
        <ele>2118.7</ele>
        <time>2024-04-27T07:41:31Z</time>
      </trkpt>
      <trkpt lat="45.86092" lon="6.45272">
        <ele>2118.7</ele>
        <time>2024-04-27T07:41:32Z</time>
      </trkpt>
      <trkpt lat="45.86092" lon="6.45272">
        <ele>2119.6</ele>
        <time>2024-04-27T07:41:33Z</time>
      </trkpt>
      <trkpt lat="45.86092" lon="6.45271">
        <ele>2119.6</ele>
        <time>2024-04-27T07:41:34Z</time>
      </trkpt>
      <trkpt lat="45.86092" lon="6.45271">
        <ele>2119.6</ele>
        <time>2024-04-27T07:41:35Z</time>
      </trkpt>
      <trkpt lat="45.86092" lon="6.4527">
        <ele>2119.6</ele>
        <time>2024-04-27T07:41:36Z</time>
      </trkpt>
      <trkpt lat="45.86092" lon="6.4527">
        <ele>2119.6</ele>
        <time>2024-04-27T07:41:37Z</time>
      </trkpt>
      <trkpt lat="45.86091" lon="6.45269">
        <ele>2119.6</ele>
        <time>2024-04-27T07:41:38Z</time>
      </trkpt>
      <trkpt lat="45.86091" lon="6.45269">
        <ele>2119.6</ele>
        <time>2024-04-27T07:41:39Z</time>
      </trkpt>
      <trkpt lat="45.86091" lon="6.45268">
        <ele>2119.6</ele>
        <time>2024-04-27T07:41:40Z</time>
      </trkpt>
      <trkpt lat="45.86091" lon="6.45267">
        <ele>2120.7</ele>
        <time>2024-04-27T07:41:41Z</time>
      </trkpt>
      <trkpt lat="45.8609" lon="6.45267">
        <ele>2120.7</ele>
        <time>2024-04-27T07:41:42Z</time>
      </trkpt>
      <trkpt lat="45.8609" lon="6.45266">
        <ele>2120.7</ele>
        <time>2024-04-27T07:41:43Z</time>
      </trkpt>
      <trkpt lat="45.8609" lon="6.45265">
        <ele>2120.7</ele>
        <time>2024-04-27T07:41:44Z</time>
      </trkpt>
      <trkpt lat="45.8609" lon="6.45264">
        <ele>2120.7</ele>
        <time>2024-04-27T07:41:45Z</time>
      </trkpt>
      <trkpt lat="45.8609" lon="6.45263">
        <ele>2120.7</ele>
        <time>2024-04-27T07:41:46Z</time>
      </trkpt>
      <trkpt lat="45.8609" lon="6.45262">
        <ele>2121.6</ele>
        <time>2024-04-27T07:41:47Z</time>
      </trkpt>
      <trkpt lat="45.8609" lon="6.45261">
        <ele>2121.6</ele>
        <time>2024-04-27T07:41:48Z</time>
      </trkpt>
      <trkpt lat="45.86089" lon="6.4526">
        <ele>2121.6</ele>
        <time>2024-04-27T07:41:49Z</time>
      </trkpt>
      <trkpt lat="45.86089" lon="6.4526">
        <ele>2121.6</ele>
        <time>2024-04-27T07:41:50Z</time>
      </trkpt>
      <trkpt lat="45.86088" lon="6.4526">
        <ele>2122.7</ele>
        <time>2024-04-27T07:41:51Z</time>
      </trkpt>
      <trkpt lat="45.86087" lon="6.4526">
        <ele>2122.7</ele>
        <time>2024-04-27T07:41:52Z</time>
      </trkpt>
      <trkpt lat="45.86086" lon="6.4526">
        <ele>2122.7</ele>
        <time>2024-04-27T07:41:53Z</time>
      </trkpt>
      <trkpt lat="45.86086" lon="6.45259">
        <ele>2122.7</ele>
        <time>2024-04-27T07:41:54Z</time>
      </trkpt>
      <trkpt lat="45.86086" lon="6.45258">
        <ele>2122.7</ele>
        <time>2024-04-27T07:41:55Z</time>
      </trkpt>
      <trkpt lat="45.86086" lon="6.45257">
        <ele>2122.7</ele>
        <time>2024-04-27T07:41:56Z</time>
      </trkpt>
      <trkpt lat="45.86085" lon="6.45257">
        <ele>2123.7</ele>
        <time>2024-04-27T07:41:57Z</time>
      </trkpt>
      <trkpt lat="45.86085" lon="6.45256">
        <ele>2123.7</ele>
        <time>2024-04-27T07:41:58Z</time>
      </trkpt>
      <trkpt lat="45.86086" lon="6.45256">
        <ele>2123.7</ele>
        <time>2024-04-27T07:41:59Z</time>
      </trkpt>
      <trkpt lat="45.86086" lon="6.45255">
        <ele>2123.7</ele>
        <time>2024-04-27T07:42:00Z</time>
      </trkpt>
      <trkpt lat="45.86086" lon="6.45256">
        <ele>2123.7</ele>
        <time>2024-04-27T07:42:01Z</time>
      </trkpt>
      <trkpt lat="45.86085" lon="6.45255">
        <ele>2123.7</ele>
        <time>2024-04-27T07:42:02Z</time>
      </trkpt>
      <trkpt lat="45.86085" lon="6.45254">
        <ele>2124.6</ele>
        <time>2024-04-27T07:42:03Z</time>
      </trkpt>
      <trkpt lat="45.86084" lon="6.45255">
        <ele>2124.6</ele>
        <time>2024-04-27T07:42:04Z</time>
      </trkpt>
      <trkpt lat="45.86084" lon="6.45255">
        <ele>2124.6</ele>
        <time>2024-04-27T07:42:05Z</time>
      </trkpt>
      <trkpt lat="45.86085" lon="6.45256">
        <ele>2124.6</ele>
        <time>2024-04-27T07:42:06Z</time>
      </trkpt>
      <trkpt lat="45.86085" lon="6.45256">
        <ele>2124.6</ele>
        <time>2024-04-27T07:42:07Z</time>
      </trkpt>
      <trkpt lat="45.86085" lon="6.45257">
        <ele>2124.6</ele>
        <time>2024-04-27T07:42:08Z</time>
      </trkpt>
      <trkpt lat="45.86084" lon="6.45258">
        <ele>2124.6</ele>
        <time>2024-04-27T07:42:09Z</time>
      </trkpt>
      <trkpt lat="45.86084" lon="6.45258">
        <ele>2124.6</ele>
        <time>2024-04-27T07:42:10Z</time>
      </trkpt>
      <trkpt lat="45.86084" lon="6.45258">
        <ele>2124.6</ele>
        <time>2024-04-27T07:42:11Z</time>
      </trkpt>
      <trkpt lat="45.86084" lon="6.45259">
        <ele>2124.6</ele>
        <time>2024-04-27T07:42:12Z</time>
      </trkpt>
      <trkpt lat="45.86084" lon="6.4526">
        <ele>2124.6</ele>
        <time>2024-04-27T07:42:13Z</time>
      </trkpt>
      <trkpt lat="45.86084" lon="6.4526">
        <ele>2124.6</ele>
        <time>2024-04-27T07:42:14Z</time>
      </trkpt>
      <trkpt lat="45.86083" lon="6.4526">
        <ele>2124.6</ele>
        <time>2024-04-27T07:42:15Z</time>
      </trkpt>
      <trkpt lat="45.86083" lon="6.4526">
        <ele>2124.6</ele>
        <time>2024-04-27T07:42:16Z</time>
      </trkpt>
      <trkpt lat="45.86083" lon="6.4526">
        <ele>2124.6</ele>
        <time>2024-04-27T07:42:17Z</time>
      </trkpt>
      <trkpt lat="45.86082" lon="6.45259">
        <ele>2124.6</ele>
        <time>2024-04-27T07:42:18Z</time>
      </trkpt>
      <trkpt lat="45.86082" lon="6.4526">
        <ele>2125.7</ele>
        <time>2024-04-27T07:42:19Z</time>
      </trkpt>
      <trkpt lat="45.86081" lon="6.4526">
        <ele>2125.7</ele>
        <time>2024-04-27T07:42:20Z</time>
      </trkpt>
      <trkpt lat="45.86081" lon="6.45261">
        <ele>2125.7</ele>
        <time>2024-04-27T07:42:21Z</time>
      </trkpt>
      <trkpt lat="45.86081" lon="6.45262">
        <ele>2125.7</ele>
        <time>2024-04-27T07:42:22Z</time>
      </trkpt>
      <trkpt lat="45.8608" lon="6.45263">
        <ele>2125.7</ele>
        <time>2024-04-27T07:42:23Z</time>
      </trkpt>
      <trkpt lat="45.8608" lon="6.45263">
        <ele>2125.7</ele>
        <time>2024-04-27T07:42:24Z</time>
      </trkpt>
      <trkpt lat="45.8608" lon="6.45263">
        <ele>2125.7</ele>
        <time>2024-04-27T07:42:25Z</time>
      </trkpt>
      <trkpt lat="45.86079" lon="6.45264">
        <ele>2125.7</ele>
        <time>2024-04-27T07:42:26Z</time>
      </trkpt>
      <trkpt lat="45.86078" lon="6.45265">
        <ele>2126.6</ele>
        <time>2024-04-27T07:42:27Z</time>
      </trkpt>
      <trkpt lat="45.86078" lon="6.45266">
        <ele>2126.6</ele>
        <time>2024-04-27T07:42:28Z</time>
      </trkpt>
      <trkpt lat="45.86078" lon="6.45266">
        <ele>2126.6</ele>
        <time>2024-04-27T07:42:29Z</time>
      </trkpt>
      <trkpt lat="45.86078" lon="6.45267">
        <ele>2126.6</ele>
        <time>2024-04-27T07:42:30Z</time>
      </trkpt>
      <trkpt lat="45.86078" lon="6.45268">
        <ele>2127.7</ele>
        <time>2024-04-27T07:42:31Z</time>
      </trkpt>
      <trkpt lat="45.86077" lon="6.45269">
        <ele>2127.7</ele>
        <time>2024-04-27T07:42:32Z</time>
      </trkpt>
      <trkpt lat="45.86077" lon="6.45269">
        <ele>2127.7</ele>
        <time>2024-04-27T07:42:33Z</time>
      </trkpt>
      <trkpt lat="45.86077" lon="6.45269">
        <ele>2127.7</ele>
        <time>2024-04-27T07:42:34Z</time>
      </trkpt>
      <trkpt lat="45.86077" lon="6.45269">
        <ele>2128.6</ele>
        <time>2024-04-27T07:42:35Z</time>
      </trkpt>
      <trkpt lat="45.86077" lon="6.45269">
        <ele>2128.6</ele>
        <time>2024-04-27T07:42:36Z</time>
      </trkpt>
      <trkpt lat="45.86077" lon="6.45268">
        <ele>2128.6</ele>
        <time>2024-04-27T07:42:37Z</time>
      </trkpt>
      <trkpt lat="45.86077" lon="6.45267">
        <ele>2128.6</ele>
        <time>2024-04-27T07:42:38Z</time>
      </trkpt>
      <trkpt lat="45.86077" lon="6.45267">
        <ele>2128.6</ele>
        <time>2024-04-27T07:42:39Z</time>
      </trkpt>
      <trkpt lat="45.86077" lon="6.45267">
        <ele>2128.6</ele>
        <time>2024-04-27T07:42:40Z</time>
      </trkpt>
      <trkpt lat="45.86077" lon="6.45266">
        <ele>2128.6</ele>
        <time>2024-04-27T07:42:41Z</time>
      </trkpt>
      <trkpt lat="45.86077" lon="6.45265">
        <ele>2128.6</ele>
        <time>2024-04-27T07:42:42Z</time>
      </trkpt>
      <trkpt lat="45.86077" lon="6.45264">
        <ele>2128.6</ele>
        <time>2024-04-27T07:42:43Z</time>
      </trkpt>
      <trkpt lat="45.86076" lon="6.45263">
        <ele>2128.6</ele>
        <time>2024-04-27T07:42:44Z</time>
      </trkpt>
      <trkpt lat="45.86076" lon="6.45262">
        <ele>2129.7</ele>
        <time>2024-04-27T07:42:45Z</time>
      </trkpt>
      <trkpt lat="45.86076" lon="6.45261">
        <ele>2129.7</ele>
        <time>2024-04-27T07:42:46Z</time>
      </trkpt>
      <trkpt lat="45.86076" lon="6.45261">
        <ele>2129.7</ele>
        <time>2024-04-27T07:42:47Z</time>
      </trkpt>
      <trkpt lat="45.86077" lon="6.4526">
        <ele>2129.7</ele>
        <time>2024-04-27T07:42:48Z</time>
      </trkpt>
      <trkpt lat="45.86077" lon="6.45259">
        <ele>2130.6</ele>
        <time>2024-04-27T07:42:49Z</time>
      </trkpt>
      <trkpt lat="45.86078" lon="6.45258">
        <ele>2130.6</ele>
        <time>2024-04-27T07:42:50Z</time>
      </trkpt>
      <trkpt lat="45.86078" lon="6.45257">
        <ele>2130.6</ele>
        <time>2024-04-27T07:42:51Z</time>
      </trkpt>
      <trkpt lat="45.86079" lon="6.45256">
        <ele>2130.6</ele>
        <time>2024-04-27T07:42:52Z</time>
      </trkpt>
      <trkpt lat="45.86079" lon="6.45256">
        <ele>2130.6</ele>
        <time>2024-04-27T07:42:53Z</time>
      </trkpt>
      <trkpt lat="45.86079" lon="6.45255">
        <ele>2130.6</ele>
        <time>2024-04-27T07:42:54Z</time>
      </trkpt>
      <trkpt lat="45.86079" lon="6.45254">
        <ele>2130.6</ele>
        <time>2024-04-27T07:42:55Z</time>
      </trkpt>
      <trkpt lat="45.86079" lon="6.45253">
        <ele>2130.6</ele>
        <time>2024-04-27T07:42:56Z</time>
      </trkpt>
      <trkpt lat="45.8608" lon="6.45252">
        <ele>2130.6</ele>
        <time>2024-04-27T07:42:57Z</time>
      </trkpt>
      <trkpt lat="45.8608" lon="6.45251">
        <ele>2130.6</ele>
        <time>2024-04-27T07:42:58Z</time>
      </trkpt>
      <trkpt lat="45.8608" lon="6.4525">
        <ele>2130.6</ele>
        <time>2024-04-27T07:42:59Z</time>
      </trkpt>
      <trkpt lat="45.8608" lon="6.45249">
        <ele>2130.6</ele>
        <time>2024-04-27T07:43:00Z</time>
      </trkpt>
      <trkpt lat="45.8608" lon="6.45249">
        <ele>2132.7</ele>
        <time>2024-04-27T07:43:01Z</time>
      </trkpt>
      <trkpt lat="45.8608" lon="6.45248">
        <ele>2132.7</ele>
        <time>2024-04-27T07:43:02Z</time>
      </trkpt>
      <trkpt lat="45.8608" lon="6.45247">
        <ele>2133.6</ele>
        <time>2024-04-27T07:43:03Z</time>
      </trkpt>
      <trkpt lat="45.8608" lon="6.45247">
        <ele>2133.6</ele>
        <time>2024-04-27T07:43:04Z</time>
      </trkpt>
      <trkpt lat="45.8608" lon="6.45246">
        <ele>2133.6</ele>
        <time>2024-04-27T07:43:05Z</time>
      </trkpt>
      <trkpt lat="45.86081" lon="6.45245">
        <ele>2133.6</ele>
        <time>2024-04-27T07:43:06Z</time>
      </trkpt>
      <trkpt lat="45.86081" lon="6.45244">
        <ele>2133.6</ele>
        <time>2024-04-27T07:43:07Z</time>
      </trkpt>
      <trkpt lat="45.86081" lon="6.45244">
        <ele>2133.6</ele>
        <time>2024-04-27T07:43:08Z</time>
      </trkpt>
      <trkpt lat="45.86081" lon="6.45243">
        <ele>2133.6</ele>
        <time>2024-04-27T07:43:09Z</time>
      </trkpt>
      <trkpt lat="45.86081" lon="6.45243">
        <ele>2133.6</ele>
        <time>2024-04-27T07:43:10Z</time>
      </trkpt>
      <trkpt lat="45.8608" lon="6.45242">
        <ele>2133.6</ele>
        <time>2024-04-27T07:43:11Z</time>
      </trkpt>
      <trkpt lat="45.86081" lon="6.45242">
        <ele>2133.6</ele>
        <time>2024-04-27T07:43:12Z</time>
      </trkpt>
      <trkpt lat="45.8608" lon="6.45242">
        <ele>2133.6</ele>
        <time>2024-04-27T07:43:13Z</time>
      </trkpt>
      <trkpt lat="45.8608" lon="6.45242">
        <ele>2133.6</ele>
        <time>2024-04-27T07:43:14Z</time>
      </trkpt>
      <trkpt lat="45.8608" lon="6.45241">
        <ele>2133.6</ele>
        <time>2024-04-27T07:43:15Z</time>
      </trkpt>
      <trkpt lat="45.8608" lon="6.45241">
        <ele>2133.6</ele>
        <time>2024-04-27T07:43:16Z</time>
      </trkpt>
      <trkpt lat="45.8608" lon="6.45242">
        <ele>2133.6</ele>
        <time>2024-04-27T07:43:17Z</time>
      </trkpt>
      <trkpt lat="45.86079" lon="6.45242">
        <ele>2133.6</ele>
        <time>2024-04-27T07:43:18Z</time>
      </trkpt>
      <trkpt lat="45.86079" lon="6.45243">
        <ele>2133.6</ele>
        <time>2024-04-27T07:43:19Z</time>
      </trkpt>
      <trkpt lat="45.86079" lon="6.45243">
        <ele>2133.6</ele>
        <time>2024-04-27T07:43:20Z</time>
      </trkpt>
      <trkpt lat="45.86079" lon="6.45243">
        <ele>2133.6</ele>
        <time>2024-04-27T07:43:21Z</time>
      </trkpt>
      <trkpt lat="45.86079" lon="6.45243">
        <ele>2133.6</ele>
        <time>2024-04-27T07:43:22Z</time>
      </trkpt>
      <trkpt lat="45.86079" lon="6.45243">
        <ele>2133.6</ele>
        <time>2024-04-27T07:43:23Z</time>
      </trkpt>
      <trkpt lat="45.86079" lon="6.45243">
        <ele>2133.6</ele>
        <time>2024-04-27T07:43:24Z</time>
      </trkpt>
      <trkpt lat="45.86079" lon="6.45243">
        <ele>2133.6</ele>
        <time>2024-04-27T07:43:25Z</time>
      </trkpt>
      <trkpt lat="45.86079" lon="6.45243">
        <ele>2133.6</ele>
        <time>2024-04-27T07:43:26Z</time>
      </trkpt>
      <trkpt lat="45.86079" lon="6.45243">
        <ele>2134.7</ele>
        <time>2024-04-27T07:43:27Z</time>
      </trkpt>
      <trkpt lat="45.86079" lon="6.45243">
        <ele>2134.7</ele>
        <time>2024-04-27T07:43:28Z</time>
      </trkpt>
      <trkpt lat="45.86079" lon="6.45243">
        <ele>2134.7</ele>
        <time>2024-04-27T07:43:29Z</time>
      </trkpt>
      <trkpt lat="45.86079" lon="6.45243">
        <ele>2134.7</ele>
        <time>2024-04-27T07:43:30Z</time>
      </trkpt>
      <trkpt lat="45.86079" lon="6.45243">
        <ele>2134.7</ele>
        <time>2024-04-27T07:43:31Z</time>
      </trkpt>
      <trkpt lat="45.86079" lon="6.45243">
        <ele>2134.7</ele>
        <time>2024-04-27T07:43:32Z</time>
      </trkpt>
      <trkpt lat="45.86079" lon="6.45243">
        <ele>2134.7</ele>
        <time>2024-04-27T07:43:33Z</time>
      </trkpt>
      <trkpt lat="45.86079" lon="6.45243">
        <ele>2134.7</ele>
        <time>2024-04-27T07:43:34Z</time>
      </trkpt>
      <trkpt lat="45.86078" lon="6.45244">
        <ele>2135.6</ele>
        <time>2024-04-27T07:43:35Z</time>
      </trkpt>
      <trkpt lat="45.86078" lon="6.45245">
        <ele>2135.6</ele>
        <time>2024-04-27T07:43:36Z</time>
      </trkpt>
      <trkpt lat="45.86077" lon="6.45246">
        <ele>2135.6</ele>
        <time>2024-04-27T07:43:37Z</time>
      </trkpt>
      <trkpt lat="45.86076" lon="6.45248">
        <ele>2135.6</ele>
        <time>2024-04-27T07:43:38Z</time>
      </trkpt>
      <trkpt lat="45.86075" lon="6.45249">
        <ele>2135.6</ele>
        <time>2024-04-27T07:43:39Z</time>
      </trkpt>
      <trkpt lat="45.86073" lon="6.45251">
        <ele>2135.6</ele>
        <time>2024-04-27T07:43:40Z</time>
      </trkpt>
      <trkpt lat="45.86072" lon="6.45252">
        <ele>2136.7</ele>
        <time>2024-04-27T07:43:41Z</time>
      </trkpt>
      <trkpt lat="45.86071" lon="6.45253">
        <ele>2136.7</ele>
        <time>2024-04-27T07:43:42Z</time>
      </trkpt>
      <trkpt lat="45.8607" lon="6.45254">
        <ele>2136.7</ele>
        <time>2024-04-27T07:43:43Z</time>
      </trkpt>
      <trkpt lat="45.86069" lon="6.45255">
        <ele>2136.7</ele>
        <time>2024-04-27T07:43:44Z</time>
      </trkpt>
      <trkpt lat="45.86069" lon="6.45256">
        <ele>2136.7</ele>
        <time>2024-04-27T07:43:45Z</time>
      </trkpt>
      <trkpt lat="45.86068" lon="6.45256">
        <ele>2136.7</ele>
        <time>2024-04-27T07:43:46Z</time>
      </trkpt>
      <trkpt lat="45.86068" lon="6.45257">
        <ele>2137.6</ele>
        <time>2024-04-27T07:43:47Z</time>
      </trkpt>
      <trkpt lat="45.86068" lon="6.45257">
        <ele>2137.6</ele>
        <time>2024-04-27T07:43:48Z</time>
      </trkpt>
      <trkpt lat="45.86068" lon="6.45257">
        <ele>2137.6</ele>
        <time>2024-04-27T07:43:49Z</time>
      </trkpt>
      <trkpt lat="45.86067" lon="6.45257">
        <ele>2137.6</ele>
        <time>2024-04-27T07:43:50Z</time>
      </trkpt>
      <trkpt lat="45.86067" lon="6.45257">
        <ele>2138.7</ele>
        <time>2024-04-27T07:43:51Z</time>
      </trkpt>
      <trkpt lat="45.86067" lon="6.45257">
        <ele>2138.7</ele>
        <time>2024-04-27T07:43:52Z</time>
      </trkpt>
      <trkpt lat="45.86067" lon="6.45256">
        <ele>2138.7</ele>
        <time>2024-04-27T07:43:53Z</time>
      </trkpt>
      <trkpt lat="45.86067" lon="6.45256">
        <ele>2138.7</ele>
        <time>2024-04-27T07:43:54Z</time>
      </trkpt>
      <trkpt lat="45.86066" lon="6.45257">
        <ele>2138.7</ele>
        <time>2024-04-27T07:43:55Z</time>
      </trkpt>
      <trkpt lat="45.86066" lon="6.45257">
        <ele>2138.7</ele>
        <time>2024-04-27T07:43:56Z</time>
      </trkpt>
      <trkpt lat="45.86066" lon="6.45255">
        <ele>2138.7</ele>
        <time>2024-04-27T07:43:57Z</time>
      </trkpt>
      <trkpt lat="45.86067" lon="6.45254">
        <ele>2138.7</ele>
        <time>2024-04-27T07:43:58Z</time>
      </trkpt>
      <trkpt lat="45.86067" lon="6.45253">
        <ele>2139.7</ele>
        <time>2024-04-27T07:43:59Z</time>
      </trkpt>
      <trkpt lat="45.86067" lon="6.45253">
        <ele>2139.7</ele>
        <time>2024-04-27T07:44:00Z</time>
      </trkpt>
      <trkpt lat="45.86067" lon="6.45251">
        <ele>2139.7</ele>
        <time>2024-04-27T07:44:01Z</time>
      </trkpt>
      <trkpt lat="45.86068" lon="6.45251">
        <ele>2139.7</ele>
        <time>2024-04-27T07:44:02Z</time>
      </trkpt>
      <trkpt lat="45.86068" lon="6.45251">
        <ele>2140.6</ele>
        <time>2024-04-27T07:44:03Z</time>
      </trkpt>
      <trkpt lat="45.86068" lon="6.4525">
        <ele>2140.6</ele>
        <time>2024-04-27T07:44:04Z</time>
      </trkpt>
      <trkpt lat="45.86068" lon="6.4525">
        <ele>2140.6</ele>
        <time>2024-04-27T07:44:05Z</time>
      </trkpt>
      <trkpt lat="45.86068" lon="6.4525">
        <ele>2140.6</ele>
        <time>2024-04-27T07:44:06Z</time>
      </trkpt>
      <trkpt lat="45.86067" lon="6.4525">
        <ele>2141.7</ele>
        <time>2024-04-27T07:44:07Z</time>
      </trkpt>
      <trkpt lat="45.86067" lon="6.4525">
        <ele>2141.7</ele>
        <time>2024-04-27T07:44:08Z</time>
      </trkpt>
      <trkpt lat="45.86066" lon="6.45249">
        <ele>2141.7</ele>
        <time>2024-04-27T07:44:09Z</time>
      </trkpt>
      <trkpt lat="45.86066" lon="6.45248">
        <ele>2141.7</ele>
        <time>2024-04-27T07:44:10Z</time>
      </trkpt>
      <trkpt lat="45.86066" lon="6.45248">
        <ele>2141.7</ele>
        <time>2024-04-27T07:44:11Z</time>
      </trkpt>
      <trkpt lat="45.86066" lon="6.45247">
        <ele>2141.7</ele>
        <time>2024-04-27T07:44:12Z</time>
      </trkpt>
      <trkpt lat="45.86066" lon="6.45247">
        <ele>2141.7</ele>
        <time>2024-04-27T07:44:13Z</time>
      </trkpt>
      <trkpt lat="45.86066" lon="6.45246">
        <ele>2141.7</ele>
        <time>2024-04-27T07:44:14Z</time>
      </trkpt>
      <trkpt lat="45.86066" lon="6.45245">
        <ele>2142.6</ele>
        <time>2024-04-27T07:44:15Z</time>
      </trkpt>
      <trkpt lat="45.86066" lon="6.45245">
        <ele>2142.6</ele>
        <time>2024-04-27T07:44:16Z</time>
      </trkpt>
      <trkpt lat="45.86065" lon="6.45244">
        <ele>2142.6</ele>
        <time>2024-04-27T07:44:17Z</time>
      </trkpt>
      <trkpt lat="45.86065" lon="6.45243">
        <ele>2142.6</ele>
        <time>2024-04-27T07:44:18Z</time>
      </trkpt>
      <trkpt lat="45.86066" lon="6.45242">
        <ele>2143.7</ele>
        <time>2024-04-27T07:44:19Z</time>
      </trkpt>
      <trkpt lat="45.86066" lon="6.45241">
        <ele>2143.7</ele>
        <time>2024-04-27T07:44:20Z</time>
      </trkpt>
      <trkpt lat="45.86065" lon="6.45241">
        <ele>2143.7</ele>
        <time>2024-04-27T07:44:21Z</time>
      </trkpt>
      <trkpt lat="45.86065" lon="6.45241">
        <ele>2143.7</ele>
        <time>2024-04-27T07:44:22Z</time>
      </trkpt>
      <trkpt lat="45.86065" lon="6.4524">
        <ele>2143.7</ele>
        <time>2024-04-27T07:44:23Z</time>
      </trkpt>
      <trkpt lat="45.86065" lon="6.45239">
        <ele>2143.7</ele>
        <time>2024-04-27T07:44:24Z</time>
      </trkpt>
      <trkpt lat="45.86066" lon="6.45239">
        <ele>2144.6</ele>
        <time>2024-04-27T07:44:25Z</time>
      </trkpt>
      <trkpt lat="45.86066" lon="6.45239">
        <ele>2144.6</ele>
        <time>2024-04-27T07:44:26Z</time>
      </trkpt>
      <trkpt lat="45.86066" lon="6.45239">
        <ele>2144.6</ele>
        <time>2024-04-27T07:44:27Z</time>
      </trkpt>
      <trkpt lat="45.86066" lon="6.4524">
        <ele>2144.6</ele>
        <time>2024-04-27T07:44:28Z</time>
      </trkpt>
      <trkpt lat="45.86066" lon="6.45241">
        <ele>2144.6</ele>
        <time>2024-04-27T07:44:29Z</time>
      </trkpt>
      <trkpt lat="45.86065" lon="6.45241">
        <ele>2144.6</ele>
        <time>2024-04-27T07:44:30Z</time>
      </trkpt>
      <trkpt lat="45.86066" lon="6.45241">
        <ele>2143.7</ele>
        <time>2024-04-27T07:44:31Z</time>
      </trkpt>
      <trkpt lat="45.86066" lon="6.45242">
        <ele>2143.7</ele>
        <time>2024-04-27T07:44:32Z</time>
      </trkpt>
      <trkpt lat="45.86065" lon="6.45243">
        <ele>2143.7</ele>
        <time>2024-04-27T07:44:33Z</time>
      </trkpt>
      <trkpt lat="45.86066" lon="6.45242">
        <ele>2143.7</ele>
        <time>2024-04-27T07:44:34Z</time>
      </trkpt>
      <trkpt lat="45.86066" lon="6.45242">
        <ele>2143.7</ele>
        <time>2024-04-27T07:44:35Z</time>
      </trkpt>
      <trkpt lat="45.86067" lon="6.45242">
        <ele>2143.7</ele>
        <time>2024-04-27T07:44:36Z</time>
      </trkpt>
      <trkpt lat="45.86066" lon="6.45242">
        <ele>2143.7</ele>
        <time>2024-04-27T07:44:37Z</time>
      </trkpt>
      <trkpt lat="45.86066" lon="6.45242">
        <ele>2143.7</ele>
        <time>2024-04-27T07:44:38Z</time>
      </trkpt>
      <trkpt lat="45.86066" lon="6.45242">
        <ele>2143.7</ele>
        <time>2024-04-27T07:44:39Z</time>
      </trkpt>
      <trkpt lat="45.86065" lon="6.45243">
        <ele>2143.7</ele>
        <time>2024-04-27T07:44:40Z</time>
      </trkpt>
      <trkpt lat="45.86065" lon="6.45243">
        <ele>2143.7</ele>
        <time>2024-04-27T07:44:41Z</time>
      </trkpt>
      <trkpt lat="45.86064" lon="6.45244">
        <ele>2143.7</ele>
        <time>2024-04-27T07:44:42Z</time>
      </trkpt>
      <trkpt lat="45.86064" lon="6.45244">
        <ele>2143.7</ele>
        <time>2024-04-27T07:44:43Z</time>
      </trkpt>
      <trkpt lat="45.86063" lon="6.45245">
        <ele>2143.7</ele>
        <time>2024-04-27T07:44:44Z</time>
      </trkpt>
      <trkpt lat="45.86063" lon="6.45246">
        <ele>2144.6</ele>
        <time>2024-04-27T07:44:45Z</time>
      </trkpt>
      <trkpt lat="45.86063" lon="6.45246">
        <ele>2144.6</ele>
        <time>2024-04-27T07:44:46Z</time>
      </trkpt>
      <trkpt lat="45.86063" lon="6.45247">
        <ele>2144.6</ele>
        <time>2024-04-27T07:44:47Z</time>
      </trkpt>
      <trkpt lat="45.86062" lon="6.45247">
        <ele>2144.6</ele>
        <time>2024-04-27T07:44:48Z</time>
      </trkpt>
      <trkpt lat="45.86062" lon="6.45248">
        <ele>2144.6</ele>
        <time>2024-04-27T07:44:49Z</time>
      </trkpt>
      <trkpt lat="45.86062" lon="6.45248">
        <ele>2144.6</ele>
        <time>2024-04-27T07:44:50Z</time>
      </trkpt>
      <trkpt lat="45.86061" lon="6.45249">
        <ele>2144.6</ele>
        <time>2024-04-27T07:44:51Z</time>
      </trkpt>
      <trkpt lat="45.86061" lon="6.45249">
        <ele>2144.6</ele>
        <time>2024-04-27T07:44:52Z</time>
      </trkpt>
      <trkpt lat="45.8606" lon="6.4525">
        <ele>2144.6</ele>
        <time>2024-04-27T07:44:53Z</time>
      </trkpt>
      <trkpt lat="45.8606" lon="6.45251">
        <ele>2144.6</ele>
        <time>2024-04-27T07:44:54Z</time>
      </trkpt>
      <trkpt lat="45.8606" lon="6.45252">
        <ele>2144.6</ele>
        <time>2024-04-27T07:44:55Z</time>
      </trkpt>
      <trkpt lat="45.86059" lon="6.45252">
        <ele>2144.6</ele>
        <time>2024-04-27T07:44:56Z</time>
      </trkpt>
      <trkpt lat="45.86059" lon="6.45253">
        <ele>2145.7</ele>
        <time>2024-04-27T07:44:57Z</time>
      </trkpt>
      <trkpt lat="45.86059" lon="6.45254">
        <ele>2145.7</ele>
        <time>2024-04-27T07:44:58Z</time>
      </trkpt>
      <trkpt lat="45.86058" lon="6.45255">
        <ele>2145.7</ele>
        <time>2024-04-27T07:44:59Z</time>
      </trkpt>
      <trkpt lat="45.86058" lon="6.45255">
        <ele>2145.7</ele>
        <time>2024-04-27T07:45:00Z</time>
      </trkpt>
      <trkpt lat="45.86057" lon="6.45256">
        <ele>2145.7</ele>
        <time>2024-04-27T07:45:01Z</time>
      </trkpt>
      <trkpt lat="45.86057" lon="6.45257">
        <ele>2145.7</ele>
        <time>2024-04-27T07:45:02Z</time>
      </trkpt>
      <trkpt lat="45.86057" lon="6.45257">
        <ele>2145.7</ele>
        <time>2024-04-27T07:45:03Z</time>
      </trkpt>
      <trkpt lat="45.86057" lon="6.45257">
        <ele>2145.7</ele>
        <time>2024-04-27T07:45:04Z</time>
      </trkpt>
      <trkpt lat="45.86057" lon="6.45257">
        <ele>2147.6</ele>
        <time>2024-04-27T07:45:05Z</time>
      </trkpt>
      <trkpt lat="45.86057" lon="6.45256">
        <ele>2147.6</ele>
        <time>2024-04-27T07:45:06Z</time>
      </trkpt>
      <trkpt lat="45.86056" lon="6.45255">
        <ele>2147.6</ele>
        <time>2024-04-27T07:45:07Z</time>
      </trkpt>
      <trkpt lat="45.86056" lon="6.45254">
        <ele>2147.6</ele>
        <time>2024-04-27T07:45:08Z</time>
      </trkpt>
      <trkpt lat="45.86056" lon="6.45253">
        <ele>2147.6</ele>
        <time>2024-04-27T07:45:09Z</time>
      </trkpt>
      <trkpt lat="45.86056" lon="6.45252">
        <ele>2147.6</ele>
        <time>2024-04-27T07:45:10Z</time>
      </trkpt>
      <trkpt lat="45.86056" lon="6.45251">
        <ele>2147.6</ele>
        <time>2024-04-27T07:45:11Z</time>
      </trkpt>
      <trkpt lat="45.86056" lon="6.45251">
        <ele>2147.6</ele>
        <time>2024-04-27T07:45:12Z</time>
      </trkpt>
      <trkpt lat="45.86056" lon="6.4525">
        <ele>2147.6</ele>
        <time>2024-04-27T07:45:13Z</time>
      </trkpt>
      <trkpt lat="45.86056" lon="6.4525">
        <ele>2147.6</ele>
        <time>2024-04-27T07:45:14Z</time>
      </trkpt>
      <trkpt lat="45.86055" lon="6.45249">
        <ele>2150.7</ele>
        <time>2024-04-27T07:45:15Z</time>
      </trkpt>
      <trkpt lat="45.86055" lon="6.45249">
        <ele>2150.7</ele>
        <time>2024-04-27T07:45:16Z</time>
      </trkpt>
      <trkpt lat="45.86055" lon="6.45248">
        <ele>2150.7</ele>
        <time>2024-04-27T07:45:17Z</time>
      </trkpt>
      <trkpt lat="45.86055" lon="6.45248">
        <ele>2150.7</ele>
        <time>2024-04-27T07:45:18Z</time>
      </trkpt>
      <trkpt lat="45.86055" lon="6.45247">
        <ele>2151.6</ele>
        <time>2024-04-27T07:45:19Z</time>
      </trkpt>
      <trkpt lat="45.86054" lon="6.45247">
        <ele>2151.6</ele>
        <time>2024-04-27T07:45:20Z</time>
      </trkpt>
      <trkpt lat="45.86054" lon="6.45247">
        <ele>2151.6</ele>
        <time>2024-04-27T07:45:21Z</time>
      </trkpt>
      <trkpt lat="45.86054" lon="6.45245">
        <ele>2151.6</ele>
        <time>2024-04-27T07:45:22Z</time>
      </trkpt>
      <trkpt lat="45.86055" lon="6.45244">
        <ele>2151.6</ele>
        <time>2024-04-27T07:45:23Z</time>
      </trkpt>
      <trkpt lat="45.86055" lon="6.45244">
        <ele>2151.6</ele>
        <time>2024-04-27T07:45:24Z</time>
      </trkpt>
      <trkpt lat="45.86055" lon="6.45243">
        <ele>2151.6</ele>
        <time>2024-04-27T07:45:25Z</time>
      </trkpt>
      <trkpt lat="45.86055" lon="6.45243">
        <ele>2151.6</ele>
        <time>2024-04-27T07:45:26Z</time>
      </trkpt>
      <trkpt lat="45.86055" lon="6.45243">
        <ele>2152.7</ele>
        <time>2024-04-27T07:45:27Z</time>
      </trkpt>
      <trkpt lat="45.86055" lon="6.45242">
        <ele>2152.7</ele>
        <time>2024-04-27T07:45:28Z</time>
      </trkpt>
      <trkpt lat="45.86056" lon="6.45241">
        <ele>2152.7</ele>
        <time>2024-04-27T07:45:29Z</time>
      </trkpt>
      <trkpt lat="45.86056" lon="6.4524">
        <ele>2152.7</ele>
        <time>2024-04-27T07:45:30Z</time>
      </trkpt>
      <trkpt lat="45.86056" lon="6.45239">
        <ele>2152.7</ele>
        <time>2024-04-27T07:45:31Z</time>
      </trkpt>
      <trkpt lat="45.86057" lon="6.45238">
        <ele>2152.7</ele>
        <time>2024-04-27T07:45:32Z</time>
      </trkpt>
      <trkpt lat="45.86056" lon="6.45238">
        <ele>2153.6</ele>
        <time>2024-04-27T07:45:33Z</time>
      </trkpt>
      <trkpt lat="45.86056" lon="6.45237">
        <ele>2153.6</ele>
        <time>2024-04-27T07:45:34Z</time>
      </trkpt>
      <trkpt lat="45.86056" lon="6.45236">
        <ele>2153.6</ele>
        <time>2024-04-27T07:45:35Z</time>
      </trkpt>
      <trkpt lat="45.86057" lon="6.45234">
        <ele>2153.6</ele>
        <time>2024-04-27T07:45:36Z</time>
      </trkpt>
      <trkpt lat="45.86057" lon="6.45232">
        <ele>2153.6</ele>
        <time>2024-04-27T07:45:37Z</time>
      </trkpt>
      <trkpt lat="45.86058" lon="6.45231">
        <ele>2153.6</ele>
        <time>2024-04-27T07:45:38Z</time>
      </trkpt>
      <trkpt lat="45.86057" lon="6.45231">
        <ele>2153.6</ele>
        <time>2024-04-27T07:45:39Z</time>
      </trkpt>
      <trkpt lat="45.86057" lon="6.45231">
        <ele>2153.6</ele>
        <time>2024-04-27T07:45:40Z</time>
      </trkpt>
      <trkpt lat="45.86058" lon="6.45229">
        <ele>2155.7</ele>
        <time>2024-04-27T07:45:41Z</time>
      </trkpt>
      <trkpt lat="45.86058" lon="6.45229">
        <ele>2155.7</ele>
        <time>2024-04-27T07:45:42Z</time>
      </trkpt>
      <trkpt lat="45.86058" lon="6.45228">
        <ele>2155.7</ele>
        <time>2024-04-27T07:45:43Z</time>
      </trkpt>
      <trkpt lat="45.86057" lon="6.45228">
        <ele>2155.7</ele>
        <time>2024-04-27T07:45:44Z</time>
      </trkpt>
      <trkpt lat="45.86057" lon="6.45228">
        <ele>2156.6</ele>
        <time>2024-04-27T07:45:45Z</time>
      </trkpt>
      <trkpt lat="45.86057" lon="6.45228">
        <ele>2156.6</ele>
        <time>2024-04-27T07:45:46Z</time>
      </trkpt>
      <trkpt lat="45.86056" lon="6.45228">
        <ele>2156.6</ele>
        <time>2024-04-27T07:45:47Z</time>
      </trkpt>
      <trkpt lat="45.86056" lon="6.45228">
        <ele>2156.6</ele>
        <time>2024-04-27T07:45:48Z</time>
      </trkpt>
      <trkpt lat="45.86055" lon="6.45228">
        <ele>2156.6</ele>
        <time>2024-04-27T07:45:49Z</time>
      </trkpt>
      <trkpt lat="45.86054" lon="6.45228">
        <ele>2156.6</ele>
        <time>2024-04-27T07:45:50Z</time>
      </trkpt>
      <trkpt lat="45.86054" lon="6.45227">
        <ele>2157.7</ele>
        <time>2024-04-27T07:45:51Z</time>
      </trkpt>
      <trkpt lat="45.86055" lon="6.45226">
        <ele>2157.7</ele>
        <time>2024-04-27T07:45:52Z</time>
      </trkpt>
      <trkpt lat="45.86055" lon="6.45225">
        <ele>2157.7</ele>
        <time>2024-04-27T07:45:53Z</time>
      </trkpt>
      <trkpt lat="45.86055" lon="6.45225">
        <ele>2157.7</ele>
        <time>2024-04-27T07:45:54Z</time>
      </trkpt>
      <trkpt lat="45.86055" lon="6.45225">
        <ele>2157.7</ele>
        <time>2024-04-27T07:45:55Z</time>
      </trkpt>
      <trkpt lat="45.86055" lon="6.45225">
        <ele>2157.7</ele>
        <time>2024-04-27T07:45:56Z</time>
      </trkpt>
      <trkpt lat="45.86055" lon="6.45225">
        <ele>2157.7</ele>
        <time>2024-04-27T07:45:57Z</time>
      </trkpt>
      <trkpt lat="45.86055" lon="6.45225">
        <ele>2157.7</ele>
        <time>2024-04-27T07:45:58Z</time>
      </trkpt>
      <trkpt lat="45.86055" lon="6.45225">
        <ele>2157.7</ele>
        <time>2024-04-27T07:45:59Z</time>
      </trkpt>
      <trkpt lat="45.86055" lon="6.45225">
        <ele>2157.7</ele>
        <time>2024-04-27T07:46:00Z</time>
      </trkpt>
      <trkpt lat="45.86055" lon="6.45225">
        <ele>2157.7</ele>
        <time>2024-04-27T07:46:01Z</time>
      </trkpt>
      <trkpt lat="45.86055" lon="6.45225">
        <ele>2157.7</ele>
        <time>2024-04-27T07:46:02Z</time>
      </trkpt>
      <trkpt lat="45.86055" lon="6.45225">
        <ele>2157.7</ele>
        <time>2024-04-27T07:46:03Z</time>
      </trkpt>
      <trkpt lat="45.86055" lon="6.45225">
        <ele>2157.7</ele>
        <time>2024-04-27T07:46:04Z</time>
      </trkpt>
      <trkpt lat="45.86055" lon="6.45225">
        <ele>2157.7</ele>
        <time>2024-04-27T07:46:05Z</time>
      </trkpt>
      <trkpt lat="45.86055" lon="6.45225">
        <ele>2157.7</ele>
        <time>2024-04-27T07:46:06Z</time>
      </trkpt>
      <trkpt lat="45.86055" lon="6.45226">
        <ele>2157.7</ele>
        <time>2024-04-27T07:46:07Z</time>
      </trkpt>
      <trkpt lat="45.86055" lon="6.45226">
        <ele>2157.7</ele>
        <time>2024-04-27T07:46:08Z</time>
      </trkpt>
      <trkpt lat="45.86055" lon="6.45226">
        <ele>2157.7</ele>
        <time>2024-04-27T07:46:09Z</time>
      </trkpt>
      <trkpt lat="45.86055" lon="6.45227">
        <ele>2157.7</ele>
        <time>2024-04-27T07:46:10Z</time>
      </trkpt>
      <trkpt lat="45.86055" lon="6.45227">
        <ele>2157.7</ele>
        <time>2024-04-27T07:46:11Z</time>
      </trkpt>
      <trkpt lat="45.86055" lon="6.45228">
        <ele>2157.7</ele>
        <time>2024-04-27T07:46:12Z</time>
      </trkpt>
      <trkpt lat="45.86055" lon="6.45228">
        <ele>2158.6</ele>
        <time>2024-04-27T07:46:13Z</time>
      </trkpt>
      <trkpt lat="45.86055" lon="6.45228">
        <ele>2158.6</ele>
        <time>2024-04-27T07:46:14Z</time>
      </trkpt>
      <trkpt lat="45.86055" lon="6.45228">
        <ele>2158.6</ele>
        <time>2024-04-27T07:46:15Z</time>
      </trkpt>
      <trkpt lat="45.86055" lon="6.45228">
        <ele>2158.6</ele>
        <time>2024-04-27T07:46:16Z</time>
      </trkpt>
      <trkpt lat="45.86055" lon="6.45228">
        <ele>2158.6</ele>
        <time>2024-04-27T07:46:17Z</time>
      </trkpt>
      <trkpt lat="45.86054" lon="6.45228">
        <ele>2158.6</ele>
        <time>2024-04-27T07:46:18Z</time>
      </trkpt>
      <trkpt lat="45.86054" lon="6.45228">
        <ele>2158.6</ele>
        <time>2024-04-27T07:46:19Z</time>
      </trkpt>
      <trkpt lat="45.86053" lon="6.45229">
        <ele>2158.6</ele>
        <time>2024-04-27T07:46:20Z</time>
      </trkpt>
      <trkpt lat="45.86052" lon="6.45231">
        <ele>2158.6</ele>
        <time>2024-04-27T07:46:21Z</time>
      </trkpt>
      <trkpt lat="45.86051" lon="6.45232">
        <ele>2158.6</ele>
        <time>2024-04-27T07:46:22Z</time>
      </trkpt>
      <trkpt lat="45.8605" lon="6.45233">
        <ele>2158.6</ele>
        <time>2024-04-27T07:46:23Z</time>
      </trkpt>
      <trkpt lat="45.86049" lon="6.45234">
        <ele>2158.6</ele>
        <time>2024-04-27T07:46:24Z</time>
      </trkpt>
      <trkpt lat="45.86048" lon="6.45235">
        <ele>2158.6</ele>
        <time>2024-04-27T07:46:25Z</time>
      </trkpt>
      <trkpt lat="45.86048" lon="6.45236">
        <ele>2158.6</ele>
        <time>2024-04-27T07:46:26Z</time>
      </trkpt>
      <trkpt lat="45.86047" lon="6.45236">
        <ele>2158.6</ele>
        <time>2024-04-27T07:46:27Z</time>
      </trkpt>
      <trkpt lat="45.86046" lon="6.45236">
        <ele>2158.6</ele>
        <time>2024-04-27T07:46:28Z</time>
      </trkpt>
      <trkpt lat="45.86046" lon="6.45237">
        <ele>2158.6</ele>
        <time>2024-04-27T07:46:29Z</time>
      </trkpt>
      <trkpt lat="45.86046" lon="6.45236">
        <ele>2158.6</ele>
        <time>2024-04-27T07:46:30Z</time>
      </trkpt>
      <trkpt lat="45.86046" lon="6.45237">
        <ele>2158.6</ele>
        <time>2024-04-27T07:46:31Z</time>
      </trkpt>
      <trkpt lat="45.86045" lon="6.45237">
        <ele>2158.6</ele>
        <time>2024-04-27T07:46:32Z</time>
      </trkpt>
      <trkpt lat="45.86044" lon="6.45238">
        <ele>2159.7</ele>
        <time>2024-04-27T07:46:33Z</time>
      </trkpt>
      <trkpt lat="45.86043" lon="6.45239">
        <ele>2159.7</ele>
        <time>2024-04-27T07:46:34Z</time>
      </trkpt>
      <trkpt lat="45.86043" lon="6.45239">
        <ele>2159.7</ele>
        <time>2024-04-27T07:46:35Z</time>
      </trkpt>
      <trkpt lat="45.86043" lon="6.4524">
        <ele>2159.7</ele>
        <time>2024-04-27T07:46:36Z</time>
      </trkpt>
      <trkpt lat="45.86042" lon="6.45241">
        <ele>2159.7</ele>
        <time>2024-04-27T07:46:37Z</time>
      </trkpt>
      <trkpt lat="45.86043" lon="6.45241">
        <ele>2159.7</ele>
        <time>2024-04-27T07:46:38Z</time>
      </trkpt>
      <trkpt lat="45.86042" lon="6.45241">
        <ele>2159.7</ele>
        <time>2024-04-27T07:46:39Z</time>
      </trkpt>
      <trkpt lat="45.86042" lon="6.45241">
        <ele>2159.7</ele>
        <time>2024-04-27T07:46:40Z</time>
      </trkpt>
      <trkpt lat="45.86042" lon="6.45242">
        <ele>2160.6</ele>
        <time>2024-04-27T07:46:41Z</time>
      </trkpt>
      <trkpt lat="45.86042" lon="6.45242">
        <ele>2160.6</ele>
        <time>2024-04-27T07:46:42Z</time>
      </trkpt>
      <trkpt lat="45.86042" lon="6.45243">
        <ele>2160.6</ele>
        <time>2024-04-27T07:46:43Z</time>
      </trkpt>
      <trkpt lat="45.86042" lon="6.45243">
        <ele>2160.6</ele>
        <time>2024-04-27T07:46:44Z</time>
      </trkpt>
      <trkpt lat="45.86042" lon="6.45243">
        <ele>2160.6</ele>
        <time>2024-04-27T07:46:45Z</time>
      </trkpt>
      <trkpt lat="45.86042" lon="6.45243">
        <ele>2160.6</ele>
        <time>2024-04-27T07:46:46Z</time>
      </trkpt>
      <trkpt lat="45.86041" lon="6.45244">
        <ele>2161.7</ele>
        <time>2024-04-27T07:46:47Z</time>
      </trkpt>
      <trkpt lat="45.86041" lon="6.45245">
        <ele>2161.7</ele>
        <time>2024-04-27T07:46:48Z</time>
      </trkpt>
      <trkpt lat="45.8604" lon="6.45246">
        <ele>2161.7</ele>
        <time>2024-04-27T07:46:49Z</time>
      </trkpt>
      <trkpt lat="45.8604" lon="6.45246">
        <ele>2161.7</ele>
        <time>2024-04-27T07:46:50Z</time>
      </trkpt>
      <trkpt lat="45.8604" lon="6.45246">
        <ele>2161.7</ele>
        <time>2024-04-27T07:46:51Z</time>
      </trkpt>
      <trkpt lat="45.86039" lon="6.45246">
        <ele>2161.7</ele>
        <time>2024-04-27T07:46:52Z</time>
      </trkpt>
      <trkpt lat="45.86039" lon="6.45247">
        <ele>2162.6</ele>
        <time>2024-04-27T07:46:53Z</time>
      </trkpt>
      <trkpt lat="45.86039" lon="6.45247">
        <ele>2162.6</ele>
        <time>2024-04-27T07:46:54Z</time>
      </trkpt>
      <trkpt lat="45.86039" lon="6.45246">
        <ele>2162.6</ele>
        <time>2024-04-27T07:46:55Z</time>
      </trkpt>
      <trkpt lat="45.8604" lon="6.45246">
        <ele>2162.6</ele>
        <time>2024-04-27T07:46:56Z</time>
      </trkpt>
      <trkpt lat="45.8604" lon="6.45246">
        <ele>2162.6</ele>
        <time>2024-04-27T07:46:57Z</time>
      </trkpt>
      <trkpt lat="45.8604" lon="6.45246">
        <ele>2162.6</ele>
        <time>2024-04-27T07:46:58Z</time>
      </trkpt>
      <trkpt lat="45.8604" lon="6.45245">
        <ele>2162.6</ele>
        <time>2024-04-27T07:46:59Z</time>
      </trkpt>
      <trkpt lat="45.86039" lon="6.45244">
        <ele>2162.6</ele>
        <time>2024-04-27T07:47:00Z</time>
      </trkpt>
      <trkpt lat="45.8604" lon="6.45243">
        <ele>2163.6</ele>
        <time>2024-04-27T07:47:01Z</time>
      </trkpt>
      <trkpt lat="45.8604" lon="6.45242">
        <ele>2163.6</ele>
        <time>2024-04-27T07:47:02Z</time>
      </trkpt>
      <trkpt lat="45.8604" lon="6.45241">
        <ele>2163.6</ele>
        <time>2024-04-27T07:47:03Z</time>
      </trkpt>
      <trkpt lat="45.8604" lon="6.45239">
        <ele>2163.6</ele>
        <time>2024-04-27T07:47:04Z</time>
      </trkpt>
      <trkpt lat="45.8604" lon="6.45237">
        <ele>2164.7</ele>
        <time>2024-04-27T07:47:05Z</time>
      </trkpt>
      <trkpt lat="45.8604" lon="6.45237">
        <ele>2164.7</ele>
        <time>2024-04-27T07:47:06Z</time>
      </trkpt>
      <trkpt lat="45.8604" lon="6.45236">
        <ele>2164.7</ele>
        <time>2024-04-27T07:47:07Z</time>
      </trkpt>
      <trkpt lat="45.8604" lon="6.45235">
        <ele>2164.7</ele>
        <time>2024-04-27T07:47:08Z</time>
      </trkpt>
      <trkpt lat="45.8604" lon="6.45235">
        <ele>2164.7</ele>
        <time>2024-04-27T07:47:09Z</time>
      </trkpt>
      <trkpt lat="45.8604" lon="6.45234">
        <ele>2164.7</ele>
        <time>2024-04-27T07:47:10Z</time>
      </trkpt>
      <trkpt lat="45.86039" lon="6.45234">
        <ele>2165.6</ele>
        <time>2024-04-27T07:47:11Z</time>
      </trkpt>
      <trkpt lat="45.86038" lon="6.45234">
        <ele>2165.6</ele>
        <time>2024-04-27T07:47:12Z</time>
      </trkpt>
      <trkpt lat="45.86038" lon="6.45234">
        <ele>2165.6</ele>
        <time>2024-04-27T07:47:13Z</time>
      </trkpt>
      <trkpt lat="45.86038" lon="6.45233">
        <ele>2165.6</ele>
        <time>2024-04-27T07:47:14Z</time>
      </trkpt>
      <trkpt lat="45.86038" lon="6.45232">
        <ele>2166.7</ele>
        <time>2024-04-27T07:47:15Z</time>
      </trkpt>
      <trkpt lat="45.86038" lon="6.45232">
        <ele>2166.7</ele>
        <time>2024-04-27T07:47:16Z</time>
      </trkpt>
      <trkpt lat="45.86036" lon="6.45233">
        <ele>2166.7</ele>
        <time>2024-04-27T07:47:17Z</time>
      </trkpt>
      <trkpt lat="45.86036" lon="6.45232">
        <ele>2166.7</ele>
        <time>2024-04-27T07:47:18Z</time>
      </trkpt>
      <trkpt lat="45.86036" lon="6.45232">
        <ele>2166.7</ele>
        <time>2024-04-27T07:47:19Z</time>
      </trkpt>
      <trkpt lat="45.86036" lon="6.45232">
        <ele>2166.7</ele>
        <time>2024-04-27T07:47:20Z</time>
      </trkpt>
      <trkpt lat="45.86036" lon="6.45232">
        <ele>2166.7</ele>
        <time>2024-04-27T07:47:21Z</time>
      </trkpt>
      <trkpt lat="45.86036" lon="6.45232">
        <ele>2166.7</ele>
        <time>2024-04-27T07:47:22Z</time>
      </trkpt>
      <trkpt lat="45.86036" lon="6.45232">
        <ele>2166.7</ele>
        <time>2024-04-27T07:47:23Z</time>
      </trkpt>
      <trkpt lat="45.86035" lon="6.45233">
        <ele>2166.7</ele>
        <time>2024-04-27T07:47:24Z</time>
      </trkpt>
      <trkpt lat="45.86035" lon="6.45233">
        <ele>2166.7</ele>
        <time>2024-04-27T07:47:25Z</time>
      </trkpt>
      <trkpt lat="45.86036" lon="6.45234">
        <ele>2166.7</ele>
        <time>2024-04-27T07:47:26Z</time>
      </trkpt>
      <trkpt lat="45.86036" lon="6.45234">
        <ele>2166.7</ele>
        <time>2024-04-27T07:47:27Z</time>
      </trkpt>
      <trkpt lat="45.86035" lon="6.45235">
        <ele>2166.7</ele>
        <time>2024-04-27T07:47:28Z</time>
      </trkpt>
      <trkpt lat="45.86035" lon="6.45235">
        <ele>2166.7</ele>
        <time>2024-04-27T07:47:29Z</time>
      </trkpt>
      <trkpt lat="45.86035" lon="6.45235">
        <ele>2166.7</ele>
        <time>2024-04-27T07:47:30Z</time>
      </trkpt>
      <trkpt lat="45.86035" lon="6.45235">
        <ele>2166.7</ele>
        <time>2024-04-27T07:47:31Z</time>
      </trkpt>
      <trkpt lat="45.86034" lon="6.45236">
        <ele>2166.7</ele>
        <time>2024-04-27T07:47:32Z</time>
      </trkpt>
      <trkpt lat="45.86034" lon="6.45236">
        <ele>2166.7</ele>
        <time>2024-04-27T07:47:33Z</time>
      </trkpt>
      <trkpt lat="45.86034" lon="6.45237">
        <ele>2166.7</ele>
        <time>2024-04-27T07:47:34Z</time>
      </trkpt>
      <trkpt lat="45.86034" lon="6.45237">
        <ele>2166.7</ele>
        <time>2024-04-27T07:47:35Z</time>
      </trkpt>
      <trkpt lat="45.86033" lon="6.45238">
        <ele>2166.7</ele>
        <time>2024-04-27T07:47:36Z</time>
      </trkpt>
      <trkpt lat="45.86033" lon="6.45238">
        <ele>2167.6</ele>
        <time>2024-04-27T07:47:37Z</time>
      </trkpt>
      <trkpt lat="45.86033" lon="6.45239">
        <ele>2167.6</ele>
        <time>2024-04-27T07:47:38Z</time>
      </trkpt>
      <trkpt lat="45.86033" lon="6.45239">
        <ele>2167.6</ele>
        <time>2024-04-27T07:47:39Z</time>
      </trkpt>
      <trkpt lat="45.86033" lon="6.4524">
        <ele>2167.6</ele>
        <time>2024-04-27T07:47:40Z</time>
      </trkpt>
      <trkpt lat="45.86033" lon="6.45241">
        <ele>2168.7</ele>
        <time>2024-04-27T07:47:41Z</time>
      </trkpt>
      <trkpt lat="45.86033" lon="6.45241">
        <ele>2168.7</ele>
        <time>2024-04-27T07:47:42Z</time>
      </trkpt>
      <trkpt lat="45.86032" lon="6.45243">
        <ele>2168.7</ele>
        <time>2024-04-27T07:47:43Z</time>
      </trkpt>
      <trkpt lat="45.86032" lon="6.45244">
        <ele>2168.7</ele>
        <time>2024-04-27T07:47:44Z</time>
      </trkpt>
      <trkpt lat="45.86033" lon="6.45245">
        <ele>2168.7</ele>
        <time>2024-04-27T07:47:45Z</time>
      </trkpt>
      <trkpt lat="45.86033" lon="6.45245">
        <ele>2168.7</ele>
        <time>2024-04-27T07:47:46Z</time>
      </trkpt>
      <trkpt lat="45.86033" lon="6.45245">
        <ele>2168.7</ele>
        <time>2024-04-27T07:47:47Z</time>
      </trkpt>
      <trkpt lat="45.86033" lon="6.45245">
        <ele>2168.7</ele>
        <time>2024-04-27T07:47:48Z</time>
      </trkpt>
      <trkpt lat="45.86032" lon="6.45245">
        <ele>2169.6</ele>
        <time>2024-04-27T07:47:49Z</time>
      </trkpt>
      <trkpt lat="45.86033" lon="6.45244">
        <ele>2169.6</ele>
        <time>2024-04-27T07:47:50Z</time>
      </trkpt>
      <trkpt lat="45.86032" lon="6.45244">
        <ele>2169.6</ele>
        <time>2024-04-27T07:47:51Z</time>
      </trkpt>
      <trkpt lat="45.86032" lon="6.45243">
        <ele>2169.6</ele>
        <time>2024-04-27T07:47:52Z</time>
      </trkpt>
      <trkpt lat="45.86032" lon="6.45242">
        <ele>2170.7</ele>
        <time>2024-04-27T07:47:53Z</time>
      </trkpt>
      <trkpt lat="45.86032" lon="6.45241">
        <ele>2170.7</ele>
        <time>2024-04-27T07:47:54Z</time>
      </trkpt>
      <trkpt lat="45.86032" lon="6.4524">
        <ele>2170.7</ele>
        <time>2024-04-27T07:47:55Z</time>
      </trkpt>
      <trkpt lat="45.86032" lon="6.45238">
        <ele>2170.7</ele>
        <time>2024-04-27T07:47:56Z</time>
      </trkpt>
      <trkpt lat="45.86031" lon="6.45237">
        <ele>2170.7</ele>
        <time>2024-04-27T07:47:57Z</time>
      </trkpt>
      <trkpt lat="45.86031" lon="6.45237">
        <ele>2170.7</ele>
        <time>2024-04-27T07:47:58Z</time>
      </trkpt>
      <trkpt lat="45.86031" lon="6.45235">
        <ele>2171.6</ele>
        <time>2024-04-27T07:47:59Z</time>
      </trkpt>
      <trkpt lat="45.86031" lon="6.45234">
        <ele>2171.6</ele>
        <time>2024-04-27T07:48:00Z</time>
      </trkpt>
      <trkpt lat="45.86032" lon="6.45233">
        <ele>2171.6</ele>
        <time>2024-04-27T07:48:01Z</time>
      </trkpt>
      <trkpt lat="45.86033" lon="6.45231">
        <ele>2171.6</ele>
        <time>2024-04-27T07:48:02Z</time>
      </trkpt>
      <trkpt lat="45.86033" lon="6.45229">
        <ele>2171.6</ele>
        <time>2024-04-27T07:48:03Z</time>
      </trkpt>
      <trkpt lat="45.86033" lon="6.45229">
        <ele>2171.6</ele>
        <time>2024-04-27T07:48:04Z</time>
      </trkpt>
      <trkpt lat="45.86033" lon="6.45229">
        <ele>2172.6</ele>
        <time>2024-04-27T07:48:05Z</time>
      </trkpt>
      <trkpt lat="45.86032" lon="6.45229">
        <ele>2172.6</ele>
        <time>2024-04-27T07:48:06Z</time>
      </trkpt>
      <trkpt lat="45.86031" lon="6.45228">
        <ele>2172.6</ele>
        <time>2024-04-27T07:48:07Z</time>
      </trkpt>
      <trkpt lat="45.8603" lon="6.45228">
        <ele>2172.6</ele>
        <time>2024-04-27T07:48:08Z</time>
      </trkpt>
      <trkpt lat="45.8603" lon="6.45228">
        <ele>2172.6</ele>
        <time>2024-04-27T07:48:09Z</time>
      </trkpt>
      <trkpt lat="45.8603" lon="6.45227">
        <ele>2172.6</ele>
        <time>2024-04-27T07:48:10Z</time>
      </trkpt>
      <trkpt lat="45.8603" lon="6.45226">
        <ele>2173.7</ele>
        <time>2024-04-27T07:48:11Z</time>
      </trkpt>
      <trkpt lat="45.86029" lon="6.45225">
        <ele>2173.7</ele>
        <time>2024-04-27T07:48:12Z</time>
      </trkpt>
      <trkpt lat="45.86029" lon="6.45225">
        <ele>2173.7</ele>
        <time>2024-04-27T07:48:13Z</time>
      </trkpt>
      <trkpt lat="45.86029" lon="6.45224">
        <ele>2173.7</ele>
        <time>2024-04-27T07:48:14Z</time>
      </trkpt>
      <trkpt lat="45.86029" lon="6.45223">
        <ele>2174.6</ele>
        <time>2024-04-27T07:48:15Z</time>
      </trkpt>
      <trkpt lat="45.86029" lon="6.45223">
        <ele>2174.6</ele>
        <time>2024-04-27T07:48:16Z</time>
      </trkpt>
      <trkpt lat="45.86029" lon="6.45222">
        <ele>2174.6</ele>
        <time>2024-04-27T07:48:17Z</time>
      </trkpt>
      <trkpt lat="45.8603" lon="6.45221">
        <ele>2174.6</ele>
        <time>2024-04-27T07:48:18Z</time>
      </trkpt>
      <trkpt lat="45.86031" lon="6.4522">
        <ele>2174.6</ele>
        <time>2024-04-27T07:48:19Z</time>
      </trkpt>
      <trkpt lat="45.86032" lon="6.45219">
        <ele>2174.6</ele>
        <time>2024-04-27T07:48:20Z</time>
      </trkpt>
      <trkpt lat="45.86032" lon="6.45218">
        <ele>2174.6</ele>
        <time>2024-04-27T07:48:21Z</time>
      </trkpt>
      <trkpt lat="45.86032" lon="6.45218">
        <ele>2174.6</ele>
        <time>2024-04-27T07:48:22Z</time>
      </trkpt>
      <trkpt lat="45.86032" lon="6.45216">
        <ele>2175.7</ele>
        <time>2024-04-27T07:48:23Z</time>
      </trkpt>
      <trkpt lat="45.86033" lon="6.45215">
        <ele>2175.7</ele>
        <time>2024-04-27T07:48:24Z</time>
      </trkpt>
      <trkpt lat="45.86033" lon="6.45214">
        <ele>2175.7</ele>
        <time>2024-04-27T07:48:25Z</time>
      </trkpt>
      <trkpt lat="45.86033" lon="6.45214">
        <ele>2175.7</ele>
        <time>2024-04-27T07:48:26Z</time>
      </trkpt>
      <trkpt lat="45.86033" lon="6.45215">
        <ele>2175.7</ele>
        <time>2024-04-27T07:48:27Z</time>
      </trkpt>
      <trkpt lat="45.86033" lon="6.45214">
        <ele>2175.7</ele>
        <time>2024-04-27T07:48:28Z</time>
      </trkpt>
      <trkpt lat="45.86034" lon="6.45214">
        <ele>2175.7</ele>
        <time>2024-04-27T07:48:29Z</time>
      </trkpt>
      <trkpt lat="45.86034" lon="6.45214">
        <ele>2175.7</ele>
        <time>2024-04-27T07:48:30Z</time>
      </trkpt>
      <trkpt lat="45.86034" lon="6.45214">
        <ele>2175.7</ele>
        <time>2024-04-27T07:48:31Z</time>
      </trkpt>
      <trkpt lat="45.86034" lon="6.45213">
        <ele>2175.7</ele>
        <time>2024-04-27T07:48:32Z</time>
      </trkpt>
      <trkpt lat="45.86035" lon="6.45213">
        <ele>2175.7</ele>
        <time>2024-04-27T07:48:33Z</time>
      </trkpt>
      <trkpt lat="45.86035" lon="6.45213">
        <ele>2175.7</ele>
        <time>2024-04-27T07:48:34Z</time>
      </trkpt>
      <trkpt lat="45.86035" lon="6.45212">
        <ele>2175.7</ele>
        <time>2024-04-27T07:48:35Z</time>
      </trkpt>
      <trkpt lat="45.86035" lon="6.45212">
        <ele>2175.7</ele>
        <time>2024-04-27T07:48:36Z</time>
      </trkpt>
      <trkpt lat="45.86034" lon="6.45213">
        <ele>2175.7</ele>
        <time>2024-04-27T07:48:37Z</time>
      </trkpt>
      <trkpt lat="45.86033" lon="6.45213">
        <ele>2175.7</ele>
        <time>2024-04-27T07:48:38Z</time>
      </trkpt>
      <trkpt lat="45.86033" lon="6.45213">
        <ele>2175.7</ele>
        <time>2024-04-27T07:48:39Z</time>
      </trkpt>
      <trkpt lat="45.86032" lon="6.45213">
        <ele>2175.7</ele>
        <time>2024-04-27T07:48:40Z</time>
      </trkpt>
      <trkpt lat="45.86031" lon="6.45213">
        <ele>2175.7</ele>
        <time>2024-04-27T07:48:41Z</time>
      </trkpt>
      <trkpt lat="45.8603" lon="6.45214">
        <ele>2175.7</ele>
        <time>2024-04-27T07:48:42Z</time>
      </trkpt>
      <trkpt lat="45.86029" lon="6.45214">
        <ele>2175.7</ele>
        <time>2024-04-27T07:48:43Z</time>
      </trkpt>
      <trkpt lat="45.86028" lon="6.45215">
        <ele>2175.7</ele>
        <time>2024-04-27T07:48:44Z</time>
      </trkpt>
      <trkpt lat="45.86027" lon="6.45215">
        <ele>2176.6</ele>
        <time>2024-04-27T07:48:45Z</time>
      </trkpt>
      <trkpt lat="45.86027" lon="6.45216">
        <ele>2176.6</ele>
        <time>2024-04-27T07:48:46Z</time>
      </trkpt>
      <trkpt lat="45.86026" lon="6.45217">
        <ele>2176.6</ele>
        <time>2024-04-27T07:48:47Z</time>
      </trkpt>
      <trkpt lat="45.86026" lon="6.45217">
        <ele>2176.6</ele>
        <time>2024-04-27T07:48:48Z</time>
      </trkpt>
      <trkpt lat="45.86026" lon="6.45217">
        <ele>2176.6</ele>
        <time>2024-04-27T07:48:49Z</time>
      </trkpt>
      <trkpt lat="45.86025" lon="6.45218">
        <ele>2176.6</ele>
        <time>2024-04-27T07:48:50Z</time>
      </trkpt>
      <trkpt lat="45.86025" lon="6.45219">
        <ele>2177.7</ele>
        <time>2024-04-27T07:48:51Z</time>
      </trkpt>
      <trkpt lat="45.86024" lon="6.4522">
        <ele>2177.7</ele>
        <time>2024-04-27T07:48:52Z</time>
      </trkpt>
      <trkpt lat="45.86024" lon="6.45221">
        <ele>2177.7</ele>
        <time>2024-04-27T07:48:53Z</time>
      </trkpt>
      <trkpt lat="45.86023" lon="6.45221">
        <ele>2177.7</ele>
        <time>2024-04-27T07:48:54Z</time>
      </trkpt>
      <trkpt lat="45.86023" lon="6.45221">
        <ele>2178.6</ele>
        <time>2024-04-27T07:48:55Z</time>
      </trkpt>
      <trkpt lat="45.86023" lon="6.45221">
        <ele>2178.6</ele>
        <time>2024-04-27T07:48:56Z</time>
      </trkpt>
      <trkpt lat="45.86024" lon="6.45221">
        <ele>2178.6</ele>
        <time>2024-04-27T07:48:57Z</time>
      </trkpt>
      <trkpt lat="45.86024" lon="6.45221">
        <ele>2178.6</ele>
        <time>2024-04-27T07:48:58Z</time>
      </trkpt>
      <trkpt lat="45.86023" lon="6.45222">
        <ele>2179.7</ele>
        <time>2024-04-27T07:48:59Z</time>
      </trkpt>
      <trkpt lat="45.86022" lon="6.45223">
        <ele>2179.7</ele>
        <time>2024-04-27T07:49:00Z</time>
      </trkpt>
      <trkpt lat="45.86022" lon="6.45223">
        <ele>2179.7</ele>
        <time>2024-04-27T07:49:01Z</time>
      </trkpt>
      <trkpt lat="45.86021" lon="6.45225">
        <ele>2179.7</ele>
        <time>2024-04-27T07:49:02Z</time>
      </trkpt>
      <trkpt lat="45.8602" lon="6.45226">
        <ele>2179.7</ele>
        <time>2024-04-27T07:49:03Z</time>
      </trkpt>
      <trkpt lat="45.8602" lon="6.45226">
        <ele>2179.7</ele>
        <time>2024-04-27T07:49:04Z</time>
      </trkpt>
      <trkpt lat="45.8602" lon="6.45227">
        <ele>2180.7</ele>
        <time>2024-04-27T07:49:05Z</time>
      </trkpt>
      <trkpt lat="45.86019" lon="6.45228">
        <ele>2180.7</ele>
        <time>2024-04-27T07:49:06Z</time>
      </trkpt>
      <trkpt lat="45.86019" lon="6.45228">
        <ele>2180.7</ele>
        <time>2024-04-27T07:49:07Z</time>
      </trkpt>
      <trkpt lat="45.86019" lon="6.45229">
        <ele>2180.7</ele>
        <time>2024-04-27T07:49:08Z</time>
      </trkpt>
      <trkpt lat="45.86018" lon="6.4523">
        <ele>2180.7</ele>
        <time>2024-04-27T07:49:09Z</time>
      </trkpt>
      <trkpt lat="45.86018" lon="6.4523">
        <ele>2180.7</ele>
        <time>2024-04-27T07:49:10Z</time>
      </trkpt>
      <trkpt lat="45.86018" lon="6.4523">
        <ele>2181.6</ele>
        <time>2024-04-27T07:49:11Z</time>
      </trkpt>
      <trkpt lat="45.86018" lon="6.4523">
        <ele>2181.6</ele>
        <time>2024-04-27T07:49:12Z</time>
      </trkpt>
      <trkpt lat="45.86018" lon="6.45231">
        <ele>2181.6</ele>
        <time>2024-04-27T07:49:13Z</time>
      </trkpt>
      <trkpt lat="45.86018" lon="6.45232">
        <ele>2181.6</ele>
        <time>2024-04-27T07:49:14Z</time>
      </trkpt>
      <trkpt lat="45.86018" lon="6.45232">
        <ele>2182.7</ele>
        <time>2024-04-27T07:49:15Z</time>
      </trkpt>
      <trkpt lat="45.86018" lon="6.45232">
        <ele>2182.7</ele>
        <time>2024-04-27T07:49:16Z</time>
      </trkpt>
      <trkpt lat="45.86017" lon="6.45232">
        <ele>2182.7</ele>
        <time>2024-04-27T07:49:17Z</time>
      </trkpt>
      <trkpt lat="45.86017" lon="6.45232">
        <ele>2182.7</ele>
        <time>2024-04-27T07:49:18Z</time>
      </trkpt>
      <trkpt lat="45.86017" lon="6.45232">
        <ele>2182.7</ele>
        <time>2024-04-27T07:49:19Z</time>
      </trkpt>
      <trkpt lat="45.86017" lon="6.45231">
        <ele>2182.7</ele>
        <time>2024-04-27T07:49:20Z</time>
      </trkpt>
      <trkpt lat="45.86017" lon="6.4523">
        <ele>2183.6</ele>
        <time>2024-04-27T07:49:21Z</time>
      </trkpt>
      <trkpt lat="45.86017" lon="6.45229">
        <ele>2183.6</ele>
        <time>2024-04-27T07:49:22Z</time>
      </trkpt>
      <trkpt lat="45.86017" lon="6.45228">
        <ele>2183.6</ele>
        <time>2024-04-27T07:49:23Z</time>
      </trkpt>
      <trkpt lat="45.86017" lon="6.45227">
        <ele>2183.6</ele>
        <time>2024-04-27T07:49:24Z</time>
      </trkpt>
      <trkpt lat="45.86017" lon="6.45226">
        <ele>2183.6</ele>
        <time>2024-04-27T07:49:25Z</time>
      </trkpt>
      <trkpt lat="45.86017" lon="6.45225">
        <ele>2183.6</ele>
        <time>2024-04-27T07:49:26Z</time>
      </trkpt>
      <trkpt lat="45.86017" lon="6.45224">
        <ele>2183.6</ele>
        <time>2024-04-27T07:49:27Z</time>
      </trkpt>
      <trkpt lat="45.86018" lon="6.45223">
        <ele>2183.6</ele>
        <time>2024-04-27T07:49:28Z</time>
      </trkpt>
      <trkpt lat="45.86018" lon="6.45222">
        <ele>2184.7</ele>
        <time>2024-04-27T07:49:29Z</time>
      </trkpt>
      <trkpt lat="45.86018" lon="6.4522">
        <ele>2184.7</ele>
        <time>2024-04-27T07:49:30Z</time>
      </trkpt>
      <trkpt lat="45.86018" lon="6.45219">
        <ele>2184.7</ele>
        <time>2024-04-27T07:49:31Z</time>
      </trkpt>
      <trkpt lat="45.86017" lon="6.45219">
        <ele>2184.7</ele>
        <time>2024-04-27T07:49:32Z</time>
      </trkpt>
      <trkpt lat="45.86017" lon="6.45219">
        <ele>2184.7</ele>
        <time>2024-04-27T07:49:33Z</time>
      </trkpt>
      <trkpt lat="45.86017" lon="6.45218">
        <ele>2184.7</ele>
        <time>2024-04-27T07:49:34Z</time>
      </trkpt>
      <trkpt lat="45.86017" lon="6.45217">
        <ele>2184.7</ele>
        <time>2024-04-27T07:49:35Z</time>
      </trkpt>
      <trkpt lat="45.86017" lon="6.45216">
        <ele>2184.7</ele>
        <time>2024-04-27T07:49:36Z</time>
      </trkpt>
      <trkpt lat="45.86017" lon="6.45215">
        <ele>2185.6</ele>
        <time>2024-04-27T07:49:37Z</time>
      </trkpt>
      <trkpt lat="45.86017" lon="6.45215">
        <ele>2185.6</ele>
        <time>2024-04-27T07:49:38Z</time>
      </trkpt>
      <trkpt lat="45.86017" lon="6.45215">
        <ele>2185.6</ele>
        <time>2024-04-27T07:49:39Z</time>
      </trkpt>
      <trkpt lat="45.86017" lon="6.45214">
        <ele>2185.6</ele>
        <time>2024-04-27T07:49:40Z</time>
      </trkpt>
      <trkpt lat="45.86017" lon="6.45213">
        <ele>2185.6</ele>
        <time>2024-04-27T07:49:41Z</time>
      </trkpt>
      <trkpt lat="45.86017" lon="6.45212">
        <ele>2185.6</ele>
        <time>2024-04-27T07:49:42Z</time>
      </trkpt>
      <trkpt lat="45.86017" lon="6.45212">
        <ele>2186.7</ele>
        <time>2024-04-27T07:49:43Z</time>
      </trkpt>
      <trkpt lat="45.86017" lon="6.45212">
        <ele>2186.7</ele>
        <time>2024-04-27T07:49:44Z</time>
      </trkpt>
      <trkpt lat="45.86017" lon="6.45211">
        <ele>2186.7</ele>
        <time>2024-04-27T07:49:45Z</time>
      </trkpt>
      <trkpt lat="45.86017" lon="6.45211">
        <ele>2186.7</ele>
        <time>2024-04-27T07:49:46Z</time>
      </trkpt>
      <trkpt lat="45.86017" lon="6.45211">
        <ele>2186.7</ele>
        <time>2024-04-27T07:49:47Z</time>
      </trkpt>
      <trkpt lat="45.86017" lon="6.45211">
        <ele>2186.7</ele>
        <time>2024-04-27T07:49:48Z</time>
      </trkpt>
      <trkpt lat="45.86016" lon="6.45211">
        <ele>2186.7</ele>
        <time>2024-04-27T07:49:49Z</time>
      </trkpt>
      <trkpt lat="45.86016" lon="6.45212">
        <ele>2186.7</ele>
        <time>2024-04-27T07:49:50Z</time>
      </trkpt>
      <trkpt lat="45.86016" lon="6.45212">
        <ele>2186.7</ele>
        <time>2024-04-27T07:49:51Z</time>
      </trkpt>
      <trkpt lat="45.86016" lon="6.45213">
        <ele>2186.7</ele>
        <time>2024-04-27T07:49:52Z</time>
      </trkpt>
      <trkpt lat="45.86015" lon="6.45213">
        <ele>2186.7</ele>
        <time>2024-04-27T07:49:53Z</time>
      </trkpt>
      <trkpt lat="45.86014" lon="6.45214">
        <ele>2186.7</ele>
        <time>2024-04-27T07:49:54Z</time>
      </trkpt>
      <trkpt lat="45.86014" lon="6.45214">
        <ele>2187.6</ele>
        <time>2024-04-27T07:49:55Z</time>
      </trkpt>
      <trkpt lat="45.86014" lon="6.45214">
        <ele>2187.6</ele>
        <time>2024-04-27T07:49:56Z</time>
      </trkpt>
      <trkpt lat="45.86013" lon="6.45215">
        <ele>2187.6</ele>
        <time>2024-04-27T07:49:57Z</time>
      </trkpt>
      <trkpt lat="45.86014" lon="6.45216">
        <ele>2187.6</ele>
        <time>2024-04-27T07:49:58Z</time>
      </trkpt>
      <trkpt lat="45.86013" lon="6.45217">
        <ele>2187.6</ele>
        <time>2024-04-27T07:49:59Z</time>
      </trkpt>
      <trkpt lat="45.86013" lon="6.45217">
        <ele>2187.6</ele>
        <time>2024-04-27T07:50:00Z</time>
      </trkpt>
      <trkpt lat="45.86013" lon="6.45218">
        <ele>2187.6</ele>
        <time>2024-04-27T07:50:01Z</time>
      </trkpt>
      <trkpt lat="45.86012" lon="6.45219">
        <ele>2187.6</ele>
        <time>2024-04-27T07:50:02Z</time>
      </trkpt>
      <trkpt lat="45.86011" lon="6.4522">
        <ele>2188.6</ele>
        <time>2024-04-27T07:50:03Z</time>
      </trkpt>
      <trkpt lat="45.86011" lon="6.4522">
        <ele>2188.6</ele>
        <time>2024-04-27T07:50:04Z</time>
      </trkpt>
      <trkpt lat="45.86011" lon="6.45221">
        <ele>2188.6</ele>
        <time>2024-04-27T07:50:05Z</time>
      </trkpt>
      <trkpt lat="45.86011" lon="6.45222">
        <ele>2188.6</ele>
        <time>2024-04-27T07:50:06Z</time>
      </trkpt>
      <trkpt lat="45.86011" lon="6.45222">
        <ele>2188.6</ele>
        <time>2024-04-27T07:50:07Z</time>
      </trkpt>
      <trkpt lat="45.86011" lon="6.45222">
        <ele>2188.6</ele>
        <time>2024-04-27T07:50:08Z</time>
      </trkpt>
      <trkpt lat="45.8601" lon="6.45223">
        <ele>2188.6</ele>
        <time>2024-04-27T07:50:09Z</time>
      </trkpt>
      <trkpt lat="45.8601" lon="6.45224">
        <ele>2188.6</ele>
        <time>2024-04-27T07:50:10Z</time>
      </trkpt>
      <trkpt lat="45.86009" lon="6.45227">
        <ele>2188.6</ele>
        <time>2024-04-27T07:50:11Z</time>
      </trkpt>
      <trkpt lat="45.86008" lon="6.45228">
        <ele>2188.6</ele>
        <time>2024-04-27T07:50:12Z</time>
      </trkpt>
      <trkpt lat="45.86008" lon="6.45228">
        <ele>2188.6</ele>
        <time>2024-04-27T07:50:13Z</time>
      </trkpt>
      <trkpt lat="45.86009" lon="6.45228">
        <ele>2188.6</ele>
        <time>2024-04-27T07:50:14Z</time>
      </trkpt>
      <trkpt lat="45.86008" lon="6.45229">
        <ele>2189.7</ele>
        <time>2024-04-27T07:50:15Z</time>
      </trkpt>
      <trkpt lat="45.86009" lon="6.45229">
        <ele>2189.7</ele>
        <time>2024-04-27T07:50:16Z</time>
      </trkpt>
      <trkpt lat="45.86009" lon="6.4523">
        <ele>2189.7</ele>
        <time>2024-04-27T07:50:17Z</time>
      </trkpt>
      <trkpt lat="45.86008" lon="6.4523">
        <ele>2189.7</ele>
        <time>2024-04-27T07:50:18Z</time>
      </trkpt>
      <trkpt lat="45.86008" lon="6.45231">
        <ele>2189.7</ele>
        <time>2024-04-27T07:50:19Z</time>
      </trkpt>
      <trkpt lat="45.86007" lon="6.45231">
        <ele>2189.7</ele>
        <time>2024-04-27T07:50:20Z</time>
      </trkpt>
      <trkpt lat="45.86007" lon="6.45232">
        <ele>2189.7</ele>
        <time>2024-04-27T07:50:21Z</time>
      </trkpt>
      <trkpt lat="45.86007" lon="6.45233">
        <ele>2189.7</ele>
        <time>2024-04-27T07:50:22Z</time>
      </trkpt>
      <trkpt lat="45.86008" lon="6.45233">
        <ele>2190.6</ele>
        <time>2024-04-27T07:50:23Z</time>
      </trkpt>
      <trkpt lat="45.86008" lon="6.45233">
        <ele>2190.6</ele>
        <time>2024-04-27T07:50:24Z</time>
      </trkpt>
      <trkpt lat="45.86008" lon="6.45233">
        <ele>2190.6</ele>
        <time>2024-04-27T07:50:25Z</time>
      </trkpt>
      <trkpt lat="45.86008" lon="6.45233">
        <ele>2190.6</ele>
        <time>2024-04-27T07:50:26Z</time>
      </trkpt>
      <trkpt lat="45.86008" lon="6.45232">
        <ele>2191.7</ele>
        <time>2024-04-27T07:50:27Z</time>
      </trkpt>
      <trkpt lat="45.86008" lon="6.45231">
        <ele>2191.7</ele>
        <time>2024-04-27T07:50:28Z</time>
      </trkpt>
      <trkpt lat="45.86007" lon="6.45231">
        <ele>2191.7</ele>
        <time>2024-04-27T07:50:29Z</time>
      </trkpt>
      <trkpt lat="45.86007" lon="6.45231">
        <ele>2191.7</ele>
        <time>2024-04-27T07:50:30Z</time>
      </trkpt>
      <trkpt lat="45.86007" lon="6.45231">
        <ele>2191.7</ele>
        <time>2024-04-27T07:50:31Z</time>
      </trkpt>
      <trkpt lat="45.86006" lon="6.4523">
        <ele>2191.7</ele>
        <time>2024-04-27T07:50:32Z</time>
      </trkpt>
      <trkpt lat="45.86006" lon="6.4523">
        <ele>2192.6</ele>
        <time>2024-04-27T07:50:33Z</time>
      </trkpt>
      <trkpt lat="45.86006" lon="6.45229">
        <ele>2192.6</ele>
        <time>2024-04-27T07:50:34Z</time>
      </trkpt>
      <trkpt lat="45.86006" lon="6.45229">
        <ele>2192.6</ele>
        <time>2024-04-27T07:50:35Z</time>
      </trkpt>
      <trkpt lat="45.86006" lon="6.45228">
        <ele>2192.6</ele>
        <time>2024-04-27T07:50:36Z</time>
      </trkpt>
      <trkpt lat="45.86005" lon="6.45228">
        <ele>2192.6</ele>
        <time>2024-04-27T07:50:37Z</time>
      </trkpt>
      <trkpt lat="45.86005" lon="6.45227">
        <ele>2192.6</ele>
        <time>2024-04-27T07:50:38Z</time>
      </trkpt>
      <trkpt lat="45.86004" lon="6.45228">
        <ele>2192.6</ele>
        <time>2024-04-27T07:50:39Z</time>
      </trkpt>
      <trkpt lat="45.86004" lon="6.45227">
        <ele>2192.6</ele>
        <time>2024-04-27T07:50:40Z</time>
      </trkpt>
      <trkpt lat="45.86003" lon="6.45227">
        <ele>2193.7</ele>
        <time>2024-04-27T07:50:41Z</time>
      </trkpt>
      <trkpt lat="45.86003" lon="6.45226">
        <ele>2193.7</ele>
        <time>2024-04-27T07:50:42Z</time>
      </trkpt>
      <trkpt lat="45.86004" lon="6.45225">
        <ele>2193.7</ele>
        <time>2024-04-27T07:50:43Z</time>
      </trkpt>
      <trkpt lat="45.86003" lon="6.45224">
        <ele>2193.7</ele>
        <time>2024-04-27T07:50:44Z</time>
      </trkpt>
      <trkpt lat="45.86003" lon="6.45224">
        <ele>2194.6</ele>
        <time>2024-04-27T07:50:45Z</time>
      </trkpt>
      <trkpt lat="45.86003" lon="6.45223">
        <ele>2194.6</ele>
        <time>2024-04-27T07:50:46Z</time>
      </trkpt>
      <trkpt lat="45.86002" lon="6.45223">
        <ele>2194.6</ele>
        <time>2024-04-27T07:50:47Z</time>
      </trkpt>
      <trkpt lat="45.86002" lon="6.45223">
        <ele>2194.6</ele>
        <time>2024-04-27T07:50:48Z</time>
      </trkpt>
      <trkpt lat="45.86002" lon="6.45223">
        <ele>2194.6</ele>
        <time>2024-04-27T07:50:49Z</time>
      </trkpt>
      <trkpt lat="45.86002" lon="6.45222">
        <ele>2194.6</ele>
        <time>2024-04-27T07:50:50Z</time>
      </trkpt>
      <trkpt lat="45.86003" lon="6.45221">
        <ele>2194.6</ele>
        <time>2024-04-27T07:50:51Z</time>
      </trkpt>
      <trkpt lat="45.86003" lon="6.45221">
        <ele>2194.6</ele>
        <time>2024-04-27T07:50:52Z</time>
      </trkpt>
      <trkpt lat="45.86003" lon="6.45221">
        <ele>2195.7</ele>
        <time>2024-04-27T07:50:53Z</time>
      </trkpt>
      <trkpt lat="45.86003" lon="6.45221">
        <ele>2195.7</ele>
        <time>2024-04-27T07:50:54Z</time>
      </trkpt>
      <trkpt lat="45.86003" lon="6.45221">
        <ele>2195.7</ele>
        <time>2024-04-27T07:50:55Z</time>
      </trkpt>
      <trkpt lat="45.86003" lon="6.45221">
        <ele>2195.7</ele>
        <time>2024-04-27T07:50:56Z</time>
      </trkpt>
      <trkpt lat="45.86003" lon="6.45222">
        <ele>2195.7</ele>
        <time>2024-04-27T07:50:57Z</time>
      </trkpt>
      <trkpt lat="45.86002" lon="6.45223">
        <ele>2195.7</ele>
        <time>2024-04-27T07:50:58Z</time>
      </trkpt>
      <trkpt lat="45.86002" lon="6.45224">
        <ele>2195.7</ele>
        <time>2024-04-27T07:50:59Z</time>
      </trkpt>
      <trkpt lat="45.86001" lon="6.45224">
        <ele>2195.7</ele>
        <time>2024-04-27T07:51:00Z</time>
      </trkpt>
      <trkpt lat="45.86" lon="6.45223">
        <ele>2195.7</ele>
        <time>2024-04-27T07:51:01Z</time>
      </trkpt>
      <trkpt lat="45.86" lon="6.45223">
        <ele>2195.7</ele>
        <time>2024-04-27T07:51:02Z</time>
      </trkpt>
      <trkpt lat="45.85999" lon="6.45224">
        <ele>2195.7</ele>
        <time>2024-04-27T07:51:03Z</time>
      </trkpt>
      <trkpt lat="45.85999" lon="6.45225">
        <ele>2195.7</ele>
        <time>2024-04-27T07:51:04Z</time>
      </trkpt>
      <trkpt lat="45.85999" lon="6.45225">
        <ele>2195.7</ele>
        <time>2024-04-27T07:51:05Z</time>
      </trkpt>
      <trkpt lat="45.85999" lon="6.45226">
        <ele>2195.7</ele>
        <time>2024-04-27T07:51:06Z</time>
      </trkpt>
      <trkpt lat="45.85999" lon="6.45227">
        <ele>2195.7</ele>
        <time>2024-04-27T07:51:07Z</time>
      </trkpt>
      <trkpt lat="45.85999" lon="6.45227">
        <ele>2195.7</ele>
        <time>2024-04-27T07:51:08Z</time>
      </trkpt>
      <trkpt lat="45.85998" lon="6.45227">
        <ele>2196.7</ele>
        <time>2024-04-27T07:51:09Z</time>
      </trkpt>
      <trkpt lat="45.85998" lon="6.45227">
        <ele>2196.7</ele>
        <time>2024-04-27T07:51:10Z</time>
      </trkpt>
      <trkpt lat="45.85998" lon="6.45228">
        <ele>2196.7</ele>
        <time>2024-04-27T07:51:11Z</time>
      </trkpt>
      <trkpt lat="45.85997" lon="6.45229">
        <ele>2196.7</ele>
        <time>2024-04-27T07:51:12Z</time>
      </trkpt>
      <trkpt lat="45.85997" lon="6.45229">
        <ele>2196.7</ele>
        <time>2024-04-27T07:51:13Z</time>
      </trkpt>
      <trkpt lat="45.85997" lon="6.4523">
        <ele>2196.7</ele>
        <time>2024-04-27T07:51:14Z</time>
      </trkpt>
      <trkpt lat="45.85997" lon="6.45231">
        <ele>2197.6</ele>
        <time>2024-04-27T07:51:15Z</time>
      </trkpt>
      <trkpt lat="45.85997" lon="6.45232">
        <ele>2197.6</ele>
        <time>2024-04-27T07:51:16Z</time>
      </trkpt>
      <trkpt lat="45.85996" lon="6.45233">
        <ele>2197.6</ele>
        <time>2024-04-27T07:51:17Z</time>
      </trkpt>
      <trkpt lat="45.85996" lon="6.45233">
        <ele>2197.6</ele>
        <time>2024-04-27T07:51:18Z</time>
      </trkpt>
      <trkpt lat="45.85997" lon="6.45234">
        <ele>2197.6</ele>
        <time>2024-04-27T07:51:19Z</time>
      </trkpt>
      <trkpt lat="45.85997" lon="6.45235">
        <ele>2197.6</ele>
        <time>2024-04-27T07:51:20Z</time>
      </trkpt>
      <trkpt lat="45.85997" lon="6.45235">
        <ele>2198.7</ele>
        <time>2024-04-27T07:51:21Z</time>
      </trkpt>
      <trkpt lat="45.85997" lon="6.45236">
        <ele>2198.7</ele>
        <time>2024-04-27T07:51:22Z</time>
      </trkpt>
      <trkpt lat="45.85997" lon="6.45236">
        <ele>2198.7</ele>
        <time>2024-04-27T07:51:23Z</time>
      </trkpt>
      <trkpt lat="45.85997" lon="6.45237">
        <ele>2198.7</ele>
        <time>2024-04-27T07:51:24Z</time>
      </trkpt>
      <trkpt lat="45.85998" lon="6.45237">
        <ele>2199.6</ele>
        <time>2024-04-27T07:51:25Z</time>
      </trkpt>
      <trkpt lat="45.85998" lon="6.45237">
        <ele>2199.6</ele>
        <time>2024-04-27T07:51:26Z</time>
      </trkpt>
      <trkpt lat="45.85998" lon="6.45236">
        <ele>2199.6</ele>
        <time>2024-04-27T07:51:27Z</time>
      </trkpt>
      <trkpt lat="45.85998" lon="6.45236">
        <ele>2199.6</ele>
        <time>2024-04-27T07:51:28Z</time>
      </trkpt>
      <trkpt lat="45.85997" lon="6.45235">
        <ele>2200.7</ele>
        <time>2024-04-27T07:51:29Z</time>
      </trkpt>
      <trkpt lat="45.85997" lon="6.45235">
        <ele>2200.7</ele>
        <time>2024-04-27T07:51:30Z</time>
      </trkpt>
      <trkpt lat="45.85997" lon="6.45234">
        <ele>2200.7</ele>
        <time>2024-04-27T07:51:31Z</time>
      </trkpt>
      <trkpt lat="45.85997" lon="6.45233">
        <ele>2200.7</ele>
        <time>2024-04-27T07:51:32Z</time>
      </trkpt>
      <trkpt lat="45.85997" lon="6.45233">
        <ele>2200.7</ele>
        <time>2024-04-27T07:51:33Z</time>
      </trkpt>
      <trkpt lat="45.85997" lon="6.45232">
        <ele>2200.7</ele>
        <time>2024-04-27T07:51:34Z</time>
      </trkpt>
      <trkpt lat="45.85996" lon="6.45232">
        <ele>2200.7</ele>
        <time>2024-04-27T07:51:35Z</time>
      </trkpt>
      <trkpt lat="45.85996" lon="6.45231">
        <ele>2200.7</ele>
        <time>2024-04-27T07:51:36Z</time>
      </trkpt>
      <trkpt lat="45.85997" lon="6.4523">
        <ele>2201.6</ele>
        <time>2024-04-27T07:51:37Z</time>
      </trkpt>
      <trkpt lat="45.85995" lon="6.45231">
        <ele>2201.6</ele>
        <time>2024-04-27T07:51:38Z</time>
      </trkpt>
      <trkpt lat="45.85994" lon="6.45231">
        <ele>2201.6</ele>
        <time>2024-04-27T07:51:39Z</time>
      </trkpt>
      <trkpt lat="45.85994" lon="6.4523">
        <ele>2201.6</ele>
        <time>2024-04-27T07:51:40Z</time>
      </trkpt>
      <trkpt lat="45.85994" lon="6.45229">
        <ele>2201.6</ele>
        <time>2024-04-27T07:51:41Z</time>
      </trkpt>
      <trkpt lat="45.85994" lon="6.45228">
        <ele>2201.6</ele>
        <time>2024-04-27T07:51:42Z</time>
      </trkpt>
      <trkpt lat="45.85994" lon="6.45227">
        <ele>2201.6</ele>
        <time>2024-04-27T07:51:43Z</time>
      </trkpt>
      <trkpt lat="45.85994" lon="6.45227">
        <ele>2201.6</ele>
        <time>2024-04-27T07:51:44Z</time>
      </trkpt>
      <trkpt lat="45.85993" lon="6.45228">
        <ele>2202.7</ele>
        <time>2024-04-27T07:51:45Z</time>
      </trkpt>
      <trkpt lat="45.85993" lon="6.45228">
        <ele>2202.7</ele>
        <time>2024-04-27T07:51:46Z</time>
      </trkpt>
      <trkpt lat="45.85993" lon="6.45228">
        <ele>2202.7</ele>
        <time>2024-04-27T07:51:47Z</time>
      </trkpt>
      <trkpt lat="45.85992" lon="6.45228">
        <ele>2202.7</ele>
        <time>2024-04-27T07:51:48Z</time>
      </trkpt>
      <trkpt lat="45.85991" lon="6.45228">
        <ele>2202.7</ele>
        <time>2024-04-27T07:51:49Z</time>
      </trkpt>
      <trkpt lat="45.8599" lon="6.45228">
        <ele>2202.7</ele>
        <time>2024-04-27T07:51:50Z</time>
      </trkpt>
      <trkpt lat="45.85989" lon="6.45227">
        <ele>2203.6</ele>
        <time>2024-04-27T07:51:51Z</time>
      </trkpt>
      <trkpt lat="45.85989" lon="6.45225">
        <ele>2203.6</ele>
        <time>2024-04-27T07:51:52Z</time>
      </trkpt>
      <trkpt lat="45.8599" lon="6.45224">
        <ele>2203.6</ele>
        <time>2024-04-27T07:51:53Z</time>
      </trkpt>
      <trkpt lat="45.8599" lon="6.45223">
        <ele>2203.6</ele>
        <time>2024-04-27T07:51:54Z</time>
      </trkpt>
      <trkpt lat="45.8599" lon="6.45223">
        <ele>2203.6</ele>
        <time>2024-04-27T07:51:55Z</time>
      </trkpt>
      <trkpt lat="45.8599" lon="6.45223">
        <ele>2203.6</ele>
        <time>2024-04-27T07:51:56Z</time>
      </trkpt>
      <trkpt lat="45.85991" lon="6.45223">
        <ele>2203.6</ele>
        <time>2024-04-27T07:51:57Z</time>
      </trkpt>
      <trkpt lat="45.8599" lon="6.45223">
        <ele>2203.6</ele>
        <time>2024-04-27T07:51:58Z</time>
      </trkpt>
      <trkpt lat="45.8599" lon="6.45223">
        <ele>2203.6</ele>
        <time>2024-04-27T07:51:59Z</time>
      </trkpt>
      <trkpt lat="45.85989" lon="6.45223">
        <ele>2203.6</ele>
        <time>2024-04-27T07:52:00Z</time>
      </trkpt>
      <trkpt lat="45.8599" lon="6.45223">
        <ele>2203.6</ele>
        <time>2024-04-27T07:52:01Z</time>
      </trkpt>
      <trkpt lat="45.8599" lon="6.45223">
        <ele>2203.6</ele>
        <time>2024-04-27T07:52:02Z</time>
      </trkpt>
      <trkpt lat="45.8599" lon="6.45224">
        <ele>2203.6</ele>
        <time>2024-04-27T07:52:03Z</time>
      </trkpt>
      <trkpt lat="45.8599" lon="6.45224">
        <ele>2203.6</ele>
        <time>2024-04-27T07:52:04Z</time>
      </trkpt>
      <trkpt lat="45.8599" lon="6.45224">
        <ele>2203.6</ele>
        <time>2024-04-27T07:52:05Z</time>
      </trkpt>
      <trkpt lat="45.8599" lon="6.45224">
        <ele>2203.6</ele>
        <time>2024-04-27T07:52:06Z</time>
      </trkpt>
      <trkpt lat="45.8599" lon="6.45224">
        <ele>2203.6</ele>
        <time>2024-04-27T07:52:07Z</time>
      </trkpt>
      <trkpt lat="45.8599" lon="6.45224">
        <ele>2203.6</ele>
        <time>2024-04-27T07:52:08Z</time>
      </trkpt>
      <trkpt lat="45.8599" lon="6.45224">
        <ele>2203.6</ele>
        <time>2024-04-27T07:52:09Z</time>
      </trkpt>
      <trkpt lat="45.8599" lon="6.45224">
        <ele>2203.6</ele>
        <time>2024-04-27T07:52:10Z</time>
      </trkpt>
      <trkpt lat="45.8599" lon="6.45224">
        <ele>2204.6</ele>
        <time>2024-04-27T07:52:11Z</time>
      </trkpt>
      <trkpt lat="45.8599" lon="6.45225">
        <ele>2204.6</ele>
        <time>2024-04-27T07:52:12Z</time>
      </trkpt>
      <trkpt lat="45.85989" lon="6.45225">
        <ele>2204.6</ele>
        <time>2024-04-27T07:52:13Z</time>
      </trkpt>
      <trkpt lat="45.85989" lon="6.45226">
        <ele>2204.6</ele>
        <time>2024-04-27T07:52:14Z</time>
      </trkpt>
      <trkpt lat="45.85989" lon="6.45227">
        <ele>2205.7</ele>
        <time>2024-04-27T07:52:15Z</time>
      </trkpt>
      <trkpt lat="45.85989" lon="6.45227">
        <ele>2205.7</ele>
        <time>2024-04-27T07:52:16Z</time>
      </trkpt>
      <trkpt lat="45.85989" lon="6.45227">
        <ele>2205.7</ele>
        <time>2024-04-27T07:52:17Z</time>
      </trkpt>
      <trkpt lat="45.85988" lon="6.45227">
        <ele>2205.7</ele>
        <time>2024-04-27T07:52:18Z</time>
      </trkpt>
      <trkpt lat="45.85988" lon="6.45227">
        <ele>2206.6</ele>
        <time>2024-04-27T07:52:19Z</time>
      </trkpt>
      <trkpt lat="45.85988" lon="6.45227">
        <ele>2206.6</ele>
        <time>2024-04-27T07:52:20Z</time>
      </trkpt>
      <trkpt lat="45.85988" lon="6.45227">
        <ele>2206.6</ele>
        <time>2024-04-27T07:52:21Z</time>
      </trkpt>
      <trkpt lat="45.85988" lon="6.45227">
        <ele>2206.6</ele>
        <time>2024-04-27T07:52:22Z</time>
      </trkpt>
      <trkpt lat="45.85988" lon="6.45227">
        <ele>2206.6</ele>
        <time>2024-04-27T07:52:23Z</time>
      </trkpt>
      <trkpt lat="45.85988" lon="6.45227">
        <ele>2206.6</ele>
        <time>2024-04-27T07:52:24Z</time>
      </trkpt>
      <trkpt lat="45.85988" lon="6.45227">
        <ele>2207.7</ele>
        <time>2024-04-27T07:52:25Z</time>
      </trkpt>
      <trkpt lat="45.85988" lon="6.45227">
        <ele>2207.7</ele>
        <time>2024-04-27T07:52:26Z</time>
      </trkpt>
      <trkpt lat="45.85988" lon="6.45227">
        <ele>2207.7</ele>
        <time>2024-04-27T07:52:27Z</time>
      </trkpt>
      <trkpt lat="45.85988" lon="6.45227">
        <ele>2207.7</ele>
        <time>2024-04-27T07:52:28Z</time>
      </trkpt>
      <trkpt lat="45.85988" lon="6.45227">
        <ele>2208.6</ele>
        <time>2024-04-27T07:52:29Z</time>
      </trkpt>
      <trkpt lat="45.85988" lon="6.45227">
        <ele>2208.6</ele>
        <time>2024-04-27T07:52:30Z</time>
      </trkpt>
      <trkpt lat="45.85988" lon="6.45227">
        <ele>2208.6</ele>
        <time>2024-04-27T07:52:31Z</time>
      </trkpt>
      <trkpt lat="45.85988" lon="6.45227">
        <ele>2208.6</ele>
        <time>2024-04-27T07:52:32Z</time>
      </trkpt>
      <trkpt lat="45.85988" lon="6.45227">
        <ele>2208.6</ele>
        <time>2024-04-27T07:52:33Z</time>
      </trkpt>
      <trkpt lat="45.85988" lon="6.45227">
        <ele>2208.6</ele>
        <time>2024-04-27T07:52:34Z</time>
      </trkpt>
      <trkpt lat="45.85988" lon="6.45226">
        <ele>2208.6</ele>
        <time>2024-04-27T07:52:35Z</time>
      </trkpt>
      <trkpt lat="45.85988" lon="6.45224">
        <ele>2208.6</ele>
        <time>2024-04-27T07:52:36Z</time>
      </trkpt>
      <trkpt lat="45.85987" lon="6.45223">
        <ele>2209.7</ele>
        <time>2024-04-27T07:52:37Z</time>
      </trkpt>
      <trkpt lat="45.85987" lon="6.45222">
        <ele>2209.7</ele>
        <time>2024-04-27T07:52:38Z</time>
      </trkpt>
      <trkpt lat="45.85987" lon="6.4522">
        <ele>2209.7</ele>
        <time>2024-04-27T07:52:39Z</time>
      </trkpt>
      <trkpt lat="45.85988" lon="6.45218">
        <ele>2209.7</ele>
        <time>2024-04-27T07:52:40Z</time>
      </trkpt>
      <trkpt lat="45.85989" lon="6.45217">
        <ele>2209.7</ele>
        <time>2024-04-27T07:52:41Z</time>
      </trkpt>
      <trkpt lat="45.85989" lon="6.45215">
        <ele>2209.7</ele>
        <time>2024-04-27T07:52:42Z</time>
      </trkpt>
      <trkpt lat="45.85988" lon="6.45214">
        <ele>2209.7</ele>
        <time>2024-04-27T07:52:43Z</time>
      </trkpt>
      <trkpt lat="45.85988" lon="6.45213">
        <ele>2209.7</ele>
        <time>2024-04-27T07:52:44Z</time>
      </trkpt>
      <trkpt lat="45.85987" lon="6.45214">
        <ele>2209.7</ele>
        <time>2024-04-27T07:52:45Z</time>
      </trkpt>
      <trkpt lat="45.85988" lon="6.45214">
        <ele>2209.7</ele>
        <time>2024-04-27T07:52:46Z</time>
      </trkpt>
      <trkpt lat="45.85988" lon="6.45214">
        <ele>2209.7</ele>
        <time>2024-04-27T07:52:47Z</time>
      </trkpt>
      <trkpt lat="45.85988" lon="6.45214">
        <ele>2209.7</ele>
        <time>2024-04-27T07:52:48Z</time>
      </trkpt>
      <trkpt lat="45.85988" lon="6.45214">
        <ele>2209.7</ele>
        <time>2024-04-27T07:52:49Z</time>
      </trkpt>
      <trkpt lat="45.85988" lon="6.45214">
        <ele>2209.7</ele>
        <time>2024-04-27T07:52:50Z</time>
      </trkpt>
      <trkpt lat="45.85988" lon="6.45214">
        <ele>2209.7</ele>
        <time>2024-04-27T07:52:51Z</time>
      </trkpt>
      <trkpt lat="45.85988" lon="6.45214">
        <ele>2209.7</ele>
        <time>2024-04-27T07:52:52Z</time>
      </trkpt>
      <trkpt lat="45.85988" lon="6.45214">
        <ele>2209.7</ele>
        <time>2024-04-27T07:52:53Z</time>
      </trkpt>
      <trkpt lat="45.85988" lon="6.45214">
        <ele>2209.7</ele>
        <time>2024-04-27T07:52:54Z</time>
      </trkpt>
      <trkpt lat="45.85988" lon="6.45214">
        <ele>2210.6</ele>
        <time>2024-04-27T07:52:55Z</time>
      </trkpt>
      <trkpt lat="45.85988" lon="6.45214">
        <ele>2210.6</ele>
        <time>2024-04-27T07:52:56Z</time>
      </trkpt>
      <trkpt lat="45.85988" lon="6.45214">
        <ele>2210.6</ele>
        <time>2024-04-27T07:52:57Z</time>
      </trkpt>
      <trkpt lat="45.85988" lon="6.45214">
        <ele>2210.6</ele>
        <time>2024-04-27T07:52:58Z</time>
      </trkpt>
      <trkpt lat="45.85988" lon="6.45214">
        <ele>2210.6</ele>
        <time>2024-04-27T07:52:59Z</time>
      </trkpt>
      <trkpt lat="45.85988" lon="6.45214">
        <ele>2210.6</ele>
        <time>2024-04-27T07:53:00Z</time>
      </trkpt>
      <trkpt lat="45.85987" lon="6.45214">
        <ele>2210.6</ele>
        <time>2024-04-27T07:53:01Z</time>
      </trkpt>
      <trkpt lat="45.85987" lon="6.45214">
        <ele>2210.6</ele>
        <time>2024-04-27T07:53:02Z</time>
      </trkpt>
      <trkpt lat="45.85987" lon="6.45214">
        <ele>2210.6</ele>
        <time>2024-04-27T07:53:03Z</time>
      </trkpt>
      <trkpt lat="45.85987" lon="6.45215">
        <ele>2210.6</ele>
        <time>2024-04-27T07:53:04Z</time>
      </trkpt>
      <trkpt lat="45.85986" lon="6.45216">
        <ele>2211.7</ele>
        <time>2024-04-27T07:53:05Z</time>
      </trkpt>
      <trkpt lat="45.85985" lon="6.45217">
        <ele>2211.7</ele>
        <time>2024-04-27T07:53:06Z</time>
      </trkpt>
      <trkpt lat="45.85985" lon="6.45218">
        <ele>2211.7</ele>
        <time>2024-04-27T07:53:07Z</time>
      </trkpt>
      <trkpt lat="45.85984" lon="6.4522">
        <ele>2211.7</ele>
        <time>2024-04-27T07:53:08Z</time>
      </trkpt>
      <trkpt lat="45.85984" lon="6.45221">
        <ele>2211.7</ele>
        <time>2024-04-27T07:53:09Z</time>
      </trkpt>
      <trkpt lat="45.85983" lon="6.45222">
        <ele>2211.7</ele>
        <time>2024-04-27T07:53:10Z</time>
      </trkpt>
      <trkpt lat="45.85983" lon="6.45223">
        <ele>2212.7</ele>
        <time>2024-04-27T07:53:11Z</time>
      </trkpt>
      <trkpt lat="45.85982" lon="6.45224">
        <ele>2212.7</ele>
        <time>2024-04-27T07:53:12Z</time>
      </trkpt>
      <trkpt lat="45.85981" lon="6.45225">
        <ele>2212.7</ele>
        <time>2024-04-27T07:53:13Z</time>
      </trkpt>
      <trkpt lat="45.85981" lon="6.45225">
        <ele>2212.7</ele>
        <time>2024-04-27T07:53:14Z</time>
      </trkpt>
      <trkpt lat="45.85981" lon="6.45226">
        <ele>2212.7</ele>
        <time>2024-04-27T07:53:15Z</time>
      </trkpt>
      <trkpt lat="45.85981" lon="6.45226">
        <ele>2212.7</ele>
        <time>2024-04-27T07:53:16Z</time>
      </trkpt>
      <trkpt lat="45.85981" lon="6.45226">
        <ele>2213.6</ele>
        <time>2024-04-27T07:53:17Z</time>
      </trkpt>
      <trkpt lat="45.85981" lon="6.45226">
        <ele>2213.6</ele>
        <time>2024-04-27T07:53:18Z</time>
      </trkpt>
      <trkpt lat="45.85981" lon="6.45226">
        <ele>2213.6</ele>
        <time>2024-04-27T07:53:19Z</time>
      </trkpt>
      <trkpt lat="45.85981" lon="6.45226">
        <ele>2213.6</ele>
        <time>2024-04-27T07:53:20Z</time>
      </trkpt>
      <trkpt lat="45.85981" lon="6.45226">
        <ele>2214.7</ele>
        <time>2024-04-27T07:53:21Z</time>
      </trkpt>
      <trkpt lat="45.8598" lon="6.45226">
        <ele>2214.7</ele>
        <time>2024-04-27T07:53:22Z</time>
      </trkpt>
      <trkpt lat="45.8598" lon="6.45225">
        <ele>2214.7</ele>
        <time>2024-04-27T07:53:23Z</time>
      </trkpt>
      <trkpt lat="45.8598" lon="6.45225">
        <ele>2214.7</ele>
        <time>2024-04-27T07:53:24Z</time>
      </trkpt>
      <trkpt lat="45.85979" lon="6.45225">
        <ele>2214.7</ele>
        <time>2024-04-27T07:53:25Z</time>
      </trkpt>
      <trkpt lat="45.85979" lon="6.45224">
        <ele>2214.7</ele>
        <time>2024-04-27T07:53:26Z</time>
      </trkpt>
      <trkpt lat="45.85979" lon="6.45223">
        <ele>2215.6</ele>
        <time>2024-04-27T07:53:27Z</time>
      </trkpt>
      <trkpt lat="45.85979" lon="6.45223">
        <ele>2215.6</ele>
        <time>2024-04-27T07:53:28Z</time>
      </trkpt>
      <trkpt lat="45.85979" lon="6.45222">
        <ele>2215.6</ele>
        <time>2024-04-27T07:53:29Z</time>
      </trkpt>
      <trkpt lat="45.85979" lon="6.45221">
        <ele>2215.6</ele>
        <time>2024-04-27T07:53:30Z</time>
      </trkpt>
      <trkpt lat="45.85979" lon="6.4522">
        <ele>2215.6</ele>
        <time>2024-04-27T07:53:31Z</time>
      </trkpt>
      <trkpt lat="45.8598" lon="6.45219">
        <ele>2215.6</ele>
        <time>2024-04-27T07:53:32Z</time>
      </trkpt>
      <trkpt lat="45.85979" lon="6.45218">
        <ele>2215.6</ele>
        <time>2024-04-27T07:53:33Z</time>
      </trkpt>
      <trkpt lat="45.85979" lon="6.45218">
        <ele>2215.6</ele>
        <time>2024-04-27T07:53:34Z</time>
      </trkpt>
      <trkpt lat="45.85979" lon="6.45218">
        <ele>2216.7</ele>
        <time>2024-04-27T07:53:35Z</time>
      </trkpt>
      <trkpt lat="45.85979" lon="6.45217">
        <ele>2216.7</ele>
        <time>2024-04-27T07:53:36Z</time>
      </trkpt>
      <trkpt lat="45.85978" lon="6.45216">
        <ele>2216.7</ele>
        <time>2024-04-27T07:53:37Z</time>
      </trkpt>
      <trkpt lat="45.85978" lon="6.45216">
        <ele>2216.7</ele>
        <time>2024-04-27T07:53:38Z</time>
      </trkpt>
      <trkpt lat="45.85977" lon="6.45216">
        <ele>2216.7</ele>
        <time>2024-04-27T07:53:39Z</time>
      </trkpt>
      <trkpt lat="45.85977" lon="6.45215">
        <ele>2216.7</ele>
        <time>2024-04-27T07:53:40Z</time>
      </trkpt>
      <trkpt lat="45.85977" lon="6.45215">
        <ele>2216.7</ele>
        <time>2024-04-27T07:53:41Z</time>
      </trkpt>
      <trkpt lat="45.85977" lon="6.45216">
        <ele>2216.7</ele>
        <time>2024-04-27T07:53:42Z</time>
      </trkpt>
      <trkpt lat="45.85977" lon="6.45216">
        <ele>2217.6</ele>
        <time>2024-04-27T07:53:43Z</time>
      </trkpt>
      <trkpt lat="45.85977" lon="6.45216">
        <ele>2217.6</ele>
        <time>2024-04-27T07:53:44Z</time>
      </trkpt>
      <trkpt lat="45.85977" lon="6.45215">
        <ele>2217.6</ele>
        <time>2024-04-27T07:53:45Z</time>
      </trkpt>
      <trkpt lat="45.85977" lon="6.45215">
        <ele>2217.6</ele>
        <time>2024-04-27T07:53:46Z</time>
      </trkpt>
      <trkpt lat="45.85978" lon="6.45215">
        <ele>2217.6</ele>
        <time>2024-04-27T07:53:47Z</time>
      </trkpt>
      <trkpt lat="45.85978" lon="6.45214">
        <ele>2217.6</ele>
        <time>2024-04-27T07:53:48Z</time>
      </trkpt>
      <trkpt lat="45.85979" lon="6.45214">
        <ele>2217.6</ele>
        <time>2024-04-27T07:53:49Z</time>
      </trkpt>
      <trkpt lat="45.85979" lon="6.45214">
        <ele>2217.6</ele>
        <time>2024-04-27T07:53:50Z</time>
      </trkpt>
      <trkpt lat="45.85979" lon="6.45214">
        <ele>2217.6</ele>
        <time>2024-04-27T07:53:51Z</time>
      </trkpt>
      <trkpt lat="45.85979" lon="6.45214">
        <ele>2217.6</ele>
        <time>2024-04-27T07:53:52Z</time>
      </trkpt>
      <trkpt lat="45.85979" lon="6.45214">
        <ele>2217.6</ele>
        <time>2024-04-27T07:53:53Z</time>
      </trkpt>
      <trkpt lat="45.85979" lon="6.45214">
        <ele>2217.6</ele>
        <time>2024-04-27T07:53:54Z</time>
      </trkpt>
      <trkpt lat="45.85979" lon="6.45214">
        <ele>2217.6</ele>
        <time>2024-04-27T07:53:55Z</time>
      </trkpt>
      <trkpt lat="45.85979" lon="6.45214">
        <ele>2217.6</ele>
        <time>2024-04-27T07:53:56Z</time>
      </trkpt>
      <trkpt lat="45.85979" lon="6.45214">
        <ele>2217.6</ele>
        <time>2024-04-27T07:53:57Z</time>
      </trkpt>
      <trkpt lat="45.85979" lon="6.45214">
        <ele>2217.6</ele>
        <time>2024-04-27T07:53:58Z</time>
      </trkpt>
      <trkpt lat="45.85979" lon="6.45214">
        <ele>2217.6</ele>
        <time>2024-04-27T07:53:59Z</time>
      </trkpt>
      <trkpt lat="45.85979" lon="6.45214">
        <ele>2217.6</ele>
        <time>2024-04-27T07:54:00Z</time>
      </trkpt>
      <trkpt lat="45.85979" lon="6.45214">
        <ele>2217.6</ele>
        <time>2024-04-27T07:54:01Z</time>
      </trkpt>
      <trkpt lat="45.85979" lon="6.45214">
        <ele>2217.6</ele>
        <time>2024-04-27T07:54:02Z</time>
      </trkpt>
      <trkpt lat="45.85979" lon="6.45214">
        <ele>2218.7</ele>
        <time>2024-04-27T07:54:03Z</time>
      </trkpt>
      <trkpt lat="45.85978" lon="6.45214">
        <ele>2218.7</ele>
        <time>2024-04-27T07:54:04Z</time>
      </trkpt>
      <trkpt lat="45.85978" lon="6.45214">
        <ele>2218.7</ele>
        <time>2024-04-27T07:54:05Z</time>
      </trkpt>
      <trkpt lat="45.85978" lon="6.45214">
        <ele>2218.7</ele>
        <time>2024-04-27T07:54:06Z</time>
      </trkpt>
      <trkpt lat="45.85978" lon="6.45214">
        <ele>2218.7</ele>
        <time>2024-04-27T07:54:07Z</time>
      </trkpt>
      <trkpt lat="45.85978" lon="6.45214">
        <ele>2218.7</ele>
        <time>2024-04-27T07:54:08Z</time>
      </trkpt>
      <trkpt lat="45.85978" lon="6.45214">
        <ele>2219.6</ele>
        <time>2024-04-27T07:54:09Z</time>
      </trkpt>
      <trkpt lat="45.85977" lon="6.45214">
        <ele>2219.6</ele>
        <time>2024-04-27T07:54:10Z</time>
      </trkpt>
      <trkpt lat="45.85977" lon="6.45214">
        <ele>2219.6</ele>
        <time>2024-04-27T07:54:11Z</time>
      </trkpt>
      <trkpt lat="45.85977" lon="6.45214">
        <ele>2219.6</ele>
        <time>2024-04-27T07:54:12Z</time>
      </trkpt>
      <trkpt lat="45.85977" lon="6.45214">
        <ele>2219.6</ele>
        <time>2024-04-27T07:54:13Z</time>
      </trkpt>
      <trkpt lat="45.85977" lon="6.45214">
        <ele>2219.6</ele>
        <time>2024-04-27T07:54:14Z</time>
      </trkpt>
      <trkpt lat="45.85977" lon="6.45214">
        <ele>2219.6</ele>
        <time>2024-04-27T07:54:15Z</time>
      </trkpt>
      <trkpt lat="45.85977" lon="6.45214">
        <ele>2219.6</ele>
        <time>2024-04-27T07:54:16Z</time>
      </trkpt>
      <trkpt lat="45.85977" lon="6.45215">
        <ele>2220.6</ele>
        <time>2024-04-27T07:54:17Z</time>
      </trkpt>
      <trkpt lat="45.85977" lon="6.45216">
        <ele>2220.6</ele>
        <time>2024-04-27T07:54:18Z</time>
      </trkpt>
      <trkpt lat="45.85976" lon="6.45218">
        <ele>2220.6</ele>
        <time>2024-04-27T07:54:19Z</time>
      </trkpt>
      <trkpt lat="45.85975" lon="6.45219">
        <ele>2220.6</ele>
        <time>2024-04-27T07:54:20Z</time>
      </trkpt>
      <trkpt lat="45.85975" lon="6.4522">
        <ele>2220.6</ele>
        <time>2024-04-27T07:54:21Z</time>
      </trkpt>
      <trkpt lat="45.85974" lon="6.45222">
        <ele>2220.6</ele>
        <time>2024-04-27T07:54:22Z</time>
      </trkpt>
      <trkpt lat="45.85973" lon="6.45223">
        <ele>2220.6</ele>
        <time>2024-04-27T07:54:23Z</time>
      </trkpt>
      <trkpt lat="45.85972" lon="6.45224">
        <ele>2220.6</ele>
        <time>2024-04-27T07:54:24Z</time>
      </trkpt>
      <trkpt lat="45.85972" lon="6.45224">
        <ele>2220.6</ele>
        <time>2024-04-27T07:54:25Z</time>
      </trkpt>
      <trkpt lat="45.85972" lon="6.45225">
        <ele>2220.6</ele>
        <time>2024-04-27T07:54:26Z</time>
      </trkpt>
      <trkpt lat="45.85972" lon="6.45224">
        <ele>2221.7</ele>
        <time>2024-04-27T07:54:27Z</time>
      </trkpt>
      <trkpt lat="45.85972" lon="6.45223">
        <ele>2221.7</ele>
        <time>2024-04-27T07:54:28Z</time>
      </trkpt>
      <trkpt lat="45.85971" lon="6.45222">
        <ele>2221.7</ele>
        <time>2024-04-27T07:54:29Z</time>
      </trkpt>
      <trkpt lat="45.85971" lon="6.45221">
        <ele>2221.7</ele>
        <time>2024-04-27T07:54:30Z</time>
      </trkpt>
      <trkpt lat="45.85971" lon="6.45221">
        <ele>2221.7</ele>
        <time>2024-04-27T07:54:31Z</time>
      </trkpt>
      <trkpt lat="45.85971" lon="6.4522">
        <ele>2221.7</ele>
        <time>2024-04-27T07:54:32Z</time>
      </trkpt>
      <trkpt lat="45.8597" lon="6.4522">
        <ele>2222.6</ele>
        <time>2024-04-27T07:54:33Z</time>
      </trkpt>
      <trkpt lat="45.8597" lon="6.4522">
        <ele>2222.6</ele>
        <time>2024-04-27T07:54:34Z</time>
      </trkpt>
      <trkpt lat="45.8597" lon="6.45219">
        <ele>2222.6</ele>
        <time>2024-04-27T07:54:35Z</time>
      </trkpt>
      <trkpt lat="45.85969" lon="6.45219">
        <ele>2222.6</ele>
        <time>2024-04-27T07:54:36Z</time>
      </trkpt>
      <trkpt lat="45.85969" lon="6.45218">
        <ele>2222.6</ele>
        <time>2024-04-27T07:54:37Z</time>
      </trkpt>
      <trkpt lat="45.85969" lon="6.45218">
        <ele>2222.6</ele>
        <time>2024-04-27T07:54:38Z</time>
      </trkpt>
      <trkpt lat="45.85969" lon="6.45217">
        <ele>2222.6</ele>
        <time>2024-04-27T07:54:39Z</time>
      </trkpt>
      <trkpt lat="45.85969" lon="6.45217">
        <ele>2222.6</ele>
        <time>2024-04-27T07:54:40Z</time>
      </trkpt>
      <trkpt lat="45.85969" lon="6.45215">
        <ele>2223.7</ele>
        <time>2024-04-27T07:54:41Z</time>
      </trkpt>
      <trkpt lat="45.85969" lon="6.45215">
        <ele>2223.7</ele>
        <time>2024-04-27T07:54:42Z</time>
      </trkpt>
      <trkpt lat="45.85968" lon="6.45214">
        <ele>2223.7</ele>
        <time>2024-04-27T07:54:43Z</time>
      </trkpt>
      <trkpt lat="45.85968" lon="6.45214">
        <ele>2223.7</ele>
        <time>2024-04-27T07:54:44Z</time>
      </trkpt>
      <trkpt lat="45.85967" lon="6.45214">
        <ele>2223.7</ele>
        <time>2024-04-27T07:54:45Z</time>
      </trkpt>
      <trkpt lat="45.85967" lon="6.45213">
        <ele>2223.7</ele>
        <time>2024-04-27T07:54:46Z</time>
      </trkpt>
      <trkpt lat="45.85967" lon="6.45212">
        <ele>2223.7</ele>
        <time>2024-04-27T07:54:47Z</time>
      </trkpt>
      <trkpt lat="45.85967" lon="6.45211">
        <ele>2223.7</ele>
        <time>2024-04-27T07:54:48Z</time>
      </trkpt>
      <trkpt lat="45.85967" lon="6.4521">
        <ele>2224.6</ele>
        <time>2024-04-27T07:54:49Z</time>
      </trkpt>
      <trkpt lat="45.85967" lon="6.45209">
        <ele>2224.6</ele>
        <time>2024-04-27T07:54:50Z</time>
      </trkpt>
      <trkpt lat="45.85967" lon="6.45208">
        <ele>2224.6</ele>
        <time>2024-04-27T07:54:51Z</time>
      </trkpt>
      <trkpt lat="45.85968" lon="6.45208">
        <ele>2224.6</ele>
        <time>2024-04-27T07:54:52Z</time>
      </trkpt>
      <trkpt lat="45.85968" lon="6.45208">
        <ele>2225.7</ele>
        <time>2024-04-27T07:54:53Z</time>
      </trkpt>
      <trkpt lat="45.85967" lon="6.45209">
        <ele>2225.7</ele>
        <time>2024-04-27T07:54:54Z</time>
      </trkpt>
      <trkpt lat="45.85967" lon="6.45209">
        <ele>2225.7</ele>
        <time>2024-04-27T07:54:55Z</time>
      </trkpt>
      <trkpt lat="45.85967" lon="6.45209">
        <ele>2225.7</ele>
        <time>2024-04-27T07:54:56Z</time>
      </trkpt>
      <trkpt lat="45.85968" lon="6.45209">
        <ele>2225.7</ele>
        <time>2024-04-27T07:54:57Z</time>
      </trkpt>
      <trkpt lat="45.85969" lon="6.4521">
        <ele>2225.7</ele>
        <time>2024-04-27T07:54:58Z</time>
      </trkpt>
      <trkpt lat="45.85969" lon="6.4521">
        <ele>2225.7</ele>
        <time>2024-04-27T07:54:59Z</time>
      </trkpt>
      <trkpt lat="45.85969" lon="6.45211">
        <ele>2225.7</ele>
        <time>2024-04-27T07:55:00Z</time>
      </trkpt>
      <trkpt lat="45.85968" lon="6.45212">
        <ele>2225.7</ele>
        <time>2024-04-27T07:55:01Z</time>
      </trkpt>
      <trkpt lat="45.85968" lon="6.45212">
        <ele>2225.7</ele>
        <time>2024-04-27T07:55:02Z</time>
      </trkpt>
      <trkpt lat="45.85968" lon="6.45213">
        <ele>2225.7</ele>
        <time>2024-04-27T07:55:03Z</time>
      </trkpt>
      <trkpt lat="45.85968" lon="6.45213">
        <ele>2225.7</ele>
        <time>2024-04-27T07:55:04Z</time>
      </trkpt>
      <trkpt lat="45.85968" lon="6.45214">
        <ele>2225.7</ele>
        <time>2024-04-27T07:55:05Z</time>
      </trkpt>
      <trkpt lat="45.85968" lon="6.45214">
        <ele>2225.7</ele>
        <time>2024-04-27T07:55:06Z</time>
      </trkpt>
      <trkpt lat="45.85968" lon="6.45215">
        <ele>2226.6</ele>
        <time>2024-04-27T07:55:07Z</time>
      </trkpt>
      <trkpt lat="45.85967" lon="6.45215">
        <ele>2226.6</ele>
        <time>2024-04-27T07:55:08Z</time>
      </trkpt>
      <trkpt lat="45.85967" lon="6.45216">
        <ele>2226.6</ele>
        <time>2024-04-27T07:55:09Z</time>
      </trkpt>
      <trkpt lat="45.85967" lon="6.45216">
        <ele>2226.6</ele>
        <time>2024-04-27T07:55:10Z</time>
      </trkpt>
      <trkpt lat="45.85967" lon="6.45216">
        <ele>2226.6</ele>
        <time>2024-04-27T07:55:11Z</time>
      </trkpt>
      <trkpt lat="45.85967" lon="6.45216">
        <ele>2226.6</ele>
        <time>2024-04-27T07:55:12Z</time>
      </trkpt>
      <trkpt lat="45.85967" lon="6.45216">
        <ele>2226.6</ele>
        <time>2024-04-27T07:55:13Z</time>
      </trkpt>
      <trkpt lat="45.85967" lon="6.45216">
        <ele>2226.6</ele>
        <time>2024-04-27T07:55:14Z</time>
      </trkpt>
      <trkpt lat="45.85967" lon="6.45216">
        <ele>2227.7</ele>
        <time>2024-04-27T07:55:15Z</time>
      </trkpt>
      <trkpt lat="45.85967" lon="6.45216">
        <ele>2227.7</ele>
        <time>2024-04-27T07:55:16Z</time>
      </trkpt>
      <trkpt lat="45.85967" lon="6.45216">
        <ele>2227.7</ele>
        <time>2024-04-27T07:55:17Z</time>
      </trkpt>
      <trkpt lat="45.85967" lon="6.45216">
        <ele>2227.7</ele>
        <time>2024-04-27T07:55:18Z</time>
      </trkpt>
      <trkpt lat="45.85967" lon="6.45216">
        <ele>2227.7</ele>
        <time>2024-04-27T07:55:19Z</time>
      </trkpt>
      <trkpt lat="45.85967" lon="6.45216">
        <ele>2227.7</ele>
        <time>2024-04-27T07:55:20Z</time>
      </trkpt>
      <trkpt lat="45.85967" lon="6.45216">
        <ele>2227.7</ele>
        <time>2024-04-27T07:55:21Z</time>
      </trkpt>
      <trkpt lat="45.85967" lon="6.45216">
        <ele>2227.7</ele>
        <time>2024-04-27T07:55:22Z</time>
      </trkpt>
      <trkpt lat="45.85967" lon="6.45216">
        <ele>2227.7</ele>
        <time>2024-04-27T07:55:23Z</time>
      </trkpt>
      <trkpt lat="45.85967" lon="6.45216">
        <ele>2227.7</ele>
        <time>2024-04-27T07:55:24Z</time>
      </trkpt>
      <trkpt lat="45.85967" lon="6.45216">
        <ele>2228.7</ele>
        <time>2024-04-27T07:55:25Z</time>
      </trkpt>
      <trkpt lat="45.85967" lon="6.45216">
        <ele>2228.7</ele>
        <time>2024-04-27T07:55:26Z</time>
      </trkpt>
      <trkpt lat="45.85967" lon="6.45216">
        <ele>2228.7</ele>
        <time>2024-04-27T07:55:27Z</time>
      </trkpt>
      <trkpt lat="45.85967" lon="6.45216">
        <ele>2228.7</ele>
        <time>2024-04-27T07:55:28Z</time>
      </trkpt>
      <trkpt lat="45.85967" lon="6.45216">
        <ele>2228.7</ele>
        <time>2024-04-27T07:55:29Z</time>
      </trkpt>
      <trkpt lat="45.85967" lon="6.45215">
        <ele>2228.7</ele>
        <time>2024-04-27T07:55:30Z</time>
      </trkpt>
      <trkpt lat="45.85967" lon="6.45215">
        <ele>2228.7</ele>
        <time>2024-04-27T07:55:31Z</time>
      </trkpt>
      <trkpt lat="45.85967" lon="6.45215">
        <ele>2228.7</ele>
        <time>2024-04-27T07:55:32Z</time>
      </trkpt>
      <trkpt lat="45.85967" lon="6.45215">
        <ele>2229.6</ele>
        <time>2024-04-27T07:55:33Z</time>
      </trkpt>
      <trkpt lat="45.85967" lon="6.45215">
        <ele>2229.6</ele>
        <time>2024-04-27T07:55:34Z</time>
      </trkpt>
      <trkpt lat="45.85967" lon="6.45215">
        <ele>2229.6</ele>
        <time>2024-04-27T07:55:35Z</time>
      </trkpt>
      <trkpt lat="45.85967" lon="6.45215">
        <ele>2229.6</ele>
        <time>2024-04-27T07:55:36Z</time>
      </trkpt>
      <trkpt lat="45.85967" lon="6.45215">
        <ele>2230.7</ele>
        <time>2024-04-27T07:55:37Z</time>
      </trkpt>
      <trkpt lat="45.85967" lon="6.45215">
        <ele>2230.7</ele>
        <time>2024-04-27T07:55:38Z</time>
      </trkpt>
      <trkpt lat="45.85967" lon="6.45214">
        <ele>2230.7</ele>
        <time>2024-04-27T07:55:39Z</time>
      </trkpt>
      <trkpt lat="45.85967" lon="6.45214">
        <ele>2230.7</ele>
        <time>2024-04-27T07:55:40Z</time>
      </trkpt>
      <trkpt lat="45.85967" lon="6.45213">
        <ele>2230.7</ele>
        <time>2024-04-27T07:55:41Z</time>
      </trkpt>
      <trkpt lat="45.85966" lon="6.45213">
        <ele>2230.7</ele>
        <time>2024-04-27T07:55:42Z</time>
      </trkpt>
      <trkpt lat="45.85966" lon="6.45213">
        <ele>2230.7</ele>
        <time>2024-04-27T07:55:43Z</time>
      </trkpt>
      <trkpt lat="45.85966" lon="6.45213">
        <ele>2230.7</ele>
        <time>2024-04-27T07:55:44Z</time>
      </trkpt>
      <trkpt lat="45.85966" lon="6.45212">
        <ele>2230.7</ele>
        <time>2024-04-27T07:55:45Z</time>
      </trkpt>
      <trkpt lat="45.85966" lon="6.45211">
        <ele>2230.7</ele>
        <time>2024-04-27T07:55:46Z</time>
      </trkpt>
      <trkpt lat="45.85966" lon="6.4521">
        <ele>2230.7</ele>
        <time>2024-04-27T07:55:47Z</time>
      </trkpt>
      <trkpt lat="45.85966" lon="6.45209">
        <ele>2230.7</ele>
        <time>2024-04-27T07:55:48Z</time>
      </trkpt>
      <trkpt lat="45.85966" lon="6.45208">
        <ele>2230.7</ele>
        <time>2024-04-27T07:55:49Z</time>
      </trkpt>
      <trkpt lat="45.85966" lon="6.45208">
        <ele>2230.7</ele>
        <time>2024-04-27T07:55:50Z</time>
      </trkpt>
      <trkpt lat="45.85966" lon="6.45207">
        <ele>2230.7</ele>
        <time>2024-04-27T07:55:51Z</time>
      </trkpt>
      <trkpt lat="45.85966" lon="6.45207">
        <ele>2230.7</ele>
        <time>2024-04-27T07:55:52Z</time>
      </trkpt>
      <trkpt lat="45.85965" lon="6.45206">
        <ele>2229.6</ele>
        <time>2024-04-27T07:55:53Z</time>
      </trkpt>
      <trkpt lat="45.85965" lon="6.45206">
        <ele>2229.6</ele>
        <time>2024-04-27T07:55:54Z</time>
      </trkpt>
      <trkpt lat="45.85964" lon="6.45205">
        <ele>2229.6</ele>
        <time>2024-04-27T07:55:55Z</time>
      </trkpt>
      <trkpt lat="45.85964" lon="6.45206">
        <ele>2229.6</ele>
        <time>2024-04-27T07:55:56Z</time>
      </trkpt>
      <trkpt lat="45.85963" lon="6.45206">
        <ele>2229.6</ele>
        <time>2024-04-27T07:55:57Z</time>
      </trkpt>
      <trkpt lat="45.85963" lon="6.45207">
        <ele>2229.6</ele>
        <time>2024-04-27T07:55:58Z</time>
      </trkpt>
      <trkpt lat="45.85964" lon="6.45208">
        <ele>2229.6</ele>
        <time>2024-04-27T07:55:59Z</time>
      </trkpt>
      <trkpt lat="45.85963" lon="6.45208">
        <ele>2229.6</ele>
        <time>2024-04-27T07:56:00Z</time>
      </trkpt>
      <trkpt lat="45.85963" lon="6.45209">
        <ele>2229.6</ele>
        <time>2024-04-27T07:56:01Z</time>
      </trkpt>
      <trkpt lat="45.85962" lon="6.45209">
        <ele>2229.6</ele>
        <time>2024-04-27T07:56:02Z</time>
      </trkpt>
      <trkpt lat="45.85962" lon="6.4521">
        <ele>2229.6</ele>
        <time>2024-04-27T07:56:03Z</time>
      </trkpt>
      <trkpt lat="45.85962" lon="6.45211">
        <ele>2229.6</ele>
        <time>2024-04-27T07:56:04Z</time>
      </trkpt>
      <trkpt lat="45.85962" lon="6.45211">
        <ele>2229.6</ele>
        <time>2024-04-27T07:56:05Z</time>
      </trkpt>
      <trkpt lat="45.85962" lon="6.45212">
        <ele>2229.6</ele>
        <time>2024-04-27T07:56:06Z</time>
      </trkpt>
      <trkpt lat="45.85962" lon="6.45213">
        <ele>2231.6</ele>
        <time>2024-04-27T07:56:07Z</time>
      </trkpt>
      <trkpt lat="45.85962" lon="6.45214">
        <ele>2231.6</ele>
        <time>2024-04-27T07:56:08Z</time>
      </trkpt>
      <trkpt lat="45.85963" lon="6.45214">
        <ele>2231.6</ele>
        <time>2024-04-27T07:56:09Z</time>
      </trkpt>
      <trkpt lat="45.85962" lon="6.45215">
        <ele>2231.6</ele>
        <time>2024-04-27T07:56:10Z</time>
      </trkpt>
      <trkpt lat="45.85962" lon="6.45216">
        <ele>2232.7</ele>
        <time>2024-04-27T07:56:11Z</time>
      </trkpt>
      <trkpt lat="45.85962" lon="6.45217">
        <ele>2232.7</ele>
        <time>2024-04-27T07:56:12Z</time>
      </trkpt>
      <trkpt lat="45.85962" lon="6.45218">
        <ele>2232.7</ele>
        <time>2024-04-27T07:56:13Z</time>
      </trkpt>
      <trkpt lat="45.85962" lon="6.45219">
        <ele>2232.7</ele>
        <time>2024-04-27T07:56:14Z</time>
      </trkpt>
      <trkpt lat="45.85961" lon="6.45219">
        <ele>2232.7</ele>
        <time>2024-04-27T07:56:15Z</time>
      </trkpt>
      <trkpt lat="45.85961" lon="6.45219">
        <ele>2232.7</ele>
        <time>2024-04-27T07:56:16Z</time>
      </trkpt>
      <trkpt lat="45.8596" lon="6.4522">
        <ele>2232.7</ele>
        <time>2024-04-27T07:56:17Z</time>
      </trkpt>
      <trkpt lat="45.8596" lon="6.45221">
        <ele>2232.7</ele>
        <time>2024-04-27T07:56:18Z</time>
      </trkpt>
      <trkpt lat="45.8596" lon="6.45222">
        <ele>2232.7</ele>
        <time>2024-04-27T07:56:19Z</time>
      </trkpt>
      <trkpt lat="45.8596" lon="6.45222">
        <ele>2232.7</ele>
        <time>2024-04-27T07:56:20Z</time>
      </trkpt>
      <trkpt lat="45.8596" lon="6.45223">
        <ele>2232.7</ele>
        <time>2024-04-27T07:56:21Z</time>
      </trkpt>
      <trkpt lat="45.8596" lon="6.45223">
        <ele>2232.7</ele>
        <time>2024-04-27T07:56:22Z</time>
      </trkpt>
      <trkpt lat="45.85959" lon="6.45223">
        <ele>2233.6</ele>
        <time>2024-04-27T07:56:23Z</time>
      </trkpt>
      <trkpt lat="45.85959" lon="6.45223">
        <ele>2233.6</ele>
        <time>2024-04-27T07:56:24Z</time>
      </trkpt>
      <trkpt lat="45.85959" lon="6.45223">
        <ele>2233.6</ele>
        <time>2024-04-27T07:56:25Z</time>
      </trkpt>
      <trkpt lat="45.85959" lon="6.45223">
        <ele>2233.6</ele>
        <time>2024-04-27T07:56:26Z</time>
      </trkpt>
      <trkpt lat="45.85959" lon="6.45222">
        <ele>2233.6</ele>
        <time>2024-04-27T07:56:27Z</time>
      </trkpt>
      <trkpt lat="45.85959" lon="6.45222">
        <ele>2233.6</ele>
        <time>2024-04-27T07:56:28Z</time>
      </trkpt>
      <trkpt lat="45.85958" lon="6.45221">
        <ele>2233.6</ele>
        <time>2024-04-27T07:56:29Z</time>
      </trkpt>
      <trkpt lat="45.85958" lon="6.45221">
        <ele>2233.6</ele>
        <time>2024-04-27T07:56:30Z</time>
      </trkpt>
      <trkpt lat="45.85958" lon="6.45221">
        <ele>2233.6</ele>
        <time>2024-04-27T07:56:31Z</time>
      </trkpt>
      <trkpt lat="45.85958" lon="6.4522">
        <ele>2233.6</ele>
        <time>2024-04-27T07:56:32Z</time>
      </trkpt>
      <trkpt lat="45.85958" lon="6.45219">
        <ele>2236.7</ele>
        <time>2024-04-27T07:56:33Z</time>
      </trkpt>
      <trkpt lat="45.85958" lon="6.45218">
        <ele>2236.7</ele>
        <time>2024-04-27T07:56:34Z</time>
      </trkpt>
      <trkpt lat="45.85958" lon="6.45218">
        <ele>2236.7</ele>
        <time>2024-04-27T07:56:35Z</time>
      </trkpt>
      <trkpt lat="45.85958" lon="6.45217">
        <ele>2236.7</ele>
        <time>2024-04-27T07:56:36Z</time>
      </trkpt>
      <trkpt lat="45.85958" lon="6.45216">
        <ele>2236.7</ele>
        <time>2024-04-27T07:56:37Z</time>
      </trkpt>
      <trkpt lat="45.85958" lon="6.45216">
        <ele>2236.7</ele>
        <time>2024-04-27T07:56:38Z</time>
      </trkpt>
      <trkpt lat="45.85957" lon="6.45216">
        <ele>2236.7</ele>
        <time>2024-04-27T07:56:39Z</time>
      </trkpt>
      <trkpt lat="45.85957" lon="6.45215">
        <ele>2236.7</ele>
        <time>2024-04-27T07:56:40Z</time>
      </trkpt>
      <trkpt lat="45.85957" lon="6.45215">
        <ele>2236.7</ele>
        <time>2024-04-27T07:56:41Z</time>
      </trkpt>
      <trkpt lat="45.85957" lon="6.45215">
        <ele>2236.7</ele>
        <time>2024-04-27T07:56:42Z</time>
      </trkpt>
      <trkpt lat="45.85957" lon="6.45215">
        <ele>2236.7</ele>
        <time>2024-04-27T07:56:43Z</time>
      </trkpt>
      <trkpt lat="45.85957" lon="6.45215">
        <ele>2236.7</ele>
        <time>2024-04-27T07:56:44Z</time>
      </trkpt>
      <trkpt lat="45.85957" lon="6.45215">
        <ele>2236.7</ele>
        <time>2024-04-27T07:56:45Z</time>
      </trkpt>
      <trkpt lat="45.85958" lon="6.45215">
        <ele>2236.7</ele>
        <time>2024-04-27T07:56:46Z</time>
      </trkpt>
      <trkpt lat="45.85957" lon="6.45215">
        <ele>2235.6</ele>
        <time>2024-04-27T07:56:47Z</time>
      </trkpt>
      <trkpt lat="45.85958" lon="6.45215">
        <ele>2235.6</ele>
        <time>2024-04-27T07:56:48Z</time>
      </trkpt>
      <trkpt lat="45.85958" lon="6.45214">
        <ele>2235.6</ele>
        <time>2024-04-27T07:56:49Z</time>
      </trkpt>
      <trkpt lat="45.85957" lon="6.45214">
        <ele>2235.6</ele>
        <time>2024-04-27T07:56:50Z</time>
      </trkpt>
      <trkpt lat="45.85957" lon="6.45214">
        <ele>2235.6</ele>
        <time>2024-04-27T07:56:51Z</time>
      </trkpt>
      <trkpt lat="45.85957" lon="6.45214">
        <ele>2235.6</ele>
        <time>2024-04-27T07:56:52Z</time>
      </trkpt>
      <trkpt lat="45.85957" lon="6.45214">
        <ele>2234.7</ele>
        <time>2024-04-27T07:56:53Z</time>
      </trkpt>
      <trkpt lat="45.85957" lon="6.45214">
        <ele>2234.7</ele>
        <time>2024-04-27T07:56:54Z</time>
      </trkpt>
      <trkpt lat="45.85957" lon="6.45214">
        <ele>2234.7</ele>
        <time>2024-04-27T07:56:55Z</time>
      </trkpt>
      <trkpt lat="45.85957" lon="6.45214">
        <ele>2234.7</ele>
        <time>2024-04-27T07:56:56Z</time>
      </trkpt>
      <trkpt lat="45.85957" lon="6.45214">
        <ele>2234.7</ele>
        <time>2024-04-27T07:56:57Z</time>
      </trkpt>
      <trkpt lat="45.85957" lon="6.45214">
        <ele>2234.7</ele>
        <time>2024-04-27T07:56:58Z</time>
      </trkpt>
      <trkpt lat="45.85957" lon="6.45214">
        <ele>2234.7</ele>
        <time>2024-04-27T07:56:59Z</time>
      </trkpt>
      <trkpt lat="45.85957" lon="6.45214">
        <ele>2234.7</ele>
        <time>2024-04-27T07:57:00Z</time>
      </trkpt>
      <trkpt lat="45.85957" lon="6.45214">
        <ele>2234.7</ele>
        <time>2024-04-27T07:57:01Z</time>
      </trkpt>
      <trkpt lat="45.85957" lon="6.45214">
        <ele>2234.7</ele>
        <time>2024-04-27T07:57:02Z</time>
      </trkpt>
      <trkpt lat="45.85957" lon="6.45214">
        <ele>2235.6</ele>
        <time>2024-04-27T07:57:03Z</time>
      </trkpt>
      <trkpt lat="45.85957" lon="6.45214">
        <ele>2235.6</ele>
        <time>2024-04-27T07:57:04Z</time>
      </trkpt>
      <trkpt lat="45.85957" lon="6.45214">
        <ele>2235.6</ele>
        <time>2024-04-27T07:57:05Z</time>
      </trkpt>
      <trkpt lat="45.85957" lon="6.45213">
        <ele>2235.6</ele>
        <time>2024-04-27T07:57:06Z</time>
      </trkpt>
      <trkpt lat="45.85957" lon="6.45213">
        <ele>2235.6</ele>
        <time>2024-04-27T07:57:07Z</time>
      </trkpt>
      <trkpt lat="45.85957" lon="6.45212">
        <ele>2235.6</ele>
        <time>2024-04-27T07:57:08Z</time>
      </trkpt>
      <trkpt lat="45.85957" lon="6.45212">
        <ele>2235.6</ele>
        <time>2024-04-27T07:57:09Z</time>
      </trkpt>
      <trkpt lat="45.85957" lon="6.45212">
        <ele>2235.6</ele>
        <time>2024-04-27T07:57:10Z</time>
      </trkpt>
      <trkpt lat="45.85957" lon="6.45212">
        <ele>2235.6</ele>
        <time>2024-04-27T07:57:11Z</time>
      </trkpt>
      <trkpt lat="45.85957" lon="6.45212">
        <ele>2235.6</ele>
        <time>2024-04-27T07:57:12Z</time>
      </trkpt>
      <trkpt lat="45.85957" lon="6.45212">
        <ele>2236.7</ele>
        <time>2024-04-27T07:57:13Z</time>
      </trkpt>
      <trkpt lat="45.85957" lon="6.45212">
        <ele>2236.7</ele>
        <time>2024-04-27T07:57:14Z</time>
      </trkpt>
      <trkpt lat="45.85957" lon="6.45212">
        <ele>2236.7</ele>
        <time>2024-04-27T07:57:15Z</time>
      </trkpt>
      <trkpt lat="45.85957" lon="6.45212">
        <ele>2236.7</ele>
        <time>2024-04-27T07:57:16Z</time>
      </trkpt>
      <trkpt lat="45.85956" lon="6.45211">
        <ele>2237.7</ele>
        <time>2024-04-27T07:57:17Z</time>
      </trkpt>
      <trkpt lat="45.85956" lon="6.45211">
        <ele>2237.7</ele>
        <time>2024-04-27T07:57:18Z</time>
      </trkpt>
      <trkpt lat="45.85956" lon="6.45211">
        <ele>2237.7</ele>
        <time>2024-04-27T07:57:19Z</time>
      </trkpt>
      <trkpt lat="45.85956" lon="6.45211">
        <ele>2237.7</ele>
        <time>2024-04-27T07:57:20Z</time>
      </trkpt>
      <trkpt lat="45.85956" lon="6.45211">
        <ele>2237.7</ele>
        <time>2024-04-27T07:57:21Z</time>
      </trkpt>
      <trkpt lat="45.85956" lon="6.45211">
        <ele>2237.7</ele>
        <time>2024-04-27T07:57:22Z</time>
      </trkpt>
      <trkpt lat="45.85956" lon="6.45211">
        <ele>2237.7</ele>
        <time>2024-04-27T07:57:23Z</time>
      </trkpt>
      <trkpt lat="45.85956" lon="6.45211">
        <ele>2237.7</ele>
        <time>2024-04-27T07:57:24Z</time>
      </trkpt>
      <trkpt lat="45.85955" lon="6.4521">
        <ele>2238.6</ele>
        <time>2024-04-27T07:57:25Z</time>
      </trkpt>
      <trkpt lat="45.85955" lon="6.4521">
        <ele>2238.6</ele>
        <time>2024-04-27T07:57:26Z</time>
      </trkpt>
      <trkpt lat="45.85955" lon="6.4521">
        <ele>2238.6</ele>
        <time>2024-04-27T07:57:27Z</time>
      </trkpt>
      <trkpt lat="45.85955" lon="6.4521">
        <ele>2238.6</ele>
        <time>2024-04-27T07:57:28Z</time>
      </trkpt>
      <trkpt lat="45.85955" lon="6.4521">
        <ele>2238.6</ele>
        <time>2024-04-27T07:57:29Z</time>
      </trkpt>
      <trkpt lat="45.85954" lon="6.4521">
        <ele>2238.6</ele>
        <time>2024-04-27T07:57:30Z</time>
      </trkpt>
      <trkpt lat="45.85954" lon="6.4521">
        <ele>2238.6</ele>
        <time>2024-04-27T07:57:31Z</time>
      </trkpt>
      <trkpt lat="45.85954" lon="6.4521">
        <ele>2238.6</ele>
        <time>2024-04-27T07:57:32Z</time>
      </trkpt>
      <trkpt lat="45.85954" lon="6.4521">
        <ele>2238.6</ele>
        <time>2024-04-27T07:57:33Z</time>
      </trkpt>
      <trkpt lat="45.85953" lon="6.45209">
        <ele>2238.6</ele>
        <time>2024-04-27T07:57:34Z</time>
      </trkpt>
      <trkpt lat="45.85953" lon="6.45209">
        <ele>2238.6</ele>
        <time>2024-04-27T07:57:35Z</time>
      </trkpt>
      <trkpt lat="45.85953" lon="6.45208">
        <ele>2238.6</ele>
        <time>2024-04-27T07:57:36Z</time>
      </trkpt>
      <trkpt lat="45.85952" lon="6.45208">
        <ele>2238.6</ele>
        <time>2024-04-27T07:57:37Z</time>
      </trkpt>
      <trkpt lat="45.85952" lon="6.45208">
        <ele>2238.6</ele>
        <time>2024-04-27T07:57:38Z</time>
      </trkpt>
      <trkpt lat="45.85952" lon="6.45207">
        <ele>2239.7</ele>
        <time>2024-04-27T07:57:39Z</time>
      </trkpt>
      <trkpt lat="45.85952" lon="6.45207">
        <ele>2239.7</ele>
        <time>2024-04-27T07:57:40Z</time>
      </trkpt>
      <trkpt lat="45.85952" lon="6.45207">
        <ele>2239.7</ele>
        <time>2024-04-27T07:57:41Z</time>
      </trkpt>
      <trkpt lat="45.85952" lon="6.45207">
        <ele>2239.7</ele>
        <time>2024-04-27T07:57:42Z</time>
      </trkpt>
      <trkpt lat="45.85952" lon="6.45207">
        <ele>2239.7</ele>
        <time>2024-04-27T07:57:43Z</time>
      </trkpt>
      <trkpt lat="45.85952" lon="6.45207">
        <ele>2239.7</ele>
        <time>2024-04-27T07:57:44Z</time>
      </trkpt>
      <trkpt lat="45.85952" lon="6.45207">
        <ele>2239.7</ele>
        <time>2024-04-27T07:57:45Z</time>
      </trkpt>
      <trkpt lat="45.85952" lon="6.45207">
        <ele>2239.7</ele>
        <time>2024-04-27T07:57:46Z</time>
      </trkpt>
      <trkpt lat="45.85952" lon="6.45206">
        <ele>2238.6</ele>
        <time>2024-04-27T07:57:47Z</time>
      </trkpt>
      <trkpt lat="45.85952" lon="6.45206">
        <ele>2238.6</ele>
        <time>2024-04-27T07:57:48Z</time>
      </trkpt>
      <trkpt lat="45.85952" lon="6.45206">
        <ele>2238.6</ele>
        <time>2024-04-27T07:57:49Z</time>
      </trkpt>
      <trkpt lat="45.85952" lon="6.45206">
        <ele>2238.6</ele>
        <time>2024-04-27T07:57:50Z</time>
      </trkpt>
      <trkpt lat="45.85952" lon="6.45206">
        <ele>2238.6</ele>
        <time>2024-04-27T07:57:51Z</time>
      </trkpt>
      <trkpt lat="45.85952" lon="6.45206">
        <ele>2238.6</ele>
        <time>2024-04-27T07:57:52Z</time>
      </trkpt>
      <trkpt lat="45.85952" lon="6.45206">
        <ele>2238.6</ele>
        <time>2024-04-27T07:57:53Z</time>
      </trkpt>
      <trkpt lat="45.85952" lon="6.45206">
        <ele>2238.6</ele>
        <time>2024-04-27T07:57:54Z</time>
      </trkpt>
      <trkpt lat="45.85952" lon="6.45206">
        <ele>2238.6</ele>
        <time>2024-04-27T07:57:55Z</time>
      </trkpt>
      <trkpt lat="45.85952" lon="6.45206">
        <ele>2238.6</ele>
        <time>2024-04-27T07:57:56Z</time>
      </trkpt>
      <trkpt lat="45.85952" lon="6.45206">
        <ele>2238.6</ele>
        <time>2024-04-27T07:57:57Z</time>
      </trkpt>
      <trkpt lat="45.85952" lon="6.45206">
        <ele>2238.6</ele>
        <time>2024-04-27T07:57:58Z</time>
      </trkpt>
      <trkpt lat="45.85952" lon="6.45206">
        <ele>2238.6</ele>
        <time>2024-04-27T07:57:59Z</time>
      </trkpt>
      <trkpt lat="45.85952" lon="6.45206">
        <ele>2238.6</ele>
        <time>2024-04-27T07:58:00Z</time>
      </trkpt>
      <trkpt lat="45.85952" lon="6.45206">
        <ele>2238.6</ele>
        <time>2024-04-27T07:58:01Z</time>
      </trkpt>
      <trkpt lat="45.85952" lon="6.45206">
        <ele>2238.6</ele>
        <time>2024-04-27T07:58:02Z</time>
      </trkpt>
      <trkpt lat="45.85953" lon="6.45205">
        <ele>2238.6</ele>
        <time>2024-04-27T07:58:03Z</time>
      </trkpt>
      <trkpt lat="45.85953" lon="6.45205">
        <ele>2238.6</ele>
        <time>2024-04-27T07:58:04Z</time>
      </trkpt>
      <trkpt lat="45.85953" lon="6.45205">
        <ele>2238.6</ele>
        <time>2024-04-27T07:58:05Z</time>
      </trkpt>
      <trkpt lat="45.85953" lon="6.45205">
        <ele>2238.6</ele>
        <time>2024-04-27T07:58:06Z</time>
      </trkpt>
      <trkpt lat="45.85953" lon="6.45205">
        <ele>2238.6</ele>
        <time>2024-04-27T07:58:07Z</time>
      </trkpt>
      <trkpt lat="45.85953" lon="6.45205">
        <ele>2238.6</ele>
        <time>2024-04-27T07:58:08Z</time>
      </trkpt>
      <trkpt lat="45.85953" lon="6.45205">
        <ele>2237.7</ele>
        <time>2024-04-27T07:58:09Z</time>
      </trkpt>
      <trkpt lat="45.85953" lon="6.45205">
        <ele>2237.7</ele>
        <time>2024-04-27T07:58:10Z</time>
      </trkpt>
      <trkpt lat="45.85953" lon="6.45204">
        <ele>2237.7</ele>
        <time>2024-04-27T07:58:11Z</time>
      </trkpt>
      <trkpt lat="45.85953" lon="6.45204">
        <ele>2237.7</ele>
        <time>2024-04-27T07:58:12Z</time>
      </trkpt>
      <trkpt lat="45.85953" lon="6.45204">
        <ele>2237.7</ele>
        <time>2024-04-27T07:58:13Z</time>
      </trkpt>
      <trkpt lat="45.85953" lon="6.45204">
        <ele>2237.7</ele>
        <time>2024-04-27T07:58:14Z</time>
      </trkpt>
      <trkpt lat="45.85953" lon="6.45203">
        <ele>2237.7</ele>
        <time>2024-04-27T07:58:15Z</time>
      </trkpt>
      <trkpt lat="45.85953" lon="6.45203">
        <ele>2237.7</ele>
        <time>2024-04-27T07:58:16Z</time>
      </trkpt>
      <trkpt lat="45.85953" lon="6.45203">
        <ele>2237.7</ele>
        <time>2024-04-27T07:58:17Z</time>
      </trkpt>
      <trkpt lat="45.85953" lon="6.45202">
        <ele>2237.7</ele>
        <time>2024-04-27T07:58:18Z</time>
      </trkpt>
      <trkpt lat="45.85953" lon="6.45202">
        <ele>2238.6</ele>
        <time>2024-04-27T07:58:19Z</time>
      </trkpt>
      <trkpt lat="45.85953" lon="6.45202">
        <ele>2238.6</ele>
        <time>2024-04-27T07:58:20Z</time>
      </trkpt>
      <trkpt lat="45.85953" lon="6.45202">
        <ele>2238.6</ele>
        <time>2024-04-27T07:58:21Z</time>
      </trkpt>
      <trkpt lat="45.85953" lon="6.45202">
        <ele>2238.6</ele>
        <time>2024-04-27T07:58:22Z</time>
      </trkpt>
      <trkpt lat="45.85953" lon="6.45202">
        <ele>2239.7</ele>
        <time>2024-04-27T07:58:23Z</time>
      </trkpt>
      <trkpt lat="45.85953" lon="6.45202">
        <ele>2239.7</ele>
        <time>2024-04-27T07:58:24Z</time>
      </trkpt>
      <trkpt lat="45.85953" lon="6.45202">
        <ele>2239.7</ele>
        <time>2024-04-27T07:58:25Z</time>
      </trkpt>
      <trkpt lat="45.85953" lon="6.45202">
        <ele>2239.7</ele>
        <time>2024-04-27T07:58:26Z</time>
      </trkpt>
      <trkpt lat="45.85953" lon="6.45202">
        <ele>2240.6</ele>
        <time>2024-04-27T07:58:27Z</time>
      </trkpt>
      <trkpt lat="45.85953" lon="6.45202">
        <ele>2240.6</ele>
        <time>2024-04-27T07:58:28Z</time>
      </trkpt>
      <trkpt lat="45.85953" lon="6.45202">
        <ele>2240.6</ele>
        <time>2024-04-27T07:58:29Z</time>
      </trkpt>
      <trkpt lat="45.85953" lon="6.45202">
        <ele>2240.6</ele>
        <time>2024-04-27T07:58:30Z</time>
      </trkpt>
      <trkpt lat="45.85953" lon="6.45202">
        <ele>2240.6</ele>
        <time>2024-04-27T07:58:31Z</time>
      </trkpt>
      <trkpt lat="45.85953" lon="6.45202">
        <ele>2241.7</ele>
        <time>2024-04-27T07:58:32Z</time>
      </trkpt>
      <trkpt lat="45.85953" lon="6.45202">
        <ele>2241.7</ele>
        <time>2024-04-27T07:58:33Z</time>
      </trkpt>
      <trkpt lat="45.85953" lon="6.45202">
        <ele>2241.7</ele>
        <time>2024-04-27T07:58:34Z</time>
      </trkpt>
      <trkpt lat="45.85953" lon="6.45202">
        <ele>2241.7</ele>
        <time>2024-04-27T07:58:35Z</time>
      </trkpt>
      <trkpt lat="45.85953" lon="6.45202">
        <ele>2241.7</ele>
        <time>2024-04-27T07:58:36Z</time>
      </trkpt>
      <trkpt lat="45.85952" lon="6.45202">
        <ele>2241.7</ele>
        <time>2024-04-27T07:58:37Z</time>
      </trkpt>
      <trkpt lat="45.85952" lon="6.45202">
        <ele>2241.7</ele>
        <time>2024-04-27T07:58:38Z</time>
      </trkpt>
      <trkpt lat="45.85952" lon="6.45202">
        <ele>2241.7</ele>
        <time>2024-04-27T07:58:39Z</time>
      </trkpt>
      <trkpt lat="45.85952" lon="6.45202">
        <ele>2242.6</ele>
        <time>2024-04-27T07:58:40Z</time>
      </trkpt>
      <trkpt lat="45.85952" lon="6.45202">
        <ele>2242.6</ele>
        <time>2024-04-27T07:58:41Z</time>
      </trkpt>
      <trkpt lat="45.85952" lon="6.45202">
        <ele>2242.6</ele>
        <time>2024-04-27T07:58:42Z</time>
      </trkpt>
      <trkpt lat="45.85952" lon="6.45202">
        <ele>2242.6</ele>
        <time>2024-04-27T07:58:43Z</time>
      </trkpt>
      <trkpt lat="45.85952" lon="6.45202">
        <ele>2241.7</ele>
        <time>2024-04-27T07:58:44Z</time>
      </trkpt>
      <trkpt lat="45.85952" lon="6.45202">
        <ele>2241.7</ele>
        <time>2024-04-27T07:58:45Z</time>
      </trkpt>
      <trkpt lat="45.85951" lon="6.45202">
        <ele>2241.7</ele>
        <time>2024-04-27T07:58:46Z</time>
      </trkpt>
      <trkpt lat="45.85951" lon="6.45202">
        <ele>2241.7</ele>
        <time>2024-04-27T07:58:47Z</time>
      </trkpt>
      <trkpt lat="45.85951" lon="6.45202">
        <ele>2240.6</ele>
        <time>2024-04-27T07:58:48Z</time>
      </trkpt>
      <trkpt lat="45.85951" lon="6.45202">
        <ele>2240.6</ele>
        <time>2024-04-27T07:58:49Z</time>
      </trkpt>
      <trkpt lat="45.85951" lon="6.45202">
        <ele>2240.6</ele>
        <time>2024-04-27T07:58:50Z</time>
      </trkpt>
      <trkpt lat="45.85951" lon="6.45202">
        <ele>2240.6</ele>
        <time>2024-04-27T07:58:51Z</time>
      </trkpt>
      <trkpt lat="45.85951" lon="6.45201">
        <ele>2240.6</ele>
        <time>2024-04-27T07:58:52Z</time>
      </trkpt>
      <trkpt lat="45.85951" lon="6.45201">
        <ele>2240.6</ele>
        <time>2024-04-27T07:58:53Z</time>
      </trkpt>
      <trkpt lat="45.85951" lon="6.45201">
        <ele>2240.6</ele>
        <time>2024-04-27T07:58:54Z</time>
      </trkpt>
      <trkpt lat="45.85951" lon="6.45201">
        <ele>2240.6</ele>
        <time>2024-04-27T07:58:55Z</time>
      </trkpt>
      <trkpt lat="45.85951" lon="6.45201">
        <ele>2240.6</ele>
        <time>2024-04-27T07:58:56Z</time>
      </trkpt>
      <trkpt lat="45.85951" lon="6.45201">
        <ele>2240.6</ele>
        <time>2024-04-27T07:58:57Z</time>
      </trkpt>
      <trkpt lat="45.85951" lon="6.45201">
        <ele>2240.6</ele>
        <time>2024-04-27T07:58:58Z</time>
      </trkpt>
      <trkpt lat="45.85951" lon="6.45201">
        <ele>2240.6</ele>
        <time>2024-04-27T07:58:59Z</time>
      </trkpt>
      <trkpt lat="45.85951" lon="6.45201">
        <ele>2240.6</ele>
        <time>2024-04-27T07:59:00Z</time>
      </trkpt>
      <trkpt lat="45.85951" lon="6.45201">
        <ele>2240.6</ele>
        <time>2024-04-27T07:59:01Z</time>
      </trkpt>
      <trkpt lat="45.85951" lon="6.45201">
        <ele>2240.6</ele>
        <time>2024-04-27T07:59:02Z</time>
      </trkpt>
      <trkpt lat="45.85951" lon="6.45201">
        <ele>2240.6</ele>
        <time>2024-04-27T07:59:03Z</time>
      </trkpt>
      <trkpt lat="45.85951" lon="6.45201">
        <ele>2240.6</ele>
        <time>2024-04-27T07:59:04Z</time>
      </trkpt>
      <trkpt lat="45.85951" lon="6.45201">
        <ele>2240.6</ele>
        <time>2024-04-27T07:59:05Z</time>
      </trkpt>
      <trkpt lat="45.85951" lon="6.45201">
        <ele>2240.6</ele>
        <time>2024-04-27T07:59:06Z</time>
      </trkpt>
      <trkpt lat="45.85951" lon="6.45201">
        <ele>2240.6</ele>
        <time>2024-04-27T07:59:07Z</time>
      </trkpt>
      <trkpt lat="45.85951" lon="6.45201">
        <ele>2241.7</ele>
        <time>2024-04-27T07:59:08Z</time>
      </trkpt>
      <trkpt lat="45.85951" lon="6.45201">
        <ele>2241.7</ele>
        <time>2024-04-27T07:59:09Z</time>
      </trkpt>
      <trkpt lat="45.85951" lon="6.45201">
        <ele>2241.7</ele>
        <time>2024-04-27T07:59:10Z</time>
      </trkpt>
      <trkpt lat="45.85951" lon="6.45201">
        <ele>2241.7</ele>
        <time>2024-04-27T07:59:11Z</time>
      </trkpt>
      <trkpt lat="45.85951" lon="6.45201">
        <ele>2241.7</ele>
        <time>2024-04-27T07:59:12Z</time>
      </trkpt>
      <trkpt lat="45.85951" lon="6.45201">
        <ele>2241.7</ele>
        <time>2024-04-27T07:59:13Z</time>
      </trkpt>
      <trkpt lat="45.85951" lon="6.45201">
        <ele>2241.7</ele>
        <time>2024-04-27T07:59:14Z</time>
      </trkpt>
      <trkpt lat="45.85951" lon="6.45201">
        <ele>2241.7</ele>
        <time>2024-04-27T07:59:15Z</time>
      </trkpt>
      <trkpt lat="45.85951" lon="6.452">
        <ele>2241.7</ele>
        <time>2024-04-27T07:59:16Z</time>
      </trkpt>
      <trkpt lat="45.85951" lon="6.452">
        <ele>2241.7</ele>
        <time>2024-04-27T07:59:17Z</time>
      </trkpt>
      <trkpt lat="45.85951" lon="6.452">
        <ele>2241.7</ele>
        <time>2024-04-27T07:59:18Z</time>
      </trkpt>
      <trkpt lat="45.85952" lon="6.452">
        <ele>2241.7</ele>
        <time>2024-04-27T07:59:19Z</time>
      </trkpt>
      <trkpt lat="45.85952" lon="6.452">
        <ele>2241.7</ele>
        <time>2024-04-27T07:59:20Z</time>
      </trkpt>
      <trkpt lat="45.85952" lon="6.452">
        <ele>2241.7</ele>
        <time>2024-04-27T07:59:21Z</time>
      </trkpt>
      <trkpt lat="45.85952" lon="6.452">
        <ele>2241.7</ele>
        <time>2024-04-27T07:59:22Z</time>
      </trkpt>
      <trkpt lat="45.85952" lon="6.452">
        <ele>2241.7</ele>
        <time>2024-04-27T07:59:23Z</time>
      </trkpt>
      <trkpt lat="45.85952" lon="6.452">
        <ele>2241.7</ele>
        <time>2024-04-27T07:59:24Z</time>
      </trkpt>
      <trkpt lat="45.85952" lon="6.452">
        <ele>2241.7</ele>
        <time>2024-04-27T07:59:25Z</time>
      </trkpt>
      <trkpt lat="45.85952" lon="6.452">
        <ele>2241.7</ele>
        <time>2024-04-27T07:59:26Z</time>
      </trkpt>
      <trkpt lat="45.85952" lon="6.452">
        <ele>2241.7</ele>
        <time>2024-04-27T07:59:27Z</time>
      </trkpt>
      <trkpt lat="45.85952" lon="6.452">
        <ele>2241.7</ele>
        <time>2024-04-27T07:59:28Z</time>
      </trkpt>
      <trkpt lat="45.85952" lon="6.45201">
        <ele>2241.7</ele>
        <time>2024-04-27T07:59:29Z</time>
      </trkpt>
      <trkpt lat="45.85952" lon="6.45201">
        <ele>2240.6</ele>
        <time>2024-04-27T07:59:30Z</time>
      </trkpt>
      <trkpt lat="45.85952" lon="6.45201">
        <ele>2240.6</ele>
        <time>2024-04-27T07:59:31Z</time>
      </trkpt>
      <trkpt lat="45.85952" lon="6.45201">
        <ele>2240.6</ele>
        <time>2024-04-27T07:59:32Z</time>
      </trkpt>
      <trkpt lat="45.85952" lon="6.45201">
        <ele>2240.6</ele>
        <time>2024-04-27T07:59:33Z</time>
      </trkpt>
      <trkpt lat="45.85952" lon="6.45201">
        <ele>2240.6</ele>
        <time>2024-04-27T07:59:34Z</time>
      </trkpt>
      <trkpt lat="45.85952" lon="6.45201">
        <ele>2240.6</ele>
        <time>2024-04-27T07:59:35Z</time>
      </trkpt>
      <trkpt lat="45.85952" lon="6.45201">
        <ele>2240.6</ele>
        <time>2024-04-27T07:59:36Z</time>
      </trkpt>
      <trkpt lat="45.85952" lon="6.45201">
        <ele>2240.6</ele>
        <time>2024-04-27T07:59:37Z</time>
      </trkpt>
      <trkpt lat="45.85952" lon="6.45201">
        <ele>2240.6</ele>
        <time>2024-04-27T07:59:38Z</time>
      </trkpt>
      <trkpt lat="45.85952" lon="6.45201">
        <ele>2240.6</ele>
        <time>2024-04-27T07:59:39Z</time>
      </trkpt>
      <trkpt lat="45.85952" lon="6.45201">
        <ele>2240.6</ele>
        <time>2024-04-27T07:59:40Z</time>
      </trkpt>
      <trkpt lat="45.85952" lon="6.45201">
        <ele>2240.6</ele>
        <time>2024-04-27T07:59:41Z</time>
      </trkpt>
      <trkpt lat="45.85952" lon="6.45201">
        <ele>2240.6</ele>
        <time>2024-04-27T07:59:42Z</time>
      </trkpt>
      <trkpt lat="45.85952" lon="6.45201">
        <ele>2240.6</ele>
        <time>2024-04-27T07:59:43Z</time>
      </trkpt>
      <trkpt lat="45.85952" lon="6.45201">
        <ele>2240.6</ele>
        <time>2024-04-27T07:59:44Z</time>
      </trkpt>
      <trkpt lat="45.85952" lon="6.45201">
        <ele>2240.6</ele>
        <time>2024-04-27T07:59:45Z</time>
      </trkpt>
      <trkpt lat="45.85952" lon="6.45201">
        <ele>2240.6</ele>
        <time>2024-04-27T07:59:46Z</time>
      </trkpt>
      <trkpt lat="45.85952" lon="6.45201">
        <ele>2240.6</ele>
        <time>2024-04-27T07:59:47Z</time>
      </trkpt>
      <trkpt lat="45.85953" lon="6.45201">
        <ele>2240.6</ele>
        <time>2024-04-27T07:59:48Z</time>
      </trkpt>
      <trkpt lat="45.85953" lon="6.45201">
        <ele>2240.6</ele>
        <time>2024-04-27T07:59:49Z</time>
      </trkpt>
      <trkpt lat="45.85953" lon="6.45201">
        <ele>2240.6</ele>
        <time>2024-04-27T07:59:50Z</time>
      </trkpt>
      <trkpt lat="45.85953" lon="6.45201">
        <ele>2240.6</ele>
        <time>2024-04-27T07:59:51Z</time>
      </trkpt>
      <trkpt lat="45.85953" lon="6.45201">
        <ele>2240.6</ele>
        <time>2024-04-27T07:59:52Z</time>
      </trkpt>
      <trkpt lat="45.85953" lon="6.45201">
        <ele>2240.6</ele>
        <time>2024-04-27T07:59:53Z</time>
      </trkpt>
      <trkpt lat="45.85953" lon="6.45201">
        <ele>2240.6</ele>
        <time>2024-04-27T07:59:54Z</time>
      </trkpt>
      <trkpt lat="45.85953" lon="6.45201">
        <ele>2240.6</ele>
        <time>2024-04-27T07:59:55Z</time>
      </trkpt>
      <trkpt lat="45.85953" lon="6.45201">
        <ele>2240.6</ele>
        <time>2024-04-27T07:59:56Z</time>
      </trkpt>
      <trkpt lat="45.85953" lon="6.45201">
        <ele>2240.6</ele>
        <time>2024-04-27T07:59:57Z</time>
      </trkpt>
      <trkpt lat="45.85953" lon="6.45201">
        <ele>2240.6</ele>
        <time>2024-04-27T07:59:58Z</time>
      </trkpt>
      <trkpt lat="45.85953" lon="6.45201">
        <ele>2240.6</ele>
        <time>2024-04-27T07:59:59Z</time>
      </trkpt>
      <trkpt lat="45.85953" lon="6.45201">
        <ele>2240.6</ele>
        <time>2024-04-27T08:00:00Z</time>
      </trkpt>
      <trkpt lat="45.85953" lon="6.45201">
        <ele>2240.6</ele>
        <time>2024-04-27T08:00:01Z</time>
      </trkpt>
      <trkpt lat="45.85953" lon="6.45201">
        <ele>2240.6</ele>
        <time>2024-04-27T08:00:02Z</time>
      </trkpt>
      <trkpt lat="45.85953" lon="6.45201">
        <ele>2240.6</ele>
        <time>2024-04-27T08:00:03Z</time>
      </trkpt>
      <trkpt lat="45.85953" lon="6.45201">
        <ele>2240.6</ele>
        <time>2024-04-27T08:00:04Z</time>
      </trkpt>
      <trkpt lat="45.85953" lon="6.45201">
        <ele>2240.6</ele>
        <time>2024-04-27T08:00:05Z</time>
      </trkpt>
      <trkpt lat="45.85953" lon="6.45201">
        <ele>2240.6</ele>
        <time>2024-04-27T08:00:06Z</time>
      </trkpt>
      <trkpt lat="45.85953" lon="6.45201">
        <ele>2240.6</ele>
        <time>2024-04-27T08:00:07Z</time>
      </trkpt>
      <trkpt lat="45.85953" lon="6.45201">
        <ele>2240.6</ele>
        <time>2024-04-27T08:00:08Z</time>
      </trkpt>
      <trkpt lat="45.85953" lon="6.45201">
        <ele>2240.6</ele>
        <time>2024-04-27T08:00:09Z</time>
      </trkpt>
      <trkpt lat="45.85953" lon="6.45201">
        <ele>2240.6</ele>
        <time>2024-04-27T08:00:10Z</time>
      </trkpt>
      <trkpt lat="45.85953" lon="6.45201">
        <ele>2240.6</ele>
        <time>2024-04-27T08:00:11Z</time>
      </trkpt>
      <trkpt lat="45.85953" lon="6.45201">
        <ele>2240.6</ele>
        <time>2024-04-27T08:00:12Z</time>
      </trkpt>
      <trkpt lat="45.85953" lon="6.45201">
        <ele>2240.6</ele>
        <time>2024-04-27T08:00:13Z</time>
      </trkpt>
      <trkpt lat="45.85953" lon="6.45201">
        <ele>2240.6</ele>
        <time>2024-04-27T08:00:14Z</time>
      </trkpt>
      <trkpt lat="45.85953" lon="6.45201">
        <ele>2240.6</ele>
        <time>2024-04-27T08:00:15Z</time>
      </trkpt>
      <trkpt lat="45.85953" lon="6.45201">
        <ele>2240.6</ele>
        <time>2024-04-27T08:00:16Z</time>
      </trkpt>
      <trkpt lat="45.85953" lon="6.45201">
        <ele>2240.6</ele>
        <time>2024-04-27T08:00:17Z</time>
      </trkpt>
      <trkpt lat="45.85953" lon="6.45201">
        <ele>2240.6</ele>
        <time>2024-04-27T08:00:18Z</time>
      </trkpt>
      <trkpt lat="45.85953" lon="6.45201">
        <ele>2240.6</ele>
        <time>2024-04-27T08:00:19Z</time>
      </trkpt>
      <trkpt lat="45.85953" lon="6.45201">
        <ele>2240.6</ele>
        <time>2024-04-27T08:00:20Z</time>
      </trkpt>
      <trkpt lat="45.85953" lon="6.45201">
        <ele>2240.6</ele>
        <time>2024-04-27T08:00:21Z</time>
      </trkpt>
      <trkpt lat="45.85953" lon="6.45201">
        <ele>2240.6</ele>
        <time>2024-04-27T08:00:22Z</time>
      </trkpt>
      <trkpt lat="45.85953" lon="6.45201">
        <ele>2240.6</ele>
        <time>2024-04-27T08:00:23Z</time>
      </trkpt>
      <trkpt lat="45.85953" lon="6.45201">
        <ele>2240.6</ele>
        <time>2024-04-27T08:00:24Z</time>
      </trkpt>
      <trkpt lat="45.85953" lon="6.45201">
        <ele>2240.6</ele>
        <time>2024-04-27T08:00:25Z</time>
      </trkpt>
      <trkpt lat="45.85953" lon="6.45201">
        <ele>2240.6</ele>
        <time>2024-04-27T08:00:26Z</time>
      </trkpt>
      <trkpt lat="45.85953" lon="6.45201">
        <ele>2240.6</ele>
        <time>2024-04-27T08:00:27Z</time>
      </trkpt>
      <trkpt lat="45.85953" lon="6.45201">
        <ele>2240.6</ele>
        <time>2024-04-27T08:00:28Z</time>
      </trkpt>
      <trkpt lat="45.85953" lon="6.45201">
        <ele>2240.6</ele>
        <time>2024-04-27T08:00:29Z</time>
      </trkpt>
      <trkpt lat="45.85953" lon="6.45201">
        <ele>2240.6</ele>
        <time>2024-04-27T08:00:30Z</time>
      </trkpt>
      <trkpt lat="45.85953" lon="6.45201">
        <ele>2240.6</ele>
        <time>2024-04-27T08:00:31Z</time>
      </trkpt>
      <trkpt lat="45.85953" lon="6.45201">
        <ele>2240.6</ele>
        <time>2024-04-27T08:00:32Z</time>
      </trkpt>
      <trkpt lat="45.85953" lon="6.45201">
        <ele>2240.6</ele>
        <time>2024-04-27T08:00:33Z</time>
      </trkpt>
      <trkpt lat="45.85953" lon="6.45201">
        <ele>2240.6</ele>
        <time>2024-04-27T08:00:34Z</time>
      </trkpt>
      <trkpt lat="45.85953" lon="6.45201">
        <ele>2240.6</ele>
        <time>2024-04-27T08:00:35Z</time>
      </trkpt>
      <trkpt lat="45.85953" lon="6.45201">
        <ele>2240.6</ele>
        <time>2024-04-27T08:00:36Z</time>
      </trkpt>
      <trkpt lat="45.85953" lon="6.45201">
        <ele>2240.6</ele>
        <time>2024-04-27T08:00:37Z</time>
      </trkpt>
      <trkpt lat="45.85953" lon="6.45201">
        <ele>2240.6</ele>
        <time>2024-04-27T08:00:38Z</time>
      </trkpt>
      <trkpt lat="45.85953" lon="6.45201">
        <ele>2240.6</ele>
        <time>2024-04-27T08:00:39Z</time>
      </trkpt>
      <trkpt lat="45.85953" lon="6.45201">
        <ele>2241.7</ele>
        <time>2024-04-27T08:00:40Z</time>
      </trkpt>
      <trkpt lat="45.85953" lon="6.45201">
        <ele>2241.7</ele>
        <time>2024-04-27T08:00:41Z</time>
      </trkpt>
      <trkpt lat="45.85953" lon="6.45201">
        <ele>2241.7</ele>
        <time>2024-04-27T08:00:42Z</time>
      </trkpt>
      <trkpt lat="45.85953" lon="6.45201">
        <ele>2241.7</ele>
        <time>2024-04-27T08:00:43Z</time>
      </trkpt>
      <trkpt lat="45.85953" lon="6.45201">
        <ele>2241.7</ele>
        <time>2024-04-27T08:00:44Z</time>
      </trkpt>
      <trkpt lat="45.85953" lon="6.45201">
        <ele>2241.7</ele>
        <time>2024-04-27T08:00:45Z</time>
      </trkpt>
      <trkpt lat="45.85953" lon="6.45201">
        <ele>2241.7</ele>
        <time>2024-04-27T08:00:46Z</time>
      </trkpt>
      <trkpt lat="45.85953" lon="6.45201">
        <ele>2241.7</ele>
        <time>2024-04-27T08:00:47Z</time>
      </trkpt>
      <trkpt lat="45.85953" lon="6.45201">
        <ele>2241.7</ele>
        <time>2024-04-27T08:00:48Z</time>
      </trkpt>
      <trkpt lat="45.85953" lon="6.45201">
        <ele>2241.7</ele>
        <time>2024-04-27T08:00:49Z</time>
      </trkpt>
      <trkpt lat="45.85953" lon="6.45201">
        <ele>2241.7</ele>
        <time>2024-04-27T08:00:50Z</time>
      </trkpt>
      <trkpt lat="45.85953" lon="6.45201">
        <ele>2241.7</ele>
        <time>2024-04-27T08:00:51Z</time>
      </trkpt>
      <trkpt lat="45.85953" lon="6.45201">
        <ele>2241.7</ele>
        <time>2024-04-27T08:00:52Z</time>
      </trkpt>
      <trkpt lat="45.85953" lon="6.45201">
        <ele>2241.7</ele>
        <time>2024-04-27T08:00:53Z</time>
      </trkpt>
      <trkpt lat="45.85953" lon="6.45201">
        <ele>2241.7</ele>
        <time>2024-04-27T08:00:54Z</time>
      </trkpt>
      <trkpt lat="45.85953" lon="6.45201">
        <ele>2241.7</ele>
        <time>2024-04-27T08:00:55Z</time>
      </trkpt>
      <trkpt lat="45.85953" lon="6.45201">
        <ele>2241.7</ele>
        <time>2024-04-27T08:00:56Z</time>
      </trkpt>
      <trkpt lat="45.85953" lon="6.45201">
        <ele>2241.7</ele>
        <time>2024-04-27T08:00:57Z</time>
      </trkpt>
      <trkpt lat="45.85953" lon="6.45201">
        <ele>2240.6</ele>
        <time>2024-04-27T08:00:58Z</time>
      </trkpt>
      <trkpt lat="45.85953" lon="6.45201">
        <ele>2240.6</ele>
        <time>2024-04-27T08:00:59Z</time>
      </trkpt>
      <trkpt lat="45.85953" lon="6.45201">
        <ele>2240.6</ele>
        <time>2024-04-27T08:01:00Z</time>
      </trkpt>
      <trkpt lat="45.85953" lon="6.45201">
        <ele>2240.6</ele>
        <time>2024-04-27T08:01:01Z</time>
      </trkpt>
      <trkpt lat="45.85953" lon="6.45201">
        <ele>2240.6</ele>
        <time>2024-04-27T08:01:02Z</time>
      </trkpt>
      <trkpt lat="45.85953" lon="6.45201">
        <ele>2240.6</ele>
        <time>2024-04-27T08:01:03Z</time>
      </trkpt>
      <trkpt lat="45.85953" lon="6.45201">
        <ele>2240.6</ele>
        <time>2024-04-27T08:01:04Z</time>
      </trkpt>
      <trkpt lat="45.85953" lon="6.45201">
        <ele>2240.6</ele>
        <time>2024-04-27T08:01:05Z</time>
      </trkpt>
      <trkpt lat="45.85953" lon="6.45201">
        <ele>2240.6</ele>
        <time>2024-04-27T08:01:06Z</time>
      </trkpt>
      <trkpt lat="45.85952" lon="6.45202">
        <ele>2240.6</ele>
        <time>2024-04-27T08:01:07Z</time>
      </trkpt>
      <trkpt lat="45.85952" lon="6.45202">
        <ele>2240.6</ele>
        <time>2024-04-27T08:01:08Z</time>
      </trkpt>
      <trkpt lat="45.85952" lon="6.45202">
        <ele>2240.6</ele>
        <time>2024-04-27T08:01:09Z</time>
      </trkpt>
      <trkpt lat="45.85952" lon="6.45202">
        <ele>2240.6</ele>
        <time>2024-04-27T08:01:10Z</time>
      </trkpt>
      <trkpt lat="45.85951" lon="6.45203">
        <ele>2240.6</ele>
        <time>2024-04-27T08:01:11Z</time>
      </trkpt>
      <trkpt lat="45.85951" lon="6.45203">
        <ele>2240.6</ele>
        <time>2024-04-27T08:01:12Z</time>
      </trkpt>
      <trkpt lat="45.85951" lon="6.45204">
        <ele>2240.6</ele>
        <time>2024-04-27T08:01:13Z</time>
      </trkpt>
      <trkpt lat="45.85951" lon="6.45204">
        <ele>2240.6</ele>
        <time>2024-04-27T08:01:14Z</time>
      </trkpt>
      <trkpt lat="45.8595" lon="6.45205">
        <ele>2240.6</ele>
        <time>2024-04-27T08:01:15Z</time>
      </trkpt>
      <trkpt lat="45.8595" lon="6.45205">
        <ele>2240.6</ele>
        <time>2024-04-27T08:01:16Z</time>
      </trkpt>
      <trkpt lat="45.85949" lon="6.45206">
        <ele>2240.6</ele>
        <time>2024-04-27T08:01:17Z</time>
      </trkpt>
      <trkpt lat="45.85949" lon="6.45206">
        <ele>2240.6</ele>
        <time>2024-04-27T08:01:18Z</time>
      </trkpt>
      <trkpt lat="45.85949" lon="6.45207">
        <ele>2240.6</ele>
        <time>2024-04-27T08:01:19Z</time>
      </trkpt>
      <trkpt lat="45.85949" lon="6.45207">
        <ele>2240.6</ele>
        <time>2024-04-27T08:01:20Z</time>
      </trkpt>
      <trkpt lat="45.85949" lon="6.45207">
        <ele>2240.6</ele>
        <time>2024-04-27T08:01:21Z</time>
      </trkpt>
      <trkpt lat="45.85949" lon="6.45207">
        <ele>2240.6</ele>
        <time>2024-04-27T08:01:22Z</time>
      </trkpt>
      <trkpt lat="45.85949" lon="6.45207">
        <ele>2240.6</ele>
        <time>2024-04-27T08:01:23Z</time>
      </trkpt>
      <trkpt lat="45.85949" lon="6.45207">
        <ele>2240.6</ele>
        <time>2024-04-27T08:01:24Z</time>
      </trkpt>
      <trkpt lat="45.85949" lon="6.45207">
        <ele>2240.6</ele>
        <time>2024-04-27T08:01:25Z</time>
      </trkpt>
      <trkpt lat="45.85949" lon="6.45207">
        <ele>2240.6</ele>
        <time>2024-04-27T08:01:26Z</time>
      </trkpt>
      <trkpt lat="45.85949" lon="6.45207">
        <ele>2240.6</ele>
        <time>2024-04-27T08:01:27Z</time>
      </trkpt>
      <trkpt lat="45.85949" lon="6.45207">
        <ele>2240.6</ele>
        <time>2024-04-27T08:01:28Z</time>
      </trkpt>
      <trkpt lat="45.85949" lon="6.45207">
        <ele>2240.6</ele>
        <time>2024-04-27T08:01:29Z</time>
      </trkpt>
      <trkpt lat="45.85949" lon="6.45207">
        <ele>2240.6</ele>
        <time>2024-04-27T08:01:30Z</time>
      </trkpt>
      <trkpt lat="45.85949" lon="6.45207">
        <ele>2240.6</ele>
        <time>2024-04-27T08:01:31Z</time>
      </trkpt>
      <trkpt lat="45.85949" lon="6.45207">
        <ele>2240.6</ele>
        <time>2024-04-27T08:01:32Z</time>
      </trkpt>
      <trkpt lat="45.85949" lon="6.45207">
        <ele>2240.6</ele>
        <time>2024-04-27T08:01:33Z</time>
      </trkpt>
      <trkpt lat="45.85949" lon="6.45207">
        <ele>2240.6</ele>
        <time>2024-04-27T08:01:34Z</time>
      </trkpt>
      <trkpt lat="45.85949" lon="6.45207">
        <ele>2240.6</ele>
        <time>2024-04-27T08:01:35Z</time>
      </trkpt>
      <trkpt lat="45.85949" lon="6.45207">
        <ele>2240.6</ele>
        <time>2024-04-27T08:01:36Z</time>
      </trkpt>
      <trkpt lat="45.85949" lon="6.45207">
        <ele>2240.6</ele>
        <time>2024-04-27T08:01:37Z</time>
      </trkpt>
      <trkpt lat="45.85949" lon="6.45207">
        <ele>2240.6</ele>
        <time>2024-04-27T08:01:38Z</time>
      </trkpt>
      <trkpt lat="45.8595" lon="6.45207">
        <ele>2240.6</ele>
        <time>2024-04-27T08:01:39Z</time>
      </trkpt>
      <trkpt lat="45.8595" lon="6.45207">
        <ele>2240.6</ele>
        <time>2024-04-27T08:01:40Z</time>
      </trkpt>
      <trkpt lat="45.8595" lon="6.45207">
        <ele>2240.6</ele>
        <time>2024-04-27T08:01:41Z</time>
      </trkpt>
      <trkpt lat="45.8595" lon="6.45207">
        <ele>2240.6</ele>
        <time>2024-04-27T08:01:42Z</time>
      </trkpt>
      <trkpt lat="45.8595" lon="6.45207">
        <ele>2240.6</ele>
        <time>2024-04-27T08:01:43Z</time>
      </trkpt>
      <trkpt lat="45.8595" lon="6.45207">
        <ele>2240.6</ele>
        <time>2024-04-27T08:01:44Z</time>
      </trkpt>
      <trkpt lat="45.85951" lon="6.45207">
        <ele>2240.6</ele>
        <time>2024-04-27T08:01:45Z</time>
      </trkpt>
      <trkpt lat="45.85951" lon="6.45207">
        <ele>2240.6</ele>
        <time>2024-04-27T08:01:46Z</time>
      </trkpt>
      <trkpt lat="45.85951" lon="6.45207">
        <ele>2240.6</ele>
        <time>2024-04-27T08:01:47Z</time>
      </trkpt>
      <trkpt lat="45.85951" lon="6.45207">
        <ele>2240.6</ele>
        <time>2024-04-27T08:01:48Z</time>
      </trkpt>
      <trkpt lat="45.85951" lon="6.45206">
        <ele>2240.6</ele>
        <time>2024-04-27T08:01:49Z</time>
      </trkpt>
      <trkpt lat="45.85951" lon="6.45206">
        <ele>2240.6</ele>
        <time>2024-04-27T08:01:50Z</time>
      </trkpt>
      <trkpt lat="45.85951" lon="6.45206">
        <ele>2240.6</ele>
        <time>2024-04-27T08:01:51Z</time>
      </trkpt>
      <trkpt lat="45.85951" lon="6.45206">
        <ele>2240.6</ele>
        <time>2024-04-27T08:01:52Z</time>
      </trkpt>
      <trkpt lat="45.85951" lon="6.45206">
        <ele>2240.6</ele>
        <time>2024-04-27T08:01:53Z</time>
      </trkpt>
      <trkpt lat="45.85951" lon="6.45206">
        <ele>2240.6</ele>
        <time>2024-04-27T08:01:54Z</time>
      </trkpt>
      <trkpt lat="45.85951" lon="6.45206">
        <ele>2240.6</ele>
        <time>2024-04-27T08:01:55Z</time>
      </trkpt>
      <trkpt lat="45.85951" lon="6.45206">
        <ele>2240.6</ele>
        <time>2024-04-27T08:01:56Z</time>
      </trkpt>
      <trkpt lat="45.85951" lon="6.45206">
        <ele>2240.6</ele>
        <time>2024-04-27T08:01:57Z</time>
      </trkpt>
      <trkpt lat="45.85951" lon="6.45206">
        <ele>2240.6</ele>
        <time>2024-04-27T08:01:58Z</time>
      </trkpt>
      <trkpt lat="45.8595" lon="6.45206">
        <ele>2240.6</ele>
        <time>2024-04-27T08:01:59Z</time>
      </trkpt>
      <trkpt lat="45.8595" lon="6.45206">
        <ele>2240.6</ele>
        <time>2024-04-27T08:02:00Z</time>
      </trkpt>
      <trkpt lat="45.8595" lon="6.45205">
        <ele>2240.6</ele>
        <time>2024-04-27T08:02:01Z</time>
      </trkpt>
      <trkpt lat="45.8595" lon="6.45205">
        <ele>2240.6</ele>
        <time>2024-04-27T08:02:02Z</time>
      </trkpt>
      <trkpt lat="45.8595" lon="6.45205">
        <ele>2240.6</ele>
        <time>2024-04-27T08:02:03Z</time>
      </trkpt>
      <trkpt lat="45.8595" lon="6.45205">
        <ele>2240.6</ele>
        <time>2024-04-27T08:02:04Z</time>
      </trkpt>
      <trkpt lat="45.8595" lon="6.45205">
        <ele>2240.6</ele>
        <time>2024-04-27T08:02:05Z</time>
      </trkpt>
      <trkpt lat="45.8595" lon="6.45205">
        <ele>2240.6</ele>
        <time>2024-04-27T08:02:06Z</time>
      </trkpt>
      <trkpt lat="45.8595" lon="6.45205">
        <ele>2240.6</ele>
        <time>2024-04-27T08:02:07Z</time>
      </trkpt>
      <trkpt lat="45.8595" lon="6.45205">
        <ele>2240.6</ele>
        <time>2024-04-27T08:02:08Z</time>
      </trkpt>
      <trkpt lat="45.8595" lon="6.45205">
        <ele>2240.6</ele>
        <time>2024-04-27T08:02:09Z</time>
      </trkpt>
      <trkpt lat="45.8595" lon="6.45205">
        <ele>2240.6</ele>
        <time>2024-04-27T08:02:10Z</time>
      </trkpt>
      <trkpt lat="45.8595" lon="6.45205">
        <ele>2240.6</ele>
        <time>2024-04-27T08:02:11Z</time>
      </trkpt>
      <trkpt lat="45.8595" lon="6.45205">
        <ele>2240.6</ele>
        <time>2024-04-27T08:02:12Z</time>
      </trkpt>
      <trkpt lat="45.8595" lon="6.45204">
        <ele>2240.6</ele>
        <time>2024-04-27T08:02:13Z</time>
      </trkpt>
      <trkpt lat="45.8595" lon="6.45204">
        <ele>2240.6</ele>
        <time>2024-04-27T08:02:14Z</time>
      </trkpt>
      <trkpt lat="45.8595" lon="6.45203">
        <ele>2240.6</ele>
        <time>2024-04-27T08:02:15Z</time>
      </trkpt>
      <trkpt lat="45.8595" lon="6.45203">
        <ele>2240.6</ele>
        <time>2024-04-27T08:02:16Z</time>
      </trkpt>
      <trkpt lat="45.8595" lon="6.45202">
        <ele>2240.6</ele>
        <time>2024-04-27T08:02:17Z</time>
      </trkpt>
      <trkpt lat="45.8595" lon="6.45202">
        <ele>2240.6</ele>
        <time>2024-04-27T08:02:18Z</time>
      </trkpt>
      <trkpt lat="45.8595" lon="6.45202">
        <ele>2240.6</ele>
        <time>2024-04-27T08:02:19Z</time>
      </trkpt>
      <trkpt lat="45.8595" lon="6.45202">
        <ele>2240.6</ele>
        <time>2024-04-27T08:02:20Z</time>
      </trkpt>
      <trkpt lat="45.8595" lon="6.45202">
        <ele>2240.6</ele>
        <time>2024-04-27T08:02:21Z</time>
      </trkpt>
      <trkpt lat="45.85951" lon="6.45202">
        <ele>2240.6</ele>
        <time>2024-04-27T08:02:22Z</time>
      </trkpt>
      <trkpt lat="45.85951" lon="6.45202">
        <ele>2240.6</ele>
        <time>2024-04-27T08:02:23Z</time>
      </trkpt>
      <trkpt lat="45.85951" lon="6.45202">
        <ele>2240.6</ele>
        <time>2024-04-27T08:02:24Z</time>
      </trkpt>
      <trkpt lat="45.85951" lon="6.45202">
        <ele>2240.6</ele>
        <time>2024-04-27T08:02:25Z</time>
      </trkpt>
      <trkpt lat="45.85951" lon="6.45202">
        <ele>2239.7</ele>
        <time>2024-04-27T08:02:26Z</time>
      </trkpt>
      <trkpt lat="45.85952" lon="6.45202">
        <ele>2239.7</ele>
        <time>2024-04-27T08:02:27Z</time>
      </trkpt>
      <trkpt lat="45.85952" lon="6.45202">
        <ele>2239.7</ele>
        <time>2024-04-27T08:02:28Z</time>
      </trkpt>
      <trkpt lat="45.85952" lon="6.45202">
        <ele>2239.7</ele>
        <time>2024-04-27T08:02:29Z</time>
      </trkpt>
      <trkpt lat="45.85952" lon="6.45202">
        <ele>2239.7</ele>
        <time>2024-04-27T08:02:30Z</time>
      </trkpt>
      <trkpt lat="45.85952" lon="6.45202">
        <ele>2239.7</ele>
        <time>2024-04-27T08:02:31Z</time>
      </trkpt>
      <trkpt lat="45.85952" lon="6.45202">
        <ele>2239.7</ele>
        <time>2024-04-27T08:02:32Z</time>
      </trkpt>
      <trkpt lat="45.85952" lon="6.45202">
        <ele>2239.7</ele>
        <time>2024-04-27T08:02:33Z</time>
      </trkpt>
      <trkpt lat="45.85952" lon="6.45202">
        <ele>2239.7</ele>
        <time>2024-04-27T08:02:34Z</time>
      </trkpt>
      <trkpt lat="45.85952" lon="6.45202">
        <ele>2239.7</ele>
        <time>2024-04-27T08:02:35Z</time>
      </trkpt>
      <trkpt lat="45.85952" lon="6.45202">
        <ele>2239.7</ele>
        <time>2024-04-27T08:02:36Z</time>
      </trkpt>
      <trkpt lat="45.85952" lon="6.45202">
        <ele>2239.7</ele>
        <time>2024-04-27T08:02:37Z</time>
      </trkpt>
      <trkpt lat="45.85952" lon="6.45203">
        <ele>2239.7</ele>
        <time>2024-04-27T08:02:38Z</time>
      </trkpt>
      <trkpt lat="45.85952" lon="6.45203">
        <ele>2239.7</ele>
        <time>2024-04-27T08:02:39Z</time>
      </trkpt>
      <trkpt lat="45.85952" lon="6.45203">
        <ele>2239.7</ele>
        <time>2024-04-27T08:02:40Z</time>
      </trkpt>
      <trkpt lat="45.85952" lon="6.45203">
        <ele>2239.7</ele>
        <time>2024-04-27T08:02:41Z</time>
      </trkpt>
      <trkpt lat="45.85952" lon="6.45203">
        <ele>2239.7</ele>
        <time>2024-04-27T08:02:42Z</time>
      </trkpt>
      <trkpt lat="45.85952" lon="6.45204">
        <ele>2239.7</ele>
        <time>2024-04-27T08:02:43Z</time>
      </trkpt>
      <trkpt lat="45.85952" lon="6.45204">
        <ele>2239.7</ele>
        <time>2024-04-27T08:02:44Z</time>
      </trkpt>
      <trkpt lat="45.85952" lon="6.45204">
        <ele>2239.7</ele>
        <time>2024-04-27T08:02:45Z</time>
      </trkpt>
      <trkpt lat="45.85952" lon="6.45204">
        <ele>2239.7</ele>
        <time>2024-04-27T08:02:46Z</time>
      </trkpt>
      <trkpt lat="45.85952" lon="6.45204">
        <ele>2239.7</ele>
        <time>2024-04-27T08:02:47Z</time>
      </trkpt>
      <trkpt lat="45.85952" lon="6.45204">
        <ele>2239.7</ele>
        <time>2024-04-27T08:02:48Z</time>
      </trkpt>
      <trkpt lat="45.85952" lon="6.45204">
        <ele>2239.7</ele>
        <time>2024-04-27T08:02:49Z</time>
      </trkpt>
      <trkpt lat="45.85952" lon="6.45204">
        <ele>2239.7</ele>
        <time>2024-04-27T08:02:50Z</time>
      </trkpt>
      <trkpt lat="45.85952" lon="6.45204">
        <ele>2239.7</ele>
        <time>2024-04-27T08:02:51Z</time>
      </trkpt>
      <trkpt lat="45.85952" lon="6.45204">
        <ele>2239.7</ele>
        <time>2024-04-27T08:02:52Z</time>
      </trkpt>
      <trkpt lat="45.85952" lon="6.45204">
        <ele>2239.7</ele>
        <time>2024-04-27T08:02:53Z</time>
      </trkpt>
      <trkpt lat="45.85952" lon="6.45204">
        <ele>2239.7</ele>
        <time>2024-04-27T08:02:54Z</time>
      </trkpt>
      <trkpt lat="45.85952" lon="6.45204">
        <ele>2239.7</ele>
        <time>2024-04-27T08:02:55Z</time>
      </trkpt>
      <trkpt lat="45.85952" lon="6.45204">
        <ele>2239.7</ele>
        <time>2024-04-27T08:02:56Z</time>
      </trkpt>
      <trkpt lat="45.85951" lon="6.45204">
        <ele>2239.7</ele>
        <time>2024-04-27T08:02:57Z</time>
      </trkpt>
      <trkpt lat="45.85951" lon="6.45204">
        <ele>2239.7</ele>
        <time>2024-04-27T08:02:58Z</time>
      </trkpt>
      <trkpt lat="45.85951" lon="6.45204">
        <ele>2239.7</ele>
        <time>2024-04-27T08:02:59Z</time>
      </trkpt>
      <trkpt lat="45.85951" lon="6.45204">
        <ele>2241.7</ele>
        <time>2024-04-27T08:03:00Z</time>
      </trkpt>
      <trkpt lat="45.85951" lon="6.45204">
        <ele>2241.7</ele>
        <time>2024-04-27T08:03:01Z</time>
      </trkpt>
      <trkpt lat="45.85951" lon="6.45204">
        <ele>2241.7</ele>
        <time>2024-04-27T08:03:02Z</time>
      </trkpt>
      <trkpt lat="45.85951" lon="6.45204">
        <ele>2241.7</ele>
        <time>2024-04-27T08:03:03Z</time>
      </trkpt>
      <trkpt lat="45.85951" lon="6.45204">
        <ele>2241.7</ele>
        <time>2024-04-27T08:03:04Z</time>
      </trkpt>
      <trkpt lat="45.85951" lon="6.45204">
        <ele>2241.7</ele>
        <time>2024-04-27T08:03:05Z</time>
      </trkpt>
      <trkpt lat="45.85951" lon="6.45204">
        <ele>2241.7</ele>
        <time>2024-04-27T08:03:06Z</time>
      </trkpt>
      <trkpt lat="45.85951" lon="6.45204">
        <ele>2241.7</ele>
        <time>2024-04-27T08:03:07Z</time>
      </trkpt>
      <trkpt lat="45.85951" lon="6.45204">
        <ele>2241.7</ele>
        <time>2024-04-27T08:03:08Z</time>
      </trkpt>
      <trkpt lat="45.85951" lon="6.45203">
        <ele>2241.7</ele>
        <time>2024-04-27T08:03:09Z</time>
      </trkpt>
      <trkpt lat="45.85951" lon="6.45203">
        <ele>2241.7</ele>
        <time>2024-04-27T08:03:10Z</time>
      </trkpt>
      <trkpt lat="45.85951" lon="6.45202">
        <ele>2241.7</ele>
        <time>2024-04-27T08:03:11Z</time>
      </trkpt>
      <trkpt lat="45.85951" lon="6.45202">
        <ele>2241.7</ele>
        <time>2024-04-27T08:03:12Z</time>
      </trkpt>
      <trkpt lat="45.85951" lon="6.45202">
        <ele>2241.7</ele>
        <time>2024-04-27T08:03:13Z</time>
      </trkpt>
      <trkpt lat="45.85951" lon="6.45202">
        <ele>2241.7</ele>
        <time>2024-04-27T08:03:14Z</time>
      </trkpt>
      <trkpt lat="45.85951" lon="6.45202">
        <ele>2241.7</ele>
        <time>2024-04-27T08:03:15Z</time>
      </trkpt>
      <trkpt lat="45.85952" lon="6.45202">
        <ele>2241.7</ele>
        <time>2024-04-27T08:03:16Z</time>
      </trkpt>
      <trkpt lat="45.85952" lon="6.45202">
        <ele>2241.7</ele>
        <time>2024-04-27T08:03:17Z</time>
      </trkpt>
      <trkpt lat="45.85952" lon="6.45202">
        <ele>2241.7</ele>
        <time>2024-04-27T08:03:18Z</time>
      </trkpt>
      <trkpt lat="45.85952" lon="6.45202">
        <ele>2241.7</ele>
        <time>2024-04-27T08:03:19Z</time>
      </trkpt>
      <trkpt lat="45.85952" lon="6.45202">
        <ele>2241.7</ele>
        <time>2024-04-27T08:03:20Z</time>
      </trkpt>
      <trkpt lat="45.85952" lon="6.45202">
        <ele>2241.7</ele>
        <time>2024-04-27T08:03:21Z</time>
      </trkpt>
      <trkpt lat="45.85952" lon="6.45202">
        <ele>2241.7</ele>
        <time>2024-04-27T08:03:22Z</time>
      </trkpt>
      <trkpt lat="45.85952" lon="6.45202">
        <ele>2241.7</ele>
        <time>2024-04-27T08:03:23Z</time>
      </trkpt>
      <trkpt lat="45.85952" lon="6.45202">
        <ele>2241.7</ele>
        <time>2024-04-27T08:03:24Z</time>
      </trkpt>
      <trkpt lat="45.85952" lon="6.45202">
        <ele>2241.7</ele>
        <time>2024-04-27T08:03:25Z</time>
      </trkpt>
      <trkpt lat="45.85952" lon="6.45202">
        <ele>2241.7</ele>
        <time>2024-04-27T08:03:26Z</time>
      </trkpt>
      <trkpt lat="45.85952" lon="6.45202">
        <ele>2241.7</ele>
        <time>2024-04-27T08:03:27Z</time>
      </trkpt>
      <trkpt lat="45.85952" lon="6.45202">
        <ele>2241.7</ele>
        <time>2024-04-27T08:03:28Z</time>
      </trkpt>
      <trkpt lat="45.85953" lon="6.45202">
        <ele>2241.7</ele>
        <time>2024-04-27T08:03:29Z</time>
      </trkpt>
      <trkpt lat="45.85953" lon="6.45202">
        <ele>2240.6</ele>
        <time>2024-04-27T08:03:30Z</time>
      </trkpt>
      <trkpt lat="45.85953" lon="6.45203">
        <ele>2240.6</ele>
        <time>2024-04-27T08:03:31Z</time>
      </trkpt>
      <trkpt lat="45.85953" lon="6.45203">
        <ele>2240.6</ele>
        <time>2024-04-27T08:03:32Z</time>
      </trkpt>
      <trkpt lat="45.85953" lon="6.45203">
        <ele>2240.6</ele>
        <time>2024-04-27T08:03:33Z</time>
      </trkpt>
      <trkpt lat="45.85953" lon="6.45203">
        <ele>2240.6</ele>
        <time>2024-04-27T08:03:34Z</time>
      </trkpt>
      <trkpt lat="45.85953" lon="6.45204">
        <ele>2240.6</ele>
        <time>2024-04-27T08:03:35Z</time>
      </trkpt>
      <trkpt lat="45.85953" lon="6.45204">
        <ele>2240.6</ele>
        <time>2024-04-27T08:03:36Z</time>
      </trkpt>
      <trkpt lat="45.85953" lon="6.45204">
        <ele>2240.6</ele>
        <time>2024-04-27T08:03:37Z</time>
      </trkpt>
      <trkpt lat="45.85953" lon="6.45204">
        <ele>2240.6</ele>
        <time>2024-04-27T08:03:38Z</time>
      </trkpt>
      <trkpt lat="45.85953" lon="6.45204">
        <ele>2240.6</ele>
        <time>2024-04-27T08:03:39Z</time>
      </trkpt>
      <trkpt lat="45.85952" lon="6.45204">
        <ele>2240.6</ele>
        <time>2024-04-27T08:03:40Z</time>
      </trkpt>
      <trkpt lat="45.85952" lon="6.45205">
        <ele>2240.6</ele>
        <time>2024-04-27T08:03:41Z</time>
      </trkpt>
      <trkpt lat="45.85952" lon="6.45205">
        <ele>2240.6</ele>
        <time>2024-04-27T08:03:42Z</time>
      </trkpt>
      <trkpt lat="45.85952" lon="6.45205">
        <ele>2240.6</ele>
        <time>2024-04-27T08:03:43Z</time>
      </trkpt>
      <trkpt lat="45.85952" lon="6.45205">
        <ele>2240.6</ele>
        <time>2024-04-27T08:03:44Z</time>
      </trkpt>
      <trkpt lat="45.85952" lon="6.45205">
        <ele>2240.6</ele>
        <time>2024-04-27T08:03:45Z</time>
      </trkpt>
      <trkpt lat="45.85952" lon="6.45205">
        <ele>2240.6</ele>
        <time>2024-04-27T08:03:46Z</time>
      </trkpt>
      <trkpt lat="45.85952" lon="6.45205">
        <ele>2240.6</ele>
        <time>2024-04-27T08:03:47Z</time>
      </trkpt>
      <trkpt lat="45.85952" lon="6.45205">
        <ele>2240.6</ele>
        <time>2024-04-27T08:03:48Z</time>
      </trkpt>
      <trkpt lat="45.85952" lon="6.45205">
        <ele>2240.6</ele>
        <time>2024-04-27T08:03:49Z</time>
      </trkpt>
      <trkpt lat="45.85952" lon="6.45205">
        <ele>2240.6</ele>
        <time>2024-04-27T08:03:50Z</time>
      </trkpt>
      <trkpt lat="45.85952" lon="6.45205">
        <ele>2240.6</ele>
        <time>2024-04-27T08:03:51Z</time>
      </trkpt>
      <trkpt lat="45.85952" lon="6.45205">
        <ele>2240.6</ele>
        <time>2024-04-27T08:03:52Z</time>
      </trkpt>
      <trkpt lat="45.85952" lon="6.45206">
        <ele>2240.6</ele>
        <time>2024-04-27T08:03:53Z</time>
      </trkpt>
      <trkpt lat="45.85952" lon="6.45206">
        <ele>2240.6</ele>
        <time>2024-04-27T08:03:54Z</time>
      </trkpt>
      <trkpt lat="45.85952" lon="6.45207">
        <ele>2240.6</ele>
        <time>2024-04-27T08:03:55Z</time>
      </trkpt>
      <trkpt lat="45.85952" lon="6.45207">
        <ele>2240.6</ele>
        <time>2024-04-27T08:03:56Z</time>
      </trkpt>
      <trkpt lat="45.85952" lon="6.45207">
        <ele>2240.6</ele>
        <time>2024-04-27T08:03:57Z</time>
      </trkpt>
      <trkpt lat="45.85952" lon="6.45207">
        <ele>2240.6</ele>
        <time>2024-04-27T08:03:58Z</time>
      </trkpt>
      <trkpt lat="45.85952" lon="6.45207">
        <ele>2240.6</ele>
        <time>2024-04-27T08:03:59Z</time>
      </trkpt>
      <trkpt lat="45.85952" lon="6.45207">
        <ele>2240.6</ele>
        <time>2024-04-27T08:04:00Z</time>
      </trkpt>
      <trkpt lat="45.85952" lon="6.45207">
        <ele>2240.6</ele>
        <time>2024-04-27T08:04:01Z</time>
      </trkpt>
      <trkpt lat="45.85952" lon="6.45207">
        <ele>2240.6</ele>
        <time>2024-04-27T08:04:02Z</time>
      </trkpt>
      <trkpt lat="45.85952" lon="6.45207">
        <ele>2240.6</ele>
        <time>2024-04-27T08:04:03Z</time>
      </trkpt>
      <trkpt lat="45.85952" lon="6.45207">
        <ele>2240.6</ele>
        <time>2024-04-27T08:04:04Z</time>
      </trkpt>
      <trkpt lat="45.85952" lon="6.45207">
        <ele>2240.6</ele>
        <time>2024-04-27T08:04:05Z</time>
      </trkpt>
      <trkpt lat="45.85953" lon="6.45207">
        <ele>2240.6</ele>
        <time>2024-04-27T08:04:06Z</time>
      </trkpt>
      <trkpt lat="45.85953" lon="6.45207">
        <ele>2240.6</ele>
        <time>2024-04-27T08:04:07Z</time>
      </trkpt>
      <trkpt lat="45.85953" lon="6.45207">
        <ele>2240.6</ele>
        <time>2024-04-27T08:04:08Z</time>
      </trkpt>
      <trkpt lat="45.85953" lon="6.45207">
        <ele>2240.6</ele>
        <time>2024-04-27T08:04:09Z</time>
      </trkpt>
      <trkpt lat="45.85953" lon="6.45207">
        <ele>2240.6</ele>
        <time>2024-04-27T08:04:10Z</time>
      </trkpt>
      <trkpt lat="45.85953" lon="6.45207">
        <ele>2240.6</ele>
        <time>2024-04-27T08:04:11Z</time>
      </trkpt>
      <trkpt lat="45.85953" lon="6.45207">
        <ele>2240.6</ele>
        <time>2024-04-27T08:04:12Z</time>
      </trkpt>
      <trkpt lat="45.85953" lon="6.45207">
        <ele>2240.6</ele>
        <time>2024-04-27T08:04:13Z</time>
      </trkpt>
      <trkpt lat="45.85953" lon="6.45207">
        <ele>2240.6</ele>
        <time>2024-04-27T08:04:14Z</time>
      </trkpt>
      <trkpt lat="45.85953" lon="6.45207">
        <ele>2240.6</ele>
        <time>2024-04-27T08:04:15Z</time>
      </trkpt>
      <trkpt lat="45.85953" lon="6.45207">
        <ele>2240.6</ele>
        <time>2024-04-27T08:04:16Z</time>
      </trkpt>
      <trkpt lat="45.85953" lon="6.45207">
        <ele>2240.6</ele>
        <time>2024-04-27T08:04:17Z</time>
      </trkpt>
      <trkpt lat="45.85953" lon="6.45207">
        <ele>2240.6</ele>
        <time>2024-04-27T08:04:18Z</time>
      </trkpt>
      <trkpt lat="45.85953" lon="6.45207">
        <ele>2240.6</ele>
        <time>2024-04-27T08:04:19Z</time>
      </trkpt>
      <trkpt lat="45.85953" lon="6.45207">
        <ele>2240.6</ele>
        <time>2024-04-27T08:04:20Z</time>
      </trkpt>
      <trkpt lat="45.85953" lon="6.45207">
        <ele>2240.6</ele>
        <time>2024-04-27T08:04:21Z</time>
      </trkpt>
      <trkpt lat="45.85953" lon="6.45207">
        <ele>2240.6</ele>
        <time>2024-04-27T08:04:22Z</time>
      </trkpt>
      <trkpt lat="45.85952" lon="6.45207">
        <ele>2240.6</ele>
        <time>2024-04-27T08:04:23Z</time>
      </trkpt>
      <trkpt lat="45.85952" lon="6.45207">
        <ele>2240.6</ele>
        <time>2024-04-27T08:04:24Z</time>
      </trkpt>
      <trkpt lat="45.85952" lon="6.45207">
        <ele>2240.6</ele>
        <time>2024-04-27T08:04:25Z</time>
      </trkpt>
      <trkpt lat="45.85951" lon="6.45207">
        <ele>2240.6</ele>
        <time>2024-04-27T08:04:26Z</time>
      </trkpt>
      <trkpt lat="45.85951" lon="6.45207">
        <ele>2240.6</ele>
        <time>2024-04-27T08:04:27Z</time>
      </trkpt>
      <trkpt lat="45.85951" lon="6.45207">
        <ele>2240.6</ele>
        <time>2024-04-27T08:04:28Z</time>
      </trkpt>
      <trkpt lat="45.85951" lon="6.45207">
        <ele>2240.6</ele>
        <time>2024-04-27T08:04:29Z</time>
      </trkpt>
      <trkpt lat="45.85951" lon="6.45207">
        <ele>2240.6</ele>
        <time>2024-04-27T08:04:30Z</time>
      </trkpt>
      <trkpt lat="45.8595" lon="6.45207">
        <ele>2240.6</ele>
        <time>2024-04-27T08:04:31Z</time>
      </trkpt>
      <trkpt lat="45.8595" lon="6.45207">
        <ele>2240.6</ele>
        <time>2024-04-27T08:04:32Z</time>
      </trkpt>
      <trkpt lat="45.8595" lon="6.45207">
        <ele>2240.6</ele>
        <time>2024-04-27T08:04:33Z</time>
      </trkpt>
      <trkpt lat="45.8595" lon="6.45207">
        <ele>2240.6</ele>
        <time>2024-04-27T08:04:34Z</time>
      </trkpt>
      <trkpt lat="45.8595" lon="6.45207">
        <ele>2240.6</ele>
        <time>2024-04-27T08:04:35Z</time>
      </trkpt>
      <trkpt lat="45.8595" lon="6.45207">
        <ele>2240.6</ele>
        <time>2024-04-27T08:04:36Z</time>
      </trkpt>
      <trkpt lat="45.8595" lon="6.45207">
        <ele>2240.6</ele>
        <time>2024-04-27T08:04:37Z</time>
      </trkpt>
      <trkpt lat="45.8595" lon="6.45207">
        <ele>2240.6</ele>
        <time>2024-04-27T08:04:38Z</time>
      </trkpt>
      <trkpt lat="45.8595" lon="6.45207">
        <ele>2240.6</ele>
        <time>2024-04-27T08:04:39Z</time>
      </trkpt>
      <trkpt lat="45.8595" lon="6.45207">
        <ele>2240.6</ele>
        <time>2024-04-27T08:04:40Z</time>
      </trkpt>
      <trkpt lat="45.8595" lon="6.45207">
        <ele>2240.6</ele>
        <time>2024-04-27T08:04:41Z</time>
      </trkpt>
      <trkpt lat="45.8595" lon="6.45207">
        <ele>2240.6</ele>
        <time>2024-04-27T08:04:42Z</time>
      </trkpt>
      <trkpt lat="45.8595" lon="6.45207">
        <ele>2240.6</ele>
        <time>2024-04-27T08:04:43Z</time>
      </trkpt>
      <trkpt lat="45.8595" lon="6.45207">
        <ele>2240.6</ele>
        <time>2024-04-27T08:04:44Z</time>
      </trkpt>
      <trkpt lat="45.8595" lon="6.45207">
        <ele>2240.6</ele>
        <time>2024-04-27T08:04:45Z</time>
      </trkpt>
      <trkpt lat="45.8595" lon="6.45207">
        <ele>2240.6</ele>
        <time>2024-04-27T08:04:46Z</time>
      </trkpt>
      <trkpt lat="45.8595" lon="6.45207">
        <ele>2240.6</ele>
        <time>2024-04-27T08:04:47Z</time>
      </trkpt>
      <trkpt lat="45.8595" lon="6.45207">
        <ele>2240.6</ele>
        <time>2024-04-27T08:04:48Z</time>
      </trkpt>
      <trkpt lat="45.8595" lon="6.45207">
        <ele>2240.6</ele>
        <time>2024-04-27T08:04:49Z</time>
      </trkpt>
      <trkpt lat="45.8595" lon="6.45207">
        <ele>2241.7</ele>
        <time>2024-04-27T08:04:50Z</time>
      </trkpt>
      <trkpt lat="45.8595" lon="6.45207">
        <ele>2241.7</ele>
        <time>2024-04-27T08:04:51Z</time>
      </trkpt>
      <trkpt lat="45.8595" lon="6.45207">
        <ele>2241.7</ele>
        <time>2024-04-27T08:04:52Z</time>
      </trkpt>
      <trkpt lat="45.8595" lon="6.45207">
        <ele>2241.7</ele>
        <time>2024-04-27T08:04:53Z</time>
      </trkpt>
      <trkpt lat="45.8595" lon="6.45207">
        <ele>2241.7</ele>
        <time>2024-04-27T08:04:54Z</time>
      </trkpt>
      <trkpt lat="45.8595" lon="6.45207">
        <ele>2241.7</ele>
        <time>2024-04-27T08:04:55Z</time>
      </trkpt>
      <trkpt lat="45.8595" lon="6.45207">
        <ele>2240.6</ele>
        <time>2024-04-27T08:04:56Z</time>
      </trkpt>
      <trkpt lat="45.8595" lon="6.45207">
        <ele>2240.6</ele>
        <time>2024-04-27T08:04:57Z</time>
      </trkpt>
      <trkpt lat="45.8595" lon="6.45207">
        <ele>2240.6</ele>
        <time>2024-04-27T08:04:58Z</time>
      </trkpt>
      <trkpt lat="45.8595" lon="6.45207">
        <ele>2240.6</ele>
        <time>2024-04-27T08:04:59Z</time>
      </trkpt>
      <trkpt lat="45.8595" lon="6.45207">
        <ele>2240.6</ele>
        <time>2024-04-27T08:05:00Z</time>
      </trkpt>
      <trkpt lat="45.8595" lon="6.45207">
        <ele>2240.6</ele>
        <time>2024-04-27T08:05:01Z</time>
      </trkpt>
      <trkpt lat="45.8595" lon="6.45207">
        <ele>2240.6</ele>
        <time>2024-04-27T08:05:02Z</time>
      </trkpt>
      <trkpt lat="45.85951" lon="6.45207">
        <ele>2240.6</ele>
        <time>2024-04-27T08:05:03Z</time>
      </trkpt>
      <trkpt lat="45.85951" lon="6.45207">
        <ele>2240.6</ele>
        <time>2024-04-27T08:05:04Z</time>
      </trkpt>
      <trkpt lat="45.85951" lon="6.45207">
        <ele>2240.6</ele>
        <time>2024-04-27T08:05:05Z</time>
      </trkpt>
      <trkpt lat="45.85951" lon="6.45207">
        <ele>2240.6</ele>
        <time>2024-04-27T08:05:06Z</time>
      </trkpt>
      <trkpt lat="45.85951" lon="6.45207">
        <ele>2240.6</ele>
        <time>2024-04-27T08:05:07Z</time>
      </trkpt>
      <trkpt lat="45.85951" lon="6.45207">
        <ele>2240.6</ele>
        <time>2024-04-27T08:05:08Z</time>
      </trkpt>
      <trkpt lat="45.85951" lon="6.45207">
        <ele>2240.6</ele>
        <time>2024-04-27T08:05:09Z</time>
      </trkpt>
      <trkpt lat="45.85951" lon="6.45207">
        <ele>2240.6</ele>
        <time>2024-04-27T08:05:10Z</time>
      </trkpt>
      <trkpt lat="45.85951" lon="6.45207">
        <ele>2240.6</ele>
        <time>2024-04-27T08:05:11Z</time>
      </trkpt>
      <trkpt lat="45.85951" lon="6.45207">
        <ele>2240.6</ele>
        <time>2024-04-27T08:05:12Z</time>
      </trkpt>
      <trkpt lat="45.85952" lon="6.45207">
        <ele>2240.6</ele>
        <time>2024-04-27T08:05:13Z</time>
      </trkpt>
      <trkpt lat="45.85952" lon="6.45207">
        <ele>2240.6</ele>
        <time>2024-04-27T08:05:14Z</time>
      </trkpt>
      <trkpt lat="45.85952" lon="6.45207">
        <ele>2240.6</ele>
        <time>2024-04-27T08:05:15Z</time>
      </trkpt>
      <trkpt lat="45.85952" lon="6.45207">
        <ele>2240.6</ele>
        <time>2024-04-27T08:05:16Z</time>
      </trkpt>
      <trkpt lat="45.85952" lon="6.45207">
        <ele>2240.6</ele>
        <time>2024-04-27T08:05:17Z</time>
      </trkpt>
      <trkpt lat="45.85952" lon="6.45207">
        <ele>2240.6</ele>
        <time>2024-04-27T08:05:18Z</time>
      </trkpt>
      <trkpt lat="45.85952" lon="6.45207">
        <ele>2240.6</ele>
        <time>2024-04-27T08:05:19Z</time>
      </trkpt>
      <trkpt lat="45.85953" lon="6.45207">
        <ele>2240.6</ele>
        <time>2024-04-27T08:05:20Z</time>
      </trkpt>
      <trkpt lat="45.85953" lon="6.45207">
        <ele>2240.6</ele>
        <time>2024-04-27T08:05:21Z</time>
      </trkpt>
      <trkpt lat="45.85953" lon="6.45207">
        <ele>2240.6</ele>
        <time>2024-04-27T08:05:22Z</time>
      </trkpt>
      <trkpt lat="45.85953" lon="6.45207">
        <ele>2240.6</ele>
        <time>2024-04-27T08:05:23Z</time>
      </trkpt>
      <trkpt lat="45.85953" lon="6.45206">
        <ele>2240.6</ele>
        <time>2024-04-27T08:05:24Z</time>
      </trkpt>
      <trkpt lat="45.85953" lon="6.45206">
        <ele>2240.6</ele>
        <time>2024-04-27T08:05:25Z</time>
      </trkpt>
      <trkpt lat="45.85953" lon="6.45206">
        <ele>2240.6</ele>
        <time>2024-04-27T08:05:26Z</time>
      </trkpt>
      <trkpt lat="45.85953" lon="6.45206">
        <ele>2240.6</ele>
        <time>2024-04-27T08:05:27Z</time>
      </trkpt>
      <trkpt lat="45.85953" lon="6.45206">
        <ele>2240.6</ele>
        <time>2024-04-27T08:05:28Z</time>
      </trkpt>
      <trkpt lat="45.85954" lon="6.45206">
        <ele>2240.6</ele>
        <time>2024-04-27T08:05:29Z</time>
      </trkpt>
      <trkpt lat="45.85954" lon="6.45206">
        <ele>2240.6</ele>
        <time>2024-04-27T08:05:30Z</time>
      </trkpt>
      <trkpt lat="45.85954" lon="6.45206">
        <ele>2240.6</ele>
        <time>2024-04-27T08:05:31Z</time>
      </trkpt>
      <trkpt lat="45.85954" lon="6.45206">
        <ele>2240.6</ele>
        <time>2024-04-27T08:05:32Z</time>
      </trkpt>
      <trkpt lat="45.85954" lon="6.45206">
        <ele>2240.6</ele>
        <time>2024-04-27T08:05:33Z</time>
      </trkpt>
      <trkpt lat="45.85954" lon="6.45206">
        <ele>2240.6</ele>
        <time>2024-04-27T08:05:34Z</time>
      </trkpt>
      <trkpt lat="45.85954" lon="6.45206">
        <ele>2240.6</ele>
        <time>2024-04-27T08:05:35Z</time>
      </trkpt>
      <trkpt lat="45.85954" lon="6.45207">
        <ele>2240.6</ele>
        <time>2024-04-27T08:05:36Z</time>
      </trkpt>
      <trkpt lat="45.85954" lon="6.45207">
        <ele>2240.6</ele>
        <time>2024-04-27T08:05:37Z</time>
      </trkpt>
      <trkpt lat="45.85954" lon="6.45206">
        <ele>2240.6</ele>
        <time>2024-04-27T08:05:38Z</time>
      </trkpt>
      <trkpt lat="45.85954" lon="6.45206">
        <ele>2240.6</ele>
        <time>2024-04-27T08:05:39Z</time>
      </trkpt>
      <trkpt lat="45.85954" lon="6.45206">
        <ele>2240.6</ele>
        <time>2024-04-27T08:05:40Z</time>
      </trkpt>
      <trkpt lat="45.85954" lon="6.45206">
        <ele>2240.6</ele>
        <time>2024-04-27T08:05:41Z</time>
      </trkpt>
      <trkpt lat="45.85954" lon="6.45206">
        <ele>2240.6</ele>
        <time>2024-04-27T08:05:42Z</time>
      </trkpt>
      <trkpt lat="45.85954" lon="6.45206">
        <ele>2240.6</ele>
        <time>2024-04-27T08:05:43Z</time>
      </trkpt>
      <trkpt lat="45.85953" lon="6.45206">
        <ele>2240.6</ele>
        <time>2024-04-27T08:05:44Z</time>
      </trkpt>
      <trkpt lat="45.85953" lon="6.45206">
        <ele>2240.6</ele>
        <time>2024-04-27T08:05:45Z</time>
      </trkpt>
      <trkpt lat="45.85953" lon="6.45206">
        <ele>2240.6</ele>
        <time>2024-04-27T08:05:46Z</time>
      </trkpt>
      <trkpt lat="45.85953" lon="6.45206">
        <ele>2240.6</ele>
        <time>2024-04-27T08:05:47Z</time>
      </trkpt>
      <trkpt lat="45.85953" lon="6.45206">
        <ele>2240.6</ele>
        <time>2024-04-27T08:05:48Z</time>
      </trkpt>
      <trkpt lat="45.85953" lon="6.45206">
        <ele>2240.6</ele>
        <time>2024-04-27T08:05:49Z</time>
      </trkpt>
      <trkpt lat="45.85953" lon="6.45206">
        <ele>2240.6</ele>
        <time>2024-04-27T08:05:50Z</time>
      </trkpt>
      <trkpt lat="45.85953" lon="6.45206">
        <ele>2240.6</ele>
        <time>2024-04-27T08:05:51Z</time>
      </trkpt>
      <trkpt lat="45.85953" lon="6.45206">
        <ele>2240.6</ele>
        <time>2024-04-27T08:05:52Z</time>
      </trkpt>
      <trkpt lat="45.85953" lon="6.45206">
        <ele>2240.6</ele>
        <time>2024-04-27T08:05:53Z</time>
      </trkpt>
      <trkpt lat="45.85953" lon="6.45206">
        <ele>2240.6</ele>
        <time>2024-04-27T08:05:54Z</time>
      </trkpt>
      <trkpt lat="45.85952" lon="6.45206">
        <ele>2240.6</ele>
        <time>2024-04-27T08:05:55Z</time>
      </trkpt>
      <trkpt lat="45.85952" lon="6.45206">
        <ele>2240.6</ele>
        <time>2024-04-27T08:05:56Z</time>
      </trkpt>
      <trkpt lat="45.85952" lon="6.45206">
        <ele>2240.6</ele>
        <time>2024-04-27T08:05:57Z</time>
      </trkpt>
      <trkpt lat="45.85952" lon="6.45206">
        <ele>2240.6</ele>
        <time>2024-04-27T08:05:58Z</time>
      </trkpt>
      <trkpt lat="45.85952" lon="6.45206">
        <ele>2240.6</ele>
        <time>2024-04-27T08:05:59Z</time>
      </trkpt>
      <trkpt lat="45.85952" lon="6.45206">
        <ele>2240.6</ele>
        <time>2024-04-27T08:06:00Z</time>
      </trkpt>
      <trkpt lat="45.85952" lon="6.45206">
        <ele>2240.6</ele>
        <time>2024-04-27T08:06:01Z</time>
      </trkpt>
      <trkpt lat="45.85952" lon="6.45206">
        <ele>2240.6</ele>
        <time>2024-04-27T08:06:02Z</time>
      </trkpt>
      <trkpt lat="45.85952" lon="6.45206">
        <ele>2240.6</ele>
        <time>2024-04-27T08:06:03Z</time>
      </trkpt>
      <trkpt lat="45.85952" lon="6.45206">
        <ele>2240.6</ele>
        <time>2024-04-27T08:06:04Z</time>
      </trkpt>
      <trkpt lat="45.85952" lon="6.45206">
        <ele>2240.6</ele>
        <time>2024-04-27T08:06:05Z</time>
      </trkpt>
      <trkpt lat="45.85952" lon="6.45206">
        <ele>2240.6</ele>
        <time>2024-04-27T08:06:06Z</time>
      </trkpt>
      <trkpt lat="45.85952" lon="6.45206">
        <ele>2240.6</ele>
        <time>2024-04-27T08:06:07Z</time>
      </trkpt>
      <trkpt lat="45.85952" lon="6.45206">
        <ele>2240.6</ele>
        <time>2024-04-27T08:06:08Z</time>
      </trkpt>
      <trkpt lat="45.85952" lon="6.45206">
        <ele>2240.6</ele>
        <time>2024-04-27T08:06:09Z</time>
      </trkpt>
      <trkpt lat="45.85952" lon="6.45206">
        <ele>2240.6</ele>
        <time>2024-04-27T08:06:10Z</time>
      </trkpt>
      <trkpt lat="45.85952" lon="6.45206">
        <ele>2240.6</ele>
        <time>2024-04-27T08:06:11Z</time>
      </trkpt>
      <trkpt lat="45.85952" lon="6.45206">
        <ele>2240.6</ele>
        <time>2024-04-27T08:06:12Z</time>
      </trkpt>
      <trkpt lat="45.85952" lon="6.45207">
        <ele>2240.6</ele>
        <time>2024-04-27T08:06:13Z</time>
      </trkpt>
      <trkpt lat="45.85952" lon="6.45207">
        <ele>2240.6</ele>
        <time>2024-04-27T08:06:14Z</time>
      </trkpt>
      <trkpt lat="45.85952" lon="6.45207">
        <ele>2240.6</ele>
        <time>2024-04-27T08:06:15Z</time>
      </trkpt>
      <trkpt lat="45.85952" lon="6.45207">
        <ele>2240.6</ele>
        <time>2024-04-27T08:06:16Z</time>
      </trkpt>
      <trkpt lat="45.85952" lon="6.45207">
        <ele>2240.6</ele>
        <time>2024-04-27T08:06:17Z</time>
      </trkpt>
      <trkpt lat="45.85952" lon="6.45207">
        <ele>2240.6</ele>
        <time>2024-04-27T08:06:18Z</time>
      </trkpt>
      <trkpt lat="45.85952" lon="6.45207">
        <ele>2240.6</ele>
        <time>2024-04-27T08:06:19Z</time>
      </trkpt>
      <trkpt lat="45.85952" lon="6.45207">
        <ele>2240.6</ele>
        <time>2024-04-27T08:06:20Z</time>
      </trkpt>
      <trkpt lat="45.85952" lon="6.45207">
        <ele>2240.6</ele>
        <time>2024-04-27T08:06:21Z</time>
      </trkpt>
      <trkpt lat="45.85952" lon="6.45207">
        <ele>2240.6</ele>
        <time>2024-04-27T08:06:22Z</time>
      </trkpt>
      <trkpt lat="45.85952" lon="6.45207">
        <ele>2240.6</ele>
        <time>2024-04-27T08:06:23Z</time>
      </trkpt>
      <trkpt lat="45.85952" lon="6.45207">
        <ele>2240.6</ele>
        <time>2024-04-27T08:06:24Z</time>
      </trkpt>
      <trkpt lat="45.85952" lon="6.45207">
        <ele>2240.6</ele>
        <time>2024-04-27T08:06:25Z</time>
      </trkpt>
      <trkpt lat="45.85952" lon="6.45207">
        <ele>2241.7</ele>
        <time>2024-04-27T08:06:26Z</time>
      </trkpt>
      <trkpt lat="45.85952" lon="6.45207">
        <ele>2241.7</ele>
        <time>2024-04-27T08:06:27Z</time>
      </trkpt>
      <trkpt lat="45.85952" lon="6.45207">
        <ele>2241.7</ele>
        <time>2024-04-27T08:06:28Z</time>
      </trkpt>
      <trkpt lat="45.85952" lon="6.45207">
        <ele>2241.7</ele>
        <time>2024-04-27T08:06:29Z</time>
      </trkpt>
      <trkpt lat="45.85952" lon="6.45207">
        <ele>2241.7</ele>
        <time>2024-04-27T08:06:30Z</time>
      </trkpt>
      <trkpt lat="45.85952" lon="6.45207">
        <ele>2241.7</ele>
        <time>2024-04-27T08:06:31Z</time>
      </trkpt>
      <trkpt lat="45.85952" lon="6.45207">
        <ele>2241.7</ele>
        <time>2024-04-27T08:06:32Z</time>
      </trkpt>
      <trkpt lat="45.85952" lon="6.45207">
        <ele>2241.7</ele>
        <time>2024-04-27T08:06:33Z</time>
      </trkpt>
      <trkpt lat="45.85952" lon="6.45207">
        <ele>2241.7</ele>
        <time>2024-04-27T08:06:34Z</time>
      </trkpt>
      <trkpt lat="45.85952" lon="6.45207">
        <ele>2241.7</ele>
        <time>2024-04-27T08:06:35Z</time>
      </trkpt>
      <trkpt lat="45.85952" lon="6.45207">
        <ele>2241.7</ele>
        <time>2024-04-27T08:06:36Z</time>
      </trkpt>
      <trkpt lat="45.85953" lon="6.45206">
        <ele>2241.7</ele>
        <time>2024-04-27T08:06:37Z</time>
      </trkpt>
      <trkpt lat="45.85953" lon="6.45206">
        <ele>2241.7</ele>
        <time>2024-04-27T08:06:38Z</time>
      </trkpt>
      <trkpt lat="45.85953" lon="6.45206">
        <ele>2241.7</ele>
        <time>2024-04-27T08:06:39Z</time>
      </trkpt>
      <trkpt lat="45.85953" lon="6.45206">
        <ele>2240.6</ele>
        <time>2024-04-27T08:06:40Z</time>
      </trkpt>
      <trkpt lat="45.85953" lon="6.45206">
        <ele>2240.6</ele>
        <time>2024-04-27T08:06:41Z</time>
      </trkpt>
      <trkpt lat="45.85953" lon="6.45206">
        <ele>2240.6</ele>
        <time>2024-04-27T08:06:42Z</time>
      </trkpt>
      <trkpt lat="45.85953" lon="6.45206">
        <ele>2240.6</ele>
        <time>2024-04-27T08:06:43Z</time>
      </trkpt>
      <trkpt lat="45.85953" lon="6.45206">
        <ele>2241.7</ele>
        <time>2024-04-27T08:06:44Z</time>
      </trkpt>
      <trkpt lat="45.85954" lon="6.45206">
        <ele>2241.7</ele>
        <time>2024-04-27T08:06:45Z</time>
      </trkpt>
      <trkpt lat="45.85954" lon="6.45206">
        <ele>2241.7</ele>
        <time>2024-04-27T08:06:46Z</time>
      </trkpt>
      <trkpt lat="45.85954" lon="6.45206">
        <ele>2241.7</ele>
        <time>2024-04-27T08:06:47Z</time>
      </trkpt>
      <trkpt lat="45.85954" lon="6.45206">
        <ele>2241.7</ele>
        <time>2024-04-27T08:06:48Z</time>
      </trkpt>
      <trkpt lat="45.85954" lon="6.45206">
        <ele>2241.7</ele>
        <time>2024-04-27T08:06:49Z</time>
      </trkpt>
      <trkpt lat="45.85954" lon="6.45206">
        <ele>2241.7</ele>
        <time>2024-04-27T08:06:50Z</time>
      </trkpt>
      <trkpt lat="45.85954" lon="6.45206">
        <ele>2241.7</ele>
        <time>2024-04-27T08:06:51Z</time>
      </trkpt>
      <trkpt lat="45.85954" lon="6.45206">
        <ele>2241.7</ele>
        <time>2024-04-27T08:06:52Z</time>
      </trkpt>
      <trkpt lat="45.85954" lon="6.45206">
        <ele>2241.7</ele>
        <time>2024-04-27T08:06:53Z</time>
      </trkpt>
      <trkpt lat="45.85954" lon="6.45206">
        <ele>2241.7</ele>
        <time>2024-04-27T08:06:54Z</time>
      </trkpt>
      <trkpt lat="45.85954" lon="6.45206">
        <ele>2241.7</ele>
        <time>2024-04-27T08:06:55Z</time>
      </trkpt>
      <trkpt lat="45.85954" lon="6.45206">
        <ele>2241.7</ele>
        <time>2024-04-27T08:06:56Z</time>
      </trkpt>
      <trkpt lat="45.85954" lon="6.45206">
        <ele>2241.7</ele>
        <time>2024-04-27T08:06:57Z</time>
      </trkpt>
      <trkpt lat="45.85954" lon="6.45206">
        <ele>2241.7</ele>
        <time>2024-04-27T08:06:58Z</time>
      </trkpt>
      <trkpt lat="45.85954" lon="6.45206">
        <ele>2241.7</ele>
        <time>2024-04-27T08:06:59Z</time>
      </trkpt>
      <trkpt lat="45.85955" lon="6.45206">
        <ele>2241.7</ele>
        <time>2024-04-27T08:07:00Z</time>
      </trkpt>
      <trkpt lat="45.85955" lon="6.45206">
        <ele>2241.7</ele>
        <time>2024-04-27T08:07:01Z</time>
      </trkpt>
      <trkpt lat="45.85955" lon="6.45206">
        <ele>2241.7</ele>
        <time>2024-04-27T08:07:02Z</time>
      </trkpt>
      <trkpt lat="45.85955" lon="6.45206">
        <ele>2241.7</ele>
        <time>2024-04-27T08:07:03Z</time>
      </trkpt>
      <trkpt lat="45.85955" lon="6.45206">
        <ele>2241.7</ele>
        <time>2024-04-27T08:07:04Z</time>
      </trkpt>
      <trkpt lat="45.85955" lon="6.45206">
        <ele>2241.7</ele>
        <time>2024-04-27T08:07:05Z</time>
      </trkpt>
      <trkpt lat="45.85955" lon="6.45206">
        <ele>2241.7</ele>
        <time>2024-04-27T08:07:06Z</time>
      </trkpt>
      <trkpt lat="45.85955" lon="6.45205">
        <ele>2241.7</ele>
        <time>2024-04-27T08:07:07Z</time>
      </trkpt>
      <trkpt lat="45.85955" lon="6.45205">
        <ele>2241.7</ele>
        <time>2024-04-27T08:07:08Z</time>
      </trkpt>
      <trkpt lat="45.85955" lon="6.45205">
        <ele>2241.7</ele>
        <time>2024-04-27T08:07:09Z</time>
      </trkpt>
      <trkpt lat="45.85955" lon="6.45203">
        <ele>2241.7</ele>
        <time>2024-04-27T08:07:10Z</time>
      </trkpt>
      <trkpt lat="45.85955" lon="6.45203">
        <ele>2241.7</ele>
        <time>2024-04-27T08:07:11Z</time>
      </trkpt>
      <trkpt lat="45.85955" lon="6.45203">
        <ele>2241.7</ele>
        <time>2024-04-27T08:07:12Z</time>
      </trkpt>
      <trkpt lat="45.85955" lon="6.45203">
        <ele>2241.7</ele>
        <time>2024-04-27T08:07:13Z</time>
      </trkpt>
      <trkpt lat="45.85955" lon="6.45203">
        <ele>2241.7</ele>
        <time>2024-04-27T08:07:14Z</time>
      </trkpt>
      <trkpt lat="45.85955" lon="6.45203">
        <ele>2241.7</ele>
        <time>2024-04-27T08:07:15Z</time>
      </trkpt>
      <trkpt lat="45.85955" lon="6.45203">
        <ele>2241.7</ele>
        <time>2024-04-27T08:07:16Z</time>
      </trkpt>
      <trkpt lat="45.85955" lon="6.45203">
        <ele>2241.7</ele>
        <time>2024-04-27T08:07:17Z</time>
      </trkpt>
      <trkpt lat="45.85955" lon="6.45203">
        <ele>2241.7</ele>
        <time>2024-04-27T08:07:18Z</time>
      </trkpt>
      <trkpt lat="45.85955" lon="6.45203">
        <ele>2241.7</ele>
        <time>2024-04-27T08:07:19Z</time>
      </trkpt>
      <trkpt lat="45.85955" lon="6.45203">
        <ele>2241.7</ele>
        <time>2024-04-27T08:07:20Z</time>
      </trkpt>
      <trkpt lat="45.85955" lon="6.45203">
        <ele>2241.7</ele>
        <time>2024-04-27T08:07:21Z</time>
      </trkpt>
      <trkpt lat="45.85955" lon="6.45203">
        <ele>2241.7</ele>
        <time>2024-04-27T08:07:22Z</time>
      </trkpt>
      <trkpt lat="45.85955" lon="6.45203">
        <ele>2241.7</ele>
        <time>2024-04-27T08:07:23Z</time>
      </trkpt>
      <trkpt lat="45.85955" lon="6.45203">
        <ele>2240.6</ele>
        <time>2024-04-27T08:07:24Z</time>
      </trkpt>
      <trkpt lat="45.85955" lon="6.45203">
        <ele>2240.6</ele>
        <time>2024-04-27T08:07:25Z</time>
      </trkpt>
      <trkpt lat="45.85955" lon="6.45203">
        <ele>2240.6</ele>
        <time>2024-04-27T08:07:26Z</time>
      </trkpt>
      <trkpt lat="45.85955" lon="6.45203">
        <ele>2240.6</ele>
        <time>2024-04-27T08:07:27Z</time>
      </trkpt>
      <trkpt lat="45.85955" lon="6.45203">
        <ele>2240.6</ele>
        <time>2024-04-27T08:07:28Z</time>
      </trkpt>
      <trkpt lat="45.85955" lon="6.45203">
        <ele>2240.6</ele>
        <time>2024-04-27T08:07:29Z</time>
      </trkpt>
      <trkpt lat="45.85955" lon="6.45203">
        <ele>2241.7</ele>
        <time>2024-04-27T08:07:30Z</time>
      </trkpt>
      <trkpt lat="45.85955" lon="6.45203">
        <ele>2241.7</ele>
        <time>2024-04-27T08:07:31Z</time>
      </trkpt>
      <trkpt lat="45.85954" lon="6.45204">
        <ele>2241.7</ele>
        <time>2024-04-27T08:07:32Z</time>
      </trkpt>
      <trkpt lat="45.85954" lon="6.45204">
        <ele>2241.7</ele>
        <time>2024-04-27T08:07:33Z</time>
      </trkpt>
      <trkpt lat="45.85954" lon="6.45205">
        <ele>2241.7</ele>
        <time>2024-04-27T08:07:34Z</time>
      </trkpt>
      <trkpt lat="45.85954" lon="6.45205">
        <ele>2241.7</ele>
        <time>2024-04-27T08:07:35Z</time>
      </trkpt>
      <trkpt lat="45.85954" lon="6.45205">
        <ele>2241.7</ele>
        <time>2024-04-27T08:07:36Z</time>
      </trkpt>
      <trkpt lat="45.85954" lon="6.45205">
        <ele>2241.7</ele>
        <time>2024-04-27T08:07:37Z</time>
      </trkpt>
      <trkpt lat="45.85954" lon="6.45205">
        <ele>2240.6</ele>
        <time>2024-04-27T08:07:38Z</time>
      </trkpt>
      <trkpt lat="45.85953" lon="6.45205">
        <ele>2240.6</ele>
        <time>2024-04-27T08:07:39Z</time>
      </trkpt>
      <trkpt lat="45.85953" lon="6.45205">
        <ele>2240.6</ele>
        <time>2024-04-27T08:07:40Z</time>
      </trkpt>
      <trkpt lat="45.85953" lon="6.45205">
        <ele>2240.6</ele>
        <time>2024-04-27T08:07:41Z</time>
      </trkpt>
      <trkpt lat="45.85953" lon="6.45205">
        <ele>2240.6</ele>
        <time>2024-04-27T08:07:42Z</time>
      </trkpt>
      <trkpt lat="45.85953" lon="6.45205">
        <ele>2240.6</ele>
        <time>2024-04-27T08:07:43Z</time>
      </trkpt>
      <trkpt lat="45.85953" lon="6.45205">
        <ele>2240.6</ele>
        <time>2024-04-27T08:07:44Z</time>
      </trkpt>
      <trkpt lat="45.85953" lon="6.45205">
        <ele>2240.6</ele>
        <time>2024-04-27T08:07:45Z</time>
      </trkpt>
      <trkpt lat="45.85953" lon="6.45205">
        <ele>2240.6</ele>
        <time>2024-04-27T08:07:46Z</time>
      </trkpt>
      <trkpt lat="45.85953" lon="6.45205">
        <ele>2240.6</ele>
        <time>2024-04-27T08:07:47Z</time>
      </trkpt>
      <trkpt lat="45.85953" lon="6.45205">
        <ele>2240.6</ele>
        <time>2024-04-27T08:07:48Z</time>
      </trkpt>
      <trkpt lat="45.85953" lon="6.45205">
        <ele>2240.6</ele>
        <time>2024-04-27T08:07:49Z</time>
      </trkpt>
      <trkpt lat="45.85953" lon="6.45205">
        <ele>2240.6</ele>
        <time>2024-04-27T08:07:50Z</time>
      </trkpt>
      <trkpt lat="45.85953" lon="6.45205">
        <ele>2240.6</ele>
        <time>2024-04-27T08:07:51Z</time>
      </trkpt>
      <trkpt lat="45.85953" lon="6.45205">
        <ele>2240.6</ele>
        <time>2024-04-27T08:07:52Z</time>
      </trkpt>
      <trkpt lat="45.85953" lon="6.45205">
        <ele>2240.6</ele>
        <time>2024-04-27T08:07:53Z</time>
      </trkpt>
      <trkpt lat="45.85953" lon="6.45205">
        <ele>2240.6</ele>
        <time>2024-04-27T08:07:54Z</time>
      </trkpt>
      <trkpt lat="45.85953" lon="6.45205">
        <ele>2240.6</ele>
        <time>2024-04-27T08:07:55Z</time>
      </trkpt>
      <trkpt lat="45.85953" lon="6.45205">
        <ele>2240.6</ele>
        <time>2024-04-27T08:07:56Z</time>
      </trkpt>
      <trkpt lat="45.85953" lon="6.45205">
        <ele>2240.6</ele>
        <time>2024-04-27T08:07:57Z</time>
      </trkpt>
      <trkpt lat="45.85953" lon="6.45205">
        <ele>2240.6</ele>
        <time>2024-04-27T08:07:58Z</time>
      </trkpt>
      <trkpt lat="45.85953" lon="6.45205">
        <ele>2240.6</ele>
        <time>2024-04-27T08:07:59Z</time>
      </trkpt>
      <trkpt lat="45.85953" lon="6.45205">
        <ele>2240.6</ele>
        <time>2024-04-27T08:08:00Z</time>
      </trkpt>
      <trkpt lat="45.85953" lon="6.45205">
        <ele>2240.6</ele>
        <time>2024-04-27T08:08:01Z</time>
      </trkpt>
      <trkpt lat="45.85953" lon="6.45204">
        <ele>2240.6</ele>
        <time>2024-04-27T08:08:02Z</time>
      </trkpt>
      <trkpt lat="45.85953" lon="6.45204">
        <ele>2240.6</ele>
        <time>2024-04-27T08:08:03Z</time>
      </trkpt>
      <trkpt lat="45.85953" lon="6.45204">
        <ele>2240.6</ele>
        <time>2024-04-27T08:08:04Z</time>
      </trkpt>
      <trkpt lat="45.85953" lon="6.45204">
        <ele>2240.6</ele>
        <time>2024-04-27T08:08:05Z</time>
      </trkpt>
      <trkpt lat="45.85953" lon="6.45204">
        <ele>2240.6</ele>
        <time>2024-04-27T08:08:06Z</time>
      </trkpt>
      <trkpt lat="45.85954" lon="6.45204">
        <ele>2240.6</ele>
        <time>2024-04-27T08:08:07Z</time>
      </trkpt>
      <trkpt lat="45.85954" lon="6.45204">
        <ele>2240.6</ele>
        <time>2024-04-27T08:08:08Z</time>
      </trkpt>
      <trkpt lat="45.85954" lon="6.45204">
        <ele>2240.6</ele>
        <time>2024-04-27T08:08:09Z</time>
      </trkpt>
      <trkpt lat="45.85954" lon="6.45204">
        <ele>2240.6</ele>
        <time>2024-04-27T08:08:10Z</time>
      </trkpt>
      <trkpt lat="45.85954" lon="6.45204">
        <ele>2240.6</ele>
        <time>2024-04-27T08:08:11Z</time>
      </trkpt>
      <trkpt lat="45.85954" lon="6.45204">
        <ele>2240.6</ele>
        <time>2024-04-27T08:08:12Z</time>
      </trkpt>
      <trkpt lat="45.85954" lon="6.45204">
        <ele>2240.6</ele>
        <time>2024-04-27T08:08:13Z</time>
      </trkpt>
      <trkpt lat="45.85954" lon="6.45204">
        <ele>2240.6</ele>
        <time>2024-04-27T08:08:14Z</time>
      </trkpt>
      <trkpt lat="45.85954" lon="6.45204">
        <ele>2240.6</ele>
        <time>2024-04-27T08:08:15Z</time>
      </trkpt>
      <trkpt lat="45.85954" lon="6.45204">
        <ele>2240.6</ele>
        <time>2024-04-27T08:08:16Z</time>
      </trkpt>
      <trkpt lat="45.85954" lon="6.45204">
        <ele>2240.6</ele>
        <time>2024-04-27T08:08:17Z</time>
      </trkpt>
      <trkpt lat="45.85954" lon="6.45204">
        <ele>2240.6</ele>
        <time>2024-04-27T08:08:18Z</time>
      </trkpt>
      <trkpt lat="45.85954" lon="6.45204">
        <ele>2240.6</ele>
        <time>2024-04-27T08:08:19Z</time>
      </trkpt>
      <trkpt lat="45.85954" lon="6.45204">
        <ele>2240.6</ele>
        <time>2024-04-27T08:08:20Z</time>
      </trkpt>
      <trkpt lat="45.85954" lon="6.45204">
        <ele>2240.6</ele>
        <time>2024-04-27T08:08:21Z</time>
      </trkpt>
      <trkpt lat="45.85954" lon="6.45204">
        <ele>2240.6</ele>
        <time>2024-04-27T08:08:22Z</time>
      </trkpt>
      <trkpt lat="45.85954" lon="6.45204">
        <ele>2240.6</ele>
        <time>2024-04-27T08:08:23Z</time>
      </trkpt>
      <trkpt lat="45.85954" lon="6.45204">
        <ele>2240.6</ele>
        <time>2024-04-27T08:08:24Z</time>
      </trkpt>
      <trkpt lat="45.85954" lon="6.45204">
        <ele>2240.6</ele>
        <time>2024-04-27T08:08:25Z</time>
      </trkpt>
      <trkpt lat="45.85955" lon="6.45204">
        <ele>2240.6</ele>
        <time>2024-04-27T08:08:26Z</time>
      </trkpt>
      <trkpt lat="45.85955" lon="6.45205">
        <ele>2240.6</ele>
        <time>2024-04-27T08:08:27Z</time>
      </trkpt>
      <trkpt lat="45.85955" lon="6.45205">
        <ele>2240.6</ele>
        <time>2024-04-27T08:08:28Z</time>
      </trkpt>
      <trkpt lat="45.85955" lon="6.45206">
        <ele>2240.6</ele>
        <time>2024-04-27T08:08:29Z</time>
      </trkpt>
      <trkpt lat="45.85955" lon="6.45206">
        <ele>2240.6</ele>
        <time>2024-04-27T08:08:30Z</time>
      </trkpt>
      <trkpt lat="45.85955" lon="6.45206">
        <ele>2240.6</ele>
        <time>2024-04-27T08:08:31Z</time>
      </trkpt>
      <trkpt lat="45.85955" lon="6.45206">
        <ele>2240.6</ele>
        <time>2024-04-27T08:08:32Z</time>
      </trkpt>
      <trkpt lat="45.85955" lon="6.45207">
        <ele>2240.6</ele>
        <time>2024-04-27T08:08:33Z</time>
      </trkpt>
      <trkpt lat="45.85955" lon="6.45207">
        <ele>2240.6</ele>
        <time>2024-04-27T08:08:34Z</time>
      </trkpt>
      <trkpt lat="45.85955" lon="6.45207">
        <ele>2240.6</ele>
        <time>2024-04-27T08:08:35Z</time>
      </trkpt>
      <trkpt lat="45.85955" lon="6.45207">
        <ele>2240.6</ele>
        <time>2024-04-27T08:08:36Z</time>
      </trkpt>
      <trkpt lat="45.85955" lon="6.45207">
        <ele>2240.6</ele>
        <time>2024-04-27T08:08:37Z</time>
      </trkpt>
      <trkpt lat="45.85955" lon="6.45207">
        <ele>2240.6</ele>
        <time>2024-04-27T08:08:38Z</time>
      </trkpt>
      <trkpt lat="45.85955" lon="6.45207">
        <ele>2240.6</ele>
        <time>2024-04-27T08:08:39Z</time>
      </trkpt>
      <trkpt lat="45.85955" lon="6.45207">
        <ele>2240.6</ele>
        <time>2024-04-27T08:08:40Z</time>
      </trkpt>
      <trkpt lat="45.85955" lon="6.45207">
        <ele>2240.6</ele>
        <time>2024-04-27T08:08:41Z</time>
      </trkpt>
      <trkpt lat="45.85955" lon="6.45207">
        <ele>2240.6</ele>
        <time>2024-04-27T08:08:42Z</time>
      </trkpt>
      <trkpt lat="45.85955" lon="6.45208">
        <ele>2240.6</ele>
        <time>2024-04-27T08:08:43Z</time>
      </trkpt>
      <trkpt lat="45.85955" lon="6.45208">
        <ele>2240.6</ele>
        <time>2024-04-27T08:08:44Z</time>
      </trkpt>
      <trkpt lat="45.85955" lon="6.45208">
        <ele>2240.6</ele>
        <time>2024-04-27T08:08:45Z</time>
      </trkpt>
      <trkpt lat="45.85955" lon="6.45208">
        <ele>2240.6</ele>
        <time>2024-04-27T08:08:46Z</time>
      </trkpt>
      <trkpt lat="45.85955" lon="6.45208">
        <ele>2240.6</ele>
        <time>2024-04-27T08:08:47Z</time>
      </trkpt>
      <trkpt lat="45.85955" lon="6.45208">
        <ele>2240.6</ele>
        <time>2024-04-27T08:08:48Z</time>
      </trkpt>
      <trkpt lat="45.85955" lon="6.45208">
        <ele>2240.6</ele>
        <time>2024-04-27T08:08:49Z</time>
      </trkpt>
      <trkpt lat="45.85955" lon="6.45208">
        <ele>2240.6</ele>
        <time>2024-04-27T08:08:50Z</time>
      </trkpt>
      <trkpt lat="45.85955" lon="6.45208">
        <ele>2240.6</ele>
        <time>2024-04-27T08:08:51Z</time>
      </trkpt>
      <trkpt lat="45.85954" lon="6.45208">
        <ele>2240.6</ele>
        <time>2024-04-27T08:08:52Z</time>
      </trkpt>
      <trkpt lat="45.85954" lon="6.45208">
        <ele>2240.6</ele>
        <time>2024-04-27T08:08:53Z</time>
      </trkpt>
      <trkpt lat="45.85954" lon="6.45208">
        <ele>2240.6</ele>
        <time>2024-04-27T08:08:54Z</time>
      </trkpt>
      <trkpt lat="45.85954" lon="6.45208">
        <ele>2240.6</ele>
        <time>2024-04-27T08:08:55Z</time>
      </trkpt>
      <trkpt lat="45.85954" lon="6.45208">
        <ele>2240.6</ele>
        <time>2024-04-27T08:08:56Z</time>
      </trkpt>
      <trkpt lat="45.85954" lon="6.45208">
        <ele>2240.6</ele>
        <time>2024-04-27T08:08:57Z</time>
      </trkpt>
      <trkpt lat="45.85954" lon="6.45208">
        <ele>2240.6</ele>
        <time>2024-04-27T08:08:58Z</time>
      </trkpt>
      <trkpt lat="45.85954" lon="6.45209">
        <ele>2240.6</ele>
        <time>2024-04-27T08:08:59Z</time>
      </trkpt>
      <trkpt lat="45.85953" lon="6.45209">
        <ele>2240.6</ele>
        <time>2024-04-27T08:09:00Z</time>
      </trkpt>
      <trkpt lat="45.85953" lon="6.45209">
        <ele>2240.6</ele>
        <time>2024-04-27T08:09:01Z</time>
      </trkpt>
      <trkpt lat="45.85953" lon="6.45209">
        <ele>2240.6</ele>
        <time>2024-04-27T08:09:02Z</time>
      </trkpt>
      <trkpt lat="45.85953" lon="6.45209">
        <ele>2240.6</ele>
        <time>2024-04-27T08:09:03Z</time>
      </trkpt>
      <trkpt lat="45.85953" lon="6.45209">
        <ele>2240.6</ele>
        <time>2024-04-27T08:09:04Z</time>
      </trkpt>
      <trkpt lat="45.85953" lon="6.45209">
        <ele>2240.6</ele>
        <time>2024-04-27T08:09:05Z</time>
      </trkpt>
      <trkpt lat="45.85953" lon="6.45209">
        <ele>2240.6</ele>
        <time>2024-04-27T08:09:06Z</time>
      </trkpt>
      <trkpt lat="45.85952" lon="6.45209">
        <ele>2240.6</ele>
        <time>2024-04-27T08:09:07Z</time>
      </trkpt>
      <trkpt lat="45.85952" lon="6.45209">
        <ele>2240.6</ele>
        <time>2024-04-27T08:09:08Z</time>
      </trkpt>
      <trkpt lat="45.85952" lon="6.45209">
        <ele>2240.6</ele>
        <time>2024-04-27T08:09:09Z</time>
      </trkpt>
      <trkpt lat="45.85952" lon="6.45209">
        <ele>2240.6</ele>
        <time>2024-04-27T08:09:10Z</time>
      </trkpt>
      <trkpt lat="45.85952" lon="6.45209">
        <ele>2240.6</ele>
        <time>2024-04-27T08:09:11Z</time>
      </trkpt>
      <trkpt lat="45.85952" lon="6.45209">
        <ele>2240.6</ele>
        <time>2024-04-27T08:09:12Z</time>
      </trkpt>
      <trkpt lat="45.85952" lon="6.45209">
        <ele>2240.6</ele>
        <time>2024-04-27T08:09:13Z</time>
      </trkpt>
      <trkpt lat="45.85952" lon="6.45209">
        <ele>2240.6</ele>
        <time>2024-04-27T08:09:14Z</time>
      </trkpt>
      <trkpt lat="45.85952" lon="6.45209">
        <ele>2240.6</ele>
        <time>2024-04-27T08:09:15Z</time>
      </trkpt>
      <trkpt lat="45.85952" lon="6.4521">
        <ele>2240.6</ele>
        <time>2024-04-27T08:09:16Z</time>
      </trkpt>
      <trkpt lat="45.85952" lon="6.4521">
        <ele>2240.6</ele>
        <time>2024-04-27T08:09:17Z</time>
      </trkpt>
      <trkpt lat="45.85952" lon="6.4521">
        <ele>2240.6</ele>
        <time>2024-04-27T08:09:18Z</time>
      </trkpt>
      <trkpt lat="45.85951" lon="6.4521">
        <ele>2240.6</ele>
        <time>2024-04-27T08:09:19Z</time>
      </trkpt>
      <trkpt lat="45.85951" lon="6.4521">
        <ele>2240.6</ele>
        <time>2024-04-27T08:09:20Z</time>
      </trkpt>
      <trkpt lat="45.85951" lon="6.4521">
        <ele>2240.6</ele>
        <time>2024-04-27T08:09:21Z</time>
      </trkpt>
      <trkpt lat="45.85951" lon="6.4521">
        <ele>2240.6</ele>
        <time>2024-04-27T08:09:22Z</time>
      </trkpt>
      <trkpt lat="45.85951" lon="6.4521">
        <ele>2240.6</ele>
        <time>2024-04-27T08:09:23Z</time>
      </trkpt>
      <trkpt lat="45.85951" lon="6.4521">
        <ele>2240.6</ele>
        <time>2024-04-27T08:09:24Z</time>
      </trkpt>
      <trkpt lat="45.85951" lon="6.4521">
        <ele>2240.6</ele>
        <time>2024-04-27T08:09:25Z</time>
      </trkpt>
      <trkpt lat="45.85951" lon="6.4521">
        <ele>2240.6</ele>
        <time>2024-04-27T08:09:26Z</time>
      </trkpt>
      <trkpt lat="45.85951" lon="6.4521">
        <ele>2240.6</ele>
        <time>2024-04-27T08:09:27Z</time>
      </trkpt>
      <trkpt lat="45.85951" lon="6.4521">
        <ele>2240.6</ele>
        <time>2024-04-27T08:09:28Z</time>
      </trkpt>
      <trkpt lat="45.85951" lon="6.4521">
        <ele>2240.6</ele>
        <time>2024-04-27T08:09:29Z</time>
      </trkpt>
      <trkpt lat="45.85951" lon="6.4521">
        <ele>2240.6</ele>
        <time>2024-04-27T08:09:30Z</time>
      </trkpt>
      <trkpt lat="45.85951" lon="6.4521">
        <ele>2240.6</ele>
        <time>2024-04-27T08:09:31Z</time>
      </trkpt>
      <trkpt lat="45.85951" lon="6.4521">
        <ele>2240.6</ele>
        <time>2024-04-27T08:09:32Z</time>
      </trkpt>
      <trkpt lat="45.85951" lon="6.4521">
        <ele>2240.6</ele>
        <time>2024-04-27T08:09:33Z</time>
      </trkpt>
      <trkpt lat="45.85951" lon="6.4521">
        <ele>2240.6</ele>
        <time>2024-04-27T08:09:34Z</time>
      </trkpt>
      <trkpt lat="45.85951" lon="6.4521">
        <ele>2240.6</ele>
        <time>2024-04-27T08:09:35Z</time>
      </trkpt>
      <trkpt lat="45.85951" lon="6.45209">
        <ele>2240.6</ele>
        <time>2024-04-27T08:09:36Z</time>
      </trkpt>
      <trkpt lat="45.85951" lon="6.45209">
        <ele>2240.6</ele>
        <time>2024-04-27T08:09:37Z</time>
      </trkpt>
      <trkpt lat="45.85951" lon="6.45209">
        <ele>2240.6</ele>
        <time>2024-04-27T08:09:38Z</time>
      </trkpt>
      <trkpt lat="45.85951" lon="6.45209">
        <ele>2240.6</ele>
        <time>2024-04-27T08:09:39Z</time>
      </trkpt>
      <trkpt lat="45.85951" lon="6.45209">
        <ele>2240.6</ele>
        <time>2024-04-27T08:09:40Z</time>
      </trkpt>
      <trkpt lat="45.85951" lon="6.45209">
        <ele>2240.6</ele>
        <time>2024-04-27T08:09:41Z</time>
      </trkpt>
      <trkpt lat="45.85951" lon="6.45209">
        <ele>2240.6</ele>
        <time>2024-04-27T08:09:42Z</time>
      </trkpt>
      <trkpt lat="45.85951" lon="6.45209">
        <ele>2240.6</ele>
        <time>2024-04-27T08:09:43Z</time>
      </trkpt>
      <trkpt lat="45.85951" lon="6.45209">
        <ele>2240.6</ele>
        <time>2024-04-27T08:09:44Z</time>
      </trkpt>
      <trkpt lat="45.85951" lon="6.45209">
        <ele>2240.6</ele>
        <time>2024-04-27T08:09:45Z</time>
      </trkpt>
      <trkpt lat="45.85951" lon="6.45209">
        <ele>2240.6</ele>
        <time>2024-04-27T08:09:46Z</time>
      </trkpt>
      <trkpt lat="45.85951" lon="6.45209">
        <ele>2240.6</ele>
        <time>2024-04-27T08:09:47Z</time>
      </trkpt>
      <trkpt lat="45.85951" lon="6.45209">
        <ele>2240.6</ele>
        <time>2024-04-27T08:09:48Z</time>
      </trkpt>
      <trkpt lat="45.85951" lon="6.45209">
        <ele>2240.6</ele>
        <time>2024-04-27T08:09:49Z</time>
      </trkpt>
      <trkpt lat="45.85951" lon="6.45209">
        <ele>2240.6</ele>
        <time>2024-04-27T08:09:50Z</time>
      </trkpt>
      <trkpt lat="45.85951" lon="6.45209">
        <ele>2240.6</ele>
        <time>2024-04-27T08:09:51Z</time>
      </trkpt>
      <trkpt lat="45.85951" lon="6.45209">
        <ele>2241.7</ele>
        <time>2024-04-27T08:09:52Z</time>
      </trkpt>
      <trkpt lat="45.85951" lon="6.45209">
        <ele>2241.7</ele>
        <time>2024-04-27T08:09:53Z</time>
      </trkpt>
      <trkpt lat="45.85951" lon="6.45209">
        <ele>2241.7</ele>
        <time>2024-04-27T08:09:54Z</time>
      </trkpt>
      <trkpt lat="45.85951" lon="6.45209">
        <ele>2241.7</ele>
        <time>2024-04-27T08:09:55Z</time>
      </trkpt>
      <trkpt lat="45.85951" lon="6.45209">
        <ele>2240.6</ele>
        <time>2024-04-27T08:09:56Z</time>
      </trkpt>
      <trkpt lat="45.85951" lon="6.45209">
        <ele>2240.6</ele>
        <time>2024-04-27T08:09:57Z</time>
      </trkpt>
      <trkpt lat="45.85951" lon="6.45209">
        <ele>2240.6</ele>
        <time>2024-04-27T08:09:58Z</time>
      </trkpt>
      <trkpt lat="45.85951" lon="6.45209">
        <ele>2240.6</ele>
        <time>2024-04-27T08:09:59Z</time>
      </trkpt>
      <trkpt lat="45.85951" lon="6.45209">
        <ele>2240.6</ele>
        <time>2024-04-27T08:10:00Z</time>
      </trkpt>
      <trkpt lat="45.85951" lon="6.45209">
        <ele>2240.6</ele>
        <time>2024-04-27T08:10:01Z</time>
      </trkpt>
      <trkpt lat="45.85951" lon="6.45209">
        <ele>2240.6</ele>
        <time>2024-04-27T08:10:02Z</time>
      </trkpt>
      <trkpt lat="45.85951" lon="6.45209">
        <ele>2240.6</ele>
        <time>2024-04-27T08:10:03Z</time>
      </trkpt>
      <trkpt lat="45.85951" lon="6.45209">
        <ele>2240.6</ele>
        <time>2024-04-27T08:10:04Z</time>
      </trkpt>
      <trkpt lat="45.85951" lon="6.45208">
        <ele>2240.6</ele>
        <time>2024-04-27T08:10:05Z</time>
      </trkpt>
      <trkpt lat="45.85951" lon="6.45208">
        <ele>2240.6</ele>
        <time>2024-04-27T08:10:06Z</time>
      </trkpt>
      <trkpt lat="45.85951" lon="6.45208">
        <ele>2240.6</ele>
        <time>2024-04-27T08:10:07Z</time>
      </trkpt>
      <trkpt lat="45.85951" lon="6.45208">
        <ele>2240.6</ele>
        <time>2024-04-27T08:10:08Z</time>
      </trkpt>
      <trkpt lat="45.85951" lon="6.45208">
        <ele>2240.6</ele>
        <time>2024-04-27T08:10:09Z</time>
      </trkpt>
      <trkpt lat="45.85951" lon="6.45208">
        <ele>2240.6</ele>
        <time>2024-04-27T08:10:10Z</time>
      </trkpt>
      <trkpt lat="45.85951" lon="6.45208">
        <ele>2240.6</ele>
        <time>2024-04-27T08:10:11Z</time>
      </trkpt>
      <trkpt lat="45.85951" lon="6.45208">
        <ele>2240.6</ele>
        <time>2024-04-27T08:10:12Z</time>
      </trkpt>
      <trkpt lat="45.85951" lon="6.45208">
        <ele>2240.6</ele>
        <time>2024-04-27T08:10:13Z</time>
      </trkpt>
      <trkpt lat="45.85951" lon="6.45208">
        <ele>2240.6</ele>
        <time>2024-04-27T08:10:14Z</time>
      </trkpt>
      <trkpt lat="45.85951" lon="6.45208">
        <ele>2240.6</ele>
        <time>2024-04-27T08:10:15Z</time>
      </trkpt>
      <trkpt lat="45.85951" lon="6.45208">
        <ele>2240.6</ele>
        <time>2024-04-27T08:10:16Z</time>
      </trkpt>
      <trkpt lat="45.85951" lon="6.45208">
        <ele>2240.6</ele>
        <time>2024-04-27T08:10:17Z</time>
      </trkpt>
      <trkpt lat="45.85951" lon="6.45208">
        <ele>2240.6</ele>
        <time>2024-04-27T08:10:18Z</time>
      </trkpt>
      <trkpt lat="45.85951" lon="6.45208">
        <ele>2240.6</ele>
        <time>2024-04-27T08:10:19Z</time>
      </trkpt>
      <trkpt lat="45.85951" lon="6.45208">
        <ele>2240.6</ele>
        <time>2024-04-27T08:10:20Z</time>
      </trkpt>
      <trkpt lat="45.85951" lon="6.45208">
        <ele>2240.6</ele>
        <time>2024-04-27T08:10:21Z</time>
      </trkpt>
      <trkpt lat="45.85951" lon="6.45208">
        <ele>2240.6</ele>
        <time>2024-04-27T08:10:22Z</time>
      </trkpt>
      <trkpt lat="45.85951" lon="6.45208">
        <ele>2240.6</ele>
        <time>2024-04-27T08:10:23Z</time>
      </trkpt>
      <trkpt lat="45.85951" lon="6.45208">
        <ele>2240.6</ele>
        <time>2024-04-27T08:10:24Z</time>
      </trkpt>
      <trkpt lat="45.85951" lon="6.45208">
        <ele>2240.6</ele>
        <time>2024-04-27T08:10:25Z</time>
      </trkpt>
      <trkpt lat="45.85951" lon="6.45208">
        <ele>2240.6</ele>
        <time>2024-04-27T08:10:26Z</time>
      </trkpt>
      <trkpt lat="45.85951" lon="6.45208">
        <ele>2240.6</ele>
        <time>2024-04-27T08:10:27Z</time>
      </trkpt>
      <trkpt lat="45.85951" lon="6.45208">
        <ele>2240.6</ele>
        <time>2024-04-27T08:10:28Z</time>
      </trkpt>
      <trkpt lat="45.85951" lon="6.45208">
        <ele>2240.6</ele>
        <time>2024-04-27T08:10:29Z</time>
      </trkpt>
      <trkpt lat="45.85951" lon="6.45208">
        <ele>2240.6</ele>
        <time>2024-04-27T08:10:30Z</time>
      </trkpt>
      <trkpt lat="45.85951" lon="6.45208">
        <ele>2240.6</ele>
        <time>2024-04-27T08:10:31Z</time>
      </trkpt>
      <trkpt lat="45.85951" lon="6.45208">
        <ele>2240.6</ele>
        <time>2024-04-27T08:10:32Z</time>
      </trkpt>
      <trkpt lat="45.85951" lon="6.45208">
        <ele>2240.6</ele>
        <time>2024-04-27T08:10:33Z</time>
      </trkpt>
      <trkpt lat="45.85951" lon="6.45208">
        <ele>2240.6</ele>
        <time>2024-04-27T08:10:34Z</time>
      </trkpt>
      <trkpt lat="45.85951" lon="6.45208">
        <ele>2240.6</ele>
        <time>2024-04-27T08:10:35Z</time>
      </trkpt>
      <trkpt lat="45.85951" lon="6.45208">
        <ele>2240.6</ele>
        <time>2024-04-27T08:10:36Z</time>
      </trkpt>
      <trkpt lat="45.85951" lon="6.45208">
        <ele>2240.6</ele>
        <time>2024-04-27T08:10:37Z</time>
      </trkpt>
      <trkpt lat="45.85951" lon="6.45208">
        <ele>2240.6</ele>
        <time>2024-04-27T08:10:38Z</time>
      </trkpt>
      <trkpt lat="45.85951" lon="6.45208">
        <ele>2240.6</ele>
        <time>2024-04-27T08:10:39Z</time>
      </trkpt>
      <trkpt lat="45.85951" lon="6.45208">
        <ele>2240.6</ele>
        <time>2024-04-27T08:10:40Z</time>
      </trkpt>
      <trkpt lat="45.85951" lon="6.45208">
        <ele>2240.6</ele>
        <time>2024-04-27T08:10:41Z</time>
      </trkpt>
      <trkpt lat="45.85951" lon="6.45208">
        <ele>2239.7</ele>
        <time>2024-04-27T08:10:42Z</time>
      </trkpt>
      <trkpt lat="45.85951" lon="6.45208">
        <ele>2239.7</ele>
        <time>2024-04-27T08:10:43Z</time>
      </trkpt>
      <trkpt lat="45.85951" lon="6.45208">
        <ele>2239.7</ele>
        <time>2024-04-27T08:10:44Z</time>
      </trkpt>
      <trkpt lat="45.85951" lon="6.45208">
        <ele>2239.7</ele>
        <time>2024-04-27T08:10:45Z</time>
      </trkpt>
      <trkpt lat="45.85951" lon="6.45208">
        <ele>2239.7</ele>
        <time>2024-04-27T08:10:46Z</time>
      </trkpt>
      <trkpt lat="45.85951" lon="6.45208">
        <ele>2239.7</ele>
        <time>2024-04-27T08:10:47Z</time>
      </trkpt>
      <trkpt lat="45.85951" lon="6.45208">
        <ele>2239.7</ele>
        <time>2024-04-27T08:10:48Z</time>
      </trkpt>
      <trkpt lat="45.85951" lon="6.45208">
        <ele>2239.7</ele>
        <time>2024-04-27T08:10:49Z</time>
      </trkpt>
      <trkpt lat="45.85951" lon="6.45208">
        <ele>2239.7</ele>
        <time>2024-04-27T08:10:50Z</time>
      </trkpt>
      <trkpt lat="45.85951" lon="6.45208">
        <ele>2239.7</ele>
        <time>2024-04-27T08:10:51Z</time>
      </trkpt>
      <trkpt lat="45.85951" lon="6.45208">
        <ele>2239.7</ele>
        <time>2024-04-27T08:10:52Z</time>
      </trkpt>
      <trkpt lat="45.85951" lon="6.45208">
        <ele>2239.7</ele>
        <time>2024-04-27T08:10:53Z</time>
      </trkpt>
      <trkpt lat="45.85951" lon="6.45208">
        <ele>2239.7</ele>
        <time>2024-04-27T08:10:54Z</time>
      </trkpt>
      <trkpt lat="45.85951" lon="6.45208">
        <ele>2239.7</ele>
        <time>2024-04-27T08:10:55Z</time>
      </trkpt>
      <trkpt lat="45.85951" lon="6.45208">
        <ele>2239.7</ele>
        <time>2024-04-27T08:10:56Z</time>
      </trkpt>
      <trkpt lat="45.85951" lon="6.45208">
        <ele>2239.7</ele>
        <time>2024-04-27T08:10:57Z</time>
      </trkpt>
      <trkpt lat="45.85951" lon="6.45208">
        <ele>2239.7</ele>
        <time>2024-04-27T08:10:58Z</time>
      </trkpt>
      <trkpt lat="45.85951" lon="6.45208">
        <ele>2239.7</ele>
        <time>2024-04-27T08:10:59Z</time>
      </trkpt>
      <trkpt lat="45.85951" lon="6.45208">
        <ele>2239.7</ele>
        <time>2024-04-27T08:11:00Z</time>
      </trkpt>
      <trkpt lat="45.85951" lon="6.45208">
        <ele>2239.7</ele>
        <time>2024-04-27T08:11:01Z</time>
      </trkpt>
      <trkpt lat="45.85951" lon="6.45208">
        <ele>2239.7</ele>
        <time>2024-04-27T08:11:02Z</time>
      </trkpt>
      <trkpt lat="45.85951" lon="6.45208">
        <ele>2239.7</ele>
        <time>2024-04-27T08:11:03Z</time>
      </trkpt>
      <trkpt lat="45.85951" lon="6.45208">
        <ele>2239.7</ele>
        <time>2024-04-27T08:11:04Z</time>
      </trkpt>
      <trkpt lat="45.85951" lon="6.45208">
        <ele>2239.7</ele>
        <time>2024-04-27T08:11:05Z</time>
      </trkpt>
      <trkpt lat="45.85951" lon="6.45208">
        <ele>2239.7</ele>
        <time>2024-04-27T08:11:06Z</time>
      </trkpt>
      <trkpt lat="45.85951" lon="6.45208">
        <ele>2239.7</ele>
        <time>2024-04-27T08:11:07Z</time>
      </trkpt>
      <trkpt lat="45.85951" lon="6.45208">
        <ele>2239.7</ele>
        <time>2024-04-27T08:11:08Z</time>
      </trkpt>
      <trkpt lat="45.85951" lon="6.45208">
        <ele>2239.7</ele>
        <time>2024-04-27T08:11:09Z</time>
      </trkpt>
      <trkpt lat="45.85951" lon="6.45208">
        <ele>2239.7</ele>
        <time>2024-04-27T08:11:10Z</time>
      </trkpt>
      <trkpt lat="45.85951" lon="6.45208">
        <ele>2239.7</ele>
        <time>2024-04-27T08:11:11Z</time>
      </trkpt>
      <trkpt lat="45.85951" lon="6.45208">
        <ele>2239.7</ele>
        <time>2024-04-27T08:11:12Z</time>
      </trkpt>
      <trkpt lat="45.85951" lon="6.45208">
        <ele>2239.7</ele>
        <time>2024-04-27T08:11:13Z</time>
      </trkpt>
      <trkpt lat="45.85951" lon="6.45208">
        <ele>2239.7</ele>
        <time>2024-04-27T08:11:14Z</time>
      </trkpt>
      <trkpt lat="45.85951" lon="6.45208">
        <ele>2239.7</ele>
        <time>2024-04-27T08:11:15Z</time>
      </trkpt>
      <trkpt lat="45.85951" lon="6.45208">
        <ele>2239.7</ele>
        <time>2024-04-27T08:11:16Z</time>
      </trkpt>
      <trkpt lat="45.85951" lon="6.45208">
        <ele>2239.7</ele>
        <time>2024-04-27T08:11:17Z</time>
      </trkpt>
      <trkpt lat="45.85952" lon="6.45208">
        <ele>2239.7</ele>
        <time>2024-04-27T08:11:18Z</time>
      </trkpt>
      <trkpt lat="45.85952" lon="6.45208">
        <ele>2239.7</ele>
        <time>2024-04-27T08:11:19Z</time>
      </trkpt>
      <trkpt lat="45.85952" lon="6.45208">
        <ele>2239.7</ele>
        <time>2024-04-27T08:11:20Z</time>
      </trkpt>
      <trkpt lat="45.85952" lon="6.45208">
        <ele>2239.7</ele>
        <time>2024-04-27T08:11:21Z</time>
      </trkpt>
      <trkpt lat="45.85952" lon="6.45208">
        <ele>2239.7</ele>
        <time>2024-04-27T08:11:22Z</time>
      </trkpt>
      <trkpt lat="45.85952" lon="6.45208">
        <ele>2239.7</ele>
        <time>2024-04-27T08:11:23Z</time>
      </trkpt>
      <trkpt lat="45.85952" lon="6.45208">
        <ele>2239.7</ele>
        <time>2024-04-27T08:11:24Z</time>
      </trkpt>
      <trkpt lat="45.85952" lon="6.45208">
        <ele>2239.7</ele>
        <time>2024-04-27T08:11:25Z</time>
      </trkpt>
      <trkpt lat="45.85952" lon="6.45208">
        <ele>2239.7</ele>
        <time>2024-04-27T08:11:26Z</time>
      </trkpt>
      <trkpt lat="45.85952" lon="6.45208">
        <ele>2239.7</ele>
        <time>2024-04-27T08:11:27Z</time>
      </trkpt>
      <trkpt lat="45.85952" lon="6.45208">
        <ele>2239.7</ele>
        <time>2024-04-27T08:11:28Z</time>
      </trkpt>
      <trkpt lat="45.85952" lon="6.45208">
        <ele>2239.7</ele>
        <time>2024-04-27T08:11:29Z</time>
      </trkpt>
      <trkpt lat="45.85952" lon="6.45208">
        <ele>2239.7</ele>
        <time>2024-04-27T08:11:30Z</time>
      </trkpt>
      <trkpt lat="45.85952" lon="6.45208">
        <ele>2239.7</ele>
        <time>2024-04-27T08:11:31Z</time>
      </trkpt>
      <trkpt lat="45.85952" lon="6.45208">
        <ele>2239.7</ele>
        <time>2024-04-27T08:11:32Z</time>
      </trkpt>
      <trkpt lat="45.85952" lon="6.45208">
        <ele>2239.7</ele>
        <time>2024-04-27T08:11:33Z</time>
      </trkpt>
      <trkpt lat="45.85952" lon="6.45208">
        <ele>2239.7</ele>
        <time>2024-04-27T08:11:34Z</time>
      </trkpt>
      <trkpt lat="45.85952" lon="6.45208">
        <ele>2239.7</ele>
        <time>2024-04-27T08:11:35Z</time>
      </trkpt>
      <trkpt lat="45.85952" lon="6.45208">
        <ele>2239.7</ele>
        <time>2024-04-27T08:11:36Z</time>
      </trkpt>
      <trkpt lat="45.85952" lon="6.45208">
        <ele>2239.7</ele>
        <time>2024-04-27T08:11:37Z</time>
      </trkpt>
      <trkpt lat="45.85952" lon="6.45208">
        <ele>2240.6</ele>
        <time>2024-04-27T08:11:38Z</time>
      </trkpt>
      <trkpt lat="45.85952" lon="6.45208">
        <ele>2240.6</ele>
        <time>2024-04-27T08:11:39Z</time>
      </trkpt>
      <trkpt lat="45.85952" lon="6.45208">
        <ele>2240.6</ele>
        <time>2024-04-27T08:11:40Z</time>
      </trkpt>
      <trkpt lat="45.85952" lon="6.45208">
        <ele>2240.6</ele>
        <time>2024-04-27T08:11:41Z</time>
      </trkpt>
      <trkpt lat="45.85952" lon="6.45208">
        <ele>2240.6</ele>
        <time>2024-04-27T08:11:42Z</time>
      </trkpt>
      <trkpt lat="45.85952" lon="6.45208">
        <ele>2240.6</ele>
        <time>2024-04-27T08:11:43Z</time>
      </trkpt>
      <trkpt lat="45.85952" lon="6.45208">
        <ele>2240.6</ele>
        <time>2024-04-27T08:11:44Z</time>
      </trkpt>
      <trkpt lat="45.85952" lon="6.45208">
        <ele>2240.6</ele>
        <time>2024-04-27T08:11:45Z</time>
      </trkpt>
      <trkpt lat="45.85952" lon="6.45208">
        <ele>2240.6</ele>
        <time>2024-04-27T08:11:46Z</time>
      </trkpt>
      <trkpt lat="45.85952" lon="6.45208">
        <ele>2240.6</ele>
        <time>2024-04-27T08:11:47Z</time>
      </trkpt>
      <trkpt lat="45.85952" lon="6.45208">
        <ele>2239.7</ele>
        <time>2024-04-27T08:11:48Z</time>
      </trkpt>
      <trkpt lat="45.85952" lon="6.45208">
        <ele>2239.7</ele>
        <time>2024-04-27T08:11:49Z</time>
      </trkpt>
      <trkpt lat="45.85952" lon="6.45208">
        <ele>2239.7</ele>
        <time>2024-04-27T08:11:50Z</time>
      </trkpt>
      <trkpt lat="45.85952" lon="6.45208">
        <ele>2239.7</ele>
        <time>2024-04-27T08:11:51Z</time>
      </trkpt>
      <trkpt lat="45.85952" lon="6.45208">
        <ele>2239.7</ele>
        <time>2024-04-27T08:11:52Z</time>
      </trkpt>
      <trkpt lat="45.85952" lon="6.45208">
        <ele>2239.7</ele>
        <time>2024-04-27T08:11:53Z</time>
      </trkpt>
      <trkpt lat="45.85952" lon="6.45208">
        <ele>2239.7</ele>
        <time>2024-04-27T08:11:54Z</time>
      </trkpt>
      <trkpt lat="45.85952" lon="6.45208">
        <ele>2239.7</ele>
        <time>2024-04-27T08:11:55Z</time>
      </trkpt>
      <trkpt lat="45.85952" lon="6.45208">
        <ele>2239.7</ele>
        <time>2024-04-27T08:11:56Z</time>
      </trkpt>
      <trkpt lat="45.85952" lon="6.45208">
        <ele>2239.7</ele>
        <time>2024-04-27T08:11:57Z</time>
      </trkpt>
      <trkpt lat="45.85952" lon="6.45208">
        <ele>2239.7</ele>
        <time>2024-04-27T08:11:58Z</time>
      </trkpt>
      <trkpt lat="45.85952" lon="6.45208">
        <ele>2239.7</ele>
        <time>2024-04-27T08:11:59Z</time>
      </trkpt>
      <trkpt lat="45.85952" lon="6.45208">
        <ele>2239.7</ele>
        <time>2024-04-27T08:12:00Z</time>
      </trkpt>
      <trkpt lat="45.85952" lon="6.45208">
        <ele>2239.7</ele>
        <time>2024-04-27T08:12:01Z</time>
      </trkpt>
      <trkpt lat="45.85952" lon="6.45208">
        <ele>2239.7</ele>
        <time>2024-04-27T08:12:02Z</time>
      </trkpt>
      <trkpt lat="45.85952" lon="6.45208">
        <ele>2239.7</ele>
        <time>2024-04-27T08:12:03Z</time>
      </trkpt>
      <trkpt lat="45.85952" lon="6.45208">
        <ele>2239.7</ele>
        <time>2024-04-27T08:12:04Z</time>
      </trkpt>
      <trkpt lat="45.85952" lon="6.45208">
        <ele>2239.7</ele>
        <time>2024-04-27T08:12:05Z</time>
      </trkpt>
      <trkpt lat="45.85952" lon="6.45208">
        <ele>2239.7</ele>
        <time>2024-04-27T08:12:06Z</time>
      </trkpt>
      <trkpt lat="45.85952" lon="6.45208">
        <ele>2239.7</ele>
        <time>2024-04-27T08:12:07Z</time>
      </trkpt>
      <trkpt lat="45.85952" lon="6.45208">
        <ele>2239.7</ele>
        <time>2024-04-27T08:12:08Z</time>
      </trkpt>
      <trkpt lat="45.85952" lon="6.45208">
        <ele>2239.7</ele>
        <time>2024-04-27T08:12:09Z</time>
      </trkpt>
      <trkpt lat="45.85952" lon="6.45208">
        <ele>2239.7</ele>
        <time>2024-04-27T08:12:10Z</time>
      </trkpt>
      <trkpt lat="45.85952" lon="6.45208">
        <ele>2239.7</ele>
        <time>2024-04-27T08:12:11Z</time>
      </trkpt>
      <trkpt lat="45.85952" lon="6.45208">
        <ele>2239.7</ele>
        <time>2024-04-27T08:12:12Z</time>
      </trkpt>
      <trkpt lat="45.85952" lon="6.45208">
        <ele>2239.7</ele>
        <time>2024-04-27T08:12:13Z</time>
      </trkpt>
      <trkpt lat="45.85951" lon="6.45208">
        <ele>2239.7</ele>
        <time>2024-04-27T08:12:14Z</time>
      </trkpt>
      <trkpt lat="45.85951" lon="6.45208">
        <ele>2239.7</ele>
        <time>2024-04-27T08:12:15Z</time>
      </trkpt>
      <trkpt lat="45.85951" lon="6.45208">
        <ele>2239.7</ele>
        <time>2024-04-27T08:12:16Z</time>
      </trkpt>
      <trkpt lat="45.85951" lon="6.45208">
        <ele>2239.7</ele>
        <time>2024-04-27T08:12:17Z</time>
      </trkpt>
      <trkpt lat="45.85951" lon="6.45208">
        <ele>2239.7</ele>
        <time>2024-04-27T08:12:18Z</time>
      </trkpt>
      <trkpt lat="45.85951" lon="6.45208">
        <ele>2239.7</ele>
        <time>2024-04-27T08:12:19Z</time>
      </trkpt>
      <trkpt lat="45.85951" lon="6.45208">
        <ele>2239.7</ele>
        <time>2024-04-27T08:12:20Z</time>
      </trkpt>
      <trkpt lat="45.85951" lon="6.45208">
        <ele>2239.7</ele>
        <time>2024-04-27T08:12:21Z</time>
      </trkpt>
      <trkpt lat="45.85951" lon="6.45208">
        <ele>2239.7</ele>
        <time>2024-04-27T08:12:22Z</time>
      </trkpt>
      <trkpt lat="45.85951" lon="6.45208">
        <ele>2239.7</ele>
        <time>2024-04-27T08:12:23Z</time>
      </trkpt>
      <trkpt lat="45.85951" lon="6.45208">
        <ele>2239.7</ele>
        <time>2024-04-27T08:12:24Z</time>
      </trkpt>
      <trkpt lat="45.85951" lon="6.45208">
        <ele>2239.7</ele>
        <time>2024-04-27T08:12:25Z</time>
      </trkpt>
      <trkpt lat="45.85951" lon="6.45208">
        <ele>2239.7</ele>
        <time>2024-04-27T08:12:26Z</time>
      </trkpt>
      <trkpt lat="45.85951" lon="6.45208">
        <ele>2239.7</ele>
        <time>2024-04-27T08:12:27Z</time>
      </trkpt>
      <trkpt lat="45.85951" lon="6.45208">
        <ele>2239.7</ele>
        <time>2024-04-27T08:12:28Z</time>
      </trkpt>
      <trkpt lat="45.85951" lon="6.45208">
        <ele>2239.7</ele>
        <time>2024-04-27T08:12:29Z</time>
      </trkpt>
      <trkpt lat="45.85951" lon="6.45208">
        <ele>2239.7</ele>
        <time>2024-04-27T08:12:30Z</time>
      </trkpt>
      <trkpt lat="45.85951" lon="6.45208">
        <ele>2239.7</ele>
        <time>2024-04-27T08:12:31Z</time>
      </trkpt>
      <trkpt lat="45.85951" lon="6.45208">
        <ele>2239.7</ele>
        <time>2024-04-27T08:12:32Z</time>
      </trkpt>
      <trkpt lat="45.85951" lon="6.45208">
        <ele>2239.7</ele>
        <time>2024-04-27T08:12:33Z</time>
      </trkpt>
      <trkpt lat="45.85951" lon="6.45208">
        <ele>2239.7</ele>
        <time>2024-04-27T08:12:34Z</time>
      </trkpt>
      <trkpt lat="45.85951" lon="6.45208">
        <ele>2239.7</ele>
        <time>2024-04-27T08:12:35Z</time>
      </trkpt>
      <trkpt lat="45.85951" lon="6.45208">
        <ele>2239.7</ele>
        <time>2024-04-27T08:12:36Z</time>
      </trkpt>
      <trkpt lat="45.85951" lon="6.45208">
        <ele>2239.7</ele>
        <time>2024-04-27T08:12:37Z</time>
      </trkpt>
      <trkpt lat="45.85951" lon="6.45208">
        <ele>2239.7</ele>
        <time>2024-04-27T08:12:38Z</time>
      </trkpt>
      <trkpt lat="45.85951" lon="6.45208">
        <ele>2239.7</ele>
        <time>2024-04-27T08:12:39Z</time>
      </trkpt>
      <trkpt lat="45.85951" lon="6.45208">
        <ele>2239.7</ele>
        <time>2024-04-27T08:12:40Z</time>
      </trkpt>
      <trkpt lat="45.85951" lon="6.45208">
        <ele>2239.7</ele>
        <time>2024-04-27T08:12:41Z</time>
      </trkpt>
      <trkpt lat="45.85951" lon="6.45208">
        <ele>2239.7</ele>
        <time>2024-04-27T08:12:42Z</time>
      </trkpt>
      <trkpt lat="45.85951" lon="6.45208">
        <ele>2239.7</ele>
        <time>2024-04-27T08:12:43Z</time>
      </trkpt>
      <trkpt lat="45.85951" lon="6.45208">
        <ele>2239.7</ele>
        <time>2024-04-27T08:12:44Z</time>
      </trkpt>
      <trkpt lat="45.85951" lon="6.45208">
        <ele>2239.7</ele>
        <time>2024-04-27T08:12:45Z</time>
      </trkpt>
      <trkpt lat="45.85951" lon="6.45208">
        <ele>2239.7</ele>
        <time>2024-04-27T08:12:46Z</time>
      </trkpt>
      <trkpt lat="45.85951" lon="6.45208">
        <ele>2239.7</ele>
        <time>2024-04-27T08:12:47Z</time>
      </trkpt>
      <trkpt lat="45.85951" lon="6.45208">
        <ele>2240.6</ele>
        <time>2024-04-27T08:12:48Z</time>
      </trkpt>
      <trkpt lat="45.85951" lon="6.45208">
        <ele>2240.6</ele>
        <time>2024-04-27T08:12:49Z</time>
      </trkpt>
      <trkpt lat="45.85951" lon="6.45208">
        <ele>2240.6</ele>
        <time>2024-04-27T08:12:50Z</time>
      </trkpt>
      <trkpt lat="45.85951" lon="6.45208">
        <ele>2240.6</ele>
        <time>2024-04-27T08:12:51Z</time>
      </trkpt>
      <trkpt lat="45.85951" lon="6.45208">
        <ele>2240.6</ele>
        <time>2024-04-27T08:12:52Z</time>
      </trkpt>
      <trkpt lat="45.85951" lon="6.45208">
        <ele>2240.6</ele>
        <time>2024-04-27T08:12:53Z</time>
      </trkpt>
      <trkpt lat="45.85951" lon="6.45208">
        <ele>2240.6</ele>
        <time>2024-04-27T08:12:54Z</time>
      </trkpt>
      <trkpt lat="45.85951" lon="6.45208">
        <ele>2240.6</ele>
        <time>2024-04-27T08:12:55Z</time>
      </trkpt>
      <trkpt lat="45.85951" lon="6.45208">
        <ele>2238.6</ele>
        <time>2024-04-27T08:12:56Z</time>
      </trkpt>
      <trkpt lat="45.85951" lon="6.45208">
        <ele>2238.6</ele>
        <time>2024-04-27T08:12:57Z</time>
      </trkpt>
      <trkpt lat="45.85951" lon="6.45208">
        <ele>2239.7</ele>
        <time>2024-04-27T08:12:58Z</time>
      </trkpt>
      <trkpt lat="45.85951" lon="6.45208">
        <ele>2239.7</ele>
        <time>2024-04-27T08:12:59Z</time>
      </trkpt>
      <trkpt lat="45.85951" lon="6.45208">
        <ele>2240.6</ele>
        <time>2024-04-27T08:13:00Z</time>
      </trkpt>
      <trkpt lat="45.85951" lon="6.45208">
        <ele>2240.6</ele>
        <time>2024-04-27T08:13:01Z</time>
      </trkpt>
      <trkpt lat="45.85951" lon="6.45208">
        <ele>2240.6</ele>
        <time>2024-04-27T08:13:02Z</time>
      </trkpt>
      <trkpt lat="45.85951" lon="6.45208">
        <ele>2240.6</ele>
        <time>2024-04-27T08:13:03Z</time>
      </trkpt>
      <trkpt lat="45.85951" lon="6.45208">
        <ele>2240.6</ele>
        <time>2024-04-27T08:13:04Z</time>
      </trkpt>
      <trkpt lat="45.85951" lon="6.45208">
        <ele>2240.6</ele>
        <time>2024-04-27T08:13:05Z</time>
      </trkpt>
      <trkpt lat="45.85951" lon="6.45208">
        <ele>2240.6</ele>
        <time>2024-04-27T08:13:06Z</time>
      </trkpt>
      <trkpt lat="45.85951" lon="6.45208">
        <ele>2240.6</ele>
        <time>2024-04-27T08:13:07Z</time>
      </trkpt>
      <trkpt lat="45.85951" lon="6.45208">
        <ele>2240.6</ele>
        <time>2024-04-27T08:13:08Z</time>
      </trkpt>
      <trkpt lat="45.85951" lon="6.45208">
        <ele>2240.6</ele>
        <time>2024-04-27T08:13:09Z</time>
      </trkpt>
      <trkpt lat="45.85951" lon="6.45208">
        <ele>2240.6</ele>
        <time>2024-04-27T08:13:10Z</time>
      </trkpt>
      <trkpt lat="45.85951" lon="6.45208">
        <ele>2240.6</ele>
        <time>2024-04-27T08:13:11Z</time>
      </trkpt>
      <trkpt lat="45.85951" lon="6.45208">
        <ele>2240.6</ele>
        <time>2024-04-27T08:13:12Z</time>
      </trkpt>
      <trkpt lat="45.85951" lon="6.45208">
        <ele>2240.6</ele>
        <time>2024-04-27T08:13:13Z</time>
      </trkpt>
      <trkpt lat="45.85951" lon="6.45208">
        <ele>2240.6</ele>
        <time>2024-04-27T08:13:14Z</time>
      </trkpt>
      <trkpt lat="45.85951" lon="6.45208">
        <ele>2240.6</ele>
        <time>2024-04-27T08:13:15Z</time>
      </trkpt>
      <trkpt lat="45.85951" lon="6.45208">
        <ele>2240.6</ele>
        <time>2024-04-27T08:13:16Z</time>
      </trkpt>
      <trkpt lat="45.85951" lon="6.45208">
        <ele>2240.6</ele>
        <time>2024-04-27T08:13:17Z</time>
      </trkpt>
      <trkpt lat="45.85951" lon="6.45208">
        <ele>2240.6</ele>
        <time>2024-04-27T08:13:18Z</time>
      </trkpt>
      <trkpt lat="45.85951" lon="6.45208">
        <ele>2240.6</ele>
        <time>2024-04-27T08:13:19Z</time>
      </trkpt>
      <trkpt lat="45.85951" lon="6.45208">
        <ele>2240.6</ele>
        <time>2024-04-27T08:13:20Z</time>
      </trkpt>
      <trkpt lat="45.85951" lon="6.45208">
        <ele>2240.6</ele>
        <time>2024-04-27T08:13:21Z</time>
      </trkpt>
      <trkpt lat="45.85951" lon="6.45208">
        <ele>2240.6</ele>
        <time>2024-04-27T08:13:22Z</time>
      </trkpt>
      <trkpt lat="45.85951" lon="6.45208">
        <ele>2240.6</ele>
        <time>2024-04-27T08:13:23Z</time>
      </trkpt>
      <trkpt lat="45.85951" lon="6.45208">
        <ele>2240.6</ele>
        <time>2024-04-27T08:13:24Z</time>
      </trkpt>
      <trkpt lat="45.85951" lon="6.45208">
        <ele>2240.6</ele>
        <time>2024-04-27T08:13:25Z</time>
      </trkpt>
      <trkpt lat="45.85951" lon="6.45208">
        <ele>2240.6</ele>
        <time>2024-04-27T08:13:26Z</time>
      </trkpt>
      <trkpt lat="45.85951" lon="6.45208">
        <ele>2240.6</ele>
        <time>2024-04-27T08:13:27Z</time>
      </trkpt>
      <trkpt lat="45.85951" lon="6.45208">
        <ele>2240.6</ele>
        <time>2024-04-27T08:13:28Z</time>
      </trkpt>
      <trkpt lat="45.85951" lon="6.45208">
        <ele>2240.6</ele>
        <time>2024-04-27T08:13:29Z</time>
      </trkpt>
      <trkpt lat="45.85951" lon="6.45208">
        <ele>2241.7</ele>
        <time>2024-04-27T08:13:30Z</time>
      </trkpt>
      <trkpt lat="45.85951" lon="6.45208">
        <ele>2241.7</ele>
        <time>2024-04-27T08:13:31Z</time>
      </trkpt>
      <trkpt lat="45.85951" lon="6.45208">
        <ele>2240.6</ele>
        <time>2024-04-27T08:13:32Z</time>
      </trkpt>
      <trkpt lat="45.85951" lon="6.45208">
        <ele>2240.6</ele>
        <time>2024-04-27T08:13:33Z</time>
      </trkpt>
      <trkpt lat="45.85951" lon="6.45208">
        <ele>2240.6</ele>
        <time>2024-04-27T08:13:34Z</time>
      </trkpt>
      <trkpt lat="45.85951" lon="6.45208">
        <ele>2240.6</ele>
        <time>2024-04-27T08:13:35Z</time>
      </trkpt>
      <trkpt lat="45.85951" lon="6.45208">
        <ele>2241.7</ele>
        <time>2024-04-27T08:13:36Z</time>
      </trkpt>
      <trkpt lat="45.85951" lon="6.45208">
        <ele>2241.7</ele>
        <time>2024-04-27T08:13:37Z</time>
      </trkpt>
      <trkpt lat="45.85951" lon="6.45208">
        <ele>2241.7</ele>
        <time>2024-04-27T08:13:38Z</time>
      </trkpt>
      <trkpt lat="45.85951" lon="6.45208">
        <ele>2241.7</ele>
        <time>2024-04-27T08:13:39Z</time>
      </trkpt>
      <trkpt lat="45.85951" lon="6.45208">
        <ele>2241.7</ele>
        <time>2024-04-27T08:13:40Z</time>
      </trkpt>
      <trkpt lat="45.85951" lon="6.45208">
        <ele>2241.7</ele>
        <time>2024-04-27T08:13:41Z</time>
      </trkpt>
      <trkpt lat="45.85951" lon="6.45208">
        <ele>2241.7</ele>
        <time>2024-04-27T08:13:42Z</time>
      </trkpt>
      <trkpt lat="45.85951" lon="6.45208">
        <ele>2241.7</ele>
        <time>2024-04-27T08:13:43Z</time>
      </trkpt>
      <trkpt lat="45.85951" lon="6.45208">
        <ele>2241.7</ele>
        <time>2024-04-27T08:13:44Z</time>
      </trkpt>
      <trkpt lat="45.85951" lon="6.45208">
        <ele>2241.7</ele>
        <time>2024-04-27T08:13:45Z</time>
      </trkpt>
      <trkpt lat="45.85951" lon="6.45208">
        <ele>2241.7</ele>
        <time>2024-04-27T08:13:46Z</time>
      </trkpt>
      <trkpt lat="45.85951" lon="6.45208">
        <ele>2241.7</ele>
        <time>2024-04-27T08:13:47Z</time>
      </trkpt>
      <trkpt lat="45.85951" lon="6.45208">
        <ele>2241.7</ele>
        <time>2024-04-27T08:13:48Z</time>
      </trkpt>
      <trkpt lat="45.85951" lon="6.45208">
        <ele>2241.7</ele>
        <time>2024-04-27T08:13:49Z</time>
      </trkpt>
      <trkpt lat="45.85951" lon="6.45208">
        <ele>2241.7</ele>
        <time>2024-04-27T08:13:50Z</time>
      </trkpt>
      <trkpt lat="45.85951" lon="6.45208">
        <ele>2241.7</ele>
        <time>2024-04-27T08:13:51Z</time>
      </trkpt>
      <trkpt lat="45.85951" lon="6.45208">
        <ele>2241.7</ele>
        <time>2024-04-27T08:13:52Z</time>
      </trkpt>
      <trkpt lat="45.85951" lon="6.45208">
        <ele>2241.7</ele>
        <time>2024-04-27T08:13:53Z</time>
      </trkpt>
      <trkpt lat="45.85951" lon="6.45208">
        <ele>2241.7</ele>
        <time>2024-04-27T08:13:54Z</time>
      </trkpt>
      <trkpt lat="45.85951" lon="6.45208">
        <ele>2241.7</ele>
        <time>2024-04-27T08:13:55Z</time>
      </trkpt>
      <trkpt lat="45.85951" lon="6.45208">
        <ele>2241.7</ele>
        <time>2024-04-27T08:13:56Z</time>
      </trkpt>
      <trkpt lat="45.85951" lon="6.45208">
        <ele>2241.7</ele>
        <time>2024-04-27T08:13:57Z</time>
      </trkpt>
      <trkpt lat="45.85951" lon="6.45208">
        <ele>2240.6</ele>
        <time>2024-04-27T08:13:58Z</time>
      </trkpt>
      <trkpt lat="45.85951" lon="6.45208">
        <ele>2240.6</ele>
        <time>2024-04-27T08:13:59Z</time>
      </trkpt>
      <trkpt lat="45.85951" lon="6.45208">
        <ele>2240.6</ele>
        <time>2024-04-27T08:14:00Z</time>
      </trkpt>
      <trkpt lat="45.85951" lon="6.45208">
        <ele>2240.6</ele>
        <time>2024-04-27T08:14:01Z</time>
      </trkpt>
      <trkpt lat="45.85951" lon="6.45208">
        <ele>2241.7</ele>
        <time>2024-04-27T08:14:02Z</time>
      </trkpt>
      <trkpt lat="45.85951" lon="6.45208">
        <ele>2241.7</ele>
        <time>2024-04-27T08:14:03Z</time>
      </trkpt>
      <trkpt lat="45.85951" lon="6.45208">
        <ele>2241.7</ele>
        <time>2024-04-27T08:14:04Z</time>
      </trkpt>
      <trkpt lat="45.85951" lon="6.45208">
        <ele>2241.7</ele>
        <time>2024-04-27T08:14:05Z</time>
      </trkpt>
      <trkpt lat="45.85951" lon="6.45208">
        <ele>2241.7</ele>
        <time>2024-04-27T08:14:06Z</time>
      </trkpt>
      <trkpt lat="45.85951" lon="6.45208">
        <ele>2241.7</ele>
        <time>2024-04-27T08:14:07Z</time>
      </trkpt>
      <trkpt lat="45.85951" lon="6.45208">
        <ele>2241.7</ele>
        <time>2024-04-27T08:14:08Z</time>
      </trkpt>
      <trkpt lat="45.85951" lon="6.45208">
        <ele>2241.7</ele>
        <time>2024-04-27T08:14:09Z</time>
      </trkpt>
      <trkpt lat="45.85951" lon="6.45208">
        <ele>2241.7</ele>
        <time>2024-04-27T08:14:10Z</time>
      </trkpt>
      <trkpt lat="45.85951" lon="6.45208">
        <ele>2241.7</ele>
        <time>2024-04-27T08:14:11Z</time>
      </trkpt>
      <trkpt lat="45.85951" lon="6.45208">
        <ele>2241.7</ele>
        <time>2024-04-27T08:14:12Z</time>
      </trkpt>
      <trkpt lat="45.85951" lon="6.45208">
        <ele>2241.7</ele>
        <time>2024-04-27T08:14:13Z</time>
      </trkpt>
      <trkpt lat="45.85951" lon="6.45208">
        <ele>2241.7</ele>
        <time>2024-04-27T08:14:14Z</time>
      </trkpt>
      <trkpt lat="45.85951" lon="6.45208">
        <ele>2241.7</ele>
        <time>2024-04-27T08:14:15Z</time>
      </trkpt>
      <trkpt lat="45.85951" lon="6.45208">
        <ele>2240.6</ele>
        <time>2024-04-27T08:14:16Z</time>
      </trkpt>
      <trkpt lat="45.85951" lon="6.45208">
        <ele>2240.6</ele>
        <time>2024-04-27T08:14:17Z</time>
      </trkpt>
      <trkpt lat="45.85951" lon="6.45208">
        <ele>2240.6</ele>
        <time>2024-04-27T08:14:18Z</time>
      </trkpt>
      <trkpt lat="45.85951" lon="6.45208">
        <ele>2240.6</ele>
        <time>2024-04-27T08:14:19Z</time>
      </trkpt>
      <trkpt lat="45.85951" lon="6.45208">
        <ele>2240.6</ele>
        <time>2024-04-27T08:14:20Z</time>
      </trkpt>
      <trkpt lat="45.85951" lon="6.45208">
        <ele>2240.6</ele>
        <time>2024-04-27T08:14:21Z</time>
      </trkpt>
      <trkpt lat="45.85951" lon="6.45208">
        <ele>2240.6</ele>
        <time>2024-04-27T08:14:22Z</time>
      </trkpt>
      <trkpt lat="45.85951" lon="6.45208">
        <ele>2240.6</ele>
        <time>2024-04-27T08:14:23Z</time>
      </trkpt>
      <trkpt lat="45.85951" lon="6.45208">
        <ele>2240.6</ele>
        <time>2024-04-27T08:14:24Z</time>
      </trkpt>
      <trkpt lat="45.85951" lon="6.45208">
        <ele>2240.6</ele>
        <time>2024-04-27T08:14:25Z</time>
      </trkpt>
      <trkpt lat="45.85951" lon="6.45208">
        <ele>2240.6</ele>
        <time>2024-04-27T08:14:26Z</time>
      </trkpt>
      <trkpt lat="45.85951" lon="6.45208">
        <ele>2240.6</ele>
        <time>2024-04-27T08:14:27Z</time>
      </trkpt>
      <trkpt lat="45.85951" lon="6.45208">
        <ele>2240.6</ele>
        <time>2024-04-27T08:14:28Z</time>
      </trkpt>
      <trkpt lat="45.85951" lon="6.45208">
        <ele>2240.6</ele>
        <time>2024-04-27T08:14:29Z</time>
      </trkpt>
      <trkpt lat="45.85951" lon="6.45208">
        <ele>2240.6</ele>
        <time>2024-04-27T08:14:30Z</time>
      </trkpt>
      <trkpt lat="45.85951" lon="6.45208">
        <ele>2240.6</ele>
        <time>2024-04-27T08:14:31Z</time>
      </trkpt>
      <trkpt lat="45.85951" lon="6.45208">
        <ele>2241.7</ele>
        <time>2024-04-27T08:14:32Z</time>
      </trkpt>
      <trkpt lat="45.85951" lon="6.45208">
        <ele>2241.7</ele>
        <time>2024-04-27T08:14:33Z</time>
      </trkpt>
      <trkpt lat="45.85951" lon="6.45208">
        <ele>2241.7</ele>
        <time>2024-04-27T08:14:34Z</time>
      </trkpt>
      <trkpt lat="45.85951" lon="6.45208">
        <ele>2241.7</ele>
        <time>2024-04-27T08:14:35Z</time>
      </trkpt>
      <trkpt lat="45.85951" lon="6.45208">
        <ele>2241.7</ele>
        <time>2024-04-27T08:14:36Z</time>
      </trkpt>
      <trkpt lat="45.85951" lon="6.45208">
        <ele>2241.7</ele>
        <time>2024-04-27T08:14:37Z</time>
      </trkpt>
      <trkpt lat="45.85951" lon="6.45208">
        <ele>2241.7</ele>
        <time>2024-04-27T08:14:38Z</time>
      </trkpt>
      <trkpt lat="45.85951" lon="6.45208">
        <ele>2241.7</ele>
        <time>2024-04-27T08:14:39Z</time>
      </trkpt>
      <trkpt lat="45.85951" lon="6.45208">
        <ele>2241.7</ele>
        <time>2024-04-27T08:14:40Z</time>
      </trkpt>
      <trkpt lat="45.85951" lon="6.45208">
        <ele>2241.7</ele>
        <time>2024-04-27T08:14:41Z</time>
      </trkpt>
      <trkpt lat="45.85951" lon="6.45208">
        <ele>2241.7</ele>
        <time>2024-04-27T08:14:42Z</time>
      </trkpt>
      <trkpt lat="45.85951" lon="6.45208">
        <ele>2241.7</ele>
        <time>2024-04-27T08:14:43Z</time>
      </trkpt>
      <trkpt lat="45.85951" lon="6.45208">
        <ele>2241.7</ele>
        <time>2024-04-27T08:14:44Z</time>
      </trkpt>
      <trkpt lat="45.85951" lon="6.45208">
        <ele>2241.7</ele>
        <time>2024-04-27T08:14:45Z</time>
      </trkpt>
      <trkpt lat="45.85951" lon="6.45208">
        <ele>2241.7</ele>
        <time>2024-04-27T08:14:46Z</time>
      </trkpt>
      <trkpt lat="45.85951" lon="6.45208">
        <ele>2241.7</ele>
        <time>2024-04-27T08:14:47Z</time>
      </trkpt>
      <trkpt lat="45.85951" lon="6.45208">
        <ele>2241.7</ele>
        <time>2024-04-27T08:14:48Z</time>
      </trkpt>
      <trkpt lat="45.85951" lon="6.45207">
        <ele>2241.7</ele>
        <time>2024-04-27T08:14:49Z</time>
      </trkpt>
      <trkpt lat="45.85951" lon="6.45207">
        <ele>2241.7</ele>
        <time>2024-04-27T08:14:50Z</time>
      </trkpt>
      <trkpt lat="45.85951" lon="6.45207">
        <ele>2241.7</ele>
        <time>2024-04-27T08:14:51Z</time>
      </trkpt>
      <trkpt lat="45.85951" lon="6.45207">
        <ele>2241.7</ele>
        <time>2024-04-27T08:14:52Z</time>
      </trkpt>
      <trkpt lat="45.85951" lon="6.45207">
        <ele>2241.7</ele>
        <time>2024-04-27T08:14:53Z</time>
      </trkpt>
      <trkpt lat="45.85951" lon="6.45207">
        <ele>2241.7</ele>
        <time>2024-04-27T08:14:54Z</time>
      </trkpt>
      <trkpt lat="45.85951" lon="6.45207">
        <ele>2241.7</ele>
        <time>2024-04-27T08:14:55Z</time>
      </trkpt>
      <trkpt lat="45.85951" lon="6.45207">
        <ele>2241.7</ele>
        <time>2024-04-27T08:14:56Z</time>
      </trkpt>
      <trkpt lat="45.85951" lon="6.45207">
        <ele>2241.7</ele>
        <time>2024-04-27T08:14:57Z</time>
      </trkpt>
      <trkpt lat="45.85951" lon="6.45207">
        <ele>2241.7</ele>
        <time>2024-04-27T08:14:58Z</time>
      </trkpt>
      <trkpt lat="45.85951" lon="6.45207">
        <ele>2241.7</ele>
        <time>2024-04-27T08:14:59Z</time>
      </trkpt>
      <trkpt lat="45.85951" lon="6.45207">
        <ele>2241.7</ele>
        <time>2024-04-27T08:15:00Z</time>
      </trkpt>
      <trkpt lat="45.85951" lon="6.45206">
        <ele>2241.7</ele>
        <time>2024-04-27T08:15:01Z</time>
      </trkpt>
      <trkpt lat="45.85951" lon="6.45206">
        <ele>2241.7</ele>
        <time>2024-04-27T08:15:02Z</time>
      </trkpt>
      <trkpt lat="45.85951" lon="6.45206">
        <ele>2241.7</ele>
        <time>2024-04-27T08:15:03Z</time>
      </trkpt>
      <trkpt lat="45.8595" lon="6.45206">
        <ele>2240.6</ele>
        <time>2024-04-27T08:15:04Z</time>
      </trkpt>
      <trkpt lat="45.85949" lon="6.45205">
        <ele>2240.6</ele>
        <time>2024-04-27T08:15:05Z</time>
      </trkpt>
      <trkpt lat="45.85947" lon="6.45204">
        <ele>2239.7</ele>
        <time>2024-04-27T08:15:06Z</time>
      </trkpt>
      <trkpt lat="45.85947" lon="6.45204">
        <ele>2239.7</ele>
        <time>2024-04-27T08:15:07Z</time>
      </trkpt>
      <trkpt lat="45.85946" lon="6.45202">
        <ele>2238.6</ele>
        <time>2024-04-27T08:15:08Z</time>
      </trkpt>
      <trkpt lat="45.85946" lon="6.452">
        <ele>2238.6</ele>
        <time>2024-04-27T08:15:09Z</time>
      </trkpt>
      <trkpt lat="45.85946" lon="6.45198">
        <ele>2237.7</ele>
        <time>2024-04-27T08:15:10Z</time>
      </trkpt>
      <trkpt lat="45.85947" lon="6.45197">
        <ele>2237.7</ele>
        <time>2024-04-27T08:15:11Z</time>
      </trkpt>
      <trkpt lat="45.85947" lon="6.45197">
        <ele>2237.7</ele>
        <time>2024-04-27T08:15:12Z</time>
      </trkpt>
      <trkpt lat="45.85947" lon="6.45197">
        <ele>2237.7</ele>
        <time>2024-04-27T08:15:13Z</time>
      </trkpt>
      <trkpt lat="45.85947" lon="6.45197">
        <ele>2237.7</ele>
        <time>2024-04-27T08:15:14Z</time>
      </trkpt>
      <trkpt lat="45.85947" lon="6.45197">
        <ele>2237.7</ele>
        <time>2024-04-27T08:15:15Z</time>
      </trkpt>
      <trkpt lat="45.85947" lon="6.45197">
        <ele>2237.7</ele>
        <time>2024-04-27T08:15:16Z</time>
      </trkpt>
      <trkpt lat="45.85947" lon="6.45198">
        <ele>2237.7</ele>
        <time>2024-04-27T08:15:17Z</time>
      </trkpt>
      <trkpt lat="45.85947" lon="6.45198">
        <ele>2237.7</ele>
        <time>2024-04-27T08:15:18Z</time>
      </trkpt>
      <trkpt lat="45.85947" lon="6.45198">
        <ele>2237.7</ele>
        <time>2024-04-27T08:15:19Z</time>
      </trkpt>
      <trkpt lat="45.85947" lon="6.45198">
        <ele>2237.7</ele>
        <time>2024-04-27T08:15:20Z</time>
      </trkpt>
      <trkpt lat="45.85947" lon="6.45198">
        <ele>2237.7</ele>
        <time>2024-04-27T08:15:21Z</time>
      </trkpt>
      <trkpt lat="45.85947" lon="6.45198">
        <ele>2237.7</ele>
        <time>2024-04-27T08:15:22Z</time>
      </trkpt>
      <trkpt lat="45.85947" lon="6.45198">
        <ele>2237.7</ele>
        <time>2024-04-27T08:15:23Z</time>
      </trkpt>
      <trkpt lat="45.85947" lon="6.45198">
        <ele>2237.7</ele>
        <time>2024-04-27T08:15:24Z</time>
      </trkpt>
      <trkpt lat="45.85947" lon="6.45198">
        <ele>2237.7</ele>
        <time>2024-04-27T08:15:25Z</time>
      </trkpt>
      <trkpt lat="45.85947" lon="6.45198">
        <ele>2237.7</ele>
        <time>2024-04-27T08:15:26Z</time>
      </trkpt>
      <trkpt lat="45.85947" lon="6.45198">
        <ele>2237.7</ele>
        <time>2024-04-27T08:15:27Z</time>
      </trkpt>
      <trkpt lat="45.85947" lon="6.45198">
        <ele>2237.7</ele>
        <time>2024-04-27T08:15:28Z</time>
      </trkpt>
      <trkpt lat="45.85947" lon="6.45198">
        <ele>2237.7</ele>
        <time>2024-04-27T08:15:29Z</time>
      </trkpt>
      <trkpt lat="45.85947" lon="6.45198">
        <ele>2237.7</ele>
        <time>2024-04-27T08:15:30Z</time>
      </trkpt>
      <trkpt lat="45.85947" lon="6.45198">
        <ele>2237.7</ele>
        <time>2024-04-27T08:15:31Z</time>
      </trkpt>
      <trkpt lat="45.85947" lon="6.45198">
        <ele>2237.7</ele>
        <time>2024-04-27T08:15:32Z</time>
      </trkpt>
      <trkpt lat="45.85947" lon="6.45198">
        <ele>2237.7</ele>
        <time>2024-04-27T08:15:33Z</time>
      </trkpt>
      <trkpt lat="45.85947" lon="6.45198">
        <ele>2237.7</ele>
        <time>2024-04-27T08:15:34Z</time>
      </trkpt>
      <trkpt lat="45.85947" lon="6.45198">
        <ele>2237.7</ele>
        <time>2024-04-27T08:15:35Z</time>
      </trkpt>
      <trkpt lat="45.85947" lon="6.45198">
        <ele>2236.7</ele>
        <time>2024-04-27T08:15:36Z</time>
      </trkpt>
      <trkpt lat="45.85946" lon="6.45198">
        <ele>2236.7</ele>
        <time>2024-04-27T08:15:37Z</time>
      </trkpt>
      <trkpt lat="45.85946" lon="6.45198">
        <ele>2236.7</ele>
        <time>2024-04-27T08:15:38Z</time>
      </trkpt>
      <trkpt lat="45.85946" lon="6.45198">
        <ele>2236.7</ele>
        <time>2024-04-27T08:15:39Z</time>
      </trkpt>
      <trkpt lat="45.85946" lon="6.45199">
        <ele>2237.7</ele>
        <time>2024-04-27T08:15:40Z</time>
      </trkpt>
      <trkpt lat="45.85946" lon="6.45199">
        <ele>2237.7</ele>
        <time>2024-04-27T08:15:41Z</time>
      </trkpt>
      <trkpt lat="45.85946" lon="6.45199">
        <ele>2237.7</ele>
        <time>2024-04-27T08:15:42Z</time>
      </trkpt>
      <trkpt lat="45.85946" lon="6.45199">
        <ele>2237.7</ele>
        <time>2024-04-27T08:15:43Z</time>
      </trkpt>
      <trkpt lat="45.85946" lon="6.45199">
        <ele>2237.7</ele>
        <time>2024-04-27T08:15:44Z</time>
      </trkpt>
      <trkpt lat="45.85946" lon="6.45199">
        <ele>2237.7</ele>
        <time>2024-04-27T08:15:45Z</time>
      </trkpt>
      <trkpt lat="45.85946" lon="6.45199">
        <ele>2237.7</ele>
        <time>2024-04-27T08:15:46Z</time>
      </trkpt>
      <trkpt lat="45.85946" lon="6.45199">
        <ele>2237.7</ele>
        <time>2024-04-27T08:15:47Z</time>
      </trkpt>
      <trkpt lat="45.85946" lon="6.45199">
        <ele>2237.7</ele>
        <time>2024-04-27T08:15:48Z</time>
      </trkpt>
      <trkpt lat="45.85946" lon="6.45199">
        <ele>2237.7</ele>
        <time>2024-04-27T08:15:49Z</time>
      </trkpt>
      <trkpt lat="45.85946" lon="6.45199">
        <ele>2237.7</ele>
        <time>2024-04-27T08:15:50Z</time>
      </trkpt>
      <trkpt lat="45.85946" lon="6.45199">
        <ele>2237.7</ele>
        <time>2024-04-27T08:15:51Z</time>
      </trkpt>
      <trkpt lat="45.85946" lon="6.45199">
        <ele>2237.7</ele>
        <time>2024-04-27T08:15:52Z</time>
      </trkpt>
      <trkpt lat="45.85946" lon="6.45199">
        <ele>2237.7</ele>
        <time>2024-04-27T08:15:53Z</time>
      </trkpt>
      <trkpt lat="45.85946" lon="6.45199">
        <ele>2237.7</ele>
        <time>2024-04-27T08:15:54Z</time>
      </trkpt>
      <trkpt lat="45.85946" lon="6.45199">
        <ele>2237.7</ele>
        <time>2024-04-27T08:15:55Z</time>
      </trkpt>
      <trkpt lat="45.85946" lon="6.45199">
        <ele>2237.7</ele>
        <time>2024-04-27T08:15:56Z</time>
      </trkpt>
      <trkpt lat="45.85946" lon="6.45199">
        <ele>2237.7</ele>
        <time>2024-04-27T08:15:57Z</time>
      </trkpt>
      <trkpt lat="45.85946" lon="6.45199">
        <ele>2237.7</ele>
        <time>2024-04-27T08:15:58Z</time>
      </trkpt>
      <trkpt lat="45.85946" lon="6.45199">
        <ele>2237.7</ele>
        <time>2024-04-27T08:15:59Z</time>
      </trkpt>
      <trkpt lat="45.85946" lon="6.45199">
        <ele>2237.7</ele>
        <time>2024-04-27T08:16:00Z</time>
      </trkpt>
      <trkpt lat="45.85946" lon="6.45199">
        <ele>2237.7</ele>
        <time>2024-04-27T08:16:01Z</time>
      </trkpt>
      <trkpt lat="45.85946" lon="6.45199">
        <ele>2237.7</ele>
        <time>2024-04-27T08:16:02Z</time>
      </trkpt>
      <trkpt lat="45.85947" lon="6.45199">
        <ele>2237.7</ele>
        <time>2024-04-27T08:16:03Z</time>
      </trkpt>
      <trkpt lat="45.85947" lon="6.45199">
        <ele>2237.7</ele>
        <time>2024-04-27T08:16:04Z</time>
      </trkpt>
      <trkpt lat="45.85947" lon="6.45199">
        <ele>2237.7</ele>
        <time>2024-04-27T08:16:05Z</time>
      </trkpt>
      <trkpt lat="45.85947" lon="6.45199">
        <ele>2237.7</ele>
        <time>2024-04-27T08:16:06Z</time>
      </trkpt>
      <trkpt lat="45.85947" lon="6.45199">
        <ele>2237.7</ele>
        <time>2024-04-27T08:16:07Z</time>
      </trkpt>
      <trkpt lat="45.85948" lon="6.45199">
        <ele>2236.7</ele>
        <time>2024-04-27T08:16:08Z</time>
      </trkpt>
      <trkpt lat="45.85948" lon="6.45199">
        <ele>2236.7</ele>
        <time>2024-04-27T08:16:09Z</time>
      </trkpt>
      <trkpt lat="45.85948" lon="6.45199">
        <ele>2236.7</ele>
        <time>2024-04-27T08:16:10Z</time>
      </trkpt>
      <trkpt lat="45.85948" lon="6.45199">
        <ele>2236.7</ele>
        <time>2024-04-27T08:16:11Z</time>
      </trkpt>
      <trkpt lat="45.85948" lon="6.45199">
        <ele>2236.7</ele>
        <time>2024-04-27T08:16:12Z</time>
      </trkpt>
      <trkpt lat="45.85948" lon="6.45199">
        <ele>2236.7</ele>
        <time>2024-04-27T08:16:13Z</time>
      </trkpt>
      <trkpt lat="45.85948" lon="6.45198">
        <ele>2236.7</ele>
        <time>2024-04-27T08:16:14Z</time>
      </trkpt>
      <trkpt lat="45.85948" lon="6.45198">
        <ele>2236.7</ele>
        <time>2024-04-27T08:16:15Z</time>
      </trkpt>
      <trkpt lat="45.85948" lon="6.45198">
        <ele>2236.7</ele>
        <time>2024-04-27T08:16:16Z</time>
      </trkpt>
      <trkpt lat="45.85948" lon="6.45198">
        <ele>2236.7</ele>
        <time>2024-04-27T08:16:17Z</time>
      </trkpt>
      <trkpt lat="45.85948" lon="6.45198">
        <ele>2236.7</ele>
        <time>2024-04-27T08:16:18Z</time>
      </trkpt>
      <trkpt lat="45.85948" lon="6.45198">
        <ele>2236.7</ele>
        <time>2024-04-27T08:16:19Z</time>
      </trkpt>
      <trkpt lat="45.85948" lon="6.45198">
        <ele>2236.7</ele>
        <time>2024-04-27T08:16:20Z</time>
      </trkpt>
      <trkpt lat="45.85948" lon="6.45198">
        <ele>2236.7</ele>
        <time>2024-04-27T08:16:21Z</time>
      </trkpt>
      <trkpt lat="45.85948" lon="6.45198">
        <ele>2236.7</ele>
        <time>2024-04-27T08:16:22Z</time>
      </trkpt>
      <trkpt lat="45.85948" lon="6.45198">
        <ele>2236.7</ele>
        <time>2024-04-27T08:16:23Z</time>
      </trkpt>
      <trkpt lat="45.85948" lon="6.45198">
        <ele>2236.7</ele>
        <time>2024-04-27T08:16:24Z</time>
      </trkpt>
      <trkpt lat="45.85948" lon="6.45198">
        <ele>2236.7</ele>
        <time>2024-04-27T08:16:25Z</time>
      </trkpt>
      <trkpt lat="45.85949" lon="6.45198">
        <ele>2236.7</ele>
        <time>2024-04-27T08:16:26Z</time>
      </trkpt>
      <trkpt lat="45.85949" lon="6.45198">
        <ele>2236.7</ele>
        <time>2024-04-27T08:16:27Z</time>
      </trkpt>
      <trkpt lat="45.85949" lon="6.45198">
        <ele>2236.7</ele>
        <time>2024-04-27T08:16:28Z</time>
      </trkpt>
      <trkpt lat="45.85949" lon="6.45198">
        <ele>2236.7</ele>
        <time>2024-04-27T08:16:29Z</time>
      </trkpt>
      <trkpt lat="45.85949" lon="6.45198">
        <ele>2236.7</ele>
        <time>2024-04-27T08:16:30Z</time>
      </trkpt>
      <trkpt lat="45.85949" lon="6.45198">
        <ele>2236.7</ele>
        <time>2024-04-27T08:16:31Z</time>
      </trkpt>
      <trkpt lat="45.85949" lon="6.45198">
        <ele>2236.7</ele>
        <time>2024-04-27T08:16:32Z</time>
      </trkpt>
      <trkpt lat="45.85949" lon="6.45198">
        <ele>2236.7</ele>
        <time>2024-04-27T08:16:33Z</time>
      </trkpt>
      <trkpt lat="45.85949" lon="6.45198">
        <ele>2236.7</ele>
        <time>2024-04-27T08:16:34Z</time>
      </trkpt>
      <trkpt lat="45.85949" lon="6.45198">
        <ele>2236.7</ele>
        <time>2024-04-27T08:16:35Z</time>
      </trkpt>
      <trkpt lat="45.85949" lon="6.45198">
        <ele>2236.7</ele>
        <time>2024-04-27T08:16:36Z</time>
      </trkpt>
      <trkpt lat="45.85949" lon="6.45198">
        <ele>2236.7</ele>
        <time>2024-04-27T08:16:37Z</time>
      </trkpt>
      <trkpt lat="45.8595" lon="6.45198">
        <ele>2236.7</ele>
        <time>2024-04-27T08:16:38Z</time>
      </trkpt>
      <trkpt lat="45.8595" lon="6.45198">
        <ele>2236.7</ele>
        <time>2024-04-27T08:16:39Z</time>
      </trkpt>
      <trkpt lat="45.8595" lon="6.45198">
        <ele>2236.7</ele>
        <time>2024-04-27T08:16:40Z</time>
      </trkpt>
      <trkpt lat="45.8595" lon="6.45199">
        <ele>2236.7</ele>
        <time>2024-04-27T08:16:41Z</time>
      </trkpt>
      <trkpt lat="45.8595" lon="6.45199">
        <ele>2236.7</ele>
        <time>2024-04-27T08:16:42Z</time>
      </trkpt>
      <trkpt lat="45.8595" lon="6.45199">
        <ele>2236.7</ele>
        <time>2024-04-27T08:16:43Z</time>
      </trkpt>
      <trkpt lat="45.8595" lon="6.452">
        <ele>2236.7</ele>
        <time>2024-04-27T08:16:44Z</time>
      </trkpt>
      <trkpt lat="45.8595" lon="6.452">
        <ele>2236.7</ele>
        <time>2024-04-27T08:16:45Z</time>
      </trkpt>
      <trkpt lat="45.8595" lon="6.452">
        <ele>2236.7</ele>
        <time>2024-04-27T08:16:46Z</time>
      </trkpt>
      <trkpt lat="45.8595" lon="6.452">
        <ele>2236.7</ele>
        <time>2024-04-27T08:16:47Z</time>
      </trkpt>
      <trkpt lat="45.8595" lon="6.452">
        <ele>2236.7</ele>
        <time>2024-04-27T08:16:48Z</time>
      </trkpt>
      <trkpt lat="45.8595" lon="6.452">
        <ele>2236.7</ele>
        <time>2024-04-27T08:16:49Z</time>
      </trkpt>
      <trkpt lat="45.8595" lon="6.452">
        <ele>2236.7</ele>
        <time>2024-04-27T08:16:50Z</time>
      </trkpt>
      <trkpt lat="45.8595" lon="6.452">
        <ele>2236.7</ele>
        <time>2024-04-27T08:16:51Z</time>
      </trkpt>
      <trkpt lat="45.85949" lon="6.452">
        <ele>2236.7</ele>
        <time>2024-04-27T08:16:52Z</time>
      </trkpt>
      <trkpt lat="45.85949" lon="6.452">
        <ele>2236.7</ele>
        <time>2024-04-27T08:16:53Z</time>
      </trkpt>
      <trkpt lat="45.85949" lon="6.452">
        <ele>2236.7</ele>
        <time>2024-04-27T08:16:54Z</time>
      </trkpt>
      <trkpt lat="45.85949" lon="6.452">
        <ele>2236.7</ele>
        <time>2024-04-27T08:16:55Z</time>
      </trkpt>
      <trkpt lat="45.85949" lon="6.452">
        <ele>2236.7</ele>
        <time>2024-04-27T08:16:56Z</time>
      </trkpt>
      <trkpt lat="45.85949" lon="6.452">
        <ele>2236.7</ele>
        <time>2024-04-27T08:16:57Z</time>
      </trkpt>
      <trkpt lat="45.85949" lon="6.452">
        <ele>2236.7</ele>
        <time>2024-04-27T08:16:58Z</time>
      </trkpt>
      <trkpt lat="45.85949" lon="6.452">
        <ele>2236.7</ele>
        <time>2024-04-27T08:16:59Z</time>
      </trkpt>
      <trkpt lat="45.85949" lon="6.452">
        <ele>2236.7</ele>
        <time>2024-04-27T08:17:00Z</time>
      </trkpt>
      <trkpt lat="45.85949" lon="6.452">
        <ele>2236.7</ele>
        <time>2024-04-27T08:17:01Z</time>
      </trkpt>
      <trkpt lat="45.85949" lon="6.452">
        <ele>2236.7</ele>
        <time>2024-04-27T08:17:02Z</time>
      </trkpt>
      <trkpt lat="45.85949" lon="6.452">
        <ele>2236.7</ele>
        <time>2024-04-27T08:17:03Z</time>
      </trkpt>
      <trkpt lat="45.85949" lon="6.452">
        <ele>2236.7</ele>
        <time>2024-04-27T08:17:04Z</time>
      </trkpt>
      <trkpt lat="45.85949" lon="6.45199">
        <ele>2236.7</ele>
        <time>2024-04-27T08:17:05Z</time>
      </trkpt>
      <trkpt lat="45.85949" lon="6.45199">
        <ele>2236.7</ele>
        <time>2024-04-27T08:17:06Z</time>
      </trkpt>
      <trkpt lat="45.85949" lon="6.45199">
        <ele>2236.7</ele>
        <time>2024-04-27T08:17:07Z</time>
      </trkpt>
      <trkpt lat="45.85949" lon="6.45199">
        <ele>2236.7</ele>
        <time>2024-04-27T08:17:08Z</time>
      </trkpt>
      <trkpt lat="45.85949" lon="6.45199">
        <ele>2236.7</ele>
        <time>2024-04-27T08:17:09Z</time>
      </trkpt>
      <trkpt lat="45.85949" lon="6.45199">
        <ele>2236.7</ele>
        <time>2024-04-27T08:17:10Z</time>
      </trkpt>
      <trkpt lat="45.85949" lon="6.45199">
        <ele>2236.7</ele>
        <time>2024-04-27T08:17:11Z</time>
      </trkpt>
      <trkpt lat="45.85949" lon="6.45199">
        <ele>2236.7</ele>
        <time>2024-04-27T08:17:12Z</time>
      </trkpt>
      <trkpt lat="45.85949" lon="6.45199">
        <ele>2236.7</ele>
        <time>2024-04-27T08:17:13Z</time>
      </trkpt>
      <trkpt lat="45.85949" lon="6.45199">
        <ele>2236.7</ele>
        <time>2024-04-27T08:17:14Z</time>
      </trkpt>
      <trkpt lat="45.85948" lon="6.45199">
        <ele>2236.7</ele>
        <time>2024-04-27T08:17:15Z</time>
      </trkpt>
      <trkpt lat="45.85948" lon="6.45199">
        <ele>2236.7</ele>
        <time>2024-04-27T08:17:16Z</time>
      </trkpt>
      <trkpt lat="45.85948" lon="6.45199">
        <ele>2236.7</ele>
        <time>2024-04-27T08:17:17Z</time>
      </trkpt>
      <trkpt lat="45.85948" lon="6.45199">
        <ele>2236.7</ele>
        <time>2024-04-27T08:17:18Z</time>
      </trkpt>
      <trkpt lat="45.85948" lon="6.45199">
        <ele>2236.7</ele>
        <time>2024-04-27T08:17:19Z</time>
      </trkpt>
      <trkpt lat="45.85948" lon="6.45199">
        <ele>2236.7</ele>
        <time>2024-04-27T08:17:20Z</time>
      </trkpt>
      <trkpt lat="45.85948" lon="6.45198">
        <ele>2236.7</ele>
        <time>2024-04-27T08:17:21Z</time>
      </trkpt>
      <trkpt lat="45.85948" lon="6.45198">
        <ele>2236.7</ele>
        <time>2024-04-27T08:17:22Z</time>
      </trkpt>
      <trkpt lat="45.85948" lon="6.45198">
        <ele>2236.7</ele>
        <time>2024-04-27T08:17:23Z</time>
      </trkpt>
      <trkpt lat="45.85948" lon="6.45198">
        <ele>2236.7</ele>
        <time>2024-04-27T08:17:24Z</time>
      </trkpt>
      <trkpt lat="45.85947" lon="6.45197">
        <ele>2236.7</ele>
        <time>2024-04-27T08:17:25Z</time>
      </trkpt>
      <trkpt lat="45.85947" lon="6.45197">
        <ele>2236.7</ele>
        <time>2024-04-27T08:17:26Z</time>
      </trkpt>
      <trkpt lat="45.85947" lon="6.45197">
        <ele>2236.7</ele>
        <time>2024-04-27T08:17:27Z</time>
      </trkpt>
      <trkpt lat="45.85947" lon="6.45197">
        <ele>2236.7</ele>
        <time>2024-04-27T08:17:28Z</time>
      </trkpt>
      <trkpt lat="45.85947" lon="6.45197">
        <ele>2236.7</ele>
        <time>2024-04-27T08:17:29Z</time>
      </trkpt>
      <trkpt lat="45.85947" lon="6.45197">
        <ele>2236.7</ele>
        <time>2024-04-27T08:17:30Z</time>
      </trkpt>
      <trkpt lat="45.85947" lon="6.45197">
        <ele>2236.7</ele>
        <time>2024-04-27T08:17:31Z</time>
      </trkpt>
      <trkpt lat="45.85947" lon="6.45197">
        <ele>2236.7</ele>
        <time>2024-04-27T08:17:32Z</time>
      </trkpt>
      <trkpt lat="45.85947" lon="6.45197">
        <ele>2236.7</ele>
        <time>2024-04-27T08:17:33Z</time>
      </trkpt>
      <trkpt lat="45.85947" lon="6.45197">
        <ele>2236.7</ele>
        <time>2024-04-27T08:17:34Z</time>
      </trkpt>
      <trkpt lat="45.85947" lon="6.45197">
        <ele>2236.7</ele>
        <time>2024-04-27T08:17:35Z</time>
      </trkpt>
      <trkpt lat="45.85947" lon="6.45197">
        <ele>2236.7</ele>
        <time>2024-04-27T08:17:36Z</time>
      </trkpt>
      <trkpt lat="45.85947" lon="6.45197">
        <ele>2236.7</ele>
        <time>2024-04-27T08:17:37Z</time>
      </trkpt>
      <trkpt lat="45.85947" lon="6.45197">
        <ele>2236.7</ele>
        <time>2024-04-27T08:17:38Z</time>
      </trkpt>
      <trkpt lat="45.85947" lon="6.45197">
        <ele>2236.7</ele>
        <time>2024-04-27T08:17:39Z</time>
      </trkpt>
      <trkpt lat="45.85947" lon="6.45197">
        <ele>2236.7</ele>
        <time>2024-04-27T08:17:40Z</time>
      </trkpt>
      <trkpt lat="45.85947" lon="6.45197">
        <ele>2236.7</ele>
        <time>2024-04-27T08:17:41Z</time>
      </trkpt>
      <trkpt lat="45.85947" lon="6.45197">
        <ele>2236.7</ele>
        <time>2024-04-27T08:17:42Z</time>
      </trkpt>
      <trkpt lat="45.85947" lon="6.45197">
        <ele>2236.7</ele>
        <time>2024-04-27T08:17:43Z</time>
      </trkpt>
      <trkpt lat="45.85947" lon="6.45197">
        <ele>2236.7</ele>
        <time>2024-04-27T08:17:44Z</time>
      </trkpt>
      <trkpt lat="45.85947" lon="6.45197">
        <ele>2236.7</ele>
        <time>2024-04-27T08:17:45Z</time>
      </trkpt>
      <trkpt lat="45.85947" lon="6.45198">
        <ele>2236.7</ele>
        <time>2024-04-27T08:17:46Z</time>
      </trkpt>
      <trkpt lat="45.85947" lon="6.45198">
        <ele>2236.7</ele>
        <time>2024-04-27T08:17:47Z</time>
      </trkpt>
      <trkpt lat="45.85947" lon="6.45198">
        <ele>2236.7</ele>
        <time>2024-04-27T08:17:48Z</time>
      </trkpt>
      <trkpt lat="45.85947" lon="6.45198">
        <ele>2236.7</ele>
        <time>2024-04-27T08:17:49Z</time>
      </trkpt>
      <trkpt lat="45.85947" lon="6.45198">
        <ele>2236.7</ele>
        <time>2024-04-27T08:17:50Z</time>
      </trkpt>
      <trkpt lat="45.85947" lon="6.45198">
        <ele>2236.7</ele>
        <time>2024-04-27T08:17:51Z</time>
      </trkpt>
      <trkpt lat="45.85947" lon="6.45198">
        <ele>2236.7</ele>
        <time>2024-04-27T08:17:52Z</time>
      </trkpt>
      <trkpt lat="45.85948" lon="6.45199">
        <ele>2236.7</ele>
        <time>2024-04-27T08:17:53Z</time>
      </trkpt>
      <trkpt lat="45.85948" lon="6.45199">
        <ele>2236.7</ele>
        <time>2024-04-27T08:17:54Z</time>
      </trkpt>
      <trkpt lat="45.85948" lon="6.45199">
        <ele>2236.7</ele>
        <time>2024-04-27T08:17:55Z</time>
      </trkpt>
      <trkpt lat="45.85948" lon="6.45199">
        <ele>2236.7</ele>
        <time>2024-04-27T08:17:56Z</time>
      </trkpt>
      <trkpt lat="45.85949" lon="6.45199">
        <ele>2236.7</ele>
        <time>2024-04-27T08:17:57Z</time>
      </trkpt>
      <trkpt lat="45.85949" lon="6.452">
        <ele>2236.7</ele>
        <time>2024-04-27T08:17:58Z</time>
      </trkpt>
      <trkpt lat="45.85949" lon="6.452">
        <ele>2236.7</ele>
        <time>2024-04-27T08:17:59Z</time>
      </trkpt>
      <trkpt lat="45.85949" lon="6.452">
        <ele>2236.7</ele>
        <time>2024-04-27T08:18:00Z</time>
      </trkpt>
      <trkpt lat="45.85949" lon="6.452">
        <ele>2236.7</ele>
        <time>2024-04-27T08:18:01Z</time>
      </trkpt>
      <trkpt lat="45.85949" lon="6.452">
        <ele>2236.7</ele>
        <time>2024-04-27T08:18:02Z</time>
      </trkpt>
      <trkpt lat="45.85949" lon="6.45201">
        <ele>2236.7</ele>
        <time>2024-04-27T08:18:03Z</time>
      </trkpt>
      <trkpt lat="45.85949" lon="6.45201">
        <ele>2236.7</ele>
        <time>2024-04-27T08:18:04Z</time>
      </trkpt>
      <trkpt lat="45.85949" lon="6.45201">
        <ele>2236.7</ele>
        <time>2024-04-27T08:18:05Z</time>
      </trkpt>
      <trkpt lat="45.85949" lon="6.45201">
        <ele>2236.7</ele>
        <time>2024-04-27T08:18:06Z</time>
      </trkpt>
      <trkpt lat="45.85949" lon="6.45201">
        <ele>2236.7</ele>
        <time>2024-04-27T08:18:07Z</time>
      </trkpt>
      <trkpt lat="45.85949" lon="6.45201">
        <ele>2236.7</ele>
        <time>2024-04-27T08:18:08Z</time>
      </trkpt>
      <trkpt lat="45.85949" lon="6.45201">
        <ele>2236.7</ele>
        <time>2024-04-27T08:18:09Z</time>
      </trkpt>
      <trkpt lat="45.8595" lon="6.45201">
        <ele>2236.7</ele>
        <time>2024-04-27T08:18:10Z</time>
      </trkpt>
      <trkpt lat="45.85949" lon="6.45201">
        <ele>2236.7</ele>
        <time>2024-04-27T08:18:11Z</time>
      </trkpt>
      <trkpt lat="45.85945" lon="6.45201">
        <ele>2236.7</ele>
        <time>2024-04-27T08:18:12Z</time>
      </trkpt>
      <trkpt lat="45.85942" lon="6.452">
        <ele>2236.7</ele>
        <time>2024-04-27T08:18:13Z</time>
      </trkpt>
      <trkpt lat="45.8594" lon="6.452">
        <ele>2236.7</ele>
        <time>2024-04-27T08:18:14Z</time>
      </trkpt>
      <trkpt lat="45.85937" lon="6.45199">
        <ele>2236.7</ele>
        <time>2024-04-27T08:18:15Z</time>
      </trkpt>
      <trkpt lat="45.85934" lon="6.45198">
        <ele>2232.7</ele>
        <time>2024-04-27T08:18:16Z</time>
      </trkpt>
      <trkpt lat="45.85931" lon="6.45196">
        <ele>2232.7</ele>
        <time>2024-04-27T08:18:17Z</time>
      </trkpt>
      <trkpt lat="45.85929" lon="6.45194">
        <ele>2232.7</ele>
        <time>2024-04-27T08:18:18Z</time>
      </trkpt>
      <trkpt lat="45.85928" lon="6.45191">
        <ele>2232.7</ele>
        <time>2024-04-27T08:18:19Z</time>
      </trkpt>
      <trkpt lat="45.85928" lon="6.45189">
        <ele>2232.7</ele>
        <time>2024-04-27T08:18:20Z</time>
      </trkpt>
      <trkpt lat="45.85928" lon="6.45188">
        <ele>2232.7</ele>
        <time>2024-04-27T08:18:21Z</time>
      </trkpt>
      <trkpt lat="45.85928" lon="6.45186">
        <ele>2227.7</ele>
        <time>2024-04-27T08:18:22Z</time>
      </trkpt>
      <trkpt lat="45.85927" lon="6.45184">
        <ele>2227.7</ele>
        <time>2024-04-27T08:18:23Z</time>
      </trkpt>
      <trkpt lat="45.85926" lon="6.45182">
        <ele>2224.6</ele>
        <time>2024-04-27T08:18:24Z</time>
      </trkpt>
      <trkpt lat="45.85926" lon="6.45179">
        <ele>2224.6</ele>
        <time>2024-04-27T08:18:25Z</time>
      </trkpt>
      <trkpt lat="45.85927" lon="6.45177">
        <ele>2222.6</ele>
        <time>2024-04-27T08:18:26Z</time>
      </trkpt>
      <trkpt lat="45.85927" lon="6.45175">
        <ele>2222.6</ele>
        <time>2024-04-27T08:18:27Z</time>
      </trkpt>
      <trkpt lat="45.85927" lon="6.45173">
        <ele>2220.6</ele>
        <time>2024-04-27T08:18:28Z</time>
      </trkpt>
      <trkpt lat="45.85927" lon="6.45172">
        <ele>2220.6</ele>
        <time>2024-04-27T08:18:29Z</time>
      </trkpt>
      <trkpt lat="45.85926" lon="6.45171">
        <ele>2218.7</ele>
        <time>2024-04-27T08:18:30Z</time>
      </trkpt>
      <trkpt lat="45.85926" lon="6.4517">
        <ele>2218.7</ele>
        <time>2024-04-27T08:18:31Z</time>
      </trkpt>
      <trkpt lat="45.85926" lon="6.45169">
        <ele>2217.6</ele>
        <time>2024-04-27T08:18:32Z</time>
      </trkpt>
      <trkpt lat="45.85926" lon="6.45168">
        <ele>2217.6</ele>
        <time>2024-04-27T08:18:33Z</time>
      </trkpt>
      <trkpt lat="45.85928" lon="6.45166">
        <ele>2214.7</ele>
        <time>2024-04-27T08:18:34Z</time>
      </trkpt>
      <trkpt lat="45.8593" lon="6.45165">
        <ele>2214.7</ele>
        <time>2024-04-27T08:18:35Z</time>
      </trkpt>
      <trkpt lat="45.85932" lon="6.45164">
        <ele>2213.6</ele>
        <time>2024-04-27T08:18:36Z</time>
      </trkpt>
      <trkpt lat="45.85932" lon="6.45163">
        <ele>2213.6</ele>
        <time>2024-04-27T08:18:37Z</time>
      </trkpt>
      <trkpt lat="45.85932" lon="6.45162">
        <ele>2212.7</ele>
        <time>2024-04-27T08:18:38Z</time>
      </trkpt>
      <trkpt lat="45.85931" lon="6.45161">
        <ele>2212.7</ele>
        <time>2024-04-27T08:18:39Z</time>
      </trkpt>
      <trkpt lat="45.85931" lon="6.45159">
        <ele>2210.6</ele>
        <time>2024-04-27T08:18:40Z</time>
      </trkpt>
      <trkpt lat="45.8593" lon="6.45156">
        <ele>2210.6</ele>
        <time>2024-04-27T08:18:41Z</time>
      </trkpt>
      <trkpt lat="45.85928" lon="6.45154">
        <ele>2208.6</ele>
        <time>2024-04-27T08:18:42Z</time>
      </trkpt>
      <trkpt lat="45.85926" lon="6.45153">
        <ele>2208.6</ele>
        <time>2024-04-27T08:18:43Z</time>
      </trkpt>
      <trkpt lat="45.85923" lon="6.45152">
        <ele>2208.6</ele>
        <time>2024-04-27T08:18:44Z</time>
      </trkpt>
      <trkpt lat="45.8592" lon="6.45151">
        <ele>2208.6</ele>
        <time>2024-04-27T08:18:45Z</time>
      </trkpt>
      <trkpt lat="45.85917" lon="6.45151">
        <ele>2206.6</ele>
        <time>2024-04-27T08:18:46Z</time>
      </trkpt>
      <trkpt lat="45.85914" lon="6.4515">
        <ele>2206.6</ele>
        <time>2024-04-27T08:18:47Z</time>
      </trkpt>
      <trkpt lat="45.85911" lon="6.4515">
        <ele>2205.7</ele>
        <time>2024-04-27T08:18:48Z</time>
      </trkpt>
      <trkpt lat="45.85908" lon="6.4515">
        <ele>2205.7</ele>
        <time>2024-04-27T08:18:49Z</time>
      </trkpt>
      <trkpt lat="45.85905" lon="6.45149">
        <ele>2204.6</ele>
        <time>2024-04-27T08:18:50Z</time>
      </trkpt>
      <trkpt lat="45.85902" lon="6.45148">
        <ele>2204.6</ele>
        <time>2024-04-27T08:18:51Z</time>
      </trkpt>
      <trkpt lat="45.85899" lon="6.45146">
        <ele>2202.7</ele>
        <time>2024-04-27T08:18:52Z</time>
      </trkpt>
      <trkpt lat="45.85896" lon="6.45144">
        <ele>2202.7</ele>
        <time>2024-04-27T08:18:53Z</time>
      </trkpt>
      <trkpt lat="45.85893" lon="6.45143">
        <ele>2201.6</ele>
        <time>2024-04-27T08:18:54Z</time>
      </trkpt>
      <trkpt lat="45.85889" lon="6.45141">
        <ele>2201.6</ele>
        <time>2024-04-27T08:18:55Z</time>
      </trkpt>
      <trkpt lat="45.85886" lon="6.45139">
        <ele>2200.7</ele>
        <time>2024-04-27T08:18:56Z</time>
      </trkpt>
      <trkpt lat="45.85884" lon="6.45137">
        <ele>2200.7</ele>
        <time>2024-04-27T08:18:57Z</time>
      </trkpt>
      <trkpt lat="45.85881" lon="6.45135">
        <ele>2199.6</ele>
        <time>2024-04-27T08:18:58Z</time>
      </trkpt>
      <trkpt lat="45.85879" lon="6.45134">
        <ele>2199.6</ele>
        <time>2024-04-27T08:18:59Z</time>
      </trkpt>
      <trkpt lat="45.85877" lon="6.45132">
        <ele>2198.7</ele>
        <time>2024-04-27T08:19:00Z</time>
      </trkpt>
      <trkpt lat="45.85875" lon="6.4513">
        <ele>2198.7</ele>
        <time>2024-04-27T08:19:01Z</time>
      </trkpt>
      <trkpt lat="45.85874" lon="6.45128">
        <ele>2198.7</ele>
        <time>2024-04-27T08:19:02Z</time>
      </trkpt>
      <trkpt lat="45.85873" lon="6.45127">
        <ele>2198.7</ele>
        <time>2024-04-27T08:19:03Z</time>
      </trkpt>
      <trkpt lat="45.85872" lon="6.45126">
        <ele>2197.6</ele>
        <time>2024-04-27T08:19:04Z</time>
      </trkpt>
      <trkpt lat="45.8587" lon="6.45124">
        <ele>2197.6</ele>
        <time>2024-04-27T08:19:05Z</time>
      </trkpt>
      <trkpt lat="45.85868" lon="6.45122">
        <ele>2196.7</ele>
        <time>2024-04-27T08:19:06Z</time>
      </trkpt>
      <trkpt lat="45.85865" lon="6.4512">
        <ele>2196.7</ele>
        <time>2024-04-27T08:19:07Z</time>
      </trkpt>
      <trkpt lat="45.85862" lon="6.45117">
        <ele>2196.7</ele>
        <time>2024-04-27T08:19:08Z</time>
      </trkpt>
      <trkpt lat="45.8586" lon="6.45115">
        <ele>2196.7</ele>
        <time>2024-04-27T08:19:09Z</time>
      </trkpt>
      <trkpt lat="45.85857" lon="6.45113">
        <ele>2194.6</ele>
        <time>2024-04-27T08:19:10Z</time>
      </trkpt>
      <trkpt lat="45.85854" lon="6.4511">
        <ele>2194.6</ele>
        <time>2024-04-27T08:19:11Z</time>
      </trkpt>
      <trkpt lat="45.85852" lon="6.45109">
        <ele>2193.7</ele>
        <time>2024-04-27T08:19:12Z</time>
      </trkpt>
      <trkpt lat="45.8585" lon="6.45107">
        <ele>2193.7</ele>
        <time>2024-04-27T08:19:13Z</time>
      </trkpt>
      <trkpt lat="45.85847" lon="6.45106">
        <ele>2192.6</ele>
        <time>2024-04-27T08:19:14Z</time>
      </trkpt>
      <trkpt lat="45.85845" lon="6.45104">
        <ele>2192.6</ele>
        <time>2024-04-27T08:19:15Z</time>
      </trkpt>
      <trkpt lat="45.85842" lon="6.45102">
        <ele>2192.6</ele>
        <time>2024-04-27T08:19:16Z</time>
      </trkpt>
      <trkpt lat="45.85841" lon="6.45101">
        <ele>2192.6</ele>
        <time>2024-04-27T08:19:17Z</time>
      </trkpt>
      <trkpt lat="45.8584" lon="6.45101">
        <ele>2192.6</ele>
        <time>2024-04-27T08:19:18Z</time>
      </trkpt>
      <trkpt lat="45.8584" lon="6.451">
        <ele>2192.6</ele>
        <time>2024-04-27T08:19:19Z</time>
      </trkpt>
      <trkpt lat="45.85839" lon="6.45099">
        <ele>2191.7</ele>
        <time>2024-04-27T08:19:20Z</time>
      </trkpt>
      <trkpt lat="45.85838" lon="6.45099">
        <ele>2191.7</ele>
        <time>2024-04-27T08:19:21Z</time>
      </trkpt>
      <trkpt lat="45.85838" lon="6.45099">
        <ele>2191.7</ele>
        <time>2024-04-27T08:19:22Z</time>
      </trkpt>
      <trkpt lat="45.85837" lon="6.45098">
        <ele>2191.7</ele>
        <time>2024-04-27T08:19:23Z</time>
      </trkpt>
      <trkpt lat="45.85836" lon="6.45097">
        <ele>2191.7</ele>
        <time>2024-04-27T08:19:24Z</time>
      </trkpt>
      <trkpt lat="45.85834" lon="6.45096">
        <ele>2191.7</ele>
        <time>2024-04-27T08:19:25Z</time>
      </trkpt>
      <trkpt lat="45.85832" lon="6.45095">
        <ele>2190.6</ele>
        <time>2024-04-27T08:19:26Z</time>
      </trkpt>
      <trkpt lat="45.8583" lon="6.45092">
        <ele>2190.6</ele>
        <time>2024-04-27T08:19:27Z</time>
      </trkpt>
      <trkpt lat="45.85828" lon="6.4509">
        <ele>2189.7</ele>
        <time>2024-04-27T08:19:28Z</time>
      </trkpt>
      <trkpt lat="45.85825" lon="6.45087">
        <ele>2189.7</ele>
        <time>2024-04-27T08:19:29Z</time>
      </trkpt>
      <trkpt lat="45.85822" lon="6.45085">
        <ele>2189.7</ele>
        <time>2024-04-27T08:19:30Z</time>
      </trkpt>
      <trkpt lat="45.8582" lon="6.45082">
        <ele>2189.7</ele>
        <time>2024-04-27T08:19:31Z</time>
      </trkpt>
      <trkpt lat="45.85818" lon="6.4508">
        <ele>2189.7</ele>
        <time>2024-04-27T08:19:32Z</time>
      </trkpt>
      <trkpt lat="45.85815" lon="6.45079">
        <ele>2189.7</ele>
        <time>2024-04-27T08:19:33Z</time>
      </trkpt>
      <trkpt lat="45.85813" lon="6.45077">
        <ele>2186.7</ele>
        <time>2024-04-27T08:19:34Z</time>
      </trkpt>
      <trkpt lat="45.85812" lon="6.45076">
        <ele>2186.7</ele>
        <time>2024-04-27T08:19:35Z</time>
      </trkpt>
      <trkpt lat="45.85811" lon="6.45077">
        <ele>2185.6</ele>
        <time>2024-04-27T08:19:36Z</time>
      </trkpt>
      <trkpt lat="45.8581" lon="6.45076">
        <ele>2185.6</ele>
        <time>2024-04-27T08:19:37Z</time>
      </trkpt>
      <trkpt lat="45.8581" lon="6.45075">
        <ele>2184.7</ele>
        <time>2024-04-27T08:19:38Z</time>
      </trkpt>
      <trkpt lat="45.85808" lon="6.45074">
        <ele>2184.7</ele>
        <time>2024-04-27T08:19:39Z</time>
      </trkpt>
      <trkpt lat="45.85806" lon="6.45073">
        <ele>2184.7</ele>
        <time>2024-04-27T08:19:40Z</time>
      </trkpt>
      <trkpt lat="45.85804" lon="6.45072">
        <ele>2184.7</ele>
        <time>2024-04-27T08:19:41Z</time>
      </trkpt>
      <trkpt lat="45.85801" lon="6.45071">
        <ele>2184.7</ele>
        <time>2024-04-27T08:19:42Z</time>
      </trkpt>
      <trkpt lat="45.85798" lon="6.45071">
        <ele>2184.7</ele>
        <time>2024-04-27T08:19:43Z</time>
      </trkpt>
      <trkpt lat="45.85795" lon="6.4507">
        <ele>2180.7</ele>
        <time>2024-04-27T08:19:44Z</time>
      </trkpt>
      <trkpt lat="45.85792" lon="6.45069">
        <ele>2180.7</ele>
        <time>2024-04-27T08:19:45Z</time>
      </trkpt>
      <trkpt lat="45.8579" lon="6.45068">
        <ele>2179.7</ele>
        <time>2024-04-27T08:19:46Z</time>
      </trkpt>
      <trkpt lat="45.85787" lon="6.45067">
        <ele>2179.7</ele>
        <time>2024-04-27T08:19:47Z</time>
      </trkpt>
      <trkpt lat="45.85783" lon="6.45066">
        <ele>2179.7</ele>
        <time>2024-04-27T08:19:48Z</time>
      </trkpt>
      <trkpt lat="45.8578" lon="6.45065">
        <ele>2179.7</ele>
        <time>2024-04-27T08:19:49Z</time>
      </trkpt>
      <trkpt lat="45.85777" lon="6.45063">
        <ele>2179.7</ele>
        <time>2024-04-27T08:19:50Z</time>
      </trkpt>
      <trkpt lat="45.85774" lon="6.45061">
        <ele>2179.7</ele>
        <time>2024-04-27T08:19:51Z</time>
      </trkpt>
      <trkpt lat="45.8577" lon="6.45058">
        <ele>2177.7</ele>
        <time>2024-04-27T08:19:52Z</time>
      </trkpt>
      <trkpt lat="45.85766" lon="6.45056">
        <ele>2177.7</ele>
        <time>2024-04-27T08:19:53Z</time>
      </trkpt>
      <trkpt lat="45.85763" lon="6.45054">
        <ele>2176.6</ele>
        <time>2024-04-27T08:19:54Z</time>
      </trkpt>
      <trkpt lat="45.8576" lon="6.45053">
        <ele>2176.6</ele>
        <time>2024-04-27T08:19:55Z</time>
      </trkpt>
      <trkpt lat="45.85756" lon="6.45051">
        <ele>2176.6</ele>
        <time>2024-04-27T08:19:56Z</time>
      </trkpt>
      <trkpt lat="45.85753" lon="6.45049">
        <ele>2176.6</ele>
        <time>2024-04-27T08:19:57Z</time>
      </trkpt>
      <trkpt lat="45.8575" lon="6.45048">
        <ele>2175.7</ele>
        <time>2024-04-27T08:19:58Z</time>
      </trkpt>
      <trkpt lat="45.85748" lon="6.45046">
        <ele>2175.7</ele>
        <time>2024-04-27T08:19:59Z</time>
      </trkpt>
      <trkpt lat="45.85747" lon="6.45045">
        <ele>2175.7</ele>
        <time>2024-04-27T08:20:00Z</time>
      </trkpt>
      <trkpt lat="45.85746" lon="6.45044">
        <ele>2175.7</ele>
        <time>2024-04-27T08:20:01Z</time>
      </trkpt>
      <trkpt lat="45.85745" lon="6.45043">
        <ele>2175.7</ele>
        <time>2024-04-27T08:20:02Z</time>
      </trkpt>
      <trkpt lat="45.85744" lon="6.45042">
        <ele>2175.7</ele>
        <time>2024-04-27T08:20:03Z</time>
      </trkpt>
      <trkpt lat="45.85742" lon="6.45039">
        <ele>2174.6</ele>
        <time>2024-04-27T08:20:04Z</time>
      </trkpt>
      <trkpt lat="45.85741" lon="6.45038">
        <ele>2174.6</ele>
        <time>2024-04-27T08:20:05Z</time>
      </trkpt>
      <trkpt lat="45.8574" lon="6.45036">
        <ele>2174.6</ele>
        <time>2024-04-27T08:20:06Z</time>
      </trkpt>
      <trkpt lat="45.85739" lon="6.45034">
        <ele>2174.6</ele>
        <time>2024-04-27T08:20:07Z</time>
      </trkpt>
      <trkpt lat="45.85738" lon="6.45033">
        <ele>2174.6</ele>
        <time>2024-04-27T08:20:08Z</time>
      </trkpt>
      <trkpt lat="45.85737" lon="6.45032">
        <ele>2174.6</ele>
        <time>2024-04-27T08:20:09Z</time>
      </trkpt>
      <trkpt lat="45.85737" lon="6.45032">
        <ele>2174.6</ele>
        <time>2024-04-27T08:20:10Z</time>
      </trkpt>
      <trkpt lat="45.85737" lon="6.45032">
        <ele>2174.6</ele>
        <time>2024-04-27T08:20:11Z</time>
      </trkpt>
      <trkpt lat="45.85736" lon="6.45031">
        <ele>2174.6</ele>
        <time>2024-04-27T08:20:12Z</time>
      </trkpt>
      <trkpt lat="45.85735" lon="6.45031">
        <ele>2174.6</ele>
        <time>2024-04-27T08:20:13Z</time>
      </trkpt>
      <trkpt lat="45.85736" lon="6.45031">
        <ele>2174.6</ele>
        <time>2024-04-27T08:20:14Z</time>
      </trkpt>
      <trkpt lat="45.85736" lon="6.4503">
        <ele>2174.6</ele>
        <time>2024-04-27T08:20:15Z</time>
      </trkpt>
      <trkpt lat="45.85736" lon="6.4503">
        <ele>2174.6</ele>
        <time>2024-04-27T08:20:16Z</time>
      </trkpt>
      <trkpt lat="45.85735" lon="6.45029">
        <ele>2174.6</ele>
        <time>2024-04-27T08:20:17Z</time>
      </trkpt>
      <trkpt lat="45.85734" lon="6.45028">
        <ele>2174.6</ele>
        <time>2024-04-27T08:20:18Z</time>
      </trkpt>
      <trkpt lat="45.85733" lon="6.45027">
        <ele>2174.6</ele>
        <time>2024-04-27T08:20:19Z</time>
      </trkpt>
      <trkpt lat="45.85732" lon="6.45026">
        <ele>2174.6</ele>
        <time>2024-04-27T08:20:20Z</time>
      </trkpt>
      <trkpt lat="45.85732" lon="6.45026">
        <ele>2174.6</ele>
        <time>2024-04-27T08:20:21Z</time>
      </trkpt>
      <trkpt lat="45.85732" lon="6.45026">
        <ele>2174.6</ele>
        <time>2024-04-27T08:20:22Z</time>
      </trkpt>
      <trkpt lat="45.85732" lon="6.45026">
        <ele>2174.6</ele>
        <time>2024-04-27T08:20:23Z</time>
      </trkpt>
      <trkpt lat="45.85733" lon="6.45026">
        <ele>2174.6</ele>
        <time>2024-04-27T08:20:24Z</time>
      </trkpt>
      <trkpt lat="45.85734" lon="6.45026">
        <ele>2174.6</ele>
        <time>2024-04-27T08:20:25Z</time>
      </trkpt>
      <trkpt lat="45.85734" lon="6.45026">
        <ele>2174.6</ele>
        <time>2024-04-27T08:20:26Z</time>
      </trkpt>
      <trkpt lat="45.85735" lon="6.45026">
        <ele>2174.6</ele>
        <time>2024-04-27T08:20:27Z</time>
      </trkpt>
      <trkpt lat="45.85735" lon="6.45027">
        <ele>2174.6</ele>
        <time>2024-04-27T08:20:28Z</time>
      </trkpt>
      <trkpt lat="45.85735" lon="6.45027">
        <ele>2174.6</ele>
        <time>2024-04-27T08:20:29Z</time>
      </trkpt>
      <trkpt lat="45.85734" lon="6.45027">
        <ele>2174.6</ele>
        <time>2024-04-27T08:20:30Z</time>
      </trkpt>
      <trkpt lat="45.85734" lon="6.45027">
        <ele>2174.6</ele>
        <time>2024-04-27T08:20:31Z</time>
      </trkpt>
      <trkpt lat="45.85734" lon="6.45027">
        <ele>2175.7</ele>
        <time>2024-04-27T08:20:32Z</time>
      </trkpt>
      <trkpt lat="45.85734" lon="6.45027">
        <ele>2175.7</ele>
        <time>2024-04-27T08:20:33Z</time>
      </trkpt>
      <trkpt lat="45.85734" lon="6.45027">
        <ele>2175.7</ele>
        <time>2024-04-27T08:20:34Z</time>
      </trkpt>
      <trkpt lat="45.85734" lon="6.45027">
        <ele>2175.7</ele>
        <time>2024-04-27T08:20:35Z</time>
      </trkpt>
      <trkpt lat="45.85734" lon="6.45027">
        <ele>2175.7</ele>
        <time>2024-04-27T08:20:36Z</time>
      </trkpt>
      <trkpt lat="45.85734" lon="6.45027">
        <ele>2175.7</ele>
        <time>2024-04-27T08:20:37Z</time>
      </trkpt>
      <trkpt lat="45.85734" lon="6.45027">
        <ele>2175.7</ele>
        <time>2024-04-27T08:20:38Z</time>
      </trkpt>
      <trkpt lat="45.85734" lon="6.45027">
        <ele>2175.7</ele>
        <time>2024-04-27T08:20:39Z</time>
      </trkpt>
      <trkpt lat="45.85734" lon="6.45027">
        <ele>2176.6</ele>
        <time>2024-04-27T08:20:40Z</time>
      </trkpt>
      <trkpt lat="45.85734" lon="6.45027">
        <ele>2176.6</ele>
        <time>2024-04-27T08:20:41Z</time>
      </trkpt>
      <trkpt lat="45.85734" lon="6.45027">
        <ele>2176.6</ele>
        <time>2024-04-27T08:20:42Z</time>
      </trkpt>
      <trkpt lat="45.85734" lon="6.45027">
        <ele>2176.6</ele>
        <time>2024-04-27T08:20:43Z</time>
      </trkpt>
      <trkpt lat="45.85734" lon="6.45027">
        <ele>2176.6</ele>
        <time>2024-04-27T08:20:44Z</time>
      </trkpt>
      <trkpt lat="45.85734" lon="6.45026">
        <ele>2176.6</ele>
        <time>2024-04-27T08:20:45Z</time>
      </trkpt>
      <trkpt lat="45.85735" lon="6.45026">
        <ele>2176.6</ele>
        <time>2024-04-27T08:20:46Z</time>
      </trkpt>
      <trkpt lat="45.85735" lon="6.45026">
        <ele>2176.6</ele>
        <time>2024-04-27T08:20:47Z</time>
      </trkpt>
      <trkpt lat="45.85735" lon="6.45026">
        <ele>2176.6</ele>
        <time>2024-04-27T08:20:48Z</time>
      </trkpt>
      <trkpt lat="45.85735" lon="6.45026">
        <ele>2176.6</ele>
        <time>2024-04-27T08:20:49Z</time>
      </trkpt>
      <trkpt lat="45.85735" lon="6.45026">
        <ele>2174.6</ele>
        <time>2024-04-27T08:20:50Z</time>
      </trkpt>
      <trkpt lat="45.85735" lon="6.45026">
        <ele>2174.6</ele>
        <time>2024-04-27T08:20:51Z</time>
      </trkpt>
      <trkpt lat="45.85735" lon="6.45026">
        <ele>2174.6</ele>
        <time>2024-04-27T08:20:52Z</time>
      </trkpt>
      <trkpt lat="45.85735" lon="6.45026">
        <ele>2174.6</ele>
        <time>2024-04-27T08:20:53Z</time>
      </trkpt>
      <trkpt lat="45.85735" lon="6.45026">
        <ele>2174.6</ele>
        <time>2024-04-27T08:20:54Z</time>
      </trkpt>
      <trkpt lat="45.85735" lon="6.45026">
        <ele>2174.6</ele>
        <time>2024-04-27T08:20:55Z</time>
      </trkpt>
      <trkpt lat="45.85735" lon="6.45026">
        <ele>2174.6</ele>
        <time>2024-04-27T08:20:56Z</time>
      </trkpt>
      <trkpt lat="45.85736" lon="6.45025">
        <ele>2174.6</ele>
        <time>2024-04-27T08:20:57Z</time>
      </trkpt>
      <trkpt lat="45.85736" lon="6.45025">
        <ele>2174.6</ele>
        <time>2024-04-27T08:20:58Z</time>
      </trkpt>
      <trkpt lat="45.85736" lon="6.45025">
        <ele>2174.6</ele>
        <time>2024-04-27T08:20:59Z</time>
      </trkpt>
      <trkpt lat="45.85736" lon="6.45025">
        <ele>2174.6</ele>
        <time>2024-04-27T08:21:00Z</time>
      </trkpt>
      <trkpt lat="45.85736" lon="6.45025">
        <ele>2174.6</ele>
        <time>2024-04-27T08:21:01Z</time>
      </trkpt>
      <trkpt lat="45.85736" lon="6.45025">
        <ele>2174.6</ele>
        <time>2024-04-27T08:21:02Z</time>
      </trkpt>
      <trkpt lat="45.85736" lon="6.45025">
        <ele>2174.6</ele>
        <time>2024-04-27T08:21:03Z</time>
      </trkpt>
      <trkpt lat="45.85736" lon="6.45025">
        <ele>2174.6</ele>
        <time>2024-04-27T08:21:04Z</time>
      </trkpt>
      <trkpt lat="45.85736" lon="6.45025">
        <ele>2174.6</ele>
        <time>2024-04-27T08:21:05Z</time>
      </trkpt>
      <trkpt lat="45.85736" lon="6.45025">
        <ele>2174.6</ele>
        <time>2024-04-27T08:21:06Z</time>
      </trkpt>
      <trkpt lat="45.85736" lon="6.45025">
        <ele>2174.6</ele>
        <time>2024-04-27T08:21:07Z</time>
      </trkpt>
      <trkpt lat="45.85736" lon="6.45025">
        <ele>2174.6</ele>
        <time>2024-04-27T08:21:08Z</time>
      </trkpt>
      <trkpt lat="45.85736" lon="6.45025">
        <ele>2174.6</ele>
        <time>2024-04-27T08:21:09Z</time>
      </trkpt>
      <trkpt lat="45.85736" lon="6.45025">
        <ele>2174.6</ele>
        <time>2024-04-27T08:21:10Z</time>
      </trkpt>
      <trkpt lat="45.85736" lon="6.45025">
        <ele>2174.6</ele>
        <time>2024-04-27T08:21:11Z</time>
      </trkpt>
      <trkpt lat="45.85736" lon="6.45025">
        <ele>2174.6</ele>
        <time>2024-04-27T08:21:12Z</time>
      </trkpt>
      <trkpt lat="45.85736" lon="6.45025">
        <ele>2174.6</ele>
        <time>2024-04-27T08:21:13Z</time>
      </trkpt>
      <trkpt lat="45.85736" lon="6.45026">
        <ele>2174.6</ele>
        <time>2024-04-27T08:21:14Z</time>
      </trkpt>
      <trkpt lat="45.85736" lon="6.45026">
        <ele>2174.6</ele>
        <time>2024-04-27T08:21:15Z</time>
      </trkpt>
      <trkpt lat="45.85736" lon="6.45027">
        <ele>2174.6</ele>
        <time>2024-04-27T08:21:16Z</time>
      </trkpt>
      <trkpt lat="45.85736" lon="6.45027">
        <ele>2174.6</ele>
        <time>2024-04-27T08:21:17Z</time>
      </trkpt>
      <trkpt lat="45.85736" lon="6.45027">
        <ele>2174.6</ele>
        <time>2024-04-27T08:21:18Z</time>
      </trkpt>
      <trkpt lat="45.85736" lon="6.45027">
        <ele>2174.6</ele>
        <time>2024-04-27T08:21:19Z</time>
      </trkpt>
      <trkpt lat="45.85736" lon="6.45027">
        <ele>2174.6</ele>
        <time>2024-04-27T08:21:20Z</time>
      </trkpt>
      <trkpt lat="45.85736" lon="6.45027">
        <ele>2174.6</ele>
        <time>2024-04-27T08:21:21Z</time>
      </trkpt>
      <trkpt lat="45.85736" lon="6.45027">
        <ele>2174.6</ele>
        <time>2024-04-27T08:21:22Z</time>
      </trkpt>
      <trkpt lat="45.85736" lon="6.45027">
        <ele>2174.6</ele>
        <time>2024-04-27T08:21:23Z</time>
      </trkpt>
      <trkpt lat="45.85735" lon="6.45026">
        <ele>2174.6</ele>
        <time>2024-04-27T08:21:24Z</time>
      </trkpt>
      <trkpt lat="45.85734" lon="6.45025">
        <ele>2174.6</ele>
        <time>2024-04-27T08:21:25Z</time>
      </trkpt>
      <trkpt lat="45.85732" lon="6.45023">
        <ele>2174.6</ele>
        <time>2024-04-27T08:21:26Z</time>
      </trkpt>
      <trkpt lat="45.8573" lon="6.45021">
        <ele>2174.6</ele>
        <time>2024-04-27T08:21:27Z</time>
      </trkpt>
      <trkpt lat="45.85729" lon="6.45019">
        <ele>2174.6</ele>
        <time>2024-04-27T08:21:28Z</time>
      </trkpt>
      <trkpt lat="45.85727" lon="6.45016">
        <ele>2174.6</ele>
        <time>2024-04-27T08:21:29Z</time>
      </trkpt>
      <trkpt lat="45.85725" lon="6.45014">
        <ele>2174.6</ele>
        <time>2024-04-27T08:21:30Z</time>
      </trkpt>
      <trkpt lat="45.85725" lon="6.45013">
        <ele>2174.6</ele>
        <time>2024-04-27T08:21:31Z</time>
      </trkpt>
      <trkpt lat="45.85724" lon="6.45012">
        <ele>2174.6</ele>
        <time>2024-04-27T08:21:32Z</time>
      </trkpt>
      <trkpt lat="45.85724" lon="6.45011">
        <ele>2174.6</ele>
        <time>2024-04-27T08:21:33Z</time>
      </trkpt>
      <trkpt lat="45.85724" lon="6.4501">
        <ele>2174.6</ele>
        <time>2024-04-27T08:21:34Z</time>
      </trkpt>
      <trkpt lat="45.85725" lon="6.45009">
        <ele>2174.6</ele>
        <time>2024-04-27T08:21:35Z</time>
      </trkpt>
      <trkpt lat="45.85725" lon="6.45007">
        <ele>2174.6</ele>
        <time>2024-04-27T08:21:36Z</time>
      </trkpt>
      <trkpt lat="45.85724" lon="6.45005">
        <ele>2174.6</ele>
        <time>2024-04-27T08:21:37Z</time>
      </trkpt>
      <trkpt lat="45.85723" lon="6.45004">
        <ele>2174.6</ele>
        <time>2024-04-27T08:21:38Z</time>
      </trkpt>
      <trkpt lat="45.85722" lon="6.45004">
        <ele>2174.6</ele>
        <time>2024-04-27T08:21:39Z</time>
      </trkpt>
      <trkpt lat="45.85722" lon="6.45003">
        <ele>2174.6</ele>
        <time>2024-04-27T08:21:40Z</time>
      </trkpt>
      <trkpt lat="45.85722" lon="6.45003">
        <ele>2174.6</ele>
        <time>2024-04-27T08:21:41Z</time>
      </trkpt>
      <trkpt lat="45.85722" lon="6.45002">
        <ele>2174.6</ele>
        <time>2024-04-27T08:21:42Z</time>
      </trkpt>
      <trkpt lat="45.85721" lon="6.45001">
        <ele>2174.6</ele>
        <time>2024-04-27T08:21:43Z</time>
      </trkpt>
      <trkpt lat="45.85721" lon="6.45001">
        <ele>2174.6</ele>
        <time>2024-04-27T08:21:44Z</time>
      </trkpt>
      <trkpt lat="45.8572" lon="6.45001">
        <ele>2174.6</ele>
        <time>2024-04-27T08:21:45Z</time>
      </trkpt>
      <trkpt lat="45.8572" lon="6.45001">
        <ele>2174.6</ele>
        <time>2024-04-27T08:21:46Z</time>
      </trkpt>
      <trkpt lat="45.85719" lon="6.45">
        <ele>2174.6</ele>
        <time>2024-04-27T08:21:47Z</time>
      </trkpt>
      <trkpt lat="45.85719" lon="6.44999">
        <ele>2174.6</ele>
        <time>2024-04-27T08:21:48Z</time>
      </trkpt>
      <trkpt lat="45.85718" lon="6.44999">
        <ele>2174.6</ele>
        <time>2024-04-27T08:21:49Z</time>
      </trkpt>
      <trkpt lat="45.85718" lon="6.44998">
        <ele>2174.6</ele>
        <time>2024-04-27T08:21:50Z</time>
      </trkpt>
      <trkpt lat="45.85718" lon="6.44997">
        <ele>2174.6</ele>
        <time>2024-04-27T08:21:51Z</time>
      </trkpt>
      <trkpt lat="45.85718" lon="6.44996">
        <ele>2175.7</ele>
        <time>2024-04-27T08:21:52Z</time>
      </trkpt>
      <trkpt lat="45.85718" lon="6.44995">
        <ele>2175.7</ele>
        <time>2024-04-27T08:21:53Z</time>
      </trkpt>
      <trkpt lat="45.85718" lon="6.44994">
        <ele>2175.7</ele>
        <time>2024-04-27T08:21:54Z</time>
      </trkpt>
      <trkpt lat="45.85718" lon="6.44994">
        <ele>2175.7</ele>
        <time>2024-04-27T08:21:55Z</time>
      </trkpt>
      <trkpt lat="45.85718" lon="6.44993">
        <ele>2175.7</ele>
        <time>2024-04-27T08:21:56Z</time>
      </trkpt>
      <trkpt lat="45.85717" lon="6.44993">
        <ele>2175.7</ele>
        <time>2024-04-27T08:21:57Z</time>
      </trkpt>
      <trkpt lat="45.85717" lon="6.44992">
        <ele>2176.6</ele>
        <time>2024-04-27T08:21:58Z</time>
      </trkpt>
      <trkpt lat="45.85717" lon="6.44992">
        <ele>2176.6</ele>
        <time>2024-04-27T08:21:59Z</time>
      </trkpt>
      <trkpt lat="45.85716" lon="6.44991">
        <ele>2176.6</ele>
        <time>2024-04-27T08:22:00Z</time>
      </trkpt>
      <trkpt lat="45.85716" lon="6.44991">
        <ele>2176.6</ele>
        <time>2024-04-27T08:22:01Z</time>
      </trkpt>
      <trkpt lat="45.85716" lon="6.4499">
        <ele>2176.6</ele>
        <time>2024-04-27T08:22:02Z</time>
      </trkpt>
      <trkpt lat="45.85715" lon="6.44989">
        <ele>2176.6</ele>
        <time>2024-04-27T08:22:03Z</time>
      </trkpt>
      <trkpt lat="45.85715" lon="6.44988">
        <ele>2176.6</ele>
        <time>2024-04-27T08:22:04Z</time>
      </trkpt>
      <trkpt lat="45.85715" lon="6.44988">
        <ele>2176.6</ele>
        <time>2024-04-27T08:22:05Z</time>
      </trkpt>
      <trkpt lat="45.85715" lon="6.44987">
        <ele>2176.6</ele>
        <time>2024-04-27T08:22:06Z</time>
      </trkpt>
      <trkpt lat="45.85715" lon="6.44986">
        <ele>2176.6</ele>
        <time>2024-04-27T08:22:07Z</time>
      </trkpt>
      <trkpt lat="45.85714" lon="6.44986">
        <ele>2177.7</ele>
        <time>2024-04-27T08:22:08Z</time>
      </trkpt>
      <trkpt lat="45.85714" lon="6.44985">
        <ele>2177.7</ele>
        <time>2024-04-27T08:22:09Z</time>
      </trkpt>
      <trkpt lat="45.85714" lon="6.44984">
        <ele>2177.7</ele>
        <time>2024-04-27T08:22:10Z</time>
      </trkpt>
      <trkpt lat="45.85714" lon="6.44983">
        <ele>2177.7</ele>
        <time>2024-04-27T08:22:11Z</time>
      </trkpt>
      <trkpt lat="45.85713" lon="6.44983">
        <ele>2177.7</ele>
        <time>2024-04-27T08:22:12Z</time>
      </trkpt>
      <trkpt lat="45.85713" lon="6.44982">
        <ele>2177.7</ele>
        <time>2024-04-27T08:22:13Z</time>
      </trkpt>
      <trkpt lat="45.85713" lon="6.44982">
        <ele>2177.7</ele>
        <time>2024-04-27T08:22:14Z</time>
      </trkpt>
      <trkpt lat="45.85713" lon="6.44981">
        <ele>2177.7</ele>
        <time>2024-04-27T08:22:15Z</time>
      </trkpt>
      <trkpt lat="45.85713" lon="6.44981">
        <ele>2177.7</ele>
        <time>2024-04-27T08:22:16Z</time>
      </trkpt>
      <trkpt lat="45.85713" lon="6.44979">
        <ele>2177.7</ele>
        <time>2024-04-27T08:22:17Z</time>
      </trkpt>
      <trkpt lat="45.85712" lon="6.44979">
        <ele>2177.7</ele>
        <time>2024-04-27T08:22:18Z</time>
      </trkpt>
      <trkpt lat="45.85712" lon="6.44979">
        <ele>2177.7</ele>
        <time>2024-04-27T08:22:19Z</time>
      </trkpt>
      <trkpt lat="45.85712" lon="6.44979">
        <ele>2177.7</ele>
        <time>2024-04-27T08:22:20Z</time>
      </trkpt>
      <trkpt lat="45.85713" lon="6.44978">
        <ele>2177.7</ele>
        <time>2024-04-27T08:22:21Z</time>
      </trkpt>
      <trkpt lat="45.85713" lon="6.44977">
        <ele>2177.7</ele>
        <time>2024-04-27T08:22:22Z</time>
      </trkpt>
      <trkpt lat="45.85713" lon="6.44976">
        <ele>2177.7</ele>
        <time>2024-04-27T08:22:23Z</time>
      </trkpt>
      <trkpt lat="45.85712" lon="6.44975">
        <ele>2177.7</ele>
        <time>2024-04-27T08:22:24Z</time>
      </trkpt>
      <trkpt lat="45.85712" lon="6.44975">
        <ele>2177.7</ele>
        <time>2024-04-27T08:22:25Z</time>
      </trkpt>
      <trkpt lat="45.85712" lon="6.44974">
        <ele>2177.7</ele>
        <time>2024-04-27T08:22:26Z</time>
      </trkpt>
      <trkpt lat="45.85712" lon="6.44973">
        <ele>2177.7</ele>
        <time>2024-04-27T08:22:27Z</time>
      </trkpt>
      <trkpt lat="45.85712" lon="6.44972">
        <ele>2177.7</ele>
        <time>2024-04-27T08:22:28Z</time>
      </trkpt>
      <trkpt lat="45.85711" lon="6.44972">
        <ele>2177.7</ele>
        <time>2024-04-27T08:22:29Z</time>
      </trkpt>
      <trkpt lat="45.85712" lon="6.44971">
        <ele>2177.7</ele>
        <time>2024-04-27T08:22:30Z</time>
      </trkpt>
      <trkpt lat="45.85712" lon="6.4497">
        <ele>2177.7</ele>
        <time>2024-04-27T08:22:31Z</time>
      </trkpt>
      <trkpt lat="45.85711" lon="6.44969">
        <ele>2178.6</ele>
        <time>2024-04-27T08:22:32Z</time>
      </trkpt>
      <trkpt lat="45.85711" lon="6.44968">
        <ele>2178.6</ele>
        <time>2024-04-27T08:22:33Z</time>
      </trkpt>
      <trkpt lat="45.85711" lon="6.44967">
        <ele>2178.6</ele>
        <time>2024-04-27T08:22:34Z</time>
      </trkpt>
      <trkpt lat="45.85711" lon="6.44967">
        <ele>2178.6</ele>
        <time>2024-04-27T08:22:35Z</time>
      </trkpt>
      <trkpt lat="45.8571" lon="6.44966">
        <ele>2178.6</ele>
        <time>2024-04-27T08:22:36Z</time>
      </trkpt>
      <trkpt lat="45.8571" lon="6.44965">
        <ele>2178.6</ele>
        <time>2024-04-27T08:22:37Z</time>
      </trkpt>
      <trkpt lat="45.8571" lon="6.44964">
        <ele>2178.6</ele>
        <time>2024-04-27T08:22:38Z</time>
      </trkpt>
      <trkpt lat="45.8571" lon="6.44964">
        <ele>2178.6</ele>
        <time>2024-04-27T08:22:39Z</time>
      </trkpt>
      <trkpt lat="45.85709" lon="6.44963">
        <ele>2178.6</ele>
        <time>2024-04-27T08:22:40Z</time>
      </trkpt>
      <trkpt lat="45.85709" lon="6.44963">
        <ele>2178.6</ele>
        <time>2024-04-27T08:22:41Z</time>
      </trkpt>
      <trkpt lat="45.85709" lon="6.44962">
        <ele>2178.6</ele>
        <time>2024-04-27T08:22:42Z</time>
      </trkpt>
      <trkpt lat="45.85709" lon="6.44961">
        <ele>2178.6</ele>
        <time>2024-04-27T08:22:43Z</time>
      </trkpt>
      <trkpt lat="45.85708" lon="6.44961">
        <ele>2181.6</ele>
        <time>2024-04-27T08:22:44Z</time>
      </trkpt>
      <trkpt lat="45.85708" lon="6.44961">
        <ele>2181.6</ele>
        <time>2024-04-27T08:22:45Z</time>
      </trkpt>
      <trkpt lat="45.85708" lon="6.44962">
        <ele>2181.6</ele>
        <time>2024-04-27T08:22:46Z</time>
      </trkpt>
      <trkpt lat="45.85708" lon="6.44962">
        <ele>2181.6</ele>
        <time>2024-04-27T08:22:47Z</time>
      </trkpt>
      <trkpt lat="45.85709" lon="6.44962">
        <ele>2182.7</ele>
        <time>2024-04-27T08:22:48Z</time>
      </trkpt>
      <trkpt lat="45.85709" lon="6.44962">
        <ele>2182.7</ele>
        <time>2024-04-27T08:22:49Z</time>
      </trkpt>
      <trkpt lat="45.85709" lon="6.44962">
        <ele>2182.7</ele>
        <time>2024-04-27T08:22:50Z</time>
      </trkpt>
      <trkpt lat="45.8571" lon="6.44962">
        <ele>2182.7</ele>
        <time>2024-04-27T08:22:51Z</time>
      </trkpt>
      <trkpt lat="45.8571" lon="6.44962">
        <ele>2181.6</ele>
        <time>2024-04-27T08:22:52Z</time>
      </trkpt>
      <trkpt lat="45.85711" lon="6.44961">
        <ele>2181.6</ele>
        <time>2024-04-27T08:22:53Z</time>
      </trkpt>
      <trkpt lat="45.85711" lon="6.44961">
        <ele>2181.6</ele>
        <time>2024-04-27T08:22:54Z</time>
      </trkpt>
      <trkpt lat="45.85711" lon="6.44961">
        <ele>2181.6</ele>
        <time>2024-04-27T08:22:55Z</time>
      </trkpt>
      <trkpt lat="45.85711" lon="6.44961">
        <ele>2180.7</ele>
        <time>2024-04-27T08:22:56Z</time>
      </trkpt>
      <trkpt lat="45.85712" lon="6.44961">
        <ele>2180.7</ele>
        <time>2024-04-27T08:22:57Z</time>
      </trkpt>
      <trkpt lat="45.85712" lon="6.44961">
        <ele>2180.7</ele>
        <time>2024-04-27T08:22:58Z</time>
      </trkpt>
      <trkpt lat="45.85713" lon="6.44961">
        <ele>2180.7</ele>
        <time>2024-04-27T08:22:59Z</time>
      </trkpt>
      <trkpt lat="45.85713" lon="6.44962">
        <ele>2180.7</ele>
        <time>2024-04-27T08:23:00Z</time>
      </trkpt>
      <trkpt lat="45.85713" lon="6.44962">
        <ele>2180.7</ele>
        <time>2024-04-27T08:23:01Z</time>
      </trkpt>
      <trkpt lat="45.85714" lon="6.44962">
        <ele>2181.6</ele>
        <time>2024-04-27T08:23:02Z</time>
      </trkpt>
      <trkpt lat="45.85714" lon="6.44962">
        <ele>2181.6</ele>
        <time>2024-04-27T08:23:03Z</time>
      </trkpt>
      <trkpt lat="45.85714" lon="6.44962">
        <ele>2182.7</ele>
        <time>2024-04-27T08:23:04Z</time>
      </trkpt>
      <trkpt lat="45.85714" lon="6.44962">
        <ele>2182.7</ele>
        <time>2024-04-27T08:23:05Z</time>
      </trkpt>
      <trkpt lat="45.85714" lon="6.44962">
        <ele>2182.7</ele>
        <time>2024-04-27T08:23:06Z</time>
      </trkpt>
      <trkpt lat="45.85714" lon="6.44962">
        <ele>2182.7</ele>
        <time>2024-04-27T08:23:07Z</time>
      </trkpt>
      <trkpt lat="45.85714" lon="6.44962">
        <ele>2183.6</ele>
        <time>2024-04-27T08:23:08Z</time>
      </trkpt>
      <trkpt lat="45.85714" lon="6.44962">
        <ele>2183.6</ele>
        <time>2024-04-27T08:23:09Z</time>
      </trkpt>
      <trkpt lat="45.85714" lon="6.44962">
        <ele>2183.6</ele>
        <time>2024-04-27T08:23:10Z</time>
      </trkpt>
      <trkpt lat="45.85714" lon="6.44962">
        <ele>2183.6</ele>
        <time>2024-04-27T08:23:11Z</time>
      </trkpt>
      <trkpt lat="45.85714" lon="6.44962">
        <ele>2183.6</ele>
        <time>2024-04-27T08:23:12Z</time>
      </trkpt>
      <trkpt lat="45.85714" lon="6.44962">
        <ele>2183.6</ele>
        <time>2024-04-27T08:23:13Z</time>
      </trkpt>
      <trkpt lat="45.85714" lon="6.44962">
        <ele>2183.6</ele>
        <time>2024-04-27T08:23:14Z</time>
      </trkpt>
      <trkpt lat="45.85714" lon="6.44962">
        <ele>2183.6</ele>
        <time>2024-04-27T08:23:15Z</time>
      </trkpt>
      <trkpt lat="45.85714" lon="6.44962">
        <ele>2183.6</ele>
        <time>2024-04-27T08:23:16Z</time>
      </trkpt>
      <trkpt lat="45.85713" lon="6.44962">
        <ele>2183.6</ele>
        <time>2024-04-27T08:23:17Z</time>
      </trkpt>
      <trkpt lat="45.85713" lon="6.44962">
        <ele>2183.6</ele>
        <time>2024-04-27T08:23:18Z</time>
      </trkpt>
      <trkpt lat="45.85713" lon="6.44962">
        <ele>2183.6</ele>
        <time>2024-04-27T08:23:19Z</time>
      </trkpt>
      <trkpt lat="45.85713" lon="6.44962">
        <ele>2182.7</ele>
        <time>2024-04-27T08:23:20Z</time>
      </trkpt>
      <trkpt lat="45.85713" lon="6.44962">
        <ele>2182.7</ele>
        <time>2024-04-27T08:23:21Z</time>
      </trkpt>
      <trkpt lat="45.85713" lon="6.44962">
        <ele>2182.7</ele>
        <time>2024-04-27T08:23:22Z</time>
      </trkpt>
      <trkpt lat="45.85713" lon="6.44962">
        <ele>2182.7</ele>
        <time>2024-04-27T08:23:23Z</time>
      </trkpt>
      <trkpt lat="45.85713" lon="6.44962">
        <ele>2182.7</ele>
        <time>2024-04-27T08:23:24Z</time>
      </trkpt>
      <trkpt lat="45.85713" lon="6.44962">
        <ele>2182.7</ele>
        <time>2024-04-27T08:23:25Z</time>
      </trkpt>
      <trkpt lat="45.85713" lon="6.44962">
        <ele>2181.6</ele>
        <time>2024-04-27T08:23:26Z</time>
      </trkpt>
      <trkpt lat="45.85713" lon="6.44962">
        <ele>2181.6</ele>
        <time>2024-04-27T08:23:27Z</time>
      </trkpt>
      <trkpt lat="45.85713" lon="6.44962">
        <ele>2181.6</ele>
        <time>2024-04-27T08:23:28Z</time>
      </trkpt>
      <trkpt lat="45.85713" lon="6.44962">
        <ele>2181.6</ele>
        <time>2024-04-27T08:23:29Z</time>
      </trkpt>
      <trkpt lat="45.85712" lon="6.44963">
        <ele>2181.6</ele>
        <time>2024-04-27T08:23:30Z</time>
      </trkpt>
      <trkpt lat="45.85712" lon="6.44963">
        <ele>2181.6</ele>
        <time>2024-04-27T08:23:31Z</time>
      </trkpt>
      <trkpt lat="45.85712" lon="6.44963">
        <ele>2181.6</ele>
        <time>2024-04-27T08:23:32Z</time>
      </trkpt>
      <trkpt lat="45.85712" lon="6.44963">
        <ele>2181.6</ele>
        <time>2024-04-27T08:23:33Z</time>
      </trkpt>
      <trkpt lat="45.85712" lon="6.44963">
        <ele>2181.6</ele>
        <time>2024-04-27T08:23:34Z</time>
      </trkpt>
      <trkpt lat="45.85712" lon="6.44963">
        <ele>2181.6</ele>
        <time>2024-04-27T08:23:35Z</time>
      </trkpt>
      <trkpt lat="45.85712" lon="6.44963">
        <ele>2181.6</ele>
        <time>2024-04-27T08:23:36Z</time>
      </trkpt>
      <trkpt lat="45.85712" lon="6.44963">
        <ele>2181.6</ele>
        <time>2024-04-27T08:23:37Z</time>
      </trkpt>
      <trkpt lat="45.85712" lon="6.44963">
        <ele>2181.6</ele>
        <time>2024-04-27T08:23:38Z</time>
      </trkpt>
      <trkpt lat="45.85712" lon="6.44963">
        <ele>2181.6</ele>
        <time>2024-04-27T08:23:39Z</time>
      </trkpt>
      <trkpt lat="45.85712" lon="6.44963">
        <ele>2181.6</ele>
        <time>2024-04-27T08:23:40Z</time>
      </trkpt>
      <trkpt lat="45.85712" lon="6.44963">
        <ele>2181.6</ele>
        <time>2024-04-27T08:23:41Z</time>
      </trkpt>
      <trkpt lat="45.85712" lon="6.44963">
        <ele>2181.6</ele>
        <time>2024-04-27T08:23:42Z</time>
      </trkpt>
      <trkpt lat="45.85712" lon="6.44963">
        <ele>2181.6</ele>
        <time>2024-04-27T08:23:43Z</time>
      </trkpt>
      <trkpt lat="45.85712" lon="6.44963">
        <ele>2180.7</ele>
        <time>2024-04-27T08:23:44Z</time>
      </trkpt>
      <trkpt lat="45.85712" lon="6.44963">
        <ele>2180.7</ele>
        <time>2024-04-27T08:23:45Z</time>
      </trkpt>
      <trkpt lat="45.85712" lon="6.44964">
        <ele>2180.7</ele>
        <time>2024-04-27T08:23:46Z</time>
      </trkpt>
      <trkpt lat="45.85711" lon="6.44965">
        <ele>2180.7</ele>
        <time>2024-04-27T08:23:47Z</time>
      </trkpt>
      <trkpt lat="45.85709" lon="6.44966">
        <ele>2179.7</ele>
        <time>2024-04-27T08:23:48Z</time>
      </trkpt>
      <trkpt lat="45.85708" lon="6.44967">
        <ele>2179.7</ele>
        <time>2024-04-27T08:23:49Z</time>
      </trkpt>
      <trkpt lat="45.85706" lon="6.44969">
        <ele>2178.6</ele>
        <time>2024-04-27T08:23:50Z</time>
      </trkpt>
      <trkpt lat="45.85703" lon="6.44971">
        <ele>2178.6</ele>
        <time>2024-04-27T08:23:51Z</time>
      </trkpt>
      <trkpt lat="45.857" lon="6.44973">
        <ele>2177.7</ele>
        <time>2024-04-27T08:23:52Z</time>
      </trkpt>
      <trkpt lat="45.85696" lon="6.44975">
        <ele>2177.7</ele>
        <time>2024-04-27T08:23:53Z</time>
      </trkpt>
      <trkpt lat="45.85692" lon="6.44977">
        <ele>2177.7</ele>
        <time>2024-04-27T08:23:54Z</time>
      </trkpt>
      <trkpt lat="45.85686" lon="6.44977">
        <ele>2177.7</ele>
        <time>2024-04-27T08:23:55Z</time>
      </trkpt>
      <trkpt lat="45.85681" lon="6.44977">
        <ele>2177.7</ele>
        <time>2024-04-27T08:23:56Z</time>
      </trkpt>
      <trkpt lat="45.85675" lon="6.44975">
        <ele>2177.7</ele>
        <time>2024-04-27T08:23:57Z</time>
      </trkpt>
      <trkpt lat="45.85668" lon="6.44972">
        <ele>2170.7</ele>
        <time>2024-04-27T08:23:58Z</time>
      </trkpt>
      <trkpt lat="45.85662" lon="6.44968">
        <ele>2170.7</ele>
        <time>2024-04-27T08:23:59Z</time>
      </trkpt>
      <trkpt lat="45.85655" lon="6.44963">
        <ele>2170.7</ele>
        <time>2024-04-27T08:24:00Z</time>
      </trkpt>
      <trkpt lat="45.8565" lon="6.44957">
        <ele>2169.6</ele>
        <time>2024-04-27T08:24:01Z</time>
      </trkpt>
      <trkpt lat="45.85645" lon="6.44952">
        <ele>2169.6</ele>
        <time>2024-04-27T08:24:02Z</time>
      </trkpt>
      <trkpt lat="45.85641" lon="6.44948">
        <ele>2168.7</ele>
        <time>2024-04-27T08:24:03Z</time>
      </trkpt>
      <trkpt lat="45.85637" lon="6.44944">
        <ele>2168.7</ele>
        <time>2024-04-27T08:24:04Z</time>
      </trkpt>
      <trkpt lat="45.85633" lon="6.44941">
        <ele>2167.6</ele>
        <time>2024-04-27T08:24:05Z</time>
      </trkpt>
      <trkpt lat="45.85629" lon="6.44937">
        <ele>2167.6</ele>
        <time>2024-04-27T08:24:06Z</time>
      </trkpt>
      <trkpt lat="45.85625" lon="6.44934">
        <ele>2167.6</ele>
        <time>2024-04-27T08:24:07Z</time>
      </trkpt>
      <trkpt lat="45.85621" lon="6.44932">
        <ele>2167.6</ele>
        <time>2024-04-27T08:24:08Z</time>
      </trkpt>
      <trkpt lat="45.85618" lon="6.44933">
        <ele>2167.6</ele>
        <time>2024-04-27T08:24:09Z</time>
      </trkpt>
      <trkpt lat="45.85615" lon="6.44933">
        <ele>2167.6</ele>
        <time>2024-04-27T08:24:10Z</time>
      </trkpt>
      <trkpt lat="45.85614" lon="6.44935">
        <ele>2167.6</ele>
        <time>2024-04-27T08:24:11Z</time>
      </trkpt>
      <trkpt lat="45.85612" lon="6.44936">
        <ele>2167.6</ele>
        <time>2024-04-27T08:24:12Z</time>
      </trkpt>
      <trkpt lat="45.8561" lon="6.44937">
        <ele>2167.6</ele>
        <time>2024-04-27T08:24:13Z</time>
      </trkpt>
      <trkpt lat="45.85607" lon="6.44938">
        <ele>2167.6</ele>
        <time>2024-04-27T08:24:14Z</time>
      </trkpt>
      <trkpt lat="45.85604" lon="6.44939">
        <ele>2167.6</ele>
        <time>2024-04-27T08:24:15Z</time>
      </trkpt>
      <trkpt lat="45.85601" lon="6.44939">
        <ele>2167.6</ele>
        <time>2024-04-27T08:24:16Z</time>
      </trkpt>
      <trkpt lat="45.85598" lon="6.44938">
        <ele>2165.6</ele>
        <time>2024-04-27T08:24:17Z</time>
      </trkpt>
      <trkpt lat="45.85597" lon="6.44936">
        <ele>2165.6</ele>
        <time>2024-04-27T08:24:18Z</time>
      </trkpt>
      <trkpt lat="45.85595" lon="6.44934">
        <ele>2163.6</ele>
        <time>2024-04-27T08:24:19Z</time>
      </trkpt>
      <trkpt lat="45.85594" lon="6.44932">
        <ele>2163.6</ele>
        <time>2024-04-27T08:24:20Z</time>
      </trkpt>
      <trkpt lat="45.85591" lon="6.44928">
        <ele>2162.6</ele>
        <time>2024-04-27T08:24:21Z</time>
      </trkpt>
      <trkpt lat="45.85588" lon="6.44925">
        <ele>2162.6</ele>
        <time>2024-04-27T08:24:22Z</time>
      </trkpt>
      <trkpt lat="45.85585" lon="6.44921">
        <ele>2161.7</ele>
        <time>2024-04-27T08:24:23Z</time>
      </trkpt>
      <trkpt lat="45.8558" lon="6.44916">
        <ele>2161.7</ele>
        <time>2024-04-27T08:24:24Z</time>
      </trkpt>
      <trkpt lat="45.85575" lon="6.44911">
        <ele>2159.7</ele>
        <time>2024-04-27T08:24:25Z</time>
      </trkpt>
      <trkpt lat="45.85569" lon="6.44906">
        <ele>2159.7</ele>
        <time>2024-04-27T08:24:26Z</time>
      </trkpt>
      <trkpt lat="45.85563" lon="6.44901">
        <ele>2157.7</ele>
        <time>2024-04-27T08:24:27Z</time>
      </trkpt>
      <trkpt lat="45.85558" lon="6.44897">
        <ele>2157.7</ele>
        <time>2024-04-27T08:24:28Z</time>
      </trkpt>
      <trkpt lat="45.85553" lon="6.44894">
        <ele>2156.6</ele>
        <time>2024-04-27T08:24:29Z</time>
      </trkpt>
      <trkpt lat="45.85549" lon="6.44893">
        <ele>2156.6</ele>
        <time>2024-04-27T08:24:30Z</time>
      </trkpt>
      <trkpt lat="45.85545" lon="6.44891">
        <ele>2156.6</ele>
        <time>2024-04-27T08:24:31Z</time>
      </trkpt>
      <trkpt lat="45.85542" lon="6.44889">
        <ele>2156.6</ele>
        <time>2024-04-27T08:24:32Z</time>
      </trkpt>
      <trkpt lat="45.85541" lon="6.44886">
        <ele>2154.7</ele>
        <time>2024-04-27T08:24:33Z</time>
      </trkpt>
      <trkpt lat="45.85542" lon="6.44882">
        <ele>2154.7</ele>
        <time>2024-04-27T08:24:34Z</time>
      </trkpt>
      <trkpt lat="45.85545" lon="6.4488">
        <ele>2152.7</ele>
        <time>2024-04-27T08:24:35Z</time>
      </trkpt>
      <trkpt lat="45.85548" lon="6.44878">
        <ele>2152.7</ele>
        <time>2024-04-27T08:24:36Z</time>
      </trkpt>
      <trkpt lat="45.8555" lon="6.44874">
        <ele>2151.6</ele>
        <time>2024-04-27T08:24:37Z</time>
      </trkpt>
      <trkpt lat="45.8555" lon="6.4487">
        <ele>2151.6</ele>
        <time>2024-04-27T08:24:38Z</time>
      </trkpt>
      <trkpt lat="45.85548" lon="6.44866">
        <ele>2148.7</ele>
        <time>2024-04-27T08:24:39Z</time>
      </trkpt>
      <trkpt lat="45.85545" lon="6.44861">
        <ele>2148.7</ele>
        <time>2024-04-27T08:24:40Z</time>
      </trkpt>
      <trkpt lat="45.85541" lon="6.44857">
        <ele>2146.6</ele>
        <time>2024-04-27T08:24:41Z</time>
      </trkpt>
      <trkpt lat="45.85536" lon="6.44854">
        <ele>2146.6</ele>
        <time>2024-04-27T08:24:42Z</time>
      </trkpt>
      <trkpt lat="45.85532" lon="6.44851">
        <ele>2146.6</ele>
        <time>2024-04-27T08:24:43Z</time>
      </trkpt>
      <trkpt lat="45.8553" lon="6.44849">
        <ele>2146.6</ele>
        <time>2024-04-27T08:24:44Z</time>
      </trkpt>
      <trkpt lat="45.85528" lon="6.44846">
        <ele>2146.6</ele>
        <time>2024-04-27T08:24:45Z</time>
      </trkpt>
      <trkpt lat="45.85527" lon="6.44843">
        <ele>2146.6</ele>
        <time>2024-04-27T08:24:46Z</time>
      </trkpt>
      <trkpt lat="45.85527" lon="6.44839">
        <ele>2144.6</ele>
        <time>2024-04-27T08:24:47Z</time>
      </trkpt>
      <trkpt lat="45.8553" lon="6.44837">
        <ele>2144.6</ele>
        <time>2024-04-27T08:24:48Z</time>
      </trkpt>
      <trkpt lat="45.85534" lon="6.44836">
        <ele>2142.6</ele>
        <time>2024-04-27T08:24:49Z</time>
      </trkpt>
      <trkpt lat="45.85538" lon="6.44835">
        <ele>2142.6</ele>
        <time>2024-04-27T08:24:50Z</time>
      </trkpt>
      <trkpt lat="45.85538" lon="6.4483">
        <ele>2140.6</ele>
        <time>2024-04-27T08:24:51Z</time>
      </trkpt>
      <trkpt lat="45.85537" lon="6.44827">
        <ele>2140.6</ele>
        <time>2024-04-27T08:24:52Z</time>
      </trkpt>
      <trkpt lat="45.85535" lon="6.44825">
        <ele>2137.6</ele>
        <time>2024-04-27T08:24:53Z</time>
      </trkpt>
      <trkpt lat="45.85533" lon="6.44822">
        <ele>2137.6</ele>
        <time>2024-04-27T08:24:54Z</time>
      </trkpt>
      <trkpt lat="45.85532" lon="6.44819">
        <ele>2135.6</ele>
        <time>2024-04-27T08:24:55Z</time>
      </trkpt>
      <trkpt lat="45.8553" lon="6.44817">
        <ele>2135.6</ele>
        <time>2024-04-27T08:24:56Z</time>
      </trkpt>
      <trkpt lat="45.85528" lon="6.44816">
        <ele>2134.7</ele>
        <time>2024-04-27T08:24:57Z</time>
      </trkpt>
      <trkpt lat="45.85526" lon="6.44814">
        <ele>2134.7</ele>
        <time>2024-04-27T08:24:58Z</time>
      </trkpt>
      <trkpt lat="45.85524" lon="6.44813">
        <ele>2134.7</ele>
        <time>2024-04-27T08:24:59Z</time>
      </trkpt>
      <trkpt lat="45.85522" lon="6.4481">
        <ele>2134.7</ele>
        <time>2024-04-27T08:25:00Z</time>
      </trkpt>
      <trkpt lat="45.85522" lon="6.44806">
        <ele>2134.7</ele>
        <time>2024-04-27T08:25:01Z</time>
      </trkpt>
      <trkpt lat="45.85522" lon="6.44802">
        <ele>2134.7</ele>
        <time>2024-04-27T08:25:02Z</time>
      </trkpt>
      <trkpt lat="45.85521" lon="6.44798">
        <ele>2125.7</ele>
        <time>2024-04-27T08:25:03Z</time>
      </trkpt>
      <trkpt lat="45.85519" lon="6.44794">
        <ele>2125.7</ele>
        <time>2024-04-27T08:25:04Z</time>
      </trkpt>
      <trkpt lat="45.85516" lon="6.44791">
        <ele>2121.6</ele>
        <time>2024-04-27T08:25:05Z</time>
      </trkpt>
      <trkpt lat="45.85514" lon="6.44787">
        <ele>2121.6</ele>
        <time>2024-04-27T08:25:06Z</time>
      </trkpt>
      <trkpt lat="45.85514" lon="6.44782">
        <ele>2117.6</ele>
        <time>2024-04-27T08:25:07Z</time>
      </trkpt>
      <trkpt lat="45.85513" lon="6.44779">
        <ele>2117.6</ele>
        <time>2024-04-27T08:25:08Z</time>
      </trkpt>
      <trkpt lat="45.85513" lon="6.44773">
        <ele>2113.7</ele>
        <time>2024-04-27T08:25:09Z</time>
      </trkpt>
      <trkpt lat="45.85511" lon="6.44768">
        <ele>2113.7</ele>
        <time>2024-04-27T08:25:10Z</time>
      </trkpt>
      <trkpt lat="45.85507" lon="6.44764">
        <ele>2110.6</ele>
        <time>2024-04-27T08:25:11Z</time>
      </trkpt>
      <trkpt lat="45.85502" lon="6.44761">
        <ele>2110.6</ele>
        <time>2024-04-27T08:25:12Z</time>
      </trkpt>
      <trkpt lat="45.85499" lon="6.44757">
        <ele>2106.7</ele>
        <time>2024-04-27T08:25:13Z</time>
      </trkpt>
      <trkpt lat="45.85497" lon="6.44752">
        <ele>2106.7</ele>
        <time>2024-04-27T08:25:14Z</time>
      </trkpt>
      <trkpt lat="45.85495" lon="6.44746">
        <ele>2106.7</ele>
        <time>2024-04-27T08:25:15Z</time>
      </trkpt>
      <trkpt lat="45.85494" lon="6.44742">
        <ele>2106.7</ele>
        <time>2024-04-27T08:25:16Z</time>
      </trkpt>
      <trkpt lat="45.85492" lon="6.44739">
        <ele>2099.6</ele>
        <time>2024-04-27T08:25:17Z</time>
      </trkpt>
      <trkpt lat="45.85491" lon="6.44738">
        <ele>2099.6</ele>
        <time>2024-04-27T08:25:18Z</time>
      </trkpt>
      <trkpt lat="45.8549" lon="6.44737">
        <ele>2098.6</ele>
        <time>2024-04-27T08:25:19Z</time>
      </trkpt>
      <trkpt lat="45.85489" lon="6.44737">
        <ele>2098.6</ele>
        <time>2024-04-27T08:25:20Z</time>
      </trkpt>
      <trkpt lat="45.85489" lon="6.44738">
        <ele>2097.7</ele>
        <time>2024-04-27T08:25:21Z</time>
      </trkpt>
      <trkpt lat="45.85489" lon="6.44738">
        <ele>2097.7</ele>
        <time>2024-04-27T08:25:22Z</time>
      </trkpt>
      <trkpt lat="45.8549" lon="6.44739">
        <ele>2096.6</ele>
        <time>2024-04-27T08:25:23Z</time>
      </trkpt>
      <trkpt lat="45.8549" lon="6.44739">
        <ele>2096.6</ele>
        <time>2024-04-27T08:25:24Z</time>
      </trkpt>
      <trkpt lat="45.85491" lon="6.44739">
        <ele>2095.7</ele>
        <time>2024-04-27T08:25:25Z</time>
      </trkpt>
      <trkpt lat="45.85491" lon="6.44739">
        <ele>2095.7</ele>
        <time>2024-04-27T08:25:26Z</time>
      </trkpt>
      <trkpt lat="45.85491" lon="6.44739">
        <ele>2094.6</ele>
        <time>2024-04-27T08:25:27Z</time>
      </trkpt>
      <trkpt lat="45.85491" lon="6.44739">
        <ele>2094.6</ele>
        <time>2024-04-27T08:25:28Z</time>
      </trkpt>
      <trkpt lat="45.85491" lon="6.44739">
        <ele>2095.7</ele>
        <time>2024-04-27T08:25:29Z</time>
      </trkpt>
      <trkpt lat="45.85491" lon="6.44739">
        <ele>2095.7</ele>
        <time>2024-04-27T08:25:30Z</time>
      </trkpt>
      <trkpt lat="45.85491" lon="6.44739">
        <ele>2096.6</ele>
        <time>2024-04-27T08:25:31Z</time>
      </trkpt>
      <trkpt lat="45.85491" lon="6.44739">
        <ele>2096.6</ele>
        <time>2024-04-27T08:25:32Z</time>
      </trkpt>
      <trkpt lat="45.85491" lon="6.44739">
        <ele>2097.7</ele>
        <time>2024-04-27T08:25:33Z</time>
      </trkpt>
      <trkpt lat="45.85491" lon="6.44739">
        <ele>2097.7</ele>
        <time>2024-04-27T08:25:34Z</time>
      </trkpt>
      <trkpt lat="45.85491" lon="6.44739">
        <ele>2097.7</ele>
        <time>2024-04-27T08:25:35Z</time>
      </trkpt>
      <trkpt lat="45.85491" lon="6.44739">
        <ele>2097.7</ele>
        <time>2024-04-27T08:25:36Z</time>
      </trkpt>
      <trkpt lat="45.85491" lon="6.44739">
        <ele>2097.7</ele>
        <time>2024-04-27T08:25:37Z</time>
      </trkpt>
      <trkpt lat="45.85491" lon="6.44739">
        <ele>2097.7</ele>
        <time>2024-04-27T08:25:38Z</time>
      </trkpt>
      <trkpt lat="45.85491" lon="6.44739">
        <ele>2097.7</ele>
        <time>2024-04-27T08:25:39Z</time>
      </trkpt>
      <trkpt lat="45.85491" lon="6.44739">
        <ele>2097.7</ele>
        <time>2024-04-27T08:25:40Z</time>
      </trkpt>
      <trkpt lat="45.85491" lon="6.44739">
        <ele>2097.7</ele>
        <time>2024-04-27T08:25:41Z</time>
      </trkpt>
      <trkpt lat="45.85491" lon="6.44739">
        <ele>2097.7</ele>
        <time>2024-04-27T08:25:42Z</time>
      </trkpt>
      <trkpt lat="45.85491" lon="6.44739">
        <ele>2098.6</ele>
        <time>2024-04-27T08:25:43Z</time>
      </trkpt>
      <trkpt lat="45.85491" lon="6.44739">
        <ele>2098.6</ele>
        <time>2024-04-27T08:25:44Z</time>
      </trkpt>
      <trkpt lat="45.85491" lon="6.44739">
        <ele>2098.6</ele>
        <time>2024-04-27T08:25:45Z</time>
      </trkpt>
      <trkpt lat="45.85491" lon="6.44739">
        <ele>2098.6</ele>
        <time>2024-04-27T08:25:46Z</time>
      </trkpt>
      <trkpt lat="45.85491" lon="6.4474">
        <ele>2098.6</ele>
        <time>2024-04-27T08:25:47Z</time>
      </trkpt>
      <trkpt lat="45.85492" lon="6.4474">
        <ele>2098.6</ele>
        <time>2024-04-27T08:25:48Z</time>
      </trkpt>
      <trkpt lat="45.85492" lon="6.4474">
        <ele>2098.6</ele>
        <time>2024-04-27T08:25:49Z</time>
      </trkpt>
      <trkpt lat="45.85492" lon="6.4474">
        <ele>2098.6</ele>
        <time>2024-04-27T08:25:50Z</time>
      </trkpt>
      <trkpt lat="45.85492" lon="6.4474">
        <ele>2098.6</ele>
        <time>2024-04-27T08:25:51Z</time>
      </trkpt>
      <trkpt lat="45.85492" lon="6.4474">
        <ele>2098.6</ele>
        <time>2024-04-27T08:25:52Z</time>
      </trkpt>
      <trkpt lat="45.85492" lon="6.4474">
        <ele>2097.7</ele>
        <time>2024-04-27T08:25:53Z</time>
      </trkpt>
      <trkpt lat="45.85493" lon="6.44741">
        <ele>2097.7</ele>
        <time>2024-04-27T08:25:54Z</time>
      </trkpt>
      <trkpt lat="45.85493" lon="6.44741">
        <ele>2097.7</ele>
        <time>2024-04-27T08:25:55Z</time>
      </trkpt>
      <trkpt lat="45.85493" lon="6.44741">
        <ele>2097.7</ele>
        <time>2024-04-27T08:25:56Z</time>
      </trkpt>
      <trkpt lat="45.85493" lon="6.44741">
        <ele>2097.7</ele>
        <time>2024-04-27T08:25:57Z</time>
      </trkpt>
      <trkpt lat="45.85493" lon="6.44741">
        <ele>2097.7</ele>
        <time>2024-04-27T08:25:58Z</time>
      </trkpt>
      <trkpt lat="45.85493" lon="6.44741">
        <ele>2097.7</ele>
        <time>2024-04-27T08:25:59Z</time>
      </trkpt>
      <trkpt lat="45.85493" lon="6.44741">
        <ele>2097.7</ele>
        <time>2024-04-27T08:26:00Z</time>
      </trkpt>
      <trkpt lat="45.85493" lon="6.44741">
        <ele>2097.7</ele>
        <time>2024-04-27T08:26:01Z</time>
      </trkpt>
      <trkpt lat="45.85493" lon="6.44742">
        <ele>2097.7</ele>
        <time>2024-04-27T08:26:02Z</time>
      </trkpt>
      <trkpt lat="45.85493" lon="6.44742">
        <ele>2097.7</ele>
        <time>2024-04-27T08:26:03Z</time>
      </trkpt>
      <trkpt lat="45.85491" lon="6.44743">
        <ele>2097.7</ele>
        <time>2024-04-27T08:26:04Z</time>
      </trkpt>
      <trkpt lat="45.85489" lon="6.44745">
        <ele>2097.7</ele>
        <time>2024-04-27T08:26:05Z</time>
      </trkpt>
      <trkpt lat="45.85487" lon="6.44746">
        <ele>2097.7</ele>
        <time>2024-04-27T08:26:06Z</time>
      </trkpt>
      <trkpt lat="45.85484" lon="6.44747">
        <ele>2097.7</ele>
        <time>2024-04-27T08:26:07Z</time>
      </trkpt>
      <trkpt lat="45.8548" lon="6.44747">
        <ele>2097.7</ele>
        <time>2024-04-27T08:26:08Z</time>
      </trkpt>
      <trkpt lat="45.85476" lon="6.44745">
        <ele>2095.7</ele>
        <time>2024-04-27T08:26:09Z</time>
      </trkpt>
      <trkpt lat="45.85472" lon="6.44742">
        <ele>2095.7</ele>
        <time>2024-04-27T08:26:10Z</time>
      </trkpt>
      <trkpt lat="45.85468" lon="6.44739">
        <ele>2094.6</ele>
        <time>2024-04-27T08:26:11Z</time>
      </trkpt>
      <trkpt lat="45.85465" lon="6.44735">
        <ele>2094.6</ele>
        <time>2024-04-27T08:26:12Z</time>
      </trkpt>
      <trkpt lat="45.85461" lon="6.44729">
        <ele>2093.7</ele>
        <time>2024-04-27T08:26:13Z</time>
      </trkpt>
      <trkpt lat="45.85458" lon="6.44724">
        <ele>2093.7</ele>
        <time>2024-04-27T08:26:14Z</time>
      </trkpt>
      <trkpt lat="45.85455" lon="6.44719">
        <ele>2093.7</ele>
        <time>2024-04-27T08:26:15Z</time>
      </trkpt>
      <trkpt lat="45.85453" lon="6.44716">
        <ele>2093.7</ele>
        <time>2024-04-27T08:26:16Z</time>
      </trkpt>
      <trkpt lat="45.85451" lon="6.44713">
        <ele>2092.6</ele>
        <time>2024-04-27T08:26:17Z</time>
      </trkpt>
      <trkpt lat="45.85448" lon="6.44711">
        <ele>2092.6</ele>
        <time>2024-04-27T08:26:18Z</time>
      </trkpt>
      <trkpt lat="45.85447" lon="6.44708">
        <ele>2092.6</ele>
        <time>2024-04-27T08:26:19Z</time>
      </trkpt>
      <trkpt lat="45.85445" lon="6.44706">
        <ele>2092.6</ele>
        <time>2024-04-27T08:26:20Z</time>
      </trkpt>
      <trkpt lat="45.85443" lon="6.44704">
        <ele>2092.6</ele>
        <time>2024-04-27T08:26:21Z</time>
      </trkpt>
      <trkpt lat="45.8544" lon="6.44702">
        <ele>2092.6</ele>
        <time>2024-04-27T08:26:22Z</time>
      </trkpt>
      <trkpt lat="45.85438" lon="6.44702">
        <ele>2092.6</ele>
        <time>2024-04-27T08:26:23Z</time>
      </trkpt>
      <trkpt lat="45.85437" lon="6.44701">
        <ele>2092.6</ele>
        <time>2024-04-27T08:26:24Z</time>
      </trkpt>
      <trkpt lat="45.85435" lon="6.44701">
        <ele>2092.6</ele>
        <time>2024-04-27T08:26:25Z</time>
      </trkpt>
      <trkpt lat="45.85435" lon="6.44701">
        <ele>2092.6</ele>
        <time>2024-04-27T08:26:26Z</time>
      </trkpt>
      <trkpt lat="45.85434" lon="6.44702">
        <ele>2092.6</ele>
        <time>2024-04-27T08:26:27Z</time>
      </trkpt>
      <trkpt lat="45.85433" lon="6.44702">
        <ele>2092.6</ele>
        <time>2024-04-27T08:26:28Z</time>
      </trkpt>
      <trkpt lat="45.85432" lon="6.44703">
        <ele>2092.6</ele>
        <time>2024-04-27T08:26:29Z</time>
      </trkpt>
      <trkpt lat="45.85431" lon="6.44703">
        <ele>2092.6</ele>
        <time>2024-04-27T08:26:30Z</time>
      </trkpt>
      <trkpt lat="45.85429" lon="6.44703">
        <ele>2092.6</ele>
        <time>2024-04-27T08:26:31Z</time>
      </trkpt>
      <trkpt lat="45.85428" lon="6.44704">
        <ele>2092.6</ele>
        <time>2024-04-27T08:26:32Z</time>
      </trkpt>
      <trkpt lat="45.85427" lon="6.44703">
        <ele>2091.7</ele>
        <time>2024-04-27T08:26:33Z</time>
      </trkpt>
      <trkpt lat="45.85425" lon="6.44704">
        <ele>2091.7</ele>
        <time>2024-04-27T08:26:34Z</time>
      </trkpt>
      <trkpt lat="45.85423" lon="6.44704">
        <ele>2091.7</ele>
        <time>2024-04-27T08:26:35Z</time>
      </trkpt>
      <trkpt lat="45.8542" lon="6.44703">
        <ele>2091.7</ele>
        <time>2024-04-27T08:26:36Z</time>
      </trkpt>
      <trkpt lat="45.85415" lon="6.44703">
        <ele>2091.7</ele>
        <time>2024-04-27T08:26:37Z</time>
      </trkpt>
      <trkpt lat="45.8541" lon="6.44702">
        <ele>2091.7</ele>
        <time>2024-04-27T08:26:38Z</time>
      </trkpt>
      <trkpt lat="45.85405" lon="6.44699">
        <ele>2091.7</ele>
        <time>2024-04-27T08:26:39Z</time>
      </trkpt>
      <trkpt lat="45.854" lon="6.44696">
        <ele>2091.7</ele>
        <time>2024-04-27T08:26:40Z</time>
      </trkpt>
      <trkpt lat="45.85398" lon="6.44693">
        <ele>2088.7</ele>
        <time>2024-04-27T08:26:41Z</time>
      </trkpt>
      <trkpt lat="45.85397" lon="6.44692">
        <ele>2088.7</ele>
        <time>2024-04-27T08:26:42Z</time>
      </trkpt>
      <trkpt lat="45.85395" lon="6.4469">
        <ele>2089.6</ele>
        <time>2024-04-27T08:26:43Z</time>
      </trkpt>
      <trkpt lat="45.85395" lon="6.44689">
        <ele>2089.6</ele>
        <time>2024-04-27T08:26:44Z</time>
      </trkpt>
      <trkpt lat="45.85394" lon="6.44688">
        <ele>2089.6</ele>
        <time>2024-04-27T08:26:45Z</time>
      </trkpt>
      <trkpt lat="45.85394" lon="6.44688">
        <ele>2089.6</ele>
        <time>2024-04-27T08:26:46Z</time>
      </trkpt>
      <trkpt lat="45.85394" lon="6.44688">
        <ele>2089.6</ele>
        <time>2024-04-27T08:26:47Z</time>
      </trkpt>
      <trkpt lat="45.85394" lon="6.44688">
        <ele>2089.6</ele>
        <time>2024-04-27T08:26:48Z</time>
      </trkpt>
      <trkpt lat="45.85394" lon="6.44688">
        <ele>2089.6</ele>
        <time>2024-04-27T08:26:49Z</time>
      </trkpt>
      <trkpt lat="45.85393" lon="6.44687">
        <ele>2089.6</ele>
        <time>2024-04-27T08:26:50Z</time>
      </trkpt>
      <trkpt lat="45.85394" lon="6.44687">
        <ele>2088.7</ele>
        <time>2024-04-27T08:26:51Z</time>
      </trkpt>
      <trkpt lat="45.85394" lon="6.44687">
        <ele>2088.7</ele>
        <time>2024-04-27T08:26:52Z</time>
      </trkpt>
      <trkpt lat="45.85394" lon="6.44688">
        <ele>2088.7</ele>
        <time>2024-04-27T08:26:53Z</time>
      </trkpt>
      <trkpt lat="45.85395" lon="6.44687">
        <ele>2088.7</ele>
        <time>2024-04-27T08:26:54Z</time>
      </trkpt>
      <trkpt lat="45.85395" lon="6.44688">
        <ele>2088.7</ele>
        <time>2024-04-27T08:26:55Z</time>
      </trkpt>
      <trkpt lat="45.85396" lon="6.44688">
        <ele>2088.7</ele>
        <time>2024-04-27T08:26:56Z</time>
      </trkpt>
      <trkpt lat="45.85397" lon="6.44689">
        <ele>2088.7</ele>
        <time>2024-04-27T08:26:57Z</time>
      </trkpt>
      <trkpt lat="45.85397" lon="6.44688">
        <ele>2088.7</ele>
        <time>2024-04-27T08:26:58Z</time>
      </trkpt>
      <trkpt lat="45.85396" lon="6.44688">
        <ele>2088.7</ele>
        <time>2024-04-27T08:26:59Z</time>
      </trkpt>
      <trkpt lat="45.85396" lon="6.44687">
        <ele>2088.7</ele>
        <time>2024-04-27T08:27:00Z</time>
      </trkpt>
      <trkpt lat="45.85395" lon="6.44686">
        <ele>2088.7</ele>
        <time>2024-04-27T08:27:01Z</time>
      </trkpt>
      <trkpt lat="45.85395" lon="6.44686">
        <ele>2088.7</ele>
        <time>2024-04-27T08:27:02Z</time>
      </trkpt>
      <trkpt lat="45.85395" lon="6.44685">
        <ele>2088.7</ele>
        <time>2024-04-27T08:27:03Z</time>
      </trkpt>
      <trkpt lat="45.85394" lon="6.44684">
        <ele>2088.7</ele>
        <time>2024-04-27T08:27:04Z</time>
      </trkpt>
      <trkpt lat="45.85393" lon="6.44684">
        <ele>2088.7</ele>
        <time>2024-04-27T08:27:05Z</time>
      </trkpt>
      <trkpt lat="45.85393" lon="6.44684">
        <ele>2088.7</ele>
        <time>2024-04-27T08:27:06Z</time>
      </trkpt>
      <trkpt lat="45.85393" lon="6.44685">
        <ele>2088.7</ele>
        <time>2024-04-27T08:27:07Z</time>
      </trkpt>
      <trkpt lat="45.85393" lon="6.44685">
        <ele>2088.7</ele>
        <time>2024-04-27T08:27:08Z</time>
      </trkpt>
      <trkpt lat="45.85393" lon="6.44684">
        <ele>2088.7</ele>
        <time>2024-04-27T08:27:09Z</time>
      </trkpt>
      <trkpt lat="45.85393" lon="6.44684">
        <ele>2088.7</ele>
        <time>2024-04-27T08:27:10Z</time>
      </trkpt>
      <trkpt lat="45.85393" lon="6.44684">
        <ele>2088.7</ele>
        <time>2024-04-27T08:27:11Z</time>
      </trkpt>
      <trkpt lat="45.85393" lon="6.44685">
        <ele>2088.7</ele>
        <time>2024-04-27T08:27:12Z</time>
      </trkpt>
      <trkpt lat="45.85393" lon="6.44685">
        <ele>2088.7</ele>
        <time>2024-04-27T08:27:13Z</time>
      </trkpt>
      <trkpt lat="45.85393" lon="6.44685">
        <ele>2088.7</ele>
        <time>2024-04-27T08:27:14Z</time>
      </trkpt>
      <trkpt lat="45.85393" lon="6.44685">
        <ele>2088.7</ele>
        <time>2024-04-27T08:27:15Z</time>
      </trkpt>
      <trkpt lat="45.85392" lon="6.44685">
        <ele>2088.7</ele>
        <time>2024-04-27T08:27:16Z</time>
      </trkpt>
      <trkpt lat="45.85392" lon="6.44685">
        <ele>2088.7</ele>
        <time>2024-04-27T08:27:17Z</time>
      </trkpt>
      <trkpt lat="45.85392" lon="6.44685">
        <ele>2088.7</ele>
        <time>2024-04-27T08:27:18Z</time>
      </trkpt>
      <trkpt lat="45.85392" lon="6.44685">
        <ele>2088.7</ele>
        <time>2024-04-27T08:27:19Z</time>
      </trkpt>
      <trkpt lat="45.85392" lon="6.44685">
        <ele>2088.7</ele>
        <time>2024-04-27T08:27:20Z</time>
      </trkpt>
      <trkpt lat="45.85392" lon="6.44685">
        <ele>2088.7</ele>
        <time>2024-04-27T08:27:21Z</time>
      </trkpt>
      <trkpt lat="45.85392" lon="6.44685">
        <ele>2088.7</ele>
        <time>2024-04-27T08:27:22Z</time>
      </trkpt>
      <trkpt lat="45.85392" lon="6.44685">
        <ele>2088.7</ele>
        <time>2024-04-27T08:27:23Z</time>
      </trkpt>
      <trkpt lat="45.85392" lon="6.44685">
        <ele>2088.7</ele>
        <time>2024-04-27T08:27:24Z</time>
      </trkpt>
      <trkpt lat="45.85392" lon="6.44685">
        <ele>2088.7</ele>
        <time>2024-04-27T08:27:25Z</time>
      </trkpt>
      <trkpt lat="45.85392" lon="6.44685">
        <ele>2088.7</ele>
        <time>2024-04-27T08:27:26Z</time>
      </trkpt>
      <trkpt lat="45.85392" lon="6.44685">
        <ele>2088.7</ele>
        <time>2024-04-27T08:27:27Z</time>
      </trkpt>
      <trkpt lat="45.85392" lon="6.44685">
        <ele>2088.7</ele>
        <time>2024-04-27T08:27:28Z</time>
      </trkpt>
      <trkpt lat="45.85392" lon="6.44685">
        <ele>2088.7</ele>
        <time>2024-04-27T08:27:29Z</time>
      </trkpt>
      <trkpt lat="45.85392" lon="6.44685">
        <ele>2088.7</ele>
        <time>2024-04-27T08:27:30Z</time>
      </trkpt>
      <trkpt lat="45.85392" lon="6.44685">
        <ele>2088.7</ele>
        <time>2024-04-27T08:27:31Z</time>
      </trkpt>
      <trkpt lat="45.85392" lon="6.44685">
        <ele>2088.7</ele>
        <time>2024-04-27T08:27:32Z</time>
      </trkpt>
      <trkpt lat="45.85392" lon="6.44685">
        <ele>2088.7</ele>
        <time>2024-04-27T08:27:33Z</time>
      </trkpt>
      <trkpt lat="45.85392" lon="6.44685">
        <ele>2088.7</ele>
        <time>2024-04-27T08:27:34Z</time>
      </trkpt>
      <trkpt lat="45.85392" lon="6.44685">
        <ele>2088.7</ele>
        <time>2024-04-27T08:27:35Z</time>
      </trkpt>
      <trkpt lat="45.85392" lon="6.44685">
        <ele>2088.7</ele>
        <time>2024-04-27T08:27:36Z</time>
      </trkpt>
      <trkpt lat="45.85392" lon="6.44685">
        <ele>2088.7</ele>
        <time>2024-04-27T08:27:37Z</time>
      </trkpt>
      <trkpt lat="45.85392" lon="6.44685">
        <ele>2088.7</ele>
        <time>2024-04-27T08:27:38Z</time>
      </trkpt>
      <trkpt lat="45.85392" lon="6.44685">
        <ele>2088.7</ele>
        <time>2024-04-27T08:27:39Z</time>
      </trkpt>
      <trkpt lat="45.85392" lon="6.44685">
        <ele>2088.7</ele>
        <time>2024-04-27T08:27:40Z</time>
      </trkpt>
      <trkpt lat="45.85392" lon="6.44685">
        <ele>2088.7</ele>
        <time>2024-04-27T08:27:41Z</time>
      </trkpt>
      <trkpt lat="45.85392" lon="6.44685">
        <ele>2088.7</ele>
        <time>2024-04-27T08:27:42Z</time>
      </trkpt>
      <trkpt lat="45.85392" lon="6.44685">
        <ele>2088.7</ele>
        <time>2024-04-27T08:27:43Z</time>
      </trkpt>
      <trkpt lat="45.85392" lon="6.44685">
        <ele>2088.7</ele>
        <time>2024-04-27T08:27:44Z</time>
      </trkpt>
      <trkpt lat="45.85392" lon="6.44685">
        <ele>2088.7</ele>
        <time>2024-04-27T08:27:45Z</time>
      </trkpt>
      <trkpt lat="45.85392" lon="6.44685">
        <ele>2088.7</ele>
        <time>2024-04-27T08:27:46Z</time>
      </trkpt>
      <trkpt lat="45.85393" lon="6.44685">
        <ele>2088.7</ele>
        <time>2024-04-27T08:27:47Z</time>
      </trkpt>
      <trkpt lat="45.85393" lon="6.44685">
        <ele>2088.7</ele>
        <time>2024-04-27T08:27:48Z</time>
      </trkpt>
      <trkpt lat="45.85393" lon="6.44685">
        <ele>2088.7</ele>
        <time>2024-04-27T08:27:49Z</time>
      </trkpt>
      <trkpt lat="45.85393" lon="6.44685">
        <ele>2088.7</ele>
        <time>2024-04-27T08:27:50Z</time>
      </trkpt>
      <trkpt lat="45.85393" lon="6.44685">
        <ele>2088.7</ele>
        <time>2024-04-27T08:27:51Z</time>
      </trkpt>
      <trkpt lat="45.85393" lon="6.44685">
        <ele>2088.7</ele>
        <time>2024-04-27T08:27:52Z</time>
      </trkpt>
      <trkpt lat="45.85393" lon="6.44685">
        <ele>2088.7</ele>
        <time>2024-04-27T08:27:53Z</time>
      </trkpt>
      <trkpt lat="45.85393" lon="6.44685">
        <ele>2088.7</ele>
        <time>2024-04-27T08:27:54Z</time>
      </trkpt>
      <trkpt lat="45.85393" lon="6.44685">
        <ele>2088.7</ele>
        <time>2024-04-27T08:27:55Z</time>
      </trkpt>
      <trkpt lat="45.85393" lon="6.44685">
        <ele>2088.7</ele>
        <time>2024-04-27T08:27:56Z</time>
      </trkpt>
      <trkpt lat="45.85393" lon="6.44685">
        <ele>2088.7</ele>
        <time>2024-04-27T08:27:57Z</time>
      </trkpt>
      <trkpt lat="45.85393" lon="6.44685">
        <ele>2088.7</ele>
        <time>2024-04-27T08:27:58Z</time>
      </trkpt>
      <trkpt lat="45.85393" lon="6.44685">
        <ele>2088.7</ele>
        <time>2024-04-27T08:27:59Z</time>
      </trkpt>
      <trkpt lat="45.85394" lon="6.44685">
        <ele>2088.7</ele>
        <time>2024-04-27T08:28:00Z</time>
      </trkpt>
      <trkpt lat="45.85394" lon="6.44685">
        <ele>2088.7</ele>
        <time>2024-04-27T08:28:01Z</time>
      </trkpt>
      <trkpt lat="45.85394" lon="6.44685">
        <ele>2088.7</ele>
        <time>2024-04-27T08:28:02Z</time>
      </trkpt>
      <trkpt lat="45.85394" lon="6.44685">
        <ele>2088.7</ele>
        <time>2024-04-27T08:28:03Z</time>
      </trkpt>
      <trkpt lat="45.85394" lon="6.44686">
        <ele>2088.7</ele>
        <time>2024-04-27T08:28:04Z</time>
      </trkpt>
      <trkpt lat="45.85394" lon="6.44686">
        <ele>2088.7</ele>
        <time>2024-04-27T08:28:05Z</time>
      </trkpt>
      <trkpt lat="45.85394" lon="6.44686">
        <ele>2088.7</ele>
        <time>2024-04-27T08:28:06Z</time>
      </trkpt>
      <trkpt lat="45.85394" lon="6.44686">
        <ele>2088.7</ele>
        <time>2024-04-27T08:28:07Z</time>
      </trkpt>
      <trkpt lat="45.85394" lon="6.44686">
        <ele>2088.7</ele>
        <time>2024-04-27T08:28:08Z</time>
      </trkpt>
      <trkpt lat="45.85394" lon="6.44686">
        <ele>2088.7</ele>
        <time>2024-04-27T08:28:09Z</time>
      </trkpt>
      <trkpt lat="45.85394" lon="6.44686">
        <ele>2088.7</ele>
        <time>2024-04-27T08:28:10Z</time>
      </trkpt>
      <trkpt lat="45.85394" lon="6.44686">
        <ele>2088.7</ele>
        <time>2024-04-27T08:28:11Z</time>
      </trkpt>
      <trkpt lat="45.85394" lon="6.44686">
        <ele>2088.7</ele>
        <time>2024-04-27T08:28:12Z</time>
      </trkpt>
      <trkpt lat="45.85394" lon="6.44686">
        <ele>2088.7</ele>
        <time>2024-04-27T08:28:13Z</time>
      </trkpt>
      <trkpt lat="45.85394" lon="6.44686">
        <ele>2088.7</ele>
        <time>2024-04-27T08:28:14Z</time>
      </trkpt>
      <trkpt lat="45.85394" lon="6.44686">
        <ele>2088.7</ele>
        <time>2024-04-27T08:28:15Z</time>
      </trkpt>
      <trkpt lat="45.85394" lon="6.44686">
        <ele>2088.7</ele>
        <time>2024-04-27T08:28:16Z</time>
      </trkpt>
      <trkpt lat="45.85394" lon="6.44686">
        <ele>2089.6</ele>
        <time>2024-04-27T08:28:17Z</time>
      </trkpt>
      <trkpt lat="45.85394" lon="6.44686">
        <ele>2089.6</ele>
        <time>2024-04-27T08:28:18Z</time>
      </trkpt>
      <trkpt lat="45.85394" lon="6.44686">
        <ele>2089.6</ele>
        <time>2024-04-27T08:28:19Z</time>
      </trkpt>
      <trkpt lat="45.85394" lon="6.44686">
        <ele>2089.6</ele>
        <time>2024-04-27T08:28:20Z</time>
      </trkpt>
      <trkpt lat="45.85395" lon="6.44686">
        <ele>2089.6</ele>
        <time>2024-04-27T08:28:21Z</time>
      </trkpt>
      <trkpt lat="45.85395" lon="6.44686">
        <ele>2089.6</ele>
        <time>2024-04-27T08:28:22Z</time>
      </trkpt>
      <trkpt lat="45.85395" lon="6.44686">
        <ele>2089.6</ele>
        <time>2024-04-27T08:28:23Z</time>
      </trkpt>
      <trkpt lat="45.85395" lon="6.44686">
        <ele>2089.6</ele>
        <time>2024-04-27T08:28:24Z</time>
      </trkpt>
      <trkpt lat="45.85395" lon="6.44686">
        <ele>2089.6</ele>
        <time>2024-04-27T08:28:25Z</time>
      </trkpt>
      <trkpt lat="45.85395" lon="6.44686">
        <ele>2089.6</ele>
        <time>2024-04-27T08:28:26Z</time>
      </trkpt>
      <trkpt lat="45.85395" lon="6.44686">
        <ele>2088.7</ele>
        <time>2024-04-27T08:28:27Z</time>
      </trkpt>
      <trkpt lat="45.85395" lon="6.44686">
        <ele>2088.7</ele>
        <time>2024-04-27T08:28:28Z</time>
      </trkpt>
      <trkpt lat="45.85395" lon="6.44687">
        <ele>2088.7</ele>
        <time>2024-04-27T08:28:29Z</time>
      </trkpt>
      <trkpt lat="45.85395" lon="6.44687">
        <ele>2088.7</ele>
        <time>2024-04-27T08:28:30Z</time>
      </trkpt>
      <trkpt lat="45.85395" lon="6.44687">
        <ele>2088.7</ele>
        <time>2024-04-27T08:28:31Z</time>
      </trkpt>
      <trkpt lat="45.85395" lon="6.44687">
        <ele>2088.7</ele>
        <time>2024-04-27T08:28:32Z</time>
      </trkpt>
      <trkpt lat="45.85395" lon="6.44687">
        <ele>2088.7</ele>
        <time>2024-04-27T08:28:33Z</time>
      </trkpt>
      <trkpt lat="45.85395" lon="6.44687">
        <ele>2088.7</ele>
        <time>2024-04-27T08:28:34Z</time>
      </trkpt>
      <trkpt lat="45.85395" lon="6.44687">
        <ele>2088.7</ele>
        <time>2024-04-27T08:28:35Z</time>
      </trkpt>
      <trkpt lat="45.85395" lon="6.44687">
        <ele>2088.7</ele>
        <time>2024-04-27T08:28:36Z</time>
      </trkpt>
      <trkpt lat="45.85395" lon="6.44687">
        <ele>2088.7</ele>
        <time>2024-04-27T08:28:37Z</time>
      </trkpt>
      <trkpt lat="45.85395" lon="6.44687">
        <ele>2088.7</ele>
        <time>2024-04-27T08:28:38Z</time>
      </trkpt>
      <trkpt lat="45.85395" lon="6.44687">
        <ele>2088.7</ele>
        <time>2024-04-27T08:28:39Z</time>
      </trkpt>
      <trkpt lat="45.85395" lon="6.44687">
        <ele>2088.7</ele>
        <time>2024-04-27T08:28:40Z</time>
      </trkpt>
      <trkpt lat="45.85395" lon="6.44687">
        <ele>2088.7</ele>
        <time>2024-04-27T08:28:41Z</time>
      </trkpt>
      <trkpt lat="45.85395" lon="6.44687">
        <ele>2088.7</ele>
        <time>2024-04-27T08:28:42Z</time>
      </trkpt>
      <trkpt lat="45.85395" lon="6.44688">
        <ele>2088.7</ele>
        <time>2024-04-27T08:28:43Z</time>
      </trkpt>
      <trkpt lat="45.85395" lon="6.44688">
        <ele>2088.7</ele>
        <time>2024-04-27T08:28:44Z</time>
      </trkpt>
      <trkpt lat="45.85395" lon="6.44688">
        <ele>2088.7</ele>
        <time>2024-04-27T08:28:45Z</time>
      </trkpt>
      <trkpt lat="45.85395" lon="6.44688">
        <ele>2088.7</ele>
        <time>2024-04-27T08:28:46Z</time>
      </trkpt>
      <trkpt lat="45.85395" lon="6.44688">
        <ele>2088.7</ele>
        <time>2024-04-27T08:28:47Z</time>
      </trkpt>
      <trkpt lat="45.85395" lon="6.44688">
        <ele>2088.7</ele>
        <time>2024-04-27T08:28:48Z</time>
      </trkpt>
      <trkpt lat="45.85395" lon="6.44688">
        <ele>2088.7</ele>
        <time>2024-04-27T08:28:49Z</time>
      </trkpt>
      <trkpt lat="45.85395" lon="6.44688">
        <ele>2088.7</ele>
        <time>2024-04-27T08:28:50Z</time>
      </trkpt>
      <trkpt lat="45.85395" lon="6.44688">
        <ele>2088.7</ele>
        <time>2024-04-27T08:28:51Z</time>
      </trkpt>
      <trkpt lat="45.85395" lon="6.44688">
        <ele>2088.7</ele>
        <time>2024-04-27T08:28:52Z</time>
      </trkpt>
      <trkpt lat="45.85395" lon="6.44688">
        <ele>2088.7</ele>
        <time>2024-04-27T08:28:53Z</time>
      </trkpt>
      <trkpt lat="45.85395" lon="6.44688">
        <ele>2088.7</ele>
        <time>2024-04-27T08:28:54Z</time>
      </trkpt>
      <trkpt lat="45.85395" lon="6.44688">
        <ele>2088.7</ele>
        <time>2024-04-27T08:28:55Z</time>
      </trkpt>
      <trkpt lat="45.85395" lon="6.44688">
        <ele>2088.7</ele>
        <time>2024-04-27T08:28:56Z</time>
      </trkpt>
      <trkpt lat="45.85395" lon="6.44688">
        <ele>2088.7</ele>
        <time>2024-04-27T08:28:57Z</time>
      </trkpt>
      <trkpt lat="45.85395" lon="6.44688">
        <ele>2088.7</ele>
        <time>2024-04-27T08:28:58Z</time>
      </trkpt>
      <trkpt lat="45.85395" lon="6.44688">
        <ele>2088.7</ele>
        <time>2024-04-27T08:28:59Z</time>
      </trkpt>
      <trkpt lat="45.85395" lon="6.44688">
        <ele>2088.7</ele>
        <time>2024-04-27T08:29:00Z</time>
      </trkpt>
      <trkpt lat="45.85396" lon="6.44688">
        <ele>2089.6</ele>
        <time>2024-04-27T08:29:01Z</time>
      </trkpt>
      <trkpt lat="45.85396" lon="6.44688">
        <ele>2089.6</ele>
        <time>2024-04-27T08:29:02Z</time>
      </trkpt>
      <trkpt lat="45.85397" lon="6.44688">
        <ele>2089.6</ele>
        <time>2024-04-27T08:29:03Z</time>
      </trkpt>
      <trkpt lat="45.85397" lon="6.44688">
        <ele>2089.6</ele>
        <time>2024-04-27T08:29:04Z</time>
      </trkpt>
      <trkpt lat="45.85397" lon="6.44688">
        <ele>2089.6</ele>
        <time>2024-04-27T08:29:05Z</time>
      </trkpt>
      <trkpt lat="45.85397" lon="6.44689">
        <ele>2089.6</ele>
        <time>2024-04-27T08:29:06Z</time>
      </trkpt>
      <trkpt lat="45.85398" lon="6.44689">
        <ele>2088.7</ele>
        <time>2024-04-27T08:29:07Z</time>
      </trkpt>
      <trkpt lat="45.85398" lon="6.44689">
        <ele>2088.7</ele>
        <time>2024-04-27T08:29:08Z</time>
      </trkpt>
      <trkpt lat="45.85398" lon="6.44689">
        <ele>2088.7</ele>
        <time>2024-04-27T08:29:09Z</time>
      </trkpt>
      <trkpt lat="45.85398" lon="6.44689">
        <ele>2088.7</ele>
        <time>2024-04-27T08:29:10Z</time>
      </trkpt>
      <trkpt lat="45.85398" lon="6.44689">
        <ele>2088.7</ele>
        <time>2024-04-27T08:29:11Z</time>
      </trkpt>
      <trkpt lat="45.85398" lon="6.44689">
        <ele>2088.7</ele>
        <time>2024-04-27T08:29:12Z</time>
      </trkpt>
      <trkpt lat="45.85398" lon="6.44689">
        <ele>2088.7</ele>
        <time>2024-04-27T08:29:13Z</time>
      </trkpt>
      <trkpt lat="45.85398" lon="6.44689">
        <ele>2088.7</ele>
        <time>2024-04-27T08:29:14Z</time>
      </trkpt>
      <trkpt lat="45.85398" lon="6.44689">
        <ele>2089.6</ele>
        <time>2024-04-27T08:29:15Z</time>
      </trkpt>
      <trkpt lat="45.85398" lon="6.44689">
        <ele>2089.6</ele>
        <time>2024-04-27T08:29:16Z</time>
      </trkpt>
      <trkpt lat="45.85398" lon="6.44689">
        <ele>2089.6</ele>
        <time>2024-04-27T08:29:17Z</time>
      </trkpt>
      <trkpt lat="45.85398" lon="6.44689">
        <ele>2089.6</ele>
        <time>2024-04-27T08:29:18Z</time>
      </trkpt>
      <trkpt lat="45.85398" lon="6.44689">
        <ele>2090.6</ele>
        <time>2024-04-27T08:29:19Z</time>
      </trkpt>
      <trkpt lat="45.85398" lon="6.44689">
        <ele>2090.6</ele>
        <time>2024-04-27T08:29:20Z</time>
      </trkpt>
      <trkpt lat="45.85398" lon="6.44689">
        <ele>2090.6</ele>
        <time>2024-04-27T08:29:21Z</time>
      </trkpt>
      <trkpt lat="45.85398" lon="6.44689">
        <ele>2090.6</ele>
        <time>2024-04-27T08:29:22Z</time>
      </trkpt>
      <trkpt lat="45.85398" lon="6.44689">
        <ele>2089.6</ele>
        <time>2024-04-27T08:29:23Z</time>
      </trkpt>
      <trkpt lat="45.85397" lon="6.44688">
        <ele>2089.6</ele>
        <time>2024-04-27T08:29:24Z</time>
      </trkpt>
      <trkpt lat="45.85397" lon="6.44687">
        <ele>2089.6</ele>
        <time>2024-04-27T08:29:25Z</time>
      </trkpt>
      <trkpt lat="45.85397" lon="6.44687">
        <ele>2089.6</ele>
        <time>2024-04-27T08:29:26Z</time>
      </trkpt>
      <trkpt lat="45.85397" lon="6.44686">
        <ele>2089.6</ele>
        <time>2024-04-27T08:29:27Z</time>
      </trkpt>
      <trkpt lat="45.85397" lon="6.44686">
        <ele>2089.6</ele>
        <time>2024-04-27T08:29:28Z</time>
      </trkpt>
      <trkpt lat="45.85397" lon="6.44686">
        <ele>2088.7</ele>
        <time>2024-04-27T08:29:29Z</time>
      </trkpt>
      <trkpt lat="45.85397" lon="6.44686">
        <ele>2088.7</ele>
        <time>2024-04-27T08:29:30Z</time>
      </trkpt>
      <trkpt lat="45.85396" lon="6.44686">
        <ele>2088.7</ele>
        <time>2024-04-27T08:29:31Z</time>
      </trkpt>
      <trkpt lat="45.85396" lon="6.44685">
        <ele>2088.7</ele>
        <time>2024-04-27T08:29:32Z</time>
      </trkpt>
      <trkpt lat="45.85396" lon="6.44685">
        <ele>2088.7</ele>
        <time>2024-04-27T08:29:33Z</time>
      </trkpt>
      <trkpt lat="45.85396" lon="6.44685">
        <ele>2088.7</ele>
        <time>2024-04-27T08:29:34Z</time>
      </trkpt>
      <trkpt lat="45.85396" lon="6.44685">
        <ele>2088.7</ele>
        <time>2024-04-27T08:29:35Z</time>
      </trkpt>
      <trkpt lat="45.85396" lon="6.44685">
        <ele>2088.7</ele>
        <time>2024-04-27T08:29:36Z</time>
      </trkpt>
      <trkpt lat="45.85396" lon="6.44685">
        <ele>2089.6</ele>
        <time>2024-04-27T08:29:37Z</time>
      </trkpt>
      <trkpt lat="45.85395" lon="6.44685">
        <ele>2089.6</ele>
        <time>2024-04-27T08:29:38Z</time>
      </trkpt>
      <trkpt lat="45.85395" lon="6.44685">
        <ele>2089.6</ele>
        <time>2024-04-27T08:29:39Z</time>
      </trkpt>
      <trkpt lat="45.85395" lon="6.44684">
        <ele>2089.6</ele>
        <time>2024-04-27T08:29:40Z</time>
      </trkpt>
      <trkpt lat="45.85395" lon="6.44684">
        <ele>2088.7</ele>
        <time>2024-04-27T08:29:41Z</time>
      </trkpt>
      <trkpt lat="45.85395" lon="6.44684">
        <ele>2088.7</ele>
        <time>2024-04-27T08:29:42Z</time>
      </trkpt>
      <trkpt lat="45.85395" lon="6.44684">
        <ele>2088.7</ele>
        <time>2024-04-27T08:29:43Z</time>
      </trkpt>
      <trkpt lat="45.85395" lon="6.44684">
        <ele>2088.7</ele>
        <time>2024-04-27T08:29:44Z</time>
      </trkpt>
      <trkpt lat="45.85395" lon="6.44683">
        <ele>2088.7</ele>
        <time>2024-04-27T08:29:45Z</time>
      </trkpt>
      <trkpt lat="45.85394" lon="6.44683">
        <ele>2088.7</ele>
        <time>2024-04-27T08:29:46Z</time>
      </trkpt>
      <trkpt lat="45.85394" lon="6.44683">
        <ele>2088.7</ele>
        <time>2024-04-27T08:29:47Z</time>
      </trkpt>
      <trkpt lat="45.85394" lon="6.44683">
        <ele>2088.7</ele>
        <time>2024-04-27T08:29:48Z</time>
      </trkpt>
      <trkpt lat="45.85394" lon="6.44683">
        <ele>2088.7</ele>
        <time>2024-04-27T08:29:49Z</time>
      </trkpt>
      <trkpt lat="45.85394" lon="6.44683">
        <ele>2088.7</ele>
        <time>2024-04-27T08:29:50Z</time>
      </trkpt>
      <trkpt lat="45.85394" lon="6.44683">
        <ele>2088.7</ele>
        <time>2024-04-27T08:29:51Z</time>
      </trkpt>
      <trkpt lat="45.85394" lon="6.44683">
        <ele>2088.7</ele>
        <time>2024-04-27T08:29:52Z</time>
      </trkpt>
      <trkpt lat="45.85394" lon="6.44683">
        <ele>2088.7</ele>
        <time>2024-04-27T08:29:53Z</time>
      </trkpt>
      <trkpt lat="45.85394" lon="6.44683">
        <ele>2088.7</ele>
        <time>2024-04-27T08:29:54Z</time>
      </trkpt>
      <trkpt lat="45.85394" lon="6.44683">
        <ele>2088.7</ele>
        <time>2024-04-27T08:29:55Z</time>
      </trkpt>
      <trkpt lat="45.85394" lon="6.44683">
        <ele>2088.7</ele>
        <time>2024-04-27T08:29:56Z</time>
      </trkpt>
      <trkpt lat="45.85394" lon="6.44683">
        <ele>2088.7</ele>
        <time>2024-04-27T08:29:57Z</time>
      </trkpt>
      <trkpt lat="45.85394" lon="6.44683">
        <ele>2088.7</ele>
        <time>2024-04-27T08:29:58Z</time>
      </trkpt>
      <trkpt lat="45.85394" lon="6.44683">
        <ele>2088.7</ele>
        <time>2024-04-27T08:29:59Z</time>
      </trkpt>
      <trkpt lat="45.85394" lon="6.44683">
        <ele>2088.7</ele>
        <time>2024-04-27T08:30:00Z</time>
      </trkpt>
      <trkpt lat="45.85394" lon="6.44683">
        <ele>2088.7</ele>
        <time>2024-04-27T08:30:01Z</time>
      </trkpt>
      <trkpt lat="45.85394" lon="6.44683">
        <ele>2088.7</ele>
        <time>2024-04-27T08:30:02Z</time>
      </trkpt>
      <trkpt lat="45.85394" lon="6.44683">
        <ele>2088.7</ele>
        <time>2024-04-27T08:30:03Z</time>
      </trkpt>
      <trkpt lat="45.85394" lon="6.44683">
        <ele>2088.7</ele>
        <time>2024-04-27T08:30:04Z</time>
      </trkpt>
      <trkpt lat="45.85394" lon="6.44683">
        <ele>2088.7</ele>
        <time>2024-04-27T08:30:05Z</time>
      </trkpt>
      <trkpt lat="45.85394" lon="6.44683">
        <ele>2088.7</ele>
        <time>2024-04-27T08:30:06Z</time>
      </trkpt>
      <trkpt lat="45.85394" lon="6.44683">
        <ele>2088.7</ele>
        <time>2024-04-27T08:30:07Z</time>
      </trkpt>
      <trkpt lat="45.85394" lon="6.44683">
        <ele>2088.7</ele>
        <time>2024-04-27T08:30:08Z</time>
      </trkpt>
      <trkpt lat="45.85394" lon="6.44683">
        <ele>2088.7</ele>
        <time>2024-04-27T08:30:09Z</time>
      </trkpt>
      <trkpt lat="45.85394" lon="6.44683">
        <ele>2088.7</ele>
        <time>2024-04-27T08:30:10Z</time>
      </trkpt>
      <trkpt lat="45.85394" lon="6.44683">
        <ele>2088.7</ele>
        <time>2024-04-27T08:30:11Z</time>
      </trkpt>
      <trkpt lat="45.85394" lon="6.44683">
        <ele>2088.7</ele>
        <time>2024-04-27T08:30:12Z</time>
      </trkpt>
      <trkpt lat="45.85394" lon="6.44683">
        <ele>2088.7</ele>
        <time>2024-04-27T08:30:13Z</time>
      </trkpt>
      <trkpt lat="45.85394" lon="6.44684">
        <ele>2088.7</ele>
        <time>2024-04-27T08:30:14Z</time>
      </trkpt>
      <trkpt lat="45.85394" lon="6.44684">
        <ele>2088.7</ele>
        <time>2024-04-27T08:30:15Z</time>
      </trkpt>
      <trkpt lat="45.85394" lon="6.44684">
        <ele>2088.7</ele>
        <time>2024-04-27T08:30:16Z</time>
      </trkpt>
      <trkpt lat="45.85394" lon="6.44684">
        <ele>2088.7</ele>
        <time>2024-04-27T08:30:17Z</time>
      </trkpt>
      <trkpt lat="45.85394" lon="6.44684">
        <ele>2088.7</ele>
        <time>2024-04-27T08:30:18Z</time>
      </trkpt>
      <trkpt lat="45.85394" lon="6.44685">
        <ele>2088.7</ele>
        <time>2024-04-27T08:30:19Z</time>
      </trkpt>
      <trkpt lat="45.85394" lon="6.44685">
        <ele>2088.7</ele>
        <time>2024-04-27T08:30:20Z</time>
      </trkpt>
      <trkpt lat="45.85394" lon="6.44685">
        <ele>2088.7</ele>
        <time>2024-04-27T08:30:21Z</time>
      </trkpt>
      <trkpt lat="45.85394" lon="6.44685">
        <ele>2088.7</ele>
        <time>2024-04-27T08:30:22Z</time>
      </trkpt>
      <trkpt lat="45.85394" lon="6.44685">
        <ele>2088.7</ele>
        <time>2024-04-27T08:30:23Z</time>
      </trkpt>
      <trkpt lat="45.85394" lon="6.44685">
        <ele>2088.7</ele>
        <time>2024-04-27T08:30:24Z</time>
      </trkpt>
      <trkpt lat="45.85394" lon="6.44685">
        <ele>2088.7</ele>
        <time>2024-04-27T08:30:25Z</time>
      </trkpt>
      <trkpt lat="45.85394" lon="6.44685">
        <ele>2088.7</ele>
        <time>2024-04-27T08:30:26Z</time>
      </trkpt>
      <trkpt lat="45.85394" lon="6.44685">
        <ele>2088.7</ele>
        <time>2024-04-27T08:30:27Z</time>
      </trkpt>
      <trkpt lat="45.85394" lon="6.44685">
        <ele>2088.7</ele>
        <time>2024-04-27T08:30:28Z</time>
      </trkpt>
      <trkpt lat="45.85394" lon="6.44686">
        <ele>2089.6</ele>
        <time>2024-04-27T08:30:29Z</time>
      </trkpt>
      <trkpt lat="45.85394" lon="6.44686">
        <ele>2089.6</ele>
        <time>2024-04-27T08:30:30Z</time>
      </trkpt>
      <trkpt lat="45.85394" lon="6.44686">
        <ele>2089.6</ele>
        <time>2024-04-27T08:30:31Z</time>
      </trkpt>
      <trkpt lat="45.85394" lon="6.44686">
        <ele>2089.6</ele>
        <time>2024-04-27T08:30:32Z</time>
      </trkpt>
      <trkpt lat="45.85394" lon="6.44686">
        <ele>2089.6</ele>
        <time>2024-04-27T08:30:33Z</time>
      </trkpt>
      <trkpt lat="45.85393" lon="6.44686">
        <ele>2089.6</ele>
        <time>2024-04-27T08:30:34Z</time>
      </trkpt>
      <trkpt lat="45.85393" lon="6.44686">
        <ele>2088.7</ele>
        <time>2024-04-27T08:30:35Z</time>
      </trkpt>
      <trkpt lat="45.85393" lon="6.44686">
        <ele>2088.7</ele>
        <time>2024-04-27T08:30:36Z</time>
      </trkpt>
      <trkpt lat="45.85393" lon="6.44686">
        <ele>2088.7</ele>
        <time>2024-04-27T08:30:37Z</time>
      </trkpt>
      <trkpt lat="45.85393" lon="6.44686">
        <ele>2088.7</ele>
        <time>2024-04-27T08:30:38Z</time>
      </trkpt>
      <trkpt lat="45.85393" lon="6.44686">
        <ele>2088.7</ele>
        <time>2024-04-27T08:30:39Z</time>
      </trkpt>
      <trkpt lat="45.85393" lon="6.44686">
        <ele>2088.7</ele>
        <time>2024-04-27T08:30:40Z</time>
      </trkpt>
      <trkpt lat="45.85393" lon="6.44686">
        <ele>2088.7</ele>
        <time>2024-04-27T08:30:41Z</time>
      </trkpt>
      <trkpt lat="45.85393" lon="6.44686">
        <ele>2088.7</ele>
        <time>2024-04-27T08:30:42Z</time>
      </trkpt>
      <trkpt lat="45.85393" lon="6.44686">
        <ele>2088.7</ele>
        <time>2024-04-27T08:30:43Z</time>
      </trkpt>
      <trkpt lat="45.85393" lon="6.44686">
        <ele>2088.7</ele>
        <time>2024-04-27T08:30:44Z</time>
      </trkpt>
      <trkpt lat="45.85393" lon="6.44686">
        <ele>2088.7</ele>
        <time>2024-04-27T08:30:45Z</time>
      </trkpt>
      <trkpt lat="45.85393" lon="6.44686">
        <ele>2088.7</ele>
        <time>2024-04-27T08:30:46Z</time>
      </trkpt>
      <trkpt lat="45.85393" lon="6.44686">
        <ele>2088.7</ele>
        <time>2024-04-27T08:30:47Z</time>
      </trkpt>
      <trkpt lat="45.85393" lon="6.44686">
        <ele>2088.7</ele>
        <time>2024-04-27T08:30:48Z</time>
      </trkpt>
      <trkpt lat="45.85393" lon="6.44686">
        <ele>2088.7</ele>
        <time>2024-04-27T08:30:49Z</time>
      </trkpt>
      <trkpt lat="45.85393" lon="6.44686">
        <ele>2088.7</ele>
        <time>2024-04-27T08:30:50Z</time>
      </trkpt>
      <trkpt lat="45.85393" lon="6.44686">
        <ele>2088.7</ele>
        <time>2024-04-27T08:30:51Z</time>
      </trkpt>
      <trkpt lat="45.85393" lon="6.44686">
        <ele>2088.7</ele>
        <time>2024-04-27T08:30:52Z</time>
      </trkpt>
      <trkpt lat="45.85393" lon="6.44686">
        <ele>2088.7</ele>
        <time>2024-04-27T08:30:53Z</time>
      </trkpt>
      <trkpt lat="45.85393" lon="6.44686">
        <ele>2088.7</ele>
        <time>2024-04-27T08:30:54Z</time>
      </trkpt>
      <trkpt lat="45.85393" lon="6.44686">
        <ele>2088.7</ele>
        <time>2024-04-27T08:30:55Z</time>
      </trkpt>
      <trkpt lat="45.85394" lon="6.44686">
        <ele>2088.7</ele>
        <time>2024-04-27T08:30:56Z</time>
      </trkpt>
      <trkpt lat="45.85394" lon="6.44686">
        <ele>2088.7</ele>
        <time>2024-04-27T08:30:57Z</time>
      </trkpt>
      <trkpt lat="45.85394" lon="6.44686">
        <ele>2088.7</ele>
        <time>2024-04-27T08:30:58Z</time>
      </trkpt>
      <trkpt lat="45.85394" lon="6.44686">
        <ele>2088.7</ele>
        <time>2024-04-27T08:30:59Z</time>
      </trkpt>
      <trkpt lat="45.85394" lon="6.44686">
        <ele>2088.7</ele>
        <time>2024-04-27T08:31:00Z</time>
      </trkpt>
      <trkpt lat="45.85394" lon="6.44686">
        <ele>2088.7</ele>
        <time>2024-04-27T08:31:01Z</time>
      </trkpt>
      <trkpt lat="45.85394" lon="6.44686">
        <ele>2088.7</ele>
        <time>2024-04-27T08:31:02Z</time>
      </trkpt>
      <trkpt lat="45.85394" lon="6.44686">
        <ele>2088.7</ele>
        <time>2024-04-27T08:31:03Z</time>
      </trkpt>
      <trkpt lat="45.85394" lon="6.44686">
        <ele>2088.7</ele>
        <time>2024-04-27T08:31:04Z</time>
      </trkpt>
      <trkpt lat="45.85394" lon="6.44686">
        <ele>2088.7</ele>
        <time>2024-04-27T08:31:05Z</time>
      </trkpt>
      <trkpt lat="45.85395" lon="6.44686">
        <ele>2088.7</ele>
        <time>2024-04-27T08:31:06Z</time>
      </trkpt>
      <trkpt lat="45.85395" lon="6.44686">
        <ele>2088.7</ele>
        <time>2024-04-27T08:31:07Z</time>
      </trkpt>
      <trkpt lat="45.85395" lon="6.44686">
        <ele>2088.7</ele>
        <time>2024-04-27T08:31:08Z</time>
      </trkpt>
      <trkpt lat="45.85395" lon="6.44686">
        <ele>2088.7</ele>
        <time>2024-04-27T08:31:09Z</time>
      </trkpt>
      <trkpt lat="45.85395" lon="6.44686">
        <ele>2088.7</ele>
        <time>2024-04-27T08:31:10Z</time>
      </trkpt>
      <trkpt lat="45.85396" lon="6.44686">
        <ele>2088.7</ele>
        <time>2024-04-27T08:31:11Z</time>
      </trkpt>
      <trkpt lat="45.85396" lon="6.44686">
        <ele>2088.7</ele>
        <time>2024-04-27T08:31:12Z</time>
      </trkpt>
      <trkpt lat="45.85397" lon="6.44687">
        <ele>2088.7</ele>
        <time>2024-04-27T08:31:13Z</time>
      </trkpt>
      <trkpt lat="45.85398" lon="6.44687">
        <ele>2088.7</ele>
        <time>2024-04-27T08:31:14Z</time>
      </trkpt>
      <trkpt lat="45.85399" lon="6.44687">
        <ele>2088.7</ele>
        <time>2024-04-27T08:31:15Z</time>
      </trkpt>
      <trkpt lat="45.85399" lon="6.44687">
        <ele>2088.7</ele>
        <time>2024-04-27T08:31:16Z</time>
      </trkpt>
      <trkpt lat="45.85399" lon="6.44687">
        <ele>2088.7</ele>
        <time>2024-04-27T08:31:17Z</time>
      </trkpt>
      <trkpt lat="45.854" lon="6.44688">
        <ele>2088.7</ele>
        <time>2024-04-27T08:31:18Z</time>
      </trkpt>
      <trkpt lat="45.85401" lon="6.44688">
        <ele>2088.7</ele>
        <time>2024-04-27T08:31:19Z</time>
      </trkpt>
      <trkpt lat="45.85401" lon="6.44688">
        <ele>2088.7</ele>
        <time>2024-04-27T08:31:20Z</time>
      </trkpt>
      <trkpt lat="45.85401" lon="6.44688">
        <ele>2088.7</ele>
        <time>2024-04-27T08:31:21Z</time>
      </trkpt>
      <trkpt lat="45.854" lon="6.44688">
        <ele>2088.7</ele>
        <time>2024-04-27T08:31:22Z</time>
      </trkpt>
      <trkpt lat="45.85399" lon="6.44689">
        <ele>2088.7</ele>
        <time>2024-04-27T08:31:23Z</time>
      </trkpt>
      <trkpt lat="45.854" lon="6.4469">
        <ele>2088.7</ele>
        <time>2024-04-27T08:31:24Z</time>
      </trkpt>
      <trkpt lat="45.854" lon="6.44691">
        <ele>2088.7</ele>
        <time>2024-04-27T08:31:25Z</time>
      </trkpt>
      <trkpt lat="45.85399" lon="6.4469">
        <ele>2088.7</ele>
        <time>2024-04-27T08:31:26Z</time>
      </trkpt>
      <trkpt lat="45.85399" lon="6.4469">
        <ele>2088.7</ele>
        <time>2024-04-27T08:31:27Z</time>
      </trkpt>
      <trkpt lat="45.85399" lon="6.4469">
        <ele>2088.7</ele>
        <time>2024-04-27T08:31:28Z</time>
      </trkpt>
      <trkpt lat="45.85399" lon="6.4469">
        <ele>2088.7</ele>
        <time>2024-04-27T08:31:29Z</time>
      </trkpt>
      <trkpt lat="45.854" lon="6.4469">
        <ele>2088.7</ele>
        <time>2024-04-27T08:31:30Z</time>
      </trkpt>
      <trkpt lat="45.85401" lon="6.4469">
        <ele>2088.7</ele>
        <time>2024-04-27T08:31:31Z</time>
      </trkpt>
      <trkpt lat="45.85401" lon="6.4469">
        <ele>2088.7</ele>
        <time>2024-04-27T08:31:32Z</time>
      </trkpt>
      <trkpt lat="45.85401" lon="6.4469">
        <ele>2088.7</ele>
        <time>2024-04-27T08:31:33Z</time>
      </trkpt>
      <trkpt lat="45.85401" lon="6.4469">
        <ele>2088.7</ele>
        <time>2024-04-27T08:31:34Z</time>
      </trkpt>
      <trkpt lat="45.85401" lon="6.4469">
        <ele>2088.7</ele>
        <time>2024-04-27T08:31:35Z</time>
      </trkpt>
      <trkpt lat="45.85401" lon="6.4469">
        <ele>2088.7</ele>
        <time>2024-04-27T08:31:36Z</time>
      </trkpt>
      <trkpt lat="45.85401" lon="6.4469">
        <ele>2089.6</ele>
        <time>2024-04-27T08:31:37Z</time>
      </trkpt>
      <trkpt lat="45.85401" lon="6.4469">
        <ele>2089.6</ele>
        <time>2024-04-27T08:31:38Z</time>
      </trkpt>
      <trkpt lat="45.85401" lon="6.4469">
        <ele>2089.6</ele>
        <time>2024-04-27T08:31:39Z</time>
      </trkpt>
      <trkpt lat="45.85401" lon="6.4469">
        <ele>2089.6</ele>
        <time>2024-04-27T08:31:40Z</time>
      </trkpt>
      <trkpt lat="45.85401" lon="6.4469">
        <ele>2089.6</ele>
        <time>2024-04-27T08:31:41Z</time>
      </trkpt>
      <trkpt lat="45.85401" lon="6.4469">
        <ele>2089.6</ele>
        <time>2024-04-27T08:31:42Z</time>
      </trkpt>
      <trkpt lat="45.85401" lon="6.4469">
        <ele>2088.7</ele>
        <time>2024-04-27T08:31:43Z</time>
      </trkpt>
      <trkpt lat="45.85401" lon="6.4469">
        <ele>2088.7</ele>
        <time>2024-04-27T08:31:44Z</time>
      </trkpt>
      <trkpt lat="45.85401" lon="6.4469">
        <ele>2088.7</ele>
        <time>2024-04-27T08:31:45Z</time>
      </trkpt>
      <trkpt lat="45.85401" lon="6.4469">
        <ele>2088.7</ele>
        <time>2024-04-27T08:31:46Z</time>
      </trkpt>
      <trkpt lat="45.85401" lon="6.4469">
        <ele>2088.7</ele>
        <time>2024-04-27T08:31:47Z</time>
      </trkpt>
      <trkpt lat="45.85401" lon="6.4469">
        <ele>2088.7</ele>
        <time>2024-04-27T08:31:48Z</time>
      </trkpt>
      <trkpt lat="45.85401" lon="6.4469">
        <ele>2088.7</ele>
        <time>2024-04-27T08:31:49Z</time>
      </trkpt>
      <trkpt lat="45.85401" lon="6.4469">
        <ele>2088.7</ele>
        <time>2024-04-27T08:31:50Z</time>
      </trkpt>
      <trkpt lat="45.85401" lon="6.4469">
        <ele>2088.7</ele>
        <time>2024-04-27T08:31:51Z</time>
      </trkpt>
      <trkpt lat="45.85401" lon="6.4469">
        <ele>2088.7</ele>
        <time>2024-04-27T08:31:52Z</time>
      </trkpt>
      <trkpt lat="45.85401" lon="6.4469">
        <ele>2087.6</ele>
        <time>2024-04-27T08:31:53Z</time>
      </trkpt>
      <trkpt lat="45.85401" lon="6.4469">
        <ele>2087.6</ele>
        <time>2024-04-27T08:31:54Z</time>
      </trkpt>
      <trkpt lat="45.85402" lon="6.4469">
        <ele>2087.6</ele>
        <time>2024-04-27T08:31:55Z</time>
      </trkpt>
      <trkpt lat="45.85403" lon="6.4469">
        <ele>2087.6</ele>
        <time>2024-04-27T08:31:56Z</time>
      </trkpt>
      <trkpt lat="45.85403" lon="6.4469">
        <ele>2087.6</ele>
        <time>2024-04-27T08:31:57Z</time>
      </trkpt>
      <trkpt lat="45.85403" lon="6.4469">
        <ele>2087.6</ele>
        <time>2024-04-27T08:31:58Z</time>
      </trkpt>
      <trkpt lat="45.85403" lon="6.44691">
        <ele>2087.6</ele>
        <time>2024-04-27T08:31:59Z</time>
      </trkpt>
      <trkpt lat="45.85403" lon="6.44691">
        <ele>2087.6</ele>
        <time>2024-04-27T08:32:00Z</time>
      </trkpt>
      <trkpt lat="45.85403" lon="6.44691">
        <ele>2087.6</ele>
        <time>2024-04-27T08:32:01Z</time>
      </trkpt>
      <trkpt lat="45.85403" lon="6.44691">
        <ele>2087.6</ele>
        <time>2024-04-27T08:32:02Z</time>
      </trkpt>
      <trkpt lat="45.85403" lon="6.44691">
        <ele>2087.6</ele>
        <time>2024-04-27T08:32:03Z</time>
      </trkpt>
      <trkpt lat="45.85403" lon="6.44691">
        <ele>2087.6</ele>
        <time>2024-04-27T08:32:04Z</time>
      </trkpt>
      <trkpt lat="45.85403" lon="6.44691">
        <ele>2087.6</ele>
        <time>2024-04-27T08:32:05Z</time>
      </trkpt>
      <trkpt lat="45.85403" lon="6.44691">
        <ele>2087.6</ele>
        <time>2024-04-27T08:32:06Z</time>
      </trkpt>
      <trkpt lat="45.85403" lon="6.44691">
        <ele>2087.6</ele>
        <time>2024-04-27T08:32:07Z</time>
      </trkpt>
      <trkpt lat="45.85403" lon="6.44691">
        <ele>2087.6</ele>
        <time>2024-04-27T08:32:08Z</time>
      </trkpt>
      <trkpt lat="45.85403" lon="6.44691">
        <ele>2087.6</ele>
        <time>2024-04-27T08:32:09Z</time>
      </trkpt>
      <trkpt lat="45.85403" lon="6.44691">
        <ele>2087.6</ele>
        <time>2024-04-27T08:32:10Z</time>
      </trkpt>
      <trkpt lat="45.85403" lon="6.44691">
        <ele>2087.6</ele>
        <time>2024-04-27T08:32:11Z</time>
      </trkpt>
      <trkpt lat="45.85403" lon="6.44691">
        <ele>2087.6</ele>
        <time>2024-04-27T08:32:12Z</time>
      </trkpt>
      <trkpt lat="45.85403" lon="6.44691">
        <ele>2087.6</ele>
        <time>2024-04-27T08:32:13Z</time>
      </trkpt>
      <trkpt lat="45.85403" lon="6.44691">
        <ele>2087.6</ele>
        <time>2024-04-27T08:32:14Z</time>
      </trkpt>
      <trkpt lat="45.85403" lon="6.44691">
        <ele>2087.6</ele>
        <time>2024-04-27T08:32:15Z</time>
      </trkpt>
      <trkpt lat="45.85403" lon="6.44691">
        <ele>2087.6</ele>
        <time>2024-04-27T08:32:16Z</time>
      </trkpt>
      <trkpt lat="45.85403" lon="6.44691">
        <ele>2087.6</ele>
        <time>2024-04-27T08:32:17Z</time>
      </trkpt>
      <trkpt lat="45.85403" lon="6.44691">
        <ele>2087.6</ele>
        <time>2024-04-27T08:32:18Z</time>
      </trkpt>
      <trkpt lat="45.85403" lon="6.44691">
        <ele>2087.6</ele>
        <time>2024-04-27T08:32:19Z</time>
      </trkpt>
      <trkpt lat="45.85403" lon="6.44691">
        <ele>2087.6</ele>
        <time>2024-04-27T08:32:20Z</time>
      </trkpt>
      <trkpt lat="45.85403" lon="6.44691">
        <ele>2087.6</ele>
        <time>2024-04-27T08:32:21Z</time>
      </trkpt>
      <trkpt lat="45.85403" lon="6.44691">
        <ele>2087.6</ele>
        <time>2024-04-27T08:32:22Z</time>
      </trkpt>
      <trkpt lat="45.85403" lon="6.44691">
        <ele>2087.6</ele>
        <time>2024-04-27T08:32:23Z</time>
      </trkpt>
      <trkpt lat="45.85403" lon="6.44691">
        <ele>2087.6</ele>
        <time>2024-04-27T08:32:24Z</time>
      </trkpt>
      <trkpt lat="45.85403" lon="6.44691">
        <ele>2087.6</ele>
        <time>2024-04-27T08:32:25Z</time>
      </trkpt>
      <trkpt lat="45.85403" lon="6.44691">
        <ele>2087.6</ele>
        <time>2024-04-27T08:32:26Z</time>
      </trkpt>
      <trkpt lat="45.85403" lon="6.44691">
        <ele>2088.7</ele>
        <time>2024-04-27T08:32:27Z</time>
      </trkpt>
      <trkpt lat="45.85404" lon="6.44691">
        <ele>2088.7</ele>
        <time>2024-04-27T08:32:28Z</time>
      </trkpt>
      <trkpt lat="45.85404" lon="6.44691">
        <ele>2088.7</ele>
        <time>2024-04-27T08:32:29Z</time>
      </trkpt>
      <trkpt lat="45.85404" lon="6.44691">
        <ele>2088.7</ele>
        <time>2024-04-27T08:32:30Z</time>
      </trkpt>
      <trkpt lat="45.85404" lon="6.44691">
        <ele>2088.7</ele>
        <time>2024-04-27T08:32:31Z</time>
      </trkpt>
      <trkpt lat="45.85404" lon="6.44691">
        <ele>2088.7</ele>
        <time>2024-04-27T08:32:32Z</time>
      </trkpt>
      <trkpt lat="45.85404" lon="6.44691">
        <ele>2089.6</ele>
        <time>2024-04-27T08:32:33Z</time>
      </trkpt>
      <trkpt lat="45.85404" lon="6.44691">
        <ele>2089.6</ele>
        <time>2024-04-27T08:32:34Z</time>
      </trkpt>
      <trkpt lat="45.85404" lon="6.44691">
        <ele>2089.6</ele>
        <time>2024-04-27T08:32:35Z</time>
      </trkpt>
      <trkpt lat="45.85404" lon="6.44691">
        <ele>2089.6</ele>
        <time>2024-04-27T08:32:36Z</time>
      </trkpt>
      <trkpt lat="45.85403" lon="6.44691">
        <ele>2088.7</ele>
        <time>2024-04-27T08:32:37Z</time>
      </trkpt>
      <trkpt lat="45.85403" lon="6.44691">
        <ele>2088.7</ele>
        <time>2024-04-27T08:32:38Z</time>
      </trkpt>
      <trkpt lat="45.85403" lon="6.44691">
        <ele>2087.6</ele>
        <time>2024-04-27T08:32:39Z</time>
      </trkpt>
      <trkpt lat="45.85404" lon="6.44691">
        <ele>2087.6</ele>
        <time>2024-04-27T08:32:40Z</time>
      </trkpt>
      <trkpt lat="45.85404" lon="6.44691">
        <ele>2087.6</ele>
        <time>2024-04-27T08:32:41Z</time>
      </trkpt>
      <trkpt lat="45.85404" lon="6.44691">
        <ele>2087.6</ele>
        <time>2024-04-27T08:32:42Z</time>
      </trkpt>
      <trkpt lat="45.85404" lon="6.44691">
        <ele>2088.7</ele>
        <time>2024-04-27T08:32:43Z</time>
      </trkpt>
      <trkpt lat="45.85404" lon="6.44691">
        <ele>2088.7</ele>
        <time>2024-04-27T08:32:44Z</time>
      </trkpt>
      <trkpt lat="45.85403" lon="6.4469">
        <ele>2088.7</ele>
        <time>2024-04-27T08:32:45Z</time>
      </trkpt>
      <trkpt lat="45.85403" lon="6.44688">
        <ele>2088.7</ele>
        <time>2024-04-27T08:32:46Z</time>
      </trkpt>
      <trkpt lat="45.85403" lon="6.44687">
        <ele>2088.7</ele>
        <time>2024-04-27T08:32:47Z</time>
      </trkpt>
      <trkpt lat="45.85403" lon="6.44686">
        <ele>2088.7</ele>
        <time>2024-04-27T08:32:48Z</time>
      </trkpt>
      <trkpt lat="45.85402" lon="6.44686">
        <ele>2088.7</ele>
        <time>2024-04-27T08:32:49Z</time>
      </trkpt>
      <trkpt lat="45.85401" lon="6.44684">
        <ele>2088.7</ele>
        <time>2024-04-27T08:32:50Z</time>
      </trkpt>
      <trkpt lat="45.85401" lon="6.44684">
        <ele>2088.7</ele>
        <time>2024-04-27T08:32:51Z</time>
      </trkpt>
      <trkpt lat="45.854" lon="6.44682">
        <ele>2088.7</ele>
        <time>2024-04-27T08:32:52Z</time>
      </trkpt>
      <trkpt lat="45.85399" lon="6.4468">
        <ele>2088.7</ele>
        <time>2024-04-27T08:32:53Z</time>
      </trkpt>
      <trkpt lat="45.85398" lon="6.44678">
        <ele>2088.7</ele>
        <time>2024-04-27T08:32:54Z</time>
      </trkpt>
      <trkpt lat="45.85398" lon="6.44677">
        <ele>2088.7</ele>
        <time>2024-04-27T08:32:55Z</time>
      </trkpt>
      <trkpt lat="45.85398" lon="6.44677">
        <ele>2088.7</ele>
        <time>2024-04-27T08:32:56Z</time>
      </trkpt>
      <trkpt lat="45.85398" lon="6.44676">
        <ele>2089.6</ele>
        <time>2024-04-27T08:32:57Z</time>
      </trkpt>
      <trkpt lat="45.85398" lon="6.44675">
        <ele>2089.6</ele>
        <time>2024-04-27T08:32:58Z</time>
      </trkpt>
      <trkpt lat="45.85398" lon="6.44673">
        <ele>2089.6</ele>
        <time>2024-04-27T08:32:59Z</time>
      </trkpt>
      <trkpt lat="45.85397" lon="6.44672">
        <ele>2089.6</ele>
        <time>2024-04-27T08:33:00Z</time>
      </trkpt>
      <trkpt lat="45.85396" lon="6.4467">
        <ele>2089.6</ele>
        <time>2024-04-27T08:33:01Z</time>
      </trkpt>
      <trkpt lat="45.85395" lon="6.44669">
        <ele>2089.6</ele>
        <time>2024-04-27T08:33:02Z</time>
      </trkpt>
      <trkpt lat="45.85395" lon="6.44667">
        <ele>2089.6</ele>
        <time>2024-04-27T08:33:03Z</time>
      </trkpt>
      <trkpt lat="45.85395" lon="6.44666">
        <ele>2089.6</ele>
        <time>2024-04-27T08:33:04Z</time>
      </trkpt>
      <trkpt lat="45.85395" lon="6.44665">
        <ele>2090.6</ele>
        <time>2024-04-27T08:33:05Z</time>
      </trkpt>
      <trkpt lat="45.85395" lon="6.44664">
        <ele>2090.6</ele>
        <time>2024-04-27T08:33:06Z</time>
      </trkpt>
      <trkpt lat="45.85395" lon="6.44663">
        <ele>2090.6</ele>
        <time>2024-04-27T08:33:07Z</time>
      </trkpt>
      <trkpt lat="45.85394" lon="6.44662">
        <ele>2090.6</ele>
        <time>2024-04-27T08:33:08Z</time>
      </trkpt>
      <trkpt lat="45.85394" lon="6.44662">
        <ele>2091.7</ele>
        <time>2024-04-27T08:33:09Z</time>
      </trkpt>
      <trkpt lat="45.85394" lon="6.44661">
        <ele>2091.7</ele>
        <time>2024-04-27T08:33:10Z</time>
      </trkpt>
      <trkpt lat="45.85393" lon="6.4466">
        <ele>2091.7</ele>
        <time>2024-04-27T08:33:11Z</time>
      </trkpt>
      <trkpt lat="45.85393" lon="6.4466">
        <ele>2091.7</ele>
        <time>2024-04-27T08:33:12Z</time>
      </trkpt>
      <trkpt lat="45.85393" lon="6.4466">
        <ele>2092.6</ele>
        <time>2024-04-27T08:33:13Z</time>
      </trkpt>
      <trkpt lat="45.85392" lon="6.44659">
        <ele>2092.6</ele>
        <time>2024-04-27T08:33:14Z</time>
      </trkpt>
      <trkpt lat="45.85391" lon="6.44658">
        <ele>2092.6</ele>
        <time>2024-04-27T08:33:15Z</time>
      </trkpt>
      <trkpt lat="45.85389" lon="6.44656">
        <ele>2092.6</ele>
        <time>2024-04-27T08:33:16Z</time>
      </trkpt>
      <trkpt lat="45.85388" lon="6.44656">
        <ele>2093.7</ele>
        <time>2024-04-27T08:33:17Z</time>
      </trkpt>
      <trkpt lat="45.85388" lon="6.44656">
        <ele>2093.7</ele>
        <time>2024-04-27T08:33:18Z</time>
      </trkpt>
      <trkpt lat="45.85386" lon="6.44655">
        <ele>2094.6</ele>
        <time>2024-04-27T08:33:19Z</time>
      </trkpt>
      <trkpt lat="45.85385" lon="6.44655">
        <ele>2094.6</ele>
        <time>2024-04-27T08:33:20Z</time>
      </trkpt>
      <trkpt lat="45.85385" lon="6.44655">
        <ele>2095.7</ele>
        <time>2024-04-27T08:33:21Z</time>
      </trkpt>
      <trkpt lat="45.85385" lon="6.44654">
        <ele>2095.7</ele>
        <time>2024-04-27T08:33:22Z</time>
      </trkpt>
      <trkpt lat="45.85384" lon="6.44654">
        <ele>2096.6</ele>
        <time>2024-04-27T08:33:23Z</time>
      </trkpt>
      <trkpt lat="45.85384" lon="6.44654">
        <ele>2096.6</ele>
        <time>2024-04-27T08:33:24Z</time>
      </trkpt>
      <trkpt lat="45.85384" lon="6.44654">
        <ele>2096.6</ele>
        <time>2024-04-27T08:33:25Z</time>
      </trkpt>
      <trkpt lat="45.85384" lon="6.44654">
        <ele>2096.6</ele>
        <time>2024-04-27T08:33:26Z</time>
      </trkpt>
      <trkpt lat="45.85383" lon="6.44654">
        <ele>2097.7</ele>
        <time>2024-04-27T08:33:27Z</time>
      </trkpt>
      <trkpt lat="45.85383" lon="6.44654">
        <ele>2097.7</ele>
        <time>2024-04-27T08:33:28Z</time>
      </trkpt>
      <trkpt lat="45.85382" lon="6.44654">
        <ele>2098.6</ele>
        <time>2024-04-27T08:33:29Z</time>
      </trkpt>
      <trkpt lat="45.85382" lon="6.44653">
        <ele>2098.6</ele>
        <time>2024-04-27T08:33:30Z</time>
      </trkpt>
      <trkpt lat="45.85382" lon="6.44653">
        <ele>2099.6</ele>
        <time>2024-04-27T08:33:31Z</time>
      </trkpt>
      <trkpt lat="45.85381" lon="6.44653">
        <ele>2099.6</ele>
        <time>2024-04-27T08:33:32Z</time>
      </trkpt>
      <trkpt lat="45.85381" lon="6.44653">
        <ele>2099.6</ele>
        <time>2024-04-27T08:33:33Z</time>
      </trkpt>
      <trkpt lat="45.85381" lon="6.44653">
        <ele>2099.6</ele>
        <time>2024-04-27T08:33:34Z</time>
      </trkpt>
      <trkpt lat="45.85381" lon="6.44654">
        <ele>2098.6</ele>
        <time>2024-04-27T08:33:35Z</time>
      </trkpt>
      <trkpt lat="45.85381" lon="6.44655">
        <ele>2098.6</ele>
        <time>2024-04-27T08:33:36Z</time>
      </trkpt>
      <trkpt lat="45.85381" lon="6.44655">
        <ele>2098.6</ele>
        <time>2024-04-27T08:33:37Z</time>
      </trkpt>
      <trkpt lat="45.85381" lon="6.44657">
        <ele>2098.6</ele>
        <time>2024-04-27T08:33:38Z</time>
      </trkpt>
      <trkpt lat="45.85381" lon="6.44657">
        <ele>2098.6</ele>
        <time>2024-04-27T08:33:39Z</time>
      </trkpt>
      <trkpt lat="45.85379" lon="6.44657">
        <ele>2098.6</ele>
        <time>2024-04-27T08:33:40Z</time>
      </trkpt>
      <trkpt lat="45.85378" lon="6.44657">
        <ele>2098.6</ele>
        <time>2024-04-27T08:33:41Z</time>
      </trkpt>
      <trkpt lat="45.85376" lon="6.44657">
        <ele>2098.6</ele>
        <time>2024-04-27T08:33:42Z</time>
      </trkpt>
      <trkpt lat="45.85376" lon="6.44658">
        <ele>2098.6</ele>
        <time>2024-04-27T08:33:43Z</time>
      </trkpt>
      <trkpt lat="45.85375" lon="6.44659">
        <ele>2098.6</ele>
        <time>2024-04-27T08:33:44Z</time>
      </trkpt>
      <trkpt lat="45.85375" lon="6.44659">
        <ele>2098.6</ele>
        <time>2024-04-27T08:33:45Z</time>
      </trkpt>
      <trkpt lat="45.85374" lon="6.44659">
        <ele>2098.6</ele>
        <time>2024-04-27T08:33:46Z</time>
      </trkpt>
      <trkpt lat="45.85374" lon="6.4466">
        <ele>2099.6</ele>
        <time>2024-04-27T08:33:47Z</time>
      </trkpt>
      <trkpt lat="45.85374" lon="6.4466">
        <ele>2099.6</ele>
        <time>2024-04-27T08:33:48Z</time>
      </trkpt>
      <trkpt lat="45.85373" lon="6.44661">
        <ele>2099.6</ele>
        <time>2024-04-27T08:33:49Z</time>
      </trkpt>
      <trkpt lat="45.85373" lon="6.44661">
        <ele>2099.6</ele>
        <time>2024-04-27T08:33:50Z</time>
      </trkpt>
      <trkpt lat="45.85373" lon="6.44662">
        <ele>2100.7</ele>
        <time>2024-04-27T08:33:51Z</time>
      </trkpt>
      <trkpt lat="45.85372" lon="6.44662">
        <ele>2100.7</ele>
        <time>2024-04-27T08:33:52Z</time>
      </trkpt>
      <trkpt lat="45.85372" lon="6.44662">
        <ele>2100.7</ele>
        <time>2024-04-27T08:33:53Z</time>
      </trkpt>
      <trkpt lat="45.85371" lon="6.44662">
        <ele>2100.7</ele>
        <time>2024-04-27T08:33:54Z</time>
      </trkpt>
      <trkpt lat="45.85371" lon="6.44663">
        <ele>2101.6</ele>
        <time>2024-04-27T08:33:55Z</time>
      </trkpt>
      <trkpt lat="45.85371" lon="6.44663">
        <ele>2101.6</ele>
        <time>2024-04-27T08:33:56Z</time>
      </trkpt>
      <trkpt lat="45.85371" lon="6.44663">
        <ele>2101.6</ele>
        <time>2024-04-27T08:33:57Z</time>
      </trkpt>
      <trkpt lat="45.8537" lon="6.44663">
        <ele>2101.6</ele>
        <time>2024-04-27T08:33:58Z</time>
      </trkpt>
      <trkpt lat="45.85369" lon="6.44663">
        <ele>2102.7</ele>
        <time>2024-04-27T08:33:59Z</time>
      </trkpt>
      <trkpt lat="45.85369" lon="6.44664">
        <ele>2102.7</ele>
        <time>2024-04-27T08:34:00Z</time>
      </trkpt>
      <trkpt lat="45.85368" lon="6.44664">
        <ele>2102.7</ele>
        <time>2024-04-27T08:34:01Z</time>
      </trkpt>
      <trkpt lat="45.85367" lon="6.44665">
        <ele>2102.7</ele>
        <time>2024-04-27T08:34:02Z</time>
      </trkpt>
      <trkpt lat="45.85368" lon="6.44665">
        <ele>2102.7</ele>
        <time>2024-04-27T08:34:03Z</time>
      </trkpt>
      <trkpt lat="45.85367" lon="6.44666">
        <ele>2102.7</ele>
        <time>2024-04-27T08:34:04Z</time>
      </trkpt>
      <trkpt lat="45.85367" lon="6.44666">
        <ele>2103.6</ele>
        <time>2024-04-27T08:34:05Z</time>
      </trkpt>
      <trkpt lat="45.85366" lon="6.44666">
        <ele>2103.6</ele>
        <time>2024-04-27T08:34:06Z</time>
      </trkpt>
      <trkpt lat="45.85366" lon="6.44666">
        <ele>2103.6</ele>
        <time>2024-04-27T08:34:07Z</time>
      </trkpt>
      <trkpt lat="45.85366" lon="6.44667">
        <ele>2103.6</ele>
        <time>2024-04-27T08:34:08Z</time>
      </trkpt>
      <trkpt lat="45.85366" lon="6.44667">
        <ele>2103.6</ele>
        <time>2024-04-27T08:34:09Z</time>
      </trkpt>
      <trkpt lat="45.85366" lon="6.44668">
        <ele>2103.6</ele>
        <time>2024-04-27T08:34:10Z</time>
      </trkpt>
      <trkpt lat="45.85366" lon="6.44668">
        <ele>2104.7</ele>
        <time>2024-04-27T08:34:11Z</time>
      </trkpt>
      <trkpt lat="45.85365" lon="6.44667">
        <ele>2104.7</ele>
        <time>2024-04-27T08:34:12Z</time>
      </trkpt>
      <trkpt lat="45.85365" lon="6.44667">
        <ele>2104.7</ele>
        <time>2024-04-27T08:34:13Z</time>
      </trkpt>
      <trkpt lat="45.85364" lon="6.44667">
        <ele>2104.7</ele>
        <time>2024-04-27T08:34:14Z</time>
      </trkpt>
      <trkpt lat="45.85364" lon="6.44667">
        <ele>2104.7</ele>
        <time>2024-04-27T08:34:15Z</time>
      </trkpt>
      <trkpt lat="45.85364" lon="6.44667">
        <ele>2104.7</ele>
        <time>2024-04-27T08:34:16Z</time>
      </trkpt>
      <trkpt lat="45.85363" lon="6.44666">
        <ele>2104.7</ele>
        <time>2024-04-27T08:34:17Z</time>
      </trkpt>
      <trkpt lat="45.85363" lon="6.44666">
        <ele>2104.7</ele>
        <time>2024-04-27T08:34:18Z</time>
      </trkpt>
      <trkpt lat="45.85361" lon="6.44664">
        <ele>2107.7</ele>
        <time>2024-04-27T08:34:19Z</time>
      </trkpt>
      <trkpt lat="45.85361" lon="6.44664">
        <ele>2107.7</ele>
        <time>2024-04-27T08:34:20Z</time>
      </trkpt>
      <trkpt lat="45.8536" lon="6.44663">
        <ele>2107.7</ele>
        <time>2024-04-27T08:34:21Z</time>
      </trkpt>
      <trkpt lat="45.85359" lon="6.44662">
        <ele>2107.7</ele>
        <time>2024-04-27T08:34:22Z</time>
      </trkpt>
      <trkpt lat="45.85359" lon="6.44662">
        <ele>2107.7</ele>
        <time>2024-04-27T08:34:23Z</time>
      </trkpt>
      <trkpt lat="45.85359" lon="6.44661">
        <ele>2107.7</ele>
        <time>2024-04-27T08:34:24Z</time>
      </trkpt>
      <trkpt lat="45.85359" lon="6.4466">
        <ele>2107.7</ele>
        <time>2024-04-27T08:34:25Z</time>
      </trkpt>
      <trkpt lat="45.85358" lon="6.4466">
        <ele>2107.7</ele>
        <time>2024-04-27T08:34:26Z</time>
      </trkpt>
      <trkpt lat="45.85358" lon="6.44659">
        <ele>2107.7</ele>
        <time>2024-04-27T08:34:27Z</time>
      </trkpt>
      <trkpt lat="45.85359" lon="6.44659">
        <ele>2107.7</ele>
        <time>2024-04-27T08:34:28Z</time>
      </trkpt>
      <trkpt lat="45.85359" lon="6.44658">
        <ele>2108.6</ele>
        <time>2024-04-27T08:34:29Z</time>
      </trkpt>
      <trkpt lat="45.85358" lon="6.44658">
        <ele>2108.6</ele>
        <time>2024-04-27T08:34:30Z</time>
      </trkpt>
      <trkpt lat="45.85358" lon="6.44657">
        <ele>2108.6</ele>
        <time>2024-04-27T08:34:31Z</time>
      </trkpt>
      <trkpt lat="45.85358" lon="6.44657">
        <ele>2108.6</ele>
        <time>2024-04-27T08:34:32Z</time>
      </trkpt>
      <trkpt lat="45.85358" lon="6.44656">
        <ele>2109.7</ele>
        <time>2024-04-27T08:34:33Z</time>
      </trkpt>
      <trkpt lat="45.85358" lon="6.44656">
        <ele>2109.7</ele>
        <time>2024-04-27T08:34:34Z</time>
      </trkpt>
      <trkpt lat="45.85358" lon="6.44656">
        <ele>2109.7</ele>
        <time>2024-04-27T08:34:35Z</time>
      </trkpt>
      <trkpt lat="45.85357" lon="6.44655">
        <ele>2109.7</ele>
        <time>2024-04-27T08:34:36Z</time>
      </trkpt>
      <trkpt lat="45.85357" lon="6.44655">
        <ele>2109.7</ele>
        <time>2024-04-27T08:34:37Z</time>
      </trkpt>
      <trkpt lat="45.85356" lon="6.44654">
        <ele>2109.7</ele>
        <time>2024-04-27T08:34:38Z</time>
      </trkpt>
      <trkpt lat="45.85355" lon="6.44654">
        <ele>2109.7</ele>
        <time>2024-04-27T08:34:39Z</time>
      </trkpt>
      <trkpt lat="45.85356" lon="6.44653">
        <ele>2109.7</ele>
        <time>2024-04-27T08:34:40Z</time>
      </trkpt>
      <trkpt lat="45.85356" lon="6.44652">
        <ele>2110.6</ele>
        <time>2024-04-27T08:34:41Z</time>
      </trkpt>
      <trkpt lat="45.85356" lon="6.44652">
        <ele>2110.6</ele>
        <time>2024-04-27T08:34:42Z</time>
      </trkpt>
      <trkpt lat="45.85356" lon="6.44652">
        <ele>2110.6</ele>
        <time>2024-04-27T08:34:43Z</time>
      </trkpt>
      <trkpt lat="45.85357" lon="6.44652">
        <ele>2110.6</ele>
        <time>2024-04-27T08:34:44Z</time>
      </trkpt>
      <trkpt lat="45.85356" lon="6.44651">
        <ele>2111.7</ele>
        <time>2024-04-27T08:34:45Z</time>
      </trkpt>
      <trkpt lat="45.85355" lon="6.4465">
        <ele>2111.7</ele>
        <time>2024-04-27T08:34:46Z</time>
      </trkpt>
      <trkpt lat="45.85355" lon="6.44649">
        <ele>2111.7</ele>
        <time>2024-04-27T08:34:47Z</time>
      </trkpt>
      <trkpt lat="45.85355" lon="6.44649">
        <ele>2111.7</ele>
        <time>2024-04-27T08:34:48Z</time>
      </trkpt>
      <trkpt lat="45.85355" lon="6.44648">
        <ele>2112.6</ele>
        <time>2024-04-27T08:34:49Z</time>
      </trkpt>
      <trkpt lat="45.85354" lon="6.44648">
        <ele>2112.6</ele>
        <time>2024-04-27T08:34:50Z</time>
      </trkpt>
      <trkpt lat="45.85354" lon="6.44648">
        <ele>2112.6</ele>
        <time>2024-04-27T08:34:51Z</time>
      </trkpt>
      <trkpt lat="45.85354" lon="6.44647">
        <ele>2112.6</ele>
        <time>2024-04-27T08:34:52Z</time>
      </trkpt>
      <trkpt lat="45.85354" lon="6.44647">
        <ele>2113.7</ele>
        <time>2024-04-27T08:34:53Z</time>
      </trkpt>
      <trkpt lat="45.85353" lon="6.44646">
        <ele>2113.7</ele>
        <time>2024-04-27T08:34:54Z</time>
      </trkpt>
      <trkpt lat="45.85353" lon="6.44646">
        <ele>2113.7</ele>
        <time>2024-04-27T08:34:55Z</time>
      </trkpt>
      <trkpt lat="45.85353" lon="6.44646">
        <ele>2113.7</ele>
        <time>2024-04-27T08:34:56Z</time>
      </trkpt>
      <trkpt lat="45.85352" lon="6.44645">
        <ele>2113.7</ele>
        <time>2024-04-27T08:34:57Z</time>
      </trkpt>
      <trkpt lat="45.85352" lon="6.44644">
        <ele>2113.7</ele>
        <time>2024-04-27T08:34:58Z</time>
      </trkpt>
      <trkpt lat="45.85352" lon="6.44644">
        <ele>2113.7</ele>
        <time>2024-04-27T08:34:59Z</time>
      </trkpt>
      <trkpt lat="45.85352" lon="6.44643">
        <ele>2113.7</ele>
        <time>2024-04-27T08:35:00Z</time>
      </trkpt>
      <trkpt lat="45.85351" lon="6.44642">
        <ele>2113.7</ele>
        <time>2024-04-27T08:35:01Z</time>
      </trkpt>
      <trkpt lat="45.8535" lon="6.44641">
        <ele>2113.7</ele>
        <time>2024-04-27T08:35:02Z</time>
      </trkpt>
      <trkpt lat="45.8535" lon="6.44641">
        <ele>2113.7</ele>
        <time>2024-04-27T08:35:03Z</time>
      </trkpt>
      <trkpt lat="45.8535" lon="6.4464">
        <ele>2113.7</ele>
        <time>2024-04-27T08:35:04Z</time>
      </trkpt>
      <trkpt lat="45.8535" lon="6.44639">
        <ele>2115.6</ele>
        <time>2024-04-27T08:35:05Z</time>
      </trkpt>
      <trkpt lat="45.85349" lon="6.44639">
        <ele>2115.6</ele>
        <time>2024-04-27T08:35:06Z</time>
      </trkpt>
      <trkpt lat="45.85349" lon="6.44639">
        <ele>2115.6</ele>
        <time>2024-04-27T08:35:07Z</time>
      </trkpt>
      <trkpt lat="45.85349" lon="6.44639">
        <ele>2115.6</ele>
        <time>2024-04-27T08:35:08Z</time>
      </trkpt>
      <trkpt lat="45.85348" lon="6.44638">
        <ele>2115.6</ele>
        <time>2024-04-27T08:35:09Z</time>
      </trkpt>
      <trkpt lat="45.85348" lon="6.44638">
        <ele>2115.6</ele>
        <time>2024-04-27T08:35:10Z</time>
      </trkpt>
      <trkpt lat="45.85348" lon="6.44638">
        <ele>2115.6</ele>
        <time>2024-04-27T08:35:11Z</time>
      </trkpt>
      <trkpt lat="45.85348" lon="6.44637">
        <ele>2115.6</ele>
        <time>2024-04-27T08:35:12Z</time>
      </trkpt>
      <trkpt lat="45.85348" lon="6.44637">
        <ele>2116.7</ele>
        <time>2024-04-27T08:35:13Z</time>
      </trkpt>
      <trkpt lat="45.85347" lon="6.44636">
        <ele>2116.7</ele>
        <time>2024-04-27T08:35:14Z</time>
      </trkpt>
      <trkpt lat="45.85347" lon="6.44635">
        <ele>2116.7</ele>
        <time>2024-04-27T08:35:15Z</time>
      </trkpt>
      <trkpt lat="45.85347" lon="6.44635">
        <ele>2116.7</ele>
        <time>2024-04-27T08:35:16Z</time>
      </trkpt>
      <trkpt lat="45.85347" lon="6.44634">
        <ele>2117.6</ele>
        <time>2024-04-27T08:35:17Z</time>
      </trkpt>
      <trkpt lat="45.85346" lon="6.44633">
        <ele>2117.6</ele>
        <time>2024-04-27T08:35:18Z</time>
      </trkpt>
      <trkpt lat="45.85346" lon="6.44633">
        <ele>2117.6</ele>
        <time>2024-04-27T08:35:19Z</time>
      </trkpt>
      <trkpt lat="45.85346" lon="6.44632">
        <ele>2117.6</ele>
        <time>2024-04-27T08:35:20Z</time>
      </trkpt>
      <trkpt lat="45.85345" lon="6.44631">
        <ele>2118.7</ele>
        <time>2024-04-27T08:35:21Z</time>
      </trkpt>
      <trkpt lat="45.85344" lon="6.44631">
        <ele>2118.7</ele>
        <time>2024-04-27T08:35:22Z</time>
      </trkpt>
      <trkpt lat="45.85344" lon="6.4463">
        <ele>2118.7</ele>
        <time>2024-04-27T08:35:23Z</time>
      </trkpt>
      <trkpt lat="45.85344" lon="6.4463">
        <ele>2118.7</ele>
        <time>2024-04-27T08:35:24Z</time>
      </trkpt>
      <trkpt lat="45.85343" lon="6.44629">
        <ele>2118.7</ele>
        <time>2024-04-27T08:35:25Z</time>
      </trkpt>
      <trkpt lat="45.85343" lon="6.44628">
        <ele>2118.7</ele>
        <time>2024-04-27T08:35:26Z</time>
      </trkpt>
      <trkpt lat="45.85342" lon="6.44628">
        <ele>2118.7</ele>
        <time>2024-04-27T08:35:27Z</time>
      </trkpt>
      <trkpt lat="45.85342" lon="6.44628">
        <ele>2118.7</ele>
        <time>2024-04-27T08:35:28Z</time>
      </trkpt>
      <trkpt lat="45.85341" lon="6.44627">
        <ele>2118.7</ele>
        <time>2024-04-27T08:35:29Z</time>
      </trkpt>
      <trkpt lat="45.85341" lon="6.44627">
        <ele>2118.7</ele>
        <time>2024-04-27T08:35:30Z</time>
      </trkpt>
      <trkpt lat="45.85341" lon="6.44627">
        <ele>2119.6</ele>
        <time>2024-04-27T08:35:31Z</time>
      </trkpt>
      <trkpt lat="45.85341" lon="6.44626">
        <ele>2119.6</ele>
        <time>2024-04-27T08:35:32Z</time>
      </trkpt>
      <trkpt lat="45.8534" lon="6.44626">
        <ele>2119.6</ele>
        <time>2024-04-27T08:35:33Z</time>
      </trkpt>
      <trkpt lat="45.85339" lon="6.44625">
        <ele>2119.6</ele>
        <time>2024-04-27T08:35:34Z</time>
      </trkpt>
      <trkpt lat="45.85339" lon="6.44625">
        <ele>2119.6</ele>
        <time>2024-04-27T08:35:35Z</time>
      </trkpt>
      <trkpt lat="45.85339" lon="6.44625">
        <ele>2119.6</ele>
        <time>2024-04-27T08:35:36Z</time>
      </trkpt>
      <trkpt lat="45.8534" lon="6.44624">
        <ele>2120.7</ele>
        <time>2024-04-27T08:35:37Z</time>
      </trkpt>
      <trkpt lat="45.8534" lon="6.44624">
        <ele>2120.7</ele>
        <time>2024-04-27T08:35:38Z</time>
      </trkpt>
      <trkpt lat="45.85339" lon="6.44623">
        <ele>2120.7</ele>
        <time>2024-04-27T08:35:39Z</time>
      </trkpt>
      <trkpt lat="45.85339" lon="6.44623">
        <ele>2120.7</ele>
        <time>2024-04-27T08:35:40Z</time>
      </trkpt>
      <trkpt lat="45.85338" lon="6.44622">
        <ele>2120.7</ele>
        <time>2024-04-27T08:35:41Z</time>
      </trkpt>
      <trkpt lat="45.85338" lon="6.44621">
        <ele>2120.7</ele>
        <time>2024-04-27T08:35:42Z</time>
      </trkpt>
      <trkpt lat="45.85337" lon="6.44621">
        <ele>2121.6</ele>
        <time>2024-04-27T08:35:43Z</time>
      </trkpt>
      <trkpt lat="45.85337" lon="6.4462">
        <ele>2121.6</ele>
        <time>2024-04-27T08:35:44Z</time>
      </trkpt>
      <trkpt lat="45.85336" lon="6.4462">
        <ele>2121.6</ele>
        <time>2024-04-27T08:35:45Z</time>
      </trkpt>
      <trkpt lat="45.85336" lon="6.4462">
        <ele>2121.6</ele>
        <time>2024-04-27T08:35:46Z</time>
      </trkpt>
      <trkpt lat="45.85336" lon="6.44619">
        <ele>2121.6</ele>
        <time>2024-04-27T08:35:47Z</time>
      </trkpt>
      <trkpt lat="45.85335" lon="6.44619">
        <ele>2121.6</ele>
        <time>2024-04-27T08:35:48Z</time>
      </trkpt>
      <trkpt lat="45.85335" lon="6.44618">
        <ele>2122.7</ele>
        <time>2024-04-27T08:35:49Z</time>
      </trkpt>
      <trkpt lat="45.85335" lon="6.44618">
        <ele>2122.7</ele>
        <time>2024-04-27T08:35:50Z</time>
      </trkpt>
      <trkpt lat="45.85334" lon="6.44618">
        <ele>2123.7</ele>
        <time>2024-04-27T08:35:51Z</time>
      </trkpt>
      <trkpt lat="45.85334" lon="6.44617">
        <ele>2123.7</ele>
        <time>2024-04-27T08:35:52Z</time>
      </trkpt>
      <trkpt lat="45.85333" lon="6.44616">
        <ele>2123.7</ele>
        <time>2024-04-27T08:35:53Z</time>
      </trkpt>
      <trkpt lat="45.85333" lon="6.44616">
        <ele>2123.7</ele>
        <time>2024-04-27T08:35:54Z</time>
      </trkpt>
      <trkpt lat="45.85333" lon="6.44615">
        <ele>2124.6</ele>
        <time>2024-04-27T08:35:55Z</time>
      </trkpt>
      <trkpt lat="45.85333" lon="6.44615">
        <ele>2124.6</ele>
        <time>2024-04-27T08:35:56Z</time>
      </trkpt>
      <trkpt lat="45.85332" lon="6.44615">
        <ele>2125.7</ele>
        <time>2024-04-27T08:35:57Z</time>
      </trkpt>
      <trkpt lat="45.85332" lon="6.44615">
        <ele>2125.7</ele>
        <time>2024-04-27T08:35:58Z</time>
      </trkpt>
      <trkpt lat="45.85332" lon="6.44614">
        <ele>2125.7</ele>
        <time>2024-04-27T08:35:59Z</time>
      </trkpt>
      <trkpt lat="45.85332" lon="6.44614">
        <ele>2125.7</ele>
        <time>2024-04-27T08:36:00Z</time>
      </trkpt>
      <trkpt lat="45.85332" lon="6.44614">
        <ele>2125.7</ele>
        <time>2024-04-27T08:36:01Z</time>
      </trkpt>
      <trkpt lat="45.85331" lon="6.44613">
        <ele>2125.7</ele>
        <time>2024-04-27T08:36:02Z</time>
      </trkpt>
      <trkpt lat="45.85331" lon="6.44613">
        <ele>2128.6</ele>
        <time>2024-04-27T08:36:03Z</time>
      </trkpt>
      <trkpt lat="45.85331" lon="6.44612">
        <ele>2128.6</ele>
        <time>2024-04-27T08:36:04Z</time>
      </trkpt>
      <trkpt lat="45.85331" lon="6.44612">
        <ele>2128.6</ele>
        <time>2024-04-27T08:36:05Z</time>
      </trkpt>
      <trkpt lat="45.8533" lon="6.44612">
        <ele>2128.6</ele>
        <time>2024-04-27T08:36:06Z</time>
      </trkpt>
      <trkpt lat="45.8533" lon="6.44611">
        <ele>2128.6</ele>
        <time>2024-04-27T08:36:07Z</time>
      </trkpt>
      <trkpt lat="45.85329" lon="6.4461">
        <ele>2128.6</ele>
        <time>2024-04-27T08:36:08Z</time>
      </trkpt>
      <trkpt lat="45.8533" lon="6.44609">
        <ele>2128.6</ele>
        <time>2024-04-27T08:36:09Z</time>
      </trkpt>
      <trkpt lat="45.85329" lon="6.44609">
        <ele>2128.6</ele>
        <time>2024-04-27T08:36:10Z</time>
      </trkpt>
      <trkpt lat="45.85329" lon="6.44608">
        <ele>2127.7</ele>
        <time>2024-04-27T08:36:11Z</time>
      </trkpt>
      <trkpt lat="45.85329" lon="6.44608">
        <ele>2127.7</ele>
        <time>2024-04-27T08:36:12Z</time>
      </trkpt>
      <trkpt lat="45.85329" lon="6.44608">
        <ele>2127.7</ele>
        <time>2024-04-27T08:36:13Z</time>
      </trkpt>
      <trkpt lat="45.85329" lon="6.44608">
        <ele>2127.7</ele>
        <time>2024-04-27T08:36:14Z</time>
      </trkpt>
      <trkpt lat="45.8533" lon="6.44609">
        <ele>2127.7</ele>
        <time>2024-04-27T08:36:15Z</time>
      </trkpt>
      <trkpt lat="45.8533" lon="6.44609">
        <ele>2127.7</ele>
        <time>2024-04-27T08:36:16Z</time>
      </trkpt>
      <trkpt lat="45.8533" lon="6.4461">
        <ele>2127.7</ele>
        <time>2024-04-27T08:36:17Z</time>
      </trkpt>
      <trkpt lat="45.85331" lon="6.44611">
        <ele>2127.7</ele>
        <time>2024-04-27T08:36:18Z</time>
      </trkpt>
      <trkpt lat="45.85331" lon="6.44612">
        <ele>2127.7</ele>
        <time>2024-04-27T08:36:19Z</time>
      </trkpt>
      <trkpt lat="45.8533" lon="6.44612">
        <ele>2127.7</ele>
        <time>2024-04-27T08:36:20Z</time>
      </trkpt>
      <trkpt lat="45.8533" lon="6.44613">
        <ele>2127.7</ele>
        <time>2024-04-27T08:36:21Z</time>
      </trkpt>
      <trkpt lat="45.8533" lon="6.44614">
        <ele>2127.7</ele>
        <time>2024-04-27T08:36:22Z</time>
      </trkpt>
      <trkpt lat="45.85329" lon="6.44615">
        <ele>2127.7</ele>
        <time>2024-04-27T08:36:23Z</time>
      </trkpt>
      <trkpt lat="45.85329" lon="6.44615">
        <ele>2127.7</ele>
        <time>2024-04-27T08:36:24Z</time>
      </trkpt>
      <trkpt lat="45.85328" lon="6.44616">
        <ele>2128.6</ele>
        <time>2024-04-27T08:36:25Z</time>
      </trkpt>
      <trkpt lat="45.85328" lon="6.44617">
        <ele>2128.6</ele>
        <time>2024-04-27T08:36:26Z</time>
      </trkpt>
      <trkpt lat="45.85327" lon="6.44618">
        <ele>2128.6</ele>
        <time>2024-04-27T08:36:27Z</time>
      </trkpt>
      <trkpt lat="45.85328" lon="6.44619">
        <ele>2128.6</ele>
        <time>2024-04-27T08:36:28Z</time>
      </trkpt>
      <trkpt lat="45.85328" lon="6.4462">
        <ele>2129.7</ele>
        <time>2024-04-27T08:36:29Z</time>
      </trkpt>
      <trkpt lat="45.85329" lon="6.4462">
        <ele>2129.7</ele>
        <time>2024-04-27T08:36:30Z</time>
      </trkpt>
      <trkpt lat="45.85328" lon="6.44621">
        <ele>2129.7</ele>
        <time>2024-04-27T08:36:31Z</time>
      </trkpt>
      <trkpt lat="45.85328" lon="6.44622">
        <ele>2129.7</ele>
        <time>2024-04-27T08:36:32Z</time>
      </trkpt>
      <trkpt lat="45.85328" lon="6.44622">
        <ele>2130.6</ele>
        <time>2024-04-27T08:36:33Z</time>
      </trkpt>
      <trkpt lat="45.85328" lon="6.44623">
        <ele>2130.6</ele>
        <time>2024-04-27T08:36:34Z</time>
      </trkpt>
      <trkpt lat="45.85328" lon="6.44624">
        <ele>2130.6</ele>
        <time>2024-04-27T08:36:35Z</time>
      </trkpt>
      <trkpt lat="45.85328" lon="6.44624">
        <ele>2130.6</ele>
        <time>2024-04-27T08:36:36Z</time>
      </trkpt>
      <trkpt lat="45.85327" lon="6.44625">
        <ele>2131.6</ele>
        <time>2024-04-27T08:36:37Z</time>
      </trkpt>
      <trkpt lat="45.85327" lon="6.44625">
        <ele>2131.6</ele>
        <time>2024-04-27T08:36:38Z</time>
      </trkpt>
      <trkpt lat="45.85326" lon="6.44626">
        <ele>2131.6</ele>
        <time>2024-04-27T08:36:39Z</time>
      </trkpt>
      <trkpt lat="45.85326" lon="6.44626">
        <ele>2131.6</ele>
        <time>2024-04-27T08:36:40Z</time>
      </trkpt>
      <trkpt lat="45.85325" lon="6.44626">
        <ele>2131.6</ele>
        <time>2024-04-27T08:36:41Z</time>
      </trkpt>
      <trkpt lat="45.85325" lon="6.44627">
        <ele>2131.6</ele>
        <time>2024-04-27T08:36:42Z</time>
      </trkpt>
      <trkpt lat="45.85325" lon="6.44628">
        <ele>2132.7</ele>
        <time>2024-04-27T08:36:43Z</time>
      </trkpt>
      <trkpt lat="45.85325" lon="6.44628">
        <ele>2132.7</ele>
        <time>2024-04-27T08:36:44Z</time>
      </trkpt>
      <trkpt lat="45.85325" lon="6.44629">
        <ele>2132.7</ele>
        <time>2024-04-27T08:36:45Z</time>
      </trkpt>
      <trkpt lat="45.85325" lon="6.44629">
        <ele>2132.7</ele>
        <time>2024-04-27T08:36:46Z</time>
      </trkpt>
      <trkpt lat="45.85324" lon="6.4463">
        <ele>2132.7</ele>
        <time>2024-04-27T08:36:47Z</time>
      </trkpt>
      <trkpt lat="45.85323" lon="6.4463">
        <ele>2132.7</ele>
        <time>2024-04-27T08:36:48Z</time>
      </trkpt>
      <trkpt lat="45.85323" lon="6.44631">
        <ele>2132.7</ele>
        <time>2024-04-27T08:36:49Z</time>
      </trkpt>
      <trkpt lat="45.85323" lon="6.44631">
        <ele>2132.7</ele>
        <time>2024-04-27T08:36:50Z</time>
      </trkpt>
      <trkpt lat="45.85323" lon="6.44632">
        <ele>2133.6</ele>
        <time>2024-04-27T08:36:51Z</time>
      </trkpt>
      <trkpt lat="45.85323" lon="6.44633">
        <ele>2133.6</ele>
        <time>2024-04-27T08:36:52Z</time>
      </trkpt>
      <trkpt lat="45.85323" lon="6.44633">
        <ele>2133.6</ele>
        <time>2024-04-27T08:36:53Z</time>
      </trkpt>
      <trkpt lat="45.85322" lon="6.44634">
        <ele>2133.6</ele>
        <time>2024-04-27T08:36:54Z</time>
      </trkpt>
      <trkpt lat="45.85322" lon="6.44634">
        <ele>2133.6</ele>
        <time>2024-04-27T08:36:55Z</time>
      </trkpt>
      <trkpt lat="45.85322" lon="6.44635">
        <ele>2133.6</ele>
        <time>2024-04-27T08:36:56Z</time>
      </trkpt>
      <trkpt lat="45.85322" lon="6.44635">
        <ele>2134.7</ele>
        <time>2024-04-27T08:36:57Z</time>
      </trkpt>
      <trkpt lat="45.85321" lon="6.44636">
        <ele>2134.7</ele>
        <time>2024-04-27T08:36:58Z</time>
      </trkpt>
      <trkpt lat="45.85321" lon="6.44636">
        <ele>2134.7</ele>
        <time>2024-04-27T08:36:59Z</time>
      </trkpt>
      <trkpt lat="45.85321" lon="6.44637">
        <ele>2134.7</ele>
        <time>2024-04-27T08:37:00Z</time>
      </trkpt>
      <trkpt lat="45.85321" lon="6.44637">
        <ele>2135.6</ele>
        <time>2024-04-27T08:37:01Z</time>
      </trkpt>
      <trkpt lat="45.8532" lon="6.44638">
        <ele>2135.6</ele>
        <time>2024-04-27T08:37:02Z</time>
      </trkpt>
      <trkpt lat="45.8532" lon="6.44638">
        <ele>2135.6</ele>
        <time>2024-04-27T08:37:03Z</time>
      </trkpt>
      <trkpt lat="45.8532" lon="6.44639">
        <ele>2135.6</ele>
        <time>2024-04-27T08:37:04Z</time>
      </trkpt>
      <trkpt lat="45.8532" lon="6.44639">
        <ele>2136.7</ele>
        <time>2024-04-27T08:37:05Z</time>
      </trkpt>
      <trkpt lat="45.85319" lon="6.44639">
        <ele>2136.7</ele>
        <time>2024-04-27T08:37:06Z</time>
      </trkpt>
      <trkpt lat="45.85318" lon="6.4464">
        <ele>2136.7</ele>
        <time>2024-04-27T08:37:07Z</time>
      </trkpt>
      <trkpt lat="45.85318" lon="6.44641">
        <ele>2136.7</ele>
        <time>2024-04-27T08:37:08Z</time>
      </trkpt>
      <trkpt lat="45.85319" lon="6.44641">
        <ele>2137.6</ele>
        <time>2024-04-27T08:37:09Z</time>
      </trkpt>
      <trkpt lat="45.85318" lon="6.44642">
        <ele>2137.6</ele>
        <time>2024-04-27T08:37:10Z</time>
      </trkpt>
      <trkpt lat="45.85318" lon="6.44642">
        <ele>2137.6</ele>
        <time>2024-04-27T08:37:11Z</time>
      </trkpt>
      <trkpt lat="45.85318" lon="6.44643">
        <ele>2137.6</ele>
        <time>2024-04-27T08:37:12Z</time>
      </trkpt>
      <trkpt lat="45.85317" lon="6.44643">
        <ele>2138.7</ele>
        <time>2024-04-27T08:37:13Z</time>
      </trkpt>
      <trkpt lat="45.85317" lon="6.44644">
        <ele>2138.7</ele>
        <time>2024-04-27T08:37:14Z</time>
      </trkpt>
      <trkpt lat="45.85316" lon="6.44644">
        <ele>2138.7</ele>
        <time>2024-04-27T08:37:15Z</time>
      </trkpt>
      <trkpt lat="45.85316" lon="6.44644">
        <ele>2138.7</ele>
        <time>2024-04-27T08:37:16Z</time>
      </trkpt>
      <trkpt lat="45.85315" lon="6.44645">
        <ele>2138.7</ele>
        <time>2024-04-27T08:37:17Z</time>
      </trkpt>
      <trkpt lat="45.85316" lon="6.44647">
        <ele>2138.7</ele>
        <time>2024-04-27T08:37:18Z</time>
      </trkpt>
      <trkpt lat="45.85316" lon="6.44648">
        <ele>2139.7</ele>
        <time>2024-04-27T08:37:19Z</time>
      </trkpt>
      <trkpt lat="45.85316" lon="6.44649">
        <ele>2139.7</ele>
        <time>2024-04-27T08:37:20Z</time>
      </trkpt>
      <trkpt lat="45.85315" lon="6.44649">
        <ele>2139.7</ele>
        <time>2024-04-27T08:37:21Z</time>
      </trkpt>
      <trkpt lat="45.85314" lon="6.4465">
        <ele>2139.7</ele>
        <time>2024-04-27T08:37:22Z</time>
      </trkpt>
      <trkpt lat="45.85314" lon="6.4465">
        <ele>2139.7</ele>
        <time>2024-04-27T08:37:23Z</time>
      </trkpt>
      <trkpt lat="45.85313" lon="6.4465">
        <ele>2139.7</ele>
        <time>2024-04-27T08:37:24Z</time>
      </trkpt>
      <trkpt lat="45.85313" lon="6.44651">
        <ele>2140.6</ele>
        <time>2024-04-27T08:37:25Z</time>
      </trkpt>
      <trkpt lat="45.85313" lon="6.44651">
        <ele>2140.6</ele>
        <time>2024-04-27T08:37:26Z</time>
      </trkpt>
      <trkpt lat="45.85312" lon="6.44651">
        <ele>2140.6</ele>
        <time>2024-04-27T08:37:27Z</time>
      </trkpt>
      <trkpt lat="45.85312" lon="6.44652">
        <ele>2140.6</ele>
        <time>2024-04-27T08:37:28Z</time>
      </trkpt>
      <trkpt lat="45.85312" lon="6.44653">
        <ele>2140.6</ele>
        <time>2024-04-27T08:37:29Z</time>
      </trkpt>
      <trkpt lat="45.85312" lon="6.44654">
        <ele>2140.6</ele>
        <time>2024-04-27T08:37:30Z</time>
      </trkpt>
      <trkpt lat="45.85312" lon="6.44654">
        <ele>2141.7</ele>
        <time>2024-04-27T08:37:31Z</time>
      </trkpt>
      <trkpt lat="45.85313" lon="6.44655">
        <ele>2141.7</ele>
        <time>2024-04-27T08:37:32Z</time>
      </trkpt>
      <trkpt lat="45.85312" lon="6.44656">
        <ele>2141.7</ele>
        <time>2024-04-27T08:37:33Z</time>
      </trkpt>
      <trkpt lat="45.85312" lon="6.44656">
        <ele>2141.7</ele>
        <time>2024-04-27T08:37:34Z</time>
      </trkpt>
      <trkpt lat="45.85311" lon="6.44656">
        <ele>2142.6</ele>
        <time>2024-04-27T08:37:35Z</time>
      </trkpt>
      <trkpt lat="45.8531" lon="6.44656">
        <ele>2142.6</ele>
        <time>2024-04-27T08:37:36Z</time>
      </trkpt>
      <trkpt lat="45.8531" lon="6.44656">
        <ele>2142.6</ele>
        <time>2024-04-27T08:37:37Z</time>
      </trkpt>
      <trkpt lat="45.85309" lon="6.44657">
        <ele>2142.6</ele>
        <time>2024-04-27T08:37:38Z</time>
      </trkpt>
      <trkpt lat="45.85309" lon="6.44657">
        <ele>2143.7</ele>
        <time>2024-04-27T08:37:39Z</time>
      </trkpt>
      <trkpt lat="45.85308" lon="6.44658">
        <ele>2143.7</ele>
        <time>2024-04-27T08:37:40Z</time>
      </trkpt>
      <trkpt lat="45.85308" lon="6.44658">
        <ele>2143.7</ele>
        <time>2024-04-27T08:37:41Z</time>
      </trkpt>
      <trkpt lat="45.85308" lon="6.44659">
        <ele>2143.7</ele>
        <time>2024-04-27T08:37:42Z</time>
      </trkpt>
      <trkpt lat="45.85308" lon="6.44659">
        <ele>2143.7</ele>
        <time>2024-04-27T08:37:43Z</time>
      </trkpt>
      <trkpt lat="45.85307" lon="6.4466">
        <ele>2143.7</ele>
        <time>2024-04-27T08:37:44Z</time>
      </trkpt>
      <trkpt lat="45.85307" lon="6.4466">
        <ele>2143.7</ele>
        <time>2024-04-27T08:37:45Z</time>
      </trkpt>
      <trkpt lat="45.85307" lon="6.4466">
        <ele>2143.7</ele>
        <time>2024-04-27T08:37:46Z</time>
      </trkpt>
      <trkpt lat="45.85306" lon="6.4466">
        <ele>2143.7</ele>
        <time>2024-04-27T08:37:47Z</time>
      </trkpt>
      <trkpt lat="45.85306" lon="6.44661">
        <ele>2143.7</ele>
        <time>2024-04-27T08:37:48Z</time>
      </trkpt>
      <trkpt lat="45.85306" lon="6.44662">
        <ele>2143.7</ele>
        <time>2024-04-27T08:37:49Z</time>
      </trkpt>
      <trkpt lat="45.85306" lon="6.44662">
        <ele>2143.7</ele>
        <time>2024-04-27T08:37:50Z</time>
      </trkpt>
      <trkpt lat="45.85305" lon="6.44663">
        <ele>2143.7</ele>
        <time>2024-04-27T08:37:51Z</time>
      </trkpt>
      <trkpt lat="45.85306" lon="6.44663">
        <ele>2143.7</ele>
        <time>2024-04-27T08:37:52Z</time>
      </trkpt>
      <trkpt lat="45.85305" lon="6.44664">
        <ele>2143.7</ele>
        <time>2024-04-27T08:37:53Z</time>
      </trkpt>
      <trkpt lat="45.85305" lon="6.44664">
        <ele>2143.7</ele>
        <time>2024-04-27T08:37:54Z</time>
      </trkpt>
      <trkpt lat="45.85305" lon="6.44665">
        <ele>2143.7</ele>
        <time>2024-04-27T08:37:55Z</time>
      </trkpt>
      <trkpt lat="45.85305" lon="6.44665">
        <ele>2143.7</ele>
        <time>2024-04-27T08:37:56Z</time>
      </trkpt>
      <trkpt lat="45.85305" lon="6.44666">
        <ele>2145.7</ele>
        <time>2024-04-27T08:37:57Z</time>
      </trkpt>
      <trkpt lat="45.85305" lon="6.44666">
        <ele>2145.7</ele>
        <time>2024-04-27T08:37:58Z</time>
      </trkpt>
      <trkpt lat="45.85304" lon="6.44667">
        <ele>2145.7</ele>
        <time>2024-04-27T08:37:59Z</time>
      </trkpt>
      <trkpt lat="45.85304" lon="6.44667">
        <ele>2145.7</ele>
        <time>2024-04-27T08:38:00Z</time>
      </trkpt>
      <trkpt lat="45.85304" lon="6.44668">
        <ele>2145.7</ele>
        <time>2024-04-27T08:38:01Z</time>
      </trkpt>
      <trkpt lat="45.85304" lon="6.44669">
        <ele>2145.7</ele>
        <time>2024-04-27T08:38:02Z</time>
      </trkpt>
      <trkpt lat="45.85303" lon="6.44669">
        <ele>2146.6</ele>
        <time>2024-04-27T08:38:03Z</time>
      </trkpt>
      <trkpt lat="45.85303" lon="6.4467">
        <ele>2146.6</ele>
        <time>2024-04-27T08:38:04Z</time>
      </trkpt>
      <trkpt lat="45.85302" lon="6.4467">
        <ele>2146.6</ele>
        <time>2024-04-27T08:38:05Z</time>
      </trkpt>
      <trkpt lat="45.85302" lon="6.44671">
        <ele>2146.6</ele>
        <time>2024-04-27T08:38:06Z</time>
      </trkpt>
      <trkpt lat="45.85302" lon="6.44671">
        <ele>2147.6</ele>
        <time>2024-04-27T08:38:07Z</time>
      </trkpt>
      <trkpt lat="45.85302" lon="6.44672">
        <ele>2147.6</ele>
        <time>2024-04-27T08:38:08Z</time>
      </trkpt>
      <trkpt lat="45.85301" lon="6.44673">
        <ele>2147.6</ele>
        <time>2024-04-27T08:38:09Z</time>
      </trkpt>
      <trkpt lat="45.85301" lon="6.44673">
        <ele>2147.6</ele>
        <time>2024-04-27T08:38:10Z</time>
      </trkpt>
      <trkpt lat="45.85301" lon="6.44674">
        <ele>2147.6</ele>
        <time>2024-04-27T08:38:11Z</time>
      </trkpt>
      <trkpt lat="45.853" lon="6.44674">
        <ele>2147.6</ele>
        <time>2024-04-27T08:38:12Z</time>
      </trkpt>
      <trkpt lat="45.853" lon="6.44675">
        <ele>2148.7</ele>
        <time>2024-04-27T08:38:13Z</time>
      </trkpt>
      <trkpt lat="45.85299" lon="6.44675">
        <ele>2148.7</ele>
        <time>2024-04-27T08:38:14Z</time>
      </trkpt>
      <trkpt lat="45.85299" lon="6.44675">
        <ele>2148.7</ele>
        <time>2024-04-27T08:38:15Z</time>
      </trkpt>
      <trkpt lat="45.85299" lon="6.44675">
        <ele>2148.7</ele>
        <time>2024-04-27T08:38:16Z</time>
      </trkpt>
      <trkpt lat="45.85299" lon="6.44676">
        <ele>2149.6</ele>
        <time>2024-04-27T08:38:17Z</time>
      </trkpt>
      <trkpt lat="45.85299" lon="6.44676">
        <ele>2149.6</ele>
        <time>2024-04-27T08:38:18Z</time>
      </trkpt>
      <trkpt lat="45.85298" lon="6.44677">
        <ele>2149.6</ele>
        <time>2024-04-27T08:38:19Z</time>
      </trkpt>
      <trkpt lat="45.85298" lon="6.44677">
        <ele>2149.6</ele>
        <time>2024-04-27T08:38:20Z</time>
      </trkpt>
      <trkpt lat="45.85297" lon="6.44678">
        <ele>2150.7</ele>
        <time>2024-04-27T08:38:21Z</time>
      </trkpt>
      <trkpt lat="45.85297" lon="6.44678">
        <ele>2150.7</ele>
        <time>2024-04-27T08:38:22Z</time>
      </trkpt>
      <trkpt lat="45.85296" lon="6.44678">
        <ele>2150.7</ele>
        <time>2024-04-27T08:38:23Z</time>
      </trkpt>
      <trkpt lat="45.85295" lon="6.44679">
        <ele>2150.7</ele>
        <time>2024-04-27T08:38:24Z</time>
      </trkpt>
      <trkpt lat="45.85295" lon="6.44679">
        <ele>2150.7</ele>
        <time>2024-04-27T08:38:25Z</time>
      </trkpt>
      <trkpt lat="45.85295" lon="6.44678">
        <ele>2150.7</ele>
        <time>2024-04-27T08:38:26Z</time>
      </trkpt>
      <trkpt lat="45.85295" lon="6.44679">
        <ele>2151.6</ele>
        <time>2024-04-27T08:38:27Z</time>
      </trkpt>
      <trkpt lat="45.85294" lon="6.44679">
        <ele>2151.6</ele>
        <time>2024-04-27T08:38:28Z</time>
      </trkpt>
      <trkpt lat="45.85294" lon="6.4468">
        <ele>2151.6</ele>
        <time>2024-04-27T08:38:29Z</time>
      </trkpt>
      <trkpt lat="45.85293" lon="6.4468">
        <ele>2151.6</ele>
        <time>2024-04-27T08:38:30Z</time>
      </trkpt>
      <trkpt lat="45.85293" lon="6.44681">
        <ele>2152.7</ele>
        <time>2024-04-27T08:38:31Z</time>
      </trkpt>
      <trkpt lat="45.85293" lon="6.44681">
        <ele>2152.7</ele>
        <time>2024-04-27T08:38:32Z</time>
      </trkpt>
      <trkpt lat="45.85293" lon="6.44681">
        <ele>2152.7</ele>
        <time>2024-04-27T08:38:33Z</time>
      </trkpt>
      <trkpt lat="45.85293" lon="6.44682">
        <ele>2152.7</ele>
        <time>2024-04-27T08:38:34Z</time>
      </trkpt>
      <trkpt lat="45.85292" lon="6.44682">
        <ele>2152.7</ele>
        <time>2024-04-27T08:38:35Z</time>
      </trkpt>
      <trkpt lat="45.85292" lon="6.44682">
        <ele>2152.7</ele>
        <time>2024-04-27T08:38:36Z</time>
      </trkpt>
      <trkpt lat="45.85292" lon="6.44682">
        <ele>2153.6</ele>
        <time>2024-04-27T08:38:37Z</time>
      </trkpt>
      <trkpt lat="45.85292" lon="6.44681">
        <ele>2153.6</ele>
        <time>2024-04-27T08:38:38Z</time>
      </trkpt>
      <trkpt lat="45.85292" lon="6.4468">
        <ele>2153.6</ele>
        <time>2024-04-27T08:38:39Z</time>
      </trkpt>
      <trkpt lat="45.85291" lon="6.4468">
        <ele>2153.6</ele>
        <time>2024-04-27T08:38:40Z</time>
      </trkpt>
      <trkpt lat="45.85291" lon="6.44678">
        <ele>2154.7</ele>
        <time>2024-04-27T08:38:41Z</time>
      </trkpt>
      <trkpt lat="45.8529" lon="6.44677">
        <ele>2154.7</ele>
        <time>2024-04-27T08:38:42Z</time>
      </trkpt>
      <trkpt lat="45.85291" lon="6.44676">
        <ele>2154.7</ele>
        <time>2024-04-27T08:38:43Z</time>
      </trkpt>
      <trkpt lat="45.85291" lon="6.44676">
        <ele>2154.7</ele>
        <time>2024-04-27T08:38:44Z</time>
      </trkpt>
      <trkpt lat="45.85291" lon="6.44675">
        <ele>2155.7</ele>
        <time>2024-04-27T08:38:45Z</time>
      </trkpt>
      <trkpt lat="45.85291" lon="6.44674">
        <ele>2155.7</ele>
        <time>2024-04-27T08:38:46Z</time>
      </trkpt>
      <trkpt lat="45.8529" lon="6.44673">
        <ele>2155.7</ele>
        <time>2024-04-27T08:38:47Z</time>
      </trkpt>
      <trkpt lat="45.8529" lon="6.44673">
        <ele>2155.7</ele>
        <time>2024-04-27T08:38:48Z</time>
      </trkpt>
      <trkpt lat="45.85289" lon="6.44672">
        <ele>2155.7</ele>
        <time>2024-04-27T08:38:49Z</time>
      </trkpt>
      <trkpt lat="45.85288" lon="6.44671">
        <ele>2155.7</ele>
        <time>2024-04-27T08:38:50Z</time>
      </trkpt>
      <trkpt lat="45.85288" lon="6.4467">
        <ele>2156.6</ele>
        <time>2024-04-27T08:38:51Z</time>
      </trkpt>
      <trkpt lat="45.85287" lon="6.44669">
        <ele>2156.6</ele>
        <time>2024-04-27T08:38:52Z</time>
      </trkpt>
      <trkpt lat="45.85287" lon="6.44668">
        <ele>2156.6</ele>
        <time>2024-04-27T08:38:53Z</time>
      </trkpt>
      <trkpt lat="45.85287" lon="6.44668">
        <ele>2156.6</ele>
        <time>2024-04-27T08:38:54Z</time>
      </trkpt>
      <trkpt lat="45.85286" lon="6.44667">
        <ele>2156.6</ele>
        <time>2024-04-27T08:38:55Z</time>
      </trkpt>
      <trkpt lat="45.85287" lon="6.44667">
        <ele>2156.6</ele>
        <time>2024-04-27T08:38:56Z</time>
      </trkpt>
      <trkpt lat="45.85287" lon="6.44666">
        <ele>2157.7</ele>
        <time>2024-04-27T08:38:57Z</time>
      </trkpt>
      <trkpt lat="45.85287" lon="6.44666">
        <ele>2157.7</ele>
        <time>2024-04-27T08:38:58Z</time>
      </trkpt>
      <trkpt lat="45.85288" lon="6.44665">
        <ele>2157.7</ele>
        <time>2024-04-27T08:38:59Z</time>
      </trkpt>
      <trkpt lat="45.85287" lon="6.44665">
        <ele>2157.7</ele>
        <time>2024-04-27T08:39:00Z</time>
      </trkpt>
      <trkpt lat="45.85287" lon="6.44664">
        <ele>2158.6</ele>
        <time>2024-04-27T08:39:01Z</time>
      </trkpt>
      <trkpt lat="45.85286" lon="6.44663">
        <ele>2158.6</ele>
        <time>2024-04-27T08:39:02Z</time>
      </trkpt>
      <trkpt lat="45.85286" lon="6.44662">
        <ele>2158.6</ele>
        <time>2024-04-27T08:39:03Z</time>
      </trkpt>
      <trkpt lat="45.85286" lon="6.44662">
        <ele>2158.6</ele>
        <time>2024-04-27T08:39:04Z</time>
      </trkpt>
      <trkpt lat="45.85285" lon="6.44661">
        <ele>2158.6</ele>
        <time>2024-04-27T08:39:05Z</time>
      </trkpt>
      <trkpt lat="45.85285" lon="6.44661">
        <ele>2158.6</ele>
        <time>2024-04-27T08:39:06Z</time>
      </trkpt>
      <trkpt lat="45.85285" lon="6.44661">
        <ele>2159.7</ele>
        <time>2024-04-27T08:39:07Z</time>
      </trkpt>
      <trkpt lat="45.85285" lon="6.4466">
        <ele>2159.7</ele>
        <time>2024-04-27T08:39:08Z</time>
      </trkpt>
      <trkpt lat="45.85284" lon="6.4466">
        <ele>2159.7</ele>
        <time>2024-04-27T08:39:09Z</time>
      </trkpt>
      <trkpt lat="45.85284" lon="6.44659">
        <ele>2159.7</ele>
        <time>2024-04-27T08:39:10Z</time>
      </trkpt>
      <trkpt lat="45.85284" lon="6.44659">
        <ele>2159.7</ele>
        <time>2024-04-27T08:39:11Z</time>
      </trkpt>
      <trkpt lat="45.85284" lon="6.44658">
        <ele>2159.7</ele>
        <time>2024-04-27T08:39:12Z</time>
      </trkpt>
      <trkpt lat="45.85285" lon="6.44658">
        <ele>2159.7</ele>
        <time>2024-04-27T08:39:13Z</time>
      </trkpt>
      <trkpt lat="45.85285" lon="6.44658">
        <ele>2159.7</ele>
        <time>2024-04-27T08:39:14Z</time>
      </trkpt>
      <trkpt lat="45.85285" lon="6.44658">
        <ele>2160.6</ele>
        <time>2024-04-27T08:39:15Z</time>
      </trkpt>
      <trkpt lat="45.85285" lon="6.44657">
        <ele>2160.6</ele>
        <time>2024-04-27T08:39:16Z</time>
      </trkpt>
      <trkpt lat="45.85286" lon="6.44657">
        <ele>2160.6</ele>
        <time>2024-04-27T08:39:17Z</time>
      </trkpt>
      <trkpt lat="45.85285" lon="6.44657">
        <ele>2160.6</ele>
        <time>2024-04-27T08:39:18Z</time>
      </trkpt>
      <trkpt lat="45.85285" lon="6.44656">
        <ele>2160.6</ele>
        <time>2024-04-27T08:39:19Z</time>
      </trkpt>
      <trkpt lat="45.85284" lon="6.44655">
        <ele>2160.6</ele>
        <time>2024-04-27T08:39:20Z</time>
      </trkpt>
      <trkpt lat="45.85284" lon="6.44654">
        <ele>2160.6</ele>
        <time>2024-04-27T08:39:21Z</time>
      </trkpt>
      <trkpt lat="45.85284" lon="6.44654">
        <ele>2160.6</ele>
        <time>2024-04-27T08:39:22Z</time>
      </trkpt>
      <trkpt lat="45.85283" lon="6.44653">
        <ele>2161.7</ele>
        <time>2024-04-27T08:39:23Z</time>
      </trkpt>
      <trkpt lat="45.85283" lon="6.44653">
        <ele>2161.7</ele>
        <time>2024-04-27T08:39:24Z</time>
      </trkpt>
      <trkpt lat="45.85283" lon="6.44652">
        <ele>2161.7</ele>
        <time>2024-04-27T08:39:25Z</time>
      </trkpt>
      <trkpt lat="45.85282" lon="6.44651">
        <ele>2161.7</ele>
        <time>2024-04-27T08:39:26Z</time>
      </trkpt>
      <trkpt lat="45.85282" lon="6.4465">
        <ele>2162.6</ele>
        <time>2024-04-27T08:39:27Z</time>
      </trkpt>
      <trkpt lat="45.85281" lon="6.44649">
        <ele>2162.6</ele>
        <time>2024-04-27T08:39:28Z</time>
      </trkpt>
      <trkpt lat="45.85282" lon="6.44649">
        <ele>2162.6</ele>
        <time>2024-04-27T08:39:29Z</time>
      </trkpt>
      <trkpt lat="45.85282" lon="6.44648">
        <ele>2162.6</ele>
        <time>2024-04-27T08:39:30Z</time>
      </trkpt>
      <trkpt lat="45.85282" lon="6.44648">
        <ele>2162.6</ele>
        <time>2024-04-27T08:39:31Z</time>
      </trkpt>
      <trkpt lat="45.85282" lon="6.44648">
        <ele>2162.6</ele>
        <time>2024-04-27T08:39:32Z</time>
      </trkpt>
      <trkpt lat="45.85281" lon="6.44647">
        <ele>2162.6</ele>
        <time>2024-04-27T08:39:33Z</time>
      </trkpt>
      <trkpt lat="45.85281" lon="6.44646">
        <ele>2162.6</ele>
        <time>2024-04-27T08:39:34Z</time>
      </trkpt>
      <trkpt lat="45.85281" lon="6.44646">
        <ele>2162.6</ele>
        <time>2024-04-27T08:39:35Z</time>
      </trkpt>
      <trkpt lat="45.85281" lon="6.44645">
        <ele>2162.6</ele>
        <time>2024-04-27T08:39:36Z</time>
      </trkpt>
      <trkpt lat="45.85281" lon="6.44644">
        <ele>2163.6</ele>
        <time>2024-04-27T08:39:37Z</time>
      </trkpt>
      <trkpt lat="45.85281" lon="6.44644">
        <ele>2163.6</ele>
        <time>2024-04-27T08:39:38Z</time>
      </trkpt>
      <trkpt lat="45.85281" lon="6.44643">
        <ele>2163.6</ele>
        <time>2024-04-27T08:39:39Z</time>
      </trkpt>
      <trkpt lat="45.85281" lon="6.44642">
        <ele>2163.6</ele>
        <time>2024-04-27T08:39:40Z</time>
      </trkpt>
      <trkpt lat="45.8528" lon="6.44641">
        <ele>2163.6</ele>
        <time>2024-04-27T08:39:41Z</time>
      </trkpt>
      <trkpt lat="45.8528" lon="6.4464">
        <ele>2163.6</ele>
        <time>2024-04-27T08:39:42Z</time>
      </trkpt>
      <trkpt lat="45.8528" lon="6.4464">
        <ele>2164.7</ele>
        <time>2024-04-27T08:39:43Z</time>
      </trkpt>
      <trkpt lat="45.8528" lon="6.44639">
        <ele>2164.7</ele>
        <time>2024-04-27T08:39:44Z</time>
      </trkpt>
      <trkpt lat="45.8528" lon="6.44637">
        <ele>2164.7</ele>
        <time>2024-04-27T08:39:45Z</time>
      </trkpt>
      <trkpt lat="45.85279" lon="6.44636">
        <ele>2164.7</ele>
        <time>2024-04-27T08:39:46Z</time>
      </trkpt>
      <trkpt lat="45.85278" lon="6.44634">
        <ele>2164.7</ele>
        <time>2024-04-27T08:39:47Z</time>
      </trkpt>
      <trkpt lat="45.85278" lon="6.44633">
        <ele>2164.7</ele>
        <time>2024-04-27T08:39:48Z</time>
      </trkpt>
      <trkpt lat="45.85277" lon="6.44632">
        <ele>2164.7</ele>
        <time>2024-04-27T08:39:49Z</time>
      </trkpt>
      <trkpt lat="45.85277" lon="6.44631">
        <ele>2164.7</ele>
        <time>2024-04-27T08:39:50Z</time>
      </trkpt>
      <trkpt lat="45.85277" lon="6.4463">
        <ele>2165.6</ele>
        <time>2024-04-27T08:39:51Z</time>
      </trkpt>
      <trkpt lat="45.85277" lon="6.44629">
        <ele>2165.6</ele>
        <time>2024-04-27T08:39:52Z</time>
      </trkpt>
      <trkpt lat="45.85278" lon="6.44628">
        <ele>2165.6</ele>
        <time>2024-04-27T08:39:53Z</time>
      </trkpt>
      <trkpt lat="45.85277" lon="6.44626">
        <ele>2165.6</ele>
        <time>2024-04-27T08:39:54Z</time>
      </trkpt>
      <trkpt lat="45.85277" lon="6.44625">
        <ele>2166.7</ele>
        <time>2024-04-27T08:39:55Z</time>
      </trkpt>
      <trkpt lat="45.85276" lon="6.44624">
        <ele>2166.7</ele>
        <time>2024-04-27T08:39:56Z</time>
      </trkpt>
      <trkpt lat="45.85276" lon="6.44622">
        <ele>2166.7</ele>
        <time>2024-04-27T08:39:57Z</time>
      </trkpt>
      <trkpt lat="45.85276" lon="6.44622">
        <ele>2166.7</ele>
        <time>2024-04-27T08:39:58Z</time>
      </trkpt>
      <trkpt lat="45.85277" lon="6.44622">
        <ele>2166.7</ele>
        <time>2024-04-27T08:39:59Z</time>
      </trkpt>
      <trkpt lat="45.85277" lon="6.44621">
        <ele>2166.7</ele>
        <time>2024-04-27T08:40:00Z</time>
      </trkpt>
      <trkpt lat="45.85276" lon="6.4462">
        <ele>2166.7</ele>
        <time>2024-04-27T08:40:01Z</time>
      </trkpt>
      <trkpt lat="45.85275" lon="6.44618">
        <ele>2166.7</ele>
        <time>2024-04-27T08:40:02Z</time>
      </trkpt>
      <trkpt lat="45.85275" lon="6.44618">
        <ele>2166.7</ele>
        <time>2024-04-27T08:40:03Z</time>
      </trkpt>
      <trkpt lat="45.85275" lon="6.44616">
        <ele>2166.7</ele>
        <time>2024-04-27T08:40:04Z</time>
      </trkpt>
      <trkpt lat="45.85274" lon="6.44616">
        <ele>2166.7</ele>
        <time>2024-04-27T08:40:05Z</time>
      </trkpt>
      <trkpt lat="45.85274" lon="6.44614">
        <ele>2166.7</ele>
        <time>2024-04-27T08:40:06Z</time>
      </trkpt>
      <trkpt lat="45.85274" lon="6.44614">
        <ele>2167.6</ele>
        <time>2024-04-27T08:40:07Z</time>
      </trkpt>
      <trkpt lat="45.85274" lon="6.44613">
        <ele>2167.6</ele>
        <time>2024-04-27T08:40:08Z</time>
      </trkpt>
      <trkpt lat="45.85274" lon="6.44612">
        <ele>2167.6</ele>
        <time>2024-04-27T08:40:09Z</time>
      </trkpt>
      <trkpt lat="45.85273" lon="6.44611">
        <ele>2167.6</ele>
        <time>2024-04-27T08:40:10Z</time>
      </trkpt>
      <trkpt lat="45.85273" lon="6.4461">
        <ele>2167.6</ele>
        <time>2024-04-27T08:40:11Z</time>
      </trkpt>
      <trkpt lat="45.85273" lon="6.44609">
        <ele>2167.6</ele>
        <time>2024-04-27T08:40:12Z</time>
      </trkpt>
      <trkpt lat="45.85272" lon="6.44608">
        <ele>2167.6</ele>
        <time>2024-04-27T08:40:13Z</time>
      </trkpt>
      <trkpt lat="45.85272" lon="6.44607">
        <ele>2167.6</ele>
        <time>2024-04-27T08:40:14Z</time>
      </trkpt>
      <trkpt lat="45.85271" lon="6.44606">
        <ele>2167.6</ele>
        <time>2024-04-27T08:40:15Z</time>
      </trkpt>
      <trkpt lat="45.85271" lon="6.44605">
        <ele>2167.6</ele>
        <time>2024-04-27T08:40:16Z</time>
      </trkpt>
      <trkpt lat="45.85271" lon="6.44605">
        <ele>2168.7</ele>
        <time>2024-04-27T08:40:17Z</time>
      </trkpt>
      <trkpt lat="45.85272" lon="6.44604">
        <ele>2168.7</ele>
        <time>2024-04-27T08:40:18Z</time>
      </trkpt>
      <trkpt lat="45.85272" lon="6.44604">
        <ele>2169.6</ele>
        <time>2024-04-27T08:40:19Z</time>
      </trkpt>
      <trkpt lat="45.85272" lon="6.44604">
        <ele>2169.6</ele>
        <time>2024-04-27T08:40:20Z</time>
      </trkpt>
      <trkpt lat="45.85272" lon="6.44604">
        <ele>2169.6</ele>
        <time>2024-04-27T08:40:21Z</time>
      </trkpt>
      <trkpt lat="45.85272" lon="6.44604">
        <ele>2169.6</ele>
        <time>2024-04-27T08:40:22Z</time>
      </trkpt>
      <trkpt lat="45.85272" lon="6.44605">
        <ele>2169.6</ele>
        <time>2024-04-27T08:40:23Z</time>
      </trkpt>
      <trkpt lat="45.85272" lon="6.44606">
        <ele>2169.6</ele>
        <time>2024-04-27T08:40:24Z</time>
      </trkpt>
      <trkpt lat="45.85272" lon="6.44606">
        <ele>2169.6</ele>
        <time>2024-04-27T08:40:25Z</time>
      </trkpt>
      <trkpt lat="45.85272" lon="6.44607">
        <ele>2169.6</ele>
        <time>2024-04-27T08:40:26Z</time>
      </trkpt>
      <trkpt lat="45.85272" lon="6.44608">
        <ele>2170.7</ele>
        <time>2024-04-27T08:40:27Z</time>
      </trkpt>
      <trkpt lat="45.85272" lon="6.44609">
        <ele>2170.7</ele>
        <time>2024-04-27T08:40:28Z</time>
      </trkpt>
      <trkpt lat="45.85272" lon="6.44609">
        <ele>2170.7</ele>
        <time>2024-04-27T08:40:29Z</time>
      </trkpt>
      <trkpt lat="45.85271" lon="6.4461">
        <ele>2170.7</ele>
        <time>2024-04-27T08:40:30Z</time>
      </trkpt>
      <trkpt lat="45.85271" lon="6.44611">
        <ele>2170.7</ele>
        <time>2024-04-27T08:40:31Z</time>
      </trkpt>
      <trkpt lat="45.85272" lon="6.44613">
        <ele>2170.7</ele>
        <time>2024-04-27T08:40:32Z</time>
      </trkpt>
      <trkpt lat="45.85272" lon="6.44614">
        <ele>2170.7</ele>
        <time>2024-04-27T08:40:33Z</time>
      </trkpt>
      <trkpt lat="45.85272" lon="6.44615">
        <ele>2170.7</ele>
        <time>2024-04-27T08:40:34Z</time>
      </trkpt>
      <trkpt lat="45.85271" lon="6.44616">
        <ele>2170.7</ele>
        <time>2024-04-27T08:40:35Z</time>
      </trkpt>
      <trkpt lat="45.85271" lon="6.44617">
        <ele>2170.7</ele>
        <time>2024-04-27T08:40:36Z</time>
      </trkpt>
      <trkpt lat="45.85272" lon="6.44617">
        <ele>2170.7</ele>
        <time>2024-04-27T08:40:37Z</time>
      </trkpt>
      <trkpt lat="45.85271" lon="6.44618">
        <ele>2170.7</ele>
        <time>2024-04-27T08:40:38Z</time>
      </trkpt>
      <trkpt lat="45.85271" lon="6.44619">
        <ele>2171.6</ele>
        <time>2024-04-27T08:40:39Z</time>
      </trkpt>
      <trkpt lat="45.8527" lon="6.44619">
        <ele>2171.6</ele>
        <time>2024-04-27T08:40:40Z</time>
      </trkpt>
      <trkpt lat="45.8527" lon="6.4462">
        <ele>2171.6</ele>
        <time>2024-04-27T08:40:41Z</time>
      </trkpt>
      <trkpt lat="45.8527" lon="6.44621">
        <ele>2171.6</ele>
        <time>2024-04-27T08:40:42Z</time>
      </trkpt>
      <trkpt lat="45.8527" lon="6.44621">
        <ele>2172.6</ele>
        <time>2024-04-27T08:40:43Z</time>
      </trkpt>
      <trkpt lat="45.8527" lon="6.44623">
        <ele>2172.6</ele>
        <time>2024-04-27T08:40:44Z</time>
      </trkpt>
      <trkpt lat="45.8527" lon="6.44623">
        <ele>2172.6</ele>
        <time>2024-04-27T08:40:45Z</time>
      </trkpt>
      <trkpt lat="45.8527" lon="6.44624">
        <ele>2172.6</ele>
        <time>2024-04-27T08:40:46Z</time>
      </trkpt>
      <trkpt lat="45.85269" lon="6.44624">
        <ele>2172.6</ele>
        <time>2024-04-27T08:40:47Z</time>
      </trkpt>
      <trkpt lat="45.85269" lon="6.44625">
        <ele>2172.6</ele>
        <time>2024-04-27T08:40:48Z</time>
      </trkpt>
      <trkpt lat="45.85269" lon="6.44626">
        <ele>2173.7</ele>
        <time>2024-04-27T08:40:49Z</time>
      </trkpt>
      <trkpt lat="45.85269" lon="6.44627">
        <ele>2173.7</ele>
        <time>2024-04-27T08:40:50Z</time>
      </trkpt>
      <trkpt lat="45.85269" lon="6.44628">
        <ele>2173.7</ele>
        <time>2024-04-27T08:40:51Z</time>
      </trkpt>
      <trkpt lat="45.85269" lon="6.44629">
        <ele>2173.7</ele>
        <time>2024-04-27T08:40:52Z</time>
      </trkpt>
      <trkpt lat="45.85269" lon="6.44629">
        <ele>2173.7</ele>
        <time>2024-04-27T08:40:53Z</time>
      </trkpt>
      <trkpt lat="45.85269" lon="6.44631">
        <ele>2173.7</ele>
        <time>2024-04-27T08:40:54Z</time>
      </trkpt>
      <trkpt lat="45.85269" lon="6.44632">
        <ele>2173.7</ele>
        <time>2024-04-27T08:40:55Z</time>
      </trkpt>
      <trkpt lat="45.85269" lon="6.44632">
        <ele>2173.7</ele>
        <time>2024-04-27T08:40:56Z</time>
      </trkpt>
      <trkpt lat="45.85268" lon="6.44632">
        <ele>2173.7</ele>
        <time>2024-04-27T08:40:57Z</time>
      </trkpt>
      <trkpt lat="45.85268" lon="6.44634">
        <ele>2173.7</ele>
        <time>2024-04-27T08:40:58Z</time>
      </trkpt>
      <trkpt lat="45.85269" lon="6.44634">
        <ele>2173.7</ele>
        <time>2024-04-27T08:40:59Z</time>
      </trkpt>
      <trkpt lat="45.85269" lon="6.44635">
        <ele>2173.7</ele>
        <time>2024-04-27T08:41:00Z</time>
      </trkpt>
      <trkpt lat="45.85268" lon="6.44636">
        <ele>2173.7</ele>
        <time>2024-04-27T08:41:01Z</time>
      </trkpt>
      <trkpt lat="45.85268" lon="6.44638">
        <ele>2173.7</ele>
        <time>2024-04-27T08:41:02Z</time>
      </trkpt>
      <trkpt lat="45.85268" lon="6.44639">
        <ele>2173.7</ele>
        <time>2024-04-27T08:41:03Z</time>
      </trkpt>
      <trkpt lat="45.85268" lon="6.4464">
        <ele>2173.7</ele>
        <time>2024-04-27T08:41:04Z</time>
      </trkpt>
      <trkpt lat="45.85268" lon="6.44642">
        <ele>2175.7</ele>
        <time>2024-04-27T08:41:05Z</time>
      </trkpt>
      <trkpt lat="45.85268" lon="6.44643">
        <ele>2175.7</ele>
        <time>2024-04-27T08:41:06Z</time>
      </trkpt>
      <trkpt lat="45.85268" lon="6.44644">
        <ele>2175.7</ele>
        <time>2024-04-27T08:41:07Z</time>
      </trkpt>
      <trkpt lat="45.85268" lon="6.44645">
        <ele>2175.7</ele>
        <time>2024-04-27T08:41:08Z</time>
      </trkpt>
      <trkpt lat="45.85268" lon="6.44646">
        <ele>2175.7</ele>
        <time>2024-04-27T08:41:09Z</time>
      </trkpt>
      <trkpt lat="45.85267" lon="6.44646">
        <ele>2175.7</ele>
        <time>2024-04-27T08:41:10Z</time>
      </trkpt>
      <trkpt lat="45.85267" lon="6.44647">
        <ele>2175.7</ele>
        <time>2024-04-27T08:41:11Z</time>
      </trkpt>
      <trkpt lat="45.85266" lon="6.44648">
        <ele>2175.7</ele>
        <time>2024-04-27T08:41:12Z</time>
      </trkpt>
      <trkpt lat="45.85266" lon="6.44648">
        <ele>2175.7</ele>
        <time>2024-04-27T08:41:13Z</time>
      </trkpt>
      <trkpt lat="45.85266" lon="6.44649">
        <ele>2175.7</ele>
        <time>2024-04-27T08:41:14Z</time>
      </trkpt>
      <trkpt lat="45.85265" lon="6.44649">
        <ele>2175.7</ele>
        <time>2024-04-27T08:41:15Z</time>
      </trkpt>
      <trkpt lat="45.85265" lon="6.44649">
        <ele>2175.7</ele>
        <time>2024-04-27T08:41:16Z</time>
      </trkpt>
      <trkpt lat="45.85265" lon="6.44649">
        <ele>2176.6</ele>
        <time>2024-04-27T08:41:17Z</time>
      </trkpt>
      <trkpt lat="45.85265" lon="6.44649">
        <ele>2176.6</ele>
        <time>2024-04-27T08:41:18Z</time>
      </trkpt>
      <trkpt lat="45.85264" lon="6.44649">
        <ele>2176.6</ele>
        <time>2024-04-27T08:41:19Z</time>
      </trkpt>
      <trkpt lat="45.85264" lon="6.44649">
        <ele>2176.6</ele>
        <time>2024-04-27T08:41:20Z</time>
      </trkpt>
      <trkpt lat="45.85264" lon="6.44649">
        <ele>2176.6</ele>
        <time>2024-04-27T08:41:21Z</time>
      </trkpt>
      <trkpt lat="45.85264" lon="6.44649">
        <ele>2176.6</ele>
        <time>2024-04-27T08:41:22Z</time>
      </trkpt>
      <trkpt lat="45.85264" lon="6.44649">
        <ele>2176.6</ele>
        <time>2024-04-27T08:41:23Z</time>
      </trkpt>
      <trkpt lat="45.85264" lon="6.4465">
        <ele>2176.6</ele>
        <time>2024-04-27T08:41:24Z</time>
      </trkpt>
      <trkpt lat="45.85265" lon="6.44651">
        <ele>2177.7</ele>
        <time>2024-04-27T08:41:25Z</time>
      </trkpt>
      <trkpt lat="45.85266" lon="6.44652">
        <ele>2177.7</ele>
        <time>2024-04-27T08:41:26Z</time>
      </trkpt>
      <trkpt lat="45.85265" lon="6.44652">
        <ele>2177.7</ele>
        <time>2024-04-27T08:41:27Z</time>
      </trkpt>
      <trkpt lat="45.85265" lon="6.44652">
        <ele>2177.7</ele>
        <time>2024-04-27T08:41:28Z</time>
      </trkpt>
      <trkpt lat="45.85265" lon="6.44652">
        <ele>2178.6</ele>
        <time>2024-04-27T08:41:29Z</time>
      </trkpt>
      <trkpt lat="45.85265" lon="6.44651">
        <ele>2178.6</ele>
        <time>2024-04-27T08:41:30Z</time>
      </trkpt>
      <trkpt lat="45.85265" lon="6.4465">
        <ele>2178.6</ele>
        <time>2024-04-27T08:41:31Z</time>
      </trkpt>
      <trkpt lat="45.85265" lon="6.44649">
        <ele>2178.6</ele>
        <time>2024-04-27T08:41:32Z</time>
      </trkpt>
      <trkpt lat="45.85264" lon="6.44648">
        <ele>2179.7</ele>
        <time>2024-04-27T08:41:33Z</time>
      </trkpt>
      <trkpt lat="45.85263" lon="6.44647">
        <ele>2179.7</ele>
        <time>2024-04-27T08:41:34Z</time>
      </trkpt>
      <trkpt lat="45.85263" lon="6.44647">
        <ele>2179.7</ele>
        <time>2024-04-27T08:41:35Z</time>
      </trkpt>
      <trkpt lat="45.85263" lon="6.44646">
        <ele>2179.7</ele>
        <time>2024-04-27T08:41:36Z</time>
      </trkpt>
      <trkpt lat="45.85262" lon="6.44644">
        <ele>2179.7</ele>
        <time>2024-04-27T08:41:37Z</time>
      </trkpt>
      <trkpt lat="45.85262" lon="6.44644">
        <ele>2179.7</ele>
        <time>2024-04-27T08:41:38Z</time>
      </trkpt>
      <trkpt lat="45.85262" lon="6.44642">
        <ele>2180.7</ele>
        <time>2024-04-27T08:41:39Z</time>
      </trkpt>
      <trkpt lat="45.85262" lon="6.44641">
        <ele>2180.7</ele>
        <time>2024-04-27T08:41:40Z</time>
      </trkpt>
      <trkpt lat="45.85261" lon="6.4464">
        <ele>2180.7</ele>
        <time>2024-04-27T08:41:41Z</time>
      </trkpt>
      <trkpt lat="45.85261" lon="6.44639">
        <ele>2180.7</ele>
        <time>2024-04-27T08:41:42Z</time>
      </trkpt>
      <trkpt lat="45.85261" lon="6.44638">
        <ele>2180.7</ele>
        <time>2024-04-27T08:41:43Z</time>
      </trkpt>
      <trkpt lat="45.8526" lon="6.44637">
        <ele>2180.7</ele>
        <time>2024-04-27T08:41:44Z</time>
      </trkpt>
      <trkpt lat="45.8526" lon="6.44636">
        <ele>2180.7</ele>
        <time>2024-04-27T08:41:45Z</time>
      </trkpt>
      <trkpt lat="45.85259" lon="6.44635">
        <ele>2180.7</ele>
        <time>2024-04-27T08:41:46Z</time>
      </trkpt>
      <trkpt lat="45.85259" lon="6.44634">
        <ele>2181.6</ele>
        <time>2024-04-27T08:41:47Z</time>
      </trkpt>
      <trkpt lat="45.8526" lon="6.44634">
        <ele>2181.6</ele>
        <time>2024-04-27T08:41:48Z</time>
      </trkpt>
      <trkpt lat="45.8526" lon="6.44633">
        <ele>2181.6</ele>
        <time>2024-04-27T08:41:49Z</time>
      </trkpt>
      <trkpt lat="45.8526" lon="6.44633">
        <ele>2181.6</ele>
        <time>2024-04-27T08:41:50Z</time>
      </trkpt>
      <trkpt lat="45.8526" lon="6.44632">
        <ele>2181.6</ele>
        <time>2024-04-27T08:41:51Z</time>
      </trkpt>
      <trkpt lat="45.8526" lon="6.44632">
        <ele>2181.6</ele>
        <time>2024-04-27T08:41:52Z</time>
      </trkpt>
      <trkpt lat="45.85261" lon="6.44631">
        <ele>2181.6</ele>
        <time>2024-04-27T08:41:53Z</time>
      </trkpt>
      <trkpt lat="45.8526" lon="6.44631">
        <ele>2181.6</ele>
        <time>2024-04-27T08:41:54Z</time>
      </trkpt>
      <trkpt lat="45.8526" lon="6.4463">
        <ele>2181.6</ele>
        <time>2024-04-27T08:41:55Z</time>
      </trkpt>
      <trkpt lat="45.8526" lon="6.44631">
        <ele>2181.6</ele>
        <time>2024-04-27T08:41:56Z</time>
      </trkpt>
      <trkpt lat="45.85259" lon="6.4463">
        <ele>2181.6</ele>
        <time>2024-04-27T08:41:57Z</time>
      </trkpt>
      <trkpt lat="45.85259" lon="6.44631">
        <ele>2181.6</ele>
        <time>2024-04-27T08:41:58Z</time>
      </trkpt>
      <trkpt lat="45.8526" lon="6.4463">
        <ele>2182.7</ele>
        <time>2024-04-27T08:41:59Z</time>
      </trkpt>
      <trkpt lat="45.8526" lon="6.44629">
        <ele>2182.7</ele>
        <time>2024-04-27T08:42:00Z</time>
      </trkpt>
      <trkpt lat="45.85259" lon="6.44628">
        <ele>2182.7</ele>
        <time>2024-04-27T08:42:01Z</time>
      </trkpt>
      <trkpt lat="45.8526" lon="6.44628">
        <ele>2182.7</ele>
        <time>2024-04-27T08:42:02Z</time>
      </trkpt>
      <trkpt lat="45.8526" lon="6.44626">
        <ele>2182.7</ele>
        <time>2024-04-27T08:42:03Z</time>
      </trkpt>
      <trkpt lat="45.85259" lon="6.44625">
        <ele>2182.7</ele>
        <time>2024-04-27T08:42:04Z</time>
      </trkpt>
      <trkpt lat="45.85259" lon="6.44624">
        <ele>2182.7</ele>
        <time>2024-04-27T08:42:05Z</time>
      </trkpt>
      <trkpt lat="45.85258" lon="6.44623">
        <ele>2182.7</ele>
        <time>2024-04-27T08:42:06Z</time>
      </trkpt>
      <trkpt lat="45.85258" lon="6.44623">
        <ele>2181.6</ele>
        <time>2024-04-27T08:42:07Z</time>
      </trkpt>
      <trkpt lat="45.85258" lon="6.44623">
        <ele>2181.6</ele>
        <time>2024-04-27T08:42:08Z</time>
      </trkpt>
      <trkpt lat="45.85258" lon="6.44623">
        <ele>2181.6</ele>
        <time>2024-04-27T08:42:09Z</time>
      </trkpt>
      <trkpt lat="45.85257" lon="6.44623">
        <ele>2181.6</ele>
        <time>2024-04-27T08:42:10Z</time>
      </trkpt>
      <trkpt lat="45.85257" lon="6.44621">
        <ele>2182.7</ele>
        <time>2024-04-27T08:42:11Z</time>
      </trkpt>
      <trkpt lat="45.85256" lon="6.4462">
        <ele>2182.7</ele>
        <time>2024-04-27T08:42:12Z</time>
      </trkpt>
      <trkpt lat="45.85255" lon="6.44619">
        <ele>2182.7</ele>
        <time>2024-04-27T08:42:13Z</time>
      </trkpt>
      <trkpt lat="45.85255" lon="6.44618">
        <ele>2182.7</ele>
        <time>2024-04-27T08:42:14Z</time>
      </trkpt>
      <trkpt lat="45.85255" lon="6.44617">
        <ele>2182.7</ele>
        <time>2024-04-27T08:42:15Z</time>
      </trkpt>
      <trkpt lat="45.85255" lon="6.44616">
        <ele>2182.7</ele>
        <time>2024-04-27T08:42:16Z</time>
      </trkpt>
      <trkpt lat="45.85255" lon="6.44615">
        <ele>2183.6</ele>
        <time>2024-04-27T08:42:17Z</time>
      </trkpt>
      <trkpt lat="45.85255" lon="6.44614">
        <ele>2183.6</ele>
        <time>2024-04-27T08:42:18Z</time>
      </trkpt>
      <trkpt lat="45.85255" lon="6.44613">
        <ele>2183.6</ele>
        <time>2024-04-27T08:42:19Z</time>
      </trkpt>
      <trkpt lat="45.85254" lon="6.44611">
        <ele>2183.6</ele>
        <time>2024-04-27T08:42:20Z</time>
      </trkpt>
      <trkpt lat="45.85254" lon="6.4461">
        <ele>2183.6</ele>
        <time>2024-04-27T08:42:21Z</time>
      </trkpt>
      <trkpt lat="45.85254" lon="6.44608">
        <ele>2183.6</ele>
        <time>2024-04-27T08:42:22Z</time>
      </trkpt>
      <trkpt lat="45.85254" lon="6.44607">
        <ele>2183.6</ele>
        <time>2024-04-27T08:42:23Z</time>
      </trkpt>
      <trkpt lat="45.85254" lon="6.44606">
        <ele>2183.6</ele>
        <time>2024-04-27T08:42:24Z</time>
      </trkpt>
      <trkpt lat="45.85254" lon="6.44606">
        <ele>2183.6</ele>
        <time>2024-04-27T08:42:25Z</time>
      </trkpt>
      <trkpt lat="45.85254" lon="6.44604">
        <ele>2183.6</ele>
        <time>2024-04-27T08:42:26Z</time>
      </trkpt>
      <trkpt lat="45.85254" lon="6.44603">
        <ele>2183.6</ele>
        <time>2024-04-27T08:42:27Z</time>
      </trkpt>
      <trkpt lat="45.85254" lon="6.44601">
        <ele>2183.6</ele>
        <time>2024-04-27T08:42:28Z</time>
      </trkpt>
      <trkpt lat="45.85254" lon="6.44601">
        <ele>2184.7</ele>
        <time>2024-04-27T08:42:29Z</time>
      </trkpt>
      <trkpt lat="45.85254" lon="6.44601">
        <ele>2184.7</ele>
        <time>2024-04-27T08:42:30Z</time>
      </trkpt>
      <trkpt lat="45.85254" lon="6.44601">
        <ele>2184.7</ele>
        <time>2024-04-27T08:42:31Z</time>
      </trkpt>
      <trkpt lat="45.85254" lon="6.44601">
        <ele>2184.7</ele>
        <time>2024-04-27T08:42:32Z</time>
      </trkpt>
      <trkpt lat="45.85254" lon="6.44601">
        <ele>2184.7</ele>
        <time>2024-04-27T08:42:33Z</time>
      </trkpt>
      <trkpt lat="45.85254" lon="6.44602">
        <ele>2184.7</ele>
        <time>2024-04-27T08:42:34Z</time>
      </trkpt>
      <trkpt lat="45.85254" lon="6.44603">
        <ele>2184.7</ele>
        <time>2024-04-27T08:42:35Z</time>
      </trkpt>
      <trkpt lat="45.85254" lon="6.44604">
        <ele>2184.7</ele>
        <time>2024-04-27T08:42:36Z</time>
      </trkpt>
      <trkpt lat="45.85254" lon="6.44605">
        <ele>2184.7</ele>
        <time>2024-04-27T08:42:37Z</time>
      </trkpt>
      <trkpt lat="45.85253" lon="6.44606">
        <ele>2184.7</ele>
        <time>2024-04-27T08:42:38Z</time>
      </trkpt>
      <trkpt lat="45.85253" lon="6.44607">
        <ele>2184.7</ele>
        <time>2024-04-27T08:42:39Z</time>
      </trkpt>
      <trkpt lat="45.85253" lon="6.44608">
        <ele>2184.7</ele>
        <time>2024-04-27T08:42:40Z</time>
      </trkpt>
      <trkpt lat="45.85252" lon="6.44609">
        <ele>2186.7</ele>
        <time>2024-04-27T08:42:41Z</time>
      </trkpt>
      <trkpt lat="45.85252" lon="6.4461">
        <ele>2186.7</ele>
        <time>2024-04-27T08:42:42Z</time>
      </trkpt>
      <trkpt lat="45.85251" lon="6.44611">
        <ele>2186.7</ele>
        <time>2024-04-27T08:42:43Z</time>
      </trkpt>
      <trkpt lat="45.85251" lon="6.44613">
        <ele>2186.7</ele>
        <time>2024-04-27T08:42:44Z</time>
      </trkpt>
      <trkpt lat="45.85251" lon="6.44614">
        <ele>2187.6</ele>
        <time>2024-04-27T08:42:45Z</time>
      </trkpt>
      <trkpt lat="45.85251" lon="6.44616">
        <ele>2187.6</ele>
        <time>2024-04-27T08:42:46Z</time>
      </trkpt>
      <trkpt lat="45.85251" lon="6.44617">
        <ele>2187.6</ele>
        <time>2024-04-27T08:42:47Z</time>
      </trkpt>
      <trkpt lat="45.85251" lon="6.44618">
        <ele>2187.6</ele>
        <time>2024-04-27T08:42:48Z</time>
      </trkpt>
      <trkpt lat="45.85251" lon="6.44619">
        <ele>2187.6</ele>
        <time>2024-04-27T08:42:49Z</time>
      </trkpt>
      <trkpt lat="45.85251" lon="6.44621">
        <ele>2187.6</ele>
        <time>2024-04-27T08:42:50Z</time>
      </trkpt>
      <trkpt lat="45.85251" lon="6.44623">
        <ele>2187.6</ele>
        <time>2024-04-27T08:42:51Z</time>
      </trkpt>
      <trkpt lat="45.85252" lon="6.44624">
        <ele>2187.6</ele>
        <time>2024-04-27T08:42:52Z</time>
      </trkpt>
      <trkpt lat="45.85252" lon="6.44625">
        <ele>2187.6</ele>
        <time>2024-04-27T08:42:53Z</time>
      </trkpt>
      <trkpt lat="45.85252" lon="6.44626">
        <ele>2187.6</ele>
        <time>2024-04-27T08:42:54Z</time>
      </trkpt>
      <trkpt lat="45.85252" lon="6.44627">
        <ele>2188.6</ele>
        <time>2024-04-27T08:42:55Z</time>
      </trkpt>
      <trkpt lat="45.85251" lon="6.44627">
        <ele>2188.6</ele>
        <time>2024-04-27T08:42:56Z</time>
      </trkpt>
      <trkpt lat="45.85251" lon="6.44628">
        <ele>2188.6</ele>
        <time>2024-04-27T08:42:57Z</time>
      </trkpt>
      <trkpt lat="45.85251" lon="6.44629">
        <ele>2188.6</ele>
        <time>2024-04-27T08:42:58Z</time>
      </trkpt>
      <trkpt lat="45.85251" lon="6.4463">
        <ele>2188.6</ele>
        <time>2024-04-27T08:42:59Z</time>
      </trkpt>
      <trkpt lat="45.85251" lon="6.44631">
        <ele>2188.6</ele>
        <time>2024-04-27T08:43:00Z</time>
      </trkpt>
      <trkpt lat="45.85251" lon="6.44632">
        <ele>2188.6</ele>
        <time>2024-04-27T08:43:01Z</time>
      </trkpt>
      <trkpt lat="45.85252" lon="6.44633">
        <ele>2188.6</ele>
        <time>2024-04-27T08:43:02Z</time>
      </trkpt>
      <trkpt lat="45.85252" lon="6.44634">
        <ele>2189.7</ele>
        <time>2024-04-27T08:43:03Z</time>
      </trkpt>
      <trkpt lat="45.85251" lon="6.44635">
        <ele>2189.7</ele>
        <time>2024-04-27T08:43:04Z</time>
      </trkpt>
      <trkpt lat="45.85251" lon="6.44636">
        <ele>2189.7</ele>
        <time>2024-04-27T08:43:05Z</time>
      </trkpt>
      <trkpt lat="45.85251" lon="6.44637">
        <ele>2189.7</ele>
        <time>2024-04-27T08:43:06Z</time>
      </trkpt>
      <trkpt lat="45.85251" lon="6.44638">
        <ele>2189.7</ele>
        <time>2024-04-27T08:43:07Z</time>
      </trkpt>
      <trkpt lat="45.85251" lon="6.44639">
        <ele>2189.7</ele>
        <time>2024-04-27T08:43:08Z</time>
      </trkpt>
      <trkpt lat="45.85251" lon="6.4464">
        <ele>2189.7</ele>
        <time>2024-04-27T08:43:09Z</time>
      </trkpt>
      <trkpt lat="45.85251" lon="6.44641">
        <ele>2189.7</ele>
        <time>2024-04-27T08:43:10Z</time>
      </trkpt>
      <trkpt lat="45.85252" lon="6.44642">
        <ele>2189.7</ele>
        <time>2024-04-27T08:43:11Z</time>
      </trkpt>
      <trkpt lat="45.85252" lon="6.44643">
        <ele>2189.7</ele>
        <time>2024-04-27T08:43:12Z</time>
      </trkpt>
      <trkpt lat="45.85252" lon="6.44644">
        <ele>2189.7</ele>
        <time>2024-04-27T08:43:13Z</time>
      </trkpt>
      <trkpt lat="45.85252" lon="6.44645">
        <ele>2189.7</ele>
        <time>2024-04-27T08:43:14Z</time>
      </trkpt>
      <trkpt lat="45.85252" lon="6.44645">
        <ele>2189.7</ele>
        <time>2024-04-27T08:43:15Z</time>
      </trkpt>
      <trkpt lat="45.85252" lon="6.44647">
        <ele>2189.7</ele>
        <time>2024-04-27T08:43:16Z</time>
      </trkpt>
      <trkpt lat="45.85252" lon="6.44647">
        <ele>2189.7</ele>
        <time>2024-04-27T08:43:17Z</time>
      </trkpt>
      <trkpt lat="45.85252" lon="6.44648">
        <ele>2189.7</ele>
        <time>2024-04-27T08:43:18Z</time>
      </trkpt>
      <trkpt lat="45.85252" lon="6.44648">
        <ele>2190.6</ele>
        <time>2024-04-27T08:43:19Z</time>
      </trkpt>
      <trkpt lat="45.85251" lon="6.44648">
        <ele>2190.6</ele>
        <time>2024-04-27T08:43:20Z</time>
      </trkpt>
      <trkpt lat="45.85251" lon="6.44648">
        <ele>2190.6</ele>
        <time>2024-04-27T08:43:21Z</time>
      </trkpt>
      <trkpt lat="45.8525" lon="6.44647">
        <ele>2190.6</ele>
        <time>2024-04-27T08:43:22Z</time>
      </trkpt>
      <trkpt lat="45.85249" lon="6.44646">
        <ele>2190.6</ele>
        <time>2024-04-27T08:43:23Z</time>
      </trkpt>
      <trkpt lat="45.85248" lon="6.44644">
        <ele>2190.6</ele>
        <time>2024-04-27T08:43:24Z</time>
      </trkpt>
      <trkpt lat="45.85248" lon="6.44643">
        <ele>2191.7</ele>
        <time>2024-04-27T08:43:25Z</time>
      </trkpt>
      <trkpt lat="45.85248" lon="6.44642">
        <ele>2191.7</ele>
        <time>2024-04-27T08:43:26Z</time>
      </trkpt>
      <trkpt lat="45.85247" lon="6.44641">
        <ele>2191.7</ele>
        <time>2024-04-27T08:43:27Z</time>
      </trkpt>
      <trkpt lat="45.85247" lon="6.44639">
        <ele>2191.7</ele>
        <time>2024-04-27T08:43:28Z</time>
      </trkpt>
      <trkpt lat="45.85247" lon="6.44637">
        <ele>2191.7</ele>
        <time>2024-04-27T08:43:29Z</time>
      </trkpt>
      <trkpt lat="45.85246" lon="6.44635">
        <ele>2191.7</ele>
        <time>2024-04-27T08:43:30Z</time>
      </trkpt>
      <trkpt lat="45.85245" lon="6.44633">
        <ele>2191.7</ele>
        <time>2024-04-27T08:43:31Z</time>
      </trkpt>
      <trkpt lat="45.85245" lon="6.44631">
        <ele>2191.7</ele>
        <time>2024-04-27T08:43:32Z</time>
      </trkpt>
      <trkpt lat="45.85244" lon="6.44628">
        <ele>2191.7</ele>
        <time>2024-04-27T08:43:33Z</time>
      </trkpt>
      <trkpt lat="45.85244" lon="6.44626">
        <ele>2191.7</ele>
        <time>2024-04-27T08:43:34Z</time>
      </trkpt>
      <trkpt lat="45.85243" lon="6.44624">
        <ele>2192.6</ele>
        <time>2024-04-27T08:43:35Z</time>
      </trkpt>
      <trkpt lat="45.85243" lon="6.44622">
        <ele>2192.6</ele>
        <time>2024-04-27T08:43:36Z</time>
      </trkpt>
      <trkpt lat="45.85242" lon="6.4462">
        <ele>2192.6</ele>
        <time>2024-04-27T08:43:37Z</time>
      </trkpt>
      <trkpt lat="45.85242" lon="6.44618">
        <ele>2192.6</ele>
        <time>2024-04-27T08:43:38Z</time>
      </trkpt>
      <trkpt lat="45.85241" lon="6.44616">
        <ele>2193.7</ele>
        <time>2024-04-27T08:43:39Z</time>
      </trkpt>
      <trkpt lat="45.85241" lon="6.44614">
        <ele>2193.7</ele>
        <time>2024-04-27T08:43:40Z</time>
      </trkpt>
      <trkpt lat="45.85241" lon="6.44613">
        <ele>2193.7</ele>
        <time>2024-04-27T08:43:41Z</time>
      </trkpt>
      <trkpt lat="45.85241" lon="6.44611">
        <ele>2193.7</ele>
        <time>2024-04-27T08:43:42Z</time>
      </trkpt>
      <trkpt lat="45.8524" lon="6.4461">
        <ele>2193.7</ele>
        <time>2024-04-27T08:43:43Z</time>
      </trkpt>
      <trkpt lat="45.85239" lon="6.44609">
        <ele>2193.7</ele>
        <time>2024-04-27T08:43:44Z</time>
      </trkpt>
      <trkpt lat="45.85239" lon="6.44607">
        <ele>2194.6</ele>
        <time>2024-04-27T08:43:45Z</time>
      </trkpt>
      <trkpt lat="45.85239" lon="6.44606">
        <ele>2194.6</ele>
        <time>2024-04-27T08:43:46Z</time>
      </trkpt>
      <trkpt lat="45.85238" lon="6.44605">
        <ele>2194.6</ele>
        <time>2024-04-27T08:43:47Z</time>
      </trkpt>
      <trkpt lat="45.85237" lon="6.44602">
        <ele>2194.6</ele>
        <time>2024-04-27T08:43:48Z</time>
      </trkpt>
      <trkpt lat="45.85237" lon="6.44601">
        <ele>2194.6</ele>
        <time>2024-04-27T08:43:49Z</time>
      </trkpt>
      <trkpt lat="45.85237" lon="6.446">
        <ele>2194.6</ele>
        <time>2024-04-27T08:43:50Z</time>
      </trkpt>
      <trkpt lat="45.85237" lon="6.44598">
        <ele>2195.7</ele>
        <time>2024-04-27T08:43:51Z</time>
      </trkpt>
      <trkpt lat="45.85237" lon="6.44597">
        <ele>2195.7</ele>
        <time>2024-04-27T08:43:52Z</time>
      </trkpt>
      <trkpt lat="45.85236" lon="6.44595">
        <ele>2195.7</ele>
        <time>2024-04-27T08:43:53Z</time>
      </trkpt>
      <trkpt lat="45.85236" lon="6.44595">
        <ele>2195.7</ele>
        <time>2024-04-27T08:43:54Z</time>
      </trkpt>
      <trkpt lat="45.85236" lon="6.44595">
        <ele>2195.7</ele>
        <time>2024-04-27T08:43:55Z</time>
      </trkpt>
      <trkpt lat="45.85237" lon="6.44595">
        <ele>2195.7</ele>
        <time>2024-04-27T08:43:56Z</time>
      </trkpt>
      <trkpt lat="45.85238" lon="6.44596">
        <ele>2195.7</ele>
        <time>2024-04-27T08:43:57Z</time>
      </trkpt>
      <trkpt lat="45.85239" lon="6.44596">
        <ele>2195.7</ele>
        <time>2024-04-27T08:43:58Z</time>
      </trkpt>
      <trkpt lat="45.85238" lon="6.44597">
        <ele>2197.6</ele>
        <time>2024-04-27T08:43:59Z</time>
      </trkpt>
      <trkpt lat="45.85239" lon="6.44598">
        <ele>2197.6</ele>
        <time>2024-04-27T08:44:00Z</time>
      </trkpt>
      <trkpt lat="45.85239" lon="6.44599">
        <ele>2197.6</ele>
        <time>2024-04-27T08:44:01Z</time>
      </trkpt>
      <trkpt lat="45.85239" lon="6.446">
        <ele>2197.6</ele>
        <time>2024-04-27T08:44:02Z</time>
      </trkpt>
      <trkpt lat="45.85239" lon="6.446">
        <ele>2197.6</ele>
        <time>2024-04-27T08:44:03Z</time>
      </trkpt>
      <trkpt lat="45.85238" lon="6.44602">
        <ele>2197.6</ele>
        <time>2024-04-27T08:44:04Z</time>
      </trkpt>
      <trkpt lat="45.85238" lon="6.44602">
        <ele>2197.6</ele>
        <time>2024-04-27T08:44:05Z</time>
      </trkpt>
      <trkpt lat="45.85237" lon="6.44603">
        <ele>2197.6</ele>
        <time>2024-04-27T08:44:06Z</time>
      </trkpt>
      <trkpt lat="45.85237" lon="6.44604">
        <ele>2197.6</ele>
        <time>2024-04-27T08:44:07Z</time>
      </trkpt>
      <trkpt lat="45.85236" lon="6.44605">
        <ele>2197.6</ele>
        <time>2024-04-27T08:44:08Z</time>
      </trkpt>
      <trkpt lat="45.85236" lon="6.44606">
        <ele>2197.6</ele>
        <time>2024-04-27T08:44:09Z</time>
      </trkpt>
      <trkpt lat="45.85235" lon="6.44607">
        <ele>2197.6</ele>
        <time>2024-04-27T08:44:10Z</time>
      </trkpt>
      <trkpt lat="45.85235" lon="6.44608">
        <ele>2197.6</ele>
        <time>2024-04-27T08:44:11Z</time>
      </trkpt>
      <trkpt lat="45.85235" lon="6.44609">
        <ele>2197.6</ele>
        <time>2024-04-27T08:44:12Z</time>
      </trkpt>
      <trkpt lat="45.85234" lon="6.44611">
        <ele>2198.7</ele>
        <time>2024-04-27T08:44:13Z</time>
      </trkpt>
      <trkpt lat="45.85235" lon="6.44611">
        <ele>2198.7</ele>
        <time>2024-04-27T08:44:14Z</time>
      </trkpt>
      <trkpt lat="45.85235" lon="6.44612">
        <ele>2199.6</ele>
        <time>2024-04-27T08:44:15Z</time>
      </trkpt>
      <trkpt lat="45.85235" lon="6.44614">
        <ele>2199.6</ele>
        <time>2024-04-27T08:44:16Z</time>
      </trkpt>
      <trkpt lat="45.85235" lon="6.44615">
        <ele>2199.6</ele>
        <time>2024-04-27T08:44:17Z</time>
      </trkpt>
      <trkpt lat="45.85235" lon="6.44616">
        <ele>2199.6</ele>
        <time>2024-04-27T08:44:18Z</time>
      </trkpt>
      <trkpt lat="45.85235" lon="6.44617">
        <ele>2200.7</ele>
        <time>2024-04-27T08:44:19Z</time>
      </trkpt>
      <trkpt lat="45.85235" lon="6.44618">
        <ele>2200.7</ele>
        <time>2024-04-27T08:44:20Z</time>
      </trkpt>
      <trkpt lat="45.85235" lon="6.44619">
        <ele>2200.7</ele>
        <time>2024-04-27T08:44:21Z</time>
      </trkpt>
      <trkpt lat="45.85235" lon="6.4462">
        <ele>2200.7</ele>
        <time>2024-04-27T08:44:22Z</time>
      </trkpt>
      <trkpt lat="45.85235" lon="6.44621">
        <ele>2201.6</ele>
        <time>2024-04-27T08:44:23Z</time>
      </trkpt>
      <trkpt lat="45.85235" lon="6.44622">
        <ele>2201.6</ele>
        <time>2024-04-27T08:44:24Z</time>
      </trkpt>
      <trkpt lat="45.85234" lon="6.44623">
        <ele>2202.7</ele>
        <time>2024-04-27T08:44:25Z</time>
      </trkpt>
      <trkpt lat="45.85234" lon="6.44624">
        <ele>2202.7</ele>
        <time>2024-04-27T08:44:26Z</time>
      </trkpt>
      <trkpt lat="45.85235" lon="6.44625">
        <ele>2202.7</ele>
        <time>2024-04-27T08:44:27Z</time>
      </trkpt>
      <trkpt lat="45.85235" lon="6.44627">
        <ele>2202.7</ele>
        <time>2024-04-27T08:44:28Z</time>
      </trkpt>
      <trkpt lat="45.85235" lon="6.44628">
        <ele>2202.7</ele>
        <time>2024-04-27T08:44:29Z</time>
      </trkpt>
      <trkpt lat="45.85235" lon="6.44629">
        <ele>2202.7</ele>
        <time>2024-04-27T08:44:30Z</time>
      </trkpt>
      <trkpt lat="45.85235" lon="6.4463">
        <ele>2202.7</ele>
        <time>2024-04-27T08:44:31Z</time>
      </trkpt>
      <trkpt lat="45.85234" lon="6.44631">
        <ele>2202.7</ele>
        <time>2024-04-27T08:44:32Z</time>
      </trkpt>
      <trkpt lat="45.85233" lon="6.44632">
        <ele>2202.7</ele>
        <time>2024-04-27T08:44:33Z</time>
      </trkpt>
      <trkpt lat="45.85234" lon="6.44633">
        <ele>2202.7</ele>
        <time>2024-04-27T08:44:34Z</time>
      </trkpt>
      <trkpt lat="45.85234" lon="6.44634">
        <ele>2203.6</ele>
        <time>2024-04-27T08:44:35Z</time>
      </trkpt>
      <trkpt lat="45.85234" lon="6.44635">
        <ele>2203.6</ele>
        <time>2024-04-27T08:44:36Z</time>
      </trkpt>
      <trkpt lat="45.85234" lon="6.44636">
        <ele>2203.6</ele>
        <time>2024-04-27T08:44:37Z</time>
      </trkpt>
      <trkpt lat="45.85234" lon="6.44637">
        <ele>2203.6</ele>
        <time>2024-04-27T08:44:38Z</time>
      </trkpt>
      <trkpt lat="45.85234" lon="6.44638">
        <ele>2203.6</ele>
        <time>2024-04-27T08:44:39Z</time>
      </trkpt>
      <trkpt lat="45.85234" lon="6.44639">
        <ele>2203.6</ele>
        <time>2024-04-27T08:44:40Z</time>
      </trkpt>
      <trkpt lat="45.85234" lon="6.4464">
        <ele>2204.6</ele>
        <time>2024-04-27T08:44:41Z</time>
      </trkpt>
      <trkpt lat="45.85234" lon="6.44641">
        <ele>2204.6</ele>
        <time>2024-04-27T08:44:42Z</time>
      </trkpt>
      <trkpt lat="45.85234" lon="6.44642">
        <ele>2205.7</ele>
        <time>2024-04-27T08:44:43Z</time>
      </trkpt>
      <trkpt lat="45.85234" lon="6.44643">
        <ele>2205.7</ele>
        <time>2024-04-27T08:44:44Z</time>
      </trkpt>
      <trkpt lat="45.85234" lon="6.44644">
        <ele>2205.7</ele>
        <time>2024-04-27T08:44:45Z</time>
      </trkpt>
      <trkpt lat="45.85234" lon="6.44644">
        <ele>2205.7</ele>
        <time>2024-04-27T08:44:46Z</time>
      </trkpt>
      <trkpt lat="45.85234" lon="6.44644">
        <ele>2205.7</ele>
        <time>2024-04-27T08:44:47Z</time>
      </trkpt>
      <trkpt lat="45.85234" lon="6.44645">
        <ele>2205.7</ele>
        <time>2024-04-27T08:44:48Z</time>
      </trkpt>
      <trkpt lat="45.85234" lon="6.44644">
        <ele>2206.6</ele>
        <time>2024-04-27T08:44:49Z</time>
      </trkpt>
      <trkpt lat="45.85233" lon="6.44644">
        <ele>2206.6</ele>
        <time>2024-04-27T08:44:50Z</time>
      </trkpt>
      <trkpt lat="45.85233" lon="6.44643">
        <ele>2206.6</ele>
        <time>2024-04-27T08:44:51Z</time>
      </trkpt>
      <trkpt lat="45.85232" lon="6.44642">
        <ele>2206.6</ele>
        <time>2024-04-27T08:44:52Z</time>
      </trkpt>
      <trkpt lat="45.85231" lon="6.44641">
        <ele>2206.6</ele>
        <time>2024-04-27T08:44:53Z</time>
      </trkpt>
      <trkpt lat="45.8523" lon="6.44639">
        <ele>2206.6</ele>
        <time>2024-04-27T08:44:54Z</time>
      </trkpt>
      <trkpt lat="45.85229" lon="6.44637">
        <ele>2206.6</ele>
        <time>2024-04-27T08:44:55Z</time>
      </trkpt>
      <trkpt lat="45.85229" lon="6.44636">
        <ele>2206.6</ele>
        <time>2024-04-27T08:44:56Z</time>
      </trkpt>
      <trkpt lat="45.85228" lon="6.44634">
        <ele>2206.6</ele>
        <time>2024-04-27T08:44:57Z</time>
      </trkpt>
      <trkpt lat="45.85228" lon="6.44632">
        <ele>2206.6</ele>
        <time>2024-04-27T08:44:58Z</time>
      </trkpt>
      <trkpt lat="45.85227" lon="6.44631">
        <ele>2206.6</ele>
        <time>2024-04-27T08:44:59Z</time>
      </trkpt>
      <trkpt lat="45.85226" lon="6.44629">
        <ele>2206.6</ele>
        <time>2024-04-27T08:45:00Z</time>
      </trkpt>
      <trkpt lat="45.85226" lon="6.44627">
        <ele>2206.6</ele>
        <time>2024-04-27T08:45:01Z</time>
      </trkpt>
      <trkpt lat="45.85226" lon="6.44626">
        <ele>2206.6</ele>
        <time>2024-04-27T08:45:02Z</time>
      </trkpt>
      <trkpt lat="45.85226" lon="6.44625">
        <ele>2208.6</ele>
        <time>2024-04-27T08:45:03Z</time>
      </trkpt>
      <trkpt lat="45.85226" lon="6.44623">
        <ele>2208.6</ele>
        <time>2024-04-27T08:45:04Z</time>
      </trkpt>
      <trkpt lat="45.85226" lon="6.44622">
        <ele>2208.6</ele>
        <time>2024-04-27T08:45:05Z</time>
      </trkpt>
      <trkpt lat="45.85225" lon="6.44621">
        <ele>2208.6</ele>
        <time>2024-04-27T08:45:06Z</time>
      </trkpt>
      <trkpt lat="45.85224" lon="6.4462">
        <ele>2209.7</ele>
        <time>2024-04-27T08:45:07Z</time>
      </trkpt>
      <trkpt lat="45.85223" lon="6.44618">
        <ele>2209.7</ele>
        <time>2024-04-27T08:45:08Z</time>
      </trkpt>
      <trkpt lat="45.85223" lon="6.44617">
        <ele>2209.7</ele>
        <time>2024-04-27T08:45:09Z</time>
      </trkpt>
      <trkpt lat="45.85223" lon="6.44615">
        <ele>2209.7</ele>
        <time>2024-04-27T08:45:10Z</time>
      </trkpt>
      <trkpt lat="45.85223" lon="6.44613">
        <ele>2210.6</ele>
        <time>2024-04-27T08:45:11Z</time>
      </trkpt>
      <trkpt lat="45.85223" lon="6.44612">
        <ele>2210.6</ele>
        <time>2024-04-27T08:45:12Z</time>
      </trkpt>
      <trkpt lat="45.85222" lon="6.44611">
        <ele>2210.6</ele>
        <time>2024-04-27T08:45:13Z</time>
      </trkpt>
      <trkpt lat="45.85222" lon="6.4461">
        <ele>2210.6</ele>
        <time>2024-04-27T08:45:14Z</time>
      </trkpt>
      <trkpt lat="45.85222" lon="6.44608">
        <ele>2210.6</ele>
        <time>2024-04-27T08:45:15Z</time>
      </trkpt>
      <trkpt lat="45.85222" lon="6.44608">
        <ele>2210.6</ele>
        <time>2024-04-27T08:45:16Z</time>
      </trkpt>
      <trkpt lat="45.85222" lon="6.44607">
        <ele>2210.6</ele>
        <time>2024-04-27T08:45:17Z</time>
      </trkpt>
      <trkpt lat="45.85223" lon="6.44607">
        <ele>2210.6</ele>
        <time>2024-04-27T08:45:18Z</time>
      </trkpt>
      <trkpt lat="45.85223" lon="6.44607">
        <ele>2210.6</ele>
        <time>2024-04-27T08:45:19Z</time>
      </trkpt>
      <trkpt lat="45.85223" lon="6.44607">
        <ele>2210.6</ele>
        <time>2024-04-27T08:45:20Z</time>
      </trkpt>
      <trkpt lat="45.85223" lon="6.44607">
        <ele>2211.7</ele>
        <time>2024-04-27T08:45:21Z</time>
      </trkpt>
      <trkpt lat="45.85223" lon="6.44608">
        <ele>2211.7</ele>
        <time>2024-04-27T08:45:22Z</time>
      </trkpt>
      <trkpt lat="45.85223" lon="6.44608">
        <ele>2211.7</ele>
        <time>2024-04-27T08:45:23Z</time>
      </trkpt>
      <trkpt lat="45.85223" lon="6.44609">
        <ele>2211.7</ele>
        <time>2024-04-27T08:45:24Z</time>
      </trkpt>
      <trkpt lat="45.85222" lon="6.4461">
        <ele>2211.7</ele>
        <time>2024-04-27T08:45:25Z</time>
      </trkpt>
      <trkpt lat="45.85222" lon="6.44612">
        <ele>2211.7</ele>
        <time>2024-04-27T08:45:26Z</time>
      </trkpt>
      <trkpt lat="45.85222" lon="6.44613">
        <ele>2211.7</ele>
        <time>2024-04-27T08:45:27Z</time>
      </trkpt>
      <trkpt lat="45.85222" lon="6.44614">
        <ele>2211.7</ele>
        <time>2024-04-27T08:45:28Z</time>
      </trkpt>
      <trkpt lat="45.85222" lon="6.44616">
        <ele>2212.7</ele>
        <time>2024-04-27T08:45:29Z</time>
      </trkpt>
      <trkpt lat="45.85222" lon="6.44618">
        <ele>2212.7</ele>
        <time>2024-04-27T08:45:30Z</time>
      </trkpt>
      <trkpt lat="45.85222" lon="6.4462">
        <ele>2212.7</ele>
        <time>2024-04-27T08:45:31Z</time>
      </trkpt>
      <trkpt lat="45.85222" lon="6.44622">
        <ele>2212.7</ele>
        <time>2024-04-27T08:45:32Z</time>
      </trkpt>
      <trkpt lat="45.85221" lon="6.44623">
        <ele>2212.7</ele>
        <time>2024-04-27T08:45:33Z</time>
      </trkpt>
      <trkpt lat="45.85221" lon="6.44624">
        <ele>2212.7</ele>
        <time>2024-04-27T08:45:34Z</time>
      </trkpt>
      <trkpt lat="45.85221" lon="6.44625">
        <ele>2213.6</ele>
        <time>2024-04-27T08:45:35Z</time>
      </trkpt>
      <trkpt lat="45.8522" lon="6.44626">
        <ele>2213.6</ele>
        <time>2024-04-27T08:45:36Z</time>
      </trkpt>
      <trkpt lat="45.85219" lon="6.44628">
        <ele>2213.6</ele>
        <time>2024-04-27T08:45:37Z</time>
      </trkpt>
      <trkpt lat="45.85219" lon="6.4463">
        <ele>2213.6</ele>
        <time>2024-04-27T08:45:38Z</time>
      </trkpt>
      <trkpt lat="45.8522" lon="6.44631">
        <ele>2213.6</ele>
        <time>2024-04-27T08:45:39Z</time>
      </trkpt>
      <trkpt lat="45.8522" lon="6.44633">
        <ele>2213.6</ele>
        <time>2024-04-27T08:45:40Z</time>
      </trkpt>
      <trkpt lat="45.8522" lon="6.44634">
        <ele>2213.6</ele>
        <time>2024-04-27T08:45:41Z</time>
      </trkpt>
      <trkpt lat="45.85221" lon="6.44635">
        <ele>2213.6</ele>
        <time>2024-04-27T08:45:42Z</time>
      </trkpt>
      <trkpt lat="45.85221" lon="6.44637">
        <ele>2213.6</ele>
        <time>2024-04-27T08:45:43Z</time>
      </trkpt>
      <trkpt lat="45.85222" lon="6.44638">
        <ele>2213.6</ele>
        <time>2024-04-27T08:45:44Z</time>
      </trkpt>
      <trkpt lat="45.85222" lon="6.44639">
        <ele>2213.6</ele>
        <time>2024-04-27T08:45:45Z</time>
      </trkpt>
      <trkpt lat="45.85222" lon="6.4464">
        <ele>2213.6</ele>
        <time>2024-04-27T08:45:46Z</time>
      </trkpt>
      <trkpt lat="45.85222" lon="6.44642">
        <ele>2214.7</ele>
        <time>2024-04-27T08:45:47Z</time>
      </trkpt>
      <trkpt lat="45.85222" lon="6.44643">
        <ele>2214.7</ele>
        <time>2024-04-27T08:45:48Z</time>
      </trkpt>
      <trkpt lat="45.85222" lon="6.44644">
        <ele>2215.6</ele>
        <time>2024-04-27T08:45:49Z</time>
      </trkpt>
      <trkpt lat="45.85222" lon="6.44645">
        <ele>2215.6</ele>
        <time>2024-04-27T08:45:50Z</time>
      </trkpt>
      <trkpt lat="45.85221" lon="6.44646">
        <ele>2215.6</ele>
        <time>2024-04-27T08:45:51Z</time>
      </trkpt>
      <trkpt lat="45.85221" lon="6.44648">
        <ele>2215.6</ele>
        <time>2024-04-27T08:45:52Z</time>
      </trkpt>
      <trkpt lat="45.85221" lon="6.44648">
        <ele>2215.6</ele>
        <time>2024-04-27T08:45:53Z</time>
      </trkpt>
      <trkpt lat="45.85221" lon="6.44648">
        <ele>2215.6</ele>
        <time>2024-04-27T08:45:54Z</time>
      </trkpt>
      <trkpt lat="45.85221" lon="6.44648">
        <ele>2215.6</ele>
        <time>2024-04-27T08:45:55Z</time>
      </trkpt>
      <trkpt lat="45.85221" lon="6.44648">
        <ele>2215.6</ele>
        <time>2024-04-27T08:45:56Z</time>
      </trkpt>
      <trkpt lat="45.85221" lon="6.44648">
        <ele>2218.7</ele>
        <time>2024-04-27T08:45:57Z</time>
      </trkpt>
      <trkpt lat="45.85221" lon="6.44647">
        <ele>2218.7</ele>
        <time>2024-04-27T08:45:58Z</time>
      </trkpt>
      <trkpt lat="45.85221" lon="6.44646">
        <ele>2218.7</ele>
        <time>2024-04-27T08:45:59Z</time>
      </trkpt>
      <trkpt lat="45.8522" lon="6.44645">
        <ele>2218.7</ele>
        <time>2024-04-27T08:46:00Z</time>
      </trkpt>
      <trkpt lat="45.8522" lon="6.44645">
        <ele>2218.7</ele>
        <time>2024-04-27T08:46:01Z</time>
      </trkpt>
      <trkpt lat="45.85219" lon="6.44643">
        <ele>2218.7</ele>
        <time>2024-04-27T08:46:02Z</time>
      </trkpt>
      <trkpt lat="45.85218" lon="6.44642">
        <ele>2218.7</ele>
        <time>2024-04-27T08:46:03Z</time>
      </trkpt>
      <trkpt lat="45.85217" lon="6.4464">
        <ele>2218.7</ele>
        <time>2024-04-27T08:46:04Z</time>
      </trkpt>
      <trkpt lat="45.85215" lon="6.44637">
        <ele>2218.7</ele>
        <time>2024-04-27T08:46:05Z</time>
      </trkpt>
      <trkpt lat="45.85213" lon="6.44635">
        <ele>2218.7</ele>
        <time>2024-04-27T08:46:06Z</time>
      </trkpt>
      <trkpt lat="45.85213" lon="6.44633">
        <ele>2218.7</ele>
        <time>2024-04-27T08:46:07Z</time>
      </trkpt>
      <trkpt lat="45.85213" lon="6.44632">
        <ele>2218.7</ele>
        <time>2024-04-27T08:46:08Z</time>
      </trkpt>
      <trkpt lat="45.85212" lon="6.4463">
        <ele>2219.6</ele>
        <time>2024-04-27T08:46:09Z</time>
      </trkpt>
      <trkpt lat="45.85212" lon="6.44629">
        <ele>2219.6</ele>
        <time>2024-04-27T08:46:10Z</time>
      </trkpt>
      <trkpt lat="45.85211" lon="6.44628">
        <ele>2219.6</ele>
        <time>2024-04-27T08:46:11Z</time>
      </trkpt>
      <trkpt lat="45.8521" lon="6.44627">
        <ele>2219.6</ele>
        <time>2024-04-27T08:46:12Z</time>
      </trkpt>
      <trkpt lat="45.85211" lon="6.44626">
        <ele>2219.6</ele>
        <time>2024-04-27T08:46:13Z</time>
      </trkpt>
      <trkpt lat="45.85211" lon="6.44625">
        <ele>2219.6</ele>
        <time>2024-04-27T08:46:14Z</time>
      </trkpt>
      <trkpt lat="45.8521" lon="6.44623">
        <ele>2219.6</ele>
        <time>2024-04-27T08:46:15Z</time>
      </trkpt>
      <trkpt lat="45.8521" lon="6.44623">
        <ele>2219.6</ele>
        <time>2024-04-27T08:46:16Z</time>
      </trkpt>
      <trkpt lat="45.8521" lon="6.44621">
        <ele>2220.6</ele>
        <time>2024-04-27T08:46:17Z</time>
      </trkpt>
      <trkpt lat="45.85209" lon="6.4462">
        <ele>2220.6</ele>
        <time>2024-04-27T08:46:18Z</time>
      </trkpt>
      <trkpt lat="45.85209" lon="6.44619">
        <ele>2220.6</ele>
        <time>2024-04-27T08:46:19Z</time>
      </trkpt>
      <trkpt lat="45.85207" lon="6.44617">
        <ele>2220.6</ele>
        <time>2024-04-27T08:46:20Z</time>
      </trkpt>
      <trkpt lat="45.85208" lon="6.44617">
        <ele>2220.6</ele>
        <time>2024-04-27T08:46:21Z</time>
      </trkpt>
      <trkpt lat="45.85209" lon="6.44617">
        <ele>2220.6</ele>
        <time>2024-04-27T08:46:22Z</time>
      </trkpt>
      <trkpt lat="45.8521" lon="6.44617">
        <ele>2220.6</ele>
        <time>2024-04-27T08:46:23Z</time>
      </trkpt>
      <trkpt lat="45.8521" lon="6.44617">
        <ele>2220.6</ele>
        <time>2024-04-27T08:46:24Z</time>
      </trkpt>
      <trkpt lat="45.8521" lon="6.44618">
        <ele>2221.7</ele>
        <time>2024-04-27T08:46:25Z</time>
      </trkpt>
      <trkpt lat="45.8521" lon="6.44618">
        <ele>2221.7</ele>
        <time>2024-04-27T08:46:26Z</time>
      </trkpt>
      <trkpt lat="45.8521" lon="6.44618">
        <ele>2221.7</ele>
        <time>2024-04-27T08:46:27Z</time>
      </trkpt>
      <trkpt lat="45.85211" lon="6.44619">
        <ele>2221.7</ele>
        <time>2024-04-27T08:46:28Z</time>
      </trkpt>
      <trkpt lat="45.85211" lon="6.4462">
        <ele>2220.6</ele>
        <time>2024-04-27T08:46:29Z</time>
      </trkpt>
      <trkpt lat="45.85211" lon="6.4462">
        <ele>2220.6</ele>
        <time>2024-04-27T08:46:30Z</time>
      </trkpt>
      <trkpt lat="45.85211" lon="6.44621">
        <ele>2220.6</ele>
        <time>2024-04-27T08:46:31Z</time>
      </trkpt>
      <trkpt lat="45.85211" lon="6.44622">
        <ele>2220.6</ele>
        <time>2024-04-27T08:46:32Z</time>
      </trkpt>
      <trkpt lat="45.85211" lon="6.44623">
        <ele>2220.6</ele>
        <time>2024-04-27T08:46:33Z</time>
      </trkpt>
      <trkpt lat="45.85211" lon="6.44625">
        <ele>2220.6</ele>
        <time>2024-04-27T08:46:34Z</time>
      </trkpt>
      <trkpt lat="45.85211" lon="6.44626">
        <ele>2220.6</ele>
        <time>2024-04-27T08:46:35Z</time>
      </trkpt>
      <trkpt lat="45.85212" lon="6.44628">
        <ele>2220.6</ele>
        <time>2024-04-27T08:46:36Z</time>
      </trkpt>
      <trkpt lat="45.85212" lon="6.44629">
        <ele>2221.7</ele>
        <time>2024-04-27T08:46:37Z</time>
      </trkpt>
      <trkpt lat="45.85212" lon="6.4463">
        <ele>2221.7</ele>
        <time>2024-04-27T08:46:38Z</time>
      </trkpt>
      <trkpt lat="45.85212" lon="6.44632">
        <ele>2221.7</ele>
        <time>2024-04-27T08:46:39Z</time>
      </trkpt>
      <trkpt lat="45.85212" lon="6.44633">
        <ele>2221.7</ele>
        <time>2024-04-27T08:46:40Z</time>
      </trkpt>
      <trkpt lat="45.85213" lon="6.44634">
        <ele>2222.6</ele>
        <time>2024-04-27T08:46:41Z</time>
      </trkpt>
      <trkpt lat="45.85214" lon="6.44636">
        <ele>2222.6</ele>
        <time>2024-04-27T08:46:42Z</time>
      </trkpt>
      <trkpt lat="45.85214" lon="6.44637">
        <ele>2222.6</ele>
        <time>2024-04-27T08:46:43Z</time>
      </trkpt>
      <trkpt lat="45.85214" lon="6.44638">
        <ele>2222.6</ele>
        <time>2024-04-27T08:46:44Z</time>
      </trkpt>
      <trkpt lat="45.85215" lon="6.44638">
        <ele>2223.7</ele>
        <time>2024-04-27T08:46:45Z</time>
      </trkpt>
      <trkpt lat="45.85215" lon="6.4464">
        <ele>2223.7</ele>
        <time>2024-04-27T08:46:46Z</time>
      </trkpt>
      <trkpt lat="45.85215" lon="6.44641">
        <ele>2223.7</ele>
        <time>2024-04-27T08:46:47Z</time>
      </trkpt>
      <trkpt lat="45.85215" lon="6.44642">
        <ele>2223.7</ele>
        <time>2024-04-27T08:46:48Z</time>
      </trkpt>
      <trkpt lat="45.85215" lon="6.44643">
        <ele>2223.7</ele>
        <time>2024-04-27T08:46:49Z</time>
      </trkpt>
      <trkpt lat="45.85214" lon="6.44644">
        <ele>2223.7</ele>
        <time>2024-04-27T08:46:50Z</time>
      </trkpt>
      <trkpt lat="45.85214" lon="6.44645">
        <ele>2223.7</ele>
        <time>2024-04-27T08:46:51Z</time>
      </trkpt>
      <trkpt lat="45.85214" lon="6.44646">
        <ele>2223.7</ele>
        <time>2024-04-27T08:46:52Z</time>
      </trkpt>
      <trkpt lat="45.85214" lon="6.44647">
        <ele>2223.7</ele>
        <time>2024-04-27T08:46:53Z</time>
      </trkpt>
      <trkpt lat="45.85214" lon="6.44648">
        <ele>2223.7</ele>
        <time>2024-04-27T08:46:54Z</time>
      </trkpt>
      <trkpt lat="45.85214" lon="6.44649">
        <ele>2224.6</ele>
        <time>2024-04-27T08:46:55Z</time>
      </trkpt>
      <trkpt lat="45.85213" lon="6.4465">
        <ele>2224.6</ele>
        <time>2024-04-27T08:46:56Z</time>
      </trkpt>
      <trkpt lat="45.85213" lon="6.44651">
        <ele>2224.6</ele>
        <time>2024-04-27T08:46:57Z</time>
      </trkpt>
      <trkpt lat="45.85214" lon="6.44652">
        <ele>2224.6</ele>
        <time>2024-04-27T08:46:58Z</time>
      </trkpt>
      <trkpt lat="45.85214" lon="6.44653">
        <ele>2224.6</ele>
        <time>2024-04-27T08:46:59Z</time>
      </trkpt>
      <trkpt lat="45.85213" lon="6.44653">
        <ele>2224.6</ele>
        <time>2024-04-27T08:47:00Z</time>
      </trkpt>
      <trkpt lat="45.85213" lon="6.44653">
        <ele>2225.7</ele>
        <time>2024-04-27T08:47:01Z</time>
      </trkpt>
      <trkpt lat="45.85213" lon="6.44652">
        <ele>2225.7</ele>
        <time>2024-04-27T08:47:02Z</time>
      </trkpt>
      <trkpt lat="45.85212" lon="6.44651">
        <ele>2225.7</ele>
        <time>2024-04-27T08:47:03Z</time>
      </trkpt>
      <trkpt lat="45.8521" lon="6.44649">
        <ele>2225.7</ele>
        <time>2024-04-27T08:47:04Z</time>
      </trkpt>
      <trkpt lat="45.85209" lon="6.44647">
        <ele>2226.6</ele>
        <time>2024-04-27T08:47:05Z</time>
      </trkpt>
      <trkpt lat="45.85207" lon="6.44645">
        <ele>2226.6</ele>
        <time>2024-04-27T08:47:06Z</time>
      </trkpt>
      <trkpt lat="45.85207" lon="6.44644">
        <ele>2226.6</ele>
        <time>2024-04-27T08:47:07Z</time>
      </trkpt>
      <trkpt lat="45.85207" lon="6.44642">
        <ele>2226.6</ele>
        <time>2024-04-27T08:47:08Z</time>
      </trkpt>
      <trkpt lat="45.85206" lon="6.44641">
        <ele>2227.7</ele>
        <time>2024-04-27T08:47:09Z</time>
      </trkpt>
      <trkpt lat="45.85206" lon="6.4464">
        <ele>2227.7</ele>
        <time>2024-04-27T08:47:10Z</time>
      </trkpt>
      <trkpt lat="45.85205" lon="6.44639">
        <ele>2227.7</ele>
        <time>2024-04-27T08:47:11Z</time>
      </trkpt>
      <trkpt lat="45.85205" lon="6.44638">
        <ele>2227.7</ele>
        <time>2024-04-27T08:47:12Z</time>
      </trkpt>
      <trkpt lat="45.85205" lon="6.44636">
        <ele>2227.7</ele>
        <time>2024-04-27T08:47:13Z</time>
      </trkpt>
      <trkpt lat="45.85205" lon="6.44636">
        <ele>2227.7</ele>
        <time>2024-04-27T08:47:14Z</time>
      </trkpt>
      <trkpt lat="45.85205" lon="6.44635">
        <ele>2228.7</ele>
        <time>2024-04-27T08:47:15Z</time>
      </trkpt>
      <trkpt lat="45.85205" lon="6.44634">
        <ele>2228.7</ele>
        <time>2024-04-27T08:47:16Z</time>
      </trkpt>
      <trkpt lat="45.85205" lon="6.44633">
        <ele>2228.7</ele>
        <time>2024-04-27T08:47:17Z</time>
      </trkpt>
      <trkpt lat="45.85205" lon="6.44632">
        <ele>2228.7</ele>
        <time>2024-04-27T08:47:18Z</time>
      </trkpt>
      <trkpt lat="45.85205" lon="6.44631">
        <ele>2228.7</ele>
        <time>2024-04-27T08:47:19Z</time>
      </trkpt>
      <trkpt lat="45.85204" lon="6.44631">
        <ele>2228.7</ele>
        <time>2024-04-27T08:47:20Z</time>
      </trkpt>
      <trkpt lat="45.85204" lon="6.4463">
        <ele>2228.7</ele>
        <time>2024-04-27T08:47:21Z</time>
      </trkpt>
      <trkpt lat="45.85203" lon="6.44629">
        <ele>2228.7</ele>
        <time>2024-04-27T08:47:22Z</time>
      </trkpt>
      <trkpt lat="45.85203" lon="6.44627">
        <ele>2229.6</ele>
        <time>2024-04-27T08:47:23Z</time>
      </trkpt>
      <trkpt lat="45.85203" lon="6.44627">
        <ele>2229.6</ele>
        <time>2024-04-27T08:47:24Z</time>
      </trkpt>
      <trkpt lat="45.85202" lon="6.44627">
        <ele>2229.6</ele>
        <time>2024-04-27T08:47:25Z</time>
      </trkpt>
      <trkpt lat="45.85202" lon="6.44627">
        <ele>2229.6</ele>
        <time>2024-04-27T08:47:26Z</time>
      </trkpt>
      <trkpt lat="45.85202" lon="6.44627">
        <ele>2229.6</ele>
        <time>2024-04-27T08:47:27Z</time>
      </trkpt>
      <trkpt lat="45.85203" lon="6.44628">
        <ele>2229.6</ele>
        <time>2024-04-27T08:47:28Z</time>
      </trkpt>
      <trkpt lat="45.85203" lon="6.44628">
        <ele>2229.6</ele>
        <time>2024-04-27T08:47:29Z</time>
      </trkpt>
      <trkpt lat="45.85203" lon="6.44629">
        <ele>2229.6</ele>
        <time>2024-04-27T08:47:30Z</time>
      </trkpt>
      <trkpt lat="45.85203" lon="6.44629">
        <ele>2229.6</ele>
        <time>2024-04-27T08:47:31Z</time>
      </trkpt>
      <trkpt lat="45.85203" lon="6.4463">
        <ele>2229.6</ele>
        <time>2024-04-27T08:47:32Z</time>
      </trkpt>
      <trkpt lat="45.85203" lon="6.44631">
        <ele>2229.6</ele>
        <time>2024-04-27T08:47:33Z</time>
      </trkpt>
      <trkpt lat="45.85203" lon="6.44632">
        <ele>2229.6</ele>
        <time>2024-04-27T08:47:34Z</time>
      </trkpt>
      <trkpt lat="45.85203" lon="6.44633">
        <ele>2229.6</ele>
        <time>2024-04-27T08:47:35Z</time>
      </trkpt>
      <trkpt lat="45.85204" lon="6.44635">
        <ele>2229.6</ele>
        <time>2024-04-27T08:47:36Z</time>
      </trkpt>
      <trkpt lat="45.85204" lon="6.44636">
        <ele>2229.6</ele>
        <time>2024-04-27T08:47:37Z</time>
      </trkpt>
      <trkpt lat="45.85204" lon="6.44637">
        <ele>2229.6</ele>
        <time>2024-04-27T08:47:38Z</time>
      </trkpt>
      <trkpt lat="45.85204" lon="6.44638">
        <ele>2229.6</ele>
        <time>2024-04-27T08:47:39Z</time>
      </trkpt>
      <trkpt lat="45.85204" lon="6.44639">
        <ele>2229.6</ele>
        <time>2024-04-27T08:47:40Z</time>
      </trkpt>
      <trkpt lat="45.85204" lon="6.4464">
        <ele>2230.7</ele>
        <time>2024-04-27T08:47:41Z</time>
      </trkpt>
      <trkpt lat="45.85204" lon="6.44641">
        <ele>2230.7</ele>
        <time>2024-04-27T08:47:42Z</time>
      </trkpt>
      <trkpt lat="45.85204" lon="6.44642">
        <ele>2230.7</ele>
        <time>2024-04-27T08:47:43Z</time>
      </trkpt>
      <trkpt lat="45.85204" lon="6.44643">
        <ele>2230.7</ele>
        <time>2024-04-27T08:47:44Z</time>
      </trkpt>
      <trkpt lat="45.85203" lon="6.44644">
        <ele>2230.7</ele>
        <time>2024-04-27T08:47:45Z</time>
      </trkpt>
      <trkpt lat="45.85203" lon="6.44645">
        <ele>2230.7</ele>
        <time>2024-04-27T08:47:46Z</time>
      </trkpt>
      <trkpt lat="45.85204" lon="6.44646">
        <ele>2231.6</ele>
        <time>2024-04-27T08:47:47Z</time>
      </trkpt>
      <trkpt lat="45.85204" lon="6.44647">
        <ele>2231.6</ele>
        <time>2024-04-27T08:47:48Z</time>
      </trkpt>
      <trkpt lat="45.85203" lon="6.44648">
        <ele>2231.6</ele>
        <time>2024-04-27T08:47:49Z</time>
      </trkpt>
      <trkpt lat="45.85203" lon="6.44649">
        <ele>2231.6</ele>
        <time>2024-04-27T08:47:50Z</time>
      </trkpt>
      <trkpt lat="45.85203" lon="6.4465">
        <ele>2231.6</ele>
        <time>2024-04-27T08:47:51Z</time>
      </trkpt>
      <trkpt lat="45.85203" lon="6.44651">
        <ele>2231.6</ele>
        <time>2024-04-27T08:47:52Z</time>
      </trkpt>
      <trkpt lat="45.85204" lon="6.44652">
        <ele>2232.7</ele>
        <time>2024-04-27T08:47:53Z</time>
      </trkpt>
      <trkpt lat="45.85203" lon="6.44653">
        <ele>2232.7</ele>
        <time>2024-04-27T08:47:54Z</time>
      </trkpt>
      <trkpt lat="45.85204" lon="6.44655">
        <ele>2232.7</ele>
        <time>2024-04-27T08:47:55Z</time>
      </trkpt>
      <trkpt lat="45.85204" lon="6.44656">
        <ele>2232.7</ele>
        <time>2024-04-27T08:47:56Z</time>
      </trkpt>
      <trkpt lat="45.85204" lon="6.44657">
        <ele>2233.6</ele>
        <time>2024-04-27T08:47:57Z</time>
      </trkpt>
      <trkpt lat="45.85204" lon="6.44658">
        <ele>2233.6</ele>
        <time>2024-04-27T08:47:58Z</time>
      </trkpt>
      <trkpt lat="45.85204" lon="6.44659">
        <ele>2233.6</ele>
        <time>2024-04-27T08:47:59Z</time>
      </trkpt>
      <trkpt lat="45.85204" lon="6.4466">
        <ele>2233.6</ele>
        <time>2024-04-27T08:48:00Z</time>
      </trkpt>
      <trkpt lat="45.85204" lon="6.44661">
        <ele>2233.6</ele>
        <time>2024-04-27T08:48:01Z</time>
      </trkpt>
      <trkpt lat="45.85204" lon="6.44661">
        <ele>2233.6</ele>
        <time>2024-04-27T08:48:02Z</time>
      </trkpt>
      <trkpt lat="45.85204" lon="6.44661">
        <ele>2234.7</ele>
        <time>2024-04-27T08:48:03Z</time>
      </trkpt>
      <trkpt lat="45.85204" lon="6.44661">
        <ele>2234.7</ele>
        <time>2024-04-27T08:48:04Z</time>
      </trkpt>
      <trkpt lat="45.85203" lon="6.44661">
        <ele>2234.7</ele>
        <time>2024-04-27T08:48:05Z</time>
      </trkpt>
      <trkpt lat="45.85203" lon="6.4466">
        <ele>2234.7</ele>
        <time>2024-04-27T08:48:06Z</time>
      </trkpt>
      <trkpt lat="45.85203" lon="6.4466">
        <ele>2234.7</ele>
        <time>2024-04-27T08:48:07Z</time>
      </trkpt>
      <trkpt lat="45.85203" lon="6.44659">
        <ele>2234.7</ele>
        <time>2024-04-27T08:48:08Z</time>
      </trkpt>
      <trkpt lat="45.85203" lon="6.44658">
        <ele>2235.6</ele>
        <time>2024-04-27T08:48:09Z</time>
      </trkpt>
      <trkpt lat="45.85202" lon="6.44657">
        <ele>2235.6</ele>
        <time>2024-04-27T08:48:10Z</time>
      </trkpt>
      <trkpt lat="45.85202" lon="6.44656">
        <ele>2235.6</ele>
        <time>2024-04-27T08:48:11Z</time>
      </trkpt>
      <trkpt lat="45.85202" lon="6.44655">
        <ele>2235.6</ele>
        <time>2024-04-27T08:48:12Z</time>
      </trkpt>
      <trkpt lat="45.85201" lon="6.44654">
        <ele>2235.6</ele>
        <time>2024-04-27T08:48:13Z</time>
      </trkpt>
      <trkpt lat="45.852" lon="6.44653">
        <ele>2235.6</ele>
        <time>2024-04-27T08:48:14Z</time>
      </trkpt>
      <trkpt lat="45.852" lon="6.44652">
        <ele>2235.6</ele>
        <time>2024-04-27T08:48:15Z</time>
      </trkpt>
      <trkpt lat="45.852" lon="6.44651">
        <ele>2235.6</ele>
        <time>2024-04-27T08:48:16Z</time>
      </trkpt>
      <trkpt lat="45.85199" lon="6.4465">
        <ele>2235.6</ele>
        <time>2024-04-27T08:48:17Z</time>
      </trkpt>
      <trkpt lat="45.85199" lon="6.44649">
        <ele>2235.6</ele>
        <time>2024-04-27T08:48:18Z</time>
      </trkpt>
      <trkpt lat="45.85199" lon="6.44647">
        <ele>2236.7</ele>
        <time>2024-04-27T08:48:19Z</time>
      </trkpt>
      <trkpt lat="45.85198" lon="6.44646">
        <ele>2236.7</ele>
        <time>2024-04-27T08:48:20Z</time>
      </trkpt>
      <trkpt lat="45.85197" lon="6.44644">
        <ele>2236.7</ele>
        <time>2024-04-27T08:48:21Z</time>
      </trkpt>
      <trkpt lat="45.85196" lon="6.44643">
        <ele>2236.7</ele>
        <time>2024-04-27T08:48:22Z</time>
      </trkpt>
      <trkpt lat="45.85196" lon="6.44642">
        <ele>2236.7</ele>
        <time>2024-04-27T08:48:23Z</time>
      </trkpt>
      <trkpt lat="45.85195" lon="6.44641">
        <ele>2236.7</ele>
        <time>2024-04-27T08:48:24Z</time>
      </trkpt>
      <trkpt lat="45.85195" lon="6.4464">
        <ele>2236.7</ele>
        <time>2024-04-27T08:48:25Z</time>
      </trkpt>
      <trkpt lat="45.85195" lon="6.4464">
        <ele>2236.7</ele>
        <time>2024-04-27T08:48:26Z</time>
      </trkpt>
      <trkpt lat="45.85196" lon="6.4464">
        <ele>2236.7</ele>
        <time>2024-04-27T08:48:27Z</time>
      </trkpt>
      <trkpt lat="45.85196" lon="6.4464">
        <ele>2236.7</ele>
        <time>2024-04-27T08:48:28Z</time>
      </trkpt>
      <trkpt lat="45.85196" lon="6.44641">
        <ele>2236.7</ele>
        <time>2024-04-27T08:48:29Z</time>
      </trkpt>
      <trkpt lat="45.85195" lon="6.44642">
        <ele>2236.7</ele>
        <time>2024-04-27T08:48:30Z</time>
      </trkpt>
      <trkpt lat="45.85197" lon="6.44643">
        <ele>2236.7</ele>
        <time>2024-04-27T08:48:31Z</time>
      </trkpt>
      <trkpt lat="45.85198" lon="6.44644">
        <ele>2236.7</ele>
        <time>2024-04-27T08:48:32Z</time>
      </trkpt>
      <trkpt lat="45.85198" lon="6.44644">
        <ele>2237.7</ele>
        <time>2024-04-27T08:48:33Z</time>
      </trkpt>
      <trkpt lat="45.85198" lon="6.44644">
        <ele>2237.7</ele>
        <time>2024-04-27T08:48:34Z</time>
      </trkpt>
      <trkpt lat="45.85198" lon="6.44645">
        <ele>2237.7</ele>
        <time>2024-04-27T08:48:35Z</time>
      </trkpt>
      <trkpt lat="45.85197" lon="6.44646">
        <ele>2237.7</ele>
        <time>2024-04-27T08:48:36Z</time>
      </trkpt>
      <trkpt lat="45.85197" lon="6.44647">
        <ele>2237.7</ele>
        <time>2024-04-27T08:48:37Z</time>
      </trkpt>
      <trkpt lat="45.85197" lon="6.44648">
        <ele>2237.7</ele>
        <time>2024-04-27T08:48:38Z</time>
      </trkpt>
      <trkpt lat="45.85197" lon="6.44649">
        <ele>2237.7</ele>
        <time>2024-04-27T08:48:39Z</time>
      </trkpt>
      <trkpt lat="45.85197" lon="6.44651">
        <ele>2237.7</ele>
        <time>2024-04-27T08:48:40Z</time>
      </trkpt>
      <trkpt lat="45.85197" lon="6.44652">
        <ele>2238.6</ele>
        <time>2024-04-27T08:48:41Z</time>
      </trkpt>
      <trkpt lat="45.85197" lon="6.44653">
        <ele>2238.6</ele>
        <time>2024-04-27T08:48:42Z</time>
      </trkpt>
      <trkpt lat="45.85197" lon="6.44654">
        <ele>2238.6</ele>
        <time>2024-04-27T08:48:43Z</time>
      </trkpt>
      <trkpt lat="45.85197" lon="6.44655">
        <ele>2238.6</ele>
        <time>2024-04-27T08:48:44Z</time>
      </trkpt>
      <trkpt lat="45.85197" lon="6.44656">
        <ele>2238.6</ele>
        <time>2024-04-27T08:48:45Z</time>
      </trkpt>
      <trkpt lat="45.85196" lon="6.44657">
        <ele>2238.6</ele>
        <time>2024-04-27T08:48:46Z</time>
      </trkpt>
      <trkpt lat="45.85196" lon="6.44658">
        <ele>2238.6</ele>
        <time>2024-04-27T08:48:47Z</time>
      </trkpt>
      <trkpt lat="45.85197" lon="6.44659">
        <ele>2238.6</ele>
        <time>2024-04-27T08:48:48Z</time>
      </trkpt>
      <trkpt lat="45.85197" lon="6.4466">
        <ele>2239.7</ele>
        <time>2024-04-27T08:48:49Z</time>
      </trkpt>
      <trkpt lat="45.85197" lon="6.44662">
        <ele>2239.7</ele>
        <time>2024-04-27T08:48:50Z</time>
      </trkpt>
      <trkpt lat="45.85197" lon="6.44662">
        <ele>2239.7</ele>
        <time>2024-04-27T08:48:51Z</time>
      </trkpt>
      <trkpt lat="45.85196" lon="6.44663">
        <ele>2239.7</ele>
        <time>2024-04-27T08:48:52Z</time>
      </trkpt>
      <trkpt lat="45.85195" lon="6.44663">
        <ele>2240.6</ele>
        <time>2024-04-27T08:48:53Z</time>
      </trkpt>
      <trkpt lat="45.85195" lon="6.44662">
        <ele>2240.6</ele>
        <time>2024-04-27T08:48:54Z</time>
      </trkpt>
      <trkpt lat="45.85195" lon="6.44662">
        <ele>2240.6</ele>
        <time>2024-04-27T08:48:55Z</time>
      </trkpt>
      <trkpt lat="45.85195" lon="6.44662">
        <ele>2240.6</ele>
        <time>2024-04-27T08:48:56Z</time>
      </trkpt>
      <trkpt lat="45.85195" lon="6.44662">
        <ele>2240.6</ele>
        <time>2024-04-27T08:48:57Z</time>
      </trkpt>
      <trkpt lat="45.85195" lon="6.44661">
        <ele>2240.6</ele>
        <time>2024-04-27T08:48:58Z</time>
      </trkpt>
      <trkpt lat="45.85195" lon="6.4466">
        <ele>2240.6</ele>
        <time>2024-04-27T08:48:59Z</time>
      </trkpt>
      <trkpt lat="45.85195" lon="6.44659">
        <ele>2240.6</ele>
        <time>2024-04-27T08:49:00Z</time>
      </trkpt>
      <trkpt lat="45.85194" lon="6.44658">
        <ele>2240.6</ele>
        <time>2024-04-27T08:49:01Z</time>
      </trkpt>
      <trkpt lat="45.85193" lon="6.44656">
        <ele>2240.6</ele>
        <time>2024-04-27T08:49:02Z</time>
      </trkpt>
      <trkpt lat="45.85193" lon="6.44655">
        <ele>2242.6</ele>
        <time>2024-04-27T08:49:03Z</time>
      </trkpt>
      <trkpt lat="45.85192" lon="6.44653">
        <ele>2242.6</ele>
        <time>2024-04-27T08:49:04Z</time>
      </trkpt>
      <trkpt lat="45.85192" lon="6.44652">
        <ele>2242.6</ele>
        <time>2024-04-27T08:49:05Z</time>
      </trkpt>
      <trkpt lat="45.85191" lon="6.4465">
        <ele>2242.6</ele>
        <time>2024-04-27T08:49:06Z</time>
      </trkpt>
      <trkpt lat="45.85191" lon="6.44649">
        <ele>2242.6</ele>
        <time>2024-04-27T08:49:07Z</time>
      </trkpt>
      <trkpt lat="45.85191" lon="6.44648">
        <ele>2242.6</ele>
        <time>2024-04-27T08:49:08Z</time>
      </trkpt>
      <trkpt lat="45.8519" lon="6.44646">
        <ele>2242.6</ele>
        <time>2024-04-27T08:49:09Z</time>
      </trkpt>
      <trkpt lat="45.8519" lon="6.44645">
        <ele>2242.6</ele>
        <time>2024-04-27T08:49:10Z</time>
      </trkpt>
      <trkpt lat="45.8519" lon="6.44645">
        <ele>2242.6</ele>
        <time>2024-04-27T08:49:11Z</time>
      </trkpt>
      <trkpt lat="45.85191" lon="6.44644">
        <ele>2242.6</ele>
        <time>2024-04-27T08:49:12Z</time>
      </trkpt>
      <trkpt lat="45.85191" lon="6.44644">
        <ele>2242.6</ele>
        <time>2024-04-27T08:49:13Z</time>
      </trkpt>
      <trkpt lat="45.85191" lon="6.44645">
        <ele>2243.7</ele>
        <time>2024-04-27T08:49:14Z</time>
      </trkpt>
      <trkpt lat="45.85191" lon="6.44645">
        <ele>2243.7</ele>
        <time>2024-04-27T08:49:15Z</time>
      </trkpt>
      <trkpt lat="45.85192" lon="6.44646">
        <ele>2243.7</ele>
        <time>2024-04-27T08:49:16Z</time>
      </trkpt>
      <trkpt lat="45.85192" lon="6.44646">
        <ele>2243.7</ele>
        <time>2024-04-27T08:49:17Z</time>
      </trkpt>
      <trkpt lat="45.85192" lon="6.44646">
        <ele>2243.7</ele>
        <time>2024-04-27T08:49:18Z</time>
      </trkpt>
      <trkpt lat="45.85193" lon="6.44646">
        <ele>2243.7</ele>
        <time>2024-04-27T08:49:19Z</time>
      </trkpt>
      <trkpt lat="45.85194" lon="6.44647">
        <ele>2242.6</ele>
        <time>2024-04-27T08:49:20Z</time>
      </trkpt>
      <trkpt lat="45.85194" lon="6.44647">
        <ele>2242.6</ele>
        <time>2024-04-27T08:49:21Z</time>
      </trkpt>
      <trkpt lat="45.85194" lon="6.44649">
        <ele>2242.6</ele>
        <time>2024-04-27T08:49:22Z</time>
      </trkpt>
      <trkpt lat="45.85194" lon="6.44649">
        <ele>2242.6</ele>
        <time>2024-04-27T08:49:23Z</time>
      </trkpt>
      <trkpt lat="45.85194" lon="6.4465">
        <ele>2242.6</ele>
        <time>2024-04-27T08:49:24Z</time>
      </trkpt>
      <trkpt lat="45.85193" lon="6.44651">
        <ele>2242.6</ele>
        <time>2024-04-27T08:49:25Z</time>
      </trkpt>
      <trkpt lat="45.85193" lon="6.44652">
        <ele>2242.6</ele>
        <time>2024-04-27T08:49:26Z</time>
      </trkpt>
      <trkpt lat="45.85193" lon="6.44654">
        <ele>2242.6</ele>
        <time>2024-04-27T08:49:27Z</time>
      </trkpt>
      <trkpt lat="45.85194" lon="6.44655">
        <ele>2242.6</ele>
        <time>2024-04-27T08:49:28Z</time>
      </trkpt>
      <trkpt lat="45.85193" lon="6.44656">
        <ele>2242.6</ele>
        <time>2024-04-27T08:49:29Z</time>
      </trkpt>
      <trkpt lat="45.85193" lon="6.44656">
        <ele>2243.7</ele>
        <time>2024-04-27T08:49:30Z</time>
      </trkpt>
      <trkpt lat="45.85192" lon="6.44657">
        <ele>2243.7</ele>
        <time>2024-04-27T08:49:31Z</time>
      </trkpt>
      <trkpt lat="45.85191" lon="6.44658">
        <ele>2243.7</ele>
        <time>2024-04-27T08:49:32Z</time>
      </trkpt>
      <trkpt lat="45.85191" lon="6.44659">
        <ele>2243.7</ele>
        <time>2024-04-27T08:49:33Z</time>
      </trkpt>
      <trkpt lat="45.8519" lon="6.4466">
        <ele>2243.7</ele>
        <time>2024-04-27T08:49:34Z</time>
      </trkpt>
      <trkpt lat="45.85189" lon="6.44659">
        <ele>2243.7</ele>
        <time>2024-04-27T08:49:35Z</time>
      </trkpt>
      <trkpt lat="45.85189" lon="6.44658">
        <ele>2244.7</ele>
        <time>2024-04-27T08:49:36Z</time>
      </trkpt>
      <trkpt lat="45.85189" lon="6.44658">
        <ele>2244.7</ele>
        <time>2024-04-27T08:49:37Z</time>
      </trkpt>
      <trkpt lat="45.85189" lon="6.44657">
        <ele>2244.7</ele>
        <time>2024-04-27T08:49:38Z</time>
      </trkpt>
      <trkpt lat="45.85188" lon="6.44656">
        <ele>2244.7</ele>
        <time>2024-04-27T08:49:39Z</time>
      </trkpt>
      <trkpt lat="45.85187" lon="6.44655">
        <ele>2245.6</ele>
        <time>2024-04-27T08:49:40Z</time>
      </trkpt>
      <trkpt lat="45.85187" lon="6.44654">
        <ele>2245.6</ele>
        <time>2024-04-27T08:49:41Z</time>
      </trkpt>
      <trkpt lat="45.85186" lon="6.44653">
        <ele>2245.6</ele>
        <time>2024-04-27T08:49:42Z</time>
      </trkpt>
      <trkpt lat="45.85186" lon="6.44651">
        <ele>2245.6</ele>
        <time>2024-04-27T08:49:43Z</time>
      </trkpt>
      <trkpt lat="45.85185" lon="6.4465">
        <ele>2246.7</ele>
        <time>2024-04-27T08:49:44Z</time>
      </trkpt>
      <trkpt lat="45.85185" lon="6.44649">
        <ele>2246.7</ele>
        <time>2024-04-27T08:49:45Z</time>
      </trkpt>
      <trkpt lat="45.85185" lon="6.44647">
        <ele>2246.7</ele>
        <time>2024-04-27T08:49:46Z</time>
      </trkpt>
      <trkpt lat="45.85184" lon="6.44646">
        <ele>2246.7</ele>
        <time>2024-04-27T08:49:47Z</time>
      </trkpt>
      <trkpt lat="45.85183" lon="6.44645">
        <ele>2246.7</ele>
        <time>2024-04-27T08:49:48Z</time>
      </trkpt>
      <trkpt lat="45.85183" lon="6.44645">
        <ele>2246.7</ele>
        <time>2024-04-27T08:49:49Z</time>
      </trkpt>
      <trkpt lat="45.85184" lon="6.44646">
        <ele>2247.6</ele>
        <time>2024-04-27T08:49:50Z</time>
      </trkpt>
      <trkpt lat="45.85185" lon="6.44647">
        <ele>2247.6</ele>
        <time>2024-04-27T08:49:51Z</time>
      </trkpt>
      <trkpt lat="45.85185" lon="6.44648">
        <ele>2247.6</ele>
        <time>2024-04-27T08:49:52Z</time>
      </trkpt>
      <trkpt lat="45.85185" lon="6.44648">
        <ele>2247.6</ele>
        <time>2024-04-27T08:49:53Z</time>
      </trkpt>
      <trkpt lat="45.85186" lon="6.44648">
        <ele>2246.7</ele>
        <time>2024-04-27T08:49:54Z</time>
      </trkpt>
      <trkpt lat="45.85186" lon="6.4465">
        <ele>2246.7</ele>
        <time>2024-04-27T08:49:55Z</time>
      </trkpt>
      <trkpt lat="45.85186" lon="6.4465">
        <ele>2246.7</ele>
        <time>2024-04-27T08:49:56Z</time>
      </trkpt>
      <trkpt lat="45.85186" lon="6.44652">
        <ele>2246.7</ele>
        <time>2024-04-27T08:49:57Z</time>
      </trkpt>
      <trkpt lat="45.85186" lon="6.44653">
        <ele>2246.7</ele>
        <time>2024-04-27T08:49:58Z</time>
      </trkpt>
      <trkpt lat="45.85187" lon="6.44654">
        <ele>2246.7</ele>
        <time>2024-04-27T08:49:59Z</time>
      </trkpt>
      <trkpt lat="45.85187" lon="6.44656">
        <ele>2246.7</ele>
        <time>2024-04-27T08:50:00Z</time>
      </trkpt>
      <trkpt lat="45.85187" lon="6.44657">
        <ele>2246.7</ele>
        <time>2024-04-27T08:50:01Z</time>
      </trkpt>
      <trkpt lat="45.85188" lon="6.44658">
        <ele>2246.7</ele>
        <time>2024-04-27T08:50:02Z</time>
      </trkpt>
      <trkpt lat="45.85188" lon="6.44658">
        <ele>2246.7</ele>
        <time>2024-04-27T08:50:03Z</time>
      </trkpt>
      <trkpt lat="45.85188" lon="6.44658">
        <ele>2247.6</ele>
        <time>2024-04-27T08:50:04Z</time>
      </trkpt>
      <trkpt lat="45.85188" lon="6.44658">
        <ele>2247.6</ele>
        <time>2024-04-27T08:50:05Z</time>
      </trkpt>
      <trkpt lat="45.85188" lon="6.44658">
        <ele>2247.6</ele>
        <time>2024-04-27T08:50:06Z</time>
      </trkpt>
      <trkpt lat="45.85188" lon="6.44658">
        <ele>2247.6</ele>
        <time>2024-04-27T08:50:07Z</time>
      </trkpt>
      <trkpt lat="45.85187" lon="6.44658">
        <ele>2248.7</ele>
        <time>2024-04-27T08:50:08Z</time>
      </trkpt>
      <trkpt lat="45.85187" lon="6.44656">
        <ele>2248.7</ele>
        <time>2024-04-27T08:50:09Z</time>
      </trkpt>
      <trkpt lat="45.85186" lon="6.44655">
        <ele>2249.6</ele>
        <time>2024-04-27T08:50:10Z</time>
      </trkpt>
      <trkpt lat="45.85185" lon="6.44653">
        <ele>2249.6</ele>
        <time>2024-04-27T08:50:11Z</time>
      </trkpt>
      <trkpt lat="45.85184" lon="6.44651">
        <ele>2249.6</ele>
        <time>2024-04-27T08:50:12Z</time>
      </trkpt>
      <trkpt lat="45.85183" lon="6.4465">
        <ele>2249.6</ele>
        <time>2024-04-27T08:50:13Z</time>
      </trkpt>
      <trkpt lat="45.85183" lon="6.44648">
        <ele>2249.6</ele>
        <time>2024-04-27T08:50:14Z</time>
      </trkpt>
      <trkpt lat="45.85183" lon="6.44646">
        <ele>2249.6</ele>
        <time>2024-04-27T08:50:15Z</time>
      </trkpt>
      <trkpt lat="45.85181" lon="6.44644">
        <ele>2249.6</ele>
        <time>2024-04-27T08:50:16Z</time>
      </trkpt>
      <trkpt lat="45.85181" lon="6.44642">
        <ele>2249.6</ele>
        <time>2024-04-27T08:50:17Z</time>
      </trkpt>
      <trkpt lat="45.85181" lon="6.44642">
        <ele>2250.7</ele>
        <time>2024-04-27T08:50:18Z</time>
      </trkpt>
      <trkpt lat="45.85181" lon="6.4464">
        <ele>2250.7</ele>
        <time>2024-04-27T08:50:19Z</time>
      </trkpt>
      <trkpt lat="45.85181" lon="6.4464">
        <ele>2250.7</ele>
        <time>2024-04-27T08:50:20Z</time>
      </trkpt>
      <trkpt lat="45.85181" lon="6.4464">
        <ele>2250.7</ele>
        <time>2024-04-27T08:50:21Z</time>
      </trkpt>
      <trkpt lat="45.85182" lon="6.44641">
        <ele>2250.7</ele>
        <time>2024-04-27T08:50:22Z</time>
      </trkpt>
      <trkpt lat="45.85182" lon="6.44641">
        <ele>2250.7</ele>
        <time>2024-04-27T08:50:23Z</time>
      </trkpt>
      <trkpt lat="45.85182" lon="6.44642">
        <ele>2250.7</ele>
        <time>2024-04-27T08:50:24Z</time>
      </trkpt>
      <trkpt lat="45.85182" lon="6.44642">
        <ele>2250.7</ele>
        <time>2024-04-27T08:50:25Z</time>
      </trkpt>
      <trkpt lat="45.85182" lon="6.44642">
        <ele>2249.6</ele>
        <time>2024-04-27T08:50:26Z</time>
      </trkpt>
      <trkpt lat="45.85182" lon="6.44643">
        <ele>2249.6</ele>
        <time>2024-04-27T08:50:27Z</time>
      </trkpt>
      <trkpt lat="45.85182" lon="6.44644">
        <ele>2249.6</ele>
        <time>2024-04-27T08:50:28Z</time>
      </trkpt>
      <trkpt lat="45.85182" lon="6.44646">
        <ele>2249.6</ele>
        <time>2024-04-27T08:50:29Z</time>
      </trkpt>
      <trkpt lat="45.85182" lon="6.44647">
        <ele>2249.6</ele>
        <time>2024-04-27T08:50:30Z</time>
      </trkpt>
      <trkpt lat="45.85182" lon="6.44648">
        <ele>2249.6</ele>
        <time>2024-04-27T08:50:31Z</time>
      </trkpt>
      <trkpt lat="45.85182" lon="6.44649">
        <ele>2249.6</ele>
        <time>2024-04-27T08:50:32Z</time>
      </trkpt>
      <trkpt lat="45.85182" lon="6.44651">
        <ele>2249.6</ele>
        <time>2024-04-27T08:50:33Z</time>
      </trkpt>
      <trkpt lat="45.85182" lon="6.44652">
        <ele>2249.6</ele>
        <time>2024-04-27T08:50:34Z</time>
      </trkpt>
      <trkpt lat="45.85182" lon="6.44653">
        <ele>2249.6</ele>
        <time>2024-04-27T08:50:35Z</time>
      </trkpt>
      <trkpt lat="45.85182" lon="6.44655">
        <ele>2250.7</ele>
        <time>2024-04-27T08:50:36Z</time>
      </trkpt>
      <trkpt lat="45.85182" lon="6.44656">
        <ele>2250.7</ele>
        <time>2024-04-27T08:50:37Z</time>
      </trkpt>
      <trkpt lat="45.85182" lon="6.44657">
        <ele>2250.7</ele>
        <time>2024-04-27T08:50:38Z</time>
      </trkpt>
      <trkpt lat="45.85182" lon="6.44658">
        <ele>2250.7</ele>
        <time>2024-04-27T08:50:39Z</time>
      </trkpt>
      <trkpt lat="45.85182" lon="6.44659">
        <ele>2250.7</ele>
        <time>2024-04-27T08:50:40Z</time>
      </trkpt>
      <trkpt lat="45.85182" lon="6.44659">
        <ele>2250.7</ele>
        <time>2024-04-27T08:50:41Z</time>
      </trkpt>
      <trkpt lat="45.85182" lon="6.44659">
        <ele>2251.6</ele>
        <time>2024-04-27T08:50:42Z</time>
      </trkpt>
      <trkpt lat="45.85182" lon="6.4466">
        <ele>2251.6</ele>
        <time>2024-04-27T08:50:43Z</time>
      </trkpt>
      <trkpt lat="45.85182" lon="6.4466">
        <ele>2251.6</ele>
        <time>2024-04-27T08:50:44Z</time>
      </trkpt>
      <trkpt lat="45.85181" lon="6.4466">
        <ele>2251.6</ele>
        <time>2024-04-27T08:50:45Z</time>
      </trkpt>
      <trkpt lat="45.85181" lon="6.4466">
        <ele>2251.6</ele>
        <time>2024-04-27T08:50:46Z</time>
      </trkpt>
      <trkpt lat="45.85181" lon="6.44659">
        <ele>2251.6</ele>
        <time>2024-04-27T08:50:47Z</time>
      </trkpt>
      <trkpt lat="45.85181" lon="6.44659">
        <ele>2252.7</ele>
        <time>2024-04-27T08:50:48Z</time>
      </trkpt>
      <trkpt lat="45.85181" lon="6.44659">
        <ele>2252.7</ele>
        <time>2024-04-27T08:50:49Z</time>
      </trkpt>
      <trkpt lat="45.85181" lon="6.44658">
        <ele>2252.7</ele>
        <time>2024-04-27T08:50:50Z</time>
      </trkpt>
      <trkpt lat="45.8518" lon="6.44656">
        <ele>2252.7</ele>
        <time>2024-04-27T08:50:51Z</time>
      </trkpt>
      <trkpt lat="45.85179" lon="6.44655">
        <ele>2252.7</ele>
        <time>2024-04-27T08:50:52Z</time>
      </trkpt>
      <trkpt lat="45.85179" lon="6.44654">
        <ele>2252.7</ele>
        <time>2024-04-27T08:50:53Z</time>
      </trkpt>
      <trkpt lat="45.85178" lon="6.44653">
        <ele>2252.7</ele>
        <time>2024-04-27T08:50:54Z</time>
      </trkpt>
      <trkpt lat="45.85178" lon="6.44651">
        <ele>2252.7</ele>
        <time>2024-04-27T08:50:55Z</time>
      </trkpt>
      <trkpt lat="45.85177" lon="6.4465">
        <ele>2252.7</ele>
        <time>2024-04-27T08:50:56Z</time>
      </trkpt>
      <trkpt lat="45.85177" lon="6.44649">
        <ele>2252.7</ele>
        <time>2024-04-27T08:50:57Z</time>
      </trkpt>
      <trkpt lat="45.85176" lon="6.44647">
        <ele>2253.7</ele>
        <time>2024-04-27T08:50:58Z</time>
      </trkpt>
      <trkpt lat="45.85175" lon="6.44647">
        <ele>2253.7</ele>
        <time>2024-04-27T08:50:59Z</time>
      </trkpt>
      <trkpt lat="45.85175" lon="6.44647">
        <ele>2253.7</ele>
        <time>2024-04-27T08:51:00Z</time>
      </trkpt>
      <trkpt lat="45.85176" lon="6.44647">
        <ele>2253.7</ele>
        <time>2024-04-27T08:51:01Z</time>
      </trkpt>
      <trkpt lat="45.85176" lon="6.44647">
        <ele>2253.7</ele>
        <time>2024-04-27T08:51:02Z</time>
      </trkpt>
      <trkpt lat="45.85177" lon="6.44647">
        <ele>2253.7</ele>
        <time>2024-04-27T08:51:03Z</time>
      </trkpt>
      <trkpt lat="45.85177" lon="6.44648">
        <ele>2254.6</ele>
        <time>2024-04-27T08:51:04Z</time>
      </trkpt>
      <trkpt lat="45.85176" lon="6.44649">
        <ele>2254.6</ele>
        <time>2024-04-27T08:51:05Z</time>
      </trkpt>
      <trkpt lat="45.85177" lon="6.4465">
        <ele>2254.6</ele>
        <time>2024-04-27T08:51:06Z</time>
      </trkpt>
      <trkpt lat="45.85178" lon="6.44651">
        <ele>2254.6</ele>
        <time>2024-04-27T08:51:07Z</time>
      </trkpt>
      <trkpt lat="45.85179" lon="6.44652">
        <ele>2253.7</ele>
        <time>2024-04-27T08:51:08Z</time>
      </trkpt>
      <trkpt lat="45.85179" lon="6.44653">
        <ele>2253.7</ele>
        <time>2024-04-27T08:51:09Z</time>
      </trkpt>
      <trkpt lat="45.85179" lon="6.44653">
        <ele>2254.6</ele>
        <time>2024-04-27T08:51:10Z</time>
      </trkpt>
      <trkpt lat="45.85179" lon="6.44654">
        <ele>2254.6</ele>
        <time>2024-04-27T08:51:11Z</time>
      </trkpt>
      <trkpt lat="45.85179" lon="6.44654">
        <ele>2254.6</ele>
        <time>2024-04-27T08:51:12Z</time>
      </trkpt>
      <trkpt lat="45.85179" lon="6.44655">
        <ele>2254.6</ele>
        <time>2024-04-27T08:51:13Z</time>
      </trkpt>
      <trkpt lat="45.8518" lon="6.44656">
        <ele>2254.6</ele>
        <time>2024-04-27T08:51:14Z</time>
      </trkpt>
      <trkpt lat="45.85179" lon="6.44656">
        <ele>2254.6</ele>
        <time>2024-04-27T08:51:15Z</time>
      </trkpt>
      <trkpt lat="45.85179" lon="6.44658">
        <ele>2254.6</ele>
        <time>2024-04-27T08:51:16Z</time>
      </trkpt>
      <trkpt lat="45.85178" lon="6.44659">
        <ele>2254.6</ele>
        <time>2024-04-27T08:51:17Z</time>
      </trkpt>
      <trkpt lat="45.85178" lon="6.4466">
        <ele>2254.6</ele>
        <time>2024-04-27T08:51:18Z</time>
      </trkpt>
      <trkpt lat="45.85178" lon="6.44661">
        <ele>2254.6</ele>
        <time>2024-04-27T08:51:19Z</time>
      </trkpt>
      <trkpt lat="45.85178" lon="6.44661">
        <ele>2255.7</ele>
        <time>2024-04-27T08:51:20Z</time>
      </trkpt>
      <trkpt lat="45.85179" lon="6.44662">
        <ele>2255.7</ele>
        <time>2024-04-27T08:51:21Z</time>
      </trkpt>
      <trkpt lat="45.85179" lon="6.44662">
        <ele>2255.7</ele>
        <time>2024-04-27T08:51:22Z</time>
      </trkpt>
      <trkpt lat="45.85178" lon="6.44661">
        <ele>2255.7</ele>
        <time>2024-04-27T08:51:23Z</time>
      </trkpt>
      <trkpt lat="45.85178" lon="6.44661">
        <ele>2256.6</ele>
        <time>2024-04-27T08:51:24Z</time>
      </trkpt>
      <trkpt lat="45.85178" lon="6.44661">
        <ele>2256.6</ele>
        <time>2024-04-27T08:51:25Z</time>
      </trkpt>
      <trkpt lat="45.85178" lon="6.4466">
        <ele>2256.6</ele>
        <time>2024-04-27T08:51:26Z</time>
      </trkpt>
      <trkpt lat="45.85178" lon="6.4466">
        <ele>2256.6</ele>
        <time>2024-04-27T08:51:27Z</time>
      </trkpt>
      <trkpt lat="45.85178" lon="6.4466">
        <ele>2256.6</ele>
        <time>2024-04-27T08:51:28Z</time>
      </trkpt>
      <trkpt lat="45.85177" lon="6.44659">
        <ele>2256.6</ele>
        <time>2024-04-27T08:51:29Z</time>
      </trkpt>
      <trkpt lat="45.85177" lon="6.44659">
        <ele>2256.6</ele>
        <time>2024-04-27T08:51:30Z</time>
      </trkpt>
      <trkpt lat="45.85177" lon="6.44658">
        <ele>2256.6</ele>
        <time>2024-04-27T08:51:31Z</time>
      </trkpt>
      <trkpt lat="45.85177" lon="6.44658">
        <ele>2257.7</ele>
        <time>2024-04-27T08:51:32Z</time>
      </trkpt>
      <trkpt lat="45.85176" lon="6.44656">
        <ele>2257.7</ele>
        <time>2024-04-27T08:51:33Z</time>
      </trkpt>
      <trkpt lat="45.85176" lon="6.44655">
        <ele>2257.7</ele>
        <time>2024-04-27T08:51:34Z</time>
      </trkpt>
      <trkpt lat="45.85175" lon="6.44654">
        <ele>2257.7</ele>
        <time>2024-04-27T08:51:35Z</time>
      </trkpt>
      <trkpt lat="45.85175" lon="6.44653">
        <ele>2257.7</ele>
        <time>2024-04-27T08:51:36Z</time>
      </trkpt>
      <trkpt lat="45.85174" lon="6.44652">
        <ele>2257.7</ele>
        <time>2024-04-27T08:51:37Z</time>
      </trkpt>
      <trkpt lat="45.85174" lon="6.44651">
        <ele>2257.7</ele>
        <time>2024-04-27T08:51:38Z</time>
      </trkpt>
      <trkpt lat="45.85173" lon="6.44649">
        <ele>2257.7</ele>
        <time>2024-04-27T08:51:39Z</time>
      </trkpt>
      <trkpt lat="45.85172" lon="6.44648">
        <ele>2258.6</ele>
        <time>2024-04-27T08:51:40Z</time>
      </trkpt>
      <trkpt lat="45.85171" lon="6.44647">
        <ele>2258.6</ele>
        <time>2024-04-27T08:51:41Z</time>
      </trkpt>
      <trkpt lat="45.8517" lon="6.44645">
        <ele>2258.6</ele>
        <time>2024-04-27T08:51:42Z</time>
      </trkpt>
      <trkpt lat="45.8517" lon="6.44644">
        <ele>2258.6</ele>
        <time>2024-04-27T08:51:43Z</time>
      </trkpt>
      <trkpt lat="45.8517" lon="6.44642">
        <ele>2259.7</ele>
        <time>2024-04-27T08:51:44Z</time>
      </trkpt>
      <trkpt lat="45.85169" lon="6.44642">
        <ele>2259.7</ele>
        <time>2024-04-27T08:51:45Z</time>
      </trkpt>
      <trkpt lat="45.8517" lon="6.44642">
        <ele>2259.7</ele>
        <time>2024-04-27T08:51:46Z</time>
      </trkpt>
      <trkpt lat="45.8517" lon="6.44642">
        <ele>2259.7</ele>
        <time>2024-04-27T08:51:47Z</time>
      </trkpt>
      <trkpt lat="45.8517" lon="6.44642">
        <ele>2259.7</ele>
        <time>2024-04-27T08:51:48Z</time>
      </trkpt>
      <trkpt lat="45.8517" lon="6.44643">
        <ele>2259.7</ele>
        <time>2024-04-27T08:51:49Z</time>
      </trkpt>
      <trkpt lat="45.85171" lon="6.44644">
        <ele>2259.7</ele>
        <time>2024-04-27T08:51:50Z</time>
      </trkpt>
      <trkpt lat="45.85171" lon="6.44645">
        <ele>2259.7</ele>
        <time>2024-04-27T08:51:51Z</time>
      </trkpt>
      <trkpt lat="45.85171" lon="6.44645">
        <ele>2260.6</ele>
        <time>2024-04-27T08:51:52Z</time>
      </trkpt>
      <trkpt lat="45.85173" lon="6.44646">
        <ele>2260.6</ele>
        <time>2024-04-27T08:51:53Z</time>
      </trkpt>
      <trkpt lat="45.85173" lon="6.44646">
        <ele>2260.6</ele>
        <time>2024-04-27T08:51:54Z</time>
      </trkpt>
      <trkpt lat="45.85173" lon="6.44646">
        <ele>2260.6</ele>
        <time>2024-04-27T08:51:55Z</time>
      </trkpt>
      <trkpt lat="45.85173" lon="6.44647">
        <ele>2260.6</ele>
        <time>2024-04-27T08:51:56Z</time>
      </trkpt>
      <trkpt lat="45.85172" lon="6.44647">
        <ele>2260.6</ele>
        <time>2024-04-27T08:51:57Z</time>
      </trkpt>
      <trkpt lat="45.85172" lon="6.44648">
        <ele>2260.6</ele>
        <time>2024-04-27T08:51:58Z</time>
      </trkpt>
      <trkpt lat="45.85172" lon="6.44649">
        <ele>2260.6</ele>
        <time>2024-04-27T08:51:59Z</time>
      </trkpt>
      <trkpt lat="45.85173" lon="6.4465">
        <ele>2260.6</ele>
        <time>2024-04-27T08:52:00Z</time>
      </trkpt>
      <trkpt lat="45.85173" lon="6.44651">
        <ele>2260.6</ele>
        <time>2024-04-27T08:52:01Z</time>
      </trkpt>
      <trkpt lat="45.85173" lon="6.44652">
        <ele>2260.6</ele>
        <time>2024-04-27T08:52:02Z</time>
      </trkpt>
      <trkpt lat="45.85173" lon="6.44653">
        <ele>2260.6</ele>
        <time>2024-04-27T08:52:03Z</time>
      </trkpt>
      <trkpt lat="45.85173" lon="6.44655">
        <ele>2260.6</ele>
        <time>2024-04-27T08:52:04Z</time>
      </trkpt>
      <trkpt lat="45.85173" lon="6.44656">
        <ele>2260.6</ele>
        <time>2024-04-27T08:52:05Z</time>
      </trkpt>
      <trkpt lat="45.85173" lon="6.44657">
        <ele>2260.6</ele>
        <time>2024-04-27T08:52:06Z</time>
      </trkpt>
      <trkpt lat="45.85174" lon="6.44658">
        <ele>2260.6</ele>
        <time>2024-04-27T08:52:07Z</time>
      </trkpt>
      <trkpt lat="45.85174" lon="6.44658">
        <ele>2261.6</ele>
        <time>2024-04-27T08:52:08Z</time>
      </trkpt>
      <trkpt lat="45.85174" lon="6.44659">
        <ele>2261.6</ele>
        <time>2024-04-27T08:52:09Z</time>
      </trkpt>
      <trkpt lat="45.85174" lon="6.4466">
        <ele>2261.6</ele>
        <time>2024-04-27T08:52:10Z</time>
      </trkpt>
      <trkpt lat="45.85174" lon="6.4466">
        <ele>2261.6</ele>
        <time>2024-04-27T08:52:11Z</time>
      </trkpt>
      <trkpt lat="45.85174" lon="6.4466">
        <ele>2261.6</ele>
        <time>2024-04-27T08:52:12Z</time>
      </trkpt>
      <trkpt lat="45.85173" lon="6.4466">
        <ele>2261.6</ele>
        <time>2024-04-27T08:52:13Z</time>
      </trkpt>
      <trkpt lat="45.85173" lon="6.44661">
        <ele>2261.6</ele>
        <time>2024-04-27T08:52:14Z</time>
      </trkpt>
      <trkpt lat="45.85173" lon="6.4466">
        <ele>2261.6</ele>
        <time>2024-04-27T08:52:15Z</time>
      </trkpt>
      <trkpt lat="45.85173" lon="6.4466">
        <ele>2261.6</ele>
        <time>2024-04-27T08:52:16Z</time>
      </trkpt>
      <trkpt lat="45.85173" lon="6.4466">
        <ele>2261.6</ele>
        <time>2024-04-27T08:52:17Z</time>
      </trkpt>
      <trkpt lat="45.85173" lon="6.44659">
        <ele>2264.7</ele>
        <time>2024-04-27T08:52:18Z</time>
      </trkpt>
      <trkpt lat="45.85172" lon="6.44658">
        <ele>2264.7</ele>
        <time>2024-04-27T08:52:19Z</time>
      </trkpt>
      <trkpt lat="45.85171" lon="6.44656">
        <ele>2265.6</ele>
        <time>2024-04-27T08:52:20Z</time>
      </trkpt>
      <trkpt lat="45.8517" lon="6.44654">
        <ele>2265.6</ele>
        <time>2024-04-27T08:52:21Z</time>
      </trkpt>
      <trkpt lat="45.85169" lon="6.44653">
        <ele>2265.6</ele>
        <time>2024-04-27T08:52:22Z</time>
      </trkpt>
      <trkpt lat="45.85168" lon="6.44652">
        <ele>2265.6</ele>
        <time>2024-04-27T08:52:23Z</time>
      </trkpt>
      <trkpt lat="45.85168" lon="6.44651">
        <ele>2266.7</ele>
        <time>2024-04-27T08:52:24Z</time>
      </trkpt>
      <trkpt lat="45.85167" lon="6.4465">
        <ele>2266.7</ele>
        <time>2024-04-27T08:52:25Z</time>
      </trkpt>
      <trkpt lat="45.85166" lon="6.44649">
        <ele>2266.7</ele>
        <time>2024-04-27T08:52:26Z</time>
      </trkpt>
      <trkpt lat="45.85166" lon="6.44648">
        <ele>2266.7</ele>
        <time>2024-04-27T08:52:27Z</time>
      </trkpt>
      <trkpt lat="45.85165" lon="6.44648">
        <ele>2266.7</ele>
        <time>2024-04-27T08:52:28Z</time>
      </trkpt>
      <trkpt lat="45.85165" lon="6.44647">
        <ele>2266.7</ele>
        <time>2024-04-27T08:52:29Z</time>
      </trkpt>
      <trkpt lat="45.85165" lon="6.44647">
        <ele>2266.7</ele>
        <time>2024-04-27T08:52:30Z</time>
      </trkpt>
      <trkpt lat="45.85165" lon="6.44646">
        <ele>2266.7</ele>
        <time>2024-04-27T08:52:31Z</time>
      </trkpt>
      <trkpt lat="45.85165" lon="6.44646">
        <ele>2266.7</ele>
        <time>2024-04-27T08:52:32Z</time>
      </trkpt>
      <trkpt lat="45.85165" lon="6.44646">
        <ele>2266.7</ele>
        <time>2024-04-27T08:52:33Z</time>
      </trkpt>
      <trkpt lat="45.85165" lon="6.44646">
        <ele>2266.7</ele>
        <time>2024-04-27T08:52:34Z</time>
      </trkpt>
      <trkpt lat="45.85165" lon="6.44647">
        <ele>2266.7</ele>
        <time>2024-04-27T08:52:35Z</time>
      </trkpt>
      <trkpt lat="45.85165" lon="6.44647">
        <ele>2266.7</ele>
        <time>2024-04-27T08:52:36Z</time>
      </trkpt>
      <trkpt lat="45.85165" lon="6.44647">
        <ele>2266.7</ele>
        <time>2024-04-27T08:52:37Z</time>
      </trkpt>
      <trkpt lat="45.85166" lon="6.44648">
        <ele>2266.7</ele>
        <time>2024-04-27T08:52:38Z</time>
      </trkpt>
      <trkpt lat="45.85166" lon="6.44649">
        <ele>2266.7</ele>
        <time>2024-04-27T08:52:39Z</time>
      </trkpt>
      <trkpt lat="45.85166" lon="6.4465">
        <ele>2266.7</ele>
        <time>2024-04-27T08:52:40Z</time>
      </trkpt>
      <trkpt lat="45.85166" lon="6.44651">
        <ele>2266.7</ele>
        <time>2024-04-27T08:52:41Z</time>
      </trkpt>
      <trkpt lat="45.85166" lon="6.44652">
        <ele>2266.7</ele>
        <time>2024-04-27T08:52:42Z</time>
      </trkpt>
      <trkpt lat="45.85166" lon="6.44653">
        <ele>2266.7</ele>
        <time>2024-04-27T08:52:43Z</time>
      </trkpt>
      <trkpt lat="45.85167" lon="6.44654">
        <ele>2266.7</ele>
        <time>2024-04-27T08:52:44Z</time>
      </trkpt>
      <trkpt lat="45.85167" lon="6.44655">
        <ele>2266.7</ele>
        <time>2024-04-27T08:52:45Z</time>
      </trkpt>
      <trkpt lat="45.85167" lon="6.44657">
        <ele>2266.7</ele>
        <time>2024-04-27T08:52:46Z</time>
      </trkpt>
      <trkpt lat="45.85168" lon="6.44658">
        <ele>2266.7</ele>
        <time>2024-04-27T08:52:47Z</time>
      </trkpt>
      <trkpt lat="45.85168" lon="6.44658">
        <ele>2267.6</ele>
        <time>2024-04-27T08:52:48Z</time>
      </trkpt>
      <trkpt lat="45.85168" lon="6.4466">
        <ele>2267.6</ele>
        <time>2024-04-27T08:52:49Z</time>
      </trkpt>
      <trkpt lat="45.85168" lon="6.4466">
        <ele>2267.6</ele>
        <time>2024-04-27T08:52:50Z</time>
      </trkpt>
      <trkpt lat="45.85168" lon="6.44661">
        <ele>2267.6</ele>
        <time>2024-04-27T08:52:51Z</time>
      </trkpt>
      <trkpt lat="45.85169" lon="6.44662">
        <ele>2267.6</ele>
        <time>2024-04-27T08:52:52Z</time>
      </trkpt>
      <trkpt lat="45.85169" lon="6.44663">
        <ele>2267.6</ele>
        <time>2024-04-27T08:52:53Z</time>
      </trkpt>
      <trkpt lat="45.85169" lon="6.44664">
        <ele>2267.6</ele>
        <time>2024-04-27T08:52:54Z</time>
      </trkpt>
      <trkpt lat="45.8517" lon="6.44665">
        <ele>2267.6</ele>
        <time>2024-04-27T08:52:55Z</time>
      </trkpt>
      <trkpt lat="45.8517" lon="6.44667">
        <ele>2267.6</ele>
        <time>2024-04-27T08:52:56Z</time>
      </trkpt>
      <trkpt lat="45.85171" lon="6.44668">
        <ele>2267.6</ele>
        <time>2024-04-27T08:52:57Z</time>
      </trkpt>
      <trkpt lat="45.85171" lon="6.44668">
        <ele>2267.6</ele>
        <time>2024-04-27T08:52:58Z</time>
      </trkpt>
      <trkpt lat="45.85171" lon="6.44669">
        <ele>2267.6</ele>
        <time>2024-04-27T08:52:59Z</time>
      </trkpt>
      <trkpt lat="45.85171" lon="6.4467">
        <ele>2267.6</ele>
        <time>2024-04-27T08:53:00Z</time>
      </trkpt>
      <trkpt lat="45.85171" lon="6.4467">
        <ele>2267.6</ele>
        <time>2024-04-27T08:53:01Z</time>
      </trkpt>
      <trkpt lat="45.85171" lon="6.44671">
        <ele>2267.6</ele>
        <time>2024-04-27T08:53:02Z</time>
      </trkpt>
      <trkpt lat="45.85171" lon="6.44671">
        <ele>2267.6</ele>
        <time>2024-04-27T08:53:03Z</time>
      </trkpt>
      <trkpt lat="45.85171" lon="6.44671">
        <ele>2270.6</ele>
        <time>2024-04-27T08:53:04Z</time>
      </trkpt>
      <trkpt lat="45.85172" lon="6.44671">
        <ele>2270.6</ele>
        <time>2024-04-27T08:53:05Z</time>
      </trkpt>
      <trkpt lat="45.85171" lon="6.44671">
        <ele>2270.6</ele>
        <time>2024-04-27T08:53:06Z</time>
      </trkpt>
      <trkpt lat="45.8517" lon="6.44671">
        <ele>2270.6</ele>
        <time>2024-04-27T08:53:07Z</time>
      </trkpt>
      <trkpt lat="45.8517" lon="6.44671">
        <ele>2270.6</ele>
        <time>2024-04-27T08:53:08Z</time>
      </trkpt>
      <trkpt lat="45.85169" lon="6.44671">
        <ele>2270.6</ele>
        <time>2024-04-27T08:53:09Z</time>
      </trkpt>
      <trkpt lat="45.85168" lon="6.4467">
        <ele>2270.6</ele>
        <time>2024-04-27T08:53:10Z</time>
      </trkpt>
      <trkpt lat="45.85167" lon="6.4467">
        <ele>2270.6</ele>
        <time>2024-04-27T08:53:11Z</time>
      </trkpt>
      <trkpt lat="45.85167" lon="6.4467">
        <ele>2270.6</ele>
        <time>2024-04-27T08:53:12Z</time>
      </trkpt>
      <trkpt lat="45.85166" lon="6.44669">
        <ele>2270.6</ele>
        <time>2024-04-27T08:53:13Z</time>
      </trkpt>
      <trkpt lat="45.85165" lon="6.44669">
        <ele>2270.6</ele>
        <time>2024-04-27T08:53:14Z</time>
      </trkpt>
      <trkpt lat="45.85164" lon="6.44667">
        <ele>2270.6</ele>
        <time>2024-04-27T08:53:15Z</time>
      </trkpt>
      <trkpt lat="45.85163" lon="6.44666">
        <ele>2270.6</ele>
        <time>2024-04-27T08:53:16Z</time>
      </trkpt>
      <trkpt lat="45.85163" lon="6.44664">
        <ele>2270.6</ele>
        <time>2024-04-27T08:53:17Z</time>
      </trkpt>
      <trkpt lat="45.85162" lon="6.44663">
        <ele>2271.7</ele>
        <time>2024-04-27T08:53:18Z</time>
      </trkpt>
      <trkpt lat="45.85161" lon="6.44662">
        <ele>2271.7</ele>
        <time>2024-04-27T08:53:19Z</time>
      </trkpt>
      <trkpt lat="45.85161" lon="6.4466">
        <ele>2271.7</ele>
        <time>2024-04-27T08:53:20Z</time>
      </trkpt>
      <trkpt lat="45.8516" lon="6.44659">
        <ele>2271.7</ele>
        <time>2024-04-27T08:53:21Z</time>
      </trkpt>
      <trkpt lat="45.8516" lon="6.44658">
        <ele>2271.7</ele>
        <time>2024-04-27T08:53:22Z</time>
      </trkpt>
      <trkpt lat="45.8516" lon="6.44658">
        <ele>2271.7</ele>
        <time>2024-04-27T08:53:23Z</time>
      </trkpt>
      <trkpt lat="45.8516" lon="6.44657">
        <ele>2272.6</ele>
        <time>2024-04-27T08:53:24Z</time>
      </trkpt>
      <trkpt lat="45.85159" lon="6.44656">
        <ele>2272.6</ele>
        <time>2024-04-27T08:53:25Z</time>
      </trkpt>
      <trkpt lat="45.85159" lon="6.44656">
        <ele>2272.6</ele>
        <time>2024-04-27T08:53:26Z</time>
      </trkpt>
      <trkpt lat="45.85158" lon="6.44654">
        <ele>2272.6</ele>
        <time>2024-04-27T08:53:27Z</time>
      </trkpt>
      <trkpt lat="45.85158" lon="6.44653">
        <ele>2273.7</ele>
        <time>2024-04-27T08:53:28Z</time>
      </trkpt>
      <trkpt lat="45.85157" lon="6.44653">
        <ele>2273.7</ele>
        <time>2024-04-27T08:53:29Z</time>
      </trkpt>
      <trkpt lat="45.85158" lon="6.44653">
        <ele>2273.7</ele>
        <time>2024-04-27T08:53:30Z</time>
      </trkpt>
      <trkpt lat="45.85157" lon="6.44653">
        <ele>2273.7</ele>
        <time>2024-04-27T08:53:31Z</time>
      </trkpt>
      <trkpt lat="45.85157" lon="6.44652">
        <ele>2273.7</ele>
        <time>2024-04-27T08:53:32Z</time>
      </trkpt>
      <trkpt lat="45.85157" lon="6.44651">
        <ele>2273.7</ele>
        <time>2024-04-27T08:53:33Z</time>
      </trkpt>
      <trkpt lat="45.85157" lon="6.44652">
        <ele>2274.6</ele>
        <time>2024-04-27T08:53:34Z</time>
      </trkpt>
      <trkpt lat="45.85157" lon="6.44652">
        <ele>2274.6</ele>
        <time>2024-04-27T08:53:35Z</time>
      </trkpt>
      <trkpt lat="45.85156" lon="6.44651">
        <ele>2274.6</ele>
        <time>2024-04-27T08:53:36Z</time>
      </trkpt>
      <trkpt lat="45.85156" lon="6.44651">
        <ele>2274.6</ele>
        <time>2024-04-27T08:53:37Z</time>
      </trkpt>
      <trkpt lat="45.85156" lon="6.44651">
        <ele>2274.6</ele>
        <time>2024-04-27T08:53:38Z</time>
      </trkpt>
      <trkpt lat="45.85155" lon="6.44651">
        <ele>2274.6</ele>
        <time>2024-04-27T08:53:39Z</time>
      </trkpt>
      <trkpt lat="45.85155" lon="6.44651">
        <ele>2275.7</ele>
        <time>2024-04-27T08:53:40Z</time>
      </trkpt>
      <trkpt lat="45.85155" lon="6.44651">
        <ele>2275.7</ele>
        <time>2024-04-27T08:53:41Z</time>
      </trkpt>
      <trkpt lat="45.85155" lon="6.44651">
        <ele>2275.7</ele>
        <time>2024-04-27T08:53:42Z</time>
      </trkpt>
      <trkpt lat="45.85155" lon="6.44651">
        <ele>2275.7</ele>
        <time>2024-04-27T08:53:43Z</time>
      </trkpt>
      <trkpt lat="45.85155" lon="6.44651">
        <ele>2275.7</ele>
        <time>2024-04-27T08:53:44Z</time>
      </trkpt>
      <trkpt lat="45.85155" lon="6.44651">
        <ele>2275.7</ele>
        <time>2024-04-27T08:53:45Z</time>
      </trkpt>
      <trkpt lat="45.85155" lon="6.44651">
        <ele>2275.7</ele>
        <time>2024-04-27T08:53:46Z</time>
      </trkpt>
      <trkpt lat="45.85155" lon="6.44651">
        <ele>2275.7</ele>
        <time>2024-04-27T08:53:47Z</time>
      </trkpt>
      <trkpt lat="45.85155" lon="6.44651">
        <ele>2275.7</ele>
        <time>2024-04-27T08:53:48Z</time>
      </trkpt>
      <trkpt lat="45.85155" lon="6.44651">
        <ele>2275.7</ele>
        <time>2024-04-27T08:53:49Z</time>
      </trkpt>
      <trkpt lat="45.85155" lon="6.44651">
        <ele>2275.7</ele>
        <time>2024-04-27T08:53:50Z</time>
      </trkpt>
      <trkpt lat="45.85155" lon="6.44651">
        <ele>2275.7</ele>
        <time>2024-04-27T08:53:51Z</time>
      </trkpt>
      <trkpt lat="45.85155" lon="6.44651">
        <ele>2274.6</ele>
        <time>2024-04-27T08:53:52Z</time>
      </trkpt>
      <trkpt lat="45.85155" lon="6.44651">
        <ele>2274.6</ele>
        <time>2024-04-27T08:53:53Z</time>
      </trkpt>
      <trkpt lat="45.85155" lon="6.44651">
        <ele>2274.6</ele>
        <time>2024-04-27T08:53:54Z</time>
      </trkpt>
      <trkpt lat="45.85155" lon="6.44651">
        <ele>2274.6</ele>
        <time>2024-04-27T08:53:55Z</time>
      </trkpt>
      <trkpt lat="45.85155" lon="6.44651">
        <ele>2274.6</ele>
        <time>2024-04-27T08:53:56Z</time>
      </trkpt>
      <trkpt lat="45.85155" lon="6.44651">
        <ele>2274.6</ele>
        <time>2024-04-27T08:53:57Z</time>
      </trkpt>
      <trkpt lat="45.85155" lon="6.44651">
        <ele>2274.6</ele>
        <time>2024-04-27T08:53:58Z</time>
      </trkpt>
      <trkpt lat="45.85155" lon="6.44651">
        <ele>2274.6</ele>
        <time>2024-04-27T08:53:59Z</time>
      </trkpt>
      <trkpt lat="45.85155" lon="6.44651">
        <ele>2274.6</ele>
        <time>2024-04-27T08:54:00Z</time>
      </trkpt>
      <trkpt lat="45.85155" lon="6.44651">
        <ele>2274.6</ele>
        <time>2024-04-27T08:54:01Z</time>
      </trkpt>
      <trkpt lat="45.85155" lon="6.44651">
        <ele>2275.7</ele>
        <time>2024-04-27T08:54:02Z</time>
      </trkpt>
      <trkpt lat="45.85155" lon="6.44652">
        <ele>2275.7</ele>
        <time>2024-04-27T08:54:03Z</time>
      </trkpt>
      <trkpt lat="45.85155" lon="6.44655">
        <ele>2275.7</ele>
        <time>2024-04-27T08:54:04Z</time>
      </trkpt>
      <trkpt lat="45.85155" lon="6.44657">
        <ele>2275.7</ele>
        <time>2024-04-27T08:54:05Z</time>
      </trkpt>
      <trkpt lat="45.85156" lon="6.44659">
        <ele>2275.7</ele>
        <time>2024-04-27T08:54:06Z</time>
      </trkpt>
      <trkpt lat="45.85156" lon="6.44661">
        <ele>2275.7</ele>
        <time>2024-04-27T08:54:07Z</time>
      </trkpt>
      <trkpt lat="45.85156" lon="6.44663">
        <ele>2276.6</ele>
        <time>2024-04-27T08:54:08Z</time>
      </trkpt>
      <trkpt lat="45.85156" lon="6.44665">
        <ele>2276.6</ele>
        <time>2024-04-27T08:54:09Z</time>
      </trkpt>
      <trkpt lat="45.85157" lon="6.44667">
        <ele>2276.6</ele>
        <time>2024-04-27T08:54:10Z</time>
      </trkpt>
      <trkpt lat="45.85157" lon="6.4467">
        <ele>2276.6</ele>
        <time>2024-04-27T08:54:11Z</time>
      </trkpt>
      <trkpt lat="45.85157" lon="6.44672">
        <ele>2277.6</ele>
        <time>2024-04-27T08:54:12Z</time>
      </trkpt>
      <trkpt lat="45.85157" lon="6.44672">
        <ele>2277.6</ele>
        <time>2024-04-27T08:54:13Z</time>
      </trkpt>
      <trkpt lat="45.85157" lon="6.44673">
        <ele>2277.6</ele>
        <time>2024-04-27T08:54:14Z</time>
      </trkpt>
      <trkpt lat="45.85157" lon="6.44674">
        <ele>2277.6</ele>
        <time>2024-04-27T08:54:15Z</time>
      </trkpt>
      <trkpt lat="45.85157" lon="6.44675">
        <ele>2277.6</ele>
        <time>2024-04-27T08:54:16Z</time>
      </trkpt>
      <trkpt lat="45.85157" lon="6.44676">
        <ele>2277.6</ele>
        <time>2024-04-27T08:54:17Z</time>
      </trkpt>
      <trkpt lat="45.85158" lon="6.44677">
        <ele>2278.7</ele>
        <time>2024-04-27T08:54:18Z</time>
      </trkpt>
      <trkpt lat="45.85158" lon="6.44678">
        <ele>2278.7</ele>
        <time>2024-04-27T08:54:19Z</time>
      </trkpt>
      <trkpt lat="45.85158" lon="6.44679">
        <ele>2278.7</ele>
        <time>2024-04-27T08:54:20Z</time>
      </trkpt>
      <trkpt lat="45.85159" lon="6.4468">
        <ele>2278.7</ele>
        <time>2024-04-27T08:54:21Z</time>
      </trkpt>
      <trkpt lat="45.85159" lon="6.44681">
        <ele>2278.7</ele>
        <time>2024-04-27T08:54:22Z</time>
      </trkpt>
      <trkpt lat="45.8516" lon="6.44682">
        <ele>2278.7</ele>
        <time>2024-04-27T08:54:23Z</time>
      </trkpt>
      <trkpt lat="45.8516" lon="6.44683">
        <ele>2278.7</ele>
        <time>2024-04-27T08:54:24Z</time>
      </trkpt>
      <trkpt lat="45.85161" lon="6.44683">
        <ele>2278.7</ele>
        <time>2024-04-27T08:54:25Z</time>
      </trkpt>
      <trkpt lat="45.85161" lon="6.44684">
        <ele>2278.7</ele>
        <time>2024-04-27T08:54:26Z</time>
      </trkpt>
      <trkpt lat="45.85161" lon="6.44685">
        <ele>2278.7</ele>
        <time>2024-04-27T08:54:27Z</time>
      </trkpt>
      <trkpt lat="45.85161" lon="6.44685">
        <ele>2278.7</ele>
        <time>2024-04-27T08:54:28Z</time>
      </trkpt>
      <trkpt lat="45.85161" lon="6.44686">
        <ele>2278.7</ele>
        <time>2024-04-27T08:54:29Z</time>
      </trkpt>
      <trkpt lat="45.85161" lon="6.44686">
        <ele>2279.6</ele>
        <time>2024-04-27T08:54:30Z</time>
      </trkpt>
      <trkpt lat="45.85161" lon="6.44686">
        <ele>2279.6</ele>
        <time>2024-04-27T08:54:31Z</time>
      </trkpt>
      <trkpt lat="45.85161" lon="6.44686">
        <ele>2279.6</ele>
        <time>2024-04-27T08:54:32Z</time>
      </trkpt>
      <trkpt lat="45.8516" lon="6.44686">
        <ele>2279.6</ele>
        <time>2024-04-27T08:54:33Z</time>
      </trkpt>
      <trkpt lat="45.8516" lon="6.44686">
        <ele>2279.6</ele>
        <time>2024-04-27T08:54:34Z</time>
      </trkpt>
      <trkpt lat="45.8516" lon="6.44686">
        <ele>2279.6</ele>
        <time>2024-04-27T08:54:35Z</time>
      </trkpt>
      <trkpt lat="45.8516" lon="6.44686">
        <ele>2280.7</ele>
        <time>2024-04-27T08:54:36Z</time>
      </trkpt>
      <trkpt lat="45.85159" lon="6.44685">
        <ele>2280.7</ele>
        <time>2024-04-27T08:54:37Z</time>
      </trkpt>
      <trkpt lat="45.85158" lon="6.44684">
        <ele>2280.7</ele>
        <time>2024-04-27T08:54:38Z</time>
      </trkpt>
      <trkpt lat="45.85156" lon="6.44683">
        <ele>2280.7</ele>
        <time>2024-04-27T08:54:39Z</time>
      </trkpt>
      <trkpt lat="45.85156" lon="6.44682">
        <ele>2280.7</ele>
        <time>2024-04-27T08:54:40Z</time>
      </trkpt>
      <trkpt lat="45.85155" lon="6.44681">
        <ele>2280.7</ele>
        <time>2024-04-27T08:54:41Z</time>
      </trkpt>
      <trkpt lat="45.85155" lon="6.44681">
        <ele>2281.6</ele>
        <time>2024-04-27T08:54:42Z</time>
      </trkpt>
      <trkpt lat="45.85154" lon="6.4468">
        <ele>2281.6</ele>
        <time>2024-04-27T08:54:43Z</time>
      </trkpt>
      <trkpt lat="45.85154" lon="6.4468">
        <ele>2281.6</ele>
        <time>2024-04-27T08:54:44Z</time>
      </trkpt>
      <trkpt lat="45.85154" lon="6.44679">
        <ele>2281.6</ele>
        <time>2024-04-27T08:54:45Z</time>
      </trkpt>
      <trkpt lat="45.85154" lon="6.44678">
        <ele>2282.7</ele>
        <time>2024-04-27T08:54:46Z</time>
      </trkpt>
      <trkpt lat="45.85153" lon="6.44677">
        <ele>2282.7</ele>
        <time>2024-04-27T08:54:47Z</time>
      </trkpt>
      <trkpt lat="45.85153" lon="6.44677">
        <ele>2282.7</ele>
        <time>2024-04-27T08:54:48Z</time>
      </trkpt>
      <trkpt lat="45.85153" lon="6.44676">
        <ele>2282.7</ele>
        <time>2024-04-27T08:54:49Z</time>
      </trkpt>
      <trkpt lat="45.85153" lon="6.44676">
        <ele>2282.7</ele>
        <time>2024-04-27T08:54:50Z</time>
      </trkpt>
      <trkpt lat="45.85152" lon="6.44675">
        <ele>2282.7</ele>
        <time>2024-04-27T08:54:51Z</time>
      </trkpt>
      <trkpt lat="45.85152" lon="6.44675">
        <ele>2282.7</ele>
        <time>2024-04-27T08:54:52Z</time>
      </trkpt>
      <trkpt lat="45.85152" lon="6.44673">
        <ele>2282.7</ele>
        <time>2024-04-27T08:54:53Z</time>
      </trkpt>
      <trkpt lat="45.85151" lon="6.44672">
        <ele>2283.6</ele>
        <time>2024-04-27T08:54:54Z</time>
      </trkpt>
      <trkpt lat="45.85151" lon="6.44671">
        <ele>2283.6</ele>
        <time>2024-04-27T08:54:55Z</time>
      </trkpt>
      <trkpt lat="45.8515" lon="6.4467">
        <ele>2283.6</ele>
        <time>2024-04-27T08:54:56Z</time>
      </trkpt>
      <trkpt lat="45.8515" lon="6.4467">
        <ele>2283.6</ele>
        <time>2024-04-27T08:54:57Z</time>
      </trkpt>
      <trkpt lat="45.85149" lon="6.44669">
        <ele>2283.6</ele>
        <time>2024-04-27T08:54:58Z</time>
      </trkpt>
      <trkpt lat="45.85148" lon="6.44669">
        <ele>2283.6</ele>
        <time>2024-04-27T08:54:59Z</time>
      </trkpt>
      <trkpt lat="45.85148" lon="6.44669">
        <ele>2283.6</ele>
        <time>2024-04-27T08:55:00Z</time>
      </trkpt>
      <trkpt lat="45.85148" lon="6.44669">
        <ele>2283.6</ele>
        <time>2024-04-27T08:55:01Z</time>
      </trkpt>
      <trkpt lat="45.85147" lon="6.44668">
        <ele>2284.7</ele>
        <time>2024-04-27T08:55:02Z</time>
      </trkpt>
      <trkpt lat="45.85147" lon="6.44668">
        <ele>2284.7</ele>
        <time>2024-04-27T08:55:03Z</time>
      </trkpt>
      <trkpt lat="45.85147" lon="6.44668">
        <ele>2284.7</ele>
        <time>2024-04-27T08:55:04Z</time>
      </trkpt>
      <trkpt lat="45.85147" lon="6.44668">
        <ele>2284.7</ele>
        <time>2024-04-27T08:55:05Z</time>
      </trkpt>
      <trkpt lat="45.85147" lon="6.44667">
        <ele>2284.7</ele>
        <time>2024-04-27T08:55:06Z</time>
      </trkpt>
      <trkpt lat="45.85147" lon="6.44667">
        <ele>2284.7</ele>
        <time>2024-04-27T08:55:07Z</time>
      </trkpt>
      <trkpt lat="45.85147" lon="6.44667">
        <ele>2284.7</ele>
        <time>2024-04-27T08:55:08Z</time>
      </trkpt>
      <trkpt lat="45.85147" lon="6.44667">
        <ele>2284.7</ele>
        <time>2024-04-27T08:55:09Z</time>
      </trkpt>
      <trkpt lat="45.85148" lon="6.44668">
        <ele>2286.6</ele>
        <time>2024-04-27T08:55:10Z</time>
      </trkpt>
      <trkpt lat="45.85148" lon="6.44669">
        <ele>2286.6</ele>
        <time>2024-04-27T08:55:11Z</time>
      </trkpt>
      <trkpt lat="45.85148" lon="6.44669">
        <ele>2286.6</ele>
        <time>2024-04-27T08:55:12Z</time>
      </trkpt>
      <trkpt lat="45.85148" lon="6.44669">
        <ele>2286.6</ele>
        <time>2024-04-27T08:55:13Z</time>
      </trkpt>
      <trkpt lat="45.85148" lon="6.44669">
        <ele>2286.6</ele>
        <time>2024-04-27T08:55:14Z</time>
      </trkpt>
      <trkpt lat="45.85148" lon="6.44669">
        <ele>2286.6</ele>
        <time>2024-04-27T08:55:15Z</time>
      </trkpt>
      <trkpt lat="45.85148" lon="6.44669">
        <ele>2285.7</ele>
        <time>2024-04-27T08:55:16Z</time>
      </trkpt>
      <trkpt lat="45.85148" lon="6.44669">
        <ele>2285.7</ele>
        <time>2024-04-27T08:55:17Z</time>
      </trkpt>
      <trkpt lat="45.85148" lon="6.44669">
        <ele>2285.7</ele>
        <time>2024-04-27T08:55:18Z</time>
      </trkpt>
      <trkpt lat="45.85148" lon="6.44669">
        <ele>2285.7</ele>
        <time>2024-04-27T08:55:19Z</time>
      </trkpt>
      <trkpt lat="45.85148" lon="6.44669">
        <ele>2285.7</ele>
        <time>2024-04-27T08:55:20Z</time>
      </trkpt>
      <trkpt lat="45.85148" lon="6.44669">
        <ele>2285.7</ele>
        <time>2024-04-27T08:55:21Z</time>
      </trkpt>
      <trkpt lat="45.85148" lon="6.44669">
        <ele>2284.7</ele>
        <time>2024-04-27T08:55:22Z</time>
      </trkpt>
      <trkpt lat="45.85148" lon="6.44669">
        <ele>2284.7</ele>
        <time>2024-04-27T08:55:23Z</time>
      </trkpt>
      <trkpt lat="45.85148" lon="6.44669">
        <ele>2284.7</ele>
        <time>2024-04-27T08:55:24Z</time>
      </trkpt>
      <trkpt lat="45.85148" lon="6.44669">
        <ele>2284.7</ele>
        <time>2024-04-27T08:55:25Z</time>
      </trkpt>
      <trkpt lat="45.85148" lon="6.44669">
        <ele>2285.7</ele>
        <time>2024-04-27T08:55:26Z</time>
      </trkpt>
      <trkpt lat="45.85148" lon="6.44669">
        <ele>2285.7</ele>
        <time>2024-04-27T08:55:27Z</time>
      </trkpt>
      <trkpt lat="45.85148" lon="6.44669">
        <ele>2285.7</ele>
        <time>2024-04-27T08:55:28Z</time>
      </trkpt>
      <trkpt lat="45.85148" lon="6.44669">
        <ele>2285.7</ele>
        <time>2024-04-27T08:55:29Z</time>
      </trkpt>
      <trkpt lat="45.85148" lon="6.44669">
        <ele>2286.6</ele>
        <time>2024-04-27T08:55:30Z</time>
      </trkpt>
      <trkpt lat="45.85148" lon="6.44669">
        <ele>2286.6</ele>
        <time>2024-04-27T08:55:31Z</time>
      </trkpt>
      <trkpt lat="45.85148" lon="6.44671">
        <ele>2286.6</ele>
        <time>2024-04-27T08:55:32Z</time>
      </trkpt>
      <trkpt lat="45.85148" lon="6.44673">
        <ele>2286.6</ele>
        <time>2024-04-27T08:55:33Z</time>
      </trkpt>
      <trkpt lat="45.85149" lon="6.44675">
        <ele>2286.6</ele>
        <time>2024-04-27T08:55:34Z</time>
      </trkpt>
      <trkpt lat="45.85149" lon="6.44677">
        <ele>2286.6</ele>
        <time>2024-04-27T08:55:35Z</time>
      </trkpt>
      <trkpt lat="45.85148" lon="6.44679">
        <ele>2286.6</ele>
        <time>2024-04-27T08:55:36Z</time>
      </trkpt>
      <trkpt lat="45.85148" lon="6.44681">
        <ele>2286.6</ele>
        <time>2024-04-27T08:55:37Z</time>
      </trkpt>
      <trkpt lat="45.85148" lon="6.44683">
        <ele>2286.6</ele>
        <time>2024-04-27T08:55:38Z</time>
      </trkpt>
      <trkpt lat="45.85148" lon="6.44685">
        <ele>2286.6</ele>
        <time>2024-04-27T08:55:39Z</time>
      </trkpt>
      <trkpt lat="45.85148" lon="6.44687">
        <ele>2286.6</ele>
        <time>2024-04-27T08:55:40Z</time>
      </trkpt>
      <trkpt lat="45.85148" lon="6.44689">
        <ele>2286.6</ele>
        <time>2024-04-27T08:55:41Z</time>
      </trkpt>
      <trkpt lat="45.85149" lon="6.4469">
        <ele>2287.7</ele>
        <time>2024-04-27T08:55:42Z</time>
      </trkpt>
      <trkpt lat="45.85149" lon="6.44691">
        <ele>2287.7</ele>
        <time>2024-04-27T08:55:43Z</time>
      </trkpt>
      <trkpt lat="45.85149" lon="6.44692">
        <ele>2287.7</ele>
        <time>2024-04-27T08:55:44Z</time>
      </trkpt>
      <trkpt lat="45.8515" lon="6.44693">
        <ele>2287.7</ele>
        <time>2024-04-27T08:55:45Z</time>
      </trkpt>
      <trkpt lat="45.8515" lon="6.44694">
        <ele>2287.7</ele>
        <time>2024-04-27T08:55:46Z</time>
      </trkpt>
      <trkpt lat="45.8515" lon="6.44694">
        <ele>2287.7</ele>
        <time>2024-04-27T08:55:47Z</time>
      </trkpt>
      <trkpt lat="45.8515" lon="6.44695">
        <ele>2287.7</ele>
        <time>2024-04-27T08:55:48Z</time>
      </trkpt>
      <trkpt lat="45.8515" lon="6.44695">
        <ele>2287.7</ele>
        <time>2024-04-27T08:55:49Z</time>
      </trkpt>
      <trkpt lat="45.85149" lon="6.44694">
        <ele>2289.7</ele>
        <time>2024-04-27T08:55:50Z</time>
      </trkpt>
      <trkpt lat="45.85149" lon="6.44694">
        <ele>2289.7</ele>
        <time>2024-04-27T08:55:51Z</time>
      </trkpt>
      <trkpt lat="45.85149" lon="6.44694">
        <ele>2289.7</ele>
        <time>2024-04-27T08:55:52Z</time>
      </trkpt>
      <trkpt lat="45.85148" lon="6.44693">
        <ele>2289.7</ele>
        <time>2024-04-27T08:55:53Z</time>
      </trkpt>
      <trkpt lat="45.85148" lon="6.44692">
        <ele>2289.7</ele>
        <time>2024-04-27T08:55:54Z</time>
      </trkpt>
      <trkpt lat="45.85147" lon="6.44691">
        <ele>2289.7</ele>
        <time>2024-04-27T08:55:55Z</time>
      </trkpt>
      <trkpt lat="45.85146" lon="6.4469">
        <ele>2290.6</ele>
        <time>2024-04-27T08:55:56Z</time>
      </trkpt>
      <trkpt lat="45.85145" lon="6.44689">
        <ele>2290.6</ele>
        <time>2024-04-27T08:55:57Z</time>
      </trkpt>
      <trkpt lat="45.85144" lon="6.44688">
        <ele>2290.6</ele>
        <time>2024-04-27T08:55:58Z</time>
      </trkpt>
      <trkpt lat="45.85143" lon="6.44687">
        <ele>2290.6</ele>
        <time>2024-04-27T08:55:59Z</time>
      </trkpt>
      <trkpt lat="45.85142" lon="6.44686">
        <ele>2290.6</ele>
        <time>2024-04-27T08:56:00Z</time>
      </trkpt>
      <trkpt lat="45.85142" lon="6.44685">
        <ele>2290.6</ele>
        <time>2024-04-27T08:56:01Z</time>
      </trkpt>
      <trkpt lat="45.85142" lon="6.44684">
        <ele>2290.6</ele>
        <time>2024-04-27T08:56:02Z</time>
      </trkpt>
      <trkpt lat="45.85141" lon="6.44683">
        <ele>2290.6</ele>
        <time>2024-04-27T08:56:03Z</time>
      </trkpt>
      <trkpt lat="45.85141" lon="6.44683">
        <ele>2291.7</ele>
        <time>2024-04-27T08:56:04Z</time>
      </trkpt>
      <trkpt lat="45.85141" lon="6.44682">
        <ele>2291.7</ele>
        <time>2024-04-27T08:56:05Z</time>
      </trkpt>
      <trkpt lat="45.85141" lon="6.44682">
        <ele>2292.6</ele>
        <time>2024-04-27T08:56:06Z</time>
      </trkpt>
      <trkpt lat="45.85141" lon="6.44681">
        <ele>2292.6</ele>
        <time>2024-04-27T08:56:07Z</time>
      </trkpt>
      <trkpt lat="45.85141" lon="6.44681">
        <ele>2292.6</ele>
        <time>2024-04-27T08:56:08Z</time>
      </trkpt>
      <trkpt lat="45.85142" lon="6.44681">
        <ele>2292.6</ele>
        <time>2024-04-27T08:56:09Z</time>
      </trkpt>
      <trkpt lat="45.85143" lon="6.44682">
        <ele>2292.6</ele>
        <time>2024-04-27T08:56:10Z</time>
      </trkpt>
      <trkpt lat="45.85143" lon="6.44682">
        <ele>2292.6</ele>
        <time>2024-04-27T08:56:11Z</time>
      </trkpt>
      <trkpt lat="45.85143" lon="6.44683">
        <ele>2292.6</ele>
        <time>2024-04-27T08:56:12Z</time>
      </trkpt>
      <trkpt lat="45.85143" lon="6.44683">
        <ele>2292.6</ele>
        <time>2024-04-27T08:56:13Z</time>
      </trkpt>
      <trkpt lat="45.85144" lon="6.44684">
        <ele>2292.6</ele>
        <time>2024-04-27T08:56:14Z</time>
      </trkpt>
      <trkpt lat="45.85143" lon="6.44684">
        <ele>2292.6</ele>
        <time>2024-04-27T08:56:15Z</time>
      </trkpt>
      <trkpt lat="45.85144" lon="6.44684">
        <ele>2291.7</ele>
        <time>2024-04-27T08:56:16Z</time>
      </trkpt>
      <trkpt lat="45.85144" lon="6.44684">
        <ele>2291.7</ele>
        <time>2024-04-27T08:56:17Z</time>
      </trkpt>
      <trkpt lat="45.85144" lon="6.44684">
        <ele>2291.7</ele>
        <time>2024-04-27T08:56:18Z</time>
      </trkpt>
      <trkpt lat="45.85144" lon="6.44684">
        <ele>2291.7</ele>
        <time>2024-04-27T08:56:19Z</time>
      </trkpt>
      <trkpt lat="45.85144" lon="6.44684">
        <ele>2291.7</ele>
        <time>2024-04-27T08:56:20Z</time>
      </trkpt>
      <trkpt lat="45.85144" lon="6.44684">
        <ele>2291.7</ele>
        <time>2024-04-27T08:56:21Z</time>
      </trkpt>
      <trkpt lat="45.85144" lon="6.44684">
        <ele>2291.7</ele>
        <time>2024-04-27T08:56:22Z</time>
      </trkpt>
      <trkpt lat="45.85144" lon="6.44684">
        <ele>2291.7</ele>
        <time>2024-04-27T08:56:23Z</time>
      </trkpt>
      <trkpt lat="45.85144" lon="6.44684">
        <ele>2291.7</ele>
        <time>2024-04-27T08:56:24Z</time>
      </trkpt>
      <trkpt lat="45.85144" lon="6.44684">
        <ele>2291.7</ele>
        <time>2024-04-27T08:56:25Z</time>
      </trkpt>
      <trkpt lat="45.85144" lon="6.44684">
        <ele>2291.7</ele>
        <time>2024-04-27T08:56:26Z</time>
      </trkpt>
      <trkpt lat="45.85144" lon="6.44684">
        <ele>2291.7</ele>
        <time>2024-04-27T08:56:27Z</time>
      </trkpt>
      <trkpt lat="45.85144" lon="6.44684">
        <ele>2291.7</ele>
        <time>2024-04-27T08:56:28Z</time>
      </trkpt>
      <trkpt lat="45.85144" lon="6.44684">
        <ele>2291.7</ele>
        <time>2024-04-27T08:56:29Z</time>
      </trkpt>
      <trkpt lat="45.85144" lon="6.44684">
        <ele>2292.6</ele>
        <time>2024-04-27T08:56:30Z</time>
      </trkpt>
      <trkpt lat="45.85144" lon="6.44684">
        <ele>2292.6</ele>
        <time>2024-04-27T08:56:31Z</time>
      </trkpt>
      <trkpt lat="45.85144" lon="6.44684">
        <ele>2292.6</ele>
        <time>2024-04-27T08:56:32Z</time>
      </trkpt>
      <trkpt lat="45.85144" lon="6.44684">
        <ele>2292.6</ele>
        <time>2024-04-27T08:56:33Z</time>
      </trkpt>
      <trkpt lat="45.85144" lon="6.44685">
        <ele>2292.6</ele>
        <time>2024-04-27T08:56:34Z</time>
      </trkpt>
      <trkpt lat="45.85144" lon="6.44685">
        <ele>2292.6</ele>
        <time>2024-04-27T08:56:35Z</time>
      </trkpt>
      <trkpt lat="45.85144" lon="6.44686">
        <ele>2293.6</ele>
        <time>2024-04-27T08:56:36Z</time>
      </trkpt>
      <trkpt lat="45.85144" lon="6.44688">
        <ele>2293.6</ele>
        <time>2024-04-27T08:56:37Z</time>
      </trkpt>
      <trkpt lat="45.85145" lon="6.4469">
        <ele>2293.6</ele>
        <time>2024-04-27T08:56:38Z</time>
      </trkpt>
      <trkpt lat="45.85145" lon="6.44692">
        <ele>2293.6</ele>
        <time>2024-04-27T08:56:39Z</time>
      </trkpt>
      <trkpt lat="45.85145" lon="6.44694">
        <ele>2293.6</ele>
        <time>2024-04-27T08:56:40Z</time>
      </trkpt>
      <trkpt lat="45.85146" lon="6.44696">
        <ele>2293.6</ele>
        <time>2024-04-27T08:56:41Z</time>
      </trkpt>
      <trkpt lat="45.85146" lon="6.44698">
        <ele>2294.7</ele>
        <time>2024-04-27T08:56:42Z</time>
      </trkpt>
      <trkpt lat="45.85147" lon="6.447">
        <ele>2294.7</ele>
        <time>2024-04-27T08:56:43Z</time>
      </trkpt>
      <trkpt lat="45.85147" lon="6.44702">
        <ele>2294.7</ele>
        <time>2024-04-27T08:56:44Z</time>
      </trkpt>
      <trkpt lat="45.85148" lon="6.44704">
        <ele>2294.7</ele>
        <time>2024-04-27T08:56:45Z</time>
      </trkpt>
      <trkpt lat="45.85148" lon="6.44705">
        <ele>2294.7</ele>
        <time>2024-04-27T08:56:46Z</time>
      </trkpt>
      <trkpt lat="45.85149" lon="6.44705">
        <ele>2294.7</ele>
        <time>2024-04-27T08:56:47Z</time>
      </trkpt>
      <trkpt lat="45.85149" lon="6.44706">
        <ele>2295.6</ele>
        <time>2024-04-27T08:56:48Z</time>
      </trkpt>
      <trkpt lat="45.85149" lon="6.44706">
        <ele>2295.6</ele>
        <time>2024-04-27T08:56:49Z</time>
      </trkpt>
      <trkpt lat="45.85149" lon="6.44707">
        <ele>2295.6</ele>
        <time>2024-04-27T08:56:50Z</time>
      </trkpt>
      <trkpt lat="45.85148" lon="6.44707">
        <ele>2295.6</ele>
        <time>2024-04-27T08:56:51Z</time>
      </trkpt>
      <trkpt lat="45.85148" lon="6.44706">
        <ele>2296.7</ele>
        <time>2024-04-27T08:56:52Z</time>
      </trkpt>
      <trkpt lat="45.85148" lon="6.44706">
        <ele>2296.7</ele>
        <time>2024-04-27T08:56:53Z</time>
      </trkpt>
      <trkpt lat="45.85148" lon="6.44707">
        <ele>2296.7</ele>
        <time>2024-04-27T08:56:54Z</time>
      </trkpt>
      <trkpt lat="45.85148" lon="6.44707">
        <ele>2296.7</ele>
        <time>2024-04-27T08:56:55Z</time>
      </trkpt>
      <trkpt lat="45.85147" lon="6.44706">
        <ele>2296.7</ele>
        <time>2024-04-27T08:56:56Z</time>
      </trkpt>
      <trkpt lat="45.85146" lon="6.44705">
        <ele>2296.7</ele>
        <time>2024-04-27T08:56:57Z</time>
      </trkpt>
      <trkpt lat="45.85145" lon="6.44705">
        <ele>2296.7</ele>
        <time>2024-04-27T08:56:58Z</time>
      </trkpt>
      <trkpt lat="45.85145" lon="6.44704">
        <ele>2296.7</ele>
        <time>2024-04-27T08:56:59Z</time>
      </trkpt>
      <trkpt lat="45.85145" lon="6.44704">
        <ele>2296.7</ele>
        <time>2024-04-27T08:57:00Z</time>
      </trkpt>
      <trkpt lat="45.85145" lon="6.44704">
        <ele>2296.7</ele>
        <time>2024-04-27T08:57:01Z</time>
      </trkpt>
      <trkpt lat="45.85145" lon="6.44704">
        <ele>2296.7</ele>
        <time>2024-04-27T08:57:02Z</time>
      </trkpt>
      <trkpt lat="45.85145" lon="6.44704">
        <ele>2296.7</ele>
        <time>2024-04-27T08:57:03Z</time>
      </trkpt>
      <trkpt lat="45.85145" lon="6.44704">
        <ele>2296.7</ele>
        <time>2024-04-27T08:57:04Z</time>
      </trkpt>
      <trkpt lat="45.85144" lon="6.44703">
        <ele>2296.7</ele>
        <time>2024-04-27T08:57:05Z</time>
      </trkpt>
      <trkpt lat="45.85143" lon="6.44702">
        <ele>2296.7</ele>
        <time>2024-04-27T08:57:06Z</time>
      </trkpt>
      <trkpt lat="45.85143" lon="6.44702">
        <ele>2296.7</ele>
        <time>2024-04-27T08:57:07Z</time>
      </trkpt>
      <trkpt lat="45.85143" lon="6.44701">
        <ele>2296.7</ele>
        <time>2024-04-27T08:57:08Z</time>
      </trkpt>
      <trkpt lat="45.85142" lon="6.447">
        <ele>2296.7</ele>
        <time>2024-04-27T08:57:09Z</time>
      </trkpt>
      <trkpt lat="45.85142" lon="6.447">
        <ele>2297.6</ele>
        <time>2024-04-27T08:57:10Z</time>
      </trkpt>
      <trkpt lat="45.85141" lon="6.44699">
        <ele>2297.6</ele>
        <time>2024-04-27T08:57:11Z</time>
      </trkpt>
      <trkpt lat="45.85141" lon="6.44699">
        <ele>2297.6</ele>
        <time>2024-04-27T08:57:12Z</time>
      </trkpt>
      <trkpt lat="45.8514" lon="6.44698">
        <ele>2297.6</ele>
        <time>2024-04-27T08:57:13Z</time>
      </trkpt>
      <trkpt lat="45.8514" lon="6.44698">
        <ele>2297.6</ele>
        <time>2024-04-27T08:57:14Z</time>
      </trkpt>
      <trkpt lat="45.8514" lon="6.44697">
        <ele>2297.6</ele>
        <time>2024-04-27T08:57:15Z</time>
      </trkpt>
      <trkpt lat="45.85139" lon="6.44696">
        <ele>2297.6</ele>
        <time>2024-04-27T08:57:16Z</time>
      </trkpt>
      <trkpt lat="45.85139" lon="6.44696">
        <ele>2297.6</ele>
        <time>2024-04-27T08:57:17Z</time>
      </trkpt>
      <trkpt lat="45.85139" lon="6.44695">
        <ele>2298.7</ele>
        <time>2024-04-27T08:57:18Z</time>
      </trkpt>
      <trkpt lat="45.85139" lon="6.44695">
        <ele>2298.7</ele>
        <time>2024-04-27T08:57:19Z</time>
      </trkpt>
      <trkpt lat="45.85139" lon="6.44694">
        <ele>2298.7</ele>
        <time>2024-04-27T08:57:20Z</time>
      </trkpt>
      <trkpt lat="45.85139" lon="6.44694">
        <ele>2298.7</ele>
        <time>2024-04-27T08:57:21Z</time>
      </trkpt>
      <trkpt lat="45.85139" lon="6.44694">
        <ele>2299.6</ele>
        <time>2024-04-27T08:57:22Z</time>
      </trkpt>
      <trkpt lat="45.85139" lon="6.44694">
        <ele>2299.6</ele>
        <time>2024-04-27T08:57:23Z</time>
      </trkpt>
      <trkpt lat="45.85139" lon="6.44695">
        <ele>2299.6</ele>
        <time>2024-04-27T08:57:24Z</time>
      </trkpt>
      <trkpt lat="45.85139" lon="6.44696">
        <ele>2299.6</ele>
        <time>2024-04-27T08:57:25Z</time>
      </trkpt>
      <trkpt lat="45.8514" lon="6.44696">
        <ele>2299.6</ele>
        <time>2024-04-27T08:57:26Z</time>
      </trkpt>
      <trkpt lat="45.8514" lon="6.44696">
        <ele>2299.6</ele>
        <time>2024-04-27T08:57:27Z</time>
      </trkpt>
      <trkpt lat="45.85141" lon="6.44696">
        <ele>2299.6</ele>
        <time>2024-04-27T08:57:28Z</time>
      </trkpt>
      <trkpt lat="45.85141" lon="6.44696">
        <ele>2299.6</ele>
        <time>2024-04-27T08:57:29Z</time>
      </trkpt>
      <trkpt lat="45.85141" lon="6.44698">
        <ele>2299.6</ele>
        <time>2024-04-27T08:57:30Z</time>
      </trkpt>
      <trkpt lat="45.85142" lon="6.44699">
        <ele>2299.6</ele>
        <time>2024-04-27T08:57:31Z</time>
      </trkpt>
      <trkpt lat="45.85142" lon="6.44699">
        <ele>2299.6</ele>
        <time>2024-04-27T08:57:32Z</time>
      </trkpt>
      <trkpt lat="45.85142" lon="6.44701">
        <ele>2299.6</ele>
        <time>2024-04-27T08:57:33Z</time>
      </trkpt>
      <trkpt lat="45.85142" lon="6.44702">
        <ele>2299.6</ele>
        <time>2024-04-27T08:57:34Z</time>
      </trkpt>
      <trkpt lat="45.85142" lon="6.44703">
        <ele>2299.6</ele>
        <time>2024-04-27T08:57:35Z</time>
      </trkpt>
      <trkpt lat="45.85142" lon="6.44704">
        <ele>2299.6</ele>
        <time>2024-04-27T08:57:36Z</time>
      </trkpt>
      <trkpt lat="45.85142" lon="6.44705">
        <ele>2299.6</ele>
        <time>2024-04-27T08:57:37Z</time>
      </trkpt>
      <trkpt lat="45.85141" lon="6.44706">
        <ele>2299.6</ele>
        <time>2024-04-27T08:57:38Z</time>
      </trkpt>
      <trkpt lat="45.85141" lon="6.44708">
        <ele>2299.6</ele>
        <time>2024-04-27T08:57:39Z</time>
      </trkpt>
      <trkpt lat="45.85141" lon="6.44709">
        <ele>2299.6</ele>
        <time>2024-04-27T08:57:40Z</time>
      </trkpt>
      <trkpt lat="45.85142" lon="6.4471">
        <ele>2299.6</ele>
        <time>2024-04-27T08:57:41Z</time>
      </trkpt>
      <trkpt lat="45.85142" lon="6.44711">
        <ele>2299.6</ele>
        <time>2024-04-27T08:57:42Z</time>
      </trkpt>
      <trkpt lat="45.85142" lon="6.44712">
        <ele>2299.6</ele>
        <time>2024-04-27T08:57:43Z</time>
      </trkpt>
      <trkpt lat="45.85142" lon="6.44713">
        <ele>2299.6</ele>
        <time>2024-04-27T08:57:44Z</time>
      </trkpt>
      <trkpt lat="45.85143" lon="6.44713">
        <ele>2299.6</ele>
        <time>2024-04-27T08:57:45Z</time>
      </trkpt>
      <trkpt lat="45.85143" lon="6.44714">
        <ele>2299.6</ele>
        <time>2024-04-27T08:57:46Z</time>
      </trkpt>
      <trkpt lat="45.85143" lon="6.44714">
        <ele>2299.6</ele>
        <time>2024-04-27T08:57:47Z</time>
      </trkpt>
      <trkpt lat="45.85143" lon="6.44714">
        <ele>2299.6</ele>
        <time>2024-04-27T08:57:48Z</time>
      </trkpt>
      <trkpt lat="45.85143" lon="6.44715">
        <ele>2299.6</ele>
        <time>2024-04-27T08:57:49Z</time>
      </trkpt>
      <trkpt lat="45.85143" lon="6.44715">
        <ele>2299.6</ele>
        <time>2024-04-27T08:57:50Z</time>
      </trkpt>
      <trkpt lat="45.85143" lon="6.44715">
        <ele>2299.6</ele>
        <time>2024-04-27T08:57:51Z</time>
      </trkpt>
      <trkpt lat="45.85141" lon="6.44714">
        <ele>2299.6</ele>
        <time>2024-04-27T08:57:52Z</time>
      </trkpt>
      <trkpt lat="45.85141" lon="6.44714">
        <ele>2299.6</ele>
        <time>2024-04-27T08:57:53Z</time>
      </trkpt>
      <trkpt lat="45.85141" lon="6.44714">
        <ele>2299.6</ele>
        <time>2024-04-27T08:57:54Z</time>
      </trkpt>
      <trkpt lat="45.85142" lon="6.44714">
        <ele>2299.6</ele>
        <time>2024-04-27T08:57:55Z</time>
      </trkpt>
      <trkpt lat="45.85143" lon="6.44714">
        <ele>2300.7</ele>
        <time>2024-04-27T08:57:56Z</time>
      </trkpt>
      <trkpt lat="45.85143" lon="6.44715">
        <ele>2300.7</ele>
        <time>2024-04-27T08:57:57Z</time>
      </trkpt>
      <trkpt lat="45.85142" lon="6.44714">
        <ele>2300.7</ele>
        <time>2024-04-27T08:57:58Z</time>
      </trkpt>
      <trkpt lat="45.85143" lon="6.44714">
        <ele>2300.7</ele>
        <time>2024-04-27T08:57:59Z</time>
      </trkpt>
      <trkpt lat="45.85143" lon="6.44714">
        <ele>2300.7</ele>
        <time>2024-04-27T08:58:00Z</time>
      </trkpt>
      <trkpt lat="45.85143" lon="6.44714">
        <ele>2300.7</ele>
        <time>2024-04-27T08:58:01Z</time>
      </trkpt>
      <trkpt lat="45.85143" lon="6.44713">
        <ele>2300.7</ele>
        <time>2024-04-27T08:58:02Z</time>
      </trkpt>
      <trkpt lat="45.85143" lon="6.44713">
        <ele>2300.7</ele>
        <time>2024-04-27T08:58:03Z</time>
      </trkpt>
      <trkpt lat="45.85143" lon="6.44712">
        <ele>2300.7</ele>
        <time>2024-04-27T08:58:04Z</time>
      </trkpt>
      <trkpt lat="45.85143" lon="6.44712">
        <ele>2300.7</ele>
        <time>2024-04-27T08:58:05Z</time>
      </trkpt>
      <trkpt lat="45.85143" lon="6.44712">
        <ele>2300.7</ele>
        <time>2024-04-27T08:58:06Z</time>
      </trkpt>
      <trkpt lat="45.85143" lon="6.44712">
        <ele>2300.7</ele>
        <time>2024-04-27T08:58:07Z</time>
      </trkpt>
      <trkpt lat="45.85143" lon="6.44712">
        <ele>2300.7</ele>
        <time>2024-04-27T08:58:08Z</time>
      </trkpt>
      <trkpt lat="45.85143" lon="6.44712">
        <ele>2300.7</ele>
        <time>2024-04-27T08:58:09Z</time>
      </trkpt>
      <trkpt lat="45.85143" lon="6.44712">
        <ele>2300.7</ele>
        <time>2024-04-27T08:58:10Z</time>
      </trkpt>
      <trkpt lat="45.85143" lon="6.44712">
        <ele>2300.7</ele>
        <time>2024-04-27T08:58:11Z</time>
      </trkpt>
      <trkpt lat="45.85143" lon="6.44712">
        <ele>2300.7</ele>
        <time>2024-04-27T08:58:12Z</time>
      </trkpt>
      <trkpt lat="45.85143" lon="6.44712">
        <ele>2300.7</ele>
        <time>2024-04-27T08:58:13Z</time>
      </trkpt>
      <trkpt lat="45.85143" lon="6.44712">
        <ele>2300.7</ele>
        <time>2024-04-27T08:58:14Z</time>
      </trkpt>
      <trkpt lat="45.85143" lon="6.44712">
        <ele>2300.7</ele>
        <time>2024-04-27T08:58:15Z</time>
      </trkpt>
      <trkpt lat="45.85143" lon="6.44712">
        <ele>2300.7</ele>
        <time>2024-04-27T08:58:16Z</time>
      </trkpt>
      <trkpt lat="45.85143" lon="6.44712">
        <ele>2300.7</ele>
        <time>2024-04-27T08:58:17Z</time>
      </trkpt>
      <trkpt lat="45.85143" lon="6.44712">
        <ele>2300.7</ele>
        <time>2024-04-27T08:58:18Z</time>
      </trkpt>
      <trkpt lat="45.85143" lon="6.44712">
        <ele>2300.7</ele>
        <time>2024-04-27T08:58:19Z</time>
      </trkpt>
      <trkpt lat="45.85143" lon="6.44712">
        <ele>2299.6</ele>
        <time>2024-04-27T08:58:20Z</time>
      </trkpt>
      <trkpt lat="45.85143" lon="6.44712">
        <ele>2299.6</ele>
        <time>2024-04-27T08:58:21Z</time>
      </trkpt>
      <trkpt lat="45.85143" lon="6.44712">
        <ele>2299.6</ele>
        <time>2024-04-27T08:58:22Z</time>
      </trkpt>
      <trkpt lat="45.85143" lon="6.44712">
        <ele>2299.6</ele>
        <time>2024-04-27T08:58:23Z</time>
      </trkpt>
      <trkpt lat="45.85143" lon="6.44712">
        <ele>2299.6</ele>
        <time>2024-04-27T08:58:24Z</time>
      </trkpt>
      <trkpt lat="45.85143" lon="6.44712">
        <ele>2299.6</ele>
        <time>2024-04-27T08:58:25Z</time>
      </trkpt>
      <trkpt lat="45.85143" lon="6.44712">
        <ele>2299.6</ele>
        <time>2024-04-27T08:58:26Z</time>
      </trkpt>
      <trkpt lat="45.85143" lon="6.44712">
        <ele>2299.6</ele>
        <time>2024-04-27T08:58:27Z</time>
      </trkpt>
      <trkpt lat="45.85143" lon="6.44712">
        <ele>2300.7</ele>
        <time>2024-04-27T08:58:28Z</time>
      </trkpt>
      <trkpt lat="45.85143" lon="6.44712">
        <ele>2300.7</ele>
        <time>2024-04-27T08:58:29Z</time>
      </trkpt>
      <trkpt lat="45.85143" lon="6.44712">
        <ele>2300.7</ele>
        <time>2024-04-27T08:58:30Z</time>
      </trkpt>
      <trkpt lat="45.85143" lon="6.44712">
        <ele>2300.7</ele>
        <time>2024-04-27T08:58:31Z</time>
      </trkpt>
      <trkpt lat="45.85143" lon="6.44712">
        <ele>2300.7</ele>
        <time>2024-04-27T08:58:32Z</time>
      </trkpt>
      <trkpt lat="45.85143" lon="6.44712">
        <ele>2300.7</ele>
        <time>2024-04-27T08:58:33Z</time>
      </trkpt>
      <trkpt lat="45.85143" lon="6.44712">
        <ele>2300.7</ele>
        <time>2024-04-27T08:58:34Z</time>
      </trkpt>
      <trkpt lat="45.85143" lon="6.44712">
        <ele>2300.7</ele>
        <time>2024-04-27T08:58:35Z</time>
      </trkpt>
      <trkpt lat="45.85143" lon="6.44712">
        <ele>2300.7</ele>
        <time>2024-04-27T08:58:36Z</time>
      </trkpt>
      <trkpt lat="45.85142" lon="6.44712">
        <ele>2300.7</ele>
        <time>2024-04-27T08:58:37Z</time>
      </trkpt>
      <trkpt lat="45.85142" lon="6.44712">
        <ele>2300.7</ele>
        <time>2024-04-27T08:58:38Z</time>
      </trkpt>
      <trkpt lat="45.85142" lon="6.44712">
        <ele>2300.7</ele>
        <time>2024-04-27T08:58:39Z</time>
      </trkpt>
      <trkpt lat="45.85142" lon="6.44712">
        <ele>2300.7</ele>
        <time>2024-04-27T08:58:40Z</time>
      </trkpt>
      <trkpt lat="45.85142" lon="6.44712">
        <ele>2300.7</ele>
        <time>2024-04-27T08:58:41Z</time>
      </trkpt>
      <trkpt lat="45.85141" lon="6.44712">
        <ele>2300.7</ele>
        <time>2024-04-27T08:58:42Z</time>
      </trkpt>
      <trkpt lat="45.85141" lon="6.44712">
        <ele>2300.7</ele>
        <time>2024-04-27T08:58:43Z</time>
      </trkpt>
      <trkpt lat="45.85141" lon="6.44712">
        <ele>2300.7</ele>
        <time>2024-04-27T08:58:44Z</time>
      </trkpt>
      <trkpt lat="45.85141" lon="6.44712">
        <ele>2300.7</ele>
        <time>2024-04-27T08:58:45Z</time>
      </trkpt>
      <trkpt lat="45.85141" lon="6.44712">
        <ele>2300.7</ele>
        <time>2024-04-27T08:58:46Z</time>
      </trkpt>
      <trkpt lat="45.85141" lon="6.44712">
        <ele>2300.7</ele>
        <time>2024-04-27T08:58:47Z</time>
      </trkpt>
      <trkpt lat="45.85141" lon="6.44712">
        <ele>2300.7</ele>
        <time>2024-04-27T08:58:48Z</time>
      </trkpt>
      <trkpt lat="45.85141" lon="6.44712">
        <ele>2300.7</ele>
        <time>2024-04-27T08:58:49Z</time>
      </trkpt>
      <trkpt lat="45.85141" lon="6.44712">
        <ele>2300.7</ele>
        <time>2024-04-27T08:58:50Z</time>
      </trkpt>
      <trkpt lat="45.85141" lon="6.44712">
        <ele>2300.7</ele>
        <time>2024-04-27T08:58:51Z</time>
      </trkpt>
      <trkpt lat="45.85141" lon="6.44712">
        <ele>2299.6</ele>
        <time>2024-04-27T08:58:52Z</time>
      </trkpt>
      <trkpt lat="45.8514" lon="6.44712">
        <ele>2299.6</ele>
        <time>2024-04-27T08:58:53Z</time>
      </trkpt>
      <trkpt lat="45.8514" lon="6.44712">
        <ele>2299.6</ele>
        <time>2024-04-27T08:58:54Z</time>
      </trkpt>
      <trkpt lat="45.8514" lon="6.44712">
        <ele>2299.6</ele>
        <time>2024-04-27T08:58:55Z</time>
      </trkpt>
      <trkpt lat="45.8514" lon="6.44712">
        <ele>2299.6</ele>
        <time>2024-04-27T08:58:56Z</time>
      </trkpt>
      <trkpt lat="45.8514" lon="6.44712">
        <ele>2299.6</ele>
        <time>2024-04-27T08:58:57Z</time>
      </trkpt>
      <trkpt lat="45.8514" lon="6.44712">
        <ele>2300.7</ele>
        <time>2024-04-27T08:58:58Z</time>
      </trkpt>
      <trkpt lat="45.8514" lon="6.44712">
        <ele>2300.7</ele>
        <time>2024-04-27T08:58:59Z</time>
      </trkpt>
      <trkpt lat="45.8514" lon="6.44712">
        <ele>2301.7</ele>
        <time>2024-04-27T08:59:00Z</time>
      </trkpt>
      <trkpt lat="45.8514" lon="6.44712">
        <ele>2301.7</ele>
        <time>2024-04-27T08:59:01Z</time>
      </trkpt>
      <trkpt lat="45.8514" lon="6.44712">
        <ele>2301.7</ele>
        <time>2024-04-27T08:59:02Z</time>
      </trkpt>
      <trkpt lat="45.8514" lon="6.44712">
        <ele>2301.7</ele>
        <time>2024-04-27T08:59:03Z</time>
      </trkpt>
      <trkpt lat="45.8514" lon="6.44712">
        <ele>2301.7</ele>
        <time>2024-04-27T08:59:04Z</time>
      </trkpt>
      <trkpt lat="45.8514" lon="6.44712">
        <ele>2301.7</ele>
        <time>2024-04-27T08:59:05Z</time>
      </trkpt>
      <trkpt lat="45.8514" lon="6.44712">
        <ele>2301.7</ele>
        <time>2024-04-27T08:59:06Z</time>
      </trkpt>
      <trkpt lat="45.8514" lon="6.44712">
        <ele>2301.7</ele>
        <time>2024-04-27T08:59:07Z</time>
      </trkpt>
      <trkpt lat="45.8514" lon="6.44712">
        <ele>2300.7</ele>
        <time>2024-04-27T08:59:08Z</time>
      </trkpt>
      <trkpt lat="45.8514" lon="6.44712">
        <ele>2300.7</ele>
        <time>2024-04-27T08:59:09Z</time>
      </trkpt>
      <trkpt lat="45.8514" lon="6.44712">
        <ele>2300.7</ele>
        <time>2024-04-27T08:59:10Z</time>
      </trkpt>
      <trkpt lat="45.8514" lon="6.44712">
        <ele>2300.7</ele>
        <time>2024-04-27T08:59:11Z</time>
      </trkpt>
      <trkpt lat="45.8514" lon="6.44712">
        <ele>2300.7</ele>
        <time>2024-04-27T08:59:12Z</time>
      </trkpt>
      <trkpt lat="45.8514" lon="6.44712">
        <ele>2300.7</ele>
        <time>2024-04-27T08:59:13Z</time>
      </trkpt>
      <trkpt lat="45.85141" lon="6.44712">
        <ele>2300.7</ele>
        <time>2024-04-27T08:59:14Z</time>
      </trkpt>
      <trkpt lat="45.85141" lon="6.44712">
        <ele>2300.7</ele>
        <time>2024-04-27T08:59:15Z</time>
      </trkpt>
      <trkpt lat="45.85141" lon="6.44712">
        <ele>2300.7</ele>
        <time>2024-04-27T08:59:16Z</time>
      </trkpt>
      <trkpt lat="45.85141" lon="6.44712">
        <ele>2300.7</ele>
        <time>2024-04-27T08:59:17Z</time>
      </trkpt>
      <trkpt lat="45.85141" lon="6.44712">
        <ele>2300.7</ele>
        <time>2024-04-27T08:59:18Z</time>
      </trkpt>
      <trkpt lat="45.85141" lon="6.44712">
        <ele>2300.7</ele>
        <time>2024-04-27T08:59:19Z</time>
      </trkpt>
      <trkpt lat="45.85141" lon="6.44712">
        <ele>2300.7</ele>
        <time>2024-04-27T08:59:20Z</time>
      </trkpt>
      <trkpt lat="45.85142" lon="6.44712">
        <ele>2300.7</ele>
        <time>2024-04-27T08:59:21Z</time>
      </trkpt>
      <trkpt lat="45.85142" lon="6.44713">
        <ele>2300.7</ele>
        <time>2024-04-27T08:59:22Z</time>
      </trkpt>
      <trkpt lat="45.85143" lon="6.44713">
        <ele>2300.7</ele>
        <time>2024-04-27T08:59:23Z</time>
      </trkpt>
      <trkpt lat="45.85143" lon="6.44713">
        <ele>2300.7</ele>
        <time>2024-04-27T08:59:24Z</time>
      </trkpt>
      <trkpt lat="45.85143" lon="6.44713">
        <ele>2300.7</ele>
        <time>2024-04-27T08:59:25Z</time>
      </trkpt>
      <trkpt lat="45.85143" lon="6.44713">
        <ele>2300.7</ele>
        <time>2024-04-27T08:59:26Z</time>
      </trkpt>
      <trkpt lat="45.85143" lon="6.44713">
        <ele>2300.7</ele>
        <time>2024-04-27T08:59:27Z</time>
      </trkpt>
      <trkpt lat="45.85143" lon="6.44713">
        <ele>2299.6</ele>
        <time>2024-04-27T08:59:28Z</time>
      </trkpt>
      <trkpt lat="45.85143" lon="6.44713">
        <ele>2299.6</ele>
        <time>2024-04-27T08:59:29Z</time>
      </trkpt>
      <trkpt lat="45.85143" lon="6.44713">
        <ele>2299.6</ele>
        <time>2024-04-27T08:59:30Z</time>
      </trkpt>
      <trkpt lat="45.85143" lon="6.44713">
        <ele>2299.6</ele>
        <time>2024-04-27T08:59:31Z</time>
      </trkpt>
      <trkpt lat="45.85143" lon="6.44713">
        <ele>2299.6</ele>
        <time>2024-04-27T08:59:32Z</time>
      </trkpt>
      <trkpt lat="45.85143" lon="6.44713">
        <ele>2299.6</ele>
        <time>2024-04-27T08:59:33Z</time>
      </trkpt>
      <trkpt lat="45.85144" lon="6.44713">
        <ele>2299.6</ele>
        <time>2024-04-27T08:59:34Z</time>
      </trkpt>
      <trkpt lat="45.85144" lon="6.44713">
        <ele>2299.6</ele>
        <time>2024-04-27T08:59:35Z</time>
      </trkpt>
      <trkpt lat="45.85144" lon="6.44713">
        <ele>2299.6</ele>
        <time>2024-04-27T08:59:36Z</time>
      </trkpt>
      <trkpt lat="45.85144" lon="6.44713">
        <ele>2299.6</ele>
        <time>2024-04-27T08:59:37Z</time>
      </trkpt>
      <trkpt lat="45.85144" lon="6.44713">
        <ele>2299.6</ele>
        <time>2024-04-27T08:59:38Z</time>
      </trkpt>
      <trkpt lat="45.85144" lon="6.44713">
        <ele>2299.6</ele>
        <time>2024-04-27T08:59:39Z</time>
      </trkpt>
      <trkpt lat="45.85144" lon="6.44713">
        <ele>2299.6</ele>
        <time>2024-04-27T08:59:40Z</time>
      </trkpt>
      <trkpt lat="45.85144" lon="6.44713">
        <ele>2299.6</ele>
        <time>2024-04-27T08:59:41Z</time>
      </trkpt>
      <trkpt lat="45.85144" lon="6.44713">
        <ele>2299.6</ele>
        <time>2024-04-27T08:59:42Z</time>
      </trkpt>
      <trkpt lat="45.85144" lon="6.44713">
        <ele>2299.6</ele>
        <time>2024-04-27T08:59:43Z</time>
      </trkpt>
      <trkpt lat="45.85144" lon="6.44713">
        <ele>2299.6</ele>
        <time>2024-04-27T08:59:44Z</time>
      </trkpt>
      <trkpt lat="45.85144" lon="6.44713">
        <ele>2299.6</ele>
        <time>2024-04-27T08:59:45Z</time>
      </trkpt>
      <trkpt lat="45.85144" lon="6.44713">
        <ele>2299.6</ele>
        <time>2024-04-27T08:59:46Z</time>
      </trkpt>
      <trkpt lat="45.85144" lon="6.44713">
        <ele>2299.6</ele>
        <time>2024-04-27T08:59:47Z</time>
      </trkpt>
      <trkpt lat="45.85144" lon="6.44713">
        <ele>2299.6</ele>
        <time>2024-04-27T08:59:48Z</time>
      </trkpt>
      <trkpt lat="45.85144" lon="6.44713">
        <ele>2299.6</ele>
        <time>2024-04-27T08:59:49Z</time>
      </trkpt>
      <trkpt lat="45.85144" lon="6.44713">
        <ele>2300.7</ele>
        <time>2024-04-27T08:59:50Z</time>
      </trkpt>
      <trkpt lat="45.85144" lon="6.44713">
        <ele>2300.7</ele>
        <time>2024-04-27T08:59:51Z</time>
      </trkpt>
      <trkpt lat="45.85144" lon="6.44713">
        <ele>2300.7</ele>
        <time>2024-04-27T08:59:52Z</time>
      </trkpt>
      <trkpt lat="45.85144" lon="6.44713">
        <ele>2300.7</ele>
        <time>2024-04-27T08:59:53Z</time>
      </trkpt>
      <trkpt lat="45.85144" lon="6.44713">
        <ele>2300.7</ele>
        <time>2024-04-27T08:59:54Z</time>
      </trkpt>
      <trkpt lat="45.85144" lon="6.44713">
        <ele>2300.7</ele>
        <time>2024-04-27T08:59:55Z</time>
      </trkpt>
      <trkpt lat="45.85144" lon="6.44713">
        <ele>2300.7</ele>
        <time>2024-04-27T08:59:56Z</time>
      </trkpt>
      <trkpt lat="45.85144" lon="6.44713">
        <ele>2300.7</ele>
        <time>2024-04-27T08:59:57Z</time>
      </trkpt>
      <trkpt lat="45.85144" lon="6.44713">
        <ele>2300.7</ele>
        <time>2024-04-27T08:59:58Z</time>
      </trkpt>
      <trkpt lat="45.85144" lon="6.44714">
        <ele>2300.7</ele>
        <time>2024-04-27T08:59:59Z</time>
      </trkpt>
      <trkpt lat="45.85144" lon="6.44714">
        <ele>2300.7</ele>
        <time>2024-04-27T09:00:00Z</time>
      </trkpt>
      <trkpt lat="45.85144" lon="6.44714">
        <ele>2300.7</ele>
        <time>2024-04-27T09:00:01Z</time>
      </trkpt>
      <trkpt lat="45.85144" lon="6.44714">
        <ele>2300.7</ele>
        <time>2024-04-27T09:00:02Z</time>
      </trkpt>
      <trkpt lat="45.85144" lon="6.44714">
        <ele>2300.7</ele>
        <time>2024-04-27T09:00:03Z</time>
      </trkpt>
      <trkpt lat="45.85144" lon="6.44714">
        <ele>2300.7</ele>
        <time>2024-04-27T09:00:04Z</time>
      </trkpt>
      <trkpt lat="45.85144" lon="6.44714">
        <ele>2300.7</ele>
        <time>2024-04-27T09:00:05Z</time>
      </trkpt>
      <trkpt lat="45.85144" lon="6.44714">
        <ele>2300.7</ele>
        <time>2024-04-27T09:00:06Z</time>
      </trkpt>
      <trkpt lat="45.85144" lon="6.44714">
        <ele>2300.7</ele>
        <time>2024-04-27T09:00:07Z</time>
      </trkpt>
      <trkpt lat="45.85144" lon="6.44714">
        <ele>2300.7</ele>
        <time>2024-04-27T09:00:08Z</time>
      </trkpt>
      <trkpt lat="45.85144" lon="6.44714">
        <ele>2300.7</ele>
        <time>2024-04-27T09:00:09Z</time>
      </trkpt>
      <trkpt lat="45.85144" lon="6.44714">
        <ele>2300.7</ele>
        <time>2024-04-27T09:00:10Z</time>
      </trkpt>
      <trkpt lat="45.85144" lon="6.44714">
        <ele>2300.7</ele>
        <time>2024-04-27T09:00:11Z</time>
      </trkpt>
      <trkpt lat="45.85144" lon="6.44714">
        <ele>2300.7</ele>
        <time>2024-04-27T09:00:12Z</time>
      </trkpt>
      <trkpt lat="45.85144" lon="6.44714">
        <ele>2300.7</ele>
        <time>2024-04-27T09:00:13Z</time>
      </trkpt>
      <trkpt lat="45.85144" lon="6.44714">
        <ele>2300.7</ele>
        <time>2024-04-27T09:00:14Z</time>
      </trkpt>
      <trkpt lat="45.85144" lon="6.44714">
        <ele>2300.7</ele>
        <time>2024-04-27T09:00:15Z</time>
      </trkpt>
      <trkpt lat="45.85144" lon="6.44714">
        <ele>2299.6</ele>
        <time>2024-04-27T09:00:16Z</time>
      </trkpt>
      <trkpt lat="45.85144" lon="6.44714">
        <ele>2299.6</ele>
        <time>2024-04-27T09:00:17Z</time>
      </trkpt>
      <trkpt lat="45.85144" lon="6.44714">
        <ele>2299.6</ele>
        <time>2024-04-27T09:00:18Z</time>
      </trkpt>
      <trkpt lat="45.85144" lon="6.44714">
        <ele>2299.6</ele>
        <time>2024-04-27T09:00:19Z</time>
      </trkpt>
      <trkpt lat="45.85144" lon="6.44714">
        <ele>2299.6</ele>
        <time>2024-04-27T09:00:20Z</time>
      </trkpt>
      <trkpt lat="45.85144" lon="6.44714">
        <ele>2299.6</ele>
        <time>2024-04-27T09:00:21Z</time>
      </trkpt>
      <trkpt lat="45.85144" lon="6.44714">
        <ele>2299.6</ele>
        <time>2024-04-27T09:00:22Z</time>
      </trkpt>
      <trkpt lat="45.85144" lon="6.44714">
        <ele>2299.6</ele>
        <time>2024-04-27T09:00:23Z</time>
      </trkpt>
      <trkpt lat="45.85144" lon="6.44715">
        <ele>2299.6</ele>
        <time>2024-04-27T09:00:24Z</time>
      </trkpt>
      <trkpt lat="45.85144" lon="6.44715">
        <ele>2299.6</ele>
        <time>2024-04-27T09:00:25Z</time>
      </trkpt>
      <trkpt lat="45.85145" lon="6.44715">
        <ele>2299.6</ele>
        <time>2024-04-27T09:00:26Z</time>
      </trkpt>
      <trkpt lat="45.85145" lon="6.44715">
        <ele>2299.6</ele>
        <time>2024-04-27T09:00:27Z</time>
      </trkpt>
      <trkpt lat="45.85145" lon="6.44715">
        <ele>2299.6</ele>
        <time>2024-04-27T09:00:28Z</time>
      </trkpt>
      <trkpt lat="45.85145" lon="6.44715">
        <ele>2299.6</ele>
        <time>2024-04-27T09:00:29Z</time>
      </trkpt>
      <trkpt lat="45.85145" lon="6.44715">
        <ele>2299.6</ele>
        <time>2024-04-27T09:00:30Z</time>
      </trkpt>
      <trkpt lat="45.85145" lon="6.44715">
        <ele>2299.6</ele>
        <time>2024-04-27T09:00:31Z</time>
      </trkpt>
      <trkpt lat="45.85145" lon="6.44715">
        <ele>2299.6</ele>
        <time>2024-04-27T09:00:32Z</time>
      </trkpt>
      <trkpt lat="45.85145" lon="6.44715">
        <ele>2299.6</ele>
        <time>2024-04-27T09:00:33Z</time>
      </trkpt>
      <trkpt lat="45.85145" lon="6.44715">
        <ele>2299.6</ele>
        <time>2024-04-27T09:00:34Z</time>
      </trkpt>
      <trkpt lat="45.85145" lon="6.44715">
        <ele>2299.6</ele>
        <time>2024-04-27T09:00:35Z</time>
      </trkpt>
      <trkpt lat="45.85145" lon="6.44715">
        <ele>2299.6</ele>
        <time>2024-04-27T09:00:36Z</time>
      </trkpt>
      <trkpt lat="45.85145" lon="6.44715">
        <ele>2299.6</ele>
        <time>2024-04-27T09:00:37Z</time>
      </trkpt>
      <trkpt lat="45.85145" lon="6.44715">
        <ele>2299.6</ele>
        <time>2024-04-27T09:00:38Z</time>
      </trkpt>
      <trkpt lat="45.85145" lon="6.44715">
        <ele>2299.6</ele>
        <time>2024-04-27T09:00:39Z</time>
      </trkpt>
      <trkpt lat="45.85145" lon="6.44715">
        <ele>2299.6</ele>
        <time>2024-04-27T09:00:40Z</time>
      </trkpt>
      <trkpt lat="45.85145" lon="6.44715">
        <ele>2299.6</ele>
        <time>2024-04-27T09:00:41Z</time>
      </trkpt>
      <trkpt lat="45.85145" lon="6.44715">
        <ele>2299.6</ele>
        <time>2024-04-27T09:00:42Z</time>
      </trkpt>
      <trkpt lat="45.85145" lon="6.44715">
        <ele>2299.6</ele>
        <time>2024-04-27T09:00:43Z</time>
      </trkpt>
      <trkpt lat="45.85145" lon="6.44715">
        <ele>2299.6</ele>
        <time>2024-04-27T09:00:44Z</time>
      </trkpt>
      <trkpt lat="45.85145" lon="6.44714">
        <ele>2299.6</ele>
        <time>2024-04-27T09:00:45Z</time>
      </trkpt>
      <trkpt lat="45.85145" lon="6.44714">
        <ele>2299.6</ele>
        <time>2024-04-27T09:00:46Z</time>
      </trkpt>
      <trkpt lat="45.85145" lon="6.44714">
        <ele>2299.6</ele>
        <time>2024-04-27T09:00:47Z</time>
      </trkpt>
      <trkpt lat="45.85145" lon="6.44714">
        <ele>2299.6</ele>
        <time>2024-04-27T09:00:48Z</time>
      </trkpt>
      <trkpt lat="45.85145" lon="6.44714">
        <ele>2299.6</ele>
        <time>2024-04-27T09:00:49Z</time>
      </trkpt>
      <trkpt lat="45.85145" lon="6.44714">
        <ele>2299.6</ele>
        <time>2024-04-27T09:00:50Z</time>
      </trkpt>
      <trkpt lat="45.85145" lon="6.44714">
        <ele>2299.6</ele>
        <time>2024-04-27T09:00:51Z</time>
      </trkpt>
      <trkpt lat="45.85145" lon="6.44714">
        <ele>2299.6</ele>
        <time>2024-04-27T09:00:52Z</time>
      </trkpt>
      <trkpt lat="45.85145" lon="6.44714">
        <ele>2299.6</ele>
        <time>2024-04-27T09:00:53Z</time>
      </trkpt>
      <trkpt lat="45.85144" lon="6.44713">
        <ele>2299.6</ele>
        <time>2024-04-27T09:00:54Z</time>
      </trkpt>
      <trkpt lat="45.85144" lon="6.44713">
        <ele>2299.6</ele>
        <time>2024-04-27T09:00:55Z</time>
      </trkpt>
      <trkpt lat="45.85144" lon="6.44713">
        <ele>2299.6</ele>
        <time>2024-04-27T09:00:56Z</time>
      </trkpt>
      <trkpt lat="45.85144" lon="6.44713">
        <ele>2299.6</ele>
        <time>2024-04-27T09:00:57Z</time>
      </trkpt>
      <trkpt lat="45.85144" lon="6.44713">
        <ele>2299.6</ele>
        <time>2024-04-27T09:00:58Z</time>
      </trkpt>
      <trkpt lat="45.85144" lon="6.44713">
        <ele>2299.6</ele>
        <time>2024-04-27T09:00:59Z</time>
      </trkpt>
      <trkpt lat="45.85143" lon="6.44713">
        <ele>2299.6</ele>
        <time>2024-04-27T09:01:00Z</time>
      </trkpt>
      <trkpt lat="45.85143" lon="6.44713">
        <ele>2299.6</ele>
        <time>2024-04-27T09:01:01Z</time>
      </trkpt>
      <trkpt lat="45.85143" lon="6.44713">
        <ele>2299.6</ele>
        <time>2024-04-27T09:01:02Z</time>
      </trkpt>
      <trkpt lat="45.85143" lon="6.44713">
        <ele>2299.6</ele>
        <time>2024-04-27T09:01:03Z</time>
      </trkpt>
      <trkpt lat="45.85143" lon="6.44713">
        <ele>2299.6</ele>
        <time>2024-04-27T09:01:04Z</time>
      </trkpt>
      <trkpt lat="45.85143" lon="6.44713">
        <ele>2299.6</ele>
        <time>2024-04-27T09:01:05Z</time>
      </trkpt>
      <trkpt lat="45.85143" lon="6.44713">
        <ele>2299.6</ele>
        <time>2024-04-27T09:01:06Z</time>
      </trkpt>
      <trkpt lat="45.85143" lon="6.44712">
        <ele>2299.6</ele>
        <time>2024-04-27T09:01:07Z</time>
      </trkpt>
      <trkpt lat="45.85143" lon="6.44712">
        <ele>2299.6</ele>
        <time>2024-04-27T09:01:08Z</time>
      </trkpt>
      <trkpt lat="45.85143" lon="6.44712">
        <ele>2299.6</ele>
        <time>2024-04-27T09:01:09Z</time>
      </trkpt>
      <trkpt lat="45.85143" lon="6.44712">
        <ele>2299.6</ele>
        <time>2024-04-27T09:01:10Z</time>
      </trkpt>
      <trkpt lat="45.85143" lon="6.44712">
        <ele>2299.6</ele>
        <time>2024-04-27T09:01:11Z</time>
      </trkpt>
      <trkpt lat="45.85143" lon="6.44712">
        <ele>2300.7</ele>
        <time>2024-04-27T09:01:12Z</time>
      </trkpt>
      <trkpt lat="45.85143" lon="6.44712">
        <ele>2300.7</ele>
        <time>2024-04-27T09:01:13Z</time>
      </trkpt>
      <trkpt lat="45.85143" lon="6.44712">
        <ele>2300.7</ele>
        <time>2024-04-27T09:01:14Z</time>
      </trkpt>
      <trkpt lat="45.85143" lon="6.44712">
        <ele>2300.7</ele>
        <time>2024-04-27T09:01:15Z</time>
      </trkpt>
      <trkpt lat="45.85143" lon="6.44712">
        <ele>2300.7</ele>
        <time>2024-04-27T09:01:16Z</time>
      </trkpt>
      <trkpt lat="45.85143" lon="6.44712">
        <ele>2300.7</ele>
        <time>2024-04-27T09:01:17Z</time>
      </trkpt>
      <trkpt lat="45.85143" lon="6.44712">
        <ele>2300.7</ele>
        <time>2024-04-27T09:01:18Z</time>
      </trkpt>
      <trkpt lat="45.85143" lon="6.44712">
        <ele>2300.7</ele>
        <time>2024-04-27T09:01:19Z</time>
      </trkpt>
      <trkpt lat="45.85143" lon="6.44712">
        <ele>2300.7</ele>
        <time>2024-04-27T09:01:20Z</time>
      </trkpt>
      <trkpt lat="45.85143" lon="6.44712">
        <ele>2300.7</ele>
        <time>2024-04-27T09:01:21Z</time>
      </trkpt>
      <trkpt lat="45.85143" lon="6.44712">
        <ele>2300.7</ele>
        <time>2024-04-27T09:01:22Z</time>
      </trkpt>
      <trkpt lat="45.85143" lon="6.44712">
        <ele>2300.7</ele>
        <time>2024-04-27T09:01:23Z</time>
      </trkpt>
      <trkpt lat="45.85143" lon="6.44712">
        <ele>2300.7</ele>
        <time>2024-04-27T09:01:24Z</time>
      </trkpt>
      <trkpt lat="45.85143" lon="6.44713">
        <ele>2300.7</ele>
        <time>2024-04-27T09:01:25Z</time>
      </trkpt>
      <trkpt lat="45.85143" lon="6.44713">
        <ele>2300.7</ele>
        <time>2024-04-27T09:01:26Z</time>
      </trkpt>
      <trkpt lat="45.85143" lon="6.44713">
        <ele>2300.7</ele>
        <time>2024-04-27T09:01:27Z</time>
      </trkpt>
      <trkpt lat="45.85143" lon="6.44713">
        <ele>2300.7</ele>
        <time>2024-04-27T09:01:28Z</time>
      </trkpt>
      <trkpt lat="45.85143" lon="6.44713">
        <ele>2300.7</ele>
        <time>2024-04-27T09:01:29Z</time>
      </trkpt>
      <trkpt lat="45.85143" lon="6.44713">
        <ele>2300.7</ele>
        <time>2024-04-27T09:01:30Z</time>
      </trkpt>
      <trkpt lat="45.85143" lon="6.44713">
        <ele>2300.7</ele>
        <time>2024-04-27T09:01:31Z</time>
      </trkpt>
      <trkpt lat="45.85143" lon="6.44713">
        <ele>2300.7</ele>
        <time>2024-04-27T09:01:32Z</time>
      </trkpt>
      <trkpt lat="45.85143" lon="6.44713">
        <ele>2300.7</ele>
        <time>2024-04-27T09:01:33Z</time>
      </trkpt>
      <trkpt lat="45.85143" lon="6.44713">
        <ele>2300.7</ele>
        <time>2024-04-27T09:01:34Z</time>
      </trkpt>
      <trkpt lat="45.85143" lon="6.44713">
        <ele>2300.7</ele>
        <time>2024-04-27T09:01:35Z</time>
      </trkpt>
      <trkpt lat="45.85143" lon="6.44713">
        <ele>2300.7</ele>
        <time>2024-04-27T09:01:36Z</time>
      </trkpt>
      <trkpt lat="45.85143" lon="6.44713">
        <ele>2300.7</ele>
        <time>2024-04-27T09:01:37Z</time>
      </trkpt>
      <trkpt lat="45.85143" lon="6.44713">
        <ele>2300.7</ele>
        <time>2024-04-27T09:01:38Z</time>
      </trkpt>
      <trkpt lat="45.85143" lon="6.44713">
        <ele>2300.7</ele>
        <time>2024-04-27T09:01:39Z</time>
      </trkpt>
      <trkpt lat="45.85143" lon="6.44713">
        <ele>2300.7</ele>
        <time>2024-04-27T09:01:40Z</time>
      </trkpt>
      <trkpt lat="45.85143" lon="6.44713">
        <ele>2300.7</ele>
        <time>2024-04-27T09:01:41Z</time>
      </trkpt>
      <trkpt lat="45.85143" lon="6.44713">
        <ele>2300.7</ele>
        <time>2024-04-27T09:01:42Z</time>
      </trkpt>
      <trkpt lat="45.85143" lon="6.44713">
        <ele>2300.7</ele>
        <time>2024-04-27T09:01:43Z</time>
      </trkpt>
      <trkpt lat="45.85143" lon="6.44713">
        <ele>2300.7</ele>
        <time>2024-04-27T09:01:44Z</time>
      </trkpt>
      <trkpt lat="45.85143" lon="6.44713">
        <ele>2300.7</ele>
        <time>2024-04-27T09:01:45Z</time>
      </trkpt>
      <trkpt lat="45.85143" lon="6.44713">
        <ele>2300.7</ele>
        <time>2024-04-27T09:01:46Z</time>
      </trkpt>
      <trkpt lat="45.85143" lon="6.44713">
        <ele>2300.7</ele>
        <time>2024-04-27T09:01:47Z</time>
      </trkpt>
      <trkpt lat="45.85143" lon="6.44713">
        <ele>2300.7</ele>
        <time>2024-04-27T09:01:48Z</time>
      </trkpt>
      <trkpt lat="45.85143" lon="6.44713">
        <ele>2300.7</ele>
        <time>2024-04-27T09:01:49Z</time>
      </trkpt>
      <trkpt lat="45.85143" lon="6.44713">
        <ele>2300.7</ele>
        <time>2024-04-27T09:01:50Z</time>
      </trkpt>
      <trkpt lat="45.85143" lon="6.44713">
        <ele>2300.7</ele>
        <time>2024-04-27T09:01:51Z</time>
      </trkpt>
      <trkpt lat="45.85143" lon="6.44713">
        <ele>2300.7</ele>
        <time>2024-04-27T09:01:52Z</time>
      </trkpt>
      <trkpt lat="45.85143" lon="6.44713">
        <ele>2300.7</ele>
        <time>2024-04-27T09:01:53Z</time>
      </trkpt>
      <trkpt lat="45.85143" lon="6.44713">
        <ele>2300.7</ele>
        <time>2024-04-27T09:01:54Z</time>
      </trkpt>
      <trkpt lat="45.85143" lon="6.44713">
        <ele>2300.7</ele>
        <time>2024-04-27T09:01:55Z</time>
      </trkpt>
      <trkpt lat="45.85143" lon="6.44713">
        <ele>2300.7</ele>
        <time>2024-04-27T09:01:56Z</time>
      </trkpt>
      <trkpt lat="45.85143" lon="6.44713">
        <ele>2300.7</ele>
        <time>2024-04-27T09:01:57Z</time>
      </trkpt>
      <trkpt lat="45.85143" lon="6.44713">
        <ele>2300.7</ele>
        <time>2024-04-27T09:01:58Z</time>
      </trkpt>
      <trkpt lat="45.85143" lon="6.44713">
        <ele>2300.7</ele>
        <time>2024-04-27T09:01:59Z</time>
      </trkpt>
      <trkpt lat="45.85143" lon="6.44713">
        <ele>2300.7</ele>
        <time>2024-04-27T09:02:00Z</time>
      </trkpt>
      <trkpt lat="45.85143" lon="6.44713">
        <ele>2300.7</ele>
        <time>2024-04-27T09:02:01Z</time>
      </trkpt>
      <trkpt lat="45.85143" lon="6.44713">
        <ele>2300.7</ele>
        <time>2024-04-27T09:02:02Z</time>
      </trkpt>
      <trkpt lat="45.85143" lon="6.44713">
        <ele>2300.7</ele>
        <time>2024-04-27T09:02:03Z</time>
      </trkpt>
      <trkpt lat="45.85143" lon="6.44713">
        <ele>2300.7</ele>
        <time>2024-04-27T09:02:04Z</time>
      </trkpt>
      <trkpt lat="45.85143" lon="6.44713">
        <ele>2300.7</ele>
        <time>2024-04-27T09:02:05Z</time>
      </trkpt>
      <trkpt lat="45.85143" lon="6.44713">
        <ele>2300.7</ele>
        <time>2024-04-27T09:02:06Z</time>
      </trkpt>
      <trkpt lat="45.85143" lon="6.44713">
        <ele>2300.7</ele>
        <time>2024-04-27T09:02:07Z</time>
      </trkpt>
      <trkpt lat="45.85143" lon="6.44713">
        <ele>2300.7</ele>
        <time>2024-04-27T09:02:08Z</time>
      </trkpt>
      <trkpt lat="45.85143" lon="6.44713">
        <ele>2300.7</ele>
        <time>2024-04-27T09:02:09Z</time>
      </trkpt>
      <trkpt lat="45.85143" lon="6.44713">
        <ele>2300.7</ele>
        <time>2024-04-27T09:02:10Z</time>
      </trkpt>
      <trkpt lat="45.85143" lon="6.44713">
        <ele>2300.7</ele>
        <time>2024-04-27T09:02:11Z</time>
      </trkpt>
      <trkpt lat="45.85143" lon="6.44713">
        <ele>2300.7</ele>
        <time>2024-04-27T09:02:12Z</time>
      </trkpt>
      <trkpt lat="45.85143" lon="6.44713">
        <ele>2300.7</ele>
        <time>2024-04-27T09:02:13Z</time>
      </trkpt>
      <trkpt lat="45.85143" lon="6.44713">
        <ele>2300.7</ele>
        <time>2024-04-27T09:02:14Z</time>
      </trkpt>
      <trkpt lat="45.85143" lon="6.44713">
        <ele>2300.7</ele>
        <time>2024-04-27T09:02:15Z</time>
      </trkpt>
      <trkpt lat="45.85143" lon="6.44713">
        <ele>2300.7</ele>
        <time>2024-04-27T09:02:16Z</time>
      </trkpt>
      <trkpt lat="45.85143" lon="6.44713">
        <ele>2300.7</ele>
        <time>2024-04-27T09:02:17Z</time>
      </trkpt>
      <trkpt lat="45.85143" lon="6.44713">
        <ele>2300.7</ele>
        <time>2024-04-27T09:02:18Z</time>
      </trkpt>
      <trkpt lat="45.85143" lon="6.44713">
        <ele>2300.7</ele>
        <time>2024-04-27T09:02:19Z</time>
      </trkpt>
      <trkpt lat="45.85143" lon="6.44713">
        <ele>2300.7</ele>
        <time>2024-04-27T09:02:20Z</time>
      </trkpt>
      <trkpt lat="45.85143" lon="6.44713">
        <ele>2300.7</ele>
        <time>2024-04-27T09:02:21Z</time>
      </trkpt>
      <trkpt lat="45.85143" lon="6.44713">
        <ele>2300.7</ele>
        <time>2024-04-27T09:02:22Z</time>
      </trkpt>
      <trkpt lat="45.85143" lon="6.44713">
        <ele>2300.7</ele>
        <time>2024-04-27T09:02:23Z</time>
      </trkpt>
      <trkpt lat="45.85143" lon="6.44713">
        <ele>2300.7</ele>
        <time>2024-04-27T09:02:24Z</time>
      </trkpt>
      <trkpt lat="45.85143" lon="6.44713">
        <ele>2300.7</ele>
        <time>2024-04-27T09:02:25Z</time>
      </trkpt>
      <trkpt lat="45.85143" lon="6.44713">
        <ele>2300.7</ele>
        <time>2024-04-27T09:02:26Z</time>
      </trkpt>
      <trkpt lat="45.85143" lon="6.44713">
        <ele>2300.7</ele>
        <time>2024-04-27T09:02:27Z</time>
      </trkpt>
      <trkpt lat="45.85143" lon="6.44713">
        <ele>2300.7</ele>
        <time>2024-04-27T09:02:28Z</time>
      </trkpt>
      <trkpt lat="45.85143" lon="6.44713">
        <ele>2300.7</ele>
        <time>2024-04-27T09:02:29Z</time>
      </trkpt>
      <trkpt lat="45.85143" lon="6.44713">
        <ele>2301.7</ele>
        <time>2024-04-27T09:02:30Z</time>
      </trkpt>
      <trkpt lat="45.85143" lon="6.44713">
        <ele>2301.7</ele>
        <time>2024-04-27T09:02:31Z</time>
      </trkpt>
      <trkpt lat="45.85143" lon="6.44713">
        <ele>2301.7</ele>
        <time>2024-04-27T09:02:32Z</time>
      </trkpt>
      <trkpt lat="45.85143" lon="6.44713">
        <ele>2301.7</ele>
        <time>2024-04-27T09:02:33Z</time>
      </trkpt>
      <trkpt lat="45.85143" lon="6.44713">
        <ele>2302.6</ele>
        <time>2024-04-27T09:02:34Z</time>
      </trkpt>
      <trkpt lat="45.85143" lon="6.44713">
        <ele>2302.6</ele>
        <time>2024-04-27T09:02:35Z</time>
      </trkpt>
      <trkpt lat="45.85143" lon="6.44713">
        <ele>2302.6</ele>
        <time>2024-04-27T09:02:36Z</time>
      </trkpt>
      <trkpt lat="45.85143" lon="6.44713">
        <ele>2302.6</ele>
        <time>2024-04-27T09:02:37Z</time>
      </trkpt>
      <trkpt lat="45.85143" lon="6.44713">
        <ele>2302.6</ele>
        <time>2024-04-27T09:02:38Z</time>
      </trkpt>
      <trkpt lat="45.85143" lon="6.44713">
        <ele>2302.6</ele>
        <time>2024-04-27T09:02:39Z</time>
      </trkpt>
      <trkpt lat="45.85143" lon="6.44713">
        <ele>2302.6</ele>
        <time>2024-04-27T09:02:40Z</time>
      </trkpt>
      <trkpt lat="45.85143" lon="6.44713">
        <ele>2302.6</ele>
        <time>2024-04-27T09:02:41Z</time>
      </trkpt>
      <trkpt lat="45.85143" lon="6.44713">
        <ele>2302.6</ele>
        <time>2024-04-27T09:02:42Z</time>
      </trkpt>
      <trkpt lat="45.85143" lon="6.44713">
        <ele>2302.6</ele>
        <time>2024-04-27T09:02:43Z</time>
      </trkpt>
      <trkpt lat="45.85143" lon="6.44713">
        <ele>2302.6</ele>
        <time>2024-04-27T09:02:44Z</time>
      </trkpt>
      <trkpt lat="45.85143" lon="6.44713">
        <ele>2302.6</ele>
        <time>2024-04-27T09:02:45Z</time>
      </trkpt>
      <trkpt lat="45.85143" lon="6.44713">
        <ele>2302.6</ele>
        <time>2024-04-27T09:02:46Z</time>
      </trkpt>
      <trkpt lat="45.85143" lon="6.44713">
        <ele>2302.6</ele>
        <time>2024-04-27T09:02:47Z</time>
      </trkpt>
      <trkpt lat="45.85143" lon="6.44713">
        <ele>2302.6</ele>
        <time>2024-04-27T09:02:48Z</time>
      </trkpt>
      <trkpt lat="45.85143" lon="6.44713">
        <ele>2302.6</ele>
        <time>2024-04-27T09:02:49Z</time>
      </trkpt>
      <trkpt lat="45.85143" lon="6.44713">
        <ele>2302.6</ele>
        <time>2024-04-27T09:02:50Z</time>
      </trkpt>
      <trkpt lat="45.85143" lon="6.44713">
        <ele>2302.6</ele>
        <time>2024-04-27T09:02:51Z</time>
      </trkpt>
      <trkpt lat="45.85143" lon="6.44713">
        <ele>2302.6</ele>
        <time>2024-04-27T09:02:52Z</time>
      </trkpt>
      <trkpt lat="45.85143" lon="6.44713">
        <ele>2302.6</ele>
        <time>2024-04-27T09:02:53Z</time>
      </trkpt>
      <trkpt lat="45.85143" lon="6.44713">
        <ele>2302.6</ele>
        <time>2024-04-27T09:02:54Z</time>
      </trkpt>
      <trkpt lat="45.85143" lon="6.44713">
        <ele>2302.6</ele>
        <time>2024-04-27T09:02:55Z</time>
      </trkpt>
      <trkpt lat="45.85143" lon="6.44713">
        <ele>2302.6</ele>
        <time>2024-04-27T09:02:56Z</time>
      </trkpt>
      <trkpt lat="45.85143" lon="6.44713">
        <ele>2302.6</ele>
        <time>2024-04-27T09:02:57Z</time>
      </trkpt>
      <trkpt lat="45.85143" lon="6.44713">
        <ele>2302.6</ele>
        <time>2024-04-27T09:02:58Z</time>
      </trkpt>
      <trkpt lat="45.85143" lon="6.44713">
        <ele>2302.6</ele>
        <time>2024-04-27T09:02:59Z</time>
      </trkpt>
      <trkpt lat="45.85143" lon="6.44713">
        <ele>2302.6</ele>
        <time>2024-04-27T09:03:00Z</time>
      </trkpt>
      <trkpt lat="45.85143" lon="6.44713">
        <ele>2302.6</ele>
        <time>2024-04-27T09:03:01Z</time>
      </trkpt>
      <trkpt lat="45.85143" lon="6.44713">
        <ele>2302.6</ele>
        <time>2024-04-27T09:03:02Z</time>
      </trkpt>
      <trkpt lat="45.85143" lon="6.44713">
        <ele>2302.6</ele>
        <time>2024-04-27T09:03:03Z</time>
      </trkpt>
      <trkpt lat="45.85143" lon="6.44713">
        <ele>2302.6</ele>
        <time>2024-04-27T09:03:04Z</time>
      </trkpt>
      <trkpt lat="45.85143" lon="6.44713">
        <ele>2302.6</ele>
        <time>2024-04-27T09:03:05Z</time>
      </trkpt>
      <trkpt lat="45.85143" lon="6.44713">
        <ele>2302.6</ele>
        <time>2024-04-27T09:03:06Z</time>
      </trkpt>
      <trkpt lat="45.85143" lon="6.44713">
        <ele>2302.6</ele>
        <time>2024-04-27T09:03:07Z</time>
      </trkpt>
      <trkpt lat="45.85143" lon="6.44713">
        <ele>2302.6</ele>
        <time>2024-04-27T09:03:08Z</time>
      </trkpt>
      <trkpt lat="45.85143" lon="6.44713">
        <ele>2302.6</ele>
        <time>2024-04-27T09:03:09Z</time>
      </trkpt>
      <trkpt lat="45.85143" lon="6.44713">
        <ele>2302.6</ele>
        <time>2024-04-27T09:03:10Z</time>
      </trkpt>
      <trkpt lat="45.85143" lon="6.44713">
        <ele>2302.6</ele>
        <time>2024-04-27T09:03:11Z</time>
      </trkpt>
      <trkpt lat="45.85143" lon="6.44713">
        <ele>2302.6</ele>
        <time>2024-04-27T09:03:12Z</time>
      </trkpt>
      <trkpt lat="45.85143" lon="6.44713">
        <ele>2302.6</ele>
        <time>2024-04-27T09:03:13Z</time>
      </trkpt>
      <trkpt lat="45.85143" lon="6.44713">
        <ele>2302.6</ele>
        <time>2024-04-27T09:03:14Z</time>
      </trkpt>
      <trkpt lat="45.85143" lon="6.44712">
        <ele>2302.6</ele>
        <time>2024-04-27T09:03:15Z</time>
      </trkpt>
      <trkpt lat="45.85143" lon="6.44712">
        <ele>2302.6</ele>
        <time>2024-04-27T09:03:16Z</time>
      </trkpt>
      <trkpt lat="45.85143" lon="6.44712">
        <ele>2302.6</ele>
        <time>2024-04-27T09:03:17Z</time>
      </trkpt>
      <trkpt lat="45.85143" lon="6.44712">
        <ele>2302.6</ele>
        <time>2024-04-27T09:03:18Z</time>
      </trkpt>
      <trkpt lat="45.85143" lon="6.44712">
        <ele>2302.6</ele>
        <time>2024-04-27T09:03:19Z</time>
      </trkpt>
      <trkpt lat="45.85143" lon="6.44712">
        <ele>2301.7</ele>
        <time>2024-04-27T09:03:20Z</time>
      </trkpt>
      <trkpt lat="45.85143" lon="6.44712">
        <ele>2301.7</ele>
        <time>2024-04-27T09:03:21Z</time>
      </trkpt>
      <trkpt lat="45.85143" lon="6.44712">
        <ele>2302.6</ele>
        <time>2024-04-27T09:03:22Z</time>
      </trkpt>
      <trkpt lat="45.85143" lon="6.44712">
        <ele>2302.6</ele>
        <time>2024-04-27T09:03:23Z</time>
      </trkpt>
      <trkpt lat="45.85143" lon="6.44712">
        <ele>2302.6</ele>
        <time>2024-04-27T09:03:24Z</time>
      </trkpt>
      <trkpt lat="45.85143" lon="6.44712">
        <ele>2302.6</ele>
        <time>2024-04-27T09:03:25Z</time>
      </trkpt>
      <trkpt lat="45.85143" lon="6.44712">
        <ele>2302.6</ele>
        <time>2024-04-27T09:03:26Z</time>
      </trkpt>
      <trkpt lat="45.85143" lon="6.44712">
        <ele>2302.6</ele>
        <time>2024-04-27T09:03:27Z</time>
      </trkpt>
      <trkpt lat="45.85143" lon="6.44712">
        <ele>2302.6</ele>
        <time>2024-04-27T09:03:28Z</time>
      </trkpt>
      <trkpt lat="45.85143" lon="6.44712">
        <ele>2302.6</ele>
        <time>2024-04-27T09:03:29Z</time>
      </trkpt>
      <trkpt lat="45.85143" lon="6.44712">
        <ele>2302.6</ele>
        <time>2024-04-27T09:03:30Z</time>
      </trkpt>
      <trkpt lat="45.85143" lon="6.44712">
        <ele>2302.6</ele>
        <time>2024-04-27T09:03:31Z</time>
      </trkpt>
      <trkpt lat="45.85143" lon="6.44712">
        <ele>2302.6</ele>
        <time>2024-04-27T09:03:32Z</time>
      </trkpt>
      <trkpt lat="45.85143" lon="6.44712">
        <ele>2302.6</ele>
        <time>2024-04-27T09:03:33Z</time>
      </trkpt>
      <trkpt lat="45.85143" lon="6.44712">
        <ele>2302.6</ele>
        <time>2024-04-27T09:03:34Z</time>
      </trkpt>
      <trkpt lat="45.85143" lon="6.44712">
        <ele>2302.6</ele>
        <time>2024-04-27T09:03:35Z</time>
      </trkpt>
      <trkpt lat="45.85143" lon="6.44712">
        <ele>2302.6</ele>
        <time>2024-04-27T09:03:36Z</time>
      </trkpt>
      <trkpt lat="45.85143" lon="6.44712">
        <ele>2302.6</ele>
        <time>2024-04-27T09:03:37Z</time>
      </trkpt>
      <trkpt lat="45.85143" lon="6.44712">
        <ele>2302.6</ele>
        <time>2024-04-27T09:03:38Z</time>
      </trkpt>
      <trkpt lat="45.85143" lon="6.44713">
        <ele>2302.6</ele>
        <time>2024-04-27T09:03:39Z</time>
      </trkpt>
      <trkpt lat="45.85143" lon="6.44713">
        <ele>2302.6</ele>
        <time>2024-04-27T09:03:40Z</time>
      </trkpt>
      <trkpt lat="45.85143" lon="6.44713">
        <ele>2302.6</ele>
        <time>2024-04-27T09:03:41Z</time>
      </trkpt>
      <trkpt lat="45.85143" lon="6.44713">
        <ele>2302.6</ele>
        <time>2024-04-27T09:03:42Z</time>
      </trkpt>
      <trkpt lat="45.85143" lon="6.44713">
        <ele>2302.6</ele>
        <time>2024-04-27T09:03:43Z</time>
      </trkpt>
      <trkpt lat="45.85143" lon="6.44713">
        <ele>2302.6</ele>
        <time>2024-04-27T09:03:44Z</time>
      </trkpt>
      <trkpt lat="45.85143" lon="6.44713">
        <ele>2302.6</ele>
        <time>2024-04-27T09:03:45Z</time>
      </trkpt>
      <trkpt lat="45.85143" lon="6.44713">
        <ele>2302.6</ele>
        <time>2024-04-27T09:03:46Z</time>
      </trkpt>
      <trkpt lat="45.85143" lon="6.44713">
        <ele>2302.6</ele>
        <time>2024-04-27T09:03:47Z</time>
      </trkpt>
      <trkpt lat="45.85143" lon="6.44713">
        <ele>2302.6</ele>
        <time>2024-04-27T09:03:48Z</time>
      </trkpt>
      <trkpt lat="45.85143" lon="6.44713">
        <ele>2302.6</ele>
        <time>2024-04-27T09:03:49Z</time>
      </trkpt>
      <trkpt lat="45.85143" lon="6.44713">
        <ele>2303.7</ele>
        <time>2024-04-27T09:03:50Z</time>
      </trkpt>
      <trkpt lat="45.85143" lon="6.44713">
        <ele>2303.7</ele>
        <time>2024-04-27T09:03:51Z</time>
      </trkpt>
      <trkpt lat="45.85143" lon="6.44713">
        <ele>2302.6</ele>
        <time>2024-04-27T09:03:52Z</time>
      </trkpt>
      <trkpt lat="45.85143" lon="6.44713">
        <ele>2302.6</ele>
        <time>2024-04-27T09:03:53Z</time>
      </trkpt>
      <trkpt lat="45.85143" lon="6.44713">
        <ele>2302.6</ele>
        <time>2024-04-27T09:03:54Z</time>
      </trkpt>
      <trkpt lat="45.85143" lon="6.44713">
        <ele>2302.6</ele>
        <time>2024-04-27T09:03:55Z</time>
      </trkpt>
      <trkpt lat="45.85143" lon="6.44713">
        <ele>2302.6</ele>
        <time>2024-04-27T09:03:56Z</time>
      </trkpt>
      <trkpt lat="45.85143" lon="6.44713">
        <ele>2302.6</ele>
        <time>2024-04-27T09:03:57Z</time>
      </trkpt>
      <trkpt lat="45.85143" lon="6.44713">
        <ele>2302.6</ele>
        <time>2024-04-27T09:03:58Z</time>
      </trkpt>
      <trkpt lat="45.85143" lon="6.44713">
        <ele>2302.6</ele>
        <time>2024-04-27T09:03:59Z</time>
      </trkpt>
      <trkpt lat="45.85143" lon="6.44713">
        <ele>2302.6</ele>
        <time>2024-04-27T09:04:00Z</time>
      </trkpt>
      <trkpt lat="45.85143" lon="6.44713">
        <ele>2302.6</ele>
        <time>2024-04-27T09:04:01Z</time>
      </trkpt>
      <trkpt lat="45.85143" lon="6.44713">
        <ele>2302.6</ele>
        <time>2024-04-27T09:04:02Z</time>
      </trkpt>
      <trkpt lat="45.85143" lon="6.44712">
        <ele>2302.6</ele>
        <time>2024-04-27T09:04:03Z</time>
      </trkpt>
      <trkpt lat="45.85142" lon="6.44712">
        <ele>2302.6</ele>
        <time>2024-04-27T09:04:04Z</time>
      </trkpt>
      <trkpt lat="45.85141" lon="6.44711">
        <ele>2302.6</ele>
        <time>2024-04-27T09:04:05Z</time>
      </trkpt>
      <trkpt lat="45.85141" lon="6.44712">
        <ele>2301.7</ele>
        <time>2024-04-27T09:04:06Z</time>
      </trkpt>
      <trkpt lat="45.85141" lon="6.44712">
        <ele>2301.7</ele>
        <time>2024-04-27T09:04:07Z</time>
      </trkpt>
      <trkpt lat="45.85141" lon="6.44713">
        <ele>2301.7</ele>
        <time>2024-04-27T09:04:08Z</time>
      </trkpt>
      <trkpt lat="45.85141" lon="6.44713">
        <ele>2301.7</ele>
        <time>2024-04-27T09:04:09Z</time>
      </trkpt>
      <trkpt lat="45.85141" lon="6.44713">
        <ele>2301.7</ele>
        <time>2024-04-27T09:04:10Z</time>
      </trkpt>
      <trkpt lat="45.85141" lon="6.44712">
        <ele>2301.7</ele>
        <time>2024-04-27T09:04:11Z</time>
      </trkpt>
      <trkpt lat="45.85141" lon="6.44712">
        <ele>2301.7</ele>
        <time>2024-04-27T09:04:12Z</time>
      </trkpt>
      <trkpt lat="45.85141" lon="6.44712">
        <ele>2301.7</ele>
        <time>2024-04-27T09:04:13Z</time>
      </trkpt>
      <trkpt lat="45.85141" lon="6.44712">
        <ele>2301.7</ele>
        <time>2024-04-27T09:04:14Z</time>
      </trkpt>
      <trkpt lat="45.85141" lon="6.44712">
        <ele>2301.7</ele>
        <time>2024-04-27T09:04:15Z</time>
      </trkpt>
      <trkpt lat="45.85141" lon="6.44712">
        <ele>2302.6</ele>
        <time>2024-04-27T09:04:16Z</time>
      </trkpt>
      <trkpt lat="45.85141" lon="6.44712">
        <ele>2302.6</ele>
        <time>2024-04-27T09:04:17Z</time>
      </trkpt>
      <trkpt lat="45.85141" lon="6.44712">
        <ele>2302.6</ele>
        <time>2024-04-27T09:04:18Z</time>
      </trkpt>
      <trkpt lat="45.85141" lon="6.44712">
        <ele>2302.6</ele>
        <time>2024-04-27T09:04:19Z</time>
      </trkpt>
      <trkpt lat="45.85141" lon="6.44712">
        <ele>2302.6</ele>
        <time>2024-04-27T09:04:20Z</time>
      </trkpt>
      <trkpt lat="45.85141" lon="6.44712">
        <ele>2302.6</ele>
        <time>2024-04-27T09:04:21Z</time>
      </trkpt>
      <trkpt lat="45.85141" lon="6.44712">
        <ele>2302.6</ele>
        <time>2024-04-27T09:04:22Z</time>
      </trkpt>
      <trkpt lat="45.85141" lon="6.44712">
        <ele>2302.6</ele>
        <time>2024-04-27T09:04:23Z</time>
      </trkpt>
      <trkpt lat="45.85141" lon="6.44712">
        <ele>2302.6</ele>
        <time>2024-04-27T09:04:24Z</time>
      </trkpt>
      <trkpt lat="45.85141" lon="6.44712">
        <ele>2302.6</ele>
        <time>2024-04-27T09:04:25Z</time>
      </trkpt>
      <trkpt lat="45.85141" lon="6.44712">
        <ele>2302.6</ele>
        <time>2024-04-27T09:04:26Z</time>
      </trkpt>
      <trkpt lat="45.85141" lon="6.44712">
        <ele>2302.6</ele>
        <time>2024-04-27T09:04:27Z</time>
      </trkpt>
      <trkpt lat="45.85141" lon="6.44712">
        <ele>2302.6</ele>
        <time>2024-04-27T09:04:28Z</time>
      </trkpt>
      <trkpt lat="45.85141" lon="6.44712">
        <ele>2302.6</ele>
        <time>2024-04-27T09:04:29Z</time>
      </trkpt>
      <trkpt lat="45.85141" lon="6.44712">
        <ele>2302.6</ele>
        <time>2024-04-27T09:04:30Z</time>
      </trkpt>
      <trkpt lat="45.85141" lon="6.44712">
        <ele>2302.6</ele>
        <time>2024-04-27T09:04:31Z</time>
      </trkpt>
      <trkpt lat="45.8514" lon="6.44712">
        <ele>2301.7</ele>
        <time>2024-04-27T09:04:32Z</time>
      </trkpt>
      <trkpt lat="45.8514" lon="6.44712">
        <ele>2301.7</ele>
        <time>2024-04-27T09:04:33Z</time>
      </trkpt>
      <trkpt lat="45.8514" lon="6.44712">
        <ele>2300.7</ele>
        <time>2024-04-27T09:04:34Z</time>
      </trkpt>
      <trkpt lat="45.8514" lon="6.44712">
        <ele>2300.7</ele>
        <time>2024-04-27T09:04:35Z</time>
      </trkpt>
      <trkpt lat="45.8514" lon="6.44712">
        <ele>2300.7</ele>
        <time>2024-04-27T09:04:36Z</time>
      </trkpt>
      <trkpt lat="45.8514" lon="6.44712">
        <ele>2300.7</ele>
        <time>2024-04-27T09:04:37Z</time>
      </trkpt>
      <trkpt lat="45.8514" lon="6.44712">
        <ele>2300.7</ele>
        <time>2024-04-27T09:04:38Z</time>
      </trkpt>
      <trkpt lat="45.8514" lon="6.44712">
        <ele>2300.7</ele>
        <time>2024-04-27T09:04:39Z</time>
      </trkpt>
      <trkpt lat="45.8514" lon="6.44712">
        <ele>2300.7</ele>
        <time>2024-04-27T09:04:40Z</time>
      </trkpt>
      <trkpt lat="45.8514" lon="6.44712">
        <ele>2300.7</ele>
        <time>2024-04-27T09:04:41Z</time>
      </trkpt>
      <trkpt lat="45.8514" lon="6.44712">
        <ele>2300.7</ele>
        <time>2024-04-27T09:04:42Z</time>
      </trkpt>
      <trkpt lat="45.85139" lon="6.44712">
        <ele>2300.7</ele>
        <time>2024-04-27T09:04:43Z</time>
      </trkpt>
      <trkpt lat="45.85139" lon="6.44712">
        <ele>2300.7</ele>
        <time>2024-04-27T09:04:44Z</time>
      </trkpt>
      <trkpt lat="45.85139" lon="6.44712">
        <ele>2300.7</ele>
        <time>2024-04-27T09:04:45Z</time>
      </trkpt>
      <trkpt lat="45.85139" lon="6.44712">
        <ele>2300.7</ele>
        <time>2024-04-27T09:04:46Z</time>
      </trkpt>
      <trkpt lat="45.85139" lon="6.44712">
        <ele>2300.7</ele>
        <time>2024-04-27T09:04:47Z</time>
      </trkpt>
      <trkpt lat="45.85139" lon="6.44711">
        <ele>2300.7</ele>
        <time>2024-04-27T09:04:48Z</time>
      </trkpt>
      <trkpt lat="45.85139" lon="6.44711">
        <ele>2300.7</ele>
        <time>2024-04-27T09:04:49Z</time>
      </trkpt>
      <trkpt lat="45.85138" lon="6.44711">
        <ele>2300.7</ele>
        <time>2024-04-27T09:04:50Z</time>
      </trkpt>
      <trkpt lat="45.85138" lon="6.44711">
        <ele>2300.7</ele>
        <time>2024-04-27T09:04:51Z</time>
      </trkpt>
      <trkpt lat="45.85138" lon="6.44711">
        <ele>2300.7</ele>
        <time>2024-04-27T09:04:52Z</time>
      </trkpt>
      <trkpt lat="45.85138" lon="6.44711">
        <ele>2300.7</ele>
        <time>2024-04-27T09:04:53Z</time>
      </trkpt>
      <trkpt lat="45.85138" lon="6.44711">
        <ele>2300.7</ele>
        <time>2024-04-27T09:04:54Z</time>
      </trkpt>
      <trkpt lat="45.85138" lon="6.4471">
        <ele>2300.7</ele>
        <time>2024-04-27T09:04:55Z</time>
      </trkpt>
      <trkpt lat="45.85138" lon="6.4471">
        <ele>2300.7</ele>
        <time>2024-04-27T09:04:56Z</time>
      </trkpt>
      <trkpt lat="45.85138" lon="6.4471">
        <ele>2300.7</ele>
        <time>2024-04-27T09:04:57Z</time>
      </trkpt>
      <trkpt lat="45.85138" lon="6.4471">
        <ele>2300.7</ele>
        <time>2024-04-27T09:04:58Z</time>
      </trkpt>
      <trkpt lat="45.85138" lon="6.4471">
        <ele>2300.7</ele>
        <time>2024-04-27T09:04:59Z</time>
      </trkpt>
      <trkpt lat="45.85138" lon="6.4471">
        <ele>2300.7</ele>
        <time>2024-04-27T09:05:00Z</time>
      </trkpt>
      <trkpt lat="45.85138" lon="6.4471">
        <ele>2300.7</ele>
        <time>2024-04-27T09:05:01Z</time>
      </trkpt>
      <trkpt lat="45.85138" lon="6.4471">
        <ele>2300.7</ele>
        <time>2024-04-27T09:05:02Z</time>
      </trkpt>
      <trkpt lat="45.85138" lon="6.4471">
        <ele>2300.7</ele>
        <time>2024-04-27T09:05:03Z</time>
      </trkpt>
      <trkpt lat="45.85138" lon="6.4471">
        <ele>2300.7</ele>
        <time>2024-04-27T09:05:04Z</time>
      </trkpt>
      <trkpt lat="45.85138" lon="6.4471">
        <ele>2300.7</ele>
        <time>2024-04-27T09:05:05Z</time>
      </trkpt>
      <trkpt lat="45.85138" lon="6.4471">
        <ele>2300.7</ele>
        <time>2024-04-27T09:05:06Z</time>
      </trkpt>
      <trkpt lat="45.85138" lon="6.4471">
        <ele>2300.7</ele>
        <time>2024-04-27T09:05:07Z</time>
      </trkpt>
      <trkpt lat="45.85138" lon="6.44709">
        <ele>2300.7</ele>
        <time>2024-04-27T09:05:08Z</time>
      </trkpt>
      <trkpt lat="45.85138" lon="6.44709">
        <ele>2300.7</ele>
        <time>2024-04-27T09:05:09Z</time>
      </trkpt>
      <trkpt lat="45.85138" lon="6.44709">
        <ele>2300.7</ele>
        <time>2024-04-27T09:05:10Z</time>
      </trkpt>
      <trkpt lat="45.85138" lon="6.44709">
        <ele>2300.7</ele>
        <time>2024-04-27T09:05:11Z</time>
      </trkpt>
      <trkpt lat="45.85139" lon="6.44709">
        <ele>2300.7</ele>
        <time>2024-04-27T09:05:12Z</time>
      </trkpt>
      <trkpt lat="45.85139" lon="6.44709">
        <ele>2300.7</ele>
        <time>2024-04-27T09:05:13Z</time>
      </trkpt>
      <trkpt lat="45.85139" lon="6.44709">
        <ele>2300.7</ele>
        <time>2024-04-27T09:05:14Z</time>
      </trkpt>
      <trkpt lat="45.85139" lon="6.44709">
        <ele>2300.7</ele>
        <time>2024-04-27T09:05:15Z</time>
      </trkpt>
      <trkpt lat="45.85139" lon="6.44709">
        <ele>2300.7</ele>
        <time>2024-04-27T09:05:16Z</time>
      </trkpt>
      <trkpt lat="45.85139" lon="6.44709">
        <ele>2300.7</ele>
        <time>2024-04-27T09:05:17Z</time>
      </trkpt>
      <trkpt lat="45.85139" lon="6.44709">
        <ele>2300.7</ele>
        <time>2024-04-27T09:05:18Z</time>
      </trkpt>
      <trkpt lat="45.85139" lon="6.44709">
        <ele>2300.7</ele>
        <time>2024-04-27T09:05:19Z</time>
      </trkpt>
      <trkpt lat="45.85139" lon="6.44709">
        <ele>2300.7</ele>
        <time>2024-04-27T09:05:20Z</time>
      </trkpt>
      <trkpt lat="45.85139" lon="6.44709">
        <ele>2300.7</ele>
        <time>2024-04-27T09:05:21Z</time>
      </trkpt>
      <trkpt lat="45.85139" lon="6.44709">
        <ele>2300.7</ele>
        <time>2024-04-27T09:05:22Z</time>
      </trkpt>
      <trkpt lat="45.85139" lon="6.44709">
        <ele>2300.7</ele>
        <time>2024-04-27T09:05:23Z</time>
      </trkpt>
      <trkpt lat="45.85139" lon="6.44709">
        <ele>2300.7</ele>
        <time>2024-04-27T09:05:24Z</time>
      </trkpt>
      <trkpt lat="45.85139" lon="6.4471">
        <ele>2300.7</ele>
        <time>2024-04-27T09:05:25Z</time>
      </trkpt>
      <trkpt lat="45.85139" lon="6.4471">
        <ele>2300.7</ele>
        <time>2024-04-27T09:05:26Z</time>
      </trkpt>
      <trkpt lat="45.85139" lon="6.4471">
        <ele>2300.7</ele>
        <time>2024-04-27T09:05:27Z</time>
      </trkpt>
      <trkpt lat="45.85139" lon="6.4471">
        <ele>2300.7</ele>
        <time>2024-04-27T09:05:28Z</time>
      </trkpt>
      <trkpt lat="45.85139" lon="6.4471">
        <ele>2300.7</ele>
        <time>2024-04-27T09:05:29Z</time>
      </trkpt>
      <trkpt lat="45.85139" lon="6.4471">
        <ele>2300.7</ele>
        <time>2024-04-27T09:05:30Z</time>
      </trkpt>
      <trkpt lat="45.85139" lon="6.4471">
        <ele>2300.7</ele>
        <time>2024-04-27T09:05:31Z</time>
      </trkpt>
      <trkpt lat="45.85139" lon="6.4471">
        <ele>2300.7</ele>
        <time>2024-04-27T09:05:32Z</time>
      </trkpt>
      <trkpt lat="45.85139" lon="6.4471">
        <ele>2300.7</ele>
        <time>2024-04-27T09:05:33Z</time>
      </trkpt>
      <trkpt lat="45.85139" lon="6.4471">
        <ele>2301.7</ele>
        <time>2024-04-27T09:05:34Z</time>
      </trkpt>
      <trkpt lat="45.85139" lon="6.4471">
        <ele>2301.7</ele>
        <time>2024-04-27T09:05:35Z</time>
      </trkpt>
      <trkpt lat="45.85139" lon="6.4471">
        <ele>2301.7</ele>
        <time>2024-04-27T09:05:36Z</time>
      </trkpt>
      <trkpt lat="45.85139" lon="6.4471">
        <ele>2301.7</ele>
        <time>2024-04-27T09:05:37Z</time>
      </trkpt>
      <trkpt lat="45.85139" lon="6.4471">
        <ele>2301.7</ele>
        <time>2024-04-27T09:05:38Z</time>
      </trkpt>
      <trkpt lat="45.85139" lon="6.4471">
        <ele>2301.7</ele>
        <time>2024-04-27T09:05:39Z</time>
      </trkpt>
      <trkpt lat="45.85139" lon="6.4471">
        <ele>2301.7</ele>
        <time>2024-04-27T09:05:40Z</time>
      </trkpt>
      <trkpt lat="45.85139" lon="6.4471">
        <ele>2301.7</ele>
        <time>2024-04-27T09:05:41Z</time>
      </trkpt>
      <trkpt lat="45.85139" lon="6.4471">
        <ele>2301.7</ele>
        <time>2024-04-27T09:05:42Z</time>
      </trkpt>
      <trkpt lat="45.85139" lon="6.4471">
        <ele>2301.7</ele>
        <time>2024-04-27T09:05:43Z</time>
      </trkpt>
      <trkpt lat="45.85139" lon="6.4471">
        <ele>2301.7</ele>
        <time>2024-04-27T09:05:44Z</time>
      </trkpt>
      <trkpt lat="45.85139" lon="6.44711">
        <ele>2301.7</ele>
        <time>2024-04-27T09:05:45Z</time>
      </trkpt>
      <trkpt lat="45.85139" lon="6.44711">
        <ele>2301.7</ele>
        <time>2024-04-27T09:05:46Z</time>
      </trkpt>
      <trkpt lat="45.85139" lon="6.44711">
        <ele>2301.7</ele>
        <time>2024-04-27T09:05:47Z</time>
      </trkpt>
      <trkpt lat="45.85139" lon="6.44711">
        <ele>2300.7</ele>
        <time>2024-04-27T09:05:48Z</time>
      </trkpt>
      <trkpt lat="45.85139" lon="6.44711">
        <ele>2300.7</ele>
        <time>2024-04-27T09:05:49Z</time>
      </trkpt>
      <trkpt lat="45.85139" lon="6.44711">
        <ele>2300.7</ele>
        <time>2024-04-27T09:05:50Z</time>
      </trkpt>
      <trkpt lat="45.85139" lon="6.44711">
        <ele>2300.7</ele>
        <time>2024-04-27T09:05:51Z</time>
      </trkpt>
      <trkpt lat="45.85139" lon="6.44711">
        <ele>2301.7</ele>
        <time>2024-04-27T09:05:52Z</time>
      </trkpt>
      <trkpt lat="45.85139" lon="6.44711">
        <ele>2301.7</ele>
        <time>2024-04-27T09:05:53Z</time>
      </trkpt>
      <trkpt lat="45.85139" lon="6.44711">
        <ele>2301.7</ele>
        <time>2024-04-27T09:05:54Z</time>
      </trkpt>
      <trkpt lat="45.85139" lon="6.44711">
        <ele>2301.7</ele>
        <time>2024-04-27T09:05:55Z</time>
      </trkpt>
      <trkpt lat="45.85139" lon="6.44711">
        <ele>2301.7</ele>
        <time>2024-04-27T09:05:56Z</time>
      </trkpt>
      <trkpt lat="45.85139" lon="6.44711">
        <ele>2301.7</ele>
        <time>2024-04-27T09:05:57Z</time>
      </trkpt>
      <trkpt lat="45.85139" lon="6.44711">
        <ele>2302.6</ele>
        <time>2024-04-27T09:05:58Z</time>
      </trkpt>
      <trkpt lat="45.85139" lon="6.44712">
        <ele>2302.6</ele>
        <time>2024-04-27T09:05:59Z</time>
      </trkpt>
      <trkpt lat="45.85139" lon="6.44712">
        <ele>2302.6</ele>
        <time>2024-04-27T09:06:00Z</time>
      </trkpt>
      <trkpt lat="45.85139" lon="6.44712">
        <ele>2302.6</ele>
        <time>2024-04-27T09:06:01Z</time>
      </trkpt>
      <trkpt lat="45.85139" lon="6.44712">
        <ele>2302.6</ele>
        <time>2024-04-27T09:06:02Z</time>
      </trkpt>
      <trkpt lat="45.85139" lon="6.44712">
        <ele>2302.6</ele>
        <time>2024-04-27T09:06:03Z</time>
      </trkpt>
      <trkpt lat="45.85139" lon="6.44712">
        <ele>2303.7</ele>
        <time>2024-04-27T09:06:04Z</time>
      </trkpt>
      <trkpt lat="45.85139" lon="6.44712">
        <ele>2303.7</ele>
        <time>2024-04-27T09:06:05Z</time>
      </trkpt>
      <trkpt lat="45.85139" lon="6.44712">
        <ele>2303.7</ele>
        <time>2024-04-27T09:06:06Z</time>
      </trkpt>
      <trkpt lat="45.85139" lon="6.44712">
        <ele>2303.7</ele>
        <time>2024-04-27T09:06:07Z</time>
      </trkpt>
      <trkpt lat="45.85139" lon="6.44712">
        <ele>2304.6</ele>
        <time>2024-04-27T09:06:08Z</time>
      </trkpt>
      <trkpt lat="45.85139" lon="6.44712">
        <ele>2304.6</ele>
        <time>2024-04-27T09:06:09Z</time>
      </trkpt>
      <trkpt lat="45.85139" lon="6.44713">
        <ele>2304.6</ele>
        <time>2024-04-27T09:06:10Z</time>
      </trkpt>
      <trkpt lat="45.85139" lon="6.44713">
        <ele>2304.6</ele>
        <time>2024-04-27T09:06:11Z</time>
      </trkpt>
      <trkpt lat="45.85139" lon="6.44713">
        <ele>2305.7</ele>
        <time>2024-04-27T09:06:12Z</time>
      </trkpt>
      <trkpt lat="45.85139" lon="6.44713">
        <ele>2305.7</ele>
        <time>2024-04-27T09:06:13Z</time>
      </trkpt>
      <trkpt lat="45.85139" lon="6.44713">
        <ele>2306.6</ele>
        <time>2024-04-27T09:06:14Z</time>
      </trkpt>
      <trkpt lat="45.85139" lon="6.44713">
        <ele>2306.6</ele>
        <time>2024-04-27T09:06:15Z</time>
      </trkpt>
      <trkpt lat="45.85139" lon="6.44713">
        <ele>2306.6</ele>
        <time>2024-04-27T09:06:16Z</time>
      </trkpt>
      <trkpt lat="45.85139" lon="6.44713">
        <ele>2306.6</ele>
        <time>2024-04-27T09:06:17Z</time>
      </trkpt>
      <trkpt lat="45.85139" lon="6.44713">
        <ele>2307.7</ele>
        <time>2024-04-27T09:06:18Z</time>
      </trkpt>
      <trkpt lat="45.85139" lon="6.44713">
        <ele>2307.7</ele>
        <time>2024-04-27T09:06:19Z</time>
      </trkpt>
      <trkpt lat="45.85139" lon="6.44713">
        <ele>2307.7</ele>
        <time>2024-04-27T09:06:20Z</time>
      </trkpt>
      <trkpt lat="45.85139" lon="6.44713">
        <ele>2307.7</ele>
        <time>2024-04-27T09:06:21Z</time>
      </trkpt>
      <trkpt lat="45.85139" lon="6.44713">
        <ele>2307.7</ele>
        <time>2024-04-27T09:06:22Z</time>
      </trkpt>
      <trkpt lat="45.85139" lon="6.44714">
        <ele>2307.7</ele>
        <time>2024-04-27T09:06:23Z</time>
      </trkpt>
      <trkpt lat="45.85139" lon="6.44714">
        <ele>2307.7</ele>
        <time>2024-04-27T09:06:24Z</time>
      </trkpt>
      <trkpt lat="45.85138" lon="6.44714">
        <ele>2307.7</ele>
        <time>2024-04-27T09:06:25Z</time>
      </trkpt>
      <trkpt lat="45.85138" lon="6.44714">
        <ele>2307.7</ele>
        <time>2024-04-27T09:06:26Z</time>
      </trkpt>
      <trkpt lat="45.85138" lon="6.44714">
        <ele>2307.7</ele>
        <time>2024-04-27T09:06:27Z</time>
      </trkpt>
      <trkpt lat="45.85137" lon="6.44714">
        <ele>2307.7</ele>
        <time>2024-04-27T09:06:28Z</time>
      </trkpt>
      <trkpt lat="45.85137" lon="6.44714">
        <ele>2307.7</ele>
        <time>2024-04-27T09:06:29Z</time>
      </trkpt>
      <trkpt lat="45.85137" lon="6.44714">
        <ele>2307.7</ele>
        <time>2024-04-27T09:06:30Z</time>
      </trkpt>
      <trkpt lat="45.85136" lon="6.44714">
        <ele>2307.7</ele>
        <time>2024-04-27T09:06:31Z</time>
      </trkpt>
      <trkpt lat="45.85136" lon="6.44714">
        <ele>2307.7</ele>
        <time>2024-04-27T09:06:32Z</time>
      </trkpt>
      <trkpt lat="45.85136" lon="6.44714">
        <ele>2307.7</ele>
        <time>2024-04-27T09:06:33Z</time>
      </trkpt>
      <trkpt lat="45.85136" lon="6.44714">
        <ele>2307.7</ele>
        <time>2024-04-27T09:06:34Z</time>
      </trkpt>
      <trkpt lat="45.85136" lon="6.44714">
        <ele>2307.7</ele>
        <time>2024-04-27T09:06:35Z</time>
      </trkpt>
      <trkpt lat="45.85135" lon="6.44714">
        <ele>2307.7</ele>
        <time>2024-04-27T09:06:36Z</time>
      </trkpt>
      <trkpt lat="45.85135" lon="6.44714">
        <ele>2307.7</ele>
        <time>2024-04-27T09:06:37Z</time>
      </trkpt>
      <trkpt lat="45.85134" lon="6.44714">
        <ele>2307.7</ele>
        <time>2024-04-27T09:06:38Z</time>
      </trkpt>
      <trkpt lat="45.85134" lon="6.44714">
        <ele>2307.7</ele>
        <time>2024-04-27T09:06:39Z</time>
      </trkpt>
      <trkpt lat="45.85133" lon="6.44715">
        <ele>2308.6</ele>
        <time>2024-04-27T09:06:40Z</time>
      </trkpt>
      <trkpt lat="45.85132" lon="6.44715">
        <ele>2308.6</ele>
        <time>2024-04-27T09:06:41Z</time>
      </trkpt>
      <trkpt lat="45.85132" lon="6.44715">
        <ele>2308.6</ele>
        <time>2024-04-27T09:06:42Z</time>
      </trkpt>
      <trkpt lat="45.85132" lon="6.44715">
        <ele>2308.6</ele>
        <time>2024-04-27T09:06:43Z</time>
      </trkpt>
      <trkpt lat="45.85132" lon="6.44715">
        <ele>2309.7</ele>
        <time>2024-04-27T09:06:44Z</time>
      </trkpt>
      <trkpt lat="45.85132" lon="6.44715">
        <ele>2309.7</ele>
        <time>2024-04-27T09:06:45Z</time>
      </trkpt>
      <trkpt lat="45.85132" lon="6.44715">
        <ele>2309.7</ele>
        <time>2024-04-27T09:06:46Z</time>
      </trkpt>
      <trkpt lat="45.85132" lon="6.44715">
        <ele>2309.7</ele>
        <time>2024-04-27T09:06:47Z</time>
      </trkpt>
      <trkpt lat="45.85132" lon="6.44715">
        <ele>2309.7</ele>
        <time>2024-04-27T09:06:48Z</time>
      </trkpt>
      <trkpt lat="45.8513" lon="6.44715">
        <ele>2309.7</ele>
        <time>2024-04-27T09:06:49Z</time>
      </trkpt>
      <trkpt lat="45.8513" lon="6.44715">
        <ele>2309.7</ele>
        <time>2024-04-27T09:06:50Z</time>
      </trkpt>
      <trkpt lat="45.8513" lon="6.44715">
        <ele>2309.7</ele>
        <time>2024-04-27T09:06:51Z</time>
      </trkpt>
      <trkpt lat="45.8513" lon="6.44715">
        <ele>2309.7</ele>
        <time>2024-04-27T09:06:52Z</time>
      </trkpt>
      <trkpt lat="45.8513" lon="6.44715">
        <ele>2309.7</ele>
        <time>2024-04-27T09:06:53Z</time>
      </trkpt>
      <trkpt lat="45.8513" lon="6.44715">
        <ele>2310.7</ele>
        <time>2024-04-27T09:06:54Z</time>
      </trkpt>
      <trkpt lat="45.8513" lon="6.44715">
        <ele>2310.7</ele>
        <time>2024-04-27T09:06:55Z</time>
      </trkpt>
      <trkpt lat="45.8513" lon="6.44715">
        <ele>2310.7</ele>
        <time>2024-04-27T09:06:56Z</time>
      </trkpt>
      <trkpt lat="45.8513" lon="6.44715">
        <ele>2310.7</ele>
        <time>2024-04-27T09:06:57Z</time>
      </trkpt>
      <trkpt lat="45.8513" lon="6.44715">
        <ele>2311.6</ele>
        <time>2024-04-27T09:06:58Z</time>
      </trkpt>
      <trkpt lat="45.8513" lon="6.44715">
        <ele>2311.6</ele>
        <time>2024-04-27T09:06:59Z</time>
      </trkpt>
      <trkpt lat="45.85129" lon="6.44715">
        <ele>2311.6</ele>
        <time>2024-04-27T09:07:00Z</time>
      </trkpt>
      <trkpt lat="45.85129" lon="6.44715">
        <ele>2311.6</ele>
        <time>2024-04-27T09:07:01Z</time>
      </trkpt>
      <trkpt lat="45.85129" lon="6.44715">
        <ele>2311.6</ele>
        <time>2024-04-27T09:07:02Z</time>
      </trkpt>
      <trkpt lat="45.85129" lon="6.44715">
        <ele>2311.6</ele>
        <time>2024-04-27T09:07:03Z</time>
      </trkpt>
      <trkpt lat="45.85128" lon="6.44715">
        <ele>2311.6</ele>
        <time>2024-04-27T09:07:04Z</time>
      </trkpt>
      <trkpt lat="45.85128" lon="6.44715">
        <ele>2311.6</ele>
        <time>2024-04-27T09:07:05Z</time>
      </trkpt>
      <trkpt lat="45.85127" lon="6.44715">
        <ele>2311.6</ele>
        <time>2024-04-27T09:07:06Z</time>
      </trkpt>
      <trkpt lat="45.85127" lon="6.44715">
        <ele>2311.6</ele>
        <time>2024-04-27T09:07:07Z</time>
      </trkpt>
      <trkpt lat="45.85127" lon="6.44715">
        <ele>2310.7</ele>
        <time>2024-04-27T09:07:08Z</time>
      </trkpt>
      <trkpt lat="45.85127" lon="6.44715">
        <ele>2310.7</ele>
        <time>2024-04-27T09:07:09Z</time>
      </trkpt>
      <trkpt lat="45.85127" lon="6.44714">
        <ele>2310.7</ele>
        <time>2024-04-27T09:07:10Z</time>
      </trkpt>
      <trkpt lat="45.85127" lon="6.44714">
        <ele>2310.7</ele>
        <time>2024-04-27T09:07:11Z</time>
      </trkpt>
      <trkpt lat="45.85127" lon="6.44714">
        <ele>2310.7</ele>
        <time>2024-04-27T09:07:12Z</time>
      </trkpt>
      <trkpt lat="45.85127" lon="6.44714">
        <ele>2310.7</ele>
        <time>2024-04-27T09:07:13Z</time>
      </trkpt>
      <trkpt lat="45.85127" lon="6.44714">
        <ele>2310.7</ele>
        <time>2024-04-27T09:07:14Z</time>
      </trkpt>
      <trkpt lat="45.85127" lon="6.44714">
        <ele>2310.7</ele>
        <time>2024-04-27T09:07:15Z</time>
      </trkpt>
      <trkpt lat="45.85127" lon="6.44714">
        <ele>2310.7</ele>
        <time>2024-04-27T09:07:16Z</time>
      </trkpt>
      <trkpt lat="45.85127" lon="6.44714">
        <ele>2310.7</ele>
        <time>2024-04-27T09:07:17Z</time>
      </trkpt>
      <trkpt lat="45.85127" lon="6.44714">
        <ele>2310.7</ele>
        <time>2024-04-27T09:07:18Z</time>
      </trkpt>
      <trkpt lat="45.85127" lon="6.44714">
        <ele>2310.7</ele>
        <time>2024-04-27T09:07:19Z</time>
      </trkpt>
      <trkpt lat="45.85126" lon="6.44714">
        <ele>2310.7</ele>
        <time>2024-04-27T09:07:20Z</time>
      </trkpt>
      <trkpt lat="45.85126" lon="6.44714">
        <ele>2310.7</ele>
        <time>2024-04-27T09:07:21Z</time>
      </trkpt>
      <trkpt lat="45.85127" lon="6.44714">
        <ele>2311.6</ele>
        <time>2024-04-27T09:07:22Z</time>
      </trkpt>
      <trkpt lat="45.85127" lon="6.44713">
        <ele>2311.6</ele>
        <time>2024-04-27T09:07:23Z</time>
      </trkpt>
      <trkpt lat="45.85127" lon="6.44713">
        <ele>2311.6</ele>
        <time>2024-04-27T09:07:24Z</time>
      </trkpt>
      <trkpt lat="45.85127" lon="6.44712">
        <ele>2311.6</ele>
        <time>2024-04-27T09:07:25Z</time>
      </trkpt>
      <trkpt lat="45.85127" lon="6.44712">
        <ele>2311.6</ele>
        <time>2024-04-27T09:07:26Z</time>
      </trkpt>
      <trkpt lat="45.85127" lon="6.44712">
        <ele>2311.6</ele>
        <time>2024-04-27T09:07:27Z</time>
      </trkpt>
      <trkpt lat="45.85127" lon="6.44712">
        <ele>2310.7</ele>
        <time>2024-04-27T09:07:28Z</time>
      </trkpt>
      <trkpt lat="45.85127" lon="6.44712">
        <ele>2310.7</ele>
        <time>2024-04-27T09:07:29Z</time>
      </trkpt>
      <trkpt lat="45.85127" lon="6.44712">
        <ele>2310.7</ele>
        <time>2024-04-27T09:07:30Z</time>
      </trkpt>
      <trkpt lat="45.85127" lon="6.44712">
        <ele>2310.7</ele>
        <time>2024-04-27T09:07:31Z</time>
      </trkpt>
      <trkpt lat="45.85127" lon="6.44712">
        <ele>2310.7</ele>
        <time>2024-04-27T09:07:32Z</time>
      </trkpt>
      <trkpt lat="45.85127" lon="6.44712">
        <ele>2310.7</ele>
        <time>2024-04-27T09:07:33Z</time>
      </trkpt>
      <trkpt lat="45.85127" lon="6.44712">
        <ele>2310.7</ele>
        <time>2024-04-27T09:07:34Z</time>
      </trkpt>
      <trkpt lat="45.85127" lon="6.44712">
        <ele>2310.7</ele>
        <time>2024-04-27T09:07:35Z</time>
      </trkpt>
      <trkpt lat="45.85127" lon="6.44712">
        <ele>2310.7</ele>
        <time>2024-04-27T09:07:36Z</time>
      </trkpt>
      <trkpt lat="45.85127" lon="6.44712">
        <ele>2310.7</ele>
        <time>2024-04-27T09:07:37Z</time>
      </trkpt>
      <trkpt lat="45.85127" lon="6.44712">
        <ele>2310.7</ele>
        <time>2024-04-27T09:07:38Z</time>
      </trkpt>
      <trkpt lat="45.85127" lon="6.44712">
        <ele>2310.7</ele>
        <time>2024-04-27T09:07:39Z</time>
      </trkpt>
      <trkpt lat="45.85127" lon="6.44712">
        <ele>2310.7</ele>
        <time>2024-04-27T09:07:40Z</time>
      </trkpt>
      <trkpt lat="45.85127" lon="6.44712">
        <ele>2310.7</ele>
        <time>2024-04-27T09:07:41Z</time>
      </trkpt>
      <trkpt lat="45.85127" lon="6.44712">
        <ele>2310.7</ele>
        <time>2024-04-27T09:07:42Z</time>
      </trkpt>
      <trkpt lat="45.85127" lon="6.44712">
        <ele>2310.7</ele>
        <time>2024-04-27T09:07:43Z</time>
      </trkpt>
      <trkpt lat="45.85127" lon="6.44712">
        <ele>2310.7</ele>
        <time>2024-04-27T09:07:44Z</time>
      </trkpt>
      <trkpt lat="45.85127" lon="6.44712">
        <ele>2310.7</ele>
        <time>2024-04-27T09:07:45Z</time>
      </trkpt>
      <trkpt lat="45.85127" lon="6.44712">
        <ele>2310.7</ele>
        <time>2024-04-27T09:07:46Z</time>
      </trkpt>
      <trkpt lat="45.85127" lon="6.44712">
        <ele>2310.7</ele>
        <time>2024-04-27T09:07:47Z</time>
      </trkpt>
      <trkpt lat="45.85127" lon="6.44712">
        <ele>2310.7</ele>
        <time>2024-04-27T09:07:48Z</time>
      </trkpt>
      <trkpt lat="45.85127" lon="6.44712">
        <ele>2310.7</ele>
        <time>2024-04-27T09:07:49Z</time>
      </trkpt>
      <trkpt lat="45.85127" lon="6.44712">
        <ele>2311.6</ele>
        <time>2024-04-27T09:07:50Z</time>
      </trkpt>
      <trkpt lat="45.85127" lon="6.44712">
        <ele>2311.6</ele>
        <time>2024-04-27T09:07:51Z</time>
      </trkpt>
      <trkpt lat="45.85127" lon="6.44712">
        <ele>2311.6</ele>
        <time>2024-04-27T09:07:52Z</time>
      </trkpt>
      <trkpt lat="45.85127" lon="6.44712">
        <ele>2311.6</ele>
        <time>2024-04-27T09:07:53Z</time>
      </trkpt>
      <trkpt lat="45.85127" lon="6.44712">
        <ele>2311.6</ele>
        <time>2024-04-27T09:07:54Z</time>
      </trkpt>
      <trkpt lat="45.85127" lon="6.44712">
        <ele>2311.6</ele>
        <time>2024-04-27T09:07:55Z</time>
      </trkpt>
      <trkpt lat="45.85127" lon="6.44712">
        <ele>2311.6</ele>
        <time>2024-04-27T09:07:56Z</time>
      </trkpt>
      <trkpt lat="45.85127" lon="6.44712">
        <ele>2311.6</ele>
        <time>2024-04-27T09:07:57Z</time>
      </trkpt>
      <trkpt lat="45.85127" lon="6.44712">
        <ele>2311.6</ele>
        <time>2024-04-27T09:07:58Z</time>
      </trkpt>
      <trkpt lat="45.85127" lon="6.44712">
        <ele>2311.6</ele>
        <time>2024-04-27T09:07:59Z</time>
      </trkpt>
      <trkpt lat="45.85128" lon="6.44712">
        <ele>2311.6</ele>
        <time>2024-04-27T09:08:00Z</time>
      </trkpt>
      <trkpt lat="45.85128" lon="6.44712">
        <ele>2311.6</ele>
        <time>2024-04-27T09:08:01Z</time>
      </trkpt>
      <trkpt lat="45.85128" lon="6.44712">
        <ele>2311.6</ele>
        <time>2024-04-27T09:08:02Z</time>
      </trkpt>
      <trkpt lat="45.85128" lon="6.44712">
        <ele>2311.6</ele>
        <time>2024-04-27T09:08:03Z</time>
      </trkpt>
      <trkpt lat="45.85129" lon="6.44712">
        <ele>2311.6</ele>
        <time>2024-04-27T09:08:04Z</time>
      </trkpt>
      <trkpt lat="45.85129" lon="6.44712">
        <ele>2311.6</ele>
        <time>2024-04-27T09:08:05Z</time>
      </trkpt>
      <trkpt lat="45.85129" lon="6.44712">
        <ele>2311.6</ele>
        <time>2024-04-27T09:08:06Z</time>
      </trkpt>
      <trkpt lat="45.85129" lon="6.44712">
        <ele>2311.6</ele>
        <time>2024-04-27T09:08:07Z</time>
      </trkpt>
      <trkpt lat="45.85129" lon="6.44712">
        <ele>2311.6</ele>
        <time>2024-04-27T09:08:08Z</time>
      </trkpt>
      <trkpt lat="45.85129" lon="6.44713">
        <ele>2311.6</ele>
        <time>2024-04-27T09:08:09Z</time>
      </trkpt>
      <trkpt lat="45.85129" lon="6.44713">
        <ele>2311.6</ele>
        <time>2024-04-27T09:08:10Z</time>
      </trkpt>
      <trkpt lat="45.85129" lon="6.44714">
        <ele>2311.6</ele>
        <time>2024-04-27T09:08:11Z</time>
      </trkpt>
      <trkpt lat="45.8513" lon="6.44714">
        <ele>2311.6</ele>
        <time>2024-04-27T09:08:12Z</time>
      </trkpt>
      <trkpt lat="45.8513" lon="6.44715">
        <ele>2311.6</ele>
        <time>2024-04-27T09:08:13Z</time>
      </trkpt>
      <trkpt lat="45.8513" lon="6.44715">
        <ele>2311.6</ele>
        <time>2024-04-27T09:08:14Z</time>
      </trkpt>
      <trkpt lat="45.8513" lon="6.44716">
        <ele>2311.6</ele>
        <time>2024-04-27T09:08:15Z</time>
      </trkpt>
      <trkpt lat="45.8513" lon="6.44716">
        <ele>2312.7</ele>
        <time>2024-04-27T09:08:16Z</time>
      </trkpt>
      <trkpt lat="45.8513" lon="6.44717">
        <ele>2312.7</ele>
        <time>2024-04-27T09:08:17Z</time>
      </trkpt>
      <trkpt lat="45.8513" lon="6.44717">
        <ele>2313.6</ele>
        <time>2024-04-27T09:08:18Z</time>
      </trkpt>
      <trkpt lat="45.8513" lon="6.44717">
        <ele>2313.6</ele>
        <time>2024-04-27T09:08:19Z</time>
      </trkpt>
      <trkpt lat="45.85129" lon="6.44717">
        <ele>2313.6</ele>
        <time>2024-04-27T09:08:20Z</time>
      </trkpt>
      <trkpt lat="45.85128" lon="6.44717">
        <ele>2313.6</ele>
        <time>2024-04-27T09:08:21Z</time>
      </trkpt>
      <trkpt lat="45.85128" lon="6.44717">
        <ele>2313.6</ele>
        <time>2024-04-27T09:08:22Z</time>
      </trkpt>
      <trkpt lat="45.85128" lon="6.44717">
        <ele>2313.6</ele>
        <time>2024-04-27T09:08:23Z</time>
      </trkpt>
      <trkpt lat="45.85128" lon="6.44717">
        <ele>2313.6</ele>
        <time>2024-04-27T09:08:24Z</time>
      </trkpt>
      <trkpt lat="45.85128" lon="6.44717">
        <ele>2313.6</ele>
        <time>2024-04-27T09:08:25Z</time>
      </trkpt>
      <trkpt lat="45.85128" lon="6.44717">
        <ele>2313.6</ele>
        <time>2024-04-27T09:08:26Z</time>
      </trkpt>
      <trkpt lat="45.85128" lon="6.44717">
        <ele>2313.6</ele>
        <time>2024-04-27T09:08:27Z</time>
      </trkpt>
      <trkpt lat="45.85128" lon="6.44717">
        <ele>2313.6</ele>
        <time>2024-04-27T09:08:28Z</time>
      </trkpt>
      <trkpt lat="45.85128" lon="6.44717">
        <ele>2313.6</ele>
        <time>2024-04-27T09:08:29Z</time>
      </trkpt>
      <trkpt lat="45.85128" lon="6.44717">
        <ele>2312.7</ele>
        <time>2024-04-27T09:08:30Z</time>
      </trkpt>
      <trkpt lat="45.85128" lon="6.44717">
        <ele>2312.7</ele>
        <time>2024-04-27T09:08:31Z</time>
      </trkpt>
      <trkpt lat="45.85128" lon="6.44717">
        <ele>2312.7</ele>
        <time>2024-04-27T09:08:32Z</time>
      </trkpt>
      <trkpt lat="45.85128" lon="6.44717">
        <ele>2312.7</ele>
        <time>2024-04-27T09:08:33Z</time>
      </trkpt>
      <trkpt lat="45.85128" lon="6.44717">
        <ele>2312.7</ele>
        <time>2024-04-27T09:08:34Z</time>
      </trkpt>
      <trkpt lat="45.85128" lon="6.44717">
        <ele>2312.7</ele>
        <time>2024-04-27T09:08:35Z</time>
      </trkpt>
      <trkpt lat="45.85128" lon="6.44717">
        <ele>2311.6</ele>
        <time>2024-04-27T09:08:36Z</time>
      </trkpt>
      <trkpt lat="45.85128" lon="6.44717">
        <ele>2311.6</ele>
        <time>2024-04-27T09:08:37Z</time>
      </trkpt>
      <trkpt lat="45.85128" lon="6.44717">
        <ele>2311.6</ele>
        <time>2024-04-27T09:08:38Z</time>
      </trkpt>
      <trkpt lat="45.85128" lon="6.44717">
        <ele>2311.6</ele>
        <time>2024-04-27T09:08:39Z</time>
      </trkpt>
      <trkpt lat="45.85128" lon="6.44717">
        <ele>2311.6</ele>
        <time>2024-04-27T09:08:40Z</time>
      </trkpt>
      <trkpt lat="45.85128" lon="6.44717">
        <ele>2311.6</ele>
        <time>2024-04-27T09:08:41Z</time>
      </trkpt>
      <trkpt lat="45.85128" lon="6.44717">
        <ele>2311.6</ele>
        <time>2024-04-27T09:08:42Z</time>
      </trkpt>
      <trkpt lat="45.85128" lon="6.44717">
        <ele>2311.6</ele>
        <time>2024-04-27T09:08:43Z</time>
      </trkpt>
      <trkpt lat="45.85128" lon="6.44717">
        <ele>2311.6</ele>
        <time>2024-04-27T09:08:44Z</time>
      </trkpt>
      <trkpt lat="45.85129" lon="6.44717">
        <ele>2311.6</ele>
        <time>2024-04-27T09:08:45Z</time>
      </trkpt>
      <trkpt lat="45.85129" lon="6.44717">
        <ele>2311.6</ele>
        <time>2024-04-27T09:08:46Z</time>
      </trkpt>
      <trkpt lat="45.85129" lon="6.44717">
        <ele>2311.6</ele>
        <time>2024-04-27T09:08:47Z</time>
      </trkpt>
      <trkpt lat="45.85129" lon="6.44717">
        <ele>2311.6</ele>
        <time>2024-04-27T09:08:48Z</time>
      </trkpt>
      <trkpt lat="45.85129" lon="6.44717">
        <ele>2311.6</ele>
        <time>2024-04-27T09:08:49Z</time>
      </trkpt>
      <trkpt lat="45.8513" lon="6.44717">
        <ele>2311.6</ele>
        <time>2024-04-27T09:08:50Z</time>
      </trkpt>
      <trkpt lat="45.8513" lon="6.44717">
        <ele>2311.6</ele>
        <time>2024-04-27T09:08:51Z</time>
      </trkpt>
      <trkpt lat="45.8513" lon="6.44717">
        <ele>2310.7</ele>
        <time>2024-04-27T09:08:52Z</time>
      </trkpt>
      <trkpt lat="45.8513" lon="6.44717">
        <ele>2310.7</ele>
        <time>2024-04-27T09:08:53Z</time>
      </trkpt>
      <trkpt lat="45.8513" lon="6.44717">
        <ele>2310.7</ele>
        <time>2024-04-27T09:08:54Z</time>
      </trkpt>
      <trkpt lat="45.8513" lon="6.44717">
        <ele>2310.7</ele>
        <time>2024-04-27T09:08:55Z</time>
      </trkpt>
      <trkpt lat="45.8513" lon="6.44717">
        <ele>2310.7</ele>
        <time>2024-04-27T09:08:56Z</time>
      </trkpt>
      <trkpt lat="45.8513" lon="6.44717">
        <ele>2310.7</ele>
        <time>2024-04-27T09:08:57Z</time>
      </trkpt>
      <trkpt lat="45.8513" lon="6.44717">
        <ele>2310.7</ele>
        <time>2024-04-27T09:08:58Z</time>
      </trkpt>
      <trkpt lat="45.8513" lon="6.44717">
        <ele>2310.7</ele>
        <time>2024-04-27T09:08:59Z</time>
      </trkpt>
      <trkpt lat="45.8513" lon="6.44717">
        <ele>2310.7</ele>
        <time>2024-04-27T09:09:00Z</time>
      </trkpt>
      <trkpt lat="45.8513" lon="6.44717">
        <ele>2310.7</ele>
        <time>2024-04-27T09:09:01Z</time>
      </trkpt>
      <trkpt lat="45.8513" lon="6.44717">
        <ele>2310.7</ele>
        <time>2024-04-27T09:09:02Z</time>
      </trkpt>
      <trkpt lat="45.8513" lon="6.44717">
        <ele>2310.7</ele>
        <time>2024-04-27T09:09:03Z</time>
      </trkpt>
      <trkpt lat="45.8513" lon="6.44717">
        <ele>2310.7</ele>
        <time>2024-04-27T09:09:04Z</time>
      </trkpt>
      <trkpt lat="45.8513" lon="6.44717">
        <ele>2310.7</ele>
        <time>2024-04-27T09:09:05Z</time>
      </trkpt>
      <trkpt lat="45.8513" lon="6.44717">
        <ele>2310.7</ele>
        <time>2024-04-27T09:09:06Z</time>
      </trkpt>
      <trkpt lat="45.8513" lon="6.44717">
        <ele>2310.7</ele>
        <time>2024-04-27T09:09:07Z</time>
      </trkpt>
      <trkpt lat="45.8513" lon="6.44716">
        <ele>2310.7</ele>
        <time>2024-04-27T09:09:08Z</time>
      </trkpt>
      <trkpt lat="45.8513" lon="6.44716">
        <ele>2310.7</ele>
        <time>2024-04-27T09:09:09Z</time>
      </trkpt>
      <trkpt lat="45.8513" lon="6.44716">
        <ele>2310.7</ele>
        <time>2024-04-27T09:09:10Z</time>
      </trkpt>
      <trkpt lat="45.8513" lon="6.44716">
        <ele>2310.7</ele>
        <time>2024-04-27T09:09:11Z</time>
      </trkpt>
      <trkpt lat="45.8513" lon="6.44716">
        <ele>2310.7</ele>
        <time>2024-04-27T09:09:12Z</time>
      </trkpt>
      <trkpt lat="45.85129" lon="6.44716">
        <ele>2310.7</ele>
        <time>2024-04-27T09:09:13Z</time>
      </trkpt>
      <trkpt lat="45.85129" lon="6.44716">
        <ele>2310.7</ele>
        <time>2024-04-27T09:09:14Z</time>
      </trkpt>
      <trkpt lat="45.85129" lon="6.44716">
        <ele>2310.7</ele>
        <time>2024-04-27T09:09:15Z</time>
      </trkpt>
      <trkpt lat="45.85129" lon="6.44716">
        <ele>2310.7</ele>
        <time>2024-04-27T09:09:16Z</time>
      </trkpt>
      <trkpt lat="45.85129" lon="6.44716">
        <ele>2310.7</ele>
        <time>2024-04-27T09:09:17Z</time>
      </trkpt>
      <trkpt lat="45.85129" lon="6.44716">
        <ele>2310.7</ele>
        <time>2024-04-27T09:09:18Z</time>
      </trkpt>
      <trkpt lat="45.85129" lon="6.44716">
        <ele>2310.7</ele>
        <time>2024-04-27T09:09:19Z</time>
      </trkpt>
      <trkpt lat="45.85129" lon="6.44716">
        <ele>2310.7</ele>
        <time>2024-04-27T09:09:20Z</time>
      </trkpt>
      <trkpt lat="45.85129" lon="6.44716">
        <ele>2310.7</ele>
        <time>2024-04-27T09:09:21Z</time>
      </trkpt>
      <trkpt lat="45.85129" lon="6.44716">
        <ele>2310.7</ele>
        <time>2024-04-27T09:09:22Z</time>
      </trkpt>
      <trkpt lat="45.85129" lon="6.44716">
        <ele>2310.7</ele>
        <time>2024-04-27T09:09:23Z</time>
      </trkpt>
      <trkpt lat="45.85129" lon="6.44716">
        <ele>2310.7</ele>
        <time>2024-04-27T09:09:24Z</time>
      </trkpt>
      <trkpt lat="45.85129" lon="6.44716">
        <ele>2310.7</ele>
        <time>2024-04-27T09:09:25Z</time>
      </trkpt>
      <trkpt lat="45.85129" lon="6.44716">
        <ele>2310.7</ele>
        <time>2024-04-27T09:09:26Z</time>
      </trkpt>
      <trkpt lat="45.85129" lon="6.44716">
        <ele>2310.7</ele>
        <time>2024-04-27T09:09:27Z</time>
      </trkpt>
      <trkpt lat="45.85129" lon="6.44716">
        <ele>2310.7</ele>
        <time>2024-04-27T09:09:28Z</time>
      </trkpt>
      <trkpt lat="45.85129" lon="6.44716">
        <ele>2310.7</ele>
        <time>2024-04-27T09:09:29Z</time>
      </trkpt>
      <trkpt lat="45.85129" lon="6.44716">
        <ele>2310.7</ele>
        <time>2024-04-27T09:09:30Z</time>
      </trkpt>
      <trkpt lat="45.85129" lon="6.44716">
        <ele>2310.7</ele>
        <time>2024-04-27T09:09:31Z</time>
      </trkpt>
      <trkpt lat="45.85129" lon="6.44716">
        <ele>2310.7</ele>
        <time>2024-04-27T09:09:32Z</time>
      </trkpt>
      <trkpt lat="45.85129" lon="6.44716">
        <ele>2310.7</ele>
        <time>2024-04-27T09:09:33Z</time>
      </trkpt>
      <trkpt lat="45.85129" lon="6.44716">
        <ele>2310.7</ele>
        <time>2024-04-27T09:09:34Z</time>
      </trkpt>
      <trkpt lat="45.85129" lon="6.44716">
        <ele>2310.7</ele>
        <time>2024-04-27T09:09:35Z</time>
      </trkpt>
      <trkpt lat="45.85129" lon="6.44716">
        <ele>2310.7</ele>
        <time>2024-04-27T09:09:36Z</time>
      </trkpt>
      <trkpt lat="45.85129" lon="6.44716">
        <ele>2310.7</ele>
        <time>2024-04-27T09:09:37Z</time>
      </trkpt>
      <trkpt lat="45.85129" lon="6.44716">
        <ele>2310.7</ele>
        <time>2024-04-27T09:09:38Z</time>
      </trkpt>
      <trkpt lat="45.85129" lon="6.44716">
        <ele>2310.7</ele>
        <time>2024-04-27T09:09:39Z</time>
      </trkpt>
      <trkpt lat="45.85129" lon="6.44716">
        <ele>2310.7</ele>
        <time>2024-04-27T09:09:40Z</time>
      </trkpt>
      <trkpt lat="45.85129" lon="6.44716">
        <ele>2310.7</ele>
        <time>2024-04-27T09:09:41Z</time>
      </trkpt>
      <trkpt lat="45.85129" lon="6.44716">
        <ele>2310.7</ele>
        <time>2024-04-27T09:09:42Z</time>
      </trkpt>
      <trkpt lat="45.85129" lon="6.44716">
        <ele>2310.7</ele>
        <time>2024-04-27T09:09:43Z</time>
      </trkpt>
      <trkpt lat="45.85128" lon="6.44716">
        <ele>2310.7</ele>
        <time>2024-04-27T09:09:44Z</time>
      </trkpt>
      <trkpt lat="45.85128" lon="6.44716">
        <ele>2310.7</ele>
        <time>2024-04-27T09:09:45Z</time>
      </trkpt>
      <trkpt lat="45.85128" lon="6.44716">
        <ele>2310.7</ele>
        <time>2024-04-27T09:09:46Z</time>
      </trkpt>
      <trkpt lat="45.85128" lon="6.44716">
        <ele>2310.7</ele>
        <time>2024-04-27T09:09:47Z</time>
      </trkpt>
      <trkpt lat="45.85128" lon="6.44715">
        <ele>2310.7</ele>
        <time>2024-04-27T09:09:48Z</time>
      </trkpt>
      <trkpt lat="45.85128" lon="6.44715">
        <ele>2310.7</ele>
        <time>2024-04-27T09:09:49Z</time>
      </trkpt>
      <trkpt lat="45.85128" lon="6.44714">
        <ele>2310.7</ele>
        <time>2024-04-27T09:09:50Z</time>
      </trkpt>
      <trkpt lat="45.85128" lon="6.44713">
        <ele>2310.7</ele>
        <time>2024-04-27T09:09:51Z</time>
      </trkpt>
      <trkpt lat="45.85127" lon="6.44713">
        <ele>2310.7</ele>
        <time>2024-04-27T09:09:52Z</time>
      </trkpt>
      <trkpt lat="45.85126" lon="6.44714">
        <ele>2310.7</ele>
        <time>2024-04-27T09:09:53Z</time>
      </trkpt>
      <trkpt lat="45.85126" lon="6.44713">
        <ele>2310.7</ele>
        <time>2024-04-27T09:09:54Z</time>
      </trkpt>
      <trkpt lat="45.85126" lon="6.44713">
        <ele>2310.7</ele>
        <time>2024-04-27T09:09:55Z</time>
      </trkpt>
      <trkpt lat="45.85126" lon="6.44713">
        <ele>2310.7</ele>
        <time>2024-04-27T09:09:56Z</time>
      </trkpt>
      <trkpt lat="45.85126" lon="6.44713">
        <ele>2310.7</ele>
        <time>2024-04-27T09:09:57Z</time>
      </trkpt>
      <trkpt lat="45.85126" lon="6.44713">
        <ele>2310.7</ele>
        <time>2024-04-27T09:09:58Z</time>
      </trkpt>
      <trkpt lat="45.85126" lon="6.44713">
        <ele>2310.7</ele>
        <time>2024-04-27T09:09:59Z</time>
      </trkpt>
      <trkpt lat="45.85126" lon="6.44713">
        <ele>2310.7</ele>
        <time>2024-04-27T09:10:00Z</time>
      </trkpt>
      <trkpt lat="45.85126" lon="6.44712">
        <ele>2310.7</ele>
        <time>2024-04-27T09:10:01Z</time>
      </trkpt>
      <trkpt lat="45.85126" lon="6.44712">
        <ele>2310.7</ele>
        <time>2024-04-27T09:10:02Z</time>
      </trkpt>
      <trkpt lat="45.85126" lon="6.44712">
        <ele>2310.7</ele>
        <time>2024-04-27T09:10:03Z</time>
      </trkpt>
      <trkpt lat="45.85126" lon="6.44712">
        <ele>2310.7</ele>
        <time>2024-04-27T09:10:04Z</time>
      </trkpt>
      <trkpt lat="45.85126" lon="6.44712">
        <ele>2310.7</ele>
        <time>2024-04-27T09:10:05Z</time>
      </trkpt>
      <trkpt lat="45.85126" lon="6.44712">
        <ele>2310.7</ele>
        <time>2024-04-27T09:10:06Z</time>
      </trkpt>
      <trkpt lat="45.85126" lon="6.44712">
        <ele>2310.7</ele>
        <time>2024-04-27T09:10:07Z</time>
      </trkpt>
      <trkpt lat="45.85126" lon="6.44712">
        <ele>2310.7</ele>
        <time>2024-04-27T09:10:08Z</time>
      </trkpt>
      <trkpt lat="45.85126" lon="6.44712">
        <ele>2310.7</ele>
        <time>2024-04-27T09:10:09Z</time>
      </trkpt>
      <trkpt lat="45.85126" lon="6.44712">
        <ele>2310.7</ele>
        <time>2024-04-27T09:10:10Z</time>
      </trkpt>
      <trkpt lat="45.85125" lon="6.44712">
        <ele>2310.7</ele>
        <time>2024-04-27T09:10:11Z</time>
      </trkpt>
      <trkpt lat="45.85125" lon="6.44712">
        <ele>2310.7</ele>
        <time>2024-04-27T09:10:12Z</time>
      </trkpt>
      <trkpt lat="45.85125" lon="6.44712">
        <ele>2310.7</ele>
        <time>2024-04-27T09:10:13Z</time>
      </trkpt>
      <trkpt lat="45.85125" lon="6.44712">
        <ele>2310.7</ele>
        <time>2024-04-27T09:10:14Z</time>
      </trkpt>
      <trkpt lat="45.85125" lon="6.44712">
        <ele>2310.7</ele>
        <time>2024-04-27T09:10:15Z</time>
      </trkpt>
      <trkpt lat="45.85125" lon="6.44713">
        <ele>2310.7</ele>
        <time>2024-04-27T09:10:16Z</time>
      </trkpt>
      <trkpt lat="45.85125" lon="6.44713">
        <ele>2310.7</ele>
        <time>2024-04-27T09:10:17Z</time>
      </trkpt>
      <trkpt lat="45.85125" lon="6.44713">
        <ele>2310.7</ele>
        <time>2024-04-27T09:10:18Z</time>
      </trkpt>
      <trkpt lat="45.85125" lon="6.44714">
        <ele>2310.7</ele>
        <time>2024-04-27T09:10:19Z</time>
      </trkpt>
      <trkpt lat="45.85125" lon="6.44714">
        <ele>2310.7</ele>
        <time>2024-04-27T09:10:20Z</time>
      </trkpt>
      <trkpt lat="45.85125" lon="6.44714">
        <ele>2310.7</ele>
        <time>2024-04-27T09:10:21Z</time>
      </trkpt>
      <trkpt lat="45.85125" lon="6.44714">
        <ele>2310.7</ele>
        <time>2024-04-27T09:10:22Z</time>
      </trkpt>
      <trkpt lat="45.85125" lon="6.44714">
        <ele>2310.7</ele>
        <time>2024-04-27T09:10:23Z</time>
      </trkpt>
      <trkpt lat="45.85125" lon="6.44714">
        <ele>2310.7</ele>
        <time>2024-04-27T09:10:24Z</time>
      </trkpt>
      <trkpt lat="45.85125" lon="6.44714">
        <ele>2310.7</ele>
        <time>2024-04-27T09:10:25Z</time>
      </trkpt>
      <trkpt lat="45.85126" lon="6.44714">
        <ele>2310.7</ele>
        <time>2024-04-27T09:10:26Z</time>
      </trkpt>
      <trkpt lat="45.85126" lon="6.44714">
        <ele>2310.7</ele>
        <time>2024-04-27T09:10:27Z</time>
      </trkpt>
      <trkpt lat="45.85127" lon="6.44714">
        <ele>2310.7</ele>
        <time>2024-04-27T09:10:28Z</time>
      </trkpt>
      <trkpt lat="45.85127" lon="6.44714">
        <ele>2310.7</ele>
        <time>2024-04-27T09:10:29Z</time>
      </trkpt>
      <trkpt lat="45.85127" lon="6.44714">
        <ele>2310.7</ele>
        <time>2024-04-27T09:10:30Z</time>
      </trkpt>
      <trkpt lat="45.85127" lon="6.44714">
        <ele>2310.7</ele>
        <time>2024-04-27T09:10:31Z</time>
      </trkpt>
      <trkpt lat="45.85128" lon="6.44714">
        <ele>2310.7</ele>
        <time>2024-04-27T09:10:32Z</time>
      </trkpt>
      <trkpt lat="45.85128" lon="6.44714">
        <ele>2310.7</ele>
        <time>2024-04-27T09:10:33Z</time>
      </trkpt>
      <trkpt lat="45.85129" lon="6.44714">
        <ele>2310.7</ele>
        <time>2024-04-27T09:10:34Z</time>
      </trkpt>
      <trkpt lat="45.85129" lon="6.44714">
        <ele>2310.7</ele>
        <time>2024-04-27T09:10:35Z</time>
      </trkpt>
      <trkpt lat="45.85129" lon="6.44714">
        <ele>2310.7</ele>
        <time>2024-04-27T09:10:36Z</time>
      </trkpt>
      <trkpt lat="45.85129" lon="6.44714">
        <ele>2310.7</ele>
        <time>2024-04-27T09:10:37Z</time>
      </trkpt>
      <trkpt lat="45.85129" lon="6.44714">
        <ele>2310.7</ele>
        <time>2024-04-27T09:10:38Z</time>
      </trkpt>
      <trkpt lat="45.85129" lon="6.44714">
        <ele>2310.7</ele>
        <time>2024-04-27T09:10:39Z</time>
      </trkpt>
      <trkpt lat="45.85129" lon="6.44714">
        <ele>2311.6</ele>
        <time>2024-04-27T09:10:40Z</time>
      </trkpt>
      <trkpt lat="45.85129" lon="6.44714">
        <ele>2311.6</ele>
        <time>2024-04-27T09:10:41Z</time>
      </trkpt>
      <trkpt lat="45.85129" lon="6.44714">
        <ele>2311.6</ele>
        <time>2024-04-27T09:10:42Z</time>
      </trkpt>
      <trkpt lat="45.85129" lon="6.44714">
        <ele>2311.6</ele>
        <time>2024-04-27T09:10:43Z</time>
      </trkpt>
      <trkpt lat="45.85129" lon="6.44714">
        <ele>2311.6</ele>
        <time>2024-04-27T09:10:44Z</time>
      </trkpt>
      <trkpt lat="45.85129" lon="6.44714">
        <ele>2311.6</ele>
        <time>2024-04-27T09:10:45Z</time>
      </trkpt>
      <trkpt lat="45.85129" lon="6.44714">
        <ele>2311.6</ele>
        <time>2024-04-27T09:10:46Z</time>
      </trkpt>
      <trkpt lat="45.85129" lon="6.44714">
        <ele>2311.6</ele>
        <time>2024-04-27T09:10:47Z</time>
      </trkpt>
      <trkpt lat="45.85129" lon="6.44714">
        <ele>2311.6</ele>
        <time>2024-04-27T09:10:48Z</time>
      </trkpt>
      <trkpt lat="45.85129" lon="6.44714">
        <ele>2311.6</ele>
        <time>2024-04-27T09:10:49Z</time>
      </trkpt>
      <trkpt lat="45.85129" lon="6.44714">
        <ele>2311.6</ele>
        <time>2024-04-27T09:10:50Z</time>
      </trkpt>
      <trkpt lat="45.85129" lon="6.44715">
        <ele>2311.6</ele>
        <time>2024-04-27T09:10:51Z</time>
      </trkpt>
      <trkpt lat="45.85129" lon="6.44715">
        <ele>2311.6</ele>
        <time>2024-04-27T09:10:52Z</time>
      </trkpt>
      <trkpt lat="45.85129" lon="6.44715">
        <ele>2311.6</ele>
        <time>2024-04-27T09:10:53Z</time>
      </trkpt>
      <trkpt lat="45.85128" lon="6.44715">
        <ele>2311.6</ele>
        <time>2024-04-27T09:10:54Z</time>
      </trkpt>
      <trkpt lat="45.85128" lon="6.44715">
        <ele>2311.6</ele>
        <time>2024-04-27T09:10:55Z</time>
      </trkpt>
      <trkpt lat="45.85128" lon="6.44715">
        <ele>2311.6</ele>
        <time>2024-04-27T09:10:56Z</time>
      </trkpt>
      <trkpt lat="45.85128" lon="6.44715">
        <ele>2311.6</ele>
        <time>2024-04-27T09:10:57Z</time>
      </trkpt>
      <trkpt lat="45.85128" lon="6.44715">
        <ele>2311.6</ele>
        <time>2024-04-27T09:10:58Z</time>
      </trkpt>
      <trkpt lat="45.85128" lon="6.44715">
        <ele>2311.6</ele>
        <time>2024-04-27T09:10:59Z</time>
      </trkpt>
      <trkpt lat="45.85128" lon="6.44715">
        <ele>2311.6</ele>
        <time>2024-04-27T09:11:00Z</time>
      </trkpt>
      <trkpt lat="45.85128" lon="6.44715">
        <ele>2311.6</ele>
        <time>2024-04-27T09:11:01Z</time>
      </trkpt>
      <trkpt lat="45.85128" lon="6.44715">
        <ele>2311.6</ele>
        <time>2024-04-27T09:11:02Z</time>
      </trkpt>
      <trkpt lat="45.85128" lon="6.44715">
        <ele>2311.6</ele>
        <time>2024-04-27T09:11:03Z</time>
      </trkpt>
      <trkpt lat="45.85128" lon="6.44715">
        <ele>2311.6</ele>
        <time>2024-04-27T09:11:04Z</time>
      </trkpt>
      <trkpt lat="45.85128" lon="6.44715">
        <ele>2311.6</ele>
        <time>2024-04-27T09:11:05Z</time>
      </trkpt>
      <trkpt lat="45.85128" lon="6.44715">
        <ele>2311.6</ele>
        <time>2024-04-27T09:11:06Z</time>
      </trkpt>
      <trkpt lat="45.85128" lon="6.44715">
        <ele>2311.6</ele>
        <time>2024-04-27T09:11:07Z</time>
      </trkpt>
      <trkpt lat="45.85128" lon="6.44715">
        <ele>2311.6</ele>
        <time>2024-04-27T09:11:08Z</time>
      </trkpt>
      <trkpt lat="45.85128" lon="6.44715">
        <ele>2311.6</ele>
        <time>2024-04-27T09:11:09Z</time>
      </trkpt>
      <trkpt lat="45.85128" lon="6.44715">
        <ele>2311.6</ele>
        <time>2024-04-27T09:11:10Z</time>
      </trkpt>
      <trkpt lat="45.85128" lon="6.44714">
        <ele>2311.6</ele>
        <time>2024-04-27T09:11:11Z</time>
      </trkpt>
      <trkpt lat="45.85128" lon="6.44714">
        <ele>2311.6</ele>
        <time>2024-04-27T09:11:12Z</time>
      </trkpt>
      <trkpt lat="45.85128" lon="6.44714">
        <ele>2311.6</ele>
        <time>2024-04-27T09:11:13Z</time>
      </trkpt>
      <trkpt lat="45.85128" lon="6.44714">
        <ele>2311.6</ele>
        <time>2024-04-27T09:11:14Z</time>
      </trkpt>
      <trkpt lat="45.85128" lon="6.44714">
        <ele>2311.6</ele>
        <time>2024-04-27T09:11:15Z</time>
      </trkpt>
      <trkpt lat="45.85128" lon="6.44714">
        <ele>2311.6</ele>
        <time>2024-04-27T09:11:16Z</time>
      </trkpt>
      <trkpt lat="45.85128" lon="6.44714">
        <ele>2311.6</ele>
        <time>2024-04-27T09:11:17Z</time>
      </trkpt>
      <trkpt lat="45.85128" lon="6.44714">
        <ele>2311.6</ele>
        <time>2024-04-27T09:11:18Z</time>
      </trkpt>
      <trkpt lat="45.85128" lon="6.44714">
        <ele>2311.6</ele>
        <time>2024-04-27T09:11:19Z</time>
      </trkpt>
      <trkpt lat="45.85128" lon="6.44714">
        <ele>2311.6</ele>
        <time>2024-04-27T09:11:20Z</time>
      </trkpt>
      <trkpt lat="45.85128" lon="6.44714">
        <ele>2311.6</ele>
        <time>2024-04-27T09:11:21Z</time>
      </trkpt>
      <trkpt lat="45.85128" lon="6.44714">
        <ele>2311.6</ele>
        <time>2024-04-27T09:11:22Z</time>
      </trkpt>
      <trkpt lat="45.85128" lon="6.44714">
        <ele>2311.6</ele>
        <time>2024-04-27T09:11:23Z</time>
      </trkpt>
      <trkpt lat="45.85128" lon="6.44714">
        <ele>2311.6</ele>
        <time>2024-04-27T09:11:24Z</time>
      </trkpt>
      <trkpt lat="45.85128" lon="6.44714">
        <ele>2311.6</ele>
        <time>2024-04-27T09:11:25Z</time>
      </trkpt>
      <trkpt lat="45.85128" lon="6.44714">
        <ele>2311.6</ele>
        <time>2024-04-27T09:11:26Z</time>
      </trkpt>
      <trkpt lat="45.85128" lon="6.44714">
        <ele>2311.6</ele>
        <time>2024-04-27T09:11:27Z</time>
      </trkpt>
      <trkpt lat="45.85128" lon="6.44714">
        <ele>2310.7</ele>
        <time>2024-04-27T09:11:28Z</time>
      </trkpt>
      <trkpt lat="45.85128" lon="6.44714">
        <ele>2310.7</ele>
        <time>2024-04-27T09:11:29Z</time>
      </trkpt>
      <trkpt lat="45.85128" lon="6.44714">
        <ele>2310.7</ele>
        <time>2024-04-27T09:11:30Z</time>
      </trkpt>
      <trkpt lat="45.85128" lon="6.44714">
        <ele>2310.7</ele>
        <time>2024-04-27T09:11:31Z</time>
      </trkpt>
      <trkpt lat="45.85128" lon="6.44714">
        <ele>2310.7</ele>
        <time>2024-04-27T09:11:32Z</time>
      </trkpt>
      <trkpt lat="45.85128" lon="6.44714">
        <ele>2310.7</ele>
        <time>2024-04-27T09:11:33Z</time>
      </trkpt>
      <trkpt lat="45.85128" lon="6.44714">
        <ele>2310.7</ele>
        <time>2024-04-27T09:11:34Z</time>
      </trkpt>
      <trkpt lat="45.85128" lon="6.44714">
        <ele>2310.7</ele>
        <time>2024-04-27T09:11:35Z</time>
      </trkpt>
      <trkpt lat="45.85128" lon="6.44714">
        <ele>2310.7</ele>
        <time>2024-04-27T09:11:36Z</time>
      </trkpt>
      <trkpt lat="45.85128" lon="6.44714">
        <ele>2310.7</ele>
        <time>2024-04-27T09:11:37Z</time>
      </trkpt>
      <trkpt lat="45.85128" lon="6.44714">
        <ele>2311.6</ele>
        <time>2024-04-27T09:11:38Z</time>
      </trkpt>
      <trkpt lat="45.85128" lon="6.44714">
        <ele>2311.6</ele>
        <time>2024-04-27T09:11:39Z</time>
      </trkpt>
      <trkpt lat="45.85128" lon="6.44714">
        <ele>2311.6</ele>
        <time>2024-04-27T09:11:40Z</time>
      </trkpt>
      <trkpt lat="45.85128" lon="6.44714">
        <ele>2311.6</ele>
        <time>2024-04-27T09:11:41Z</time>
      </trkpt>
      <trkpt lat="45.85128" lon="6.44714">
        <ele>2311.6</ele>
        <time>2024-04-27T09:11:42Z</time>
      </trkpt>
      <trkpt lat="45.85128" lon="6.44714">
        <ele>2311.6</ele>
        <time>2024-04-27T09:11:43Z</time>
      </trkpt>
      <trkpt lat="45.85128" lon="6.44715">
        <ele>2311.6</ele>
        <time>2024-04-27T09:11:44Z</time>
      </trkpt>
      <trkpt lat="45.85129" lon="6.44715">
        <ele>2311.6</ele>
        <time>2024-04-27T09:11:45Z</time>
      </trkpt>
      <trkpt lat="45.85129" lon="6.44715">
        <ele>2311.6</ele>
        <time>2024-04-27T09:11:46Z</time>
      </trkpt>
      <trkpt lat="45.85129" lon="6.44715">
        <ele>2311.6</ele>
        <time>2024-04-27T09:11:47Z</time>
      </trkpt>
      <trkpt lat="45.85129" lon="6.44715">
        <ele>2311.6</ele>
        <time>2024-04-27T09:11:48Z</time>
      </trkpt>
      <trkpt lat="45.85129" lon="6.44715">
        <ele>2311.6</ele>
        <time>2024-04-27T09:11:49Z</time>
      </trkpt>
      <trkpt lat="45.8513" lon="6.44715">
        <ele>2311.6</ele>
        <time>2024-04-27T09:11:50Z</time>
      </trkpt>
      <trkpt lat="45.8513" lon="6.44715">
        <ele>2311.6</ele>
        <time>2024-04-27T09:11:51Z</time>
      </trkpt>
      <trkpt lat="45.8513" lon="6.44715">
        <ele>2312.7</ele>
        <time>2024-04-27T09:11:52Z</time>
      </trkpt>
      <trkpt lat="45.8513" lon="6.44715">
        <ele>2312.7</ele>
        <time>2024-04-27T09:11:53Z</time>
      </trkpt>
      <trkpt lat="45.8513" lon="6.44715">
        <ele>2312.7</ele>
        <time>2024-04-27T09:11:54Z</time>
      </trkpt>
      <trkpt lat="45.8513" lon="6.44715">
        <ele>2312.7</ele>
        <time>2024-04-27T09:11:55Z</time>
      </trkpt>
      <trkpt lat="45.8513" lon="6.44715">
        <ele>2312.7</ele>
        <time>2024-04-27T09:11:56Z</time>
      </trkpt>
      <trkpt lat="45.8513" lon="6.44715">
        <ele>2312.7</ele>
        <time>2024-04-27T09:11:57Z</time>
      </trkpt>
      <trkpt lat="45.8513" lon="6.44715">
        <ele>2312.7</ele>
        <time>2024-04-27T09:11:58Z</time>
      </trkpt>
      <trkpt lat="45.8513" lon="6.44715">
        <ele>2312.7</ele>
        <time>2024-04-27T09:11:59Z</time>
      </trkpt>
      <trkpt lat="45.8513" lon="6.44715">
        <ele>2312.7</ele>
        <time>2024-04-27T09:12:00Z</time>
      </trkpt>
      <trkpt lat="45.8513" lon="6.44715">
        <ele>2312.7</ele>
        <time>2024-04-27T09:12:01Z</time>
      </trkpt>
      <trkpt lat="45.8513" lon="6.44715">
        <ele>2312.7</ele>
        <time>2024-04-27T09:12:02Z</time>
      </trkpt>
      <trkpt lat="45.85131" lon="6.44715">
        <ele>2312.7</ele>
        <time>2024-04-27T09:12:03Z</time>
      </trkpt>
      <trkpt lat="45.85131" lon="6.44715">
        <ele>2312.7</ele>
        <time>2024-04-27T09:12:04Z</time>
      </trkpt>
      <trkpt lat="45.85131" lon="6.44715">
        <ele>2312.7</ele>
        <time>2024-04-27T09:12:05Z</time>
      </trkpt>
      <trkpt lat="45.85131" lon="6.44715">
        <ele>2312.7</ele>
        <time>2024-04-27T09:12:06Z</time>
      </trkpt>
      <trkpt lat="45.85131" lon="6.44715">
        <ele>2312.7</ele>
        <time>2024-04-27T09:12:07Z</time>
      </trkpt>
      <trkpt lat="45.85131" lon="6.44715">
        <ele>2312.7</ele>
        <time>2024-04-27T09:12:08Z</time>
      </trkpt>
      <trkpt lat="45.85131" lon="6.44715">
        <ele>2312.7</ele>
        <time>2024-04-27T09:12:09Z</time>
      </trkpt>
      <trkpt lat="45.85131" lon="6.44715">
        <ele>2312.7</ele>
        <time>2024-04-27T09:12:10Z</time>
      </trkpt>
      <trkpt lat="45.85131" lon="6.44715">
        <ele>2312.7</ele>
        <time>2024-04-27T09:12:11Z</time>
      </trkpt>
      <trkpt lat="45.85131" lon="6.44715">
        <ele>2312.7</ele>
        <time>2024-04-27T09:12:12Z</time>
      </trkpt>
      <trkpt lat="45.85131" lon="6.44715">
        <ele>2312.7</ele>
        <time>2024-04-27T09:12:13Z</time>
      </trkpt>
      <trkpt lat="45.85131" lon="6.44715">
        <ele>2312.7</ele>
        <time>2024-04-27T09:12:14Z</time>
      </trkpt>
      <trkpt lat="45.85131" lon="6.44715">
        <ele>2312.7</ele>
        <time>2024-04-27T09:12:15Z</time>
      </trkpt>
      <trkpt lat="45.85131" lon="6.44715">
        <ele>2312.7</ele>
        <time>2024-04-27T09:12:16Z</time>
      </trkpt>
      <trkpt lat="45.85131" lon="6.44715">
        <ele>2312.7</ele>
        <time>2024-04-27T09:12:17Z</time>
      </trkpt>
      <trkpt lat="45.85131" lon="6.44715">
        <ele>2312.7</ele>
        <time>2024-04-27T09:12:18Z</time>
      </trkpt>
      <trkpt lat="45.85131" lon="6.44715">
        <ele>2312.7</ele>
        <time>2024-04-27T09:12:19Z</time>
      </trkpt>
      <trkpt lat="45.85131" lon="6.44715">
        <ele>2312.7</ele>
        <time>2024-04-27T09:12:20Z</time>
      </trkpt>
      <trkpt lat="45.85131" lon="6.44715">
        <ele>2312.7</ele>
        <time>2024-04-27T09:12:21Z</time>
      </trkpt>
      <trkpt lat="45.85131" lon="6.44715">
        <ele>2312.7</ele>
        <time>2024-04-27T09:12:22Z</time>
      </trkpt>
      <trkpt lat="45.85131" lon="6.44715">
        <ele>2312.7</ele>
        <time>2024-04-27T09:12:23Z</time>
      </trkpt>
      <trkpt lat="45.85131" lon="6.44716">
        <ele>2312.7</ele>
        <time>2024-04-27T09:12:24Z</time>
      </trkpt>
      <trkpt lat="45.85131" lon="6.44716">
        <ele>2312.7</ele>
        <time>2024-04-27T09:12:25Z</time>
      </trkpt>
      <trkpt lat="45.85131" lon="6.44716">
        <ele>2312.7</ele>
        <time>2024-04-27T09:12:26Z</time>
      </trkpt>
      <trkpt lat="45.85131" lon="6.44716">
        <ele>2312.7</ele>
        <time>2024-04-27T09:12:27Z</time>
      </trkpt>
      <trkpt lat="45.85131" lon="6.44716">
        <ele>2312.7</ele>
        <time>2024-04-27T09:12:28Z</time>
      </trkpt>
      <trkpt lat="45.85131" lon="6.44716">
        <ele>2312.7</ele>
        <time>2024-04-27T09:12:29Z</time>
      </trkpt>
      <trkpt lat="45.85131" lon="6.44716">
        <ele>2311.6</ele>
        <time>2024-04-27T09:12:30Z</time>
      </trkpt>
      <trkpt lat="45.85131" lon="6.44716">
        <ele>2311.6</ele>
        <time>2024-04-27T09:12:31Z</time>
      </trkpt>
      <trkpt lat="45.85131" lon="6.44716">
        <ele>2311.6</ele>
        <time>2024-04-27T09:12:32Z</time>
      </trkpt>
      <trkpt lat="45.85131" lon="6.44716">
        <ele>2311.6</ele>
        <time>2024-04-27T09:12:33Z</time>
      </trkpt>
      <trkpt lat="45.85131" lon="6.44716">
        <ele>2311.6</ele>
        <time>2024-04-27T09:12:34Z</time>
      </trkpt>
      <trkpt lat="45.8513" lon="6.44716">
        <ele>2311.6</ele>
        <time>2024-04-27T09:12:35Z</time>
      </trkpt>
      <trkpt lat="45.8513" lon="6.44716">
        <ele>2311.6</ele>
        <time>2024-04-27T09:12:36Z</time>
      </trkpt>
      <trkpt lat="45.8513" lon="6.44716">
        <ele>2311.6</ele>
        <time>2024-04-27T09:12:37Z</time>
      </trkpt>
      <trkpt lat="45.8513" lon="6.44716">
        <ele>2311.6</ele>
        <time>2024-04-27T09:12:38Z</time>
      </trkpt>
      <trkpt lat="45.8513" lon="6.44716">
        <ele>2311.6</ele>
        <time>2024-04-27T09:12:39Z</time>
      </trkpt>
      <trkpt lat="45.85129" lon="6.44716">
        <ele>2311.6</ele>
        <time>2024-04-27T09:12:40Z</time>
      </trkpt>
      <trkpt lat="45.85129" lon="6.44716">
        <ele>2311.6</ele>
        <time>2024-04-27T09:12:41Z</time>
      </trkpt>
      <trkpt lat="45.85129" lon="6.44716">
        <ele>2311.6</ele>
        <time>2024-04-27T09:12:42Z</time>
      </trkpt>
      <trkpt lat="45.85129" lon="6.44716">
        <ele>2311.6</ele>
        <time>2024-04-27T09:12:43Z</time>
      </trkpt>
      <trkpt lat="45.85129" lon="6.44716">
        <ele>2311.6</ele>
        <time>2024-04-27T09:12:44Z</time>
      </trkpt>
      <trkpt lat="45.85129" lon="6.44716">
        <ele>2311.6</ele>
        <time>2024-04-27T09:12:45Z</time>
      </trkpt>
      <trkpt lat="45.85128" lon="6.44716">
        <ele>2311.6</ele>
        <time>2024-04-27T09:12:46Z</time>
      </trkpt>
      <trkpt lat="45.85128" lon="6.44716">
        <ele>2311.6</ele>
        <time>2024-04-27T09:12:47Z</time>
      </trkpt>
      <trkpt lat="45.85128" lon="6.44716">
        <ele>2311.6</ele>
        <time>2024-04-27T09:12:48Z</time>
      </trkpt>
      <trkpt lat="45.85128" lon="6.44716">
        <ele>2311.6</ele>
        <time>2024-04-27T09:12:49Z</time>
      </trkpt>
      <trkpt lat="45.85128" lon="6.44716">
        <ele>2311.6</ele>
        <time>2024-04-27T09:12:50Z</time>
      </trkpt>
      <trkpt lat="45.85128" lon="6.44716">
        <ele>2311.6</ele>
        <time>2024-04-27T09:12:51Z</time>
      </trkpt>
      <trkpt lat="45.85128" lon="6.44716">
        <ele>2311.6</ele>
        <time>2024-04-27T09:12:52Z</time>
      </trkpt>
      <trkpt lat="45.85128" lon="6.44716">
        <ele>2311.6</ele>
        <time>2024-04-27T09:12:53Z</time>
      </trkpt>
      <trkpt lat="45.85128" lon="6.44715">
        <ele>2311.6</ele>
        <time>2024-04-27T09:12:54Z</time>
      </trkpt>
      <trkpt lat="45.85128" lon="6.44715">
        <ele>2311.6</ele>
        <time>2024-04-27T09:12:55Z</time>
      </trkpt>
      <trkpt lat="45.85128" lon="6.44715">
        <ele>2311.6</ele>
        <time>2024-04-27T09:12:56Z</time>
      </trkpt>
      <trkpt lat="45.85128" lon="6.44715">
        <ele>2311.6</ele>
        <time>2024-04-27T09:12:57Z</time>
      </trkpt>
      <trkpt lat="45.85128" lon="6.44715">
        <ele>2311.6</ele>
        <time>2024-04-27T09:12:58Z</time>
      </trkpt>
      <trkpt lat="45.85128" lon="6.44715">
        <ele>2311.6</ele>
        <time>2024-04-27T09:12:59Z</time>
      </trkpt>
      <trkpt lat="45.85128" lon="6.44715">
        <ele>2310.7</ele>
        <time>2024-04-27T09:13:00Z</time>
      </trkpt>
      <trkpt lat="45.85128" lon="6.44714">
        <ele>2310.7</ele>
        <time>2024-04-27T09:13:01Z</time>
      </trkpt>
      <trkpt lat="45.85128" lon="6.44714">
        <ele>2310.7</ele>
        <time>2024-04-27T09:13:02Z</time>
      </trkpt>
      <trkpt lat="45.85128" lon="6.44714">
        <ele>2310.7</ele>
        <time>2024-04-27T09:13:03Z</time>
      </trkpt>
      <trkpt lat="45.85128" lon="6.44714">
        <ele>2310.7</ele>
        <time>2024-04-27T09:13:04Z</time>
      </trkpt>
      <trkpt lat="45.85128" lon="6.44714">
        <ele>2310.7</ele>
        <time>2024-04-27T09:13:05Z</time>
      </trkpt>
      <trkpt lat="45.85128" lon="6.44714">
        <ele>2310.7</ele>
        <time>2024-04-27T09:13:06Z</time>
      </trkpt>
      <trkpt lat="45.85128" lon="6.44714">
        <ele>2310.7</ele>
        <time>2024-04-27T09:13:07Z</time>
      </trkpt>
      <trkpt lat="45.85128" lon="6.44714">
        <ele>2310.7</ele>
        <time>2024-04-27T09:13:08Z</time>
      </trkpt>
      <trkpt lat="45.85128" lon="6.44714">
        <ele>2310.7</ele>
        <time>2024-04-27T09:13:09Z</time>
      </trkpt>
      <trkpt lat="45.85128" lon="6.44714">
        <ele>2309.7</ele>
        <time>2024-04-27T09:13:10Z</time>
      </trkpt>
      <trkpt lat="45.85128" lon="6.44714">
        <ele>2309.7</ele>
        <time>2024-04-27T09:13:11Z</time>
      </trkpt>
      <trkpt lat="45.85128" lon="6.44714">
        <ele>2309.7</ele>
        <time>2024-04-27T09:13:12Z</time>
      </trkpt>
      <trkpt lat="45.85128" lon="6.44714">
        <ele>2309.7</ele>
        <time>2024-04-27T09:13:13Z</time>
      </trkpt>
      <trkpt lat="45.85128" lon="6.44714">
        <ele>2309.7</ele>
        <time>2024-04-27T09:13:14Z</time>
      </trkpt>
      <trkpt lat="45.85128" lon="6.44714">
        <ele>2309.7</ele>
        <time>2024-04-27T09:13:15Z</time>
      </trkpt>
      <trkpt lat="45.85128" lon="6.44714">
        <ele>2309.7</ele>
        <time>2024-04-27T09:13:16Z</time>
      </trkpt>
      <trkpt lat="45.85128" lon="6.44714">
        <ele>2309.7</ele>
        <time>2024-04-27T09:13:17Z</time>
      </trkpt>
      <trkpt lat="45.85128" lon="6.44714">
        <ele>2309.7</ele>
        <time>2024-04-27T09:13:18Z</time>
      </trkpt>
      <trkpt lat="45.85128" lon="6.44714">
        <ele>2309.7</ele>
        <time>2024-04-27T09:13:19Z</time>
      </trkpt>
      <trkpt lat="45.85128" lon="6.44714">
        <ele>2309.7</ele>
        <time>2024-04-27T09:13:20Z</time>
      </trkpt>
      <trkpt lat="45.85128" lon="6.44714">
        <ele>2309.7</ele>
        <time>2024-04-27T09:13:21Z</time>
      </trkpt>
      <trkpt lat="45.85128" lon="6.44714">
        <ele>2309.7</ele>
        <time>2024-04-27T09:13:22Z</time>
      </trkpt>
      <trkpt lat="45.85128" lon="6.44714">
        <ele>2309.7</ele>
        <time>2024-04-27T09:13:23Z</time>
      </trkpt>
      <trkpt lat="45.85128" lon="6.44714">
        <ele>2309.7</ele>
        <time>2024-04-27T09:13:24Z</time>
      </trkpt>
      <trkpt lat="45.85128" lon="6.44714">
        <ele>2309.7</ele>
        <time>2024-04-27T09:13:25Z</time>
      </trkpt>
      <trkpt lat="45.85128" lon="6.44714">
        <ele>2309.7</ele>
        <time>2024-04-27T09:13:26Z</time>
      </trkpt>
      <trkpt lat="45.85128" lon="6.44714">
        <ele>2309.7</ele>
        <time>2024-04-27T09:13:27Z</time>
      </trkpt>
      <trkpt lat="45.85128" lon="6.44714">
        <ele>2309.7</ele>
        <time>2024-04-27T09:13:28Z</time>
      </trkpt>
      <trkpt lat="45.85128" lon="6.44714">
        <ele>2309.7</ele>
        <time>2024-04-27T09:13:29Z</time>
      </trkpt>
      <trkpt lat="45.85128" lon="6.44714">
        <ele>2309.7</ele>
        <time>2024-04-27T09:13:30Z</time>
      </trkpt>
      <trkpt lat="45.85128" lon="6.44714">
        <ele>2309.7</ele>
        <time>2024-04-27T09:13:31Z</time>
      </trkpt>
      <trkpt lat="45.85128" lon="6.44714">
        <ele>2309.7</ele>
        <time>2024-04-27T09:13:32Z</time>
      </trkpt>
      <trkpt lat="45.85128" lon="6.44714">
        <ele>2309.7</ele>
        <time>2024-04-27T09:13:33Z</time>
      </trkpt>
      <trkpt lat="45.85128" lon="6.44714">
        <ele>2309.7</ele>
        <time>2024-04-27T09:13:34Z</time>
      </trkpt>
      <trkpt lat="45.85128" lon="6.44714">
        <ele>2309.7</ele>
        <time>2024-04-27T09:13:35Z</time>
      </trkpt>
      <trkpt lat="45.85128" lon="6.44714">
        <ele>2309.7</ele>
        <time>2024-04-27T09:13:36Z</time>
      </trkpt>
      <trkpt lat="45.85128" lon="6.44714">
        <ele>2309.7</ele>
        <time>2024-04-27T09:13:37Z</time>
      </trkpt>
      <trkpt lat="45.85128" lon="6.44714">
        <ele>2309.7</ele>
        <time>2024-04-27T09:13:38Z</time>
      </trkpt>
      <trkpt lat="45.85128" lon="6.44714">
        <ele>2309.7</ele>
        <time>2024-04-27T09:13:39Z</time>
      </trkpt>
      <trkpt lat="45.85128" lon="6.44714">
        <ele>2309.7</ele>
        <time>2024-04-27T09:13:40Z</time>
      </trkpt>
      <trkpt lat="45.85128" lon="6.44714">
        <ele>2309.7</ele>
        <time>2024-04-27T09:13:41Z</time>
      </trkpt>
      <trkpt lat="45.85128" lon="6.44714">
        <ele>2309.7</ele>
        <time>2024-04-27T09:13:42Z</time>
      </trkpt>
      <trkpt lat="45.85128" lon="6.44714">
        <ele>2309.7</ele>
        <time>2024-04-27T09:13:43Z</time>
      </trkpt>
      <trkpt lat="45.85128" lon="6.44714">
        <ele>2309.7</ele>
        <time>2024-04-27T09:13:44Z</time>
      </trkpt>
      <trkpt lat="45.85128" lon="6.44714">
        <ele>2309.7</ele>
        <time>2024-04-27T09:13:45Z</time>
      </trkpt>
      <trkpt lat="45.85128" lon="6.44714">
        <ele>2309.7</ele>
        <time>2024-04-27T09:13:46Z</time>
      </trkpt>
      <trkpt lat="45.85128" lon="6.44714">
        <ele>2309.7</ele>
        <time>2024-04-27T09:13:47Z</time>
      </trkpt>
      <trkpt lat="45.85128" lon="6.44714">
        <ele>2309.7</ele>
        <time>2024-04-27T09:13:48Z</time>
      </trkpt>
      <trkpt lat="45.85128" lon="6.44714">
        <ele>2309.7</ele>
        <time>2024-04-27T09:13:49Z</time>
      </trkpt>
      <trkpt lat="45.85128" lon="6.44714">
        <ele>2309.7</ele>
        <time>2024-04-27T09:13:50Z</time>
      </trkpt>
      <trkpt lat="45.85128" lon="6.44714">
        <ele>2309.7</ele>
        <time>2024-04-27T09:13:51Z</time>
      </trkpt>
      <trkpt lat="45.85128" lon="6.44714">
        <ele>2309.7</ele>
        <time>2024-04-27T09:13:52Z</time>
      </trkpt>
      <trkpt lat="45.85128" lon="6.44714">
        <ele>2309.7</ele>
        <time>2024-04-27T09:13:53Z</time>
      </trkpt>
      <trkpt lat="45.85128" lon="6.44714">
        <ele>2309.7</ele>
        <time>2024-04-27T09:13:54Z</time>
      </trkpt>
      <trkpt lat="45.85128" lon="6.44714">
        <ele>2309.7</ele>
        <time>2024-04-27T09:13:55Z</time>
      </trkpt>
      <trkpt lat="45.85128" lon="6.44714">
        <ele>2309.7</ele>
        <time>2024-04-27T09:13:56Z</time>
      </trkpt>
      <trkpt lat="45.85128" lon="6.44714">
        <ele>2309.7</ele>
        <time>2024-04-27T09:13:57Z</time>
      </trkpt>
      <trkpt lat="45.85128" lon="6.44714">
        <ele>2309.7</ele>
        <time>2024-04-27T09:13:58Z</time>
      </trkpt>
      <trkpt lat="45.85128" lon="6.44714">
        <ele>2309.7</ele>
        <time>2024-04-27T09:13:59Z</time>
      </trkpt>
      <trkpt lat="45.85128" lon="6.44714">
        <ele>2309.7</ele>
        <time>2024-04-27T09:14:00Z</time>
      </trkpt>
      <trkpt lat="45.85128" lon="6.44714">
        <ele>2309.7</ele>
        <time>2024-04-27T09:14:01Z</time>
      </trkpt>
      <trkpt lat="45.85128" lon="6.44714">
        <ele>2309.7</ele>
        <time>2024-04-27T09:14:02Z</time>
      </trkpt>
      <trkpt lat="45.85128" lon="6.44714">
        <ele>2309.7</ele>
        <time>2024-04-27T09:14:03Z</time>
      </trkpt>
      <trkpt lat="45.85128" lon="6.44714">
        <ele>2309.7</ele>
        <time>2024-04-27T09:14:04Z</time>
      </trkpt>
      <trkpt lat="45.85128" lon="6.44714">
        <ele>2309.7</ele>
        <time>2024-04-27T09:14:05Z</time>
      </trkpt>
      <trkpt lat="45.85128" lon="6.44714">
        <ele>2309.7</ele>
        <time>2024-04-27T09:14:06Z</time>
      </trkpt>
      <trkpt lat="45.85128" lon="6.44714">
        <ele>2309.7</ele>
        <time>2024-04-27T09:14:07Z</time>
      </trkpt>
      <trkpt lat="45.85128" lon="6.44714">
        <ele>2309.7</ele>
        <time>2024-04-27T09:14:08Z</time>
      </trkpt>
      <trkpt lat="45.85128" lon="6.44714">
        <ele>2309.7</ele>
        <time>2024-04-27T09:14:09Z</time>
      </trkpt>
      <trkpt lat="45.85128" lon="6.44714">
        <ele>2310.7</ele>
        <time>2024-04-27T09:14:10Z</time>
      </trkpt>
      <trkpt lat="45.85128" lon="6.44714">
        <ele>2310.7</ele>
        <time>2024-04-27T09:14:11Z</time>
      </trkpt>
      <trkpt lat="45.85128" lon="6.44714">
        <ele>2310.7</ele>
        <time>2024-04-27T09:14:12Z</time>
      </trkpt>
      <trkpt lat="45.85128" lon="6.44714">
        <ele>2310.7</ele>
        <time>2024-04-27T09:14:13Z</time>
      </trkpt>
      <trkpt lat="45.85128" lon="6.44714">
        <ele>2311.6</ele>
        <time>2024-04-27T09:14:14Z</time>
      </trkpt>
      <trkpt lat="45.85128" lon="6.44714">
        <ele>2311.6</ele>
        <time>2024-04-27T09:14:15Z</time>
      </trkpt>
      <trkpt lat="45.85128" lon="6.44714">
        <ele>2312.7</ele>
        <time>2024-04-27T09:14:16Z</time>
      </trkpt>
      <trkpt lat="45.85128" lon="6.44714">
        <ele>2312.7</ele>
        <time>2024-04-27T09:14:17Z</time>
      </trkpt>
      <trkpt lat="45.85128" lon="6.44714">
        <ele>2313.6</ele>
        <time>2024-04-27T09:14:18Z</time>
      </trkpt>
      <trkpt lat="45.85127" lon="6.44715">
        <ele>2313.6</ele>
        <time>2024-04-27T09:14:19Z</time>
      </trkpt>
      <trkpt lat="45.85127" lon="6.44715">
        <ele>2313.6</ele>
        <time>2024-04-27T09:14:20Z</time>
      </trkpt>
      <trkpt lat="45.85126" lon="6.44715">
        <ele>2313.6</ele>
        <time>2024-04-27T09:14:21Z</time>
      </trkpt>
      <trkpt lat="45.85126" lon="6.44715">
        <ele>2314.7</ele>
        <time>2024-04-27T09:14:22Z</time>
      </trkpt>
      <trkpt lat="45.85125" lon="6.44716">
        <ele>2314.7</ele>
        <time>2024-04-27T09:14:23Z</time>
      </trkpt>
      <trkpt lat="45.85124" lon="6.44716">
        <ele>2314.7</ele>
        <time>2024-04-27T09:14:24Z</time>
      </trkpt>
      <trkpt lat="45.85123" lon="6.44717">
        <ele>2314.7</ele>
        <time>2024-04-27T09:14:25Z</time>
      </trkpt>
      <trkpt lat="45.85123" lon="6.44717">
        <ele>2315.6</ele>
        <time>2024-04-27T09:14:26Z</time>
      </trkpt>
      <trkpt lat="45.85122" lon="6.44718">
        <ele>2315.6</ele>
        <time>2024-04-27T09:14:27Z</time>
      </trkpt>
      <trkpt lat="45.85121" lon="6.44718">
        <ele>2315.6</ele>
        <time>2024-04-27T09:14:28Z</time>
      </trkpt>
      <trkpt lat="45.85121" lon="6.44717">
        <ele>2315.6</ele>
        <time>2024-04-27T09:14:29Z</time>
      </trkpt>
      <trkpt lat="45.85121" lon="6.44717">
        <ele>2316.7</ele>
        <time>2024-04-27T09:14:30Z</time>
      </trkpt>
      <trkpt lat="45.8512" lon="6.44717">
        <ele>2316.7</ele>
        <time>2024-04-27T09:14:31Z</time>
      </trkpt>
      <trkpt lat="45.8512" lon="6.44717">
        <ele>2316.7</ele>
        <time>2024-04-27T09:14:32Z</time>
      </trkpt>
      <trkpt lat="45.8512" lon="6.44717">
        <ele>2316.7</ele>
        <time>2024-04-27T09:14:33Z</time>
      </trkpt>
      <trkpt lat="45.8512" lon="6.44717">
        <ele>2317.7</ele>
        <time>2024-04-27T09:14:34Z</time>
      </trkpt>
      <trkpt lat="45.8512" lon="6.44717">
        <ele>2317.7</ele>
        <time>2024-04-27T09:14:35Z</time>
      </trkpt>
      <trkpt lat="45.8512" lon="6.44717">
        <ele>2317.7</ele>
        <time>2024-04-27T09:14:36Z</time>
      </trkpt>
      <trkpt lat="45.8512" lon="6.44717">
        <ele>2317.7</ele>
        <time>2024-04-27T09:14:37Z</time>
      </trkpt>
      <trkpt lat="45.8512" lon="6.44717">
        <ele>2318.6</ele>
        <time>2024-04-27T09:14:38Z</time>
      </trkpt>
      <trkpt lat="45.8512" lon="6.44717">
        <ele>2318.6</ele>
        <time>2024-04-27T09:14:39Z</time>
      </trkpt>
      <trkpt lat="45.8512" lon="6.44717">
        <ele>2318.6</ele>
        <time>2024-04-27T09:14:40Z</time>
      </trkpt>
      <trkpt lat="45.8512" lon="6.44717">
        <ele>2318.6</ele>
        <time>2024-04-27T09:14:41Z</time>
      </trkpt>
      <trkpt lat="45.8512" lon="6.44717">
        <ele>2318.6</ele>
        <time>2024-04-27T09:14:42Z</time>
      </trkpt>
      <trkpt lat="45.8512" lon="6.44717">
        <ele>2318.6</ele>
        <time>2024-04-27T09:14:43Z</time>
      </trkpt>
      <trkpt lat="45.8512" lon="6.44717">
        <ele>2318.6</ele>
        <time>2024-04-27T09:14:44Z</time>
      </trkpt>
      <trkpt lat="45.8512" lon="6.44717">
        <ele>2318.6</ele>
        <time>2024-04-27T09:14:45Z</time>
      </trkpt>
      <trkpt lat="45.8512" lon="6.44717">
        <ele>2319.7</ele>
        <time>2024-04-27T09:14:46Z</time>
      </trkpt>
      <trkpt lat="45.8512" lon="6.44717">
        <ele>2319.7</ele>
        <time>2024-04-27T09:14:47Z</time>
      </trkpt>
      <trkpt lat="45.8512" lon="6.44717">
        <ele>2319.7</ele>
        <time>2024-04-27T09:14:48Z</time>
      </trkpt>
      <trkpt lat="45.8512" lon="6.44717">
        <ele>2319.7</ele>
        <time>2024-04-27T09:14:49Z</time>
      </trkpt>
      <trkpt lat="45.8512" lon="6.44717">
        <ele>2319.7</ele>
        <time>2024-04-27T09:14:50Z</time>
      </trkpt>
      <trkpt lat="45.8512" lon="6.44717">
        <ele>2319.7</ele>
        <time>2024-04-27T09:14:51Z</time>
      </trkpt>
      <trkpt lat="45.8512" lon="6.44717">
        <ele>2320.6</ele>
        <time>2024-04-27T09:14:52Z</time>
      </trkpt>
      <trkpt lat="45.8512" lon="6.44717">
        <ele>2320.6</ele>
        <time>2024-04-27T09:14:53Z</time>
      </trkpt>
      <trkpt lat="45.8512" lon="6.44717">
        <ele>2320.6</ele>
        <time>2024-04-27T09:14:54Z</time>
      </trkpt>
      <trkpt lat="45.8512" lon="6.44717">
        <ele>2320.6</ele>
        <time>2024-04-27T09:14:55Z</time>
      </trkpt>
      <trkpt lat="45.8512" lon="6.44717">
        <ele>2321.7</ele>
        <time>2024-04-27T09:14:56Z</time>
      </trkpt>
      <trkpt lat="45.8512" lon="6.44717">
        <ele>2321.7</ele>
        <time>2024-04-27T09:14:57Z</time>
      </trkpt>
      <trkpt lat="45.8512" lon="6.44717">
        <ele>2321.7</ele>
        <time>2024-04-27T09:14:58Z</time>
      </trkpt>
      <trkpt lat="45.8512" lon="6.44717">
        <ele>2321.7</ele>
        <time>2024-04-27T09:14:59Z</time>
      </trkpt>
      <trkpt lat="45.8512" lon="6.44717">
        <ele>2321.7</ele>
        <time>2024-04-27T09:15:00Z</time>
      </trkpt>
      <trkpt lat="45.8512" lon="6.44717">
        <ele>2321.7</ele>
        <time>2024-04-27T09:15:01Z</time>
      </trkpt>
      <trkpt lat="45.8512" lon="6.44717">
        <ele>2321.7</ele>
        <time>2024-04-27T09:15:02Z</time>
      </trkpt>
      <trkpt lat="45.8512" lon="6.44717">
        <ele>2321.7</ele>
        <time>2024-04-27T09:15:03Z</time>
      </trkpt>
      <trkpt lat="45.85119" lon="6.44717">
        <ele>2321.7</ele>
        <time>2024-04-27T09:15:04Z</time>
      </trkpt>
      <trkpt lat="45.85119" lon="6.44717">
        <ele>2321.7</ele>
        <time>2024-04-27T09:15:05Z</time>
      </trkpt>
      <trkpt lat="45.85119" lon="6.44717">
        <ele>2321.7</ele>
        <time>2024-04-27T09:15:06Z</time>
      </trkpt>
      <trkpt lat="45.85118" lon="6.44717">
        <ele>2321.7</ele>
        <time>2024-04-27T09:15:07Z</time>
      </trkpt>
      <trkpt lat="45.85118" lon="6.44717">
        <ele>2321.7</ele>
        <time>2024-04-27T09:15:08Z</time>
      </trkpt>
      <trkpt lat="45.85118" lon="6.44717">
        <ele>2322.6</ele>
        <time>2024-04-27T09:15:09Z</time>
      </trkpt>
      <trkpt lat="45.85117" lon="6.44717">
        <ele>2322.6</ele>
        <time>2024-04-27T09:15:10Z</time>
      </trkpt>
      <trkpt lat="45.85117" lon="6.44717">
        <ele>2322.6</ele>
        <time>2024-04-27T09:15:11Z</time>
      </trkpt>
      <trkpt lat="45.85116" lon="6.44717">
        <ele>2322.6</ele>
        <time>2024-04-27T09:15:12Z</time>
      </trkpt>
      <trkpt lat="45.85116" lon="6.44717">
        <ele>2323.7</ele>
        <time>2024-04-27T09:15:13Z</time>
      </trkpt>
      <trkpt lat="45.85116" lon="6.44717">
        <ele>2323.7</ele>
        <time>2024-04-27T09:15:14Z</time>
      </trkpt>
      <trkpt lat="45.85116" lon="6.44717">
        <ele>2323.7</ele>
        <time>2024-04-27T09:15:15Z</time>
      </trkpt>
      <trkpt lat="45.85116" lon="6.44717">
        <ele>2323.7</ele>
        <time>2024-04-27T09:15:16Z</time>
      </trkpt>
      <trkpt lat="45.85116" lon="6.44717">
        <ele>2323.7</ele>
        <time>2024-04-27T09:15:17Z</time>
      </trkpt>
      <trkpt lat="45.85116" lon="6.44717">
        <ele>2323.7</ele>
        <time>2024-04-27T09:15:18Z</time>
      </trkpt>
      <trkpt lat="45.85116" lon="6.44717">
        <ele>2323.7</ele>
        <time>2024-04-27T09:15:19Z</time>
      </trkpt>
      <trkpt lat="45.85116" lon="6.44717">
        <ele>2323.7</ele>
        <time>2024-04-27T09:15:20Z</time>
      </trkpt>
      <trkpt lat="45.85116" lon="6.44717">
        <ele>2323.7</ele>
        <time>2024-04-27T09:15:21Z</time>
      </trkpt>
      <trkpt lat="45.85116" lon="6.44716">
        <ele>2323.7</ele>
        <time>2024-04-27T09:15:22Z</time>
      </trkpt>
      <trkpt lat="45.85115" lon="6.44716">
        <ele>2323.7</ele>
        <time>2024-04-27T09:15:23Z</time>
      </trkpt>
      <trkpt lat="45.85115" lon="6.44716">
        <ele>2323.7</ele>
        <time>2024-04-27T09:15:24Z</time>
      </trkpt>
      <trkpt lat="45.85115" lon="6.44716">
        <ele>2324.6</ele>
        <time>2024-04-27T09:15:25Z</time>
      </trkpt>
      <trkpt lat="45.85114" lon="6.44716">
        <ele>2324.6</ele>
        <time>2024-04-27T09:15:26Z</time>
      </trkpt>
      <trkpt lat="45.85114" lon="6.44716">
        <ele>2324.6</ele>
        <time>2024-04-27T09:15:27Z</time>
      </trkpt>
      <trkpt lat="45.85114" lon="6.44716">
        <ele>2324.6</ele>
        <time>2024-04-27T09:15:28Z</time>
      </trkpt>
      <trkpt lat="45.85114" lon="6.44716">
        <ele>2325.7</ele>
        <time>2024-04-27T09:15:29Z</time>
      </trkpt>
      <trkpt lat="45.85113" lon="6.44716">
        <ele>2325.7</ele>
        <time>2024-04-27T09:15:30Z</time>
      </trkpt>
      <trkpt lat="45.85113" lon="6.44715">
        <ele>2326.7</ele>
        <time>2024-04-27T09:15:31Z</time>
      </trkpt>
      <trkpt lat="45.85113" lon="6.44715">
        <ele>2326.7</ele>
        <time>2024-04-27T09:15:32Z</time>
      </trkpt>
      <trkpt lat="45.85113" lon="6.44715">
        <ele>2326.7</ele>
        <time>2024-04-27T09:15:33Z</time>
      </trkpt>
      <trkpt lat="45.85113" lon="6.44715">
        <ele>2326.7</ele>
        <time>2024-04-27T09:15:34Z</time>
      </trkpt>
      <trkpt lat="45.85113" lon="6.44715">
        <ele>2327.6</ele>
        <time>2024-04-27T09:15:35Z</time>
      </trkpt>
      <trkpt lat="45.85113" lon="6.44715">
        <ele>2327.6</ele>
        <time>2024-04-27T09:15:36Z</time>
      </trkpt>
      <trkpt lat="45.85112" lon="6.44715">
        <ele>2327.6</ele>
        <time>2024-04-27T09:15:37Z</time>
      </trkpt>
      <trkpt lat="45.85112" lon="6.44715">
        <ele>2327.6</ele>
        <time>2024-04-27T09:15:38Z</time>
      </trkpt>
      <trkpt lat="45.85112" lon="6.44715">
        <ele>2328.7</ele>
        <time>2024-04-27T09:15:39Z</time>
      </trkpt>
      <trkpt lat="45.85112" lon="6.44715">
        <ele>2328.7</ele>
        <time>2024-04-27T09:15:40Z</time>
      </trkpt>
      <trkpt lat="45.85112" lon="6.44715">
        <ele>2329.6</ele>
        <time>2024-04-27T09:15:41Z</time>
      </trkpt>
      <trkpt lat="45.85112" lon="6.44715">
        <ele>2329.6</ele>
        <time>2024-04-27T09:15:42Z</time>
      </trkpt>
      <trkpt lat="45.85111" lon="6.44715">
        <ele>2329.6</ele>
        <time>2024-04-27T09:15:43Z</time>
      </trkpt>
      <trkpt lat="45.85111" lon="6.44715">
        <ele>2329.6</ele>
        <time>2024-04-27T09:15:44Z</time>
      </trkpt>
      <trkpt lat="45.85111" lon="6.44715">
        <ele>2329.6</ele>
        <time>2024-04-27T09:15:45Z</time>
      </trkpt>
      <trkpt lat="45.85111" lon="6.44714">
        <ele>2329.6</ele>
        <time>2024-04-27T09:15:46Z</time>
      </trkpt>
      <trkpt lat="45.85111" lon="6.44714">
        <ele>2330.7</ele>
        <time>2024-04-27T09:15:47Z</time>
      </trkpt>
      <trkpt lat="45.85111" lon="6.44714">
        <ele>2330.7</ele>
        <time>2024-04-27T09:15:48Z</time>
      </trkpt>
      <trkpt lat="45.8511" lon="6.44714">
        <ele>2330.7</ele>
        <time>2024-04-27T09:15:49Z</time>
      </trkpt>
      <trkpt lat="45.8511" lon="6.44714">
        <ele>2330.7</ele>
        <time>2024-04-27T09:15:50Z</time>
      </trkpt>
      <trkpt lat="45.8511" lon="6.44714">
        <ele>2331.6</ele>
        <time>2024-04-27T09:15:51Z</time>
      </trkpt>
      <trkpt lat="45.8511" lon="6.44714">
        <ele>2331.6</ele>
        <time>2024-04-27T09:15:52Z</time>
      </trkpt>
      <trkpt lat="45.8511" lon="6.44713">
        <ele>2331.6</ele>
        <time>2024-04-27T09:15:53Z</time>
      </trkpt>
      <trkpt lat="45.85109" lon="6.44713">
        <ele>2331.6</ele>
        <time>2024-04-27T09:15:54Z</time>
      </trkpt>
      <trkpt lat="45.85109" lon="6.44713">
        <ele>2331.6</ele>
        <time>2024-04-27T09:15:55Z</time>
      </trkpt>
      <trkpt lat="45.85109" lon="6.44713">
        <ele>2331.6</ele>
        <time>2024-04-27T09:15:56Z</time>
      </trkpt>
      <trkpt lat="45.85109" lon="6.44713">
        <ele>2332.7</ele>
        <time>2024-04-27T09:15:57Z</time>
      </trkpt>
      <trkpt lat="45.85109" lon="6.44713">
        <ele>2332.7</ele>
        <time>2024-04-27T09:15:58Z</time>
      </trkpt>
      <trkpt lat="45.85109" lon="6.44713">
        <ele>2332.7</ele>
        <time>2024-04-27T09:15:59Z</time>
      </trkpt>
      <trkpt lat="45.85109" lon="6.44712">
        <ele>2332.7</ele>
        <time>2024-04-27T09:16:00Z</time>
      </trkpt>
      <trkpt lat="45.85109" lon="6.44712">
        <ele>2333.6</ele>
        <time>2024-04-27T09:16:01Z</time>
      </trkpt>
      <trkpt lat="45.85108" lon="6.44712">
        <ele>2333.6</ele>
        <time>2024-04-27T09:16:02Z</time>
      </trkpt>
      <trkpt lat="45.85108" lon="6.44712">
        <ele>2333.6</ele>
        <time>2024-04-27T09:16:03Z</time>
      </trkpt>
      <trkpt lat="45.85108" lon="6.44712">
        <ele>2333.6</ele>
        <time>2024-04-27T09:16:04Z</time>
      </trkpt>
      <trkpt lat="45.85108" lon="6.44712">
        <ele>2334.6</ele>
        <time>2024-04-27T09:16:05Z</time>
      </trkpt>
      <trkpt lat="45.85108" lon="6.44712">
        <ele>2334.6</ele>
        <time>2024-04-27T09:16:06Z</time>
      </trkpt>
      <trkpt lat="45.85108" lon="6.44712">
        <ele>2334.6</ele>
        <time>2024-04-27T09:16:07Z</time>
      </trkpt>
      <trkpt lat="45.85108" lon="6.44711">
        <ele>2334.6</ele>
        <time>2024-04-27T09:16:08Z</time>
      </trkpt>
      <trkpt lat="45.85108" lon="6.44711">
        <ele>2335.7</ele>
        <time>2024-04-27T09:16:09Z</time>
      </trkpt>
      <trkpt lat="45.85108" lon="6.4471">
        <ele>2335.7</ele>
        <time>2024-04-27T09:16:10Z</time>
      </trkpt>
      <trkpt lat="45.85108" lon="6.4471">
        <ele>2335.7</ele>
        <time>2024-04-27T09:16:11Z</time>
      </trkpt>
      <trkpt lat="45.85108" lon="6.4471">
        <ele>2335.7</ele>
        <time>2024-04-27T09:16:12Z</time>
      </trkpt>
      <trkpt lat="45.85108" lon="6.44709">
        <ele>2336.6</ele>
        <time>2024-04-27T09:16:13Z</time>
      </trkpt>
      <trkpt lat="45.85108" lon="6.44709">
        <ele>2336.6</ele>
        <time>2024-04-27T09:16:14Z</time>
      </trkpt>
      <trkpt lat="45.85108" lon="6.44709">
        <ele>2336.6</ele>
        <time>2024-04-27T09:16:15Z</time>
      </trkpt>
      <trkpt lat="45.85108" lon="6.44709">
        <ele>2336.6</ele>
        <time>2024-04-27T09:16:16Z</time>
      </trkpt>
      <trkpt lat="45.85108" lon="6.44708">
        <ele>2336.6</ele>
        <time>2024-04-27T09:16:17Z</time>
      </trkpt>
      <trkpt lat="45.85108" lon="6.44708">
        <ele>2336.6</ele>
        <time>2024-04-27T09:16:18Z</time>
      </trkpt>
      <trkpt lat="45.85108" lon="6.44708">
        <ele>2337.7</ele>
        <time>2024-04-27T09:16:19Z</time>
      </trkpt>
      <trkpt lat="45.85108" lon="6.44708">
        <ele>2337.7</ele>
        <time>2024-04-27T09:16:20Z</time>
      </trkpt>
      <trkpt lat="45.85107" lon="6.44708">
        <ele>2337.7</ele>
        <time>2024-04-27T09:16:21Z</time>
      </trkpt>
      <trkpt lat="45.85107" lon="6.44708">
        <ele>2337.7</ele>
        <time>2024-04-27T09:16:22Z</time>
      </trkpt>
      <trkpt lat="45.85107" lon="6.44707">
        <ele>2337.7</ele>
        <time>2024-04-27T09:16:23Z</time>
      </trkpt>
      <trkpt lat="45.85107" lon="6.44707">
        <ele>2337.7</ele>
        <time>2024-04-27T09:16:24Z</time>
      </trkpt>
      <trkpt lat="45.85107" lon="6.44707">
        <ele>2337.7</ele>
        <time>2024-04-27T09:16:25Z</time>
      </trkpt>
      <trkpt lat="45.85107" lon="6.44707">
        <ele>2337.7</ele>
        <time>2024-04-27T09:16:26Z</time>
      </trkpt>
      <trkpt lat="45.85107" lon="6.44707">
        <ele>2337.7</ele>
        <time>2024-04-27T09:16:27Z</time>
      </trkpt>
      <trkpt lat="45.85106" lon="6.44706">
        <ele>2337.7</ele>
        <time>2024-04-27T09:16:28Z</time>
      </trkpt>
      <trkpt lat="45.85106" lon="6.44706">
        <ele>2337.7</ele>
        <time>2024-04-27T09:16:29Z</time>
      </trkpt>
      <trkpt lat="45.85106" lon="6.44706">
        <ele>2337.7</ele>
        <time>2024-04-27T09:16:30Z</time>
      </trkpt>
      <trkpt lat="45.85106" lon="6.44705">
        <ele>2337.7</ele>
        <time>2024-04-27T09:16:31Z</time>
      </trkpt>
      <trkpt lat="45.85106" lon="6.44705">
        <ele>2337.7</ele>
        <time>2024-04-27T09:16:32Z</time>
      </trkpt>
      <trkpt lat="45.85106" lon="6.44705">
        <ele>2337.7</ele>
        <time>2024-04-27T09:16:33Z</time>
      </trkpt>
      <trkpt lat="45.85106" lon="6.44705">
        <ele>2337.7</ele>
        <time>2024-04-27T09:16:34Z</time>
      </trkpt>
      <trkpt lat="45.85106" lon="6.44705">
        <ele>2337.7</ele>
        <time>2024-04-27T09:16:35Z</time>
      </trkpt>
      <trkpt lat="45.85106" lon="6.44705">
        <ele>2337.7</ele>
        <time>2024-04-27T09:16:36Z</time>
      </trkpt>
      <trkpt lat="45.85105" lon="6.44705">
        <ele>2337.7</ele>
        <time>2024-04-27T09:16:37Z</time>
      </trkpt>
      <trkpt lat="45.85105" lon="6.44705">
        <ele>2337.7</ele>
        <time>2024-04-27T09:16:38Z</time>
      </trkpt>
      <trkpt lat="45.85105" lon="6.44705">
        <ele>2338.6</ele>
        <time>2024-04-27T09:16:39Z</time>
      </trkpt>
      <trkpt lat="45.85105" lon="6.44705">
        <ele>2338.6</ele>
        <time>2024-04-27T09:16:40Z</time>
      </trkpt>
      <trkpt lat="45.85105" lon="6.44704">
        <ele>2338.6</ele>
        <time>2024-04-27T09:16:41Z</time>
      </trkpt>
      <trkpt lat="45.85105" lon="6.44704">
        <ele>2338.6</ele>
        <time>2024-04-27T09:16:42Z</time>
      </trkpt>
      <trkpt lat="45.85104" lon="6.44704">
        <ele>2338.6</ele>
        <time>2024-04-27T09:16:43Z</time>
      </trkpt>
      <trkpt lat="45.85104" lon="6.44704">
        <ele>2338.6</ele>
        <time>2024-04-27T09:16:44Z</time>
      </trkpt>
      <trkpt lat="45.85104" lon="6.44704">
        <ele>2338.6</ele>
        <time>2024-04-27T09:16:45Z</time>
      </trkpt>
      <trkpt lat="45.85104" lon="6.44704">
        <ele>2338.6</ele>
        <time>2024-04-27T09:16:46Z</time>
      </trkpt>
      <trkpt lat="45.85104" lon="6.44703">
        <ele>2338.6</ele>
        <time>2024-04-27T09:16:47Z</time>
      </trkpt>
      <trkpt lat="45.85104" lon="6.44703">
        <ele>2338.6</ele>
        <time>2024-04-27T09:16:48Z</time>
      </trkpt>
      <trkpt lat="45.85104" lon="6.44703">
        <ele>2338.6</ele>
        <time>2024-04-27T09:16:49Z</time>
      </trkpt>
      <trkpt lat="45.85104" lon="6.44703">
        <ele>2338.6</ele>
        <time>2024-04-27T09:16:50Z</time>
      </trkpt>
      <trkpt lat="45.85104" lon="6.44703">
        <ele>2338.6</ele>
        <time>2024-04-27T09:16:51Z</time>
      </trkpt>
      <trkpt lat="45.85104" lon="6.44703">
        <ele>2338.6</ele>
        <time>2024-04-27T09:16:52Z</time>
      </trkpt>
      <trkpt lat="45.85104" lon="6.44703">
        <ele>2338.6</ele>
        <time>2024-04-27T09:16:53Z</time>
      </trkpt>
      <trkpt lat="45.85104" lon="6.44702">
        <ele>2338.6</ele>
        <time>2024-04-27T09:16:54Z</time>
      </trkpt>
      <trkpt lat="45.85104" lon="6.44702">
        <ele>2338.6</ele>
        <time>2024-04-27T09:16:55Z</time>
      </trkpt>
      <trkpt lat="45.85104" lon="6.44702">
        <ele>2338.6</ele>
        <time>2024-04-27T09:16:56Z</time>
      </trkpt>
      <trkpt lat="45.85104" lon="6.44702">
        <ele>2339.7</ele>
        <time>2024-04-27T09:16:57Z</time>
      </trkpt>
      <trkpt lat="45.85104" lon="6.44702">
        <ele>2339.7</ele>
        <time>2024-04-27T09:16:58Z</time>
      </trkpt>
      <trkpt lat="45.85104" lon="6.44702">
        <ele>2339.7</ele>
        <time>2024-04-27T09:16:59Z</time>
      </trkpt>
      <trkpt lat="45.85104" lon="6.44702">
        <ele>2339.7</ele>
        <time>2024-04-27T09:17:00Z</time>
      </trkpt>
      <trkpt lat="45.85104" lon="6.44702">
        <ele>2339.7</ele>
        <time>2024-04-27T09:17:01Z</time>
      </trkpt>
      <trkpt lat="45.85104" lon="6.44702">
        <ele>2339.7</ele>
        <time>2024-04-27T09:17:02Z</time>
      </trkpt>
      <trkpt lat="45.85104" lon="6.44702">
        <ele>2339.7</ele>
        <time>2024-04-27T09:17:03Z</time>
      </trkpt>
      <trkpt lat="45.85104" lon="6.44702">
        <ele>2339.7</ele>
        <time>2024-04-27T09:17:04Z</time>
      </trkpt>
      <trkpt lat="45.85104" lon="6.44702">
        <ele>2339.7</ele>
        <time>2024-04-27T09:17:05Z</time>
      </trkpt>
      <trkpt lat="45.85104" lon="6.44702">
        <ele>2339.7</ele>
        <time>2024-04-27T09:17:06Z</time>
      </trkpt>
      <trkpt lat="45.85104" lon="6.44702">
        <ele>2339.7</ele>
        <time>2024-04-27T09:17:07Z</time>
      </trkpt>
      <trkpt lat="45.85104" lon="6.44702">
        <ele>2339.7</ele>
        <time>2024-04-27T09:17:08Z</time>
      </trkpt>
      <trkpt lat="45.85104" lon="6.44701">
        <ele>2340.6</ele>
        <time>2024-04-27T09:17:09Z</time>
      </trkpt>
      <trkpt lat="45.85104" lon="6.44701">
        <ele>2340.6</ele>
        <time>2024-04-27T09:17:10Z</time>
      </trkpt>
      <trkpt lat="45.85104" lon="6.44701">
        <ele>2340.6</ele>
        <time>2024-04-27T09:17:11Z</time>
      </trkpt>
      <trkpt lat="45.85104" lon="6.447">
        <ele>2340.6</ele>
        <time>2024-04-27T09:17:12Z</time>
      </trkpt>
      <trkpt lat="45.85103" lon="6.447">
        <ele>2340.6</ele>
        <time>2024-04-27T09:17:13Z</time>
      </trkpt>
      <trkpt lat="45.85103" lon="6.447">
        <ele>2340.6</ele>
        <time>2024-04-27T09:17:14Z</time>
      </trkpt>
      <trkpt lat="45.85103" lon="6.44699">
        <ele>2340.6</ele>
        <time>2024-04-27T09:17:15Z</time>
      </trkpt>
      <trkpt lat="45.85103" lon="6.44699">
        <ele>2340.6</ele>
        <time>2024-04-27T09:17:16Z</time>
      </trkpt>
      <trkpt lat="45.85103" lon="6.44699">
        <ele>2340.6</ele>
        <time>2024-04-27T09:17:17Z</time>
      </trkpt>
      <trkpt lat="45.85103" lon="6.44699">
        <ele>2340.6</ele>
        <time>2024-04-27T09:17:18Z</time>
      </trkpt>
      <trkpt lat="45.85103" lon="6.44699">
        <ele>2340.6</ele>
        <time>2024-04-27T09:17:19Z</time>
      </trkpt>
      <trkpt lat="45.85103" lon="6.44699">
        <ele>2340.6</ele>
        <time>2024-04-27T09:17:20Z</time>
      </trkpt>
      <trkpt lat="45.85103" lon="6.44699">
        <ele>2341.7</ele>
        <time>2024-04-27T09:17:21Z</time>
      </trkpt>
      <trkpt lat="45.85103" lon="6.44698">
        <ele>2341.7</ele>
        <time>2024-04-27T09:17:22Z</time>
      </trkpt>
      <trkpt lat="45.85103" lon="6.44698">
        <ele>2341.7</ele>
        <time>2024-04-27T09:17:23Z</time>
      </trkpt>
      <trkpt lat="45.85103" lon="6.44698">
        <ele>2341.7</ele>
        <time>2024-04-27T09:17:24Z</time>
      </trkpt>
      <trkpt lat="45.85103" lon="6.44698">
        <ele>2341.7</ele>
        <time>2024-04-27T09:17:25Z</time>
      </trkpt>
      <trkpt lat="45.85102" lon="6.44698">
        <ele>2341.7</ele>
        <time>2024-04-27T09:17:26Z</time>
      </trkpt>
      <trkpt lat="45.85102" lon="6.44698">
        <ele>2341.7</ele>
        <time>2024-04-27T09:17:27Z</time>
      </trkpt>
      <trkpt lat="45.85102" lon="6.44698">
        <ele>2341.7</ele>
        <time>2024-04-27T09:17:28Z</time>
      </trkpt>
      <trkpt lat="45.85102" lon="6.44698">
        <ele>2341.7</ele>
        <time>2024-04-27T09:17:29Z</time>
      </trkpt>
      <trkpt lat="45.85102" lon="6.44698">
        <ele>2341.7</ele>
        <time>2024-04-27T09:17:30Z</time>
      </trkpt>
      <trkpt lat="45.85102" lon="6.44698">
        <ele>2341.7</ele>
        <time>2024-04-27T09:17:31Z</time>
      </trkpt>
      <trkpt lat="45.85102" lon="6.44698">
        <ele>2341.7</ele>
        <time>2024-04-27T09:17:32Z</time>
      </trkpt>
      <trkpt lat="45.85102" lon="6.44698">
        <ele>2341.7</ele>
        <time>2024-04-27T09:17:33Z</time>
      </trkpt>
      <trkpt lat="45.85102" lon="6.44698">
        <ele>2341.7</ele>
        <time>2024-04-27T09:17:34Z</time>
      </trkpt>
      <trkpt lat="45.85102" lon="6.44698">
        <ele>2341.7</ele>
        <time>2024-04-27T09:17:35Z</time>
      </trkpt>
      <trkpt lat="45.85102" lon="6.44698">
        <ele>2341.7</ele>
        <time>2024-04-27T09:17:36Z</time>
      </trkpt>
      <trkpt lat="45.85102" lon="6.44698">
        <ele>2341.7</ele>
        <time>2024-04-27T09:17:37Z</time>
      </trkpt>
      <trkpt lat="45.85102" lon="6.44698">
        <ele>2341.7</ele>
        <time>2024-04-27T09:17:38Z</time>
      </trkpt>
      <trkpt lat="45.85102" lon="6.44698">
        <ele>2341.7</ele>
        <time>2024-04-27T09:17:39Z</time>
      </trkpt>
      <trkpt lat="45.85102" lon="6.44698">
        <ele>2341.7</ele>
        <time>2024-04-27T09:17:40Z</time>
      </trkpt>
      <trkpt lat="45.85102" lon="6.44697">
        <ele>2342.7</ele>
        <time>2024-04-27T09:17:41Z</time>
      </trkpt>
      <trkpt lat="45.85102" lon="6.44697">
        <ele>2342.7</ele>
        <time>2024-04-27T09:17:42Z</time>
      </trkpt>
      <trkpt lat="45.85102" lon="6.44697">
        <ele>2342.7</ele>
        <time>2024-04-27T09:17:43Z</time>
      </trkpt>
      <trkpt lat="45.85102" lon="6.44697">
        <ele>2342.7</ele>
        <time>2024-04-27T09:17:44Z</time>
      </trkpt>
      <trkpt lat="45.85102" lon="6.44697">
        <ele>2342.7</ele>
        <time>2024-04-27T09:17:45Z</time>
      </trkpt>
      <trkpt lat="45.85102" lon="6.44697">
        <ele>2342.7</ele>
        <time>2024-04-27T09:17:46Z</time>
      </trkpt>
      <trkpt lat="45.85102" lon="6.44697">
        <ele>2342.7</ele>
        <time>2024-04-27T09:17:47Z</time>
      </trkpt>
      <trkpt lat="45.85102" lon="6.44697">
        <ele>2342.7</ele>
        <time>2024-04-27T09:17:48Z</time>
      </trkpt>
      <trkpt lat="45.85102" lon="6.44696">
        <ele>2342.7</ele>
        <time>2024-04-27T09:17:49Z</time>
      </trkpt>
      <trkpt lat="45.85102" lon="6.44696">
        <ele>2342.7</ele>
        <time>2024-04-27T09:17:50Z</time>
      </trkpt>
      <trkpt lat="45.85102" lon="6.44696">
        <ele>2342.7</ele>
        <time>2024-04-27T09:17:51Z</time>
      </trkpt>
      <trkpt lat="45.85102" lon="6.44696">
        <ele>2342.7</ele>
        <time>2024-04-27T09:17:52Z</time>
      </trkpt>
      <trkpt lat="45.85102" lon="6.44696">
        <ele>2342.7</ele>
        <time>2024-04-27T09:17:53Z</time>
      </trkpt>
      <trkpt lat="45.85102" lon="6.44696">
        <ele>2342.7</ele>
        <time>2024-04-27T09:17:54Z</time>
      </trkpt>
      <trkpt lat="45.85102" lon="6.44696">
        <ele>2342.7</ele>
        <time>2024-04-27T09:17:55Z</time>
      </trkpt>
      <trkpt lat="45.85102" lon="6.44696">
        <ele>2342.7</ele>
        <time>2024-04-27T09:17:56Z</time>
      </trkpt>
      <trkpt lat="45.85101" lon="6.44696">
        <ele>2343.6</ele>
        <time>2024-04-27T09:17:57Z</time>
      </trkpt>
      <trkpt lat="45.85101" lon="6.44696">
        <ele>2343.6</ele>
        <time>2024-04-27T09:17:58Z</time>
      </trkpt>
      <trkpt lat="45.85101" lon="6.44696">
        <ele>2343.6</ele>
        <time>2024-04-27T09:17:59Z</time>
      </trkpt>
      <trkpt lat="45.85101" lon="6.44696">
        <ele>2343.6</ele>
        <time>2024-04-27T09:18:00Z</time>
      </trkpt>
      <trkpt lat="45.85101" lon="6.44696">
        <ele>2343.6</ele>
        <time>2024-04-27T09:18:01Z</time>
      </trkpt>
      <trkpt lat="45.85101" lon="6.44696">
        <ele>2343.6</ele>
        <time>2024-04-27T09:18:02Z</time>
      </trkpt>
      <trkpt lat="45.85101" lon="6.44696">
        <ele>2343.6</ele>
        <time>2024-04-27T09:18:03Z</time>
      </trkpt>
      <trkpt lat="45.85101" lon="6.44696">
        <ele>2343.6</ele>
        <time>2024-04-27T09:18:04Z</time>
      </trkpt>
      <trkpt lat="45.85101" lon="6.44696">
        <ele>2343.6</ele>
        <time>2024-04-27T09:18:05Z</time>
      </trkpt>
      <trkpt lat="45.85101" lon="6.44696">
        <ele>2343.6</ele>
        <time>2024-04-27T09:18:06Z</time>
      </trkpt>
      <trkpt lat="45.85101" lon="6.44696">
        <ele>2343.6</ele>
        <time>2024-04-27T09:18:07Z</time>
      </trkpt>
      <trkpt lat="45.85101" lon="6.44696">
        <ele>2343.6</ele>
        <time>2024-04-27T09:18:08Z</time>
      </trkpt>
      <trkpt lat="45.85101" lon="6.44696">
        <ele>2343.6</ele>
        <time>2024-04-27T09:18:09Z</time>
      </trkpt>
      <trkpt lat="45.85101" lon="6.44696">
        <ele>2343.6</ele>
        <time>2024-04-27T09:18:10Z</time>
      </trkpt>
      <trkpt lat="45.85101" lon="6.44696">
        <ele>2344.7</ele>
        <time>2024-04-27T09:18:11Z</time>
      </trkpt>
      <trkpt lat="45.85101" lon="6.44696">
        <ele>2344.7</ele>
        <time>2024-04-27T09:18:12Z</time>
      </trkpt>
      <trkpt lat="45.85101" lon="6.44696">
        <ele>2344.7</ele>
        <time>2024-04-27T09:18:13Z</time>
      </trkpt>
      <trkpt lat="45.85101" lon="6.44696">
        <ele>2344.7</ele>
        <time>2024-04-27T09:18:14Z</time>
      </trkpt>
      <trkpt lat="45.85101" lon="6.44696">
        <ele>2344.7</ele>
        <time>2024-04-27T09:18:15Z</time>
      </trkpt>
      <trkpt lat="45.85101" lon="6.44696">
        <ele>2344.7</ele>
        <time>2024-04-27T09:18:16Z</time>
      </trkpt>
      <trkpt lat="45.85101" lon="6.44696">
        <ele>2344.7</ele>
        <time>2024-04-27T09:18:17Z</time>
      </trkpt>
      <trkpt lat="45.85101" lon="6.44696">
        <ele>2344.7</ele>
        <time>2024-04-27T09:18:18Z</time>
      </trkpt>
      <trkpt lat="45.85101" lon="6.44696">
        <ele>2344.7</ele>
        <time>2024-04-27T09:18:19Z</time>
      </trkpt>
      <trkpt lat="45.85101" lon="6.44696">
        <ele>2344.7</ele>
        <time>2024-04-27T09:18:20Z</time>
      </trkpt>
      <trkpt lat="45.85101" lon="6.44696">
        <ele>2344.7</ele>
        <time>2024-04-27T09:18:21Z</time>
      </trkpt>
      <trkpt lat="45.85101" lon="6.44696">
        <ele>2344.7</ele>
        <time>2024-04-27T09:18:22Z</time>
      </trkpt>
      <trkpt lat="45.85101" lon="6.44696">
        <ele>2344.7</ele>
        <time>2024-04-27T09:18:23Z</time>
      </trkpt>
      <trkpt lat="45.85101" lon="6.44696">
        <ele>2344.7</ele>
        <time>2024-04-27T09:18:24Z</time>
      </trkpt>
      <trkpt lat="45.85101" lon="6.44696">
        <ele>2344.7</ele>
        <time>2024-04-27T09:18:25Z</time>
      </trkpt>
      <trkpt lat="45.85101" lon="6.44696">
        <ele>2344.7</ele>
        <time>2024-04-27T09:18:26Z</time>
      </trkpt>
      <trkpt lat="45.85101" lon="6.44696">
        <ele>2344.7</ele>
        <time>2024-04-27T09:18:27Z</time>
      </trkpt>
      <trkpt lat="45.85101" lon="6.44696">
        <ele>2344.7</ele>
        <time>2024-04-27T09:18:28Z</time>
      </trkpt>
      <trkpt lat="45.85101" lon="6.44696">
        <ele>2344.7</ele>
        <time>2024-04-27T09:18:29Z</time>
      </trkpt>
      <trkpt lat="45.851" lon="6.44697">
        <ele>2344.7</ele>
        <time>2024-04-27T09:18:30Z</time>
      </trkpt>
      <trkpt lat="45.85099" lon="6.44696">
        <ele>2344.7</ele>
        <time>2024-04-27T09:18:31Z</time>
      </trkpt>
      <trkpt lat="45.85098" lon="6.44696">
        <ele>2344.7</ele>
        <time>2024-04-27T09:18:32Z</time>
      </trkpt>
      <trkpt lat="45.85098" lon="6.44695">
        <ele>2345.6</ele>
        <time>2024-04-27T09:18:33Z</time>
      </trkpt>
      <trkpt lat="45.85098" lon="6.44695">
        <ele>2345.6</ele>
        <time>2024-04-27T09:18:34Z</time>
      </trkpt>
      <trkpt lat="45.85098" lon="6.44694">
        <ele>2345.6</ele>
        <time>2024-04-27T09:18:35Z</time>
      </trkpt>
      <trkpt lat="45.85097" lon="6.44694">
        <ele>2345.6</ele>
        <time>2024-04-27T09:18:36Z</time>
      </trkpt>
      <trkpt lat="45.85097" lon="6.44694">
        <ele>2345.6</ele>
        <time>2024-04-27T09:18:37Z</time>
      </trkpt>
      <trkpt lat="45.85097" lon="6.44694">
        <ele>2345.6</ele>
        <time>2024-04-27T09:18:38Z</time>
      </trkpt>
      <trkpt lat="45.85097" lon="6.44694">
        <ele>2345.6</ele>
        <time>2024-04-27T09:18:39Z</time>
      </trkpt>
      <trkpt lat="45.85097" lon="6.44694">
        <ele>2345.6</ele>
        <time>2024-04-27T09:18:40Z</time>
      </trkpt>
      <trkpt lat="45.85097" lon="6.44694">
        <ele>2345.6</ele>
        <time>2024-04-27T09:18:41Z</time>
      </trkpt>
      <trkpt lat="45.85097" lon="6.44694">
        <ele>2345.6</ele>
        <time>2024-04-27T09:18:42Z</time>
      </trkpt>
      <trkpt lat="45.85097" lon="6.44694">
        <ele>2345.6</ele>
        <time>2024-04-27T09:18:43Z</time>
      </trkpt>
      <trkpt lat="45.85097" lon="6.44694">
        <ele>2345.6</ele>
        <time>2024-04-27T09:18:44Z</time>
      </trkpt>
      <trkpt lat="45.85097" lon="6.44694">
        <ele>2345.6</ele>
        <time>2024-04-27T09:18:45Z</time>
      </trkpt>
      <trkpt lat="45.85097" lon="6.44694">
        <ele>2345.6</ele>
        <time>2024-04-27T09:18:46Z</time>
      </trkpt>
      <trkpt lat="45.85097" lon="6.44694">
        <ele>2345.6</ele>
        <time>2024-04-27T09:18:47Z</time>
      </trkpt>
      <trkpt lat="45.85097" lon="6.44694">
        <ele>2345.6</ele>
        <time>2024-04-27T09:18:48Z</time>
      </trkpt>
      <trkpt lat="45.85097" lon="6.44694">
        <ele>2344.7</ele>
        <time>2024-04-27T09:18:49Z</time>
      </trkpt>
      <trkpt lat="45.85097" lon="6.44694">
        <ele>2344.7</ele>
        <time>2024-04-27T09:18:50Z</time>
      </trkpt>
      <trkpt lat="45.85097" lon="6.44694">
        <ele>2344.7</ele>
        <time>2024-04-27T09:18:51Z</time>
      </trkpt>
      <trkpt lat="45.85097" lon="6.44694">
        <ele>2344.7</ele>
        <time>2024-04-27T09:18:52Z</time>
      </trkpt>
      <trkpt lat="45.85097" lon="6.44694">
        <ele>2344.7</ele>
        <time>2024-04-27T09:18:53Z</time>
      </trkpt>
      <trkpt lat="45.85097" lon="6.44695">
        <ele>2344.7</ele>
        <time>2024-04-27T09:18:54Z</time>
      </trkpt>
      <trkpt lat="45.85097" lon="6.44695">
        <ele>2344.7</ele>
        <time>2024-04-27T09:18:55Z</time>
      </trkpt>
      <trkpt lat="45.85097" lon="6.44695">
        <ele>2344.7</ele>
        <time>2024-04-27T09:18:56Z</time>
      </trkpt>
      <trkpt lat="45.85097" lon="6.44695">
        <ele>2345.6</ele>
        <time>2024-04-27T09:18:57Z</time>
      </trkpt>
      <trkpt lat="45.85097" lon="6.44695">
        <ele>2345.6</ele>
        <time>2024-04-27T09:18:58Z</time>
      </trkpt>
      <trkpt lat="45.85098" lon="6.44695">
        <ele>2345.6</ele>
        <time>2024-04-27T09:18:59Z</time>
      </trkpt>
      <trkpt lat="45.85098" lon="6.44695">
        <ele>2345.6</ele>
        <time>2024-04-27T09:19:00Z</time>
      </trkpt>
      <trkpt lat="45.85098" lon="6.44695">
        <ele>2345.6</ele>
        <time>2024-04-27T09:19:01Z</time>
      </trkpt>
      <trkpt lat="45.85098" lon="6.44695">
        <ele>2345.6</ele>
        <time>2024-04-27T09:19:02Z</time>
      </trkpt>
      <trkpt lat="45.85098" lon="6.44695">
        <ele>2345.6</ele>
        <time>2024-04-27T09:19:03Z</time>
      </trkpt>
      <trkpt lat="45.85098" lon="6.44695">
        <ele>2345.6</ele>
        <time>2024-04-27T09:19:04Z</time>
      </trkpt>
      <trkpt lat="45.85098" lon="6.44695">
        <ele>2345.6</ele>
        <time>2024-04-27T09:19:05Z</time>
      </trkpt>
      <trkpt lat="45.85098" lon="6.44695">
        <ele>2345.6</ele>
        <time>2024-04-27T09:19:06Z</time>
      </trkpt>
      <trkpt lat="45.85098" lon="6.44695">
        <ele>2344.7</ele>
        <time>2024-04-27T09:19:07Z</time>
      </trkpt>
      <trkpt lat="45.85099" lon="6.44695">
        <ele>2344.7</ele>
        <time>2024-04-27T09:19:08Z</time>
      </trkpt>
      <trkpt lat="45.85099" lon="6.44695">
        <ele>2344.7</ele>
        <time>2024-04-27T09:19:09Z</time>
      </trkpt>
      <trkpt lat="45.85099" lon="6.44695">
        <ele>2344.7</ele>
        <time>2024-04-27T09:19:10Z</time>
      </trkpt>
      <trkpt lat="45.85099" lon="6.44695">
        <ele>2343.6</ele>
        <time>2024-04-27T09:19:11Z</time>
      </trkpt>
      <trkpt lat="45.85099" lon="6.44695">
        <ele>2343.6</ele>
        <time>2024-04-27T09:19:12Z</time>
      </trkpt>
      <trkpt lat="45.85099" lon="6.44696">
        <ele>2343.6</ele>
        <time>2024-04-27T09:19:13Z</time>
      </trkpt>
      <trkpt lat="45.85099" lon="6.44696">
        <ele>2343.6</ele>
        <time>2024-04-27T09:19:14Z</time>
      </trkpt>
      <trkpt lat="45.85099" lon="6.44696">
        <ele>2343.6</ele>
        <time>2024-04-27T09:19:15Z</time>
      </trkpt>
      <trkpt lat="45.85099" lon="6.44696">
        <ele>2343.6</ele>
        <time>2024-04-27T09:19:16Z</time>
      </trkpt>
      <trkpt lat="45.85099" lon="6.44696">
        <ele>2343.6</ele>
        <time>2024-04-27T09:19:17Z</time>
      </trkpt>
      <trkpt lat="45.85098" lon="6.44696">
        <ele>2343.6</ele>
        <time>2024-04-27T09:19:18Z</time>
      </trkpt>
      <trkpt lat="45.85098" lon="6.44696">
        <ele>2343.6</ele>
        <time>2024-04-27T09:19:19Z</time>
      </trkpt>
      <trkpt lat="45.85098" lon="6.44696">
        <ele>2343.6</ele>
        <time>2024-04-27T09:19:20Z</time>
      </trkpt>
      <trkpt lat="45.85098" lon="6.44696">
        <ele>2343.6</ele>
        <time>2024-04-27T09:19:21Z</time>
      </trkpt>
      <trkpt lat="45.85098" lon="6.44696">
        <ele>2343.6</ele>
        <time>2024-04-27T09:19:22Z</time>
      </trkpt>
      <trkpt lat="45.85098" lon="6.44696">
        <ele>2343.6</ele>
        <time>2024-04-27T09:19:23Z</time>
      </trkpt>
      <trkpt lat="45.85098" lon="6.44696">
        <ele>2343.6</ele>
        <time>2024-04-27T09:19:24Z</time>
      </trkpt>
      <trkpt lat="45.85098" lon="6.44695">
        <ele>2343.6</ele>
        <time>2024-04-27T09:19:25Z</time>
      </trkpt>
      <trkpt lat="45.85098" lon="6.44695">
        <ele>2343.6</ele>
        <time>2024-04-27T09:19:26Z</time>
      </trkpt>
      <trkpt lat="45.85098" lon="6.44695">
        <ele>2343.6</ele>
        <time>2024-04-27T09:19:27Z</time>
      </trkpt>
      <trkpt lat="45.85098" lon="6.44695">
        <ele>2343.6</ele>
        <time>2024-04-27T09:19:28Z</time>
      </trkpt>
      <trkpt lat="45.85098" lon="6.44695">
        <ele>2343.6</ele>
        <time>2024-04-27T09:19:29Z</time>
      </trkpt>
      <trkpt lat="45.85098" lon="6.44694">
        <ele>2343.6</ele>
        <time>2024-04-27T09:19:30Z</time>
      </trkpt>
      <trkpt lat="45.85098" lon="6.44694">
        <ele>2343.6</ele>
        <time>2024-04-27T09:19:31Z</time>
      </trkpt>
      <trkpt lat="45.85098" lon="6.44694">
        <ele>2343.6</ele>
        <time>2024-04-27T09:19:32Z</time>
      </trkpt>
      <trkpt lat="45.85097" lon="6.44694">
        <ele>2342.7</ele>
        <time>2024-04-27T09:19:33Z</time>
      </trkpt>
      <trkpt lat="45.85097" lon="6.44694">
        <ele>2342.7</ele>
        <time>2024-04-27T09:19:34Z</time>
      </trkpt>
      <trkpt lat="45.85097" lon="6.44694">
        <ele>2342.7</ele>
        <time>2024-04-27T09:19:35Z</time>
      </trkpt>
      <trkpt lat="45.85097" lon="6.44694">
        <ele>2342.7</ele>
        <time>2024-04-27T09:19:36Z</time>
      </trkpt>
      <trkpt lat="45.85097" lon="6.44695">
        <ele>2342.7</ele>
        <time>2024-04-27T09:19:37Z</time>
      </trkpt>
      <trkpt lat="45.85097" lon="6.44695">
        <ele>2342.7</ele>
        <time>2024-04-27T09:19:38Z</time>
      </trkpt>
      <trkpt lat="45.85097" lon="6.44695">
        <ele>2342.7</ele>
        <time>2024-04-27T09:19:39Z</time>
      </trkpt>
      <trkpt lat="45.85097" lon="6.44695">
        <ele>2342.7</ele>
        <time>2024-04-27T09:19:40Z</time>
      </trkpt>
      <trkpt lat="45.85097" lon="6.44695">
        <ele>2342.7</ele>
        <time>2024-04-27T09:19:41Z</time>
      </trkpt>
      <trkpt lat="45.85097" lon="6.44695">
        <ele>2342.7</ele>
        <time>2024-04-27T09:19:42Z</time>
      </trkpt>
      <trkpt lat="45.85097" lon="6.44695">
        <ele>2342.7</ele>
        <time>2024-04-27T09:19:43Z</time>
      </trkpt>
      <trkpt lat="45.85097" lon="6.44695">
        <ele>2342.7</ele>
        <time>2024-04-27T09:19:44Z</time>
      </trkpt>
      <trkpt lat="45.85097" lon="6.44695">
        <ele>2343.6</ele>
        <time>2024-04-27T09:19:45Z</time>
      </trkpt>
      <trkpt lat="45.85097" lon="6.44695">
        <ele>2343.6</ele>
        <time>2024-04-27T09:19:46Z</time>
      </trkpt>
      <trkpt lat="45.85097" lon="6.44695">
        <ele>2343.6</ele>
        <time>2024-04-27T09:19:47Z</time>
      </trkpt>
      <trkpt lat="45.85097" lon="6.44695">
        <ele>2343.6</ele>
        <time>2024-04-27T09:19:48Z</time>
      </trkpt>
      <trkpt lat="45.85097" lon="6.44695">
        <ele>2343.6</ele>
        <time>2024-04-27T09:19:49Z</time>
      </trkpt>
      <trkpt lat="45.85097" lon="6.44695">
        <ele>2343.6</ele>
        <time>2024-04-27T09:19:50Z</time>
      </trkpt>
      <trkpt lat="45.85097" lon="6.44695">
        <ele>2343.6</ele>
        <time>2024-04-27T09:19:51Z</time>
      </trkpt>
      <trkpt lat="45.85097" lon="6.44695">
        <ele>2343.6</ele>
        <time>2024-04-27T09:19:52Z</time>
      </trkpt>
      <trkpt lat="45.85097" lon="6.44695">
        <ele>2343.6</ele>
        <time>2024-04-27T09:19:53Z</time>
      </trkpt>
      <trkpt lat="45.85097" lon="6.44695">
        <ele>2343.6</ele>
        <time>2024-04-27T09:19:54Z</time>
      </trkpt>
      <trkpt lat="45.85097" lon="6.44695">
        <ele>2343.6</ele>
        <time>2024-04-27T09:19:55Z</time>
      </trkpt>
      <trkpt lat="45.85097" lon="6.44695">
        <ele>2343.6</ele>
        <time>2024-04-27T09:19:56Z</time>
      </trkpt>
      <trkpt lat="45.85097" lon="6.44695">
        <ele>2343.6</ele>
        <time>2024-04-27T09:19:57Z</time>
      </trkpt>
      <trkpt lat="45.85097" lon="6.44695">
        <ele>2343.6</ele>
        <time>2024-04-27T09:19:58Z</time>
      </trkpt>
      <trkpt lat="45.85097" lon="6.44695">
        <ele>2343.6</ele>
        <time>2024-04-27T09:19:59Z</time>
      </trkpt>
      <trkpt lat="45.85097" lon="6.44695">
        <ele>2343.6</ele>
        <time>2024-04-27T09:20:00Z</time>
      </trkpt>
      <trkpt lat="45.85097" lon="6.44695">
        <ele>2344.7</ele>
        <time>2024-04-27T09:20:01Z</time>
      </trkpt>
      <trkpt lat="45.85097" lon="6.44695">
        <ele>2344.7</ele>
        <time>2024-04-27T09:20:02Z</time>
      </trkpt>
      <trkpt lat="45.85097" lon="6.44695">
        <ele>2344.7</ele>
        <time>2024-04-27T09:20:03Z</time>
      </trkpt>
      <trkpt lat="45.85097" lon="6.44695">
        <ele>2344.7</ele>
        <time>2024-04-27T09:20:04Z</time>
      </trkpt>
      <trkpt lat="45.85097" lon="6.44694">
        <ele>2345.6</ele>
        <time>2024-04-27T09:20:05Z</time>
      </trkpt>
      <trkpt lat="45.85098" lon="6.44694">
        <ele>2345.6</ele>
        <time>2024-04-27T09:20:06Z</time>
      </trkpt>
      <trkpt lat="45.85098" lon="6.44693">
        <ele>2345.6</ele>
        <time>2024-04-27T09:20:07Z</time>
      </trkpt>
      <trkpt lat="45.85098" lon="6.44693">
        <ele>2345.6</ele>
        <time>2024-04-27T09:20:08Z</time>
      </trkpt>
      <trkpt lat="45.85098" lon="6.44692">
        <ele>2345.6</ele>
        <time>2024-04-27T09:20:09Z</time>
      </trkpt>
      <trkpt lat="45.85098" lon="6.44692">
        <ele>2345.6</ele>
        <time>2024-04-27T09:20:10Z</time>
      </trkpt>
      <trkpt lat="45.85098" lon="6.44692">
        <ele>2346.7</ele>
        <time>2024-04-27T09:20:11Z</time>
      </trkpt>
      <trkpt lat="45.85098" lon="6.44692">
        <ele>2346.7</ele>
        <time>2024-04-27T09:20:12Z</time>
      </trkpt>
      <trkpt lat="45.85099" lon="6.44692">
        <ele>2346.7</ele>
        <time>2024-04-27T09:20:13Z</time>
      </trkpt>
      <trkpt lat="45.85099" lon="6.44692">
        <ele>2346.7</ele>
        <time>2024-04-27T09:20:14Z</time>
      </trkpt>
      <trkpt lat="45.85099" lon="6.44692">
        <ele>2346.7</ele>
        <time>2024-04-27T09:20:15Z</time>
      </trkpt>
      <trkpt lat="45.85099" lon="6.44692">
        <ele>2346.7</ele>
        <time>2024-04-27T09:20:16Z</time>
      </trkpt>
      <trkpt lat="45.85099" lon="6.44692">
        <ele>2346.7</ele>
        <time>2024-04-27T09:20:17Z</time>
      </trkpt>
      <trkpt lat="45.85099" lon="6.44692">
        <ele>2346.7</ele>
        <time>2024-04-27T09:20:18Z</time>
      </trkpt>
      <trkpt lat="45.85099" lon="6.44692">
        <ele>2346.7</ele>
        <time>2024-04-27T09:20:19Z</time>
      </trkpt>
      <trkpt lat="45.85099" lon="6.44692">
        <ele>2346.7</ele>
        <time>2024-04-27T09:20:20Z</time>
      </trkpt>
      <trkpt lat="45.85099" lon="6.44692">
        <ele>2346.7</ele>
        <time>2024-04-27T09:20:21Z</time>
      </trkpt>
      <trkpt lat="45.85099" lon="6.44692">
        <ele>2346.7</ele>
        <time>2024-04-27T09:20:22Z</time>
      </trkpt>
      <trkpt lat="45.85099" lon="6.44692">
        <ele>2346.7</ele>
        <time>2024-04-27T09:20:23Z</time>
      </trkpt>
      <trkpt lat="45.85099" lon="6.44692">
        <ele>2346.7</ele>
        <time>2024-04-27T09:20:24Z</time>
      </trkpt>
      <trkpt lat="45.85099" lon="6.44692">
        <ele>2346.7</ele>
        <time>2024-04-27T09:20:25Z</time>
      </trkpt>
      <trkpt lat="45.85099" lon="6.44692">
        <ele>2346.7</ele>
        <time>2024-04-27T09:20:26Z</time>
      </trkpt>
      <trkpt lat="45.85099" lon="6.44692">
        <ele>2346.7</ele>
        <time>2024-04-27T09:20:27Z</time>
      </trkpt>
      <trkpt lat="45.85099" lon="6.44693">
        <ele>2346.7</ele>
        <time>2024-04-27T09:20:28Z</time>
      </trkpt>
      <trkpt lat="45.85099" lon="6.44693">
        <ele>2346.7</ele>
        <time>2024-04-27T09:20:29Z</time>
      </trkpt>
      <trkpt lat="45.85099" lon="6.44693">
        <ele>2346.7</ele>
        <time>2024-04-27T09:20:30Z</time>
      </trkpt>
      <trkpt lat="45.85099" lon="6.44693">
        <ele>2346.7</ele>
        <time>2024-04-27T09:20:31Z</time>
      </trkpt>
      <trkpt lat="45.85099" lon="6.44693">
        <ele>2346.7</ele>
        <time>2024-04-27T09:20:32Z</time>
      </trkpt>
      <trkpt lat="45.85099" lon="6.44693">
        <ele>2346.7</ele>
        <time>2024-04-27T09:20:33Z</time>
      </trkpt>
      <trkpt lat="45.85099" lon="6.44693">
        <ele>2346.7</ele>
        <time>2024-04-27T09:20:34Z</time>
      </trkpt>
      <trkpt lat="45.85099" lon="6.44693">
        <ele>2346.7</ele>
        <time>2024-04-27T09:20:35Z</time>
      </trkpt>
      <trkpt lat="45.85099" lon="6.44693">
        <ele>2346.7</ele>
        <time>2024-04-27T09:20:36Z</time>
      </trkpt>
      <trkpt lat="45.85099" lon="6.44693">
        <ele>2346.7</ele>
        <time>2024-04-27T09:20:37Z</time>
      </trkpt>
      <trkpt lat="45.85099" lon="6.44693">
        <ele>2346.7</ele>
        <time>2024-04-27T09:20:38Z</time>
      </trkpt>
      <trkpt lat="45.85099" lon="6.44693">
        <ele>2346.7</ele>
        <time>2024-04-27T09:20:39Z</time>
      </trkpt>
      <trkpt lat="45.85099" lon="6.44693">
        <ele>2346.7</ele>
        <time>2024-04-27T09:20:40Z</time>
      </trkpt>
      <trkpt lat="45.85099" lon="6.44693">
        <ele>2346.7</ele>
        <time>2024-04-27T09:20:41Z</time>
      </trkpt>
      <trkpt lat="45.85099" lon="6.44693">
        <ele>2346.7</ele>
        <time>2024-04-27T09:20:42Z</time>
      </trkpt>
      <trkpt lat="45.85099" lon="6.44694">
        <ele>2346.7</ele>
        <time>2024-04-27T09:20:43Z</time>
      </trkpt>
      <trkpt lat="45.85099" lon="6.44694">
        <ele>2346.7</ele>
        <time>2024-04-27T09:20:44Z</time>
      </trkpt>
      <trkpt lat="45.85099" lon="6.44694">
        <ele>2346.7</ele>
        <time>2024-04-27T09:20:45Z</time>
      </trkpt>
      <trkpt lat="45.85099" lon="6.44694">
        <ele>2346.7</ele>
        <time>2024-04-27T09:20:46Z</time>
      </trkpt>
      <trkpt lat="45.85099" lon="6.44694">
        <ele>2346.7</ele>
        <time>2024-04-27T09:20:47Z</time>
      </trkpt>
      <trkpt lat="45.85099" lon="6.44694">
        <ele>2346.7</ele>
        <time>2024-04-27T09:20:48Z</time>
      </trkpt>
      <trkpt lat="45.85099" lon="6.44694">
        <ele>2346.7</ele>
        <time>2024-04-27T09:20:49Z</time>
      </trkpt>
      <trkpt lat="45.85099" lon="6.44694">
        <ele>2346.7</ele>
        <time>2024-04-27T09:20:50Z</time>
      </trkpt>
      <trkpt lat="45.85099" lon="6.44694">
        <ele>2346.7</ele>
        <time>2024-04-27T09:20:51Z</time>
      </trkpt>
      <trkpt lat="45.85099" lon="6.44694">
        <ele>2346.7</ele>
        <time>2024-04-27T09:20:52Z</time>
      </trkpt>
      <trkpt lat="45.85099" lon="6.44694">
        <ele>2346.7</ele>
        <time>2024-04-27T09:20:53Z</time>
      </trkpt>
      <trkpt lat="45.85099" lon="6.44694">
        <ele>2346.7</ele>
        <time>2024-04-27T09:20:54Z</time>
      </trkpt>
      <trkpt lat="45.85099" lon="6.44694">
        <ele>2346.7</ele>
        <time>2024-04-27T09:20:55Z</time>
      </trkpt>
      <trkpt lat="45.85099" lon="6.44694">
        <ele>2346.7</ele>
        <time>2024-04-27T09:20:56Z</time>
      </trkpt>
      <trkpt lat="45.85099" lon="6.44694">
        <ele>2346.7</ele>
        <time>2024-04-27T09:20:57Z</time>
      </trkpt>
      <trkpt lat="45.85099" lon="6.44694">
        <ele>2346.7</ele>
        <time>2024-04-27T09:20:58Z</time>
      </trkpt>
      <trkpt lat="45.85099" lon="6.44694">
        <ele>2346.7</ele>
        <time>2024-04-27T09:20:59Z</time>
      </trkpt>
      <trkpt lat="45.85099" lon="6.44694">
        <ele>2346.7</ele>
        <time>2024-04-27T09:21:00Z</time>
      </trkpt>
      <trkpt lat="45.85099" lon="6.44694">
        <ele>2346.7</ele>
        <time>2024-04-27T09:21:01Z</time>
      </trkpt>
      <trkpt lat="45.85099" lon="6.44694">
        <ele>2346.7</ele>
        <time>2024-04-27T09:21:02Z</time>
      </trkpt>
      <trkpt lat="45.85099" lon="6.44694">
        <ele>2346.7</ele>
        <time>2024-04-27T09:21:03Z</time>
      </trkpt>
      <trkpt lat="45.85099" lon="6.44694">
        <ele>2346.7</ele>
        <time>2024-04-27T09:21:04Z</time>
      </trkpt>
      <trkpt lat="45.85099" lon="6.44694">
        <ele>2346.7</ele>
        <time>2024-04-27T09:21:05Z</time>
      </trkpt>
      <trkpt lat="45.85099" lon="6.44694">
        <ele>2346.7</ele>
        <time>2024-04-27T09:21:06Z</time>
      </trkpt>
      <trkpt lat="45.85099" lon="6.44694">
        <ele>2346.7</ele>
        <time>2024-04-27T09:21:07Z</time>
      </trkpt>
      <trkpt lat="45.85099" lon="6.44694">
        <ele>2346.7</ele>
        <time>2024-04-27T09:21:08Z</time>
      </trkpt>
      <trkpt lat="45.85099" lon="6.44694">
        <ele>2345.6</ele>
        <time>2024-04-27T09:21:09Z</time>
      </trkpt>
      <trkpt lat="45.85098" lon="6.44694">
        <ele>2345.6</ele>
        <time>2024-04-27T09:21:10Z</time>
      </trkpt>
      <trkpt lat="45.85098" lon="6.44694">
        <ele>2345.6</ele>
        <time>2024-04-27T09:21:11Z</time>
      </trkpt>
      <trkpt lat="45.85098" lon="6.44694">
        <ele>2345.6</ele>
        <time>2024-04-27T09:21:12Z</time>
      </trkpt>
      <trkpt lat="45.85098" lon="6.44694">
        <ele>2345.6</ele>
        <time>2024-04-27T09:21:13Z</time>
      </trkpt>
      <trkpt lat="45.85098" lon="6.44694">
        <ele>2345.6</ele>
        <time>2024-04-27T09:21:14Z</time>
      </trkpt>
      <trkpt lat="45.85098" lon="6.44694">
        <ele>2344.7</ele>
        <time>2024-04-27T09:21:15Z</time>
      </trkpt>
      <trkpt lat="45.85098" lon="6.44694">
        <ele>2344.7</ele>
        <time>2024-04-27T09:21:16Z</time>
      </trkpt>
      <trkpt lat="45.85098" lon="6.44694">
        <ele>2344.7</ele>
        <time>2024-04-27T09:21:17Z</time>
      </trkpt>
      <trkpt lat="45.85098" lon="6.44694">
        <ele>2344.7</ele>
        <time>2024-04-27T09:21:18Z</time>
      </trkpt>
      <trkpt lat="45.85098" lon="6.44695">
        <ele>2344.7</ele>
        <time>2024-04-27T09:21:19Z</time>
      </trkpt>
      <trkpt lat="45.85098" lon="6.44695">
        <ele>2344.7</ele>
        <time>2024-04-27T09:21:20Z</time>
      </trkpt>
      <trkpt lat="45.85098" lon="6.44695">
        <ele>2343.6</ele>
        <time>2024-04-27T09:21:21Z</time>
      </trkpt>
      <trkpt lat="45.85098" lon="6.44695">
        <ele>2343.6</ele>
        <time>2024-04-27T09:21:22Z</time>
      </trkpt>
      <trkpt lat="45.85098" lon="6.44695">
        <ele>2343.6</ele>
        <time>2024-04-27T09:21:23Z</time>
      </trkpt>
      <trkpt lat="45.85098" lon="6.44695">
        <ele>2343.6</ele>
        <time>2024-04-27T09:21:24Z</time>
      </trkpt>
      <trkpt lat="45.85098" lon="6.44695">
        <ele>2343.6</ele>
        <time>2024-04-27T09:21:25Z</time>
      </trkpt>
      <trkpt lat="45.85098" lon="6.44695">
        <ele>2343.6</ele>
        <time>2024-04-27T09:21:26Z</time>
      </trkpt>
      <trkpt lat="45.85098" lon="6.44695">
        <ele>2343.6</ele>
        <time>2024-04-27T09:21:27Z</time>
      </trkpt>
      <trkpt lat="45.85098" lon="6.44695">
        <ele>2343.6</ele>
        <time>2024-04-27T09:21:28Z</time>
      </trkpt>
      <trkpt lat="45.85097" lon="6.44695">
        <ele>2343.6</ele>
        <time>2024-04-27T09:21:29Z</time>
      </trkpt>
      <trkpt lat="45.85097" lon="6.44695">
        <ele>2343.6</ele>
        <time>2024-04-27T09:21:30Z</time>
      </trkpt>
      <trkpt lat="45.85097" lon="6.44695">
        <ele>2343.6</ele>
        <time>2024-04-27T09:21:31Z</time>
      </trkpt>
      <trkpt lat="45.85097" lon="6.44695">
        <ele>2343.6</ele>
        <time>2024-04-27T09:21:32Z</time>
      </trkpt>
      <trkpt lat="45.85097" lon="6.44695">
        <ele>2343.6</ele>
        <time>2024-04-27T09:21:33Z</time>
      </trkpt>
      <trkpt lat="45.85097" lon="6.44695">
        <ele>2343.6</ele>
        <time>2024-04-27T09:21:34Z</time>
      </trkpt>
      <trkpt lat="45.85097" lon="6.44695">
        <ele>2343.6</ele>
        <time>2024-04-27T09:21:35Z</time>
      </trkpt>
      <trkpt lat="45.85097" lon="6.44695">
        <ele>2343.6</ele>
        <time>2024-04-27T09:21:36Z</time>
      </trkpt>
      <trkpt lat="45.85097" lon="6.44696">
        <ele>2343.6</ele>
        <time>2024-04-27T09:21:37Z</time>
      </trkpt>
      <trkpt lat="45.85097" lon="6.44696">
        <ele>2343.6</ele>
        <time>2024-04-27T09:21:38Z</time>
      </trkpt>
      <trkpt lat="45.85097" lon="6.44697">
        <ele>2343.6</ele>
        <time>2024-04-27T09:21:39Z</time>
      </trkpt>
      <trkpt lat="45.85097" lon="6.44697">
        <ele>2343.6</ele>
        <time>2024-04-27T09:21:40Z</time>
      </trkpt>
      <trkpt lat="45.85096" lon="6.44698">
        <ele>2343.6</ele>
        <time>2024-04-27T09:21:41Z</time>
      </trkpt>
      <trkpt lat="45.85096" lon="6.44698">
        <ele>2343.6</ele>
        <time>2024-04-27T09:21:42Z</time>
      </trkpt>
      <trkpt lat="45.85096" lon="6.44698">
        <ele>2343.6</ele>
        <time>2024-04-27T09:21:43Z</time>
      </trkpt>
      <trkpt lat="45.85096" lon="6.44698">
        <ele>2343.6</ele>
        <time>2024-04-27T09:21:44Z</time>
      </trkpt>
      <trkpt lat="45.85096" lon="6.44699">
        <ele>2343.6</ele>
        <time>2024-04-27T09:21:45Z</time>
      </trkpt>
      <trkpt lat="45.85096" lon="6.44699">
        <ele>2343.6</ele>
        <time>2024-04-27T09:21:46Z</time>
      </trkpt>
      <trkpt lat="45.85096" lon="6.44699">
        <ele>2343.6</ele>
        <time>2024-04-27T09:21:47Z</time>
      </trkpt>
      <trkpt lat="45.85096" lon="6.44699">
        <ele>2343.6</ele>
        <time>2024-04-27T09:21:48Z</time>
      </trkpt>
      <trkpt lat="45.85096" lon="6.44699">
        <ele>2343.6</ele>
        <time>2024-04-27T09:21:49Z</time>
      </trkpt>
      <trkpt lat="45.85096" lon="6.44699">
        <ele>2343.6</ele>
        <time>2024-04-27T09:21:50Z</time>
      </trkpt>
      <trkpt lat="45.85096" lon="6.44699">
        <ele>2343.6</ele>
        <time>2024-04-27T09:21:51Z</time>
      </trkpt>
      <trkpt lat="45.85096" lon="6.44699">
        <ele>2343.6</ele>
        <time>2024-04-27T09:21:52Z</time>
      </trkpt>
      <trkpt lat="45.85096" lon="6.44699">
        <ele>2343.6</ele>
        <time>2024-04-27T09:21:53Z</time>
      </trkpt>
      <trkpt lat="45.85096" lon="6.44699">
        <ele>2343.6</ele>
        <time>2024-04-27T09:21:54Z</time>
      </trkpt>
      <trkpt lat="45.85096" lon="6.44699">
        <ele>2344.7</ele>
        <time>2024-04-27T09:21:55Z</time>
      </trkpt>
      <trkpt lat="45.85096" lon="6.44699">
        <ele>2344.7</ele>
        <time>2024-04-27T09:21:56Z</time>
      </trkpt>
      <trkpt lat="45.85096" lon="6.44699">
        <ele>2344.7</ele>
        <time>2024-04-27T09:21:57Z</time>
      </trkpt>
      <trkpt lat="45.85096" lon="6.44699">
        <ele>2344.7</ele>
        <time>2024-04-27T09:21:58Z</time>
      </trkpt>
      <trkpt lat="45.85096" lon="6.44699">
        <ele>2344.7</ele>
        <time>2024-04-27T09:21:59Z</time>
      </trkpt>
      <trkpt lat="45.85096" lon="6.44699">
        <ele>2344.7</ele>
        <time>2024-04-27T09:22:00Z</time>
      </trkpt>
      <trkpt lat="45.85096" lon="6.44699">
        <ele>2345.6</ele>
        <time>2024-04-27T09:22:01Z</time>
      </trkpt>
      <trkpt lat="45.85096" lon="6.44699">
        <ele>2345.6</ele>
        <time>2024-04-27T09:22:02Z</time>
      </trkpt>
      <trkpt lat="45.85096" lon="6.44699">
        <ele>2345.6</ele>
        <time>2024-04-27T09:22:03Z</time>
      </trkpt>
      <trkpt lat="45.85096" lon="6.44699">
        <ele>2345.6</ele>
        <time>2024-04-27T09:22:04Z</time>
      </trkpt>
      <trkpt lat="45.85096" lon="6.44698">
        <ele>2345.6</ele>
        <time>2024-04-27T09:22:05Z</time>
      </trkpt>
      <trkpt lat="45.85096" lon="6.44698">
        <ele>2345.6</ele>
        <time>2024-04-27T09:22:06Z</time>
      </trkpt>
      <trkpt lat="45.85096" lon="6.44698">
        <ele>2345.6</ele>
        <time>2024-04-27T09:22:07Z</time>
      </trkpt>
      <trkpt lat="45.85096" lon="6.44698">
        <ele>2345.6</ele>
        <time>2024-04-27T09:22:08Z</time>
      </trkpt>
      <trkpt lat="45.85096" lon="6.44698">
        <ele>2345.6</ele>
        <time>2024-04-27T09:22:09Z</time>
      </trkpt>
      <trkpt lat="45.85096" lon="6.44698">
        <ele>2345.6</ele>
        <time>2024-04-27T09:22:10Z</time>
      </trkpt>
      <trkpt lat="45.85096" lon="6.44698">
        <ele>2345.6</ele>
        <time>2024-04-27T09:22:11Z</time>
      </trkpt>
      <trkpt lat="45.85096" lon="6.44698">
        <ele>2345.6</ele>
        <time>2024-04-27T09:22:12Z</time>
      </trkpt>
      <trkpt lat="45.85095" lon="6.44698">
        <ele>2345.6</ele>
        <time>2024-04-27T09:22:13Z</time>
      </trkpt>
      <trkpt lat="45.85095" lon="6.44698">
        <ele>2345.6</ele>
        <time>2024-04-27T09:22:14Z</time>
      </trkpt>
      <trkpt lat="45.85095" lon="6.44697">
        <ele>2345.6</ele>
        <time>2024-04-27T09:22:15Z</time>
      </trkpt>
      <trkpt lat="45.85095" lon="6.44697">
        <ele>2345.6</ele>
        <time>2024-04-27T09:22:16Z</time>
      </trkpt>
      <trkpt lat="45.85095" lon="6.44697">
        <ele>2345.6</ele>
        <time>2024-04-27T09:22:17Z</time>
      </trkpt>
      <trkpt lat="45.85095" lon="6.44697">
        <ele>2345.6</ele>
        <time>2024-04-27T09:22:18Z</time>
      </trkpt>
      <trkpt lat="45.85095" lon="6.44697">
        <ele>2345.6</ele>
        <time>2024-04-27T09:22:19Z</time>
      </trkpt>
      <trkpt lat="45.85095" lon="6.44697">
        <ele>2345.6</ele>
        <time>2024-04-27T09:22:20Z</time>
      </trkpt>
      <trkpt lat="45.85095" lon="6.44697">
        <ele>2345.6</ele>
        <time>2024-04-27T09:22:21Z</time>
      </trkpt>
      <trkpt lat="45.85095" lon="6.44697">
        <ele>2345.6</ele>
        <time>2024-04-27T09:22:22Z</time>
      </trkpt>
      <trkpt lat="45.85095" lon="6.44697">
        <ele>2345.6</ele>
        <time>2024-04-27T09:22:23Z</time>
      </trkpt>
      <trkpt lat="45.85095" lon="6.44697">
        <ele>2345.6</ele>
        <time>2024-04-27T09:22:24Z</time>
      </trkpt>
      <trkpt lat="45.85095" lon="6.44697">
        <ele>2345.6</ele>
        <time>2024-04-27T09:22:25Z</time>
      </trkpt>
      <trkpt lat="45.85095" lon="6.44697">
        <ele>2345.6</ele>
        <time>2024-04-27T09:22:26Z</time>
      </trkpt>
      <trkpt lat="45.85095" lon="6.44697">
        <ele>2345.6</ele>
        <time>2024-04-27T09:22:27Z</time>
      </trkpt>
      <trkpt lat="45.85096" lon="6.44696">
        <ele>2345.6</ele>
        <time>2024-04-27T09:22:28Z</time>
      </trkpt>
      <trkpt lat="45.85096" lon="6.44696">
        <ele>2345.6</ele>
        <time>2024-04-27T09:22:29Z</time>
      </trkpt>
      <trkpt lat="45.85096" lon="6.44696">
        <ele>2345.6</ele>
        <time>2024-04-27T09:22:30Z</time>
      </trkpt>
      <trkpt lat="45.85096" lon="6.44696">
        <ele>2345.6</ele>
        <time>2024-04-27T09:22:31Z</time>
      </trkpt>
      <trkpt lat="45.85096" lon="6.44696">
        <ele>2345.6</ele>
        <time>2024-04-27T09:22:32Z</time>
      </trkpt>
      <trkpt lat="45.85096" lon="6.44695">
        <ele>2345.6</ele>
        <time>2024-04-27T09:22:33Z</time>
      </trkpt>
      <trkpt lat="45.85097" lon="6.44695">
        <ele>2345.6</ele>
        <time>2024-04-27T09:22:34Z</time>
      </trkpt>
      <trkpt lat="45.85097" lon="6.44695">
        <ele>2345.6</ele>
        <time>2024-04-27T09:22:35Z</time>
      </trkpt>
      <trkpt lat="45.85097" lon="6.44695">
        <ele>2345.6</ele>
        <time>2024-04-27T09:22:36Z</time>
      </trkpt>
      <trkpt lat="45.85097" lon="6.44695">
        <ele>2345.6</ele>
        <time>2024-04-27T09:22:37Z</time>
      </trkpt>
      <trkpt lat="45.85097" lon="6.44695">
        <ele>2345.6</ele>
        <time>2024-04-27T09:22:38Z</time>
      </trkpt>
      <trkpt lat="45.85097" lon="6.44694">
        <ele>2345.6</ele>
        <time>2024-04-27T09:22:39Z</time>
      </trkpt>
      <trkpt lat="45.85097" lon="6.44694">
        <ele>2345.6</ele>
        <time>2024-04-27T09:22:40Z</time>
      </trkpt>
      <trkpt lat="45.85097" lon="6.44694">
        <ele>2345.6</ele>
        <time>2024-04-27T09:22:41Z</time>
      </trkpt>
      <trkpt lat="45.85097" lon="6.44694">
        <ele>2345.6</ele>
        <time>2024-04-27T09:22:42Z</time>
      </trkpt>
      <trkpt lat="45.85097" lon="6.44694">
        <ele>2345.6</ele>
        <time>2024-04-27T09:22:43Z</time>
      </trkpt>
      <trkpt lat="45.85097" lon="6.44694">
        <ele>2345.6</ele>
        <time>2024-04-27T09:22:44Z</time>
      </trkpt>
      <trkpt lat="45.85097" lon="6.44694">
        <ele>2345.6</ele>
        <time>2024-04-27T09:22:45Z</time>
      </trkpt>
      <trkpt lat="45.85097" lon="6.44694">
        <ele>2345.6</ele>
        <time>2024-04-27T09:22:46Z</time>
      </trkpt>
      <trkpt lat="45.85097" lon="6.44694">
        <ele>2345.6</ele>
        <time>2024-04-27T09:22:47Z</time>
      </trkpt>
      <trkpt lat="45.85097" lon="6.44694">
        <ele>2345.6</ele>
        <time>2024-04-27T09:22:48Z</time>
      </trkpt>
      <trkpt lat="45.85097" lon="6.44694">
        <ele>2347.6</ele>
        <time>2024-04-27T09:22:49Z</time>
      </trkpt>
      <trkpt lat="45.85097" lon="6.44694">
        <ele>2347.6</ele>
        <time>2024-04-27T09:22:50Z</time>
      </trkpt>
      <trkpt lat="45.85097" lon="6.44694">
        <ele>2348.7</ele>
        <time>2024-04-27T09:22:51Z</time>
      </trkpt>
      <trkpt lat="45.85097" lon="6.44694">
        <ele>2348.7</ele>
        <time>2024-04-27T09:22:52Z</time>
      </trkpt>
      <trkpt lat="45.85097" lon="6.44694">
        <ele>2348.7</ele>
        <time>2024-04-27T09:22:53Z</time>
      </trkpt>
      <trkpt lat="45.85097" lon="6.44694">
        <ele>2348.7</ele>
        <time>2024-04-27T09:22:54Z</time>
      </trkpt>
      <trkpt lat="45.85097" lon="6.44694">
        <ele>2348.7</ele>
        <time>2024-04-27T09:22:55Z</time>
      </trkpt>
      <trkpt lat="45.85097" lon="6.44694">
        <ele>2348.7</ele>
        <time>2024-04-27T09:22:56Z</time>
      </trkpt>
      <trkpt lat="45.85097" lon="6.44694">
        <ele>2348.7</ele>
        <time>2024-04-27T09:22:57Z</time>
      </trkpt>
      <trkpt lat="45.85097" lon="6.44694">
        <ele>2348.7</ele>
        <time>2024-04-27T09:22:58Z</time>
      </trkpt>
      <trkpt lat="45.85097" lon="6.44694">
        <ele>2348.7</ele>
        <time>2024-04-27T09:22:59Z</time>
      </trkpt>
      <trkpt lat="45.85097" lon="6.44694">
        <ele>2348.7</ele>
        <time>2024-04-27T09:23:00Z</time>
      </trkpt>
      <trkpt lat="45.85097" lon="6.44694">
        <ele>2349.6</ele>
        <time>2024-04-27T09:23:01Z</time>
      </trkpt>
      <trkpt lat="45.85097" lon="6.44694">
        <ele>2349.6</ele>
        <time>2024-04-27T09:23:02Z</time>
      </trkpt>
      <trkpt lat="45.85097" lon="6.44694">
        <ele>2349.6</ele>
        <time>2024-04-27T09:23:03Z</time>
      </trkpt>
      <trkpt lat="45.85096" lon="6.44694">
        <ele>2349.6</ele>
        <time>2024-04-27T09:23:04Z</time>
      </trkpt>
      <trkpt lat="45.85095" lon="6.44696">
        <ele>2349.6</ele>
        <time>2024-04-27T09:23:05Z</time>
      </trkpt>
      <trkpt lat="45.85093" lon="6.44697">
        <ele>2349.6</ele>
        <time>2024-04-27T09:23:06Z</time>
      </trkpt>
      <trkpt lat="45.85092" lon="6.44698">
        <ele>2350.6</ele>
        <time>2024-04-27T09:23:07Z</time>
      </trkpt>
      <trkpt lat="45.85092" lon="6.44698">
        <ele>2350.6</ele>
        <time>2024-04-27T09:23:08Z</time>
      </trkpt>
      <trkpt lat="45.85091" lon="6.44699">
        <ele>2350.6</ele>
        <time>2024-04-27T09:23:09Z</time>
      </trkpt>
      <trkpt lat="45.85091" lon="6.44699">
        <ele>2350.6</ele>
        <time>2024-04-27T09:23:10Z</time>
      </trkpt>
      <trkpt lat="45.8509" lon="6.44699">
        <ele>2350.6</ele>
        <time>2024-04-27T09:23:11Z</time>
      </trkpt>
      <trkpt lat="45.8509" lon="6.44699">
        <ele>2350.6</ele>
        <time>2024-04-27T09:23:12Z</time>
      </trkpt>
      <trkpt lat="45.85089" lon="6.44699">
        <ele>2351.7</ele>
        <time>2024-04-27T09:23:13Z</time>
      </trkpt>
      <trkpt lat="45.85089" lon="6.447">
        <ele>2351.7</ele>
        <time>2024-04-27T09:23:14Z</time>
      </trkpt>
      <trkpt lat="45.85089" lon="6.447">
        <ele>2351.7</ele>
        <time>2024-04-27T09:23:15Z</time>
      </trkpt>
      <trkpt lat="45.85089" lon="6.447">
        <ele>2351.7</ele>
        <time>2024-04-27T09:23:16Z</time>
      </trkpt>
      <trkpt lat="45.85089" lon="6.44699">
        <ele>2351.7</ele>
        <time>2024-04-27T09:23:17Z</time>
      </trkpt>
      <trkpt lat="45.85089" lon="6.44699">
        <ele>2351.7</ele>
        <time>2024-04-27T09:23:18Z</time>
      </trkpt>
      <trkpt lat="45.85089" lon="6.44699">
        <ele>2351.7</ele>
        <time>2024-04-27T09:23:19Z</time>
      </trkpt>
      <trkpt lat="45.85089" lon="6.44699">
        <ele>2351.7</ele>
        <time>2024-04-27T09:23:20Z</time>
      </trkpt>
      <trkpt lat="45.85089" lon="6.44699">
        <ele>2351.7</ele>
        <time>2024-04-27T09:23:21Z</time>
      </trkpt>
      <trkpt lat="45.85089" lon="6.44699">
        <ele>2351.7</ele>
        <time>2024-04-27T09:23:22Z</time>
      </trkpt>
      <trkpt lat="45.85089" lon="6.44699">
        <ele>2351.7</ele>
        <time>2024-04-27T09:23:23Z</time>
      </trkpt>
      <trkpt lat="45.85089" lon="6.44699">
        <ele>2351.7</ele>
        <time>2024-04-27T09:23:24Z</time>
      </trkpt>
      <trkpt lat="45.85089" lon="6.44699">
        <ele>2351.7</ele>
        <time>2024-04-27T09:23:25Z</time>
      </trkpt>
      <trkpt lat="45.85089" lon="6.44699">
        <ele>2351.7</ele>
        <time>2024-04-27T09:23:26Z</time>
      </trkpt>
      <trkpt lat="45.85089" lon="6.44699">
        <ele>2351.7</ele>
        <time>2024-04-27T09:23:27Z</time>
      </trkpt>
      <trkpt lat="45.85089" lon="6.447">
        <ele>2351.7</ele>
        <time>2024-04-27T09:23:28Z</time>
      </trkpt>
      <trkpt lat="45.85089" lon="6.447">
        <ele>2352.6</ele>
        <time>2024-04-27T09:23:29Z</time>
      </trkpt>
      <trkpt lat="45.85089" lon="6.447">
        <ele>2352.6</ele>
        <time>2024-04-27T09:23:30Z</time>
      </trkpt>
      <trkpt lat="45.85089" lon="6.447">
        <ele>2352.6</ele>
        <time>2024-04-27T09:23:31Z</time>
      </trkpt>
      <trkpt lat="45.85089" lon="6.447">
        <ele>2352.6</ele>
        <time>2024-04-27T09:23:32Z</time>
      </trkpt>
      <trkpt lat="45.85089" lon="6.447">
        <ele>2352.6</ele>
        <time>2024-04-27T09:23:33Z</time>
      </trkpt>
      <trkpt lat="45.85089" lon="6.447">
        <ele>2352.6</ele>
        <time>2024-04-27T09:23:34Z</time>
      </trkpt>
      <trkpt lat="45.85088" lon="6.447">
        <ele>2353.7</ele>
        <time>2024-04-27T09:23:35Z</time>
      </trkpt>
      <trkpt lat="45.85088" lon="6.447">
        <ele>2353.7</ele>
        <time>2024-04-27T09:23:36Z</time>
      </trkpt>
      <trkpt lat="45.85087" lon="6.447">
        <ele>2353.7</ele>
        <time>2024-04-27T09:23:37Z</time>
      </trkpt>
      <trkpt lat="45.85087" lon="6.447">
        <ele>2353.7</ele>
        <time>2024-04-27T09:23:38Z</time>
      </trkpt>
      <trkpt lat="45.85086" lon="6.447">
        <ele>2354.6</ele>
        <time>2024-04-27T09:23:39Z</time>
      </trkpt>
      <trkpt lat="45.85086" lon="6.447">
        <ele>2354.6</ele>
        <time>2024-04-27T09:23:40Z</time>
      </trkpt>
      <trkpt lat="45.85086" lon="6.447">
        <ele>2354.6</ele>
        <time>2024-04-27T09:23:41Z</time>
      </trkpt>
      <trkpt lat="45.85086" lon="6.447">
        <ele>2354.6</ele>
        <time>2024-04-27T09:23:42Z</time>
      </trkpt>
      <trkpt lat="45.85086" lon="6.447">
        <ele>2354.6</ele>
        <time>2024-04-27T09:23:43Z</time>
      </trkpt>
      <trkpt lat="45.85085" lon="6.447">
        <ele>2354.6</ele>
        <time>2024-04-27T09:23:44Z</time>
      </trkpt>
      <trkpt lat="45.85085" lon="6.447">
        <ele>2355.7</ele>
        <time>2024-04-27T09:23:45Z</time>
      </trkpt>
      <trkpt lat="45.85085" lon="6.447">
        <ele>2355.7</ele>
        <time>2024-04-27T09:23:46Z</time>
      </trkpt>
      <trkpt lat="45.85085" lon="6.447">
        <ele>2355.7</ele>
        <time>2024-04-27T09:23:47Z</time>
      </trkpt>
      <trkpt lat="45.85085" lon="6.447">
        <ele>2355.7</ele>
        <time>2024-04-27T09:23:48Z</time>
      </trkpt>
      <trkpt lat="45.85085" lon="6.447">
        <ele>2356.6</ele>
        <time>2024-04-27T09:23:49Z</time>
      </trkpt>
      <trkpt lat="45.85085" lon="6.447">
        <ele>2356.6</ele>
        <time>2024-04-27T09:23:50Z</time>
      </trkpt>
      <trkpt lat="45.85085" lon="6.447">
        <ele>2356.6</ele>
        <time>2024-04-27T09:23:51Z</time>
      </trkpt>
      <trkpt lat="45.85085" lon="6.447">
        <ele>2356.6</ele>
        <time>2024-04-27T09:23:52Z</time>
      </trkpt>
      <trkpt lat="45.85085" lon="6.447">
        <ele>2357.7</ele>
        <time>2024-04-27T09:23:53Z</time>
      </trkpt>
      <trkpt lat="45.85084" lon="6.447">
        <ele>2357.7</ele>
        <time>2024-04-27T09:23:54Z</time>
      </trkpt>
      <trkpt lat="45.85084" lon="6.447">
        <ele>2357.7</ele>
        <time>2024-04-27T09:23:55Z</time>
      </trkpt>
      <trkpt lat="45.85084" lon="6.447">
        <ele>2357.7</ele>
        <time>2024-04-27T09:23:56Z</time>
      </trkpt>
      <trkpt lat="45.85083" lon="6.447">
        <ele>2357.7</ele>
        <time>2024-04-27T09:23:57Z</time>
      </trkpt>
      <trkpt lat="45.85083" lon="6.447">
        <ele>2357.7</ele>
        <time>2024-04-27T09:23:58Z</time>
      </trkpt>
      <trkpt lat="45.85083" lon="6.447">
        <ele>2358.7</ele>
        <time>2024-04-27T09:23:59Z</time>
      </trkpt>
      <trkpt lat="45.85083" lon="6.447">
        <ele>2358.7</ele>
        <time>2024-04-27T09:24:00Z</time>
      </trkpt>
      <trkpt lat="45.85083" lon="6.447">
        <ele>2358.7</ele>
        <time>2024-04-27T09:24:01Z</time>
      </trkpt>
      <trkpt lat="45.85083" lon="6.447">
        <ele>2358.7</ele>
        <time>2024-04-27T09:24:02Z</time>
      </trkpt>
      <trkpt lat="45.85083" lon="6.447">
        <ele>2359.6</ele>
        <time>2024-04-27T09:24:03Z</time>
      </trkpt>
      <trkpt lat="45.85082" lon="6.447">
        <ele>2359.6</ele>
        <time>2024-04-27T09:24:04Z</time>
      </trkpt>
      <trkpt lat="45.85082" lon="6.447">
        <ele>2359.6</ele>
        <time>2024-04-27T09:24:05Z</time>
      </trkpt>
      <trkpt lat="45.85082" lon="6.447">
        <ele>2359.6</ele>
        <time>2024-04-27T09:24:06Z</time>
      </trkpt>
      <trkpt lat="45.85082" lon="6.447">
        <ele>2359.6</ele>
        <time>2024-04-27T09:24:07Z</time>
      </trkpt>
      <trkpt lat="45.85082" lon="6.447">
        <ele>2359.6</ele>
        <time>2024-04-27T09:24:08Z</time>
      </trkpt>
      <trkpt lat="45.85082" lon="6.447">
        <ele>2359.6</ele>
        <time>2024-04-27T09:24:09Z</time>
      </trkpt>
      <trkpt lat="45.85082" lon="6.447">
        <ele>2359.6</ele>
        <time>2024-04-27T09:24:10Z</time>
      </trkpt>
      <trkpt lat="45.85082" lon="6.447">
        <ele>2359.6</ele>
        <time>2024-04-27T09:24:11Z</time>
      </trkpt>
      <trkpt lat="45.85082" lon="6.447">
        <ele>2359.6</ele>
        <time>2024-04-27T09:24:12Z</time>
      </trkpt>
      <trkpt lat="45.85082" lon="6.447">
        <ele>2359.6</ele>
        <time>2024-04-27T09:24:13Z</time>
      </trkpt>
      <trkpt lat="45.85082" lon="6.447">
        <ele>2359.6</ele>
        <time>2024-04-27T09:24:14Z</time>
      </trkpt>
      <trkpt lat="45.85082" lon="6.447">
        <ele>2359.6</ele>
        <time>2024-04-27T09:24:15Z</time>
      </trkpt>
      <trkpt lat="45.85082" lon="6.447">
        <ele>2359.6</ele>
        <time>2024-04-27T09:24:16Z</time>
      </trkpt>
      <trkpt lat="45.85082" lon="6.447">
        <ele>2359.6</ele>
        <time>2024-04-27T09:24:17Z</time>
      </trkpt>
      <trkpt lat="45.85082" lon="6.447">
        <ele>2359.6</ele>
        <time>2024-04-27T09:24:18Z</time>
      </trkpt>
      <trkpt lat="45.85082" lon="6.447">
        <ele>2360.7</ele>
        <time>2024-04-27T09:24:19Z</time>
      </trkpt>
      <trkpt lat="45.85082" lon="6.447">
        <ele>2360.7</ele>
        <time>2024-04-27T09:24:20Z</time>
      </trkpt>
      <trkpt lat="45.85082" lon="6.447">
        <ele>2360.7</ele>
        <time>2024-04-27T09:24:21Z</time>
      </trkpt>
      <trkpt lat="45.85082" lon="6.447">
        <ele>2360.7</ele>
        <time>2024-04-27T09:24:22Z</time>
      </trkpt>
      <trkpt lat="45.85082" lon="6.447">
        <ele>2360.7</ele>
        <time>2024-04-27T09:24:23Z</time>
      </trkpt>
      <trkpt lat="45.85082" lon="6.447">
        <ele>2360.7</ele>
        <time>2024-04-27T09:24:24Z</time>
      </trkpt>
      <trkpt lat="45.85082" lon="6.447">
        <ele>2360.7</ele>
        <time>2024-04-27T09:24:25Z</time>
      </trkpt>
      <trkpt lat="45.85081" lon="6.447">
        <ele>2360.7</ele>
        <time>2024-04-27T09:24:26Z</time>
      </trkpt>
      <trkpt lat="45.85081" lon="6.447">
        <ele>2361.6</ele>
        <time>2024-04-27T09:24:27Z</time>
      </trkpt>
      <trkpt lat="45.85081" lon="6.447">
        <ele>2361.6</ele>
        <time>2024-04-27T09:24:28Z</time>
      </trkpt>
      <trkpt lat="45.85081" lon="6.447">
        <ele>2361.6</ele>
        <time>2024-04-27T09:24:29Z</time>
      </trkpt>
      <trkpt lat="45.85081" lon="6.447">
        <ele>2361.6</ele>
        <time>2024-04-27T09:24:30Z</time>
      </trkpt>
      <trkpt lat="45.85081" lon="6.44699">
        <ele>2361.6</ele>
        <time>2024-04-27T09:24:31Z</time>
      </trkpt>
      <trkpt lat="45.85081" lon="6.44699">
        <ele>2361.6</ele>
        <time>2024-04-27T09:24:32Z</time>
      </trkpt>
      <trkpt lat="45.85081" lon="6.44699">
        <ele>2361.6</ele>
        <time>2024-04-27T09:24:33Z</time>
      </trkpt>
      <trkpt lat="45.85081" lon="6.44699">
        <ele>2361.6</ele>
        <time>2024-04-27T09:24:34Z</time>
      </trkpt>
      <trkpt lat="45.85081" lon="6.44699">
        <ele>2361.6</ele>
        <time>2024-04-27T09:24:35Z</time>
      </trkpt>
      <trkpt lat="45.85081" lon="6.44699">
        <ele>2361.6</ele>
        <time>2024-04-27T09:24:36Z</time>
      </trkpt>
      <trkpt lat="45.85081" lon="6.44699">
        <ele>2362.7</ele>
        <time>2024-04-27T09:24:37Z</time>
      </trkpt>
      <trkpt lat="45.85081" lon="6.44699">
        <ele>2362.7</ele>
        <time>2024-04-27T09:24:38Z</time>
      </trkpt>
      <trkpt lat="45.85081" lon="6.44699">
        <ele>2362.7</ele>
        <time>2024-04-27T09:24:39Z</time>
      </trkpt>
      <trkpt lat="45.85081" lon="6.44699">
        <ele>2362.7</ele>
        <time>2024-04-27T09:24:40Z</time>
      </trkpt>
      <trkpt lat="45.85081" lon="6.44699">
        <ele>2362.7</ele>
        <time>2024-04-27T09:24:41Z</time>
      </trkpt>
      <trkpt lat="45.85081" lon="6.44699">
        <ele>2362.7</ele>
        <time>2024-04-27T09:24:42Z</time>
      </trkpt>
      <trkpt lat="45.85081" lon="6.44699">
        <ele>2362.7</ele>
        <time>2024-04-27T09:24:43Z</time>
      </trkpt>
      <trkpt lat="45.85081" lon="6.44699">
        <ele>2362.7</ele>
        <time>2024-04-27T09:24:44Z</time>
      </trkpt>
      <trkpt lat="45.85081" lon="6.44699">
        <ele>2363.6</ele>
        <time>2024-04-27T09:24:45Z</time>
      </trkpt>
      <trkpt lat="45.85082" lon="6.44699">
        <ele>2363.6</ele>
        <time>2024-04-27T09:24:46Z</time>
      </trkpt>
      <trkpt lat="45.85082" lon="6.44699">
        <ele>2363.6</ele>
        <time>2024-04-27T09:24:47Z</time>
      </trkpt>
      <trkpt lat="45.85082" lon="6.44699">
        <ele>2363.6</ele>
        <time>2024-04-27T09:24:48Z</time>
      </trkpt>
      <trkpt lat="45.85082" lon="6.44699">
        <ele>2363.6</ele>
        <time>2024-04-27T09:24:49Z</time>
      </trkpt>
      <trkpt lat="45.85082" lon="6.44699">
        <ele>2363.6</ele>
        <time>2024-04-27T09:24:50Z</time>
      </trkpt>
      <trkpt lat="45.85082" lon="6.44699">
        <ele>2363.6</ele>
        <time>2024-04-27T09:24:51Z</time>
      </trkpt>
      <trkpt lat="45.85082" lon="6.44699">
        <ele>2363.6</ele>
        <time>2024-04-27T09:24:52Z</time>
      </trkpt>
      <trkpt lat="45.85082" lon="6.44699">
        <ele>2364.7</ele>
        <time>2024-04-27T09:24:53Z</time>
      </trkpt>
      <trkpt lat="45.85082" lon="6.44699">
        <ele>2364.7</ele>
        <time>2024-04-27T09:24:54Z</time>
      </trkpt>
      <trkpt lat="45.85082" lon="6.44699">
        <ele>2364.7</ele>
        <time>2024-04-27T09:24:55Z</time>
      </trkpt>
      <trkpt lat="45.85082" lon="6.44699">
        <ele>2364.7</ele>
        <time>2024-04-27T09:24:56Z</time>
      </trkpt>
      <trkpt lat="45.85082" lon="6.44699">
        <ele>2364.7</ele>
        <time>2024-04-27T09:24:57Z</time>
      </trkpt>
      <trkpt lat="45.85082" lon="6.44699">
        <ele>2364.7</ele>
        <time>2024-04-27T09:24:58Z</time>
      </trkpt>
      <trkpt lat="45.85082" lon="6.44699">
        <ele>2365.6</ele>
        <time>2024-04-27T09:24:59Z</time>
      </trkpt>
      <trkpt lat="45.85082" lon="6.44699">
        <ele>2365.6</ele>
        <time>2024-04-27T09:25:00Z</time>
      </trkpt>
      <trkpt lat="45.85082" lon="6.44699">
        <ele>2365.6</ele>
        <time>2024-04-27T09:25:01Z</time>
      </trkpt>
      <trkpt lat="45.85082" lon="6.44699">
        <ele>2365.6</ele>
        <time>2024-04-27T09:25:02Z</time>
      </trkpt>
      <trkpt lat="45.85082" lon="6.44699">
        <ele>2366.6</ele>
        <time>2024-04-27T09:25:03Z</time>
      </trkpt>
      <trkpt lat="45.85082" lon="6.44699">
        <ele>2366.6</ele>
        <time>2024-04-27T09:25:04Z</time>
      </trkpt>
      <trkpt lat="45.85081" lon="6.44699">
        <ele>2366.6</ele>
        <time>2024-04-27T09:25:05Z</time>
      </trkpt>
      <trkpt lat="45.85081" lon="6.44699">
        <ele>2366.6</ele>
        <time>2024-04-27T09:25:06Z</time>
      </trkpt>
      <trkpt lat="45.85081" lon="6.44699">
        <ele>2366.6</ele>
        <time>2024-04-27T09:25:07Z</time>
      </trkpt>
      <trkpt lat="45.85081" lon="6.44699">
        <ele>2366.6</ele>
        <time>2024-04-27T09:25:08Z</time>
      </trkpt>
      <trkpt lat="45.8508" lon="6.44699">
        <ele>2366.6</ele>
        <time>2024-04-27T09:25:09Z</time>
      </trkpt>
      <trkpt lat="45.8508" lon="6.44699">
        <ele>2366.6</ele>
        <time>2024-04-27T09:25:10Z</time>
      </trkpt>
      <trkpt lat="45.85079" lon="6.44699">
        <ele>2366.6</ele>
        <time>2024-04-27T09:25:11Z</time>
      </trkpt>
      <trkpt lat="45.85079" lon="6.44699">
        <ele>2366.6</ele>
        <time>2024-04-27T09:25:12Z</time>
      </trkpt>
      <trkpt lat="45.85079" lon="6.44699">
        <ele>2366.6</ele>
        <time>2024-04-27T09:25:13Z</time>
      </trkpt>
      <trkpt lat="45.85079" lon="6.44699">
        <ele>2366.6</ele>
        <time>2024-04-27T09:25:14Z</time>
      </trkpt>
      <trkpt lat="45.85079" lon="6.44698">
        <ele>2366.6</ele>
        <time>2024-04-27T09:25:15Z</time>
      </trkpt>
      <trkpt lat="45.85079" lon="6.44698">
        <ele>2366.6</ele>
        <time>2024-04-27T09:25:16Z</time>
      </trkpt>
      <trkpt lat="45.85079" lon="6.44698">
        <ele>2366.6</ele>
        <time>2024-04-27T09:25:17Z</time>
      </trkpt>
      <trkpt lat="45.85079" lon="6.44698">
        <ele>2366.6</ele>
        <time>2024-04-27T09:25:18Z</time>
      </trkpt>
      <trkpt lat="45.85079" lon="6.44698">
        <ele>2366.6</ele>
        <time>2024-04-27T09:25:19Z</time>
      </trkpt>
      <trkpt lat="45.85079" lon="6.44698">
        <ele>2366.6</ele>
        <time>2024-04-27T09:25:20Z</time>
      </trkpt>
      <trkpt lat="45.85079" lon="6.44698">
        <ele>2366.6</ele>
        <time>2024-04-27T09:25:21Z</time>
      </trkpt>
      <trkpt lat="45.85079" lon="6.44698">
        <ele>2366.6</ele>
        <time>2024-04-27T09:25:22Z</time>
      </trkpt>
      <trkpt lat="45.85079" lon="6.44698">
        <ele>2367.7</ele>
        <time>2024-04-27T09:25:23Z</time>
      </trkpt>
      <trkpt lat="45.85079" lon="6.44698">
        <ele>2367.7</ele>
        <time>2024-04-27T09:25:24Z</time>
      </trkpt>
      <trkpt lat="45.85079" lon="6.44698">
        <ele>2367.7</ele>
        <time>2024-04-27T09:25:25Z</time>
      </trkpt>
      <trkpt lat="45.85079" lon="6.44698">
        <ele>2367.7</ele>
        <time>2024-04-27T09:25:26Z</time>
      </trkpt>
      <trkpt lat="45.85079" lon="6.44698">
        <ele>2367.7</ele>
        <time>2024-04-27T09:25:27Z</time>
      </trkpt>
      <trkpt lat="45.85079" lon="6.44698">
        <ele>2367.7</ele>
        <time>2024-04-27T09:25:28Z</time>
      </trkpt>
      <trkpt lat="45.8508" lon="6.44698">
        <ele>2367.7</ele>
        <time>2024-04-27T09:25:29Z</time>
      </trkpt>
      <trkpt lat="45.8508" lon="6.44698">
        <ele>2367.7</ele>
        <time>2024-04-27T09:25:30Z</time>
      </trkpt>
      <trkpt lat="45.8508" lon="6.44698">
        <ele>2367.7</ele>
        <time>2024-04-27T09:25:31Z</time>
      </trkpt>
      <trkpt lat="45.8508" lon="6.44698">
        <ele>2367.7</ele>
        <time>2024-04-27T09:25:32Z</time>
      </trkpt>
      <trkpt lat="45.8508" lon="6.44698">
        <ele>2367.7</ele>
        <time>2024-04-27T09:25:33Z</time>
      </trkpt>
      <trkpt lat="45.8508" lon="6.44697">
        <ele>2367.7</ele>
        <time>2024-04-27T09:25:34Z</time>
      </trkpt>
      <trkpt lat="45.8508" lon="6.44697">
        <ele>2367.7</ele>
        <time>2024-04-27T09:25:35Z</time>
      </trkpt>
      <trkpt lat="45.8508" lon="6.44697">
        <ele>2367.7</ele>
        <time>2024-04-27T09:25:36Z</time>
      </trkpt>
      <trkpt lat="45.8508" lon="6.44697">
        <ele>2367.7</ele>
        <time>2024-04-27T09:25:37Z</time>
      </trkpt>
      <trkpt lat="45.8508" lon="6.44697">
        <ele>2367.7</ele>
        <time>2024-04-27T09:25:38Z</time>
      </trkpt>
      <trkpt lat="45.8508" lon="6.44697">
        <ele>2367.7</ele>
        <time>2024-04-27T09:25:39Z</time>
      </trkpt>
      <trkpt lat="45.8508" lon="6.44697">
        <ele>2367.7</ele>
        <time>2024-04-27T09:25:40Z</time>
      </trkpt>
      <trkpt lat="45.8508" lon="6.44697">
        <ele>2368.6</ele>
        <time>2024-04-27T09:25:41Z</time>
      </trkpt>
      <trkpt lat="45.8508" lon="6.44697">
        <ele>2368.6</ele>
        <time>2024-04-27T09:25:42Z</time>
      </trkpt>
      <trkpt lat="45.8508" lon="6.44697">
        <ele>2368.6</ele>
        <time>2024-04-27T09:25:43Z</time>
      </trkpt>
      <trkpt lat="45.8508" lon="6.44697">
        <ele>2368.6</ele>
        <time>2024-04-27T09:25:44Z</time>
      </trkpt>
      <trkpt lat="45.8508" lon="6.44697">
        <ele>2369.7</ele>
        <time>2024-04-27T09:25:45Z</time>
      </trkpt>
      <trkpt lat="45.8508" lon="6.44697">
        <ele>2369.7</ele>
        <time>2024-04-27T09:25:46Z</time>
      </trkpt>
      <trkpt lat="45.8508" lon="6.44697">
        <ele>2369.7</ele>
        <time>2024-04-27T09:25:47Z</time>
      </trkpt>
      <trkpt lat="45.8508" lon="6.44697">
        <ele>2369.7</ele>
        <time>2024-04-27T09:25:48Z</time>
      </trkpt>
      <trkpt lat="45.8508" lon="6.44697">
        <ele>2369.7</ele>
        <time>2024-04-27T09:25:49Z</time>
      </trkpt>
      <trkpt lat="45.8508" lon="6.44697">
        <ele>2369.7</ele>
        <time>2024-04-27T09:25:50Z</time>
      </trkpt>
      <trkpt lat="45.8508" lon="6.44697">
        <ele>2369.7</ele>
        <time>2024-04-27T09:25:51Z</time>
      </trkpt>
      <trkpt lat="45.8508" lon="6.44697">
        <ele>2369.7</ele>
        <time>2024-04-27T09:25:52Z</time>
      </trkpt>
      <trkpt lat="45.8508" lon="6.44697">
        <ele>2369.7</ele>
        <time>2024-04-27T09:25:53Z</time>
      </trkpt>
      <trkpt lat="45.8508" lon="6.44697">
        <ele>2369.7</ele>
        <time>2024-04-27T09:25:54Z</time>
      </trkpt>
      <trkpt lat="45.8508" lon="6.44697">
        <ele>2369.7</ele>
        <time>2024-04-27T09:25:55Z</time>
      </trkpt>
      <trkpt lat="45.8508" lon="6.44697">
        <ele>2369.7</ele>
        <time>2024-04-27T09:25:56Z</time>
      </trkpt>
      <trkpt lat="45.8508" lon="6.44697">
        <ele>2369.7</ele>
        <time>2024-04-27T09:25:57Z</time>
      </trkpt>
      <trkpt lat="45.8508" lon="6.44697">
        <ele>2369.7</ele>
        <time>2024-04-27T09:25:58Z</time>
      </trkpt>
      <trkpt lat="45.8508" lon="6.44697">
        <ele>2369.7</ele>
        <time>2024-04-27T09:25:59Z</time>
      </trkpt>
      <trkpt lat="45.8508" lon="6.44697">
        <ele>2369.7</ele>
        <time>2024-04-27T09:26:00Z</time>
      </trkpt>
      <trkpt lat="45.8508" lon="6.44697">
        <ele>2370.6</ele>
        <time>2024-04-27T09:26:01Z</time>
      </trkpt>
      <trkpt lat="45.8508" lon="6.44697">
        <ele>2370.6</ele>
        <time>2024-04-27T09:26:02Z</time>
      </trkpt>
      <trkpt lat="45.8508" lon="6.44697">
        <ele>2370.6</ele>
        <time>2024-04-27T09:26:03Z</time>
      </trkpt>
      <trkpt lat="45.8508" lon="6.44697">
        <ele>2370.6</ele>
        <time>2024-04-27T09:26:04Z</time>
      </trkpt>
      <trkpt lat="45.8508" lon="6.44697">
        <ele>2370.6</ele>
        <time>2024-04-27T09:26:05Z</time>
      </trkpt>
      <trkpt lat="45.8508" lon="6.44697">
        <ele>2370.6</ele>
        <time>2024-04-27T09:26:06Z</time>
      </trkpt>
      <trkpt lat="45.8508" lon="6.44697">
        <ele>2370.6</ele>
        <time>2024-04-27T09:26:07Z</time>
      </trkpt>
      <trkpt lat="45.8508" lon="6.44696">
        <ele>2370.6</ele>
        <time>2024-04-27T09:26:08Z</time>
      </trkpt>
      <trkpt lat="45.8508" lon="6.44696">
        <ele>2371.7</ele>
        <time>2024-04-27T09:26:09Z</time>
      </trkpt>
      <trkpt lat="45.8508" lon="6.44696">
        <ele>2371.7</ele>
        <time>2024-04-27T09:26:10Z</time>
      </trkpt>
      <trkpt lat="45.8508" lon="6.44696">
        <ele>2371.7</ele>
        <time>2024-04-27T09:26:11Z</time>
      </trkpt>
      <trkpt lat="45.8508" lon="6.44696">
        <ele>2371.7</ele>
        <time>2024-04-27T09:26:12Z</time>
      </trkpt>
      <trkpt lat="45.8508" lon="6.44696">
        <ele>2371.7</ele>
        <time>2024-04-27T09:26:13Z</time>
      </trkpt>
      <trkpt lat="45.8508" lon="6.44696">
        <ele>2371.7</ele>
        <time>2024-04-27T09:26:14Z</time>
      </trkpt>
      <trkpt lat="45.8508" lon="6.44696">
        <ele>2371.7</ele>
        <time>2024-04-27T09:26:15Z</time>
      </trkpt>
      <trkpt lat="45.8508" lon="6.44696">
        <ele>2371.7</ele>
        <time>2024-04-27T09:26:16Z</time>
      </trkpt>
      <trkpt lat="45.8508" lon="6.44696">
        <ele>2372.6</ele>
        <time>2024-04-27T09:26:17Z</time>
      </trkpt>
      <trkpt lat="45.8508" lon="6.44696">
        <ele>2372.6</ele>
        <time>2024-04-27T09:26:18Z</time>
      </trkpt>
      <trkpt lat="45.8508" lon="6.44696">
        <ele>2372.6</ele>
        <time>2024-04-27T09:26:19Z</time>
      </trkpt>
      <trkpt lat="45.8508" lon="6.44696">
        <ele>2372.6</ele>
        <time>2024-04-27T09:26:20Z</time>
      </trkpt>
      <trkpt lat="45.8508" lon="6.44696">
        <ele>2372.6</ele>
        <time>2024-04-27T09:26:21Z</time>
      </trkpt>
      <trkpt lat="45.8508" lon="6.44696">
        <ele>2372.6</ele>
        <time>2024-04-27T09:26:22Z</time>
      </trkpt>
      <trkpt lat="45.8508" lon="6.44696">
        <ele>2372.6</ele>
        <time>2024-04-27T09:26:23Z</time>
      </trkpt>
      <trkpt lat="45.8508" lon="6.44696">
        <ele>2372.6</ele>
        <time>2024-04-27T09:26:24Z</time>
      </trkpt>
      <trkpt lat="45.8508" lon="6.44696">
        <ele>2372.6</ele>
        <time>2024-04-27T09:26:25Z</time>
      </trkpt>
      <trkpt lat="45.8508" lon="6.44696">
        <ele>2372.6</ele>
        <time>2024-04-27T09:26:26Z</time>
      </trkpt>
      <trkpt lat="45.8508" lon="6.44696">
        <ele>2373.7</ele>
        <time>2024-04-27T09:26:27Z</time>
      </trkpt>
      <trkpt lat="45.8508" lon="6.44696">
        <ele>2373.7</ele>
        <time>2024-04-27T09:26:28Z</time>
      </trkpt>
      <trkpt lat="45.8508" lon="6.44696">
        <ele>2373.7</ele>
        <time>2024-04-27T09:26:29Z</time>
      </trkpt>
      <trkpt lat="45.8508" lon="6.44696">
        <ele>2373.7</ele>
        <time>2024-04-27T09:26:30Z</time>
      </trkpt>
      <trkpt lat="45.8508" lon="6.44696">
        <ele>2373.7</ele>
        <time>2024-04-27T09:26:31Z</time>
      </trkpt>
      <trkpt lat="45.8508" lon="6.44696">
        <ele>2373.7</ele>
        <time>2024-04-27T09:26:32Z</time>
      </trkpt>
      <trkpt lat="45.8508" lon="6.44696">
        <ele>2373.7</ele>
        <time>2024-04-27T09:26:33Z</time>
      </trkpt>
      <trkpt lat="45.85079" lon="6.44697">
        <ele>2373.7</ele>
        <time>2024-04-27T09:26:34Z</time>
      </trkpt>
      <trkpt lat="45.85078" lon="6.44697">
        <ele>2373.7</ele>
        <time>2024-04-27T09:26:35Z</time>
      </trkpt>
      <trkpt lat="45.85078" lon="6.44697">
        <ele>2373.7</ele>
        <time>2024-04-27T09:26:36Z</time>
      </trkpt>
      <trkpt lat="45.85078" lon="6.44698">
        <ele>2373.7</ele>
        <time>2024-04-27T09:26:37Z</time>
      </trkpt>
      <trkpt lat="45.85077" lon="6.44698">
        <ele>2373.7</ele>
        <time>2024-04-27T09:26:38Z</time>
      </trkpt>
      <trkpt lat="45.85076" lon="6.44698">
        <ele>2376.7</ele>
        <time>2024-04-27T09:26:39Z</time>
      </trkpt>
      <trkpt lat="45.85075" lon="6.44699">
        <ele>2376.7</ele>
        <time>2024-04-27T09:26:40Z</time>
      </trkpt>
      <trkpt lat="45.85075" lon="6.44699">
        <ele>2376.7</ele>
        <time>2024-04-27T09:26:41Z</time>
      </trkpt>
      <trkpt lat="45.85074" lon="6.447">
        <ele>2376.7</ele>
        <time>2024-04-27T09:26:42Z</time>
      </trkpt>
      <trkpt lat="45.85074" lon="6.447">
        <ele>2377.6</ele>
        <time>2024-04-27T09:26:43Z</time>
      </trkpt>
      <trkpt lat="45.85074" lon="6.447">
        <ele>2377.6</ele>
        <time>2024-04-27T09:26:44Z</time>
      </trkpt>
      <trkpt lat="45.85074" lon="6.447">
        <ele>2377.6</ele>
        <time>2024-04-27T09:26:45Z</time>
      </trkpt>
      <trkpt lat="45.85074" lon="6.447">
        <ele>2377.6</ele>
        <time>2024-04-27T09:26:46Z</time>
      </trkpt>
      <trkpt lat="45.85074" lon="6.447">
        <ele>2377.6</ele>
        <time>2024-04-27T09:26:47Z</time>
      </trkpt>
      <trkpt lat="45.85074" lon="6.447">
        <ele>2377.6</ele>
        <time>2024-04-27T09:26:48Z</time>
      </trkpt>
      <trkpt lat="45.85074" lon="6.447">
        <ele>2377.6</ele>
        <time>2024-04-27T09:26:49Z</time>
      </trkpt>
      <trkpt lat="45.85074" lon="6.447">
        <ele>2377.6</ele>
        <time>2024-04-27T09:26:50Z</time>
      </trkpt>
      <trkpt lat="45.85074" lon="6.447">
        <ele>2381.6</ele>
        <time>2024-04-27T09:26:51Z</time>
      </trkpt>
      <trkpt lat="45.85074" lon="6.447">
        <ele>2381.6</ele>
        <time>2024-04-27T09:26:52Z</time>
      </trkpt>
      <trkpt lat="45.85074" lon="6.447">
        <ele>2382.7</ele>
        <time>2024-04-27T09:26:53Z</time>
      </trkpt>
      <trkpt lat="45.85074" lon="6.447">
        <ele>2382.7</ele>
        <time>2024-04-27T09:26:54Z</time>
      </trkpt>
      <trkpt lat="45.85074" lon="6.447">
        <ele>2383.7</ele>
        <time>2024-04-27T09:26:55Z</time>
      </trkpt>
      <trkpt lat="45.85074" lon="6.447">
        <ele>2383.7</ele>
        <time>2024-04-27T09:26:56Z</time>
      </trkpt>
      <trkpt lat="45.85074" lon="6.447">
        <ele>2383.7</ele>
        <time>2024-04-27T09:26:57Z</time>
      </trkpt>
      <trkpt lat="45.85074" lon="6.447">
        <ele>2383.7</ele>
        <time>2024-04-27T09:26:58Z</time>
      </trkpt>
      <trkpt lat="45.85074" lon="6.447">
        <ele>2383.7</ele>
        <time>2024-04-27T09:26:59Z</time>
      </trkpt>
      <trkpt lat="45.85074" lon="6.447">
        <ele>2383.7</ele>
        <time>2024-04-27T09:27:00Z</time>
      </trkpt>
      <trkpt lat="45.85074" lon="6.447">
        <ele>2383.7</ele>
        <time>2024-04-27T09:27:01Z</time>
      </trkpt>
      <trkpt lat="45.85074" lon="6.447">
        <ele>2383.7</ele>
        <time>2024-04-27T09:27:02Z</time>
      </trkpt>
      <trkpt lat="45.85074" lon="6.447">
        <ele>2383.7</ele>
        <time>2024-04-27T09:27:03Z</time>
      </trkpt>
      <trkpt lat="45.85074" lon="6.447">
        <ele>2383.7</ele>
        <time>2024-04-27T09:27:04Z</time>
      </trkpt>
      <trkpt lat="45.85074" lon="6.44699">
        <ele>2383.7</ele>
        <time>2024-04-27T09:27:05Z</time>
      </trkpt>
      <trkpt lat="45.85074" lon="6.44699">
        <ele>2383.7</ele>
        <time>2024-04-27T09:27:06Z</time>
      </trkpt>
      <trkpt lat="45.85074" lon="6.44699">
        <ele>2383.7</ele>
        <time>2024-04-27T09:27:07Z</time>
      </trkpt>
      <trkpt lat="45.85074" lon="6.44699">
        <ele>2383.7</ele>
        <time>2024-04-27T09:27:08Z</time>
      </trkpt>
      <trkpt lat="45.85074" lon="6.44698">
        <ele>2383.7</ele>
        <time>2024-04-27T09:27:09Z</time>
      </trkpt>
      <trkpt lat="45.85074" lon="6.44698">
        <ele>2383.7</ele>
        <time>2024-04-27T09:27:10Z</time>
      </trkpt>
      <trkpt lat="45.85074" lon="6.44697">
        <ele>2383.7</ele>
        <time>2024-04-27T09:27:11Z</time>
      </trkpt>
      <trkpt lat="45.85074" lon="6.44697">
        <ele>2383.7</ele>
        <time>2024-04-27T09:27:12Z</time>
      </trkpt>
      <trkpt lat="45.85075" lon="6.44697">
        <ele>2383.7</ele>
        <time>2024-04-27T09:27:13Z</time>
      </trkpt>
      <trkpt lat="45.85075" lon="6.44697">
        <ele>2383.7</ele>
        <time>2024-04-27T09:27:14Z</time>
      </trkpt>
      <trkpt lat="45.85075" lon="6.44697">
        <ele>2383.7</ele>
        <time>2024-04-27T09:27:15Z</time>
      </trkpt>
      <trkpt lat="45.85075" lon="6.44697">
        <ele>2383.7</ele>
        <time>2024-04-27T09:27:16Z</time>
      </trkpt>
      <trkpt lat="45.85075" lon="6.44697">
        <ele>2383.7</ele>
        <time>2024-04-27T09:27:17Z</time>
      </trkpt>
      <trkpt lat="45.85075" lon="6.44697">
        <ele>2383.7</ele>
        <time>2024-04-27T09:27:18Z</time>
      </trkpt>
      <trkpt lat="45.85075" lon="6.44697">
        <ele>2384.6</ele>
        <time>2024-04-27T09:27:19Z</time>
      </trkpt>
      <trkpt lat="45.85075" lon="6.44697">
        <ele>2384.6</ele>
        <time>2024-04-27T09:27:20Z</time>
      </trkpt>
      <trkpt lat="45.85075" lon="6.44697">
        <ele>2384.6</ele>
        <time>2024-04-27T09:27:21Z</time>
      </trkpt>
      <trkpt lat="45.85075" lon="6.44697">
        <ele>2384.6</ele>
        <time>2024-04-27T09:27:22Z</time>
      </trkpt>
      <trkpt lat="45.85075" lon="6.44697">
        <ele>2384.6</ele>
        <time>2024-04-27T09:27:23Z</time>
      </trkpt>
      <trkpt lat="45.85075" lon="6.44697">
        <ele>2384.6</ele>
        <time>2024-04-27T09:27:24Z</time>
      </trkpt>
      <trkpt lat="45.85075" lon="6.44697">
        <ele>2384.6</ele>
        <time>2024-04-27T09:27:25Z</time>
      </trkpt>
      <trkpt lat="45.85075" lon="6.44697">
        <ele>2384.6</ele>
        <time>2024-04-27T09:27:26Z</time>
      </trkpt>
      <trkpt lat="45.85075" lon="6.44698">
        <ele>2384.6</ele>
        <time>2024-04-27T09:27:27Z</time>
      </trkpt>
      <trkpt lat="45.85075" lon="6.44698">
        <ele>2384.6</ele>
        <time>2024-04-27T09:27:28Z</time>
      </trkpt>
      <trkpt lat="45.85075" lon="6.44698">
        <ele>2384.6</ele>
        <time>2024-04-27T09:27:29Z</time>
      </trkpt>
      <trkpt lat="45.85075" lon="6.44698">
        <ele>2384.6</ele>
        <time>2024-04-27T09:27:30Z</time>
      </trkpt>
      <trkpt lat="45.85074" lon="6.44698">
        <ele>2384.6</ele>
        <time>2024-04-27T09:27:31Z</time>
      </trkpt>
      <trkpt lat="45.85074" lon="6.44699">
        <ele>2384.6</ele>
        <time>2024-04-27T09:27:32Z</time>
      </trkpt>
      <trkpt lat="45.85074" lon="6.44699">
        <ele>2384.6</ele>
        <time>2024-04-27T09:27:33Z</time>
      </trkpt>
      <trkpt lat="45.85073" lon="6.44699">
        <ele>2384.6</ele>
        <time>2024-04-27T09:27:34Z</time>
      </trkpt>
      <trkpt lat="45.85073" lon="6.44699">
        <ele>2384.6</ele>
        <time>2024-04-27T09:27:35Z</time>
      </trkpt>
      <trkpt lat="45.85073" lon="6.44699">
        <ele>2384.6</ele>
        <time>2024-04-27T09:27:36Z</time>
      </trkpt>
      <trkpt lat="45.85073" lon="6.44699">
        <ele>2384.6</ele>
        <time>2024-04-27T09:27:37Z</time>
      </trkpt>
      <trkpt lat="45.85072" lon="6.44699">
        <ele>2384.6</ele>
        <time>2024-04-27T09:27:38Z</time>
      </trkpt>
      <trkpt lat="45.85072" lon="6.44699">
        <ele>2384.6</ele>
        <time>2024-04-27T09:27:39Z</time>
      </trkpt>
      <trkpt lat="45.85072" lon="6.44699">
        <ele>2384.6</ele>
        <time>2024-04-27T09:27:40Z</time>
      </trkpt>
      <trkpt lat="45.85072" lon="6.44699">
        <ele>2384.6</ele>
        <time>2024-04-27T09:27:41Z</time>
      </trkpt>
      <trkpt lat="45.85072" lon="6.44699">
        <ele>2384.6</ele>
        <time>2024-04-27T09:27:42Z</time>
      </trkpt>
      <trkpt lat="45.85072" lon="6.44699">
        <ele>2384.6</ele>
        <time>2024-04-27T09:27:43Z</time>
      </trkpt>
      <trkpt lat="45.85072" lon="6.44699">
        <ele>2384.6</ele>
        <time>2024-04-27T09:27:44Z</time>
      </trkpt>
      <trkpt lat="45.85072" lon="6.44699">
        <ele>2385.7</ele>
        <time>2024-04-27T09:27:45Z</time>
      </trkpt>
      <trkpt lat="45.85072" lon="6.44699">
        <ele>2385.7</ele>
        <time>2024-04-27T09:27:46Z</time>
      </trkpt>
      <trkpt lat="45.85072" lon="6.44699">
        <ele>2385.7</ele>
        <time>2024-04-27T09:27:47Z</time>
      </trkpt>
      <trkpt lat="45.85072" lon="6.44699">
        <ele>2385.7</ele>
        <time>2024-04-27T09:27:48Z</time>
      </trkpt>
      <trkpt lat="45.85072" lon="6.44699">
        <ele>2385.7</ele>
        <time>2024-04-27T09:27:49Z</time>
      </trkpt>
      <trkpt lat="45.85072" lon="6.44699">
        <ele>2385.7</ele>
        <time>2024-04-27T09:27:50Z</time>
      </trkpt>
      <trkpt lat="45.85072" lon="6.44699">
        <ele>2385.7</ele>
        <time>2024-04-27T09:27:51Z</time>
      </trkpt>
      <trkpt lat="45.85072" lon="6.44699">
        <ele>2385.7</ele>
        <time>2024-04-27T09:27:52Z</time>
      </trkpt>
      <trkpt lat="45.85072" lon="6.44699">
        <ele>2386.6</ele>
        <time>2024-04-27T09:27:53Z</time>
      </trkpt>
      <trkpt lat="45.85072" lon="6.44698">
        <ele>2386.6</ele>
        <time>2024-04-27T09:27:54Z</time>
      </trkpt>
      <trkpt lat="45.85072" lon="6.44698">
        <ele>2386.6</ele>
        <time>2024-04-27T09:27:55Z</time>
      </trkpt>
      <trkpt lat="45.85072" lon="6.44698">
        <ele>2386.6</ele>
        <time>2024-04-27T09:27:56Z</time>
      </trkpt>
      <trkpt lat="45.85072" lon="6.44698">
        <ele>2386.6</ele>
        <time>2024-04-27T09:27:57Z</time>
      </trkpt>
      <trkpt lat="45.85073" lon="6.44697">
        <ele>2386.6</ele>
        <time>2024-04-27T09:27:58Z</time>
      </trkpt>
      <trkpt lat="45.85073" lon="6.44696">
        <ele>2386.6</ele>
        <time>2024-04-27T09:27:59Z</time>
      </trkpt>
      <trkpt lat="45.85073" lon="6.44696">
        <ele>2386.6</ele>
        <time>2024-04-27T09:28:00Z</time>
      </trkpt>
      <trkpt lat="45.85073" lon="6.44696">
        <ele>2386.6</ele>
        <time>2024-04-27T09:28:01Z</time>
      </trkpt>
      <trkpt lat="45.85073" lon="6.44696">
        <ele>2386.6</ele>
        <time>2024-04-27T09:28:02Z</time>
      </trkpt>
      <trkpt lat="45.85073" lon="6.44696">
        <ele>2386.6</ele>
        <time>2024-04-27T09:28:03Z</time>
      </trkpt>
      <trkpt lat="45.85073" lon="6.44696">
        <ele>2386.6</ele>
        <time>2024-04-27T09:28:04Z</time>
      </trkpt>
      <trkpt lat="45.85073" lon="6.44696">
        <ele>2386.6</ele>
        <time>2024-04-27T09:28:05Z</time>
      </trkpt>
      <trkpt lat="45.85073" lon="6.44696">
        <ele>2386.6</ele>
        <time>2024-04-27T09:28:06Z</time>
      </trkpt>
      <trkpt lat="45.85074" lon="6.44696">
        <ele>2386.6</ele>
        <time>2024-04-27T09:28:07Z</time>
      </trkpt>
      <trkpt lat="45.85074" lon="6.44696">
        <ele>2386.6</ele>
        <time>2024-04-27T09:28:08Z</time>
      </trkpt>
      <trkpt lat="45.85074" lon="6.44696">
        <ele>2386.6</ele>
        <time>2024-04-27T09:28:09Z</time>
      </trkpt>
      <trkpt lat="45.85074" lon="6.44696">
        <ele>2386.6</ele>
        <time>2024-04-27T09:28:10Z</time>
      </trkpt>
      <trkpt lat="45.85074" lon="6.44696">
        <ele>2385.7</ele>
        <time>2024-04-27T09:28:11Z</time>
      </trkpt>
      <trkpt lat="45.85074" lon="6.44696">
        <ele>2385.7</ele>
        <time>2024-04-27T09:28:12Z</time>
      </trkpt>
      <trkpt lat="45.85074" lon="6.44696">
        <ele>2385.7</ele>
        <time>2024-04-27T09:28:13Z</time>
      </trkpt>
      <trkpt lat="45.85074" lon="6.44696">
        <ele>2385.7</ele>
        <time>2024-04-27T09:28:14Z</time>
      </trkpt>
      <trkpt lat="45.85074" lon="6.44696">
        <ele>2385.7</ele>
        <time>2024-04-27T09:28:15Z</time>
      </trkpt>
      <trkpt lat="45.85074" lon="6.44696">
        <ele>2385.7</ele>
        <time>2024-04-27T09:28:16Z</time>
      </trkpt>
      <trkpt lat="45.85074" lon="6.44696">
        <ele>2385.7</ele>
        <time>2024-04-27T09:28:17Z</time>
      </trkpt>
      <trkpt lat="45.85074" lon="6.44696">
        <ele>2385.7</ele>
        <time>2024-04-27T09:28:18Z</time>
      </trkpt>
      <trkpt lat="45.85074" lon="6.44696">
        <ele>2385.7</ele>
        <time>2024-04-27T09:28:19Z</time>
      </trkpt>
      <trkpt lat="45.85074" lon="6.44696">
        <ele>2385.7</ele>
        <time>2024-04-27T09:28:20Z</time>
      </trkpt>
      <trkpt lat="45.85074" lon="6.44696">
        <ele>2385.7</ele>
        <time>2024-04-27T09:28:21Z</time>
      </trkpt>
      <trkpt lat="45.85074" lon="6.44696">
        <ele>2385.7</ele>
        <time>2024-04-27T09:28:22Z</time>
      </trkpt>
      <trkpt lat="45.85073" lon="6.44696">
        <ele>2385.7</ele>
        <time>2024-04-27T09:28:23Z</time>
      </trkpt>
      <trkpt lat="45.85073" lon="6.44696">
        <ele>2385.7</ele>
        <time>2024-04-27T09:28:24Z</time>
      </trkpt>
      <trkpt lat="45.85073" lon="6.44696">
        <ele>2385.7</ele>
        <time>2024-04-27T09:28:25Z</time>
      </trkpt>
      <trkpt lat="45.85073" lon="6.44696">
        <ele>2385.7</ele>
        <time>2024-04-27T09:28:26Z</time>
      </trkpt>
      <trkpt lat="45.85072" lon="6.44696">
        <ele>2385.7</ele>
        <time>2024-04-27T09:28:27Z</time>
      </trkpt>
      <trkpt lat="45.85072" lon="6.44697">
        <ele>2385.7</ele>
        <time>2024-04-27T09:28:28Z</time>
      </trkpt>
      <trkpt lat="45.85072" lon="6.44697">
        <ele>2385.7</ele>
        <time>2024-04-27T09:28:29Z</time>
      </trkpt>
      <trkpt lat="45.85072" lon="6.44697">
        <ele>2385.7</ele>
        <time>2024-04-27T09:28:30Z</time>
      </trkpt>
      <trkpt lat="45.85072" lon="6.44697">
        <ele>2385.7</ele>
        <time>2024-04-27T09:28:31Z</time>
      </trkpt>
      <trkpt lat="45.85072" lon="6.44697">
        <ele>2385.7</ele>
        <time>2024-04-27T09:28:32Z</time>
      </trkpt>
      <trkpt lat="45.85072" lon="6.44697">
        <ele>2384.6</ele>
        <time>2024-04-27T09:28:33Z</time>
      </trkpt>
      <trkpt lat="45.85072" lon="6.44697">
        <ele>2384.6</ele>
        <time>2024-04-27T09:28:34Z</time>
      </trkpt>
      <trkpt lat="45.85072" lon="6.44697">
        <ele>2384.6</ele>
        <time>2024-04-27T09:28:35Z</time>
      </trkpt>
      <trkpt lat="45.85072" lon="6.44697">
        <ele>2384.6</ele>
        <time>2024-04-27T09:28:36Z</time>
      </trkpt>
      <trkpt lat="45.85072" lon="6.44697">
        <ele>2384.6</ele>
        <time>2024-04-27T09:28:37Z</time>
      </trkpt>
      <trkpt lat="45.85072" lon="6.44697">
        <ele>2384.6</ele>
        <time>2024-04-27T09:28:38Z</time>
      </trkpt>
      <trkpt lat="45.85072" lon="6.44697">
        <ele>2384.6</ele>
        <time>2024-04-27T09:28:39Z</time>
      </trkpt>
      <trkpt lat="45.85072" lon="6.44697">
        <ele>2384.6</ele>
        <time>2024-04-27T09:28:40Z</time>
      </trkpt>
      <trkpt lat="45.85072" lon="6.44697">
        <ele>2384.6</ele>
        <time>2024-04-27T09:28:41Z</time>
      </trkpt>
      <trkpt lat="45.85072" lon="6.44697">
        <ele>2384.6</ele>
        <time>2024-04-27T09:28:42Z</time>
      </trkpt>
      <trkpt lat="45.85071" lon="6.44697">
        <ele>2384.6</ele>
        <time>2024-04-27T09:28:43Z</time>
      </trkpt>
      <trkpt lat="45.85071" lon="6.44697">
        <ele>2384.6</ele>
        <time>2024-04-27T09:28:44Z</time>
      </trkpt>
      <trkpt lat="45.85071" lon="6.44697">
        <ele>2384.6</ele>
        <time>2024-04-27T09:28:45Z</time>
      </trkpt>
      <trkpt lat="45.85071" lon="6.44697">
        <ele>2384.6</ele>
        <time>2024-04-27T09:28:46Z</time>
      </trkpt>
      <trkpt lat="45.85071" lon="6.44697">
        <ele>2384.6</ele>
        <time>2024-04-27T09:28:47Z</time>
      </trkpt>
      <trkpt lat="45.85071" lon="6.44697">
        <ele>2384.6</ele>
        <time>2024-04-27T09:28:48Z</time>
      </trkpt>
      <trkpt lat="45.85071" lon="6.44697">
        <ele>2384.6</ele>
        <time>2024-04-27T09:28:49Z</time>
      </trkpt>
      <trkpt lat="45.85071" lon="6.44697">
        <ele>2384.6</ele>
        <time>2024-04-27T09:28:50Z</time>
      </trkpt>
      <trkpt lat="45.85071" lon="6.44698">
        <ele>2384.6</ele>
        <time>2024-04-27T09:28:51Z</time>
      </trkpt>
      <trkpt lat="45.85071" lon="6.44698">
        <ele>2384.6</ele>
        <time>2024-04-27T09:28:52Z</time>
      </trkpt>
      <trkpt lat="45.85071" lon="6.44698">
        <ele>2383.7</ele>
        <time>2024-04-27T09:28:53Z</time>
      </trkpt>
      <trkpt lat="45.85071" lon="6.44698">
        <ele>2383.7</ele>
        <time>2024-04-27T09:28:54Z</time>
      </trkpt>
      <trkpt lat="45.85071" lon="6.44698">
        <ele>2383.7</ele>
        <time>2024-04-27T09:28:55Z</time>
      </trkpt>
      <trkpt lat="45.85071" lon="6.44698">
        <ele>2383.7</ele>
        <time>2024-04-27T09:28:56Z</time>
      </trkpt>
      <trkpt lat="45.85071" lon="6.44698">
        <ele>2383.7</ele>
        <time>2024-04-27T09:28:57Z</time>
      </trkpt>
      <trkpt lat="45.85071" lon="6.44698">
        <ele>2383.7</ele>
        <time>2024-04-27T09:28:58Z</time>
      </trkpt>
      <trkpt lat="45.85071" lon="6.44698">
        <ele>2383.7</ele>
        <time>2024-04-27T09:28:59Z</time>
      </trkpt>
      <trkpt lat="45.85071" lon="6.44698">
        <ele>2383.7</ele>
        <time>2024-04-27T09:29:00Z</time>
      </trkpt>
      <trkpt lat="45.85071" lon="6.44698">
        <ele>2383.7</ele>
        <time>2024-04-27T09:29:01Z</time>
      </trkpt>
      <trkpt lat="45.85071" lon="6.44698">
        <ele>2383.7</ele>
        <time>2024-04-27T09:29:02Z</time>
      </trkpt>
      <trkpt lat="45.85071" lon="6.44698">
        <ele>2383.7</ele>
        <time>2024-04-27T09:29:03Z</time>
      </trkpt>
      <trkpt lat="45.85071" lon="6.44698">
        <ele>2383.7</ele>
        <time>2024-04-27T09:29:04Z</time>
      </trkpt>
      <trkpt lat="45.85071" lon="6.44698">
        <ele>2383.7</ele>
        <time>2024-04-27T09:29:05Z</time>
      </trkpt>
      <trkpt lat="45.85071" lon="6.44698">
        <ele>2383.7</ele>
        <time>2024-04-27T09:29:06Z</time>
      </trkpt>
      <trkpt lat="45.85071" lon="6.44698">
        <ele>2383.7</ele>
        <time>2024-04-27T09:29:07Z</time>
      </trkpt>
      <trkpt lat="45.85071" lon="6.44698">
        <ele>2383.7</ele>
        <time>2024-04-27T09:29:08Z</time>
      </trkpt>
      <trkpt lat="45.85071" lon="6.44698">
        <ele>2383.7</ele>
        <time>2024-04-27T09:29:09Z</time>
      </trkpt>
      <trkpt lat="45.85071" lon="6.44698">
        <ele>2383.7</ele>
        <time>2024-04-27T09:29:10Z</time>
      </trkpt>
      <trkpt lat="45.85071" lon="6.44698">
        <ele>2383.7</ele>
        <time>2024-04-27T09:29:11Z</time>
      </trkpt>
      <trkpt lat="45.8507" lon="6.44698">
        <ele>2383.7</ele>
        <time>2024-04-27T09:29:12Z</time>
      </trkpt>
      <trkpt lat="45.8507" lon="6.44698">
        <ele>2383.7</ele>
        <time>2024-04-27T09:29:13Z</time>
      </trkpt>
      <trkpt lat="45.8507" lon="6.44698">
        <ele>2383.7</ele>
        <time>2024-04-27T09:29:14Z</time>
      </trkpt>
      <trkpt lat="45.8507" lon="6.44698">
        <ele>2383.7</ele>
        <time>2024-04-27T09:29:15Z</time>
      </trkpt>
      <trkpt lat="45.8507" lon="6.44697">
        <ele>2383.7</ele>
        <time>2024-04-27T09:29:16Z</time>
      </trkpt>
      <trkpt lat="45.8507" lon="6.44697">
        <ele>2383.7</ele>
        <time>2024-04-27T09:29:17Z</time>
      </trkpt>
      <trkpt lat="45.8507" lon="6.44697">
        <ele>2383.7</ele>
        <time>2024-04-27T09:29:18Z</time>
      </trkpt>
      <trkpt lat="45.8507" lon="6.44697">
        <ele>2383.7</ele>
        <time>2024-04-27T09:29:19Z</time>
      </trkpt>
      <trkpt lat="45.8507" lon="6.44697">
        <ele>2383.7</ele>
        <time>2024-04-27T09:29:20Z</time>
      </trkpt>
      <trkpt lat="45.8507" lon="6.44697">
        <ele>2384.6</ele>
        <time>2024-04-27T09:29:21Z</time>
      </trkpt>
      <trkpt lat="45.8507" lon="6.44697">
        <ele>2384.6</ele>
        <time>2024-04-27T09:29:22Z</time>
      </trkpt>
      <trkpt lat="45.8507" lon="6.44697">
        <ele>2384.6</ele>
        <time>2024-04-27T09:29:23Z</time>
      </trkpt>
      <trkpt lat="45.8507" lon="6.44696">
        <ele>2384.6</ele>
        <time>2024-04-27T09:29:24Z</time>
      </trkpt>
      <trkpt lat="45.8507" lon="6.44696">
        <ele>2384.6</ele>
        <time>2024-04-27T09:29:25Z</time>
      </trkpt>
      <trkpt lat="45.8507" lon="6.44696">
        <ele>2384.6</ele>
        <time>2024-04-27T09:29:26Z</time>
      </trkpt>
      <trkpt lat="45.8507" lon="6.44696">
        <ele>2384.6</ele>
        <time>2024-04-27T09:29:27Z</time>
      </trkpt>
      <trkpt lat="45.8507" lon="6.44696">
        <ele>2384.6</ele>
        <time>2024-04-27T09:29:28Z</time>
      </trkpt>
      <trkpt lat="45.8507" lon="6.44696">
        <ele>2387.7</ele>
        <time>2024-04-27T09:29:29Z</time>
      </trkpt>
      <trkpt lat="45.8507" lon="6.44696">
        <ele>2387.7</ele>
        <time>2024-04-27T09:29:30Z</time>
      </trkpt>
      <trkpt lat="45.8507" lon="6.44696">
        <ele>2387.7</ele>
        <time>2024-04-27T09:29:31Z</time>
      </trkpt>
      <trkpt lat="45.8507" lon="6.44695">
        <ele>2387.7</ele>
        <time>2024-04-27T09:29:32Z</time>
      </trkpt>
      <trkpt lat="45.8507" lon="6.44695">
        <ele>2388.6</ele>
        <time>2024-04-27T09:29:33Z</time>
      </trkpt>
      <trkpt lat="45.85069" lon="6.44695">
        <ele>2388.6</ele>
        <time>2024-04-27T09:29:34Z</time>
      </trkpt>
      <trkpt lat="45.85069" lon="6.44695">
        <ele>2388.6</ele>
        <time>2024-04-27T09:29:35Z</time>
      </trkpt>
      <trkpt lat="45.85068" lon="6.44695">
        <ele>2388.6</ele>
        <time>2024-04-27T09:29:36Z</time>
      </trkpt>
      <trkpt lat="45.85068" lon="6.44695">
        <ele>2389.7</ele>
        <time>2024-04-27T09:29:37Z</time>
      </trkpt>
      <trkpt lat="45.85067" lon="6.44694">
        <ele>2389.7</ele>
        <time>2024-04-27T09:29:38Z</time>
      </trkpt>
      <trkpt lat="45.85067" lon="6.44694">
        <ele>2389.7</ele>
        <time>2024-04-27T09:29:39Z</time>
      </trkpt>
      <trkpt lat="45.85067" lon="6.44694">
        <ele>2389.7</ele>
        <time>2024-04-27T09:29:40Z</time>
      </trkpt>
      <trkpt lat="45.85066" lon="6.44694">
        <ele>2390.7</ele>
        <time>2024-04-27T09:29:41Z</time>
      </trkpt>
      <trkpt lat="45.85066" lon="6.44694">
        <ele>2390.7</ele>
        <time>2024-04-27T09:29:42Z</time>
      </trkpt>
      <trkpt lat="45.85066" lon="6.44694">
        <ele>2390.7</ele>
        <time>2024-04-27T09:29:43Z</time>
      </trkpt>
      <trkpt lat="45.85066" lon="6.44694">
        <ele>2390.7</ele>
        <time>2024-04-27T09:29:44Z</time>
      </trkpt>
      <trkpt lat="45.85065" lon="6.44693">
        <ele>2391.6</ele>
        <time>2024-04-27T09:29:45Z</time>
      </trkpt>
      <trkpt lat="45.85065" lon="6.44693">
        <ele>2391.6</ele>
        <time>2024-04-27T09:29:46Z</time>
      </trkpt>
      <trkpt lat="45.85064" lon="6.44693">
        <ele>2391.6</ele>
        <time>2024-04-27T09:29:47Z</time>
      </trkpt>
      <trkpt lat="45.85063" lon="6.44692">
        <ele>2391.6</ele>
        <time>2024-04-27T09:29:48Z</time>
      </trkpt>
      <trkpt lat="45.85062" lon="6.44692">
        <ele>2391.6</ele>
        <time>2024-04-27T09:29:49Z</time>
      </trkpt>
      <trkpt lat="45.85062" lon="6.44692">
        <ele>2391.6</ele>
        <time>2024-04-27T09:29:50Z</time>
      </trkpt>
      <trkpt lat="45.85061" lon="6.44691">
        <ele>2392.7</ele>
        <time>2024-04-27T09:29:51Z</time>
      </trkpt>
      <trkpt lat="45.8506" lon="6.4469">
        <ele>2392.7</ele>
        <time>2024-04-27T09:29:52Z</time>
      </trkpt>
      <trkpt lat="45.85059" lon="6.4469">
        <ele>2392.7</ele>
        <time>2024-04-27T09:29:53Z</time>
      </trkpt>
      <trkpt lat="45.85059" lon="6.44689">
        <ele>2392.7</ele>
        <time>2024-04-27T09:29:54Z</time>
      </trkpt>
      <trkpt lat="45.85059" lon="6.44689">
        <ele>2392.7</ele>
        <time>2024-04-27T09:29:55Z</time>
      </trkpt>
      <trkpt lat="45.85059" lon="6.44689">
        <ele>2392.7</ele>
        <time>2024-04-27T09:29:56Z</time>
      </trkpt>
      <trkpt lat="45.85059" lon="6.44689">
        <ele>2393.6</ele>
        <time>2024-04-27T09:29:57Z</time>
      </trkpt>
      <trkpt lat="45.85059" lon="6.44689">
        <ele>2393.6</ele>
        <time>2024-04-27T09:29:58Z</time>
      </trkpt>
      <trkpt lat="45.85059" lon="6.44689">
        <ele>2393.6</ele>
        <time>2024-04-27T09:29:59Z</time>
      </trkpt>
      <trkpt lat="45.85059" lon="6.44689">
        <ele>2393.6</ele>
        <time>2024-04-27T09:30:00Z</time>
      </trkpt>
      <trkpt lat="45.85059" lon="6.44689">
        <ele>2393.6</ele>
        <time>2024-04-27T09:30:01Z</time>
      </trkpt>
      <trkpt lat="45.85059" lon="6.44689">
        <ele>2393.6</ele>
        <time>2024-04-27T09:30:02Z</time>
      </trkpt>
      <trkpt lat="45.85059" lon="6.44689">
        <ele>2393.6</ele>
        <time>2024-04-27T09:30:03Z</time>
      </trkpt>
      <trkpt lat="45.85059" lon="6.44689">
        <ele>2393.6</ele>
        <time>2024-04-27T09:30:04Z</time>
      </trkpt>
      <trkpt lat="45.85059" lon="6.44689">
        <ele>2393.6</ele>
        <time>2024-04-27T09:30:05Z</time>
      </trkpt>
      <trkpt lat="45.85059" lon="6.44689">
        <ele>2393.6</ele>
        <time>2024-04-27T09:30:06Z</time>
      </trkpt>
      <trkpt lat="45.85059" lon="6.44689">
        <ele>2394.7</ele>
        <time>2024-04-27T09:30:07Z</time>
      </trkpt>
      <trkpt lat="45.85059" lon="6.44689">
        <ele>2394.7</ele>
        <time>2024-04-27T09:30:08Z</time>
      </trkpt>
      <trkpt lat="45.85059" lon="6.44689">
        <ele>2394.7</ele>
        <time>2024-04-27T09:30:09Z</time>
      </trkpt>
      <trkpt lat="45.85059" lon="6.44689">
        <ele>2394.7</ele>
        <time>2024-04-27T09:30:10Z</time>
      </trkpt>
      <trkpt lat="45.85059" lon="6.44689">
        <ele>2394.7</ele>
        <time>2024-04-27T09:30:11Z</time>
      </trkpt>
      <trkpt lat="45.85059" lon="6.44689">
        <ele>2394.7</ele>
        <time>2024-04-27T09:30:12Z</time>
      </trkpt>
      <trkpt lat="45.85059" lon="6.44689">
        <ele>2394.7</ele>
        <time>2024-04-27T09:30:13Z</time>
      </trkpt>
      <trkpt lat="45.85059" lon="6.44689">
        <ele>2394.7</ele>
        <time>2024-04-27T09:30:14Z</time>
      </trkpt>
      <trkpt lat="45.85058" lon="6.44689">
        <ele>2394.7</ele>
        <time>2024-04-27T09:30:15Z</time>
      </trkpt>
      <trkpt lat="45.85058" lon="6.44689">
        <ele>2394.7</ele>
        <time>2024-04-27T09:30:16Z</time>
      </trkpt>
      <trkpt lat="45.85058" lon="6.44689">
        <ele>2395.6</ele>
        <time>2024-04-27T09:30:17Z</time>
      </trkpt>
      <trkpt lat="45.85058" lon="6.44688">
        <ele>2395.6</ele>
        <time>2024-04-27T09:30:18Z</time>
      </trkpt>
      <trkpt lat="45.85057" lon="6.44688">
        <ele>2395.6</ele>
        <time>2024-04-27T09:30:19Z</time>
      </trkpt>
      <trkpt lat="45.85057" lon="6.44688">
        <ele>2395.6</ele>
        <time>2024-04-27T09:30:20Z</time>
      </trkpt>
      <trkpt lat="45.85057" lon="6.44688">
        <ele>2396.7</ele>
        <time>2024-04-27T09:30:21Z</time>
      </trkpt>
      <trkpt lat="45.85057" lon="6.44688">
        <ele>2396.7</ele>
        <time>2024-04-27T09:30:22Z</time>
      </trkpt>
      <trkpt lat="45.85057" lon="6.44687">
        <ele>2397.6</ele>
        <time>2024-04-27T09:30:23Z</time>
      </trkpt>
      <trkpt lat="45.85056" lon="6.44687">
        <ele>2397.6</ele>
        <time>2024-04-27T09:30:24Z</time>
      </trkpt>
      <trkpt lat="45.85056" lon="6.44687">
        <ele>2397.6</ele>
        <time>2024-04-27T09:30:25Z</time>
      </trkpt>
      <trkpt lat="45.85056" lon="6.44687">
        <ele>2397.6</ele>
        <time>2024-04-27T09:30:26Z</time>
      </trkpt>
      <trkpt lat="45.85056" lon="6.44687">
        <ele>2398.7</ele>
        <time>2024-04-27T09:30:27Z</time>
      </trkpt>
      <trkpt lat="45.85056" lon="6.44687">
        <ele>2398.7</ele>
        <time>2024-04-27T09:30:28Z</time>
      </trkpt>
      <trkpt lat="45.85056" lon="6.44687">
        <ele>2399.7</ele>
        <time>2024-04-27T09:30:29Z</time>
      </trkpt>
      <trkpt lat="45.85056" lon="6.44687">
        <ele>2399.7</ele>
        <time>2024-04-27T09:30:30Z</time>
      </trkpt>
      <trkpt lat="45.85056" lon="6.44687">
        <ele>2399.7</ele>
        <time>2024-04-27T09:30:31Z</time>
      </trkpt>
      <trkpt lat="45.85056" lon="6.44687">
        <ele>2399.7</ele>
        <time>2024-04-27T09:30:32Z</time>
      </trkpt>
      <trkpt lat="45.85056" lon="6.44687">
        <ele>2400.6</ele>
        <time>2024-04-27T09:30:33Z</time>
      </trkpt>
      <trkpt lat="45.85056" lon="6.44687">
        <ele>2400.6</ele>
        <time>2024-04-27T09:30:34Z</time>
      </trkpt>
      <trkpt lat="45.85056" lon="6.44686">
        <ele>2401.7</ele>
        <time>2024-04-27T09:30:35Z</time>
      </trkpt>
      <trkpt lat="45.85055" lon="6.44686">
        <ele>2401.7</ele>
        <time>2024-04-27T09:30:36Z</time>
      </trkpt>
      <trkpt lat="45.85055" lon="6.44686">
        <ele>2401.7</ele>
        <time>2024-04-27T09:30:37Z</time>
      </trkpt>
      <trkpt lat="45.85055" lon="6.44685">
        <ele>2401.7</ele>
        <time>2024-04-27T09:30:38Z</time>
      </trkpt>
      <trkpt lat="45.85055" lon="6.44685">
        <ele>2402.6</ele>
        <time>2024-04-27T09:30:39Z</time>
      </trkpt>
      <trkpt lat="45.85055" lon="6.44685">
        <ele>2402.6</ele>
        <time>2024-04-27T09:30:40Z</time>
      </trkpt>
      <trkpt lat="45.85054" lon="6.44685">
        <ele>2402.6</ele>
        <time>2024-04-27T09:30:41Z</time>
      </trkpt>
      <trkpt lat="45.85054" lon="6.44685">
        <ele>2402.6</ele>
        <time>2024-04-27T09:30:42Z</time>
      </trkpt>
      <trkpt lat="45.85054" lon="6.44685">
        <ele>2403.7</ele>
        <time>2024-04-27T09:30:43Z</time>
      </trkpt>
      <trkpt lat="45.85054" lon="6.44685">
        <ele>2403.7</ele>
        <time>2024-04-27T09:30:44Z</time>
      </trkpt>
      <trkpt lat="45.85053" lon="6.44685">
        <ele>2403.7</ele>
        <time>2024-04-27T09:30:45Z</time>
      </trkpt>
      <trkpt lat="45.85053" lon="6.44685">
        <ele>2403.7</ele>
        <time>2024-04-27T09:30:46Z</time>
      </trkpt>
      <trkpt lat="45.85053" lon="6.44685">
        <ele>2403.7</ele>
        <time>2024-04-27T09:30:47Z</time>
      </trkpt>
      <trkpt lat="45.85052" lon="6.44685">
        <ele>2403.7</ele>
        <time>2024-04-27T09:30:48Z</time>
      </trkpt>
      <trkpt lat="45.85052" lon="6.44684">
        <ele>2403.7</ele>
        <time>2024-04-27T09:30:49Z</time>
      </trkpt>
      <trkpt lat="45.85052" lon="6.44684">
        <ele>2403.7</ele>
        <time>2024-04-27T09:30:50Z</time>
      </trkpt>
      <trkpt lat="45.85052" lon="6.44684">
        <ele>2403.7</ele>
        <time>2024-04-27T09:30:51Z</time>
      </trkpt>
      <trkpt lat="45.85052" lon="6.44684">
        <ele>2403.7</ele>
        <time>2024-04-27T09:30:52Z</time>
      </trkpt>
      <trkpt lat="45.85052" lon="6.44683">
        <ele>2404.6</ele>
        <time>2024-04-27T09:30:53Z</time>
      </trkpt>
      <trkpt lat="45.85052" lon="6.44683">
        <ele>2404.6</ele>
        <time>2024-04-27T09:30:54Z</time>
      </trkpt>
      <trkpt lat="45.85052" lon="6.44683">
        <ele>2404.6</ele>
        <time>2024-04-27T09:30:55Z</time>
      </trkpt>
      <trkpt lat="45.85051" lon="6.44683">
        <ele>2404.6</ele>
        <time>2024-04-27T09:30:56Z</time>
      </trkpt>
      <trkpt lat="45.85051" lon="6.44683">
        <ele>2404.6</ele>
        <time>2024-04-27T09:30:57Z</time>
      </trkpt>
      <trkpt lat="45.85051" lon="6.44683">
        <ele>2404.6</ele>
        <time>2024-04-27T09:30:58Z</time>
      </trkpt>
      <trkpt lat="45.85051" lon="6.44683">
        <ele>2405.7</ele>
        <time>2024-04-27T09:30:59Z</time>
      </trkpt>
      <trkpt lat="45.85051" lon="6.44683">
        <ele>2405.7</ele>
        <time>2024-04-27T09:31:00Z</time>
      </trkpt>
      <trkpt lat="45.85051" lon="6.44683">
        <ele>2405.7</ele>
        <time>2024-04-27T09:31:01Z</time>
      </trkpt>
      <trkpt lat="45.85051" lon="6.44683">
        <ele>2405.7</ele>
        <time>2024-04-27T09:31:02Z</time>
      </trkpt>
      <trkpt lat="45.85051" lon="6.44683">
        <ele>2406.6</ele>
        <time>2024-04-27T09:31:03Z</time>
      </trkpt>
      <trkpt lat="45.85051" lon="6.44683">
        <ele>2406.6</ele>
        <time>2024-04-27T09:31:04Z</time>
      </trkpt>
      <trkpt lat="45.85051" lon="6.44683">
        <ele>2406.6</ele>
        <time>2024-04-27T09:31:05Z</time>
      </trkpt>
      <trkpt lat="45.85051" lon="6.44683">
        <ele>2406.6</ele>
        <time>2024-04-27T09:31:06Z</time>
      </trkpt>
      <trkpt lat="45.85051" lon="6.44683">
        <ele>2406.6</ele>
        <time>2024-04-27T09:31:07Z</time>
      </trkpt>
      <trkpt lat="45.85051" lon="6.44683">
        <ele>2406.6</ele>
        <time>2024-04-27T09:31:08Z</time>
      </trkpt>
      <trkpt lat="45.85051" lon="6.44683">
        <ele>2406.6</ele>
        <time>2024-04-27T09:31:09Z</time>
      </trkpt>
      <trkpt lat="45.8505" lon="6.44684">
        <ele>2406.6</ele>
        <time>2024-04-27T09:31:10Z</time>
      </trkpt>
      <trkpt lat="45.8505" lon="6.44685">
        <ele>2406.6</ele>
        <time>2024-04-27T09:31:11Z</time>
      </trkpt>
      <trkpt lat="45.8505" lon="6.44685">
        <ele>2406.6</ele>
        <time>2024-04-27T09:31:12Z</time>
      </trkpt>
      <trkpt lat="45.8505" lon="6.44685">
        <ele>2406.6</ele>
        <time>2024-04-27T09:31:13Z</time>
      </trkpt>
      <trkpt lat="45.8505" lon="6.44685">
        <ele>2406.6</ele>
        <time>2024-04-27T09:31:14Z</time>
      </trkpt>
      <trkpt lat="45.8505" lon="6.44685">
        <ele>2406.6</ele>
        <time>2024-04-27T09:31:15Z</time>
      </trkpt>
      <trkpt lat="45.8505" lon="6.44685">
        <ele>2406.6</ele>
        <time>2024-04-27T09:31:16Z</time>
      </trkpt>
      <trkpt lat="45.8505" lon="6.44685">
        <ele>2406.6</ele>
        <time>2024-04-27T09:31:17Z</time>
      </trkpt>
      <trkpt lat="45.8505" lon="6.44685">
        <ele>2406.6</ele>
        <time>2024-04-27T09:31:18Z</time>
      </trkpt>
      <trkpt lat="45.85049" lon="6.44685">
        <ele>2406.6</ele>
        <time>2024-04-27T09:31:19Z</time>
      </trkpt>
      <trkpt lat="45.85049" lon="6.44685">
        <ele>2406.6</ele>
        <time>2024-04-27T09:31:20Z</time>
      </trkpt>
      <trkpt lat="45.85049" lon="6.44685">
        <ele>2406.6</ele>
        <time>2024-04-27T09:31:21Z</time>
      </trkpt>
      <trkpt lat="45.85049" lon="6.44685">
        <ele>2406.6</ele>
        <time>2024-04-27T09:31:22Z</time>
      </trkpt>
      <trkpt lat="45.85049" lon="6.44685">
        <ele>2406.6</ele>
        <time>2024-04-27T09:31:23Z</time>
      </trkpt>
      <trkpt lat="45.85049" lon="6.44685">
        <ele>2406.6</ele>
        <time>2024-04-27T09:31:24Z</time>
      </trkpt>
      <trkpt lat="45.85049" lon="6.44685">
        <ele>2406.6</ele>
        <time>2024-04-27T09:31:25Z</time>
      </trkpt>
      <trkpt lat="45.85049" lon="6.44685">
        <ele>2406.6</ele>
        <time>2024-04-27T09:31:26Z</time>
      </trkpt>
      <trkpt lat="45.85049" lon="6.44685">
        <ele>2406.6</ele>
        <time>2024-04-27T09:31:27Z</time>
      </trkpt>
      <trkpt lat="45.85049" lon="6.44685">
        <ele>2406.6</ele>
        <time>2024-04-27T09:31:28Z</time>
      </trkpt>
      <trkpt lat="45.85048" lon="6.44685">
        <ele>2406.6</ele>
        <time>2024-04-27T09:31:29Z</time>
      </trkpt>
      <trkpt lat="45.85048" lon="6.44685">
        <ele>2406.6</ele>
        <time>2024-04-27T09:31:30Z</time>
      </trkpt>
      <trkpt lat="45.85048" lon="6.44684">
        <ele>2406.6</ele>
        <time>2024-04-27T09:31:31Z</time>
      </trkpt>
      <trkpt lat="45.85048" lon="6.44684">
        <ele>2406.6</ele>
        <time>2024-04-27T09:31:32Z</time>
      </trkpt>
      <trkpt lat="45.85048" lon="6.44684">
        <ele>2406.6</ele>
        <time>2024-04-27T09:31:33Z</time>
      </trkpt>
      <trkpt lat="45.85048" lon="6.44683">
        <ele>2406.6</ele>
        <time>2024-04-27T09:31:34Z</time>
      </trkpt>
      <trkpt lat="45.85047" lon="6.44683">
        <ele>2406.6</ele>
        <time>2024-04-27T09:31:35Z</time>
      </trkpt>
      <trkpt lat="45.85047" lon="6.44683">
        <ele>2406.6</ele>
        <time>2024-04-27T09:31:36Z</time>
      </trkpt>
      <trkpt lat="45.85047" lon="6.44683">
        <ele>2406.6</ele>
        <time>2024-04-27T09:31:37Z</time>
      </trkpt>
      <trkpt lat="45.85047" lon="6.44683">
        <ele>2406.6</ele>
        <time>2024-04-27T09:31:38Z</time>
      </trkpt>
      <trkpt lat="45.85047" lon="6.44683">
        <ele>2406.6</ele>
        <time>2024-04-27T09:31:39Z</time>
      </trkpt>
      <trkpt lat="45.85047" lon="6.44683">
        <ele>2406.6</ele>
        <time>2024-04-27T09:31:40Z</time>
      </trkpt>
      <trkpt lat="45.85047" lon="6.44682">
        <ele>2406.6</ele>
        <time>2024-04-27T09:31:41Z</time>
      </trkpt>
      <trkpt lat="45.85047" lon="6.44682">
        <ele>2406.6</ele>
        <time>2024-04-27T09:31:42Z</time>
      </trkpt>
      <trkpt lat="45.85047" lon="6.44682">
        <ele>2406.6</ele>
        <time>2024-04-27T09:31:43Z</time>
      </trkpt>
      <trkpt lat="45.85046" lon="6.44682">
        <ele>2406.6</ele>
        <time>2024-04-27T09:31:44Z</time>
      </trkpt>
      <trkpt lat="45.85046" lon="6.44682">
        <ele>2406.6</ele>
        <time>2024-04-27T09:31:45Z</time>
      </trkpt>
      <trkpt lat="45.85046" lon="6.44682">
        <ele>2406.6</ele>
        <time>2024-04-27T09:31:46Z</time>
      </trkpt>
      <trkpt lat="45.85046" lon="6.44682">
        <ele>2406.6</ele>
        <time>2024-04-27T09:31:47Z</time>
      </trkpt>
      <trkpt lat="45.85046" lon="6.44682">
        <ele>2406.6</ele>
        <time>2024-04-27T09:31:48Z</time>
      </trkpt>
      <trkpt lat="45.85046" lon="6.44681">
        <ele>2406.6</ele>
        <time>2024-04-27T09:31:49Z</time>
      </trkpt>
      <trkpt lat="45.85046" lon="6.44681">
        <ele>2406.6</ele>
        <time>2024-04-27T09:31:50Z</time>
      </trkpt>
      <trkpt lat="45.85046" lon="6.44681">
        <ele>2406.6</ele>
        <time>2024-04-27T09:31:51Z</time>
      </trkpt>
      <trkpt lat="45.85046" lon="6.44681">
        <ele>2406.6</ele>
        <time>2024-04-27T09:31:52Z</time>
      </trkpt>
      <trkpt lat="45.85046" lon="6.44681">
        <ele>2406.6</ele>
        <time>2024-04-27T09:31:53Z</time>
      </trkpt>
      <trkpt lat="45.85046" lon="6.44681">
        <ele>2406.6</ele>
        <time>2024-04-27T09:31:54Z</time>
      </trkpt>
      <trkpt lat="45.85046" lon="6.44681">
        <ele>2406.6</ele>
        <time>2024-04-27T09:31:55Z</time>
      </trkpt>
      <trkpt lat="45.85046" lon="6.44681">
        <ele>2406.6</ele>
        <time>2024-04-27T09:31:56Z</time>
      </trkpt>
      <trkpt lat="45.85046" lon="6.44681">
        <ele>2406.6</ele>
        <time>2024-04-27T09:31:57Z</time>
      </trkpt>
      <trkpt lat="45.85046" lon="6.4468">
        <ele>2406.6</ele>
        <time>2024-04-27T09:31:58Z</time>
      </trkpt>
      <trkpt lat="45.85046" lon="6.4468">
        <ele>2406.6</ele>
        <time>2024-04-27T09:31:59Z</time>
      </trkpt>
      <trkpt lat="45.85046" lon="6.4468">
        <ele>2406.6</ele>
        <time>2024-04-27T09:32:00Z</time>
      </trkpt>
      <trkpt lat="45.85046" lon="6.4468">
        <ele>2406.6</ele>
        <time>2024-04-27T09:32:01Z</time>
      </trkpt>
      <trkpt lat="45.85046" lon="6.4468">
        <ele>2406.6</ele>
        <time>2024-04-27T09:32:02Z</time>
      </trkpt>
      <trkpt lat="45.85046" lon="6.4468">
        <ele>2406.6</ele>
        <time>2024-04-27T09:32:03Z</time>
      </trkpt>
      <trkpt lat="45.85046" lon="6.4468">
        <ele>2406.6</ele>
        <time>2024-04-27T09:32:04Z</time>
      </trkpt>
      <trkpt lat="45.85046" lon="6.4468">
        <ele>2406.6</ele>
        <time>2024-04-27T09:32:05Z</time>
      </trkpt>
      <trkpt lat="45.85046" lon="6.4468">
        <ele>2406.6</ele>
        <time>2024-04-27T09:32:06Z</time>
      </trkpt>
      <trkpt lat="45.85046" lon="6.4468">
        <ele>2406.6</ele>
        <time>2024-04-27T09:32:07Z</time>
      </trkpt>
      <trkpt lat="45.85046" lon="6.4468">
        <ele>2406.6</ele>
        <time>2024-04-27T09:32:08Z</time>
      </trkpt>
      <trkpt lat="45.85046" lon="6.4468">
        <ele>2406.6</ele>
        <time>2024-04-27T09:32:09Z</time>
      </trkpt>
      <trkpt lat="45.85046" lon="6.4468">
        <ele>2406.6</ele>
        <time>2024-04-27T09:32:10Z</time>
      </trkpt>
      <trkpt lat="45.85046" lon="6.4468">
        <ele>2406.6</ele>
        <time>2024-04-27T09:32:11Z</time>
      </trkpt>
      <trkpt lat="45.85046" lon="6.4468">
        <ele>2406.6</ele>
        <time>2024-04-27T09:32:12Z</time>
      </trkpt>
      <trkpt lat="45.85046" lon="6.44679">
        <ele>2406.6</ele>
        <time>2024-04-27T09:32:13Z</time>
      </trkpt>
      <trkpt lat="45.85046" lon="6.44679">
        <ele>2406.6</ele>
        <time>2024-04-27T09:32:14Z</time>
      </trkpt>
      <trkpt lat="45.85046" lon="6.44679">
        <ele>2406.6</ele>
        <time>2024-04-27T09:32:15Z</time>
      </trkpt>
      <trkpt lat="45.85046" lon="6.44679">
        <ele>2406.6</ele>
        <time>2024-04-27T09:32:16Z</time>
      </trkpt>
      <trkpt lat="45.85046" lon="6.44679">
        <ele>2406.6</ele>
        <time>2024-04-27T09:32:17Z</time>
      </trkpt>
      <trkpt lat="45.85046" lon="6.44679">
        <ele>2406.6</ele>
        <time>2024-04-27T09:32:18Z</time>
      </trkpt>
      <trkpt lat="45.85046" lon="6.44679">
        <ele>2406.6</ele>
        <time>2024-04-27T09:32:19Z</time>
      </trkpt>
      <trkpt lat="45.85046" lon="6.44679">
        <ele>2406.6</ele>
        <time>2024-04-27T09:32:20Z</time>
      </trkpt>
      <trkpt lat="45.85046" lon="6.44679">
        <ele>2407.6</ele>
        <time>2024-04-27T09:32:21Z</time>
      </trkpt>
      <trkpt lat="45.85046" lon="6.44679">
        <ele>2407.6</ele>
        <time>2024-04-27T09:32:22Z</time>
      </trkpt>
      <trkpt lat="45.85046" lon="6.44679">
        <ele>2407.6</ele>
        <time>2024-04-27T09:32:23Z</time>
      </trkpt>
      <trkpt lat="45.85046" lon="6.44678">
        <ele>2407.6</ele>
        <time>2024-04-27T09:32:24Z</time>
      </trkpt>
      <trkpt lat="45.85046" lon="6.44678">
        <ele>2407.6</ele>
        <time>2024-04-27T09:32:25Z</time>
      </trkpt>
      <trkpt lat="45.85046" lon="6.44678">
        <ele>2407.6</ele>
        <time>2024-04-27T09:32:26Z</time>
      </trkpt>
      <trkpt lat="45.85046" lon="6.44678">
        <ele>2408.7</ele>
        <time>2024-04-27T09:32:27Z</time>
      </trkpt>
      <trkpt lat="45.85046" lon="6.44678">
        <ele>2408.7</ele>
        <time>2024-04-27T09:32:28Z</time>
      </trkpt>
      <trkpt lat="45.85046" lon="6.44678">
        <ele>2408.7</ele>
        <time>2024-04-27T09:32:29Z</time>
      </trkpt>
      <trkpt lat="45.85046" lon="6.44678">
        <ele>2408.7</ele>
        <time>2024-04-27T09:32:30Z</time>
      </trkpt>
      <trkpt lat="45.85046" lon="6.44678">
        <ele>2409.6</ele>
        <time>2024-04-27T09:32:31Z</time>
      </trkpt>
      <trkpt lat="45.85046" lon="6.44678">
        <ele>2409.6</ele>
        <time>2024-04-27T09:32:32Z</time>
      </trkpt>
      <trkpt lat="45.85046" lon="6.44678">
        <ele>2409.6</ele>
        <time>2024-04-27T09:32:33Z</time>
      </trkpt>
      <trkpt lat="45.85046" lon="6.44678">
        <ele>2409.6</ele>
        <time>2024-04-27T09:32:34Z</time>
      </trkpt>
      <trkpt lat="45.85046" lon="6.44678">
        <ele>2409.6</ele>
        <time>2024-04-27T09:32:35Z</time>
      </trkpt>
      <trkpt lat="45.85046" lon="6.44678">
        <ele>2409.6</ele>
        <time>2024-04-27T09:32:36Z</time>
      </trkpt>
      <trkpt lat="45.85046" lon="6.44678">
        <ele>2409.6</ele>
        <time>2024-04-27T09:32:37Z</time>
      </trkpt>
      <trkpt lat="45.85046" lon="6.44678">
        <ele>2409.6</ele>
        <time>2024-04-27T09:32:38Z</time>
      </trkpt>
      <trkpt lat="45.85046" lon="6.44678">
        <ele>2409.6</ele>
        <time>2024-04-27T09:32:39Z</time>
      </trkpt>
      <trkpt lat="45.85046" lon="6.44678">
        <ele>2409.6</ele>
        <time>2024-04-27T09:32:40Z</time>
      </trkpt>
      <trkpt lat="45.85046" lon="6.44678">
        <ele>2409.6</ele>
        <time>2024-04-27T09:32:41Z</time>
      </trkpt>
      <trkpt lat="45.85045" lon="6.44678">
        <ele>2409.6</ele>
        <time>2024-04-27T09:32:42Z</time>
      </trkpt>
      <trkpt lat="45.85045" lon="6.44678">
        <ele>2409.6</ele>
        <time>2024-04-27T09:32:43Z</time>
      </trkpt>
      <trkpt lat="45.85045" lon="6.44678">
        <ele>2409.6</ele>
        <time>2024-04-27T09:32:44Z</time>
      </trkpt>
      <trkpt lat="45.85045" lon="6.44677">
        <ele>2409.6</ele>
        <time>2024-04-27T09:32:45Z</time>
      </trkpt>
      <trkpt lat="45.85045" lon="6.44677">
        <ele>2409.6</ele>
        <time>2024-04-27T09:32:46Z</time>
      </trkpt>
      <trkpt lat="45.85045" lon="6.44678">
        <ele>2410.7</ele>
        <time>2024-04-27T09:32:47Z</time>
      </trkpt>
      <trkpt lat="45.85045" lon="6.44678">
        <ele>2410.7</ele>
        <time>2024-04-27T09:32:48Z</time>
      </trkpt>
      <trkpt lat="45.85044" lon="6.44678">
        <ele>2410.7</ele>
        <time>2024-04-27T09:32:49Z</time>
      </trkpt>
      <trkpt lat="45.85044" lon="6.44678">
        <ele>2410.7</ele>
        <time>2024-04-27T09:32:50Z</time>
      </trkpt>
      <trkpt lat="45.85044" lon="6.44678">
        <ele>2410.7</ele>
        <time>2024-04-27T09:32:51Z</time>
      </trkpt>
      <trkpt lat="45.85044" lon="6.44678">
        <ele>2410.7</ele>
        <time>2024-04-27T09:32:52Z</time>
      </trkpt>
      <trkpt lat="45.85044" lon="6.44678">
        <ele>2410.7</ele>
        <time>2024-04-27T09:32:53Z</time>
      </trkpt>
      <trkpt lat="45.85044" lon="6.44678">
        <ele>2410.7</ele>
        <time>2024-04-27T09:32:54Z</time>
      </trkpt>
      <trkpt lat="45.85044" lon="6.44678">
        <ele>2410.7</ele>
        <time>2024-04-27T09:32:55Z</time>
      </trkpt>
      <trkpt lat="45.85044" lon="6.44678">
        <ele>2410.7</ele>
        <time>2024-04-27T09:32:56Z</time>
      </trkpt>
      <trkpt lat="45.85044" lon="6.44678">
        <ele>2410.7</ele>
        <time>2024-04-27T09:32:57Z</time>
      </trkpt>
      <trkpt lat="45.85044" lon="6.44678">
        <ele>2410.7</ele>
        <time>2024-04-27T09:32:58Z</time>
      </trkpt>
      <trkpt lat="45.85044" lon="6.44678">
        <ele>2410.7</ele>
        <time>2024-04-27T09:32:59Z</time>
      </trkpt>
      <trkpt lat="45.85044" lon="6.44678">
        <ele>2410.7</ele>
        <time>2024-04-27T09:33:00Z</time>
      </trkpt>
      <trkpt lat="45.85044" lon="6.44679">
        <ele>2410.7</ele>
        <time>2024-04-27T09:33:01Z</time>
      </trkpt>
      <trkpt lat="45.85044" lon="6.44679">
        <ele>2410.7</ele>
        <time>2024-04-27T09:33:02Z</time>
      </trkpt>
      <trkpt lat="45.85044" lon="6.44679">
        <ele>2410.7</ele>
        <time>2024-04-27T09:33:03Z</time>
      </trkpt>
      <trkpt lat="45.85043" lon="6.44679">
        <ele>2410.7</ele>
        <time>2024-04-27T09:33:04Z</time>
      </trkpt>
      <trkpt lat="45.85043" lon="6.44679">
        <ele>2410.7</ele>
        <time>2024-04-27T09:33:05Z</time>
      </trkpt>
      <trkpt lat="45.85043" lon="6.44679">
        <ele>2410.7</ele>
        <time>2024-04-27T09:33:06Z</time>
      </trkpt>
      <trkpt lat="45.85043" lon="6.44679">
        <ele>2411.6</ele>
        <time>2024-04-27T09:33:07Z</time>
      </trkpt>
      <trkpt lat="45.85043" lon="6.44679">
        <ele>2411.6</ele>
        <time>2024-04-27T09:33:08Z</time>
      </trkpt>
      <trkpt lat="45.85043" lon="6.44679">
        <ele>2411.6</ele>
        <time>2024-04-27T09:33:09Z</time>
      </trkpt>
      <trkpt lat="45.85043" lon="6.44679">
        <ele>2411.6</ele>
        <time>2024-04-27T09:33:10Z</time>
      </trkpt>
      <trkpt lat="45.85043" lon="6.44679">
        <ele>2412.7</ele>
        <time>2024-04-27T09:33:11Z</time>
      </trkpt>
      <trkpt lat="45.85043" lon="6.44679">
        <ele>2412.7</ele>
        <time>2024-04-27T09:33:12Z</time>
      </trkpt>
      <trkpt lat="45.85043" lon="6.4468">
        <ele>2412.7</ele>
        <time>2024-04-27T09:33:13Z</time>
      </trkpt>
      <trkpt lat="45.85042" lon="6.44681">
        <ele>2412.7</ele>
        <time>2024-04-27T09:33:14Z</time>
      </trkpt>
      <trkpt lat="45.85042" lon="6.44682">
        <ele>2412.7</ele>
        <time>2024-04-27T09:33:15Z</time>
      </trkpt>
      <trkpt lat="45.85041" lon="6.44683">
        <ele>2412.7</ele>
        <time>2024-04-27T09:33:16Z</time>
      </trkpt>
      <trkpt lat="45.85041" lon="6.44683">
        <ele>2412.7</ele>
        <time>2024-04-27T09:33:17Z</time>
      </trkpt>
      <trkpt lat="45.85041" lon="6.44683">
        <ele>2412.7</ele>
        <time>2024-04-27T09:33:18Z</time>
      </trkpt>
      <trkpt lat="45.85041" lon="6.44683">
        <ele>2413.6</ele>
        <time>2024-04-27T09:33:19Z</time>
      </trkpt>
      <trkpt lat="45.85041" lon="6.44683">
        <ele>2413.6</ele>
        <time>2024-04-27T09:33:20Z</time>
      </trkpt>
      <trkpt lat="45.85041" lon="6.44683">
        <ele>2413.6</ele>
        <time>2024-04-27T09:33:21Z</time>
      </trkpt>
      <trkpt lat="45.85041" lon="6.44683">
        <ele>2413.6</ele>
        <time>2024-04-27T09:33:22Z</time>
      </trkpt>
      <trkpt lat="45.8504" lon="6.44685">
        <ele>2413.6</ele>
        <time>2024-04-27T09:33:23Z</time>
      </trkpt>
      <trkpt lat="45.8504" lon="6.44685">
        <ele>2413.6</ele>
        <time>2024-04-27T09:33:24Z</time>
      </trkpt>
      <trkpt lat="45.8504" lon="6.44685">
        <ele>2413.6</ele>
        <time>2024-04-27T09:33:25Z</time>
      </trkpt>
      <trkpt lat="45.8504" lon="6.44686">
        <ele>2413.6</ele>
        <time>2024-04-27T09:33:26Z</time>
      </trkpt>
      <trkpt lat="45.8504" lon="6.44686">
        <ele>2413.6</ele>
        <time>2024-04-27T09:33:27Z</time>
      </trkpt>
      <trkpt lat="45.8504" lon="6.44687">
        <ele>2413.6</ele>
        <time>2024-04-27T09:33:28Z</time>
      </trkpt>
      <trkpt lat="45.85039" lon="6.44687">
        <ele>2414.7</ele>
        <time>2024-04-27T09:33:29Z</time>
      </trkpt>
      <trkpt lat="45.85039" lon="6.44687">
        <ele>2414.7</ele>
        <time>2024-04-27T09:33:30Z</time>
      </trkpt>
      <trkpt lat="45.85039" lon="6.44687">
        <ele>2414.7</ele>
        <time>2024-04-27T09:33:31Z</time>
      </trkpt>
      <trkpt lat="45.85039" lon="6.44687">
        <ele>2414.7</ele>
        <time>2024-04-27T09:33:32Z</time>
      </trkpt>
      <trkpt lat="45.85039" lon="6.44688">
        <ele>2415.7</ele>
        <time>2024-04-27T09:33:33Z</time>
      </trkpt>
      <trkpt lat="45.85039" lon="6.44688">
        <ele>2415.7</ele>
        <time>2024-04-27T09:33:34Z</time>
      </trkpt>
      <trkpt lat="45.85039" lon="6.44688">
        <ele>2415.7</ele>
        <time>2024-04-27T09:33:35Z</time>
      </trkpt>
      <trkpt lat="45.85039" lon="6.44689">
        <ele>2415.7</ele>
        <time>2024-04-27T09:33:36Z</time>
      </trkpt>
      <trkpt lat="45.85038" lon="6.44689">
        <ele>2415.7</ele>
        <time>2024-04-27T09:33:37Z</time>
      </trkpt>
      <trkpt lat="45.85038" lon="6.44689">
        <ele>2415.7</ele>
        <time>2024-04-27T09:33:38Z</time>
      </trkpt>
      <trkpt lat="45.85038" lon="6.4469">
        <ele>2415.7</ele>
        <time>2024-04-27T09:33:39Z</time>
      </trkpt>
      <trkpt lat="45.85038" lon="6.4469">
        <ele>2415.7</ele>
        <time>2024-04-27T09:33:40Z</time>
      </trkpt>
      <trkpt lat="45.85038" lon="6.4469">
        <ele>2415.7</ele>
        <time>2024-04-27T09:33:41Z</time>
      </trkpt>
      <trkpt lat="45.85038" lon="6.4469">
        <ele>2415.7</ele>
        <time>2024-04-27T09:33:42Z</time>
      </trkpt>
      <trkpt lat="45.85038" lon="6.44691">
        <ele>2415.7</ele>
        <time>2024-04-27T09:33:43Z</time>
      </trkpt>
      <trkpt lat="45.85038" lon="6.44691">
        <ele>2415.7</ele>
        <time>2024-04-27T09:33:44Z</time>
      </trkpt>
      <trkpt lat="45.85038" lon="6.44692">
        <ele>2415.7</ele>
        <time>2024-04-27T09:33:45Z</time>
      </trkpt>
      <trkpt lat="45.85038" lon="6.44692">
        <ele>2415.7</ele>
        <time>2024-04-27T09:33:46Z</time>
      </trkpt>
      <trkpt lat="45.85038" lon="6.44692">
        <ele>2416.6</ele>
        <time>2024-04-27T09:33:47Z</time>
      </trkpt>
      <trkpt lat="45.85038" lon="6.44692">
        <ele>2416.6</ele>
        <time>2024-04-27T09:33:48Z</time>
      </trkpt>
      <trkpt lat="45.85038" lon="6.44692">
        <ele>2416.6</ele>
        <time>2024-04-27T09:33:49Z</time>
      </trkpt>
      <trkpt lat="45.85038" lon="6.44692">
        <ele>2416.6</ele>
        <time>2024-04-27T09:33:50Z</time>
      </trkpt>
      <trkpt lat="45.85038" lon="6.44692">
        <ele>2416.6</ele>
        <time>2024-04-27T09:33:51Z</time>
      </trkpt>
      <trkpt lat="45.85038" lon="6.44693">
        <ele>2416.6</ele>
        <time>2024-04-27T09:33:52Z</time>
      </trkpt>
      <trkpt lat="45.85038" lon="6.44693">
        <ele>2416.6</ele>
        <time>2024-04-27T09:33:53Z</time>
      </trkpt>
      <trkpt lat="45.85038" lon="6.44693">
        <ele>2416.6</ele>
        <time>2024-04-27T09:33:54Z</time>
      </trkpt>
      <trkpt lat="45.85038" lon="6.44693">
        <ele>2418.6</ele>
        <time>2024-04-27T09:33:55Z</time>
      </trkpt>
      <trkpt lat="45.85038" lon="6.44694">
        <ele>2418.6</ele>
        <time>2024-04-27T09:33:56Z</time>
      </trkpt>
      <trkpt lat="45.85038" lon="6.44694">
        <ele>2419.7</ele>
        <time>2024-04-27T09:33:57Z</time>
      </trkpt>
      <trkpt lat="45.85038" lon="6.44694">
        <ele>2419.7</ele>
        <time>2024-04-27T09:33:58Z</time>
      </trkpt>
      <trkpt lat="45.85038" lon="6.44694">
        <ele>2419.7</ele>
        <time>2024-04-27T09:33:59Z</time>
      </trkpt>
      <trkpt lat="45.85038" lon="6.44694">
        <ele>2419.7</ele>
        <time>2024-04-27T09:34:00Z</time>
      </trkpt>
      <trkpt lat="45.85038" lon="6.44694">
        <ele>2419.7</ele>
        <time>2024-04-27T09:34:01Z</time>
      </trkpt>
      <trkpt lat="45.85037" lon="6.44695">
        <ele>2419.7</ele>
        <time>2024-04-27T09:34:02Z</time>
      </trkpt>
      <trkpt lat="45.85037" lon="6.44695">
        <ele>2419.7</ele>
        <time>2024-04-27T09:34:03Z</time>
      </trkpt>
      <trkpt lat="45.85037" lon="6.44695">
        <ele>2419.7</ele>
        <time>2024-04-27T09:34:04Z</time>
      </trkpt>
      <trkpt lat="45.85037" lon="6.44695">
        <ele>2419.7</ele>
        <time>2024-04-27T09:34:05Z</time>
      </trkpt>
      <trkpt lat="45.85037" lon="6.44695">
        <ele>2419.7</ele>
        <time>2024-04-27T09:34:06Z</time>
      </trkpt>
      <trkpt lat="45.85037" lon="6.44696">
        <ele>2419.7</ele>
        <time>2024-04-27T09:34:07Z</time>
      </trkpt>
      <trkpt lat="45.85037" lon="6.44696">
        <ele>2419.7</ele>
        <time>2024-04-27T09:34:08Z</time>
      </trkpt>
      <trkpt lat="45.85037" lon="6.44696">
        <ele>2420.6</ele>
        <time>2024-04-27T09:34:09Z</time>
      </trkpt>
      <trkpt lat="45.85037" lon="6.44696">
        <ele>2420.6</ele>
        <time>2024-04-27T09:34:10Z</time>
      </trkpt>
      <trkpt lat="45.85037" lon="6.44697">
        <ele>2420.6</ele>
        <time>2024-04-27T09:34:11Z</time>
      </trkpt>
      <trkpt lat="45.85037" lon="6.44697">
        <ele>2420.6</ele>
        <time>2024-04-27T09:34:12Z</time>
      </trkpt>
      <trkpt lat="45.85037" lon="6.44697">
        <ele>2420.6</ele>
        <time>2024-04-27T09:34:13Z</time>
      </trkpt>
      <trkpt lat="45.85036" lon="6.44697">
        <ele>2420.6</ele>
        <time>2024-04-27T09:34:14Z</time>
      </trkpt>
      <trkpt lat="45.85036" lon="6.44697">
        <ele>2420.6</ele>
        <time>2024-04-27T09:34:15Z</time>
      </trkpt>
      <trkpt lat="45.85036" lon="6.44697">
        <ele>2420.6</ele>
        <time>2024-04-27T09:34:16Z</time>
      </trkpt>
      <trkpt lat="45.85036" lon="6.44697">
        <ele>2420.6</ele>
        <time>2024-04-27T09:34:17Z</time>
      </trkpt>
      <trkpt lat="45.85036" lon="6.44698">
        <ele>2420.6</ele>
        <time>2024-04-27T09:34:18Z</time>
      </trkpt>
      <trkpt lat="45.85036" lon="6.44698">
        <ele>2420.6</ele>
        <time>2024-04-27T09:34:19Z</time>
      </trkpt>
      <trkpt lat="45.85036" lon="6.44698">
        <ele>2420.6</ele>
        <time>2024-04-27T09:34:20Z</time>
      </trkpt>
      <trkpt lat="45.85036" lon="6.44698">
        <ele>2420.6</ele>
        <time>2024-04-27T09:34:21Z</time>
      </trkpt>
      <trkpt lat="45.85036" lon="6.44698">
        <ele>2420.6</ele>
        <time>2024-04-27T09:34:22Z</time>
      </trkpt>
      <trkpt lat="45.85036" lon="6.44698">
        <ele>2420.6</ele>
        <time>2024-04-27T09:34:23Z</time>
      </trkpt>
      <trkpt lat="45.85036" lon="6.44698">
        <ele>2420.6</ele>
        <time>2024-04-27T09:34:24Z</time>
      </trkpt>
      <trkpt lat="45.85036" lon="6.44699">
        <ele>2420.6</ele>
        <time>2024-04-27T09:34:25Z</time>
      </trkpt>
      <trkpt lat="45.85036" lon="6.44699">
        <ele>2420.6</ele>
        <time>2024-04-27T09:34:26Z</time>
      </trkpt>
      <trkpt lat="45.85036" lon="6.44699">
        <ele>2420.6</ele>
        <time>2024-04-27T09:34:27Z</time>
      </trkpt>
      <trkpt lat="45.85036" lon="6.44699">
        <ele>2420.6</ele>
        <time>2024-04-27T09:34:28Z</time>
      </trkpt>
      <trkpt lat="45.85036" lon="6.44699">
        <ele>2420.6</ele>
        <time>2024-04-27T09:34:29Z</time>
      </trkpt>
      <trkpt lat="45.85036" lon="6.44699">
        <ele>2420.6</ele>
        <time>2024-04-27T09:34:30Z</time>
      </trkpt>
      <trkpt lat="45.85036" lon="6.44699">
        <ele>2420.6</ele>
        <time>2024-04-27T09:34:31Z</time>
      </trkpt>
      <trkpt lat="45.85036" lon="6.44699">
        <ele>2420.6</ele>
        <time>2024-04-27T09:34:32Z</time>
      </trkpt>
      <trkpt lat="45.85036" lon="6.44699">
        <ele>2421.7</ele>
        <time>2024-04-27T09:34:33Z</time>
      </trkpt>
      <trkpt lat="45.85036" lon="6.44699">
        <ele>2421.7</ele>
        <time>2024-04-27T09:34:34Z</time>
      </trkpt>
      <trkpt lat="45.85036" lon="6.44699">
        <ele>2421.7</ele>
        <time>2024-04-27T09:34:35Z</time>
      </trkpt>
      <trkpt lat="45.85036" lon="6.447">
        <ele>2421.7</ele>
        <time>2024-04-27T09:34:36Z</time>
      </trkpt>
      <trkpt lat="45.85036" lon="6.447">
        <ele>2421.7</ele>
        <time>2024-04-27T09:34:37Z</time>
      </trkpt>
      <trkpt lat="45.85036" lon="6.44701">
        <ele>2421.7</ele>
        <time>2024-04-27T09:34:38Z</time>
      </trkpt>
      <trkpt lat="45.85036" lon="6.44701">
        <ele>2421.7</ele>
        <time>2024-04-27T09:34:39Z</time>
      </trkpt>
      <trkpt lat="45.85036" lon="6.44701">
        <ele>2421.7</ele>
        <time>2024-04-27T09:34:40Z</time>
      </trkpt>
      <trkpt lat="45.85036" lon="6.44701">
        <ele>2421.7</ele>
        <time>2024-04-27T09:34:41Z</time>
      </trkpt>
      <trkpt lat="45.85036" lon="6.44701">
        <ele>2421.7</ele>
        <time>2024-04-27T09:34:42Z</time>
      </trkpt>
      <trkpt lat="45.85036" lon="6.44701">
        <ele>2422.6</ele>
        <time>2024-04-27T09:34:43Z</time>
      </trkpt>
      <trkpt lat="45.85036" lon="6.44701">
        <ele>2422.6</ele>
        <time>2024-04-27T09:34:44Z</time>
      </trkpt>
      <trkpt lat="45.85035" lon="6.44701">
        <ele>2422.6</ele>
        <time>2024-04-27T09:34:45Z</time>
      </trkpt>
      <trkpt lat="45.85035" lon="6.44701">
        <ele>2422.6</ele>
        <time>2024-04-27T09:34:46Z</time>
      </trkpt>
      <trkpt lat="45.85035" lon="6.44701">
        <ele>2422.6</ele>
        <time>2024-04-27T09:34:47Z</time>
      </trkpt>
      <trkpt lat="45.85035" lon="6.44701">
        <ele>2422.6</ele>
        <time>2024-04-27T09:34:48Z</time>
      </trkpt>
      <trkpt lat="45.85035" lon="6.44701">
        <ele>2423.6</ele>
        <time>2024-04-27T09:34:49Z</time>
      </trkpt>
      <trkpt lat="45.85035" lon="6.44701">
        <ele>2423.6</ele>
        <time>2024-04-27T09:34:50Z</time>
      </trkpt>
      <trkpt lat="45.85035" lon="6.44702">
        <ele>2423.6</ele>
        <time>2024-04-27T09:34:51Z</time>
      </trkpt>
      <trkpt lat="45.85035" lon="6.44702">
        <ele>2423.6</ele>
        <time>2024-04-27T09:34:52Z</time>
      </trkpt>
      <trkpt lat="45.85035" lon="6.44702">
        <ele>2423.6</ele>
        <time>2024-04-27T09:34:53Z</time>
      </trkpt>
      <trkpt lat="45.85035" lon="6.44702">
        <ele>2423.6</ele>
        <time>2024-04-27T09:34:54Z</time>
      </trkpt>
      <trkpt lat="45.85035" lon="6.44702">
        <ele>2423.6</ele>
        <time>2024-04-27T09:34:55Z</time>
      </trkpt>
      <trkpt lat="45.85035" lon="6.44702">
        <ele>2423.6</ele>
        <time>2024-04-27T09:34:56Z</time>
      </trkpt>
      <trkpt lat="45.85035" lon="6.44702">
        <ele>2424.7</ele>
        <time>2024-04-27T09:34:57Z</time>
      </trkpt>
      <trkpt lat="45.85035" lon="6.44702">
        <ele>2424.7</ele>
        <time>2024-04-27T09:34:58Z</time>
      </trkpt>
      <trkpt lat="45.85035" lon="6.44702">
        <ele>2424.7</ele>
        <time>2024-04-27T09:34:59Z</time>
      </trkpt>
      <trkpt lat="45.85035" lon="6.44702">
        <ele>2424.7</ele>
        <time>2024-04-27T09:35:00Z</time>
      </trkpt>
      <trkpt lat="45.85035" lon="6.44702">
        <ele>2425.6</ele>
        <time>2024-04-27T09:35:01Z</time>
      </trkpt>
      <trkpt lat="45.85035" lon="6.44702">
        <ele>2425.6</ele>
        <time>2024-04-27T09:35:02Z</time>
      </trkpt>
      <trkpt lat="45.85034" lon="6.44702">
        <ele>2425.6</ele>
        <time>2024-04-27T09:35:03Z</time>
      </trkpt>
      <trkpt lat="45.85034" lon="6.44702">
        <ele>2425.6</ele>
        <time>2024-04-27T09:35:04Z</time>
      </trkpt>
      <trkpt lat="45.85034" lon="6.44702">
        <ele>2425.6</ele>
        <time>2024-04-27T09:35:05Z</time>
      </trkpt>
      <trkpt lat="45.85034" lon="6.44702">
        <ele>2425.6</ele>
        <time>2024-04-27T09:35:06Z</time>
      </trkpt>
      <trkpt lat="45.85034" lon="6.44702">
        <ele>2426.7</ele>
        <time>2024-04-27T09:35:07Z</time>
      </trkpt>
      <trkpt lat="45.85034" lon="6.44702">
        <ele>2426.7</ele>
        <time>2024-04-27T09:35:08Z</time>
      </trkpt>
      <trkpt lat="45.85034" lon="6.44702">
        <ele>2426.7</ele>
        <time>2024-04-27T09:35:09Z</time>
      </trkpt>
      <trkpt lat="45.85034" lon="6.44702">
        <ele>2426.7</ele>
        <time>2024-04-27T09:35:10Z</time>
      </trkpt>
      <trkpt lat="45.85034" lon="6.44703">
        <ele>2427.6</ele>
        <time>2024-04-27T09:35:11Z</time>
      </trkpt>
      <trkpt lat="45.85033" lon="6.44703">
        <ele>2427.6</ele>
        <time>2024-04-27T09:35:12Z</time>
      </trkpt>
      <trkpt lat="45.85033" lon="6.44703">
        <ele>2427.6</ele>
        <time>2024-04-27T09:35:13Z</time>
      </trkpt>
      <trkpt lat="45.85033" lon="6.44703">
        <ele>2427.6</ele>
        <time>2024-04-27T09:35:14Z</time>
      </trkpt>
      <trkpt lat="45.85033" lon="6.44703">
        <ele>2428.7</ele>
        <time>2024-04-27T09:35:15Z</time>
      </trkpt>
      <trkpt lat="45.85033" lon="6.44703">
        <ele>2428.7</ele>
        <time>2024-04-27T09:35:16Z</time>
      </trkpt>
      <trkpt lat="45.85033" lon="6.44703">
        <ele>2428.7</ele>
        <time>2024-04-27T09:35:17Z</time>
      </trkpt>
      <trkpt lat="45.85033" lon="6.44703">
        <ele>2428.7</ele>
        <time>2024-04-27T09:35:18Z</time>
      </trkpt>
      <trkpt lat="45.85033" lon="6.44703">
        <ele>2428.7</ele>
        <time>2024-04-27T09:35:19Z</time>
      </trkpt>
      <trkpt lat="45.85033" lon="6.44703">
        <ele>2428.7</ele>
        <time>2024-04-27T09:35:20Z</time>
      </trkpt>
      <trkpt lat="45.85033" lon="6.44703">
        <ele>2429.6</ele>
        <time>2024-04-27T09:35:21Z</time>
      </trkpt>
      <trkpt lat="45.85033" lon="6.44703">
        <ele>2429.6</ele>
        <time>2024-04-27T09:35:22Z</time>
      </trkpt>
      <trkpt lat="45.85033" lon="6.44703">
        <ele>2429.6</ele>
        <time>2024-04-27T09:35:23Z</time>
      </trkpt>
      <trkpt lat="45.85033" lon="6.44703">
        <ele>2429.6</ele>
        <time>2024-04-27T09:35:24Z</time>
      </trkpt>
      <trkpt lat="45.85032" lon="6.44703">
        <ele>2429.6</ele>
        <time>2024-04-27T09:35:25Z</time>
      </trkpt>
      <trkpt lat="45.85032" lon="6.44703">
        <ele>2429.6</ele>
        <time>2024-04-27T09:35:26Z</time>
      </trkpt>
      <trkpt lat="45.85032" lon="6.44703">
        <ele>2429.6</ele>
        <time>2024-04-27T09:35:27Z</time>
      </trkpt>
      <trkpt lat="45.85032" lon="6.44703">
        <ele>2429.6</ele>
        <time>2024-04-27T09:35:28Z</time>
      </trkpt>
      <trkpt lat="45.85032" lon="6.44703">
        <ele>2430.7</ele>
        <time>2024-04-27T09:35:29Z</time>
      </trkpt>
      <trkpt lat="45.85032" lon="6.44703">
        <ele>2430.7</ele>
        <time>2024-04-27T09:35:30Z</time>
      </trkpt>
      <trkpt lat="45.85031" lon="6.44703">
        <ele>2430.7</ele>
        <time>2024-04-27T09:35:31Z</time>
      </trkpt>
      <trkpt lat="45.85031" lon="6.44703">
        <ele>2430.7</ele>
        <time>2024-04-27T09:35:32Z</time>
      </trkpt>
      <trkpt lat="45.85031" lon="6.44703">
        <ele>2430.7</ele>
        <time>2024-04-27T09:35:33Z</time>
      </trkpt>
      <trkpt lat="45.85031" lon="6.44703">
        <ele>2430.7</ele>
        <time>2024-04-27T09:35:34Z</time>
      </trkpt>
      <trkpt lat="45.85031" lon="6.44703">
        <ele>2430.7</ele>
        <time>2024-04-27T09:35:35Z</time>
      </trkpt>
      <trkpt lat="45.85031" lon="6.44703">
        <ele>2430.7</ele>
        <time>2024-04-27T09:35:36Z</time>
      </trkpt>
      <trkpt lat="45.85031" lon="6.44703">
        <ele>2430.7</ele>
        <time>2024-04-27T09:35:37Z</time>
      </trkpt>
      <trkpt lat="45.85031" lon="6.44703">
        <ele>2430.7</ele>
        <time>2024-04-27T09:35:38Z</time>
      </trkpt>
      <trkpt lat="45.8503" lon="6.44703">
        <ele>2430.7</ele>
        <time>2024-04-27T09:35:39Z</time>
      </trkpt>
      <trkpt lat="45.8503" lon="6.44703">
        <ele>2430.7</ele>
        <time>2024-04-27T09:35:40Z</time>
      </trkpt>
      <trkpt lat="45.8503" lon="6.44703">
        <ele>2430.7</ele>
        <time>2024-04-27T09:35:41Z</time>
      </trkpt>
      <trkpt lat="45.8503" lon="6.44703">
        <ele>2430.7</ele>
        <time>2024-04-27T09:35:42Z</time>
      </trkpt>
      <trkpt lat="45.8503" lon="6.44703">
        <ele>2429.6</ele>
        <time>2024-04-27T09:35:43Z</time>
      </trkpt>
      <trkpt lat="45.8503" lon="6.44703">
        <ele>2429.6</ele>
        <time>2024-04-27T09:35:44Z</time>
      </trkpt>
      <trkpt lat="45.8503" lon="6.44703">
        <ele>2429.6</ele>
        <time>2024-04-27T09:35:45Z</time>
      </trkpt>
      <trkpt lat="45.8503" lon="6.44703">
        <ele>2429.6</ele>
        <time>2024-04-27T09:35:46Z</time>
      </trkpt>
      <trkpt lat="45.8503" lon="6.44703">
        <ele>2429.6</ele>
        <time>2024-04-27T09:35:47Z</time>
      </trkpt>
      <trkpt lat="45.8503" lon="6.44703">
        <ele>2429.6</ele>
        <time>2024-04-27T09:35:48Z</time>
      </trkpt>
      <trkpt lat="45.8503" lon="6.44703">
        <ele>2429.6</ele>
        <time>2024-04-27T09:35:49Z</time>
      </trkpt>
      <trkpt lat="45.8503" lon="6.44703">
        <ele>2429.6</ele>
        <time>2024-04-27T09:35:50Z</time>
      </trkpt>
      <trkpt lat="45.8503" lon="6.44703">
        <ele>2429.6</ele>
        <time>2024-04-27T09:35:51Z</time>
      </trkpt>
      <trkpt lat="45.8503" lon="6.44703">
        <ele>2429.6</ele>
        <time>2024-04-27T09:35:52Z</time>
      </trkpt>
      <trkpt lat="45.8503" lon="6.44703">
        <ele>2429.6</ele>
        <time>2024-04-27T09:35:53Z</time>
      </trkpt>
      <trkpt lat="45.8503" lon="6.44703">
        <ele>2429.6</ele>
        <time>2024-04-27T09:35:54Z</time>
      </trkpt>
      <trkpt lat="45.8503" lon="6.44703">
        <ele>2429.6</ele>
        <time>2024-04-27T09:35:55Z</time>
      </trkpt>
      <trkpt lat="45.8503" lon="6.44703">
        <ele>2429.6</ele>
        <time>2024-04-27T09:35:56Z</time>
      </trkpt>
      <trkpt lat="45.8503" lon="6.44703">
        <ele>2429.6</ele>
        <time>2024-04-27T09:35:57Z</time>
      </trkpt>
      <trkpt lat="45.8503" lon="6.44703">
        <ele>2429.6</ele>
        <time>2024-04-27T09:35:58Z</time>
      </trkpt>
      <trkpt lat="45.8503" lon="6.44703">
        <ele>2429.6</ele>
        <time>2024-04-27T09:35:59Z</time>
      </trkpt>
      <trkpt lat="45.8503" lon="6.44703">
        <ele>2429.6</ele>
        <time>2024-04-27T09:36:00Z</time>
      </trkpt>
      <trkpt lat="45.8503" lon="6.44703">
        <ele>2429.6</ele>
        <time>2024-04-27T09:36:01Z</time>
      </trkpt>
      <trkpt lat="45.8503" lon="6.44703">
        <ele>2429.6</ele>
        <time>2024-04-27T09:36:02Z</time>
      </trkpt>
      <trkpt lat="45.8503" lon="6.44704">
        <ele>2429.6</ele>
        <time>2024-04-27T09:36:03Z</time>
      </trkpt>
      <trkpt lat="45.8503" lon="6.44704">
        <ele>2429.6</ele>
        <time>2024-04-27T09:36:04Z</time>
      </trkpt>
      <trkpt lat="45.8503" lon="6.44704">
        <ele>2429.6</ele>
        <time>2024-04-27T09:36:05Z</time>
      </trkpt>
      <trkpt lat="45.8503" lon="6.44704">
        <ele>2429.6</ele>
        <time>2024-04-27T09:36:06Z</time>
      </trkpt>
      <trkpt lat="45.8503" lon="6.44704">
        <ele>2428.7</ele>
        <time>2024-04-27T09:36:07Z</time>
      </trkpt>
      <trkpt lat="45.8503" lon="6.44704">
        <ele>2428.7</ele>
        <time>2024-04-27T09:36:08Z</time>
      </trkpt>
      <trkpt lat="45.8503" lon="6.44704">
        <ele>2428.7</ele>
        <time>2024-04-27T09:36:09Z</time>
      </trkpt>
      <trkpt lat="45.8503" lon="6.44705">
        <ele>2428.7</ele>
        <time>2024-04-27T09:36:10Z</time>
      </trkpt>
      <trkpt lat="45.8503" lon="6.44705">
        <ele>2428.7</ele>
        <time>2024-04-27T09:36:11Z</time>
      </trkpt>
      <trkpt lat="45.8503" lon="6.44705">
        <ele>2428.7</ele>
        <time>2024-04-27T09:36:12Z</time>
      </trkpt>
      <trkpt lat="45.8503" lon="6.44705">
        <ele>2428.7</ele>
        <time>2024-04-27T09:36:13Z</time>
      </trkpt>
      <trkpt lat="45.8503" lon="6.44705">
        <ele>2428.7</ele>
        <time>2024-04-27T09:36:14Z</time>
      </trkpt>
      <trkpt lat="45.8503" lon="6.44705">
        <ele>2428.7</ele>
        <time>2024-04-27T09:36:15Z</time>
      </trkpt>
      <trkpt lat="45.8503" lon="6.44705">
        <ele>2428.7</ele>
        <time>2024-04-27T09:36:16Z</time>
      </trkpt>
      <trkpt lat="45.8503" lon="6.44705">
        <ele>2427.6</ele>
        <time>2024-04-27T09:36:17Z</time>
      </trkpt>
      <trkpt lat="45.8503" lon="6.44705">
        <ele>2427.6</ele>
        <time>2024-04-27T09:36:18Z</time>
      </trkpt>
      <trkpt lat="45.8503" lon="6.44706">
        <ele>2427.6</ele>
        <time>2024-04-27T09:36:19Z</time>
      </trkpt>
      <trkpt lat="45.8503" lon="6.44706">
        <ele>2427.6</ele>
        <time>2024-04-27T09:36:20Z</time>
      </trkpt>
      <trkpt lat="45.8503" lon="6.44706">
        <ele>2427.6</ele>
        <time>2024-04-27T09:36:21Z</time>
      </trkpt>
      <trkpt lat="45.8503" lon="6.44706">
        <ele>2427.6</ele>
        <time>2024-04-27T09:36:22Z</time>
      </trkpt>
      <trkpt lat="45.8503" lon="6.44706">
        <ele>2426.7</ele>
        <time>2024-04-27T09:36:23Z</time>
      </trkpt>
      <trkpt lat="45.8503" lon="6.44706">
        <ele>2426.7</ele>
        <time>2024-04-27T09:36:24Z</time>
      </trkpt>
      <trkpt lat="45.8503" lon="6.44706">
        <ele>2426.7</ele>
        <time>2024-04-27T09:36:25Z</time>
      </trkpt>
      <trkpt lat="45.8503" lon="6.44706">
        <ele>2426.7</ele>
        <time>2024-04-27T09:36:26Z</time>
      </trkpt>
      <trkpt lat="45.8503" lon="6.44706">
        <ele>2426.7</ele>
        <time>2024-04-27T09:36:27Z</time>
      </trkpt>
      <trkpt lat="45.8503" lon="6.44706">
        <ele>2426.7</ele>
        <time>2024-04-27T09:36:28Z</time>
      </trkpt>
      <trkpt lat="45.8503" lon="6.44706">
        <ele>2426.7</ele>
        <time>2024-04-27T09:36:29Z</time>
      </trkpt>
      <trkpt lat="45.8503" lon="6.44706">
        <ele>2426.7</ele>
        <time>2024-04-27T09:36:30Z</time>
      </trkpt>
      <trkpt lat="45.8503" lon="6.44706">
        <ele>2426.7</ele>
        <time>2024-04-27T09:36:31Z</time>
      </trkpt>
      <trkpt lat="45.8503" lon="6.44706">
        <ele>2426.7</ele>
        <time>2024-04-27T09:36:32Z</time>
      </trkpt>
      <trkpt lat="45.8503" lon="6.44706">
        <ele>2426.7</ele>
        <time>2024-04-27T09:36:33Z</time>
      </trkpt>
      <trkpt lat="45.8503" lon="6.44706">
        <ele>2426.7</ele>
        <time>2024-04-27T09:36:34Z</time>
      </trkpt>
      <trkpt lat="45.8503" lon="6.44706">
        <ele>2426.7</ele>
        <time>2024-04-27T09:36:35Z</time>
      </trkpt>
      <trkpt lat="45.8503" lon="6.44706">
        <ele>2426.7</ele>
        <time>2024-04-27T09:36:36Z</time>
      </trkpt>
      <trkpt lat="45.8503" lon="6.44706">
        <ele>2426.7</ele>
        <time>2024-04-27T09:36:37Z</time>
      </trkpt>
      <trkpt lat="45.8503" lon="6.44706">
        <ele>2426.7</ele>
        <time>2024-04-27T09:36:38Z</time>
      </trkpt>
      <trkpt lat="45.8503" lon="6.44706">
        <ele>2426.7</ele>
        <time>2024-04-27T09:36:39Z</time>
      </trkpt>
      <trkpt lat="45.8503" lon="6.44706">
        <ele>2426.7</ele>
        <time>2024-04-27T09:36:40Z</time>
      </trkpt>
      <trkpt lat="45.8503" lon="6.44706">
        <ele>2426.7</ele>
        <time>2024-04-27T09:36:41Z</time>
      </trkpt>
      <trkpt lat="45.8503" lon="6.44706">
        <ele>2426.7</ele>
        <time>2024-04-27T09:36:42Z</time>
      </trkpt>
      <trkpt lat="45.8503" lon="6.44706">
        <ele>2426.7</ele>
        <time>2024-04-27T09:36:43Z</time>
      </trkpt>
      <trkpt lat="45.8503" lon="6.44706">
        <ele>2426.7</ele>
        <time>2024-04-27T09:36:44Z</time>
      </trkpt>
      <trkpt lat="45.8503" lon="6.44706">
        <ele>2426.7</ele>
        <time>2024-04-27T09:36:45Z</time>
      </trkpt>
      <trkpt lat="45.8503" lon="6.44706">
        <ele>2426.7</ele>
        <time>2024-04-27T09:36:46Z</time>
      </trkpt>
      <trkpt lat="45.8503" lon="6.44706">
        <ele>2426.7</ele>
        <time>2024-04-27T09:36:47Z</time>
      </trkpt>
      <trkpt lat="45.8503" lon="6.44706">
        <ele>2426.7</ele>
        <time>2024-04-27T09:36:48Z</time>
      </trkpt>
      <trkpt lat="45.8503" lon="6.44706">
        <ele>2426.7</ele>
        <time>2024-04-27T09:36:49Z</time>
      </trkpt>
      <trkpt lat="45.8503" lon="6.44706">
        <ele>2426.7</ele>
        <time>2024-04-27T09:36:50Z</time>
      </trkpt>
      <trkpt lat="45.8503" lon="6.44706">
        <ele>2426.7</ele>
        <time>2024-04-27T09:36:51Z</time>
      </trkpt>
      <trkpt lat="45.8503" lon="6.44706">
        <ele>2426.7</ele>
        <time>2024-04-27T09:36:52Z</time>
      </trkpt>
      <trkpt lat="45.8503" lon="6.44706">
        <ele>2426.7</ele>
        <time>2024-04-27T09:36:53Z</time>
      </trkpt>
      <trkpt lat="45.8503" lon="6.44706">
        <ele>2426.7</ele>
        <time>2024-04-27T09:36:54Z</time>
      </trkpt>
      <trkpt lat="45.8503" lon="6.44706">
        <ele>2426.7</ele>
        <time>2024-04-27T09:36:55Z</time>
      </trkpt>
      <trkpt lat="45.8503" lon="6.44706">
        <ele>2426.7</ele>
        <time>2024-04-27T09:36:56Z</time>
      </trkpt>
      <trkpt lat="45.8503" lon="6.44706">
        <ele>2425.6</ele>
        <time>2024-04-27T09:36:57Z</time>
      </trkpt>
      <trkpt lat="45.8503" lon="6.44706">
        <ele>2425.6</ele>
        <time>2024-04-27T09:36:58Z</time>
      </trkpt>
      <trkpt lat="45.8503" lon="6.44706">
        <ele>2425.6</ele>
        <time>2024-04-27T09:36:59Z</time>
      </trkpt>
      <trkpt lat="45.85031" lon="6.44706">
        <ele>2425.6</ele>
        <time>2024-04-27T09:37:00Z</time>
      </trkpt>
      <trkpt lat="45.85031" lon="6.44706">
        <ele>2425.6</ele>
        <time>2024-04-27T09:37:01Z</time>
      </trkpt>
      <trkpt lat="45.85031" lon="6.44706">
        <ele>2425.6</ele>
        <time>2024-04-27T09:37:02Z</time>
      </trkpt>
      <trkpt lat="45.85031" lon="6.44706">
        <ele>2425.6</ele>
        <time>2024-04-27T09:37:03Z</time>
      </trkpt>
      <trkpt lat="45.85031" lon="6.44706">
        <ele>2425.6</ele>
        <time>2024-04-27T09:37:04Z</time>
      </trkpt>
      <trkpt lat="45.85031" lon="6.44706">
        <ele>2425.6</ele>
        <time>2024-04-27T09:37:05Z</time>
      </trkpt>
      <trkpt lat="45.85031" lon="6.44706">
        <ele>2425.6</ele>
        <time>2024-04-27T09:37:06Z</time>
      </trkpt>
      <trkpt lat="45.85031" lon="6.44706">
        <ele>2425.6</ele>
        <time>2024-04-27T09:37:07Z</time>
      </trkpt>
      <trkpt lat="45.85031" lon="6.44706">
        <ele>2425.6</ele>
        <time>2024-04-27T09:37:08Z</time>
      </trkpt>
      <trkpt lat="45.85031" lon="6.44706">
        <ele>2425.6</ele>
        <time>2024-04-27T09:37:09Z</time>
      </trkpt>
      <trkpt lat="45.85031" lon="6.44706">
        <ele>2425.6</ele>
        <time>2024-04-27T09:37:10Z</time>
      </trkpt>
      <trkpt lat="45.85031" lon="6.44706">
        <ele>2426.7</ele>
        <time>2024-04-27T09:37:11Z</time>
      </trkpt>
      <trkpt lat="45.85031" lon="6.44706">
        <ele>2426.7</ele>
        <time>2024-04-27T09:37:12Z</time>
      </trkpt>
      <trkpt lat="45.85031" lon="6.44706">
        <ele>2426.7</ele>
        <time>2024-04-27T09:37:13Z</time>
      </trkpt>
      <trkpt lat="45.85031" lon="6.44706">
        <ele>2426.7</ele>
        <time>2024-04-27T09:37:14Z</time>
      </trkpt>
      <trkpt lat="45.85031" lon="6.44706">
        <ele>2426.7</ele>
        <time>2024-04-27T09:37:15Z</time>
      </trkpt>
      <trkpt lat="45.85031" lon="6.44706">
        <ele>2426.7</ele>
        <time>2024-04-27T09:37:16Z</time>
      </trkpt>
      <trkpt lat="45.85031" lon="6.44706">
        <ele>2426.7</ele>
        <time>2024-04-27T09:37:17Z</time>
      </trkpt>
      <trkpt lat="45.85031" lon="6.44706">
        <ele>2426.7</ele>
        <time>2024-04-27T09:37:18Z</time>
      </trkpt>
      <trkpt lat="45.85031" lon="6.44706">
        <ele>2426.7</ele>
        <time>2024-04-27T09:37:19Z</time>
      </trkpt>
      <trkpt lat="45.85031" lon="6.44706">
        <ele>2426.7</ele>
        <time>2024-04-27T09:37:20Z</time>
      </trkpt>
      <trkpt lat="45.85031" lon="6.44706">
        <ele>2426.7</ele>
        <time>2024-04-27T09:37:21Z</time>
      </trkpt>
      <trkpt lat="45.85031" lon="6.44706">
        <ele>2426.7</ele>
        <time>2024-04-27T09:37:22Z</time>
      </trkpt>
      <trkpt lat="45.85031" lon="6.44706">
        <ele>2426.7</ele>
        <time>2024-04-27T09:37:23Z</time>
      </trkpt>
      <trkpt lat="45.85031" lon="6.44706">
        <ele>2426.7</ele>
        <time>2024-04-27T09:37:24Z</time>
      </trkpt>
      <trkpt lat="45.85031" lon="6.44706">
        <ele>2426.7</ele>
        <time>2024-04-27T09:37:25Z</time>
      </trkpt>
      <trkpt lat="45.85031" lon="6.44706">
        <ele>2426.7</ele>
        <time>2024-04-27T09:37:26Z</time>
      </trkpt>
      <trkpt lat="45.85031" lon="6.44706">
        <ele>2426.7</ele>
        <time>2024-04-27T09:37:27Z</time>
      </trkpt>
      <trkpt lat="45.85031" lon="6.44706">
        <ele>2426.7</ele>
        <time>2024-04-27T09:37:28Z</time>
      </trkpt>
      <trkpt lat="45.85031" lon="6.44706">
        <ele>2426.7</ele>
        <time>2024-04-27T09:37:29Z</time>
      </trkpt>
      <trkpt lat="45.85031" lon="6.44706">
        <ele>2426.7</ele>
        <time>2024-04-27T09:37:30Z</time>
      </trkpt>
      <trkpt lat="45.85031" lon="6.44705">
        <ele>2426.7</ele>
        <time>2024-04-27T09:37:31Z</time>
      </trkpt>
      <trkpt lat="45.85031" lon="6.44705">
        <ele>2426.7</ele>
        <time>2024-04-27T09:37:32Z</time>
      </trkpt>
      <trkpt lat="45.85031" lon="6.44705">
        <ele>2426.7</ele>
        <time>2024-04-27T09:37:33Z</time>
      </trkpt>
      <trkpt lat="45.85031" lon="6.44705">
        <ele>2426.7</ele>
        <time>2024-04-27T09:37:34Z</time>
      </trkpt>
      <trkpt lat="45.85031" lon="6.44705">
        <ele>2426.7</ele>
        <time>2024-04-27T09:37:35Z</time>
      </trkpt>
      <trkpt lat="45.85031" lon="6.44705">
        <ele>2426.7</ele>
        <time>2024-04-27T09:37:36Z</time>
      </trkpt>
      <trkpt lat="45.85031" lon="6.44705">
        <ele>2426.7</ele>
        <time>2024-04-27T09:37:37Z</time>
      </trkpt>
      <trkpt lat="45.85031" lon="6.44705">
        <ele>2426.7</ele>
        <time>2024-04-27T09:37:38Z</time>
      </trkpt>
      <trkpt lat="45.85031" lon="6.44705">
        <ele>2427.6</ele>
        <time>2024-04-27T09:37:39Z</time>
      </trkpt>
      <trkpt lat="45.85031" lon="6.44705">
        <ele>2427.6</ele>
        <time>2024-04-27T09:37:40Z</time>
      </trkpt>
      <trkpt lat="45.85031" lon="6.44705">
        <ele>2428.7</ele>
        <time>2024-04-27T09:37:41Z</time>
      </trkpt>
      <trkpt lat="45.85031" lon="6.44705">
        <ele>2428.7</ele>
        <time>2024-04-27T09:37:42Z</time>
      </trkpt>
      <trkpt lat="45.85031" lon="6.44705">
        <ele>2428.7</ele>
        <time>2024-04-27T09:37:43Z</time>
      </trkpt>
      <trkpt lat="45.85031" lon="6.44705">
        <ele>2428.7</ele>
        <time>2024-04-27T09:37:44Z</time>
      </trkpt>
      <trkpt lat="45.85031" lon="6.44705">
        <ele>2429.6</ele>
        <time>2024-04-27T09:37:45Z</time>
      </trkpt>
      <trkpt lat="45.85031" lon="6.44705">
        <ele>2429.6</ele>
        <time>2024-04-27T09:37:46Z</time>
      </trkpt>
      <trkpt lat="45.85031" lon="6.44705">
        <ele>2429.6</ele>
        <time>2024-04-27T09:37:47Z</time>
      </trkpt>
      <trkpt lat="45.85031" lon="6.44705">
        <ele>2429.6</ele>
        <time>2024-04-27T09:37:48Z</time>
      </trkpt>
      <trkpt lat="45.85031" lon="6.44705">
        <ele>2429.6</ele>
        <time>2024-04-27T09:37:49Z</time>
      </trkpt>
      <trkpt lat="45.85031" lon="6.44705">
        <ele>2429.6</ele>
        <time>2024-04-27T09:37:50Z</time>
      </trkpt>
      <trkpt lat="45.85031" lon="6.44705">
        <ele>2430.7</ele>
        <time>2024-04-27T09:37:51Z</time>
      </trkpt>
      <trkpt lat="45.85031" lon="6.44705">
        <ele>2430.7</ele>
        <time>2024-04-27T09:37:52Z</time>
      </trkpt>
      <trkpt lat="45.85031" lon="6.44705">
        <ele>2430.7</ele>
        <time>2024-04-27T09:37:53Z</time>
      </trkpt>
      <trkpt lat="45.85031" lon="6.44705">
        <ele>2430.7</ele>
        <time>2024-04-27T09:37:54Z</time>
      </trkpt>
      <trkpt lat="45.85031" lon="6.44705">
        <ele>2430.7</ele>
        <time>2024-04-27T09:37:55Z</time>
      </trkpt>
      <trkpt lat="45.85031" lon="6.44705">
        <ele>2430.7</ele>
        <time>2024-04-27T09:37:56Z</time>
      </trkpt>
      <trkpt lat="45.85031" lon="6.44705">
        <ele>2430.7</ele>
        <time>2024-04-27T09:37:57Z</time>
      </trkpt>
      <trkpt lat="45.85031" lon="6.44705">
        <ele>2430.7</ele>
        <time>2024-04-27T09:37:58Z</time>
      </trkpt>
      <trkpt lat="45.85031" lon="6.44705">
        <ele>2430.7</ele>
        <time>2024-04-27T09:37:59Z</time>
      </trkpt>
      <trkpt lat="45.85031" lon="6.44705">
        <ele>2430.7</ele>
        <time>2024-04-27T09:38:00Z</time>
      </trkpt>
      <trkpt lat="45.85031" lon="6.44706">
        <ele>2430.7</ele>
        <time>2024-04-27T09:38:01Z</time>
      </trkpt>
      <trkpt lat="45.85031" lon="6.44706">
        <ele>2430.7</ele>
        <time>2024-04-27T09:38:02Z</time>
      </trkpt>
      <trkpt lat="45.85031" lon="6.44706">
        <ele>2430.7</ele>
        <time>2024-04-27T09:38:03Z</time>
      </trkpt>
      <trkpt lat="45.85031" lon="6.44706">
        <ele>2430.7</ele>
        <time>2024-04-27T09:38:04Z</time>
      </trkpt>
      <trkpt lat="45.85031" lon="6.44706">
        <ele>2430.7</ele>
        <time>2024-04-27T09:38:05Z</time>
      </trkpt>
      <trkpt lat="45.85031" lon="6.44706">
        <ele>2430.7</ele>
        <time>2024-04-27T09:38:06Z</time>
      </trkpt>
      <trkpt lat="45.85031" lon="6.44706">
        <ele>2430.7</ele>
        <time>2024-04-27T09:38:07Z</time>
      </trkpt>
      <trkpt lat="45.85031" lon="6.44706">
        <ele>2430.7</ele>
        <time>2024-04-27T09:38:08Z</time>
      </trkpt>
      <trkpt lat="45.85031" lon="6.44706">
        <ele>2432.6</ele>
        <time>2024-04-27T09:38:09Z</time>
      </trkpt>
      <trkpt lat="45.85031" lon="6.44706">
        <ele>2432.6</ele>
        <time>2024-04-27T09:38:10Z</time>
      </trkpt>
      <trkpt lat="45.85031" lon="6.44706">
        <ele>2432.6</ele>
        <time>2024-04-27T09:38:11Z</time>
      </trkpt>
      <trkpt lat="45.85031" lon="6.44706">
        <ele>2432.6</ele>
        <time>2024-04-27T09:38:12Z</time>
      </trkpt>
      <trkpt lat="45.85031" lon="6.44706">
        <ele>2432.6</ele>
        <time>2024-04-27T09:38:13Z</time>
      </trkpt>
      <trkpt lat="45.8503" lon="6.44706">
        <ele>2432.6</ele>
        <time>2024-04-27T09:38:14Z</time>
      </trkpt>
      <trkpt lat="45.8503" lon="6.44707">
        <ele>2432.6</ele>
        <time>2024-04-27T09:38:15Z</time>
      </trkpt>
      <trkpt lat="45.8503" lon="6.44707">
        <ele>2432.6</ele>
        <time>2024-04-27T09:38:16Z</time>
      </trkpt>
      <trkpt lat="45.8503" lon="6.44707">
        <ele>2432.6</ele>
        <time>2024-04-27T09:38:17Z</time>
      </trkpt>
      <trkpt lat="45.8503" lon="6.44707">
        <ele>2432.6</ele>
        <time>2024-04-27T09:38:18Z</time>
      </trkpt>
      <trkpt lat="45.8503" lon="6.44707">
        <ele>2433.7</ele>
        <time>2024-04-27T09:38:19Z</time>
      </trkpt>
      <trkpt lat="45.8503" lon="6.44707">
        <ele>2433.7</ele>
        <time>2024-04-27T09:38:20Z</time>
      </trkpt>
      <trkpt lat="45.8503" lon="6.44707">
        <ele>2433.7</ele>
        <time>2024-04-27T09:38:21Z</time>
      </trkpt>
      <trkpt lat="45.8503" lon="6.44711">
        <ele>2433.7</ele>
        <time>2024-04-27T09:38:22Z</time>
      </trkpt>
      <trkpt lat="45.8503" lon="6.44712">
        <ele>2433.7</ele>
        <time>2024-04-27T09:38:23Z</time>
      </trkpt>
      <trkpt lat="45.8503" lon="6.44712">
        <ele>2433.7</ele>
        <time>2024-04-27T09:38:24Z</time>
      </trkpt>
      <trkpt lat="45.8503" lon="6.44712">
        <ele>2434.6</ele>
        <time>2024-04-27T09:38:25Z</time>
      </trkpt>
      <trkpt lat="45.85029" lon="6.44712">
        <ele>2434.6</ele>
        <time>2024-04-27T09:38:26Z</time>
      </trkpt>
      <trkpt lat="45.85029" lon="6.44712">
        <ele>2434.6</ele>
        <time>2024-04-27T09:38:27Z</time>
      </trkpt>
      <trkpt lat="45.85029" lon="6.44712">
        <ele>2434.6</ele>
        <time>2024-04-27T09:38:28Z</time>
      </trkpt>
      <trkpt lat="45.85029" lon="6.44712">
        <ele>2434.6</ele>
        <time>2024-04-27T09:38:29Z</time>
      </trkpt>
      <trkpt lat="45.85029" lon="6.44712">
        <ele>2434.6</ele>
        <time>2024-04-27T09:38:30Z</time>
      </trkpt>
      <trkpt lat="45.85029" lon="6.44712">
        <ele>2434.6</ele>
        <time>2024-04-27T09:38:31Z</time>
      </trkpt>
      <trkpt lat="45.85029" lon="6.44712">
        <ele>2434.6</ele>
        <time>2024-04-27T09:38:32Z</time>
      </trkpt>
      <trkpt lat="45.85029" lon="6.44713">
        <ele>2434.6</ele>
        <time>2024-04-27T09:38:33Z</time>
      </trkpt>
      <trkpt lat="45.85029" lon="6.44713">
        <ele>2434.6</ele>
        <time>2024-04-27T09:38:34Z</time>
      </trkpt>
      <trkpt lat="45.85029" lon="6.44713">
        <ele>2435.7</ele>
        <time>2024-04-27T09:38:35Z</time>
      </trkpt>
      <trkpt lat="45.85029" lon="6.44713">
        <ele>2435.7</ele>
        <time>2024-04-27T09:38:36Z</time>
      </trkpt>
      <trkpt lat="45.85029" lon="6.44713">
        <ele>2435.7</ele>
        <time>2024-04-27T09:38:37Z</time>
      </trkpt>
      <trkpt lat="45.85029" lon="6.44713">
        <ele>2435.7</ele>
        <time>2024-04-27T09:38:38Z</time>
      </trkpt>
      <trkpt lat="45.85029" lon="6.44713">
        <ele>2436.6</ele>
        <time>2024-04-27T09:38:39Z</time>
      </trkpt>
      <trkpt lat="45.85029" lon="6.44713">
        <ele>2436.6</ele>
        <time>2024-04-27T09:38:40Z</time>
      </trkpt>
      <trkpt lat="45.85029" lon="6.44714">
        <ele>2436.6</ele>
        <time>2024-04-27T09:38:41Z</time>
      </trkpt>
      <trkpt lat="45.85029" lon="6.44714">
        <ele>2436.6</ele>
        <time>2024-04-27T09:38:42Z</time>
      </trkpt>
      <trkpt lat="45.85029" lon="6.44714">
        <ele>2437.7</ele>
        <time>2024-04-27T09:38:43Z</time>
      </trkpt>
      <trkpt lat="45.85028" lon="6.44714">
        <ele>2437.7</ele>
        <time>2024-04-27T09:38:44Z</time>
      </trkpt>
      <trkpt lat="45.85028" lon="6.44715">
        <ele>2437.7</ele>
        <time>2024-04-27T09:38:45Z</time>
      </trkpt>
      <trkpt lat="45.85028" lon="6.44715">
        <ele>2437.7</ele>
        <time>2024-04-27T09:38:46Z</time>
      </trkpt>
      <trkpt lat="45.85028" lon="6.44715">
        <ele>2437.7</ele>
        <time>2024-04-27T09:38:47Z</time>
      </trkpt>
      <trkpt lat="45.85028" lon="6.44715">
        <ele>2437.7</ele>
        <time>2024-04-27T09:38:48Z</time>
      </trkpt>
      <trkpt lat="45.85027" lon="6.44715">
        <ele>2437.7</ele>
        <time>2024-04-27T09:38:49Z</time>
      </trkpt>
      <trkpt lat="45.85027" lon="6.44716">
        <ele>2437.7</ele>
        <time>2024-04-27T09:38:50Z</time>
      </trkpt>
      <trkpt lat="45.85027" lon="6.44716">
        <ele>2441.6</ele>
        <time>2024-04-27T09:38:51Z</time>
      </trkpt>
      <trkpt lat="45.85027" lon="6.44716">
        <ele>2441.6</ele>
        <time>2024-04-27T09:38:52Z</time>
      </trkpt>
      <trkpt lat="45.85027" lon="6.44716">
        <ele>2441.6</ele>
        <time>2024-04-27T09:38:53Z</time>
      </trkpt>
      <trkpt lat="45.85027" lon="6.44716">
        <ele>2441.6</ele>
        <time>2024-04-27T09:38:54Z</time>
      </trkpt>
      <trkpt lat="45.85027" lon="6.44716">
        <ele>2442.7</ele>
        <time>2024-04-27T09:38:55Z</time>
      </trkpt>
      <trkpt lat="45.85027" lon="6.44716">
        <ele>2442.7</ele>
        <time>2024-04-27T09:38:56Z</time>
      </trkpt>
      <trkpt lat="45.85027" lon="6.44716">
        <ele>2442.7</ele>
        <time>2024-04-27T09:38:57Z</time>
      </trkpt>
      <trkpt lat="45.85027" lon="6.44716">
        <ele>2442.7</ele>
        <time>2024-04-27T09:38:58Z</time>
      </trkpt>
      <trkpt lat="45.85027" lon="6.44717">
        <ele>2442.7</ele>
        <time>2024-04-27T09:38:59Z</time>
      </trkpt>
      <trkpt lat="45.85027" lon="6.44717">
        <ele>2442.7</ele>
        <time>2024-04-27T09:39:00Z</time>
      </trkpt>
      <trkpt lat="45.85026" lon="6.44717">
        <ele>2442.7</ele>
        <time>2024-04-27T09:39:01Z</time>
      </trkpt>
      <trkpt lat="45.85026" lon="6.44717">
        <ele>2442.7</ele>
        <time>2024-04-27T09:39:02Z</time>
      </trkpt>
      <trkpt lat="45.85025" lon="6.44717">
        <ele>2442.7</ele>
        <time>2024-04-27T09:39:03Z</time>
      </trkpt>
      <trkpt lat="45.85025" lon="6.44717">
        <ele>2442.7</ele>
        <time>2024-04-27T09:39:04Z</time>
      </trkpt>
      <trkpt lat="45.85025" lon="6.44717">
        <ele>2443.6</ele>
        <time>2024-04-27T09:39:05Z</time>
      </trkpt>
      <trkpt lat="45.85025" lon="6.44717">
        <ele>2443.6</ele>
        <time>2024-04-27T09:39:06Z</time>
      </trkpt>
      <trkpt lat="45.85024" lon="6.44717">
        <ele>2443.6</ele>
        <time>2024-04-27T09:39:07Z</time>
      </trkpt>
      <trkpt lat="45.85024" lon="6.44717">
        <ele>2443.6</ele>
        <time>2024-04-27T09:39:08Z</time>
      </trkpt>
      <trkpt lat="45.85023" lon="6.44717">
        <ele>2443.6</ele>
        <time>2024-04-27T09:39:09Z</time>
      </trkpt>
      <trkpt lat="45.85023" lon="6.44717">
        <ele>2443.6</ele>
        <time>2024-04-27T09:39:10Z</time>
      </trkpt>
      <trkpt lat="45.85023" lon="6.44717">
        <ele>2443.6</ele>
        <time>2024-04-27T09:39:11Z</time>
      </trkpt>
      <trkpt lat="45.85023" lon="6.44717">
        <ele>2443.6</ele>
        <time>2024-04-27T09:39:12Z</time>
      </trkpt>
      <trkpt lat="45.85023" lon="6.44717">
        <ele>2443.6</ele>
        <time>2024-04-27T09:39:13Z</time>
      </trkpt>
      <trkpt lat="45.85022" lon="6.44717">
        <ele>2443.6</ele>
        <time>2024-04-27T09:39:14Z</time>
      </trkpt>
      <trkpt lat="45.85022" lon="6.44717">
        <ele>2443.6</ele>
        <time>2024-04-27T09:39:15Z</time>
      </trkpt>
      <trkpt lat="45.85022" lon="6.44717">
        <ele>2443.6</ele>
        <time>2024-04-27T09:39:16Z</time>
      </trkpt>
      <trkpt lat="45.85021" lon="6.44717">
        <ele>2443.6</ele>
        <time>2024-04-27T09:39:17Z</time>
      </trkpt>
      <trkpt lat="45.85021" lon="6.44717">
        <ele>2443.6</ele>
        <time>2024-04-27T09:39:18Z</time>
      </trkpt>
      <trkpt lat="45.85021" lon="6.44717">
        <ele>2443.6</ele>
        <time>2024-04-27T09:39:19Z</time>
      </trkpt>
      <trkpt lat="45.85021" lon="6.44718">
        <ele>2443.6</ele>
        <time>2024-04-27T09:39:20Z</time>
      </trkpt>
      <trkpt lat="45.85021" lon="6.44718">
        <ele>2443.6</ele>
        <time>2024-04-27T09:39:21Z</time>
      </trkpt>
      <trkpt lat="45.85021" lon="6.44718">
        <ele>2443.6</ele>
        <time>2024-04-27T09:39:22Z</time>
      </trkpt>
      <trkpt lat="45.85021" lon="6.44718">
        <ele>2443.6</ele>
        <time>2024-04-27T09:39:23Z</time>
      </trkpt>
      <trkpt lat="45.85021" lon="6.44719">
        <ele>2443.6</ele>
        <time>2024-04-27T09:39:24Z</time>
      </trkpt>
      <trkpt lat="45.8502" lon="6.44719">
        <ele>2443.6</ele>
        <time>2024-04-27T09:39:25Z</time>
      </trkpt>
      <trkpt lat="45.8502" lon="6.44719">
        <ele>2443.6</ele>
        <time>2024-04-27T09:39:26Z</time>
      </trkpt>
      <trkpt lat="45.85019" lon="6.44718">
        <ele>2444.7</ele>
        <time>2024-04-27T09:39:27Z</time>
      </trkpt>
      <trkpt lat="45.85019" lon="6.44718">
        <ele>2444.7</ele>
        <time>2024-04-27T09:39:28Z</time>
      </trkpt>
      <trkpt lat="45.85019" lon="6.44719">
        <ele>2444.7</ele>
        <time>2024-04-27T09:39:29Z</time>
      </trkpt>
      <trkpt lat="45.85019" lon="6.44719">
        <ele>2444.7</ele>
        <time>2024-04-27T09:39:30Z</time>
      </trkpt>
      <trkpt lat="45.85018" lon="6.44719">
        <ele>2444.7</ele>
        <time>2024-04-27T09:39:31Z</time>
      </trkpt>
      <trkpt lat="45.85018" lon="6.44719">
        <ele>2444.7</ele>
        <time>2024-04-27T09:39:32Z</time>
      </trkpt>
      <trkpt lat="45.85018" lon="6.44719">
        <ele>2445.6</ele>
        <time>2024-04-27T09:39:33Z</time>
      </trkpt>
      <trkpt lat="45.85017" lon="6.44719">
        <ele>2445.6</ele>
        <time>2024-04-27T09:39:34Z</time>
      </trkpt>
      <trkpt lat="45.85017" lon="6.44719">
        <ele>2445.6</ele>
        <time>2024-04-27T09:39:35Z</time>
      </trkpt>
      <trkpt lat="45.85017" lon="6.44718">
        <ele>2445.6</ele>
        <time>2024-04-27T09:39:36Z</time>
      </trkpt>
      <trkpt lat="45.85017" lon="6.44718">
        <ele>2446.7</ele>
        <time>2024-04-27T09:39:37Z</time>
      </trkpt>
      <trkpt lat="45.85017" lon="6.44718">
        <ele>2446.7</ele>
        <time>2024-04-27T09:39:38Z</time>
      </trkpt>
      <trkpt lat="45.85017" lon="6.44718">
        <ele>2446.7</ele>
        <time>2024-04-27T09:39:39Z</time>
      </trkpt>
      <trkpt lat="45.85017" lon="6.44718">
        <ele>2446.7</ele>
        <time>2024-04-27T09:39:40Z</time>
      </trkpt>
      <trkpt lat="45.85017" lon="6.44718">
        <ele>2447.7</ele>
        <time>2024-04-27T09:39:41Z</time>
      </trkpt>
      <trkpt lat="45.85017" lon="6.44718">
        <ele>2447.7</ele>
        <time>2024-04-27T09:39:42Z</time>
      </trkpt>
      <trkpt lat="45.85017" lon="6.44718">
        <ele>2447.7</ele>
        <time>2024-04-27T09:39:43Z</time>
      </trkpt>
      <trkpt lat="45.85017" lon="6.44718">
        <ele>2447.7</ele>
        <time>2024-04-27T09:39:44Z</time>
      </trkpt>
      <trkpt lat="45.85017" lon="6.44718">
        <ele>2447.7</ele>
        <time>2024-04-27T09:39:45Z</time>
      </trkpt>
      <trkpt lat="45.85017" lon="6.44718">
        <ele>2447.7</ele>
        <time>2024-04-27T09:39:46Z</time>
      </trkpt>
      <trkpt lat="45.85017" lon="6.44718">
        <ele>2447.7</ele>
        <time>2024-04-27T09:39:47Z</time>
      </trkpt>
      <trkpt lat="45.85017" lon="6.44718">
        <ele>2447.7</ele>
        <time>2024-04-27T09:39:48Z</time>
      </trkpt>
      <trkpt lat="45.85017" lon="6.44718">
        <ele>2447.7</ele>
        <time>2024-04-27T09:39:49Z</time>
      </trkpt>
      <trkpt lat="45.85017" lon="6.44718">
        <ele>2447.7</ele>
        <time>2024-04-27T09:39:50Z</time>
      </trkpt>
      <trkpt lat="45.85017" lon="6.44718">
        <ele>2447.7</ele>
        <time>2024-04-27T09:39:51Z</time>
      </trkpt>
      <trkpt lat="45.85017" lon="6.44718">
        <ele>2447.7</ele>
        <time>2024-04-27T09:39:52Z</time>
      </trkpt>
      <trkpt lat="45.85017" lon="6.44718">
        <ele>2447.7</ele>
        <time>2024-04-27T09:39:53Z</time>
      </trkpt>
      <trkpt lat="45.85016" lon="6.44718">
        <ele>2447.7</ele>
        <time>2024-04-27T09:39:54Z</time>
      </trkpt>
      <trkpt lat="45.85016" lon="6.44718">
        <ele>2447.7</ele>
        <time>2024-04-27T09:39:55Z</time>
      </trkpt>
      <trkpt lat="45.85016" lon="6.44718">
        <ele>2447.7</ele>
        <time>2024-04-27T09:39:56Z</time>
      </trkpt>
      <trkpt lat="45.85016" lon="6.44718">
        <ele>2446.7</ele>
        <time>2024-04-27T09:39:57Z</time>
      </trkpt>
      <trkpt lat="45.85016" lon="6.44718">
        <ele>2446.7</ele>
        <time>2024-04-27T09:39:58Z</time>
      </trkpt>
      <trkpt lat="45.85016" lon="6.44718">
        <ele>2446.7</ele>
        <time>2024-04-27T09:39:59Z</time>
      </trkpt>
      <trkpt lat="45.85016" lon="6.44718">
        <ele>2446.7</ele>
        <time>2024-04-27T09:40:00Z</time>
      </trkpt>
      <trkpt lat="45.85016" lon="6.44718">
        <ele>2446.7</ele>
        <time>2024-04-27T09:40:01Z</time>
      </trkpt>
      <trkpt lat="45.85015" lon="6.44718">
        <ele>2446.7</ele>
        <time>2024-04-27T09:40:02Z</time>
      </trkpt>
      <trkpt lat="45.85015" lon="6.44718">
        <ele>2446.7</ele>
        <time>2024-04-27T09:40:03Z</time>
      </trkpt>
      <trkpt lat="45.85015" lon="6.44718">
        <ele>2446.7</ele>
        <time>2024-04-27T09:40:04Z</time>
      </trkpt>
      <trkpt lat="45.85015" lon="6.44718">
        <ele>2446.7</ele>
        <time>2024-04-27T09:40:05Z</time>
      </trkpt>
      <trkpt lat="45.85015" lon="6.44718">
        <ele>2446.7</ele>
        <time>2024-04-27T09:40:06Z</time>
      </trkpt>
      <trkpt lat="45.85014" lon="6.44718">
        <ele>2446.7</ele>
        <time>2024-04-27T09:40:07Z</time>
      </trkpt>
      <trkpt lat="45.85014" lon="6.44719">
        <ele>2446.7</ele>
        <time>2024-04-27T09:40:08Z</time>
      </trkpt>
      <trkpt lat="45.85014" lon="6.44719">
        <ele>2446.7</ele>
        <time>2024-04-27T09:40:09Z</time>
      </trkpt>
      <trkpt lat="45.85013" lon="6.44719">
        <ele>2446.7</ele>
        <time>2024-04-27T09:40:10Z</time>
      </trkpt>
      <trkpt lat="45.85013" lon="6.44719">
        <ele>2446.7</ele>
        <time>2024-04-27T09:40:11Z</time>
      </trkpt>
      <trkpt lat="45.85013" lon="6.44719">
        <ele>2446.7</ele>
        <time>2024-04-27T09:40:12Z</time>
      </trkpt>
      <trkpt lat="45.85013" lon="6.44719">
        <ele>2446.7</ele>
        <time>2024-04-27T09:40:13Z</time>
      </trkpt>
      <trkpt lat="45.85013" lon="6.44719">
        <ele>2446.7</ele>
        <time>2024-04-27T09:40:14Z</time>
      </trkpt>
      <trkpt lat="45.85012" lon="6.44719">
        <ele>2446.7</ele>
        <time>2024-04-27T09:40:15Z</time>
      </trkpt>
      <trkpt lat="45.85012" lon="6.44719">
        <ele>2446.7</ele>
        <time>2024-04-27T09:40:16Z</time>
      </trkpt>
      <trkpt lat="45.85011" lon="6.44719">
        <ele>2446.7</ele>
        <time>2024-04-27T09:40:17Z</time>
      </trkpt>
      <trkpt lat="45.85011" lon="6.44719">
        <ele>2446.7</ele>
        <time>2024-04-27T09:40:18Z</time>
      </trkpt>
      <trkpt lat="45.85011" lon="6.44719">
        <ele>2446.7</ele>
        <time>2024-04-27T09:40:19Z</time>
      </trkpt>
      <trkpt lat="45.85011" lon="6.44719">
        <ele>2446.7</ele>
        <time>2024-04-27T09:40:20Z</time>
      </trkpt>
      <trkpt lat="45.8501" lon="6.44719">
        <ele>2446.7</ele>
        <time>2024-04-27T09:40:21Z</time>
      </trkpt>
      <trkpt lat="45.8501" lon="6.44719">
        <ele>2446.7</ele>
        <time>2024-04-27T09:40:22Z</time>
      </trkpt>
      <trkpt lat="45.8501" lon="6.44719">
        <ele>2446.7</ele>
        <time>2024-04-27T09:40:23Z</time>
      </trkpt>
      <trkpt lat="45.85009" lon="6.44719">
        <ele>2447.7</ele>
        <time>2024-04-27T09:40:24Z</time>
      </trkpt>
      <trkpt lat="45.85009" lon="6.4472">
        <ele>2447.7</ele>
        <time>2024-04-27T09:40:25Z</time>
      </trkpt>
      <trkpt lat="45.85009" lon="6.4472">
        <ele>2448.6</ele>
        <time>2024-04-27T09:40:26Z</time>
      </trkpt>
      <trkpt lat="45.85009" lon="6.4472">
        <ele>2448.6</ele>
        <time>2024-04-27T09:40:27Z</time>
      </trkpt>
      <trkpt lat="45.85009" lon="6.4472">
        <ele>2448.6</ele>
        <time>2024-04-27T09:40:28Z</time>
      </trkpt>
      <trkpt lat="45.85009" lon="6.4472">
        <ele>2448.6</ele>
        <time>2024-04-27T09:40:29Z</time>
      </trkpt>
      <trkpt lat="45.85009" lon="6.4472">
        <ele>2448.6</ele>
        <time>2024-04-27T09:40:30Z</time>
      </trkpt>
      <trkpt lat="45.85009" lon="6.4472">
        <ele>2448.6</ele>
        <time>2024-04-27T09:40:31Z</time>
      </trkpt>
      <trkpt lat="45.85009" lon="6.4472">
        <ele>2448.6</ele>
        <time>2024-04-27T09:40:32Z</time>
      </trkpt>
      <trkpt lat="45.85009" lon="6.4472">
        <ele>2448.6</ele>
        <time>2024-04-27T09:40:33Z</time>
      </trkpt>
      <trkpt lat="45.85009" lon="6.4472">
        <ele>2449.7</ele>
        <time>2024-04-27T09:40:34Z</time>
      </trkpt>
      <trkpt lat="45.85009" lon="6.4472">
        <ele>2449.7</ele>
        <time>2024-04-27T09:40:35Z</time>
      </trkpt>
      <trkpt lat="45.85009" lon="6.4472">
        <ele>2449.7</ele>
        <time>2024-04-27T09:40:36Z</time>
      </trkpt>
      <trkpt lat="45.85009" lon="6.4472">
        <ele>2449.7</ele>
        <time>2024-04-27T09:40:37Z</time>
      </trkpt>
      <trkpt lat="45.85009" lon="6.4472">
        <ele>2449.7</ele>
        <time>2024-04-27T09:40:38Z</time>
      </trkpt>
      <trkpt lat="45.85009" lon="6.4472">
        <ele>2449.7</ele>
        <time>2024-04-27T09:40:39Z</time>
      </trkpt>
      <trkpt lat="45.85009" lon="6.44721">
        <ele>2449.7</ele>
        <time>2024-04-27T09:40:40Z</time>
      </trkpt>
      <trkpt lat="45.85009" lon="6.44721">
        <ele>2449.7</ele>
        <time>2024-04-27T09:40:41Z</time>
      </trkpt>
      <trkpt lat="45.85009" lon="6.44721">
        <ele>2449.7</ele>
        <time>2024-04-27T09:40:42Z</time>
      </trkpt>
      <trkpt lat="45.85009" lon="6.44721">
        <ele>2449.7</ele>
        <time>2024-04-27T09:40:43Z</time>
      </trkpt>
      <trkpt lat="45.85009" lon="6.44721">
        <ele>2450.6</ele>
        <time>2024-04-27T09:40:44Z</time>
      </trkpt>
      <trkpt lat="45.85009" lon="6.44721">
        <ele>2450.6</ele>
        <time>2024-04-27T09:40:45Z</time>
      </trkpt>
      <trkpt lat="45.85009" lon="6.44722">
        <ele>2450.6</ele>
        <time>2024-04-27T09:40:46Z</time>
      </trkpt>
      <trkpt lat="45.85009" lon="6.44722">
        <ele>2450.6</ele>
        <time>2024-04-27T09:40:47Z</time>
      </trkpt>
      <trkpt lat="45.8501" lon="6.44722">
        <ele>2450.6</ele>
        <time>2024-04-27T09:40:48Z</time>
      </trkpt>
      <trkpt lat="45.8501" lon="6.44722">
        <ele>2450.6</ele>
        <time>2024-04-27T09:40:49Z</time>
      </trkpt>
      <trkpt lat="45.8501" lon="6.44722">
        <ele>2450.6</ele>
        <time>2024-04-27T09:40:50Z</time>
      </trkpt>
      <trkpt lat="45.8501" lon="6.44723">
        <ele>2450.6</ele>
        <time>2024-04-27T09:40:51Z</time>
      </trkpt>
      <trkpt lat="45.8501" lon="6.44723">
        <ele>2450.6</ele>
        <time>2024-04-27T09:40:52Z</time>
      </trkpt>
      <trkpt lat="45.8501" lon="6.44723">
        <ele>2450.6</ele>
        <time>2024-04-27T09:40:53Z</time>
      </trkpt>
      <trkpt lat="45.85011" lon="6.44724">
        <ele>2450.6</ele>
        <time>2024-04-27T09:40:54Z</time>
      </trkpt>
      <trkpt lat="45.85011" lon="6.44724">
        <ele>2450.6</ele>
        <time>2024-04-27T09:40:55Z</time>
      </trkpt>
      <trkpt lat="45.85011" lon="6.44725">
        <ele>2450.6</ele>
        <time>2024-04-27T09:40:56Z</time>
      </trkpt>
      <trkpt lat="45.85011" lon="6.44726">
        <ele>2450.6</ele>
        <time>2024-04-27T09:40:57Z</time>
      </trkpt>
      <trkpt lat="45.85011" lon="6.44726">
        <ele>2450.6</ele>
        <time>2024-04-27T09:40:58Z</time>
      </trkpt>
      <trkpt lat="45.85011" lon="6.44726">
        <ele>2450.6</ele>
        <time>2024-04-27T09:40:59Z</time>
      </trkpt>
      <trkpt lat="45.85011" lon="6.44727">
        <ele>2450.6</ele>
        <time>2024-04-27T09:41:00Z</time>
      </trkpt>
      <trkpt lat="45.85011" lon="6.44727">
        <ele>2450.6</ele>
        <time>2024-04-27T09:41:01Z</time>
      </trkpt>
      <trkpt lat="45.85011" lon="6.44727">
        <ele>2450.6</ele>
        <time>2024-04-27T09:41:02Z</time>
      </trkpt>
      <trkpt lat="45.85011" lon="6.44727">
        <ele>2450.6</ele>
        <time>2024-04-27T09:41:03Z</time>
      </trkpt>
      <trkpt lat="45.85011" lon="6.44728">
        <ele>2450.6</ele>
        <time>2024-04-27T09:41:04Z</time>
      </trkpt>
      <trkpt lat="45.85011" lon="6.44728">
        <ele>2450.6</ele>
        <time>2024-04-27T09:41:05Z</time>
      </trkpt>
      <trkpt lat="45.85011" lon="6.44728">
        <ele>2452.6</ele>
        <time>2024-04-27T09:41:06Z</time>
      </trkpt>
      <trkpt lat="45.85011" lon="6.44729">
        <ele>2452.6</ele>
        <time>2024-04-27T09:41:07Z</time>
      </trkpt>
      <trkpt lat="45.85011" lon="6.44729">
        <ele>2452.6</ele>
        <time>2024-04-27T09:41:08Z</time>
      </trkpt>
      <trkpt lat="45.85011" lon="6.4473">
        <ele>2452.6</ele>
        <time>2024-04-27T09:41:09Z</time>
      </trkpt>
      <trkpt lat="45.85011" lon="6.4473">
        <ele>2452.6</ele>
        <time>2024-04-27T09:41:10Z</time>
      </trkpt>
      <trkpt lat="45.85011" lon="6.4473">
        <ele>2452.6</ele>
        <time>2024-04-27T09:41:11Z</time>
      </trkpt>
      <trkpt lat="45.85011" lon="6.44731">
        <ele>2452.6</ele>
        <time>2024-04-27T09:41:12Z</time>
      </trkpt>
      <trkpt lat="45.85011" lon="6.44731">
        <ele>2452.6</ele>
        <time>2024-04-27T09:41:13Z</time>
      </trkpt>
      <trkpt lat="45.85011" lon="6.44731">
        <ele>2452.6</ele>
        <time>2024-04-27T09:41:14Z</time>
      </trkpt>
      <trkpt lat="45.85011" lon="6.44731">
        <ele>2452.6</ele>
        <time>2024-04-27T09:41:15Z</time>
      </trkpt>
      <trkpt lat="45.85011" lon="6.44732">
        <ele>2452.6</ele>
        <time>2024-04-27T09:41:16Z</time>
      </trkpt>
      <trkpt lat="45.85011" lon="6.44732">
        <ele>2452.6</ele>
        <time>2024-04-27T09:41:17Z</time>
      </trkpt>
      <trkpt lat="45.85011" lon="6.44732">
        <ele>2452.6</ele>
        <time>2024-04-27T09:41:18Z</time>
      </trkpt>
      <trkpt lat="45.85011" lon="6.44733">
        <ele>2452.6</ele>
        <time>2024-04-27T09:41:19Z</time>
      </trkpt>
      <trkpt lat="45.8501" lon="6.44733">
        <ele>2452.6</ele>
        <time>2024-04-27T09:41:20Z</time>
      </trkpt>
      <trkpt lat="45.8501" lon="6.44734">
        <ele>2452.6</ele>
        <time>2024-04-27T09:41:21Z</time>
      </trkpt>
      <trkpt lat="45.8501" lon="6.44734">
        <ele>2452.6</ele>
        <time>2024-04-27T09:41:22Z</time>
      </trkpt>
      <trkpt lat="45.8501" lon="6.44734">
        <ele>2452.6</ele>
        <time>2024-04-27T09:41:23Z</time>
      </trkpt>
      <trkpt lat="45.8501" lon="6.44734">
        <ele>2452.6</ele>
        <time>2024-04-27T09:41:24Z</time>
      </trkpt>
      <trkpt lat="45.85009" lon="6.44734">
        <ele>2452.6</ele>
        <time>2024-04-27T09:41:25Z</time>
      </trkpt>
      <trkpt lat="45.85009" lon="6.44734">
        <ele>2452.6</ele>
        <time>2024-04-27T09:41:26Z</time>
      </trkpt>
      <trkpt lat="45.85009" lon="6.44734">
        <ele>2452.6</ele>
        <time>2024-04-27T09:41:27Z</time>
      </trkpt>
      <trkpt lat="45.85009" lon="6.44734">
        <ele>2452.6</ele>
        <time>2024-04-27T09:41:28Z</time>
      </trkpt>
      <trkpt lat="45.85009" lon="6.44734">
        <ele>2452.6</ele>
        <time>2024-04-27T09:41:29Z</time>
      </trkpt>
      <trkpt lat="45.85009" lon="6.44734">
        <ele>2452.6</ele>
        <time>2024-04-27T09:41:30Z</time>
      </trkpt>
      <trkpt lat="45.85009" lon="6.44734">
        <ele>2452.6</ele>
        <time>2024-04-27T09:41:31Z</time>
      </trkpt>
      <trkpt lat="45.85009" lon="6.44734">
        <ele>2452.6</ele>
        <time>2024-04-27T09:41:32Z</time>
      </trkpt>
      <trkpt lat="45.85008" lon="6.44734">
        <ele>2452.6</ele>
        <time>2024-04-27T09:41:33Z</time>
      </trkpt>
      <trkpt lat="45.85008" lon="6.44734">
        <ele>2452.6</ele>
        <time>2024-04-27T09:41:34Z</time>
      </trkpt>
      <trkpt lat="45.85008" lon="6.44734">
        <ele>2452.6</ele>
        <time>2024-04-27T09:41:35Z</time>
      </trkpt>
      <trkpt lat="45.85008" lon="6.44734">
        <ele>2452.6</ele>
        <time>2024-04-27T09:41:36Z</time>
      </trkpt>
      <trkpt lat="45.85008" lon="6.44734">
        <ele>2452.6</ele>
        <time>2024-04-27T09:41:37Z</time>
      </trkpt>
      <trkpt lat="45.85008" lon="6.44734">
        <ele>2453.7</ele>
        <time>2024-04-27T09:41:38Z</time>
      </trkpt>
      <trkpt lat="45.85008" lon="6.44734">
        <ele>2453.7</ele>
        <time>2024-04-27T09:41:39Z</time>
      </trkpt>
      <trkpt lat="45.85008" lon="6.44734">
        <ele>2453.7</ele>
        <time>2024-04-27T09:41:40Z</time>
      </trkpt>
      <trkpt lat="45.85008" lon="6.44734">
        <ele>2453.7</ele>
        <time>2024-04-27T09:41:41Z</time>
      </trkpt>
      <trkpt lat="45.85008" lon="6.44734">
        <ele>2453.7</ele>
        <time>2024-04-27T09:41:42Z</time>
      </trkpt>
      <trkpt lat="45.85008" lon="6.44733">
        <ele>2453.7</ele>
        <time>2024-04-27T09:41:43Z</time>
      </trkpt>
      <trkpt lat="45.85008" lon="6.44733">
        <ele>2453.7</ele>
        <time>2024-04-27T09:41:44Z</time>
      </trkpt>
      <trkpt lat="45.85009" lon="6.44733">
        <ele>2453.7</ele>
        <time>2024-04-27T09:41:45Z</time>
      </trkpt>
      <trkpt lat="45.85009" lon="6.44732">
        <ele>2452.6</ele>
        <time>2024-04-27T09:41:46Z</time>
      </trkpt>
      <trkpt lat="45.85009" lon="6.44732">
        <ele>2452.6</ele>
        <time>2024-04-27T09:41:47Z</time>
      </trkpt>
      <trkpt lat="45.85009" lon="6.44732">
        <ele>2452.6</ele>
        <time>2024-04-27T09:41:48Z</time>
      </trkpt>
      <trkpt lat="45.85009" lon="6.44732">
        <ele>2452.6</ele>
        <time>2024-04-27T09:41:49Z</time>
      </trkpt>
      <trkpt lat="45.85009" lon="6.44732">
        <ele>2452.6</ele>
        <time>2024-04-27T09:41:50Z</time>
      </trkpt>
      <trkpt lat="45.85009" lon="6.44732">
        <ele>2452.6</ele>
        <time>2024-04-27T09:41:51Z</time>
      </trkpt>
      <trkpt lat="45.85009" lon="6.44731">
        <ele>2452.6</ele>
        <time>2024-04-27T09:41:52Z</time>
      </trkpt>
      <trkpt lat="45.85009" lon="6.44731">
        <ele>2452.6</ele>
        <time>2024-04-27T09:41:53Z</time>
      </trkpt>
      <trkpt lat="45.85009" lon="6.44731">
        <ele>2452.6</ele>
        <time>2024-04-27T09:41:54Z</time>
      </trkpt>
      <trkpt lat="45.85009" lon="6.44731">
        <ele>2452.6</ele>
        <time>2024-04-27T09:41:55Z</time>
      </trkpt>
      <trkpt lat="45.85009" lon="6.44731">
        <ele>2452.6</ele>
        <time>2024-04-27T09:41:56Z</time>
      </trkpt>
      <trkpt lat="45.85009" lon="6.44731">
        <ele>2452.6</ele>
        <time>2024-04-27T09:41:57Z</time>
      </trkpt>
      <trkpt lat="45.85009" lon="6.44731">
        <ele>2452.6</ele>
        <time>2024-04-27T09:41:58Z</time>
      </trkpt>
      <trkpt lat="45.85009" lon="6.44731">
        <ele>2452.6</ele>
        <time>2024-04-27T09:41:59Z</time>
      </trkpt>
      <trkpt lat="45.85009" lon="6.44731">
        <ele>2452.6</ele>
        <time>2024-04-27T09:42:00Z</time>
      </trkpt>
      <trkpt lat="45.85009" lon="6.44731">
        <ele>2452.6</ele>
        <time>2024-04-27T09:42:01Z</time>
      </trkpt>
      <trkpt lat="45.85009" lon="6.44731">
        <ele>2452.6</ele>
        <time>2024-04-27T09:42:02Z</time>
      </trkpt>
      <trkpt lat="45.85009" lon="6.44731">
        <ele>2452.6</ele>
        <time>2024-04-27T09:42:03Z</time>
      </trkpt>
      <trkpt lat="45.85009" lon="6.44731">
        <ele>2452.6</ele>
        <time>2024-04-27T09:42:04Z</time>
      </trkpt>
      <trkpt lat="45.85009" lon="6.44731">
        <ele>2452.6</ele>
        <time>2024-04-27T09:42:05Z</time>
      </trkpt>
      <trkpt lat="45.85009" lon="6.44731">
        <ele>2452.6</ele>
        <time>2024-04-27T09:42:06Z</time>
      </trkpt>
      <trkpt lat="45.85009" lon="6.44731">
        <ele>2452.6</ele>
        <time>2024-04-27T09:42:07Z</time>
      </trkpt>
      <trkpt lat="45.85009" lon="6.44731">
        <ele>2453.7</ele>
        <time>2024-04-27T09:42:08Z</time>
      </trkpt>
      <trkpt lat="45.85009" lon="6.44731">
        <ele>2453.7</ele>
        <time>2024-04-27T09:42:09Z</time>
      </trkpt>
      <trkpt lat="45.85009" lon="6.44731">
        <ele>2453.7</ele>
        <time>2024-04-27T09:42:10Z</time>
      </trkpt>
      <trkpt lat="45.85009" lon="6.4473">
        <ele>2453.7</ele>
        <time>2024-04-27T09:42:11Z</time>
      </trkpt>
      <trkpt lat="45.85009" lon="6.4473">
        <ele>2453.7</ele>
        <time>2024-04-27T09:42:12Z</time>
      </trkpt>
      <trkpt lat="45.85009" lon="6.4473">
        <ele>2453.7</ele>
        <time>2024-04-27T09:42:13Z</time>
      </trkpt>
      <trkpt lat="45.85009" lon="6.4473">
        <ele>2453.7</ele>
        <time>2024-04-27T09:42:14Z</time>
      </trkpt>
      <trkpt lat="45.85009" lon="6.4473">
        <ele>2453.7</ele>
        <time>2024-04-27T09:42:15Z</time>
      </trkpt>
      <trkpt lat="45.85009" lon="6.4473">
        <ele>2454.6</ele>
        <time>2024-04-27T09:42:16Z</time>
      </trkpt>
      <trkpt lat="45.85009" lon="6.4473">
        <ele>2454.6</ele>
        <time>2024-04-27T09:42:17Z</time>
      </trkpt>
      <trkpt lat="45.85009" lon="6.4473">
        <ele>2454.6</ele>
        <time>2024-04-27T09:42:18Z</time>
      </trkpt>
      <trkpt lat="45.85009" lon="6.4473">
        <ele>2454.6</ele>
        <time>2024-04-27T09:42:19Z</time>
      </trkpt>
      <trkpt lat="45.85009" lon="6.4473">
        <ele>2454.6</ele>
        <time>2024-04-27T09:42:20Z</time>
      </trkpt>
      <trkpt lat="45.85009" lon="6.4473">
        <ele>2454.6</ele>
        <time>2024-04-27T09:42:21Z</time>
      </trkpt>
      <trkpt lat="45.85009" lon="6.44729">
        <ele>2454.6</ele>
        <time>2024-04-27T09:42:22Z</time>
      </trkpt>
      <trkpt lat="45.85009" lon="6.44729">
        <ele>2454.6</ele>
        <time>2024-04-27T09:42:23Z</time>
      </trkpt>
      <trkpt lat="45.85009" lon="6.44728">
        <ele>2454.6</ele>
        <time>2024-04-27T09:42:24Z</time>
      </trkpt>
      <trkpt lat="45.85009" lon="6.44727">
        <ele>2454.6</ele>
        <time>2024-04-27T09:42:25Z</time>
      </trkpt>
      <trkpt lat="45.85009" lon="6.44725">
        <ele>2454.6</ele>
        <time>2024-04-27T09:42:26Z</time>
      </trkpt>
      <trkpt lat="45.85009" lon="6.44724">
        <ele>2454.6</ele>
        <time>2024-04-27T09:42:27Z</time>
      </trkpt>
      <trkpt lat="45.85009" lon="6.44722">
        <ele>2453.7</ele>
        <time>2024-04-27T09:42:28Z</time>
      </trkpt>
      <trkpt lat="45.85009" lon="6.44721">
        <ele>2453.7</ele>
        <time>2024-04-27T09:42:29Z</time>
      </trkpt>
      <trkpt lat="45.85009" lon="6.4472">
        <ele>2452.6</ele>
        <time>2024-04-27T09:42:30Z</time>
      </trkpt>
      <trkpt lat="45.85009" lon="6.44719">
        <ele>2452.6</ele>
        <time>2024-04-27T09:42:31Z</time>
      </trkpt>
      <trkpt lat="45.85009" lon="6.44718">
        <ele>2451.7</ele>
        <time>2024-04-27T09:42:32Z</time>
      </trkpt>
      <trkpt lat="45.85009" lon="6.44717">
        <ele>2451.7</ele>
        <time>2024-04-27T09:42:33Z</time>
      </trkpt>
      <trkpt lat="45.85009" lon="6.44717">
        <ele>2452.6</ele>
        <time>2024-04-27T09:42:34Z</time>
      </trkpt>
      <trkpt lat="45.85009" lon="6.44717">
        <ele>2452.6</ele>
        <time>2024-04-27T09:42:35Z</time>
      </trkpt>
      <trkpt lat="45.85009" lon="6.44717">
        <ele>2452.6</ele>
        <time>2024-04-27T09:42:36Z</time>
      </trkpt>
      <trkpt lat="45.85009" lon="6.44717">
        <ele>2452.6</ele>
        <time>2024-04-27T09:42:37Z</time>
      </trkpt>
      <trkpt lat="45.85009" lon="6.44717">
        <ele>2452.6</ele>
        <time>2024-04-27T09:42:38Z</time>
      </trkpt>
      <trkpt lat="45.85009" lon="6.44717">
        <ele>2452.6</ele>
        <time>2024-04-27T09:42:39Z</time>
      </trkpt>
      <trkpt lat="45.85009" lon="6.44717">
        <ele>2452.6</ele>
        <time>2024-04-27T09:42:40Z</time>
      </trkpt>
      <trkpt lat="45.85009" lon="6.44717">
        <ele>2452.6</ele>
        <time>2024-04-27T09:42:41Z</time>
      </trkpt>
      <trkpt lat="45.85009" lon="6.44717">
        <ele>2452.6</ele>
        <time>2024-04-27T09:42:42Z</time>
      </trkpt>
      <trkpt lat="45.85009" lon="6.44717">
        <ele>2452.6</ele>
        <time>2024-04-27T09:42:43Z</time>
      </trkpt>
      <trkpt lat="45.85009" lon="6.44717">
        <ele>2450.6</ele>
        <time>2024-04-27T09:42:44Z</time>
      </trkpt>
      <trkpt lat="45.85009" lon="6.44717">
        <ele>2450.6</ele>
        <time>2024-04-27T09:42:45Z</time>
      </trkpt>
      <trkpt lat="45.85009" lon="6.44717">
        <ele>2449.7</ele>
        <time>2024-04-27T09:42:46Z</time>
      </trkpt>
      <trkpt lat="45.85009" lon="6.44717">
        <ele>2449.7</ele>
        <time>2024-04-27T09:42:47Z</time>
      </trkpt>
      <trkpt lat="45.85009" lon="6.44717">
        <ele>2449.7</ele>
        <time>2024-04-27T09:42:48Z</time>
      </trkpt>
      <trkpt lat="45.85009" lon="6.44717">
        <ele>2449.7</ele>
        <time>2024-04-27T09:42:49Z</time>
      </trkpt>
      <trkpt lat="45.85009" lon="6.44717">
        <ele>2448.6</ele>
        <time>2024-04-27T09:42:50Z</time>
      </trkpt>
      <trkpt lat="45.85009" lon="6.44717">
        <ele>2448.6</ele>
        <time>2024-04-27T09:42:51Z</time>
      </trkpt>
      <trkpt lat="45.85009" lon="6.44717">
        <ele>2447.7</ele>
        <time>2024-04-27T09:42:52Z</time>
      </trkpt>
      <trkpt lat="45.8501" lon="6.44717">
        <ele>2447.7</ele>
        <time>2024-04-27T09:42:53Z</time>
      </trkpt>
      <trkpt lat="45.8501" lon="6.44717">
        <ele>2447.7</ele>
        <time>2024-04-27T09:42:54Z</time>
      </trkpt>
      <trkpt lat="45.8501" lon="6.44717">
        <ele>2447.7</ele>
        <time>2024-04-27T09:42:55Z</time>
      </trkpt>
      <trkpt lat="45.85011" lon="6.44717">
        <ele>2446.7</ele>
        <time>2024-04-27T09:42:56Z</time>
      </trkpt>
      <trkpt lat="45.85011" lon="6.44717">
        <ele>2446.7</ele>
        <time>2024-04-27T09:42:57Z</time>
      </trkpt>
      <trkpt lat="45.85011" lon="6.44717">
        <ele>2446.7</ele>
        <time>2024-04-27T09:42:58Z</time>
      </trkpt>
      <trkpt lat="45.85011" lon="6.44717">
        <ele>2446.7</ele>
        <time>2024-04-27T09:42:59Z</time>
      </trkpt>
      <trkpt lat="45.85011" lon="6.44717">
        <ele>2445.6</ele>
        <time>2024-04-27T09:43:00Z</time>
      </trkpt>
      <trkpt lat="45.85011" lon="6.44717">
        <ele>2445.6</ele>
        <time>2024-04-27T09:43:01Z</time>
      </trkpt>
      <trkpt lat="45.85012" lon="6.44717">
        <ele>2444.7</ele>
        <time>2024-04-27T09:43:02Z</time>
      </trkpt>
      <trkpt lat="45.85012" lon="6.44717">
        <ele>2444.7</ele>
        <time>2024-04-27T09:43:03Z</time>
      </trkpt>
      <trkpt lat="45.85012" lon="6.44717">
        <ele>2444.7</ele>
        <time>2024-04-27T09:43:04Z</time>
      </trkpt>
      <trkpt lat="45.85013" lon="6.44717">
        <ele>2444.7</ele>
        <time>2024-04-27T09:43:05Z</time>
      </trkpt>
      <trkpt lat="45.85013" lon="6.44717">
        <ele>2443.6</ele>
        <time>2024-04-27T09:43:06Z</time>
      </trkpt>
      <trkpt lat="45.85013" lon="6.44717">
        <ele>2443.6</ele>
        <time>2024-04-27T09:43:07Z</time>
      </trkpt>
      <trkpt lat="45.85013" lon="6.44717">
        <ele>2442.7</ele>
        <time>2024-04-27T09:43:08Z</time>
      </trkpt>
      <trkpt lat="45.85013" lon="6.44717">
        <ele>2442.7</ele>
        <time>2024-04-27T09:43:09Z</time>
      </trkpt>
      <trkpt lat="45.85013" lon="6.44717">
        <ele>2442.7</ele>
        <time>2024-04-27T09:43:10Z</time>
      </trkpt>
      <trkpt lat="45.85014" lon="6.44717">
        <ele>2442.7</ele>
        <time>2024-04-27T09:43:11Z</time>
      </trkpt>
      <trkpt lat="45.85014" lon="6.44717">
        <ele>2442.7</ele>
        <time>2024-04-27T09:43:12Z</time>
      </trkpt>
      <trkpt lat="45.85014" lon="6.44717">
        <ele>2442.7</ele>
        <time>2024-04-27T09:43:13Z</time>
      </trkpt>
      <trkpt lat="45.85014" lon="6.44717">
        <ele>2441.6</ele>
        <time>2024-04-27T09:43:14Z</time>
      </trkpt>
      <trkpt lat="45.85014" lon="6.44717">
        <ele>2441.6</ele>
        <time>2024-04-27T09:43:15Z</time>
      </trkpt>
      <trkpt lat="45.85014" lon="6.44717">
        <ele>2441.6</ele>
        <time>2024-04-27T09:43:16Z</time>
      </trkpt>
      <trkpt lat="45.85014" lon="6.44717">
        <ele>2441.6</ele>
        <time>2024-04-27T09:43:17Z</time>
      </trkpt>
      <trkpt lat="45.85014" lon="6.44717">
        <ele>2441.6</ele>
        <time>2024-04-27T09:43:18Z</time>
      </trkpt>
      <trkpt lat="45.85014" lon="6.44717">
        <ele>2441.6</ele>
        <time>2024-04-27T09:43:19Z</time>
      </trkpt>
      <trkpt lat="45.85015" lon="6.44717">
        <ele>2441.6</ele>
        <time>2024-04-27T09:43:20Z</time>
      </trkpt>
      <trkpt lat="45.85015" lon="6.44717">
        <ele>2441.6</ele>
        <time>2024-04-27T09:43:21Z</time>
      </trkpt>
      <trkpt lat="45.85015" lon="6.44717">
        <ele>2440.7</ele>
        <time>2024-04-27T09:43:22Z</time>
      </trkpt>
      <trkpt lat="45.85016" lon="6.44717">
        <ele>2440.7</ele>
        <time>2024-04-27T09:43:23Z</time>
      </trkpt>
      <trkpt lat="45.85016" lon="6.44717">
        <ele>2440.7</ele>
        <time>2024-04-27T09:43:24Z</time>
      </trkpt>
      <trkpt lat="45.85016" lon="6.44717">
        <ele>2440.7</ele>
        <time>2024-04-27T09:43:25Z</time>
      </trkpt>
      <trkpt lat="45.85016" lon="6.44716">
        <ele>2439.6</ele>
        <time>2024-04-27T09:43:26Z</time>
      </trkpt>
      <trkpt lat="45.85017" lon="6.44716">
        <ele>2439.6</ele>
        <time>2024-04-27T09:43:27Z</time>
      </trkpt>
      <trkpt lat="45.85017" lon="6.44716">
        <ele>2439.6</ele>
        <time>2024-04-27T09:43:28Z</time>
      </trkpt>
      <trkpt lat="45.85017" lon="6.44716">
        <ele>2439.6</ele>
        <time>2024-04-27T09:43:29Z</time>
      </trkpt>
      <trkpt lat="45.85017" lon="6.44715">
        <ele>2439.6</ele>
        <time>2024-04-27T09:43:30Z</time>
      </trkpt>
      <trkpt lat="45.85017" lon="6.44715">
        <ele>2439.6</ele>
        <time>2024-04-27T09:43:31Z</time>
      </trkpt>
      <trkpt lat="45.85017" lon="6.44715">
        <ele>2439.6</ele>
        <time>2024-04-27T09:43:32Z</time>
      </trkpt>
      <trkpt lat="45.85017" lon="6.44715">
        <ele>2439.6</ele>
        <time>2024-04-27T09:43:33Z</time>
      </trkpt>
      <trkpt lat="45.85017" lon="6.44715">
        <ele>2439.6</ele>
        <time>2024-04-27T09:43:34Z</time>
      </trkpt>
      <trkpt lat="45.85018" lon="6.44715">
        <ele>2439.6</ele>
        <time>2024-04-27T09:43:35Z</time>
      </trkpt>
      <trkpt lat="45.85018" lon="6.44715">
        <ele>2439.6</ele>
        <time>2024-04-27T09:43:36Z</time>
      </trkpt>
      <trkpt lat="45.85018" lon="6.44714">
        <ele>2439.6</ele>
        <time>2024-04-27T09:43:37Z</time>
      </trkpt>
      <trkpt lat="45.85018" lon="6.44714">
        <ele>2439.6</ele>
        <time>2024-04-27T09:43:38Z</time>
      </trkpt>
      <trkpt lat="45.85019" lon="6.44714">
        <ele>2439.6</ele>
        <time>2024-04-27T09:43:39Z</time>
      </trkpt>
      <trkpt lat="45.85019" lon="6.44714">
        <ele>2439.6</ele>
        <time>2024-04-27T09:43:40Z</time>
      </trkpt>
      <trkpt lat="45.85019" lon="6.44714">
        <ele>2439.6</ele>
        <time>2024-04-27T09:43:41Z</time>
      </trkpt>
      <trkpt lat="45.85019" lon="6.44714">
        <ele>2438.6</ele>
        <time>2024-04-27T09:43:42Z</time>
      </trkpt>
      <trkpt lat="45.8502" lon="6.44714">
        <ele>2438.6</ele>
        <time>2024-04-27T09:43:43Z</time>
      </trkpt>
      <trkpt lat="45.8502" lon="6.44714">
        <ele>2438.6</ele>
        <time>2024-04-27T09:43:44Z</time>
      </trkpt>
      <trkpt lat="45.8502" lon="6.44714">
        <ele>2438.6</ele>
        <time>2024-04-27T09:43:45Z</time>
      </trkpt>
      <trkpt lat="45.8502" lon="6.44714">
        <ele>2438.6</ele>
        <time>2024-04-27T09:43:46Z</time>
      </trkpt>
      <trkpt lat="45.85021" lon="6.44714">
        <ele>2438.6</ele>
        <time>2024-04-27T09:43:47Z</time>
      </trkpt>
      <trkpt lat="45.85021" lon="6.44714">
        <ele>2438.6</ele>
        <time>2024-04-27T09:43:48Z</time>
      </trkpt>
      <trkpt lat="45.85021" lon="6.44714">
        <ele>2438.6</ele>
        <time>2024-04-27T09:43:49Z</time>
      </trkpt>
      <trkpt lat="45.85022" lon="6.44714">
        <ele>2437.7</ele>
        <time>2024-04-27T09:43:50Z</time>
      </trkpt>
      <trkpt lat="45.85022" lon="6.44714">
        <ele>2437.7</ele>
        <time>2024-04-27T09:43:51Z</time>
      </trkpt>
      <trkpt lat="45.85022" lon="6.44714">
        <ele>2437.7</ele>
        <time>2024-04-27T09:43:52Z</time>
      </trkpt>
      <trkpt lat="45.85022" lon="6.44714">
        <ele>2437.7</ele>
        <time>2024-04-27T09:43:53Z</time>
      </trkpt>
      <trkpt lat="45.85022" lon="6.44714">
        <ele>2437.7</ele>
        <time>2024-04-27T09:43:54Z</time>
      </trkpt>
      <trkpt lat="45.85022" lon="6.44714">
        <ele>2437.7</ele>
        <time>2024-04-27T09:43:55Z</time>
      </trkpt>
      <trkpt lat="45.85022" lon="6.44714">
        <ele>2436.6</ele>
        <time>2024-04-27T09:43:56Z</time>
      </trkpt>
      <trkpt lat="45.85022" lon="6.44714">
        <ele>2436.6</ele>
        <time>2024-04-27T09:43:57Z</time>
      </trkpt>
      <trkpt lat="45.85022" lon="6.44714">
        <ele>2436.6</ele>
        <time>2024-04-27T09:43:58Z</time>
      </trkpt>
      <trkpt lat="45.85022" lon="6.44714">
        <ele>2436.6</ele>
        <time>2024-04-27T09:43:59Z</time>
      </trkpt>
      <trkpt lat="45.85022" lon="6.44714">
        <ele>2436.6</ele>
        <time>2024-04-27T09:44:00Z</time>
      </trkpt>
      <trkpt lat="45.85023" lon="6.44714">
        <ele>2436.6</ele>
        <time>2024-04-27T09:44:01Z</time>
      </trkpt>
      <trkpt lat="45.85023" lon="6.44714">
        <ele>2436.6</ele>
        <time>2024-04-27T09:44:02Z</time>
      </trkpt>
      <trkpt lat="45.85023" lon="6.44714">
        <ele>2436.6</ele>
        <time>2024-04-27T09:44:03Z</time>
      </trkpt>
      <trkpt lat="45.85023" lon="6.44714">
        <ele>2436.6</ele>
        <time>2024-04-27T09:44:04Z</time>
      </trkpt>
      <trkpt lat="45.85023" lon="6.44714">
        <ele>2436.6</ele>
        <time>2024-04-27T09:44:05Z</time>
      </trkpt>
      <trkpt lat="45.85023" lon="6.44714">
        <ele>2436.6</ele>
        <time>2024-04-27T09:44:06Z</time>
      </trkpt>
      <trkpt lat="45.85023" lon="6.44714">
        <ele>2436.6</ele>
        <time>2024-04-27T09:44:07Z</time>
      </trkpt>
      <trkpt lat="45.85023" lon="6.44714">
        <ele>2435.7</ele>
        <time>2024-04-27T09:44:08Z</time>
      </trkpt>
      <trkpt lat="45.85024" lon="6.44714">
        <ele>2435.7</ele>
        <time>2024-04-27T09:44:09Z</time>
      </trkpt>
      <trkpt lat="45.85024" lon="6.44714">
        <ele>2435.7</ele>
        <time>2024-04-27T09:44:10Z</time>
      </trkpt>
      <trkpt lat="45.85024" lon="6.44714">
        <ele>2435.7</ele>
        <time>2024-04-27T09:44:11Z</time>
      </trkpt>
      <trkpt lat="45.85025" lon="6.44714">
        <ele>2435.7</ele>
        <time>2024-04-27T09:44:12Z</time>
      </trkpt>
      <trkpt lat="45.85025" lon="6.44714">
        <ele>2435.7</ele>
        <time>2024-04-27T09:44:13Z</time>
      </trkpt>
      <trkpt lat="45.85026" lon="6.44714">
        <ele>2435.7</ele>
        <time>2024-04-27T09:44:14Z</time>
      </trkpt>
      <trkpt lat="45.85026" lon="6.44714">
        <ele>2435.7</ele>
        <time>2024-04-27T09:44:15Z</time>
      </trkpt>
      <trkpt lat="45.85026" lon="6.44714">
        <ele>2435.7</ele>
        <time>2024-04-27T09:44:16Z</time>
      </trkpt>
      <trkpt lat="45.85027" lon="6.44714">
        <ele>2435.7</ele>
        <time>2024-04-27T09:44:17Z</time>
      </trkpt>
      <trkpt lat="45.85027" lon="6.44714">
        <ele>2435.7</ele>
        <time>2024-04-27T09:44:18Z</time>
      </trkpt>
      <trkpt lat="45.85027" lon="6.44714">
        <ele>2435.7</ele>
        <time>2024-04-27T09:44:19Z</time>
      </trkpt>
      <trkpt lat="45.85027" lon="6.44714">
        <ele>2435.7</ele>
        <time>2024-04-27T09:44:20Z</time>
      </trkpt>
      <trkpt lat="45.85027" lon="6.44714">
        <ele>2435.7</ele>
        <time>2024-04-27T09:44:21Z</time>
      </trkpt>
      <trkpt lat="45.85028" lon="6.44714">
        <ele>2435.7</ele>
        <time>2024-04-27T09:44:22Z</time>
      </trkpt>
      <trkpt lat="45.85028" lon="6.44714">
        <ele>2435.7</ele>
        <time>2024-04-27T09:44:23Z</time>
      </trkpt>
      <trkpt lat="45.85028" lon="6.44714">
        <ele>2435.7</ele>
        <time>2024-04-27T09:44:24Z</time>
      </trkpt>
      <trkpt lat="45.85028" lon="6.44714">
        <ele>2435.7</ele>
        <time>2024-04-27T09:44:25Z</time>
      </trkpt>
      <trkpt lat="45.85028" lon="6.44714">
        <ele>2435.7</ele>
        <time>2024-04-27T09:44:26Z</time>
      </trkpt>
      <trkpt lat="45.85028" lon="6.44714">
        <ele>2435.7</ele>
        <time>2024-04-27T09:44:27Z</time>
      </trkpt>
      <trkpt lat="45.85028" lon="6.44714">
        <ele>2435.7</ele>
        <time>2024-04-27T09:44:28Z</time>
      </trkpt>
      <trkpt lat="45.85028" lon="6.44714">
        <ele>2435.7</ele>
        <time>2024-04-27T09:44:29Z</time>
      </trkpt>
      <trkpt lat="45.85028" lon="6.44713">
        <ele>2435.7</ele>
        <time>2024-04-27T09:44:30Z</time>
      </trkpt>
      <trkpt lat="45.85028" lon="6.44713">
        <ele>2435.7</ele>
        <time>2024-04-27T09:44:31Z</time>
      </trkpt>
      <trkpt lat="45.85028" lon="6.44713">
        <ele>2435.7</ele>
        <time>2024-04-27T09:44:32Z</time>
      </trkpt>
      <trkpt lat="45.85029" lon="6.44713">
        <ele>2435.7</ele>
        <time>2024-04-27T09:44:33Z</time>
      </trkpt>
      <trkpt lat="45.85029" lon="6.44713">
        <ele>2435.7</ele>
        <time>2024-04-27T09:44:34Z</time>
      </trkpt>
      <trkpt lat="45.85029" lon="6.44713">
        <ele>2435.7</ele>
        <time>2024-04-27T09:44:35Z</time>
      </trkpt>
      <trkpt lat="45.85029" lon="6.44713">
        <ele>2435.7</ele>
        <time>2024-04-27T09:44:36Z</time>
      </trkpt>
      <trkpt lat="45.85029" lon="6.44713">
        <ele>2435.7</ele>
        <time>2024-04-27T09:44:37Z</time>
      </trkpt>
      <trkpt lat="45.85029" lon="6.44712">
        <ele>2434.6</ele>
        <time>2024-04-27T09:44:38Z</time>
      </trkpt>
      <trkpt lat="45.85029" lon="6.44712">
        <ele>2434.6</ele>
        <time>2024-04-27T09:44:39Z</time>
      </trkpt>
      <trkpt lat="45.85029" lon="6.44712">
        <ele>2434.6</ele>
        <time>2024-04-27T09:44:40Z</time>
      </trkpt>
      <trkpt lat="45.85029" lon="6.44712">
        <ele>2434.6</ele>
        <time>2024-04-27T09:44:41Z</time>
      </trkpt>
      <trkpt lat="45.85029" lon="6.44712">
        <ele>2434.6</ele>
        <time>2024-04-27T09:44:42Z</time>
      </trkpt>
      <trkpt lat="45.85029" lon="6.44712">
        <ele>2434.6</ele>
        <time>2024-04-27T09:44:43Z</time>
      </trkpt>
      <trkpt lat="45.8503" lon="6.44712">
        <ele>2434.6</ele>
        <time>2024-04-27T09:44:44Z</time>
      </trkpt>
      <trkpt lat="45.8503" lon="6.44712">
        <ele>2434.6</ele>
        <time>2024-04-27T09:44:45Z</time>
      </trkpt>
      <trkpt lat="45.8503" lon="6.44712">
        <ele>2434.6</ele>
        <time>2024-04-27T09:44:46Z</time>
      </trkpt>
      <trkpt lat="45.8503" lon="6.44712">
        <ele>2434.6</ele>
        <time>2024-04-27T09:44:47Z</time>
      </trkpt>
      <trkpt lat="45.8503" lon="6.44712">
        <ele>2434.6</ele>
        <time>2024-04-27T09:44:48Z</time>
      </trkpt>
      <trkpt lat="45.8503" lon="6.44712">
        <ele>2434.6</ele>
        <time>2024-04-27T09:44:49Z</time>
      </trkpt>
      <trkpt lat="45.8503" lon="6.44711">
        <ele>2434.6</ele>
        <time>2024-04-27T09:44:50Z</time>
      </trkpt>
      <trkpt lat="45.8503" lon="6.44711">
        <ele>2434.6</ele>
        <time>2024-04-27T09:44:51Z</time>
      </trkpt>
      <trkpt lat="45.8503" lon="6.44711">
        <ele>2434.6</ele>
        <time>2024-04-27T09:44:52Z</time>
      </trkpt>
      <trkpt lat="45.8503" lon="6.44711">
        <ele>2434.6</ele>
        <time>2024-04-27T09:44:53Z</time>
      </trkpt>
      <trkpt lat="45.8503" lon="6.44711">
        <ele>2434.6</ele>
        <time>2024-04-27T09:44:54Z</time>
      </trkpt>
      <trkpt lat="45.8503" lon="6.44711">
        <ele>2434.6</ele>
        <time>2024-04-27T09:44:55Z</time>
      </trkpt>
      <trkpt lat="45.8503" lon="6.44711">
        <ele>2434.6</ele>
        <time>2024-04-27T09:44:56Z</time>
      </trkpt>
      <trkpt lat="45.8503" lon="6.44711">
        <ele>2434.6</ele>
        <time>2024-04-27T09:44:57Z</time>
      </trkpt>
      <trkpt lat="45.8503" lon="6.44711">
        <ele>2434.6</ele>
        <time>2024-04-27T09:44:58Z</time>
      </trkpt>
      <trkpt lat="45.8503" lon="6.44711">
        <ele>2434.6</ele>
        <time>2024-04-27T09:44:59Z</time>
      </trkpt>
      <trkpt lat="45.8503" lon="6.44711">
        <ele>2434.6</ele>
        <time>2024-04-27T09:45:00Z</time>
      </trkpt>
      <trkpt lat="45.8503" lon="6.44711">
        <ele>2434.6</ele>
        <time>2024-04-27T09:45:01Z</time>
      </trkpt>
      <trkpt lat="45.8503" lon="6.44711">
        <ele>2432.6</ele>
        <time>2024-04-27T09:45:02Z</time>
      </trkpt>
      <trkpt lat="45.8503" lon="6.4471">
        <ele>2432.6</ele>
        <time>2024-04-27T09:45:03Z</time>
      </trkpt>
      <trkpt lat="45.8503" lon="6.4471">
        <ele>2432.6</ele>
        <time>2024-04-27T09:45:04Z</time>
      </trkpt>
      <trkpt lat="45.8503" lon="6.4471">
        <ele>2432.6</ele>
        <time>2024-04-27T09:45:05Z</time>
      </trkpt>
      <trkpt lat="45.8503" lon="6.4471">
        <ele>2431.7</ele>
        <time>2024-04-27T09:45:06Z</time>
      </trkpt>
      <trkpt lat="45.8503" lon="6.4471">
        <ele>2431.7</ele>
        <time>2024-04-27T09:45:07Z</time>
      </trkpt>
      <trkpt lat="45.8503" lon="6.4471">
        <ele>2431.7</ele>
        <time>2024-04-27T09:45:08Z</time>
      </trkpt>
      <trkpt lat="45.8503" lon="6.4471">
        <ele>2431.7</ele>
        <time>2024-04-27T09:45:09Z</time>
      </trkpt>
      <trkpt lat="45.8503" lon="6.4471">
        <ele>2430.7</ele>
        <time>2024-04-27T09:45:10Z</time>
      </trkpt>
      <trkpt lat="45.8503" lon="6.4471">
        <ele>2430.7</ele>
        <time>2024-04-27T09:45:11Z</time>
      </trkpt>
      <trkpt lat="45.8503" lon="6.4471">
        <ele>2430.7</ele>
        <time>2024-04-27T09:45:12Z</time>
      </trkpt>
      <trkpt lat="45.8503" lon="6.4471">
        <ele>2430.7</ele>
        <time>2024-04-27T09:45:13Z</time>
      </trkpt>
      <trkpt lat="45.8503" lon="6.4471">
        <ele>2430.7</ele>
        <time>2024-04-27T09:45:14Z</time>
      </trkpt>
      <trkpt lat="45.8503" lon="6.4471">
        <ele>2430.7</ele>
        <time>2024-04-27T09:45:15Z</time>
      </trkpt>
      <trkpt lat="45.8503" lon="6.4471">
        <ele>2430.7</ele>
        <time>2024-04-27T09:45:16Z</time>
      </trkpt>
      <trkpt lat="45.8503" lon="6.4471">
        <ele>2430.7</ele>
        <time>2024-04-27T09:45:17Z</time>
      </trkpt>
      <trkpt lat="45.8503" lon="6.4471">
        <ele>2430.7</ele>
        <time>2024-04-27T09:45:18Z</time>
      </trkpt>
      <trkpt lat="45.8503" lon="6.4471">
        <ele>2430.7</ele>
        <time>2024-04-27T09:45:19Z</time>
      </trkpt>
      <trkpt lat="45.8503" lon="6.44709">
        <ele>2430.7</ele>
        <time>2024-04-27T09:45:20Z</time>
      </trkpt>
      <trkpt lat="45.8503" lon="6.44709">
        <ele>2430.7</ele>
        <time>2024-04-27T09:45:21Z</time>
      </trkpt>
      <trkpt lat="45.8503" lon="6.44709">
        <ele>2430.7</ele>
        <time>2024-04-27T09:45:22Z</time>
      </trkpt>
      <trkpt lat="45.8503" lon="6.44709">
        <ele>2430.7</ele>
        <time>2024-04-27T09:45:23Z</time>
      </trkpt>
      <trkpt lat="45.8503" lon="6.44709">
        <ele>2430.7</ele>
        <time>2024-04-27T09:45:24Z</time>
      </trkpt>
      <trkpt lat="45.8503" lon="6.44709">
        <ele>2430.7</ele>
        <time>2024-04-27T09:45:25Z</time>
      </trkpt>
      <trkpt lat="45.8503" lon="6.44709">
        <ele>2430.7</ele>
        <time>2024-04-27T09:45:26Z</time>
      </trkpt>
      <trkpt lat="45.8503" lon="6.44709">
        <ele>2430.7</ele>
        <time>2024-04-27T09:45:27Z</time>
      </trkpt>
      <trkpt lat="45.8503" lon="6.44709">
        <ele>2430.7</ele>
        <time>2024-04-27T09:45:28Z</time>
      </trkpt>
      <trkpt lat="45.8503" lon="6.44709">
        <ele>2430.7</ele>
        <time>2024-04-27T09:45:29Z</time>
      </trkpt>
      <trkpt lat="45.8503" lon="6.44709">
        <ele>2430.7</ele>
        <time>2024-04-27T09:45:30Z</time>
      </trkpt>
      <trkpt lat="45.8503" lon="6.44709">
        <ele>2430.7</ele>
        <time>2024-04-27T09:45:31Z</time>
      </trkpt>
      <trkpt lat="45.8503" lon="6.44709">
        <ele>2429.6</ele>
        <time>2024-04-27T09:45:32Z</time>
      </trkpt>
      <trkpt lat="45.8503" lon="6.44709">
        <ele>2429.6</ele>
        <time>2024-04-27T09:45:33Z</time>
      </trkpt>
      <trkpt lat="45.8503" lon="6.44709">
        <ele>2429.6</ele>
        <time>2024-04-27T09:45:34Z</time>
      </trkpt>
      <trkpt lat="45.8503" lon="6.44708">
        <ele>2429.6</ele>
        <time>2024-04-27T09:45:35Z</time>
      </trkpt>
      <trkpt lat="45.8503" lon="6.44708">
        <ele>2428.7</ele>
        <time>2024-04-27T09:45:36Z</time>
      </trkpt>
      <trkpt lat="45.8503" lon="6.44708">
        <ele>2428.7</ele>
        <time>2024-04-27T09:45:37Z</time>
      </trkpt>
      <trkpt lat="45.8503" lon="6.44708">
        <ele>2428.7</ele>
        <time>2024-04-27T09:45:38Z</time>
      </trkpt>
      <trkpt lat="45.8503" lon="6.44708">
        <ele>2428.7</ele>
        <time>2024-04-27T09:45:39Z</time>
      </trkpt>
      <trkpt lat="45.8503" lon="6.44708">
        <ele>2428.7</ele>
        <time>2024-04-27T09:45:40Z</time>
      </trkpt>
      <trkpt lat="45.8503" lon="6.44708">
        <ele>2428.7</ele>
        <time>2024-04-27T09:45:41Z</time>
      </trkpt>
      <trkpt lat="45.8503" lon="6.44708">
        <ele>2428.7</ele>
        <time>2024-04-27T09:45:42Z</time>
      </trkpt>
      <trkpt lat="45.8503" lon="6.44708">
        <ele>2428.7</ele>
        <time>2024-04-27T09:45:43Z</time>
      </trkpt>
      <trkpt lat="45.8503" lon="6.44708">
        <ele>2428.7</ele>
        <time>2024-04-27T09:45:44Z</time>
      </trkpt>
      <trkpt lat="45.8503" lon="6.44708">
        <ele>2428.7</ele>
        <time>2024-04-27T09:45:45Z</time>
      </trkpt>
      <trkpt lat="45.8503" lon="6.44708">
        <ele>2428.7</ele>
        <time>2024-04-27T09:45:46Z</time>
      </trkpt>
      <trkpt lat="45.8503" lon="6.44708">
        <ele>2428.7</ele>
        <time>2024-04-27T09:45:47Z</time>
      </trkpt>
      <trkpt lat="45.8503" lon="6.44708">
        <ele>2428.7</ele>
        <time>2024-04-27T09:45:48Z</time>
      </trkpt>
      <trkpt lat="45.8503" lon="6.44708">
        <ele>2428.7</ele>
        <time>2024-04-27T09:45:49Z</time>
      </trkpt>
      <trkpt lat="45.8503" lon="6.44708">
        <ele>2429.6</ele>
        <time>2024-04-27T09:45:50Z</time>
      </trkpt>
      <trkpt lat="45.8503" lon="6.44708">
        <ele>2429.6</ele>
        <time>2024-04-27T09:45:51Z</time>
      </trkpt>
      <trkpt lat="45.8503" lon="6.44708">
        <ele>2429.6</ele>
        <time>2024-04-27T09:45:52Z</time>
      </trkpt>
      <trkpt lat="45.8503" lon="6.44708">
        <ele>2429.6</ele>
        <time>2024-04-27T09:45:53Z</time>
      </trkpt>
      <trkpt lat="45.8503" lon="6.44708">
        <ele>2429.6</ele>
        <time>2024-04-27T09:45:54Z</time>
      </trkpt>
      <trkpt lat="45.8503" lon="6.44708">
        <ele>2429.6</ele>
        <time>2024-04-27T09:45:55Z</time>
      </trkpt>
      <trkpt lat="45.8503" lon="6.44708">
        <ele>2429.6</ele>
        <time>2024-04-27T09:45:56Z</time>
      </trkpt>
      <trkpt lat="45.8503" lon="6.44708">
        <ele>2429.6</ele>
        <time>2024-04-27T09:45:57Z</time>
      </trkpt>
      <trkpt lat="45.8503" lon="6.44708">
        <ele>2429.6</ele>
        <time>2024-04-27T09:45:58Z</time>
      </trkpt>
      <trkpt lat="45.8503" lon="6.44708">
        <ele>2429.6</ele>
        <time>2024-04-27T09:45:59Z</time>
      </trkpt>
      <trkpt lat="45.8503" lon="6.44708">
        <ele>2429.6</ele>
        <time>2024-04-27T09:46:00Z</time>
      </trkpt>
      <trkpt lat="45.8503" lon="6.44708">
        <ele>2429.6</ele>
        <time>2024-04-27T09:46:01Z</time>
      </trkpt>
      <trkpt lat="45.8503" lon="6.44708">
        <ele>2429.6</ele>
        <time>2024-04-27T09:46:02Z</time>
      </trkpt>
      <trkpt lat="45.8503" lon="6.44708">
        <ele>2429.6</ele>
        <time>2024-04-27T09:46:03Z</time>
      </trkpt>
      <trkpt lat="45.8503" lon="6.44708">
        <ele>2429.6</ele>
        <time>2024-04-27T09:46:04Z</time>
      </trkpt>
      <trkpt lat="45.8503" lon="6.44708">
        <ele>2429.6</ele>
        <time>2024-04-27T09:46:05Z</time>
      </trkpt>
      <trkpt lat="45.8503" lon="6.44708">
        <ele>2429.6</ele>
        <time>2024-04-27T09:46:06Z</time>
      </trkpt>
      <trkpt lat="45.8503" lon="6.44708">
        <ele>2429.6</ele>
        <time>2024-04-27T09:46:07Z</time>
      </trkpt>
      <trkpt lat="45.8503" lon="6.44708">
        <ele>2429.6</ele>
        <time>2024-04-27T09:46:08Z</time>
      </trkpt>
      <trkpt lat="45.8503" lon="6.44708">
        <ele>2429.6</ele>
        <time>2024-04-27T09:46:09Z</time>
      </trkpt>
      <trkpt lat="45.8503" lon="6.44708">
        <ele>2429.6</ele>
        <time>2024-04-27T09:46:10Z</time>
      </trkpt>
      <trkpt lat="45.8503" lon="6.44708">
        <ele>2429.6</ele>
        <time>2024-04-27T09:46:11Z</time>
      </trkpt>
      <trkpt lat="45.8503" lon="6.44708">
        <ele>2429.6</ele>
        <time>2024-04-27T09:46:12Z</time>
      </trkpt>
      <trkpt lat="45.8503" lon="6.44708">
        <ele>2429.6</ele>
        <time>2024-04-27T09:46:13Z</time>
      </trkpt>
      <trkpt lat="45.8503" lon="6.44708">
        <ele>2428.7</ele>
        <time>2024-04-27T09:46:14Z</time>
      </trkpt>
      <trkpt lat="45.8503" lon="6.44708">
        <ele>2428.7</ele>
        <time>2024-04-27T09:46:15Z</time>
      </trkpt>
      <trkpt lat="45.8503" lon="6.44708">
        <ele>2428.7</ele>
        <time>2024-04-27T09:46:16Z</time>
      </trkpt>
      <trkpt lat="45.8503" lon="6.44708">
        <ele>2428.7</ele>
        <time>2024-04-27T09:46:17Z</time>
      </trkpt>
      <trkpt lat="45.8503" lon="6.44708">
        <ele>2428.7</ele>
        <time>2024-04-27T09:46:18Z</time>
      </trkpt>
      <trkpt lat="45.85029" lon="6.44708">
        <ele>2428.7</ele>
        <time>2024-04-27T09:46:19Z</time>
      </trkpt>
      <trkpt lat="45.85029" lon="6.44708">
        <ele>2428.7</ele>
        <time>2024-04-27T09:46:20Z</time>
      </trkpt>
      <trkpt lat="45.85029" lon="6.44707">
        <ele>2428.7</ele>
        <time>2024-04-27T09:46:21Z</time>
      </trkpt>
      <trkpt lat="45.85029" lon="6.44706">
        <ele>2427.6</ele>
        <time>2024-04-27T09:46:22Z</time>
      </trkpt>
      <trkpt lat="45.85029" lon="6.44706">
        <ele>2427.6</ele>
        <time>2024-04-27T09:46:23Z</time>
      </trkpt>
      <trkpt lat="45.85029" lon="6.44705">
        <ele>2427.6</ele>
        <time>2024-04-27T09:46:24Z</time>
      </trkpt>
      <trkpt lat="45.85029" lon="6.44704">
        <ele>2427.6</ele>
        <time>2024-04-27T09:46:25Z</time>
      </trkpt>
      <trkpt lat="45.85029" lon="6.44703">
        <ele>2427.6</ele>
        <time>2024-04-27T09:46:26Z</time>
      </trkpt>
      <trkpt lat="45.85029" lon="6.44703">
        <ele>2427.6</ele>
        <time>2024-04-27T09:46:27Z</time>
      </trkpt>
      <trkpt lat="45.85029" lon="6.44703">
        <ele>2427.6</ele>
        <time>2024-04-27T09:46:28Z</time>
      </trkpt>
      <trkpt lat="45.85029" lon="6.44703">
        <ele>2427.6</ele>
        <time>2024-04-27T09:46:29Z</time>
      </trkpt>
      <trkpt lat="45.85029" lon="6.44703">
        <ele>2427.6</ele>
        <time>2024-04-27T09:46:30Z</time>
      </trkpt>
      <trkpt lat="45.85029" lon="6.44703">
        <ele>2427.6</ele>
        <time>2024-04-27T09:46:31Z</time>
      </trkpt>
      <trkpt lat="45.85029" lon="6.44703">
        <ele>2427.6</ele>
        <time>2024-04-27T09:46:32Z</time>
      </trkpt>
      <trkpt lat="45.85028" lon="6.44702">
        <ele>2427.6</ele>
        <time>2024-04-27T09:46:33Z</time>
      </trkpt>
      <trkpt lat="45.85028" lon="6.44702">
        <ele>2427.6</ele>
        <time>2024-04-27T09:46:34Z</time>
      </trkpt>
      <trkpt lat="45.85028" lon="6.44701">
        <ele>2427.6</ele>
        <time>2024-04-27T09:46:35Z</time>
      </trkpt>
      <trkpt lat="45.85028" lon="6.44701">
        <ele>2427.6</ele>
        <time>2024-04-27T09:46:36Z</time>
      </trkpt>
      <trkpt lat="45.85028" lon="6.44701">
        <ele>2427.6</ele>
        <time>2024-04-27T09:46:37Z</time>
      </trkpt>
      <trkpt lat="45.85028" lon="6.44701">
        <ele>2427.6</ele>
        <time>2024-04-27T09:46:38Z</time>
      </trkpt>
      <trkpt lat="45.85027" lon="6.44701">
        <ele>2427.6</ele>
        <time>2024-04-27T09:46:39Z</time>
      </trkpt>
      <trkpt lat="45.85027" lon="6.44701">
        <ele>2427.6</ele>
        <time>2024-04-27T09:46:40Z</time>
      </trkpt>
      <trkpt lat="45.85027" lon="6.44701">
        <ele>2427.6</ele>
        <time>2024-04-27T09:46:41Z</time>
      </trkpt>
      <trkpt lat="45.85027" lon="6.44701">
        <ele>2427.6</ele>
        <time>2024-04-27T09:46:42Z</time>
      </trkpt>
      <trkpt lat="45.85027" lon="6.44701">
        <ele>2427.6</ele>
        <time>2024-04-27T09:46:43Z</time>
      </trkpt>
      <trkpt lat="45.85027" lon="6.44701">
        <ele>2427.6</ele>
        <time>2024-04-27T09:46:44Z</time>
      </trkpt>
      <trkpt lat="45.85027" lon="6.44701">
        <ele>2427.6</ele>
        <time>2024-04-27T09:46:45Z</time>
      </trkpt>
      <trkpt lat="45.85027" lon="6.44701">
        <ele>2427.6</ele>
        <time>2024-04-27T09:46:46Z</time>
      </trkpt>
      <trkpt lat="45.85027" lon="6.44701">
        <ele>2427.6</ele>
        <time>2024-04-27T09:46:47Z</time>
      </trkpt>
      <trkpt lat="45.85027" lon="6.44701">
        <ele>2427.6</ele>
        <time>2024-04-27T09:46:48Z</time>
      </trkpt>
      <trkpt lat="45.85027" lon="6.44701">
        <ele>2427.6</ele>
        <time>2024-04-27T09:46:49Z</time>
      </trkpt>
      <trkpt lat="45.85027" lon="6.447">
        <ele>2427.6</ele>
        <time>2024-04-27T09:46:50Z</time>
      </trkpt>
      <trkpt lat="45.85027" lon="6.447">
        <ele>2427.6</ele>
        <time>2024-04-27T09:46:51Z</time>
      </trkpt>
      <trkpt lat="45.85027" lon="6.447">
        <ele>2427.6</ele>
        <time>2024-04-27T09:46:52Z</time>
      </trkpt>
      <trkpt lat="45.85026" lon="6.447">
        <ele>2427.6</ele>
        <time>2024-04-27T09:46:53Z</time>
      </trkpt>
      <trkpt lat="45.85026" lon="6.447">
        <ele>2426.7</ele>
        <time>2024-04-27T09:46:54Z</time>
      </trkpt>
      <trkpt lat="45.85026" lon="6.447">
        <ele>2426.7</ele>
        <time>2024-04-27T09:46:55Z</time>
      </trkpt>
      <trkpt lat="45.85026" lon="6.447">
        <ele>2426.7</ele>
        <time>2024-04-27T09:46:56Z</time>
      </trkpt>
      <trkpt lat="45.85026" lon="6.447">
        <ele>2426.7</ele>
        <time>2024-04-27T09:46:57Z</time>
      </trkpt>
      <trkpt lat="45.85026" lon="6.447">
        <ele>2426.7</ele>
        <time>2024-04-27T09:46:58Z</time>
      </trkpt>
      <trkpt lat="45.85026" lon="6.447">
        <ele>2426.7</ele>
        <time>2024-04-27T09:46:59Z</time>
      </trkpt>
      <trkpt lat="45.85026" lon="6.447">
        <ele>2426.7</ele>
        <time>2024-04-27T09:47:00Z</time>
      </trkpt>
      <trkpt lat="45.85026" lon="6.447">
        <ele>2426.7</ele>
        <time>2024-04-27T09:47:01Z</time>
      </trkpt>
      <trkpt lat="45.85026" lon="6.447">
        <ele>2426.7</ele>
        <time>2024-04-27T09:47:02Z</time>
      </trkpt>
      <trkpt lat="45.85026" lon="6.447">
        <ele>2426.7</ele>
        <time>2024-04-27T09:47:03Z</time>
      </trkpt>
      <trkpt lat="45.85026" lon="6.447">
        <ele>2425.6</ele>
        <time>2024-04-27T09:47:04Z</time>
      </trkpt>
      <trkpt lat="45.85026" lon="6.447">
        <ele>2425.6</ele>
        <time>2024-04-27T09:47:05Z</time>
      </trkpt>
      <trkpt lat="45.85026" lon="6.447">
        <ele>2425.6</ele>
        <time>2024-04-27T09:47:06Z</time>
      </trkpt>
      <trkpt lat="45.85026" lon="6.447">
        <ele>2425.6</ele>
        <time>2024-04-27T09:47:07Z</time>
      </trkpt>
      <trkpt lat="45.85025" lon="6.447">
        <ele>2425.6</ele>
        <time>2024-04-27T09:47:08Z</time>
      </trkpt>
      <trkpt lat="45.85025" lon="6.447">
        <ele>2425.6</ele>
        <time>2024-04-27T09:47:09Z</time>
      </trkpt>
      <trkpt lat="45.85025" lon="6.44699">
        <ele>2425.6</ele>
        <time>2024-04-27T09:47:10Z</time>
      </trkpt>
      <trkpt lat="45.85025" lon="6.44699">
        <ele>2425.6</ele>
        <time>2024-04-27T09:47:11Z</time>
      </trkpt>
      <trkpt lat="45.85026" lon="6.44699">
        <ele>2425.6</ele>
        <time>2024-04-27T09:47:12Z</time>
      </trkpt>
      <trkpt lat="45.85026" lon="6.44699">
        <ele>2425.6</ele>
        <time>2024-04-27T09:47:13Z</time>
      </trkpt>
      <trkpt lat="45.85026" lon="6.44699">
        <ele>2425.6</ele>
        <time>2024-04-27T09:47:14Z</time>
      </trkpt>
      <trkpt lat="45.85026" lon="6.44699">
        <ele>2425.6</ele>
        <time>2024-04-27T09:47:15Z</time>
      </trkpt>
      <trkpt lat="45.85026" lon="6.44699">
        <ele>2425.6</ele>
        <time>2024-04-27T09:47:16Z</time>
      </trkpt>
      <trkpt lat="45.85026" lon="6.44699">
        <ele>2425.6</ele>
        <time>2024-04-27T09:47:17Z</time>
      </trkpt>
      <trkpt lat="45.85026" lon="6.44699">
        <ele>2425.6</ele>
        <time>2024-04-27T09:47:18Z</time>
      </trkpt>
      <trkpt lat="45.85026" lon="6.44699">
        <ele>2425.6</ele>
        <time>2024-04-27T09:47:19Z</time>
      </trkpt>
      <trkpt lat="45.85026" lon="6.44699">
        <ele>2425.6</ele>
        <time>2024-04-27T09:47:20Z</time>
      </trkpt>
      <trkpt lat="45.85026" lon="6.44699">
        <ele>2425.6</ele>
        <time>2024-04-27T09:47:21Z</time>
      </trkpt>
      <trkpt lat="45.85026" lon="6.44699">
        <ele>2425.6</ele>
        <time>2024-04-27T09:47:22Z</time>
      </trkpt>
      <trkpt lat="45.85026" lon="6.44699">
        <ele>2425.6</ele>
        <time>2024-04-27T09:47:23Z</time>
      </trkpt>
      <trkpt lat="45.85026" lon="6.44699">
        <ele>2425.6</ele>
        <time>2024-04-27T09:47:24Z</time>
      </trkpt>
      <trkpt lat="45.85026" lon="6.44699">
        <ele>2425.6</ele>
        <time>2024-04-27T09:47:25Z</time>
      </trkpt>
      <trkpt lat="45.85026" lon="6.44699">
        <ele>2425.6</ele>
        <time>2024-04-27T09:47:26Z</time>
      </trkpt>
      <trkpt lat="45.85026" lon="6.44699">
        <ele>2425.6</ele>
        <time>2024-04-27T09:47:27Z</time>
      </trkpt>
      <trkpt lat="45.85026" lon="6.44698">
        <ele>2426.7</ele>
        <time>2024-04-27T09:47:28Z</time>
      </trkpt>
      <trkpt lat="45.85026" lon="6.44698">
        <ele>2426.7</ele>
        <time>2024-04-27T09:47:29Z</time>
      </trkpt>
      <trkpt lat="45.85026" lon="6.44698">
        <ele>2426.7</ele>
        <time>2024-04-27T09:47:30Z</time>
      </trkpt>
      <trkpt lat="45.85026" lon="6.44698">
        <ele>2426.7</ele>
        <time>2024-04-27T09:47:31Z</time>
      </trkpt>
      <trkpt lat="45.85026" lon="6.44698">
        <ele>2426.7</ele>
        <time>2024-04-27T09:47:32Z</time>
      </trkpt>
      <trkpt lat="45.85026" lon="6.44698">
        <ele>2426.7</ele>
        <time>2024-04-27T09:47:33Z</time>
      </trkpt>
      <trkpt lat="45.85026" lon="6.44698">
        <ele>2426.7</ele>
        <time>2024-04-27T09:47:34Z</time>
      </trkpt>
      <trkpt lat="45.85027" lon="6.44698">
        <ele>2426.7</ele>
        <time>2024-04-27T09:47:35Z</time>
      </trkpt>
      <trkpt lat="45.85027" lon="6.44698">
        <ele>2426.7</ele>
        <time>2024-04-27T09:47:36Z</time>
      </trkpt>
      <trkpt lat="45.85027" lon="6.44698">
        <ele>2426.7</ele>
        <time>2024-04-27T09:47:37Z</time>
      </trkpt>
      <trkpt lat="45.85027" lon="6.44698">
        <ele>2426.7</ele>
        <time>2024-04-27T09:47:38Z</time>
      </trkpt>
      <trkpt lat="45.85027" lon="6.44698">
        <ele>2426.7</ele>
        <time>2024-04-27T09:47:39Z</time>
      </trkpt>
      <trkpt lat="45.85027" lon="6.44698">
        <ele>2426.7</ele>
        <time>2024-04-27T09:47:40Z</time>
      </trkpt>
      <trkpt lat="45.85027" lon="6.44698">
        <ele>2426.7</ele>
        <time>2024-04-27T09:47:41Z</time>
      </trkpt>
      <trkpt lat="45.85027" lon="6.44698">
        <ele>2426.7</ele>
        <time>2024-04-27T09:47:42Z</time>
      </trkpt>
      <trkpt lat="45.85028" lon="6.44698">
        <ele>2426.7</ele>
        <time>2024-04-27T09:47:43Z</time>
      </trkpt>
      <trkpt lat="45.85028" lon="6.44698">
        <ele>2426.7</ele>
        <time>2024-04-27T09:47:44Z</time>
      </trkpt>
      <trkpt lat="45.85028" lon="6.44698">
        <ele>2426.7</ele>
        <time>2024-04-27T09:47:45Z</time>
      </trkpt>
      <trkpt lat="45.85028" lon="6.44698">
        <ele>2426.7</ele>
        <time>2024-04-27T09:47:46Z</time>
      </trkpt>
      <trkpt lat="45.85028" lon="6.44698">
        <ele>2426.7</ele>
        <time>2024-04-27T09:47:47Z</time>
      </trkpt>
      <trkpt lat="45.85028" lon="6.44698">
        <ele>2426.7</ele>
        <time>2024-04-27T09:47:48Z</time>
      </trkpt>
      <trkpt lat="45.85028" lon="6.44698">
        <ele>2426.7</ele>
        <time>2024-04-27T09:47:49Z</time>
      </trkpt>
      <trkpt lat="45.85028" lon="6.44698">
        <ele>2426.7</ele>
        <time>2024-04-27T09:47:50Z</time>
      </trkpt>
      <trkpt lat="45.85029" lon="6.44698">
        <ele>2426.7</ele>
        <time>2024-04-27T09:47:51Z</time>
      </trkpt>
      <trkpt lat="45.85029" lon="6.44698">
        <ele>2426.7</ele>
        <time>2024-04-27T09:47:52Z</time>
      </trkpt>
      <trkpt lat="45.85029" lon="6.44698">
        <ele>2426.7</ele>
        <time>2024-04-27T09:47:53Z</time>
      </trkpt>
      <trkpt lat="45.85029" lon="6.44698">
        <ele>2426.7</ele>
        <time>2024-04-27T09:47:54Z</time>
      </trkpt>
      <trkpt lat="45.85029" lon="6.44698">
        <ele>2426.7</ele>
        <time>2024-04-27T09:47:55Z</time>
      </trkpt>
      <trkpt lat="45.85029" lon="6.44698">
        <ele>2426.7</ele>
        <time>2024-04-27T09:47:56Z</time>
      </trkpt>
      <trkpt lat="45.85029" lon="6.44698">
        <ele>2426.7</ele>
        <time>2024-04-27T09:47:57Z</time>
      </trkpt>
      <trkpt lat="45.85029" lon="6.44698">
        <ele>2426.7</ele>
        <time>2024-04-27T09:47:58Z</time>
      </trkpt>
      <trkpt lat="45.85029" lon="6.44698">
        <ele>2426.7</ele>
        <time>2024-04-27T09:47:59Z</time>
      </trkpt>
      <trkpt lat="45.85029" lon="6.44698">
        <ele>2426.7</ele>
        <time>2024-04-27T09:48:00Z</time>
      </trkpt>
      <trkpt lat="45.8503" lon="6.44698">
        <ele>2426.7</ele>
        <time>2024-04-27T09:48:01Z</time>
      </trkpt>
      <trkpt lat="45.8503" lon="6.44698">
        <ele>2426.7</ele>
        <time>2024-04-27T09:48:02Z</time>
      </trkpt>
      <trkpt lat="45.8503" lon="6.44698">
        <ele>2426.7</ele>
        <time>2024-04-27T09:48:03Z</time>
      </trkpt>
      <trkpt lat="45.8503" lon="6.44698">
        <ele>2426.7</ele>
        <time>2024-04-27T09:48:04Z</time>
      </trkpt>
      <trkpt lat="45.8503" lon="6.44698">
        <ele>2426.7</ele>
        <time>2024-04-27T09:48:05Z</time>
      </trkpt>
      <trkpt lat="45.8503" lon="6.44697">
        <ele>2426.7</ele>
        <time>2024-04-27T09:48:06Z</time>
      </trkpt>
      <trkpt lat="45.8503" lon="6.44697">
        <ele>2426.7</ele>
        <time>2024-04-27T09:48:07Z</time>
      </trkpt>
      <trkpt lat="45.8503" lon="6.44697">
        <ele>2426.7</ele>
        <time>2024-04-27T09:48:08Z</time>
      </trkpt>
      <trkpt lat="45.8503" lon="6.44697">
        <ele>2426.7</ele>
        <time>2024-04-27T09:48:09Z</time>
      </trkpt>
      <trkpt lat="45.8503" lon="6.44697">
        <ele>2426.7</ele>
        <time>2024-04-27T09:48:10Z</time>
      </trkpt>
      <trkpt lat="45.8503" lon="6.44697">
        <ele>2426.7</ele>
        <time>2024-04-27T09:48:11Z</time>
      </trkpt>
      <trkpt lat="45.8503" lon="6.44696">
        <ele>2424.7</ele>
        <time>2024-04-27T09:48:12Z</time>
      </trkpt>
      <trkpt lat="45.8503" lon="6.44696">
        <ele>2424.7</ele>
        <time>2024-04-27T09:48:13Z</time>
      </trkpt>
      <trkpt lat="45.8503" lon="6.44696">
        <ele>2424.7</ele>
        <time>2024-04-27T09:48:14Z</time>
      </trkpt>
      <trkpt lat="45.8503" lon="6.44696">
        <ele>2424.7</ele>
        <time>2024-04-27T09:48:15Z</time>
      </trkpt>
      <trkpt lat="45.8503" lon="6.44696">
        <ele>2424.7</ele>
        <time>2024-04-27T09:48:16Z</time>
      </trkpt>
      <trkpt lat="45.8503" lon="6.44696">
        <ele>2424.7</ele>
        <time>2024-04-27T09:48:17Z</time>
      </trkpt>
      <trkpt lat="45.8503" lon="6.44696">
        <ele>2423.6</ele>
        <time>2024-04-27T09:48:18Z</time>
      </trkpt>
      <trkpt lat="45.8503" lon="6.44696">
        <ele>2423.6</ele>
        <time>2024-04-27T09:48:19Z</time>
      </trkpt>
      <trkpt lat="45.8503" lon="6.44696">
        <ele>2423.6</ele>
        <time>2024-04-27T09:48:20Z</time>
      </trkpt>
      <trkpt lat="45.8503" lon="6.44696">
        <ele>2423.6</ele>
        <time>2024-04-27T09:48:21Z</time>
      </trkpt>
      <trkpt lat="45.8503" lon="6.44696">
        <ele>2423.6</ele>
        <time>2024-04-27T09:48:22Z</time>
      </trkpt>
      <trkpt lat="45.8503" lon="6.44696">
        <ele>2423.6</ele>
        <time>2024-04-27T09:48:23Z</time>
      </trkpt>
      <trkpt lat="45.8503" lon="6.44696">
        <ele>2423.6</ele>
        <time>2024-04-27T09:48:24Z</time>
      </trkpt>
      <trkpt lat="45.8503" lon="6.44696">
        <ele>2423.6</ele>
        <time>2024-04-27T09:48:25Z</time>
      </trkpt>
      <trkpt lat="45.8503" lon="6.44696">
        <ele>2423.6</ele>
        <time>2024-04-27T09:48:26Z</time>
      </trkpt>
      <trkpt lat="45.8503" lon="6.44696">
        <ele>2423.6</ele>
        <time>2024-04-27T09:48:27Z</time>
      </trkpt>
      <trkpt lat="45.8503" lon="6.44696">
        <ele>2423.6</ele>
        <time>2024-04-27T09:48:28Z</time>
      </trkpt>
      <trkpt lat="45.8503" lon="6.44696">
        <ele>2423.6</ele>
        <time>2024-04-27T09:48:29Z</time>
      </trkpt>
      <trkpt lat="45.8503" lon="6.44696">
        <ele>2422.6</ele>
        <time>2024-04-27T09:48:30Z</time>
      </trkpt>
      <trkpt lat="45.8503" lon="6.44696">
        <ele>2422.6</ele>
        <time>2024-04-27T09:48:31Z</time>
      </trkpt>
      <trkpt lat="45.8503" lon="6.44696">
        <ele>2422.6</ele>
        <time>2024-04-27T09:48:32Z</time>
      </trkpt>
      <trkpt lat="45.8503" lon="6.44696">
        <ele>2422.6</ele>
        <time>2024-04-27T09:48:33Z</time>
      </trkpt>
      <trkpt lat="45.8503" lon="6.44696">
        <ele>2422.6</ele>
        <time>2024-04-27T09:48:34Z</time>
      </trkpt>
      <trkpt lat="45.8503" lon="6.44696">
        <ele>2422.6</ele>
        <time>2024-04-27T09:48:35Z</time>
      </trkpt>
      <trkpt lat="45.8503" lon="6.44696">
        <ele>2422.6</ele>
        <time>2024-04-27T09:48:36Z</time>
      </trkpt>
      <trkpt lat="45.8503" lon="6.44696">
        <ele>2422.6</ele>
        <time>2024-04-27T09:48:37Z</time>
      </trkpt>
      <trkpt lat="45.8503" lon="6.44696">
        <ele>2421.7</ele>
        <time>2024-04-27T09:48:38Z</time>
      </trkpt>
      <trkpt lat="45.8503" lon="6.44695">
        <ele>2421.7</ele>
        <time>2024-04-27T09:48:39Z</time>
      </trkpt>
      <trkpt lat="45.8503" lon="6.44695">
        <ele>2421.7</ele>
        <time>2024-04-27T09:48:40Z</time>
      </trkpt>
      <trkpt lat="45.8503" lon="6.44695">
        <ele>2421.7</ele>
        <time>2024-04-27T09:48:41Z</time>
      </trkpt>
      <trkpt lat="45.8503" lon="6.44695">
        <ele>2421.7</ele>
        <time>2024-04-27T09:48:42Z</time>
      </trkpt>
      <trkpt lat="45.8503" lon="6.44695">
        <ele>2421.7</ele>
        <time>2024-04-27T09:48:43Z</time>
      </trkpt>
      <trkpt lat="45.85031" lon="6.44695">
        <ele>2421.7</ele>
        <time>2024-04-27T09:48:44Z</time>
      </trkpt>
      <trkpt lat="45.85031" lon="6.44695">
        <ele>2421.7</ele>
        <time>2024-04-27T09:48:45Z</time>
      </trkpt>
      <trkpt lat="45.85031" lon="6.44695">
        <ele>2421.7</ele>
        <time>2024-04-27T09:48:46Z</time>
      </trkpt>
      <trkpt lat="45.85031" lon="6.44695">
        <ele>2421.7</ele>
        <time>2024-04-27T09:48:47Z</time>
      </trkpt>
      <trkpt lat="45.85031" lon="6.44695">
        <ele>2421.7</ele>
        <time>2024-04-27T09:48:48Z</time>
      </trkpt>
      <trkpt lat="45.85032" lon="6.44695">
        <ele>2421.7</ele>
        <time>2024-04-27T09:48:49Z</time>
      </trkpt>
      <trkpt lat="45.85032" lon="6.44695">
        <ele>2421.7</ele>
        <time>2024-04-27T09:48:50Z</time>
      </trkpt>
      <trkpt lat="45.85032" lon="6.44695">
        <ele>2421.7</ele>
        <time>2024-04-27T09:48:51Z</time>
      </trkpt>
      <trkpt lat="45.85032" lon="6.44695">
        <ele>2421.7</ele>
        <time>2024-04-27T09:48:52Z</time>
      </trkpt>
      <trkpt lat="45.85032" lon="6.44695">
        <ele>2421.7</ele>
        <time>2024-04-27T09:48:53Z</time>
      </trkpt>
      <trkpt lat="45.85032" lon="6.44695">
        <ele>2421.7</ele>
        <time>2024-04-27T09:48:54Z</time>
      </trkpt>
      <trkpt lat="45.85032" lon="6.44695">
        <ele>2421.7</ele>
        <time>2024-04-27T09:48:55Z</time>
      </trkpt>
      <trkpt lat="45.85033" lon="6.44695">
        <ele>2421.7</ele>
        <time>2024-04-27T09:48:56Z</time>
      </trkpt>
      <trkpt lat="45.85033" lon="6.44695">
        <ele>2421.7</ele>
        <time>2024-04-27T09:48:57Z</time>
      </trkpt>
      <trkpt lat="45.85033" lon="6.44695">
        <ele>2421.7</ele>
        <time>2024-04-27T09:48:58Z</time>
      </trkpt>
      <trkpt lat="45.85033" lon="6.44695">
        <ele>2421.7</ele>
        <time>2024-04-27T09:48:59Z</time>
      </trkpt>
      <trkpt lat="45.85033" lon="6.44695">
        <ele>2420.6</ele>
        <time>2024-04-27T09:49:00Z</time>
      </trkpt>
      <trkpt lat="45.85033" lon="6.44695">
        <ele>2420.6</ele>
        <time>2024-04-27T09:49:01Z</time>
      </trkpt>
      <trkpt lat="45.85033" lon="6.44695">
        <ele>2420.6</ele>
        <time>2024-04-27T09:49:02Z</time>
      </trkpt>
      <trkpt lat="45.85033" lon="6.44695">
        <ele>2420.6</ele>
        <time>2024-04-27T09:49:03Z</time>
      </trkpt>
      <trkpt lat="45.85033" lon="6.44694">
        <ele>2419.7</ele>
        <time>2024-04-27T09:49:04Z</time>
      </trkpt>
      <trkpt lat="45.85033" lon="6.44694">
        <ele>2419.7</ele>
        <time>2024-04-27T09:49:05Z</time>
      </trkpt>
      <trkpt lat="45.85033" lon="6.44694">
        <ele>2419.7</ele>
        <time>2024-04-27T09:49:06Z</time>
      </trkpt>
      <trkpt lat="45.85033" lon="6.44694">
        <ele>2419.7</ele>
        <time>2024-04-27T09:49:07Z</time>
      </trkpt>
      <trkpt lat="45.85033" lon="6.44694">
        <ele>2419.7</ele>
        <time>2024-04-27T09:49:08Z</time>
      </trkpt>
      <trkpt lat="45.85034" lon="6.44694">
        <ele>2419.7</ele>
        <time>2024-04-27T09:49:09Z</time>
      </trkpt>
      <trkpt lat="45.85034" lon="6.44694">
        <ele>2419.7</ele>
        <time>2024-04-27T09:49:10Z</time>
      </trkpt>
      <trkpt lat="45.85034" lon="6.44694">
        <ele>2419.7</ele>
        <time>2024-04-27T09:49:11Z</time>
      </trkpt>
      <trkpt lat="45.85034" lon="6.44694">
        <ele>2419.7</ele>
        <time>2024-04-27T09:49:12Z</time>
      </trkpt>
      <trkpt lat="45.85034" lon="6.44694">
        <ele>2419.7</ele>
        <time>2024-04-27T09:49:13Z</time>
      </trkpt>
      <trkpt lat="45.85034" lon="6.44694">
        <ele>2418.6</ele>
        <time>2024-04-27T09:49:14Z</time>
      </trkpt>
      <trkpt lat="45.85034" lon="6.44694">
        <ele>2418.6</ele>
        <time>2024-04-27T09:49:15Z</time>
      </trkpt>
      <trkpt lat="45.85034" lon="6.44694">
        <ele>2418.6</ele>
        <time>2024-04-27T09:49:16Z</time>
      </trkpt>
      <trkpt lat="45.85034" lon="6.44694">
        <ele>2418.6</ele>
        <time>2024-04-27T09:49:17Z</time>
      </trkpt>
      <trkpt lat="45.85034" lon="6.44694">
        <ele>2417.7</ele>
        <time>2024-04-27T09:49:18Z</time>
      </trkpt>
      <trkpt lat="45.85034" lon="6.44694">
        <ele>2417.7</ele>
        <time>2024-04-27T09:49:19Z</time>
      </trkpt>
      <trkpt lat="45.85034" lon="6.44694">
        <ele>2417.7</ele>
        <time>2024-04-27T09:49:20Z</time>
      </trkpt>
      <trkpt lat="45.85034" lon="6.44694">
        <ele>2417.7</ele>
        <time>2024-04-27T09:49:21Z</time>
      </trkpt>
      <trkpt lat="45.85034" lon="6.44694">
        <ele>2416.6</ele>
        <time>2024-04-27T09:49:22Z</time>
      </trkpt>
      <trkpt lat="45.85034" lon="6.44694">
        <ele>2416.6</ele>
        <time>2024-04-27T09:49:23Z</time>
      </trkpt>
      <trkpt lat="45.85034" lon="6.44694">
        <ele>2416.6</ele>
        <time>2024-04-27T09:49:24Z</time>
      </trkpt>
      <trkpt lat="45.85034" lon="6.44694">
        <ele>2416.6</ele>
        <time>2024-04-27T09:49:25Z</time>
      </trkpt>
      <trkpt lat="45.85034" lon="6.44694">
        <ele>2416.6</ele>
        <time>2024-04-27T09:49:26Z</time>
      </trkpt>
      <trkpt lat="45.85034" lon="6.44694">
        <ele>2416.6</ele>
        <time>2024-04-27T09:49:27Z</time>
      </trkpt>
      <trkpt lat="45.85034" lon="6.44693">
        <ele>2416.6</ele>
        <time>2024-04-27T09:49:28Z</time>
      </trkpt>
      <trkpt lat="45.85034" lon="6.44693">
        <ele>2416.6</ele>
        <time>2024-04-27T09:49:29Z</time>
      </trkpt>
      <trkpt lat="45.85034" lon="6.44693">
        <ele>2415.7</ele>
        <time>2024-04-27T09:49:30Z</time>
      </trkpt>
      <trkpt lat="45.85034" lon="6.44693">
        <ele>2415.7</ele>
        <time>2024-04-27T09:49:31Z</time>
      </trkpt>
      <trkpt lat="45.85034" lon="6.44693">
        <ele>2415.7</ele>
        <time>2024-04-27T09:49:32Z</time>
      </trkpt>
      <trkpt lat="45.85034" lon="6.44693">
        <ele>2415.7</ele>
        <time>2024-04-27T09:49:33Z</time>
      </trkpt>
      <trkpt lat="45.85034" lon="6.44693">
        <ele>2415.7</ele>
        <time>2024-04-27T09:49:34Z</time>
      </trkpt>
      <trkpt lat="45.85034" lon="6.44693">
        <ele>2415.7</ele>
        <time>2024-04-27T09:49:35Z</time>
      </trkpt>
      <trkpt lat="45.85034" lon="6.44693">
        <ele>2415.7</ele>
        <time>2024-04-27T09:49:36Z</time>
      </trkpt>
      <trkpt lat="45.85034" lon="6.44693">
        <ele>2415.7</ele>
        <time>2024-04-27T09:49:37Z</time>
      </trkpt>
      <trkpt lat="45.85034" lon="6.44693">
        <ele>2415.7</ele>
        <time>2024-04-27T09:49:38Z</time>
      </trkpt>
      <trkpt lat="45.85034" lon="6.44692">
        <ele>2415.7</ele>
        <time>2024-04-27T09:49:39Z</time>
      </trkpt>
      <trkpt lat="45.85034" lon="6.44692">
        <ele>2415.7</ele>
        <time>2024-04-27T09:49:40Z</time>
      </trkpt>
      <trkpt lat="45.85034" lon="6.44692">
        <ele>2415.7</ele>
        <time>2024-04-27T09:49:41Z</time>
      </trkpt>
      <trkpt lat="45.85034" lon="6.44692">
        <ele>2415.7</ele>
        <time>2024-04-27T09:49:42Z</time>
      </trkpt>
      <trkpt lat="45.85034" lon="6.44692">
        <ele>2415.7</ele>
        <time>2024-04-27T09:49:43Z</time>
      </trkpt>
      <trkpt lat="45.85034" lon="6.44692">
        <ele>2414.7</ele>
        <time>2024-04-27T09:49:44Z</time>
      </trkpt>
      <trkpt lat="45.85034" lon="6.44692">
        <ele>2414.7</ele>
        <time>2024-04-27T09:49:45Z</time>
      </trkpt>
      <trkpt lat="45.85034" lon="6.44692">
        <ele>2414.7</ele>
        <time>2024-04-27T09:49:46Z</time>
      </trkpt>
      <trkpt lat="45.85034" lon="6.44692">
        <ele>2414.7</ele>
        <time>2024-04-27T09:49:47Z</time>
      </trkpt>
      <trkpt lat="45.85034" lon="6.44692">
        <ele>2414.7</ele>
        <time>2024-04-27T09:49:48Z</time>
      </trkpt>
      <trkpt lat="45.85034" lon="6.44692">
        <ele>2414.7</ele>
        <time>2024-04-27T09:49:49Z</time>
      </trkpt>
      <trkpt lat="45.85034" lon="6.44692">
        <ele>2414.7</ele>
        <time>2024-04-27T09:49:50Z</time>
      </trkpt>
      <trkpt lat="45.85034" lon="6.44692">
        <ele>2414.7</ele>
        <time>2024-04-27T09:49:51Z</time>
      </trkpt>
      <trkpt lat="45.85034" lon="6.44692">
        <ele>2414.7</ele>
        <time>2024-04-27T09:49:52Z</time>
      </trkpt>
      <trkpt lat="45.85034" lon="6.44692">
        <ele>2414.7</ele>
        <time>2024-04-27T09:49:53Z</time>
      </trkpt>
      <trkpt lat="45.85034" lon="6.44692">
        <ele>2415.7</ele>
        <time>2024-04-27T09:49:54Z</time>
      </trkpt>
      <trkpt lat="45.85034" lon="6.44692">
        <ele>2415.7</ele>
        <time>2024-04-27T09:49:55Z</time>
      </trkpt>
      <trkpt lat="45.85034" lon="6.44692">
        <ele>2415.7</ele>
        <time>2024-04-27T09:49:56Z</time>
      </trkpt>
      <trkpt lat="45.85034" lon="6.44692">
        <ele>2415.7</ele>
        <time>2024-04-27T09:49:57Z</time>
      </trkpt>
      <trkpt lat="45.85034" lon="6.44692">
        <ele>2416.6</ele>
        <time>2024-04-27T09:49:58Z</time>
      </trkpt>
      <trkpt lat="45.85034" lon="6.44692">
        <ele>2416.6</ele>
        <time>2024-04-27T09:49:59Z</time>
      </trkpt>
      <trkpt lat="45.85034" lon="6.44692">
        <ele>2416.6</ele>
        <time>2024-04-27T09:50:00Z</time>
      </trkpt>
      <trkpt lat="45.85034" lon="6.44692">
        <ele>2416.6</ele>
        <time>2024-04-27T09:50:01Z</time>
      </trkpt>
      <trkpt lat="45.85034" lon="6.44692">
        <ele>2416.6</ele>
        <time>2024-04-27T09:50:02Z</time>
      </trkpt>
      <trkpt lat="45.85034" lon="6.44692">
        <ele>2416.6</ele>
        <time>2024-04-27T09:50:03Z</time>
      </trkpt>
      <trkpt lat="45.85034" lon="6.44692">
        <ele>2416.6</ele>
        <time>2024-04-27T09:50:04Z</time>
      </trkpt>
      <trkpt lat="45.85034" lon="6.44692">
        <ele>2416.6</ele>
        <time>2024-04-27T09:50:05Z</time>
      </trkpt>
      <trkpt lat="45.85034" lon="6.44692">
        <ele>2417.7</ele>
        <time>2024-04-27T09:50:06Z</time>
      </trkpt>
      <trkpt lat="45.85034" lon="6.44692">
        <ele>2417.7</ele>
        <time>2024-04-27T09:50:07Z</time>
      </trkpt>
      <trkpt lat="45.85034" lon="6.44692">
        <ele>2417.7</ele>
        <time>2024-04-27T09:50:08Z</time>
      </trkpt>
      <trkpt lat="45.85034" lon="6.44692">
        <ele>2417.7</ele>
        <time>2024-04-27T09:50:09Z</time>
      </trkpt>
      <trkpt lat="45.85034" lon="6.44692">
        <ele>2417.7</ele>
        <time>2024-04-27T09:50:10Z</time>
      </trkpt>
      <trkpt lat="45.85034" lon="6.44692">
        <ele>2417.7</ele>
        <time>2024-04-27T09:50:11Z</time>
      </trkpt>
      <trkpt lat="45.85034" lon="6.44692">
        <ele>2418.6</ele>
        <time>2024-04-27T09:50:12Z</time>
      </trkpt>
      <trkpt lat="45.85034" lon="6.44692">
        <ele>2418.6</ele>
        <time>2024-04-27T09:50:13Z</time>
      </trkpt>
      <trkpt lat="45.85034" lon="6.44692">
        <ele>2418.6</ele>
        <time>2024-04-27T09:50:14Z</time>
      </trkpt>
      <trkpt lat="45.85034" lon="6.44692">
        <ele>2418.6</ele>
        <time>2024-04-27T09:50:15Z</time>
      </trkpt>
      <trkpt lat="45.85034" lon="6.44692">
        <ele>2418.6</ele>
        <time>2024-04-27T09:50:16Z</time>
      </trkpt>
      <trkpt lat="45.85034" lon="6.44692">
        <ele>2418.6</ele>
        <time>2024-04-27T09:50:17Z</time>
      </trkpt>
      <trkpt lat="45.85034" lon="6.44692">
        <ele>2418.6</ele>
        <time>2024-04-27T09:50:18Z</time>
      </trkpt>
      <trkpt lat="45.85034" lon="6.44692">
        <ele>2418.6</ele>
        <time>2024-04-27T09:50:19Z</time>
      </trkpt>
      <trkpt lat="45.85034" lon="6.44692">
        <ele>2418.6</ele>
        <time>2024-04-27T09:50:20Z</time>
      </trkpt>
      <trkpt lat="45.85034" lon="6.44692">
        <ele>2418.6</ele>
        <time>2024-04-27T09:50:21Z</time>
      </trkpt>
      <trkpt lat="45.85034" lon="6.44692">
        <ele>2418.6</ele>
        <time>2024-04-27T09:50:22Z</time>
      </trkpt>
      <trkpt lat="45.85034" lon="6.44692">
        <ele>2418.6</ele>
        <time>2024-04-27T09:50:23Z</time>
      </trkpt>
      <trkpt lat="45.85034" lon="6.44692">
        <ele>2418.6</ele>
        <time>2024-04-27T09:50:24Z</time>
      </trkpt>
      <trkpt lat="45.85034" lon="6.44692">
        <ele>2418.6</ele>
        <time>2024-04-27T09:50:25Z</time>
      </trkpt>
      <trkpt lat="45.85034" lon="6.44692">
        <ele>2418.6</ele>
        <time>2024-04-27T09:50:26Z</time>
      </trkpt>
      <trkpt lat="45.85034" lon="6.44692">
        <ele>2418.6</ele>
        <time>2024-04-27T09:50:27Z</time>
      </trkpt>
      <trkpt lat="45.85034" lon="6.44692">
        <ele>2418.6</ele>
        <time>2024-04-27T09:50:28Z</time>
      </trkpt>
      <trkpt lat="45.85034" lon="6.44692">
        <ele>2418.6</ele>
        <time>2024-04-27T09:50:29Z</time>
      </trkpt>
      <trkpt lat="45.85034" lon="6.44692">
        <ele>2417.7</ele>
        <time>2024-04-27T09:50:30Z</time>
      </trkpt>
      <trkpt lat="45.85034" lon="6.44692">
        <ele>2417.7</ele>
        <time>2024-04-27T09:50:31Z</time>
      </trkpt>
      <trkpt lat="45.85034" lon="6.44692">
        <ele>2417.7</ele>
        <time>2024-04-27T09:50:32Z</time>
      </trkpt>
      <trkpt lat="45.85034" lon="6.44692">
        <ele>2417.7</ele>
        <time>2024-04-27T09:50:33Z</time>
      </trkpt>
      <trkpt lat="45.85034" lon="6.44692">
        <ele>2417.7</ele>
        <time>2024-04-27T09:50:34Z</time>
      </trkpt>
      <trkpt lat="45.85034" lon="6.44691">
        <ele>2417.7</ele>
        <time>2024-04-27T09:50:35Z</time>
      </trkpt>
      <trkpt lat="45.85034" lon="6.4469">
        <ele>2417.7</ele>
        <time>2024-04-27T09:50:36Z</time>
      </trkpt>
      <trkpt lat="45.85034" lon="6.44689">
        <ele>2417.7</ele>
        <time>2024-04-27T09:50:37Z</time>
      </trkpt>
      <trkpt lat="45.85034" lon="6.44688">
        <ele>2415.7</ele>
        <time>2024-04-27T09:50:38Z</time>
      </trkpt>
      <trkpt lat="45.85034" lon="6.44688">
        <ele>2415.7</ele>
        <time>2024-04-27T09:50:39Z</time>
      </trkpt>
      <trkpt lat="45.85034" lon="6.44688">
        <ele>2415.7</ele>
        <time>2024-04-27T09:50:40Z</time>
      </trkpt>
      <trkpt lat="45.85034" lon="6.44688">
        <ele>2415.7</ele>
        <time>2024-04-27T09:50:41Z</time>
      </trkpt>
      <trkpt lat="45.85034" lon="6.44688">
        <ele>2415.7</ele>
        <time>2024-04-27T09:50:42Z</time>
      </trkpt>
      <trkpt lat="45.85034" lon="6.44688">
        <ele>2415.7</ele>
        <time>2024-04-27T09:50:43Z</time>
      </trkpt>
      <trkpt lat="45.85034" lon="6.44688">
        <ele>2414.7</ele>
        <time>2024-04-27T09:50:44Z</time>
      </trkpt>
      <trkpt lat="45.85034" lon="6.44685">
        <ele>2414.7</ele>
        <time>2024-04-27T09:50:45Z</time>
      </trkpt>
      <trkpt lat="45.85035" lon="6.44685">
        <ele>2414.7</ele>
        <time>2024-04-27T09:50:46Z</time>
      </trkpt>
      <trkpt lat="45.85035" lon="6.44684">
        <ele>2414.7</ele>
        <time>2024-04-27T09:50:47Z</time>
      </trkpt>
      <trkpt lat="45.85035" lon="6.44684">
        <ele>2413.6</ele>
        <time>2024-04-27T09:50:48Z</time>
      </trkpt>
      <trkpt lat="45.85035" lon="6.44684">
        <ele>2413.6</ele>
        <time>2024-04-27T09:50:49Z</time>
      </trkpt>
      <trkpt lat="45.85035" lon="6.44684">
        <ele>2413.6</ele>
        <time>2024-04-27T09:50:50Z</time>
      </trkpt>
      <trkpt lat="45.85035" lon="6.44684">
        <ele>2413.6</ele>
        <time>2024-04-27T09:50:51Z</time>
      </trkpt>
      <trkpt lat="45.85035" lon="6.44684">
        <ele>2413.6</ele>
        <time>2024-04-27T09:50:52Z</time>
      </trkpt>
      <trkpt lat="45.85035" lon="6.44683">
        <ele>2413.6</ele>
        <time>2024-04-27T09:50:53Z</time>
      </trkpt>
      <trkpt lat="45.85035" lon="6.44683">
        <ele>2412.7</ele>
        <time>2024-04-27T09:50:54Z</time>
      </trkpt>
      <trkpt lat="45.85035" lon="6.44683">
        <ele>2412.7</ele>
        <time>2024-04-27T09:50:55Z</time>
      </trkpt>
      <trkpt lat="45.85035" lon="6.44683">
        <ele>2412.7</ele>
        <time>2024-04-27T09:50:56Z</time>
      </trkpt>
      <trkpt lat="45.85035" lon="6.44683">
        <ele>2412.7</ele>
        <time>2024-04-27T09:50:57Z</time>
      </trkpt>
      <trkpt lat="45.85035" lon="6.44683">
        <ele>2411.6</ele>
        <time>2024-04-27T09:50:58Z</time>
      </trkpt>
      <trkpt lat="45.85035" lon="6.44683">
        <ele>2411.6</ele>
        <time>2024-04-27T09:50:59Z</time>
      </trkpt>
      <trkpt lat="45.85035" lon="6.44683">
        <ele>2411.6</ele>
        <time>2024-04-27T09:51:00Z</time>
      </trkpt>
      <trkpt lat="45.85035" lon="6.44683">
        <ele>2411.6</ele>
        <time>2024-04-27T09:51:01Z</time>
      </trkpt>
      <trkpt lat="45.85035" lon="6.44683">
        <ele>2410.7</ele>
        <time>2024-04-27T09:51:02Z</time>
      </trkpt>
      <trkpt lat="45.85035" lon="6.44683">
        <ele>2410.7</ele>
        <time>2024-04-27T09:51:03Z</time>
      </trkpt>
      <trkpt lat="45.85035" lon="6.44683">
        <ele>2410.7</ele>
        <time>2024-04-27T09:51:04Z</time>
      </trkpt>
      <trkpt lat="45.85035" lon="6.44683">
        <ele>2410.7</ele>
        <time>2024-04-27T09:51:05Z</time>
      </trkpt>
      <trkpt lat="45.85035" lon="6.44683">
        <ele>2410.7</ele>
        <time>2024-04-27T09:51:06Z</time>
      </trkpt>
      <trkpt lat="45.85035" lon="6.44682">
        <ele>2410.7</ele>
        <time>2024-04-27T09:51:07Z</time>
      </trkpt>
      <trkpt lat="45.85035" lon="6.44682">
        <ele>2410.7</ele>
        <time>2024-04-27T09:51:08Z</time>
      </trkpt>
      <trkpt lat="45.85035" lon="6.44682">
        <ele>2410.7</ele>
        <time>2024-04-27T09:51:09Z</time>
      </trkpt>
      <trkpt lat="45.85035" lon="6.44682">
        <ele>2409.6</ele>
        <time>2024-04-27T09:51:10Z</time>
      </trkpt>
      <trkpt lat="45.85035" lon="6.44682">
        <ele>2409.6</ele>
        <time>2024-04-27T09:51:11Z</time>
      </trkpt>
      <trkpt lat="45.85035" lon="6.44682">
        <ele>2409.6</ele>
        <time>2024-04-27T09:51:12Z</time>
      </trkpt>
      <trkpt lat="45.85035" lon="6.44681">
        <ele>2409.6</ele>
        <time>2024-04-27T09:51:13Z</time>
      </trkpt>
      <trkpt lat="45.85035" lon="6.44681">
        <ele>2409.6</ele>
        <time>2024-04-27T09:51:14Z</time>
      </trkpt>
      <trkpt lat="45.85035" lon="6.4468">
        <ele>2409.6</ele>
        <time>2024-04-27T09:51:15Z</time>
      </trkpt>
      <trkpt lat="45.85035" lon="6.44679">
        <ele>2409.6</ele>
        <time>2024-04-27T09:51:16Z</time>
      </trkpt>
      <trkpt lat="45.85035" lon="6.44679">
        <ele>2409.6</ele>
        <time>2024-04-27T09:51:17Z</time>
      </trkpt>
      <trkpt lat="45.85035" lon="6.44679">
        <ele>2409.6</ele>
        <time>2024-04-27T09:51:18Z</time>
      </trkpt>
      <trkpt lat="45.85035" lon="6.44678">
        <ele>2409.6</ele>
        <time>2024-04-27T09:51:19Z</time>
      </trkpt>
      <trkpt lat="45.85035" lon="6.44678">
        <ele>2409.6</ele>
        <time>2024-04-27T09:51:20Z</time>
      </trkpt>
      <trkpt lat="45.85035" lon="6.44678">
        <ele>2409.6</ele>
        <time>2024-04-27T09:51:21Z</time>
      </trkpt>
      <trkpt lat="45.85035" lon="6.44678">
        <ele>2409.6</ele>
        <time>2024-04-27T09:51:22Z</time>
      </trkpt>
      <trkpt lat="45.85035" lon="6.44678">
        <ele>2409.6</ele>
        <time>2024-04-27T09:51:23Z</time>
      </trkpt>
      <trkpt lat="45.85035" lon="6.44678">
        <ele>2409.6</ele>
        <time>2024-04-27T09:51:24Z</time>
      </trkpt>
      <trkpt lat="45.85035" lon="6.44678">
        <ele>2409.6</ele>
        <time>2024-04-27T09:51:25Z</time>
      </trkpt>
      <trkpt lat="45.85035" lon="6.44677">
        <ele>2409.6</ele>
        <time>2024-04-27T09:51:26Z</time>
      </trkpt>
      <trkpt lat="45.85036" lon="6.44677">
        <ele>2409.6</ele>
        <time>2024-04-27T09:51:27Z</time>
      </trkpt>
      <trkpt lat="45.85036" lon="6.44677">
        <ele>2408.7</ele>
        <time>2024-04-27T09:51:28Z</time>
      </trkpt>
      <trkpt lat="45.85036" lon="6.44677">
        <ele>2408.7</ele>
        <time>2024-04-27T09:51:29Z</time>
      </trkpt>
      <trkpt lat="45.85036" lon="6.44677">
        <ele>2408.7</ele>
        <time>2024-04-27T09:51:30Z</time>
      </trkpt>
      <trkpt lat="45.85036" lon="6.44677">
        <ele>2408.7</ele>
        <time>2024-04-27T09:51:31Z</time>
      </trkpt>
      <trkpt lat="45.85036" lon="6.44677">
        <ele>2408.7</ele>
        <time>2024-04-27T09:51:32Z</time>
      </trkpt>
      <trkpt lat="45.85036" lon="6.44677">
        <ele>2408.7</ele>
        <time>2024-04-27T09:51:33Z</time>
      </trkpt>
      <trkpt lat="45.85036" lon="6.44677">
        <ele>2408.7</ele>
        <time>2024-04-27T09:51:34Z</time>
      </trkpt>
      <trkpt lat="45.85036" lon="6.44677">
        <ele>2408.7</ele>
        <time>2024-04-27T09:51:35Z</time>
      </trkpt>
      <trkpt lat="45.85036" lon="6.44677">
        <ele>2408.7</ele>
        <time>2024-04-27T09:51:36Z</time>
      </trkpt>
      <trkpt lat="45.85036" lon="6.44677">
        <ele>2408.7</ele>
        <time>2024-04-27T09:51:37Z</time>
      </trkpt>
      <trkpt lat="45.85036" lon="6.44677">
        <ele>2408.7</ele>
        <time>2024-04-27T09:51:38Z</time>
      </trkpt>
      <trkpt lat="45.85036" lon="6.44677">
        <ele>2408.7</ele>
        <time>2024-04-27T09:51:39Z</time>
      </trkpt>
      <trkpt lat="45.85036" lon="6.44677">
        <ele>2408.7</ele>
        <time>2024-04-27T09:51:40Z</time>
      </trkpt>
      <trkpt lat="45.85036" lon="6.44677">
        <ele>2408.7</ele>
        <time>2024-04-27T09:51:41Z</time>
      </trkpt>
      <trkpt lat="45.85036" lon="6.44677">
        <ele>2408.7</ele>
        <time>2024-04-27T09:51:42Z</time>
      </trkpt>
      <trkpt lat="45.85036" lon="6.44677">
        <ele>2408.7</ele>
        <time>2024-04-27T09:51:43Z</time>
      </trkpt>
      <trkpt lat="45.85036" lon="6.44677">
        <ele>2408.7</ele>
        <time>2024-04-27T09:51:44Z</time>
      </trkpt>
      <trkpt lat="45.85036" lon="6.44677">
        <ele>2408.7</ele>
        <time>2024-04-27T09:51:45Z</time>
      </trkpt>
      <trkpt lat="45.85036" lon="6.44677">
        <ele>2408.7</ele>
        <time>2024-04-27T09:51:46Z</time>
      </trkpt>
      <trkpt lat="45.85036" lon="6.44677">
        <ele>2408.7</ele>
        <time>2024-04-27T09:51:47Z</time>
      </trkpt>
      <trkpt lat="45.85036" lon="6.44677">
        <ele>2408.7</ele>
        <time>2024-04-27T09:51:48Z</time>
      </trkpt>
      <trkpt lat="45.85036" lon="6.44678">
        <ele>2408.7</ele>
        <time>2024-04-27T09:51:49Z</time>
      </trkpt>
      <trkpt lat="45.85036" lon="6.44678">
        <ele>2408.7</ele>
        <time>2024-04-27T09:51:50Z</time>
      </trkpt>
      <trkpt lat="45.85036" lon="6.44678">
        <ele>2408.7</ele>
        <time>2024-04-27T09:51:51Z</time>
      </trkpt>
      <trkpt lat="45.85036" lon="6.44678">
        <ele>2408.7</ele>
        <time>2024-04-27T09:51:52Z</time>
      </trkpt>
      <trkpt lat="45.85036" lon="6.44678">
        <ele>2408.7</ele>
        <time>2024-04-27T09:51:53Z</time>
      </trkpt>
      <trkpt lat="45.85036" lon="6.44678">
        <ele>2408.7</ele>
        <time>2024-04-27T09:51:54Z</time>
      </trkpt>
      <trkpt lat="45.85036" lon="6.44678">
        <ele>2408.7</ele>
        <time>2024-04-27T09:51:55Z</time>
      </trkpt>
      <trkpt lat="45.85036" lon="6.44678">
        <ele>2408.7</ele>
        <time>2024-04-27T09:51:56Z</time>
      </trkpt>
      <trkpt lat="45.85036" lon="6.44678">
        <ele>2408.7</ele>
        <time>2024-04-27T09:51:57Z</time>
      </trkpt>
      <trkpt lat="45.85036" lon="6.44678">
        <ele>2408.7</ele>
        <time>2024-04-27T09:51:58Z</time>
      </trkpt>
      <trkpt lat="45.85036" lon="6.44678">
        <ele>2408.7</ele>
        <time>2024-04-27T09:51:59Z</time>
      </trkpt>
      <trkpt lat="45.85036" lon="6.44678">
        <ele>2408.7</ele>
        <time>2024-04-27T09:52:00Z</time>
      </trkpt>
      <trkpt lat="45.85036" lon="6.44678">
        <ele>2408.7</ele>
        <time>2024-04-27T09:52:01Z</time>
      </trkpt>
      <trkpt lat="45.85036" lon="6.44678">
        <ele>2408.7</ele>
        <time>2024-04-27T09:52:02Z</time>
      </trkpt>
      <trkpt lat="45.85036" lon="6.44678">
        <ele>2408.7</ele>
        <time>2024-04-27T09:52:03Z</time>
      </trkpt>
      <trkpt lat="45.85036" lon="6.44678">
        <ele>2408.7</ele>
        <time>2024-04-27T09:52:04Z</time>
      </trkpt>
      <trkpt lat="45.85036" lon="6.44678">
        <ele>2408.7</ele>
        <time>2024-04-27T09:52:05Z</time>
      </trkpt>
      <trkpt lat="45.85036" lon="6.44678">
        <ele>2408.7</ele>
        <time>2024-04-27T09:52:06Z</time>
      </trkpt>
      <trkpt lat="45.85036" lon="6.44678">
        <ele>2408.7</ele>
        <time>2024-04-27T09:52:07Z</time>
      </trkpt>
      <trkpt lat="45.85036" lon="6.44678">
        <ele>2408.7</ele>
        <time>2024-04-27T09:52:08Z</time>
      </trkpt>
      <trkpt lat="45.85036" lon="6.44678">
        <ele>2408.7</ele>
        <time>2024-04-27T09:52:09Z</time>
      </trkpt>
      <trkpt lat="45.85036" lon="6.44679">
        <ele>2408.7</ele>
        <time>2024-04-27T09:52:10Z</time>
      </trkpt>
      <trkpt lat="45.85036" lon="6.44679">
        <ele>2408.7</ele>
        <time>2024-04-27T09:52:11Z</time>
      </trkpt>
      <trkpt lat="45.85036" lon="6.44679">
        <ele>2409.6</ele>
        <time>2024-04-27T09:52:12Z</time>
      </trkpt>
      <trkpt lat="45.85036" lon="6.44679">
        <ele>2409.6</ele>
        <time>2024-04-27T09:52:13Z</time>
      </trkpt>
      <trkpt lat="45.85036" lon="6.44679">
        <ele>2409.6</ele>
        <time>2024-04-27T09:52:14Z</time>
      </trkpt>
      <trkpt lat="45.85036" lon="6.44679">
        <ele>2409.6</ele>
        <time>2024-04-27T09:52:15Z</time>
      </trkpt>
      <trkpt lat="45.85036" lon="6.44679">
        <ele>2409.6</ele>
        <time>2024-04-27T09:52:16Z</time>
      </trkpt>
      <trkpt lat="45.85036" lon="6.44679">
        <ele>2409.6</ele>
        <time>2024-04-27T09:52:17Z</time>
      </trkpt>
      <trkpt lat="45.85036" lon="6.44679">
        <ele>2409.6</ele>
        <time>2024-04-27T09:52:18Z</time>
      </trkpt>
      <trkpt lat="45.85036" lon="6.44679">
        <ele>2409.6</ele>
        <time>2024-04-27T09:52:19Z</time>
      </trkpt>
      <trkpt lat="45.85036" lon="6.44679">
        <ele>2409.6</ele>
        <time>2024-04-27T09:52:20Z</time>
      </trkpt>
      <trkpt lat="45.85036" lon="6.44679">
        <ele>2409.6</ele>
        <time>2024-04-27T09:52:21Z</time>
      </trkpt>
      <trkpt lat="45.85036" lon="6.44679">
        <ele>2409.6</ele>
        <time>2024-04-27T09:52:22Z</time>
      </trkpt>
      <trkpt lat="45.85036" lon="6.44679">
        <ele>2409.6</ele>
        <time>2024-04-27T09:52:23Z</time>
      </trkpt>
      <trkpt lat="45.85036" lon="6.44679">
        <ele>2410.7</ele>
        <time>2024-04-27T09:52:24Z</time>
      </trkpt>
      <trkpt lat="45.85036" lon="6.44679">
        <ele>2410.7</ele>
        <time>2024-04-27T09:52:25Z</time>
      </trkpt>
      <trkpt lat="45.85036" lon="6.44679">
        <ele>2410.7</ele>
        <time>2024-04-27T09:52:26Z</time>
      </trkpt>
      <trkpt lat="45.85036" lon="6.44679">
        <ele>2410.7</ele>
        <time>2024-04-27T09:52:27Z</time>
      </trkpt>
      <trkpt lat="45.85036" lon="6.44679">
        <ele>2410.7</ele>
        <time>2024-04-27T09:52:28Z</time>
      </trkpt>
      <trkpt lat="45.85036" lon="6.44679">
        <ele>2410.7</ele>
        <time>2024-04-27T09:52:29Z</time>
      </trkpt>
      <trkpt lat="45.85036" lon="6.44679">
        <ele>2410.7</ele>
        <time>2024-04-27T09:52:30Z</time>
      </trkpt>
      <trkpt lat="45.85037" lon="6.44679">
        <ele>2410.7</ele>
        <time>2024-04-27T09:52:31Z</time>
      </trkpt>
      <trkpt lat="45.85037" lon="6.44679">
        <ele>2410.7</ele>
        <time>2024-04-27T09:52:32Z</time>
      </trkpt>
      <trkpt lat="45.85037" lon="6.44679">
        <ele>2410.7</ele>
        <time>2024-04-27T09:52:33Z</time>
      </trkpt>
      <trkpt lat="45.85037" lon="6.44679">
        <ele>2409.6</ele>
        <time>2024-04-27T09:52:34Z</time>
      </trkpt>
      <trkpt lat="45.85037" lon="6.44679">
        <ele>2409.6</ele>
        <time>2024-04-27T09:52:35Z</time>
      </trkpt>
      <trkpt lat="45.85038" lon="6.44679">
        <ele>2409.6</ele>
        <time>2024-04-27T09:52:36Z</time>
      </trkpt>
      <trkpt lat="45.85038" lon="6.44679">
        <ele>2409.6</ele>
        <time>2024-04-27T09:52:37Z</time>
      </trkpt>
      <trkpt lat="45.85038" lon="6.44679">
        <ele>2409.6</ele>
        <time>2024-04-27T09:52:38Z</time>
      </trkpt>
      <trkpt lat="45.85038" lon="6.44679">
        <ele>2409.6</ele>
        <time>2024-04-27T09:52:39Z</time>
      </trkpt>
      <trkpt lat="45.85038" lon="6.44679">
        <ele>2409.6</ele>
        <time>2024-04-27T09:52:40Z</time>
      </trkpt>
      <trkpt lat="45.85038" lon="6.44679">
        <ele>2409.6</ele>
        <time>2024-04-27T09:52:41Z</time>
      </trkpt>
      <trkpt lat="45.85038" lon="6.44679">
        <ele>2409.6</ele>
        <time>2024-04-27T09:52:42Z</time>
      </trkpt>
      <trkpt lat="45.85038" lon="6.44679">
        <ele>2409.6</ele>
        <time>2024-04-27T09:52:43Z</time>
      </trkpt>
      <trkpt lat="45.85038" lon="6.44679">
        <ele>2410.7</ele>
        <time>2024-04-27T09:52:44Z</time>
      </trkpt>
      <trkpt lat="45.85038" lon="6.44679">
        <ele>2410.7</ele>
        <time>2024-04-27T09:52:45Z</time>
      </trkpt>
      <trkpt lat="45.85038" lon="6.44679">
        <ele>2410.7</ele>
        <time>2024-04-27T09:52:46Z</time>
      </trkpt>
      <trkpt lat="45.85038" lon="6.44679">
        <ele>2410.7</ele>
        <time>2024-04-27T09:52:47Z</time>
      </trkpt>
      <trkpt lat="45.85038" lon="6.44679">
        <ele>2410.7</ele>
        <time>2024-04-27T09:52:48Z</time>
      </trkpt>
      <trkpt lat="45.85038" lon="6.44679">
        <ele>2410.7</ele>
        <time>2024-04-27T09:52:49Z</time>
      </trkpt>
      <trkpt lat="45.85038" lon="6.44679">
        <ele>2410.7</ele>
        <time>2024-04-27T09:52:50Z</time>
      </trkpt>
      <trkpt lat="45.85038" lon="6.44679">
        <ele>2410.7</ele>
        <time>2024-04-27T09:52:51Z</time>
      </trkpt>
      <trkpt lat="45.85038" lon="6.4468">
        <ele>2410.7</ele>
        <time>2024-04-27T09:52:52Z</time>
      </trkpt>
      <trkpt lat="45.85038" lon="6.4468">
        <ele>2410.7</ele>
        <time>2024-04-27T09:52:53Z</time>
      </trkpt>
      <trkpt lat="45.85038" lon="6.4468">
        <ele>2409.6</ele>
        <time>2024-04-27T09:52:54Z</time>
      </trkpt>
      <trkpt lat="45.85038" lon="6.4468">
        <ele>2409.6</ele>
        <time>2024-04-27T09:52:55Z</time>
      </trkpt>
      <trkpt lat="45.85038" lon="6.4468">
        <ele>2409.6</ele>
        <time>2024-04-27T09:52:56Z</time>
      </trkpt>
      <trkpt lat="45.85038" lon="6.4468">
        <ele>2409.6</ele>
        <time>2024-04-27T09:52:57Z</time>
      </trkpt>
      <trkpt lat="45.85038" lon="6.4468">
        <ele>2409.6</ele>
        <time>2024-04-27T09:52:58Z</time>
      </trkpt>
      <trkpt lat="45.85038" lon="6.4468">
        <ele>2409.6</ele>
        <time>2024-04-27T09:52:59Z</time>
      </trkpt>
      <trkpt lat="45.85038" lon="6.4468">
        <ele>2409.6</ele>
        <time>2024-04-27T09:53:00Z</time>
      </trkpt>
      <trkpt lat="45.85038" lon="6.4468">
        <ele>2409.6</ele>
        <time>2024-04-27T09:53:01Z</time>
      </trkpt>
      <trkpt lat="45.85038" lon="6.44679">
        <ele>2408.7</ele>
        <time>2024-04-27T09:53:02Z</time>
      </trkpt>
      <trkpt lat="45.85038" lon="6.44679">
        <ele>2408.7</ele>
        <time>2024-04-27T09:53:03Z</time>
      </trkpt>
      <trkpt lat="45.85038" lon="6.44679">
        <ele>2408.7</ele>
        <time>2024-04-27T09:53:04Z</time>
      </trkpt>
      <trkpt lat="45.85038" lon="6.44679">
        <ele>2408.7</ele>
        <time>2024-04-27T09:53:05Z</time>
      </trkpt>
      <trkpt lat="45.85038" lon="6.44679">
        <ele>2408.7</ele>
        <time>2024-04-27T09:53:06Z</time>
      </trkpt>
      <trkpt lat="45.85038" lon="6.44679">
        <ele>2408.7</ele>
        <time>2024-04-27T09:53:07Z</time>
      </trkpt>
      <trkpt lat="45.85038" lon="6.44679">
        <ele>2408.7</ele>
        <time>2024-04-27T09:53:08Z</time>
      </trkpt>
      <trkpt lat="45.85038" lon="6.44679">
        <ele>2408.7</ele>
        <time>2024-04-27T09:53:09Z</time>
      </trkpt>
      <trkpt lat="45.85038" lon="6.44679">
        <ele>2408.7</ele>
        <time>2024-04-27T09:53:10Z</time>
      </trkpt>
      <trkpt lat="45.85038" lon="6.44679">
        <ele>2408.7</ele>
        <time>2024-04-27T09:53:11Z</time>
      </trkpt>
      <trkpt lat="45.85038" lon="6.44679">
        <ele>2407.6</ele>
        <time>2024-04-27T09:53:12Z</time>
      </trkpt>
      <trkpt lat="45.85038" lon="6.44679">
        <ele>2407.6</ele>
        <time>2024-04-27T09:53:13Z</time>
      </trkpt>
      <trkpt lat="45.85038" lon="6.44679">
        <ele>2407.6</ele>
        <time>2024-04-27T09:53:14Z</time>
      </trkpt>
      <trkpt lat="45.85038" lon="6.44679">
        <ele>2407.6</ele>
        <time>2024-04-27T09:53:15Z</time>
      </trkpt>
      <trkpt lat="45.85038" lon="6.44679">
        <ele>2407.6</ele>
        <time>2024-04-27T09:53:16Z</time>
      </trkpt>
      <trkpt lat="45.85038" lon="6.44679">
        <ele>2407.6</ele>
        <time>2024-04-27T09:53:17Z</time>
      </trkpt>
      <trkpt lat="45.85038" lon="6.44679">
        <ele>2406.6</ele>
        <time>2024-04-27T09:53:18Z</time>
      </trkpt>
      <trkpt lat="45.85038" lon="6.44679">
        <ele>2406.6</ele>
        <time>2024-04-27T09:53:19Z</time>
      </trkpt>
      <trkpt lat="45.85038" lon="6.44679">
        <ele>2406.6</ele>
        <time>2024-04-27T09:53:20Z</time>
      </trkpt>
      <trkpt lat="45.85037" lon="6.44679">
        <ele>2406.6</ele>
        <time>2024-04-27T09:53:21Z</time>
      </trkpt>
      <trkpt lat="45.85037" lon="6.44679">
        <ele>2406.6</ele>
        <time>2024-04-27T09:53:22Z</time>
      </trkpt>
      <trkpt lat="45.85037" lon="6.44679">
        <ele>2406.6</ele>
        <time>2024-04-27T09:53:23Z</time>
      </trkpt>
      <trkpt lat="45.85037" lon="6.44679">
        <ele>2406.6</ele>
        <time>2024-04-27T09:53:24Z</time>
      </trkpt>
      <trkpt lat="45.85038" lon="6.44679">
        <ele>2406.6</ele>
        <time>2024-04-27T09:53:25Z</time>
      </trkpt>
      <trkpt lat="45.85038" lon="6.44679">
        <ele>2406.6</ele>
        <time>2024-04-27T09:53:26Z</time>
      </trkpt>
      <trkpt lat="45.85038" lon="6.44679">
        <ele>2406.6</ele>
        <time>2024-04-27T09:53:27Z</time>
      </trkpt>
      <trkpt lat="45.85038" lon="6.44679">
        <ele>2406.6</ele>
        <time>2024-04-27T09:53:28Z</time>
      </trkpt>
      <trkpt lat="45.85038" lon="6.44679">
        <ele>2406.6</ele>
        <time>2024-04-27T09:53:29Z</time>
      </trkpt>
      <trkpt lat="45.85038" lon="6.44679">
        <ele>2406.6</ele>
        <time>2024-04-27T09:53:30Z</time>
      </trkpt>
      <trkpt lat="45.85038" lon="6.44679">
        <ele>2406.6</ele>
        <time>2024-04-27T09:53:31Z</time>
      </trkpt>
      <trkpt lat="45.85038" lon="6.44679">
        <ele>2406.6</ele>
        <time>2024-04-27T09:53:32Z</time>
      </trkpt>
      <trkpt lat="45.85038" lon="6.44679">
        <ele>2406.6</ele>
        <time>2024-04-27T09:53:33Z</time>
      </trkpt>
      <trkpt lat="45.85038" lon="6.44679">
        <ele>2406.6</ele>
        <time>2024-04-27T09:53:34Z</time>
      </trkpt>
      <trkpt lat="45.85038" lon="6.44679">
        <ele>2406.6</ele>
        <time>2024-04-27T09:53:35Z</time>
      </trkpt>
      <trkpt lat="45.85038" lon="6.44679">
        <ele>2406.6</ele>
        <time>2024-04-27T09:53:36Z</time>
      </trkpt>
      <trkpt lat="45.85038" lon="6.44679">
        <ele>2406.6</ele>
        <time>2024-04-27T09:53:37Z</time>
      </trkpt>
      <trkpt lat="45.85038" lon="6.44679">
        <ele>2406.6</ele>
        <time>2024-04-27T09:53:38Z</time>
      </trkpt>
      <trkpt lat="45.85038" lon="6.44679">
        <ele>2406.6</ele>
        <time>2024-04-27T09:53:39Z</time>
      </trkpt>
      <trkpt lat="45.85038" lon="6.44679">
        <ele>2406.6</ele>
        <time>2024-04-27T09:53:40Z</time>
      </trkpt>
      <trkpt lat="45.85038" lon="6.44679">
        <ele>2406.6</ele>
        <time>2024-04-27T09:53:41Z</time>
      </trkpt>
      <trkpt lat="45.85039" lon="6.44679">
        <ele>2406.6</ele>
        <time>2024-04-27T09:53:42Z</time>
      </trkpt>
      <trkpt lat="45.85039" lon="6.44679">
        <ele>2406.6</ele>
        <time>2024-04-27T09:53:43Z</time>
      </trkpt>
      <trkpt lat="45.85039" lon="6.44679">
        <ele>2407.6</ele>
        <time>2024-04-27T09:53:44Z</time>
      </trkpt>
      <trkpt lat="45.85039" lon="6.44679">
        <ele>2407.6</ele>
        <time>2024-04-27T09:53:45Z</time>
      </trkpt>
      <trkpt lat="45.85039" lon="6.44679">
        <ele>2407.6</ele>
        <time>2024-04-27T09:53:46Z</time>
      </trkpt>
      <trkpt lat="45.85039" lon="6.44679">
        <ele>2407.6</ele>
        <time>2024-04-27T09:53:47Z</time>
      </trkpt>
      <trkpt lat="45.85039" lon="6.44679">
        <ele>2407.6</ele>
        <time>2024-04-27T09:53:48Z</time>
      </trkpt>
      <trkpt lat="45.85039" lon="6.44679">
        <ele>2407.6</ele>
        <time>2024-04-27T09:53:49Z</time>
      </trkpt>
      <trkpt lat="45.85039" lon="6.44679">
        <ele>2407.6</ele>
        <time>2024-04-27T09:53:50Z</time>
      </trkpt>
      <trkpt lat="45.85039" lon="6.44679">
        <ele>2407.6</ele>
        <time>2024-04-27T09:53:51Z</time>
      </trkpt>
      <trkpt lat="45.85039" lon="6.44679">
        <ele>2407.6</ele>
        <time>2024-04-27T09:53:52Z</time>
      </trkpt>
      <trkpt lat="45.85039" lon="6.44679">
        <ele>2407.6</ele>
        <time>2024-04-27T09:53:53Z</time>
      </trkpt>
      <trkpt lat="45.85039" lon="6.44679">
        <ele>2407.6</ele>
        <time>2024-04-27T09:53:54Z</time>
      </trkpt>
      <trkpt lat="45.85039" lon="6.44679">
        <ele>2407.6</ele>
        <time>2024-04-27T09:53:55Z</time>
      </trkpt>
      <trkpt lat="45.85039" lon="6.44679">
        <ele>2408.7</ele>
        <time>2024-04-27T09:53:56Z</time>
      </trkpt>
      <trkpt lat="45.85039" lon="6.44679">
        <ele>2408.7</ele>
        <time>2024-04-27T09:53:57Z</time>
      </trkpt>
      <trkpt lat="45.85039" lon="6.44679">
        <ele>2408.7</ele>
        <time>2024-04-27T09:53:58Z</time>
      </trkpt>
      <trkpt lat="45.85039" lon="6.44679">
        <ele>2408.7</ele>
        <time>2024-04-27T09:53:59Z</time>
      </trkpt>
      <trkpt lat="45.85039" lon="6.44679">
        <ele>2408.7</ele>
        <time>2024-04-27T09:54:00Z</time>
      </trkpt>
      <trkpt lat="45.85039" lon="6.44679">
        <ele>2408.7</ele>
        <time>2024-04-27T09:54:01Z</time>
      </trkpt>
      <trkpt lat="45.85039" lon="6.44679">
        <ele>2408.7</ele>
        <time>2024-04-27T09:54:02Z</time>
      </trkpt>
      <trkpt lat="45.85039" lon="6.44679">
        <ele>2408.7</ele>
        <time>2024-04-27T09:54:03Z</time>
      </trkpt>
      <trkpt lat="45.85039" lon="6.44679">
        <ele>2408.7</ele>
        <time>2024-04-27T09:54:04Z</time>
      </trkpt>
      <trkpt lat="45.85039" lon="6.44679">
        <ele>2408.7</ele>
        <time>2024-04-27T09:54:05Z</time>
      </trkpt>
      <trkpt lat="45.85039" lon="6.44679">
        <ele>2408.7</ele>
        <time>2024-04-27T09:54:06Z</time>
      </trkpt>
      <trkpt lat="45.85039" lon="6.44679">
        <ele>2408.7</ele>
        <time>2024-04-27T09:54:07Z</time>
      </trkpt>
      <trkpt lat="45.85039" lon="6.44679">
        <ele>2408.7</ele>
        <time>2024-04-27T09:54:08Z</time>
      </trkpt>
      <trkpt lat="45.85039" lon="6.44679">
        <ele>2408.7</ele>
        <time>2024-04-27T09:54:09Z</time>
      </trkpt>
      <trkpt lat="45.85039" lon="6.44679">
        <ele>2408.7</ele>
        <time>2024-04-27T09:54:10Z</time>
      </trkpt>
      <trkpt lat="45.85039" lon="6.44679">
        <ele>2408.7</ele>
        <time>2024-04-27T09:54:11Z</time>
      </trkpt>
      <trkpt lat="45.85039" lon="6.44679">
        <ele>2408.7</ele>
        <time>2024-04-27T09:54:12Z</time>
      </trkpt>
      <trkpt lat="45.85039" lon="6.44679">
        <ele>2408.7</ele>
        <time>2024-04-27T09:54:13Z</time>
      </trkpt>
      <trkpt lat="45.85039" lon="6.44679">
        <ele>2408.7</ele>
        <time>2024-04-27T09:54:14Z</time>
      </trkpt>
      <trkpt lat="45.85039" lon="6.44679">
        <ele>2408.7</ele>
        <time>2024-04-27T09:54:15Z</time>
      </trkpt>
      <trkpt lat="45.85039" lon="6.44679">
        <ele>2408.7</ele>
        <time>2024-04-27T09:54:16Z</time>
      </trkpt>
      <trkpt lat="45.85039" lon="6.44679">
        <ele>2408.7</ele>
        <time>2024-04-27T09:54:17Z</time>
      </trkpt>
      <trkpt lat="45.85039" lon="6.44679">
        <ele>2408.7</ele>
        <time>2024-04-27T09:54:18Z</time>
      </trkpt>
      <trkpt lat="45.85039" lon="6.44679">
        <ele>2408.7</ele>
        <time>2024-04-27T09:54:19Z</time>
      </trkpt>
      <trkpt lat="45.85039" lon="6.44679">
        <ele>2408.7</ele>
        <time>2024-04-27T09:54:20Z</time>
      </trkpt>
      <trkpt lat="45.85039" lon="6.44679">
        <ele>2408.7</ele>
        <time>2024-04-27T09:54:21Z</time>
      </trkpt>
      <trkpt lat="45.85038" lon="6.44679">
        <ele>2409.6</ele>
        <time>2024-04-27T09:54:22Z</time>
      </trkpt>
      <trkpt lat="45.85038" lon="6.44679">
        <ele>2409.6</ele>
        <time>2024-04-27T09:54:23Z</time>
      </trkpt>
      <trkpt lat="45.85038" lon="6.44679">
        <ele>2409.6</ele>
        <time>2024-04-27T09:54:24Z</time>
      </trkpt>
      <trkpt lat="45.85038" lon="6.44678">
        <ele>2409.6</ele>
        <time>2024-04-27T09:54:25Z</time>
      </trkpt>
      <trkpt lat="45.85038" lon="6.44678">
        <ele>2409.6</ele>
        <time>2024-04-27T09:54:26Z</time>
      </trkpt>
      <trkpt lat="45.85038" lon="6.44678">
        <ele>2409.6</ele>
        <time>2024-04-27T09:54:27Z</time>
      </trkpt>
      <trkpt lat="45.85037" lon="6.44678">
        <ele>2409.6</ele>
        <time>2024-04-27T09:54:28Z</time>
      </trkpt>
      <trkpt lat="45.85037" lon="6.44678">
        <ele>2409.6</ele>
        <time>2024-04-27T09:54:29Z</time>
      </trkpt>
      <trkpt lat="45.85037" lon="6.44678">
        <ele>2410.7</ele>
        <time>2024-04-27T09:54:30Z</time>
      </trkpt>
      <trkpt lat="45.85037" lon="6.44678">
        <ele>2410.7</ele>
        <time>2024-04-27T09:54:31Z</time>
      </trkpt>
      <trkpt lat="45.85037" lon="6.44678">
        <ele>2410.7</ele>
        <time>2024-04-27T09:54:32Z</time>
      </trkpt>
      <trkpt lat="45.85037" lon="6.44678">
        <ele>2410.7</ele>
        <time>2024-04-27T09:54:33Z</time>
      </trkpt>
      <trkpt lat="45.85037" lon="6.44678">
        <ele>2410.7</ele>
        <time>2024-04-27T09:54:34Z</time>
      </trkpt>
      <trkpt lat="45.85037" lon="6.44678">
        <ele>2410.7</ele>
        <time>2024-04-27T09:54:35Z</time>
      </trkpt>
      <trkpt lat="45.85037" lon="6.44678">
        <ele>2411.6</ele>
        <time>2024-04-27T09:54:36Z</time>
      </trkpt>
      <trkpt lat="45.85037" lon="6.44678">
        <ele>2411.6</ele>
        <time>2024-04-27T09:54:37Z</time>
      </trkpt>
      <trkpt lat="45.85037" lon="6.44678">
        <ele>2411.6</ele>
        <time>2024-04-27T09:54:38Z</time>
      </trkpt>
      <trkpt lat="45.85037" lon="6.44678">
        <ele>2411.6</ele>
        <time>2024-04-27T09:54:39Z</time>
      </trkpt>
      <trkpt lat="45.85037" lon="6.44678">
        <ele>2411.6</ele>
        <time>2024-04-27T09:54:40Z</time>
      </trkpt>
      <trkpt lat="45.85037" lon="6.44678">
        <ele>2411.6</ele>
        <time>2024-04-27T09:54:41Z</time>
      </trkpt>
      <trkpt lat="45.85037" lon="6.44678">
        <ele>2412.7</ele>
        <time>2024-04-27T09:54:42Z</time>
      </trkpt>
      <trkpt lat="45.85037" lon="6.44678">
        <ele>2412.7</ele>
        <time>2024-04-27T09:54:43Z</time>
      </trkpt>
      <trkpt lat="45.85037" lon="6.44678">
        <ele>2412.7</ele>
        <time>2024-04-27T09:54:44Z</time>
      </trkpt>
      <trkpt lat="45.85037" lon="6.44678">
        <ele>2412.7</ele>
        <time>2024-04-27T09:54:45Z</time>
      </trkpt>
      <trkpt lat="45.85037" lon="6.44678">
        <ele>2412.7</ele>
        <time>2024-04-27T09:54:46Z</time>
      </trkpt>
      <trkpt lat="45.85037" lon="6.44678">
        <ele>2412.7</ele>
        <time>2024-04-27T09:54:47Z</time>
      </trkpt>
      <trkpt lat="45.85037" lon="6.44678">
        <ele>2411.6</ele>
        <time>2024-04-27T09:54:48Z</time>
      </trkpt>
      <trkpt lat="45.85037" lon="6.44678">
        <ele>2411.6</ele>
        <time>2024-04-27T09:54:49Z</time>
      </trkpt>
      <trkpt lat="45.85037" lon="6.44678">
        <ele>2411.6</ele>
        <time>2024-04-27T09:54:50Z</time>
      </trkpt>
      <trkpt lat="45.85037" lon="6.44678">
        <ele>2411.6</ele>
        <time>2024-04-27T09:54:51Z</time>
      </trkpt>
      <trkpt lat="45.85037" lon="6.44678">
        <ele>2411.6</ele>
        <time>2024-04-27T09:54:52Z</time>
      </trkpt>
      <trkpt lat="45.85037" lon="6.44678">
        <ele>2411.6</ele>
        <time>2024-04-27T09:54:53Z</time>
      </trkpt>
      <trkpt lat="45.85037" lon="6.44679">
        <ele>2411.6</ele>
        <time>2024-04-27T09:54:54Z</time>
      </trkpt>
      <trkpt lat="45.85037" lon="6.44679">
        <ele>2411.6</ele>
        <time>2024-04-27T09:54:55Z</time>
      </trkpt>
      <trkpt lat="45.85037" lon="6.44679">
        <ele>2411.6</ele>
        <time>2024-04-27T09:54:56Z</time>
      </trkpt>
      <trkpt lat="45.85037" lon="6.44679">
        <ele>2411.6</ele>
        <time>2024-04-27T09:54:57Z</time>
      </trkpt>
      <trkpt lat="45.85037" lon="6.4468">
        <ele>2411.6</ele>
        <time>2024-04-27T09:54:58Z</time>
      </trkpt>
      <trkpt lat="45.85038" lon="6.4468">
        <ele>2411.6</ele>
        <time>2024-04-27T09:54:59Z</time>
      </trkpt>
      <trkpt lat="45.85037" lon="6.44681">
        <ele>2411.6</ele>
        <time>2024-04-27T09:55:00Z</time>
      </trkpt>
      <trkpt lat="45.85037" lon="6.4468">
        <ele>2411.6</ele>
        <time>2024-04-27T09:55:01Z</time>
      </trkpt>
      <trkpt lat="45.85038" lon="6.4468">
        <ele>2410.7</ele>
        <time>2024-04-27T09:55:02Z</time>
      </trkpt>
      <trkpt lat="45.85038" lon="6.4468">
        <ele>2410.7</ele>
        <time>2024-04-27T09:55:03Z</time>
      </trkpt>
      <trkpt lat="45.85038" lon="6.4468">
        <ele>2410.7</ele>
        <time>2024-04-27T09:55:04Z</time>
      </trkpt>
      <trkpt lat="45.85038" lon="6.4468">
        <ele>2410.7</ele>
        <time>2024-04-27T09:55:05Z</time>
      </trkpt>
      <trkpt lat="45.85038" lon="6.4468">
        <ele>2410.7</ele>
        <time>2024-04-27T09:55:06Z</time>
      </trkpt>
      <trkpt lat="45.85038" lon="6.4468">
        <ele>2410.7</ele>
        <time>2024-04-27T09:55:07Z</time>
      </trkpt>
      <trkpt lat="45.85038" lon="6.4468">
        <ele>2410.7</ele>
        <time>2024-04-27T09:55:08Z</time>
      </trkpt>
      <trkpt lat="45.85038" lon="6.4468">
        <ele>2410.7</ele>
        <time>2024-04-27T09:55:09Z</time>
      </trkpt>
      <trkpt lat="45.85037" lon="6.4468">
        <ele>2410.7</ele>
        <time>2024-04-27T09:55:10Z</time>
      </trkpt>
      <trkpt lat="45.85037" lon="6.44679">
        <ele>2410.7</ele>
        <time>2024-04-27T09:55:11Z</time>
      </trkpt>
      <trkpt lat="45.85037" lon="6.44679">
        <ele>2410.7</ele>
        <time>2024-04-27T09:55:12Z</time>
      </trkpt>
      <trkpt lat="45.85037" lon="6.44679">
        <ele>2410.7</ele>
        <time>2024-04-27T09:55:13Z</time>
      </trkpt>
      <trkpt lat="45.85037" lon="6.44679">
        <ele>2410.7</ele>
        <time>2024-04-27T09:55:14Z</time>
      </trkpt>
      <trkpt lat="45.85037" lon="6.44679">
        <ele>2410.7</ele>
        <time>2024-04-27T09:55:15Z</time>
      </trkpt>
      <trkpt lat="45.85037" lon="6.44679">
        <ele>2410.7</ele>
        <time>2024-04-27T09:55:16Z</time>
      </trkpt>
      <trkpt lat="45.85037" lon="6.44679">
        <ele>2410.7</ele>
        <time>2024-04-27T09:55:17Z</time>
      </trkpt>
      <trkpt lat="45.85037" lon="6.44679">
        <ele>2410.7</ele>
        <time>2024-04-27T09:55:18Z</time>
      </trkpt>
      <trkpt lat="45.85037" lon="6.44679">
        <ele>2410.7</ele>
        <time>2024-04-27T09:55:19Z</time>
      </trkpt>
      <trkpt lat="45.85037" lon="6.44679">
        <ele>2410.7</ele>
        <time>2024-04-27T09:55:20Z</time>
      </trkpt>
      <trkpt lat="45.85037" lon="6.44679">
        <ele>2410.7</ele>
        <time>2024-04-27T09:55:21Z</time>
      </trkpt>
      <trkpt lat="45.85037" lon="6.44679">
        <ele>2409.6</ele>
        <time>2024-04-27T09:55:22Z</time>
      </trkpt>
      <trkpt lat="45.85037" lon="6.44679">
        <ele>2409.6</ele>
        <time>2024-04-27T09:55:23Z</time>
      </trkpt>
      <trkpt lat="45.85037" lon="6.44679">
        <ele>2409.6</ele>
        <time>2024-04-27T09:55:24Z</time>
      </trkpt>
      <trkpt lat="45.85037" lon="6.44679">
        <ele>2409.6</ele>
        <time>2024-04-27T09:55:25Z</time>
      </trkpt>
      <trkpt lat="45.85037" lon="6.44679">
        <ele>2409.6</ele>
        <time>2024-04-27T09:55:26Z</time>
      </trkpt>
      <trkpt lat="45.85037" lon="6.44679">
        <ele>2409.6</ele>
        <time>2024-04-27T09:55:27Z</time>
      </trkpt>
      <trkpt lat="45.85037" lon="6.44679">
        <ele>2408.7</ele>
        <time>2024-04-27T09:55:28Z</time>
      </trkpt>
      <trkpt lat="45.85037" lon="6.44679">
        <ele>2408.7</ele>
        <time>2024-04-27T09:55:29Z</time>
      </trkpt>
      <trkpt lat="45.85037" lon="6.44679">
        <ele>2408.7</ele>
        <time>2024-04-27T09:55:30Z</time>
      </trkpt>
      <trkpt lat="45.85037" lon="6.44679">
        <ele>2408.7</ele>
        <time>2024-04-27T09:55:31Z</time>
      </trkpt>
      <trkpt lat="45.85037" lon="6.44679">
        <ele>2408.7</ele>
        <time>2024-04-27T09:55:32Z</time>
      </trkpt>
      <trkpt lat="45.85037" lon="6.44679">
        <ele>2408.7</ele>
        <time>2024-04-27T09:55:33Z</time>
      </trkpt>
      <trkpt lat="45.85037" lon="6.44678">
        <ele>2408.7</ele>
        <time>2024-04-27T09:55:34Z</time>
      </trkpt>
      <trkpt lat="45.85037" lon="6.44678">
        <ele>2408.7</ele>
        <time>2024-04-27T09:55:35Z</time>
      </trkpt>
      <trkpt lat="45.85038" lon="6.44678">
        <ele>2408.7</ele>
        <time>2024-04-27T09:55:36Z</time>
      </trkpt>
      <trkpt lat="45.85038" lon="6.44678">
        <ele>2408.7</ele>
        <time>2024-04-27T09:55:37Z</time>
      </trkpt>
      <trkpt lat="45.85038" lon="6.44678">
        <ele>2407.6</ele>
        <time>2024-04-27T09:55:38Z</time>
      </trkpt>
      <trkpt lat="45.85038" lon="6.44678">
        <ele>2407.6</ele>
        <time>2024-04-27T09:55:39Z</time>
      </trkpt>
      <trkpt lat="45.85038" lon="6.44678">
        <ele>2407.6</ele>
        <time>2024-04-27T09:55:40Z</time>
      </trkpt>
      <trkpt lat="45.85038" lon="6.44678">
        <ele>2407.6</ele>
        <time>2024-04-27T09:55:41Z</time>
      </trkpt>
      <trkpt lat="45.85038" lon="6.44678">
        <ele>2407.6</ele>
        <time>2024-04-27T09:55:42Z</time>
      </trkpt>
      <trkpt lat="45.85038" lon="6.44678">
        <ele>2407.6</ele>
        <time>2024-04-27T09:55:43Z</time>
      </trkpt>
      <trkpt lat="45.85038" lon="6.44678">
        <ele>2408.7</ele>
        <time>2024-04-27T09:55:44Z</time>
      </trkpt>
      <trkpt lat="45.85038" lon="6.44678">
        <ele>2408.7</ele>
        <time>2024-04-27T09:55:45Z</time>
      </trkpt>
      <trkpt lat="45.85038" lon="6.44678">
        <ele>2408.7</ele>
        <time>2024-04-27T09:55:46Z</time>
      </trkpt>
      <trkpt lat="45.85038" lon="6.44678">
        <ele>2408.7</ele>
        <time>2024-04-27T09:55:47Z</time>
      </trkpt>
      <trkpt lat="45.85038" lon="6.44678">
        <ele>2408.7</ele>
        <time>2024-04-27T09:55:48Z</time>
      </trkpt>
      <trkpt lat="45.85038" lon="6.44678">
        <ele>2408.7</ele>
        <time>2024-04-27T09:55:49Z</time>
      </trkpt>
      <trkpt lat="45.85038" lon="6.44678">
        <ele>2407.6</ele>
        <time>2024-04-27T09:55:50Z</time>
      </trkpt>
      <trkpt lat="45.85038" lon="6.44678">
        <ele>2407.6</ele>
        <time>2024-04-27T09:55:51Z</time>
      </trkpt>
      <trkpt lat="45.85038" lon="6.44678">
        <ele>2407.6</ele>
        <time>2024-04-27T09:55:52Z</time>
      </trkpt>
      <trkpt lat="45.85038" lon="6.44678">
        <ele>2407.6</ele>
        <time>2024-04-27T09:55:53Z</time>
      </trkpt>
      <trkpt lat="45.85038" lon="6.44679">
        <ele>2407.6</ele>
        <time>2024-04-27T09:55:54Z</time>
      </trkpt>
      <trkpt lat="45.85038" lon="6.44679">
        <ele>2407.6</ele>
        <time>2024-04-27T09:55:55Z</time>
      </trkpt>
      <trkpt lat="45.85038" lon="6.44679">
        <ele>2407.6</ele>
        <time>2024-04-27T09:55:56Z</time>
      </trkpt>
      <trkpt lat="45.85038" lon="6.44679">
        <ele>2407.6</ele>
        <time>2024-04-27T09:55:57Z</time>
      </trkpt>
      <trkpt lat="45.85038" lon="6.44679">
        <ele>2408.7</ele>
        <time>2024-04-27T09:55:58Z</time>
      </trkpt>
      <trkpt lat="45.85038" lon="6.44679">
        <ele>2408.7</ele>
        <time>2024-04-27T09:55:59Z</time>
      </trkpt>
      <trkpt lat="45.85038" lon="6.44679">
        <ele>2408.7</ele>
        <time>2024-04-27T09:56:00Z</time>
      </trkpt>
      <trkpt lat="45.85038" lon="6.4468">
        <ele>2408.7</ele>
        <time>2024-04-27T09:56:01Z</time>
      </trkpt>
      <trkpt lat="45.85038" lon="6.4468">
        <ele>2408.7</ele>
        <time>2024-04-27T09:56:02Z</time>
      </trkpt>
      <trkpt lat="45.85038" lon="6.4468">
        <ele>2408.7</ele>
        <time>2024-04-27T09:56:03Z</time>
      </trkpt>
      <trkpt lat="45.85038" lon="6.4468">
        <ele>2408.7</ele>
        <time>2024-04-27T09:56:04Z</time>
      </trkpt>
      <trkpt lat="45.85038" lon="6.4468">
        <ele>2408.7</ele>
        <time>2024-04-27T09:56:05Z</time>
      </trkpt>
      <trkpt lat="45.85038" lon="6.4468">
        <ele>2408.7</ele>
        <time>2024-04-27T09:56:06Z</time>
      </trkpt>
      <trkpt lat="45.85038" lon="6.44681">
        <ele>2408.7</ele>
        <time>2024-04-27T09:56:07Z</time>
      </trkpt>
      <trkpt lat="45.85038" lon="6.44681">
        <ele>2408.7</ele>
        <time>2024-04-27T09:56:08Z</time>
      </trkpt>
      <trkpt lat="45.85038" lon="6.44681">
        <ele>2408.7</ele>
        <time>2024-04-27T09:56:09Z</time>
      </trkpt>
      <trkpt lat="45.85038" lon="6.44681">
        <ele>2408.7</ele>
        <time>2024-04-27T09:56:10Z</time>
      </trkpt>
      <trkpt lat="45.85039" lon="6.44681">
        <ele>2408.7</ele>
        <time>2024-04-27T09:56:11Z</time>
      </trkpt>
      <trkpt lat="45.85039" lon="6.44681">
        <ele>2408.7</ele>
        <time>2024-04-27T09:56:12Z</time>
      </trkpt>
      <trkpt lat="45.85039" lon="6.44681">
        <ele>2408.7</ele>
        <time>2024-04-27T09:56:13Z</time>
      </trkpt>
      <trkpt lat="45.85039" lon="6.44681">
        <ele>2408.7</ele>
        <time>2024-04-27T09:56:14Z</time>
      </trkpt>
      <trkpt lat="45.85039" lon="6.44681">
        <ele>2408.7</ele>
        <time>2024-04-27T09:56:15Z</time>
      </trkpt>
      <trkpt lat="45.85039" lon="6.44681">
        <ele>2408.7</ele>
        <time>2024-04-27T09:56:16Z</time>
      </trkpt>
      <trkpt lat="45.85039" lon="6.44681">
        <ele>2408.7</ele>
        <time>2024-04-27T09:56:17Z</time>
      </trkpt>
      <trkpt lat="45.85039" lon="6.44681">
        <ele>2408.7</ele>
        <time>2024-04-27T09:56:18Z</time>
      </trkpt>
      <trkpt lat="45.85039" lon="6.44681">
        <ele>2408.7</ele>
        <time>2024-04-27T09:56:19Z</time>
      </trkpt>
      <trkpt lat="45.85039" lon="6.44681">
        <ele>2408.7</ele>
        <time>2024-04-27T09:56:20Z</time>
      </trkpt>
      <trkpt lat="45.85039" lon="6.44681">
        <ele>2408.7</ele>
        <time>2024-04-27T09:56:21Z</time>
      </trkpt>
      <trkpt lat="45.85039" lon="6.44681">
        <ele>2407.6</ele>
        <time>2024-04-27T09:56:22Z</time>
      </trkpt>
      <trkpt lat="45.85039" lon="6.44681">
        <ele>2407.6</ele>
        <time>2024-04-27T09:56:23Z</time>
      </trkpt>
      <trkpt lat="45.85039" lon="6.44681">
        <ele>2407.6</ele>
        <time>2024-04-27T09:56:24Z</time>
      </trkpt>
      <trkpt lat="45.85039" lon="6.44681">
        <ele>2407.6</ele>
        <time>2024-04-27T09:56:25Z</time>
      </trkpt>
      <trkpt lat="45.85039" lon="6.44681">
        <ele>2407.6</ele>
        <time>2024-04-27T09:56:26Z</time>
      </trkpt>
      <trkpt lat="45.85039" lon="6.44681">
        <ele>2407.6</ele>
        <time>2024-04-27T09:56:27Z</time>
      </trkpt>
      <trkpt lat="45.85039" lon="6.44681">
        <ele>2407.6</ele>
        <time>2024-04-27T09:56:28Z</time>
      </trkpt>
      <trkpt lat="45.85039" lon="6.44681">
        <ele>2407.6</ele>
        <time>2024-04-27T09:56:29Z</time>
      </trkpt>
      <trkpt lat="45.85039" lon="6.44681">
        <ele>2407.6</ele>
        <time>2024-04-27T09:56:30Z</time>
      </trkpt>
      <trkpt lat="45.85039" lon="6.44681">
        <ele>2407.6</ele>
        <time>2024-04-27T09:56:31Z</time>
      </trkpt>
      <trkpt lat="45.85039" lon="6.44681">
        <ele>2407.6</ele>
        <time>2024-04-27T09:56:32Z</time>
      </trkpt>
      <trkpt lat="45.85039" lon="6.44681">
        <ele>2407.6</ele>
        <time>2024-04-27T09:56:33Z</time>
      </trkpt>
      <trkpt lat="45.85039" lon="6.44681">
        <ele>2407.6</ele>
        <time>2024-04-27T09:56:34Z</time>
      </trkpt>
      <trkpt lat="45.85039" lon="6.44681">
        <ele>2407.6</ele>
        <time>2024-04-27T09:56:35Z</time>
      </trkpt>
      <trkpt lat="45.85038" lon="6.44681">
        <ele>2407.6</ele>
        <time>2024-04-27T09:56:36Z</time>
      </trkpt>
      <trkpt lat="45.85038" lon="6.44681">
        <ele>2407.6</ele>
        <time>2024-04-27T09:56:37Z</time>
      </trkpt>
      <trkpt lat="45.85038" lon="6.44681">
        <ele>2408.7</ele>
        <time>2024-04-27T09:56:38Z</time>
      </trkpt>
      <trkpt lat="45.85038" lon="6.44681">
        <ele>2408.7</ele>
        <time>2024-04-27T09:56:39Z</time>
      </trkpt>
      <trkpt lat="45.85038" lon="6.44681">
        <ele>2408.7</ele>
        <time>2024-04-27T09:56:40Z</time>
      </trkpt>
      <trkpt lat="45.85038" lon="6.44681">
        <ele>2408.7</ele>
        <time>2024-04-27T09:56:41Z</time>
      </trkpt>
      <trkpt lat="45.85038" lon="6.44681">
        <ele>2409.6</ele>
        <time>2024-04-27T09:56:42Z</time>
      </trkpt>
      <trkpt lat="45.85038" lon="6.44681">
        <ele>2409.6</ele>
        <time>2024-04-27T09:56:43Z</time>
      </trkpt>
      <trkpt lat="45.85038" lon="6.44681">
        <ele>2409.6</ele>
        <time>2024-04-27T09:56:44Z</time>
      </trkpt>
      <trkpt lat="45.85038" lon="6.44681">
        <ele>2409.6</ele>
        <time>2024-04-27T09:56:45Z</time>
      </trkpt>
      <trkpt lat="45.85038" lon="6.44681">
        <ele>2408.7</ele>
        <time>2024-04-27T09:56:46Z</time>
      </trkpt>
      <trkpt lat="45.85037" lon="6.44681">
        <ele>2408.7</ele>
        <time>2024-04-27T09:56:47Z</time>
      </trkpt>
      <trkpt lat="45.85037" lon="6.44681">
        <ele>2408.7</ele>
        <time>2024-04-27T09:56:48Z</time>
      </trkpt>
      <trkpt lat="45.85037" lon="6.44681">
        <ele>2408.7</ele>
        <time>2024-04-27T09:56:49Z</time>
      </trkpt>
      <trkpt lat="45.85036" lon="6.44681">
        <ele>2409.6</ele>
        <time>2024-04-27T09:56:50Z</time>
      </trkpt>
      <trkpt lat="45.85036" lon="6.44681">
        <ele>2409.6</ele>
        <time>2024-04-27T09:56:51Z</time>
      </trkpt>
      <trkpt lat="45.85036" lon="6.44682">
        <ele>2409.6</ele>
        <time>2024-04-27T09:56:52Z</time>
      </trkpt>
      <trkpt lat="45.85036" lon="6.44682">
        <ele>2409.6</ele>
        <time>2024-04-27T09:56:53Z</time>
      </trkpt>
      <trkpt lat="45.85036" lon="6.44682">
        <ele>2409.6</ele>
        <time>2024-04-27T09:56:54Z</time>
      </trkpt>
      <trkpt lat="45.85036" lon="6.44682">
        <ele>2409.6</ele>
        <time>2024-04-27T09:56:55Z</time>
      </trkpt>
      <trkpt lat="45.85036" lon="6.44682">
        <ele>2409.6</ele>
        <time>2024-04-27T09:56:56Z</time>
      </trkpt>
      <trkpt lat="45.85036" lon="6.44682">
        <ele>2409.6</ele>
        <time>2024-04-27T09:56:57Z</time>
      </trkpt>
      <trkpt lat="45.85036" lon="6.44682">
        <ele>2409.6</ele>
        <time>2024-04-27T09:56:58Z</time>
      </trkpt>
      <trkpt lat="45.85036" lon="6.44682">
        <ele>2409.6</ele>
        <time>2024-04-27T09:56:59Z</time>
      </trkpt>
      <trkpt lat="45.85036" lon="6.44682">
        <ele>2410.7</ele>
        <time>2024-04-27T09:57:00Z</time>
      </trkpt>
      <trkpt lat="45.85036" lon="6.44682">
        <ele>2410.7</ele>
        <time>2024-04-27T09:57:01Z</time>
      </trkpt>
      <trkpt lat="45.85036" lon="6.44682">
        <ele>2410.7</ele>
        <time>2024-04-27T09:57:02Z</time>
      </trkpt>
      <trkpt lat="45.85036" lon="6.44682">
        <ele>2410.7</ele>
        <time>2024-04-27T09:57:03Z</time>
      </trkpt>
      <trkpt lat="45.85036" lon="6.44682">
        <ele>2410.7</ele>
        <time>2024-04-27T09:57:04Z</time>
      </trkpt>
      <trkpt lat="45.85036" lon="6.44683">
        <ele>2410.7</ele>
        <time>2024-04-27T09:57:05Z</time>
      </trkpt>
      <trkpt lat="45.85036" lon="6.44683">
        <ele>2410.7</ele>
        <time>2024-04-27T09:57:06Z</time>
      </trkpt>
      <trkpt lat="45.85036" lon="6.44683">
        <ele>2410.7</ele>
        <time>2024-04-27T09:57:07Z</time>
      </trkpt>
      <trkpt lat="45.85036" lon="6.44683">
        <ele>2409.6</ele>
        <time>2024-04-27T09:57:08Z</time>
      </trkpt>
      <trkpt lat="45.85036" lon="6.44683">
        <ele>2409.6</ele>
        <time>2024-04-27T09:57:09Z</time>
      </trkpt>
      <trkpt lat="45.85036" lon="6.44683">
        <ele>2409.6</ele>
        <time>2024-04-27T09:57:10Z</time>
      </trkpt>
      <trkpt lat="45.85036" lon="6.44683">
        <ele>2409.6</ele>
        <time>2024-04-27T09:57:11Z</time>
      </trkpt>
      <trkpt lat="45.85036" lon="6.44683">
        <ele>2409.6</ele>
        <time>2024-04-27T09:57:12Z</time>
      </trkpt>
      <trkpt lat="45.85036" lon="6.44683">
        <ele>2409.6</ele>
        <time>2024-04-27T09:57:13Z</time>
      </trkpt>
      <trkpt lat="45.85036" lon="6.44683">
        <ele>2408.7</ele>
        <time>2024-04-27T09:57:14Z</time>
      </trkpt>
      <trkpt lat="45.85036" lon="6.44683">
        <ele>2408.7</ele>
        <time>2024-04-27T09:57:15Z</time>
      </trkpt>
      <trkpt lat="45.85036" lon="6.44683">
        <ele>2408.7</ele>
        <time>2024-04-27T09:57:16Z</time>
      </trkpt>
      <trkpt lat="45.85036" lon="6.44683">
        <ele>2408.7</ele>
        <time>2024-04-27T09:57:17Z</time>
      </trkpt>
      <trkpt lat="45.85036" lon="6.44683">
        <ele>2408.7</ele>
        <time>2024-04-27T09:57:18Z</time>
      </trkpt>
      <trkpt lat="45.85036" lon="6.44683">
        <ele>2408.7</ele>
        <time>2024-04-27T09:57:19Z</time>
      </trkpt>
      <trkpt lat="45.85036" lon="6.44683">
        <ele>2408.7</ele>
        <time>2024-04-27T09:57:20Z</time>
      </trkpt>
      <trkpt lat="45.85036" lon="6.44683">
        <ele>2408.7</ele>
        <time>2024-04-27T09:57:21Z</time>
      </trkpt>
      <trkpt lat="45.85036" lon="6.44682">
        <ele>2408.7</ele>
        <time>2024-04-27T09:57:22Z</time>
      </trkpt>
      <trkpt lat="45.85036" lon="6.44682">
        <ele>2408.7</ele>
        <time>2024-04-27T09:57:23Z</time>
      </trkpt>
      <trkpt lat="45.85036" lon="6.44682">
        <ele>2408.7</ele>
        <time>2024-04-27T09:57:24Z</time>
      </trkpt>
      <trkpt lat="45.85037" lon="6.44681">
        <ele>2408.7</ele>
        <time>2024-04-27T09:57:25Z</time>
      </trkpt>
      <trkpt lat="45.85037" lon="6.44681">
        <ele>2407.6</ele>
        <time>2024-04-27T09:57:26Z</time>
      </trkpt>
      <trkpt lat="45.85037" lon="6.44681">
        <ele>2407.6</ele>
        <time>2024-04-27T09:57:27Z</time>
      </trkpt>
      <trkpt lat="45.85037" lon="6.44681">
        <ele>2407.6</ele>
        <time>2024-04-27T09:57:28Z</time>
      </trkpt>
      <trkpt lat="45.85037" lon="6.44681">
        <ele>2407.6</ele>
        <time>2024-04-27T09:57:29Z</time>
      </trkpt>
      <trkpt lat="45.85037" lon="6.44681">
        <ele>2407.6</ele>
        <time>2024-04-27T09:57:30Z</time>
      </trkpt>
      <trkpt lat="45.85037" lon="6.4468">
        <ele>2407.6</ele>
        <time>2024-04-27T09:57:31Z</time>
      </trkpt>
      <trkpt lat="45.85037" lon="6.4468">
        <ele>2407.6</ele>
        <time>2024-04-27T09:57:32Z</time>
      </trkpt>
      <trkpt lat="45.85037" lon="6.4468">
        <ele>2407.6</ele>
        <time>2024-04-27T09:57:33Z</time>
      </trkpt>
      <trkpt lat="45.85037" lon="6.4468">
        <ele>2407.6</ele>
        <time>2024-04-27T09:57:34Z</time>
      </trkpt>
      <trkpt lat="45.85037" lon="6.4468">
        <ele>2407.6</ele>
        <time>2024-04-27T09:57:35Z</time>
      </trkpt>
      <trkpt lat="45.85037" lon="6.4468">
        <ele>2407.6</ele>
        <time>2024-04-27T09:57:36Z</time>
      </trkpt>
      <trkpt lat="45.85037" lon="6.4468">
        <ele>2407.6</ele>
        <time>2024-04-27T09:57:37Z</time>
      </trkpt>
      <trkpt lat="45.85038" lon="6.4468">
        <ele>2407.6</ele>
        <time>2024-04-27T09:57:38Z</time>
      </trkpt>
      <trkpt lat="45.85038" lon="6.4468">
        <ele>2407.6</ele>
        <time>2024-04-27T09:57:39Z</time>
      </trkpt>
      <trkpt lat="45.85038" lon="6.4468">
        <ele>2407.6</ele>
        <time>2024-04-27T09:57:40Z</time>
      </trkpt>
      <trkpt lat="45.85038" lon="6.44679">
        <ele>2407.6</ele>
        <time>2024-04-27T09:57:41Z</time>
      </trkpt>
      <trkpt lat="45.85038" lon="6.44679">
        <ele>2407.6</ele>
        <time>2024-04-27T09:57:42Z</time>
      </trkpt>
      <trkpt lat="45.85038" lon="6.44679">
        <ele>2407.6</ele>
        <time>2024-04-27T09:57:43Z</time>
      </trkpt>
      <trkpt lat="45.85038" lon="6.44679">
        <ele>2407.6</ele>
        <time>2024-04-27T09:57:44Z</time>
      </trkpt>
      <trkpt lat="45.85038" lon="6.44679">
        <ele>2407.6</ele>
        <time>2024-04-27T09:57:45Z</time>
      </trkpt>
      <trkpt lat="45.85037" lon="6.44679">
        <ele>2406.6</ele>
        <time>2024-04-27T09:57:46Z</time>
      </trkpt>
      <trkpt lat="45.85037" lon="6.44679">
        <ele>2406.6</ele>
        <time>2024-04-27T09:57:47Z</time>
      </trkpt>
      <trkpt lat="45.85037" lon="6.44679">
        <ele>2406.6</ele>
        <time>2024-04-27T09:57:48Z</time>
      </trkpt>
      <trkpt lat="45.85037" lon="6.44679">
        <ele>2406.6</ele>
        <time>2024-04-27T09:57:49Z</time>
      </trkpt>
      <trkpt lat="45.85037" lon="6.44679">
        <ele>2406.6</ele>
        <time>2024-04-27T09:57:50Z</time>
      </trkpt>
      <trkpt lat="45.85037" lon="6.44679">
        <ele>2406.6</ele>
        <time>2024-04-27T09:57:51Z</time>
      </trkpt>
      <trkpt lat="45.85037" lon="6.44679">
        <ele>2406.6</ele>
        <time>2024-04-27T09:57:52Z</time>
      </trkpt>
      <trkpt lat="45.85037" lon="6.44679">
        <ele>2406.6</ele>
        <time>2024-04-27T09:57:53Z</time>
      </trkpt>
      <trkpt lat="45.85037" lon="6.44679">
        <ele>2406.6</ele>
        <time>2024-04-27T09:57:54Z</time>
      </trkpt>
      <trkpt lat="45.85037" lon="6.44679">
        <ele>2406.6</ele>
        <time>2024-04-27T09:57:55Z</time>
      </trkpt>
      <trkpt lat="45.85037" lon="6.44679">
        <ele>2405.7</ele>
        <time>2024-04-27T09:57:56Z</time>
      </trkpt>
      <trkpt lat="45.85037" lon="6.44679">
        <ele>2405.7</ele>
        <time>2024-04-27T09:57:57Z</time>
      </trkpt>
      <trkpt lat="45.85037" lon="6.44679">
        <ele>2405.7</ele>
        <time>2024-04-27T09:57:58Z</time>
      </trkpt>
      <trkpt lat="45.85037" lon="6.44679">
        <ele>2405.7</ele>
        <time>2024-04-27T09:57:59Z</time>
      </trkpt>
      <trkpt lat="45.85037" lon="6.44679">
        <ele>2405.7</ele>
        <time>2024-04-27T09:58:00Z</time>
      </trkpt>
      <trkpt lat="45.85037" lon="6.44679">
        <ele>2405.7</ele>
        <time>2024-04-27T09:58:01Z</time>
      </trkpt>
      <trkpt lat="45.85037" lon="6.44679">
        <ele>2405.7</ele>
        <time>2024-04-27T09:58:02Z</time>
      </trkpt>
      <trkpt lat="45.85037" lon="6.44679">
        <ele>2405.7</ele>
        <time>2024-04-27T09:58:03Z</time>
      </trkpt>
      <trkpt lat="45.85037" lon="6.44679">
        <ele>2405.7</ele>
        <time>2024-04-27T09:58:04Z</time>
      </trkpt>
      <trkpt lat="45.85037" lon="6.44679">
        <ele>2405.7</ele>
        <time>2024-04-27T09:58:05Z</time>
      </trkpt>
      <trkpt lat="45.85037" lon="6.44679">
        <ele>2405.7</ele>
        <time>2024-04-27T09:58:06Z</time>
      </trkpt>
      <trkpt lat="45.85037" lon="6.44679">
        <ele>2405.7</ele>
        <time>2024-04-27T09:58:07Z</time>
      </trkpt>
      <trkpt lat="45.85037" lon="6.44679">
        <ele>2405.7</ele>
        <time>2024-04-27T09:58:08Z</time>
      </trkpt>
      <trkpt lat="45.85037" lon="6.44678">
        <ele>2405.7</ele>
        <time>2024-04-27T09:58:09Z</time>
      </trkpt>
      <trkpt lat="45.85037" lon="6.44678">
        <ele>2405.7</ele>
        <time>2024-04-27T09:58:10Z</time>
      </trkpt>
      <trkpt lat="45.85037" lon="6.44678">
        <ele>2405.7</ele>
        <time>2024-04-27T09:58:11Z</time>
      </trkpt>
      <trkpt lat="45.85037" lon="6.44678">
        <ele>2405.7</ele>
        <time>2024-04-27T09:58:12Z</time>
      </trkpt>
      <trkpt lat="45.85037" lon="6.44678">
        <ele>2405.7</ele>
        <time>2024-04-27T09:58:13Z</time>
      </trkpt>
      <trkpt lat="45.85037" lon="6.44678">
        <ele>2405.7</ele>
        <time>2024-04-27T09:58:14Z</time>
      </trkpt>
      <trkpt lat="45.85037" lon="6.44678">
        <ele>2405.7</ele>
        <time>2024-04-27T09:58:15Z</time>
      </trkpt>
      <trkpt lat="45.85037" lon="6.44678">
        <ele>2405.7</ele>
        <time>2024-04-27T09:58:16Z</time>
      </trkpt>
      <trkpt lat="45.85037" lon="6.44678">
        <ele>2405.7</ele>
        <time>2024-04-27T09:58:17Z</time>
      </trkpt>
      <trkpt lat="45.85037" lon="6.44678">
        <ele>2405.7</ele>
        <time>2024-04-27T09:58:18Z</time>
      </trkpt>
      <trkpt lat="45.85037" lon="6.44678">
        <ele>2405.7</ele>
        <time>2024-04-27T09:58:19Z</time>
      </trkpt>
      <trkpt lat="45.85037" lon="6.44678">
        <ele>2405.7</ele>
        <time>2024-04-27T09:58:20Z</time>
      </trkpt>
      <trkpt lat="45.85037" lon="6.44678">
        <ele>2405.7</ele>
        <time>2024-04-27T09:58:21Z</time>
      </trkpt>
      <trkpt lat="45.85037" lon="6.44678">
        <ele>2405.7</ele>
        <time>2024-04-27T09:58:22Z</time>
      </trkpt>
      <trkpt lat="45.85037" lon="6.44678">
        <ele>2405.7</ele>
        <time>2024-04-27T09:58:23Z</time>
      </trkpt>
      <trkpt lat="45.85037" lon="6.44678">
        <ele>2405.7</ele>
        <time>2024-04-27T09:58:24Z</time>
      </trkpt>
      <trkpt lat="45.85037" lon="6.44678">
        <ele>2405.7</ele>
        <time>2024-04-27T09:58:25Z</time>
      </trkpt>
      <trkpt lat="45.85037" lon="6.44678">
        <ele>2406.6</ele>
        <time>2024-04-27T09:58:26Z</time>
      </trkpt>
      <trkpt lat="45.85038" lon="6.44678">
        <ele>2406.6</ele>
        <time>2024-04-27T09:58:27Z</time>
      </trkpt>
      <trkpt lat="45.85038" lon="6.44678">
        <ele>2406.6</ele>
        <time>2024-04-27T09:58:28Z</time>
      </trkpt>
      <trkpt lat="45.85038" lon="6.44678">
        <ele>2406.6</ele>
        <time>2024-04-27T09:58:29Z</time>
      </trkpt>
      <trkpt lat="45.85038" lon="6.44678">
        <ele>2406.6</ele>
        <time>2024-04-27T09:58:30Z</time>
      </trkpt>
      <trkpt lat="45.85038" lon="6.44678">
        <ele>2406.6</ele>
        <time>2024-04-27T09:58:31Z</time>
      </trkpt>
      <trkpt lat="45.85038" lon="6.44678">
        <ele>2407.6</ele>
        <time>2024-04-27T09:58:32Z</time>
      </trkpt>
      <trkpt lat="45.85038" lon="6.44678">
        <ele>2407.6</ele>
        <time>2024-04-27T09:58:33Z</time>
      </trkpt>
      <trkpt lat="45.85038" lon="6.44678">
        <ele>2407.6</ele>
        <time>2024-04-27T09:58:34Z</time>
      </trkpt>
      <trkpt lat="45.85038" lon="6.44678">
        <ele>2407.6</ele>
        <time>2024-04-27T09:58:35Z</time>
      </trkpt>
      <trkpt lat="45.85038" lon="6.44678">
        <ele>2407.6</ele>
        <time>2024-04-27T09:58:36Z</time>
      </trkpt>
      <trkpt lat="45.85038" lon="6.44678">
        <ele>2407.6</ele>
        <time>2024-04-27T09:58:37Z</time>
      </trkpt>
      <trkpt lat="45.85038" lon="6.44678">
        <ele>2407.6</ele>
        <time>2024-04-27T09:58:38Z</time>
      </trkpt>
      <trkpt lat="45.85038" lon="6.44678">
        <ele>2407.6</ele>
        <time>2024-04-27T09:58:39Z</time>
      </trkpt>
      <trkpt lat="45.85038" lon="6.44678">
        <ele>2407.6</ele>
        <time>2024-04-27T09:58:40Z</time>
      </trkpt>
      <trkpt lat="45.85038" lon="6.44678">
        <ele>2407.6</ele>
        <time>2024-04-27T09:58:41Z</time>
      </trkpt>
      <trkpt lat="45.85038" lon="6.44678">
        <ele>2407.6</ele>
        <time>2024-04-27T09:58:42Z</time>
      </trkpt>
      <trkpt lat="45.85038" lon="6.44678">
        <ele>2407.6</ele>
        <time>2024-04-27T09:58:43Z</time>
      </trkpt>
      <trkpt lat="45.85038" lon="6.44678">
        <ele>2407.6</ele>
        <time>2024-04-27T09:58:44Z</time>
      </trkpt>
      <trkpt lat="45.85038" lon="6.44678">
        <ele>2407.6</ele>
        <time>2024-04-27T09:58:45Z</time>
      </trkpt>
      <trkpt lat="45.85038" lon="6.44678">
        <ele>2410.7</ele>
        <time>2024-04-27T09:58:46Z</time>
      </trkpt>
      <trkpt lat="45.85038" lon="6.44678">
        <ele>2410.7</ele>
        <time>2024-04-27T09:58:47Z</time>
      </trkpt>
      <trkpt lat="45.85038" lon="6.44678">
        <ele>2410.7</ele>
        <time>2024-04-27T09:58:48Z</time>
      </trkpt>
      <trkpt lat="45.85038" lon="6.44678">
        <ele>2410.7</ele>
        <time>2024-04-27T09:58:49Z</time>
      </trkpt>
      <trkpt lat="45.85038" lon="6.44678">
        <ele>2410.7</ele>
        <time>2024-04-27T09:58:50Z</time>
      </trkpt>
      <trkpt lat="45.85038" lon="6.44678">
        <ele>2410.7</ele>
        <time>2024-04-27T09:58:51Z</time>
      </trkpt>
      <trkpt lat="45.85038" lon="6.44678">
        <ele>2410.7</ele>
        <time>2024-04-27T09:58:52Z</time>
      </trkpt>
      <trkpt lat="45.85038" lon="6.44678">
        <ele>2410.7</ele>
        <time>2024-04-27T09:58:53Z</time>
      </trkpt>
      <trkpt lat="45.85038" lon="6.44678">
        <ele>2410.7</ele>
        <time>2024-04-27T09:58:54Z</time>
      </trkpt>
      <trkpt lat="45.85038" lon="6.44678">
        <ele>2410.7</ele>
        <time>2024-04-27T09:58:55Z</time>
      </trkpt>
      <trkpt lat="45.85038" lon="6.44678">
        <ele>2410.7</ele>
        <time>2024-04-27T09:58:56Z</time>
      </trkpt>
      <trkpt lat="45.85038" lon="6.44678">
        <ele>2410.7</ele>
        <time>2024-04-27T09:58:57Z</time>
      </trkpt>
      <trkpt lat="45.85038" lon="6.44678">
        <ele>2410.7</ele>
        <time>2024-04-27T09:58:58Z</time>
      </trkpt>
      <trkpt lat="45.85038" lon="6.44678">
        <ele>2410.7</ele>
        <time>2024-04-27T09:58:59Z</time>
      </trkpt>
      <trkpt lat="45.85038" lon="6.44678">
        <ele>2410.7</ele>
        <time>2024-04-27T09:59:00Z</time>
      </trkpt>
      <trkpt lat="45.85038" lon="6.44678">
        <ele>2410.7</ele>
        <time>2024-04-27T09:59:01Z</time>
      </trkpt>
      <trkpt lat="45.85038" lon="6.44678">
        <ele>2410.7</ele>
        <time>2024-04-27T09:59:02Z</time>
      </trkpt>
      <trkpt lat="45.85038" lon="6.44678">
        <ele>2410.7</ele>
        <time>2024-04-27T09:59:03Z</time>
      </trkpt>
      <trkpt lat="45.85038" lon="6.44678">
        <ele>2410.7</ele>
        <time>2024-04-27T09:59:04Z</time>
      </trkpt>
      <trkpt lat="45.85038" lon="6.44678">
        <ele>2410.7</ele>
        <time>2024-04-27T09:59:05Z</time>
      </trkpt>
      <trkpt lat="45.85038" lon="6.44678">
        <ele>2409.6</ele>
        <time>2024-04-27T09:59:06Z</time>
      </trkpt>
      <trkpt lat="45.85038" lon="6.44678">
        <ele>2409.6</ele>
        <time>2024-04-27T09:59:07Z</time>
      </trkpt>
      <trkpt lat="45.85038" lon="6.44678">
        <ele>2409.6</ele>
        <time>2024-04-27T09:59:08Z</time>
      </trkpt>
      <trkpt lat="45.85038" lon="6.44678">
        <ele>2409.6</ele>
        <time>2024-04-27T09:59:09Z</time>
      </trkpt>
      <trkpt lat="45.85038" lon="6.44678">
        <ele>2409.6</ele>
        <time>2024-04-27T09:59:10Z</time>
      </trkpt>
      <trkpt lat="45.85038" lon="6.44678">
        <ele>2409.6</ele>
        <time>2024-04-27T09:59:11Z</time>
      </trkpt>
      <trkpt lat="45.85038" lon="6.44678">
        <ele>2409.6</ele>
        <time>2024-04-27T09:59:12Z</time>
      </trkpt>
      <trkpt lat="45.85038" lon="6.44678">
        <ele>2409.6</ele>
        <time>2024-04-27T09:59:13Z</time>
      </trkpt>
      <trkpt lat="45.85038" lon="6.44678">
        <ele>2409.6</ele>
        <time>2024-04-27T09:59:14Z</time>
      </trkpt>
      <trkpt lat="45.85038" lon="6.44678">
        <ele>2409.6</ele>
        <time>2024-04-27T09:59:15Z</time>
      </trkpt>
      <trkpt lat="45.85038" lon="6.44678">
        <ele>2409.6</ele>
        <time>2024-04-27T09:59:16Z</time>
      </trkpt>
      <trkpt lat="45.85038" lon="6.44678">
        <ele>2409.6</ele>
        <time>2024-04-27T09:59:17Z</time>
      </trkpt>
      <trkpt lat="45.85038" lon="6.44678">
        <ele>2409.6</ele>
        <time>2024-04-27T09:59:18Z</time>
      </trkpt>
      <trkpt lat="45.85038" lon="6.44678">
        <ele>2409.6</ele>
        <time>2024-04-27T09:59:19Z</time>
      </trkpt>
      <trkpt lat="45.85038" lon="6.44678">
        <ele>2409.6</ele>
        <time>2024-04-27T09:59:20Z</time>
      </trkpt>
      <trkpt lat="45.85038" lon="6.44678">
        <ele>2409.6</ele>
        <time>2024-04-27T09:59:21Z</time>
      </trkpt>
      <trkpt lat="45.85038" lon="6.44678">
        <ele>2409.6</ele>
        <time>2024-04-27T09:59:22Z</time>
      </trkpt>
      <trkpt lat="45.85038" lon="6.44678">
        <ele>2409.6</ele>
        <time>2024-04-27T09:59:23Z</time>
      </trkpt>
      <trkpt lat="45.85038" lon="6.44678">
        <ele>2409.6</ele>
        <time>2024-04-27T09:59:24Z</time>
      </trkpt>
      <trkpt lat="45.85038" lon="6.44678">
        <ele>2409.6</ele>
        <time>2024-04-27T09:59:25Z</time>
      </trkpt>
      <trkpt lat="45.85038" lon="6.44678">
        <ele>2409.6</ele>
        <time>2024-04-27T09:59:26Z</time>
      </trkpt>
      <trkpt lat="45.85038" lon="6.44678">
        <ele>2409.6</ele>
        <time>2024-04-27T09:59:27Z</time>
      </trkpt>
      <trkpt lat="45.85038" lon="6.44678">
        <ele>2408.7</ele>
        <time>2024-04-27T09:59:28Z</time>
      </trkpt>
      <trkpt lat="45.85038" lon="6.44678">
        <ele>2408.7</ele>
        <time>2024-04-27T09:59:29Z</time>
      </trkpt>
      <trkpt lat="45.85038" lon="6.44679">
        <ele>2408.7</ele>
        <time>2024-04-27T09:59:30Z</time>
      </trkpt>
      <trkpt lat="45.85038" lon="6.44679">
        <ele>2408.7</ele>
        <time>2024-04-27T09:59:31Z</time>
      </trkpt>
      <trkpt lat="45.85038" lon="6.44679">
        <ele>2408.7</ele>
        <time>2024-04-27T09:59:32Z</time>
      </trkpt>
      <trkpt lat="45.85038" lon="6.44679">
        <ele>2408.7</ele>
        <time>2024-04-27T09:59:33Z</time>
      </trkpt>
      <trkpt lat="45.85038" lon="6.44679">
        <ele>2409.6</ele>
        <time>2024-04-27T09:59:34Z</time>
      </trkpt>
      <trkpt lat="45.85038" lon="6.44679">
        <ele>2409.6</ele>
        <time>2024-04-27T09:59:35Z</time>
      </trkpt>
      <trkpt lat="45.85038" lon="6.44679">
        <ele>2409.6</ele>
        <time>2024-04-27T09:59:36Z</time>
      </trkpt>
      <trkpt lat="45.85038" lon="6.44679">
        <ele>2409.6</ele>
        <time>2024-04-27T09:59:37Z</time>
      </trkpt>
      <trkpt lat="45.85038" lon="6.44679">
        <ele>2409.6</ele>
        <time>2024-04-27T09:59:38Z</time>
      </trkpt>
      <trkpt lat="45.85038" lon="6.44679">
        <ele>2409.6</ele>
        <time>2024-04-27T09:59:39Z</time>
      </trkpt>
      <trkpt lat="45.85038" lon="6.44679">
        <ele>2409.6</ele>
        <time>2024-04-27T09:59:40Z</time>
      </trkpt>
      <trkpt lat="45.85038" lon="6.44679">
        <ele>2409.6</ele>
        <time>2024-04-27T09:59:41Z</time>
      </trkpt>
      <trkpt lat="45.85038" lon="6.44679">
        <ele>2409.6</ele>
        <time>2024-04-27T09:59:42Z</time>
      </trkpt>
      <trkpt lat="45.85038" lon="6.44679">
        <ele>2409.6</ele>
        <time>2024-04-27T09:59:43Z</time>
      </trkpt>
      <trkpt lat="45.85038" lon="6.44679">
        <ele>2409.6</ele>
        <time>2024-04-27T09:59:44Z</time>
      </trkpt>
      <trkpt lat="45.85038" lon="6.44679">
        <ele>2409.6</ele>
        <time>2024-04-27T09:59:45Z</time>
      </trkpt>
      <trkpt lat="45.85038" lon="6.44679">
        <ele>2409.6</ele>
        <time>2024-04-27T09:59:46Z</time>
      </trkpt>
      <trkpt lat="45.85038" lon="6.44679">
        <ele>2409.6</ele>
        <time>2024-04-27T09:59:47Z</time>
      </trkpt>
      <trkpt lat="45.85038" lon="6.44679">
        <ele>2409.6</ele>
        <time>2024-04-27T09:59:48Z</time>
      </trkpt>
      <trkpt lat="45.85038" lon="6.44679">
        <ele>2409.6</ele>
        <time>2024-04-27T09:59:49Z</time>
      </trkpt>
      <trkpt lat="45.85038" lon="6.44679">
        <ele>2409.6</ele>
        <time>2024-04-27T09:59:50Z</time>
      </trkpt>
      <trkpt lat="45.85038" lon="6.44679">
        <ele>2409.6</ele>
        <time>2024-04-27T09:59:51Z</time>
      </trkpt>
      <trkpt lat="45.85038" lon="6.44679">
        <ele>2409.6</ele>
        <time>2024-04-27T09:59:52Z</time>
      </trkpt>
      <trkpt lat="45.85038" lon="6.44679">
        <ele>2409.6</ele>
        <time>2024-04-27T09:59:53Z</time>
      </trkpt>
      <trkpt lat="45.85038" lon="6.44679">
        <ele>2409.6</ele>
        <time>2024-04-27T09:59:54Z</time>
      </trkpt>
      <trkpt lat="45.85038" lon="6.44679">
        <ele>2409.6</ele>
        <time>2024-04-27T09:59:55Z</time>
      </trkpt>
      <trkpt lat="45.85038" lon="6.44679">
        <ele>2409.6</ele>
        <time>2024-04-27T09:59:56Z</time>
      </trkpt>
      <trkpt lat="45.85038" lon="6.44679">
        <ele>2409.6</ele>
        <time>2024-04-27T09:59:57Z</time>
      </trkpt>
      <trkpt lat="45.85038" lon="6.44679">
        <ele>2409.6</ele>
        <time>2024-04-27T09:59:58Z</time>
      </trkpt>
      <trkpt lat="45.85038" lon="6.44679">
        <ele>2409.6</ele>
        <time>2024-04-27T09:59:59Z</time>
      </trkpt>
      <trkpt lat="45.85038" lon="6.44679">
        <ele>2407.6</ele>
        <time>2024-04-27T10:00:00Z</time>
      </trkpt>
      <trkpt lat="45.85038" lon="6.44679">
        <ele>2407.6</ele>
        <time>2024-04-27T10:00:01Z</time>
      </trkpt>
      <trkpt lat="45.85038" lon="6.44679">
        <ele>2407.6</ele>
        <time>2024-04-27T10:00:02Z</time>
      </trkpt>
      <trkpt lat="45.85038" lon="6.44679">
        <ele>2407.6</ele>
        <time>2024-04-27T10:00:03Z</time>
      </trkpt>
      <trkpt lat="45.85038" lon="6.44679">
        <ele>2407.6</ele>
        <time>2024-04-27T10:00:04Z</time>
      </trkpt>
      <trkpt lat="45.85038" lon="6.44679">
        <ele>2407.6</ele>
        <time>2024-04-27T10:00:05Z</time>
      </trkpt>
      <trkpt lat="45.85038" lon="6.44679">
        <ele>2407.6</ele>
        <time>2024-04-27T10:00:06Z</time>
      </trkpt>
      <trkpt lat="45.85038" lon="6.44679">
        <ele>2407.6</ele>
        <time>2024-04-27T10:00:07Z</time>
      </trkpt>
      <trkpt lat="45.85038" lon="6.44679">
        <ele>2407.6</ele>
        <time>2024-04-27T10:00:08Z</time>
      </trkpt>
      <trkpt lat="45.85038" lon="6.44679">
        <ele>2407.6</ele>
        <time>2024-04-27T10:00:09Z</time>
      </trkpt>
      <trkpt lat="45.85038" lon="6.44679">
        <ele>2407.6</ele>
        <time>2024-04-27T10:00:10Z</time>
      </trkpt>
      <trkpt lat="45.85038" lon="6.44679">
        <ele>2407.6</ele>
        <time>2024-04-27T10:00:11Z</time>
      </trkpt>
      <trkpt lat="45.85038" lon="6.44679">
        <ele>2407.6</ele>
        <time>2024-04-27T10:00:12Z</time>
      </trkpt>
      <trkpt lat="45.85038" lon="6.44679">
        <ele>2407.6</ele>
        <time>2024-04-27T10:00:13Z</time>
      </trkpt>
      <trkpt lat="45.85038" lon="6.44679">
        <ele>2407.6</ele>
        <time>2024-04-27T10:00:14Z</time>
      </trkpt>
      <trkpt lat="45.85038" lon="6.44679">
        <ele>2407.6</ele>
        <time>2024-04-27T10:00:15Z</time>
      </trkpt>
      <trkpt lat="45.85038" lon="6.44679">
        <ele>2407.6</ele>
        <time>2024-04-27T10:00:16Z</time>
      </trkpt>
      <trkpt lat="45.85038" lon="6.44679">
        <ele>2407.6</ele>
        <time>2024-04-27T10:00:17Z</time>
      </trkpt>
      <trkpt lat="45.85038" lon="6.44679">
        <ele>2408.7</ele>
        <time>2024-04-27T10:00:18Z</time>
      </trkpt>
      <trkpt lat="45.85038" lon="6.44679">
        <ele>2408.7</ele>
        <time>2024-04-27T10:00:19Z</time>
      </trkpt>
      <trkpt lat="45.85038" lon="6.44679">
        <ele>2408.7</ele>
        <time>2024-04-27T10:00:20Z</time>
      </trkpt>
      <trkpt lat="45.85038" lon="6.44679">
        <ele>2408.7</ele>
        <time>2024-04-27T10:00:21Z</time>
      </trkpt>
      <trkpt lat="45.85038" lon="6.44679">
        <ele>2408.7</ele>
        <time>2024-04-27T10:00:22Z</time>
      </trkpt>
      <trkpt lat="45.85038" lon="6.44679">
        <ele>2408.7</ele>
        <time>2024-04-27T10:00:23Z</time>
      </trkpt>
      <trkpt lat="45.85038" lon="6.44679">
        <ele>2408.7</ele>
        <time>2024-04-27T10:00:24Z</time>
      </trkpt>
      <trkpt lat="45.85038" lon="6.44679">
        <ele>2408.7</ele>
        <time>2024-04-27T10:00:25Z</time>
      </trkpt>
      <trkpt lat="45.85038" lon="6.44679">
        <ele>2408.7</ele>
        <time>2024-04-27T10:00:26Z</time>
      </trkpt>
      <trkpt lat="45.85038" lon="6.44679">
        <ele>2408.7</ele>
        <time>2024-04-27T10:00:27Z</time>
      </trkpt>
      <trkpt lat="45.85038" lon="6.44679">
        <ele>2409.6</ele>
        <time>2024-04-27T10:00:28Z</time>
      </trkpt>
      <trkpt lat="45.85038" lon="6.44679">
        <ele>2409.6</ele>
        <time>2024-04-27T10:00:29Z</time>
      </trkpt>
      <trkpt lat="45.85038" lon="6.44679">
        <ele>2409.6</ele>
        <time>2024-04-27T10:00:30Z</time>
      </trkpt>
      <trkpt lat="45.85038" lon="6.44679">
        <ele>2409.6</ele>
        <time>2024-04-27T10:00:31Z</time>
      </trkpt>
      <trkpt lat="45.85038" lon="6.44679">
        <ele>2409.6</ele>
        <time>2024-04-27T10:00:32Z</time>
      </trkpt>
      <trkpt lat="45.85038" lon="6.44679">
        <ele>2409.6</ele>
        <time>2024-04-27T10:00:33Z</time>
      </trkpt>
      <trkpt lat="45.85038" lon="6.44679">
        <ele>2409.6</ele>
        <time>2024-04-27T10:00:34Z</time>
      </trkpt>
      <trkpt lat="45.85038" lon="6.44679">
        <ele>2409.6</ele>
        <time>2024-04-27T10:00:35Z</time>
      </trkpt>
      <trkpt lat="45.85038" lon="6.44679">
        <ele>2409.6</ele>
        <time>2024-04-27T10:00:36Z</time>
      </trkpt>
      <trkpt lat="45.85038" lon="6.44679">
        <ele>2409.6</ele>
        <time>2024-04-27T10:00:37Z</time>
      </trkpt>
      <trkpt lat="45.85038" lon="6.44679">
        <ele>2409.6</ele>
        <time>2024-04-27T10:00:38Z</time>
      </trkpt>
      <trkpt lat="45.85038" lon="6.44679">
        <ele>2409.6</ele>
        <time>2024-04-27T10:00:39Z</time>
      </trkpt>
      <trkpt lat="45.85038" lon="6.44679">
        <ele>2409.6</ele>
        <time>2024-04-27T10:00:40Z</time>
      </trkpt>
      <trkpt lat="45.85038" lon="6.44679">
        <ele>2409.6</ele>
        <time>2024-04-27T10:00:41Z</time>
      </trkpt>
      <trkpt lat="45.85038" lon="6.44679">
        <ele>2409.6</ele>
        <time>2024-04-27T10:00:42Z</time>
      </trkpt>
      <trkpt lat="45.85038" lon="6.44679">
        <ele>2409.6</ele>
        <time>2024-04-27T10:00:43Z</time>
      </trkpt>
      <trkpt lat="45.85038" lon="6.44679">
        <ele>2409.6</ele>
        <time>2024-04-27T10:00:44Z</time>
      </trkpt>
      <trkpt lat="45.85038" lon="6.44679">
        <ele>2409.6</ele>
        <time>2024-04-27T10:00:45Z</time>
      </trkpt>
      <trkpt lat="45.85038" lon="6.44679">
        <ele>2409.6</ele>
        <time>2024-04-27T10:00:46Z</time>
      </trkpt>
      <trkpt lat="45.85038" lon="6.44679">
        <ele>2409.6</ele>
        <time>2024-04-27T10:00:47Z</time>
      </trkpt>
      <trkpt lat="45.85038" lon="6.44679">
        <ele>2409.6</ele>
        <time>2024-04-27T10:00:48Z</time>
      </trkpt>
      <trkpt lat="45.85038" lon="6.44679">
        <ele>2409.6</ele>
        <time>2024-04-27T10:00:49Z</time>
      </trkpt>
      <trkpt lat="45.85038" lon="6.44679">
        <ele>2409.6</ele>
        <time>2024-04-27T10:00:50Z</time>
      </trkpt>
      <trkpt lat="45.85038" lon="6.44679">
        <ele>2409.6</ele>
        <time>2024-04-27T10:00:51Z</time>
      </trkpt>
      <trkpt lat="45.85038" lon="6.44679">
        <ele>2409.6</ele>
        <time>2024-04-27T10:00:52Z</time>
      </trkpt>
      <trkpt lat="45.85038" lon="6.44679">
        <ele>2409.6</ele>
        <time>2024-04-27T10:00:53Z</time>
      </trkpt>
      <trkpt lat="45.85038" lon="6.44679">
        <ele>2409.6</ele>
        <time>2024-04-27T10:00:54Z</time>
      </trkpt>
      <trkpt lat="45.85038" lon="6.44679">
        <ele>2409.6</ele>
        <time>2024-04-27T10:00:55Z</time>
      </trkpt>
      <trkpt lat="45.85038" lon="6.44679">
        <ele>2409.6</ele>
        <time>2024-04-27T10:00:56Z</time>
      </trkpt>
      <trkpt lat="45.85038" lon="6.44679">
        <ele>2409.6</ele>
        <time>2024-04-27T10:00:57Z</time>
      </trkpt>
      <trkpt lat="45.85038" lon="6.44679">
        <ele>2408.7</ele>
        <time>2024-04-27T10:00:58Z</time>
      </trkpt>
      <trkpt lat="45.85038" lon="6.44679">
        <ele>2408.7</ele>
        <time>2024-04-27T10:00:59Z</time>
      </trkpt>
      <trkpt lat="45.85038" lon="6.44679">
        <ele>2408.7</ele>
        <time>2024-04-27T10:01:00Z</time>
      </trkpt>
      <trkpt lat="45.85038" lon="6.44679">
        <ele>2408.7</ele>
        <time>2024-04-27T10:01:01Z</time>
      </trkpt>
      <trkpt lat="45.85038" lon="6.44679">
        <ele>2408.7</ele>
        <time>2024-04-27T10:01:02Z</time>
      </trkpt>
      <trkpt lat="45.85038" lon="6.44679">
        <ele>2408.7</ele>
        <time>2024-04-27T10:01:03Z</time>
      </trkpt>
      <trkpt lat="45.85038" lon="6.44679">
        <ele>2408.7</ele>
        <time>2024-04-27T10:01:04Z</time>
      </trkpt>
      <trkpt lat="45.85038" lon="6.44679">
        <ele>2408.7</ele>
        <time>2024-04-27T10:01:05Z</time>
      </trkpt>
      <trkpt lat="45.85038" lon="6.44679">
        <ele>2408.7</ele>
        <time>2024-04-27T10:01:06Z</time>
      </trkpt>
      <trkpt lat="45.85038" lon="6.44679">
        <ele>2408.7</ele>
        <time>2024-04-27T10:01:07Z</time>
      </trkpt>
      <trkpt lat="45.85038" lon="6.44679">
        <ele>2408.7</ele>
        <time>2024-04-27T10:01:08Z</time>
      </trkpt>
      <trkpt lat="45.85038" lon="6.44679">
        <ele>2408.7</ele>
        <time>2024-04-27T10:01:09Z</time>
      </trkpt>
      <trkpt lat="45.85038" lon="6.44679">
        <ele>2408.7</ele>
        <time>2024-04-27T10:01:10Z</time>
      </trkpt>
      <trkpt lat="45.85038" lon="6.44679">
        <ele>2408.7</ele>
        <time>2024-04-27T10:01:11Z</time>
      </trkpt>
      <trkpt lat="45.85038" lon="6.44679">
        <ele>2408.7</ele>
        <time>2024-04-27T10:01:12Z</time>
      </trkpt>
      <trkpt lat="45.85038" lon="6.44679">
        <ele>2408.7</ele>
        <time>2024-04-27T10:01:13Z</time>
      </trkpt>
      <trkpt lat="45.85038" lon="6.44679">
        <ele>2408.7</ele>
        <time>2024-04-27T10:01:14Z</time>
      </trkpt>
      <trkpt lat="45.85038" lon="6.44679">
        <ele>2408.7</ele>
        <time>2024-04-27T10:01:15Z</time>
      </trkpt>
      <trkpt lat="45.85038" lon="6.44679">
        <ele>2408.7</ele>
        <time>2024-04-27T10:01:16Z</time>
      </trkpt>
      <trkpt lat="45.85038" lon="6.44679">
        <ele>2408.7</ele>
        <time>2024-04-27T10:01:17Z</time>
      </trkpt>
      <trkpt lat="45.85038" lon="6.44679">
        <ele>2408.7</ele>
        <time>2024-04-27T10:01:18Z</time>
      </trkpt>
      <trkpt lat="45.85038" lon="6.44679">
        <ele>2408.7</ele>
        <time>2024-04-27T10:01:19Z</time>
      </trkpt>
      <trkpt lat="45.85038" lon="6.44679">
        <ele>2408.7</ele>
        <time>2024-04-27T10:01:20Z</time>
      </trkpt>
      <trkpt lat="45.85038" lon="6.44679">
        <ele>2408.7</ele>
        <time>2024-04-27T10:01:21Z</time>
      </trkpt>
      <trkpt lat="45.85038" lon="6.44679">
        <ele>2408.7</ele>
        <time>2024-04-27T10:01:22Z</time>
      </trkpt>
      <trkpt lat="45.85038" lon="6.44679">
        <ele>2408.7</ele>
        <time>2024-04-27T10:01:23Z</time>
      </trkpt>
      <trkpt lat="45.85038" lon="6.44679">
        <ele>2408.7</ele>
        <time>2024-04-27T10:01:24Z</time>
      </trkpt>
      <trkpt lat="45.85038" lon="6.44679">
        <ele>2408.7</ele>
        <time>2024-04-27T10:01:25Z</time>
      </trkpt>
      <trkpt lat="45.85038" lon="6.44679">
        <ele>2408.7</ele>
        <time>2024-04-27T10:01:26Z</time>
      </trkpt>
      <trkpt lat="45.85038" lon="6.44679">
        <ele>2408.7</ele>
        <time>2024-04-27T10:01:27Z</time>
      </trkpt>
      <trkpt lat="45.85038" lon="6.44679">
        <ele>2409.6</ele>
        <time>2024-04-27T10:01:28Z</time>
      </trkpt>
      <trkpt lat="45.85038" lon="6.44679">
        <ele>2409.6</ele>
        <time>2024-04-27T10:01:29Z</time>
      </trkpt>
      <trkpt lat="45.85038" lon="6.44679">
        <ele>2409.6</ele>
        <time>2024-04-27T10:01:30Z</time>
      </trkpt>
      <trkpt lat="45.85038" lon="6.44679">
        <ele>2409.6</ele>
        <time>2024-04-27T10:01:31Z</time>
      </trkpt>
      <trkpt lat="45.85038" lon="6.44679">
        <ele>2409.6</ele>
        <time>2024-04-27T10:01:32Z</time>
      </trkpt>
      <trkpt lat="45.85038" lon="6.44679">
        <ele>2409.6</ele>
        <time>2024-04-27T10:01:33Z</time>
      </trkpt>
      <trkpt lat="45.85038" lon="6.44679">
        <ele>2409.6</ele>
        <time>2024-04-27T10:01:34Z</time>
      </trkpt>
      <trkpt lat="45.85038" lon="6.44679">
        <ele>2409.6</ele>
        <time>2024-04-27T10:01:35Z</time>
      </trkpt>
      <trkpt lat="45.85038" lon="6.44679">
        <ele>2409.6</ele>
        <time>2024-04-27T10:01:36Z</time>
      </trkpt>
      <trkpt lat="45.85038" lon="6.44679">
        <ele>2409.6</ele>
        <time>2024-04-27T10:01:37Z</time>
      </trkpt>
      <trkpt lat="45.85038" lon="6.44679">
        <ele>2409.6</ele>
        <time>2024-04-27T10:01:38Z</time>
      </trkpt>
      <trkpt lat="45.85038" lon="6.44679">
        <ele>2409.6</ele>
        <time>2024-04-27T10:01:39Z</time>
      </trkpt>
      <trkpt lat="45.85038" lon="6.44679">
        <ele>2409.6</ele>
        <time>2024-04-27T10:01:40Z</time>
      </trkpt>
      <trkpt lat="45.85038" lon="6.44679">
        <ele>2409.6</ele>
        <time>2024-04-27T10:01:41Z</time>
      </trkpt>
      <trkpt lat="45.85038" lon="6.44679">
        <ele>2409.6</ele>
        <time>2024-04-27T10:01:42Z</time>
      </trkpt>
      <trkpt lat="45.85038" lon="6.44679">
        <ele>2409.6</ele>
        <time>2024-04-27T10:01:43Z</time>
      </trkpt>
      <trkpt lat="45.85038" lon="6.44679">
        <ele>2409.6</ele>
        <time>2024-04-27T10:01:44Z</time>
      </trkpt>
      <trkpt lat="45.85038" lon="6.44679">
        <ele>2409.6</ele>
        <time>2024-04-27T10:01:45Z</time>
      </trkpt>
      <trkpt lat="45.85038" lon="6.44679">
        <ele>2409.6</ele>
        <time>2024-04-27T10:01:46Z</time>
      </trkpt>
      <trkpt lat="45.85038" lon="6.44679">
        <ele>2409.6</ele>
        <time>2024-04-27T10:01:47Z</time>
      </trkpt>
      <trkpt lat="45.85038" lon="6.44679">
        <ele>2408.7</ele>
        <time>2024-04-27T10:01:48Z</time>
      </trkpt>
      <trkpt lat="45.85038" lon="6.44679">
        <ele>2408.7</ele>
        <time>2024-04-27T10:01:49Z</time>
      </trkpt>
      <trkpt lat="45.85038" lon="6.44679">
        <ele>2408.7</ele>
        <time>2024-04-27T10:01:50Z</time>
      </trkpt>
      <trkpt lat="45.85038" lon="6.44679">
        <ele>2408.7</ele>
        <time>2024-04-27T10:01:51Z</time>
      </trkpt>
      <trkpt lat="45.85038" lon="6.44679">
        <ele>2408.7</ele>
        <time>2024-04-27T10:01:52Z</time>
      </trkpt>
      <trkpt lat="45.85038" lon="6.44679">
        <ele>2408.7</ele>
        <time>2024-04-27T10:01:53Z</time>
      </trkpt>
      <trkpt lat="45.85038" lon="6.44679">
        <ele>2408.7</ele>
        <time>2024-04-27T10:01:54Z</time>
      </trkpt>
      <trkpt lat="45.85038" lon="6.44679">
        <ele>2408.7</ele>
        <time>2024-04-27T10:01:55Z</time>
      </trkpt>
      <trkpt lat="45.85038" lon="6.44679">
        <ele>2407.6</ele>
        <time>2024-04-27T10:01:56Z</time>
      </trkpt>
      <trkpt lat="45.85038" lon="6.44679">
        <ele>2407.6</ele>
        <time>2024-04-27T10:01:57Z</time>
      </trkpt>
      <trkpt lat="45.85038" lon="6.44679">
        <ele>2407.6</ele>
        <time>2024-04-27T10:01:58Z</time>
      </trkpt>
      <trkpt lat="45.85037" lon="6.44678">
        <ele>2407.6</ele>
        <time>2024-04-27T10:01:59Z</time>
      </trkpt>
      <trkpt lat="45.85038" lon="6.44677">
        <ele>2407.6</ele>
        <time>2024-04-27T10:02:00Z</time>
      </trkpt>
      <trkpt lat="45.85038" lon="6.44676">
        <ele>2407.6</ele>
        <time>2024-04-27T10:02:01Z</time>
      </trkpt>
      <trkpt lat="45.85037" lon="6.44674">
        <ele>2403.7</ele>
        <time>2024-04-27T10:02:02Z</time>
      </trkpt>
      <trkpt lat="45.85037" lon="6.44673">
        <ele>2403.7</ele>
        <time>2024-04-27T10:02:03Z</time>
      </trkpt>
      <trkpt lat="45.85037" lon="6.44672">
        <ele>2403.7</ele>
        <time>2024-04-27T10:02:04Z</time>
      </trkpt>
      <trkpt lat="45.85036" lon="6.44671">
        <ele>2403.7</ele>
        <time>2024-04-27T10:02:05Z</time>
      </trkpt>
      <trkpt lat="45.85035" lon="6.44671">
        <ele>2403.7</ele>
        <time>2024-04-27T10:02:06Z</time>
      </trkpt>
      <trkpt lat="45.85035" lon="6.4467">
        <ele>2403.7</ele>
        <time>2024-04-27T10:02:07Z</time>
      </trkpt>
      <trkpt lat="45.85034" lon="6.44669">
        <ele>2400.6</ele>
        <time>2024-04-27T10:02:08Z</time>
      </trkpt>
      <trkpt lat="45.85034" lon="6.44669">
        <ele>2400.6</ele>
        <time>2024-04-27T10:02:09Z</time>
      </trkpt>
      <trkpt lat="45.85033" lon="6.44668">
        <ele>2400.6</ele>
        <time>2024-04-27T10:02:10Z</time>
      </trkpt>
      <trkpt lat="45.85033" lon="6.44667">
        <ele>2400.6</ele>
        <time>2024-04-27T10:02:11Z</time>
      </trkpt>
      <trkpt lat="45.85033" lon="6.44666">
        <ele>2398.7</ele>
        <time>2024-04-27T10:02:12Z</time>
      </trkpt>
      <trkpt lat="45.85034" lon="6.44663">
        <ele>2398.7</ele>
        <time>2024-04-27T10:02:13Z</time>
      </trkpt>
      <trkpt lat="45.85035" lon="6.44662">
        <ele>2396.7</ele>
        <time>2024-04-27T10:02:14Z</time>
      </trkpt>
      <trkpt lat="45.85037" lon="6.4466">
        <ele>2396.7</ele>
        <time>2024-04-27T10:02:15Z</time>
      </trkpt>
      <trkpt lat="45.85037" lon="6.44658">
        <ele>2396.7</ele>
        <time>2024-04-27T10:02:16Z</time>
      </trkpt>
      <trkpt lat="45.85038" lon="6.44656">
        <ele>2396.7</ele>
        <time>2024-04-27T10:02:17Z</time>
      </trkpt>
      <trkpt lat="45.85038" lon="6.44655">
        <ele>2394.7</ele>
        <time>2024-04-27T10:02:18Z</time>
      </trkpt>
      <trkpt lat="45.85036" lon="6.44654">
        <ele>2394.7</ele>
        <time>2024-04-27T10:02:19Z</time>
      </trkpt>
      <trkpt lat="45.85035" lon="6.44654">
        <ele>2393.6</ele>
        <time>2024-04-27T10:02:20Z</time>
      </trkpt>
      <trkpt lat="45.85034" lon="6.44652">
        <ele>2393.6</ele>
        <time>2024-04-27T10:02:21Z</time>
      </trkpt>
      <trkpt lat="45.85034" lon="6.4465">
        <ele>2390.7</ele>
        <time>2024-04-27T10:02:22Z</time>
      </trkpt>
      <trkpt lat="45.85036" lon="6.44648">
        <ele>2390.7</ele>
        <time>2024-04-27T10:02:23Z</time>
      </trkpt>
      <trkpt lat="45.85038" lon="6.44645">
        <ele>2388.6</ele>
        <time>2024-04-27T10:02:24Z</time>
      </trkpt>
      <trkpt lat="45.8504" lon="6.44642">
        <ele>2388.6</ele>
        <time>2024-04-27T10:02:25Z</time>
      </trkpt>
      <trkpt lat="45.85043" lon="6.4464">
        <ele>2386.6</ele>
        <time>2024-04-27T10:02:26Z</time>
      </trkpt>
      <trkpt lat="45.85045" lon="6.44639">
        <ele>2386.6</ele>
        <time>2024-04-27T10:02:27Z</time>
      </trkpt>
      <trkpt lat="45.85045" lon="6.44638">
        <ele>2384.6</ele>
        <time>2024-04-27T10:02:28Z</time>
      </trkpt>
      <trkpt lat="45.85044" lon="6.44636">
        <ele>2384.6</ele>
        <time>2024-04-27T10:02:29Z</time>
      </trkpt>
      <trkpt lat="45.85042" lon="6.44635">
        <ele>2382.7</ele>
        <time>2024-04-27T10:02:30Z</time>
      </trkpt>
      <trkpt lat="45.85039" lon="6.44635">
        <ele>2382.7</ele>
        <time>2024-04-27T10:02:31Z</time>
      </trkpt>
      <trkpt lat="45.85037" lon="6.44634">
        <ele>2380.7</ele>
        <time>2024-04-27T10:02:32Z</time>
      </trkpt>
      <trkpt lat="45.85036" lon="6.44632">
        <ele>2380.7</ele>
        <time>2024-04-27T10:02:33Z</time>
      </trkpt>
      <trkpt lat="45.85037" lon="6.44628">
        <ele>2377.6</ele>
        <time>2024-04-27T10:02:34Z</time>
      </trkpt>
      <trkpt lat="45.85039" lon="6.44626">
        <ele>2377.6</ele>
        <time>2024-04-27T10:02:35Z</time>
      </trkpt>
      <trkpt lat="45.85041" lon="6.44623">
        <ele>2375.6</ele>
        <time>2024-04-27T10:02:36Z</time>
      </trkpt>
      <trkpt lat="45.85043" lon="6.44621">
        <ele>2375.6</ele>
        <time>2024-04-27T10:02:37Z</time>
      </trkpt>
      <trkpt lat="45.85045" lon="6.44617">
        <ele>2374.7</ele>
        <time>2024-04-27T10:02:38Z</time>
      </trkpt>
      <trkpt lat="45.85047" lon="6.44613">
        <ele>2374.7</ele>
        <time>2024-04-27T10:02:39Z</time>
      </trkpt>
      <trkpt lat="45.85046" lon="6.44611">
        <ele>2371.7</ele>
        <time>2024-04-27T10:02:40Z</time>
      </trkpt>
      <trkpt lat="45.85043" lon="6.44611">
        <ele>2371.7</ele>
        <time>2024-04-27T10:02:41Z</time>
      </trkpt>
      <trkpt lat="45.8504" lon="6.44612">
        <ele>2369.7</ele>
        <time>2024-04-27T10:02:42Z</time>
      </trkpt>
      <trkpt lat="45.85038" lon="6.44611">
        <ele>2369.7</ele>
        <time>2024-04-27T10:02:43Z</time>
      </trkpt>
      <trkpt lat="45.85037" lon="6.44608">
        <ele>2366.6</ele>
        <time>2024-04-27T10:02:44Z</time>
      </trkpt>
      <trkpt lat="45.85038" lon="6.44604">
        <ele>2366.6</ele>
        <time>2024-04-27T10:02:45Z</time>
      </trkpt>
      <trkpt lat="45.85039" lon="6.446">
        <ele>2364.7</ele>
        <time>2024-04-27T10:02:46Z</time>
      </trkpt>
      <trkpt lat="45.8504" lon="6.44596">
        <ele>2364.7</ele>
        <time>2024-04-27T10:02:47Z</time>
      </trkpt>
      <trkpt lat="45.85042" lon="6.44592">
        <ele>2362.7</ele>
        <time>2024-04-27T10:02:48Z</time>
      </trkpt>
      <trkpt lat="45.85042" lon="6.44588">
        <ele>2362.7</ele>
        <time>2024-04-27T10:02:49Z</time>
      </trkpt>
      <trkpt lat="45.85043" lon="6.44583">
        <ele>2361.6</ele>
        <time>2024-04-27T10:02:50Z</time>
      </trkpt>
      <trkpt lat="45.85043" lon="6.44579">
        <ele>2361.6</ele>
        <time>2024-04-27T10:02:51Z</time>
      </trkpt>
      <trkpt lat="45.85043" lon="6.44575">
        <ele>2360.7</ele>
        <time>2024-04-27T10:02:52Z</time>
      </trkpt>
      <trkpt lat="45.85042" lon="6.44572">
        <ele>2360.7</ele>
        <time>2024-04-27T10:02:53Z</time>
      </trkpt>
      <trkpt lat="45.85041" lon="6.44572">
        <ele>2358.7</ele>
        <time>2024-04-27T10:02:54Z</time>
      </trkpt>
      <trkpt lat="45.85039" lon="6.44574">
        <ele>2358.7</ele>
        <time>2024-04-27T10:02:55Z</time>
      </trkpt>
      <trkpt lat="45.85036" lon="6.44577">
        <ele>2356.6</ele>
        <time>2024-04-27T10:02:56Z</time>
      </trkpt>
      <trkpt lat="45.85033" lon="6.4458">
        <ele>2356.6</ele>
        <time>2024-04-27T10:02:57Z</time>
      </trkpt>
      <trkpt lat="45.8503" lon="6.44584">
        <ele>2355.7</ele>
        <time>2024-04-27T10:02:58Z</time>
      </trkpt>
      <trkpt lat="45.85028" lon="6.44585">
        <ele>2355.7</ele>
        <time>2024-04-27T10:02:59Z</time>
      </trkpt>
      <trkpt lat="45.85026" lon="6.44585">
        <ele>2355.7</ele>
        <time>2024-04-27T10:03:00Z</time>
      </trkpt>
      <trkpt lat="45.85026" lon="6.44582">
        <ele>2355.7</ele>
        <time>2024-04-27T10:03:01Z</time>
      </trkpt>
      <trkpt lat="45.85027" lon="6.44577">
        <ele>2355.7</ele>
        <time>2024-04-27T10:03:02Z</time>
      </trkpt>
      <trkpt lat="45.85028" lon="6.44572">
        <ele>2355.7</ele>
        <time>2024-04-27T10:03:03Z</time>
      </trkpt>
      <trkpt lat="45.85029" lon="6.44568">
        <ele>2350.6</ele>
        <time>2024-04-27T10:03:04Z</time>
      </trkpt>
      <trkpt lat="45.8503" lon="6.44565">
        <ele>2350.6</ele>
        <time>2024-04-27T10:03:05Z</time>
      </trkpt>
      <trkpt lat="45.85031" lon="6.44562">
        <ele>2349.6</ele>
        <time>2024-04-27T10:03:06Z</time>
      </trkpt>
      <trkpt lat="45.85032" lon="6.44561">
        <ele>2349.6</ele>
        <time>2024-04-27T10:03:07Z</time>
      </trkpt>
      <trkpt lat="45.85032" lon="6.44561">
        <ele>2349.6</ele>
        <time>2024-04-27T10:03:08Z</time>
      </trkpt>
      <trkpt lat="45.85032" lon="6.44561">
        <ele>2349.6</ele>
        <time>2024-04-27T10:03:09Z</time>
      </trkpt>
      <trkpt lat="45.85032" lon="6.44562">
        <ele>2348.7</ele>
        <time>2024-04-27T10:03:10Z</time>
      </trkpt>
      <trkpt lat="45.85032" lon="6.44562">
        <ele>2348.7</ele>
        <time>2024-04-27T10:03:11Z</time>
      </trkpt>
      <trkpt lat="45.85032" lon="6.44563">
        <ele>2348.7</ele>
        <time>2024-04-27T10:03:12Z</time>
      </trkpt>
      <trkpt lat="45.85031" lon="6.44563">
        <ele>2348.7</ele>
        <time>2024-04-27T10:03:13Z</time>
      </trkpt>
      <trkpt lat="45.85031" lon="6.44562">
        <ele>2348.7</ele>
        <time>2024-04-27T10:03:14Z</time>
      </trkpt>
      <trkpt lat="45.85031" lon="6.44561">
        <ele>2348.7</ele>
        <time>2024-04-27T10:03:15Z</time>
      </trkpt>
      <trkpt lat="45.85031" lon="6.44561">
        <ele>2348.7</ele>
        <time>2024-04-27T10:03:16Z</time>
      </trkpt>
      <trkpt lat="45.8503" lon="6.44561">
        <ele>2348.7</ele>
        <time>2024-04-27T10:03:17Z</time>
      </trkpt>
      <trkpt lat="45.8503" lon="6.44561">
        <ele>2348.7</ele>
        <time>2024-04-27T10:03:18Z</time>
      </trkpt>
      <trkpt lat="45.8503" lon="6.44561">
        <ele>2348.7</ele>
        <time>2024-04-27T10:03:19Z</time>
      </trkpt>
      <trkpt lat="45.8503" lon="6.44562">
        <ele>2348.7</ele>
        <time>2024-04-27T10:03:20Z</time>
      </trkpt>
      <trkpt lat="45.8503" lon="6.44562">
        <ele>2348.7</ele>
        <time>2024-04-27T10:03:21Z</time>
      </trkpt>
      <trkpt lat="45.8503" lon="6.44562">
        <ele>2348.7</ele>
        <time>2024-04-27T10:03:22Z</time>
      </trkpt>
      <trkpt lat="45.8503" lon="6.44562">
        <ele>2348.7</ele>
        <time>2024-04-27T10:03:23Z</time>
      </trkpt>
      <trkpt lat="45.8503" lon="6.44562">
        <ele>2348.7</ele>
        <time>2024-04-27T10:03:24Z</time>
      </trkpt>
      <trkpt lat="45.8503" lon="6.44562">
        <ele>2348.7</ele>
        <time>2024-04-27T10:03:25Z</time>
      </trkpt>
      <trkpt lat="45.8503" lon="6.44562">
        <ele>2349.6</ele>
        <time>2024-04-27T10:03:26Z</time>
      </trkpt>
      <trkpt lat="45.8503" lon="6.44562">
        <ele>2349.6</ele>
        <time>2024-04-27T10:03:27Z</time>
      </trkpt>
      <trkpt lat="45.8503" lon="6.44562">
        <ele>2349.6</ele>
        <time>2024-04-27T10:03:28Z</time>
      </trkpt>
      <trkpt lat="45.8503" lon="6.44562">
        <ele>2349.6</ele>
        <time>2024-04-27T10:03:29Z</time>
      </trkpt>
      <trkpt lat="45.8503" lon="6.44562">
        <ele>2349.6</ele>
        <time>2024-04-27T10:03:30Z</time>
      </trkpt>
      <trkpt lat="45.8503" lon="6.44562">
        <ele>2349.6</ele>
        <time>2024-04-27T10:03:31Z</time>
      </trkpt>
      <trkpt lat="45.8503" lon="6.44562">
        <ele>2349.6</ele>
        <time>2024-04-27T10:03:32Z</time>
      </trkpt>
      <trkpt lat="45.8503" lon="6.44562">
        <ele>2349.6</ele>
        <time>2024-04-27T10:03:33Z</time>
      </trkpt>
      <trkpt lat="45.8503" lon="6.44562">
        <ele>2349.6</ele>
        <time>2024-04-27T10:03:34Z</time>
      </trkpt>
      <trkpt lat="45.8503" lon="6.44562">
        <ele>2349.6</ele>
        <time>2024-04-27T10:03:35Z</time>
      </trkpt>
      <trkpt lat="45.8503" lon="6.44562">
        <ele>2350.6</ele>
        <time>2024-04-27T10:03:36Z</time>
      </trkpt>
      <trkpt lat="45.8503" lon="6.44561">
        <ele>2350.6</ele>
        <time>2024-04-27T10:03:37Z</time>
      </trkpt>
      <trkpt lat="45.8503" lon="6.44561">
        <ele>2350.6</ele>
        <time>2024-04-27T10:03:38Z</time>
      </trkpt>
      <trkpt lat="45.8503" lon="6.44561">
        <ele>2350.6</ele>
        <time>2024-04-27T10:03:39Z</time>
      </trkpt>
      <trkpt lat="45.8503" lon="6.44561">
        <ele>2351.7</ele>
        <time>2024-04-27T10:03:40Z</time>
      </trkpt>
      <trkpt lat="45.8503" lon="6.44561">
        <ele>2351.7</ele>
        <time>2024-04-27T10:03:41Z</time>
      </trkpt>
      <trkpt lat="45.8503" lon="6.44561">
        <ele>2351.7</ele>
        <time>2024-04-27T10:03:42Z</time>
      </trkpt>
      <trkpt lat="45.8503" lon="6.44561">
        <ele>2351.7</ele>
        <time>2024-04-27T10:03:43Z</time>
      </trkpt>
      <trkpt lat="45.8503" lon="6.44561">
        <ele>2351.7</ele>
        <time>2024-04-27T10:03:44Z</time>
      </trkpt>
      <trkpt lat="45.8503" lon="6.4456">
        <ele>2351.7</ele>
        <time>2024-04-27T10:03:45Z</time>
      </trkpt>
      <trkpt lat="45.8503" lon="6.4456">
        <ele>2352.6</ele>
        <time>2024-04-27T10:03:46Z</time>
      </trkpt>
      <trkpt lat="45.8503" lon="6.4456">
        <ele>2352.6</ele>
        <time>2024-04-27T10:03:47Z</time>
      </trkpt>
      <trkpt lat="45.8503" lon="6.4456">
        <ele>2352.6</ele>
        <time>2024-04-27T10:03:48Z</time>
      </trkpt>
      <trkpt lat="45.8503" lon="6.4456">
        <ele>2352.6</ele>
        <time>2024-04-27T10:03:49Z</time>
      </trkpt>
      <trkpt lat="45.8503" lon="6.44559">
        <ele>2352.6</ele>
        <time>2024-04-27T10:03:50Z</time>
      </trkpt>
      <trkpt lat="45.8503" lon="6.44559">
        <ele>2352.6</ele>
        <time>2024-04-27T10:03:51Z</time>
      </trkpt>
      <trkpt lat="45.8503" lon="6.44559">
        <ele>2352.6</ele>
        <time>2024-04-27T10:03:52Z</time>
      </trkpt>
      <trkpt lat="45.8503" lon="6.44559">
        <ele>2352.6</ele>
        <time>2024-04-27T10:03:53Z</time>
      </trkpt>
      <trkpt lat="45.8503" lon="6.44559">
        <ele>2352.6</ele>
        <time>2024-04-27T10:03:54Z</time>
      </trkpt>
      <trkpt lat="45.8503" lon="6.44559">
        <ele>2352.6</ele>
        <time>2024-04-27T10:03:55Z</time>
      </trkpt>
      <trkpt lat="45.8503" lon="6.44559">
        <ele>2352.6</ele>
        <time>2024-04-27T10:03:56Z</time>
      </trkpt>
      <trkpt lat="45.8503" lon="6.44559">
        <ele>2352.6</ele>
        <time>2024-04-27T10:03:57Z</time>
      </trkpt>
      <trkpt lat="45.8503" lon="6.44559">
        <ele>2352.6</ele>
        <time>2024-04-27T10:03:58Z</time>
      </trkpt>
      <trkpt lat="45.8503" lon="6.44558">
        <ele>2352.6</ele>
        <time>2024-04-27T10:03:59Z</time>
      </trkpt>
      <trkpt lat="45.8503" lon="6.44558">
        <ele>2353.7</ele>
        <time>2024-04-27T10:04:00Z</time>
      </trkpt>
      <trkpt lat="45.8503" lon="6.44558">
        <ele>2353.7</ele>
        <time>2024-04-27T10:04:01Z</time>
      </trkpt>
      <trkpt lat="45.8503" lon="6.44558">
        <ele>2353.7</ele>
        <time>2024-04-27T10:04:02Z</time>
      </trkpt>
      <trkpt lat="45.8503" lon="6.44558">
        <ele>2353.7</ele>
        <time>2024-04-27T10:04:03Z</time>
      </trkpt>
      <trkpt lat="45.8503" lon="6.44558">
        <ele>2353.7</ele>
        <time>2024-04-27T10:04:04Z</time>
      </trkpt>
      <trkpt lat="45.8503" lon="6.44558">
        <ele>2353.7</ele>
        <time>2024-04-27T10:04:05Z</time>
      </trkpt>
      <trkpt lat="45.8503" lon="6.44558">
        <ele>2353.7</ele>
        <time>2024-04-27T10:04:06Z</time>
      </trkpt>
      <trkpt lat="45.8503" lon="6.44558">
        <ele>2353.7</ele>
        <time>2024-04-27T10:04:07Z</time>
      </trkpt>
      <trkpt lat="45.85029" lon="6.44558">
        <ele>2353.7</ele>
        <time>2024-04-27T10:04:08Z</time>
      </trkpt>
      <trkpt lat="45.85029" lon="6.44558">
        <ele>2353.7</ele>
        <time>2024-04-27T10:04:09Z</time>
      </trkpt>
      <trkpt lat="45.85029" lon="6.44558">
        <ele>2352.6</ele>
        <time>2024-04-27T10:04:10Z</time>
      </trkpt>
      <trkpt lat="45.85029" lon="6.44558">
        <ele>2352.6</ele>
        <time>2024-04-27T10:04:11Z</time>
      </trkpt>
      <trkpt lat="45.8503" lon="6.44554">
        <ele>2352.6</ele>
        <time>2024-04-27T10:04:12Z</time>
      </trkpt>
      <trkpt lat="45.8503" lon="6.44549">
        <ele>2352.6</ele>
        <time>2024-04-27T10:04:13Z</time>
      </trkpt>
      <trkpt lat="45.85031" lon="6.44543">
        <ele>2352.6</ele>
        <time>2024-04-27T10:04:14Z</time>
      </trkpt>
      <trkpt lat="45.85032" lon="6.44538">
        <ele>2352.6</ele>
        <time>2024-04-27T10:04:15Z</time>
      </trkpt>
      <trkpt lat="45.85034" lon="6.44533">
        <ele>2352.6</ele>
        <time>2024-04-27T10:04:16Z</time>
      </trkpt>
      <trkpt lat="45.85035" lon="6.44524">
        <ele>2352.6</ele>
        <time>2024-04-27T10:04:17Z</time>
      </trkpt>
      <trkpt lat="45.85037" lon="6.44517">
        <ele>2346.7</ele>
        <time>2024-04-27T10:04:18Z</time>
      </trkpt>
      <trkpt lat="45.85038" lon="6.44509">
        <ele>2346.7</ele>
        <time>2024-04-27T10:04:19Z</time>
      </trkpt>
      <trkpt lat="45.85039" lon="6.44503">
        <ele>2346.7</ele>
        <time>2024-04-27T10:04:20Z</time>
      </trkpt>
      <trkpt lat="45.85041" lon="6.44496">
        <ele>2346.7</ele>
        <time>2024-04-27T10:04:21Z</time>
      </trkpt>
      <trkpt lat="45.85042" lon="6.44487">
        <ele>2346.7</ele>
        <time>2024-04-27T10:04:22Z</time>
      </trkpt>
      <trkpt lat="45.85043" lon="6.4448">
        <ele>2346.7</ele>
        <time>2024-04-27T10:04:23Z</time>
      </trkpt>
      <trkpt lat="45.85044" lon="6.44471">
        <ele>2338.6</ele>
        <time>2024-04-27T10:04:24Z</time>
      </trkpt>
      <trkpt lat="45.85046" lon="6.44463">
        <ele>2338.6</ele>
        <time>2024-04-27T10:04:25Z</time>
      </trkpt>
      <trkpt lat="45.85048" lon="6.44457">
        <ele>2337.7</ele>
        <time>2024-04-27T10:04:26Z</time>
      </trkpt>
      <trkpt lat="45.85049" lon="6.44453">
        <ele>2337.7</ele>
        <time>2024-04-27T10:04:27Z</time>
      </trkpt>
      <trkpt lat="45.85049" lon="6.44451">
        <ele>2335.7</ele>
        <time>2024-04-27T10:04:28Z</time>
      </trkpt>
      <trkpt lat="45.85049" lon="6.44452">
        <ele>2335.7</ele>
        <time>2024-04-27T10:04:29Z</time>
      </trkpt>
      <trkpt lat="45.85049" lon="6.44451">
        <ele>2332.7</ele>
        <time>2024-04-27T10:04:30Z</time>
      </trkpt>
      <trkpt lat="45.85048" lon="6.44451">
        <ele>2332.7</ele>
        <time>2024-04-27T10:04:31Z</time>
      </trkpt>
      <trkpt lat="45.85046" lon="6.44453">
        <ele>2330.7</ele>
        <time>2024-04-27T10:04:32Z</time>
      </trkpt>
      <trkpt lat="45.85044" lon="6.44455">
        <ele>2330.7</ele>
        <time>2024-04-27T10:04:33Z</time>
      </trkpt>
      <trkpt lat="45.85041" lon="6.44458">
        <ele>2328.7</ele>
        <time>2024-04-27T10:04:34Z</time>
      </trkpt>
      <trkpt lat="45.85038" lon="6.4446">
        <ele>2328.7</ele>
        <time>2024-04-27T10:04:35Z</time>
      </trkpt>
      <trkpt lat="45.85035" lon="6.4446">
        <ele>2326.7</ele>
        <time>2024-04-27T10:04:36Z</time>
      </trkpt>
      <trkpt lat="45.85034" lon="6.44457">
        <ele>2326.7</ele>
        <time>2024-04-27T10:04:37Z</time>
      </trkpt>
      <trkpt lat="45.85033" lon="6.44453">
        <ele>2323.7</ele>
        <time>2024-04-27T10:04:38Z</time>
      </trkpt>
      <trkpt lat="45.85033" lon="6.44449">
        <ele>2323.7</ele>
        <time>2024-04-27T10:04:39Z</time>
      </trkpt>
      <trkpt lat="45.85034" lon="6.44445">
        <ele>2321.7</ele>
        <time>2024-04-27T10:04:40Z</time>
      </trkpt>
      <trkpt lat="45.85035" lon="6.44442">
        <ele>2321.7</ele>
        <time>2024-04-27T10:04:41Z</time>
      </trkpt>
      <trkpt lat="45.85034" lon="6.44441">
        <ele>2318.6</ele>
        <time>2024-04-27T10:04:42Z</time>
      </trkpt>
      <trkpt lat="45.85032" lon="6.44441">
        <ele>2318.6</ele>
        <time>2024-04-27T10:04:43Z</time>
      </trkpt>
      <trkpt lat="45.8503" lon="6.44439">
        <ele>2314.7</ele>
        <time>2024-04-27T10:04:44Z</time>
      </trkpt>
      <trkpt lat="45.85029" lon="6.44437">
        <ele>2314.7</ele>
        <time>2024-04-27T10:04:45Z</time>
      </trkpt>
      <trkpt lat="45.85029" lon="6.44434">
        <ele>2313.6</ele>
        <time>2024-04-27T10:04:46Z</time>
      </trkpt>
      <trkpt lat="45.85029" lon="6.4443">
        <ele>2313.6</ele>
        <time>2024-04-27T10:04:47Z</time>
      </trkpt>
      <trkpt lat="45.8503" lon="6.44428">
        <ele>2311.6</ele>
        <time>2024-04-27T10:04:48Z</time>
      </trkpt>
      <trkpt lat="45.85028" lon="6.44428">
        <ele>2311.6</ele>
        <time>2024-04-27T10:04:49Z</time>
      </trkpt>
      <trkpt lat="45.85026" lon="6.44427">
        <ele>2308.6</ele>
        <time>2024-04-27T10:04:50Z</time>
      </trkpt>
      <trkpt lat="45.85025" lon="6.44424">
        <ele>2308.6</ele>
        <time>2024-04-27T10:04:51Z</time>
      </trkpt>
      <trkpt lat="45.85025" lon="6.4442">
        <ele>2307.7</ele>
        <time>2024-04-27T10:04:52Z</time>
      </trkpt>
      <trkpt lat="45.85025" lon="6.44418">
        <ele>2307.7</ele>
        <time>2024-04-27T10:04:53Z</time>
      </trkpt>
      <trkpt lat="45.85024" lon="6.44416">
        <ele>2304.6</ele>
        <time>2024-04-27T10:04:54Z</time>
      </trkpt>
      <trkpt lat="45.85023" lon="6.44416">
        <ele>2304.6</ele>
        <time>2024-04-27T10:04:55Z</time>
      </trkpt>
      <trkpt lat="45.85022" lon="6.44414">
        <ele>2303.7</ele>
        <time>2024-04-27T10:04:56Z</time>
      </trkpt>
      <trkpt lat="45.85022" lon="6.44412">
        <ele>2303.7</ele>
        <time>2024-04-27T10:04:57Z</time>
      </trkpt>
      <trkpt lat="45.85021" lon="6.4441">
        <ele>2302.6</ele>
        <time>2024-04-27T10:04:58Z</time>
      </trkpt>
      <trkpt lat="45.85021" lon="6.44408">
        <ele>2302.6</ele>
        <time>2024-04-27T10:04:59Z</time>
      </trkpt>
      <trkpt lat="45.8502" lon="6.44407">
        <ele>2299.6</ele>
        <time>2024-04-27T10:05:00Z</time>
      </trkpt>
      <trkpt lat="45.85018" lon="6.44405">
        <ele>2299.6</ele>
        <time>2024-04-27T10:05:01Z</time>
      </trkpt>
      <trkpt lat="45.85017" lon="6.44403">
        <ele>2297.6</ele>
        <time>2024-04-27T10:05:02Z</time>
      </trkpt>
      <trkpt lat="45.85016" lon="6.44401">
        <ele>2297.6</ele>
        <time>2024-04-27T10:05:03Z</time>
      </trkpt>
      <trkpt lat="45.85015" lon="6.444">
        <ele>2295.6</ele>
        <time>2024-04-27T10:05:04Z</time>
      </trkpt>
      <trkpt lat="45.85013" lon="6.444">
        <ele>2295.6</ele>
        <time>2024-04-27T10:05:05Z</time>
      </trkpt>
      <trkpt lat="45.85012" lon="6.44399">
        <ele>2293.6</ele>
        <time>2024-04-27T10:05:06Z</time>
      </trkpt>
      <trkpt lat="45.8501" lon="6.44397">
        <ele>2293.6</ele>
        <time>2024-04-27T10:05:07Z</time>
      </trkpt>
      <trkpt lat="45.85009" lon="6.44395">
        <ele>2291.7</ele>
        <time>2024-04-27T10:05:08Z</time>
      </trkpt>
      <trkpt lat="45.85009" lon="6.44394">
        <ele>2291.7</ele>
        <time>2024-04-27T10:05:09Z</time>
      </trkpt>
      <trkpt lat="45.85007" lon="6.44393">
        <ele>2289.7</ele>
        <time>2024-04-27T10:05:10Z</time>
      </trkpt>
      <trkpt lat="45.85006" lon="6.44391">
        <ele>2289.7</ele>
        <time>2024-04-27T10:05:11Z</time>
      </trkpt>
      <trkpt lat="45.85006" lon="6.44386">
        <ele>2286.6</ele>
        <time>2024-04-27T10:05:12Z</time>
      </trkpt>
      <trkpt lat="45.85006" lon="6.4438">
        <ele>2286.6</ele>
        <time>2024-04-27T10:05:13Z</time>
      </trkpt>
      <trkpt lat="45.85007" lon="6.44375">
        <ele>2285.7</ele>
        <time>2024-04-27T10:05:14Z</time>
      </trkpt>
      <trkpt lat="45.85007" lon="6.44369">
        <ele>2285.7</ele>
        <time>2024-04-27T10:05:15Z</time>
      </trkpt>
      <trkpt lat="45.85008" lon="6.44365">
        <ele>2284.7</ele>
        <time>2024-04-27T10:05:16Z</time>
      </trkpt>
      <trkpt lat="45.85008" lon="6.44363">
        <ele>2284.7</ele>
        <time>2024-04-27T10:05:17Z</time>
      </trkpt>
      <trkpt lat="45.85008" lon="6.44362">
        <ele>2284.7</ele>
        <time>2024-04-27T10:05:18Z</time>
      </trkpt>
      <trkpt lat="45.85005" lon="6.4436">
        <ele>2284.7</ele>
        <time>2024-04-27T10:05:19Z</time>
      </trkpt>
      <trkpt lat="45.85002" lon="6.44356">
        <ele>2284.7</ele>
        <time>2024-04-27T10:05:20Z</time>
      </trkpt>
      <trkpt lat="45.85001" lon="6.44351">
        <ele>2284.7</ele>
        <time>2024-04-27T10:05:21Z</time>
      </trkpt>
      <trkpt lat="45.85" lon="6.44346">
        <ele>2278.7</ele>
        <time>2024-04-27T10:05:22Z</time>
      </trkpt>
      <trkpt lat="45.85" lon="6.44343">
        <ele>2278.7</ele>
        <time>2024-04-27T10:05:23Z</time>
      </trkpt>
      <trkpt lat="45.85" lon="6.4434">
        <ele>2277.6</ele>
        <time>2024-04-27T10:05:24Z</time>
      </trkpt>
      <trkpt lat="45.85" lon="6.44338">
        <ele>2277.6</ele>
        <time>2024-04-27T10:05:25Z</time>
      </trkpt>
      <trkpt lat="45.84999" lon="6.44337">
        <ele>2277.6</ele>
        <time>2024-04-27T10:05:26Z</time>
      </trkpt>
      <trkpt lat="45.84998" lon="6.44335">
        <ele>2277.6</ele>
        <time>2024-04-27T10:05:27Z</time>
      </trkpt>
      <trkpt lat="45.84997" lon="6.44333">
        <ele>2270.6</ele>
        <time>2024-04-27T10:05:28Z</time>
      </trkpt>
      <trkpt lat="45.84996" lon="6.4433">
        <ele>2270.6</ele>
        <time>2024-04-27T10:05:29Z</time>
      </trkpt>
      <trkpt lat="45.84995" lon="6.44328">
        <ele>2268.7</ele>
        <time>2024-04-27T10:05:30Z</time>
      </trkpt>
      <trkpt lat="45.84995" lon="6.44328">
        <ele>2268.7</ele>
        <time>2024-04-27T10:05:31Z</time>
      </trkpt>
      <trkpt lat="45.84994" lon="6.44328">
        <ele>2268.7</ele>
        <time>2024-04-27T10:05:32Z</time>
      </trkpt>
      <trkpt lat="45.84994" lon="6.44328">
        <ele>2268.7</ele>
        <time>2024-04-27T10:05:33Z</time>
      </trkpt>
      <trkpt lat="45.84993" lon="6.44329">
        <ele>2268.7</ele>
        <time>2024-04-27T10:05:34Z</time>
      </trkpt>
      <trkpt lat="45.84992" lon="6.44329">
        <ele>2268.7</ele>
        <time>2024-04-27T10:05:35Z</time>
      </trkpt>
      <trkpt lat="45.84991" lon="6.44329">
        <ele>2267.6</ele>
        <time>2024-04-27T10:05:36Z</time>
      </trkpt>
      <trkpt lat="45.8499" lon="6.44328">
        <ele>2267.6</ele>
        <time>2024-04-27T10:05:37Z</time>
      </trkpt>
      <trkpt lat="45.84989" lon="6.44327">
        <ele>2265.6</ele>
        <time>2024-04-27T10:05:38Z</time>
      </trkpt>
      <trkpt lat="45.84988" lon="6.44327">
        <ele>2265.6</ele>
        <time>2024-04-27T10:05:39Z</time>
      </trkpt>
      <trkpt lat="45.84986" lon="6.44326">
        <ele>2265.6</ele>
        <time>2024-04-27T10:05:40Z</time>
      </trkpt>
      <trkpt lat="45.84985" lon="6.44325">
        <ele>2264.7</ele>
        <time>2024-04-27T10:05:41Z</time>
      </trkpt>
      <trkpt lat="45.84985" lon="6.44323">
        <ele>2261.6</ele>
        <time>2024-04-27T10:05:42Z</time>
      </trkpt>
      <trkpt lat="45.84984" lon="6.44322">
        <ele>2261.6</ele>
        <time>2024-04-27T10:05:43Z</time>
      </trkpt>
      <trkpt lat="45.84983" lon="6.44321">
        <ele>2261.6</ele>
        <time>2024-04-27T10:05:44Z</time>
      </trkpt>
      <trkpt lat="45.84983" lon="6.44319">
        <ele>2258.6</ele>
        <time>2024-04-27T10:05:45Z</time>
      </trkpt>
      <trkpt lat="45.84982" lon="6.44316">
        <ele>2258.6</ele>
        <time>2024-04-27T10:05:46Z</time>
      </trkpt>
      <trkpt lat="45.84982" lon="6.44313">
        <ele>2255.7</ele>
        <time>2024-04-27T10:05:47Z</time>
      </trkpt>
      <trkpt lat="45.84982" lon="6.4431">
        <ele>2255.7</ele>
        <time>2024-04-27T10:05:48Z</time>
      </trkpt>
      <trkpt lat="45.84983" lon="6.44306">
        <ele>2253.7</ele>
        <time>2024-04-27T10:05:49Z</time>
      </trkpt>
      <trkpt lat="45.84984" lon="6.44301">
        <ele>2253.7</ele>
        <time>2024-04-27T10:05:50Z</time>
      </trkpt>
      <trkpt lat="45.84985" lon="6.44297">
        <ele>2251.6</ele>
        <time>2024-04-27T10:05:51Z</time>
      </trkpt>
      <trkpt lat="45.84986" lon="6.44292">
        <ele>2251.6</ele>
        <time>2024-04-27T10:05:52Z</time>
      </trkpt>
      <trkpt lat="45.84986" lon="6.44289">
        <ele>2249.6</ele>
        <time>2024-04-27T10:05:53Z</time>
      </trkpt>
      <trkpt lat="45.84984" lon="6.44287">
        <ele>2249.6</ele>
        <time>2024-04-27T10:05:54Z</time>
      </trkpt>
      <trkpt lat="45.84983" lon="6.44285">
        <ele>2246.7</ele>
        <time>2024-04-27T10:05:55Z</time>
      </trkpt>
      <trkpt lat="45.84981" lon="6.44281">
        <ele>2246.7</ele>
        <time>2024-04-27T10:05:56Z</time>
      </trkpt>
      <trkpt lat="45.8498" lon="6.44275">
        <ele>2244.7</ele>
        <time>2024-04-27T10:05:57Z</time>
      </trkpt>
      <trkpt lat="45.8498" lon="6.4427">
        <ele>2244.7</ele>
        <time>2024-04-27T10:05:58Z</time>
      </trkpt>
      <trkpt lat="45.8498" lon="6.44266">
        <ele>2243.7</ele>
        <time>2024-04-27T10:05:59Z</time>
      </trkpt>
      <trkpt lat="45.84981" lon="6.44261">
        <ele>2243.7</ele>
        <time>2024-04-27T10:06:00Z</time>
      </trkpt>
      <trkpt lat="45.84981" lon="6.44255">
        <ele>2241.7</ele>
        <time>2024-04-27T10:06:01Z</time>
      </trkpt>
      <trkpt lat="45.84981" lon="6.44252">
        <ele>2241.7</ele>
        <time>2024-04-27T10:06:02Z</time>
      </trkpt>
      <trkpt lat="45.84981" lon="6.4425">
        <ele>2240.6</ele>
        <time>2024-04-27T10:06:03Z</time>
      </trkpt>
      <trkpt lat="45.8498" lon="6.44249">
        <ele>2240.6</ele>
        <time>2024-04-27T10:06:04Z</time>
      </trkpt>
      <trkpt lat="45.84979" lon="6.44246">
        <ele>2238.6</ele>
        <time>2024-04-27T10:06:05Z</time>
      </trkpt>
      <trkpt lat="45.84979" lon="6.44241">
        <ele>2238.6</ele>
        <time>2024-04-27T10:06:06Z</time>
      </trkpt>
      <trkpt lat="45.84979" lon="6.44237">
        <ele>2235.6</ele>
        <time>2024-04-27T10:06:07Z</time>
      </trkpt>
      <trkpt lat="45.84979" lon="6.44235">
        <ele>2235.6</ele>
        <time>2024-04-27T10:06:08Z</time>
      </trkpt>
      <trkpt lat="45.84978" lon="6.44234">
        <ele>2234.7</ele>
        <time>2024-04-27T10:06:09Z</time>
      </trkpt>
      <trkpt lat="45.84977" lon="6.44233">
        <ele>2234.7</ele>
        <time>2024-04-27T10:06:10Z</time>
      </trkpt>
      <trkpt lat="45.84975" lon="6.44229">
        <ele>2231.6</ele>
        <time>2024-04-27T10:06:11Z</time>
      </trkpt>
      <trkpt lat="45.84975" lon="6.44224">
        <ele>2231.6</ele>
        <time>2024-04-27T10:06:12Z</time>
      </trkpt>
      <trkpt lat="45.84975" lon="6.44221">
        <ele>2229.6</ele>
        <time>2024-04-27T10:06:13Z</time>
      </trkpt>
      <trkpt lat="45.84975" lon="6.44217">
        <ele>2229.6</ele>
        <time>2024-04-27T10:06:14Z</time>
      </trkpt>
      <trkpt lat="45.84975" lon="6.44214">
        <ele>2228.7</ele>
        <time>2024-04-27T10:06:15Z</time>
      </trkpt>
      <trkpt lat="45.84976" lon="6.44212">
        <ele>2228.7</ele>
        <time>2024-04-27T10:06:16Z</time>
      </trkpt>
      <trkpt lat="45.84975" lon="6.4421">
        <ele>2226.6</ele>
        <time>2024-04-27T10:06:17Z</time>
      </trkpt>
      <trkpt lat="45.84974" lon="6.4421">
        <ele>2226.6</ele>
        <time>2024-04-27T10:06:18Z</time>
      </trkpt>
      <trkpt lat="45.84973" lon="6.44209">
        <ele>2224.6</ele>
        <time>2024-04-27T10:06:19Z</time>
      </trkpt>
      <trkpt lat="45.84971" lon="6.44206">
        <ele>2224.6</ele>
        <time>2024-04-27T10:06:20Z</time>
      </trkpt>
      <trkpt lat="45.8497" lon="6.44203">
        <ele>2223.7</ele>
        <time>2024-04-27T10:06:21Z</time>
      </trkpt>
      <trkpt lat="45.8497" lon="6.44199">
        <ele>2223.7</ele>
        <time>2024-04-27T10:06:22Z</time>
      </trkpt>
      <trkpt lat="45.8497" lon="6.44195">
        <ele>2222.6</ele>
        <time>2024-04-27T10:06:23Z</time>
      </trkpt>
      <trkpt lat="45.8497" lon="6.44192">
        <ele>2222.6</ele>
        <time>2024-04-27T10:06:24Z</time>
      </trkpt>
      <trkpt lat="45.8497" lon="6.4419">
        <ele>2222.6</ele>
        <time>2024-04-27T10:06:25Z</time>
      </trkpt>
      <trkpt lat="45.84969" lon="6.44189">
        <ele>2222.6</ele>
        <time>2024-04-27T10:06:26Z</time>
      </trkpt>
      <trkpt lat="45.84969" lon="6.44187">
        <ele>2222.6</ele>
        <time>2024-04-27T10:06:27Z</time>
      </trkpt>
      <trkpt lat="45.84969" lon="6.44184">
        <ele>2222.6</ele>
        <time>2024-04-27T10:06:28Z</time>
      </trkpt>
      <trkpt lat="45.8497" lon="6.4418">
        <ele>2218.7</ele>
        <time>2024-04-27T10:06:29Z</time>
      </trkpt>
      <trkpt lat="45.8497" lon="6.44177">
        <ele>2218.7</ele>
        <time>2024-04-27T10:06:30Z</time>
      </trkpt>
      <trkpt lat="45.8497" lon="6.44174">
        <ele>2218.7</ele>
        <time>2024-04-27T10:06:31Z</time>
      </trkpt>
      <trkpt lat="45.8497" lon="6.44171">
        <ele>2218.7</ele>
        <time>2024-04-27T10:06:32Z</time>
      </trkpt>
      <trkpt lat="45.8497" lon="6.44168">
        <ele>2218.7</ele>
        <time>2024-04-27T10:06:33Z</time>
      </trkpt>
      <trkpt lat="45.8497" lon="6.44168">
        <ele>2218.7</ele>
        <time>2024-04-27T10:06:34Z</time>
      </trkpt>
      <trkpt lat="45.84969" lon="6.44167">
        <ele>2213.6</ele>
        <time>2024-04-27T10:06:35Z</time>
      </trkpt>
      <trkpt lat="45.84968" lon="6.44166">
        <ele>2213.6</ele>
        <time>2024-04-27T10:06:36Z</time>
      </trkpt>
      <trkpt lat="45.84968" lon="6.44163">
        <ele>2211.7</ele>
        <time>2024-04-27T10:06:37Z</time>
      </trkpt>
      <trkpt lat="45.84968" lon="6.44162">
        <ele>2211.7</ele>
        <time>2024-04-27T10:06:38Z</time>
      </trkpt>
      <trkpt lat="45.84968" lon="6.44161">
        <ele>2210.6</ele>
        <time>2024-04-27T10:06:39Z</time>
      </trkpt>
      <trkpt lat="45.84967" lon="6.4416">
        <ele>2210.6</ele>
        <time>2024-04-27T10:06:40Z</time>
      </trkpt>
      <trkpt lat="45.84966" lon="6.4416">
        <ele>2209.7</ele>
        <time>2024-04-27T10:06:41Z</time>
      </trkpt>
      <trkpt lat="45.84966" lon="6.4416">
        <ele>2209.7</ele>
        <time>2024-04-27T10:06:42Z</time>
      </trkpt>
      <trkpt lat="45.84966" lon="6.4416">
        <ele>2209.7</ele>
        <time>2024-04-27T10:06:43Z</time>
      </trkpt>
      <trkpt lat="45.84966" lon="6.4416">
        <ele>2209.7</ele>
        <time>2024-04-27T10:06:44Z</time>
      </trkpt>
      <trkpt lat="45.84966" lon="6.44159">
        <ele>2209.7</ele>
        <time>2024-04-27T10:06:45Z</time>
      </trkpt>
      <trkpt lat="45.84965" lon="6.4416">
        <ele>2209.7</ele>
        <time>2024-04-27T10:06:46Z</time>
      </trkpt>
      <trkpt lat="45.84965" lon="6.4416">
        <ele>2209.7</ele>
        <time>2024-04-27T10:06:47Z</time>
      </trkpt>
      <trkpt lat="45.84964" lon="6.4416">
        <ele>2209.7</ele>
        <time>2024-04-27T10:06:48Z</time>
      </trkpt>
      <trkpt lat="45.84964" lon="6.4416">
        <ele>2209.7</ele>
        <time>2024-04-27T10:06:49Z</time>
      </trkpt>
      <trkpt lat="45.84964" lon="6.4416">
        <ele>2209.7</ele>
        <time>2024-04-27T10:06:50Z</time>
      </trkpt>
      <trkpt lat="45.84964" lon="6.4416">
        <ele>2209.7</ele>
        <time>2024-04-27T10:06:51Z</time>
      </trkpt>
      <trkpt lat="45.84965" lon="6.44161">
        <ele>2209.7</ele>
        <time>2024-04-27T10:06:52Z</time>
      </trkpt>
      <trkpt lat="45.84966" lon="6.44161">
        <ele>2209.7</ele>
        <time>2024-04-27T10:06:53Z</time>
      </trkpt>
      <trkpt lat="45.84967" lon="6.44162">
        <ele>2209.7</ele>
        <time>2024-04-27T10:06:54Z</time>
      </trkpt>
      <trkpt lat="45.84967" lon="6.44163">
        <ele>2208.6</ele>
        <time>2024-04-27T10:06:55Z</time>
      </trkpt>
      <trkpt lat="45.84967" lon="6.44164">
        <ele>2208.6</ele>
        <time>2024-04-27T10:06:56Z</time>
      </trkpt>
      <trkpt lat="45.84968" lon="6.44164">
        <ele>2208.6</ele>
        <time>2024-04-27T10:06:57Z</time>
      </trkpt>
      <trkpt lat="45.84968" lon="6.44164">
        <ele>2208.6</ele>
        <time>2024-04-27T10:06:58Z</time>
      </trkpt>
      <trkpt lat="45.84968" lon="6.44164">
        <ele>2208.6</ele>
        <time>2024-04-27T10:06:59Z</time>
      </trkpt>
      <trkpt lat="45.84968" lon="6.44164">
        <ele>2208.6</ele>
        <time>2024-04-27T10:07:00Z</time>
      </trkpt>
      <trkpt lat="45.84968" lon="6.44164">
        <ele>2208.6</ele>
        <time>2024-04-27T10:07:01Z</time>
      </trkpt>
      <trkpt lat="45.84968" lon="6.44164">
        <ele>2208.6</ele>
        <time>2024-04-27T10:07:02Z</time>
      </trkpt>
      <trkpt lat="45.84968" lon="6.44164">
        <ele>2208.6</ele>
        <time>2024-04-27T10:07:03Z</time>
      </trkpt>
      <trkpt lat="45.84968" lon="6.44164">
        <ele>2208.6</ele>
        <time>2024-04-27T10:07:04Z</time>
      </trkpt>
      <trkpt lat="45.84968" lon="6.44164">
        <ele>2208.6</ele>
        <time>2024-04-27T10:07:05Z</time>
      </trkpt>
      <trkpt lat="45.84968" lon="6.44164">
        <ele>2208.6</ele>
        <time>2024-04-27T10:07:06Z</time>
      </trkpt>
      <trkpt lat="45.84968" lon="6.44164">
        <ele>2208.6</ele>
        <time>2024-04-27T10:07:07Z</time>
      </trkpt>
      <trkpt lat="45.84968" lon="6.44164">
        <ele>2208.6</ele>
        <time>2024-04-27T10:07:08Z</time>
      </trkpt>
      <trkpt lat="45.84967" lon="6.44164">
        <ele>2207.7</ele>
        <time>2024-04-27T10:07:09Z</time>
      </trkpt>
      <trkpt lat="45.84967" lon="6.44164">
        <ele>2207.7</ele>
        <time>2024-04-27T10:07:10Z</time>
      </trkpt>
      <trkpt lat="45.84967" lon="6.44164">
        <ele>2207.7</ele>
        <time>2024-04-27T10:07:11Z</time>
      </trkpt>
      <trkpt lat="45.84967" lon="6.44164">
        <ele>2207.7</ele>
        <time>2024-04-27T10:07:12Z</time>
      </trkpt>
      <trkpt lat="45.84967" lon="6.44164">
        <ele>2207.7</ele>
        <time>2024-04-27T10:07:13Z</time>
      </trkpt>
      <trkpt lat="45.84967" lon="6.44164">
        <ele>2207.7</ele>
        <time>2024-04-27T10:07:14Z</time>
      </trkpt>
      <trkpt lat="45.84967" lon="6.44165">
        <ele>2206.6</ele>
        <time>2024-04-27T10:07:15Z</time>
      </trkpt>
      <trkpt lat="45.84967" lon="6.44165">
        <ele>2206.6</ele>
        <time>2024-04-27T10:07:16Z</time>
      </trkpt>
      <trkpt lat="45.84967" lon="6.44166">
        <ele>2206.6</ele>
        <time>2024-04-27T10:07:17Z</time>
      </trkpt>
      <trkpt lat="45.84967" lon="6.44167">
        <ele>2206.6</ele>
        <time>2024-04-27T10:07:18Z</time>
      </trkpt>
      <trkpt lat="45.84967" lon="6.44167">
        <ele>2206.6</ele>
        <time>2024-04-27T10:07:19Z</time>
      </trkpt>
      <trkpt lat="45.84967" lon="6.44168">
        <ele>2206.6</ele>
        <time>2024-04-27T10:07:20Z</time>
      </trkpt>
      <trkpt lat="45.84967" lon="6.44168">
        <ele>2206.6</ele>
        <time>2024-04-27T10:07:21Z</time>
      </trkpt>
      <trkpt lat="45.84967" lon="6.44168">
        <ele>2206.6</ele>
        <time>2024-04-27T10:07:22Z</time>
      </trkpt>
      <trkpt lat="45.84967" lon="6.44168">
        <ele>2206.6</ele>
        <time>2024-04-27T10:07:23Z</time>
      </trkpt>
      <trkpt lat="45.84967" lon="6.44169">
        <ele>2206.6</ele>
        <time>2024-04-27T10:07:24Z</time>
      </trkpt>
      <trkpt lat="45.84967" lon="6.44169">
        <ele>2206.6</ele>
        <time>2024-04-27T10:07:25Z</time>
      </trkpt>
      <trkpt lat="45.84967" lon="6.4417">
        <ele>2206.6</ele>
        <time>2024-04-27T10:07:26Z</time>
      </trkpt>
      <trkpt lat="45.84967" lon="6.4417">
        <ele>2206.6</ele>
        <time>2024-04-27T10:07:27Z</time>
      </trkpt>
      <trkpt lat="45.84967" lon="6.44171">
        <ele>2206.6</ele>
        <time>2024-04-27T10:07:28Z</time>
      </trkpt>
      <trkpt lat="45.84967" lon="6.44171">
        <ele>2207.7</ele>
        <time>2024-04-27T10:07:29Z</time>
      </trkpt>
      <trkpt lat="45.84967" lon="6.44173">
        <ele>2207.7</ele>
        <time>2024-04-27T10:07:30Z</time>
      </trkpt>
      <trkpt lat="45.84967" lon="6.44174">
        <ele>2207.7</ele>
        <time>2024-04-27T10:07:31Z</time>
      </trkpt>
      <trkpt lat="45.84967" lon="6.44174">
        <ele>2207.7</ele>
        <time>2024-04-27T10:07:32Z</time>
      </trkpt>
      <trkpt lat="45.84967" lon="6.44174">
        <ele>2207.7</ele>
        <time>2024-04-27T10:07:33Z</time>
      </trkpt>
      <trkpt lat="45.84967" lon="6.44174">
        <ele>2207.7</ele>
        <time>2024-04-27T10:07:34Z</time>
      </trkpt>
      <trkpt lat="45.84968" lon="6.44174">
        <ele>2207.7</ele>
        <time>2024-04-27T10:07:35Z</time>
      </trkpt>
      <trkpt lat="45.84968" lon="6.44174">
        <ele>2207.7</ele>
        <time>2024-04-27T10:07:36Z</time>
      </trkpt>
      <trkpt lat="45.84968" lon="6.44174">
        <ele>2207.7</ele>
        <time>2024-04-27T10:07:37Z</time>
      </trkpt>
      <trkpt lat="45.84968" lon="6.44174">
        <ele>2207.7</ele>
        <time>2024-04-27T10:07:38Z</time>
      </trkpt>
      <trkpt lat="45.84968" lon="6.44174">
        <ele>2207.7</ele>
        <time>2024-04-27T10:07:39Z</time>
      </trkpt>
      <trkpt lat="45.84968" lon="6.44174">
        <ele>2207.7</ele>
        <time>2024-04-27T10:07:40Z</time>
      </trkpt>
      <trkpt lat="45.84968" lon="6.44174">
        <ele>2207.7</ele>
        <time>2024-04-27T10:07:41Z</time>
      </trkpt>
      <trkpt lat="45.84968" lon="6.44174">
        <ele>2207.7</ele>
        <time>2024-04-27T10:07:42Z</time>
      </trkpt>
      <trkpt lat="45.84968" lon="6.44174">
        <ele>2207.7</ele>
        <time>2024-04-27T10:07:43Z</time>
      </trkpt>
      <trkpt lat="45.84968" lon="6.44174">
        <ele>2207.7</ele>
        <time>2024-04-27T10:07:44Z</time>
      </trkpt>
      <trkpt lat="45.84968" lon="6.44174">
        <ele>2207.7</ele>
        <time>2024-04-27T10:07:45Z</time>
      </trkpt>
      <trkpt lat="45.84968" lon="6.44174">
        <ele>2207.7</ele>
        <time>2024-04-27T10:07:46Z</time>
      </trkpt>
      <trkpt lat="45.84968" lon="6.44174">
        <ele>2206.6</ele>
        <time>2024-04-27T10:07:47Z</time>
      </trkpt>
      <trkpt lat="45.84968" lon="6.44173">
        <ele>2206.6</ele>
        <time>2024-04-27T10:07:48Z</time>
      </trkpt>
      <trkpt lat="45.84969" lon="6.44173">
        <ele>2206.6</ele>
        <time>2024-04-27T10:07:49Z</time>
      </trkpt>
      <trkpt lat="45.84969" lon="6.44173">
        <ele>2206.6</ele>
        <time>2024-04-27T10:07:50Z</time>
      </trkpt>
      <trkpt lat="45.84969" lon="6.44173">
        <ele>2206.6</ele>
        <time>2024-04-27T10:07:51Z</time>
      </trkpt>
      <trkpt lat="45.84969" lon="6.44172">
        <ele>2206.6</ele>
        <time>2024-04-27T10:07:52Z</time>
      </trkpt>
      <trkpt lat="45.84969" lon="6.44172">
        <ele>2206.6</ele>
        <time>2024-04-27T10:07:53Z</time>
      </trkpt>
      <trkpt lat="45.84969" lon="6.44172">
        <ele>2206.6</ele>
        <time>2024-04-27T10:07:54Z</time>
      </trkpt>
      <trkpt lat="45.84969" lon="6.44172">
        <ele>2206.6</ele>
        <time>2024-04-27T10:07:55Z</time>
      </trkpt>
      <trkpt lat="45.84969" lon="6.44172">
        <ele>2206.6</ele>
        <time>2024-04-27T10:07:56Z</time>
      </trkpt>
      <trkpt lat="45.84969" lon="6.44172">
        <ele>2206.6</ele>
        <time>2024-04-27T10:07:57Z</time>
      </trkpt>
      <trkpt lat="45.84969" lon="6.44172">
        <ele>2206.6</ele>
        <time>2024-04-27T10:07:58Z</time>
      </trkpt>
      <trkpt lat="45.84969" lon="6.44172">
        <ele>2206.6</ele>
        <time>2024-04-27T10:07:59Z</time>
      </trkpt>
      <trkpt lat="45.84969" lon="6.44171">
        <ele>2206.6</ele>
        <time>2024-04-27T10:08:00Z</time>
      </trkpt>
      <trkpt lat="45.84969" lon="6.44171">
        <ele>2206.6</ele>
        <time>2024-04-27T10:08:01Z</time>
      </trkpt>
      <trkpt lat="45.84969" lon="6.44171">
        <ele>2206.6</ele>
        <time>2024-04-27T10:08:02Z</time>
      </trkpt>
      <trkpt lat="45.84969" lon="6.44171">
        <ele>2207.7</ele>
        <time>2024-04-27T10:08:03Z</time>
      </trkpt>
      <trkpt lat="45.84969" lon="6.44171">
        <ele>2207.7</ele>
        <time>2024-04-27T10:08:04Z</time>
      </trkpt>
      <trkpt lat="45.84969" lon="6.44171">
        <ele>2207.7</ele>
        <time>2024-04-27T10:08:05Z</time>
      </trkpt>
      <trkpt lat="45.84969" lon="6.4417">
        <ele>2207.7</ele>
        <time>2024-04-27T10:08:06Z</time>
      </trkpt>
      <trkpt lat="45.84969" lon="6.4417">
        <ele>2207.7</ele>
        <time>2024-04-27T10:08:07Z</time>
      </trkpt>
      <trkpt lat="45.84969" lon="6.44169">
        <ele>2207.7</ele>
        <time>2024-04-27T10:08:08Z</time>
      </trkpt>
      <trkpt lat="45.84969" lon="6.44169">
        <ele>2207.7</ele>
        <time>2024-04-27T10:08:09Z</time>
      </trkpt>
      <trkpt lat="45.84969" lon="6.44169">
        <ele>2207.7</ele>
        <time>2024-04-27T10:08:10Z</time>
      </trkpt>
      <trkpt lat="45.84968" lon="6.44168">
        <ele>2207.7</ele>
        <time>2024-04-27T10:08:11Z</time>
      </trkpt>
      <trkpt lat="45.84968" lon="6.44167">
        <ele>2207.7</ele>
        <time>2024-04-27T10:08:12Z</time>
      </trkpt>
      <trkpt lat="45.84968" lon="6.44166">
        <ele>2207.7</ele>
        <time>2024-04-27T10:08:13Z</time>
      </trkpt>
      <trkpt lat="45.84969" lon="6.44164">
        <ele>2207.7</ele>
        <time>2024-04-27T10:08:14Z</time>
      </trkpt>
      <trkpt lat="45.84968" lon="6.44162">
        <ele>2206.6</ele>
        <time>2024-04-27T10:08:15Z</time>
      </trkpt>
      <trkpt lat="45.84968" lon="6.44161">
        <ele>2206.6</ele>
        <time>2024-04-27T10:08:16Z</time>
      </trkpt>
      <trkpt lat="45.84968" lon="6.4416">
        <ele>2205.7</ele>
        <time>2024-04-27T10:08:17Z</time>
      </trkpt>
      <trkpt lat="45.84968" lon="6.44159">
        <ele>2205.7</ele>
        <time>2024-04-27T10:08:18Z</time>
      </trkpt>
      <trkpt lat="45.84968" lon="6.44158">
        <ele>2204.6</ele>
        <time>2024-04-27T10:08:19Z</time>
      </trkpt>
      <trkpt lat="45.84968" lon="6.44157">
        <ele>2204.6</ele>
        <time>2024-04-27T10:08:20Z</time>
      </trkpt>
      <trkpt lat="45.84968" lon="6.44157">
        <ele>2204.6</ele>
        <time>2024-04-27T10:08:21Z</time>
      </trkpt>
      <trkpt lat="45.84968" lon="6.44157">
        <ele>2204.6</ele>
        <time>2024-04-27T10:08:22Z</time>
      </trkpt>
      <trkpt lat="45.84967" lon="6.44157">
        <ele>2204.6</ele>
        <time>2024-04-27T10:08:23Z</time>
      </trkpt>
      <trkpt lat="45.84967" lon="6.44156">
        <ele>2204.6</ele>
        <time>2024-04-27T10:08:24Z</time>
      </trkpt>
      <trkpt lat="45.84967" lon="6.44155">
        <ele>2203.6</ele>
        <time>2024-04-27T10:08:25Z</time>
      </trkpt>
      <trkpt lat="45.84967" lon="6.44155">
        <ele>2203.6</ele>
        <time>2024-04-27T10:08:26Z</time>
      </trkpt>
      <trkpt lat="45.84967" lon="6.44154">
        <ele>2203.6</ele>
        <time>2024-04-27T10:08:27Z</time>
      </trkpt>
      <trkpt lat="45.84966" lon="6.44154">
        <ele>2203.6</ele>
        <time>2024-04-27T10:08:28Z</time>
      </trkpt>
      <trkpt lat="45.84965" lon="6.44155">
        <ele>2203.6</ele>
        <time>2024-04-27T10:08:29Z</time>
      </trkpt>
      <trkpt lat="45.84966" lon="6.44154">
        <ele>2203.6</ele>
        <time>2024-04-27T10:08:30Z</time>
      </trkpt>
      <trkpt lat="45.84966" lon="6.44155">
        <ele>2203.6</ele>
        <time>2024-04-27T10:08:31Z</time>
      </trkpt>
      <trkpt lat="45.84965" lon="6.44155">
        <ele>2203.6</ele>
        <time>2024-04-27T10:08:32Z</time>
      </trkpt>
      <trkpt lat="45.84965" lon="6.44156">
        <ele>2203.6</ele>
        <time>2024-04-27T10:08:33Z</time>
      </trkpt>
      <trkpt lat="45.84965" lon="6.44156">
        <ele>2203.6</ele>
        <time>2024-04-27T10:08:34Z</time>
      </trkpt>
      <trkpt lat="45.84965" lon="6.44156">
        <ele>2204.6</ele>
        <time>2024-04-27T10:08:35Z</time>
      </trkpt>
      <trkpt lat="45.84965" lon="6.44156">
        <ele>2204.6</ele>
        <time>2024-04-27T10:08:36Z</time>
      </trkpt>
      <trkpt lat="45.84965" lon="6.44156">
        <ele>2204.6</ele>
        <time>2024-04-27T10:08:37Z</time>
      </trkpt>
      <trkpt lat="45.84965" lon="6.44156">
        <ele>2204.6</ele>
        <time>2024-04-27T10:08:38Z</time>
      </trkpt>
      <trkpt lat="45.84965" lon="6.44156">
        <ele>2204.6</ele>
        <time>2024-04-27T10:08:39Z</time>
      </trkpt>
      <trkpt lat="45.84965" lon="6.44156">
        <ele>2204.6</ele>
        <time>2024-04-27T10:08:40Z</time>
      </trkpt>
      <trkpt lat="45.84965" lon="6.44156">
        <ele>2203.6</ele>
        <time>2024-04-27T10:08:41Z</time>
      </trkpt>
      <trkpt lat="45.84965" lon="6.44156">
        <ele>2203.6</ele>
        <time>2024-04-27T10:08:42Z</time>
      </trkpt>
      <trkpt lat="45.84965" lon="6.44156">
        <ele>2203.6</ele>
        <time>2024-04-27T10:08:43Z</time>
      </trkpt>
      <trkpt lat="45.84965" lon="6.44155">
        <ele>2203.6</ele>
        <time>2024-04-27T10:08:44Z</time>
      </trkpt>
      <trkpt lat="45.84965" lon="6.44155">
        <ele>2203.6</ele>
        <time>2024-04-27T10:08:45Z</time>
      </trkpt>
      <trkpt lat="45.84965" lon="6.44155">
        <ele>2203.6</ele>
        <time>2024-04-27T10:08:46Z</time>
      </trkpt>
      <trkpt lat="45.84965" lon="6.44155">
        <ele>2203.6</ele>
        <time>2024-04-27T10:08:47Z</time>
      </trkpt>
      <trkpt lat="45.84965" lon="6.44155">
        <ele>2203.6</ele>
        <time>2024-04-27T10:08:48Z</time>
      </trkpt>
      <trkpt lat="45.84965" lon="6.44155">
        <ele>2203.6</ele>
        <time>2024-04-27T10:08:49Z</time>
      </trkpt>
      <trkpt lat="45.84965" lon="6.44155">
        <ele>2203.6</ele>
        <time>2024-04-27T10:08:50Z</time>
      </trkpt>
      <trkpt lat="45.84965" lon="6.44155">
        <ele>2204.6</ele>
        <time>2024-04-27T10:08:51Z</time>
      </trkpt>
      <trkpt lat="45.84965" lon="6.44155">
        <ele>2204.6</ele>
        <time>2024-04-27T10:08:52Z</time>
      </trkpt>
      <trkpt lat="45.84965" lon="6.44155">
        <ele>2204.6</ele>
        <time>2024-04-27T10:08:53Z</time>
      </trkpt>
      <trkpt lat="45.84965" lon="6.44155">
        <ele>2204.6</ele>
        <time>2024-04-27T10:08:54Z</time>
      </trkpt>
      <trkpt lat="45.84965" lon="6.44155">
        <ele>2203.6</ele>
        <time>2024-04-27T10:08:55Z</time>
      </trkpt>
      <trkpt lat="45.84965" lon="6.44155">
        <ele>2203.6</ele>
        <time>2024-04-27T10:08:56Z</time>
      </trkpt>
      <trkpt lat="45.84965" lon="6.44155">
        <ele>2203.6</ele>
        <time>2024-04-27T10:08:57Z</time>
      </trkpt>
      <trkpt lat="45.84965" lon="6.44155">
        <ele>2203.6</ele>
        <time>2024-04-27T10:08:58Z</time>
      </trkpt>
      <trkpt lat="45.84965" lon="6.44155">
        <ele>2202.7</ele>
        <time>2024-04-27T10:08:59Z</time>
      </trkpt>
      <trkpt lat="45.84965" lon="6.44155">
        <ele>2202.7</ele>
        <time>2024-04-27T10:09:00Z</time>
      </trkpt>
      <trkpt lat="45.84965" lon="6.44156">
        <ele>2202.7</ele>
        <time>2024-04-27T10:09:01Z</time>
      </trkpt>
      <trkpt lat="45.84964" lon="6.44156">
        <ele>2202.7</ele>
        <time>2024-04-27T10:09:02Z</time>
      </trkpt>
      <trkpt lat="45.84964" lon="6.44156">
        <ele>2202.7</ele>
        <time>2024-04-27T10:09:03Z</time>
      </trkpt>
      <trkpt lat="45.84964" lon="6.44156">
        <ele>2202.7</ele>
        <time>2024-04-27T10:09:04Z</time>
      </trkpt>
      <trkpt lat="45.84964" lon="6.44156">
        <ele>2202.7</ele>
        <time>2024-04-27T10:09:05Z</time>
      </trkpt>
      <trkpt lat="45.84964" lon="6.44156">
        <ele>2202.7</ele>
        <time>2024-04-27T10:09:06Z</time>
      </trkpt>
      <trkpt lat="45.84964" lon="6.44156">
        <ele>2202.7</ele>
        <time>2024-04-27T10:09:07Z</time>
      </trkpt>
      <trkpt lat="45.84964" lon="6.44156">
        <ele>2202.7</ele>
        <time>2024-04-27T10:09:08Z</time>
      </trkpt>
      <trkpt lat="45.84964" lon="6.44156">
        <ele>2201.6</ele>
        <time>2024-04-27T10:09:09Z</time>
      </trkpt>
      <trkpt lat="45.84963" lon="6.44156">
        <ele>2201.6</ele>
        <time>2024-04-27T10:09:10Z</time>
      </trkpt>
      <trkpt lat="45.84963" lon="6.44156">
        <ele>2200.7</ele>
        <time>2024-04-27T10:09:11Z</time>
      </trkpt>
      <trkpt lat="45.84963" lon="6.44156">
        <ele>2200.7</ele>
        <time>2024-04-27T10:09:12Z</time>
      </trkpt>
      <trkpt lat="45.84963" lon="6.44156">
        <ele>2200.7</ele>
        <time>2024-04-27T10:09:13Z</time>
      </trkpt>
      <trkpt lat="45.84963" lon="6.44156">
        <ele>2200.7</ele>
        <time>2024-04-27T10:09:14Z</time>
      </trkpt>
      <trkpt lat="45.84963" lon="6.44156">
        <ele>2201.6</ele>
        <time>2024-04-27T10:09:15Z</time>
      </trkpt>
      <trkpt lat="45.84963" lon="6.44156">
        <ele>2201.6</ele>
        <time>2024-04-27T10:09:16Z</time>
      </trkpt>
      <trkpt lat="45.84963" lon="6.44156">
        <ele>2201.6</ele>
        <time>2024-04-27T10:09:17Z</time>
      </trkpt>
      <trkpt lat="45.84963" lon="6.44156">
        <ele>2201.6</ele>
        <time>2024-04-27T10:09:18Z</time>
      </trkpt>
      <trkpt lat="45.84963" lon="6.44156">
        <ele>2201.6</ele>
        <time>2024-04-27T10:09:19Z</time>
      </trkpt>
      <trkpt lat="45.84963" lon="6.44156">
        <ele>2201.6</ele>
        <time>2024-04-27T10:09:20Z</time>
      </trkpt>
      <trkpt lat="45.84964" lon="6.44156">
        <ele>2201.6</ele>
        <time>2024-04-27T10:09:21Z</time>
      </trkpt>
      <trkpt lat="45.84964" lon="6.44156">
        <ele>2201.6</ele>
        <time>2024-04-27T10:09:22Z</time>
      </trkpt>
      <trkpt lat="45.84964" lon="6.44156">
        <ele>2201.6</ele>
        <time>2024-04-27T10:09:23Z</time>
      </trkpt>
      <trkpt lat="45.84964" lon="6.44156">
        <ele>2201.6</ele>
        <time>2024-04-27T10:09:24Z</time>
      </trkpt>
      <trkpt lat="45.84964" lon="6.44156">
        <ele>2201.6</ele>
        <time>2024-04-27T10:09:25Z</time>
      </trkpt>
      <trkpt lat="45.84964" lon="6.44156">
        <ele>2201.6</ele>
        <time>2024-04-27T10:09:26Z</time>
      </trkpt>
      <trkpt lat="45.84964" lon="6.44156">
        <ele>2202.7</ele>
        <time>2024-04-27T10:09:27Z</time>
      </trkpt>
      <trkpt lat="45.84964" lon="6.44156">
        <ele>2202.7</ele>
        <time>2024-04-27T10:09:28Z</time>
      </trkpt>
      <trkpt lat="45.84964" lon="6.44156">
        <ele>2202.7</ele>
        <time>2024-04-27T10:09:29Z</time>
      </trkpt>
      <trkpt lat="45.84964" lon="6.44156">
        <ele>2202.7</ele>
        <time>2024-04-27T10:09:30Z</time>
      </trkpt>
      <trkpt lat="45.84965" lon="6.44156">
        <ele>2202.7</ele>
        <time>2024-04-27T10:09:31Z</time>
      </trkpt>
      <trkpt lat="45.84965" lon="6.44156">
        <ele>2202.7</ele>
        <time>2024-04-27T10:09:32Z</time>
      </trkpt>
      <trkpt lat="45.84966" lon="6.44156">
        <ele>2202.7</ele>
        <time>2024-04-27T10:09:33Z</time>
      </trkpt>
      <trkpt lat="45.84966" lon="6.44156">
        <ele>2202.7</ele>
        <time>2024-04-27T10:09:34Z</time>
      </trkpt>
      <trkpt lat="45.84966" lon="6.44156">
        <ele>2203.6</ele>
        <time>2024-04-27T10:09:35Z</time>
      </trkpt>
      <trkpt lat="45.84966" lon="6.44156">
        <ele>2203.6</ele>
        <time>2024-04-27T10:09:36Z</time>
      </trkpt>
      <trkpt lat="45.84966" lon="6.44156">
        <ele>2203.6</ele>
        <time>2024-04-27T10:09:37Z</time>
      </trkpt>
      <trkpt lat="45.84966" lon="6.44156">
        <ele>2203.6</ele>
        <time>2024-04-27T10:09:38Z</time>
      </trkpt>
      <trkpt lat="45.84966" lon="6.44156">
        <ele>2203.6</ele>
        <time>2024-04-27T10:09:39Z</time>
      </trkpt>
      <trkpt lat="45.84966" lon="6.44156">
        <ele>2203.6</ele>
        <time>2024-04-27T10:09:40Z</time>
      </trkpt>
      <trkpt lat="45.84967" lon="6.44156">
        <ele>2203.6</ele>
        <time>2024-04-27T10:09:41Z</time>
      </trkpt>
      <trkpt lat="45.84967" lon="6.44156">
        <ele>2203.6</ele>
        <time>2024-04-27T10:09:42Z</time>
      </trkpt>
      <trkpt lat="45.84967" lon="6.44156">
        <ele>2203.6</ele>
        <time>2024-04-27T10:09:43Z</time>
      </trkpt>
      <trkpt lat="45.84967" lon="6.44155">
        <ele>2203.6</ele>
        <time>2024-04-27T10:09:44Z</time>
      </trkpt>
      <trkpt lat="45.84967" lon="6.44155">
        <ele>2203.6</ele>
        <time>2024-04-27T10:09:45Z</time>
      </trkpt>
      <trkpt lat="45.84967" lon="6.44155">
        <ele>2203.6</ele>
        <time>2024-04-27T10:09:46Z</time>
      </trkpt>
      <trkpt lat="45.84967" lon="6.44155">
        <ele>2203.6</ele>
        <time>2024-04-27T10:09:47Z</time>
      </trkpt>
      <trkpt lat="45.84967" lon="6.44155">
        <ele>2203.6</ele>
        <time>2024-04-27T10:09:48Z</time>
      </trkpt>
      <trkpt lat="45.84967" lon="6.44155">
        <ele>2203.6</ele>
        <time>2024-04-27T10:09:49Z</time>
      </trkpt>
      <trkpt lat="45.84967" lon="6.44155">
        <ele>2203.6</ele>
        <time>2024-04-27T10:09:50Z</time>
      </trkpt>
      <trkpt lat="45.84967" lon="6.44155">
        <ele>2203.6</ele>
        <time>2024-04-27T10:09:51Z</time>
      </trkpt>
      <trkpt lat="45.84967" lon="6.44155">
        <ele>2203.6</ele>
        <time>2024-04-27T10:09:52Z</time>
      </trkpt>
      <trkpt lat="45.84967" lon="6.44155">
        <ele>2203.6</ele>
        <time>2024-04-27T10:09:53Z</time>
      </trkpt>
      <trkpt lat="45.84968" lon="6.44155">
        <ele>2203.6</ele>
        <time>2024-04-27T10:09:54Z</time>
      </trkpt>
      <trkpt lat="45.84968" lon="6.44155">
        <ele>2203.6</ele>
        <time>2024-04-27T10:09:55Z</time>
      </trkpt>
      <trkpt lat="45.84968" lon="6.44155">
        <ele>2203.6</ele>
        <time>2024-04-27T10:09:56Z</time>
      </trkpt>
      <trkpt lat="45.84968" lon="6.44155">
        <ele>2203.6</ele>
        <time>2024-04-27T10:09:57Z</time>
      </trkpt>
      <trkpt lat="45.84968" lon="6.44155">
        <ele>2203.6</ele>
        <time>2024-04-27T10:09:58Z</time>
      </trkpt>
      <trkpt lat="45.84969" lon="6.44155">
        <ele>2203.6</ele>
        <time>2024-04-27T10:09:59Z</time>
      </trkpt>
      <trkpt lat="45.84969" lon="6.44155">
        <ele>2203.6</ele>
        <time>2024-04-27T10:10:00Z</time>
      </trkpt>
      <trkpt lat="45.84969" lon="6.44155">
        <ele>2203.6</ele>
        <time>2024-04-27T10:10:01Z</time>
      </trkpt>
      <trkpt lat="45.84969" lon="6.44155">
        <ele>2203.6</ele>
        <time>2024-04-27T10:10:02Z</time>
      </trkpt>
      <trkpt lat="45.84969" lon="6.44154">
        <ele>2203.6</ele>
        <time>2024-04-27T10:10:03Z</time>
      </trkpt>
      <trkpt lat="45.84969" lon="6.44154">
        <ele>2203.6</ele>
        <time>2024-04-27T10:10:04Z</time>
      </trkpt>
      <trkpt lat="45.84969" lon="6.44154">
        <ele>2203.6</ele>
        <time>2024-04-27T10:10:05Z</time>
      </trkpt>
      <trkpt lat="45.84969" lon="6.44154">
        <ele>2203.6</ele>
        <time>2024-04-27T10:10:06Z</time>
      </trkpt>
      <trkpt lat="45.84969" lon="6.44154">
        <ele>2203.6</ele>
        <time>2024-04-27T10:10:07Z</time>
      </trkpt>
      <trkpt lat="45.8497" lon="6.44154">
        <ele>2203.6</ele>
        <time>2024-04-27T10:10:08Z</time>
      </trkpt>
      <trkpt lat="45.8497" lon="6.44154">
        <ele>2203.6</ele>
        <time>2024-04-27T10:10:09Z</time>
      </trkpt>
      <trkpt lat="45.8497" lon="6.44154">
        <ele>2203.6</ele>
        <time>2024-04-27T10:10:10Z</time>
      </trkpt>
      <trkpt lat="45.8497" lon="6.44154">
        <ele>2203.6</ele>
        <time>2024-04-27T10:10:11Z</time>
      </trkpt>
      <trkpt lat="45.8497" lon="6.44154">
        <ele>2203.6</ele>
        <time>2024-04-27T10:10:12Z</time>
      </trkpt>
      <trkpt lat="45.8497" lon="6.44154">
        <ele>2203.6</ele>
        <time>2024-04-27T10:10:13Z</time>
      </trkpt>
      <trkpt lat="45.8497" lon="6.44154">
        <ele>2203.6</ele>
        <time>2024-04-27T10:10:14Z</time>
      </trkpt>
      <trkpt lat="45.8497" lon="6.44154">
        <ele>2203.6</ele>
        <time>2024-04-27T10:10:15Z</time>
      </trkpt>
      <trkpt lat="45.8497" lon="6.44154">
        <ele>2203.6</ele>
        <time>2024-04-27T10:10:16Z</time>
      </trkpt>
      <trkpt lat="45.8497" lon="6.44154">
        <ele>2203.6</ele>
        <time>2024-04-27T10:10:17Z</time>
      </trkpt>
      <trkpt lat="45.8497" lon="6.44154">
        <ele>2203.6</ele>
        <time>2024-04-27T10:10:18Z</time>
      </trkpt>
      <trkpt lat="45.8497" lon="6.44154">
        <ele>2204.6</ele>
        <time>2024-04-27T10:10:19Z</time>
      </trkpt>
      <trkpt lat="45.8497" lon="6.44154">
        <ele>2204.6</ele>
        <time>2024-04-27T10:10:20Z</time>
      </trkpt>
      <trkpt lat="45.8497" lon="6.44154">
        <ele>2204.6</ele>
        <time>2024-04-27T10:10:21Z</time>
      </trkpt>
      <trkpt lat="45.84971" lon="6.44154">
        <ele>2204.6</ele>
        <time>2024-04-27T10:10:22Z</time>
      </trkpt>
      <trkpt lat="45.84971" lon="6.44154">
        <ele>2204.6</ele>
        <time>2024-04-27T10:10:23Z</time>
      </trkpt>
      <trkpt lat="45.84971" lon="6.44154">
        <ele>2204.6</ele>
        <time>2024-04-27T10:10:24Z</time>
      </trkpt>
      <trkpt lat="45.84971" lon="6.44154">
        <ele>2204.6</ele>
        <time>2024-04-27T10:10:25Z</time>
      </trkpt>
      <trkpt lat="45.84971" lon="6.44154">
        <ele>2204.6</ele>
        <time>2024-04-27T10:10:26Z</time>
      </trkpt>
      <trkpt lat="45.84971" lon="6.44154">
        <ele>2204.6</ele>
        <time>2024-04-27T10:10:27Z</time>
      </trkpt>
      <trkpt lat="45.84971" lon="6.44154">
        <ele>2204.6</ele>
        <time>2024-04-27T10:10:28Z</time>
      </trkpt>
      <trkpt lat="45.84971" lon="6.44154">
        <ele>2204.6</ele>
        <time>2024-04-27T10:10:29Z</time>
      </trkpt>
      <trkpt lat="45.84971" lon="6.44154">
        <ele>2204.6</ele>
        <time>2024-04-27T10:10:30Z</time>
      </trkpt>
      <trkpt lat="45.84971" lon="6.44154">
        <ele>2204.6</ele>
        <time>2024-04-27T10:10:31Z</time>
      </trkpt>
      <trkpt lat="45.84971" lon="6.44154">
        <ele>2204.6</ele>
        <time>2024-04-27T10:10:32Z</time>
      </trkpt>
      <trkpt lat="45.84971" lon="6.44154">
        <ele>2204.6</ele>
        <time>2024-04-27T10:10:33Z</time>
      </trkpt>
      <trkpt lat="45.84971" lon="6.44154">
        <ele>2204.6</ele>
        <time>2024-04-27T10:10:34Z</time>
      </trkpt>
      <trkpt lat="45.84972" lon="6.44154">
        <ele>2204.6</ele>
        <time>2024-04-27T10:10:35Z</time>
      </trkpt>
      <trkpt lat="45.84972" lon="6.44154">
        <ele>2204.6</ele>
        <time>2024-04-27T10:10:36Z</time>
      </trkpt>
      <trkpt lat="45.84972" lon="6.44154">
        <ele>2204.6</ele>
        <time>2024-04-27T10:10:37Z</time>
      </trkpt>
      <trkpt lat="45.84972" lon="6.44154">
        <ele>2204.6</ele>
        <time>2024-04-27T10:10:38Z</time>
      </trkpt>
      <trkpt lat="45.84972" lon="6.44154">
        <ele>2204.6</ele>
        <time>2024-04-27T10:10:39Z</time>
      </trkpt>
      <trkpt lat="45.84972" lon="6.44154">
        <ele>2204.6</ele>
        <time>2024-04-27T10:10:40Z</time>
      </trkpt>
      <trkpt lat="45.84972" lon="6.44154">
        <ele>2204.6</ele>
        <time>2024-04-27T10:10:41Z</time>
      </trkpt>
      <trkpt lat="45.84972" lon="6.44154">
        <ele>2204.6</ele>
        <time>2024-04-27T10:10:42Z</time>
      </trkpt>
      <trkpt lat="45.84972" lon="6.44154">
        <ele>2204.6</ele>
        <time>2024-04-27T10:10:43Z</time>
      </trkpt>
      <trkpt lat="45.84972" lon="6.44154">
        <ele>2204.6</ele>
        <time>2024-04-27T10:10:44Z</time>
      </trkpt>
      <trkpt lat="45.84972" lon="6.44154">
        <ele>2204.6</ele>
        <time>2024-04-27T10:10:45Z</time>
      </trkpt>
      <trkpt lat="45.84972" lon="6.44154">
        <ele>2204.6</ele>
        <time>2024-04-27T10:10:46Z</time>
      </trkpt>
      <trkpt lat="45.84972" lon="6.44154">
        <ele>2204.6</ele>
        <time>2024-04-27T10:10:47Z</time>
      </trkpt>
      <trkpt lat="45.84972" lon="6.44154">
        <ele>2204.6</ele>
        <time>2024-04-27T10:10:48Z</time>
      </trkpt>
      <trkpt lat="45.84972" lon="6.44154">
        <ele>2204.6</ele>
        <time>2024-04-27T10:10:49Z</time>
      </trkpt>
      <trkpt lat="45.84972" lon="6.44154">
        <ele>2204.6</ele>
        <time>2024-04-27T10:10:50Z</time>
      </trkpt>
      <trkpt lat="45.84972" lon="6.44154">
        <ele>2204.6</ele>
        <time>2024-04-27T10:10:51Z</time>
      </trkpt>
      <trkpt lat="45.84972" lon="6.44154">
        <ele>2204.6</ele>
        <time>2024-04-27T10:10:52Z</time>
      </trkpt>
      <trkpt lat="45.84972" lon="6.44154">
        <ele>2204.6</ele>
        <time>2024-04-27T10:10:53Z</time>
      </trkpt>
      <trkpt lat="45.84971" lon="6.44154">
        <ele>2204.6</ele>
        <time>2024-04-27T10:10:54Z</time>
      </trkpt>
      <trkpt lat="45.84971" lon="6.44154">
        <ele>2204.6</ele>
        <time>2024-04-27T10:10:55Z</time>
      </trkpt>
      <trkpt lat="45.84971" lon="6.44154">
        <ele>2204.6</ele>
        <time>2024-04-27T10:10:56Z</time>
      </trkpt>
      <trkpt lat="45.8497" lon="6.44154">
        <ele>2204.6</ele>
        <time>2024-04-27T10:10:57Z</time>
      </trkpt>
      <trkpt lat="45.8497" lon="6.44154">
        <ele>2204.6</ele>
        <time>2024-04-27T10:10:58Z</time>
      </trkpt>
      <trkpt lat="45.8497" lon="6.44154">
        <ele>2204.6</ele>
        <time>2024-04-27T10:10:59Z</time>
      </trkpt>
      <trkpt lat="45.8497" lon="6.44154">
        <ele>2204.6</ele>
        <time>2024-04-27T10:11:00Z</time>
      </trkpt>
      <trkpt lat="45.8497" lon="6.44154">
        <ele>2204.6</ele>
        <time>2024-04-27T10:11:01Z</time>
      </trkpt>
      <trkpt lat="45.8497" lon="6.44154">
        <ele>2204.6</ele>
        <time>2024-04-27T10:11:02Z</time>
      </trkpt>
      <trkpt lat="45.84969" lon="6.44154">
        <ele>2204.6</ele>
        <time>2024-04-27T10:11:03Z</time>
      </trkpt>
      <trkpt lat="45.84969" lon="6.44154">
        <ele>2204.6</ele>
        <time>2024-04-27T10:11:04Z</time>
      </trkpt>
      <trkpt lat="45.84969" lon="6.44154">
        <ele>2205.7</ele>
        <time>2024-04-27T10:11:05Z</time>
      </trkpt>
      <trkpt lat="45.84969" lon="6.44154">
        <ele>2205.7</ele>
        <time>2024-04-27T10:11:06Z</time>
      </trkpt>
      <trkpt lat="45.84969" lon="6.44154">
        <ele>2205.7</ele>
        <time>2024-04-27T10:11:07Z</time>
      </trkpt>
      <trkpt lat="45.84969" lon="6.44154">
        <ele>2205.7</ele>
        <time>2024-04-27T10:11:08Z</time>
      </trkpt>
      <trkpt lat="45.84969" lon="6.44154">
        <ele>2205.7</ele>
        <time>2024-04-27T10:11:09Z</time>
      </trkpt>
      <trkpt lat="45.84969" lon="6.44154">
        <ele>2205.7</ele>
        <time>2024-04-27T10:11:10Z</time>
      </trkpt>
      <trkpt lat="45.84969" lon="6.44155">
        <ele>2205.7</ele>
        <time>2024-04-27T10:11:11Z</time>
      </trkpt>
      <trkpt lat="45.84969" lon="6.44155">
        <ele>2205.7</ele>
        <time>2024-04-27T10:11:12Z</time>
      </trkpt>
      <trkpt lat="45.84969" lon="6.44155">
        <ele>2205.7</ele>
        <time>2024-04-27T10:11:13Z</time>
      </trkpt>
      <trkpt lat="45.84969" lon="6.44155">
        <ele>2205.7</ele>
        <time>2024-04-27T10:11:14Z</time>
      </trkpt>
      <trkpt lat="45.84969" lon="6.44155">
        <ele>2205.7</ele>
        <time>2024-04-27T10:11:15Z</time>
      </trkpt>
      <trkpt lat="45.84969" lon="6.44155">
        <ele>2205.7</ele>
        <time>2024-04-27T10:11:16Z</time>
      </trkpt>
      <trkpt lat="45.84969" lon="6.44155">
        <ele>2204.6</ele>
        <time>2024-04-27T10:11:17Z</time>
      </trkpt>
      <trkpt lat="45.84969" lon="6.44155">
        <ele>2204.6</ele>
        <time>2024-04-27T10:11:18Z</time>
      </trkpt>
      <trkpt lat="45.84969" lon="6.44155">
        <ele>2204.6</ele>
        <time>2024-04-27T10:11:19Z</time>
      </trkpt>
      <trkpt lat="45.84969" lon="6.44155">
        <ele>2204.6</ele>
        <time>2024-04-27T10:11:20Z</time>
      </trkpt>
      <trkpt lat="45.84969" lon="6.44155">
        <ele>2204.6</ele>
        <time>2024-04-27T10:11:21Z</time>
      </trkpt>
      <trkpt lat="45.84969" lon="6.44155">
        <ele>2204.6</ele>
        <time>2024-04-27T10:11:22Z</time>
      </trkpt>
      <trkpt lat="45.84969" lon="6.44155">
        <ele>2204.6</ele>
        <time>2024-04-27T10:11:23Z</time>
      </trkpt>
      <trkpt lat="45.84969" lon="6.44155">
        <ele>2204.6</ele>
        <time>2024-04-27T10:11:24Z</time>
      </trkpt>
      <trkpt lat="45.84968" lon="6.44156">
        <ele>2205.7</ele>
        <time>2024-04-27T10:11:25Z</time>
      </trkpt>
      <trkpt lat="45.84968" lon="6.44156">
        <ele>2205.7</ele>
        <time>2024-04-27T10:11:26Z</time>
      </trkpt>
      <trkpt lat="45.84968" lon="6.44156">
        <ele>2205.7</ele>
        <time>2024-04-27T10:11:27Z</time>
      </trkpt>
      <trkpt lat="45.84968" lon="6.44156">
        <ele>2205.7</ele>
        <time>2024-04-27T10:11:28Z</time>
      </trkpt>
      <trkpt lat="45.84968" lon="6.44156">
        <ele>2205.7</ele>
        <time>2024-04-27T10:11:29Z</time>
      </trkpt>
      <trkpt lat="45.84968" lon="6.44156">
        <ele>2205.7</ele>
        <time>2024-04-27T10:11:30Z</time>
      </trkpt>
      <trkpt lat="45.84968" lon="6.44156">
        <ele>2205.7</ele>
        <time>2024-04-27T10:11:31Z</time>
      </trkpt>
      <trkpt lat="45.84968" lon="6.44156">
        <ele>2205.7</ele>
        <time>2024-04-27T10:11:32Z</time>
      </trkpt>
      <trkpt lat="45.84968" lon="6.44156">
        <ele>2205.7</ele>
        <time>2024-04-27T10:11:33Z</time>
      </trkpt>
      <trkpt lat="45.84968" lon="6.44156">
        <ele>2205.7</ele>
        <time>2024-04-27T10:11:34Z</time>
      </trkpt>
      <trkpt lat="45.84968" lon="6.44155">
        <ele>2204.6</ele>
        <time>2024-04-27T10:11:35Z</time>
      </trkpt>
      <trkpt lat="45.84968" lon="6.44155">
        <ele>2204.6</ele>
        <time>2024-04-27T10:11:36Z</time>
      </trkpt>
      <trkpt lat="45.84968" lon="6.44155">
        <ele>2204.6</ele>
        <time>2024-04-27T10:11:37Z</time>
      </trkpt>
      <trkpt lat="45.84968" lon="6.44156">
        <ele>2204.6</ele>
        <time>2024-04-27T10:11:38Z</time>
      </trkpt>
      <trkpt lat="45.84968" lon="6.44156">
        <ele>2204.6</ele>
        <time>2024-04-27T10:11:39Z</time>
      </trkpt>
      <trkpt lat="45.84968" lon="6.44156">
        <ele>2204.6</ele>
        <time>2024-04-27T10:11:40Z</time>
      </trkpt>
      <trkpt lat="45.84967" lon="6.44156">
        <ele>2204.6</ele>
        <time>2024-04-27T10:11:41Z</time>
      </trkpt>
      <trkpt lat="45.84967" lon="6.44156">
        <ele>2204.6</ele>
        <time>2024-04-27T10:11:42Z</time>
      </trkpt>
      <trkpt lat="45.84967" lon="6.44156">
        <ele>2204.6</ele>
        <time>2024-04-27T10:11:43Z</time>
      </trkpt>
      <trkpt lat="45.84967" lon="6.44156">
        <ele>2204.6</ele>
        <time>2024-04-27T10:11:44Z</time>
      </trkpt>
      <trkpt lat="45.84967" lon="6.44156">
        <ele>2204.6</ele>
        <time>2024-04-27T10:11:45Z</time>
      </trkpt>
      <trkpt lat="45.84967" lon="6.44156">
        <ele>2204.6</ele>
        <time>2024-04-27T10:11:46Z</time>
      </trkpt>
      <trkpt lat="45.84967" lon="6.44156">
        <ele>2204.6</ele>
        <time>2024-04-27T10:11:47Z</time>
      </trkpt>
      <trkpt lat="45.84967" lon="6.44156">
        <ele>2204.6</ele>
        <time>2024-04-27T10:11:48Z</time>
      </trkpt>
      <trkpt lat="45.84967" lon="6.44156">
        <ele>2204.6</ele>
        <time>2024-04-27T10:11:49Z</time>
      </trkpt>
      <trkpt lat="45.84967" lon="6.44156">
        <ele>2204.6</ele>
        <time>2024-04-27T10:11:50Z</time>
      </trkpt>
      <trkpt lat="45.84967" lon="6.44156">
        <ele>2204.6</ele>
        <time>2024-04-27T10:11:51Z</time>
      </trkpt>
      <trkpt lat="45.84967" lon="6.44156">
        <ele>2204.6</ele>
        <time>2024-04-27T10:11:52Z</time>
      </trkpt>
      <trkpt lat="45.84967" lon="6.44156">
        <ele>2205.7</ele>
        <time>2024-04-27T10:11:53Z</time>
      </trkpt>
      <trkpt lat="45.84967" lon="6.44156">
        <ele>2205.7</ele>
        <time>2024-04-27T10:11:54Z</time>
      </trkpt>
      <trkpt lat="45.84967" lon="6.44156">
        <ele>2204.6</ele>
        <time>2024-04-27T10:11:55Z</time>
      </trkpt>
      <trkpt lat="45.84967" lon="6.44156">
        <ele>2204.6</ele>
        <time>2024-04-27T10:11:56Z</time>
      </trkpt>
      <trkpt lat="45.84967" lon="6.44156">
        <ele>2204.6</ele>
        <time>2024-04-27T10:11:57Z</time>
      </trkpt>
      <trkpt lat="45.84967" lon="6.44156">
        <ele>2204.6</ele>
        <time>2024-04-27T10:11:58Z</time>
      </trkpt>
      <trkpt lat="45.84967" lon="6.44156">
        <ele>2203.6</ele>
        <time>2024-04-27T10:11:59Z</time>
      </trkpt>
      <trkpt lat="45.84967" lon="6.44156">
        <ele>2203.6</ele>
        <time>2024-04-27T10:12:00Z</time>
      </trkpt>
      <trkpt lat="45.84967" lon="6.44156">
        <ele>2203.6</ele>
        <time>2024-04-27T10:12:01Z</time>
      </trkpt>
      <trkpt lat="45.84967" lon="6.44156">
        <ele>2203.6</ele>
        <time>2024-04-27T10:12:02Z</time>
      </trkpt>
      <trkpt lat="45.84967" lon="6.44156">
        <ele>2203.6</ele>
        <time>2024-04-27T10:12:03Z</time>
      </trkpt>
      <trkpt lat="45.84967" lon="6.44156">
        <ele>2203.6</ele>
        <time>2024-04-27T10:12:04Z</time>
      </trkpt>
      <trkpt lat="45.84967" lon="6.44156">
        <ele>2202.7</ele>
        <time>2024-04-27T10:12:05Z</time>
      </trkpt>
      <trkpt lat="45.84967" lon="6.44156">
        <ele>2202.7</ele>
        <time>2024-04-27T10:12:06Z</time>
      </trkpt>
      <trkpt lat="45.84967" lon="6.44156">
        <ele>2202.7</ele>
        <time>2024-04-27T10:12:07Z</time>
      </trkpt>
      <trkpt lat="45.84967" lon="6.44156">
        <ele>2202.7</ele>
        <time>2024-04-27T10:12:08Z</time>
      </trkpt>
      <trkpt lat="45.84967" lon="6.44156">
        <ele>2202.7</ele>
        <time>2024-04-27T10:12:09Z</time>
      </trkpt>
      <trkpt lat="45.84967" lon="6.44156">
        <ele>2202.7</ele>
        <time>2024-04-27T10:12:10Z</time>
      </trkpt>
      <trkpt lat="45.84967" lon="6.44156">
        <ele>2202.7</ele>
        <time>2024-04-27T10:12:11Z</time>
      </trkpt>
      <trkpt lat="45.84967" lon="6.44156">
        <ele>2202.7</ele>
        <time>2024-04-27T10:12:12Z</time>
      </trkpt>
      <trkpt lat="45.84967" lon="6.44156">
        <ele>2203.6</ele>
        <time>2024-04-27T10:12:13Z</time>
      </trkpt>
      <trkpt lat="45.84967" lon="6.44156">
        <ele>2203.6</ele>
        <time>2024-04-27T10:12:14Z</time>
      </trkpt>
      <trkpt lat="45.84967" lon="6.44156">
        <ele>2203.6</ele>
        <time>2024-04-27T10:12:15Z</time>
      </trkpt>
      <trkpt lat="45.84967" lon="6.44156">
        <ele>2203.6</ele>
        <time>2024-04-27T10:12:16Z</time>
      </trkpt>
      <trkpt lat="45.84967" lon="6.44156">
        <ele>2203.6</ele>
        <time>2024-04-27T10:12:17Z</time>
      </trkpt>
      <trkpt lat="45.84967" lon="6.44156">
        <ele>2203.6</ele>
        <time>2024-04-27T10:12:18Z</time>
      </trkpt>
      <trkpt lat="45.84967" lon="6.44156">
        <ele>2203.6</ele>
        <time>2024-04-27T10:12:19Z</time>
      </trkpt>
      <trkpt lat="45.84967" lon="6.44156">
        <ele>2203.6</ele>
        <time>2024-04-27T10:12:20Z</time>
      </trkpt>
      <trkpt lat="45.84967" lon="6.44156">
        <ele>2203.6</ele>
        <time>2024-04-27T10:12:21Z</time>
      </trkpt>
      <trkpt lat="45.84967" lon="6.44156">
        <ele>2203.6</ele>
        <time>2024-04-27T10:12:22Z</time>
      </trkpt>
      <trkpt lat="45.84967" lon="6.44156">
        <ele>2204.6</ele>
        <time>2024-04-27T10:12:23Z</time>
      </trkpt>
      <trkpt lat="45.84967" lon="6.44156">
        <ele>2204.6</ele>
        <time>2024-04-27T10:12:24Z</time>
      </trkpt>
      <trkpt lat="45.84967" lon="6.44156">
        <ele>2204.6</ele>
        <time>2024-04-27T10:12:25Z</time>
      </trkpt>
      <trkpt lat="45.84967" lon="6.44156">
        <ele>2204.6</ele>
        <time>2024-04-27T10:12:26Z</time>
      </trkpt>
      <trkpt lat="45.84967" lon="6.44156">
        <ele>2205.7</ele>
        <time>2024-04-27T10:12:27Z</time>
      </trkpt>
      <trkpt lat="45.84968" lon="6.44156">
        <ele>2205.7</ele>
        <time>2024-04-27T10:12:28Z</time>
      </trkpt>
      <trkpt lat="45.84968" lon="6.44156">
        <ele>2206.6</ele>
        <time>2024-04-27T10:12:29Z</time>
      </trkpt>
      <trkpt lat="45.84968" lon="6.44156">
        <ele>2206.6</ele>
        <time>2024-04-27T10:12:30Z</time>
      </trkpt>
      <trkpt lat="45.84968" lon="6.44156">
        <ele>2206.6</ele>
        <time>2024-04-27T10:12:31Z</time>
      </trkpt>
      <trkpt lat="45.84968" lon="6.44156">
        <ele>2206.6</ele>
        <time>2024-04-27T10:12:32Z</time>
      </trkpt>
      <trkpt lat="45.84968" lon="6.44156">
        <ele>2206.6</ele>
        <time>2024-04-27T10:12:33Z</time>
      </trkpt>
      <trkpt lat="45.84968" lon="6.44156">
        <ele>2206.6</ele>
        <time>2024-04-27T10:12:34Z</time>
      </trkpt>
      <trkpt lat="45.84968" lon="6.44156">
        <ele>2206.6</ele>
        <time>2024-04-27T10:12:35Z</time>
      </trkpt>
      <trkpt lat="45.84968" lon="6.44156">
        <ele>2206.6</ele>
        <time>2024-04-27T10:12:36Z</time>
      </trkpt>
      <trkpt lat="45.84968" lon="6.44156">
        <ele>2206.6</ele>
        <time>2024-04-27T10:12:37Z</time>
      </trkpt>
      <trkpt lat="45.84968" lon="6.44156">
        <ele>2206.6</ele>
        <time>2024-04-27T10:12:38Z</time>
      </trkpt>
      <trkpt lat="45.84968" lon="6.44156">
        <ele>2206.6</ele>
        <time>2024-04-27T10:12:39Z</time>
      </trkpt>
      <trkpt lat="45.84968" lon="6.44156">
        <ele>2206.6</ele>
        <time>2024-04-27T10:12:40Z</time>
      </trkpt>
      <trkpt lat="45.84968" lon="6.44156">
        <ele>2205.7</ele>
        <time>2024-04-27T10:12:41Z</time>
      </trkpt>
      <trkpt lat="45.84968" lon="6.44156">
        <ele>2205.7</ele>
        <time>2024-04-27T10:12:42Z</time>
      </trkpt>
      <trkpt lat="45.84968" lon="6.44156">
        <ele>2205.7</ele>
        <time>2024-04-27T10:12:43Z</time>
      </trkpt>
      <trkpt lat="45.84968" lon="6.44156">
        <ele>2205.7</ele>
        <time>2024-04-27T10:12:44Z</time>
      </trkpt>
      <trkpt lat="45.84968" lon="6.44156">
        <ele>2205.7</ele>
        <time>2024-04-27T10:12:45Z</time>
      </trkpt>
      <trkpt lat="45.84968" lon="6.44156">
        <ele>2205.7</ele>
        <time>2024-04-27T10:12:46Z</time>
      </trkpt>
      <trkpt lat="45.84968" lon="6.44156">
        <ele>2205.7</ele>
        <time>2024-04-27T10:12:47Z</time>
      </trkpt>
      <trkpt lat="45.84968" lon="6.44156">
        <ele>2205.7</ele>
        <time>2024-04-27T10:12:48Z</time>
      </trkpt>
      <trkpt lat="45.84968" lon="6.44156">
        <ele>2205.7</ele>
        <time>2024-04-27T10:12:49Z</time>
      </trkpt>
      <trkpt lat="45.84968" lon="6.44156">
        <ele>2205.7</ele>
        <time>2024-04-27T10:12:50Z</time>
      </trkpt>
      <trkpt lat="45.84968" lon="6.44156">
        <ele>2205.7</ele>
        <time>2024-04-27T10:12:51Z</time>
      </trkpt>
      <trkpt lat="45.84968" lon="6.44156">
        <ele>2205.7</ele>
        <time>2024-04-27T10:12:52Z</time>
      </trkpt>
      <trkpt lat="45.84968" lon="6.44156">
        <ele>2204.6</ele>
        <time>2024-04-27T10:12:53Z</time>
      </trkpt>
      <trkpt lat="45.84968" lon="6.44156">
        <ele>2204.6</ele>
        <time>2024-04-27T10:12:54Z</time>
      </trkpt>
      <trkpt lat="45.84968" lon="6.44156">
        <ele>2204.6</ele>
        <time>2024-04-27T10:12:55Z</time>
      </trkpt>
      <trkpt lat="45.84968" lon="6.44156">
        <ele>2204.6</ele>
        <time>2024-04-27T10:12:56Z</time>
      </trkpt>
      <trkpt lat="45.84968" lon="6.44156">
        <ele>2203.6</ele>
        <time>2024-04-27T10:12:57Z</time>
      </trkpt>
      <trkpt lat="45.84968" lon="6.44156">
        <ele>2203.6</ele>
        <time>2024-04-27T10:12:58Z</time>
      </trkpt>
      <trkpt lat="45.84968" lon="6.44156">
        <ele>2203.6</ele>
        <time>2024-04-27T10:12:59Z</time>
      </trkpt>
      <trkpt lat="45.84968" lon="6.44156">
        <ele>2203.6</ele>
        <time>2024-04-27T10:13:00Z</time>
      </trkpt>
      <trkpt lat="45.84968" lon="6.44156">
        <ele>2204.6</ele>
        <time>2024-04-27T10:13:01Z</time>
      </trkpt>
      <trkpt lat="45.84968" lon="6.44156">
        <ele>2204.6</ele>
        <time>2024-04-27T10:13:02Z</time>
      </trkpt>
      <trkpt lat="45.84968" lon="6.44156">
        <ele>2204.6</ele>
        <time>2024-04-27T10:13:03Z</time>
      </trkpt>
      <trkpt lat="45.84968" lon="6.44156">
        <ele>2204.6</ele>
        <time>2024-04-27T10:13:04Z</time>
      </trkpt>
      <trkpt lat="45.84968" lon="6.44156">
        <ele>2204.6</ele>
        <time>2024-04-27T10:13:05Z</time>
      </trkpt>
      <trkpt lat="45.84968" lon="6.44156">
        <ele>2204.6</ele>
        <time>2024-04-27T10:13:06Z</time>
      </trkpt>
      <trkpt lat="45.84968" lon="6.44156">
        <ele>2203.6</ele>
        <time>2024-04-27T10:13:07Z</time>
      </trkpt>
      <trkpt lat="45.84968" lon="6.44156">
        <ele>2203.6</ele>
        <time>2024-04-27T10:13:08Z</time>
      </trkpt>
      <trkpt lat="45.84968" lon="6.44156">
        <ele>2203.6</ele>
        <time>2024-04-27T10:13:09Z</time>
      </trkpt>
      <trkpt lat="45.84968" lon="6.44156">
        <ele>2203.6</ele>
        <time>2024-04-27T10:13:10Z</time>
      </trkpt>
      <trkpt lat="45.84968" lon="6.44156">
        <ele>2203.6</ele>
        <time>2024-04-27T10:13:11Z</time>
      </trkpt>
      <trkpt lat="45.84968" lon="6.44156">
        <ele>2203.6</ele>
        <time>2024-04-27T10:13:12Z</time>
      </trkpt>
      <trkpt lat="45.84968" lon="6.44156">
        <ele>2202.7</ele>
        <time>2024-04-27T10:13:13Z</time>
      </trkpt>
      <trkpt lat="45.84968" lon="6.44156">
        <ele>2202.7</ele>
        <time>2024-04-27T10:13:14Z</time>
      </trkpt>
      <trkpt lat="45.84968" lon="6.44156">
        <ele>2202.7</ele>
        <time>2024-04-27T10:13:15Z</time>
      </trkpt>
      <trkpt lat="45.84968" lon="6.44156">
        <ele>2202.7</ele>
        <time>2024-04-27T10:13:16Z</time>
      </trkpt>
      <trkpt lat="45.84968" lon="6.44156">
        <ele>2202.7</ele>
        <time>2024-04-27T10:13:17Z</time>
      </trkpt>
      <trkpt lat="45.84968" lon="6.44156">
        <ele>2202.7</ele>
        <time>2024-04-27T10:13:18Z</time>
      </trkpt>
      <trkpt lat="45.84968" lon="6.44156">
        <ele>2203.6</ele>
        <time>2024-04-27T10:13:19Z</time>
      </trkpt>
      <trkpt lat="45.84968" lon="6.44156">
        <ele>2203.6</ele>
        <time>2024-04-27T10:13:20Z</time>
      </trkpt>
      <trkpt lat="45.84968" lon="6.44156">
        <ele>2204.6</ele>
        <time>2024-04-27T10:13:21Z</time>
      </trkpt>
      <trkpt lat="45.84967" lon="6.44156">
        <ele>2204.6</ele>
        <time>2024-04-27T10:13:22Z</time>
      </trkpt>
      <trkpt lat="45.84967" lon="6.44156">
        <ele>2204.6</ele>
        <time>2024-04-27T10:13:23Z</time>
      </trkpt>
      <trkpt lat="45.84967" lon="6.44156">
        <ele>2204.6</ele>
        <time>2024-04-27T10:13:24Z</time>
      </trkpt>
      <trkpt lat="45.84967" lon="6.44156">
        <ele>2203.6</ele>
        <time>2024-04-27T10:13:25Z</time>
      </trkpt>
      <trkpt lat="45.84967" lon="6.44156">
        <ele>2203.6</ele>
        <time>2024-04-27T10:13:26Z</time>
      </trkpt>
      <trkpt lat="45.84967" lon="6.44156">
        <ele>2203.6</ele>
        <time>2024-04-27T10:13:27Z</time>
      </trkpt>
      <trkpt lat="45.84967" lon="6.44156">
        <ele>2203.6</ele>
        <time>2024-04-27T10:13:28Z</time>
      </trkpt>
      <trkpt lat="45.84967" lon="6.44156">
        <ele>2203.6</ele>
        <time>2024-04-27T10:13:29Z</time>
      </trkpt>
      <trkpt lat="45.84967" lon="6.44156">
        <ele>2203.6</ele>
        <time>2024-04-27T10:13:30Z</time>
      </trkpt>
      <trkpt lat="45.84967" lon="6.44156">
        <ele>2203.6</ele>
        <time>2024-04-27T10:13:31Z</time>
      </trkpt>
      <trkpt lat="45.84967" lon="6.44156">
        <ele>2203.6</ele>
        <time>2024-04-27T10:13:32Z</time>
      </trkpt>
      <trkpt lat="45.84967" lon="6.44156">
        <ele>2203.6</ele>
        <time>2024-04-27T10:13:33Z</time>
      </trkpt>
      <trkpt lat="45.84967" lon="6.44156">
        <ele>2203.6</ele>
        <time>2024-04-27T10:13:34Z</time>
      </trkpt>
      <trkpt lat="45.84967" lon="6.44156">
        <ele>2203.6</ele>
        <time>2024-04-27T10:13:35Z</time>
      </trkpt>
      <trkpt lat="45.84967" lon="6.44156">
        <ele>2203.6</ele>
        <time>2024-04-27T10:13:36Z</time>
      </trkpt>
      <trkpt lat="45.84967" lon="6.44156">
        <ele>2203.6</ele>
        <time>2024-04-27T10:13:37Z</time>
      </trkpt>
      <trkpt lat="45.84967" lon="6.44156">
        <ele>2203.6</ele>
        <time>2024-04-27T10:13:38Z</time>
      </trkpt>
      <trkpt lat="45.84967" lon="6.44156">
        <ele>2203.6</ele>
        <time>2024-04-27T10:13:39Z</time>
      </trkpt>
      <trkpt lat="45.84967" lon="6.44156">
        <ele>2203.6</ele>
        <time>2024-04-27T10:13:40Z</time>
      </trkpt>
      <trkpt lat="45.84967" lon="6.44156">
        <ele>2203.6</ele>
        <time>2024-04-27T10:13:41Z</time>
      </trkpt>
      <trkpt lat="45.84967" lon="6.44156">
        <ele>2203.6</ele>
        <time>2024-04-27T10:13:42Z</time>
      </trkpt>
      <trkpt lat="45.84967" lon="6.44156">
        <ele>2203.6</ele>
        <time>2024-04-27T10:13:43Z</time>
      </trkpt>
      <trkpt lat="45.84967" lon="6.44156">
        <ele>2203.6</ele>
        <time>2024-04-27T10:13:44Z</time>
      </trkpt>
      <trkpt lat="45.84967" lon="6.44156">
        <ele>2203.6</ele>
        <time>2024-04-27T10:13:45Z</time>
      </trkpt>
      <trkpt lat="45.84967" lon="6.44156">
        <ele>2203.6</ele>
        <time>2024-04-27T10:13:46Z</time>
      </trkpt>
      <trkpt lat="45.84967" lon="6.44156">
        <ele>2204.6</ele>
        <time>2024-04-27T10:13:47Z</time>
      </trkpt>
      <trkpt lat="45.84967" lon="6.44156">
        <ele>2204.6</ele>
        <time>2024-04-27T10:13:48Z</time>
      </trkpt>
      <trkpt lat="45.84967" lon="6.44156">
        <ele>2204.6</ele>
        <time>2024-04-27T10:13:49Z</time>
      </trkpt>
      <trkpt lat="45.84967" lon="6.44156">
        <ele>2204.6</ele>
        <time>2024-04-27T10:13:50Z</time>
      </trkpt>
      <trkpt lat="45.84967" lon="6.44156">
        <ele>2204.6</ele>
        <time>2024-04-27T10:13:51Z</time>
      </trkpt>
      <trkpt lat="45.84967" lon="6.44156">
        <ele>2204.6</ele>
        <time>2024-04-27T10:13:52Z</time>
      </trkpt>
      <trkpt lat="45.84967" lon="6.44156">
        <ele>2204.6</ele>
        <time>2024-04-27T10:13:53Z</time>
      </trkpt>
      <trkpt lat="45.84967" lon="6.44156">
        <ele>2204.6</ele>
        <time>2024-04-27T10:13:54Z</time>
      </trkpt>
      <trkpt lat="45.84968" lon="6.44155">
        <ele>2204.6</ele>
        <time>2024-04-27T10:13:55Z</time>
      </trkpt>
      <trkpt lat="45.84968" lon="6.44154">
        <ele>2204.6</ele>
        <time>2024-04-27T10:13:56Z</time>
      </trkpt>
      <trkpt lat="45.84969" lon="6.44153">
        <ele>2204.6</ele>
        <time>2024-04-27T10:13:57Z</time>
      </trkpt>
      <trkpt lat="45.84969" lon="6.44152">
        <ele>2204.6</ele>
        <time>2024-04-27T10:13:58Z</time>
      </trkpt>
      <trkpt lat="45.84969" lon="6.44151">
        <ele>2204.6</ele>
        <time>2024-04-27T10:13:59Z</time>
      </trkpt>
      <trkpt lat="45.84969" lon="6.4415">
        <ele>2204.6</ele>
        <time>2024-04-27T10:14:00Z</time>
      </trkpt>
      <trkpt lat="45.84968" lon="6.4415">
        <ele>2204.6</ele>
        <time>2024-04-27T10:14:01Z</time>
      </trkpt>
      <trkpt lat="45.84967" lon="6.4415">
        <ele>2204.6</ele>
        <time>2024-04-27T10:14:02Z</time>
      </trkpt>
      <trkpt lat="45.84967" lon="6.44149">
        <ele>2204.6</ele>
        <time>2024-04-27T10:14:03Z</time>
      </trkpt>
      <trkpt lat="45.84966" lon="6.44149">
        <ele>2204.6</ele>
        <time>2024-04-27T10:14:04Z</time>
      </trkpt>
      <trkpt lat="45.84965" lon="6.44149">
        <ele>2204.6</ele>
        <time>2024-04-27T10:14:05Z</time>
      </trkpt>
      <trkpt lat="45.84964" lon="6.44149">
        <ele>2204.6</ele>
        <time>2024-04-27T10:14:06Z</time>
      </trkpt>
      <trkpt lat="45.84965" lon="6.44149">
        <ele>2204.6</ele>
        <time>2024-04-27T10:14:07Z</time>
      </trkpt>
      <trkpt lat="45.84965" lon="6.44149">
        <ele>2204.6</ele>
        <time>2024-04-27T10:14:08Z</time>
      </trkpt>
      <trkpt lat="45.84965" lon="6.44149">
        <ele>2204.6</ele>
        <time>2024-04-27T10:14:09Z</time>
      </trkpt>
      <trkpt lat="45.84965" lon="6.44149">
        <ele>2204.6</ele>
        <time>2024-04-27T10:14:10Z</time>
      </trkpt>
      <trkpt lat="45.84965" lon="6.44149">
        <ele>2204.6</ele>
        <time>2024-04-27T10:14:11Z</time>
      </trkpt>
      <trkpt lat="45.84966" lon="6.44149">
        <ele>2204.6</ele>
        <time>2024-04-27T10:14:12Z</time>
      </trkpt>
      <trkpt lat="45.84966" lon="6.44149">
        <ele>2204.6</ele>
        <time>2024-04-27T10:14:13Z</time>
      </trkpt>
      <trkpt lat="45.84966" lon="6.44149">
        <ele>2204.6</ele>
        <time>2024-04-27T10:14:14Z</time>
      </trkpt>
      <trkpt lat="45.84966" lon="6.44149">
        <ele>2204.6</ele>
        <time>2024-04-27T10:14:15Z</time>
      </trkpt>
      <trkpt lat="45.84966" lon="6.44149">
        <ele>2204.6</ele>
        <time>2024-04-27T10:14:16Z</time>
      </trkpt>
      <trkpt lat="45.84966" lon="6.44149">
        <ele>2204.6</ele>
        <time>2024-04-27T10:14:17Z</time>
      </trkpt>
      <trkpt lat="45.84966" lon="6.44149">
        <ele>2204.6</ele>
        <time>2024-04-27T10:14:18Z</time>
      </trkpt>
      <trkpt lat="45.84966" lon="6.44149">
        <ele>2205.7</ele>
        <time>2024-04-27T10:14:19Z</time>
      </trkpt>
      <trkpt lat="45.84966" lon="6.44149">
        <ele>2205.7</ele>
        <time>2024-04-27T10:14:20Z</time>
      </trkpt>
      <trkpt lat="45.84966" lon="6.44149">
        <ele>2206.6</ele>
        <time>2024-04-27T10:14:21Z</time>
      </trkpt>
      <trkpt lat="45.84966" lon="6.44149">
        <ele>2206.6</ele>
        <time>2024-04-27T10:14:22Z</time>
      </trkpt>
      <trkpt lat="45.84966" lon="6.44149">
        <ele>2206.6</ele>
        <time>2024-04-27T10:14:23Z</time>
      </trkpt>
      <trkpt lat="45.84966" lon="6.44149">
        <ele>2206.6</ele>
        <time>2024-04-27T10:14:24Z</time>
      </trkpt>
      <trkpt lat="45.84966" lon="6.44149">
        <ele>2206.6</ele>
        <time>2024-04-27T10:14:25Z</time>
      </trkpt>
      <trkpt lat="45.84966" lon="6.44149">
        <ele>2206.6</ele>
        <time>2024-04-27T10:14:26Z</time>
      </trkpt>
      <trkpt lat="45.84966" lon="6.44149">
        <ele>2206.6</ele>
        <time>2024-04-27T10:14:27Z</time>
      </trkpt>
      <trkpt lat="45.84966" lon="6.44149">
        <ele>2206.6</ele>
        <time>2024-04-27T10:14:28Z</time>
      </trkpt>
      <trkpt lat="45.84966" lon="6.44149">
        <ele>2206.6</ele>
        <time>2024-04-27T10:14:29Z</time>
      </trkpt>
      <trkpt lat="45.84966" lon="6.44149">
        <ele>2206.6</ele>
        <time>2024-04-27T10:14:30Z</time>
      </trkpt>
      <trkpt lat="45.84967" lon="6.44149">
        <ele>2207.7</ele>
        <time>2024-04-27T10:14:31Z</time>
      </trkpt>
      <trkpt lat="45.84967" lon="6.44149">
        <ele>2207.7</ele>
        <time>2024-04-27T10:14:32Z</time>
      </trkpt>
      <trkpt lat="45.84968" lon="6.44149">
        <ele>2207.7</ele>
        <time>2024-04-27T10:14:33Z</time>
      </trkpt>
      <trkpt lat="45.84968" lon="6.44149">
        <ele>2207.7</ele>
        <time>2024-04-27T10:14:34Z</time>
      </trkpt>
      <trkpt lat="45.84968" lon="6.44149">
        <ele>2208.6</ele>
        <time>2024-04-27T10:14:35Z</time>
      </trkpt>
      <trkpt lat="45.84968" lon="6.44149">
        <ele>2208.6</ele>
        <time>2024-04-27T10:14:36Z</time>
      </trkpt>
      <trkpt lat="45.84968" lon="6.44149">
        <ele>2208.6</ele>
        <time>2024-04-27T10:14:37Z</time>
      </trkpt>
      <trkpt lat="45.84968" lon="6.44149">
        <ele>2208.6</ele>
        <time>2024-04-27T10:14:38Z</time>
      </trkpt>
      <trkpt lat="45.84968" lon="6.44149">
        <ele>2208.6</ele>
        <time>2024-04-27T10:14:39Z</time>
      </trkpt>
      <trkpt lat="45.84969" lon="6.4415">
        <ele>2208.6</ele>
        <time>2024-04-27T10:14:40Z</time>
      </trkpt>
      <trkpt lat="45.8497" lon="6.4415">
        <ele>2209.7</ele>
        <time>2024-04-27T10:14:41Z</time>
      </trkpt>
      <trkpt lat="45.8497" lon="6.4415">
        <ele>2209.7</ele>
        <time>2024-04-27T10:14:42Z</time>
      </trkpt>
      <trkpt lat="45.84971" lon="6.44149">
        <ele>2209.7</ele>
        <time>2024-04-27T10:14:43Z</time>
      </trkpt>
      <trkpt lat="45.84972" lon="6.44149">
        <ele>2209.7</ele>
        <time>2024-04-27T10:14:44Z</time>
      </trkpt>
      <trkpt lat="45.84973" lon="6.4415">
        <ele>2210.6</ele>
        <time>2024-04-27T10:14:45Z</time>
      </trkpt>
      <trkpt lat="45.84973" lon="6.4415">
        <ele>2210.6</ele>
        <time>2024-04-27T10:14:46Z</time>
      </trkpt>
      <trkpt lat="45.84973" lon="6.4415">
        <ele>2211.7</ele>
        <time>2024-04-27T10:14:47Z</time>
      </trkpt>
      <trkpt lat="45.84973" lon="6.44151">
        <ele>2211.7</ele>
        <time>2024-04-27T10:14:48Z</time>
      </trkpt>
      <trkpt lat="45.84973" lon="6.44151">
        <ele>2211.7</ele>
        <time>2024-04-27T10:14:49Z</time>
      </trkpt>
      <trkpt lat="45.84972" lon="6.44151">
        <ele>2211.7</ele>
        <time>2024-04-27T10:14:50Z</time>
      </trkpt>
      <trkpt lat="45.84972" lon="6.44151">
        <ele>2211.7</ele>
        <time>2024-04-27T10:14:51Z</time>
      </trkpt>
      <trkpt lat="45.84972" lon="6.44151">
        <ele>2211.7</ele>
        <time>2024-04-27T10:14:52Z</time>
      </trkpt>
      <trkpt lat="45.84972" lon="6.44151">
        <ele>2211.7</ele>
        <time>2024-04-27T10:14:53Z</time>
      </trkpt>
      <trkpt lat="45.84972" lon="6.44151">
        <ele>2211.7</ele>
        <time>2024-04-27T10:14:54Z</time>
      </trkpt>
      <trkpt lat="45.84972" lon="6.44151">
        <ele>2212.7</ele>
        <time>2024-04-27T10:14:55Z</time>
      </trkpt>
      <trkpt lat="45.84972" lon="6.44151">
        <ele>2212.7</ele>
        <time>2024-04-27T10:14:56Z</time>
      </trkpt>
      <trkpt lat="45.84972" lon="6.44151">
        <ele>2212.7</ele>
        <time>2024-04-27T10:14:57Z</time>
      </trkpt>
      <trkpt lat="45.84972" lon="6.44151">
        <ele>2212.7</ele>
        <time>2024-04-27T10:14:58Z</time>
      </trkpt>
      <trkpt lat="45.84972" lon="6.44151">
        <ele>2212.7</ele>
        <time>2024-04-27T10:14:59Z</time>
      </trkpt>
      <trkpt lat="45.84972" lon="6.44151">
        <ele>2212.7</ele>
        <time>2024-04-27T10:15:00Z</time>
      </trkpt>
      <trkpt lat="45.84972" lon="6.44151">
        <ele>2212.7</ele>
        <time>2024-04-27T10:15:01Z</time>
      </trkpt>
      <trkpt lat="45.84972" lon="6.44151">
        <ele>2212.7</ele>
        <time>2024-04-27T10:15:02Z</time>
      </trkpt>
      <trkpt lat="45.84973" lon="6.44151">
        <ele>2212.7</ele>
        <time>2024-04-27T10:15:03Z</time>
      </trkpt>
      <trkpt lat="45.84973" lon="6.44151">
        <ele>2212.7</ele>
        <time>2024-04-27T10:15:04Z</time>
      </trkpt>
      <trkpt lat="45.84973" lon="6.44151">
        <ele>2212.7</ele>
        <time>2024-04-27T10:15:05Z</time>
      </trkpt>
      <trkpt lat="45.84973" lon="6.44151">
        <ele>2212.7</ele>
        <time>2024-04-27T10:15:06Z</time>
      </trkpt>
      <trkpt lat="45.84973" lon="6.44151">
        <ele>2212.7</ele>
        <time>2024-04-27T10:15:07Z</time>
      </trkpt>
      <trkpt lat="45.84973" lon="6.4415">
        <ele>2212.7</ele>
        <time>2024-04-27T10:15:08Z</time>
      </trkpt>
      <trkpt lat="45.84973" lon="6.4415">
        <ele>2211.7</ele>
        <time>2024-04-27T10:15:09Z</time>
      </trkpt>
      <trkpt lat="45.84973" lon="6.4415">
        <ele>2211.7</ele>
        <time>2024-04-27T10:15:10Z</time>
      </trkpt>
      <trkpt lat="45.84974" lon="6.4415">
        <ele>2211.7</ele>
        <time>2024-04-27T10:15:11Z</time>
      </trkpt>
      <trkpt lat="45.84974" lon="6.4415">
        <ele>2211.7</ele>
        <time>2024-04-27T10:15:12Z</time>
      </trkpt>
      <trkpt lat="45.84975" lon="6.4415">
        <ele>2211.7</ele>
        <time>2024-04-27T10:15:13Z</time>
      </trkpt>
      <trkpt lat="45.84975" lon="6.4415">
        <ele>2211.7</ele>
        <time>2024-04-27T10:15:14Z</time>
      </trkpt>
      <trkpt lat="45.84975" lon="6.4415">
        <ele>2211.7</ele>
        <time>2024-04-27T10:15:15Z</time>
      </trkpt>
      <trkpt lat="45.84975" lon="6.4415">
        <ele>2211.7</ele>
        <time>2024-04-27T10:15:16Z</time>
      </trkpt>
      <trkpt lat="45.84975" lon="6.44149">
        <ele>2211.7</ele>
        <time>2024-04-27T10:15:17Z</time>
      </trkpt>
      <trkpt lat="45.84976" lon="6.44148">
        <ele>2211.7</ele>
        <time>2024-04-27T10:15:18Z</time>
      </trkpt>
      <trkpt lat="45.84977" lon="6.44148">
        <ele>2211.7</ele>
        <time>2024-04-27T10:15:19Z</time>
      </trkpt>
      <trkpt lat="45.84977" lon="6.44148">
        <ele>2211.7</ele>
        <time>2024-04-27T10:15:20Z</time>
      </trkpt>
      <trkpt lat="45.84977" lon="6.44148">
        <ele>2211.7</ele>
        <time>2024-04-27T10:15:21Z</time>
      </trkpt>
      <trkpt lat="45.84977" lon="6.44148">
        <ele>2211.7</ele>
        <time>2024-04-27T10:15:22Z</time>
      </trkpt>
      <trkpt lat="45.84977" lon="6.44147">
        <ele>2211.7</ele>
        <time>2024-04-27T10:15:23Z</time>
      </trkpt>
      <trkpt lat="45.84977" lon="6.44147">
        <ele>2211.7</ele>
        <time>2024-04-27T10:15:24Z</time>
      </trkpt>
      <trkpt lat="45.84977" lon="6.44147">
        <ele>2211.7</ele>
        <time>2024-04-27T10:15:25Z</time>
      </trkpt>
      <trkpt lat="45.84977" lon="6.44147">
        <ele>2211.7</ele>
        <time>2024-04-27T10:15:26Z</time>
      </trkpt>
      <trkpt lat="45.84978" lon="6.44147">
        <ele>2211.7</ele>
        <time>2024-04-27T10:15:27Z</time>
      </trkpt>
      <trkpt lat="45.84978" lon="6.44147">
        <ele>2211.7</ele>
        <time>2024-04-27T10:15:28Z</time>
      </trkpt>
      <trkpt lat="45.84979" lon="6.44146">
        <ele>2211.7</ele>
        <time>2024-04-27T10:15:29Z</time>
      </trkpt>
      <trkpt lat="45.84979" lon="6.44146">
        <ele>2211.7</ele>
        <time>2024-04-27T10:15:30Z</time>
      </trkpt>
      <trkpt lat="45.8498" lon="6.44146">
        <ele>2212.7</ele>
        <time>2024-04-27T10:15:31Z</time>
      </trkpt>
      <trkpt lat="45.8498" lon="6.44146">
        <ele>2212.7</ele>
        <time>2024-04-27T10:15:32Z</time>
      </trkpt>
      <trkpt lat="45.8498" lon="6.44146">
        <ele>2212.7</ele>
        <time>2024-04-27T10:15:33Z</time>
      </trkpt>
      <trkpt lat="45.8498" lon="6.44146">
        <ele>2212.7</ele>
        <time>2024-04-27T10:15:34Z</time>
      </trkpt>
      <trkpt lat="45.8498" lon="6.44146">
        <ele>2212.7</ele>
        <time>2024-04-27T10:15:35Z</time>
      </trkpt>
      <trkpt lat="45.8498" lon="6.44146">
        <ele>2212.7</ele>
        <time>2024-04-27T10:15:36Z</time>
      </trkpt>
      <trkpt lat="45.8498" lon="6.44146">
        <ele>2212.7</ele>
        <time>2024-04-27T10:15:37Z</time>
      </trkpt>
      <trkpt lat="45.8498" lon="6.44146">
        <ele>2212.7</ele>
        <time>2024-04-27T10:15:38Z</time>
      </trkpt>
      <trkpt lat="45.8498" lon="6.44146">
        <ele>2212.7</ele>
        <time>2024-04-27T10:15:39Z</time>
      </trkpt>
      <trkpt lat="45.8498" lon="6.44146">
        <ele>2212.7</ele>
        <time>2024-04-27T10:15:40Z</time>
      </trkpt>
      <trkpt lat="45.8498" lon="6.44146">
        <ele>2213.6</ele>
        <time>2024-04-27T10:15:41Z</time>
      </trkpt>
      <trkpt lat="45.8498" lon="6.44146">
        <ele>2213.6</ele>
        <time>2024-04-27T10:15:42Z</time>
      </trkpt>
      <trkpt lat="45.8498" lon="6.44146">
        <ele>2213.6</ele>
        <time>2024-04-27T10:15:43Z</time>
      </trkpt>
      <trkpt lat="45.8498" lon="6.44146">
        <ele>2213.6</ele>
        <time>2024-04-27T10:15:44Z</time>
      </trkpt>
      <trkpt lat="45.8498" lon="6.44146">
        <ele>2214.7</ele>
        <time>2024-04-27T10:15:45Z</time>
      </trkpt>
      <trkpt lat="45.8498" lon="6.44147">
        <ele>2214.7</ele>
        <time>2024-04-27T10:15:46Z</time>
      </trkpt>
      <trkpt lat="45.8498" lon="6.44147">
        <ele>2214.7</ele>
        <time>2024-04-27T10:15:47Z</time>
      </trkpt>
      <trkpt lat="45.8498" lon="6.44147">
        <ele>2214.7</ele>
        <time>2024-04-27T10:15:48Z</time>
      </trkpt>
      <trkpt lat="45.8498" lon="6.44147">
        <ele>2215.6</ele>
        <time>2024-04-27T10:15:49Z</time>
      </trkpt>
      <trkpt lat="45.8498" lon="6.44147">
        <ele>2215.6</ele>
        <time>2024-04-27T10:15:50Z</time>
      </trkpt>
      <trkpt lat="45.8498" lon="6.44147">
        <ele>2215.6</ele>
        <time>2024-04-27T10:15:51Z</time>
      </trkpt>
      <trkpt lat="45.8498" lon="6.44147">
        <ele>2215.6</ele>
        <time>2024-04-27T10:15:52Z</time>
      </trkpt>
      <trkpt lat="45.8498" lon="6.44147">
        <ele>2215.6</ele>
        <time>2024-04-27T10:15:53Z</time>
      </trkpt>
      <trkpt lat="45.8498" lon="6.44147">
        <ele>2215.6</ele>
        <time>2024-04-27T10:15:54Z</time>
      </trkpt>
      <trkpt lat="45.8498" lon="6.44147">
        <ele>2215.6</ele>
        <time>2024-04-27T10:15:55Z</time>
      </trkpt>
      <trkpt lat="45.8498" lon="6.44147">
        <ele>2215.6</ele>
        <time>2024-04-27T10:15:56Z</time>
      </trkpt>
      <trkpt lat="45.84979" lon="6.44147">
        <ele>2215.6</ele>
        <time>2024-04-27T10:15:57Z</time>
      </trkpt>
      <trkpt lat="45.84979" lon="6.44148">
        <ele>2215.6</ele>
        <time>2024-04-27T10:15:58Z</time>
      </trkpt>
      <trkpt lat="45.84979" lon="6.44148">
        <ele>2215.6</ele>
        <time>2024-04-27T10:15:59Z</time>
      </trkpt>
      <trkpt lat="45.84979" lon="6.44148">
        <ele>2215.6</ele>
        <time>2024-04-27T10:16:00Z</time>
      </trkpt>
      <trkpt lat="45.84979" lon="6.44148">
        <ele>2215.6</ele>
        <time>2024-04-27T10:16:01Z</time>
      </trkpt>
      <trkpt lat="45.84978" lon="6.44148">
        <ele>2215.6</ele>
        <time>2024-04-27T10:16:02Z</time>
      </trkpt>
      <trkpt lat="45.84978" lon="6.44148">
        <ele>2215.6</ele>
        <time>2024-04-27T10:16:03Z</time>
      </trkpt>
      <trkpt lat="45.84978" lon="6.44148">
        <ele>2215.6</ele>
        <time>2024-04-27T10:16:04Z</time>
      </trkpt>
      <trkpt lat="45.84978" lon="6.44148">
        <ele>2215.6</ele>
        <time>2024-04-27T10:16:05Z</time>
      </trkpt>
      <trkpt lat="45.84978" lon="6.44148">
        <ele>2215.6</ele>
        <time>2024-04-27T10:16:06Z</time>
      </trkpt>
      <trkpt lat="45.84978" lon="6.44148">
        <ele>2216.7</ele>
        <time>2024-04-27T10:16:07Z</time>
      </trkpt>
      <trkpt lat="45.84978" lon="6.44148">
        <ele>2216.7</ele>
        <time>2024-04-27T10:16:08Z</time>
      </trkpt>
      <trkpt lat="45.84978" lon="6.44148">
        <ele>2216.7</ele>
        <time>2024-04-27T10:16:09Z</time>
      </trkpt>
      <trkpt lat="45.84978" lon="6.44149">
        <ele>2216.7</ele>
        <time>2024-04-27T10:16:10Z</time>
      </trkpt>
      <trkpt lat="45.84978" lon="6.44149">
        <ele>2216.7</ele>
        <time>2024-04-27T10:16:11Z</time>
      </trkpt>
      <trkpt lat="45.84978" lon="6.44149">
        <ele>2216.7</ele>
        <time>2024-04-27T10:16:12Z</time>
      </trkpt>
      <trkpt lat="45.84978" lon="6.44149">
        <ele>2216.7</ele>
        <time>2024-04-27T10:16:13Z</time>
      </trkpt>
      <trkpt lat="45.84978" lon="6.44149">
        <ele>2216.7</ele>
        <time>2024-04-27T10:16:14Z</time>
      </trkpt>
      <trkpt lat="45.84978" lon="6.44149">
        <ele>2216.7</ele>
        <time>2024-04-27T10:16:15Z</time>
      </trkpt>
      <trkpt lat="45.84978" lon="6.44149">
        <ele>2216.7</ele>
        <time>2024-04-27T10:16:16Z</time>
      </trkpt>
      <trkpt lat="45.84979" lon="6.44149">
        <ele>2216.7</ele>
        <time>2024-04-27T10:16:17Z</time>
      </trkpt>
      <trkpt lat="45.84979" lon="6.44149">
        <ele>2216.7</ele>
        <time>2024-04-27T10:16:18Z</time>
      </trkpt>
      <trkpt lat="45.84979" lon="6.4415">
        <ele>2216.7</ele>
        <time>2024-04-27T10:16:19Z</time>
      </trkpt>
      <trkpt lat="45.8498" lon="6.4415">
        <ele>2216.7</ele>
        <time>2024-04-27T10:16:20Z</time>
      </trkpt>
      <trkpt lat="45.8498" lon="6.4415">
        <ele>2216.7</ele>
        <time>2024-04-27T10:16:21Z</time>
      </trkpt>
      <trkpt lat="45.8498" lon="6.4415">
        <ele>2216.7</ele>
        <time>2024-04-27T10:16:22Z</time>
      </trkpt>
      <trkpt lat="45.84981" lon="6.4415">
        <ele>2216.7</ele>
        <time>2024-04-27T10:16:23Z</time>
      </trkpt>
      <trkpt lat="45.84981" lon="6.44151">
        <ele>2216.7</ele>
        <time>2024-04-27T10:16:24Z</time>
      </trkpt>
      <trkpt lat="45.84981" lon="6.44151">
        <ele>2216.7</ele>
        <time>2024-04-27T10:16:25Z</time>
      </trkpt>
      <trkpt lat="45.84981" lon="6.44152">
        <ele>2216.7</ele>
        <time>2024-04-27T10:16:26Z</time>
      </trkpt>
      <trkpt lat="45.84981" lon="6.44152">
        <ele>2216.7</ele>
        <time>2024-04-27T10:16:27Z</time>
      </trkpt>
      <trkpt lat="45.84981" lon="6.44152">
        <ele>2216.7</ele>
        <time>2024-04-27T10:16:28Z</time>
      </trkpt>
      <trkpt lat="45.84982" lon="6.44153">
        <ele>2216.7</ele>
        <time>2024-04-27T10:16:29Z</time>
      </trkpt>
      <trkpt lat="45.84982" lon="6.44153">
        <ele>2216.7</ele>
        <time>2024-04-27T10:16:30Z</time>
      </trkpt>
      <trkpt lat="45.84982" lon="6.44153">
        <ele>2216.7</ele>
        <time>2024-04-27T10:16:31Z</time>
      </trkpt>
      <trkpt lat="45.84983" lon="6.44153">
        <ele>2216.7</ele>
        <time>2024-04-27T10:16:32Z</time>
      </trkpt>
      <trkpt lat="45.84983" lon="6.44153">
        <ele>2216.7</ele>
        <time>2024-04-27T10:16:33Z</time>
      </trkpt>
      <trkpt lat="45.84983" lon="6.44154">
        <ele>2216.7</ele>
        <time>2024-04-27T10:16:34Z</time>
      </trkpt>
      <trkpt lat="45.84983" lon="6.44154">
        <ele>2216.7</ele>
        <time>2024-04-27T10:16:35Z</time>
      </trkpt>
      <trkpt lat="45.84983" lon="6.44154">
        <ele>2216.7</ele>
        <time>2024-04-27T10:16:36Z</time>
      </trkpt>
      <trkpt lat="45.84983" lon="6.44154">
        <ele>2216.7</ele>
        <time>2024-04-27T10:16:37Z</time>
      </trkpt>
      <trkpt lat="45.84983" lon="6.44154">
        <ele>2216.7</ele>
        <time>2024-04-27T10:16:38Z</time>
      </trkpt>
      <trkpt lat="45.84983" lon="6.44154">
        <ele>2216.7</ele>
        <time>2024-04-27T10:16:39Z</time>
      </trkpt>
      <trkpt lat="45.84983" lon="6.44154">
        <ele>2216.7</ele>
        <time>2024-04-27T10:16:40Z</time>
      </trkpt>
      <trkpt lat="45.84984" lon="6.44154">
        <ele>2216.7</ele>
        <time>2024-04-27T10:16:41Z</time>
      </trkpt>
      <trkpt lat="45.84984" lon="6.44154">
        <ele>2216.7</ele>
        <time>2024-04-27T10:16:42Z</time>
      </trkpt>
      <trkpt lat="45.84984" lon="6.44154">
        <ele>2216.7</ele>
        <time>2024-04-27T10:16:43Z</time>
      </trkpt>
      <trkpt lat="45.84984" lon="6.44154">
        <ele>2216.7</ele>
        <time>2024-04-27T10:16:44Z</time>
      </trkpt>
      <trkpt lat="45.84984" lon="6.44154">
        <ele>2217.6</ele>
        <time>2024-04-27T10:16:45Z</time>
      </trkpt>
      <trkpt lat="45.84984" lon="6.44154">
        <ele>2217.6</ele>
        <time>2024-04-27T10:16:46Z</time>
      </trkpt>
      <trkpt lat="45.84984" lon="6.44154">
        <ele>2217.6</ele>
        <time>2024-04-27T10:16:47Z</time>
      </trkpt>
      <trkpt lat="45.84984" lon="6.44154">
        <ele>2217.6</ele>
        <time>2024-04-27T10:16:48Z</time>
      </trkpt>
      <trkpt lat="45.84984" lon="6.44154">
        <ele>2217.6</ele>
        <time>2024-04-27T10:16:49Z</time>
      </trkpt>
      <trkpt lat="45.84984" lon="6.44154">
        <ele>2217.6</ele>
        <time>2024-04-27T10:16:50Z</time>
      </trkpt>
      <trkpt lat="45.84984" lon="6.44153">
        <ele>2217.6</ele>
        <time>2024-04-27T10:16:51Z</time>
      </trkpt>
      <trkpt lat="45.84984" lon="6.44153">
        <ele>2217.6</ele>
        <time>2024-04-27T10:16:52Z</time>
      </trkpt>
      <trkpt lat="45.84984" lon="6.44153">
        <ele>2217.6</ele>
        <time>2024-04-27T10:16:53Z</time>
      </trkpt>
      <trkpt lat="45.84984" lon="6.44153">
        <ele>2217.6</ele>
        <time>2024-04-27T10:16:54Z</time>
      </trkpt>
      <trkpt lat="45.84984" lon="6.44152">
        <ele>2217.6</ele>
        <time>2024-04-27T10:16:55Z</time>
      </trkpt>
      <trkpt lat="45.84984" lon="6.44152">
        <ele>2217.6</ele>
        <time>2024-04-27T10:16:56Z</time>
      </trkpt>
      <trkpt lat="45.84984" lon="6.44152">
        <ele>2217.6</ele>
        <time>2024-04-27T10:16:57Z</time>
      </trkpt>
      <trkpt lat="45.84984" lon="6.44152">
        <ele>2217.6</ele>
        <time>2024-04-27T10:16:58Z</time>
      </trkpt>
      <trkpt lat="45.84984" lon="6.44152">
        <ele>2217.6</ele>
        <time>2024-04-27T10:16:59Z</time>
      </trkpt>
      <trkpt lat="45.84984" lon="6.44151">
        <ele>2217.6</ele>
        <time>2024-04-27T10:17:00Z</time>
      </trkpt>
      <trkpt lat="45.84984" lon="6.44151">
        <ele>2217.6</ele>
        <time>2024-04-27T10:17:01Z</time>
      </trkpt>
      <trkpt lat="45.84984" lon="6.44151">
        <ele>2217.6</ele>
        <time>2024-04-27T10:17:02Z</time>
      </trkpt>
      <trkpt lat="45.84984" lon="6.44151">
        <ele>2217.6</ele>
        <time>2024-04-27T10:17:03Z</time>
      </trkpt>
      <trkpt lat="45.84984" lon="6.4415">
        <ele>2217.6</ele>
        <time>2024-04-27T10:17:04Z</time>
      </trkpt>
      <trkpt lat="45.84984" lon="6.4415">
        <ele>2217.6</ele>
        <time>2024-04-27T10:17:05Z</time>
      </trkpt>
      <trkpt lat="45.84984" lon="6.4415">
        <ele>2217.6</ele>
        <time>2024-04-27T10:17:06Z</time>
      </trkpt>
      <trkpt lat="45.84984" lon="6.4415">
        <ele>2217.6</ele>
        <time>2024-04-27T10:17:07Z</time>
      </trkpt>
      <trkpt lat="45.84984" lon="6.4415">
        <ele>2217.6</ele>
        <time>2024-04-27T10:17:08Z</time>
      </trkpt>
      <trkpt lat="45.84984" lon="6.4415">
        <ele>2217.6</ele>
        <time>2024-04-27T10:17:09Z</time>
      </trkpt>
      <trkpt lat="45.84985" lon="6.4415">
        <ele>2217.6</ele>
        <time>2024-04-27T10:17:10Z</time>
      </trkpt>
      <trkpt lat="45.84985" lon="6.4415">
        <ele>2218.7</ele>
        <time>2024-04-27T10:17:11Z</time>
      </trkpt>
      <trkpt lat="45.84985" lon="6.4415">
        <ele>2218.7</ele>
        <time>2024-04-27T10:17:12Z</time>
      </trkpt>
      <trkpt lat="45.84985" lon="6.4415">
        <ele>2218.7</ele>
        <time>2024-04-27T10:17:13Z</time>
      </trkpt>
      <trkpt lat="45.84985" lon="6.4415">
        <ele>2218.7</ele>
        <time>2024-04-27T10:17:14Z</time>
      </trkpt>
      <trkpt lat="45.84985" lon="6.4415">
        <ele>2218.7</ele>
        <time>2024-04-27T10:17:15Z</time>
      </trkpt>
      <trkpt lat="45.84985" lon="6.4415">
        <ele>2218.7</ele>
        <time>2024-04-27T10:17:16Z</time>
      </trkpt>
      <trkpt lat="45.84985" lon="6.4415">
        <ele>2218.7</ele>
        <time>2024-04-27T10:17:17Z</time>
      </trkpt>
      <trkpt lat="45.84985" lon="6.4415">
        <ele>2218.7</ele>
        <time>2024-04-27T10:17:18Z</time>
      </trkpt>
      <trkpt lat="45.84985" lon="6.4415">
        <ele>2218.7</ele>
        <time>2024-04-27T10:17:19Z</time>
      </trkpt>
      <trkpt lat="45.84985" lon="6.4415">
        <ele>2218.7</ele>
        <time>2024-04-27T10:17:20Z</time>
      </trkpt>
      <trkpt lat="45.84985" lon="6.4415">
        <ele>2218.7</ele>
        <time>2024-04-27T10:17:21Z</time>
      </trkpt>
      <trkpt lat="45.84985" lon="6.4415">
        <ele>2218.7</ele>
        <time>2024-04-27T10:17:22Z</time>
      </trkpt>
      <trkpt lat="45.84985" lon="6.4415">
        <ele>2218.7</ele>
        <time>2024-04-27T10:17:23Z</time>
      </trkpt>
      <trkpt lat="45.84985" lon="6.4415">
        <ele>2218.7</ele>
        <time>2024-04-27T10:17:24Z</time>
      </trkpt>
      <trkpt lat="45.84985" lon="6.4415">
        <ele>2218.7</ele>
        <time>2024-04-27T10:17:25Z</time>
      </trkpt>
      <trkpt lat="45.84985" lon="6.4415">
        <ele>2218.7</ele>
        <time>2024-04-27T10:17:26Z</time>
      </trkpt>
      <trkpt lat="45.84985" lon="6.4415">
        <ele>2218.7</ele>
        <time>2024-04-27T10:17:27Z</time>
      </trkpt>
      <trkpt lat="45.84985" lon="6.4415">
        <ele>2218.7</ele>
        <time>2024-04-27T10:17:28Z</time>
      </trkpt>
      <trkpt lat="45.84985" lon="6.4415">
        <ele>2218.7</ele>
        <time>2024-04-27T10:17:29Z</time>
      </trkpt>
      <trkpt lat="45.84985" lon="6.4415">
        <ele>2218.7</ele>
        <time>2024-04-27T10:17:30Z</time>
      </trkpt>
      <trkpt lat="45.84985" lon="6.4415">
        <ele>2218.7</ele>
        <time>2024-04-27T10:17:31Z</time>
      </trkpt>
      <trkpt lat="45.84985" lon="6.4415">
        <ele>2218.7</ele>
        <time>2024-04-27T10:17:32Z</time>
      </trkpt>
      <trkpt lat="45.84985" lon="6.4415">
        <ele>2218.7</ele>
        <time>2024-04-27T10:17:33Z</time>
      </trkpt>
      <trkpt lat="45.84985" lon="6.4415">
        <ele>2218.7</ele>
        <time>2024-04-27T10:17:34Z</time>
      </trkpt>
      <trkpt lat="45.84985" lon="6.44149">
        <ele>2218.7</ele>
        <time>2024-04-27T10:17:35Z</time>
      </trkpt>
      <trkpt lat="45.84985" lon="6.44149">
        <ele>2218.7</ele>
        <time>2024-04-27T10:17:36Z</time>
      </trkpt>
      <trkpt lat="45.84985" lon="6.44149">
        <ele>2218.7</ele>
        <time>2024-04-27T10:17:37Z</time>
      </trkpt>
      <trkpt lat="45.84985" lon="6.44149">
        <ele>2218.7</ele>
        <time>2024-04-27T10:17:38Z</time>
      </trkpt>
      <trkpt lat="45.84985" lon="6.44149">
        <ele>2218.7</ele>
        <time>2024-04-27T10:17:39Z</time>
      </trkpt>
      <trkpt lat="45.84985" lon="6.44149">
        <ele>2218.7</ele>
        <time>2024-04-27T10:17:40Z</time>
      </trkpt>
      <trkpt lat="45.84985" lon="6.44149">
        <ele>2218.7</ele>
        <time>2024-04-27T10:17:41Z</time>
      </trkpt>
      <trkpt lat="45.84985" lon="6.44149">
        <ele>2218.7</ele>
        <time>2024-04-27T10:17:42Z</time>
      </trkpt>
      <trkpt lat="45.84985" lon="6.44149">
        <ele>2216.7</ele>
        <time>2024-04-27T10:17:43Z</time>
      </trkpt>
      <trkpt lat="45.84985" lon="6.44149">
        <ele>2216.7</ele>
        <time>2024-04-27T10:17:44Z</time>
      </trkpt>
      <trkpt lat="45.84985" lon="6.44149">
        <ele>2216.7</ele>
        <time>2024-04-27T10:17:45Z</time>
      </trkpt>
      <trkpt lat="45.84985" lon="6.44149">
        <ele>2216.7</ele>
        <time>2024-04-27T10:17:46Z</time>
      </trkpt>
      <trkpt lat="45.84985" lon="6.44149">
        <ele>2216.7</ele>
        <time>2024-04-27T10:17:47Z</time>
      </trkpt>
      <trkpt lat="45.84985" lon="6.44149">
        <ele>2216.7</ele>
        <time>2024-04-27T10:17:48Z</time>
      </trkpt>
      <trkpt lat="45.84985" lon="6.44149">
        <ele>2216.7</ele>
        <time>2024-04-27T10:17:49Z</time>
      </trkpt>
      <trkpt lat="45.84985" lon="6.44149">
        <ele>2216.7</ele>
        <time>2024-04-27T10:17:50Z</time>
      </trkpt>
      <trkpt lat="45.84986" lon="6.44149">
        <ele>2216.7</ele>
        <time>2024-04-27T10:17:51Z</time>
      </trkpt>
      <trkpt lat="45.84986" lon="6.44149">
        <ele>2216.7</ele>
        <time>2024-04-27T10:17:52Z</time>
      </trkpt>
      <trkpt lat="45.84986" lon="6.44149">
        <ele>2216.7</ele>
        <time>2024-04-27T10:17:53Z</time>
      </trkpt>
      <trkpt lat="45.84986" lon="6.44149">
        <ele>2216.7</ele>
        <time>2024-04-27T10:17:54Z</time>
      </trkpt>
      <trkpt lat="45.84987" lon="6.44149">
        <ele>2216.7</ele>
        <time>2024-04-27T10:17:55Z</time>
      </trkpt>
      <trkpt lat="45.84987" lon="6.44148">
        <ele>2216.7</ele>
        <time>2024-04-27T10:17:56Z</time>
      </trkpt>
      <trkpt lat="45.84988" lon="6.44149">
        <ele>2216.7</ele>
        <time>2024-04-27T10:17:57Z</time>
      </trkpt>
      <trkpt lat="45.84988" lon="6.4415">
        <ele>2216.7</ele>
        <time>2024-04-27T10:17:58Z</time>
      </trkpt>
      <trkpt lat="45.84989" lon="6.4415">
        <ele>2216.7</ele>
        <time>2024-04-27T10:17:59Z</time>
      </trkpt>
      <trkpt lat="45.8499" lon="6.4415">
        <ele>2216.7</ele>
        <time>2024-04-27T10:18:00Z</time>
      </trkpt>
      <trkpt lat="45.8499" lon="6.4415">
        <ele>2216.7</ele>
        <time>2024-04-27T10:18:01Z</time>
      </trkpt>
      <trkpt lat="45.84991" lon="6.44149">
        <ele>2216.7</ele>
        <time>2024-04-27T10:18:02Z</time>
      </trkpt>
      <trkpt lat="45.84992" lon="6.44149">
        <ele>2216.7</ele>
        <time>2024-04-27T10:18:03Z</time>
      </trkpt>
      <trkpt lat="45.84992" lon="6.44149">
        <ele>2216.7</ele>
        <time>2024-04-27T10:18:04Z</time>
      </trkpt>
      <trkpt lat="45.84993" lon="6.44148">
        <ele>2216.7</ele>
        <time>2024-04-27T10:18:05Z</time>
      </trkpt>
      <trkpt lat="45.84993" lon="6.44148">
        <ele>2216.7</ele>
        <time>2024-04-27T10:18:06Z</time>
      </trkpt>
      <trkpt lat="45.84993" lon="6.44148">
        <ele>2216.7</ele>
        <time>2024-04-27T10:18:07Z</time>
      </trkpt>
      <trkpt lat="45.84993" lon="6.44148">
        <ele>2216.7</ele>
        <time>2024-04-27T10:18:08Z</time>
      </trkpt>
      <trkpt lat="45.84993" lon="6.44148">
        <ele>2216.7</ele>
        <time>2024-04-27T10:18:09Z</time>
      </trkpt>
      <trkpt lat="45.84993" lon="6.44147">
        <ele>2216.7</ele>
        <time>2024-04-27T10:18:10Z</time>
      </trkpt>
      <trkpt lat="45.84992" lon="6.44147">
        <ele>2217.6</ele>
        <time>2024-04-27T10:18:11Z</time>
      </trkpt>
      <trkpt lat="45.84991" lon="6.44148">
        <ele>2217.6</ele>
        <time>2024-04-27T10:18:12Z</time>
      </trkpt>
      <trkpt lat="45.84991" lon="6.44148">
        <ele>2217.6</ele>
        <time>2024-04-27T10:18:13Z</time>
      </trkpt>
      <trkpt lat="45.84991" lon="6.44148">
        <ele>2217.6</ele>
        <time>2024-04-27T10:18:14Z</time>
      </trkpt>
      <trkpt lat="45.8499" lon="6.44148">
        <ele>2217.6</ele>
        <time>2024-04-27T10:18:15Z</time>
      </trkpt>
      <trkpt lat="45.84991" lon="6.44148">
        <ele>2217.6</ele>
        <time>2024-04-27T10:18:16Z</time>
      </trkpt>
      <trkpt lat="45.84991" lon="6.44148">
        <ele>2217.6</ele>
        <time>2024-04-27T10:18:17Z</time>
      </trkpt>
      <trkpt lat="45.84992" lon="6.44147">
        <ele>2217.6</ele>
        <time>2024-04-27T10:18:18Z</time>
      </trkpt>
      <trkpt lat="45.84992" lon="6.44146">
        <ele>2217.6</ele>
        <time>2024-04-27T10:18:19Z</time>
      </trkpt>
      <trkpt lat="45.84992" lon="6.44146">
        <ele>2217.6</ele>
        <time>2024-04-27T10:18:20Z</time>
      </trkpt>
      <trkpt lat="45.84992" lon="6.44146">
        <ele>2218.7</ele>
        <time>2024-04-27T10:18:21Z</time>
      </trkpt>
      <trkpt lat="45.84991" lon="6.44147">
        <ele>2218.7</ele>
        <time>2024-04-27T10:18:22Z</time>
      </trkpt>
      <trkpt lat="45.84991" lon="6.44147">
        <ele>2219.6</ele>
        <time>2024-04-27T10:18:23Z</time>
      </trkpt>
      <trkpt lat="45.84992" lon="6.44147">
        <ele>2219.6</ele>
        <time>2024-04-27T10:18:24Z</time>
      </trkpt>
      <trkpt lat="45.84992" lon="6.44148">
        <ele>2219.6</ele>
        <time>2024-04-27T10:18:25Z</time>
      </trkpt>
      <trkpt lat="45.84991" lon="6.44148">
        <ele>2219.6</ele>
        <time>2024-04-27T10:18:26Z</time>
      </trkpt>
      <trkpt lat="45.8499" lon="6.44147">
        <ele>2219.6</ele>
        <time>2024-04-27T10:18:27Z</time>
      </trkpt>
      <trkpt lat="45.8499" lon="6.44147">
        <ele>2219.6</ele>
        <time>2024-04-27T10:18:28Z</time>
      </trkpt>
      <trkpt lat="45.84991" lon="6.44146">
        <ele>2219.6</ele>
        <time>2024-04-27T10:18:29Z</time>
      </trkpt>
      <trkpt lat="45.84991" lon="6.44146">
        <ele>2219.6</ele>
        <time>2024-04-27T10:18:30Z</time>
      </trkpt>
      <trkpt lat="45.84991" lon="6.44146">
        <ele>2219.6</ele>
        <time>2024-04-27T10:18:31Z</time>
      </trkpt>
      <trkpt lat="45.84991" lon="6.44146">
        <ele>2219.6</ele>
        <time>2024-04-27T10:18:32Z</time>
      </trkpt>
      <trkpt lat="45.84991" lon="6.44146">
        <ele>2219.6</ele>
        <time>2024-04-27T10:18:33Z</time>
      </trkpt>
      <trkpt lat="45.84991" lon="6.44146">
        <ele>2219.6</ele>
        <time>2024-04-27T10:18:34Z</time>
      </trkpt>
      <trkpt lat="45.84991" lon="6.44146">
        <ele>2219.6</ele>
        <time>2024-04-27T10:18:35Z</time>
      </trkpt>
      <trkpt lat="45.84991" lon="6.44146">
        <ele>2219.6</ele>
        <time>2024-04-27T10:18:36Z</time>
      </trkpt>
      <trkpt lat="45.84991" lon="6.44146">
        <ele>2219.6</ele>
        <time>2024-04-27T10:18:37Z</time>
      </trkpt>
      <trkpt lat="45.84991" lon="6.44146">
        <ele>2219.6</ele>
        <time>2024-04-27T10:18:38Z</time>
      </trkpt>
      <trkpt lat="45.84991" lon="6.44146">
        <ele>2219.6</ele>
        <time>2024-04-27T10:18:39Z</time>
      </trkpt>
      <trkpt lat="45.84991" lon="6.44146">
        <ele>2219.6</ele>
        <time>2024-04-27T10:18:40Z</time>
      </trkpt>
      <trkpt lat="45.84991" lon="6.44146">
        <ele>2219.6</ele>
        <time>2024-04-27T10:18:41Z</time>
      </trkpt>
      <trkpt lat="45.84991" lon="6.44146">
        <ele>2219.6</ele>
        <time>2024-04-27T10:18:42Z</time>
      </trkpt>
      <trkpt lat="45.84991" lon="6.44146">
        <ele>2219.6</ele>
        <time>2024-04-27T10:18:43Z</time>
      </trkpt>
      <trkpt lat="45.84991" lon="6.44146">
        <ele>2219.6</ele>
        <time>2024-04-27T10:18:44Z</time>
      </trkpt>
      <trkpt lat="45.84991" lon="6.44146">
        <ele>2219.6</ele>
        <time>2024-04-27T10:18:45Z</time>
      </trkpt>
      <trkpt lat="45.84991" lon="6.44146">
        <ele>2219.6</ele>
        <time>2024-04-27T10:18:46Z</time>
      </trkpt>
      <trkpt lat="45.84991" lon="6.44146">
        <ele>2219.6</ele>
        <time>2024-04-27T10:18:47Z</time>
      </trkpt>
      <trkpt lat="45.8499" lon="6.44146">
        <ele>2219.6</ele>
        <time>2024-04-27T10:18:48Z</time>
      </trkpt>
      <trkpt lat="45.8499" lon="6.44146">
        <ele>2219.6</ele>
        <time>2024-04-27T10:18:49Z</time>
      </trkpt>
      <trkpt lat="45.8499" lon="6.44146">
        <ele>2219.6</ele>
        <time>2024-04-27T10:18:50Z</time>
      </trkpt>
      <trkpt lat="45.8499" lon="6.44146">
        <ele>2219.6</ele>
        <time>2024-04-27T10:18:51Z</time>
      </trkpt>
      <trkpt lat="45.8499" lon="6.44146">
        <ele>2219.6</ele>
        <time>2024-04-27T10:18:52Z</time>
      </trkpt>
      <trkpt lat="45.8499" lon="6.44146">
        <ele>2219.6</ele>
        <time>2024-04-27T10:18:53Z</time>
      </trkpt>
      <trkpt lat="45.8499" lon="6.44146">
        <ele>2219.6</ele>
        <time>2024-04-27T10:18:54Z</time>
      </trkpt>
      <trkpt lat="45.84989" lon="6.44145">
        <ele>2219.6</ele>
        <time>2024-04-27T10:18:55Z</time>
      </trkpt>
      <trkpt lat="45.84989" lon="6.44145">
        <ele>2219.6</ele>
        <time>2024-04-27T10:18:56Z</time>
      </trkpt>
      <trkpt lat="45.84989" lon="6.44145">
        <ele>2219.6</ele>
        <time>2024-04-27T10:18:57Z</time>
      </trkpt>
      <trkpt lat="45.84989" lon="6.44145">
        <ele>2219.6</ele>
        <time>2024-04-27T10:18:58Z</time>
      </trkpt>
      <trkpt lat="45.84988" lon="6.44145">
        <ele>2219.6</ele>
        <time>2024-04-27T10:18:59Z</time>
      </trkpt>
      <trkpt lat="45.84988" lon="6.44145">
        <ele>2219.6</ele>
        <time>2024-04-27T10:19:00Z</time>
      </trkpt>
      <trkpt lat="45.84988" lon="6.44145">
        <ele>2220.6</ele>
        <time>2024-04-27T10:19:01Z</time>
      </trkpt>
      <trkpt lat="45.84988" lon="6.44145">
        <ele>2220.6</ele>
        <time>2024-04-27T10:19:02Z</time>
      </trkpt>
      <trkpt lat="45.84988" lon="6.44145">
        <ele>2220.6</ele>
        <time>2024-04-27T10:19:03Z</time>
      </trkpt>
      <trkpt lat="45.84987" lon="6.44145">
        <ele>2220.6</ele>
        <time>2024-04-27T10:19:04Z</time>
      </trkpt>
      <trkpt lat="45.84987" lon="6.44145">
        <ele>2220.6</ele>
        <time>2024-04-27T10:19:05Z</time>
      </trkpt>
      <trkpt lat="45.84987" lon="6.44145">
        <ele>2220.6</ele>
        <time>2024-04-27T10:19:06Z</time>
      </trkpt>
      <trkpt lat="45.84987" lon="6.44145">
        <ele>2220.6</ele>
        <time>2024-04-27T10:19:07Z</time>
      </trkpt>
      <trkpt lat="45.84987" lon="6.44145">
        <ele>2220.6</ele>
        <time>2024-04-27T10:19:08Z</time>
      </trkpt>
      <trkpt lat="45.84986" lon="6.44144">
        <ele>2221.7</ele>
        <time>2024-04-27T10:19:09Z</time>
      </trkpt>
      <trkpt lat="45.84986" lon="6.44144">
        <ele>2221.7</ele>
        <time>2024-04-27T10:19:10Z</time>
      </trkpt>
      <trkpt lat="45.84986" lon="6.44144">
        <ele>2221.7</ele>
        <time>2024-04-27T10:19:11Z</time>
      </trkpt>
      <trkpt lat="45.84986" lon="6.44144">
        <ele>2221.7</ele>
        <time>2024-04-27T10:19:12Z</time>
      </trkpt>
      <trkpt lat="45.84986" lon="6.44144">
        <ele>2221.7</ele>
        <time>2024-04-27T10:19:13Z</time>
      </trkpt>
      <trkpt lat="45.84985" lon="6.44144">
        <ele>2221.7</ele>
        <time>2024-04-27T10:19:14Z</time>
      </trkpt>
      <trkpt lat="45.84985" lon="6.44144">
        <ele>2221.7</ele>
        <time>2024-04-27T10:19:15Z</time>
      </trkpt>
      <trkpt lat="45.84984" lon="6.44144">
        <ele>2221.7</ele>
        <time>2024-04-27T10:19:16Z</time>
      </trkpt>
      <trkpt lat="45.84984" lon="6.44144">
        <ele>2221.7</ele>
        <time>2024-04-27T10:19:17Z</time>
      </trkpt>
      <trkpt lat="45.84984" lon="6.44144">
        <ele>2221.7</ele>
        <time>2024-04-27T10:19:18Z</time>
      </trkpt>
      <trkpt lat="45.84984" lon="6.44144">
        <ele>2221.7</ele>
        <time>2024-04-27T10:19:19Z</time>
      </trkpt>
      <trkpt lat="45.84984" lon="6.44144">
        <ele>2221.7</ele>
        <time>2024-04-27T10:19:20Z</time>
      </trkpt>
      <trkpt lat="45.84984" lon="6.44144">
        <ele>2221.7</ele>
        <time>2024-04-27T10:19:21Z</time>
      </trkpt>
      <trkpt lat="45.84984" lon="6.44144">
        <ele>2221.7</ele>
        <time>2024-04-27T10:19:22Z</time>
      </trkpt>
      <trkpt lat="45.84984" lon="6.44143">
        <ele>2221.7</ele>
        <time>2024-04-27T10:19:23Z</time>
      </trkpt>
      <trkpt lat="45.84985" lon="6.44143">
        <ele>2221.7</ele>
        <time>2024-04-27T10:19:24Z</time>
      </trkpt>
      <trkpt lat="45.84985" lon="6.44142">
        <ele>2221.7</ele>
        <time>2024-04-27T10:19:25Z</time>
      </trkpt>
      <trkpt lat="45.84986" lon="6.44141">
        <ele>2221.7</ele>
        <time>2024-04-27T10:19:26Z</time>
      </trkpt>
      <trkpt lat="45.84986" lon="6.44141">
        <ele>2221.7</ele>
        <time>2024-04-27T10:19:27Z</time>
      </trkpt>
      <trkpt lat="45.84986" lon="6.44141">
        <ele>2221.7</ele>
        <time>2024-04-27T10:19:28Z</time>
      </trkpt>
      <trkpt lat="45.84986" lon="6.4414">
        <ele>2221.7</ele>
        <time>2024-04-27T10:19:29Z</time>
      </trkpt>
      <trkpt lat="45.84987" lon="6.4414">
        <ele>2221.7</ele>
        <time>2024-04-27T10:19:30Z</time>
      </trkpt>
      <trkpt lat="45.84987" lon="6.44139">
        <ele>2220.6</ele>
        <time>2024-04-27T10:19:31Z</time>
      </trkpt>
      <trkpt lat="45.84987" lon="6.44139">
        <ele>2220.6</ele>
        <time>2024-04-27T10:19:32Z</time>
      </trkpt>
      <trkpt lat="45.84986" lon="6.44139">
        <ele>2220.6</ele>
        <time>2024-04-27T10:19:33Z</time>
      </trkpt>
      <trkpt lat="45.84986" lon="6.44139">
        <ele>2220.6</ele>
        <time>2024-04-27T10:19:34Z</time>
      </trkpt>
      <trkpt lat="45.84986" lon="6.44139">
        <ele>2219.6</ele>
        <time>2024-04-27T10:19:35Z</time>
      </trkpt>
      <trkpt lat="45.84985" lon="6.44139">
        <ele>2219.6</ele>
        <time>2024-04-27T10:19:36Z</time>
      </trkpt>
      <trkpt lat="45.84985" lon="6.44139">
        <ele>2219.6</ele>
        <time>2024-04-27T10:19:37Z</time>
      </trkpt>
      <trkpt lat="45.84985" lon="6.44139">
        <ele>2219.6</ele>
        <time>2024-04-27T10:19:38Z</time>
      </trkpt>
      <trkpt lat="45.84985" lon="6.44139">
        <ele>2219.6</ele>
        <time>2024-04-27T10:19:39Z</time>
      </trkpt>
      <trkpt lat="45.84985" lon="6.44139">
        <ele>2219.6</ele>
        <time>2024-04-27T10:19:40Z</time>
      </trkpt>
      <trkpt lat="45.84985" lon="6.44139">
        <ele>2219.6</ele>
        <time>2024-04-27T10:19:41Z</time>
      </trkpt>
      <trkpt lat="45.84985" lon="6.44139">
        <ele>2219.6</ele>
        <time>2024-04-27T10:19:42Z</time>
      </trkpt>
      <trkpt lat="45.84985" lon="6.44139">
        <ele>2218.7</ele>
        <time>2024-04-27T10:19:43Z</time>
      </trkpt>
      <trkpt lat="45.84985" lon="6.44139">
        <ele>2218.7</ele>
        <time>2024-04-27T10:19:44Z</time>
      </trkpt>
      <trkpt lat="45.84985" lon="6.44139">
        <ele>2218.7</ele>
        <time>2024-04-27T10:19:45Z</time>
      </trkpt>
      <trkpt lat="45.84985" lon="6.44139">
        <ele>2218.7</ele>
        <time>2024-04-27T10:19:46Z</time>
      </trkpt>
      <trkpt lat="45.84985" lon="6.44139">
        <ele>2218.7</ele>
        <time>2024-04-27T10:19:47Z</time>
      </trkpt>
      <trkpt lat="45.84985" lon="6.44139">
        <ele>2218.7</ele>
        <time>2024-04-27T10:19:48Z</time>
      </trkpt>
      <trkpt lat="45.84985" lon="6.44139">
        <ele>2218.7</ele>
        <time>2024-04-27T10:19:49Z</time>
      </trkpt>
      <trkpt lat="45.84985" lon="6.44139">
        <ele>2218.7</ele>
        <time>2024-04-27T10:19:50Z</time>
      </trkpt>
      <trkpt lat="45.84986" lon="6.44139">
        <ele>2218.7</ele>
        <time>2024-04-27T10:19:51Z</time>
      </trkpt>
      <trkpt lat="45.84986" lon="6.4414">
        <ele>2218.7</ele>
        <time>2024-04-27T10:19:52Z</time>
      </trkpt>
      <trkpt lat="45.84986" lon="6.4414">
        <ele>2218.7</ele>
        <time>2024-04-27T10:19:53Z</time>
      </trkpt>
      <trkpt lat="45.84986" lon="6.4414">
        <ele>2218.7</ele>
        <time>2024-04-27T10:19:54Z</time>
      </trkpt>
      <trkpt lat="45.84986" lon="6.4414">
        <ele>2218.7</ele>
        <time>2024-04-27T10:19:55Z</time>
      </trkpt>
      <trkpt lat="45.84986" lon="6.4414">
        <ele>2218.7</ele>
        <time>2024-04-27T10:19:56Z</time>
      </trkpt>
      <trkpt lat="45.84986" lon="6.4414">
        <ele>2216.7</ele>
        <time>2024-04-27T10:19:57Z</time>
      </trkpt>
      <trkpt lat="45.84986" lon="6.4414">
        <ele>2216.7</ele>
        <time>2024-04-27T10:19:58Z</time>
      </trkpt>
      <trkpt lat="45.84985" lon="6.4414">
        <ele>2216.7</ele>
        <time>2024-04-27T10:19:59Z</time>
      </trkpt>
      <trkpt lat="45.84985" lon="6.4414">
        <ele>2216.7</ele>
        <time>2024-04-27T10:20:00Z</time>
      </trkpt>
      <trkpt lat="45.84985" lon="6.4414">
        <ele>2216.7</ele>
        <time>2024-04-27T10:20:01Z</time>
      </trkpt>
      <trkpt lat="45.84985" lon="6.4414">
        <ele>2216.7</ele>
        <time>2024-04-27T10:20:02Z</time>
      </trkpt>
      <trkpt lat="45.84985" lon="6.4414">
        <ele>2216.7</ele>
        <time>2024-04-27T10:20:03Z</time>
      </trkpt>
      <trkpt lat="45.84985" lon="6.4414">
        <ele>2216.7</ele>
        <time>2024-04-27T10:20:04Z</time>
      </trkpt>
      <trkpt lat="45.84985" lon="6.4414">
        <ele>2216.7</ele>
        <time>2024-04-27T10:20:05Z</time>
      </trkpt>
      <trkpt lat="45.84985" lon="6.4414">
        <ele>2216.7</ele>
        <time>2024-04-27T10:20:06Z</time>
      </trkpt>
      <trkpt lat="45.84984" lon="6.44141">
        <ele>2217.6</ele>
        <time>2024-04-27T10:20:07Z</time>
      </trkpt>
      <trkpt lat="45.84984" lon="6.44141">
        <ele>2217.6</ele>
        <time>2024-04-27T10:20:08Z</time>
      </trkpt>
      <trkpt lat="45.84984" lon="6.44141">
        <ele>2217.6</ele>
        <time>2024-04-27T10:20:09Z</time>
      </trkpt>
      <trkpt lat="45.84984" lon="6.4414">
        <ele>2217.6</ele>
        <time>2024-04-27T10:20:10Z</time>
      </trkpt>
      <trkpt lat="45.84984" lon="6.4414">
        <ele>2217.6</ele>
        <time>2024-04-27T10:20:11Z</time>
      </trkpt>
      <trkpt lat="45.84984" lon="6.4414">
        <ele>2217.6</ele>
        <time>2024-04-27T10:20:12Z</time>
      </trkpt>
      <trkpt lat="45.84984" lon="6.4414">
        <ele>2217.6</ele>
        <time>2024-04-27T10:20:13Z</time>
      </trkpt>
      <trkpt lat="45.84984" lon="6.4414">
        <ele>2217.6</ele>
        <time>2024-04-27T10:20:14Z</time>
      </trkpt>
      <trkpt lat="45.84983" lon="6.4414">
        <ele>2217.6</ele>
        <time>2024-04-27T10:20:15Z</time>
      </trkpt>
      <trkpt lat="45.84983" lon="6.4414">
        <ele>2217.6</ele>
        <time>2024-04-27T10:20:16Z</time>
      </trkpt>
      <trkpt lat="45.84983" lon="6.4414">
        <ele>2216.7</ele>
        <time>2024-04-27T10:20:17Z</time>
      </trkpt>
      <trkpt lat="45.84983" lon="6.4414">
        <ele>2216.7</ele>
        <time>2024-04-27T10:20:18Z</time>
      </trkpt>
      <trkpt lat="45.84983" lon="6.4414">
        <ele>2216.7</ele>
        <time>2024-04-27T10:20:19Z</time>
      </trkpt>
      <trkpt lat="45.84983" lon="6.44139">
        <ele>2216.7</ele>
        <time>2024-04-27T10:20:20Z</time>
      </trkpt>
      <trkpt lat="45.84983" lon="6.44139">
        <ele>2216.7</ele>
        <time>2024-04-27T10:20:21Z</time>
      </trkpt>
      <trkpt lat="45.84983" lon="6.44139">
        <ele>2216.7</ele>
        <time>2024-04-27T10:20:22Z</time>
      </trkpt>
      <trkpt lat="45.84983" lon="6.44139">
        <ele>2216.7</ele>
        <time>2024-04-27T10:20:23Z</time>
      </trkpt>
      <trkpt lat="45.84983" lon="6.44139">
        <ele>2216.7</ele>
        <time>2024-04-27T10:20:24Z</time>
      </trkpt>
      <trkpt lat="45.84983" lon="6.44139">
        <ele>2216.7</ele>
        <time>2024-04-27T10:20:25Z</time>
      </trkpt>
      <trkpt lat="45.84983" lon="6.44139">
        <ele>2216.7</ele>
        <time>2024-04-27T10:20:26Z</time>
      </trkpt>
      <trkpt lat="45.84983" lon="6.44138">
        <ele>2216.7</ele>
        <time>2024-04-27T10:20:27Z</time>
      </trkpt>
      <trkpt lat="45.84982" lon="6.44138">
        <ele>2216.7</ele>
        <time>2024-04-27T10:20:28Z</time>
      </trkpt>
      <trkpt lat="45.84982" lon="6.44138">
        <ele>2216.7</ele>
        <time>2024-04-27T10:20:29Z</time>
      </trkpt>
      <trkpt lat="45.84982" lon="6.44137">
        <ele>2216.7</ele>
        <time>2024-04-27T10:20:30Z</time>
      </trkpt>
      <trkpt lat="45.84982" lon="6.44137">
        <ele>2216.7</ele>
        <time>2024-04-27T10:20:31Z</time>
      </trkpt>
      <trkpt lat="45.84982" lon="6.44137">
        <ele>2216.7</ele>
        <time>2024-04-27T10:20:32Z</time>
      </trkpt>
      <trkpt lat="45.84982" lon="6.44137">
        <ele>2216.7</ele>
        <time>2024-04-27T10:20:33Z</time>
      </trkpt>
      <trkpt lat="45.84982" lon="6.44137">
        <ele>2216.7</ele>
        <time>2024-04-27T10:20:34Z</time>
      </trkpt>
      <trkpt lat="45.84982" lon="6.44137">
        <ele>2216.7</ele>
        <time>2024-04-27T10:20:35Z</time>
      </trkpt>
      <trkpt lat="45.84982" lon="6.44137">
        <ele>2216.7</ele>
        <time>2024-04-27T10:20:36Z</time>
      </trkpt>
      <trkpt lat="45.84982" lon="6.44137">
        <ele>2216.7</ele>
        <time>2024-04-27T10:20:37Z</time>
      </trkpt>
      <trkpt lat="45.84982" lon="6.44137">
        <ele>2216.7</ele>
        <time>2024-04-27T10:20:38Z</time>
      </trkpt>
      <trkpt lat="45.84982" lon="6.44137">
        <ele>2216.7</ele>
        <time>2024-04-27T10:20:39Z</time>
      </trkpt>
      <trkpt lat="45.84981" lon="6.44137">
        <ele>2216.7</ele>
        <time>2024-04-27T10:20:40Z</time>
      </trkpt>
      <trkpt lat="45.84981" lon="6.44137">
        <ele>2213.6</ele>
        <time>2024-04-27T10:20:41Z</time>
      </trkpt>
      <trkpt lat="45.84981" lon="6.44137">
        <ele>2213.6</ele>
        <time>2024-04-27T10:20:42Z</time>
      </trkpt>
      <trkpt lat="45.84981" lon="6.44137">
        <ele>2211.7</ele>
        <time>2024-04-27T10:20:43Z</time>
      </trkpt>
      <trkpt lat="45.84981" lon="6.44137">
        <ele>2211.7</ele>
        <time>2024-04-27T10:20:44Z</time>
      </trkpt>
      <trkpt lat="45.84981" lon="6.44138">
        <ele>2210.6</ele>
        <time>2024-04-27T10:20:45Z</time>
      </trkpt>
      <trkpt lat="45.84981" lon="6.44138">
        <ele>2210.6</ele>
        <time>2024-04-27T10:20:46Z</time>
      </trkpt>
      <trkpt lat="45.84981" lon="6.44139">
        <ele>2210.6</ele>
        <time>2024-04-27T10:20:47Z</time>
      </trkpt>
      <trkpt lat="45.84981" lon="6.44139">
        <ele>2210.6</ele>
        <time>2024-04-27T10:20:48Z</time>
      </trkpt>
      <trkpt lat="45.84981" lon="6.44139">
        <ele>2209.7</ele>
        <time>2024-04-27T10:20:49Z</time>
      </trkpt>
      <trkpt lat="45.84981" lon="6.44139">
        <ele>2209.7</ele>
        <time>2024-04-27T10:20:50Z</time>
      </trkpt>
      <trkpt lat="45.84981" lon="6.44139">
        <ele>2209.7</ele>
        <time>2024-04-27T10:20:51Z</time>
      </trkpt>
      <trkpt lat="45.84981" lon="6.44139">
        <ele>2209.7</ele>
        <time>2024-04-27T10:20:52Z</time>
      </trkpt>
      <trkpt lat="45.84981" lon="6.44139">
        <ele>2209.7</ele>
        <time>2024-04-27T10:20:53Z</time>
      </trkpt>
      <trkpt lat="45.84981" lon="6.44139">
        <ele>2209.7</ele>
        <time>2024-04-27T10:20:54Z</time>
      </trkpt>
      <trkpt lat="45.84981" lon="6.44139">
        <ele>2209.7</ele>
        <time>2024-04-27T10:20:55Z</time>
      </trkpt>
      <trkpt lat="45.84981" lon="6.44139">
        <ele>2209.7</ele>
        <time>2024-04-27T10:20:56Z</time>
      </trkpt>
      <trkpt lat="45.84981" lon="6.44139">
        <ele>2210.6</ele>
        <time>2024-04-27T10:20:57Z</time>
      </trkpt>
      <trkpt lat="45.84981" lon="6.44139">
        <ele>2210.6</ele>
        <time>2024-04-27T10:20:58Z</time>
      </trkpt>
      <trkpt lat="45.84982" lon="6.44139">
        <ele>2210.6</ele>
        <time>2024-04-27T10:20:59Z</time>
      </trkpt>
      <trkpt lat="45.84982" lon="6.44139">
        <ele>2210.6</ele>
        <time>2024-04-27T10:21:00Z</time>
      </trkpt>
      <trkpt lat="45.84982" lon="6.44138">
        <ele>2210.6</ele>
        <time>2024-04-27T10:21:01Z</time>
      </trkpt>
      <trkpt lat="45.84982" lon="6.44138">
        <ele>2210.6</ele>
        <time>2024-04-27T10:21:02Z</time>
      </trkpt>
      <trkpt lat="45.84982" lon="6.44138">
        <ele>2210.6</ele>
        <time>2024-04-27T10:21:03Z</time>
      </trkpt>
      <trkpt lat="45.84982" lon="6.44137">
        <ele>2210.6</ele>
        <time>2024-04-27T10:21:04Z</time>
      </trkpt>
      <trkpt lat="45.84982" lon="6.44137">
        <ele>2210.6</ele>
        <time>2024-04-27T10:21:05Z</time>
      </trkpt>
      <trkpt lat="45.84982" lon="6.44137">
        <ele>2210.6</ele>
        <time>2024-04-27T10:21:06Z</time>
      </trkpt>
      <trkpt lat="45.84982" lon="6.44137">
        <ele>2210.6</ele>
        <time>2024-04-27T10:21:07Z</time>
      </trkpt>
      <trkpt lat="45.84982" lon="6.44137">
        <ele>2210.6</ele>
        <time>2024-04-27T10:21:08Z</time>
      </trkpt>
      <trkpt lat="45.84982" lon="6.44137">
        <ele>2210.6</ele>
        <time>2024-04-27T10:21:09Z</time>
      </trkpt>
      <trkpt lat="45.84982" lon="6.44136">
        <ele>2210.6</ele>
        <time>2024-04-27T10:21:10Z</time>
      </trkpt>
      <trkpt lat="45.84982" lon="6.44136">
        <ele>2210.6</ele>
        <time>2024-04-27T10:21:11Z</time>
      </trkpt>
      <trkpt lat="45.84982" lon="6.44136">
        <ele>2210.6</ele>
        <time>2024-04-27T10:21:12Z</time>
      </trkpt>
      <trkpt lat="45.84982" lon="6.44136">
        <ele>2210.6</ele>
        <time>2024-04-27T10:21:13Z</time>
      </trkpt>
      <trkpt lat="45.84982" lon="6.44136">
        <ele>2210.6</ele>
        <time>2024-04-27T10:21:14Z</time>
      </trkpt>
      <trkpt lat="45.84982" lon="6.44136">
        <ele>2210.6</ele>
        <time>2024-04-27T10:21:15Z</time>
      </trkpt>
      <trkpt lat="45.84982" lon="6.44136">
        <ele>2210.6</ele>
        <time>2024-04-27T10:21:16Z</time>
      </trkpt>
      <trkpt lat="45.84982" lon="6.44136">
        <ele>2210.6</ele>
        <time>2024-04-27T10:21:17Z</time>
      </trkpt>
      <trkpt lat="45.84982" lon="6.44136">
        <ele>2210.6</ele>
        <time>2024-04-27T10:21:18Z</time>
      </trkpt>
      <trkpt lat="45.84982" lon="6.44135">
        <ele>2210.6</ele>
        <time>2024-04-27T10:21:19Z</time>
      </trkpt>
      <trkpt lat="45.84982" lon="6.44135">
        <ele>2210.6</ele>
        <time>2024-04-27T10:21:20Z</time>
      </trkpt>
      <trkpt lat="45.84982" lon="6.44134">
        <ele>2210.6</ele>
        <time>2024-04-27T10:21:21Z</time>
      </trkpt>
      <trkpt lat="45.84982" lon="6.44134">
        <ele>2210.6</ele>
        <time>2024-04-27T10:21:22Z</time>
      </trkpt>
      <trkpt lat="45.84981" lon="6.44134">
        <ele>2211.7</ele>
        <time>2024-04-27T10:21:23Z</time>
      </trkpt>
      <trkpt lat="45.84981" lon="6.44134">
        <ele>2211.7</ele>
        <time>2024-04-27T10:21:24Z</time>
      </trkpt>
      <trkpt lat="45.84981" lon="6.44134">
        <ele>2211.7</ele>
        <time>2024-04-27T10:21:25Z</time>
      </trkpt>
      <trkpt lat="45.84981" lon="6.44134">
        <ele>2211.7</ele>
        <time>2024-04-27T10:21:26Z</time>
      </trkpt>
      <trkpt lat="45.84981" lon="6.44134">
        <ele>2211.7</ele>
        <time>2024-04-27T10:21:27Z</time>
      </trkpt>
      <trkpt lat="45.84981" lon="6.44134">
        <ele>2211.7</ele>
        <time>2024-04-27T10:21:28Z</time>
      </trkpt>
      <trkpt lat="45.84981" lon="6.44134">
        <ele>2211.7</ele>
        <time>2024-04-27T10:21:29Z</time>
      </trkpt>
      <trkpt lat="45.84981" lon="6.44134">
        <ele>2211.7</ele>
        <time>2024-04-27T10:21:30Z</time>
      </trkpt>
      <trkpt lat="45.8498" lon="6.44134">
        <ele>2211.7</ele>
        <time>2024-04-27T10:21:31Z</time>
      </trkpt>
      <trkpt lat="45.8498" lon="6.44134">
        <ele>2211.7</ele>
        <time>2024-04-27T10:21:32Z</time>
      </trkpt>
      <trkpt lat="45.8498" lon="6.44134">
        <ele>2213.6</ele>
        <time>2024-04-27T10:21:33Z</time>
      </trkpt>
      <trkpt lat="45.84979" lon="6.44134">
        <ele>2213.6</ele>
        <time>2024-04-27T10:21:34Z</time>
      </trkpt>
      <trkpt lat="45.84979" lon="6.44134">
        <ele>2213.6</ele>
        <time>2024-04-27T10:21:35Z</time>
      </trkpt>
      <trkpt lat="45.84979" lon="6.44133">
        <ele>2213.6</ele>
        <time>2024-04-27T10:21:36Z</time>
      </trkpt>
      <trkpt lat="45.84979" lon="6.44133">
        <ele>2213.6</ele>
        <time>2024-04-27T10:21:37Z</time>
      </trkpt>
      <trkpt lat="45.84979" lon="6.44133">
        <ele>2213.6</ele>
        <time>2024-04-27T10:21:38Z</time>
      </trkpt>
      <trkpt lat="45.84979" lon="6.44133">
        <ele>2214.7</ele>
        <time>2024-04-27T10:21:39Z</time>
      </trkpt>
      <trkpt lat="45.84979" lon="6.44133">
        <ele>2214.7</ele>
        <time>2024-04-27T10:21:40Z</time>
      </trkpt>
      <trkpt lat="45.84979" lon="6.44133">
        <ele>2214.7</ele>
        <time>2024-04-27T10:21:41Z</time>
      </trkpt>
      <trkpt lat="45.84979" lon="6.44133">
        <ele>2214.7</ele>
        <time>2024-04-27T10:21:42Z</time>
      </trkpt>
      <trkpt lat="45.84979" lon="6.44133">
        <ele>2214.7</ele>
        <time>2024-04-27T10:21:43Z</time>
      </trkpt>
      <trkpt lat="45.84979" lon="6.44133">
        <ele>2214.7</ele>
        <time>2024-04-27T10:21:44Z</time>
      </trkpt>
      <trkpt lat="45.84979" lon="6.44133">
        <ele>2214.7</ele>
        <time>2024-04-27T10:21:45Z</time>
      </trkpt>
      <trkpt lat="45.84979" lon="6.44133">
        <ele>2214.7</ele>
        <time>2024-04-27T10:21:46Z</time>
      </trkpt>
      <trkpt lat="45.84979" lon="6.44134">
        <ele>2214.7</ele>
        <time>2024-04-27T10:21:47Z</time>
      </trkpt>
      <trkpt lat="45.84979" lon="6.44134">
        <ele>2214.7</ele>
        <time>2024-04-27T10:21:48Z</time>
      </trkpt>
      <trkpt lat="45.84979" lon="6.44134">
        <ele>2214.7</ele>
        <time>2024-04-27T10:21:49Z</time>
      </trkpt>
      <trkpt lat="45.84979" lon="6.44134">
        <ele>2214.7</ele>
        <time>2024-04-27T10:21:50Z</time>
      </trkpt>
      <trkpt lat="45.84979" lon="6.44134">
        <ele>2214.7</ele>
        <time>2024-04-27T10:21:51Z</time>
      </trkpt>
      <trkpt lat="45.84979" lon="6.44134">
        <ele>2214.7</ele>
        <time>2024-04-27T10:21:52Z</time>
      </trkpt>
      <trkpt lat="45.84979" lon="6.44134">
        <ele>2215.6</ele>
        <time>2024-04-27T10:21:53Z</time>
      </trkpt>
      <trkpt lat="45.84979" lon="6.44134">
        <ele>2215.6</ele>
        <time>2024-04-27T10:21:54Z</time>
      </trkpt>
      <trkpt lat="45.84979" lon="6.44134">
        <ele>2216.7</ele>
        <time>2024-04-27T10:21:55Z</time>
      </trkpt>
      <trkpt lat="45.84979" lon="6.44134">
        <ele>2216.7</ele>
        <time>2024-04-27T10:21:56Z</time>
      </trkpt>
      <trkpt lat="45.84979" lon="6.44135">
        <ele>2216.7</ele>
        <time>2024-04-27T10:21:57Z</time>
      </trkpt>
      <trkpt lat="45.84979" lon="6.44135">
        <ele>2216.7</ele>
        <time>2024-04-27T10:21:58Z</time>
      </trkpt>
      <trkpt lat="45.84979" lon="6.44135">
        <ele>2216.7</ele>
        <time>2024-04-27T10:21:59Z</time>
      </trkpt>
      <trkpt lat="45.84979" lon="6.44135">
        <ele>2216.7</ele>
        <time>2024-04-27T10:22:00Z</time>
      </trkpt>
      <trkpt lat="45.84979" lon="6.44135">
        <ele>2215.6</ele>
        <time>2024-04-27T10:22:01Z</time>
      </trkpt>
      <trkpt lat="45.84979" lon="6.44135">
        <ele>2215.6</ele>
        <time>2024-04-27T10:22:02Z</time>
      </trkpt>
      <trkpt lat="45.84979" lon="6.44135">
        <ele>2215.6</ele>
        <time>2024-04-27T10:22:03Z</time>
      </trkpt>
      <trkpt lat="45.84979" lon="6.44135">
        <ele>2215.6</ele>
        <time>2024-04-27T10:22:04Z</time>
      </trkpt>
      <trkpt lat="45.84979" lon="6.44135">
        <ele>2215.6</ele>
        <time>2024-04-27T10:22:05Z</time>
      </trkpt>
      <trkpt lat="45.84978" lon="6.44136">
        <ele>2215.6</ele>
        <time>2024-04-27T10:22:06Z</time>
      </trkpt>
      <trkpt lat="45.84978" lon="6.44136">
        <ele>2215.6</ele>
        <time>2024-04-27T10:22:07Z</time>
      </trkpt>
      <trkpt lat="45.84978" lon="6.44136">
        <ele>2215.6</ele>
        <time>2024-04-27T10:22:08Z</time>
      </trkpt>
      <trkpt lat="45.84978" lon="6.44136">
        <ele>2215.6</ele>
        <time>2024-04-27T10:22:09Z</time>
      </trkpt>
      <trkpt lat="45.84978" lon="6.44136">
        <ele>2215.6</ele>
        <time>2024-04-27T10:22:10Z</time>
      </trkpt>
      <trkpt lat="45.84978" lon="6.44136">
        <ele>2215.6</ele>
        <time>2024-04-27T10:22:11Z</time>
      </trkpt>
      <trkpt lat="45.84978" lon="6.44136">
        <ele>2215.6</ele>
        <time>2024-04-27T10:22:12Z</time>
      </trkpt>
      <trkpt lat="45.84978" lon="6.44136">
        <ele>2215.6</ele>
        <time>2024-04-27T10:22:13Z</time>
      </trkpt>
      <trkpt lat="45.84978" lon="6.44136">
        <ele>2215.6</ele>
        <time>2024-04-27T10:22:14Z</time>
      </trkpt>
      <trkpt lat="45.84978" lon="6.44136">
        <ele>2215.6</ele>
        <time>2024-04-27T10:22:15Z</time>
      </trkpt>
      <trkpt lat="45.84978" lon="6.44136">
        <ele>2215.6</ele>
        <time>2024-04-27T10:22:16Z</time>
      </trkpt>
      <trkpt lat="45.84978" lon="6.44136">
        <ele>2215.6</ele>
        <time>2024-04-27T10:22:17Z</time>
      </trkpt>
      <trkpt lat="45.84978" lon="6.44137">
        <ele>2215.6</ele>
        <time>2024-04-27T10:22:18Z</time>
      </trkpt>
      <trkpt lat="45.84978" lon="6.44137">
        <ele>2215.6</ele>
        <time>2024-04-27T10:22:19Z</time>
      </trkpt>
      <trkpt lat="45.84978" lon="6.44137">
        <ele>2215.6</ele>
        <time>2024-04-27T10:22:20Z</time>
      </trkpt>
      <trkpt lat="45.84978" lon="6.44137">
        <ele>2215.6</ele>
        <time>2024-04-27T10:22:21Z</time>
      </trkpt>
      <trkpt lat="45.84978" lon="6.44137">
        <ele>2215.6</ele>
        <time>2024-04-27T10:22:22Z</time>
      </trkpt>
      <trkpt lat="45.84978" lon="6.44137">
        <ele>2215.6</ele>
        <time>2024-04-27T10:22:23Z</time>
      </trkpt>
      <trkpt lat="45.84978" lon="6.44137">
        <ele>2215.6</ele>
        <time>2024-04-27T10:22:24Z</time>
      </trkpt>
      <trkpt lat="45.84978" lon="6.44137">
        <ele>2215.6</ele>
        <time>2024-04-27T10:22:25Z</time>
      </trkpt>
      <trkpt lat="45.84978" lon="6.44137">
        <ele>2215.6</ele>
        <time>2024-04-27T10:22:26Z</time>
      </trkpt>
      <trkpt lat="45.84978" lon="6.44137">
        <ele>2216.7</ele>
        <time>2024-04-27T10:22:27Z</time>
      </trkpt>
      <trkpt lat="45.84978" lon="6.44137">
        <ele>2216.7</ele>
        <time>2024-04-27T10:22:28Z</time>
      </trkpt>
      <trkpt lat="45.84978" lon="6.44137">
        <ele>2216.7</ele>
        <time>2024-04-27T10:22:29Z</time>
      </trkpt>
      <trkpt lat="45.84978" lon="6.44137">
        <ele>2216.7</ele>
        <time>2024-04-27T10:22:30Z</time>
      </trkpt>
      <trkpt lat="45.84978" lon="6.44137">
        <ele>2216.7</ele>
        <time>2024-04-27T10:22:31Z</time>
      </trkpt>
      <trkpt lat="45.84978" lon="6.44137">
        <ele>2216.7</ele>
        <time>2024-04-27T10:22:32Z</time>
      </trkpt>
      <trkpt lat="45.84978" lon="6.44137">
        <ele>2217.6</ele>
        <time>2024-04-27T10:22:33Z</time>
      </trkpt>
      <trkpt lat="45.84978" lon="6.44137">
        <ele>2217.6</ele>
        <time>2024-04-27T10:22:34Z</time>
      </trkpt>
      <trkpt lat="45.84978" lon="6.44137">
        <ele>2217.6</ele>
        <time>2024-04-27T10:22:35Z</time>
      </trkpt>
      <trkpt lat="45.84978" lon="6.44137">
        <ele>2217.6</ele>
        <time>2024-04-27T10:22:36Z</time>
      </trkpt>
      <trkpt lat="45.84978" lon="6.44136">
        <ele>2217.6</ele>
        <time>2024-04-27T10:22:37Z</time>
      </trkpt>
      <trkpt lat="45.84978" lon="6.44136">
        <ele>2217.6</ele>
        <time>2024-04-27T10:22:38Z</time>
      </trkpt>
      <trkpt lat="45.84978" lon="6.44136">
        <ele>2217.6</ele>
        <time>2024-04-27T10:22:39Z</time>
      </trkpt>
      <trkpt lat="45.84978" lon="6.44136">
        <ele>2217.6</ele>
        <time>2024-04-27T10:22:40Z</time>
      </trkpt>
      <trkpt lat="45.84978" lon="6.44136">
        <ele>2217.6</ele>
        <time>2024-04-27T10:22:41Z</time>
      </trkpt>
      <trkpt lat="45.84978" lon="6.44136">
        <ele>2217.6</ele>
        <time>2024-04-27T10:22:42Z</time>
      </trkpt>
      <trkpt lat="45.84978" lon="6.44136">
        <ele>2217.6</ele>
        <time>2024-04-27T10:22:43Z</time>
      </trkpt>
      <trkpt lat="45.84978" lon="6.44136">
        <ele>2217.6</ele>
        <time>2024-04-27T10:22:44Z</time>
      </trkpt>
      <trkpt lat="45.84978" lon="6.44136">
        <ele>2217.6</ele>
        <time>2024-04-27T10:22:45Z</time>
      </trkpt>
      <trkpt lat="45.84978" lon="6.44136">
        <ele>2217.6</ele>
        <time>2024-04-27T10:22:46Z</time>
      </trkpt>
      <trkpt lat="45.84978" lon="6.44136">
        <ele>2217.6</ele>
        <time>2024-04-27T10:22:47Z</time>
      </trkpt>
      <trkpt lat="45.84978" lon="6.44136">
        <ele>2217.6</ele>
        <time>2024-04-27T10:22:48Z</time>
      </trkpt>
      <trkpt lat="45.84978" lon="6.44135">
        <ele>2217.6</ele>
        <time>2024-04-27T10:22:49Z</time>
      </trkpt>
      <trkpt lat="45.84978" lon="6.44135">
        <ele>2217.6</ele>
        <time>2024-04-27T10:22:50Z</time>
      </trkpt>
      <trkpt lat="45.84978" lon="6.44135">
        <ele>2217.6</ele>
        <time>2024-04-27T10:22:51Z</time>
      </trkpt>
      <trkpt lat="45.84978" lon="6.44135">
        <ele>2217.6</ele>
        <time>2024-04-27T10:22:52Z</time>
      </trkpt>
      <trkpt lat="45.84978" lon="6.44135">
        <ele>2217.6</ele>
        <time>2024-04-27T10:22:53Z</time>
      </trkpt>
      <trkpt lat="45.84978" lon="6.44135">
        <ele>2217.6</ele>
        <time>2024-04-27T10:22:54Z</time>
      </trkpt>
      <trkpt lat="45.84978" lon="6.44135">
        <ele>2217.6</ele>
        <time>2024-04-27T10:22:55Z</time>
      </trkpt>
      <trkpt lat="45.84978" lon="6.44135">
        <ele>2217.6</ele>
        <time>2024-04-27T10:22:56Z</time>
      </trkpt>
      <trkpt lat="45.84978" lon="6.44135">
        <ele>2217.6</ele>
        <time>2024-04-27T10:22:57Z</time>
      </trkpt>
      <trkpt lat="45.84978" lon="6.44135">
        <ele>2217.6</ele>
        <time>2024-04-27T10:22:58Z</time>
      </trkpt>
      <trkpt lat="45.84978" lon="6.44135">
        <ele>2217.6</ele>
        <time>2024-04-27T10:22:59Z</time>
      </trkpt>
      <trkpt lat="45.84978" lon="6.44135">
        <ele>2217.6</ele>
        <time>2024-04-27T10:23:00Z</time>
      </trkpt>
      <trkpt lat="45.84978" lon="6.44135">
        <ele>2217.6</ele>
        <time>2024-04-27T10:23:01Z</time>
      </trkpt>
      <trkpt lat="45.84978" lon="6.44135">
        <ele>2217.6</ele>
        <time>2024-04-27T10:23:02Z</time>
      </trkpt>
      <trkpt lat="45.84978" lon="6.44135">
        <ele>2217.6</ele>
        <time>2024-04-27T10:23:03Z</time>
      </trkpt>
      <trkpt lat="45.84978" lon="6.44135">
        <ele>2217.6</ele>
        <time>2024-04-27T10:23:04Z</time>
      </trkpt>
      <trkpt lat="45.84978" lon="6.44135">
        <ele>2217.6</ele>
        <time>2024-04-27T10:23:05Z</time>
      </trkpt>
      <trkpt lat="45.84978" lon="6.44135">
        <ele>2217.6</ele>
        <time>2024-04-27T10:23:06Z</time>
      </trkpt>
      <trkpt lat="45.84978" lon="6.44135">
        <ele>2217.6</ele>
        <time>2024-04-27T10:23:07Z</time>
      </trkpt>
      <trkpt lat="45.84978" lon="6.44135">
        <ele>2217.6</ele>
        <time>2024-04-27T10:23:08Z</time>
      </trkpt>
      <trkpt lat="45.84978" lon="6.44135">
        <ele>2217.6</ele>
        <time>2024-04-27T10:23:09Z</time>
      </trkpt>
      <trkpt lat="45.84978" lon="6.44135">
        <ele>2217.6</ele>
        <time>2024-04-27T10:23:10Z</time>
      </trkpt>
      <trkpt lat="45.84978" lon="6.44135">
        <ele>2217.6</ele>
        <time>2024-04-27T10:23:11Z</time>
      </trkpt>
      <trkpt lat="45.84978" lon="6.44135">
        <ele>2217.6</ele>
        <time>2024-04-27T10:23:12Z</time>
      </trkpt>
      <trkpt lat="45.84978" lon="6.44135">
        <ele>2215.6</ele>
        <time>2024-04-27T10:23:13Z</time>
      </trkpt>
      <trkpt lat="45.84978" lon="6.44135">
        <ele>2215.6</ele>
        <time>2024-04-27T10:23:14Z</time>
      </trkpt>
      <trkpt lat="45.84978" lon="6.44135">
        <ele>2215.6</ele>
        <time>2024-04-27T10:23:15Z</time>
      </trkpt>
      <trkpt lat="45.84978" lon="6.44135">
        <ele>2215.6</ele>
        <time>2024-04-27T10:23:16Z</time>
      </trkpt>
      <trkpt lat="45.84978" lon="6.44135">
        <ele>2215.6</ele>
        <time>2024-04-27T10:23:17Z</time>
      </trkpt>
      <trkpt lat="45.84978" lon="6.44135">
        <ele>2215.6</ele>
        <time>2024-04-27T10:23:18Z</time>
      </trkpt>
      <trkpt lat="45.84978" lon="6.44135">
        <ele>2215.6</ele>
        <time>2024-04-27T10:23:19Z</time>
      </trkpt>
      <trkpt lat="45.84978" lon="6.44135">
        <ele>2215.6</ele>
        <time>2024-04-27T10:23:20Z</time>
      </trkpt>
      <trkpt lat="45.84978" lon="6.44135">
        <ele>2215.6</ele>
        <time>2024-04-27T10:23:21Z</time>
      </trkpt>
      <trkpt lat="45.84978" lon="6.44135">
        <ele>2215.6</ele>
        <time>2024-04-27T10:23:22Z</time>
      </trkpt>
      <trkpt lat="45.84978" lon="6.44135">
        <ele>2215.6</ele>
        <time>2024-04-27T10:23:23Z</time>
      </trkpt>
      <trkpt lat="45.84978" lon="6.44135">
        <ele>2215.6</ele>
        <time>2024-04-27T10:23:24Z</time>
      </trkpt>
      <trkpt lat="45.84978" lon="6.44135">
        <ele>2215.6</ele>
        <time>2024-04-27T10:23:25Z</time>
      </trkpt>
      <trkpt lat="45.84978" lon="6.44135">
        <ele>2215.6</ele>
        <time>2024-04-27T10:23:26Z</time>
      </trkpt>
      <trkpt lat="45.84978" lon="6.44135">
        <ele>2214.7</ele>
        <time>2024-04-27T10:23:27Z</time>
      </trkpt>
      <trkpt lat="45.84978" lon="6.44135">
        <ele>2214.7</ele>
        <time>2024-04-27T10:23:28Z</time>
      </trkpt>
      <trkpt lat="45.84977" lon="6.44135">
        <ele>2214.7</ele>
        <time>2024-04-27T10:23:29Z</time>
      </trkpt>
      <trkpt lat="45.84977" lon="6.44135">
        <ele>2214.7</ele>
        <time>2024-04-27T10:23:30Z</time>
      </trkpt>
      <trkpt lat="45.84977" lon="6.44135">
        <ele>2214.7</ele>
        <time>2024-04-27T10:23:31Z</time>
      </trkpt>
      <trkpt lat="45.84977" lon="6.44135">
        <ele>2214.7</ele>
        <time>2024-04-27T10:23:32Z</time>
      </trkpt>
      <trkpt lat="45.84977" lon="6.44135">
        <ele>2214.7</ele>
        <time>2024-04-27T10:23:33Z</time>
      </trkpt>
      <trkpt lat="45.84977" lon="6.44135">
        <ele>2214.7</ele>
        <time>2024-04-27T10:23:34Z</time>
      </trkpt>
      <trkpt lat="45.84977" lon="6.44135">
        <ele>2214.7</ele>
        <time>2024-04-27T10:23:35Z</time>
      </trkpt>
      <trkpt lat="45.84977" lon="6.44135">
        <ele>2214.7</ele>
        <time>2024-04-27T10:23:36Z</time>
      </trkpt>
      <trkpt lat="45.84977" lon="6.44135">
        <ele>2214.7</ele>
        <time>2024-04-27T10:23:37Z</time>
      </trkpt>
      <trkpt lat="45.84977" lon="6.44135">
        <ele>2214.7</ele>
        <time>2024-04-27T10:23:38Z</time>
      </trkpt>
      <trkpt lat="45.84977" lon="6.44135">
        <ele>2214.7</ele>
        <time>2024-04-27T10:23:39Z</time>
      </trkpt>
      <trkpt lat="45.84977" lon="6.44135">
        <ele>2214.7</ele>
        <time>2024-04-27T10:23:40Z</time>
      </trkpt>
      <trkpt lat="45.84977" lon="6.44135">
        <ele>2214.7</ele>
        <time>2024-04-27T10:23:41Z</time>
      </trkpt>
      <trkpt lat="45.84977" lon="6.44135">
        <ele>2214.7</ele>
        <time>2024-04-27T10:23:42Z</time>
      </trkpt>
      <trkpt lat="45.84977" lon="6.44135">
        <ele>2214.7</ele>
        <time>2024-04-27T10:23:43Z</time>
      </trkpt>
      <trkpt lat="45.84977" lon="6.44135">
        <ele>2214.7</ele>
        <time>2024-04-27T10:23:44Z</time>
      </trkpt>
      <trkpt lat="45.84977" lon="6.44135">
        <ele>2214.7</ele>
        <time>2024-04-27T10:23:45Z</time>
      </trkpt>
      <trkpt lat="45.84977" lon="6.44135">
        <ele>2214.7</ele>
        <time>2024-04-27T10:23:46Z</time>
      </trkpt>
      <trkpt lat="45.84977" lon="6.44135">
        <ele>2214.7</ele>
        <time>2024-04-27T10:23:47Z</time>
      </trkpt>
      <trkpt lat="45.84977" lon="6.44135">
        <ele>2214.7</ele>
        <time>2024-04-27T10:23:48Z</time>
      </trkpt>
      <trkpt lat="45.84977" lon="6.44135">
        <ele>2214.7</ele>
        <time>2024-04-27T10:23:49Z</time>
      </trkpt>
      <trkpt lat="45.84977" lon="6.44135">
        <ele>2214.7</ele>
        <time>2024-04-27T10:23:50Z</time>
      </trkpt>
      <trkpt lat="45.84977" lon="6.44135">
        <ele>2214.7</ele>
        <time>2024-04-27T10:23:51Z</time>
      </trkpt>
      <trkpt lat="45.84977" lon="6.44135">
        <ele>2214.7</ele>
        <time>2024-04-27T10:23:52Z</time>
      </trkpt>
      <trkpt lat="45.84977" lon="6.44135">
        <ele>2215.6</ele>
        <time>2024-04-27T10:23:53Z</time>
      </trkpt>
      <trkpt lat="45.84977" lon="6.44135">
        <ele>2215.6</ele>
        <time>2024-04-27T10:23:54Z</time>
      </trkpt>
      <trkpt lat="45.84977" lon="6.44135">
        <ele>2215.6</ele>
        <time>2024-04-27T10:23:55Z</time>
      </trkpt>
      <trkpt lat="45.84977" lon="6.44135">
        <ele>2215.6</ele>
        <time>2024-04-27T10:23:56Z</time>
      </trkpt>
      <trkpt lat="45.84977" lon="6.44135">
        <ele>2215.6</ele>
        <time>2024-04-27T10:23:57Z</time>
      </trkpt>
      <trkpt lat="45.84977" lon="6.44135">
        <ele>2215.6</ele>
        <time>2024-04-27T10:23:58Z</time>
      </trkpt>
      <trkpt lat="45.84977" lon="6.44135">
        <ele>2215.6</ele>
        <time>2024-04-27T10:23:59Z</time>
      </trkpt>
      <trkpt lat="45.84977" lon="6.44135">
        <ele>2215.6</ele>
        <time>2024-04-27T10:24:00Z</time>
      </trkpt>
      <trkpt lat="45.84977" lon="6.44135">
        <ele>2215.6</ele>
        <time>2024-04-27T10:24:01Z</time>
      </trkpt>
      <trkpt lat="45.84977" lon="6.44135">
        <ele>2215.6</ele>
        <time>2024-04-27T10:24:02Z</time>
      </trkpt>
      <trkpt lat="45.84977" lon="6.44135">
        <ele>2215.6</ele>
        <time>2024-04-27T10:24:03Z</time>
      </trkpt>
      <trkpt lat="45.84977" lon="6.44135">
        <ele>2215.6</ele>
        <time>2024-04-27T10:24:04Z</time>
      </trkpt>
      <trkpt lat="45.84977" lon="6.44135">
        <ele>2215.6</ele>
        <time>2024-04-27T10:24:05Z</time>
      </trkpt>
      <trkpt lat="45.84977" lon="6.44135">
        <ele>2215.6</ele>
        <time>2024-04-27T10:24:06Z</time>
      </trkpt>
      <trkpt lat="45.84977" lon="6.44135">
        <ele>2216.7</ele>
        <time>2024-04-27T10:24:07Z</time>
      </trkpt>
      <trkpt lat="45.84977" lon="6.44135">
        <ele>2216.7</ele>
        <time>2024-04-27T10:24:08Z</time>
      </trkpt>
      <trkpt lat="45.84977" lon="6.44135">
        <ele>2216.7</ele>
        <time>2024-04-27T10:24:09Z</time>
      </trkpt>
      <trkpt lat="45.84977" lon="6.44135">
        <ele>2216.7</ele>
        <time>2024-04-27T10:24:10Z</time>
      </trkpt>
      <trkpt lat="45.84978" lon="6.44136">
        <ele>2217.6</ele>
        <time>2024-04-27T10:24:11Z</time>
      </trkpt>
      <trkpt lat="45.84979" lon="6.44136">
        <ele>2217.6</ele>
        <time>2024-04-27T10:24:12Z</time>
      </trkpt>
      <trkpt lat="45.84979" lon="6.44136">
        <ele>2218.7</ele>
        <time>2024-04-27T10:24:13Z</time>
      </trkpt>
      <trkpt lat="45.8498" lon="6.44136">
        <ele>2218.7</ele>
        <time>2024-04-27T10:24:14Z</time>
      </trkpt>
      <trkpt lat="45.8498" lon="6.44136">
        <ele>2219.6</ele>
        <time>2024-04-27T10:24:15Z</time>
      </trkpt>
      <trkpt lat="45.84981" lon="6.44136">
        <ele>2219.6</ele>
        <time>2024-04-27T10:24:16Z</time>
      </trkpt>
      <trkpt lat="45.84981" lon="6.44136">
        <ele>2219.6</ele>
        <time>2024-04-27T10:24:17Z</time>
      </trkpt>
      <trkpt lat="45.84981" lon="6.44137">
        <ele>2219.6</ele>
        <time>2024-04-27T10:24:18Z</time>
      </trkpt>
      <trkpt lat="45.84982" lon="6.44138">
        <ele>2220.6</ele>
        <time>2024-04-27T10:24:19Z</time>
      </trkpt>
      <trkpt lat="45.84982" lon="6.44138">
        <ele>2220.6</ele>
        <time>2024-04-27T10:24:20Z</time>
      </trkpt>
      <trkpt lat="45.84982" lon="6.44139">
        <ele>2220.6</ele>
        <time>2024-04-27T10:24:21Z</time>
      </trkpt>
      <trkpt lat="45.84982" lon="6.44139">
        <ele>2220.6</ele>
        <time>2024-04-27T10:24:22Z</time>
      </trkpt>
      <trkpt lat="45.84982" lon="6.44139">
        <ele>2220.6</ele>
        <time>2024-04-27T10:24:23Z</time>
      </trkpt>
      <trkpt lat="45.84982" lon="6.44139">
        <ele>2220.6</ele>
        <time>2024-04-27T10:24:24Z</time>
      </trkpt>
      <trkpt lat="45.84983" lon="6.44137">
        <ele>2220.6</ele>
        <time>2024-04-27T10:24:25Z</time>
      </trkpt>
      <trkpt lat="45.84983" lon="6.44137">
        <ele>2220.6</ele>
        <time>2024-04-27T10:24:26Z</time>
      </trkpt>
      <trkpt lat="45.84984" lon="6.44136">
        <ele>2220.6</ele>
        <time>2024-04-27T10:24:27Z</time>
      </trkpt>
      <trkpt lat="45.84985" lon="6.44134">
        <ele>2220.6</ele>
        <time>2024-04-27T10:24:28Z</time>
      </trkpt>
      <trkpt lat="45.84986" lon="6.44134">
        <ele>2220.6</ele>
        <time>2024-04-27T10:24:29Z</time>
      </trkpt>
      <trkpt lat="45.84986" lon="6.44134">
        <ele>2220.6</ele>
        <time>2024-04-27T10:24:30Z</time>
      </trkpt>
      <trkpt lat="45.84986" lon="6.44133">
        <ele>2220.6</ele>
        <time>2024-04-27T10:24:31Z</time>
      </trkpt>
      <trkpt lat="45.84986" lon="6.44134">
        <ele>2220.6</ele>
        <time>2024-04-27T10:24:32Z</time>
      </trkpt>
      <trkpt lat="45.84986" lon="6.44134">
        <ele>2219.6</ele>
        <time>2024-04-27T10:24:33Z</time>
      </trkpt>
      <trkpt lat="45.84985" lon="6.44134">
        <ele>2219.6</ele>
        <time>2024-04-27T10:24:34Z</time>
      </trkpt>
      <trkpt lat="45.84985" lon="6.44134">
        <ele>2219.6</ele>
        <time>2024-04-27T10:24:35Z</time>
      </trkpt>
      <trkpt lat="45.84985" lon="6.44133">
        <ele>2219.6</ele>
        <time>2024-04-27T10:24:36Z</time>
      </trkpt>
      <trkpt lat="45.84984" lon="6.44134">
        <ele>2219.6</ele>
        <time>2024-04-27T10:24:37Z</time>
      </trkpt>
      <trkpt lat="45.84984" lon="6.44135">
        <ele>2219.6</ele>
        <time>2024-04-27T10:24:38Z</time>
      </trkpt>
      <trkpt lat="45.84983" lon="6.44135">
        <ele>2219.6</ele>
        <time>2024-04-27T10:24:39Z</time>
      </trkpt>
      <trkpt lat="45.84983" lon="6.44136">
        <ele>2219.6</ele>
        <time>2024-04-27T10:24:40Z</time>
      </trkpt>
      <trkpt lat="45.84983" lon="6.44135">
        <ele>2219.6</ele>
        <time>2024-04-27T10:24:41Z</time>
      </trkpt>
      <trkpt lat="45.84983" lon="6.44135">
        <ele>2219.6</ele>
        <time>2024-04-27T10:24:42Z</time>
      </trkpt>
      <trkpt lat="45.84983" lon="6.44134">
        <ele>2220.6</ele>
        <time>2024-04-27T10:24:43Z</time>
      </trkpt>
      <trkpt lat="45.84983" lon="6.44134">
        <ele>2220.6</ele>
        <time>2024-04-27T10:24:44Z</time>
      </trkpt>
      <trkpt lat="45.84983" lon="6.44134">
        <ele>2220.6</ele>
        <time>2024-04-27T10:24:45Z</time>
      </trkpt>
      <trkpt lat="45.84982" lon="6.44134">
        <ele>2220.6</ele>
        <time>2024-04-27T10:24:46Z</time>
      </trkpt>
      <trkpt lat="45.84982" lon="6.44134">
        <ele>2220.6</ele>
        <time>2024-04-27T10:24:47Z</time>
      </trkpt>
      <trkpt lat="45.84983" lon="6.44134">
        <ele>2220.6</ele>
        <time>2024-04-27T10:24:48Z</time>
      </trkpt>
      <trkpt lat="45.84983" lon="6.44134">
        <ele>2220.6</ele>
        <time>2024-04-27T10:24:49Z</time>
      </trkpt>
      <trkpt lat="45.84983" lon="6.44134">
        <ele>2220.6</ele>
        <time>2024-04-27T10:24:50Z</time>
      </trkpt>
      <trkpt lat="45.84983" lon="6.44135">
        <ele>2220.6</ele>
        <time>2024-04-27T10:24:51Z</time>
      </trkpt>
      <trkpt lat="45.84983" lon="6.44135">
        <ele>2220.6</ele>
        <time>2024-04-27T10:24:52Z</time>
      </trkpt>
      <trkpt lat="45.84982" lon="6.44135">
        <ele>2221.7</ele>
        <time>2024-04-27T10:24:53Z</time>
      </trkpt>
      <trkpt lat="45.84982" lon="6.44135">
        <ele>2221.7</ele>
        <time>2024-04-27T10:24:54Z</time>
      </trkpt>
      <trkpt lat="45.84982" lon="6.44135">
        <ele>2221.7</ele>
        <time>2024-04-27T10:24:55Z</time>
      </trkpt>
      <trkpt lat="45.84982" lon="6.44135">
        <ele>2221.7</ele>
        <time>2024-04-27T10:24:56Z</time>
      </trkpt>
      <trkpt lat="45.84982" lon="6.44135">
        <ele>2221.7</ele>
        <time>2024-04-27T10:24:57Z</time>
      </trkpt>
      <trkpt lat="45.84982" lon="6.44135">
        <ele>2221.7</ele>
        <time>2024-04-27T10:24:58Z</time>
      </trkpt>
      <trkpt lat="45.84982" lon="6.44135">
        <ele>2221.7</ele>
        <time>2024-04-27T10:24:59Z</time>
      </trkpt>
      <trkpt lat="45.84982" lon="6.44135">
        <ele>2221.7</ele>
        <time>2024-04-27T10:25:00Z</time>
      </trkpt>
      <trkpt lat="45.84982" lon="6.44135">
        <ele>2220.6</ele>
        <time>2024-04-27T10:25:01Z</time>
      </trkpt>
      <trkpt lat="45.84982" lon="6.44135">
        <ele>2220.6</ele>
        <time>2024-04-27T10:25:02Z</time>
      </trkpt>
      <trkpt lat="45.84982" lon="6.44135">
        <ele>2220.6</ele>
        <time>2024-04-27T10:25:03Z</time>
      </trkpt>
      <trkpt lat="45.84982" lon="6.44135">
        <ele>2220.6</ele>
        <time>2024-04-27T10:25:04Z</time>
      </trkpt>
      <trkpt lat="45.84982" lon="6.44135">
        <ele>2220.6</ele>
        <time>2024-04-27T10:25:05Z</time>
      </trkpt>
      <trkpt lat="45.84982" lon="6.44135">
        <ele>2220.6</ele>
        <time>2024-04-27T10:25:06Z</time>
      </trkpt>
      <trkpt lat="45.84982" lon="6.44135">
        <ele>2220.6</ele>
        <time>2024-04-27T10:25:07Z</time>
      </trkpt>
      <trkpt lat="45.84982" lon="6.44135">
        <ele>2220.6</ele>
        <time>2024-04-27T10:25:08Z</time>
      </trkpt>
      <trkpt lat="45.84982" lon="6.44136">
        <ele>2220.6</ele>
        <time>2024-04-27T10:25:09Z</time>
      </trkpt>
      <trkpt lat="45.84983" lon="6.44137">
        <ele>2220.6</ele>
        <time>2024-04-27T10:25:10Z</time>
      </trkpt>
      <trkpt lat="45.84983" lon="6.44137">
        <ele>2222.6</ele>
        <time>2024-04-27T10:25:11Z</time>
      </trkpt>
      <trkpt lat="45.84983" lon="6.44137">
        <ele>2222.6</ele>
        <time>2024-04-27T10:25:12Z</time>
      </trkpt>
      <trkpt lat="45.84983" lon="6.44137">
        <ele>2222.6</ele>
        <time>2024-04-27T10:25:13Z</time>
      </trkpt>
      <trkpt lat="45.84983" lon="6.44137">
        <ele>2222.6</ele>
        <time>2024-04-27T10:25:14Z</time>
      </trkpt>
      <trkpt lat="45.84983" lon="6.44137">
        <ele>2222.6</ele>
        <time>2024-04-27T10:25:15Z</time>
      </trkpt>
      <trkpt lat="45.84984" lon="6.44137">
        <ele>2222.6</ele>
        <time>2024-04-27T10:25:16Z</time>
      </trkpt>
      <trkpt lat="45.84986" lon="6.44137">
        <ele>2222.6</ele>
        <time>2024-04-27T10:25:17Z</time>
      </trkpt>
      <trkpt lat="45.84987" lon="6.44136">
        <ele>2222.6</ele>
        <time>2024-04-27T10:25:18Z</time>
      </trkpt>
      <trkpt lat="45.84988" lon="6.44136">
        <ele>2222.6</ele>
        <time>2024-04-27T10:25:19Z</time>
      </trkpt>
      <trkpt lat="45.84989" lon="6.44136">
        <ele>2222.6</ele>
        <time>2024-04-27T10:25:20Z</time>
      </trkpt>
      <trkpt lat="45.84989" lon="6.44136">
        <ele>2222.6</ele>
        <time>2024-04-27T10:25:21Z</time>
      </trkpt>
      <trkpt lat="45.84989" lon="6.44137">
        <ele>2222.6</ele>
        <time>2024-04-27T10:25:22Z</time>
      </trkpt>
      <trkpt lat="45.8499" lon="6.44137">
        <ele>2222.6</ele>
        <time>2024-04-27T10:25:23Z</time>
      </trkpt>
      <trkpt lat="45.84991" lon="6.44137">
        <ele>2222.6</ele>
        <time>2024-04-27T10:25:24Z</time>
      </trkpt>
      <trkpt lat="45.84991" lon="6.44138">
        <ele>2222.6</ele>
        <time>2024-04-27T10:25:25Z</time>
      </trkpt>
      <trkpt lat="45.84991" lon="6.44138">
        <ele>2222.6</ele>
        <time>2024-04-27T10:25:26Z</time>
      </trkpt>
      <trkpt lat="45.84991" lon="6.44138">
        <ele>2222.6</ele>
        <time>2024-04-27T10:25:27Z</time>
      </trkpt>
      <trkpt lat="45.84991" lon="6.44137">
        <ele>2222.6</ele>
        <time>2024-04-27T10:25:28Z</time>
      </trkpt>
      <trkpt lat="45.84991" lon="6.44137">
        <ele>2222.6</ele>
        <time>2024-04-27T10:25:29Z</time>
      </trkpt>
      <trkpt lat="45.84992" lon="6.44137">
        <ele>2222.6</ele>
        <time>2024-04-27T10:25:30Z</time>
      </trkpt>
      <trkpt lat="45.84992" lon="6.44137">
        <ele>2222.6</ele>
        <time>2024-04-27T10:25:31Z</time>
      </trkpt>
      <trkpt lat="45.84992" lon="6.44137">
        <ele>2222.6</ele>
        <time>2024-04-27T10:25:32Z</time>
      </trkpt>
      <trkpt lat="45.84992" lon="6.44138">
        <ele>2219.6</ele>
        <time>2024-04-27T10:25:33Z</time>
      </trkpt>
      <trkpt lat="45.84991" lon="6.44138">
        <ele>2219.6</ele>
        <time>2024-04-27T10:25:34Z</time>
      </trkpt>
      <trkpt lat="45.84991" lon="6.44138">
        <ele>2219.6</ele>
        <time>2024-04-27T10:25:35Z</time>
      </trkpt>
      <trkpt lat="45.8499" lon="6.44138">
        <ele>2219.6</ele>
        <time>2024-04-27T10:25:36Z</time>
      </trkpt>
      <trkpt lat="45.8499" lon="6.44138">
        <ele>2219.6</ele>
        <time>2024-04-27T10:25:37Z</time>
      </trkpt>
      <trkpt lat="45.8499" lon="6.44138">
        <ele>2219.6</ele>
        <time>2024-04-27T10:25:38Z</time>
      </trkpt>
      <trkpt lat="45.84989" lon="6.44138">
        <ele>2219.6</ele>
        <time>2024-04-27T10:25:39Z</time>
      </trkpt>
      <trkpt lat="45.84989" lon="6.44138">
        <ele>2219.6</ele>
        <time>2024-04-27T10:25:40Z</time>
      </trkpt>
      <trkpt lat="45.84988" lon="6.44138">
        <ele>2219.6</ele>
        <time>2024-04-27T10:25:41Z</time>
      </trkpt>
      <trkpt lat="45.84988" lon="6.44138">
        <ele>2219.6</ele>
        <time>2024-04-27T10:25:42Z</time>
      </trkpt>
      <trkpt lat="45.84988" lon="6.44138">
        <ele>2220.6</ele>
        <time>2024-04-27T10:25:43Z</time>
      </trkpt>
      <trkpt lat="45.84988" lon="6.44138">
        <ele>2220.6</ele>
        <time>2024-04-27T10:25:44Z</time>
      </trkpt>
      <trkpt lat="45.84988" lon="6.44138">
        <ele>2221.7</ele>
        <time>2024-04-27T10:25:45Z</time>
      </trkpt>
      <trkpt lat="45.84988" lon="6.44138">
        <ele>2221.7</ele>
        <time>2024-04-27T10:25:46Z</time>
      </trkpt>
      <trkpt lat="45.84988" lon="6.44138">
        <ele>2221.7</ele>
        <time>2024-04-27T10:25:47Z</time>
      </trkpt>
      <trkpt lat="45.84988" lon="6.44138">
        <ele>2221.7</ele>
        <time>2024-04-27T10:25:48Z</time>
      </trkpt>
      <trkpt lat="45.84988" lon="6.44138">
        <ele>2221.7</ele>
        <time>2024-04-27T10:25:49Z</time>
      </trkpt>
      <trkpt lat="45.84988" lon="6.44138">
        <ele>2221.7</ele>
        <time>2024-04-27T10:25:50Z</time>
      </trkpt>
      <trkpt lat="45.84988" lon="6.44138">
        <ele>2221.7</ele>
        <time>2024-04-27T10:25:51Z</time>
      </trkpt>
      <trkpt lat="45.84988" lon="6.44138">
        <ele>2221.7</ele>
        <time>2024-04-27T10:25:52Z</time>
      </trkpt>
      <trkpt lat="45.84988" lon="6.44138">
        <ele>2221.7</ele>
        <time>2024-04-27T10:25:53Z</time>
      </trkpt>
      <trkpt lat="45.84988" lon="6.44139">
        <ele>2221.7</ele>
        <time>2024-04-27T10:25:54Z</time>
      </trkpt>
      <trkpt lat="45.84988" lon="6.44139">
        <ele>2221.7</ele>
        <time>2024-04-27T10:25:55Z</time>
      </trkpt>
      <trkpt lat="45.84987" lon="6.44139">
        <ele>2221.7</ele>
        <time>2024-04-27T10:25:56Z</time>
      </trkpt>
      <trkpt lat="45.84987" lon="6.4414">
        <ele>2221.7</ele>
        <time>2024-04-27T10:25:57Z</time>
      </trkpt>
      <trkpt lat="45.84987" lon="6.4414">
        <ele>2221.7</ele>
        <time>2024-04-27T10:25:58Z</time>
      </trkpt>
      <trkpt lat="45.84987" lon="6.44141">
        <ele>2221.7</ele>
        <time>2024-04-27T10:25:59Z</time>
      </trkpt>
      <trkpt lat="45.84986" lon="6.44141">
        <ele>2221.7</ele>
        <time>2024-04-27T10:26:00Z</time>
      </trkpt>
      <trkpt lat="45.84986" lon="6.44141">
        <ele>2221.7</ele>
        <time>2024-04-27T10:26:01Z</time>
      </trkpt>
      <trkpt lat="45.84985" lon="6.44142">
        <ele>2221.7</ele>
        <time>2024-04-27T10:26:02Z</time>
      </trkpt>
      <trkpt lat="45.84984" lon="6.44142">
        <ele>2221.7</ele>
        <time>2024-04-27T10:26:03Z</time>
      </trkpt>
      <trkpt lat="45.84984" lon="6.44142">
        <ele>2221.7</ele>
        <time>2024-04-27T10:26:04Z</time>
      </trkpt>
      <trkpt lat="45.84983" lon="6.44142">
        <ele>2221.7</ele>
        <time>2024-04-27T10:26:05Z</time>
      </trkpt>
      <trkpt lat="45.84983" lon="6.44142">
        <ele>2221.7</ele>
        <time>2024-04-27T10:26:06Z</time>
      </trkpt>
      <trkpt lat="45.84983" lon="6.44142">
        <ele>2221.7</ele>
        <time>2024-04-27T10:26:07Z</time>
      </trkpt>
      <trkpt lat="45.84983" lon="6.44141">
        <ele>2221.7</ele>
        <time>2024-04-27T10:26:08Z</time>
      </trkpt>
      <trkpt lat="45.84982" lon="6.44141">
        <ele>2221.7</ele>
        <time>2024-04-27T10:26:09Z</time>
      </trkpt>
      <trkpt lat="45.84982" lon="6.44141">
        <ele>2221.7</ele>
        <time>2024-04-27T10:26:10Z</time>
      </trkpt>
      <trkpt lat="45.84982" lon="6.44141">
        <ele>2221.7</ele>
        <time>2024-04-27T10:26:11Z</time>
      </trkpt>
      <trkpt lat="45.84982" lon="6.44141">
        <ele>2221.7</ele>
        <time>2024-04-27T10:26:12Z</time>
      </trkpt>
      <trkpt lat="45.84982" lon="6.44141">
        <ele>2221.7</ele>
        <time>2024-04-27T10:26:13Z</time>
      </trkpt>
      <trkpt lat="45.84982" lon="6.44141">
        <ele>2221.7</ele>
        <time>2024-04-27T10:26:14Z</time>
      </trkpt>
      <trkpt lat="45.84982" lon="6.44141">
        <ele>2221.7</ele>
        <time>2024-04-27T10:26:15Z</time>
      </trkpt>
      <trkpt lat="45.84982" lon="6.44141">
        <ele>2221.7</ele>
        <time>2024-04-27T10:26:16Z</time>
      </trkpt>
      <trkpt lat="45.84982" lon="6.44141">
        <ele>2221.7</ele>
        <time>2024-04-27T10:26:17Z</time>
      </trkpt>
      <trkpt lat="45.84982" lon="6.44141">
        <ele>2221.7</ele>
        <time>2024-04-27T10:26:18Z</time>
      </trkpt>
      <trkpt lat="45.84982" lon="6.44141">
        <ele>2221.7</ele>
        <time>2024-04-27T10:26:19Z</time>
      </trkpt>
      <trkpt lat="45.84982" lon="6.44141">
        <ele>2221.7</ele>
        <time>2024-04-27T10:26:20Z</time>
      </trkpt>
      <trkpt lat="45.84982" lon="6.44142">
        <ele>2221.7</ele>
        <time>2024-04-27T10:26:21Z</time>
      </trkpt>
      <trkpt lat="45.84982" lon="6.44142">
        <ele>2221.7</ele>
        <time>2024-04-27T10:26:22Z</time>
      </trkpt>
      <trkpt lat="45.84982" lon="6.44142">
        <ele>2221.7</ele>
        <time>2024-04-27T10:26:23Z</time>
      </trkpt>
      <trkpt lat="45.84982" lon="6.44142">
        <ele>2221.7</ele>
        <time>2024-04-27T10:26:24Z</time>
      </trkpt>
      <trkpt lat="45.84982" lon="6.44142">
        <ele>2221.7</ele>
        <time>2024-04-27T10:26:25Z</time>
      </trkpt>
      <trkpt lat="45.84982" lon="6.44142">
        <ele>2221.7</ele>
        <time>2024-04-27T10:26:26Z</time>
      </trkpt>
      <trkpt lat="45.84982" lon="6.44142">
        <ele>2221.7</ele>
        <time>2024-04-27T10:26:27Z</time>
      </trkpt>
      <trkpt lat="45.84982" lon="6.44142">
        <ele>2221.7</ele>
        <time>2024-04-27T10:26:28Z</time>
      </trkpt>
      <trkpt lat="45.84983" lon="6.44142">
        <ele>2221.7</ele>
        <time>2024-04-27T10:26:29Z</time>
      </trkpt>
      <trkpt lat="45.84983" lon="6.44142">
        <ele>2221.7</ele>
        <time>2024-04-27T10:26:30Z</time>
      </trkpt>
      <trkpt lat="45.84983" lon="6.44142">
        <ele>2221.7</ele>
        <time>2024-04-27T10:26:31Z</time>
      </trkpt>
      <trkpt lat="45.84983" lon="6.44142">
        <ele>2221.7</ele>
        <time>2024-04-27T10:26:32Z</time>
      </trkpt>
      <trkpt lat="45.84983" lon="6.44142">
        <ele>2221.7</ele>
        <time>2024-04-27T10:26:33Z</time>
      </trkpt>
      <trkpt lat="45.84983" lon="6.44142">
        <ele>2221.7</ele>
        <time>2024-04-27T10:26:34Z</time>
      </trkpt>
      <trkpt lat="45.84983" lon="6.44142">
        <ele>2221.7</ele>
        <time>2024-04-27T10:26:35Z</time>
      </trkpt>
      <trkpt lat="45.84983" lon="6.44142">
        <ele>2221.7</ele>
        <time>2024-04-27T10:26:36Z</time>
      </trkpt>
      <trkpt lat="45.84983" lon="6.44142">
        <ele>2217.6</ele>
        <time>2024-04-27T10:26:37Z</time>
      </trkpt>
      <trkpt lat="45.84984" lon="6.44142">
        <ele>2217.6</ele>
        <time>2024-04-27T10:26:38Z</time>
      </trkpt>
      <trkpt lat="45.84984" lon="6.44142">
        <ele>2217.6</ele>
        <time>2024-04-27T10:26:39Z</time>
      </trkpt>
      <trkpt lat="45.84984" lon="6.44142">
        <ele>2217.6</ele>
        <time>2024-04-27T10:26:40Z</time>
      </trkpt>
      <trkpt lat="45.84984" lon="6.44142">
        <ele>2217.6</ele>
        <time>2024-04-27T10:26:41Z</time>
      </trkpt>
      <trkpt lat="45.84984" lon="6.44142">
        <ele>2217.6</ele>
        <time>2024-04-27T10:26:42Z</time>
      </trkpt>
      <trkpt lat="45.84984" lon="6.44142">
        <ele>2217.6</ele>
        <time>2024-04-27T10:26:43Z</time>
      </trkpt>
      <trkpt lat="45.84984" lon="6.44142">
        <ele>2217.6</ele>
        <time>2024-04-27T10:26:44Z</time>
      </trkpt>
      <trkpt lat="45.84984" lon="6.44142">
        <ele>2218.7</ele>
        <time>2024-04-27T10:26:45Z</time>
      </trkpt>
      <trkpt lat="45.84984" lon="6.44142">
        <ele>2218.7</ele>
        <time>2024-04-27T10:26:46Z</time>
      </trkpt>
      <trkpt lat="45.84984" lon="6.44142">
        <ele>2218.7</ele>
        <time>2024-04-27T10:26:47Z</time>
      </trkpt>
      <trkpt lat="45.84984" lon="6.44142">
        <ele>2218.7</ele>
        <time>2024-04-27T10:26:48Z</time>
      </trkpt>
      <trkpt lat="45.84984" lon="6.44142">
        <ele>2218.7</ele>
        <time>2024-04-27T10:26:49Z</time>
      </trkpt>
      <trkpt lat="45.84984" lon="6.44142">
        <ele>2218.7</ele>
        <time>2024-04-27T10:26:50Z</time>
      </trkpt>
      <trkpt lat="45.84984" lon="6.44142">
        <ele>2218.7</ele>
        <time>2024-04-27T10:26:51Z</time>
      </trkpt>
      <trkpt lat="45.84984" lon="6.44142">
        <ele>2218.7</ele>
        <time>2024-04-27T10:26:52Z</time>
      </trkpt>
      <trkpt lat="45.84984" lon="6.44142">
        <ele>2218.7</ele>
        <time>2024-04-27T10:26:53Z</time>
      </trkpt>
      <trkpt lat="45.84984" lon="6.44142">
        <ele>2218.7</ele>
        <time>2024-04-27T10:26:54Z</time>
      </trkpt>
      <trkpt lat="45.84984" lon="6.44142">
        <ele>2218.7</ele>
        <time>2024-04-27T10:26:55Z</time>
      </trkpt>
      <trkpt lat="45.84984" lon="6.44142">
        <ele>2218.7</ele>
        <time>2024-04-27T10:26:56Z</time>
      </trkpt>
      <trkpt lat="45.84984" lon="6.44142">
        <ele>2218.7</ele>
        <time>2024-04-27T10:26:57Z</time>
      </trkpt>
      <trkpt lat="45.84985" lon="6.44141">
        <ele>2218.7</ele>
        <time>2024-04-27T10:26:58Z</time>
      </trkpt>
      <trkpt lat="45.84985" lon="6.44141">
        <ele>2218.7</ele>
        <time>2024-04-27T10:26:59Z</time>
      </trkpt>
      <trkpt lat="45.84986" lon="6.4414">
        <ele>2218.7</ele>
        <time>2024-04-27T10:27:00Z</time>
      </trkpt>
      <trkpt lat="45.84987" lon="6.44139">
        <ele>2218.7</ele>
        <time>2024-04-27T10:27:01Z</time>
      </trkpt>
      <trkpt lat="45.84987" lon="6.44139">
        <ele>2218.7</ele>
        <time>2024-04-27T10:27:02Z</time>
      </trkpt>
      <trkpt lat="45.84987" lon="6.44139">
        <ele>2218.7</ele>
        <time>2024-04-27T10:27:03Z</time>
      </trkpt>
      <trkpt lat="45.84987" lon="6.44138">
        <ele>2218.7</ele>
        <time>2024-04-27T10:27:04Z</time>
      </trkpt>
      <trkpt lat="45.84989" lon="6.44137">
        <ele>2218.7</ele>
        <time>2024-04-27T10:27:05Z</time>
      </trkpt>
      <trkpt lat="45.8499" lon="6.44136">
        <ele>2218.7</ele>
        <time>2024-04-27T10:27:06Z</time>
      </trkpt>
      <trkpt lat="45.84991" lon="6.44136">
        <ele>2218.7</ele>
        <time>2024-04-27T10:27:07Z</time>
      </trkpt>
      <trkpt lat="45.84991" lon="6.44136">
        <ele>2218.7</ele>
        <time>2024-04-27T10:27:08Z</time>
      </trkpt>
      <trkpt lat="45.84992" lon="6.44136">
        <ele>2218.7</ele>
        <time>2024-04-27T10:27:09Z</time>
      </trkpt>
      <trkpt lat="45.84992" lon="6.44136">
        <ele>2218.7</ele>
        <time>2024-04-27T10:27:10Z</time>
      </trkpt>
      <trkpt lat="45.84992" lon="6.44136">
        <ele>2218.7</ele>
        <time>2024-04-27T10:27:11Z</time>
      </trkpt>
      <trkpt lat="45.84991" lon="6.44137">
        <ele>2218.7</ele>
        <time>2024-04-27T10:27:12Z</time>
      </trkpt>
      <trkpt lat="45.84991" lon="6.44137">
        <ele>2218.7</ele>
        <time>2024-04-27T10:27:13Z</time>
      </trkpt>
      <trkpt lat="45.84991" lon="6.44138">
        <ele>2218.7</ele>
        <time>2024-04-27T10:27:14Z</time>
      </trkpt>
      <trkpt lat="45.84991" lon="6.44138">
        <ele>2219.6</ele>
        <time>2024-04-27T10:27:15Z</time>
      </trkpt>
      <trkpt lat="45.84991" lon="6.44138">
        <ele>2219.6</ele>
        <time>2024-04-27T10:27:16Z</time>
      </trkpt>
      <trkpt lat="45.84989" lon="6.44139">
        <ele>2219.6</ele>
        <time>2024-04-27T10:27:17Z</time>
      </trkpt>
      <trkpt lat="45.84989" lon="6.44139">
        <ele>2219.6</ele>
        <time>2024-04-27T10:27:18Z</time>
      </trkpt>
      <trkpt lat="45.8499" lon="6.4414">
        <ele>2219.6</ele>
        <time>2024-04-27T10:27:19Z</time>
      </trkpt>
      <trkpt lat="45.84989" lon="6.44142">
        <ele>2219.6</ele>
        <time>2024-04-27T10:27:20Z</time>
      </trkpt>
      <trkpt lat="45.84989" lon="6.44143">
        <ele>2219.6</ele>
        <time>2024-04-27T10:27:21Z</time>
      </trkpt>
      <trkpt lat="45.84988" lon="6.44144">
        <ele>2219.6</ele>
        <time>2024-04-27T10:27:22Z</time>
      </trkpt>
      <trkpt lat="45.84988" lon="6.44145">
        <ele>2219.6</ele>
        <time>2024-04-27T10:27:23Z</time>
      </trkpt>
      <trkpt lat="45.84989" lon="6.44144">
        <ele>2219.6</ele>
        <time>2024-04-27T10:27:24Z</time>
      </trkpt>
      <trkpt lat="45.84989" lon="6.44145">
        <ele>2219.6</ele>
        <time>2024-04-27T10:27:25Z</time>
      </trkpt>
      <trkpt lat="45.84989" lon="6.44145">
        <ele>2219.6</ele>
        <time>2024-04-27T10:27:26Z</time>
      </trkpt>
      <trkpt lat="45.84989" lon="6.44145">
        <ele>2219.6</ele>
        <time>2024-04-27T10:27:27Z</time>
      </trkpt>
      <trkpt lat="45.8499" lon="6.44145">
        <ele>2219.6</ele>
        <time>2024-04-27T10:27:28Z</time>
      </trkpt>
      <trkpt lat="45.8499" lon="6.44144">
        <ele>2219.6</ele>
        <time>2024-04-27T10:27:29Z</time>
      </trkpt>
      <trkpt lat="45.8499" lon="6.44144">
        <ele>2219.6</ele>
        <time>2024-04-27T10:27:30Z</time>
      </trkpt>
      <trkpt lat="45.84991" lon="6.44143">
        <ele>2219.6</ele>
        <time>2024-04-27T10:27:31Z</time>
      </trkpt>
      <trkpt lat="45.8499" lon="6.44143">
        <ele>2219.6</ele>
        <time>2024-04-27T10:27:32Z</time>
      </trkpt>
      <trkpt lat="45.8499" lon="6.44143">
        <ele>2219.6</ele>
        <time>2024-04-27T10:27:33Z</time>
      </trkpt>
      <trkpt lat="45.84988" lon="6.44143">
        <ele>2219.6</ele>
        <time>2024-04-27T10:27:34Z</time>
      </trkpt>
      <trkpt lat="45.84987" lon="6.44143">
        <ele>2219.6</ele>
        <time>2024-04-27T10:27:35Z</time>
      </trkpt>
      <trkpt lat="45.84987" lon="6.44143">
        <ele>2219.6</ele>
        <time>2024-04-27T10:27:36Z</time>
      </trkpt>
      <trkpt lat="45.84987" lon="6.44143">
        <ele>2219.6</ele>
        <time>2024-04-27T10:27:37Z</time>
      </trkpt>
      <trkpt lat="45.84986" lon="6.44143">
        <ele>2219.6</ele>
        <time>2024-04-27T10:27:38Z</time>
      </trkpt>
      <trkpt lat="45.84985" lon="6.44143">
        <ele>2219.6</ele>
        <time>2024-04-27T10:27:39Z</time>
      </trkpt>
      <trkpt lat="45.84985" lon="6.44143">
        <ele>2219.6</ele>
        <time>2024-04-27T10:27:40Z</time>
      </trkpt>
      <trkpt lat="45.84985" lon="6.44144">
        <ele>2219.6</ele>
        <time>2024-04-27T10:27:41Z</time>
      </trkpt>
      <trkpt lat="45.84984" lon="6.44145">
        <ele>2219.6</ele>
        <time>2024-04-27T10:27:42Z</time>
      </trkpt>
      <trkpt lat="45.84984" lon="6.44145">
        <ele>2219.6</ele>
        <time>2024-04-27T10:27:43Z</time>
      </trkpt>
      <trkpt lat="45.84984" lon="6.44146">
        <ele>2219.6</ele>
        <time>2024-04-27T10:27:44Z</time>
      </trkpt>
      <trkpt lat="45.84982" lon="6.44145">
        <ele>2218.7</ele>
        <time>2024-04-27T10:27:45Z</time>
      </trkpt>
      <trkpt lat="45.84982" lon="6.44145">
        <ele>2218.7</ele>
        <time>2024-04-27T10:27:46Z</time>
      </trkpt>
      <trkpt lat="45.84982" lon="6.44144">
        <ele>2218.7</ele>
        <time>2024-04-27T10:27:47Z</time>
      </trkpt>
      <trkpt lat="45.84982" lon="6.44143">
        <ele>2218.7</ele>
        <time>2024-04-27T10:27:48Z</time>
      </trkpt>
      <trkpt lat="45.84982" lon="6.44143">
        <ele>2218.7</ele>
        <time>2024-04-27T10:27:49Z</time>
      </trkpt>
      <trkpt lat="45.84982" lon="6.44143">
        <ele>2218.7</ele>
        <time>2024-04-27T10:27:50Z</time>
      </trkpt>
      <trkpt lat="45.8498" lon="6.44144">
        <ele>2218.7</ele>
        <time>2024-04-27T10:27:51Z</time>
      </trkpt>
      <trkpt lat="45.84978" lon="6.44146">
        <ele>2218.7</ele>
        <time>2024-04-27T10:27:52Z</time>
      </trkpt>
      <trkpt lat="45.84976" lon="6.44147">
        <ele>2218.7</ele>
        <time>2024-04-27T10:27:53Z</time>
      </trkpt>
      <trkpt lat="45.84975" lon="6.44148">
        <ele>2218.7</ele>
        <time>2024-04-27T10:27:54Z</time>
      </trkpt>
      <trkpt lat="45.84975" lon="6.44149">
        <ele>2218.7</ele>
        <time>2024-04-27T10:27:55Z</time>
      </trkpt>
      <trkpt lat="45.84974" lon="6.4415">
        <ele>2218.7</ele>
        <time>2024-04-27T10:27:56Z</time>
      </trkpt>
      <trkpt lat="45.84974" lon="6.44149">
        <ele>2218.7</ele>
        <time>2024-04-27T10:27:57Z</time>
      </trkpt>
      <trkpt lat="45.84975" lon="6.44148">
        <ele>2218.7</ele>
        <time>2024-04-27T10:27:58Z</time>
      </trkpt>
      <trkpt lat="45.84975" lon="6.44148">
        <ele>2218.7</ele>
        <time>2024-04-27T10:27:59Z</time>
      </trkpt>
      <trkpt lat="45.84976" lon="6.44147">
        <ele>2218.7</ele>
        <time>2024-04-27T10:28:00Z</time>
      </trkpt>
      <trkpt lat="45.8498" lon="6.44145">
        <ele>2218.7</ele>
        <time>2024-04-27T10:28:01Z</time>
      </trkpt>
      <trkpt lat="45.84981" lon="6.44144">
        <ele>2218.7</ele>
        <time>2024-04-27T10:28:02Z</time>
      </trkpt>
      <trkpt lat="45.84981" lon="6.44143">
        <ele>2218.7</ele>
        <time>2024-04-27T10:28:03Z</time>
      </trkpt>
      <trkpt lat="45.84981" lon="6.44143">
        <ele>2218.7</ele>
        <time>2024-04-27T10:28:04Z</time>
      </trkpt>
      <trkpt lat="45.84982" lon="6.44143">
        <ele>2218.7</ele>
        <time>2024-04-27T10:28:05Z</time>
      </trkpt>
      <trkpt lat="45.84983" lon="6.44142">
        <ele>2218.7</ele>
        <time>2024-04-27T10:28:06Z</time>
      </trkpt>
      <trkpt lat="45.84984" lon="6.44141">
        <ele>2216.7</ele>
        <time>2024-04-27T10:28:07Z</time>
      </trkpt>
      <trkpt lat="45.84984" lon="6.44141">
        <ele>2216.7</ele>
        <time>2024-04-27T10:28:08Z</time>
      </trkpt>
      <trkpt lat="45.84984" lon="6.4414">
        <ele>2216.7</ele>
        <time>2024-04-27T10:28:09Z</time>
      </trkpt>
      <trkpt lat="45.84984" lon="6.4414">
        <ele>2216.7</ele>
        <time>2024-04-27T10:28:10Z</time>
      </trkpt>
      <trkpt lat="45.84984" lon="6.4414">
        <ele>2216.7</ele>
        <time>2024-04-27T10:28:11Z</time>
      </trkpt>
      <trkpt lat="45.84984" lon="6.4414">
        <ele>2216.7</ele>
        <time>2024-04-27T10:28:12Z</time>
      </trkpt>
      <trkpt lat="45.84984" lon="6.4414">
        <ele>2216.7</ele>
        <time>2024-04-27T10:28:13Z</time>
      </trkpt>
      <trkpt lat="45.84984" lon="6.4414">
        <ele>2216.7</ele>
        <time>2024-04-27T10:28:14Z</time>
      </trkpt>
      <trkpt lat="45.84984" lon="6.4414">
        <ele>2219.6</ele>
        <time>2024-04-27T10:28:15Z</time>
      </trkpt>
      <trkpt lat="45.84984" lon="6.4414">
        <ele>2219.6</ele>
        <time>2024-04-27T10:28:16Z</time>
      </trkpt>
      <trkpt lat="45.84984" lon="6.4414">
        <ele>2219.6</ele>
        <time>2024-04-27T10:28:17Z</time>
      </trkpt>
      <trkpt lat="45.84985" lon="6.44139">
        <ele>2219.6</ele>
        <time>2024-04-27T10:28:18Z</time>
      </trkpt>
      <trkpt lat="45.84987" lon="6.44137">
        <ele>2219.6</ele>
        <time>2024-04-27T10:28:19Z</time>
      </trkpt>
      <trkpt lat="45.84988" lon="6.44136">
        <ele>2219.6</ele>
        <time>2024-04-27T10:28:20Z</time>
      </trkpt>
      <trkpt lat="45.84988" lon="6.44137">
        <ele>2219.6</ele>
        <time>2024-04-27T10:28:21Z</time>
      </trkpt>
      <trkpt lat="45.84988" lon="6.44137">
        <ele>2219.6</ele>
        <time>2024-04-27T10:28:22Z</time>
      </trkpt>
      <trkpt lat="45.84988" lon="6.44137">
        <ele>2219.6</ele>
        <time>2024-04-27T10:28:23Z</time>
      </trkpt>
      <trkpt lat="45.84988" lon="6.44137">
        <ele>2219.6</ele>
        <time>2024-04-27T10:28:24Z</time>
      </trkpt>
      <trkpt lat="45.84988" lon="6.44137">
        <ele>2219.6</ele>
        <time>2024-04-27T10:28:25Z</time>
      </trkpt>
      <trkpt lat="45.84987" lon="6.44137">
        <ele>2219.6</ele>
        <time>2024-04-27T10:28:26Z</time>
      </trkpt>
      <trkpt lat="45.84986" lon="6.44138">
        <ele>2219.6</ele>
        <time>2024-04-27T10:28:27Z</time>
      </trkpt>
      <trkpt lat="45.84986" lon="6.44138">
        <ele>2219.6</ele>
        <time>2024-04-27T10:28:28Z</time>
      </trkpt>
      <trkpt lat="45.84987" lon="6.44137">
        <ele>2220.6</ele>
        <time>2024-04-27T10:28:29Z</time>
      </trkpt>
      <trkpt lat="45.84988" lon="6.44137">
        <ele>2220.6</ele>
        <time>2024-04-27T10:28:30Z</time>
      </trkpt>
      <trkpt lat="45.84987" lon="6.44138">
        <ele>2221.7</ele>
        <time>2024-04-27T10:28:31Z</time>
      </trkpt>
      <trkpt lat="45.84986" lon="6.44139">
        <ele>2221.7</ele>
        <time>2024-04-27T10:28:32Z</time>
      </trkpt>
      <trkpt lat="45.84985" lon="6.44139">
        <ele>2220.6</ele>
        <time>2024-04-27T10:28:33Z</time>
      </trkpt>
      <trkpt lat="45.84985" lon="6.44139">
        <ele>2220.6</ele>
        <time>2024-04-27T10:28:34Z</time>
      </trkpt>
      <trkpt lat="45.84984" lon="6.44139">
        <ele>2220.6</ele>
        <time>2024-04-27T10:28:35Z</time>
      </trkpt>
      <trkpt lat="45.84985" lon="6.44138">
        <ele>2220.6</ele>
        <time>2024-04-27T10:28:36Z</time>
      </trkpt>
      <trkpt lat="45.84984" lon="6.44137">
        <ele>2220.6</ele>
        <time>2024-04-27T10:28:37Z</time>
      </trkpt>
      <trkpt lat="45.84984" lon="6.44138">
        <ele>2220.6</ele>
        <time>2024-04-27T10:28:38Z</time>
      </trkpt>
      <trkpt lat="45.84984" lon="6.44138">
        <ele>2219.6</ele>
        <time>2024-04-27T10:28:39Z</time>
      </trkpt>
      <trkpt lat="45.84986" lon="6.44136">
        <ele>2219.6</ele>
        <time>2024-04-27T10:28:40Z</time>
      </trkpt>
      <trkpt lat="45.84986" lon="6.44136">
        <ele>2218.7</ele>
        <time>2024-04-27T10:28:41Z</time>
      </trkpt>
      <trkpt lat="45.84984" lon="6.44137">
        <ele>2218.7</ele>
        <time>2024-04-27T10:28:42Z</time>
      </trkpt>
      <trkpt lat="45.84982" lon="6.44139">
        <ele>2218.7</ele>
        <time>2024-04-27T10:28:43Z</time>
      </trkpt>
      <trkpt lat="45.84982" lon="6.4414">
        <ele>2218.7</ele>
        <time>2024-04-27T10:28:44Z</time>
      </trkpt>
      <trkpt lat="45.8498" lon="6.4414">
        <ele>2217.6</ele>
        <time>2024-04-27T10:28:45Z</time>
      </trkpt>
      <trkpt lat="45.84979" lon="6.4414">
        <ele>2217.6</ele>
        <time>2024-04-27T10:28:46Z</time>
      </trkpt>
      <trkpt lat="45.84979" lon="6.4414">
        <ele>2217.6</ele>
        <time>2024-04-27T10:28:47Z</time>
      </trkpt>
      <trkpt lat="45.84978" lon="6.4414">
        <ele>2217.6</ele>
        <time>2024-04-27T10:28:48Z</time>
      </trkpt>
      <trkpt lat="45.84978" lon="6.4414">
        <ele>2218.7</ele>
        <time>2024-04-27T10:28:49Z</time>
      </trkpt>
      <trkpt lat="45.84978" lon="6.44139">
        <ele>2218.7</ele>
        <time>2024-04-27T10:28:50Z</time>
      </trkpt>
      <trkpt lat="45.84979" lon="6.44139">
        <ele>2218.7</ele>
        <time>2024-04-27T10:28:51Z</time>
      </trkpt>
      <trkpt lat="45.84979" lon="6.44138">
        <ele>2218.7</ele>
        <time>2024-04-27T10:28:52Z</time>
      </trkpt>
      <trkpt lat="45.8498" lon="6.44138">
        <ele>2218.7</ele>
        <time>2024-04-27T10:28:53Z</time>
      </trkpt>
      <trkpt lat="45.8498" lon="6.44138">
        <ele>2218.7</ele>
        <time>2024-04-27T10:28:54Z</time>
      </trkpt>
      <trkpt lat="45.84979" lon="6.44139">
        <ele>2219.6</ele>
        <time>2024-04-27T10:28:55Z</time>
      </trkpt>
      <trkpt lat="45.84979" lon="6.44138">
        <ele>2219.6</ele>
        <time>2024-04-27T10:28:56Z</time>
      </trkpt>
      <trkpt lat="45.84979" lon="6.44139">
        <ele>2219.6</ele>
        <time>2024-04-27T10:28:57Z</time>
      </trkpt>
      <trkpt lat="45.84978" lon="6.4414">
        <ele>2219.6</ele>
        <time>2024-04-27T10:28:58Z</time>
      </trkpt>
      <trkpt lat="45.84978" lon="6.4414">
        <ele>2219.6</ele>
        <time>2024-04-27T10:28:59Z</time>
      </trkpt>
      <trkpt lat="45.84978" lon="6.4414">
        <ele>2219.6</ele>
        <time>2024-04-27T10:29:00Z</time>
      </trkpt>
      <trkpt lat="45.84978" lon="6.44141">
        <ele>2218.7</ele>
        <time>2024-04-27T10:29:01Z</time>
      </trkpt>
      <trkpt lat="45.84978" lon="6.44141">
        <ele>2218.7</ele>
        <time>2024-04-27T10:29:02Z</time>
      </trkpt>
      <trkpt lat="45.84978" lon="6.44141">
        <ele>2218.7</ele>
        <time>2024-04-27T10:29:03Z</time>
      </trkpt>
      <trkpt lat="45.84978" lon="6.44141">
        <ele>2218.7</ele>
        <time>2024-04-27T10:29:04Z</time>
      </trkpt>
      <trkpt lat="45.84979" lon="6.44141">
        <ele>2218.7</ele>
        <time>2024-04-27T10:29:05Z</time>
      </trkpt>
      <trkpt lat="45.84978" lon="6.44142">
        <ele>2218.7</ele>
        <time>2024-04-27T10:29:06Z</time>
      </trkpt>
      <trkpt lat="45.84978" lon="6.44142">
        <ele>2219.6</ele>
        <time>2024-04-27T10:29:07Z</time>
      </trkpt>
      <trkpt lat="45.84978" lon="6.44142">
        <ele>2219.6</ele>
        <time>2024-04-27T10:29:08Z</time>
      </trkpt>
      <trkpt lat="45.84978" lon="6.44142">
        <ele>2219.6</ele>
        <time>2024-04-27T10:29:09Z</time>
      </trkpt>
      <trkpt lat="45.84978" lon="6.44142">
        <ele>2219.6</ele>
        <time>2024-04-27T10:29:10Z</time>
      </trkpt>
      <trkpt lat="45.84978" lon="6.44141">
        <ele>2218.7</ele>
        <time>2024-04-27T10:29:11Z</time>
      </trkpt>
      <trkpt lat="45.84978" lon="6.44141">
        <ele>2218.7</ele>
        <time>2024-04-27T10:29:12Z</time>
      </trkpt>
      <trkpt lat="45.84978" lon="6.4414">
        <ele>2218.7</ele>
        <time>2024-04-27T10:29:13Z</time>
      </trkpt>
      <trkpt lat="45.84979" lon="6.4414">
        <ele>2218.7</ele>
        <time>2024-04-27T10:29:14Z</time>
      </trkpt>
      <trkpt lat="45.84978" lon="6.44141">
        <ele>2218.7</ele>
        <time>2024-04-27T10:29:15Z</time>
      </trkpt>
      <trkpt lat="45.84978" lon="6.44141">
        <ele>2218.7</ele>
        <time>2024-04-27T10:29:16Z</time>
      </trkpt>
      <trkpt lat="45.84976" lon="6.44141">
        <ele>2219.6</ele>
        <time>2024-04-27T10:29:17Z</time>
      </trkpt>
      <trkpt lat="45.84973" lon="6.4414">
        <ele>2219.6</ele>
        <time>2024-04-27T10:29:18Z</time>
      </trkpt>
      <trkpt lat="45.84972" lon="6.44141">
        <ele>2219.6</ele>
        <time>2024-04-27T10:29:19Z</time>
      </trkpt>
      <trkpt lat="45.84972" lon="6.4414">
        <ele>2219.6</ele>
        <time>2024-04-27T10:29:20Z</time>
      </trkpt>
      <trkpt lat="45.84972" lon="6.44139">
        <ele>2219.6</ele>
        <time>2024-04-27T10:29:21Z</time>
      </trkpt>
      <trkpt lat="45.84971" lon="6.4414">
        <ele>2219.6</ele>
        <time>2024-04-27T10:29:22Z</time>
      </trkpt>
      <trkpt lat="45.84971" lon="6.44141">
        <ele>2219.6</ele>
        <time>2024-04-27T10:29:23Z</time>
      </trkpt>
      <trkpt lat="45.84972" lon="6.44141">
        <ele>2219.6</ele>
        <time>2024-04-27T10:29:24Z</time>
      </trkpt>
      <trkpt lat="45.84971" lon="6.4414">
        <ele>2219.6</ele>
        <time>2024-04-27T10:29:25Z</time>
      </trkpt>
      <trkpt lat="45.84971" lon="6.44139">
        <ele>2219.6</ele>
        <time>2024-04-27T10:29:26Z</time>
      </trkpt>
      <trkpt lat="45.84971" lon="6.44139">
        <ele>2220.6</ele>
        <time>2024-04-27T10:29:27Z</time>
      </trkpt>
      <trkpt lat="45.8497" lon="6.44139">
        <ele>2220.6</ele>
        <time>2024-04-27T10:29:28Z</time>
      </trkpt>
      <trkpt lat="45.84971" lon="6.44139">
        <ele>2220.6</ele>
        <time>2024-04-27T10:29:29Z</time>
      </trkpt>
      <trkpt lat="45.84971" lon="6.44139">
        <ele>2220.6</ele>
        <time>2024-04-27T10:29:30Z</time>
      </trkpt>
      <trkpt lat="45.84971" lon="6.44139">
        <ele>2220.6</ele>
        <time>2024-04-27T10:29:31Z</time>
      </trkpt>
      <trkpt lat="45.84971" lon="6.44139">
        <ele>2220.6</ele>
        <time>2024-04-27T10:29:32Z</time>
      </trkpt>
      <trkpt lat="45.84972" lon="6.44137">
        <ele>2220.6</ele>
        <time>2024-04-27T10:29:33Z</time>
      </trkpt>
      <trkpt lat="45.84973" lon="6.44137">
        <ele>2220.6</ele>
        <time>2024-04-27T10:29:34Z</time>
      </trkpt>
      <trkpt lat="45.84974" lon="6.44137">
        <ele>2220.6</ele>
        <time>2024-04-27T10:29:35Z</time>
      </trkpt>
      <trkpt lat="45.84975" lon="6.44137">
        <ele>2220.6</ele>
        <time>2024-04-27T10:29:36Z</time>
      </trkpt>
      <trkpt lat="45.84976" lon="6.44136">
        <ele>2220.6</ele>
        <time>2024-04-27T10:29:37Z</time>
      </trkpt>
      <trkpt lat="45.84977" lon="6.44136">
        <ele>2220.6</ele>
        <time>2024-04-27T10:29:38Z</time>
      </trkpt>
      <trkpt lat="45.84979" lon="6.44134">
        <ele>2220.6</ele>
        <time>2024-04-27T10:29:39Z</time>
      </trkpt>
      <trkpt lat="45.84982" lon="6.44132">
        <ele>2220.6</ele>
        <time>2024-04-27T10:29:40Z</time>
      </trkpt>
      <trkpt lat="45.84984" lon="6.4413">
        <ele>2220.6</ele>
        <time>2024-04-27T10:29:41Z</time>
      </trkpt>
      <trkpt lat="45.84983" lon="6.44131">
        <ele>2220.6</ele>
        <time>2024-04-27T10:29:42Z</time>
      </trkpt>
      <trkpt lat="45.84983" lon="6.44131">
        <ele>2220.6</ele>
        <time>2024-04-27T10:29:43Z</time>
      </trkpt>
      <trkpt lat="45.84983" lon="6.44131">
        <ele>2220.6</ele>
        <time>2024-04-27T10:29:44Z</time>
      </trkpt>
      <trkpt lat="45.84983" lon="6.44131">
        <ele>2220.6</ele>
        <time>2024-04-27T10:29:45Z</time>
      </trkpt>
      <trkpt lat="45.84983" lon="6.44131">
        <ele>2220.6</ele>
        <time>2024-04-27T10:29:46Z</time>
      </trkpt>
      <trkpt lat="45.84984" lon="6.44131">
        <ele>2220.6</ele>
        <time>2024-04-27T10:29:47Z</time>
      </trkpt>
      <trkpt lat="45.84984" lon="6.44131">
        <ele>2220.6</ele>
        <time>2024-04-27T10:29:48Z</time>
      </trkpt>
      <trkpt lat="45.84984" lon="6.44131">
        <ele>2221.7</ele>
        <time>2024-04-27T10:29:49Z</time>
      </trkpt>
      <trkpt lat="45.84983" lon="6.44131">
        <ele>2221.7</ele>
        <time>2024-04-27T10:29:50Z</time>
      </trkpt>
      <trkpt lat="45.84983" lon="6.44131">
        <ele>2221.7</ele>
        <time>2024-04-27T10:29:51Z</time>
      </trkpt>
      <trkpt lat="45.84984" lon="6.44132">
        <ele>2221.7</ele>
        <time>2024-04-27T10:29:52Z</time>
      </trkpt>
      <trkpt lat="45.84984" lon="6.44132">
        <ele>2221.7</ele>
        <time>2024-04-27T10:29:53Z</time>
      </trkpt>
      <trkpt lat="45.84985" lon="6.44132">
        <ele>2221.7</ele>
        <time>2024-04-27T10:29:54Z</time>
      </trkpt>
      <trkpt lat="45.84985" lon="6.44132">
        <ele>2222.6</ele>
        <time>2024-04-27T10:29:55Z</time>
      </trkpt>
      <trkpt lat="45.84985" lon="6.44132">
        <ele>2222.6</ele>
        <time>2024-04-27T10:29:56Z</time>
      </trkpt>
      <trkpt lat="45.84985" lon="6.44132">
        <ele>2223.7</ele>
        <time>2024-04-27T10:29:57Z</time>
      </trkpt>
      <trkpt lat="45.84985" lon="6.44132">
        <ele>2223.7</ele>
        <time>2024-04-27T10:29:58Z</time>
      </trkpt>
      <trkpt lat="45.84985" lon="6.44133">
        <ele>2223.7</ele>
        <time>2024-04-27T10:29:59Z</time>
      </trkpt>
      <trkpt lat="45.84984" lon="6.44134">
        <ele>2223.7</ele>
        <time>2024-04-27T10:30:00Z</time>
      </trkpt>
      <trkpt lat="45.84984" lon="6.44134">
        <ele>2223.7</ele>
        <time>2024-04-27T10:30:01Z</time>
      </trkpt>
      <trkpt lat="45.84984" lon="6.44134">
        <ele>2223.7</ele>
        <time>2024-04-27T10:30:02Z</time>
      </trkpt>
      <trkpt lat="45.84984" lon="6.44135">
        <ele>2222.6</ele>
        <time>2024-04-27T10:30:03Z</time>
      </trkpt>
      <trkpt lat="45.84985" lon="6.44135">
        <ele>2222.6</ele>
        <time>2024-04-27T10:30:04Z</time>
      </trkpt>
      <trkpt lat="45.84985" lon="6.44135">
        <ele>2221.7</ele>
        <time>2024-04-27T10:30:05Z</time>
      </trkpt>
      <trkpt lat="45.84986" lon="6.44135">
        <ele>2221.7</ele>
        <time>2024-04-27T10:30:06Z</time>
      </trkpt>
      <trkpt lat="45.84986" lon="6.44135">
        <ele>2221.7</ele>
        <time>2024-04-27T10:30:07Z</time>
      </trkpt>
      <trkpt lat="45.84986" lon="6.44135">
        <ele>2221.7</ele>
        <time>2024-04-27T10:30:08Z</time>
      </trkpt>
      <trkpt lat="45.84987" lon="6.44135">
        <ele>2220.6</ele>
        <time>2024-04-27T10:30:09Z</time>
      </trkpt>
      <trkpt lat="45.84988" lon="6.44135">
        <ele>2220.6</ele>
        <time>2024-04-27T10:30:10Z</time>
      </trkpt>
      <trkpt lat="45.84987" lon="6.44136">
        <ele>2220.6</ele>
        <time>2024-04-27T10:30:11Z</time>
      </trkpt>
      <trkpt lat="45.84986" lon="6.44137">
        <ele>2220.6</ele>
        <time>2024-04-27T10:30:12Z</time>
      </trkpt>
      <trkpt lat="45.84985" lon="6.44137">
        <ele>2220.6</ele>
        <time>2024-04-27T10:30:13Z</time>
      </trkpt>
      <trkpt lat="45.84985" lon="6.44138">
        <ele>2220.6</ele>
        <time>2024-04-27T10:30:14Z</time>
      </trkpt>
      <trkpt lat="45.84986" lon="6.44137">
        <ele>2220.6</ele>
        <time>2024-04-27T10:30:15Z</time>
      </trkpt>
      <trkpt lat="45.84986" lon="6.44136">
        <ele>2220.6</ele>
        <time>2024-04-27T10:30:16Z</time>
      </trkpt>
      <trkpt lat="45.84987" lon="6.44135">
        <ele>2218.7</ele>
        <time>2024-04-27T10:30:17Z</time>
      </trkpt>
      <trkpt lat="45.84988" lon="6.44134">
        <ele>2218.7</ele>
        <time>2024-04-27T10:30:18Z</time>
      </trkpt>
      <trkpt lat="45.84989" lon="6.44133">
        <ele>2218.7</ele>
        <time>2024-04-27T10:30:19Z</time>
      </trkpt>
      <trkpt lat="45.84991" lon="6.44131">
        <ele>2218.7</ele>
        <time>2024-04-27T10:30:20Z</time>
      </trkpt>
      <trkpt lat="45.84992" lon="6.4413">
        <ele>2218.7</ele>
        <time>2024-04-27T10:30:21Z</time>
      </trkpt>
      <trkpt lat="45.84991" lon="6.4413">
        <ele>2218.7</ele>
        <time>2024-04-27T10:30:22Z</time>
      </trkpt>
      <trkpt lat="45.8499" lon="6.44131">
        <ele>2218.7</ele>
        <time>2024-04-27T10:30:23Z</time>
      </trkpt>
      <trkpt lat="45.84991" lon="6.44131">
        <ele>2218.7</ele>
        <time>2024-04-27T10:30:24Z</time>
      </trkpt>
      <trkpt lat="45.84992" lon="6.4413">
        <ele>2217.6</ele>
        <time>2024-04-27T10:30:25Z</time>
      </trkpt>
      <trkpt lat="45.84992" lon="6.4413">
        <ele>2217.6</ele>
        <time>2024-04-27T10:30:26Z</time>
      </trkpt>
      <trkpt lat="45.84992" lon="6.4413">
        <ele>2217.6</ele>
        <time>2024-04-27T10:30:27Z</time>
      </trkpt>
      <trkpt lat="45.84992" lon="6.4413">
        <ele>2217.6</ele>
        <time>2024-04-27T10:30:28Z</time>
      </trkpt>
      <trkpt lat="45.84992" lon="6.44129">
        <ele>2217.6</ele>
        <time>2024-04-27T10:30:29Z</time>
      </trkpt>
      <trkpt lat="45.84993" lon="6.44128">
        <ele>2217.6</ele>
        <time>2024-04-27T10:30:30Z</time>
      </trkpt>
      <trkpt lat="45.84994" lon="6.44128">
        <ele>2217.6</ele>
        <time>2024-04-27T10:30:31Z</time>
      </trkpt>
      <trkpt lat="45.84994" lon="6.44127">
        <ele>2217.6</ele>
        <time>2024-04-27T10:30:32Z</time>
      </trkpt>
      <trkpt lat="45.84994" lon="6.44127">
        <ele>2217.6</ele>
        <time>2024-04-27T10:30:33Z</time>
      </trkpt>
      <trkpt lat="45.84994" lon="6.44127">
        <ele>2217.6</ele>
        <time>2024-04-27T10:30:34Z</time>
      </trkpt>
      <trkpt lat="45.84994" lon="6.44127">
        <ele>2217.6</ele>
        <time>2024-04-27T10:30:35Z</time>
      </trkpt>
      <trkpt lat="45.84993" lon="6.44127">
        <ele>2217.6</ele>
        <time>2024-04-27T10:30:36Z</time>
      </trkpt>
      <trkpt lat="45.84992" lon="6.44128">
        <ele>2217.6</ele>
        <time>2024-04-27T10:30:37Z</time>
      </trkpt>
      <trkpt lat="45.84992" lon="6.44129">
        <ele>2217.6</ele>
        <time>2024-04-27T10:30:38Z</time>
      </trkpt>
      <trkpt lat="45.84991" lon="6.44129">
        <ele>2218.7</ele>
        <time>2024-04-27T10:30:39Z</time>
      </trkpt>
      <trkpt lat="45.8499" lon="6.4413">
        <ele>2218.7</ele>
        <time>2024-04-27T10:30:40Z</time>
      </trkpt>
      <trkpt lat="45.8499" lon="6.4413">
        <ele>2218.7</ele>
        <time>2024-04-27T10:30:41Z</time>
      </trkpt>
      <trkpt lat="45.8499" lon="6.4413">
        <ele>2218.7</ele>
        <time>2024-04-27T10:30:42Z</time>
      </trkpt>
      <trkpt lat="45.8499" lon="6.4413">
        <ele>2218.7</ele>
        <time>2024-04-27T10:30:43Z</time>
      </trkpt>
      <trkpt lat="45.8499" lon="6.44129">
        <ele>2218.7</ele>
        <time>2024-04-27T10:30:44Z</time>
      </trkpt>
      <trkpt lat="45.8499" lon="6.44129">
        <ele>2218.7</ele>
        <time>2024-04-27T10:30:45Z</time>
      </trkpt>
      <trkpt lat="45.8499" lon="6.44129">
        <ele>2218.7</ele>
        <time>2024-04-27T10:30:46Z</time>
      </trkpt>
      <trkpt lat="45.8499" lon="6.44128">
        <ele>2218.7</ele>
        <time>2024-04-27T10:30:47Z</time>
      </trkpt>
      <trkpt lat="45.8499" lon="6.44128">
        <ele>2218.7</ele>
        <time>2024-04-27T10:30:48Z</time>
      </trkpt>
      <trkpt lat="45.8499" lon="6.44128">
        <ele>2218.7</ele>
        <time>2024-04-27T10:30:49Z</time>
      </trkpt>
      <trkpt lat="45.84991" lon="6.44128">
        <ele>2218.7</ele>
        <time>2024-04-27T10:30:50Z</time>
      </trkpt>
      <trkpt lat="45.84991" lon="6.44128">
        <ele>2218.7</ele>
        <time>2024-04-27T10:30:51Z</time>
      </trkpt>
      <trkpt lat="45.84991" lon="6.44128">
        <ele>2218.7</ele>
        <time>2024-04-27T10:30:52Z</time>
      </trkpt>
      <trkpt lat="45.84991" lon="6.44127">
        <ele>2219.6</ele>
        <time>2024-04-27T10:30:53Z</time>
      </trkpt>
      <trkpt lat="45.84991" lon="6.44128">
        <ele>2219.6</ele>
        <time>2024-04-27T10:30:54Z</time>
      </trkpt>
      <trkpt lat="45.84991" lon="6.44128">
        <ele>2220.6</ele>
        <time>2024-04-27T10:30:55Z</time>
      </trkpt>
      <trkpt lat="45.8499" lon="6.44128">
        <ele>2220.6</ele>
        <time>2024-04-27T10:30:56Z</time>
      </trkpt>
      <trkpt lat="45.8499" lon="6.44129">
        <ele>2221.7</ele>
        <time>2024-04-27T10:30:57Z</time>
      </trkpt>
      <trkpt lat="45.8499" lon="6.44129">
        <ele>2221.7</ele>
        <time>2024-04-27T10:30:58Z</time>
      </trkpt>
      <trkpt lat="45.8499" lon="6.4413">
        <ele>2221.7</ele>
        <time>2024-04-27T10:30:59Z</time>
      </trkpt>
      <trkpt lat="45.84989" lon="6.4413">
        <ele>2221.7</ele>
        <time>2024-04-27T10:31:00Z</time>
      </trkpt>
      <trkpt lat="45.84989" lon="6.4413">
        <ele>2221.7</ele>
        <time>2024-04-27T10:31:01Z</time>
      </trkpt>
      <trkpt lat="45.8499" lon="6.4413">
        <ele>2221.7</ele>
        <time>2024-04-27T10:31:02Z</time>
      </trkpt>
      <trkpt lat="45.84992" lon="6.4413">
        <ele>2221.7</ele>
        <time>2024-04-27T10:31:03Z</time>
      </trkpt>
      <trkpt lat="45.84993" lon="6.44129">
        <ele>2221.7</ele>
        <time>2024-04-27T10:31:04Z</time>
      </trkpt>
      <trkpt lat="45.84993" lon="6.4413">
        <ele>2221.7</ele>
        <time>2024-04-27T10:31:05Z</time>
      </trkpt>
      <trkpt lat="45.84993" lon="6.4413">
        <ele>2221.7</ele>
        <time>2024-04-27T10:31:06Z</time>
      </trkpt>
      <trkpt lat="45.84992" lon="6.44131">
        <ele>2221.7</ele>
        <time>2024-04-27T10:31:07Z</time>
      </trkpt>
      <trkpt lat="45.84992" lon="6.44131">
        <ele>2221.7</ele>
        <time>2024-04-27T10:31:08Z</time>
      </trkpt>
      <trkpt lat="45.84991" lon="6.44131">
        <ele>2221.7</ele>
        <time>2024-04-27T10:31:09Z</time>
      </trkpt>
      <trkpt lat="45.84991" lon="6.44131">
        <ele>2221.7</ele>
        <time>2024-04-27T10:31:10Z</time>
      </trkpt>
      <trkpt lat="45.84991" lon="6.44131">
        <ele>2221.7</ele>
        <time>2024-04-27T10:31:11Z</time>
      </trkpt>
      <trkpt lat="45.84991" lon="6.44132">
        <ele>2221.7</ele>
        <time>2024-04-27T10:31:12Z</time>
      </trkpt>
      <trkpt lat="45.84991" lon="6.44131">
        <ele>2221.7</ele>
        <time>2024-04-27T10:31:13Z</time>
      </trkpt>
      <trkpt lat="45.84991" lon="6.44131">
        <ele>2221.7</ele>
        <time>2024-04-27T10:31:14Z</time>
      </trkpt>
      <trkpt lat="45.84991" lon="6.44131">
        <ele>2221.7</ele>
        <time>2024-04-27T10:31:15Z</time>
      </trkpt>
      <trkpt lat="45.84991" lon="6.44131">
        <ele>2221.7</ele>
        <time>2024-04-27T10:31:16Z</time>
      </trkpt>
      <trkpt lat="45.8499" lon="6.44132">
        <ele>2220.6</ele>
        <time>2024-04-27T10:31:17Z</time>
      </trkpt>
      <trkpt lat="45.8499" lon="6.44132">
        <ele>2220.6</ele>
        <time>2024-04-27T10:31:18Z</time>
      </trkpt>
      <trkpt lat="45.8499" lon="6.44132">
        <ele>2220.6</ele>
        <time>2024-04-27T10:31:19Z</time>
      </trkpt>
      <trkpt lat="45.8499" lon="6.44132">
        <ele>2220.6</ele>
        <time>2024-04-27T10:31:20Z</time>
      </trkpt>
      <trkpt lat="45.8499" lon="6.44132">
        <ele>2220.6</ele>
        <time>2024-04-27T10:31:21Z</time>
      </trkpt>
      <trkpt lat="45.84991" lon="6.44132">
        <ele>2220.6</ele>
        <time>2024-04-27T10:31:22Z</time>
      </trkpt>
      <trkpt lat="45.84991" lon="6.44132">
        <ele>2220.6</ele>
        <time>2024-04-27T10:31:23Z</time>
      </trkpt>
      <trkpt lat="45.84991" lon="6.44131">
        <ele>2220.6</ele>
        <time>2024-04-27T10:31:24Z</time>
      </trkpt>
      <trkpt lat="45.84991" lon="6.4413">
        <ele>2218.7</ele>
        <time>2024-04-27T10:31:25Z</time>
      </trkpt>
      <trkpt lat="45.84991" lon="6.4413">
        <ele>2218.7</ele>
        <time>2024-04-27T10:31:26Z</time>
      </trkpt>
      <trkpt lat="45.84991" lon="6.4413">
        <ele>2218.7</ele>
        <time>2024-04-27T10:31:27Z</time>
      </trkpt>
      <trkpt lat="45.8499" lon="6.44132">
        <ele>2218.7</ele>
        <time>2024-04-27T10:31:28Z</time>
      </trkpt>
      <trkpt lat="45.8499" lon="6.44134">
        <ele>2218.7</ele>
        <time>2024-04-27T10:31:29Z</time>
      </trkpt>
      <trkpt lat="45.84989" lon="6.44137">
        <ele>2218.7</ele>
        <time>2024-04-27T10:31:30Z</time>
      </trkpt>
      <trkpt lat="45.84989" lon="6.44139">
        <ele>2218.7</ele>
        <time>2024-04-27T10:31:31Z</time>
      </trkpt>
      <trkpt lat="45.8499" lon="6.44139">
        <ele>2218.7</ele>
        <time>2024-04-27T10:31:32Z</time>
      </trkpt>
      <trkpt lat="45.84991" lon="6.44139">
        <ele>2218.7</ele>
        <time>2024-04-27T10:31:33Z</time>
      </trkpt>
      <trkpt lat="45.84992" lon="6.44139">
        <ele>2218.7</ele>
        <time>2024-04-27T10:31:34Z</time>
      </trkpt>
      <trkpt lat="45.84993" lon="6.44139">
        <ele>2218.7</ele>
        <time>2024-04-27T10:31:35Z</time>
      </trkpt>
      <trkpt lat="45.84993" lon="6.4414">
        <ele>2218.7</ele>
        <time>2024-04-27T10:31:36Z</time>
      </trkpt>
      <trkpt lat="45.84992" lon="6.44142">
        <ele>2218.7</ele>
        <time>2024-04-27T10:31:37Z</time>
      </trkpt>
      <trkpt lat="45.84992" lon="6.44142">
        <ele>2218.7</ele>
        <time>2024-04-27T10:31:38Z</time>
      </trkpt>
      <trkpt lat="45.84991" lon="6.44142">
        <ele>2217.6</ele>
        <time>2024-04-27T10:31:39Z</time>
      </trkpt>
      <trkpt lat="45.84991" lon="6.44141">
        <ele>2217.6</ele>
        <time>2024-04-27T10:31:40Z</time>
      </trkpt>
      <trkpt lat="45.84991" lon="6.4414">
        <ele>2217.6</ele>
        <time>2024-04-27T10:31:41Z</time>
      </trkpt>
      <trkpt lat="45.84991" lon="6.4414">
        <ele>2217.6</ele>
        <time>2024-04-27T10:31:42Z</time>
      </trkpt>
      <trkpt lat="45.84991" lon="6.44141">
        <ele>2218.7</ele>
        <time>2024-04-27T10:31:43Z</time>
      </trkpt>
      <trkpt lat="45.84991" lon="6.44142">
        <ele>2218.7</ele>
        <time>2024-04-27T10:31:44Z</time>
      </trkpt>
      <trkpt lat="45.8499" lon="6.44143">
        <ele>2218.7</ele>
        <time>2024-04-27T10:31:45Z</time>
      </trkpt>
      <trkpt lat="45.8499" lon="6.44144">
        <ele>2218.7</ele>
        <time>2024-04-27T10:31:46Z</time>
      </trkpt>
      <trkpt lat="45.8499" lon="6.44144">
        <ele>2218.7</ele>
        <time>2024-04-27T10:31:47Z</time>
      </trkpt>
      <trkpt lat="45.8499" lon="6.44143">
        <ele>2218.7</ele>
        <time>2024-04-27T10:31:48Z</time>
      </trkpt>
      <trkpt lat="45.8499" lon="6.44143">
        <ele>2218.7</ele>
        <time>2024-04-27T10:31:49Z</time>
      </trkpt>
      <trkpt lat="45.8499" lon="6.44143">
        <ele>2218.7</ele>
        <time>2024-04-27T10:31:50Z</time>
      </trkpt>
      <trkpt lat="45.8499" lon="6.44143">
        <ele>2217.6</ele>
        <time>2024-04-27T10:31:51Z</time>
      </trkpt>
      <trkpt lat="45.8499" lon="6.44143">
        <ele>2217.6</ele>
        <time>2024-04-27T10:31:52Z</time>
      </trkpt>
      <trkpt lat="45.84988" lon="6.44144">
        <ele>2217.6</ele>
        <time>2024-04-27T10:31:53Z</time>
      </trkpt>
      <trkpt lat="45.8499" lon="6.44144">
        <ele>2217.6</ele>
        <time>2024-04-27T10:31:54Z</time>
      </trkpt>
      <trkpt lat="45.84996" lon="6.44138">
        <ele>2217.6</ele>
        <time>2024-04-27T10:31:55Z</time>
      </trkpt>
      <trkpt lat="45.84997" lon="6.44137">
        <ele>2217.6</ele>
        <time>2024-04-27T10:31:56Z</time>
      </trkpt>
      <trkpt lat="45.84997" lon="6.44138">
        <ele>2217.6</ele>
        <time>2024-04-27T10:31:57Z</time>
      </trkpt>
      <trkpt lat="45.84998" lon="6.44137">
        <ele>2217.6</ele>
        <time>2024-04-27T10:31:58Z</time>
      </trkpt>
      <trkpt lat="45.84999" lon="6.44137">
        <ele>2217.6</ele>
        <time>2024-04-27T10:31:59Z</time>
      </trkpt>
      <trkpt lat="45.84998" lon="6.44137">
        <ele>2217.6</ele>
        <time>2024-04-27T10:32:00Z</time>
      </trkpt>
      <trkpt lat="45.85" lon="6.44136">
        <ele>2217.6</ele>
        <time>2024-04-27T10:32:01Z</time>
      </trkpt>
      <trkpt lat="45.85" lon="6.44135">
        <ele>2216.7</ele>
        <time>2024-04-27T10:32:02Z</time>
      </trkpt>
      <trkpt lat="45.85002" lon="6.44135">
        <ele>2216.7</ele>
        <time>2024-04-27T10:32:03Z</time>
      </trkpt>
      <trkpt lat="45.85004" lon="6.44135">
        <ele>2216.7</ele>
        <time>2024-04-27T10:32:04Z</time>
      </trkpt>
      <trkpt lat="45.85006" lon="6.44133">
        <ele>2216.7</ele>
        <time>2024-04-27T10:32:05Z</time>
      </trkpt>
      <trkpt lat="45.85008" lon="6.44132">
        <ele>2216.7</ele>
        <time>2024-04-27T10:32:06Z</time>
      </trkpt>
      <trkpt lat="45.85008" lon="6.44133">
        <ele>2216.7</ele>
        <time>2024-04-27T10:32:07Z</time>
      </trkpt>
      <trkpt lat="45.85009" lon="6.44134">
        <ele>2216.7</ele>
        <time>2024-04-27T10:32:08Z</time>
      </trkpt>
      <trkpt lat="45.8501" lon="6.44133">
        <ele>2216.7</ele>
        <time>2024-04-27T10:32:09Z</time>
      </trkpt>
      <trkpt lat="45.8501" lon="6.4413">
        <ele>2216.7</ele>
        <time>2024-04-27T10:32:10Z</time>
      </trkpt>
      <trkpt lat="45.85012" lon="6.44128">
        <ele>2216.7</ele>
        <time>2024-04-27T10:32:11Z</time>
      </trkpt>
      <trkpt lat="45.85012" lon="6.4413">
        <ele>2216.7</ele>
        <time>2024-04-27T10:32:12Z</time>
      </trkpt>
      <trkpt lat="45.85009" lon="6.44132">
        <ele>2216.7</ele>
        <time>2024-04-27T10:32:13Z</time>
      </trkpt>
      <trkpt lat="45.85007" lon="6.44133">
        <ele>2216.7</ele>
        <time>2024-04-27T10:32:14Z</time>
      </trkpt>
      <trkpt lat="45.85007" lon="6.44133">
        <ele>2216.7</ele>
        <time>2024-04-27T10:32:15Z</time>
      </trkpt>
      <trkpt lat="45.85009" lon="6.44132">
        <ele>2219.6</ele>
        <time>2024-04-27T10:32:16Z</time>
      </trkpt>
      <trkpt lat="45.85011" lon="6.44131">
        <ele>2219.6</ele>
        <time>2024-04-27T10:32:17Z</time>
      </trkpt>
      <trkpt lat="45.85012" lon="6.44131">
        <ele>2219.6</ele>
        <time>2024-04-27T10:32:18Z</time>
      </trkpt>
      <trkpt lat="45.85016" lon="6.44129">
        <ele>2219.6</ele>
        <time>2024-04-27T10:32:19Z</time>
      </trkpt>
      <trkpt lat="45.85023" lon="6.44124">
        <ele>2219.6</ele>
        <time>2024-04-27T10:32:20Z</time>
      </trkpt>
      <trkpt lat="45.8503" lon="6.44119">
        <ele>2219.6</ele>
        <time>2024-04-27T10:32:21Z</time>
      </trkpt>
      <trkpt lat="45.85037" lon="6.44115">
        <ele>2218.7</ele>
        <time>2024-04-27T10:32:22Z</time>
      </trkpt>
      <trkpt lat="45.85042" lon="6.44112">
        <ele>2218.7</ele>
        <time>2024-04-27T10:32:23Z</time>
      </trkpt>
      <trkpt lat="45.85048" lon="6.44108">
        <ele>2218.7</ele>
        <time>2024-04-27T10:32:24Z</time>
      </trkpt>
      <trkpt lat="45.85053" lon="6.44105">
        <ele>2218.7</ele>
        <time>2024-04-27T10:32:25Z</time>
      </trkpt>
      <trkpt lat="45.85058" lon="6.44102">
        <ele>2218.7</ele>
        <time>2024-04-27T10:32:26Z</time>
      </trkpt>
      <trkpt lat="45.85065" lon="6.44097">
        <ele>2218.7</ele>
        <time>2024-04-27T10:32:27Z</time>
      </trkpt>
      <trkpt lat="45.85073" lon="6.44092">
        <ele>2218.7</ele>
        <time>2024-04-27T10:32:28Z</time>
      </trkpt>
      <trkpt lat="45.85088" lon="6.44084">
        <ele>2218.7</ele>
        <time>2024-04-27T10:32:29Z</time>
      </trkpt>
      <trkpt lat="45.85103" lon="6.44074">
        <ele>2218.7</ele>
        <time>2024-04-27T10:32:30Z</time>
      </trkpt>
      <trkpt lat="45.85121" lon="6.44063">
        <ele>2218.7</ele>
        <time>2024-04-27T10:32:31Z</time>
      </trkpt>
      <trkpt lat="45.85139" lon="6.44052">
        <ele>2217.6</ele>
        <time>2024-04-27T10:32:32Z</time>
      </trkpt>
      <trkpt lat="45.85148" lon="6.44044">
        <ele>2217.6</ele>
        <time>2024-04-27T10:32:33Z</time>
      </trkpt>
      <trkpt lat="45.85155" lon="6.44038">
        <ele>2217.6</ele>
        <time>2024-04-27T10:32:34Z</time>
      </trkpt>
      <trkpt lat="45.8516" lon="6.44034">
        <ele>2217.6</ele>
        <time>2024-04-27T10:32:35Z</time>
      </trkpt>
      <trkpt lat="45.85162" lon="6.44032">
        <ele>2217.6</ele>
        <time>2024-04-27T10:32:36Z</time>
      </trkpt>
      <trkpt lat="45.85161" lon="6.44031">
        <ele>2217.6</ele>
        <time>2024-04-27T10:32:37Z</time>
      </trkpt>
      <trkpt lat="45.85158" lon="6.44031">
        <ele>2217.6</ele>
        <time>2024-04-27T10:32:38Z</time>
      </trkpt>
      <trkpt lat="45.85154" lon="6.44033">
        <ele>2217.6</ele>
        <time>2024-04-27T10:32:39Z</time>
      </trkpt>
      <trkpt lat="45.85147" lon="6.44037">
        <ele>2217.6</ele>
        <time>2024-04-27T10:32:40Z</time>
      </trkpt>
      <trkpt lat="45.85144" lon="6.44039">
        <ele>2217.6</ele>
        <time>2024-04-27T10:32:41Z</time>
      </trkpt>
      <trkpt lat="45.85141" lon="6.44042">
        <ele>2217.6</ele>
        <time>2024-04-27T10:32:42Z</time>
      </trkpt>
      <trkpt lat="45.85138" lon="6.44044">
        <ele>2217.6</ele>
        <time>2024-04-27T10:32:43Z</time>
      </trkpt>
      <trkpt lat="45.85134" lon="6.44047">
        <ele>2217.6</ele>
        <time>2024-04-27T10:32:44Z</time>
      </trkpt>
      <trkpt lat="45.85131" lon="6.44049">
        <ele>2217.6</ele>
        <time>2024-04-27T10:32:45Z</time>
      </trkpt>
      <trkpt lat="45.85128" lon="6.44052">
        <ele>2216.7</ele>
        <time>2024-04-27T10:32:46Z</time>
      </trkpt>
      <trkpt lat="45.85125" lon="6.44054">
        <ele>2216.7</ele>
        <time>2024-04-27T10:32:47Z</time>
      </trkpt>
      <trkpt lat="45.85121" lon="6.44057">
        <ele>2216.7</ele>
        <time>2024-04-27T10:32:48Z</time>
      </trkpt>
      <trkpt lat="45.85118" lon="6.44059">
        <ele>2216.7</ele>
        <time>2024-04-27T10:32:49Z</time>
      </trkpt>
      <trkpt lat="45.85115" lon="6.44062">
        <ele>2216.7</ele>
        <time>2024-04-27T10:32:50Z</time>
      </trkpt>
      <trkpt lat="45.85112" lon="6.44065">
        <ele>2216.7</ele>
        <time>2024-04-27T10:32:51Z</time>
      </trkpt>
      <trkpt lat="45.85109" lon="6.44067">
        <ele>2215.6</ele>
        <time>2024-04-27T10:32:52Z</time>
      </trkpt>
      <trkpt lat="45.85102" lon="6.44071">
        <ele>2215.6</ele>
        <time>2024-04-27T10:32:53Z</time>
      </trkpt>
      <trkpt lat="45.85099" lon="6.44073">
        <ele>2215.6</ele>
        <time>2024-04-27T10:32:54Z</time>
      </trkpt>
      <trkpt lat="45.85095" lon="6.44076">
        <ele>2215.6</ele>
        <time>2024-04-27T10:32:55Z</time>
      </trkpt>
      <trkpt lat="45.85092" lon="6.44079">
        <ele>2215.6</ele>
        <time>2024-04-27T10:32:56Z</time>
      </trkpt>
      <trkpt lat="45.85089" lon="6.4408">
        <ele>2215.6</ele>
        <time>2024-04-27T10:32:57Z</time>
      </trkpt>
      <trkpt lat="45.85086" lon="6.44083">
        <ele>2214.7</ele>
        <time>2024-04-27T10:32:58Z</time>
      </trkpt>
      <trkpt lat="45.85077" lon="6.44087">
        <ele>2214.7</ele>
        <time>2024-04-27T10:32:59Z</time>
      </trkpt>
      <trkpt lat="45.85068" lon="6.44092">
        <ele>2214.7</ele>
        <time>2024-04-27T10:33:00Z</time>
      </trkpt>
      <trkpt lat="45.85065" lon="6.44096">
        <ele>2214.7</ele>
        <time>2024-04-27T10:33:01Z</time>
      </trkpt>
      <trkpt lat="45.85062" lon="6.44099">
        <ele>2214.7</ele>
        <time>2024-04-27T10:33:02Z</time>
      </trkpt>
      <trkpt lat="45.85054" lon="6.44103">
        <ele>2214.7</ele>
        <time>2024-04-27T10:33:03Z</time>
      </trkpt>
      <trkpt lat="45.85047" lon="6.44108">
        <ele>2214.7</ele>
        <time>2024-04-27T10:33:04Z</time>
      </trkpt>
      <trkpt lat="45.85045" lon="6.4411">
        <ele>2214.7</ele>
        <time>2024-04-27T10:33:05Z</time>
      </trkpt>
      <trkpt lat="45.85041" lon="6.44113">
        <ele>2215.6</ele>
        <time>2024-04-27T10:33:06Z</time>
      </trkpt>
      <trkpt lat="45.8504" lon="6.44114">
        <ele>2215.6</ele>
        <time>2024-04-27T10:33:07Z</time>
      </trkpt>
      <trkpt lat="45.85039" lon="6.44115">
        <ele>2215.6</ele>
        <time>2024-04-27T10:33:08Z</time>
      </trkpt>
      <trkpt lat="45.85038" lon="6.44116">
        <ele>2215.6</ele>
        <time>2024-04-27T10:33:09Z</time>
      </trkpt>
      <trkpt lat="45.85036" lon="6.44117">
        <ele>2215.6</ele>
        <time>2024-04-27T10:33:10Z</time>
      </trkpt>
      <trkpt lat="45.85035" lon="6.44118">
        <ele>2215.6</ele>
        <time>2024-04-27T10:33:11Z</time>
      </trkpt>
      <trkpt lat="45.85034" lon="6.44119">
        <ele>2215.6</ele>
        <time>2024-04-27T10:33:12Z</time>
      </trkpt>
      <trkpt lat="45.85033" lon="6.44121">
        <ele>2215.6</ele>
        <time>2024-04-27T10:33:13Z</time>
      </trkpt>
      <trkpt lat="45.85034" lon="6.44121">
        <ele>2215.6</ele>
        <time>2024-04-27T10:33:14Z</time>
      </trkpt>
      <trkpt lat="45.85034" lon="6.44123">
        <ele>2215.6</ele>
        <time>2024-04-27T10:33:15Z</time>
      </trkpt>
      <trkpt lat="45.85033" lon="6.44124">
        <ele>2216.7</ele>
        <time>2024-04-27T10:33:16Z</time>
      </trkpt>
      <trkpt lat="45.85032" lon="6.44126">
        <ele>2216.7</ele>
        <time>2024-04-27T10:33:17Z</time>
      </trkpt>
      <trkpt lat="45.85031" lon="6.44126">
        <ele>2216.7</ele>
        <time>2024-04-27T10:33:18Z</time>
      </trkpt>
      <trkpt lat="45.8503" lon="6.44127">
        <ele>2216.7</ele>
        <time>2024-04-27T10:33:19Z</time>
      </trkpt>
      <trkpt lat="45.85029" lon="6.44128">
        <ele>2216.7</ele>
        <time>2024-04-27T10:33:20Z</time>
      </trkpt>
      <trkpt lat="45.85027" lon="6.44129">
        <ele>2216.7</ele>
        <time>2024-04-27T10:33:21Z</time>
      </trkpt>
      <trkpt lat="45.85026" lon="6.44129">
        <ele>2216.7</ele>
        <time>2024-04-27T10:33:22Z</time>
      </trkpt>
      <trkpt lat="45.85026" lon="6.44129">
        <ele>2216.7</ele>
        <time>2024-04-27T10:33:23Z</time>
      </trkpt>
      <trkpt lat="45.85025" lon="6.4413">
        <ele>2215.6</ele>
        <time>2024-04-27T10:33:24Z</time>
      </trkpt>
      <trkpt lat="45.85025" lon="6.4413">
        <ele>2215.6</ele>
        <time>2024-04-27T10:33:25Z</time>
      </trkpt>
      <trkpt lat="45.85023" lon="6.44132">
        <ele>2215.6</ele>
        <time>2024-04-27T10:33:26Z</time>
      </trkpt>
      <trkpt lat="45.85022" lon="6.44134">
        <ele>2215.6</ele>
        <time>2024-04-27T10:33:27Z</time>
      </trkpt>
      <trkpt lat="45.8502" lon="6.44136">
        <ele>2214.7</ele>
        <time>2024-04-27T10:33:28Z</time>
      </trkpt>
      <trkpt lat="45.85018" lon="6.44137">
        <ele>2214.7</ele>
        <time>2024-04-27T10:33:29Z</time>
      </trkpt>
      <trkpt lat="45.85016" lon="6.44138">
        <ele>2214.7</ele>
        <time>2024-04-27T10:33:30Z</time>
      </trkpt>
      <trkpt lat="45.85013" lon="6.4414">
        <ele>2214.7</ele>
        <time>2024-04-27T10:33:31Z</time>
      </trkpt>
      <trkpt lat="45.85012" lon="6.44141">
        <ele>2214.7</ele>
        <time>2024-04-27T10:33:32Z</time>
      </trkpt>
      <trkpt lat="45.85012" lon="6.44144">
        <ele>2214.7</ele>
        <time>2024-04-27T10:33:33Z</time>
      </trkpt>
      <trkpt lat="45.85013" lon="6.44144">
        <ele>2214.7</ele>
        <time>2024-04-27T10:33:34Z</time>
      </trkpt>
      <trkpt lat="45.85013" lon="6.44144">
        <ele>2214.7</ele>
        <time>2024-04-27T10:33:35Z</time>
      </trkpt>
      <trkpt lat="45.85013" lon="6.44144">
        <ele>2215.6</ele>
        <time>2024-04-27T10:33:36Z</time>
      </trkpt>
      <trkpt lat="45.85013" lon="6.44143">
        <ele>2215.6</ele>
        <time>2024-04-27T10:33:37Z</time>
      </trkpt>
      <trkpt lat="45.85013" lon="6.44143">
        <ele>2215.6</ele>
        <time>2024-04-27T10:33:38Z</time>
      </trkpt>
      <trkpt lat="45.85013" lon="6.44143">
        <ele>2215.6</ele>
        <time>2024-04-27T10:33:39Z</time>
      </trkpt>
      <trkpt lat="45.85012" lon="6.44143">
        <ele>2215.6</ele>
        <time>2024-04-27T10:33:40Z</time>
      </trkpt>
      <trkpt lat="45.85011" lon="6.44143">
        <ele>2215.6</ele>
        <time>2024-04-27T10:33:41Z</time>
      </trkpt>
      <trkpt lat="45.85011" lon="6.44143">
        <ele>2215.6</ele>
        <time>2024-04-27T10:33:42Z</time>
      </trkpt>
      <trkpt lat="45.85011" lon="6.44143">
        <ele>2215.6</ele>
        <time>2024-04-27T10:33:43Z</time>
      </trkpt>
      <trkpt lat="45.8501" lon="6.44144">
        <ele>2215.6</ele>
        <time>2024-04-27T10:33:44Z</time>
      </trkpt>
      <trkpt lat="45.8501" lon="6.44146">
        <ele>2215.6</ele>
        <time>2024-04-27T10:33:45Z</time>
      </trkpt>
      <trkpt lat="45.85011" lon="6.44146">
        <ele>2215.6</ele>
        <time>2024-04-27T10:33:46Z</time>
      </trkpt>
      <trkpt lat="45.8501" lon="6.44147">
        <ele>2215.6</ele>
        <time>2024-04-27T10:33:47Z</time>
      </trkpt>
      <trkpt lat="45.85011" lon="6.44148">
        <ele>2215.6</ele>
        <time>2024-04-27T10:33:48Z</time>
      </trkpt>
      <trkpt lat="45.85011" lon="6.44148">
        <ele>2215.6</ele>
        <time>2024-04-27T10:33:49Z</time>
      </trkpt>
      <trkpt lat="45.8501" lon="6.44148">
        <ele>2215.6</ele>
        <time>2024-04-27T10:33:50Z</time>
      </trkpt>
      <trkpt lat="45.8501" lon="6.44148">
        <ele>2215.6</ele>
        <time>2024-04-27T10:33:51Z</time>
      </trkpt>
      <trkpt lat="45.8501" lon="6.44148">
        <ele>2215.6</ele>
        <time>2024-04-27T10:33:52Z</time>
      </trkpt>
      <trkpt lat="45.85011" lon="6.44148">
        <ele>2215.6</ele>
        <time>2024-04-27T10:33:53Z</time>
      </trkpt>
      <trkpt lat="45.85011" lon="6.44147">
        <ele>2215.6</ele>
        <time>2024-04-27T10:33:54Z</time>
      </trkpt>
      <trkpt lat="45.85012" lon="6.44146">
        <ele>2215.6</ele>
        <time>2024-04-27T10:33:55Z</time>
      </trkpt>
      <trkpt lat="45.85012" lon="6.44146">
        <ele>2215.6</ele>
        <time>2024-04-27T10:33:56Z</time>
      </trkpt>
      <trkpt lat="45.85012" lon="6.44145">
        <ele>2215.6</ele>
        <time>2024-04-27T10:33:57Z</time>
      </trkpt>
      <trkpt lat="45.85012" lon="6.44145">
        <ele>2215.6</ele>
        <time>2024-04-27T10:33:58Z</time>
      </trkpt>
      <trkpt lat="45.85012" lon="6.44145">
        <ele>2215.6</ele>
        <time>2024-04-27T10:33:59Z</time>
      </trkpt>
      <trkpt lat="45.85012" lon="6.44145">
        <ele>2215.6</ele>
        <time>2024-04-27T10:34:00Z</time>
      </trkpt>
      <trkpt lat="45.85013" lon="6.44145">
        <ele>2215.6</ele>
        <time>2024-04-27T10:34:01Z</time>
      </trkpt>
      <trkpt lat="45.85013" lon="6.44144">
        <ele>2215.6</ele>
        <time>2024-04-27T10:34:02Z</time>
      </trkpt>
      <trkpt lat="45.85013" lon="6.44144">
        <ele>2215.6</ele>
        <time>2024-04-27T10:34:03Z</time>
      </trkpt>
      <trkpt lat="45.85013" lon="6.44145">
        <ele>2215.6</ele>
        <time>2024-04-27T10:34:04Z</time>
      </trkpt>
      <trkpt lat="45.85013" lon="6.44145">
        <ele>2215.6</ele>
        <time>2024-04-27T10:34:05Z</time>
      </trkpt>
      <trkpt lat="45.85014" lon="6.44144">
        <ele>2215.6</ele>
        <time>2024-04-27T10:34:06Z</time>
      </trkpt>
      <trkpt lat="45.85014" lon="6.44144">
        <ele>2215.6</ele>
        <time>2024-04-27T10:34:07Z</time>
      </trkpt>
      <trkpt lat="45.85014" lon="6.44144">
        <ele>2215.6</ele>
        <time>2024-04-27T10:34:08Z</time>
      </trkpt>
      <trkpt lat="45.85014" lon="6.44144">
        <ele>2215.6</ele>
        <time>2024-04-27T10:34:09Z</time>
      </trkpt>
      <trkpt lat="45.85014" lon="6.44144">
        <ele>2215.6</ele>
        <time>2024-04-27T10:34:10Z</time>
      </trkpt>
      <trkpt lat="45.85014" lon="6.44144">
        <ele>2215.6</ele>
        <time>2024-04-27T10:34:11Z</time>
      </trkpt>
      <trkpt lat="45.85014" lon="6.44144">
        <ele>2216.7</ele>
        <time>2024-04-27T10:34:12Z</time>
      </trkpt>
      <trkpt lat="45.85014" lon="6.44144">
        <ele>2216.7</ele>
        <time>2024-04-27T10:34:13Z</time>
      </trkpt>
      <trkpt lat="45.85014" lon="6.44144">
        <ele>2216.7</ele>
        <time>2024-04-27T10:34:14Z</time>
      </trkpt>
      <trkpt lat="45.85014" lon="6.44144">
        <ele>2216.7</ele>
        <time>2024-04-27T10:34:15Z</time>
      </trkpt>
      <trkpt lat="45.85014" lon="6.44144">
        <ele>2216.7</ele>
        <time>2024-04-27T10:34:16Z</time>
      </trkpt>
      <trkpt lat="45.85013" lon="6.44144">
        <ele>2216.7</ele>
        <time>2024-04-27T10:34:17Z</time>
      </trkpt>
      <trkpt lat="45.85013" lon="6.44144">
        <ele>2216.7</ele>
        <time>2024-04-27T10:34:18Z</time>
      </trkpt>
      <trkpt lat="45.85013" lon="6.44144">
        <ele>2216.7</ele>
        <time>2024-04-27T10:34:19Z</time>
      </trkpt>
      <trkpt lat="45.85013" lon="6.44144">
        <ele>2216.7</ele>
        <time>2024-04-27T10:34:20Z</time>
      </trkpt>
      <trkpt lat="45.85013" lon="6.44144">
        <ele>2216.7</ele>
        <time>2024-04-27T10:34:21Z</time>
      </trkpt>
      <trkpt lat="45.85013" lon="6.44145">
        <ele>2216.7</ele>
        <time>2024-04-27T10:34:22Z</time>
      </trkpt>
      <trkpt lat="45.85012" lon="6.44145">
        <ele>2216.7</ele>
        <time>2024-04-27T10:34:23Z</time>
      </trkpt>
      <trkpt lat="45.8501" lon="6.44145">
        <ele>2216.7</ele>
        <time>2024-04-27T10:34:24Z</time>
      </trkpt>
      <trkpt lat="45.85009" lon="6.44145">
        <ele>2216.7</ele>
        <time>2024-04-27T10:34:25Z</time>
      </trkpt>
      <trkpt lat="45.85009" lon="6.44146">
        <ele>2215.6</ele>
        <time>2024-04-27T10:34:26Z</time>
      </trkpt>
      <trkpt lat="45.85008" lon="6.44147">
        <ele>2215.6</ele>
        <time>2024-04-27T10:34:27Z</time>
      </trkpt>
      <trkpt lat="45.85007" lon="6.44147">
        <ele>2215.6</ele>
        <time>2024-04-27T10:34:28Z</time>
      </trkpt>
      <trkpt lat="45.85006" lon="6.44149">
        <ele>2215.6</ele>
        <time>2024-04-27T10:34:29Z</time>
      </trkpt>
      <trkpt lat="45.85005" lon="6.4415">
        <ele>2215.6</ele>
        <time>2024-04-27T10:34:30Z</time>
      </trkpt>
      <trkpt lat="45.85005" lon="6.4415">
        <ele>2215.6</ele>
        <time>2024-04-27T10:34:31Z</time>
      </trkpt>
      <trkpt lat="45.85004" lon="6.44151">
        <ele>2215.6</ele>
        <time>2024-04-27T10:34:32Z</time>
      </trkpt>
      <trkpt lat="45.85004" lon="6.44151">
        <ele>2215.6</ele>
        <time>2024-04-27T10:34:33Z</time>
      </trkpt>
      <trkpt lat="45.85005" lon="6.4415">
        <ele>2215.6</ele>
        <time>2024-04-27T10:34:34Z</time>
      </trkpt>
      <trkpt lat="45.85006" lon="6.4415">
        <ele>2215.6</ele>
        <time>2024-04-27T10:34:35Z</time>
      </trkpt>
      <trkpt lat="45.85006" lon="6.4415">
        <ele>2215.6</ele>
        <time>2024-04-27T10:34:36Z</time>
      </trkpt>
      <trkpt lat="45.85006" lon="6.44149">
        <ele>2215.6</ele>
        <time>2024-04-27T10:34:37Z</time>
      </trkpt>
      <trkpt lat="45.85007" lon="6.44149">
        <ele>2215.6</ele>
        <time>2024-04-27T10:34:38Z</time>
      </trkpt>
      <trkpt lat="45.85007" lon="6.44149">
        <ele>2215.6</ele>
        <time>2024-04-27T10:34:39Z</time>
      </trkpt>
      <trkpt lat="45.85007" lon="6.44149">
        <ele>2215.6</ele>
        <time>2024-04-27T10:34:40Z</time>
      </trkpt>
      <trkpt lat="45.85007" lon="6.44149">
        <ele>2215.6</ele>
        <time>2024-04-27T10:34:41Z</time>
      </trkpt>
      <trkpt lat="45.85007" lon="6.44149">
        <ele>2215.6</ele>
        <time>2024-04-27T10:34:42Z</time>
      </trkpt>
      <trkpt lat="45.85007" lon="6.44149">
        <ele>2215.6</ele>
        <time>2024-04-27T10:34:43Z</time>
      </trkpt>
      <trkpt lat="45.85007" lon="6.44149">
        <ele>2214.7</ele>
        <time>2024-04-27T10:34:44Z</time>
      </trkpt>
      <trkpt lat="45.85007" lon="6.44149">
        <ele>2214.7</ele>
        <time>2024-04-27T10:34:45Z</time>
      </trkpt>
      <trkpt lat="45.85006" lon="6.44149">
        <ele>2214.7</ele>
        <time>2024-04-27T10:34:46Z</time>
      </trkpt>
      <trkpt lat="45.85006" lon="6.44149">
        <ele>2214.7</ele>
        <time>2024-04-27T10:34:47Z</time>
      </trkpt>
      <trkpt lat="45.85006" lon="6.44149">
        <ele>2213.6</ele>
        <time>2024-04-27T10:34:48Z</time>
      </trkpt>
      <trkpt lat="45.85006" lon="6.44149">
        <ele>2213.6</ele>
        <time>2024-04-27T10:34:49Z</time>
      </trkpt>
      <trkpt lat="45.85006" lon="6.4415">
        <ele>2213.6</ele>
        <time>2024-04-27T10:34:50Z</time>
      </trkpt>
      <trkpt lat="45.85006" lon="6.4415">
        <ele>2213.6</ele>
        <time>2024-04-27T10:34:51Z</time>
      </trkpt>
      <trkpt lat="45.85006" lon="6.4415">
        <ele>2213.6</ele>
        <time>2024-04-27T10:34:52Z</time>
      </trkpt>
      <trkpt lat="45.85005" lon="6.44151">
        <ele>2213.6</ele>
        <time>2024-04-27T10:34:53Z</time>
      </trkpt>
      <trkpt lat="45.85005" lon="6.44151">
        <ele>2213.6</ele>
        <time>2024-04-27T10:34:54Z</time>
      </trkpt>
      <trkpt lat="45.85003" lon="6.44152">
        <ele>2213.6</ele>
        <time>2024-04-27T10:34:55Z</time>
      </trkpt>
      <trkpt lat="45.85003" lon="6.44152">
        <ele>2213.6</ele>
        <time>2024-04-27T10:34:56Z</time>
      </trkpt>
      <trkpt lat="45.85003" lon="6.44152">
        <ele>2213.6</ele>
        <time>2024-04-27T10:34:57Z</time>
      </trkpt>
      <trkpt lat="45.85003" lon="6.44152">
        <ele>2213.6</ele>
        <time>2024-04-27T10:34:58Z</time>
      </trkpt>
      <trkpt lat="45.85003" lon="6.44152">
        <ele>2213.6</ele>
        <time>2024-04-27T10:34:59Z</time>
      </trkpt>
      <trkpt lat="45.85003" lon="6.44152">
        <ele>2213.6</ele>
        <time>2024-04-27T10:35:00Z</time>
      </trkpt>
      <trkpt lat="45.85003" lon="6.44152">
        <ele>2213.6</ele>
        <time>2024-04-27T10:35:01Z</time>
      </trkpt>
      <trkpt lat="45.85003" lon="6.44152">
        <ele>2213.6</ele>
        <time>2024-04-27T10:35:02Z</time>
      </trkpt>
      <trkpt lat="45.85003" lon="6.44152">
        <ele>2213.6</ele>
        <time>2024-04-27T10:35:03Z</time>
      </trkpt>
      <trkpt lat="45.85004" lon="6.44152">
        <ele>2212.7</ele>
        <time>2024-04-27T10:35:04Z</time>
      </trkpt>
      <trkpt lat="45.85004" lon="6.44152">
        <ele>2212.7</ele>
        <time>2024-04-27T10:35:05Z</time>
      </trkpt>
      <trkpt lat="45.85004" lon="6.44152">
        <ele>2212.7</ele>
        <time>2024-04-27T10:35:06Z</time>
      </trkpt>
      <trkpt lat="45.85004" lon="6.44152">
        <ele>2212.7</ele>
        <time>2024-04-27T10:35:07Z</time>
      </trkpt>
      <trkpt lat="45.85005" lon="6.44151">
        <ele>2211.7</ele>
        <time>2024-04-27T10:35:08Z</time>
      </trkpt>
      <trkpt lat="45.85005" lon="6.44151">
        <ele>2211.7</ele>
        <time>2024-04-27T10:35:09Z</time>
      </trkpt>
      <trkpt lat="45.85006" lon="6.44151">
        <ele>2211.7</ele>
        <time>2024-04-27T10:35:10Z</time>
      </trkpt>
      <trkpt lat="45.85006" lon="6.44151">
        <ele>2211.7</ele>
        <time>2024-04-27T10:35:11Z</time>
      </trkpt>
      <trkpt lat="45.85006" lon="6.44151">
        <ele>2211.7</ele>
        <time>2024-04-27T10:35:12Z</time>
      </trkpt>
      <trkpt lat="45.85006" lon="6.44151">
        <ele>2211.7</ele>
        <time>2024-04-27T10:35:13Z</time>
      </trkpt>
      <trkpt lat="45.85006" lon="6.44151">
        <ele>2211.7</ele>
        <time>2024-04-27T10:35:14Z</time>
      </trkpt>
      <trkpt lat="45.85006" lon="6.44151">
        <ele>2211.7</ele>
        <time>2024-04-27T10:35:15Z</time>
      </trkpt>
      <trkpt lat="45.85006" lon="6.44151">
        <ele>2212.7</ele>
        <time>2024-04-27T10:35:16Z</time>
      </trkpt>
      <trkpt lat="45.85006" lon="6.44151">
        <ele>2212.7</ele>
        <time>2024-04-27T10:35:17Z</time>
      </trkpt>
      <trkpt lat="45.85006" lon="6.44151">
        <ele>2212.7</ele>
        <time>2024-04-27T10:35:18Z</time>
      </trkpt>
      <trkpt lat="45.85006" lon="6.44151">
        <ele>2212.7</ele>
        <time>2024-04-27T10:35:19Z</time>
      </trkpt>
      <trkpt lat="45.85006" lon="6.44151">
        <ele>2213.6</ele>
        <time>2024-04-27T10:35:20Z</time>
      </trkpt>
      <trkpt lat="45.85006" lon="6.44152">
        <ele>2213.6</ele>
        <time>2024-04-27T10:35:21Z</time>
      </trkpt>
      <trkpt lat="45.85005" lon="6.44152">
        <ele>2213.6</ele>
        <time>2024-04-27T10:35:22Z</time>
      </trkpt>
      <trkpt lat="45.85006" lon="6.44152">
        <ele>2213.6</ele>
        <time>2024-04-27T10:35:23Z</time>
      </trkpt>
      <trkpt lat="45.85006" lon="6.44153">
        <ele>2213.6</ele>
        <time>2024-04-27T10:35:24Z</time>
      </trkpt>
      <trkpt lat="45.85006" lon="6.44152">
        <ele>2213.6</ele>
        <time>2024-04-27T10:35:25Z</time>
      </trkpt>
      <trkpt lat="45.85006" lon="6.44153">
        <ele>2213.6</ele>
        <time>2024-04-27T10:35:26Z</time>
      </trkpt>
      <trkpt lat="45.85006" lon="6.44153">
        <ele>2213.6</ele>
        <time>2024-04-27T10:35:27Z</time>
      </trkpt>
      <trkpt lat="45.85006" lon="6.44153">
        <ele>2213.6</ele>
        <time>2024-04-27T10:35:28Z</time>
      </trkpt>
      <trkpt lat="45.85005" lon="6.44152">
        <ele>2213.6</ele>
        <time>2024-04-27T10:35:29Z</time>
      </trkpt>
      <trkpt lat="45.85006" lon="6.44152">
        <ele>2212.7</ele>
        <time>2024-04-27T10:35:30Z</time>
      </trkpt>
      <trkpt lat="45.85006" lon="6.44153">
        <ele>2212.7</ele>
        <time>2024-04-27T10:35:31Z</time>
      </trkpt>
      <trkpt lat="45.85006" lon="6.44153">
        <ele>2212.7</ele>
        <time>2024-04-27T10:35:32Z</time>
      </trkpt>
      <trkpt lat="45.85007" lon="6.44153">
        <ele>2212.7</ele>
        <time>2024-04-27T10:35:33Z</time>
      </trkpt>
      <trkpt lat="45.85008" lon="6.44153">
        <ele>2211.7</ele>
        <time>2024-04-27T10:35:34Z</time>
      </trkpt>
      <trkpt lat="45.85008" lon="6.44153">
        <ele>2211.7</ele>
        <time>2024-04-27T10:35:35Z</time>
      </trkpt>
      <trkpt lat="45.85008" lon="6.44154">
        <ele>2211.7</ele>
        <time>2024-04-27T10:35:36Z</time>
      </trkpt>
      <trkpt lat="45.85008" lon="6.44154">
        <ele>2211.7</ele>
        <time>2024-04-27T10:35:37Z</time>
      </trkpt>
      <trkpt lat="45.85007" lon="6.44155">
        <ele>2211.7</ele>
        <time>2024-04-27T10:35:38Z</time>
      </trkpt>
      <trkpt lat="45.85006" lon="6.44155">
        <ele>2211.7</ele>
        <time>2024-04-27T10:35:39Z</time>
      </trkpt>
      <trkpt lat="45.85006" lon="6.44154">
        <ele>2211.7</ele>
        <time>2024-04-27T10:35:40Z</time>
      </trkpt>
      <trkpt lat="45.85006" lon="6.44154">
        <ele>2211.7</ele>
        <time>2024-04-27T10:35:41Z</time>
      </trkpt>
      <trkpt lat="45.85006" lon="6.44154">
        <ele>2211.7</ele>
        <time>2024-04-27T10:35:42Z</time>
      </trkpt>
      <trkpt lat="45.85006" lon="6.44154">
        <ele>2211.7</ele>
        <time>2024-04-27T10:35:43Z</time>
      </trkpt>
      <trkpt lat="45.85006" lon="6.44154">
        <ele>2209.7</ele>
        <time>2024-04-27T10:35:44Z</time>
      </trkpt>
      <trkpt lat="45.85006" lon="6.44154">
        <ele>2209.7</ele>
        <time>2024-04-27T10:35:45Z</time>
      </trkpt>
      <trkpt lat="45.85006" lon="6.44154">
        <ele>2209.7</ele>
        <time>2024-04-27T10:35:46Z</time>
      </trkpt>
      <trkpt lat="45.85006" lon="6.44154">
        <ele>2209.7</ele>
        <time>2024-04-27T10:35:47Z</time>
      </trkpt>
      <trkpt lat="45.85006" lon="6.44154">
        <ele>2210.6</ele>
        <time>2024-04-27T10:35:48Z</time>
      </trkpt>
      <trkpt lat="45.85006" lon="6.44154">
        <ele>2210.6</ele>
        <time>2024-04-27T10:35:49Z</time>
      </trkpt>
      <trkpt lat="45.85006" lon="6.44154">
        <ele>2210.6</ele>
        <time>2024-04-27T10:35:50Z</time>
      </trkpt>
      <trkpt lat="45.85006" lon="6.44154">
        <ele>2210.6</ele>
        <time>2024-04-27T10:35:51Z</time>
      </trkpt>
      <trkpt lat="45.85006" lon="6.44154">
        <ele>2211.7</ele>
        <time>2024-04-27T10:35:52Z</time>
      </trkpt>
      <trkpt lat="45.85006" lon="6.44154">
        <ele>2211.7</ele>
        <time>2024-04-27T10:35:53Z</time>
      </trkpt>
      <trkpt lat="45.85006" lon="6.44154">
        <ele>2211.7</ele>
        <time>2024-04-27T10:35:54Z</time>
      </trkpt>
      <trkpt lat="45.85006" lon="6.44154">
        <ele>2211.7</ele>
        <time>2024-04-27T10:35:55Z</time>
      </trkpt>
      <trkpt lat="45.85005" lon="6.44155">
        <ele>2212.7</ele>
        <time>2024-04-27T10:35:56Z</time>
      </trkpt>
      <trkpt lat="45.85004" lon="6.44155">
        <ele>2212.7</ele>
        <time>2024-04-27T10:35:57Z</time>
      </trkpt>
      <trkpt lat="45.85003" lon="6.44155">
        <ele>2212.7</ele>
        <time>2024-04-27T10:35:58Z</time>
      </trkpt>
      <trkpt lat="45.85002" lon="6.44154">
        <ele>2212.7</ele>
        <time>2024-04-27T10:35:59Z</time>
      </trkpt>
      <trkpt lat="45.85001" lon="6.44154">
        <ele>2212.7</ele>
        <time>2024-04-27T10:36:00Z</time>
      </trkpt>
      <trkpt lat="45.85" lon="6.44154">
        <ele>2212.7</ele>
        <time>2024-04-27T10:36:01Z</time>
      </trkpt>
      <trkpt lat="45.84999" lon="6.44154">
        <ele>2212.7</ele>
        <time>2024-04-27T10:36:02Z</time>
      </trkpt>
      <trkpt lat="45.84998" lon="6.44155">
        <ele>2212.7</ele>
        <time>2024-04-27T10:36:03Z</time>
      </trkpt>
      <trkpt lat="45.84997" lon="6.44155">
        <ele>2212.7</ele>
        <time>2024-04-27T10:36:04Z</time>
      </trkpt>
      <trkpt lat="45.84995" lon="6.44155">
        <ele>2212.7</ele>
        <time>2024-04-27T10:36:05Z</time>
      </trkpt>
      <trkpt lat="45.84995" lon="6.44154">
        <ele>2212.7</ele>
        <time>2024-04-27T10:36:06Z</time>
      </trkpt>
      <trkpt lat="45.84994" lon="6.44153">
        <ele>2212.7</ele>
        <time>2024-04-27T10:36:07Z</time>
      </trkpt>
      <trkpt lat="45.84992" lon="6.44153">
        <ele>2212.7</ele>
        <time>2024-04-27T10:36:08Z</time>
      </trkpt>
      <trkpt lat="45.84988" lon="6.44154">
        <ele>2212.7</ele>
        <time>2024-04-27T10:36:09Z</time>
      </trkpt>
      <trkpt lat="45.84987" lon="6.44154">
        <ele>2212.7</ele>
        <time>2024-04-27T10:36:10Z</time>
      </trkpt>
      <trkpt lat="45.84986" lon="6.44154">
        <ele>2212.7</ele>
        <time>2024-04-27T10:36:11Z</time>
      </trkpt>
      <trkpt lat="45.84985" lon="6.44154">
        <ele>2212.7</ele>
        <time>2024-04-27T10:36:12Z</time>
      </trkpt>
      <trkpt lat="45.84985" lon="6.44153">
        <ele>2212.7</ele>
        <time>2024-04-27T10:36:13Z</time>
      </trkpt>
      <trkpt lat="45.84984" lon="6.44153">
        <ele>2212.7</ele>
        <time>2024-04-27T10:36:14Z</time>
      </trkpt>
      <trkpt lat="45.84984" lon="6.44153">
        <ele>2212.7</ele>
        <time>2024-04-27T10:36:15Z</time>
      </trkpt>
      <trkpt lat="45.84984" lon="6.44154">
        <ele>2212.7</ele>
        <time>2024-04-27T10:36:16Z</time>
      </trkpt>
      <trkpt lat="45.84984" lon="6.44154">
        <ele>2212.7</ele>
        <time>2024-04-27T10:36:17Z</time>
      </trkpt>
      <trkpt lat="45.84983" lon="6.44154">
        <ele>2212.7</ele>
        <time>2024-04-27T10:36:18Z</time>
      </trkpt>
      <trkpt lat="45.84983" lon="6.44154">
        <ele>2212.7</ele>
        <time>2024-04-27T10:36:19Z</time>
      </trkpt>
      <trkpt lat="45.84983" lon="6.44154">
        <ele>2213.6</ele>
        <time>2024-04-27T10:36:20Z</time>
      </trkpt>
      <trkpt lat="45.84982" lon="6.44154">
        <ele>2213.6</ele>
        <time>2024-04-27T10:36:21Z</time>
      </trkpt>
      <trkpt lat="45.84982" lon="6.44155">
        <ele>2213.6</ele>
        <time>2024-04-27T10:36:22Z</time>
      </trkpt>
      <trkpt lat="45.84982" lon="6.44155">
        <ele>2213.6</ele>
        <time>2024-04-27T10:36:23Z</time>
      </trkpt>
      <trkpt lat="45.84982" lon="6.44155">
        <ele>2213.6</ele>
        <time>2024-04-27T10:36:24Z</time>
      </trkpt>
      <trkpt lat="45.84981" lon="6.44156">
        <ele>2213.6</ele>
        <time>2024-04-27T10:36:25Z</time>
      </trkpt>
      <trkpt lat="45.84982" lon="6.44156">
        <ele>2213.6</ele>
        <time>2024-04-27T10:36:26Z</time>
      </trkpt>
      <trkpt lat="45.84982" lon="6.44155">
        <ele>2213.6</ele>
        <time>2024-04-27T10:36:27Z</time>
      </trkpt>
      <trkpt lat="45.84982" lon="6.44155">
        <ele>2213.6</ele>
        <time>2024-04-27T10:36:28Z</time>
      </trkpt>
      <trkpt lat="45.84982" lon="6.44155">
        <ele>2213.6</ele>
        <time>2024-04-27T10:36:29Z</time>
      </trkpt>
      <trkpt lat="45.84982" lon="6.44155">
        <ele>2213.6</ele>
        <time>2024-04-27T10:36:30Z</time>
      </trkpt>
      <trkpt lat="45.84982" lon="6.44155">
        <ele>2213.6</ele>
        <time>2024-04-27T10:36:31Z</time>
      </trkpt>
      <trkpt lat="45.84982" lon="6.44155">
        <ele>2212.7</ele>
        <time>2024-04-27T10:36:32Z</time>
      </trkpt>
      <trkpt lat="45.84982" lon="6.44155">
        <ele>2212.7</ele>
        <time>2024-04-27T10:36:33Z</time>
      </trkpt>
      <trkpt lat="45.84982" lon="6.44155">
        <ele>2212.7</ele>
        <time>2024-04-27T10:36:34Z</time>
      </trkpt>
      <trkpt lat="45.84982" lon="6.44155">
        <ele>2212.7</ele>
        <time>2024-04-27T10:36:35Z</time>
      </trkpt>
      <trkpt lat="45.84982" lon="6.44155">
        <ele>2212.7</ele>
        <time>2024-04-27T10:36:36Z</time>
      </trkpt>
      <trkpt lat="45.84982" lon="6.44155">
        <ele>2212.7</ele>
        <time>2024-04-27T10:36:37Z</time>
      </trkpt>
      <trkpt lat="45.84982" lon="6.44155">
        <ele>2211.7</ele>
        <time>2024-04-27T10:36:38Z</time>
      </trkpt>
      <trkpt lat="45.84982" lon="6.44155">
        <ele>2211.7</ele>
        <time>2024-04-27T10:36:39Z</time>
      </trkpt>
      <trkpt lat="45.84982" lon="6.44154">
        <ele>2211.7</ele>
        <time>2024-04-27T10:36:40Z</time>
      </trkpt>
      <trkpt lat="45.84982" lon="6.44154">
        <ele>2211.7</ele>
        <time>2024-04-27T10:36:41Z</time>
      </trkpt>
      <trkpt lat="45.84982" lon="6.44154">
        <ele>2211.7</ele>
        <time>2024-04-27T10:36:42Z</time>
      </trkpt>
      <trkpt lat="45.84981" lon="6.44154">
        <ele>2211.7</ele>
        <time>2024-04-27T10:36:43Z</time>
      </trkpt>
      <trkpt lat="45.84981" lon="6.44154">
        <ele>2211.7</ele>
        <time>2024-04-27T10:36:44Z</time>
      </trkpt>
      <trkpt lat="45.84981" lon="6.44154">
        <ele>2211.7</ele>
        <time>2024-04-27T10:36:45Z</time>
      </trkpt>
      <trkpt lat="45.84981" lon="6.44153">
        <ele>2210.6</ele>
        <time>2024-04-27T10:36:46Z</time>
      </trkpt>
      <trkpt lat="45.8498" lon="6.44152">
        <ele>2210.6</ele>
        <time>2024-04-27T10:36:47Z</time>
      </trkpt>
      <trkpt lat="45.84978" lon="6.44151">
        <ele>2209.7</ele>
        <time>2024-04-27T10:36:48Z</time>
      </trkpt>
      <trkpt lat="45.84978" lon="6.4415">
        <ele>2209.7</ele>
        <time>2024-04-27T10:36:49Z</time>
      </trkpt>
      <trkpt lat="45.84977" lon="6.44149">
        <ele>2209.7</ele>
        <time>2024-04-27T10:36:50Z</time>
      </trkpt>
      <trkpt lat="45.84977" lon="6.44149">
        <ele>2209.7</ele>
        <time>2024-04-27T10:36:51Z</time>
      </trkpt>
      <trkpt lat="45.84976" lon="6.44148">
        <ele>2208.6</ele>
        <time>2024-04-27T10:36:52Z</time>
      </trkpt>
      <trkpt lat="45.84975" lon="6.44147">
        <ele>2208.6</ele>
        <time>2024-04-27T10:36:53Z</time>
      </trkpt>
      <trkpt lat="45.84974" lon="6.44146">
        <ele>2208.6</ele>
        <time>2024-04-27T10:36:54Z</time>
      </trkpt>
      <trkpt lat="45.84973" lon="6.44146">
        <ele>2208.6</ele>
        <time>2024-04-27T10:36:55Z</time>
      </trkpt>
      <trkpt lat="45.84973" lon="6.44146">
        <ele>2207.7</ele>
        <time>2024-04-27T10:36:56Z</time>
      </trkpt>
      <trkpt lat="45.84973" lon="6.44145">
        <ele>2207.7</ele>
        <time>2024-04-27T10:36:57Z</time>
      </trkpt>
      <trkpt lat="45.84973" lon="6.44145">
        <ele>2207.7</ele>
        <time>2024-04-27T10:36:58Z</time>
      </trkpt>
      <trkpt lat="45.84973" lon="6.44144">
        <ele>2207.7</ele>
        <time>2024-04-27T10:36:59Z</time>
      </trkpt>
      <trkpt lat="45.84974" lon="6.44143">
        <ele>2207.7</ele>
        <time>2024-04-27T10:37:00Z</time>
      </trkpt>
      <trkpt lat="45.84975" lon="6.44141">
        <ele>2207.7</ele>
        <time>2024-04-27T10:37:01Z</time>
      </trkpt>
      <trkpt lat="45.84975" lon="6.4414">
        <ele>2206.6</ele>
        <time>2024-04-27T10:37:02Z</time>
      </trkpt>
      <trkpt lat="45.84975" lon="6.44139">
        <ele>2206.6</ele>
        <time>2024-04-27T10:37:03Z</time>
      </trkpt>
      <trkpt lat="45.84975" lon="6.44139">
        <ele>2206.6</ele>
        <time>2024-04-27T10:37:04Z</time>
      </trkpt>
      <trkpt lat="45.84975" lon="6.4414">
        <ele>2206.6</ele>
        <time>2024-04-27T10:37:05Z</time>
      </trkpt>
      <trkpt lat="45.84974" lon="6.4414">
        <ele>2206.6</ele>
        <time>2024-04-27T10:37:06Z</time>
      </trkpt>
      <trkpt lat="45.84974" lon="6.4414">
        <ele>2206.6</ele>
        <time>2024-04-27T10:37:07Z</time>
      </trkpt>
      <trkpt lat="45.84974" lon="6.4414">
        <ele>2206.6</ele>
        <time>2024-04-27T10:37:08Z</time>
      </trkpt>
      <trkpt lat="45.84974" lon="6.4414">
        <ele>2206.6</ele>
        <time>2024-04-27T10:37:09Z</time>
      </trkpt>
      <trkpt lat="45.84974" lon="6.4414">
        <ele>2206.6</ele>
        <time>2024-04-27T10:37:10Z</time>
      </trkpt>
      <trkpt lat="45.84974" lon="6.4414">
        <ele>2206.6</ele>
        <time>2024-04-27T10:37:11Z</time>
      </trkpt>
      <trkpt lat="45.84974" lon="6.4414">
        <ele>2206.6</ele>
        <time>2024-04-27T10:37:12Z</time>
      </trkpt>
      <trkpt lat="45.84974" lon="6.4414">
        <ele>2206.6</ele>
        <time>2024-04-27T10:37:13Z</time>
      </trkpt>
      <trkpt lat="45.84974" lon="6.4414">
        <ele>2206.6</ele>
        <time>2024-04-27T10:37:14Z</time>
      </trkpt>
      <trkpt lat="45.84974" lon="6.4414">
        <ele>2206.6</ele>
        <time>2024-04-27T10:37:15Z</time>
      </trkpt>
      <trkpt lat="45.84974" lon="6.4414">
        <ele>2206.6</ele>
        <time>2024-04-27T10:37:16Z</time>
      </trkpt>
      <trkpt lat="45.84974" lon="6.4414">
        <ele>2206.6</ele>
        <time>2024-04-27T10:37:17Z</time>
      </trkpt>
      <trkpt lat="45.84974" lon="6.4414">
        <ele>2206.6</ele>
        <time>2024-04-27T10:37:18Z</time>
      </trkpt>
      <trkpt lat="45.84974" lon="6.4414">
        <ele>2206.6</ele>
        <time>2024-04-27T10:37:19Z</time>
      </trkpt>
      <trkpt lat="45.84974" lon="6.4414">
        <ele>2206.6</ele>
        <time>2024-04-27T10:37:20Z</time>
      </trkpt>
      <trkpt lat="45.84974" lon="6.4414">
        <ele>2206.6</ele>
        <time>2024-04-27T10:37:21Z</time>
      </trkpt>
      <trkpt lat="45.84974" lon="6.4414">
        <ele>2206.6</ele>
        <time>2024-04-27T10:37:22Z</time>
      </trkpt>
      <trkpt lat="45.84974" lon="6.4414">
        <ele>2206.6</ele>
        <time>2024-04-27T10:37:23Z</time>
      </trkpt>
      <trkpt lat="45.84974" lon="6.4414">
        <ele>2206.6</ele>
        <time>2024-04-27T10:37:24Z</time>
      </trkpt>
      <trkpt lat="45.84974" lon="6.4414">
        <ele>2206.6</ele>
        <time>2024-04-27T10:37:25Z</time>
      </trkpt>
      <trkpt lat="45.84974" lon="6.4414">
        <ele>2206.6</ele>
        <time>2024-04-27T10:37:26Z</time>
      </trkpt>
      <trkpt lat="45.84974" lon="6.4414">
        <ele>2206.6</ele>
        <time>2024-04-27T10:37:27Z</time>
      </trkpt>
      <trkpt lat="45.84974" lon="6.4414">
        <ele>2206.6</ele>
        <time>2024-04-27T10:37:28Z</time>
      </trkpt>
      <trkpt lat="45.84973" lon="6.4414">
        <ele>2206.6</ele>
        <time>2024-04-27T10:37:29Z</time>
      </trkpt>
      <trkpt lat="45.84973" lon="6.4414">
        <ele>2206.6</ele>
        <time>2024-04-27T10:37:30Z</time>
      </trkpt>
      <trkpt lat="45.84973" lon="6.4414">
        <ele>2206.6</ele>
        <time>2024-04-27T10:37:31Z</time>
      </trkpt>
      <trkpt lat="45.84973" lon="6.4414">
        <ele>2206.6</ele>
        <time>2024-04-27T10:37:32Z</time>
      </trkpt>
      <trkpt lat="45.84973" lon="6.4414">
        <ele>2206.6</ele>
        <time>2024-04-27T10:37:33Z</time>
      </trkpt>
      <trkpt lat="45.84973" lon="6.4414">
        <ele>2206.6</ele>
        <time>2024-04-27T10:37:34Z</time>
      </trkpt>
      <trkpt lat="45.84973" lon="6.4414">
        <ele>2206.6</ele>
        <time>2024-04-27T10:37:35Z</time>
      </trkpt>
      <trkpt lat="45.84973" lon="6.44139">
        <ele>2206.6</ele>
        <time>2024-04-27T10:37:36Z</time>
      </trkpt>
      <trkpt lat="45.84972" lon="6.44139">
        <ele>2206.6</ele>
        <time>2024-04-27T10:37:37Z</time>
      </trkpt>
      <trkpt lat="45.84972" lon="6.44139">
        <ele>2206.6</ele>
        <time>2024-04-27T10:37:38Z</time>
      </trkpt>
      <trkpt lat="45.84971" lon="6.44139">
        <ele>2206.6</ele>
        <time>2024-04-27T10:37:39Z</time>
      </trkpt>
      <trkpt lat="45.84971" lon="6.44139">
        <ele>2205.7</ele>
        <time>2024-04-27T10:37:40Z</time>
      </trkpt>
      <trkpt lat="45.84971" lon="6.44139">
        <ele>2205.7</ele>
        <time>2024-04-27T10:37:41Z</time>
      </trkpt>
      <trkpt lat="45.84971" lon="6.44139">
        <ele>2205.7</ele>
        <time>2024-04-27T10:37:42Z</time>
      </trkpt>
      <trkpt lat="45.84971" lon="6.44139">
        <ele>2205.7</ele>
        <time>2024-04-27T10:37:43Z</time>
      </trkpt>
      <trkpt lat="45.8497" lon="6.44139">
        <ele>2205.7</ele>
        <time>2024-04-27T10:37:44Z</time>
      </trkpt>
      <trkpt lat="45.8497" lon="6.44139">
        <ele>2205.7</ele>
        <time>2024-04-27T10:37:45Z</time>
      </trkpt>
      <trkpt lat="45.8497" lon="6.44139">
        <ele>2205.7</ele>
        <time>2024-04-27T10:37:46Z</time>
      </trkpt>
      <trkpt lat="45.8497" lon="6.44139">
        <ele>2205.7</ele>
        <time>2024-04-27T10:37:47Z</time>
      </trkpt>
      <trkpt lat="45.8497" lon="6.44139">
        <ele>2205.7</ele>
        <time>2024-04-27T10:37:48Z</time>
      </trkpt>
      <trkpt lat="45.8497" lon="6.44139">
        <ele>2205.7</ele>
        <time>2024-04-27T10:37:49Z</time>
      </trkpt>
      <trkpt lat="45.84969" lon="6.44139">
        <ele>2203.6</ele>
        <time>2024-04-27T10:37:50Z</time>
      </trkpt>
      <trkpt lat="45.84969" lon="6.44139">
        <ele>2203.6</ele>
        <time>2024-04-27T10:37:51Z</time>
      </trkpt>
      <trkpt lat="45.84969" lon="6.4414">
        <ele>2202.7</ele>
        <time>2024-04-27T10:37:52Z</time>
      </trkpt>
      <trkpt lat="45.84969" lon="6.4414">
        <ele>2202.7</ele>
        <time>2024-04-27T10:37:53Z</time>
      </trkpt>
      <trkpt lat="45.84969" lon="6.4414">
        <ele>2202.7</ele>
        <time>2024-04-27T10:37:54Z</time>
      </trkpt>
      <trkpt lat="45.84968" lon="6.4414">
        <ele>2202.7</ele>
        <time>2024-04-27T10:37:55Z</time>
      </trkpt>
      <trkpt lat="45.84968" lon="6.4414">
        <ele>2202.7</ele>
        <time>2024-04-27T10:37:56Z</time>
      </trkpt>
      <trkpt lat="45.84968" lon="6.4414">
        <ele>2202.7</ele>
        <time>2024-04-27T10:37:57Z</time>
      </trkpt>
      <trkpt lat="45.84968" lon="6.4414">
        <ele>2202.7</ele>
        <time>2024-04-27T10:37:58Z</time>
      </trkpt>
      <trkpt lat="45.84968" lon="6.4414">
        <ele>2202.7</ele>
        <time>2024-04-27T10:37:59Z</time>
      </trkpt>
      <trkpt lat="45.84968" lon="6.4414">
        <ele>2202.7</ele>
        <time>2024-04-27T10:38:00Z</time>
      </trkpt>
      <trkpt lat="45.84967" lon="6.4414">
        <ele>2202.7</ele>
        <time>2024-04-27T10:38:01Z</time>
      </trkpt>
      <trkpt lat="45.84967" lon="6.4414">
        <ele>2201.6</ele>
        <time>2024-04-27T10:38:02Z</time>
      </trkpt>
      <trkpt lat="45.84967" lon="6.4414">
        <ele>2201.6</ele>
        <time>2024-04-27T10:38:03Z</time>
      </trkpt>
      <trkpt lat="45.84967" lon="6.4414">
        <ele>2201.6</ele>
        <time>2024-04-27T10:38:04Z</time>
      </trkpt>
      <trkpt lat="45.84966" lon="6.4414">
        <ele>2201.6</ele>
        <time>2024-04-27T10:38:05Z</time>
      </trkpt>
      <trkpt lat="45.84966" lon="6.4414">
        <ele>2200.7</ele>
        <time>2024-04-27T10:38:06Z</time>
      </trkpt>
      <trkpt lat="45.84966" lon="6.44139">
        <ele>2200.7</ele>
        <time>2024-04-27T10:38:07Z</time>
      </trkpt>
      <trkpt lat="45.84966" lon="6.44139">
        <ele>2200.7</ele>
        <time>2024-04-27T10:38:08Z</time>
      </trkpt>
      <trkpt lat="45.84966" lon="6.44139">
        <ele>2200.7</ele>
        <time>2024-04-27T10:38:09Z</time>
      </trkpt>
      <trkpt lat="45.84966" lon="6.44138">
        <ele>2199.6</ele>
        <time>2024-04-27T10:38:10Z</time>
      </trkpt>
      <trkpt lat="45.84966" lon="6.44138">
        <ele>2199.6</ele>
        <time>2024-04-27T10:38:11Z</time>
      </trkpt>
      <trkpt lat="45.84966" lon="6.44138">
        <ele>2198.7</ele>
        <time>2024-04-27T10:38:12Z</time>
      </trkpt>
      <trkpt lat="45.84966" lon="6.44137">
        <ele>2198.7</ele>
        <time>2024-04-27T10:38:13Z</time>
      </trkpt>
      <trkpt lat="45.84966" lon="6.44137">
        <ele>2198.7</ele>
        <time>2024-04-27T10:38:14Z</time>
      </trkpt>
      <trkpt lat="45.84966" lon="6.44137">
        <ele>2198.7</ele>
        <time>2024-04-27T10:38:15Z</time>
      </trkpt>
      <trkpt lat="45.84966" lon="6.44136">
        <ele>2198.7</ele>
        <time>2024-04-27T10:38:16Z</time>
      </trkpt>
      <trkpt lat="45.84966" lon="6.44136">
        <ele>2198.7</ele>
        <time>2024-04-27T10:38:17Z</time>
      </trkpt>
      <trkpt lat="45.84966" lon="6.44136">
        <ele>2199.6</ele>
        <time>2024-04-27T10:38:18Z</time>
      </trkpt>
      <trkpt lat="45.84966" lon="6.44136">
        <ele>2199.6</ele>
        <time>2024-04-27T10:38:19Z</time>
      </trkpt>
      <trkpt lat="45.84966" lon="6.44136">
        <ele>2199.6</ele>
        <time>2024-04-27T10:38:20Z</time>
      </trkpt>
      <trkpt lat="45.84966" lon="6.44135">
        <ele>2199.6</ele>
        <time>2024-04-27T10:38:21Z</time>
      </trkpt>
      <trkpt lat="45.84966" lon="6.44135">
        <ele>2199.6</ele>
        <time>2024-04-27T10:38:22Z</time>
      </trkpt>
      <trkpt lat="45.84966" lon="6.44134">
        <ele>2199.6</ele>
        <time>2024-04-27T10:38:23Z</time>
      </trkpt>
      <trkpt lat="45.84966" lon="6.44134">
        <ele>2200.7</ele>
        <time>2024-04-27T10:38:24Z</time>
      </trkpt>
      <trkpt lat="45.84966" lon="6.44134">
        <ele>2200.7</ele>
        <time>2024-04-27T10:38:25Z</time>
      </trkpt>
      <trkpt lat="45.84966" lon="6.44134">
        <ele>2200.7</ele>
        <time>2024-04-27T10:38:26Z</time>
      </trkpt>
      <trkpt lat="45.84966" lon="6.44134">
        <ele>2200.7</ele>
        <time>2024-04-27T10:38:27Z</time>
      </trkpt>
      <trkpt lat="45.84966" lon="6.44134">
        <ele>2200.7</ele>
        <time>2024-04-27T10:38:28Z</time>
      </trkpt>
      <trkpt lat="45.84966" lon="6.44134">
        <ele>2200.7</ele>
        <time>2024-04-27T10:38:29Z</time>
      </trkpt>
      <trkpt lat="45.84966" lon="6.44134">
        <ele>2200.7</ele>
        <time>2024-04-27T10:38:30Z</time>
      </trkpt>
      <trkpt lat="45.84966" lon="6.44134">
        <ele>2200.7</ele>
        <time>2024-04-27T10:38:31Z</time>
      </trkpt>
      <trkpt lat="45.84966" lon="6.44134">
        <ele>2201.6</ele>
        <time>2024-04-27T10:38:32Z</time>
      </trkpt>
      <trkpt lat="45.84966" lon="6.44134">
        <ele>2201.6</ele>
        <time>2024-04-27T10:38:33Z</time>
      </trkpt>
      <trkpt lat="45.84966" lon="6.44134">
        <ele>2201.6</ele>
        <time>2024-04-27T10:38:34Z</time>
      </trkpt>
      <trkpt lat="45.84966" lon="6.44134">
        <ele>2201.6</ele>
        <time>2024-04-27T10:38:35Z</time>
      </trkpt>
      <trkpt lat="45.84966" lon="6.44134">
        <ele>2201.6</ele>
        <time>2024-04-27T10:38:36Z</time>
      </trkpt>
      <trkpt lat="45.84966" lon="6.44134">
        <ele>2201.6</ele>
        <time>2024-04-27T10:38:37Z</time>
      </trkpt>
      <trkpt lat="45.84966" lon="6.44134">
        <ele>2201.6</ele>
        <time>2024-04-27T10:38:38Z</time>
      </trkpt>
      <trkpt lat="45.84966" lon="6.44134">
        <ele>2201.6</ele>
        <time>2024-04-27T10:38:39Z</time>
      </trkpt>
      <trkpt lat="45.84966" lon="6.44134">
        <ele>2201.6</ele>
        <time>2024-04-27T10:38:40Z</time>
      </trkpt>
      <trkpt lat="45.84967" lon="6.44134">
        <ele>2201.6</ele>
        <time>2024-04-27T10:38:41Z</time>
      </trkpt>
      <trkpt lat="45.84967" lon="6.44134">
        <ele>2202.7</ele>
        <time>2024-04-27T10:38:42Z</time>
      </trkpt>
      <trkpt lat="45.84967" lon="6.44133">
        <ele>2202.7</ele>
        <time>2024-04-27T10:38:43Z</time>
      </trkpt>
      <trkpt lat="45.84967" lon="6.44133">
        <ele>2202.7</ele>
        <time>2024-04-27T10:38:44Z</time>
      </trkpt>
      <trkpt lat="45.84967" lon="6.44133">
        <ele>2202.7</ele>
        <time>2024-04-27T10:38:45Z</time>
      </trkpt>
      <trkpt lat="45.84967" lon="6.44133">
        <ele>2202.7</ele>
        <time>2024-04-27T10:38:46Z</time>
      </trkpt>
      <trkpt lat="45.84967" lon="6.44133">
        <ele>2202.7</ele>
        <time>2024-04-27T10:38:47Z</time>
      </trkpt>
      <trkpt lat="45.84967" lon="6.44133">
        <ele>2202.7</ele>
        <time>2024-04-27T10:38:48Z</time>
      </trkpt>
      <trkpt lat="45.84967" lon="6.44133">
        <ele>2202.7</ele>
        <time>2024-04-27T10:38:49Z</time>
      </trkpt>
      <trkpt lat="45.84967" lon="6.44133">
        <ele>2202.7</ele>
        <time>2024-04-27T10:38:50Z</time>
      </trkpt>
      <trkpt lat="45.84967" lon="6.44133">
        <ele>2202.7</ele>
        <time>2024-04-27T10:38:51Z</time>
      </trkpt>
      <trkpt lat="45.84967" lon="6.44132">
        <ele>2202.7</ele>
        <time>2024-04-27T10:38:52Z</time>
      </trkpt>
      <trkpt lat="45.84968" lon="6.44131">
        <ele>2202.7</ele>
        <time>2024-04-27T10:38:53Z</time>
      </trkpt>
      <trkpt lat="45.84968" lon="6.44131">
        <ele>2202.7</ele>
        <time>2024-04-27T10:38:54Z</time>
      </trkpt>
      <trkpt lat="45.84968" lon="6.44131">
        <ele>2202.7</ele>
        <time>2024-04-27T10:38:55Z</time>
      </trkpt>
      <trkpt lat="45.84968" lon="6.44131">
        <ele>2202.7</ele>
        <time>2024-04-27T10:38:56Z</time>
      </trkpt>
      <trkpt lat="45.84968" lon="6.44131">
        <ele>2202.7</ele>
        <time>2024-04-27T10:38:57Z</time>
      </trkpt>
      <trkpt lat="45.84968" lon="6.44131">
        <ele>2202.7</ele>
        <time>2024-04-27T10:38:58Z</time>
      </trkpt>
      <trkpt lat="45.84968" lon="6.44131">
        <ele>2202.7</ele>
        <time>2024-04-27T10:38:59Z</time>
      </trkpt>
      <trkpt lat="45.84968" lon="6.44131">
        <ele>2202.7</ele>
        <time>2024-04-27T10:39:00Z</time>
      </trkpt>
      <trkpt lat="45.84968" lon="6.44131">
        <ele>2202.7</ele>
        <time>2024-04-27T10:39:01Z</time>
      </trkpt>
      <trkpt lat="45.84968" lon="6.44131">
        <ele>2202.7</ele>
        <time>2024-04-27T10:39:02Z</time>
      </trkpt>
      <trkpt lat="45.84968" lon="6.44131">
        <ele>2202.7</ele>
        <time>2024-04-27T10:39:03Z</time>
      </trkpt>
      <trkpt lat="45.84968" lon="6.4413">
        <ele>2202.7</ele>
        <time>2024-04-27T10:39:04Z</time>
      </trkpt>
      <trkpt lat="45.84968" lon="6.4413">
        <ele>2202.7</ele>
        <time>2024-04-27T10:39:05Z</time>
      </trkpt>
      <trkpt lat="45.84968" lon="6.44129">
        <ele>2203.6</ele>
        <time>2024-04-27T10:39:06Z</time>
      </trkpt>
      <trkpt lat="45.84968" lon="6.44129">
        <ele>2203.6</ele>
        <time>2024-04-27T10:39:07Z</time>
      </trkpt>
      <trkpt lat="45.84967" lon="6.44129">
        <ele>2204.6</ele>
        <time>2024-04-27T10:39:08Z</time>
      </trkpt>
      <trkpt lat="45.84967" lon="6.44128">
        <ele>2204.6</ele>
        <time>2024-04-27T10:39:09Z</time>
      </trkpt>
      <trkpt lat="45.84967" lon="6.44128">
        <ele>2205.7</ele>
        <time>2024-04-27T10:39:10Z</time>
      </trkpt>
      <trkpt lat="45.84967" lon="6.44128">
        <ele>2205.7</ele>
        <time>2024-04-27T10:39:11Z</time>
      </trkpt>
      <trkpt lat="45.84967" lon="6.44128">
        <ele>2205.7</ele>
        <time>2024-04-27T10:39:12Z</time>
      </trkpt>
      <trkpt lat="45.84967" lon="6.44128">
        <ele>2205.7</ele>
        <time>2024-04-27T10:39:13Z</time>
      </trkpt>
      <trkpt lat="45.84967" lon="6.44128">
        <ele>2205.7</ele>
        <time>2024-04-27T10:39:14Z</time>
      </trkpt>
      <trkpt lat="45.84967" lon="6.44128">
        <ele>2205.7</ele>
        <time>2024-04-27T10:39:15Z</time>
      </trkpt>
      <trkpt lat="45.84967" lon="6.44128">
        <ele>2205.7</ele>
        <time>2024-04-27T10:39:16Z</time>
      </trkpt>
      <trkpt lat="45.84967" lon="6.44128">
        <ele>2205.7</ele>
        <time>2024-04-27T10:39:17Z</time>
      </trkpt>
      <trkpt lat="45.84967" lon="6.44128">
        <ele>2204.6</ele>
        <time>2024-04-27T10:39:18Z</time>
      </trkpt>
      <trkpt lat="45.84967" lon="6.44128">
        <ele>2204.6</ele>
        <time>2024-04-27T10:39:19Z</time>
      </trkpt>
      <trkpt lat="45.84967" lon="6.44128">
        <ele>2204.6</ele>
        <time>2024-04-27T10:39:20Z</time>
      </trkpt>
      <trkpt lat="45.84967" lon="6.44128">
        <ele>2204.6</ele>
        <time>2024-04-27T10:39:21Z</time>
      </trkpt>
      <trkpt lat="45.84967" lon="6.44128">
        <ele>2203.6</ele>
        <time>2024-04-27T10:39:22Z</time>
      </trkpt>
      <trkpt lat="45.84967" lon="6.44128">
        <ele>2203.6</ele>
        <time>2024-04-27T10:39:23Z</time>
      </trkpt>
      <trkpt lat="45.84966" lon="6.44128">
        <ele>2202.7</ele>
        <time>2024-04-27T10:39:24Z</time>
      </trkpt>
      <trkpt lat="45.84966" lon="6.44128">
        <ele>2202.7</ele>
        <time>2024-04-27T10:39:25Z</time>
      </trkpt>
      <trkpt lat="45.84966" lon="6.44128">
        <ele>2202.7</ele>
        <time>2024-04-27T10:39:26Z</time>
      </trkpt>
      <trkpt lat="45.84966" lon="6.44128">
        <ele>2202.7</ele>
        <time>2024-04-27T10:39:27Z</time>
      </trkpt>
      <trkpt lat="45.84966" lon="6.44128">
        <ele>2202.7</ele>
        <time>2024-04-27T10:39:28Z</time>
      </trkpt>
      <trkpt lat="45.84966" lon="6.44128">
        <ele>2202.7</ele>
        <time>2024-04-27T10:39:29Z</time>
      </trkpt>
      <trkpt lat="45.84966" lon="6.44128">
        <ele>2202.7</ele>
        <time>2024-04-27T10:39:30Z</time>
      </trkpt>
      <trkpt lat="45.84966" lon="6.44129">
        <ele>2202.7</ele>
        <time>2024-04-27T10:39:31Z</time>
      </trkpt>
      <trkpt lat="45.84966" lon="6.44131">
        <ele>2202.7</ele>
        <time>2024-04-27T10:39:32Z</time>
      </trkpt>
      <trkpt lat="45.84966" lon="6.44132">
        <ele>2202.7</ele>
        <time>2024-04-27T10:39:33Z</time>
      </trkpt>
      <trkpt lat="45.84965" lon="6.44133">
        <ele>2202.7</ele>
        <time>2024-04-27T10:39:34Z</time>
      </trkpt>
      <trkpt lat="45.84965" lon="6.44134">
        <ele>2202.7</ele>
        <time>2024-04-27T10:39:35Z</time>
      </trkpt>
      <trkpt lat="45.84964" lon="6.44135">
        <ele>2202.7</ele>
        <time>2024-04-27T10:39:36Z</time>
      </trkpt>
      <trkpt lat="45.84964" lon="6.44137">
        <ele>2202.7</ele>
        <time>2024-04-27T10:39:37Z</time>
      </trkpt>
      <trkpt lat="45.84964" lon="6.44138">
        <ele>2202.7</ele>
        <time>2024-04-27T10:39:38Z</time>
      </trkpt>
      <trkpt lat="45.84964" lon="6.44139">
        <ele>2202.7</ele>
        <time>2024-04-27T10:39:39Z</time>
      </trkpt>
      <trkpt lat="45.84964" lon="6.4414">
        <ele>2202.7</ele>
        <time>2024-04-27T10:39:40Z</time>
      </trkpt>
      <trkpt lat="45.84965" lon="6.4414">
        <ele>2202.7</ele>
        <time>2024-04-27T10:39:41Z</time>
      </trkpt>
      <trkpt lat="45.84966" lon="6.4414">
        <ele>2202.7</ele>
        <time>2024-04-27T10:39:42Z</time>
      </trkpt>
      <trkpt lat="45.84966" lon="6.4414">
        <ele>2202.7</ele>
        <time>2024-04-27T10:39:43Z</time>
      </trkpt>
      <trkpt lat="45.84966" lon="6.44141">
        <ele>2203.6</ele>
        <time>2024-04-27T10:39:44Z</time>
      </trkpt>
      <trkpt lat="45.84966" lon="6.44141">
        <ele>2203.6</ele>
        <time>2024-04-27T10:39:45Z</time>
      </trkpt>
      <trkpt lat="45.84967" lon="6.44141">
        <ele>2203.6</ele>
        <time>2024-04-27T10:39:46Z</time>
      </trkpt>
      <trkpt lat="45.84967" lon="6.44142">
        <ele>2203.6</ele>
        <time>2024-04-27T10:39:47Z</time>
      </trkpt>
      <trkpt lat="45.84967" lon="6.44142">
        <ele>2203.6</ele>
        <time>2024-04-27T10:39:48Z</time>
      </trkpt>
      <trkpt lat="45.84966" lon="6.44143">
        <ele>2203.6</ele>
        <time>2024-04-27T10:39:49Z</time>
      </trkpt>
      <trkpt lat="45.84966" lon="6.44144">
        <ele>2203.6</ele>
        <time>2024-04-27T10:39:50Z</time>
      </trkpt>
      <trkpt lat="45.84968" lon="6.44144">
        <ele>2203.6</ele>
        <time>2024-04-27T10:39:51Z</time>
      </trkpt>
      <trkpt lat="45.84968" lon="6.44145">
        <ele>2203.6</ele>
        <time>2024-04-27T10:39:52Z</time>
      </trkpt>
      <trkpt lat="45.84969" lon="6.44145">
        <ele>2203.6</ele>
        <time>2024-04-27T10:39:53Z</time>
      </trkpt>
      <trkpt lat="45.84969" lon="6.44146">
        <ele>2203.6</ele>
        <time>2024-04-27T10:39:54Z</time>
      </trkpt>
      <trkpt lat="45.84969" lon="6.44147">
        <ele>2203.6</ele>
        <time>2024-04-27T10:39:55Z</time>
      </trkpt>
      <trkpt lat="45.8497" lon="6.44147">
        <ele>2203.6</ele>
        <time>2024-04-27T10:39:56Z</time>
      </trkpt>
      <trkpt lat="45.84971" lon="6.44148">
        <ele>2203.6</ele>
        <time>2024-04-27T10:39:57Z</time>
      </trkpt>
      <trkpt lat="45.84971" lon="6.44148">
        <ele>2204.6</ele>
        <time>2024-04-27T10:39:58Z</time>
      </trkpt>
      <trkpt lat="45.84972" lon="6.44148">
        <ele>2204.6</ele>
        <time>2024-04-27T10:39:59Z</time>
      </trkpt>
      <trkpt lat="45.84973" lon="6.44148">
        <ele>2204.6</ele>
        <time>2024-04-27T10:40:00Z</time>
      </trkpt>
      <trkpt lat="45.84974" lon="6.44148">
        <ele>2204.6</ele>
        <time>2024-04-27T10:40:01Z</time>
      </trkpt>
      <trkpt lat="45.84974" lon="6.44148">
        <ele>2204.6</ele>
        <time>2024-04-27T10:40:02Z</time>
      </trkpt>
      <trkpt lat="45.84976" lon="6.44146">
        <ele>2204.6</ele>
        <time>2024-04-27T10:40:03Z</time>
      </trkpt>
      <trkpt lat="45.84976" lon="6.44146">
        <ele>2204.6</ele>
        <time>2024-04-27T10:40:04Z</time>
      </trkpt>
      <trkpt lat="45.84976" lon="6.44146">
        <ele>2204.6</ele>
        <time>2024-04-27T10:40:05Z</time>
      </trkpt>
      <trkpt lat="45.84975" lon="6.44146">
        <ele>2204.6</ele>
        <time>2024-04-27T10:40:06Z</time>
      </trkpt>
      <trkpt lat="45.84975" lon="6.44147">
        <ele>2204.6</ele>
        <time>2024-04-27T10:40:07Z</time>
      </trkpt>
      <trkpt lat="45.84975" lon="6.44147">
        <ele>2204.6</ele>
        <time>2024-04-27T10:40:08Z</time>
      </trkpt>
      <trkpt lat="45.84975" lon="6.44147">
        <ele>2204.6</ele>
        <time>2024-04-27T10:40:09Z</time>
      </trkpt>
      <trkpt lat="45.84975" lon="6.44147">
        <ele>2204.6</ele>
        <time>2024-04-27T10:40:10Z</time>
      </trkpt>
      <trkpt lat="45.84974" lon="6.44148">
        <ele>2204.6</ele>
        <time>2024-04-27T10:40:11Z</time>
      </trkpt>
      <trkpt lat="45.84974" lon="6.44148">
        <ele>2204.6</ele>
        <time>2024-04-27T10:40:12Z</time>
      </trkpt>
      <trkpt lat="45.84973" lon="6.44149">
        <ele>2204.6</ele>
        <time>2024-04-27T10:40:13Z</time>
      </trkpt>
      <trkpt lat="45.84973" lon="6.44149">
        <ele>2204.6</ele>
        <time>2024-04-27T10:40:14Z</time>
      </trkpt>
      <trkpt lat="45.84973" lon="6.44149">
        <ele>2204.6</ele>
        <time>2024-04-27T10:40:15Z</time>
      </trkpt>
      <trkpt lat="45.84974" lon="6.44148">
        <ele>2204.6</ele>
        <time>2024-04-27T10:40:16Z</time>
      </trkpt>
      <trkpt lat="45.84975" lon="6.44148">
        <ele>2204.6</ele>
        <time>2024-04-27T10:40:17Z</time>
      </trkpt>
      <trkpt lat="45.84975" lon="6.44148">
        <ele>2204.6</ele>
        <time>2024-04-27T10:40:18Z</time>
      </trkpt>
      <trkpt lat="45.84975" lon="6.44148">
        <ele>2204.6</ele>
        <time>2024-04-27T10:40:19Z</time>
      </trkpt>
      <trkpt lat="45.84975" lon="6.44148">
        <ele>2204.6</ele>
        <time>2024-04-27T10:40:20Z</time>
      </trkpt>
      <trkpt lat="45.84975" lon="6.44148">
        <ele>2204.6</ele>
        <time>2024-04-27T10:40:21Z</time>
      </trkpt>
      <trkpt lat="45.84975" lon="6.44148">
        <ele>2205.7</ele>
        <time>2024-04-27T10:40:22Z</time>
      </trkpt>
      <trkpt lat="45.84975" lon="6.44148">
        <ele>2205.7</ele>
        <time>2024-04-27T10:40:23Z</time>
      </trkpt>
      <trkpt lat="45.84975" lon="6.44148">
        <ele>2205.7</ele>
        <time>2024-04-27T10:40:24Z</time>
      </trkpt>
      <trkpt lat="45.84975" lon="6.44147">
        <ele>2205.7</ele>
        <time>2024-04-27T10:40:25Z</time>
      </trkpt>
      <trkpt lat="45.84975" lon="6.44147">
        <ele>2205.7</ele>
        <time>2024-04-27T10:40:26Z</time>
      </trkpt>
      <trkpt lat="45.84975" lon="6.44147">
        <ele>2205.7</ele>
        <time>2024-04-27T10:40:27Z</time>
      </trkpt>
      <trkpt lat="45.84975" lon="6.44147">
        <ele>2206.6</ele>
        <time>2024-04-27T10:40:28Z</time>
      </trkpt>
      <trkpt lat="45.84975" lon="6.44147">
        <ele>2206.6</ele>
        <time>2024-04-27T10:40:29Z</time>
      </trkpt>
      <trkpt lat="45.84975" lon="6.44147">
        <ele>2206.6</ele>
        <time>2024-04-27T10:40:30Z</time>
      </trkpt>
      <trkpt lat="45.84975" lon="6.44147">
        <ele>2206.6</ele>
        <time>2024-04-27T10:40:31Z</time>
      </trkpt>
      <trkpt lat="45.84975" lon="6.44147">
        <ele>2206.6</ele>
        <time>2024-04-27T10:40:32Z</time>
      </trkpt>
      <trkpt lat="45.84975" lon="6.44147">
        <ele>2206.6</ele>
        <time>2024-04-27T10:40:33Z</time>
      </trkpt>
      <trkpt lat="45.84975" lon="6.44147">
        <ele>2205.7</ele>
        <time>2024-04-27T10:40:34Z</time>
      </trkpt>
      <trkpt lat="45.84975" lon="6.44147">
        <ele>2205.7</ele>
        <time>2024-04-27T10:40:35Z</time>
      </trkpt>
      <trkpt lat="45.84975" lon="6.44147">
        <ele>2205.7</ele>
        <time>2024-04-27T10:40:36Z</time>
      </trkpt>
      <trkpt lat="45.84975" lon="6.44148">
        <ele>2205.7</ele>
        <time>2024-04-27T10:40:37Z</time>
      </trkpt>
      <trkpt lat="45.84975" lon="6.44148">
        <ele>2205.7</ele>
        <time>2024-04-27T10:40:38Z</time>
      </trkpt>
      <trkpt lat="45.84975" lon="6.44148">
        <ele>2205.7</ele>
        <time>2024-04-27T10:40:39Z</time>
      </trkpt>
      <trkpt lat="45.84975" lon="6.44148">
        <ele>2205.7</ele>
        <time>2024-04-27T10:40:40Z</time>
      </trkpt>
      <trkpt lat="45.84975" lon="6.44148">
        <ele>2205.7</ele>
        <time>2024-04-27T10:40:41Z</time>
      </trkpt>
      <trkpt lat="45.84975" lon="6.44148">
        <ele>2204.6</ele>
        <time>2024-04-27T10:40:42Z</time>
      </trkpt>
      <trkpt lat="45.84974" lon="6.44148">
        <ele>2204.6</ele>
        <time>2024-04-27T10:40:43Z</time>
      </trkpt>
      <trkpt lat="45.84974" lon="6.44148">
        <ele>2204.6</ele>
        <time>2024-04-27T10:40:44Z</time>
      </trkpt>
      <trkpt lat="45.84974" lon="6.44148">
        <ele>2204.6</ele>
        <time>2024-04-27T10:40:45Z</time>
      </trkpt>
      <trkpt lat="45.84973" lon="6.44148">
        <ele>2203.6</ele>
        <time>2024-04-27T10:40:46Z</time>
      </trkpt>
      <trkpt lat="45.84973" lon="6.44148">
        <ele>2203.6</ele>
        <time>2024-04-27T10:40:47Z</time>
      </trkpt>
      <trkpt lat="45.84973" lon="6.44148">
        <ele>2203.6</ele>
        <time>2024-04-27T10:40:48Z</time>
      </trkpt>
      <trkpt lat="45.84973" lon="6.44148">
        <ele>2203.6</ele>
        <time>2024-04-27T10:40:49Z</time>
      </trkpt>
      <trkpt lat="45.84973" lon="6.44148">
        <ele>2202.7</ele>
        <time>2024-04-27T10:40:50Z</time>
      </trkpt>
      <trkpt lat="45.84973" lon="6.44147">
        <ele>2202.7</ele>
        <time>2024-04-27T10:40:51Z</time>
      </trkpt>
      <trkpt lat="45.84973" lon="6.44147">
        <ele>2202.7</ele>
        <time>2024-04-27T10:40:52Z</time>
      </trkpt>
      <trkpt lat="45.84973" lon="6.44147">
        <ele>2202.7</ele>
        <time>2024-04-27T10:40:53Z</time>
      </trkpt>
      <trkpt lat="45.84973" lon="6.44147">
        <ele>2201.6</ele>
        <time>2024-04-27T10:40:54Z</time>
      </trkpt>
      <trkpt lat="45.84973" lon="6.44147">
        <ele>2201.6</ele>
        <time>2024-04-27T10:40:55Z</time>
      </trkpt>
      <trkpt lat="45.84972" lon="6.44147">
        <ele>2201.6</ele>
        <time>2024-04-27T10:40:56Z</time>
      </trkpt>
      <trkpt lat="45.84972" lon="6.44147">
        <ele>2201.6</ele>
        <time>2024-04-27T10:40:57Z</time>
      </trkpt>
      <trkpt lat="45.84972" lon="6.44147">
        <ele>2201.6</ele>
        <time>2024-04-27T10:40:58Z</time>
      </trkpt>
      <trkpt lat="45.84972" lon="6.44147">
        <ele>2201.6</ele>
        <time>2024-04-27T10:40:59Z</time>
      </trkpt>
      <trkpt lat="45.84972" lon="6.44147">
        <ele>2201.6</ele>
        <time>2024-04-27T10:41:00Z</time>
      </trkpt>
      <trkpt lat="45.84972" lon="6.44147">
        <ele>2201.6</ele>
        <time>2024-04-27T10:41:01Z</time>
      </trkpt>
      <trkpt lat="45.84972" lon="6.44147">
        <ele>2200.7</ele>
        <time>2024-04-27T10:41:02Z</time>
      </trkpt>
      <trkpt lat="45.84972" lon="6.44147">
        <ele>2200.7</ele>
        <time>2024-04-27T10:41:03Z</time>
      </trkpt>
      <trkpt lat="45.84972" lon="6.44147">
        <ele>2200.7</ele>
        <time>2024-04-27T10:41:04Z</time>
      </trkpt>
      <trkpt lat="45.84971" lon="6.44147">
        <ele>2200.7</ele>
        <time>2024-04-27T10:41:05Z</time>
      </trkpt>
      <trkpt lat="45.84971" lon="6.44147">
        <ele>2199.6</ele>
        <time>2024-04-27T10:41:06Z</time>
      </trkpt>
      <trkpt lat="45.84971" lon="6.44147">
        <ele>2199.6</ele>
        <time>2024-04-27T10:41:07Z</time>
      </trkpt>
      <trkpt lat="45.84971" lon="6.44147">
        <ele>2199.6</ele>
        <time>2024-04-27T10:41:08Z</time>
      </trkpt>
      <trkpt lat="45.84971" lon="6.44147">
        <ele>2199.6</ele>
        <time>2024-04-27T10:41:09Z</time>
      </trkpt>
      <trkpt lat="45.8497" lon="6.44146">
        <ele>2198.7</ele>
        <time>2024-04-27T10:41:10Z</time>
      </trkpt>
      <trkpt lat="45.8497" lon="6.44146">
        <ele>2198.7</ele>
        <time>2024-04-27T10:41:11Z</time>
      </trkpt>
      <trkpt lat="45.8497" lon="6.44145">
        <ele>2198.7</ele>
        <time>2024-04-27T10:41:12Z</time>
      </trkpt>
      <trkpt lat="45.8497" lon="6.44145">
        <ele>2198.7</ele>
        <time>2024-04-27T10:41:13Z</time>
      </trkpt>
      <trkpt lat="45.8497" lon="6.44145">
        <ele>2197.6</ele>
        <time>2024-04-27T10:41:14Z</time>
      </trkpt>
      <trkpt lat="45.8497" lon="6.44145">
        <ele>2197.6</ele>
        <time>2024-04-27T10:41:15Z</time>
      </trkpt>
      <trkpt lat="45.8497" lon="6.44145">
        <ele>2197.6</ele>
        <time>2024-04-27T10:41:16Z</time>
      </trkpt>
      <trkpt lat="45.84969" lon="6.44144">
        <ele>2197.6</ele>
        <time>2024-04-27T10:41:17Z</time>
      </trkpt>
      <trkpt lat="45.84969" lon="6.44144">
        <ele>2197.6</ele>
        <time>2024-04-27T10:41:18Z</time>
      </trkpt>
      <trkpt lat="45.84969" lon="6.44144">
        <ele>2197.6</ele>
        <time>2024-04-27T10:41:19Z</time>
      </trkpt>
      <trkpt lat="45.84968" lon="6.44144">
        <ele>2197.6</ele>
        <time>2024-04-27T10:41:20Z</time>
      </trkpt>
      <trkpt lat="45.84968" lon="6.44144">
        <ele>2197.6</ele>
        <time>2024-04-27T10:41:21Z</time>
      </trkpt>
      <trkpt lat="45.84968" lon="6.44144">
        <ele>2197.6</ele>
        <time>2024-04-27T10:41:22Z</time>
      </trkpt>
      <trkpt lat="45.84968" lon="6.44144">
        <ele>2197.6</ele>
        <time>2024-04-27T10:41:23Z</time>
      </trkpt>
      <trkpt lat="45.84968" lon="6.44144">
        <ele>2199.6</ele>
        <time>2024-04-27T10:41:24Z</time>
      </trkpt>
      <trkpt lat="45.84968" lon="6.44144">
        <ele>2199.6</ele>
        <time>2024-04-27T10:41:25Z</time>
      </trkpt>
      <trkpt lat="45.84967" lon="6.44144">
        <ele>2200.7</ele>
        <time>2024-04-27T10:41:26Z</time>
      </trkpt>
      <trkpt lat="45.84967" lon="6.44143">
        <ele>2200.7</ele>
        <time>2024-04-27T10:41:27Z</time>
      </trkpt>
      <trkpt lat="45.84966" lon="6.44143">
        <ele>2200.7</ele>
        <time>2024-04-27T10:41:28Z</time>
      </trkpt>
      <trkpt lat="45.84965" lon="6.44143">
        <ele>2200.7</ele>
        <time>2024-04-27T10:41:29Z</time>
      </trkpt>
      <trkpt lat="45.84965" lon="6.44143">
        <ele>2199.6</ele>
        <time>2024-04-27T10:41:30Z</time>
      </trkpt>
      <trkpt lat="45.84965" lon="6.44143">
        <ele>2199.6</ele>
        <time>2024-04-27T10:41:31Z</time>
      </trkpt>
      <trkpt lat="45.84965" lon="6.44142">
        <ele>2198.7</ele>
        <time>2024-04-27T10:41:32Z</time>
      </trkpt>
      <trkpt lat="45.84965" lon="6.44142">
        <ele>2198.7</ele>
        <time>2024-04-27T10:41:33Z</time>
      </trkpt>
      <trkpt lat="45.84965" lon="6.44142">
        <ele>2198.7</ele>
        <time>2024-04-27T10:41:34Z</time>
      </trkpt>
      <trkpt lat="45.84965" lon="6.44142">
        <ele>2198.7</ele>
        <time>2024-04-27T10:41:35Z</time>
      </trkpt>
      <trkpt lat="45.84965" lon="6.44142">
        <ele>2198.7</ele>
        <time>2024-04-27T10:41:36Z</time>
      </trkpt>
      <trkpt lat="45.84965" lon="6.44142">
        <ele>2198.7</ele>
        <time>2024-04-27T10:41:37Z</time>
      </trkpt>
      <trkpt lat="45.84965" lon="6.44142">
        <ele>2198.7</ele>
        <time>2024-04-27T10:41:38Z</time>
      </trkpt>
      <trkpt lat="45.84965" lon="6.44142">
        <ele>2198.7</ele>
        <time>2024-04-27T10:41:39Z</time>
      </trkpt>
      <trkpt lat="45.84965" lon="6.44142">
        <ele>2198.7</ele>
        <time>2024-04-27T10:41:40Z</time>
      </trkpt>
      <trkpt lat="45.84965" lon="6.44141">
        <ele>2198.7</ele>
        <time>2024-04-27T10:41:41Z</time>
      </trkpt>
      <trkpt lat="45.84965" lon="6.44141">
        <ele>2198.7</ele>
        <time>2024-04-27T10:41:42Z</time>
      </trkpt>
      <trkpt lat="45.84965" lon="6.44141">
        <ele>2198.7</ele>
        <time>2024-04-27T10:41:43Z</time>
      </trkpt>
      <trkpt lat="45.84965" lon="6.44141">
        <ele>2198.7</ele>
        <time>2024-04-27T10:41:44Z</time>
      </trkpt>
      <trkpt lat="45.84965" lon="6.44141">
        <ele>2198.7</ele>
        <time>2024-04-27T10:41:45Z</time>
      </trkpt>
      <trkpt lat="45.84965" lon="6.44141">
        <ele>2198.7</ele>
        <time>2024-04-27T10:41:46Z</time>
      </trkpt>
      <trkpt lat="45.84964" lon="6.44141">
        <ele>2198.7</ele>
        <time>2024-04-27T10:41:47Z</time>
      </trkpt>
      <trkpt lat="45.84964" lon="6.44141">
        <ele>2198.7</ele>
        <time>2024-04-27T10:41:48Z</time>
      </trkpt>
      <trkpt lat="45.84964" lon="6.4414">
        <ele>2198.7</ele>
        <time>2024-04-27T10:41:49Z</time>
      </trkpt>
      <trkpt lat="45.84963" lon="6.4414">
        <ele>2197.6</ele>
        <time>2024-04-27T10:41:50Z</time>
      </trkpt>
      <trkpt lat="45.84963" lon="6.4414">
        <ele>2197.6</ele>
        <time>2024-04-27T10:41:51Z</time>
      </trkpt>
      <trkpt lat="45.84963" lon="6.4414">
        <ele>2196.7</ele>
        <time>2024-04-27T10:41:52Z</time>
      </trkpt>
      <trkpt lat="45.84963" lon="6.4414">
        <ele>2196.7</ele>
        <time>2024-04-27T10:41:53Z</time>
      </trkpt>
      <trkpt lat="45.84963" lon="6.4414">
        <ele>2196.7</ele>
        <time>2024-04-27T10:41:54Z</time>
      </trkpt>
      <trkpt lat="45.84963" lon="6.4414">
        <ele>2196.7</ele>
        <time>2024-04-27T10:41:55Z</time>
      </trkpt>
      <trkpt lat="45.84963" lon="6.4414">
        <ele>2195.7</ele>
        <time>2024-04-27T10:41:56Z</time>
      </trkpt>
      <trkpt lat="45.84963" lon="6.44139">
        <ele>2195.7</ele>
        <time>2024-04-27T10:41:57Z</time>
      </trkpt>
      <trkpt lat="45.84963" lon="6.44139">
        <ele>2195.7</ele>
        <time>2024-04-27T10:41:58Z</time>
      </trkpt>
      <trkpt lat="45.84963" lon="6.44138">
        <ele>2195.7</ele>
        <time>2024-04-27T10:41:59Z</time>
      </trkpt>
      <trkpt lat="45.84963" lon="6.44138">
        <ele>2194.6</ele>
        <time>2024-04-27T10:42:00Z</time>
      </trkpt>
      <trkpt lat="45.84963" lon="6.44138">
        <ele>2194.6</ele>
        <time>2024-04-27T10:42:01Z</time>
      </trkpt>
      <trkpt lat="45.84963" lon="6.44137">
        <ele>2194.6</ele>
        <time>2024-04-27T10:42:02Z</time>
      </trkpt>
      <trkpt lat="45.84963" lon="6.44137">
        <ele>2194.6</ele>
        <time>2024-04-27T10:42:03Z</time>
      </trkpt>
      <trkpt lat="45.84962" lon="6.44137">
        <ele>2193.7</ele>
        <time>2024-04-27T10:42:04Z</time>
      </trkpt>
      <trkpt lat="45.84962" lon="6.44137">
        <ele>2193.7</ele>
        <time>2024-04-27T10:42:05Z</time>
      </trkpt>
      <trkpt lat="45.84962" lon="6.44137">
        <ele>2193.7</ele>
        <time>2024-04-27T10:42:06Z</time>
      </trkpt>
      <trkpt lat="45.84962" lon="6.44137">
        <ele>2193.7</ele>
        <time>2024-04-27T10:42:07Z</time>
      </trkpt>
      <trkpt lat="45.84962" lon="6.44137">
        <ele>2193.7</ele>
        <time>2024-04-27T10:42:08Z</time>
      </trkpt>
      <trkpt lat="45.84962" lon="6.44137">
        <ele>2193.7</ele>
        <time>2024-04-27T10:42:09Z</time>
      </trkpt>
      <trkpt lat="45.84962" lon="6.44136">
        <ele>2193.7</ele>
        <time>2024-04-27T10:42:10Z</time>
      </trkpt>
      <trkpt lat="45.84961" lon="6.44136">
        <ele>2193.7</ele>
        <time>2024-04-27T10:42:11Z</time>
      </trkpt>
      <trkpt lat="45.84961" lon="6.44135">
        <ele>2192.6</ele>
        <time>2024-04-27T10:42:12Z</time>
      </trkpt>
      <trkpt lat="45.84961" lon="6.44135">
        <ele>2192.6</ele>
        <time>2024-04-27T10:42:13Z</time>
      </trkpt>
      <trkpt lat="45.84961" lon="6.44135">
        <ele>2192.6</ele>
        <time>2024-04-27T10:42:14Z</time>
      </trkpt>
      <trkpt lat="45.84961" lon="6.44135">
        <ele>2192.6</ele>
        <time>2024-04-27T10:42:15Z</time>
      </trkpt>
      <trkpt lat="45.84961" lon="6.44134">
        <ele>2192.6</ele>
        <time>2024-04-27T10:42:16Z</time>
      </trkpt>
      <trkpt lat="45.84961" lon="6.44134">
        <ele>2192.6</ele>
        <time>2024-04-27T10:42:17Z</time>
      </trkpt>
      <trkpt lat="45.84961" lon="6.44134">
        <ele>2193.7</ele>
        <time>2024-04-27T10:42:18Z</time>
      </trkpt>
      <trkpt lat="45.84961" lon="6.44133">
        <ele>2193.7</ele>
        <time>2024-04-27T10:42:19Z</time>
      </trkpt>
      <trkpt lat="45.8496" lon="6.44133">
        <ele>2193.7</ele>
        <time>2024-04-27T10:42:20Z</time>
      </trkpt>
      <trkpt lat="45.8496" lon="6.44133">
        <ele>2193.7</ele>
        <time>2024-04-27T10:42:21Z</time>
      </trkpt>
      <trkpt lat="45.8496" lon="6.44132">
        <ele>2193.7</ele>
        <time>2024-04-27T10:42:22Z</time>
      </trkpt>
      <trkpt lat="45.8496" lon="6.44132">
        <ele>2193.7</ele>
        <time>2024-04-27T10:42:23Z</time>
      </trkpt>
      <trkpt lat="45.84959" lon="6.44131">
        <ele>2193.7</ele>
        <time>2024-04-27T10:42:24Z</time>
      </trkpt>
      <trkpt lat="45.84958" lon="6.44131">
        <ele>2193.7</ele>
        <time>2024-04-27T10:42:25Z</time>
      </trkpt>
      <trkpt lat="45.84958" lon="6.4413">
        <ele>2192.6</ele>
        <time>2024-04-27T10:42:26Z</time>
      </trkpt>
      <trkpt lat="45.84958" lon="6.44129">
        <ele>2192.6</ele>
        <time>2024-04-27T10:42:27Z</time>
      </trkpt>
      <trkpt lat="45.84957" lon="6.44129">
        <ele>2192.6</ele>
        <time>2024-04-27T10:42:28Z</time>
      </trkpt>
      <trkpt lat="45.84956" lon="6.44128">
        <ele>2192.6</ele>
        <time>2024-04-27T10:42:29Z</time>
      </trkpt>
      <trkpt lat="45.84955" lon="6.44127">
        <ele>2192.6</ele>
        <time>2024-04-27T10:42:30Z</time>
      </trkpt>
      <trkpt lat="45.84955" lon="6.44126">
        <ele>2192.6</ele>
        <time>2024-04-27T10:42:31Z</time>
      </trkpt>
      <trkpt lat="45.84954" lon="6.44125">
        <ele>2192.6</ele>
        <time>2024-04-27T10:42:32Z</time>
      </trkpt>
      <trkpt lat="45.84954" lon="6.44124">
        <ele>2192.6</ele>
        <time>2024-04-27T10:42:33Z</time>
      </trkpt>
      <trkpt lat="45.84953" lon="6.44124">
        <ele>2192.6</ele>
        <time>2024-04-27T10:42:34Z</time>
      </trkpt>
      <trkpt lat="45.84953" lon="6.44124">
        <ele>2192.6</ele>
        <time>2024-04-27T10:42:35Z</time>
      </trkpt>
      <trkpt lat="45.84954" lon="6.44124">
        <ele>2191.7</ele>
        <time>2024-04-27T10:42:36Z</time>
      </trkpt>
      <trkpt lat="45.84954" lon="6.44124">
        <ele>2191.7</ele>
        <time>2024-04-27T10:42:37Z</time>
      </trkpt>
      <trkpt lat="45.84953" lon="6.44123">
        <ele>2190.6</ele>
        <time>2024-04-27T10:42:38Z</time>
      </trkpt>
      <trkpt lat="45.84953" lon="6.44123">
        <ele>2190.6</ele>
        <time>2024-04-27T10:42:39Z</time>
      </trkpt>
      <trkpt lat="45.84954" lon="6.44123">
        <ele>2190.6</ele>
        <time>2024-04-27T10:42:40Z</time>
      </trkpt>
      <trkpt lat="45.84954" lon="6.44122">
        <ele>2190.6</ele>
        <time>2024-04-27T10:42:41Z</time>
      </trkpt>
      <trkpt lat="45.84954" lon="6.44122">
        <ele>2189.7</ele>
        <time>2024-04-27T10:42:42Z</time>
      </trkpt>
      <trkpt lat="45.84953" lon="6.44121">
        <ele>2189.7</ele>
        <time>2024-04-27T10:42:43Z</time>
      </trkpt>
      <trkpt lat="45.84954" lon="6.4412">
        <ele>2189.7</ele>
        <time>2024-04-27T10:42:44Z</time>
      </trkpt>
      <trkpt lat="45.84955" lon="6.4412">
        <ele>2189.7</ele>
        <time>2024-04-27T10:42:45Z</time>
      </trkpt>
      <trkpt lat="45.84955" lon="6.4412">
        <ele>2189.7</ele>
        <time>2024-04-27T10:42:46Z</time>
      </trkpt>
      <trkpt lat="45.84955" lon="6.4412">
        <ele>2189.7</ele>
        <time>2024-04-27T10:42:47Z</time>
      </trkpt>
      <trkpt lat="45.84955" lon="6.4412">
        <ele>2189.7</ele>
        <time>2024-04-27T10:42:48Z</time>
      </trkpt>
      <trkpt lat="45.84955" lon="6.4412">
        <ele>2189.7</ele>
        <time>2024-04-27T10:42:49Z</time>
      </trkpt>
      <trkpt lat="45.84955" lon="6.4412">
        <ele>2190.6</ele>
        <time>2024-04-27T10:42:50Z</time>
      </trkpt>
      <trkpt lat="45.84955" lon="6.4412">
        <ele>2190.6</ele>
        <time>2024-04-27T10:42:51Z</time>
      </trkpt>
      <trkpt lat="45.84955" lon="6.4412">
        <ele>2190.6</ele>
        <time>2024-04-27T10:42:52Z</time>
      </trkpt>
      <trkpt lat="45.84955" lon="6.4412">
        <ele>2190.6</ele>
        <time>2024-04-27T10:42:53Z</time>
      </trkpt>
      <trkpt lat="45.84955" lon="6.4412">
        <ele>2190.6</ele>
        <time>2024-04-27T10:42:54Z</time>
      </trkpt>
      <trkpt lat="45.84955" lon="6.4412">
        <ele>2190.6</ele>
        <time>2024-04-27T10:42:55Z</time>
      </trkpt>
      <trkpt lat="45.84955" lon="6.4412">
        <ele>2189.7</ele>
        <time>2024-04-27T10:42:56Z</time>
      </trkpt>
      <trkpt lat="45.84955" lon="6.4412">
        <ele>2189.7</ele>
        <time>2024-04-27T10:42:57Z</time>
      </trkpt>
      <trkpt lat="45.84955" lon="6.4412">
        <ele>2189.7</ele>
        <time>2024-04-27T10:42:58Z</time>
      </trkpt>
      <trkpt lat="45.84955" lon="6.4412">
        <ele>2189.7</ele>
        <time>2024-04-27T10:42:59Z</time>
      </trkpt>
      <trkpt lat="45.84955" lon="6.4412">
        <ele>2188.6</ele>
        <time>2024-04-27T10:43:00Z</time>
      </trkpt>
      <trkpt lat="45.84955" lon="6.4412">
        <ele>2188.6</ele>
        <time>2024-04-27T10:43:01Z</time>
      </trkpt>
      <trkpt lat="45.84955" lon="6.4412">
        <ele>2188.6</ele>
        <time>2024-04-27T10:43:02Z</time>
      </trkpt>
      <trkpt lat="45.84955" lon="6.4412">
        <ele>2188.6</ele>
        <time>2024-04-27T10:43:03Z</time>
      </trkpt>
      <trkpt lat="45.84955" lon="6.4412">
        <ele>2188.6</ele>
        <time>2024-04-27T10:43:04Z</time>
      </trkpt>
      <trkpt lat="45.84955" lon="6.4412">
        <ele>2188.6</ele>
        <time>2024-04-27T10:43:05Z</time>
      </trkpt>
      <trkpt lat="45.84955" lon="6.4412">
        <ele>2187.6</ele>
        <time>2024-04-27T10:43:06Z</time>
      </trkpt>
      <trkpt lat="45.84955" lon="6.4412">
        <ele>2187.6</ele>
        <time>2024-04-27T10:43:07Z</time>
      </trkpt>
      <trkpt lat="45.84955" lon="6.4412">
        <ele>2187.6</ele>
        <time>2024-04-27T10:43:08Z</time>
      </trkpt>
      <trkpt lat="45.84955" lon="6.4412">
        <ele>2187.6</ele>
        <time>2024-04-27T10:43:09Z</time>
      </trkpt>
      <trkpt lat="45.84955" lon="6.44119">
        <ele>2186.7</ele>
        <time>2024-04-27T10:43:10Z</time>
      </trkpt>
      <trkpt lat="45.84955" lon="6.44119">
        <ele>2186.7</ele>
        <time>2024-04-27T10:43:11Z</time>
      </trkpt>
      <trkpt lat="45.84955" lon="6.44119">
        <ele>2185.6</ele>
        <time>2024-04-27T10:43:12Z</time>
      </trkpt>
      <trkpt lat="45.84955" lon="6.44118">
        <ele>2185.6</ele>
        <time>2024-04-27T10:43:13Z</time>
      </trkpt>
      <trkpt lat="45.84955" lon="6.44117">
        <ele>2185.6</ele>
        <time>2024-04-27T10:43:14Z</time>
      </trkpt>
      <trkpt lat="45.84955" lon="6.44117">
        <ele>2185.6</ele>
        <time>2024-04-27T10:43:15Z</time>
      </trkpt>
      <trkpt lat="45.84955" lon="6.44116">
        <ele>2184.7</ele>
        <time>2024-04-27T10:43:16Z</time>
      </trkpt>
      <trkpt lat="45.84955" lon="6.44115">
        <ele>2184.7</ele>
        <time>2024-04-27T10:43:17Z</time>
      </trkpt>
      <trkpt lat="45.84955" lon="6.44114">
        <ele>2184.7</ele>
        <time>2024-04-27T10:43:18Z</time>
      </trkpt>
      <trkpt lat="45.84955" lon="6.44114">
        <ele>2184.7</ele>
        <time>2024-04-27T10:43:19Z</time>
      </trkpt>
      <trkpt lat="45.84955" lon="6.44114">
        <ele>2183.6</ele>
        <time>2024-04-27T10:43:20Z</time>
      </trkpt>
      <trkpt lat="45.84955" lon="6.44114">
        <ele>2183.6</ele>
        <time>2024-04-27T10:43:21Z</time>
      </trkpt>
      <trkpt lat="45.84955" lon="6.44113">
        <ele>2183.6</ele>
        <time>2024-04-27T10:43:22Z</time>
      </trkpt>
      <trkpt lat="45.84955" lon="6.44112">
        <ele>2183.6</ele>
        <time>2024-04-27T10:43:23Z</time>
      </trkpt>
      <trkpt lat="45.84955" lon="6.44112">
        <ele>2183.6</ele>
        <time>2024-04-27T10:43:24Z</time>
      </trkpt>
      <trkpt lat="45.84954" lon="6.44111">
        <ele>2183.6</ele>
        <time>2024-04-27T10:43:25Z</time>
      </trkpt>
      <trkpt lat="45.84954" lon="6.44111">
        <ele>2183.6</ele>
        <time>2024-04-27T10:43:26Z</time>
      </trkpt>
      <trkpt lat="45.84954" lon="6.44111">
        <ele>2183.6</ele>
        <time>2024-04-27T10:43:27Z</time>
      </trkpt>
      <trkpt lat="45.84954" lon="6.4411">
        <ele>2179.7</ele>
        <time>2024-04-27T10:43:28Z</time>
      </trkpt>
      <trkpt lat="45.84954" lon="6.4411">
        <ele>2179.7</ele>
        <time>2024-04-27T10:43:29Z</time>
      </trkpt>
      <trkpt lat="45.84954" lon="6.44109">
        <ele>2179.7</ele>
        <time>2024-04-27T10:43:30Z</time>
      </trkpt>
      <trkpt lat="45.84954" lon="6.44109">
        <ele>2179.7</ele>
        <time>2024-04-27T10:43:31Z</time>
      </trkpt>
      <trkpt lat="45.84954" lon="6.44108">
        <ele>2179.7</ele>
        <time>2024-04-27T10:43:32Z</time>
      </trkpt>
      <trkpt lat="45.84954" lon="6.44108">
        <ele>2179.7</ele>
        <time>2024-04-27T10:43:33Z</time>
      </trkpt>
      <trkpt lat="45.84954" lon="6.44108">
        <ele>2178.6</ele>
        <time>2024-04-27T10:43:34Z</time>
      </trkpt>
      <trkpt lat="45.84954" lon="6.44107">
        <ele>2178.6</ele>
        <time>2024-04-27T10:43:35Z</time>
      </trkpt>
      <trkpt lat="45.84954" lon="6.44107">
        <ele>2178.6</ele>
        <time>2024-04-27T10:43:36Z</time>
      </trkpt>
      <trkpt lat="45.84953" lon="6.44106">
        <ele>2178.6</ele>
        <time>2024-04-27T10:43:37Z</time>
      </trkpt>
      <trkpt lat="45.84953" lon="6.44106">
        <ele>2177.7</ele>
        <time>2024-04-27T10:43:38Z</time>
      </trkpt>
      <trkpt lat="45.84953" lon="6.44106">
        <ele>2177.7</ele>
        <time>2024-04-27T10:43:39Z</time>
      </trkpt>
      <trkpt lat="45.84953" lon="6.44106">
        <ele>2177.7</ele>
        <time>2024-04-27T10:43:40Z</time>
      </trkpt>
      <trkpt lat="45.84953" lon="6.44105">
        <ele>2177.7</ele>
        <time>2024-04-27T10:43:41Z</time>
      </trkpt>
      <trkpt lat="45.84952" lon="6.44105">
        <ele>2177.7</ele>
        <time>2024-04-27T10:43:42Z</time>
      </trkpt>
      <trkpt lat="45.84952" lon="6.44104">
        <ele>2177.7</ele>
        <time>2024-04-27T10:43:43Z</time>
      </trkpt>
      <trkpt lat="45.84952" lon="6.44104">
        <ele>2177.7</ele>
        <time>2024-04-27T10:43:44Z</time>
      </trkpt>
      <trkpt lat="45.84952" lon="6.44103">
        <ele>2177.7</ele>
        <time>2024-04-27T10:43:45Z</time>
      </trkpt>
      <trkpt lat="45.84952" lon="6.44103">
        <ele>2176.6</ele>
        <time>2024-04-27T10:43:46Z</time>
      </trkpt>
      <trkpt lat="45.84952" lon="6.44103">
        <ele>2176.6</ele>
        <time>2024-04-27T10:43:47Z</time>
      </trkpt>
      <trkpt lat="45.84952" lon="6.44102">
        <ele>2176.6</ele>
        <time>2024-04-27T10:43:48Z</time>
      </trkpt>
      <trkpt lat="45.84952" lon="6.44102">
        <ele>2176.6</ele>
        <time>2024-04-27T10:43:49Z</time>
      </trkpt>
      <trkpt lat="45.84952" lon="6.44102">
        <ele>2176.6</ele>
        <time>2024-04-27T10:43:50Z</time>
      </trkpt>
      <trkpt lat="45.84951" lon="6.44102">
        <ele>2176.6</ele>
        <time>2024-04-27T10:43:51Z</time>
      </trkpt>
      <trkpt lat="45.84951" lon="6.44102">
        <ele>2176.6</ele>
        <time>2024-04-27T10:43:52Z</time>
      </trkpt>
      <trkpt lat="45.84951" lon="6.44102">
        <ele>2176.6</ele>
        <time>2024-04-27T10:43:53Z</time>
      </trkpt>
      <trkpt lat="45.84951" lon="6.44102">
        <ele>2176.6</ele>
        <time>2024-04-27T10:43:54Z</time>
      </trkpt>
      <trkpt lat="45.84951" lon="6.44101">
        <ele>2176.6</ele>
        <time>2024-04-27T10:43:55Z</time>
      </trkpt>
      <trkpt lat="45.84951" lon="6.44101">
        <ele>2176.6</ele>
        <time>2024-04-27T10:43:56Z</time>
      </trkpt>
      <trkpt lat="45.84951" lon="6.441">
        <ele>2176.6</ele>
        <time>2024-04-27T10:43:57Z</time>
      </trkpt>
      <trkpt lat="45.84951" lon="6.441">
        <ele>2176.6</ele>
        <time>2024-04-27T10:43:58Z</time>
      </trkpt>
      <trkpt lat="45.84951" lon="6.441">
        <ele>2176.6</ele>
        <time>2024-04-27T10:43:59Z</time>
      </trkpt>
      <trkpt lat="45.84951" lon="6.44099">
        <ele>2176.6</ele>
        <time>2024-04-27T10:44:00Z</time>
      </trkpt>
      <trkpt lat="45.84951" lon="6.44099">
        <ele>2176.6</ele>
        <time>2024-04-27T10:44:01Z</time>
      </trkpt>
      <trkpt lat="45.84951" lon="6.44099">
        <ele>2176.6</ele>
        <time>2024-04-27T10:44:02Z</time>
      </trkpt>
      <trkpt lat="45.84951" lon="6.44098">
        <ele>2176.6</ele>
        <time>2024-04-27T10:44:03Z</time>
      </trkpt>
      <trkpt lat="45.84951" lon="6.44098">
        <ele>2176.6</ele>
        <time>2024-04-27T10:44:04Z</time>
      </trkpt>
      <trkpt lat="45.84951" lon="6.44098">
        <ele>2176.6</ele>
        <time>2024-04-27T10:44:05Z</time>
      </trkpt>
      <trkpt lat="45.84951" lon="6.44097">
        <ele>2175.7</ele>
        <time>2024-04-27T10:44:06Z</time>
      </trkpt>
      <trkpt lat="45.84951" lon="6.44097">
        <ele>2175.7</ele>
        <time>2024-04-27T10:44:07Z</time>
      </trkpt>
      <trkpt lat="45.8495" lon="6.44096">
        <ele>2175.7</ele>
        <time>2024-04-27T10:44:08Z</time>
      </trkpt>
      <trkpt lat="45.8495" lon="6.44096">
        <ele>2175.7</ele>
        <time>2024-04-27T10:44:09Z</time>
      </trkpt>
      <trkpt lat="45.8495" lon="6.44096">
        <ele>2175.7</ele>
        <time>2024-04-27T10:44:10Z</time>
      </trkpt>
      <trkpt lat="45.8495" lon="6.44096">
        <ele>2175.7</ele>
        <time>2024-04-27T10:44:11Z</time>
      </trkpt>
      <trkpt lat="45.8495" lon="6.44096">
        <ele>2175.7</ele>
        <time>2024-04-27T10:44:12Z</time>
      </trkpt>
      <trkpt lat="45.8495" lon="6.44096">
        <ele>2175.7</ele>
        <time>2024-04-27T10:44:13Z</time>
      </trkpt>
      <trkpt lat="45.8495" lon="6.44096">
        <ele>2175.7</ele>
        <time>2024-04-27T10:44:14Z</time>
      </trkpt>
      <trkpt lat="45.8495" lon="6.44096">
        <ele>2175.7</ele>
        <time>2024-04-27T10:44:15Z</time>
      </trkpt>
      <trkpt lat="45.8495" lon="6.44095">
        <ele>2175.7</ele>
        <time>2024-04-27T10:44:16Z</time>
      </trkpt>
      <trkpt lat="45.8495" lon="6.44095">
        <ele>2175.7</ele>
        <time>2024-04-27T10:44:17Z</time>
      </trkpt>
      <trkpt lat="45.8495" lon="6.44095">
        <ele>2175.7</ele>
        <time>2024-04-27T10:44:18Z</time>
      </trkpt>
      <trkpt lat="45.8495" lon="6.44095">
        <ele>2175.7</ele>
        <time>2024-04-27T10:44:19Z</time>
      </trkpt>
      <trkpt lat="45.8495" lon="6.44095">
        <ele>2175.7</ele>
        <time>2024-04-27T10:44:20Z</time>
      </trkpt>
      <trkpt lat="45.8495" lon="6.44094">
        <ele>2175.7</ele>
        <time>2024-04-27T10:44:21Z</time>
      </trkpt>
      <trkpt lat="45.8495" lon="6.44094">
        <ele>2175.7</ele>
        <time>2024-04-27T10:44:22Z</time>
      </trkpt>
      <trkpt lat="45.8495" lon="6.44093">
        <ele>2175.7</ele>
        <time>2024-04-27T10:44:23Z</time>
      </trkpt>
      <trkpt lat="45.8495" lon="6.44093">
        <ele>2175.7</ele>
        <time>2024-04-27T10:44:24Z</time>
      </trkpt>
      <trkpt lat="45.8495" lon="6.44093">
        <ele>2175.7</ele>
        <time>2024-04-27T10:44:25Z</time>
      </trkpt>
      <trkpt lat="45.8495" lon="6.44092">
        <ele>2175.7</ele>
        <time>2024-04-27T10:44:26Z</time>
      </trkpt>
      <trkpt lat="45.8495" lon="6.44092">
        <ele>2175.7</ele>
        <time>2024-04-27T10:44:27Z</time>
      </trkpt>
      <trkpt lat="45.8495" lon="6.44091">
        <ele>2175.7</ele>
        <time>2024-04-27T10:44:28Z</time>
      </trkpt>
      <trkpt lat="45.8495" lon="6.44091">
        <ele>2175.7</ele>
        <time>2024-04-27T10:44:29Z</time>
      </trkpt>
      <trkpt lat="45.8495" lon="6.44091">
        <ele>2175.7</ele>
        <time>2024-04-27T10:44:30Z</time>
      </trkpt>
      <trkpt lat="45.8495" lon="6.4409">
        <ele>2175.7</ele>
        <time>2024-04-27T10:44:31Z</time>
      </trkpt>
      <trkpt lat="45.8495" lon="6.4409">
        <ele>2175.7</ele>
        <time>2024-04-27T10:44:32Z</time>
      </trkpt>
      <trkpt lat="45.8495" lon="6.4409">
        <ele>2175.7</ele>
        <time>2024-04-27T10:44:33Z</time>
      </trkpt>
      <trkpt lat="45.8495" lon="6.4409">
        <ele>2175.7</ele>
        <time>2024-04-27T10:44:34Z</time>
      </trkpt>
      <trkpt lat="45.8495" lon="6.4409">
        <ele>2175.7</ele>
        <time>2024-04-27T10:44:35Z</time>
      </trkpt>
      <trkpt lat="45.8495" lon="6.4409">
        <ele>2175.7</ele>
        <time>2024-04-27T10:44:36Z</time>
      </trkpt>
      <trkpt lat="45.8495" lon="6.4409">
        <ele>2175.7</ele>
        <time>2024-04-27T10:44:37Z</time>
      </trkpt>
      <trkpt lat="45.8495" lon="6.4409">
        <ele>2175.7</ele>
        <time>2024-04-27T10:44:38Z</time>
      </trkpt>
      <trkpt lat="45.8495" lon="6.4409">
        <ele>2175.7</ele>
        <time>2024-04-27T10:44:39Z</time>
      </trkpt>
      <trkpt lat="45.8495" lon="6.4409">
        <ele>2175.7</ele>
        <time>2024-04-27T10:44:40Z</time>
      </trkpt>
      <trkpt lat="45.8495" lon="6.4409">
        <ele>2175.7</ele>
        <time>2024-04-27T10:44:41Z</time>
      </trkpt>
      <trkpt lat="45.8495" lon="6.44089">
        <ele>2175.7</ele>
        <time>2024-04-27T10:44:42Z</time>
      </trkpt>
      <trkpt lat="45.8495" lon="6.44089">
        <ele>2175.7</ele>
        <time>2024-04-27T10:44:43Z</time>
      </trkpt>
      <trkpt lat="45.8495" lon="6.44089">
        <ele>2175.7</ele>
        <time>2024-04-27T10:44:44Z</time>
      </trkpt>
      <trkpt lat="45.8495" lon="6.44089">
        <ele>2175.7</ele>
        <time>2024-04-27T10:44:45Z</time>
      </trkpt>
      <trkpt lat="45.8495" lon="6.44089">
        <ele>2174.6</ele>
        <time>2024-04-27T10:44:46Z</time>
      </trkpt>
      <trkpt lat="45.8495" lon="6.44088">
        <ele>2174.6</ele>
        <time>2024-04-27T10:44:47Z</time>
      </trkpt>
      <trkpt lat="45.8495" lon="6.44088">
        <ele>2174.6</ele>
        <time>2024-04-27T10:44:48Z</time>
      </trkpt>
      <trkpt lat="45.8495" lon="6.44088">
        <ele>2174.6</ele>
        <time>2024-04-27T10:44:49Z</time>
      </trkpt>
      <trkpt lat="45.8495" lon="6.44088">
        <ele>2174.6</ele>
        <time>2024-04-27T10:44:50Z</time>
      </trkpt>
      <trkpt lat="45.8495" lon="6.44088">
        <ele>2174.6</ele>
        <time>2024-04-27T10:44:51Z</time>
      </trkpt>
      <trkpt lat="45.8495" lon="6.44088">
        <ele>2174.6</ele>
        <time>2024-04-27T10:44:52Z</time>
      </trkpt>
      <trkpt lat="45.8495" lon="6.44088">
        <ele>2174.6</ele>
        <time>2024-04-27T10:44:53Z</time>
      </trkpt>
      <trkpt lat="45.8495" lon="6.44088">
        <ele>2173.7</ele>
        <time>2024-04-27T10:44:54Z</time>
      </trkpt>
      <trkpt lat="45.8495" lon="6.44088">
        <ele>2173.7</ele>
        <time>2024-04-27T10:44:55Z</time>
      </trkpt>
      <trkpt lat="45.8495" lon="6.44088">
        <ele>2173.7</ele>
        <time>2024-04-27T10:44:56Z</time>
      </trkpt>
      <trkpt lat="45.8495" lon="6.44087">
        <ele>2173.7</ele>
        <time>2024-04-27T10:44:57Z</time>
      </trkpt>
      <trkpt lat="45.8495" lon="6.44087">
        <ele>2172.6</ele>
        <time>2024-04-27T10:44:58Z</time>
      </trkpt>
      <trkpt lat="45.8495" lon="6.44086">
        <ele>2172.6</ele>
        <time>2024-04-27T10:44:59Z</time>
      </trkpt>
      <trkpt lat="45.8495" lon="6.44085">
        <ele>2172.6</ele>
        <time>2024-04-27T10:45:00Z</time>
      </trkpt>
      <trkpt lat="45.84951" lon="6.44083">
        <ele>2172.6</ele>
        <time>2024-04-27T10:45:01Z</time>
      </trkpt>
      <trkpt lat="45.8495" lon="6.44081">
        <ele>2172.6</ele>
        <time>2024-04-27T10:45:02Z</time>
      </trkpt>
      <trkpt lat="45.8495" lon="6.4408">
        <ele>2172.6</ele>
        <time>2024-04-27T10:45:03Z</time>
      </trkpt>
      <trkpt lat="45.8495" lon="6.44078">
        <ele>2172.6</ele>
        <time>2024-04-27T10:45:04Z</time>
      </trkpt>
      <trkpt lat="45.8495" lon="6.44076">
        <ele>2172.6</ele>
        <time>2024-04-27T10:45:05Z</time>
      </trkpt>
      <trkpt lat="45.8495" lon="6.44075">
        <ele>2171.6</ele>
        <time>2024-04-27T10:45:06Z</time>
      </trkpt>
      <trkpt lat="45.84951" lon="6.44073">
        <ele>2171.6</ele>
        <time>2024-04-27T10:45:07Z</time>
      </trkpt>
      <trkpt lat="45.84951" lon="6.44071">
        <ele>2171.6</ele>
        <time>2024-04-27T10:45:08Z</time>
      </trkpt>
      <trkpt lat="45.8495" lon="6.4407">
        <ele>2171.6</ele>
        <time>2024-04-27T10:45:09Z</time>
      </trkpt>
      <trkpt lat="45.84951" lon="6.44071">
        <ele>2170.7</ele>
        <time>2024-04-27T10:45:10Z</time>
      </trkpt>
      <trkpt lat="45.84951" lon="6.4407">
        <ele>2170.7</ele>
        <time>2024-04-27T10:45:11Z</time>
      </trkpt>
      <trkpt lat="45.84951" lon="6.44069">
        <ele>2170.7</ele>
        <time>2024-04-27T10:45:12Z</time>
      </trkpt>
      <trkpt lat="45.84951" lon="6.44068">
        <ele>2170.7</ele>
        <time>2024-04-27T10:45:13Z</time>
      </trkpt>
      <trkpt lat="45.84951" lon="6.44068">
        <ele>2170.7</ele>
        <time>2024-04-27T10:45:14Z</time>
      </trkpt>
      <trkpt lat="45.84951" lon="6.44067">
        <ele>2170.7</ele>
        <time>2024-04-27T10:45:15Z</time>
      </trkpt>
      <trkpt lat="45.84951" lon="6.44067">
        <ele>2170.7</ele>
        <time>2024-04-27T10:45:16Z</time>
      </trkpt>
      <trkpt lat="45.84951" lon="6.44067">
        <ele>2170.7</ele>
        <time>2024-04-27T10:45:17Z</time>
      </trkpt>
      <trkpt lat="45.84951" lon="6.44067">
        <ele>2170.7</ele>
        <time>2024-04-27T10:45:18Z</time>
      </trkpt>
      <trkpt lat="45.8495" lon="6.44067">
        <ele>2170.7</ele>
        <time>2024-04-27T10:45:19Z</time>
      </trkpt>
      <trkpt lat="45.8495" lon="6.44067">
        <ele>2170.7</ele>
        <time>2024-04-27T10:45:20Z</time>
      </trkpt>
      <trkpt lat="45.8495" lon="6.44067">
        <ele>2170.7</ele>
        <time>2024-04-27T10:45:21Z</time>
      </trkpt>
      <trkpt lat="45.8495" lon="6.44068">
        <ele>2170.7</ele>
        <time>2024-04-27T10:45:22Z</time>
      </trkpt>
      <trkpt lat="45.84949" lon="6.44067">
        <ele>2170.7</ele>
        <time>2024-04-27T10:45:23Z</time>
      </trkpt>
      <trkpt lat="45.84949" lon="6.44067">
        <ele>2170.7</ele>
        <time>2024-04-27T10:45:24Z</time>
      </trkpt>
      <trkpt lat="45.84949" lon="6.44067">
        <ele>2170.7</ele>
        <time>2024-04-27T10:45:25Z</time>
      </trkpt>
      <trkpt lat="45.84949" lon="6.44067">
        <ele>2170.7</ele>
        <time>2024-04-27T10:45:26Z</time>
      </trkpt>
      <trkpt lat="45.84949" lon="6.44067">
        <ele>2170.7</ele>
        <time>2024-04-27T10:45:27Z</time>
      </trkpt>
      <trkpt lat="45.84949" lon="6.44067">
        <ele>2170.7</ele>
        <time>2024-04-27T10:45:28Z</time>
      </trkpt>
      <trkpt lat="45.84949" lon="6.44067">
        <ele>2170.7</ele>
        <time>2024-04-27T10:45:29Z</time>
      </trkpt>
      <trkpt lat="45.84949" lon="6.44067">
        <ele>2170.7</ele>
        <time>2024-04-27T10:45:30Z</time>
      </trkpt>
      <trkpt lat="45.84949" lon="6.44067">
        <ele>2170.7</ele>
        <time>2024-04-27T10:45:31Z</time>
      </trkpt>
      <trkpt lat="45.84949" lon="6.44067">
        <ele>2170.7</ele>
        <time>2024-04-27T10:45:32Z</time>
      </trkpt>
      <trkpt lat="45.84949" lon="6.44067">
        <ele>2170.7</ele>
        <time>2024-04-27T10:45:33Z</time>
      </trkpt>
      <trkpt lat="45.84949" lon="6.44067">
        <ele>2168.7</ele>
        <time>2024-04-27T10:45:34Z</time>
      </trkpt>
      <trkpt lat="45.84949" lon="6.44067">
        <ele>2168.7</ele>
        <time>2024-04-27T10:45:35Z</time>
      </trkpt>
      <trkpt lat="45.84949" lon="6.44067">
        <ele>2168.7</ele>
        <time>2024-04-27T10:45:36Z</time>
      </trkpt>
      <trkpt lat="45.84949" lon="6.44067">
        <ele>2168.7</ele>
        <time>2024-04-27T10:45:37Z</time>
      </trkpt>
      <trkpt lat="45.8495" lon="6.44067">
        <ele>2167.6</ele>
        <time>2024-04-27T10:45:38Z</time>
      </trkpt>
      <trkpt lat="45.8495" lon="6.44067">
        <ele>2167.6</ele>
        <time>2024-04-27T10:45:39Z</time>
      </trkpt>
      <trkpt lat="45.8495" lon="6.44067">
        <ele>2166.7</ele>
        <time>2024-04-27T10:45:40Z</time>
      </trkpt>
      <trkpt lat="45.8495" lon="6.44067">
        <ele>2166.7</ele>
        <time>2024-04-27T10:45:41Z</time>
      </trkpt>
      <trkpt lat="45.8495" lon="6.44067">
        <ele>2166.7</ele>
        <time>2024-04-27T10:45:42Z</time>
      </trkpt>
      <trkpt lat="45.8495" lon="6.44067">
        <ele>2166.7</ele>
        <time>2024-04-27T10:45:43Z</time>
      </trkpt>
      <trkpt lat="45.8495" lon="6.44067">
        <ele>2166.7</ele>
        <time>2024-04-27T10:45:44Z</time>
      </trkpt>
      <trkpt lat="45.8495" lon="6.44067">
        <ele>2166.7</ele>
        <time>2024-04-27T10:45:45Z</time>
      </trkpt>
      <trkpt lat="45.8495" lon="6.44067">
        <ele>2166.7</ele>
        <time>2024-04-27T10:45:46Z</time>
      </trkpt>
      <trkpt lat="45.8495" lon="6.44067">
        <ele>2166.7</ele>
        <time>2024-04-27T10:45:47Z</time>
      </trkpt>
      <trkpt lat="45.8495" lon="6.44067">
        <ele>2166.7</ele>
        <time>2024-04-27T10:45:48Z</time>
      </trkpt>
      <trkpt lat="45.8495" lon="6.44067">
        <ele>2166.7</ele>
        <time>2024-04-27T10:45:49Z</time>
      </trkpt>
      <trkpt lat="45.8495" lon="6.44066">
        <ele>2166.7</ele>
        <time>2024-04-27T10:45:50Z</time>
      </trkpt>
      <trkpt lat="45.8495" lon="6.44066">
        <ele>2166.7</ele>
        <time>2024-04-27T10:45:51Z</time>
      </trkpt>
      <trkpt lat="45.8495" lon="6.44066">
        <ele>2166.7</ele>
        <time>2024-04-27T10:45:52Z</time>
      </trkpt>
      <trkpt lat="45.8495" lon="6.44066">
        <ele>2166.7</ele>
        <time>2024-04-27T10:45:53Z</time>
      </trkpt>
      <trkpt lat="45.8495" lon="6.44065">
        <ele>2165.6</ele>
        <time>2024-04-27T10:45:54Z</time>
      </trkpt>
      <trkpt lat="45.8495" lon="6.44065">
        <ele>2165.6</ele>
        <time>2024-04-27T10:45:55Z</time>
      </trkpt>
      <trkpt lat="45.8495" lon="6.44064">
        <ele>2165.6</ele>
        <time>2024-04-27T10:45:56Z</time>
      </trkpt>
      <trkpt lat="45.8495" lon="6.44064">
        <ele>2165.6</ele>
        <time>2024-04-27T10:45:57Z</time>
      </trkpt>
      <trkpt lat="45.8495" lon="6.44064">
        <ele>2165.6</ele>
        <time>2024-04-27T10:45:58Z</time>
      </trkpt>
      <trkpt lat="45.8495" lon="6.44063">
        <ele>2165.6</ele>
        <time>2024-04-27T10:45:59Z</time>
      </trkpt>
      <trkpt lat="45.8495" lon="6.44063">
        <ele>2165.6</ele>
        <time>2024-04-27T10:46:00Z</time>
      </trkpt>
      <trkpt lat="45.8495" lon="6.44063">
        <ele>2165.6</ele>
        <time>2024-04-27T10:46:01Z</time>
      </trkpt>
      <trkpt lat="45.84951" lon="6.44063">
        <ele>2165.6</ele>
        <time>2024-04-27T10:46:02Z</time>
      </trkpt>
      <trkpt lat="45.84951" lon="6.44063">
        <ele>2165.6</ele>
        <time>2024-04-27T10:46:03Z</time>
      </trkpt>
      <trkpt lat="45.84951" lon="6.44063">
        <ele>2165.6</ele>
        <time>2024-04-27T10:46:04Z</time>
      </trkpt>
      <trkpt lat="45.84951" lon="6.44063">
        <ele>2165.6</ele>
        <time>2024-04-27T10:46:05Z</time>
      </trkpt>
      <trkpt lat="45.84951" lon="6.44063">
        <ele>2165.6</ele>
        <time>2024-04-27T10:46:06Z</time>
      </trkpt>
      <trkpt lat="45.84951" lon="6.44063">
        <ele>2165.6</ele>
        <time>2024-04-27T10:46:07Z</time>
      </trkpt>
      <trkpt lat="45.84951" lon="6.44063">
        <ele>2165.6</ele>
        <time>2024-04-27T10:46:08Z</time>
      </trkpt>
      <trkpt lat="45.8495" lon="6.44062">
        <ele>2165.6</ele>
        <time>2024-04-27T10:46:09Z</time>
      </trkpt>
      <trkpt lat="45.8495" lon="6.44062">
        <ele>2164.7</ele>
        <time>2024-04-27T10:46:10Z</time>
      </trkpt>
      <trkpt lat="45.8495" lon="6.44062">
        <ele>2164.7</ele>
        <time>2024-04-27T10:46:11Z</time>
      </trkpt>
      <trkpt lat="45.8495" lon="6.44062">
        <ele>2164.7</ele>
        <time>2024-04-27T10:46:12Z</time>
      </trkpt>
      <trkpt lat="45.8495" lon="6.44062">
        <ele>2164.7</ele>
        <time>2024-04-27T10:46:13Z</time>
      </trkpt>
      <trkpt lat="45.8495" lon="6.44062">
        <ele>2164.7</ele>
        <time>2024-04-27T10:46:14Z</time>
      </trkpt>
      <trkpt lat="45.8495" lon="6.44062">
        <ele>2164.7</ele>
        <time>2024-04-27T10:46:15Z</time>
      </trkpt>
      <trkpt lat="45.8495" lon="6.44062">
        <ele>2164.7</ele>
        <time>2024-04-27T10:46:16Z</time>
      </trkpt>
      <trkpt lat="45.8495" lon="6.44062">
        <ele>2164.7</ele>
        <time>2024-04-27T10:46:17Z</time>
      </trkpt>
      <trkpt lat="45.8495" lon="6.44062">
        <ele>2164.7</ele>
        <time>2024-04-27T10:46:18Z</time>
      </trkpt>
      <trkpt lat="45.8495" lon="6.44063">
        <ele>2164.7</ele>
        <time>2024-04-27T10:46:19Z</time>
      </trkpt>
      <trkpt lat="45.8495" lon="6.44063">
        <ele>2164.7</ele>
        <time>2024-04-27T10:46:20Z</time>
      </trkpt>
      <trkpt lat="45.8495" lon="6.44063">
        <ele>2164.7</ele>
        <time>2024-04-27T10:46:21Z</time>
      </trkpt>
      <trkpt lat="45.8495" lon="6.44063">
        <ele>2164.7</ele>
        <time>2024-04-27T10:46:22Z</time>
      </trkpt>
      <trkpt lat="45.8495" lon="6.44063">
        <ele>2164.7</ele>
        <time>2024-04-27T10:46:23Z</time>
      </trkpt>
      <trkpt lat="45.8495" lon="6.44063">
        <ele>2164.7</ele>
        <time>2024-04-27T10:46:24Z</time>
      </trkpt>
      <trkpt lat="45.8495" lon="6.44063">
        <ele>2164.7</ele>
        <time>2024-04-27T10:46:25Z</time>
      </trkpt>
      <trkpt lat="45.8495" lon="6.44063">
        <ele>2164.7</ele>
        <time>2024-04-27T10:46:26Z</time>
      </trkpt>
      <trkpt lat="45.8495" lon="6.44063">
        <ele>2164.7</ele>
        <time>2024-04-27T10:46:27Z</time>
      </trkpt>
      <trkpt lat="45.84949" lon="6.44063">
        <ele>2164.7</ele>
        <time>2024-04-27T10:46:28Z</time>
      </trkpt>
      <trkpt lat="45.84949" lon="6.44063">
        <ele>2164.7</ele>
        <time>2024-04-27T10:46:29Z</time>
      </trkpt>
      <trkpt lat="45.84949" lon="6.44063">
        <ele>2164.7</ele>
        <time>2024-04-27T10:46:30Z</time>
      </trkpt>
      <trkpt lat="45.84949" lon="6.44063">
        <ele>2164.7</ele>
        <time>2024-04-27T10:46:31Z</time>
      </trkpt>
      <trkpt lat="45.84949" lon="6.44063">
        <ele>2164.7</ele>
        <time>2024-04-27T10:46:32Z</time>
      </trkpt>
      <trkpt lat="45.84948" lon="6.44063">
        <ele>2164.7</ele>
        <time>2024-04-27T10:46:33Z</time>
      </trkpt>
      <trkpt lat="45.84948" lon="6.44063">
        <ele>2163.6</ele>
        <time>2024-04-27T10:46:34Z</time>
      </trkpt>
      <trkpt lat="45.84948" lon="6.44063">
        <ele>2163.6</ele>
        <time>2024-04-27T10:46:35Z</time>
      </trkpt>
      <trkpt lat="45.84948" lon="6.44063">
        <ele>2163.6</ele>
        <time>2024-04-27T10:46:36Z</time>
      </trkpt>
      <trkpt lat="45.84948" lon="6.44063">
        <ele>2163.6</ele>
        <time>2024-04-27T10:46:37Z</time>
      </trkpt>
      <trkpt lat="45.84948" lon="6.44063">
        <ele>2163.6</ele>
        <time>2024-04-27T10:46:38Z</time>
      </trkpt>
      <trkpt lat="45.84948" lon="6.44063">
        <ele>2163.6</ele>
        <time>2024-04-27T10:46:39Z</time>
      </trkpt>
      <trkpt lat="45.84948" lon="6.44063">
        <ele>2163.6</ele>
        <time>2024-04-27T10:46:40Z</time>
      </trkpt>
      <trkpt lat="45.84948" lon="6.44063">
        <ele>2163.6</ele>
        <time>2024-04-27T10:46:41Z</time>
      </trkpt>
      <trkpt lat="45.84948" lon="6.44063">
        <ele>2164.7</ele>
        <time>2024-04-27T10:46:42Z</time>
      </trkpt>
      <trkpt lat="45.84948" lon="6.44062">
        <ele>2164.7</ele>
        <time>2024-04-27T10:46:43Z</time>
      </trkpt>
      <trkpt lat="45.84948" lon="6.44062">
        <ele>2164.7</ele>
        <time>2024-04-27T10:46:44Z</time>
      </trkpt>
      <trkpt lat="45.84948" lon="6.44061">
        <ele>2164.7</ele>
        <time>2024-04-27T10:46:45Z</time>
      </trkpt>
      <trkpt lat="45.84948" lon="6.44061">
        <ele>2164.7</ele>
        <time>2024-04-27T10:46:46Z</time>
      </trkpt>
      <trkpt lat="45.84948" lon="6.44061">
        <ele>2164.7</ele>
        <time>2024-04-27T10:46:47Z</time>
      </trkpt>
      <trkpt lat="45.84948" lon="6.44061">
        <ele>2164.7</ele>
        <time>2024-04-27T10:46:48Z</time>
      </trkpt>
      <trkpt lat="45.84948" lon="6.4406">
        <ele>2164.7</ele>
        <time>2024-04-27T10:46:49Z</time>
      </trkpt>
      <trkpt lat="45.84948" lon="6.4406">
        <ele>2164.7</ele>
        <time>2024-04-27T10:46:50Z</time>
      </trkpt>
      <trkpt lat="45.84948" lon="6.4406">
        <ele>2164.7</ele>
        <time>2024-04-27T10:46:51Z</time>
      </trkpt>
      <trkpt lat="45.84948" lon="6.44059">
        <ele>2164.7</ele>
        <time>2024-04-27T10:46:52Z</time>
      </trkpt>
      <trkpt lat="45.84948" lon="6.44059">
        <ele>2164.7</ele>
        <time>2024-04-27T10:46:53Z</time>
      </trkpt>
      <trkpt lat="45.84948" lon="6.44058">
        <ele>2163.6</ele>
        <time>2024-04-27T10:46:54Z</time>
      </trkpt>
      <trkpt lat="45.84948" lon="6.44057">
        <ele>2163.6</ele>
        <time>2024-04-27T10:46:55Z</time>
      </trkpt>
      <trkpt lat="45.84947" lon="6.44056">
        <ele>2163.6</ele>
        <time>2024-04-27T10:46:56Z</time>
      </trkpt>
      <trkpt lat="45.84947" lon="6.44056">
        <ele>2163.6</ele>
        <time>2024-04-27T10:46:57Z</time>
      </trkpt>
      <trkpt lat="45.84947" lon="6.44056">
        <ele>2163.6</ele>
        <time>2024-04-27T10:46:58Z</time>
      </trkpt>
      <trkpt lat="45.84947" lon="6.44055">
        <ele>2163.6</ele>
        <time>2024-04-27T10:46:59Z</time>
      </trkpt>
      <trkpt lat="45.84947" lon="6.44055">
        <ele>2162.6</ele>
        <time>2024-04-27T10:47:00Z</time>
      </trkpt>
      <trkpt lat="45.84947" lon="6.44055">
        <ele>2162.6</ele>
        <time>2024-04-27T10:47:01Z</time>
      </trkpt>
      <trkpt lat="45.84947" lon="6.44055">
        <ele>2162.6</ele>
        <time>2024-04-27T10:47:02Z</time>
      </trkpt>
      <trkpt lat="45.84947" lon="6.44055">
        <ele>2162.6</ele>
        <time>2024-04-27T10:47:03Z</time>
      </trkpt>
      <trkpt lat="45.84947" lon="6.44055">
        <ele>2162.6</ele>
        <time>2024-04-27T10:47:04Z</time>
      </trkpt>
      <trkpt lat="45.84947" lon="6.44054">
        <ele>2162.6</ele>
        <time>2024-04-27T10:47:05Z</time>
      </trkpt>
      <trkpt lat="45.84947" lon="6.44054">
        <ele>2162.6</ele>
        <time>2024-04-27T10:47:06Z</time>
      </trkpt>
      <trkpt lat="45.84947" lon="6.44053">
        <ele>2162.6</ele>
        <time>2024-04-27T10:47:07Z</time>
      </trkpt>
      <trkpt lat="45.84947" lon="6.44052">
        <ele>2162.6</ele>
        <time>2024-04-27T10:47:08Z</time>
      </trkpt>
      <trkpt lat="45.84947" lon="6.44052">
        <ele>2162.6</ele>
        <time>2024-04-27T10:47:09Z</time>
      </trkpt>
      <trkpt lat="45.84948" lon="6.44051">
        <ele>2162.6</ele>
        <time>2024-04-27T10:47:10Z</time>
      </trkpt>
      <trkpt lat="45.84948" lon="6.44051">
        <ele>2162.6</ele>
        <time>2024-04-27T10:47:11Z</time>
      </trkpt>
      <trkpt lat="45.84948" lon="6.44051">
        <ele>2162.6</ele>
        <time>2024-04-27T10:47:12Z</time>
      </trkpt>
      <trkpt lat="45.84948" lon="6.44051">
        <ele>2162.6</ele>
        <time>2024-04-27T10:47:13Z</time>
      </trkpt>
      <trkpt lat="45.84948" lon="6.44051">
        <ele>2162.6</ele>
        <time>2024-04-27T10:47:14Z</time>
      </trkpt>
      <trkpt lat="45.84948" lon="6.44051">
        <ele>2162.6</ele>
        <time>2024-04-27T10:47:15Z</time>
      </trkpt>
      <trkpt lat="45.84949" lon="6.44051">
        <ele>2162.6</ele>
        <time>2024-04-27T10:47:16Z</time>
      </trkpt>
      <trkpt lat="45.84949" lon="6.44051">
        <ele>2162.6</ele>
        <time>2024-04-27T10:47:17Z</time>
      </trkpt>
      <trkpt lat="45.84949" lon="6.44051">
        <ele>2163.6</ele>
        <time>2024-04-27T10:47:18Z</time>
      </trkpt>
      <trkpt lat="45.84949" lon="6.44051">
        <ele>2163.6</ele>
        <time>2024-04-27T10:47:19Z</time>
      </trkpt>
      <trkpt lat="45.84949" lon="6.44051">
        <ele>2163.6</ele>
        <time>2024-04-27T10:47:20Z</time>
      </trkpt>
      <trkpt lat="45.8495" lon="6.44051">
        <ele>2163.6</ele>
        <time>2024-04-27T10:47:21Z</time>
      </trkpt>
      <trkpt lat="45.8495" lon="6.4405">
        <ele>2163.6</ele>
        <time>2024-04-27T10:47:22Z</time>
      </trkpt>
      <trkpt lat="45.8495" lon="6.4405">
        <ele>2163.6</ele>
        <time>2024-04-27T10:47:23Z</time>
      </trkpt>
      <trkpt lat="45.8495" lon="6.4405">
        <ele>2163.6</ele>
        <time>2024-04-27T10:47:24Z</time>
      </trkpt>
      <trkpt lat="45.8495" lon="6.4405">
        <ele>2163.6</ele>
        <time>2024-04-27T10:47:25Z</time>
      </trkpt>
      <trkpt lat="45.8495" lon="6.4405">
        <ele>2163.6</ele>
        <time>2024-04-27T10:47:26Z</time>
      </trkpt>
      <trkpt lat="45.8495" lon="6.4405">
        <ele>2163.6</ele>
        <time>2024-04-27T10:47:27Z</time>
      </trkpt>
      <trkpt lat="45.8495" lon="6.4405">
        <ele>2163.6</ele>
        <time>2024-04-27T10:47:28Z</time>
      </trkpt>
      <trkpt lat="45.8495" lon="6.4405">
        <ele>2163.6</ele>
        <time>2024-04-27T10:47:29Z</time>
      </trkpt>
      <trkpt lat="45.8495" lon="6.4405">
        <ele>2163.6</ele>
        <time>2024-04-27T10:47:30Z</time>
      </trkpt>
      <trkpt lat="45.8495" lon="6.4405">
        <ele>2163.6</ele>
        <time>2024-04-27T10:47:31Z</time>
      </trkpt>
      <trkpt lat="45.8495" lon="6.4405">
        <ele>2164.7</ele>
        <time>2024-04-27T10:47:32Z</time>
      </trkpt>
      <trkpt lat="45.8495" lon="6.4405">
        <ele>2164.7</ele>
        <time>2024-04-27T10:47:33Z</time>
      </trkpt>
      <trkpt lat="45.8495" lon="6.4405">
        <ele>2164.7</ele>
        <time>2024-04-27T10:47:34Z</time>
      </trkpt>
      <trkpt lat="45.8495" lon="6.4405">
        <ele>2164.7</ele>
        <time>2024-04-27T10:47:35Z</time>
      </trkpt>
      <trkpt lat="45.8495" lon="6.44049">
        <ele>2164.7</ele>
        <time>2024-04-27T10:47:36Z</time>
      </trkpt>
      <trkpt lat="45.8495" lon="6.44049">
        <ele>2164.7</ele>
        <time>2024-04-27T10:47:37Z</time>
      </trkpt>
      <trkpt lat="45.8495" lon="6.44049">
        <ele>2163.6</ele>
        <time>2024-04-27T10:47:38Z</time>
      </trkpt>
      <trkpt lat="45.8495" lon="6.44049">
        <ele>2163.6</ele>
        <time>2024-04-27T10:47:39Z</time>
      </trkpt>
      <trkpt lat="45.8495" lon="6.44049">
        <ele>2163.6</ele>
        <time>2024-04-27T10:47:40Z</time>
      </trkpt>
      <trkpt lat="45.8495" lon="6.44049">
        <ele>2163.6</ele>
        <time>2024-04-27T10:47:41Z</time>
      </trkpt>
      <trkpt lat="45.8495" lon="6.44048">
        <ele>2163.6</ele>
        <time>2024-04-27T10:47:42Z</time>
      </trkpt>
      <trkpt lat="45.8495" lon="6.44048">
        <ele>2163.6</ele>
        <time>2024-04-27T10:47:43Z</time>
      </trkpt>
      <trkpt lat="45.8495" lon="6.44047">
        <ele>2163.6</ele>
        <time>2024-04-27T10:47:44Z</time>
      </trkpt>
      <trkpt lat="45.8495" lon="6.44047">
        <ele>2163.6</ele>
        <time>2024-04-27T10:47:45Z</time>
      </trkpt>
      <trkpt lat="45.8495" lon="6.44046">
        <ele>2163.6</ele>
        <time>2024-04-27T10:47:46Z</time>
      </trkpt>
      <trkpt lat="45.8495" lon="6.44045">
        <ele>2163.6</ele>
        <time>2024-04-27T10:47:47Z</time>
      </trkpt>
      <trkpt lat="45.8495" lon="6.44045">
        <ele>2163.6</ele>
        <time>2024-04-27T10:47:48Z</time>
      </trkpt>
      <trkpt lat="45.8495" lon="6.44044">
        <ele>2163.6</ele>
        <time>2024-04-27T10:47:49Z</time>
      </trkpt>
      <trkpt lat="45.8495" lon="6.44044">
        <ele>2163.6</ele>
        <time>2024-04-27T10:47:50Z</time>
      </trkpt>
      <trkpt lat="45.8495" lon="6.44044">
        <ele>2163.6</ele>
        <time>2024-04-27T10:47:51Z</time>
      </trkpt>
      <trkpt lat="45.8495" lon="6.44043">
        <ele>2163.6</ele>
        <time>2024-04-27T10:47:52Z</time>
      </trkpt>
      <trkpt lat="45.8495" lon="6.44043">
        <ele>2163.6</ele>
        <time>2024-04-27T10:47:53Z</time>
      </trkpt>
      <trkpt lat="45.8495" lon="6.44043">
        <ele>2163.6</ele>
        <time>2024-04-27T10:47:54Z</time>
      </trkpt>
      <trkpt lat="45.84949" lon="6.44043">
        <ele>2163.6</ele>
        <time>2024-04-27T10:47:55Z</time>
      </trkpt>
      <trkpt lat="45.84949" lon="6.44043">
        <ele>2163.6</ele>
        <time>2024-04-27T10:47:56Z</time>
      </trkpt>
      <trkpt lat="45.84949" lon="6.44042">
        <ele>2163.6</ele>
        <time>2024-04-27T10:47:57Z</time>
      </trkpt>
      <trkpt lat="45.84949" lon="6.44041">
        <ele>2162.6</ele>
        <time>2024-04-27T10:47:58Z</time>
      </trkpt>
      <trkpt lat="45.84949" lon="6.4404">
        <ele>2162.6</ele>
        <time>2024-04-27T10:47:59Z</time>
      </trkpt>
      <trkpt lat="45.84949" lon="6.44039">
        <ele>2162.6</ele>
        <time>2024-04-27T10:48:00Z</time>
      </trkpt>
      <trkpt lat="45.84949" lon="6.44039">
        <ele>2162.6</ele>
        <time>2024-04-27T10:48:01Z</time>
      </trkpt>
      <trkpt lat="45.84949" lon="6.44039">
        <ele>2162.6</ele>
        <time>2024-04-27T10:48:02Z</time>
      </trkpt>
      <trkpt lat="45.84949" lon="6.44039">
        <ele>2162.6</ele>
        <time>2024-04-27T10:48:03Z</time>
      </trkpt>
      <trkpt lat="45.84949" lon="6.44039">
        <ele>2162.6</ele>
        <time>2024-04-27T10:48:04Z</time>
      </trkpt>
      <trkpt lat="45.84949" lon="6.44039">
        <ele>2162.6</ele>
        <time>2024-04-27T10:48:05Z</time>
      </trkpt>
      <trkpt lat="45.84949" lon="6.44039">
        <ele>2162.6</ele>
        <time>2024-04-27T10:48:06Z</time>
      </trkpt>
      <trkpt lat="45.84949" lon="6.44036">
        <ele>2162.6</ele>
        <time>2024-04-27T10:48:07Z</time>
      </trkpt>
      <trkpt lat="45.84949" lon="6.44036">
        <ele>2162.6</ele>
        <time>2024-04-27T10:48:08Z</time>
      </trkpt>
      <trkpt lat="45.84949" lon="6.44036">
        <ele>2162.6</ele>
        <time>2024-04-27T10:48:09Z</time>
      </trkpt>
      <trkpt lat="45.84949" lon="6.44036">
        <ele>2162.6</ele>
        <time>2024-04-27T10:48:10Z</time>
      </trkpt>
      <trkpt lat="45.84949" lon="6.44036">
        <ele>2162.6</ele>
        <time>2024-04-27T10:48:11Z</time>
      </trkpt>
      <trkpt lat="45.84949" lon="6.44036">
        <ele>2161.7</ele>
        <time>2024-04-27T10:48:12Z</time>
      </trkpt>
      <trkpt lat="45.84949" lon="6.44036">
        <ele>2161.7</ele>
        <time>2024-04-27T10:48:13Z</time>
      </trkpt>
      <trkpt lat="45.84949" lon="6.44036">
        <ele>2161.7</ele>
        <time>2024-04-27T10:48:14Z</time>
      </trkpt>
      <trkpt lat="45.84949" lon="6.44036">
        <ele>2161.7</ele>
        <time>2024-04-27T10:48:15Z</time>
      </trkpt>
      <trkpt lat="45.8495" lon="6.44036">
        <ele>2161.7</ele>
        <time>2024-04-27T10:48:16Z</time>
      </trkpt>
      <trkpt lat="45.8495" lon="6.44035">
        <ele>2161.7</ele>
        <time>2024-04-27T10:48:17Z</time>
      </trkpt>
      <trkpt lat="45.8495" lon="6.44035">
        <ele>2161.7</ele>
        <time>2024-04-27T10:48:18Z</time>
      </trkpt>
      <trkpt lat="45.8495" lon="6.44035">
        <ele>2161.7</ele>
        <time>2024-04-27T10:48:19Z</time>
      </trkpt>
      <trkpt lat="45.8495" lon="6.44035">
        <ele>2162.6</ele>
        <time>2024-04-27T10:48:20Z</time>
      </trkpt>
      <trkpt lat="45.8495" lon="6.44035">
        <ele>2162.6</ele>
        <time>2024-04-27T10:48:21Z</time>
      </trkpt>
      <trkpt lat="45.8495" lon="6.44035">
        <ele>2162.6</ele>
        <time>2024-04-27T10:48:22Z</time>
      </trkpt>
      <trkpt lat="45.8495" lon="6.44035">
        <ele>2162.6</ele>
        <time>2024-04-27T10:48:23Z</time>
      </trkpt>
      <trkpt lat="45.8495" lon="6.44035">
        <ele>2162.6</ele>
        <time>2024-04-27T10:48:24Z</time>
      </trkpt>
      <trkpt lat="45.8495" lon="6.44035">
        <ele>2162.6</ele>
        <time>2024-04-27T10:48:25Z</time>
      </trkpt>
      <trkpt lat="45.8495" lon="6.44035">
        <ele>2162.6</ele>
        <time>2024-04-27T10:48:26Z</time>
      </trkpt>
      <trkpt lat="45.8495" lon="6.44035">
        <ele>2162.6</ele>
        <time>2024-04-27T10:48:27Z</time>
      </trkpt>
      <trkpt lat="45.8495" lon="6.44035">
        <ele>2162.6</ele>
        <time>2024-04-27T10:48:28Z</time>
      </trkpt>
      <trkpt lat="45.8495" lon="6.44035">
        <ele>2162.6</ele>
        <time>2024-04-27T10:48:29Z</time>
      </trkpt>
      <trkpt lat="45.8495" lon="6.44035">
        <ele>2161.7</ele>
        <time>2024-04-27T10:48:30Z</time>
      </trkpt>
      <trkpt lat="45.8495" lon="6.44035">
        <ele>2161.7</ele>
        <time>2024-04-27T10:48:31Z</time>
      </trkpt>
      <trkpt lat="45.8495" lon="6.44035">
        <ele>2160.6</ele>
        <time>2024-04-27T10:48:32Z</time>
      </trkpt>
      <trkpt lat="45.84951" lon="6.44035">
        <ele>2160.6</ele>
        <time>2024-04-27T10:48:33Z</time>
      </trkpt>
      <trkpt lat="45.84951" lon="6.44035">
        <ele>2160.6</ele>
        <time>2024-04-27T10:48:34Z</time>
      </trkpt>
      <trkpt lat="45.84951" lon="6.44035">
        <ele>2160.6</ele>
        <time>2024-04-27T10:48:35Z</time>
      </trkpt>
      <trkpt lat="45.84951" lon="6.44035">
        <ele>2160.6</ele>
        <time>2024-04-27T10:48:36Z</time>
      </trkpt>
      <trkpt lat="45.84951" lon="6.44035">
        <ele>2160.6</ele>
        <time>2024-04-27T10:48:37Z</time>
      </trkpt>
      <trkpt lat="45.84951" lon="6.44035">
        <ele>2161.7</ele>
        <time>2024-04-27T10:48:38Z</time>
      </trkpt>
      <trkpt lat="45.84951" lon="6.44035">
        <ele>2161.7</ele>
        <time>2024-04-27T10:48:39Z</time>
      </trkpt>
      <trkpt lat="45.84952" lon="6.44035">
        <ele>2161.7</ele>
        <time>2024-04-27T10:48:40Z</time>
      </trkpt>
      <trkpt lat="45.84952" lon="6.44035">
        <ele>2161.7</ele>
        <time>2024-04-27T10:48:41Z</time>
      </trkpt>
      <trkpt lat="45.84952" lon="6.44035">
        <ele>2161.7</ele>
        <time>2024-04-27T10:48:42Z</time>
      </trkpt>
      <trkpt lat="45.84952" lon="6.44035">
        <ele>2161.7</ele>
        <time>2024-04-27T10:48:43Z</time>
      </trkpt>
      <trkpt lat="45.84952" lon="6.44034">
        <ele>2162.6</ele>
        <time>2024-04-27T10:48:44Z</time>
      </trkpt>
      <trkpt lat="45.84953" lon="6.44034">
        <ele>2162.6</ele>
        <time>2024-04-27T10:48:45Z</time>
      </trkpt>
      <trkpt lat="45.84953" lon="6.44034">
        <ele>2162.6</ele>
        <time>2024-04-27T10:48:46Z</time>
      </trkpt>
      <trkpt lat="45.84953" lon="6.44034">
        <ele>2162.6</ele>
        <time>2024-04-27T10:48:47Z</time>
      </trkpt>
      <trkpt lat="45.84953" lon="6.44034">
        <ele>2162.6</ele>
        <time>2024-04-27T10:48:48Z</time>
      </trkpt>
      <trkpt lat="45.84953" lon="6.44034">
        <ele>2162.6</ele>
        <time>2024-04-27T10:48:49Z</time>
      </trkpt>
      <trkpt lat="45.84954" lon="6.44034">
        <ele>2162.6</ele>
        <time>2024-04-27T10:48:50Z</time>
      </trkpt>
      <trkpt lat="45.84954" lon="6.44034">
        <ele>2162.6</ele>
        <time>2024-04-27T10:48:51Z</time>
      </trkpt>
      <trkpt lat="45.84954" lon="6.44034">
        <ele>2162.6</ele>
        <time>2024-04-27T10:48:52Z</time>
      </trkpt>
      <trkpt lat="45.84954" lon="6.44034">
        <ele>2162.6</ele>
        <time>2024-04-27T10:48:53Z</time>
      </trkpt>
      <trkpt lat="45.84954" lon="6.44034">
        <ele>2162.6</ele>
        <time>2024-04-27T10:48:54Z</time>
      </trkpt>
      <trkpt lat="45.84954" lon="6.44034">
        <ele>2162.6</ele>
        <time>2024-04-27T10:48:55Z</time>
      </trkpt>
      <trkpt lat="45.84954" lon="6.44033">
        <ele>2161.7</ele>
        <time>2024-04-27T10:48:56Z</time>
      </trkpt>
      <trkpt lat="45.84954" lon="6.44033">
        <ele>2161.7</ele>
        <time>2024-04-27T10:48:57Z</time>
      </trkpt>
      <trkpt lat="45.84954" lon="6.44033">
        <ele>2160.6</ele>
        <time>2024-04-27T10:48:58Z</time>
      </trkpt>
      <trkpt lat="45.84954" lon="6.44033">
        <ele>2160.6</ele>
        <time>2024-04-27T10:48:59Z</time>
      </trkpt>
      <trkpt lat="45.84955" lon="6.44033">
        <ele>2160.6</ele>
        <time>2024-04-27T10:49:00Z</time>
      </trkpt>
      <trkpt lat="45.84955" lon="6.44032">
        <ele>2160.6</ele>
        <time>2024-04-27T10:49:01Z</time>
      </trkpt>
      <trkpt lat="45.84955" lon="6.44032">
        <ele>2160.6</ele>
        <time>2024-04-27T10:49:02Z</time>
      </trkpt>
      <trkpt lat="45.84955" lon="6.44032">
        <ele>2160.6</ele>
        <time>2024-04-27T10:49:03Z</time>
      </trkpt>
      <trkpt lat="45.84955" lon="6.44032">
        <ele>2161.7</ele>
        <time>2024-04-27T10:49:04Z</time>
      </trkpt>
      <trkpt lat="45.84955" lon="6.44032">
        <ele>2161.7</ele>
        <time>2024-04-27T10:49:05Z</time>
      </trkpt>
      <trkpt lat="45.84955" lon="6.44032">
        <ele>2161.7</ele>
        <time>2024-04-27T10:49:06Z</time>
      </trkpt>
      <trkpt lat="45.84955" lon="6.44032">
        <ele>2161.7</ele>
        <time>2024-04-27T10:49:07Z</time>
      </trkpt>
      <trkpt lat="45.84955" lon="6.44032">
        <ele>2161.7</ele>
        <time>2024-04-27T10:49:08Z</time>
      </trkpt>
      <trkpt lat="45.84955" lon="6.44032">
        <ele>2161.7</ele>
        <time>2024-04-27T10:49:09Z</time>
      </trkpt>
      <trkpt lat="45.84955" lon="6.44032">
        <ele>2161.7</ele>
        <time>2024-04-27T10:49:10Z</time>
      </trkpt>
      <trkpt lat="45.84955" lon="6.44032">
        <ele>2161.7</ele>
        <time>2024-04-27T10:49:11Z</time>
      </trkpt>
      <trkpt lat="45.84955" lon="6.44031">
        <ele>2163.6</ele>
        <time>2024-04-27T10:49:12Z</time>
      </trkpt>
      <trkpt lat="45.84955" lon="6.44031">
        <ele>2163.6</ele>
        <time>2024-04-27T10:49:13Z</time>
      </trkpt>
      <trkpt lat="45.84955" lon="6.44031">
        <ele>2163.6</ele>
        <time>2024-04-27T10:49:14Z</time>
      </trkpt>
      <trkpt lat="45.84955" lon="6.44031">
        <ele>2163.6</ele>
        <time>2024-04-27T10:49:15Z</time>
      </trkpt>
      <trkpt lat="45.84955" lon="6.44031">
        <ele>2163.6</ele>
        <time>2024-04-27T10:49:16Z</time>
      </trkpt>
      <trkpt lat="45.84955" lon="6.44031">
        <ele>2163.6</ele>
        <time>2024-04-27T10:49:17Z</time>
      </trkpt>
      <trkpt lat="45.84955" lon="6.44031">
        <ele>2163.6</ele>
        <time>2024-04-27T10:49:18Z</time>
      </trkpt>
      <trkpt lat="45.84955" lon="6.44031">
        <ele>2163.6</ele>
        <time>2024-04-27T10:49:19Z</time>
      </trkpt>
      <trkpt lat="45.84955" lon="6.44031">
        <ele>2163.6</ele>
        <time>2024-04-27T10:49:20Z</time>
      </trkpt>
      <trkpt lat="45.84955" lon="6.4403">
        <ele>2163.6</ele>
        <time>2024-04-27T10:49:21Z</time>
      </trkpt>
      <trkpt lat="45.84955" lon="6.4403">
        <ele>2163.6</ele>
        <time>2024-04-27T10:49:22Z</time>
      </trkpt>
      <trkpt lat="45.84955" lon="6.4403">
        <ele>2163.6</ele>
        <time>2024-04-27T10:49:23Z</time>
      </trkpt>
      <trkpt lat="45.84955" lon="6.4403">
        <ele>2163.6</ele>
        <time>2024-04-27T10:49:24Z</time>
      </trkpt>
      <trkpt lat="45.84955" lon="6.4403">
        <ele>2163.6</ele>
        <time>2024-04-27T10:49:25Z</time>
      </trkpt>
      <trkpt lat="45.84955" lon="6.4403">
        <ele>2163.6</ele>
        <time>2024-04-27T10:49:26Z</time>
      </trkpt>
      <trkpt lat="45.84955" lon="6.4403">
        <ele>2163.6</ele>
        <time>2024-04-27T10:49:27Z</time>
      </trkpt>
      <trkpt lat="45.84955" lon="6.4403">
        <ele>2163.6</ele>
        <time>2024-04-27T10:49:28Z</time>
      </trkpt>
      <trkpt lat="45.84955" lon="6.4403">
        <ele>2163.6</ele>
        <time>2024-04-27T10:49:29Z</time>
      </trkpt>
      <trkpt lat="45.84955" lon="6.4403">
        <ele>2163.6</ele>
        <time>2024-04-27T10:49:30Z</time>
      </trkpt>
      <trkpt lat="45.84955" lon="6.4403">
        <ele>2163.6</ele>
        <time>2024-04-27T10:49:31Z</time>
      </trkpt>
      <trkpt lat="45.84955" lon="6.4403">
        <ele>2163.6</ele>
        <time>2024-04-27T10:49:32Z</time>
      </trkpt>
      <trkpt lat="45.84955" lon="6.4403">
        <ele>2163.6</ele>
        <time>2024-04-27T10:49:33Z</time>
      </trkpt>
      <trkpt lat="45.84955" lon="6.4403">
        <ele>2163.6</ele>
        <time>2024-04-27T10:49:34Z</time>
      </trkpt>
      <trkpt lat="45.84955" lon="6.4403">
        <ele>2163.6</ele>
        <time>2024-04-27T10:49:35Z</time>
      </trkpt>
      <trkpt lat="45.84955" lon="6.4403">
        <ele>2163.6</ele>
        <time>2024-04-27T10:49:36Z</time>
      </trkpt>
      <trkpt lat="45.84955" lon="6.4403">
        <ele>2163.6</ele>
        <time>2024-04-27T10:49:37Z</time>
      </trkpt>
      <trkpt lat="45.84955" lon="6.4403">
        <ele>2163.6</ele>
        <time>2024-04-27T10:49:38Z</time>
      </trkpt>
      <trkpt lat="45.84955" lon="6.4403">
        <ele>2163.6</ele>
        <time>2024-04-27T10:49:39Z</time>
      </trkpt>
      <trkpt lat="45.84955" lon="6.4403">
        <ele>2163.6</ele>
        <time>2024-04-27T10:49:40Z</time>
      </trkpt>
      <trkpt lat="45.84955" lon="6.4403">
        <ele>2163.6</ele>
        <time>2024-04-27T10:49:41Z</time>
      </trkpt>
      <trkpt lat="45.84955" lon="6.4403">
        <ele>2163.6</ele>
        <time>2024-04-27T10:49:42Z</time>
      </trkpt>
      <trkpt lat="45.84955" lon="6.4403">
        <ele>2163.6</ele>
        <time>2024-04-27T10:49:43Z</time>
      </trkpt>
      <trkpt lat="45.84955" lon="6.4403">
        <ele>2163.6</ele>
        <time>2024-04-27T10:49:44Z</time>
      </trkpt>
      <trkpt lat="45.84955" lon="6.4403">
        <ele>2163.6</ele>
        <time>2024-04-27T10:49:45Z</time>
      </trkpt>
      <trkpt lat="45.84955" lon="6.4403">
        <ele>2163.6</ele>
        <time>2024-04-27T10:49:46Z</time>
      </trkpt>
      <trkpt lat="45.84955" lon="6.4403">
        <ele>2163.6</ele>
        <time>2024-04-27T10:49:47Z</time>
      </trkpt>
      <trkpt lat="45.84955" lon="6.4403">
        <ele>2163.6</ele>
        <time>2024-04-27T10:49:48Z</time>
      </trkpt>
      <trkpt lat="45.84955" lon="6.4403">
        <ele>2163.6</ele>
        <time>2024-04-27T10:49:49Z</time>
      </trkpt>
      <trkpt lat="45.84955" lon="6.4403">
        <ele>2163.6</ele>
        <time>2024-04-27T10:49:50Z</time>
      </trkpt>
      <trkpt lat="45.84955" lon="6.4403">
        <ele>2163.6</ele>
        <time>2024-04-27T10:49:51Z</time>
      </trkpt>
      <trkpt lat="45.84955" lon="6.4403">
        <ele>2163.6</ele>
        <time>2024-04-27T10:49:52Z</time>
      </trkpt>
      <trkpt lat="45.84955" lon="6.4403">
        <ele>2163.6</ele>
        <time>2024-04-27T10:49:53Z</time>
      </trkpt>
      <trkpt lat="45.84955" lon="6.4403">
        <ele>2163.6</ele>
        <time>2024-04-27T10:49:54Z</time>
      </trkpt>
      <trkpt lat="45.84955" lon="6.4403">
        <ele>2163.6</ele>
        <time>2024-04-27T10:49:55Z</time>
      </trkpt>
      <trkpt lat="45.84955" lon="6.4403">
        <ele>2163.6</ele>
        <time>2024-04-27T10:49:56Z</time>
      </trkpt>
      <trkpt lat="45.84955" lon="6.4403">
        <ele>2163.6</ele>
        <time>2024-04-27T10:49:57Z</time>
      </trkpt>
      <trkpt lat="45.84955" lon="6.4403">
        <ele>2163.6</ele>
        <time>2024-04-27T10:49:58Z</time>
      </trkpt>
      <trkpt lat="45.84955" lon="6.4403">
        <ele>2163.6</ele>
        <time>2024-04-27T10:49:59Z</time>
      </trkpt>
      <trkpt lat="45.84955" lon="6.4403">
        <ele>2163.6</ele>
        <time>2024-04-27T10:50:00Z</time>
      </trkpt>
      <trkpt lat="45.84955" lon="6.4403">
        <ele>2163.6</ele>
        <time>2024-04-27T10:50:01Z</time>
      </trkpt>
      <trkpt lat="45.84955" lon="6.4403">
        <ele>2163.6</ele>
        <time>2024-04-27T10:50:02Z</time>
      </trkpt>
      <trkpt lat="45.84955" lon="6.4403">
        <ele>2163.6</ele>
        <time>2024-04-27T10:50:03Z</time>
      </trkpt>
      <trkpt lat="45.84955" lon="6.4403">
        <ele>2163.6</ele>
        <time>2024-04-27T10:50:04Z</time>
      </trkpt>
      <trkpt lat="45.84955" lon="6.4403">
        <ele>2163.6</ele>
        <time>2024-04-27T10:50:05Z</time>
      </trkpt>
      <trkpt lat="45.84955" lon="6.4403">
        <ele>2163.6</ele>
        <time>2024-04-27T10:50:06Z</time>
      </trkpt>
      <trkpt lat="45.84955" lon="6.4403">
        <ele>2163.6</ele>
        <time>2024-04-27T10:50:07Z</time>
      </trkpt>
      <trkpt lat="45.84955" lon="6.4403">
        <ele>2163.6</ele>
        <time>2024-04-27T10:50:08Z</time>
      </trkpt>
      <trkpt lat="45.84955" lon="6.4403">
        <ele>2163.6</ele>
        <time>2024-04-27T10:50:09Z</time>
      </trkpt>
      <trkpt lat="45.84955" lon="6.4403">
        <ele>2163.6</ele>
        <time>2024-04-27T10:50:10Z</time>
      </trkpt>
      <trkpt lat="45.84956" lon="6.4403">
        <ele>2163.6</ele>
        <time>2024-04-27T10:50:11Z</time>
      </trkpt>
      <trkpt lat="45.84956" lon="6.4403">
        <ele>2163.6</ele>
        <time>2024-04-27T10:50:12Z</time>
      </trkpt>
      <trkpt lat="45.84956" lon="6.4403">
        <ele>2163.6</ele>
        <time>2024-04-27T10:50:13Z</time>
      </trkpt>
      <trkpt lat="45.84956" lon="6.4403">
        <ele>2162.6</ele>
        <time>2024-04-27T10:50:14Z</time>
      </trkpt>
      <trkpt lat="45.84956" lon="6.4403">
        <ele>2162.6</ele>
        <time>2024-04-27T10:50:15Z</time>
      </trkpt>
      <trkpt lat="45.84956" lon="6.4403">
        <ele>2162.6</ele>
        <time>2024-04-27T10:50:16Z</time>
      </trkpt>
      <trkpt lat="45.84956" lon="6.4403">
        <ele>2162.6</ele>
        <time>2024-04-27T10:50:17Z</time>
      </trkpt>
      <trkpt lat="45.84956" lon="6.4403">
        <ele>2162.6</ele>
        <time>2024-04-27T10:50:18Z</time>
      </trkpt>
      <trkpt lat="45.84956" lon="6.4403">
        <ele>2162.6</ele>
        <time>2024-04-27T10:50:19Z</time>
      </trkpt>
      <trkpt lat="45.84956" lon="6.4403">
        <ele>2162.6</ele>
        <time>2024-04-27T10:50:20Z</time>
      </trkpt>
      <trkpt lat="45.84956" lon="6.4403">
        <ele>2162.6</ele>
        <time>2024-04-27T10:50:21Z</time>
      </trkpt>
      <trkpt lat="45.84956" lon="6.4403">
        <ele>2162.6</ele>
        <time>2024-04-27T10:50:22Z</time>
      </trkpt>
      <trkpt lat="45.84956" lon="6.4403">
        <ele>2162.6</ele>
        <time>2024-04-27T10:50:23Z</time>
      </trkpt>
      <trkpt lat="45.84956" lon="6.4403">
        <ele>2162.6</ele>
        <time>2024-04-27T10:50:24Z</time>
      </trkpt>
      <trkpt lat="45.84957" lon="6.44029">
        <ele>2162.6</ele>
        <time>2024-04-27T10:50:25Z</time>
      </trkpt>
      <trkpt lat="45.84957" lon="6.44029">
        <ele>2162.6</ele>
        <time>2024-04-27T10:50:26Z</time>
      </trkpt>
      <trkpt lat="45.84957" lon="6.44029">
        <ele>2162.6</ele>
        <time>2024-04-27T10:50:27Z</time>
      </trkpt>
      <trkpt lat="45.84957" lon="6.44029">
        <ele>2162.6</ele>
        <time>2024-04-27T10:50:28Z</time>
      </trkpt>
      <trkpt lat="45.84957" lon="6.44029">
        <ele>2162.6</ele>
        <time>2024-04-27T10:50:29Z</time>
      </trkpt>
      <trkpt lat="45.84957" lon="6.44029">
        <ele>2163.6</ele>
        <time>2024-04-27T10:50:30Z</time>
      </trkpt>
      <trkpt lat="45.84957" lon="6.44029">
        <ele>2163.6</ele>
        <time>2024-04-27T10:50:31Z</time>
      </trkpt>
      <trkpt lat="45.84957" lon="6.44029">
        <ele>2163.6</ele>
        <time>2024-04-27T10:50:32Z</time>
      </trkpt>
      <trkpt lat="45.84956" lon="6.44029">
        <ele>2163.6</ele>
        <time>2024-04-27T10:50:33Z</time>
      </trkpt>
      <trkpt lat="45.84956" lon="6.44029">
        <ele>2163.6</ele>
        <time>2024-04-27T10:50:34Z</time>
      </trkpt>
      <trkpt lat="45.84956" lon="6.44029">
        <ele>2163.6</ele>
        <time>2024-04-27T10:50:35Z</time>
      </trkpt>
      <trkpt lat="45.84956" lon="6.44029">
        <ele>2163.6</ele>
        <time>2024-04-27T10:50:36Z</time>
      </trkpt>
      <trkpt lat="45.84956" lon="6.44028">
        <ele>2163.6</ele>
        <time>2024-04-27T10:50:37Z</time>
      </trkpt>
      <trkpt lat="45.84956" lon="6.44028">
        <ele>2163.6</ele>
        <time>2024-04-27T10:50:38Z</time>
      </trkpt>
      <trkpt lat="45.84956" lon="6.44028">
        <ele>2163.6</ele>
        <time>2024-04-27T10:50:39Z</time>
      </trkpt>
      <trkpt lat="45.84956" lon="6.44028">
        <ele>2163.6</ele>
        <time>2024-04-27T10:50:40Z</time>
      </trkpt>
      <trkpt lat="45.84956" lon="6.44028">
        <ele>2163.6</ele>
        <time>2024-04-27T10:50:41Z</time>
      </trkpt>
      <trkpt lat="45.84956" lon="6.44028">
        <ele>2164.7</ele>
        <time>2024-04-27T10:50:42Z</time>
      </trkpt>
      <trkpt lat="45.84956" lon="6.44028">
        <ele>2164.7</ele>
        <time>2024-04-27T10:50:43Z</time>
      </trkpt>
      <trkpt lat="45.84956" lon="6.44028">
        <ele>2164.7</ele>
        <time>2024-04-27T10:50:44Z</time>
      </trkpt>
      <trkpt lat="45.84956" lon="6.44028">
        <ele>2164.7</ele>
        <time>2024-04-27T10:50:45Z</time>
      </trkpt>
      <trkpt lat="45.84956" lon="6.44028">
        <ele>2164.7</ele>
        <time>2024-04-27T10:50:46Z</time>
      </trkpt>
      <trkpt lat="45.84956" lon="6.44028">
        <ele>2164.7</ele>
        <time>2024-04-27T10:50:47Z</time>
      </trkpt>
      <trkpt lat="45.84956" lon="6.44028">
        <ele>2165.6</ele>
        <time>2024-04-27T10:50:48Z</time>
      </trkpt>
      <trkpt lat="45.84956" lon="6.44028">
        <ele>2165.6</ele>
        <time>2024-04-27T10:50:49Z</time>
      </trkpt>
      <trkpt lat="45.84956" lon="6.44028">
        <ele>2166.7</ele>
        <time>2024-04-27T10:50:50Z</time>
      </trkpt>
      <trkpt lat="45.84956" lon="6.44028">
        <ele>2166.7</ele>
        <time>2024-04-27T10:50:51Z</time>
      </trkpt>
      <trkpt lat="45.84956" lon="6.44028">
        <ele>2166.7</ele>
        <time>2024-04-27T10:50:52Z</time>
      </trkpt>
      <trkpt lat="45.84956" lon="6.44028">
        <ele>2166.7</ele>
        <time>2024-04-27T10:50:53Z</time>
      </trkpt>
      <trkpt lat="45.84957" lon="6.44028">
        <ele>2167.6</ele>
        <time>2024-04-27T10:50:54Z</time>
      </trkpt>
      <trkpt lat="45.84957" lon="6.44028">
        <ele>2167.6</ele>
        <time>2024-04-27T10:50:55Z</time>
      </trkpt>
      <trkpt lat="45.84957" lon="6.44028">
        <ele>2167.6</ele>
        <time>2024-04-27T10:50:56Z</time>
      </trkpt>
      <trkpt lat="45.84957" lon="6.44028">
        <ele>2167.6</ele>
        <time>2024-04-27T10:50:57Z</time>
      </trkpt>
      <trkpt lat="45.84957" lon="6.44028">
        <ele>2167.6</ele>
        <time>2024-04-27T10:50:58Z</time>
      </trkpt>
      <trkpt lat="45.84957" lon="6.44028">
        <ele>2167.6</ele>
        <time>2024-04-27T10:50:59Z</time>
      </trkpt>
      <trkpt lat="45.84957" lon="6.44028">
        <ele>2167.6</ele>
        <time>2024-04-27T10:51:00Z</time>
      </trkpt>
      <trkpt lat="45.84957" lon="6.44028">
        <ele>2167.6</ele>
        <time>2024-04-27T10:51:01Z</time>
      </trkpt>
      <trkpt lat="45.84957" lon="6.44028">
        <ele>2166.7</ele>
        <time>2024-04-27T10:51:02Z</time>
      </trkpt>
      <trkpt lat="45.84957" lon="6.44028">
        <ele>2166.7</ele>
        <time>2024-04-27T10:51:03Z</time>
      </trkpt>
      <trkpt lat="45.84957" lon="6.44028">
        <ele>2166.7</ele>
        <time>2024-04-27T10:51:04Z</time>
      </trkpt>
      <trkpt lat="45.84957" lon="6.44028">
        <ele>2166.7</ele>
        <time>2024-04-27T10:51:05Z</time>
      </trkpt>
      <trkpt lat="45.84957" lon="6.44028">
        <ele>2166.7</ele>
        <time>2024-04-27T10:51:06Z</time>
      </trkpt>
      <trkpt lat="45.84957" lon="6.44028">
        <ele>2166.7</ele>
        <time>2024-04-27T10:51:07Z</time>
      </trkpt>
      <trkpt lat="45.84957" lon="6.44028">
        <ele>2166.7</ele>
        <time>2024-04-27T10:51:08Z</time>
      </trkpt>
      <trkpt lat="45.84957" lon="6.44028">
        <ele>2166.7</ele>
        <time>2024-04-27T10:51:09Z</time>
      </trkpt>
      <trkpt lat="45.84957" lon="6.44028">
        <ele>2166.7</ele>
        <time>2024-04-27T10:51:10Z</time>
      </trkpt>
      <trkpt lat="45.84957" lon="6.44028">
        <ele>2166.7</ele>
        <time>2024-04-27T10:51:11Z</time>
      </trkpt>
      <trkpt lat="45.84957" lon="6.44027">
        <ele>2166.7</ele>
        <time>2024-04-27T10:51:12Z</time>
      </trkpt>
      <trkpt lat="45.84957" lon="6.44027">
        <ele>2166.7</ele>
        <time>2024-04-27T10:51:13Z</time>
      </trkpt>
      <trkpt lat="45.84957" lon="6.44027">
        <ele>2166.7</ele>
        <time>2024-04-27T10:51:14Z</time>
      </trkpt>
      <trkpt lat="45.84957" lon="6.44027">
        <ele>2166.7</ele>
        <time>2024-04-27T10:51:15Z</time>
      </trkpt>
      <trkpt lat="45.84957" lon="6.44027">
        <ele>2166.7</ele>
        <time>2024-04-27T10:51:16Z</time>
      </trkpt>
      <trkpt lat="45.84957" lon="6.44027">
        <ele>2166.7</ele>
        <time>2024-04-27T10:51:17Z</time>
      </trkpt>
      <trkpt lat="45.84956" lon="6.44027">
        <ele>2166.7</ele>
        <time>2024-04-27T10:51:18Z</time>
      </trkpt>
      <trkpt lat="45.84956" lon="6.44027">
        <ele>2166.7</ele>
        <time>2024-04-27T10:51:19Z</time>
      </trkpt>
      <trkpt lat="45.84956" lon="6.44027">
        <ele>2166.7</ele>
        <time>2024-04-27T10:51:20Z</time>
      </trkpt>
      <trkpt lat="45.84956" lon="6.44027">
        <ele>2166.7</ele>
        <time>2024-04-27T10:51:21Z</time>
      </trkpt>
      <trkpt lat="45.84956" lon="6.44027">
        <ele>2166.7</ele>
        <time>2024-04-27T10:51:22Z</time>
      </trkpt>
      <trkpt lat="45.84956" lon="6.44027">
        <ele>2166.7</ele>
        <time>2024-04-27T10:51:23Z</time>
      </trkpt>
      <trkpt lat="45.84955" lon="6.44026">
        <ele>2166.7</ele>
        <time>2024-04-27T10:51:24Z</time>
      </trkpt>
      <trkpt lat="45.84956" lon="6.44027">
        <ele>2166.7</ele>
        <time>2024-04-27T10:51:25Z</time>
      </trkpt>
      <trkpt lat="45.84956" lon="6.44027">
        <ele>2166.7</ele>
        <time>2024-04-27T10:51:26Z</time>
      </trkpt>
      <trkpt lat="45.84955" lon="6.44027">
        <ele>2166.7</ele>
        <time>2024-04-27T10:51:27Z</time>
      </trkpt>
      <trkpt lat="45.84955" lon="6.44027">
        <ele>2166.7</ele>
        <time>2024-04-27T10:51:28Z</time>
      </trkpt>
      <trkpt lat="45.84955" lon="6.44027">
        <ele>2166.7</ele>
        <time>2024-04-27T10:51:29Z</time>
      </trkpt>
      <trkpt lat="45.84955" lon="6.44027">
        <ele>2166.7</ele>
        <time>2024-04-27T10:51:30Z</time>
      </trkpt>
      <trkpt lat="45.84955" lon="6.44027">
        <ele>2166.7</ele>
        <time>2024-04-27T10:51:31Z</time>
      </trkpt>
      <trkpt lat="45.84955" lon="6.44027">
        <ele>2166.7</ele>
        <time>2024-04-27T10:51:32Z</time>
      </trkpt>
      <trkpt lat="45.84955" lon="6.44027">
        <ele>2166.7</ele>
        <time>2024-04-27T10:51:33Z</time>
      </trkpt>
      <trkpt lat="45.84954" lon="6.44026">
        <ele>2166.7</ele>
        <time>2024-04-27T10:51:34Z</time>
      </trkpt>
      <trkpt lat="45.84954" lon="6.44026">
        <ele>2166.7</ele>
        <time>2024-04-27T10:51:35Z</time>
      </trkpt>
      <trkpt lat="45.84954" lon="6.44026">
        <ele>2166.7</ele>
        <time>2024-04-27T10:51:36Z</time>
      </trkpt>
      <trkpt lat="45.84954" lon="6.44026">
        <ele>2166.7</ele>
        <time>2024-04-27T10:51:37Z</time>
      </trkpt>
      <trkpt lat="45.84954" lon="6.44026">
        <ele>2166.7</ele>
        <time>2024-04-27T10:51:38Z</time>
      </trkpt>
      <trkpt lat="45.84954" lon="6.44025">
        <ele>2166.7</ele>
        <time>2024-04-27T10:51:39Z</time>
      </trkpt>
      <trkpt lat="45.84954" lon="6.44025">
        <ele>2166.7</ele>
        <time>2024-04-27T10:51:40Z</time>
      </trkpt>
      <trkpt lat="45.84954" lon="6.44025">
        <ele>2166.7</ele>
        <time>2024-04-27T10:51:41Z</time>
      </trkpt>
      <trkpt lat="45.84954" lon="6.44025">
        <ele>2166.7</ele>
        <time>2024-04-27T10:51:42Z</time>
      </trkpt>
      <trkpt lat="45.84954" lon="6.44025">
        <ele>2166.7</ele>
        <time>2024-04-27T10:51:43Z</time>
      </trkpt>
      <trkpt lat="45.84954" lon="6.44025">
        <ele>2167.6</ele>
        <time>2024-04-27T10:51:44Z</time>
      </trkpt>
      <trkpt lat="45.84954" lon="6.44025">
        <ele>2167.6</ele>
        <time>2024-04-27T10:51:45Z</time>
      </trkpt>
      <trkpt lat="45.84954" lon="6.44024">
        <ele>2167.6</ele>
        <time>2024-04-27T10:51:46Z</time>
      </trkpt>
      <trkpt lat="45.84954" lon="6.44024">
        <ele>2167.6</ele>
        <time>2024-04-27T10:51:47Z</time>
      </trkpt>
      <trkpt lat="45.84954" lon="6.44023">
        <ele>2167.6</ele>
        <time>2024-04-27T10:51:48Z</time>
      </trkpt>
      <trkpt lat="45.84954" lon="6.44023">
        <ele>2167.6</ele>
        <time>2024-04-27T10:51:49Z</time>
      </trkpt>
      <trkpt lat="45.84954" lon="6.44022">
        <ele>2167.6</ele>
        <time>2024-04-27T10:51:50Z</time>
      </trkpt>
      <trkpt lat="45.84954" lon="6.44022">
        <ele>2167.6</ele>
        <time>2024-04-27T10:51:51Z</time>
      </trkpt>
      <trkpt lat="45.84954" lon="6.44022">
        <ele>2167.6</ele>
        <time>2024-04-27T10:51:52Z</time>
      </trkpt>
      <trkpt lat="45.84955" lon="6.44021">
        <ele>2167.6</ele>
        <time>2024-04-27T10:51:53Z</time>
      </trkpt>
      <trkpt lat="45.84955" lon="6.44021">
        <ele>2167.6</ele>
        <time>2024-04-27T10:51:54Z</time>
      </trkpt>
      <trkpt lat="45.84956" lon="6.44021">
        <ele>2167.6</ele>
        <time>2024-04-27T10:51:55Z</time>
      </trkpt>
      <trkpt lat="45.84956" lon="6.44021">
        <ele>2166.7</ele>
        <time>2024-04-27T10:51:56Z</time>
      </trkpt>
      <trkpt lat="45.84956" lon="6.4402">
        <ele>2166.7</ele>
        <time>2024-04-27T10:51:57Z</time>
      </trkpt>
      <trkpt lat="45.84956" lon="6.4402">
        <ele>2166.7</ele>
        <time>2024-04-27T10:51:58Z</time>
      </trkpt>
      <trkpt lat="45.84956" lon="6.4402">
        <ele>2166.7</ele>
        <time>2024-04-27T10:51:59Z</time>
      </trkpt>
      <trkpt lat="45.84956" lon="6.4402">
        <ele>2166.7</ele>
        <time>2024-04-27T10:52:00Z</time>
      </trkpt>
      <trkpt lat="45.84956" lon="6.4402">
        <ele>2166.7</ele>
        <time>2024-04-27T10:52:01Z</time>
      </trkpt>
      <trkpt lat="45.84956" lon="6.4402">
        <ele>2166.7</ele>
        <time>2024-04-27T10:52:02Z</time>
      </trkpt>
      <trkpt lat="45.84957" lon="6.4402">
        <ele>2166.7</ele>
        <time>2024-04-27T10:52:03Z</time>
      </trkpt>
      <trkpt lat="45.84957" lon="6.4402">
        <ele>2166.7</ele>
        <time>2024-04-27T10:52:04Z</time>
      </trkpt>
      <trkpt lat="45.84957" lon="6.4402">
        <ele>2166.7</ele>
        <time>2024-04-27T10:52:05Z</time>
      </trkpt>
      <trkpt lat="45.84957" lon="6.4402">
        <ele>2166.7</ele>
        <time>2024-04-27T10:52:06Z</time>
      </trkpt>
      <trkpt lat="45.84957" lon="6.4402">
        <ele>2166.7</ele>
        <time>2024-04-27T10:52:07Z</time>
      </trkpt>
      <trkpt lat="45.84957" lon="6.4402">
        <ele>2166.7</ele>
        <time>2024-04-27T10:52:08Z</time>
      </trkpt>
      <trkpt lat="45.84958" lon="6.4402">
        <ele>2166.7</ele>
        <time>2024-04-27T10:52:09Z</time>
      </trkpt>
      <trkpt lat="45.84958" lon="6.4402">
        <ele>2166.7</ele>
        <time>2024-04-27T10:52:10Z</time>
      </trkpt>
      <trkpt lat="45.84958" lon="6.4402">
        <ele>2166.7</ele>
        <time>2024-04-27T10:52:11Z</time>
      </trkpt>
      <trkpt lat="45.84958" lon="6.4402">
        <ele>2166.7</ele>
        <time>2024-04-27T10:52:12Z</time>
      </trkpt>
      <trkpt lat="45.84958" lon="6.4402">
        <ele>2166.7</ele>
        <time>2024-04-27T10:52:13Z</time>
      </trkpt>
      <trkpt lat="45.84959" lon="6.4402">
        <ele>2166.7</ele>
        <time>2024-04-27T10:52:14Z</time>
      </trkpt>
      <trkpt lat="45.84959" lon="6.4402">
        <ele>2166.7</ele>
        <time>2024-04-27T10:52:15Z</time>
      </trkpt>
      <trkpt lat="45.84959" lon="6.4402">
        <ele>2166.7</ele>
        <time>2024-04-27T10:52:16Z</time>
      </trkpt>
      <trkpt lat="45.84959" lon="6.4402">
        <ele>2166.7</ele>
        <time>2024-04-27T10:52:17Z</time>
      </trkpt>
      <trkpt lat="45.84959" lon="6.4402">
        <ele>2166.7</ele>
        <time>2024-04-27T10:52:18Z</time>
      </trkpt>
      <trkpt lat="45.84959" lon="6.4402">
        <ele>2166.7</ele>
        <time>2024-04-27T10:52:19Z</time>
      </trkpt>
      <trkpt lat="45.84959" lon="6.4402">
        <ele>2166.7</ele>
        <time>2024-04-27T10:52:20Z</time>
      </trkpt>
      <trkpt lat="45.84959" lon="6.4402">
        <ele>2166.7</ele>
        <time>2024-04-27T10:52:21Z</time>
      </trkpt>
      <trkpt lat="45.84959" lon="6.4402">
        <ele>2166.7</ele>
        <time>2024-04-27T10:52:22Z</time>
      </trkpt>
      <trkpt lat="45.84959" lon="6.4402">
        <ele>2166.7</ele>
        <time>2024-04-27T10:52:23Z</time>
      </trkpt>
      <trkpt lat="45.84959" lon="6.4402">
        <ele>2166.7</ele>
        <time>2024-04-27T10:52:24Z</time>
      </trkpt>
      <trkpt lat="45.84959" lon="6.4402">
        <ele>2166.7</ele>
        <time>2024-04-27T10:52:25Z</time>
      </trkpt>
      <trkpt lat="45.84959" lon="6.4402">
        <ele>2166.7</ele>
        <time>2024-04-27T10:52:26Z</time>
      </trkpt>
      <trkpt lat="45.84959" lon="6.4402">
        <ele>2166.7</ele>
        <time>2024-04-27T10:52:27Z</time>
      </trkpt>
      <trkpt lat="45.84959" lon="6.4402">
        <ele>2166.7</ele>
        <time>2024-04-27T10:52:28Z</time>
      </trkpt>
      <trkpt lat="45.84959" lon="6.4402">
        <ele>2166.7</ele>
        <time>2024-04-27T10:52:29Z</time>
      </trkpt>
      <trkpt lat="45.84959" lon="6.4402">
        <ele>2166.7</ele>
        <time>2024-04-27T10:52:30Z</time>
      </trkpt>
      <trkpt lat="45.84959" lon="6.4402">
        <ele>2166.7</ele>
        <time>2024-04-27T10:52:31Z</time>
      </trkpt>
      <trkpt lat="45.84959" lon="6.4402">
        <ele>2166.7</ele>
        <time>2024-04-27T10:52:32Z</time>
      </trkpt>
      <trkpt lat="45.84959" lon="6.4402">
        <ele>2166.7</ele>
        <time>2024-04-27T10:52:33Z</time>
      </trkpt>
      <trkpt lat="45.84959" lon="6.4402">
        <ele>2165.6</ele>
        <time>2024-04-27T10:52:34Z</time>
      </trkpt>
      <trkpt lat="45.84959" lon="6.4402">
        <ele>2165.6</ele>
        <time>2024-04-27T10:52:35Z</time>
      </trkpt>
      <trkpt lat="45.8496" lon="6.4402">
        <ele>2165.6</ele>
        <time>2024-04-27T10:52:36Z</time>
      </trkpt>
      <trkpt lat="45.8496" lon="6.44019">
        <ele>2165.6</ele>
        <time>2024-04-27T10:52:37Z</time>
      </trkpt>
      <trkpt lat="45.8496" lon="6.44019">
        <ele>2165.6</ele>
        <time>2024-04-27T10:52:38Z</time>
      </trkpt>
      <trkpt lat="45.84959" lon="6.44018">
        <ele>2165.6</ele>
        <time>2024-04-27T10:52:39Z</time>
      </trkpt>
      <trkpt lat="45.84959" lon="6.44017">
        <ele>2165.6</ele>
        <time>2024-04-27T10:52:40Z</time>
      </trkpt>
      <trkpt lat="45.84959" lon="6.44017">
        <ele>2165.6</ele>
        <time>2024-04-27T10:52:41Z</time>
      </trkpt>
      <trkpt lat="45.84959" lon="6.44017">
        <ele>2162.6</ele>
        <time>2024-04-27T10:52:42Z</time>
      </trkpt>
      <trkpt lat="45.84959" lon="6.44017">
        <ele>2162.6</ele>
        <time>2024-04-27T10:52:43Z</time>
      </trkpt>
      <trkpt lat="45.84959" lon="6.44017">
        <ele>2162.6</ele>
        <time>2024-04-27T10:52:44Z</time>
      </trkpt>
      <trkpt lat="45.84959" lon="6.44017">
        <ele>2162.6</ele>
        <time>2024-04-27T10:52:45Z</time>
      </trkpt>
      <trkpt lat="45.84959" lon="6.44017">
        <ele>2162.6</ele>
        <time>2024-04-27T10:52:46Z</time>
      </trkpt>
      <trkpt lat="45.84959" lon="6.44017">
        <ele>2162.6</ele>
        <time>2024-04-27T10:52:47Z</time>
      </trkpt>
      <trkpt lat="45.84959" lon="6.44017">
        <ele>2162.6</ele>
        <time>2024-04-27T10:52:48Z</time>
      </trkpt>
      <trkpt lat="45.84959" lon="6.44017">
        <ele>2162.6</ele>
        <time>2024-04-27T10:52:49Z</time>
      </trkpt>
      <trkpt lat="45.84959" lon="6.44017">
        <ele>2162.6</ele>
        <time>2024-04-27T10:52:50Z</time>
      </trkpt>
      <trkpt lat="45.84959" lon="6.44017">
        <ele>2162.6</ele>
        <time>2024-04-27T10:52:51Z</time>
      </trkpt>
      <trkpt lat="45.84959" lon="6.44016">
        <ele>2162.6</ele>
        <time>2024-04-27T10:52:52Z</time>
      </trkpt>
      <trkpt lat="45.84959" lon="6.44016">
        <ele>2162.6</ele>
        <time>2024-04-27T10:52:53Z</time>
      </trkpt>
      <trkpt lat="45.84959" lon="6.44016">
        <ele>2165.6</ele>
        <time>2024-04-27T10:52:54Z</time>
      </trkpt>
      <trkpt lat="45.84959" lon="6.44016">
        <ele>2165.6</ele>
        <time>2024-04-27T10:52:55Z</time>
      </trkpt>
      <trkpt lat="45.84959" lon="6.44016">
        <ele>2166.7</ele>
        <time>2024-04-27T10:52:56Z</time>
      </trkpt>
      <trkpt lat="45.84959" lon="6.44016">
        <ele>2166.7</ele>
        <time>2024-04-27T10:52:57Z</time>
      </trkpt>
      <trkpt lat="45.84959" lon="6.44016">
        <ele>2167.6</ele>
        <time>2024-04-27T10:52:58Z</time>
      </trkpt>
      <trkpt lat="45.84959" lon="6.44016">
        <ele>2167.6</ele>
        <time>2024-04-27T10:52:59Z</time>
      </trkpt>
      <trkpt lat="45.84959" lon="6.44016">
        <ele>2167.6</ele>
        <time>2024-04-27T10:53:00Z</time>
      </trkpt>
      <trkpt lat="45.84959" lon="6.44015">
        <ele>2167.6</ele>
        <time>2024-04-27T10:53:01Z</time>
      </trkpt>
      <trkpt lat="45.84959" lon="6.44015">
        <ele>2167.6</ele>
        <time>2024-04-27T10:53:02Z</time>
      </trkpt>
      <trkpt lat="45.84959" lon="6.44015">
        <ele>2167.6</ele>
        <time>2024-04-27T10:53:03Z</time>
      </trkpt>
      <trkpt lat="45.84959" lon="6.44015">
        <ele>2167.6</ele>
        <time>2024-04-27T10:53:04Z</time>
      </trkpt>
      <trkpt lat="45.84959" lon="6.44014">
        <ele>2167.6</ele>
        <time>2024-04-27T10:53:05Z</time>
      </trkpt>
      <trkpt lat="45.84959" lon="6.44014">
        <ele>2167.6</ele>
        <time>2024-04-27T10:53:06Z</time>
      </trkpt>
      <trkpt lat="45.84959" lon="6.44014">
        <ele>2167.6</ele>
        <time>2024-04-27T10:53:07Z</time>
      </trkpt>
      <trkpt lat="45.84959" lon="6.44014">
        <ele>2167.6</ele>
        <time>2024-04-27T10:53:08Z</time>
      </trkpt>
      <trkpt lat="45.84959" lon="6.44014">
        <ele>2167.6</ele>
        <time>2024-04-27T10:53:09Z</time>
      </trkpt>
      <trkpt lat="45.8496" lon="6.44014">
        <ele>2167.6</ele>
        <time>2024-04-27T10:53:10Z</time>
      </trkpt>
      <trkpt lat="45.8496" lon="6.44014">
        <ele>2167.6</ele>
        <time>2024-04-27T10:53:11Z</time>
      </trkpt>
      <trkpt lat="45.8496" lon="6.44014">
        <ele>2166.7</ele>
        <time>2024-04-27T10:53:12Z</time>
      </trkpt>
      <trkpt lat="45.8496" lon="6.44014">
        <ele>2166.7</ele>
        <time>2024-04-27T10:53:13Z</time>
      </trkpt>
      <trkpt lat="45.8496" lon="6.44014">
        <ele>2165.6</ele>
        <time>2024-04-27T10:53:14Z</time>
      </trkpt>
      <trkpt lat="45.8496" lon="6.44014">
        <ele>2165.6</ele>
        <time>2024-04-27T10:53:15Z</time>
      </trkpt>
      <trkpt lat="45.84959" lon="6.44014">
        <ele>2164.7</ele>
        <time>2024-04-27T10:53:16Z</time>
      </trkpt>
      <trkpt lat="45.84959" lon="6.44014">
        <ele>2164.7</ele>
        <time>2024-04-27T10:53:17Z</time>
      </trkpt>
      <trkpt lat="45.84959" lon="6.44014">
        <ele>2164.7</ele>
        <time>2024-04-27T10:53:18Z</time>
      </trkpt>
      <trkpt lat="45.84959" lon="6.44014">
        <ele>2164.7</ele>
        <time>2024-04-27T10:53:19Z</time>
      </trkpt>
      <trkpt lat="45.84959" lon="6.44014">
        <ele>2164.7</ele>
        <time>2024-04-27T10:53:20Z</time>
      </trkpt>
      <trkpt lat="45.84959" lon="6.44014">
        <ele>2164.7</ele>
        <time>2024-04-27T10:53:21Z</time>
      </trkpt>
      <trkpt lat="45.84959" lon="6.44014">
        <ele>2164.7</ele>
        <time>2024-04-27T10:53:22Z</time>
      </trkpt>
      <trkpt lat="45.84959" lon="6.44014">
        <ele>2164.7</ele>
        <time>2024-04-27T10:53:23Z</time>
      </trkpt>
      <trkpt lat="45.84959" lon="6.44014">
        <ele>2164.7</ele>
        <time>2024-04-27T10:53:24Z</time>
      </trkpt>
      <trkpt lat="45.84959" lon="6.44014">
        <ele>2164.7</ele>
        <time>2024-04-27T10:53:25Z</time>
      </trkpt>
      <trkpt lat="45.84959" lon="6.44014">
        <ele>2164.7</ele>
        <time>2024-04-27T10:53:26Z</time>
      </trkpt>
      <trkpt lat="45.84959" lon="6.44014">
        <ele>2164.7</ele>
        <time>2024-04-27T10:53:27Z</time>
      </trkpt>
      <trkpt lat="45.84959" lon="6.44014">
        <ele>2164.7</ele>
        <time>2024-04-27T10:53:28Z</time>
      </trkpt>
      <trkpt lat="45.84959" lon="6.44014">
        <ele>2164.7</ele>
        <time>2024-04-27T10:53:29Z</time>
      </trkpt>
      <trkpt lat="45.84959" lon="6.44015">
        <ele>2164.7</ele>
        <time>2024-04-27T10:53:30Z</time>
      </trkpt>
      <trkpt lat="45.84959" lon="6.44015">
        <ele>2164.7</ele>
        <time>2024-04-27T10:53:31Z</time>
      </trkpt>
      <trkpt lat="45.84959" lon="6.44015">
        <ele>2164.7</ele>
        <time>2024-04-27T10:53:32Z</time>
      </trkpt>
      <trkpt lat="45.84959" lon="6.44015">
        <ele>2164.7</ele>
        <time>2024-04-27T10:53:33Z</time>
      </trkpt>
      <trkpt lat="45.84959" lon="6.44015">
        <ele>2164.7</ele>
        <time>2024-04-27T10:53:34Z</time>
      </trkpt>
      <trkpt lat="45.84959" lon="6.44015">
        <ele>2164.7</ele>
        <time>2024-04-27T10:53:35Z</time>
      </trkpt>
      <trkpt lat="45.84959" lon="6.44015">
        <ele>2165.6</ele>
        <time>2024-04-27T10:53:36Z</time>
      </trkpt>
      <trkpt lat="45.84959" lon="6.44015">
        <ele>2165.6</ele>
        <time>2024-04-27T10:53:37Z</time>
      </trkpt>
      <trkpt lat="45.84959" lon="6.44015">
        <ele>2165.6</ele>
        <time>2024-04-27T10:53:38Z</time>
      </trkpt>
      <trkpt lat="45.84959" lon="6.44015">
        <ele>2165.6</ele>
        <time>2024-04-27T10:53:39Z</time>
      </trkpt>
      <trkpt lat="45.84959" lon="6.44015">
        <ele>2165.6</ele>
        <time>2024-04-27T10:53:40Z</time>
      </trkpt>
      <trkpt lat="45.84959" lon="6.44015">
        <ele>2165.6</ele>
        <time>2024-04-27T10:53:41Z</time>
      </trkpt>
      <trkpt lat="45.84959" lon="6.44015">
        <ele>2165.6</ele>
        <time>2024-04-27T10:53:42Z</time>
      </trkpt>
      <trkpt lat="45.84959" lon="6.44015">
        <ele>2165.6</ele>
        <time>2024-04-27T10:53:43Z</time>
      </trkpt>
      <trkpt lat="45.84959" lon="6.44015">
        <ele>2165.6</ele>
        <time>2024-04-27T10:53:44Z</time>
      </trkpt>
      <trkpt lat="45.84959" lon="6.44015">
        <ele>2165.6</ele>
        <time>2024-04-27T10:53:45Z</time>
      </trkpt>
      <trkpt lat="45.8496" lon="6.44015">
        <ele>2165.6</ele>
        <time>2024-04-27T10:53:46Z</time>
      </trkpt>
      <trkpt lat="45.8496" lon="6.44015">
        <ele>2165.6</ele>
        <time>2024-04-27T10:53:47Z</time>
      </trkpt>
      <trkpt lat="45.8496" lon="6.44015">
        <ele>2165.6</ele>
        <time>2024-04-27T10:53:48Z</time>
      </trkpt>
      <trkpt lat="45.8496" lon="6.44016">
        <ele>2165.6</ele>
        <time>2024-04-27T10:53:49Z</time>
      </trkpt>
      <trkpt lat="45.8496" lon="6.44016">
        <ele>2165.6</ele>
        <time>2024-04-27T10:53:50Z</time>
      </trkpt>
      <trkpt lat="45.8496" lon="6.44016">
        <ele>2165.6</ele>
        <time>2024-04-27T10:53:51Z</time>
      </trkpt>
      <trkpt lat="45.8496" lon="6.44016">
        <ele>2165.6</ele>
        <time>2024-04-27T10:53:52Z</time>
      </trkpt>
      <trkpt lat="45.8496" lon="6.44016">
        <ele>2165.6</ele>
        <time>2024-04-27T10:53:53Z</time>
      </trkpt>
      <trkpt lat="45.8496" lon="6.44016">
        <ele>2164.7</ele>
        <time>2024-04-27T10:53:54Z</time>
      </trkpt>
      <trkpt lat="45.84961" lon="6.44016">
        <ele>2164.7</ele>
        <time>2024-04-27T10:53:55Z</time>
      </trkpt>
      <trkpt lat="45.84961" lon="6.44016">
        <ele>2164.7</ele>
        <time>2024-04-27T10:53:56Z</time>
      </trkpt>
      <trkpt lat="45.84961" lon="6.44016">
        <ele>2164.7</ele>
        <time>2024-04-27T10:53:57Z</time>
      </trkpt>
      <trkpt lat="45.84961" lon="6.44016">
        <ele>2164.7</ele>
        <time>2024-04-27T10:53:58Z</time>
      </trkpt>
      <trkpt lat="45.84961" lon="6.44016">
        <ele>2164.7</ele>
        <time>2024-04-27T10:53:59Z</time>
      </trkpt>
      <trkpt lat="45.84961" lon="6.44016">
        <ele>2164.7</ele>
        <time>2024-04-27T10:54:00Z</time>
      </trkpt>
      <trkpt lat="45.84961" lon="6.44016">
        <ele>2164.7</ele>
        <time>2024-04-27T10:54:01Z</time>
      </trkpt>
      <trkpt lat="45.84961" lon="6.44016">
        <ele>2164.7</ele>
        <time>2024-04-27T10:54:02Z</time>
      </trkpt>
      <trkpt lat="45.84961" lon="6.44016">
        <ele>2164.7</ele>
        <time>2024-04-27T10:54:03Z</time>
      </trkpt>
      <trkpt lat="45.84962" lon="6.44016">
        <ele>2164.7</ele>
        <time>2024-04-27T10:54:04Z</time>
      </trkpt>
      <trkpt lat="45.84962" lon="6.44016">
        <ele>2164.7</ele>
        <time>2024-04-27T10:54:05Z</time>
      </trkpt>
      <trkpt lat="45.84962" lon="6.44016">
        <ele>2164.7</ele>
        <time>2024-04-27T10:54:06Z</time>
      </trkpt>
      <trkpt lat="45.84962" lon="6.44016">
        <ele>2164.7</ele>
        <time>2024-04-27T10:54:07Z</time>
      </trkpt>
      <trkpt lat="45.84962" lon="6.44016">
        <ele>2164.7</ele>
        <time>2024-04-27T10:54:08Z</time>
      </trkpt>
      <trkpt lat="45.84962" lon="6.44016">
        <ele>2164.7</ele>
        <time>2024-04-27T10:54:09Z</time>
      </trkpt>
      <trkpt lat="45.84962" lon="6.44016">
        <ele>2164.7</ele>
        <time>2024-04-27T10:54:10Z</time>
      </trkpt>
      <trkpt lat="45.84962" lon="6.44016">
        <ele>2164.7</ele>
        <time>2024-04-27T10:54:11Z</time>
      </trkpt>
      <trkpt lat="45.84962" lon="6.44016">
        <ele>2164.7</ele>
        <time>2024-04-27T10:54:12Z</time>
      </trkpt>
      <trkpt lat="45.84962" lon="6.44016">
        <ele>2164.7</ele>
        <time>2024-04-27T10:54:13Z</time>
      </trkpt>
      <trkpt lat="45.84962" lon="6.44016">
        <ele>2164.7</ele>
        <time>2024-04-27T10:54:14Z</time>
      </trkpt>
      <trkpt lat="45.84962" lon="6.44016">
        <ele>2164.7</ele>
        <time>2024-04-27T10:54:15Z</time>
      </trkpt>
      <trkpt lat="45.84962" lon="6.44017">
        <ele>2164.7</ele>
        <time>2024-04-27T10:54:16Z</time>
      </trkpt>
      <trkpt lat="45.84962" lon="6.44017">
        <ele>2164.7</ele>
        <time>2024-04-27T10:54:17Z</time>
      </trkpt>
      <trkpt lat="45.84962" lon="6.44017">
        <ele>2164.7</ele>
        <time>2024-04-27T10:54:18Z</time>
      </trkpt>
      <trkpt lat="45.84962" lon="6.44017">
        <ele>2164.7</ele>
        <time>2024-04-27T10:54:19Z</time>
      </trkpt>
      <trkpt lat="45.84962" lon="6.44017">
        <ele>2164.7</ele>
        <time>2024-04-27T10:54:20Z</time>
      </trkpt>
      <trkpt lat="45.84963" lon="6.44017">
        <ele>2164.7</ele>
        <time>2024-04-27T10:54:21Z</time>
      </trkpt>
      <trkpt lat="45.84963" lon="6.44017">
        <ele>2164.7</ele>
        <time>2024-04-27T10:54:22Z</time>
      </trkpt>
      <trkpt lat="45.84963" lon="6.44017">
        <ele>2164.7</ele>
        <time>2024-04-27T10:54:23Z</time>
      </trkpt>
      <trkpt lat="45.84963" lon="6.44017">
        <ele>2165.6</ele>
        <time>2024-04-27T10:54:24Z</time>
      </trkpt>
      <trkpt lat="45.84963" lon="6.44017">
        <ele>2165.6</ele>
        <time>2024-04-27T10:54:25Z</time>
      </trkpt>
      <trkpt lat="45.84963" lon="6.44017">
        <ele>2166.7</ele>
        <time>2024-04-27T10:54:26Z</time>
      </trkpt>
      <trkpt lat="45.84963" lon="6.44017">
        <ele>2166.7</ele>
        <time>2024-04-27T10:54:27Z</time>
      </trkpt>
      <trkpt lat="45.84963" lon="6.44017">
        <ele>2166.7</ele>
        <time>2024-04-27T10:54:28Z</time>
      </trkpt>
      <trkpt lat="45.84963" lon="6.44017">
        <ele>2166.7</ele>
        <time>2024-04-27T10:54:29Z</time>
      </trkpt>
      <trkpt lat="45.84963" lon="6.44017">
        <ele>2167.6</ele>
        <time>2024-04-27T10:54:30Z</time>
      </trkpt>
      <trkpt lat="45.84963" lon="6.44017">
        <ele>2167.6</ele>
        <time>2024-04-27T10:54:31Z</time>
      </trkpt>
      <trkpt lat="45.84963" lon="6.44017">
        <ele>2167.6</ele>
        <time>2024-04-27T10:54:32Z</time>
      </trkpt>
      <trkpt lat="45.84963" lon="6.44017">
        <ele>2167.6</ele>
        <time>2024-04-27T10:54:33Z</time>
      </trkpt>
      <trkpt lat="45.84963" lon="6.44017">
        <ele>2167.6</ele>
        <time>2024-04-27T10:54:34Z</time>
      </trkpt>
      <trkpt lat="45.84963" lon="6.44017">
        <ele>2167.6</ele>
        <time>2024-04-27T10:54:35Z</time>
      </trkpt>
      <trkpt lat="45.84963" lon="6.44017">
        <ele>2167.6</ele>
        <time>2024-04-27T10:54:36Z</time>
      </trkpt>
      <trkpt lat="45.84963" lon="6.44017">
        <ele>2167.6</ele>
        <time>2024-04-27T10:54:37Z</time>
      </trkpt>
      <trkpt lat="45.84963" lon="6.44016">
        <ele>2167.6</ele>
        <time>2024-04-27T10:54:38Z</time>
      </trkpt>
      <trkpt lat="45.84963" lon="6.44016">
        <ele>2167.6</ele>
        <time>2024-04-27T10:54:39Z</time>
      </trkpt>
      <trkpt lat="45.84963" lon="6.44016">
        <ele>2167.6</ele>
        <time>2024-04-27T10:54:40Z</time>
      </trkpt>
      <trkpt lat="45.84963" lon="6.44016">
        <ele>2167.6</ele>
        <time>2024-04-27T10:54:41Z</time>
      </trkpt>
      <trkpt lat="45.84963" lon="6.44015">
        <ele>2167.6</ele>
        <time>2024-04-27T10:54:42Z</time>
      </trkpt>
      <trkpt lat="45.84963" lon="6.44015">
        <ele>2167.6</ele>
        <time>2024-04-27T10:54:43Z</time>
      </trkpt>
      <trkpt lat="45.84962" lon="6.44015">
        <ele>2167.6</ele>
        <time>2024-04-27T10:54:44Z</time>
      </trkpt>
      <trkpt lat="45.84962" lon="6.44015">
        <ele>2167.6</ele>
        <time>2024-04-27T10:54:45Z</time>
      </trkpt>
      <trkpt lat="45.84962" lon="6.44014">
        <ele>2167.6</ele>
        <time>2024-04-27T10:54:46Z</time>
      </trkpt>
      <trkpt lat="45.84962" lon="6.44014">
        <ele>2167.6</ele>
        <time>2024-04-27T10:54:47Z</time>
      </trkpt>
      <trkpt lat="45.84962" lon="6.44014">
        <ele>2167.6</ele>
        <time>2024-04-27T10:54:48Z</time>
      </trkpt>
      <trkpt lat="45.84962" lon="6.44013">
        <ele>2167.6</ele>
        <time>2024-04-27T10:54:49Z</time>
      </trkpt>
      <trkpt lat="45.84962" lon="6.44013">
        <ele>2167.6</ele>
        <time>2024-04-27T10:54:50Z</time>
      </trkpt>
      <trkpt lat="45.84962" lon="6.44013">
        <ele>2167.6</ele>
        <time>2024-04-27T10:54:51Z</time>
      </trkpt>
      <trkpt lat="45.84962" lon="6.44013">
        <ele>2167.6</ele>
        <time>2024-04-27T10:54:52Z</time>
      </trkpt>
      <trkpt lat="45.84962" lon="6.44012">
        <ele>2167.6</ele>
        <time>2024-04-27T10:54:53Z</time>
      </trkpt>
      <trkpt lat="45.84962" lon="6.44012">
        <ele>2167.6</ele>
        <time>2024-04-27T10:54:54Z</time>
      </trkpt>
      <trkpt lat="45.84962" lon="6.44012">
        <ele>2167.6</ele>
        <time>2024-04-27T10:54:55Z</time>
      </trkpt>
      <trkpt lat="45.84962" lon="6.44012">
        <ele>2167.6</ele>
        <time>2024-04-27T10:54:56Z</time>
      </trkpt>
      <trkpt lat="45.84962" lon="6.44012">
        <ele>2167.6</ele>
        <time>2024-04-27T10:54:57Z</time>
      </trkpt>
      <trkpt lat="45.84962" lon="6.44012">
        <ele>2167.6</ele>
        <time>2024-04-27T10:54:58Z</time>
      </trkpt>
      <trkpt lat="45.84962" lon="6.44012">
        <ele>2167.6</ele>
        <time>2024-04-27T10:54:59Z</time>
      </trkpt>
      <trkpt lat="45.84962" lon="6.44012">
        <ele>2167.6</ele>
        <time>2024-04-27T10:55:00Z</time>
      </trkpt>
      <trkpt lat="45.84962" lon="6.44012">
        <ele>2167.6</ele>
        <time>2024-04-27T10:55:01Z</time>
      </trkpt>
      <trkpt lat="45.84962" lon="6.44012">
        <ele>2167.6</ele>
        <time>2024-04-27T10:55:02Z</time>
      </trkpt>
      <trkpt lat="45.84962" lon="6.44012">
        <ele>2167.6</ele>
        <time>2024-04-27T10:55:03Z</time>
      </trkpt>
      <trkpt lat="45.84962" lon="6.44012">
        <ele>2167.6</ele>
        <time>2024-04-27T10:55:04Z</time>
      </trkpt>
      <trkpt lat="45.84962" lon="6.44011">
        <ele>2167.6</ele>
        <time>2024-04-27T10:55:05Z</time>
      </trkpt>
      <trkpt lat="45.84962" lon="6.44011">
        <ele>2167.6</ele>
        <time>2024-04-27T10:55:06Z</time>
      </trkpt>
      <trkpt lat="45.84962" lon="6.44011">
        <ele>2167.6</ele>
        <time>2024-04-27T10:55:07Z</time>
      </trkpt>
      <trkpt lat="45.84962" lon="6.44011">
        <ele>2167.6</ele>
        <time>2024-04-27T10:55:08Z</time>
      </trkpt>
      <trkpt lat="45.84962" lon="6.44011">
        <ele>2167.6</ele>
        <time>2024-04-27T10:55:09Z</time>
      </trkpt>
      <trkpt lat="45.84962" lon="6.44011">
        <ele>2167.6</ele>
        <time>2024-04-27T10:55:10Z</time>
      </trkpt>
      <trkpt lat="45.84962" lon="6.44011">
        <ele>2167.6</ele>
        <time>2024-04-27T10:55:11Z</time>
      </trkpt>
      <trkpt lat="45.84962" lon="6.44011">
        <ele>2168.7</ele>
        <time>2024-04-27T10:55:12Z</time>
      </trkpt>
      <trkpt lat="45.84962" lon="6.44011">
        <ele>2168.7</ele>
        <time>2024-04-27T10:55:13Z</time>
      </trkpt>
      <trkpt lat="45.84963" lon="6.44011">
        <ele>2168.7</ele>
        <time>2024-04-27T10:55:14Z</time>
      </trkpt>
      <trkpt lat="45.84963" lon="6.4401">
        <ele>2168.7</ele>
        <time>2024-04-27T10:55:15Z</time>
      </trkpt>
      <trkpt lat="45.84963" lon="6.4401">
        <ele>2168.7</ele>
        <time>2024-04-27T10:55:16Z</time>
      </trkpt>
      <trkpt lat="45.84963" lon="6.4401">
        <ele>2168.7</ele>
        <time>2024-04-27T10:55:17Z</time>
      </trkpt>
      <trkpt lat="45.84963" lon="6.4401">
        <ele>2168.7</ele>
        <time>2024-04-27T10:55:18Z</time>
      </trkpt>
      <trkpt lat="45.84963" lon="6.4401">
        <ele>2168.7</ele>
        <time>2024-04-27T10:55:19Z</time>
      </trkpt>
      <trkpt lat="45.84963" lon="6.4401">
        <ele>2168.7</ele>
        <time>2024-04-27T10:55:20Z</time>
      </trkpt>
      <trkpt lat="45.84963" lon="6.4401">
        <ele>2168.7</ele>
        <time>2024-04-27T10:55:21Z</time>
      </trkpt>
      <trkpt lat="45.84963" lon="6.4401">
        <ele>2170.7</ele>
        <time>2024-04-27T10:55:22Z</time>
      </trkpt>
      <trkpt lat="45.84963" lon="6.4401">
        <ele>2170.7</ele>
        <time>2024-04-27T10:55:23Z</time>
      </trkpt>
      <trkpt lat="45.84964" lon="6.4401">
        <ele>2170.7</ele>
        <time>2024-04-27T10:55:24Z</time>
      </trkpt>
      <trkpt lat="45.84964" lon="6.44009">
        <ele>2170.7</ele>
        <time>2024-04-27T10:55:25Z</time>
      </trkpt>
      <trkpt lat="45.84964" lon="6.44009">
        <ele>2169.6</ele>
        <time>2024-04-27T10:55:26Z</time>
      </trkpt>
      <trkpt lat="45.84964" lon="6.44009">
        <ele>2169.6</ele>
        <time>2024-04-27T10:55:27Z</time>
      </trkpt>
      <trkpt lat="45.84965" lon="6.44009">
        <ele>2169.6</ele>
        <time>2024-04-27T10:55:28Z</time>
      </trkpt>
      <trkpt lat="45.84965" lon="6.44009">
        <ele>2169.6</ele>
        <time>2024-04-27T10:55:29Z</time>
      </trkpt>
      <trkpt lat="45.84965" lon="6.44008">
        <ele>2169.6</ele>
        <time>2024-04-27T10:55:30Z</time>
      </trkpt>
      <trkpt lat="45.84965" lon="6.44008">
        <ele>2169.6</ele>
        <time>2024-04-27T10:55:31Z</time>
      </trkpt>
      <trkpt lat="45.84965" lon="6.44008">
        <ele>2169.6</ele>
        <time>2024-04-27T10:55:32Z</time>
      </trkpt>
      <trkpt lat="45.84965" lon="6.44008">
        <ele>2169.6</ele>
        <time>2024-04-27T10:55:33Z</time>
      </trkpt>
      <trkpt lat="45.84965" lon="6.44008">
        <ele>2169.6</ele>
        <time>2024-04-27T10:55:34Z</time>
      </trkpt>
      <trkpt lat="45.84965" lon="6.44008">
        <ele>2169.6</ele>
        <time>2024-04-27T10:55:35Z</time>
      </trkpt>
      <trkpt lat="45.84965" lon="6.44008">
        <ele>2169.6</ele>
        <time>2024-04-27T10:55:36Z</time>
      </trkpt>
      <trkpt lat="45.84965" lon="6.44008">
        <ele>2169.6</ele>
        <time>2024-04-27T10:55:37Z</time>
      </trkpt>
      <trkpt lat="45.84966" lon="6.44008">
        <ele>2169.6</ele>
        <time>2024-04-27T10:55:38Z</time>
      </trkpt>
      <trkpt lat="45.84966" lon="6.44008">
        <ele>2169.6</ele>
        <time>2024-04-27T10:55:39Z</time>
      </trkpt>
      <trkpt lat="45.84966" lon="6.44008">
        <ele>2169.6</ele>
        <time>2024-04-27T10:55:40Z</time>
      </trkpt>
      <trkpt lat="45.84966" lon="6.44008">
        <ele>2169.6</ele>
        <time>2024-04-27T10:55:41Z</time>
      </trkpt>
      <trkpt lat="45.84966" lon="6.44007">
        <ele>2169.6</ele>
        <time>2024-04-27T10:55:42Z</time>
      </trkpt>
      <trkpt lat="45.84966" lon="6.44007">
        <ele>2169.6</ele>
        <time>2024-04-27T10:55:43Z</time>
      </trkpt>
      <trkpt lat="45.84966" lon="6.44007">
        <ele>2169.6</ele>
        <time>2024-04-27T10:55:44Z</time>
      </trkpt>
      <trkpt lat="45.84966" lon="6.44007">
        <ele>2169.6</ele>
        <time>2024-04-27T10:55:45Z</time>
      </trkpt>
      <trkpt lat="45.84966" lon="6.44007">
        <ele>2169.6</ele>
        <time>2024-04-27T10:55:46Z</time>
      </trkpt>
      <trkpt lat="45.84966" lon="6.44007">
        <ele>2169.6</ele>
        <time>2024-04-27T10:55:47Z</time>
      </trkpt>
      <trkpt lat="45.84966" lon="6.44007">
        <ele>2168.7</ele>
        <time>2024-04-27T10:55:48Z</time>
      </trkpt>
      <trkpt lat="45.84966" lon="6.44007">
        <ele>2168.7</ele>
        <time>2024-04-27T10:55:49Z</time>
      </trkpt>
      <trkpt lat="45.84966" lon="6.44007">
        <ele>2168.7</ele>
        <time>2024-04-27T10:55:50Z</time>
      </trkpt>
      <trkpt lat="45.84966" lon="6.44007">
        <ele>2168.7</ele>
        <time>2024-04-27T10:55:51Z</time>
      </trkpt>
      <trkpt lat="45.84966" lon="6.44007">
        <ele>2167.6</ele>
        <time>2024-04-27T10:55:52Z</time>
      </trkpt>
      <trkpt lat="45.84966" lon="6.44006">
        <ele>2167.6</ele>
        <time>2024-04-27T10:55:53Z</time>
      </trkpt>
      <trkpt lat="45.84966" lon="6.44006">
        <ele>2167.6</ele>
        <time>2024-04-27T10:55:54Z</time>
      </trkpt>
      <trkpt lat="45.84966" lon="6.44006">
        <ele>2167.6</ele>
        <time>2024-04-27T10:55:55Z</time>
      </trkpt>
      <trkpt lat="45.84966" lon="6.44006">
        <ele>2167.6</ele>
        <time>2024-04-27T10:55:56Z</time>
      </trkpt>
      <trkpt lat="45.84966" lon="6.44006">
        <ele>2167.6</ele>
        <time>2024-04-27T10:55:57Z</time>
      </trkpt>
      <trkpt lat="45.84966" lon="6.44006">
        <ele>2167.6</ele>
        <time>2024-04-27T10:55:58Z</time>
      </trkpt>
      <trkpt lat="45.84966" lon="6.44006">
        <ele>2167.6</ele>
        <time>2024-04-27T10:55:59Z</time>
      </trkpt>
      <trkpt lat="45.84966" lon="6.44006">
        <ele>2167.6</ele>
        <time>2024-04-27T10:56:00Z</time>
      </trkpt>
      <trkpt lat="45.84966" lon="6.44006">
        <ele>2167.6</ele>
        <time>2024-04-27T10:56:01Z</time>
      </trkpt>
      <trkpt lat="45.84966" lon="6.44006">
        <ele>2168.7</ele>
        <time>2024-04-27T10:56:02Z</time>
      </trkpt>
      <trkpt lat="45.84966" lon="6.44005">
        <ele>2168.7</ele>
        <time>2024-04-27T10:56:03Z</time>
      </trkpt>
      <trkpt lat="45.84966" lon="6.44005">
        <ele>2168.7</ele>
        <time>2024-04-27T10:56:04Z</time>
      </trkpt>
      <trkpt lat="45.84966" lon="6.44005">
        <ele>2168.7</ele>
        <time>2024-04-27T10:56:05Z</time>
      </trkpt>
      <trkpt lat="45.84966" lon="6.44005">
        <ele>2168.7</ele>
        <time>2024-04-27T10:56:06Z</time>
      </trkpt>
      <trkpt lat="45.84966" lon="6.44005">
        <ele>2168.7</ele>
        <time>2024-04-27T10:56:07Z</time>
      </trkpt>
      <trkpt lat="45.84966" lon="6.44005">
        <ele>2168.7</ele>
        <time>2024-04-27T10:56:08Z</time>
      </trkpt>
      <trkpt lat="45.84966" lon="6.44005">
        <ele>2168.7</ele>
        <time>2024-04-27T10:56:09Z</time>
      </trkpt>
      <trkpt lat="45.84966" lon="6.44004">
        <ele>2168.7</ele>
        <time>2024-04-27T10:56:10Z</time>
      </trkpt>
      <trkpt lat="45.84966" lon="6.44004">
        <ele>2168.7</ele>
        <time>2024-04-27T10:56:11Z</time>
      </trkpt>
      <trkpt lat="45.84966" lon="6.44004">
        <ele>2168.7</ele>
        <time>2024-04-27T10:56:12Z</time>
      </trkpt>
      <trkpt lat="45.84966" lon="6.44004">
        <ele>2168.7</ele>
        <time>2024-04-27T10:56:13Z</time>
      </trkpt>
      <trkpt lat="45.84966" lon="6.44004">
        <ele>2168.7</ele>
        <time>2024-04-27T10:56:14Z</time>
      </trkpt>
      <trkpt lat="45.84966" lon="6.44004">
        <ele>2168.7</ele>
        <time>2024-04-27T10:56:15Z</time>
      </trkpt>
      <trkpt lat="45.84966" lon="6.44004">
        <ele>2168.7</ele>
        <time>2024-04-27T10:56:16Z</time>
      </trkpt>
      <trkpt lat="45.84966" lon="6.44004">
        <ele>2168.7</ele>
        <time>2024-04-27T10:56:17Z</time>
      </trkpt>
      <trkpt lat="45.84966" lon="6.44004">
        <ele>2169.6</ele>
        <time>2024-04-27T10:56:18Z</time>
      </trkpt>
      <trkpt lat="45.84966" lon="6.44004">
        <ele>2169.6</ele>
        <time>2024-04-27T10:56:19Z</time>
      </trkpt>
      <trkpt lat="45.84966" lon="6.44004">
        <ele>2169.6</ele>
        <time>2024-04-27T10:56:20Z</time>
      </trkpt>
      <trkpt lat="45.84966" lon="6.44004">
        <ele>2169.6</ele>
        <time>2024-04-27T10:56:21Z</time>
      </trkpt>
      <trkpt lat="45.84966" lon="6.44004">
        <ele>2169.6</ele>
        <time>2024-04-27T10:56:22Z</time>
      </trkpt>
      <trkpt lat="45.84966" lon="6.44004">
        <ele>2169.6</ele>
        <time>2024-04-27T10:56:23Z</time>
      </trkpt>
      <trkpt lat="45.84966" lon="6.44004">
        <ele>2169.6</ele>
        <time>2024-04-27T10:56:24Z</time>
      </trkpt>
      <trkpt lat="45.84966" lon="6.44004">
        <ele>2169.6</ele>
        <time>2024-04-27T10:56:25Z</time>
      </trkpt>
      <trkpt lat="45.84966" lon="6.44004">
        <ele>2169.6</ele>
        <time>2024-04-27T10:56:26Z</time>
      </trkpt>
      <trkpt lat="45.84966" lon="6.44004">
        <ele>2169.6</ele>
        <time>2024-04-27T10:56:27Z</time>
      </trkpt>
      <trkpt lat="45.84966" lon="6.44004">
        <ele>2169.6</ele>
        <time>2024-04-27T10:56:28Z</time>
      </trkpt>
      <trkpt lat="45.84966" lon="6.44003">
        <ele>2169.6</ele>
        <time>2024-04-27T10:56:29Z</time>
      </trkpt>
      <trkpt lat="45.84966" lon="6.44002">
        <ele>2169.6</ele>
        <time>2024-04-27T10:56:30Z</time>
      </trkpt>
      <trkpt lat="45.84966" lon="6.44002">
        <ele>2169.6</ele>
        <time>2024-04-27T10:56:31Z</time>
      </trkpt>
      <trkpt lat="45.84966" lon="6.44001">
        <ele>2170.7</ele>
        <time>2024-04-27T10:56:32Z</time>
      </trkpt>
      <trkpt lat="45.84966" lon="6.44">
        <ele>2170.7</ele>
        <time>2024-04-27T10:56:33Z</time>
      </trkpt>
      <trkpt lat="45.84966" lon="6.43998">
        <ele>2170.7</ele>
        <time>2024-04-27T10:56:34Z</time>
      </trkpt>
      <trkpt lat="45.84966" lon="6.43997">
        <ele>2170.7</ele>
        <time>2024-04-27T10:56:35Z</time>
      </trkpt>
      <trkpt lat="45.84966" lon="6.43995">
        <ele>2170.7</ele>
        <time>2024-04-27T10:56:36Z</time>
      </trkpt>
      <trkpt lat="45.84966" lon="6.43994">
        <ele>2170.7</ele>
        <time>2024-04-27T10:56:37Z</time>
      </trkpt>
      <trkpt lat="45.84966" lon="6.43993">
        <ele>2170.7</ele>
        <time>2024-04-27T10:56:38Z</time>
      </trkpt>
      <trkpt lat="45.84966" lon="6.43993">
        <ele>2170.7</ele>
        <time>2024-04-27T10:56:39Z</time>
      </trkpt>
      <trkpt lat="45.84966" lon="6.43993">
        <ele>2170.7</ele>
        <time>2024-04-27T10:56:40Z</time>
      </trkpt>
      <trkpt lat="45.84966" lon="6.43993">
        <ele>2170.7</ele>
        <time>2024-04-27T10:56:41Z</time>
      </trkpt>
      <trkpt lat="45.84966" lon="6.43993">
        <ele>2169.6</ele>
        <time>2024-04-27T10:56:42Z</time>
      </trkpt>
      <trkpt lat="45.84966" lon="6.43993">
        <ele>2169.6</ele>
        <time>2024-04-27T10:56:43Z</time>
      </trkpt>
      <trkpt lat="45.84966" lon="6.43993">
        <ele>2169.6</ele>
        <time>2024-04-27T10:56:44Z</time>
      </trkpt>
      <trkpt lat="45.84966" lon="6.43993">
        <ele>2169.6</ele>
        <time>2024-04-27T10:56:45Z</time>
      </trkpt>
      <trkpt lat="45.84966" lon="6.43993">
        <ele>2169.6</ele>
        <time>2024-04-27T10:56:46Z</time>
      </trkpt>
      <trkpt lat="45.84966" lon="6.43993">
        <ele>2169.6</ele>
        <time>2024-04-27T10:56:47Z</time>
      </trkpt>
      <trkpt lat="45.84966" lon="6.43993">
        <ele>2168.7</ele>
        <time>2024-04-27T10:56:48Z</time>
      </trkpt>
      <trkpt lat="45.84966" lon="6.43993">
        <ele>2168.7</ele>
        <time>2024-04-27T10:56:49Z</time>
      </trkpt>
      <trkpt lat="45.84967" lon="6.43993">
        <ele>2168.7</ele>
        <time>2024-04-27T10:56:50Z</time>
      </trkpt>
      <trkpt lat="45.84967" lon="6.43993">
        <ele>2168.7</ele>
        <time>2024-04-27T10:56:51Z</time>
      </trkpt>
      <trkpt lat="45.84967" lon="6.43993">
        <ele>2167.6</ele>
        <time>2024-04-27T10:56:52Z</time>
      </trkpt>
      <trkpt lat="45.84967" lon="6.43993">
        <ele>2167.6</ele>
        <time>2024-04-27T10:56:53Z</time>
      </trkpt>
      <trkpt lat="45.84967" lon="6.43993">
        <ele>2167.6</ele>
        <time>2024-04-27T10:56:54Z</time>
      </trkpt>
      <trkpt lat="45.84967" lon="6.43993">
        <ele>2167.6</ele>
        <time>2024-04-27T10:56:55Z</time>
      </trkpt>
      <trkpt lat="45.84967" lon="6.43993">
        <ele>2167.6</ele>
        <time>2024-04-27T10:56:56Z</time>
      </trkpt>
      <trkpt lat="45.84967" lon="6.43993">
        <ele>2167.6</ele>
        <time>2024-04-27T10:56:57Z</time>
      </trkpt>
      <trkpt lat="45.84967" lon="6.43993">
        <ele>2167.6</ele>
        <time>2024-04-27T10:56:58Z</time>
      </trkpt>
      <trkpt lat="45.84967" lon="6.43992">
        <ele>2167.6</ele>
        <time>2024-04-27T10:56:59Z</time>
      </trkpt>
      <trkpt lat="45.84967" lon="6.43992">
        <ele>2167.6</ele>
        <time>2024-04-27T10:57:00Z</time>
      </trkpt>
      <trkpt lat="45.84967" lon="6.43992">
        <ele>2167.6</ele>
        <time>2024-04-27T10:57:01Z</time>
      </trkpt>
      <trkpt lat="45.84967" lon="6.43992">
        <ele>2167.6</ele>
        <time>2024-04-27T10:57:02Z</time>
      </trkpt>
      <trkpt lat="45.84967" lon="6.43992">
        <ele>2167.6</ele>
        <time>2024-04-27T10:57:03Z</time>
      </trkpt>
      <trkpt lat="45.84967" lon="6.43992">
        <ele>2167.6</ele>
        <time>2024-04-27T10:57:04Z</time>
      </trkpt>
      <trkpt lat="45.84967" lon="6.43992">
        <ele>2167.6</ele>
        <time>2024-04-27T10:57:05Z</time>
      </trkpt>
      <trkpt lat="45.84967" lon="6.43992">
        <ele>2167.6</ele>
        <time>2024-04-27T10:57:06Z</time>
      </trkpt>
      <trkpt lat="45.84967" lon="6.43992">
        <ele>2167.6</ele>
        <time>2024-04-27T10:57:07Z</time>
      </trkpt>
      <trkpt lat="45.84967" lon="6.43992">
        <ele>2167.6</ele>
        <time>2024-04-27T10:57:08Z</time>
      </trkpt>
      <trkpt lat="45.84967" lon="6.43992">
        <ele>2167.6</ele>
        <time>2024-04-27T10:57:09Z</time>
      </trkpt>
      <trkpt lat="45.84967" lon="6.43992">
        <ele>2167.6</ele>
        <time>2024-04-27T10:57:10Z</time>
      </trkpt>
      <trkpt lat="45.84967" lon="6.43992">
        <ele>2167.6</ele>
        <time>2024-04-27T10:57:11Z</time>
      </trkpt>
      <trkpt lat="45.84967" lon="6.43992">
        <ele>2167.6</ele>
        <time>2024-04-27T10:57:12Z</time>
      </trkpt>
      <trkpt lat="45.84967" lon="6.43992">
        <ele>2167.6</ele>
        <time>2024-04-27T10:57:13Z</time>
      </trkpt>
      <trkpt lat="45.84967" lon="6.43992">
        <ele>2167.6</ele>
        <time>2024-04-27T10:57:14Z</time>
      </trkpt>
      <trkpt lat="45.84967" lon="6.43992">
        <ele>2167.6</ele>
        <time>2024-04-27T10:57:15Z</time>
      </trkpt>
      <trkpt lat="45.84967" lon="6.43992">
        <ele>2167.6</ele>
        <time>2024-04-27T10:57:16Z</time>
      </trkpt>
      <trkpt lat="45.84967" lon="6.43991">
        <ele>2167.6</ele>
        <time>2024-04-27T10:57:17Z</time>
      </trkpt>
      <trkpt lat="45.84968" lon="6.43991">
        <ele>2167.6</ele>
        <time>2024-04-27T10:57:18Z</time>
      </trkpt>
      <trkpt lat="45.84968" lon="6.43991">
        <ele>2170.7</ele>
        <time>2024-04-27T10:57:19Z</time>
      </trkpt>
      <trkpt lat="45.84968" lon="6.43991">
        <ele>2170.7</ele>
        <time>2024-04-27T10:57:20Z</time>
      </trkpt>
      <trkpt lat="45.84968" lon="6.43991">
        <ele>2170.7</ele>
        <time>2024-04-27T10:57:21Z</time>
      </trkpt>
      <trkpt lat="45.84968" lon="6.43991">
        <ele>2170.7</ele>
        <time>2024-04-27T10:57:22Z</time>
      </trkpt>
      <trkpt lat="45.84968" lon="6.43991">
        <ele>2170.7</ele>
        <time>2024-04-27T10:57:23Z</time>
      </trkpt>
      <trkpt lat="45.84968" lon="6.43991">
        <ele>2170.7</ele>
        <time>2024-04-27T10:57:24Z</time>
      </trkpt>
      <trkpt lat="45.84968" lon="6.43991">
        <ele>2170.7</ele>
        <time>2024-04-27T10:57:25Z</time>
      </trkpt>
      <trkpt lat="45.84968" lon="6.43991">
        <ele>2170.7</ele>
        <time>2024-04-27T10:57:26Z</time>
      </trkpt>
      <trkpt lat="45.84968" lon="6.43991">
        <ele>2170.7</ele>
        <time>2024-04-27T10:57:27Z</time>
      </trkpt>
      <trkpt lat="45.84968" lon="6.43991">
        <ele>2170.7</ele>
        <time>2024-04-27T10:57:28Z</time>
      </trkpt>
      <trkpt lat="45.84968" lon="6.4399">
        <ele>2170.7</ele>
        <time>2024-04-27T10:57:29Z</time>
      </trkpt>
      <trkpt lat="45.84968" lon="6.4399">
        <ele>2170.7</ele>
        <time>2024-04-27T10:57:30Z</time>
      </trkpt>
      <trkpt lat="45.84968" lon="6.4399">
        <ele>2170.7</ele>
        <time>2024-04-27T10:57:31Z</time>
      </trkpt>
      <trkpt lat="45.84968" lon="6.4399">
        <ele>2170.7</ele>
        <time>2024-04-27T10:57:32Z</time>
      </trkpt>
      <trkpt lat="45.84968" lon="6.4399">
        <ele>2170.7</ele>
        <time>2024-04-27T10:57:33Z</time>
      </trkpt>
      <trkpt lat="45.84968" lon="6.4399">
        <ele>2170.7</ele>
        <time>2024-04-27T10:57:34Z</time>
      </trkpt>
      <trkpt lat="45.84968" lon="6.4399">
        <ele>2170.7</ele>
        <time>2024-04-27T10:57:35Z</time>
      </trkpt>
      <trkpt lat="45.84968" lon="6.4399">
        <ele>2170.7</ele>
        <time>2024-04-27T10:57:36Z</time>
      </trkpt>
      <trkpt lat="45.84968" lon="6.43989">
        <ele>2170.7</ele>
        <time>2024-04-27T10:57:37Z</time>
      </trkpt>
      <trkpt lat="45.84968" lon="6.43989">
        <ele>2170.7</ele>
        <time>2024-04-27T10:57:38Z</time>
      </trkpt>
      <trkpt lat="45.84968" lon="6.43989">
        <ele>2170.7</ele>
        <time>2024-04-27T10:57:39Z</time>
      </trkpt>
      <trkpt lat="45.84968" lon="6.43989">
        <ele>2170.7</ele>
        <time>2024-04-27T10:57:40Z</time>
      </trkpt>
      <trkpt lat="45.84968" lon="6.43989">
        <ele>2170.7</ele>
        <time>2024-04-27T10:57:41Z</time>
      </trkpt>
      <trkpt lat="45.84968" lon="6.43989">
        <ele>2170.7</ele>
        <time>2024-04-27T10:57:42Z</time>
      </trkpt>
      <trkpt lat="45.84968" lon="6.43989">
        <ele>2171.6</ele>
        <time>2024-04-27T10:57:43Z</time>
      </trkpt>
      <trkpt lat="45.84968" lon="6.43989">
        <ele>2171.6</ele>
        <time>2024-04-27T10:57:44Z</time>
      </trkpt>
      <trkpt lat="45.84968" lon="6.43989">
        <ele>2171.6</ele>
        <time>2024-04-27T10:57:45Z</time>
      </trkpt>
      <trkpt lat="45.84968" lon="6.43988">
        <ele>2171.6</ele>
        <time>2024-04-27T10:57:46Z</time>
      </trkpt>
      <trkpt lat="45.84968" lon="6.43988">
        <ele>2171.6</ele>
        <time>2024-04-27T10:57:47Z</time>
      </trkpt>
      <trkpt lat="45.84968" lon="6.43988">
        <ele>2171.6</ele>
        <time>2024-04-27T10:57:48Z</time>
      </trkpt>
      <trkpt lat="45.84968" lon="6.43988">
        <ele>2171.6</ele>
        <time>2024-04-27T10:57:49Z</time>
      </trkpt>
      <trkpt lat="45.84968" lon="6.43988">
        <ele>2171.6</ele>
        <time>2024-04-27T10:57:50Z</time>
      </trkpt>
      <trkpt lat="45.84968" lon="6.43988">
        <ele>2171.6</ele>
        <time>2024-04-27T10:57:51Z</time>
      </trkpt>
      <trkpt lat="45.84968" lon="6.43988">
        <ele>2171.6</ele>
        <time>2024-04-27T10:57:52Z</time>
      </trkpt>
      <trkpt lat="45.84968" lon="6.43988">
        <ele>2171.6</ele>
        <time>2024-04-27T10:57:53Z</time>
      </trkpt>
      <trkpt lat="45.84968" lon="6.43988">
        <ele>2171.6</ele>
        <time>2024-04-27T10:57:54Z</time>
      </trkpt>
      <trkpt lat="45.84968" lon="6.43988">
        <ele>2171.6</ele>
        <time>2024-04-27T10:57:55Z</time>
      </trkpt>
      <trkpt lat="45.84968" lon="6.43988">
        <ele>2171.6</ele>
        <time>2024-04-27T10:57:56Z</time>
      </trkpt>
      <trkpt lat="45.84968" lon="6.43987">
        <ele>2172.6</ele>
        <time>2024-04-27T10:57:57Z</time>
      </trkpt>
      <trkpt lat="45.84969" lon="6.43987">
        <ele>2172.6</ele>
        <time>2024-04-27T10:57:58Z</time>
      </trkpt>
      <trkpt lat="45.84969" lon="6.43986">
        <ele>2172.6</ele>
        <time>2024-04-27T10:57:59Z</time>
      </trkpt>
      <trkpt lat="45.8497" lon="6.43987">
        <ele>2172.6</ele>
        <time>2024-04-27T10:58:00Z</time>
      </trkpt>
      <trkpt lat="45.8497" lon="6.43987">
        <ele>2172.6</ele>
        <time>2024-04-27T10:58:01Z</time>
      </trkpt>
      <trkpt lat="45.84969" lon="6.43988">
        <ele>2172.6</ele>
        <time>2024-04-27T10:58:02Z</time>
      </trkpt>
      <trkpt lat="45.84969" lon="6.43987">
        <ele>2172.6</ele>
        <time>2024-04-27T10:58:03Z</time>
      </trkpt>
      <trkpt lat="45.84969" lon="6.43987">
        <ele>2172.6</ele>
        <time>2024-04-27T10:58:04Z</time>
      </trkpt>
      <trkpt lat="45.84969" lon="6.43987">
        <ele>2172.6</ele>
        <time>2024-04-27T10:58:05Z</time>
      </trkpt>
      <trkpt lat="45.84969" lon="6.43986">
        <ele>2172.6</ele>
        <time>2024-04-27T10:58:06Z</time>
      </trkpt>
      <trkpt lat="45.84969" lon="6.43986">
        <ele>2172.6</ele>
        <time>2024-04-27T10:58:07Z</time>
      </trkpt>
      <trkpt lat="45.84968" lon="6.43986">
        <ele>2172.6</ele>
        <time>2024-04-27T10:58:08Z</time>
      </trkpt>
      <trkpt lat="45.84968" lon="6.43986">
        <ele>2172.6</ele>
        <time>2024-04-27T10:58:09Z</time>
      </trkpt>
      <trkpt lat="45.84969" lon="6.43987">
        <ele>2172.6</ele>
        <time>2024-04-27T10:58:10Z</time>
      </trkpt>
      <trkpt lat="45.84969" lon="6.43986">
        <ele>2172.6</ele>
        <time>2024-04-27T10:58:11Z</time>
      </trkpt>
      <trkpt lat="45.8497" lon="6.43984">
        <ele>2172.6</ele>
        <time>2024-04-27T10:58:12Z</time>
      </trkpt>
      <trkpt lat="45.8497" lon="6.43984">
        <ele>2173.7</ele>
        <time>2024-04-27T10:58:13Z</time>
      </trkpt>
      <trkpt lat="45.84971" lon="6.43985">
        <ele>2173.7</ele>
        <time>2024-04-27T10:58:14Z</time>
      </trkpt>
      <trkpt lat="45.84971" lon="6.43985">
        <ele>2173.7</ele>
        <time>2024-04-27T10:58:15Z</time>
      </trkpt>
      <trkpt lat="45.84971" lon="6.43985">
        <ele>2173.7</ele>
        <time>2024-04-27T10:58:16Z</time>
      </trkpt>
      <trkpt lat="45.84972" lon="6.43986">
        <ele>2173.7</ele>
        <time>2024-04-27T10:58:17Z</time>
      </trkpt>
      <trkpt lat="45.84972" lon="6.43986">
        <ele>2173.7</ele>
        <time>2024-04-27T10:58:18Z</time>
      </trkpt>
      <trkpt lat="45.84972" lon="6.43986">
        <ele>2172.6</ele>
        <time>2024-04-27T10:58:19Z</time>
      </trkpt>
      <trkpt lat="45.84972" lon="6.43986">
        <ele>2172.6</ele>
        <time>2024-04-27T10:58:20Z</time>
      </trkpt>
      <trkpt lat="45.84972" lon="6.43986">
        <ele>2172.6</ele>
        <time>2024-04-27T10:58:21Z</time>
      </trkpt>
      <trkpt lat="45.84972" lon="6.43986">
        <ele>2172.6</ele>
        <time>2024-04-27T10:58:22Z</time>
      </trkpt>
      <trkpt lat="45.84972" lon="6.43985">
        <ele>2172.6</ele>
        <time>2024-04-27T10:58:23Z</time>
      </trkpt>
      <trkpt lat="45.84972" lon="6.43985">
        <ele>2172.6</ele>
        <time>2024-04-27T10:58:24Z</time>
      </trkpt>
      <trkpt lat="45.84972" lon="6.43985">
        <ele>2172.6</ele>
        <time>2024-04-27T10:58:25Z</time>
      </trkpt>
      <trkpt lat="45.84972" lon="6.43985">
        <ele>2172.6</ele>
        <time>2024-04-27T10:58:26Z</time>
      </trkpt>
      <trkpt lat="45.84972" lon="6.43985">
        <ele>2172.6</ele>
        <time>2024-04-27T10:58:27Z</time>
      </trkpt>
      <trkpt lat="45.84972" lon="6.43985">
        <ele>2172.6</ele>
        <time>2024-04-27T10:58:28Z</time>
      </trkpt>
      <trkpt lat="45.84972" lon="6.43985">
        <ele>2172.6</ele>
        <time>2024-04-27T10:58:29Z</time>
      </trkpt>
      <trkpt lat="45.84972" lon="6.43985">
        <ele>2172.6</ele>
        <time>2024-04-27T10:58:30Z</time>
      </trkpt>
      <trkpt lat="45.84972" lon="6.43985">
        <ele>2172.6</ele>
        <time>2024-04-27T10:58:31Z</time>
      </trkpt>
      <trkpt lat="45.84972" lon="6.43985">
        <ele>2172.6</ele>
        <time>2024-04-27T10:58:32Z</time>
      </trkpt>
      <trkpt lat="45.84972" lon="6.43985">
        <ele>2172.6</ele>
        <time>2024-04-27T10:58:33Z</time>
      </trkpt>
      <trkpt lat="45.84972" lon="6.43985">
        <ele>2172.6</ele>
        <time>2024-04-27T10:58:34Z</time>
      </trkpt>
      <trkpt lat="45.84972" lon="6.43985">
        <ele>2172.6</ele>
        <time>2024-04-27T10:58:35Z</time>
      </trkpt>
      <trkpt lat="45.84972" lon="6.43985">
        <ele>2172.6</ele>
        <time>2024-04-27T10:58:36Z</time>
      </trkpt>
      <trkpt lat="45.84972" lon="6.43985">
        <ele>2172.6</ele>
        <time>2024-04-27T10:58:37Z</time>
      </trkpt>
      <trkpt lat="45.84972" lon="6.43985">
        <ele>2172.6</ele>
        <time>2024-04-27T10:58:38Z</time>
      </trkpt>
      <trkpt lat="45.84972" lon="6.43986">
        <ele>2172.6</ele>
        <time>2024-04-27T10:58:39Z</time>
      </trkpt>
      <trkpt lat="45.84971" lon="6.43986">
        <ele>2172.6</ele>
        <time>2024-04-27T10:58:40Z</time>
      </trkpt>
      <trkpt lat="45.84971" lon="6.43986">
        <ele>2172.6</ele>
        <time>2024-04-27T10:58:41Z</time>
      </trkpt>
      <trkpt lat="45.84971" lon="6.43986">
        <ele>2172.6</ele>
        <time>2024-04-27T10:58:42Z</time>
      </trkpt>
      <trkpt lat="45.8497" lon="6.43986">
        <ele>2172.6</ele>
        <time>2024-04-27T10:58:43Z</time>
      </trkpt>
      <trkpt lat="45.8497" lon="6.43986">
        <ele>2172.6</ele>
        <time>2024-04-27T10:58:44Z</time>
      </trkpt>
      <trkpt lat="45.8497" lon="6.43986">
        <ele>2172.6</ele>
        <time>2024-04-27T10:58:45Z</time>
      </trkpt>
      <trkpt lat="45.84969" lon="6.43986">
        <ele>2172.6</ele>
        <time>2024-04-27T10:58:46Z</time>
      </trkpt>
      <trkpt lat="45.84969" lon="6.43986">
        <ele>2172.6</ele>
        <time>2024-04-27T10:58:47Z</time>
      </trkpt>
      <trkpt lat="45.84969" lon="6.43986">
        <ele>2172.6</ele>
        <time>2024-04-27T10:58:48Z</time>
      </trkpt>
      <trkpt lat="45.84969" lon="6.43986">
        <ele>2172.6</ele>
        <time>2024-04-27T10:58:49Z</time>
      </trkpt>
      <trkpt lat="45.84969" lon="6.43986">
        <ele>2172.6</ele>
        <time>2024-04-27T10:58:50Z</time>
      </trkpt>
      <trkpt lat="45.84969" lon="6.43986">
        <ele>2172.6</ele>
        <time>2024-04-27T10:58:51Z</time>
      </trkpt>
      <trkpt lat="45.84969" lon="6.43986">
        <ele>2172.6</ele>
        <time>2024-04-27T10:58:52Z</time>
      </trkpt>
      <trkpt lat="45.84968" lon="6.43986">
        <ele>2172.6</ele>
        <time>2024-04-27T10:58:53Z</time>
      </trkpt>
      <trkpt lat="45.84968" lon="6.43986">
        <ele>2172.6</ele>
        <time>2024-04-27T10:58:54Z</time>
      </trkpt>
      <trkpt lat="45.84968" lon="6.43986">
        <ele>2171.6</ele>
        <time>2024-04-27T10:58:55Z</time>
      </trkpt>
      <trkpt lat="45.84968" lon="6.43986">
        <ele>2171.6</ele>
        <time>2024-04-27T10:58:56Z</time>
      </trkpt>
      <trkpt lat="45.84968" lon="6.43986">
        <ele>2171.6</ele>
        <time>2024-04-27T10:58:57Z</time>
      </trkpt>
      <trkpt lat="45.84968" lon="6.43986">
        <ele>2171.6</ele>
        <time>2024-04-27T10:58:58Z</time>
      </trkpt>
      <trkpt lat="45.84968" lon="6.43985">
        <ele>2171.6</ele>
        <time>2024-04-27T10:58:59Z</time>
      </trkpt>
      <trkpt lat="45.84967" lon="6.43985">
        <ele>2171.6</ele>
        <time>2024-04-27T10:59:00Z</time>
      </trkpt>
      <trkpt lat="45.84967" lon="6.43984">
        <ele>2171.6</ele>
        <time>2024-04-27T10:59:01Z</time>
      </trkpt>
      <trkpt lat="45.84965" lon="6.43983">
        <ele>2171.6</ele>
        <time>2024-04-27T10:59:02Z</time>
      </trkpt>
      <trkpt lat="45.84965" lon="6.43981">
        <ele>2171.6</ele>
        <time>2024-04-27T10:59:03Z</time>
      </trkpt>
      <trkpt lat="45.84965" lon="6.43979">
        <ele>2171.6</ele>
        <time>2024-04-27T10:59:04Z</time>
      </trkpt>
      <trkpt lat="45.84964" lon="6.43976">
        <ele>2171.6</ele>
        <time>2024-04-27T10:59:05Z</time>
      </trkpt>
      <trkpt lat="45.84964" lon="6.43974">
        <ele>2171.6</ele>
        <time>2024-04-27T10:59:06Z</time>
      </trkpt>
      <trkpt lat="45.84963" lon="6.43974">
        <ele>2171.6</ele>
        <time>2024-04-27T10:59:07Z</time>
      </trkpt>
      <trkpt lat="45.84963" lon="6.43975">
        <ele>2171.6</ele>
        <time>2024-04-27T10:59:08Z</time>
      </trkpt>
      <trkpt lat="45.84963" lon="6.43976">
        <ele>2171.6</ele>
        <time>2024-04-27T10:59:09Z</time>
      </trkpt>
      <trkpt lat="45.84963" lon="6.43976">
        <ele>2171.6</ele>
        <time>2024-04-27T10:59:10Z</time>
      </trkpt>
      <trkpt lat="45.84963" lon="6.43977">
        <ele>2171.6</ele>
        <time>2024-04-27T10:59:11Z</time>
      </trkpt>
      <trkpt lat="45.84963" lon="6.43977">
        <ele>2171.6</ele>
        <time>2024-04-27T10:59:12Z</time>
      </trkpt>
      <trkpt lat="45.84963" lon="6.43977">
        <ele>2171.6</ele>
        <time>2024-04-27T10:59:13Z</time>
      </trkpt>
      <trkpt lat="45.84963" lon="6.43978">
        <ele>2171.6</ele>
        <time>2024-04-27T10:59:14Z</time>
      </trkpt>
      <trkpt lat="45.84964" lon="6.43978">
        <ele>2171.6</ele>
        <time>2024-04-27T10:59:15Z</time>
      </trkpt>
      <trkpt lat="45.84964" lon="6.43978">
        <ele>2171.6</ele>
        <time>2024-04-27T10:59:16Z</time>
      </trkpt>
      <trkpt lat="45.84964" lon="6.43978">
        <ele>2171.6</ele>
        <time>2024-04-27T10:59:17Z</time>
      </trkpt>
      <trkpt lat="45.84964" lon="6.43978">
        <ele>2171.6</ele>
        <time>2024-04-27T10:59:18Z</time>
      </trkpt>
      <trkpt lat="45.84964" lon="6.43978">
        <ele>2171.6</ele>
        <time>2024-04-27T10:59:19Z</time>
      </trkpt>
      <trkpt lat="45.84964" lon="6.43978">
        <ele>2171.6</ele>
        <time>2024-04-27T10:59:20Z</time>
      </trkpt>
      <trkpt lat="45.84964" lon="6.43978">
        <ele>2172.6</ele>
        <time>2024-04-27T10:59:21Z</time>
      </trkpt>
      <trkpt lat="45.84964" lon="6.43978">
        <ele>2172.6</ele>
        <time>2024-04-27T10:59:22Z</time>
      </trkpt>
      <trkpt lat="45.84964" lon="6.43978">
        <ele>2172.6</ele>
        <time>2024-04-27T10:59:23Z</time>
      </trkpt>
      <trkpt lat="45.84964" lon="6.43978">
        <ele>2172.6</ele>
        <time>2024-04-27T10:59:24Z</time>
      </trkpt>
      <trkpt lat="45.84964" lon="6.43978">
        <ele>2172.6</ele>
        <time>2024-04-27T10:59:25Z</time>
      </trkpt>
      <trkpt lat="45.84964" lon="6.43978">
        <ele>2172.6</ele>
        <time>2024-04-27T10:59:26Z</time>
      </trkpt>
      <trkpt lat="45.84964" lon="6.43978">
        <ele>2172.6</ele>
        <time>2024-04-27T10:59:27Z</time>
      </trkpt>
      <trkpt lat="45.84964" lon="6.43978">
        <ele>2172.6</ele>
        <time>2024-04-27T10:59:28Z</time>
      </trkpt>
      <trkpt lat="45.84964" lon="6.43978">
        <ele>2172.6</ele>
        <time>2024-04-27T10:59:29Z</time>
      </trkpt>
      <trkpt lat="45.84964" lon="6.43978">
        <ele>2172.6</ele>
        <time>2024-04-27T10:59:30Z</time>
      </trkpt>
      <trkpt lat="45.84964" lon="6.43978">
        <ele>2172.6</ele>
        <time>2024-04-27T10:59:31Z</time>
      </trkpt>
      <trkpt lat="45.84964" lon="6.43978">
        <ele>2172.6</ele>
        <time>2024-04-27T10:59:32Z</time>
      </trkpt>
      <trkpt lat="45.84964" lon="6.43979">
        <ele>2172.6</ele>
        <time>2024-04-27T10:59:33Z</time>
      </trkpt>
      <trkpt lat="45.84965" lon="6.43979">
        <ele>2172.6</ele>
        <time>2024-04-27T10:59:34Z</time>
      </trkpt>
      <trkpt lat="45.84965" lon="6.43979">
        <ele>2172.6</ele>
        <time>2024-04-27T10:59:35Z</time>
      </trkpt>
      <trkpt lat="45.84965" lon="6.43979">
        <ele>2172.6</ele>
        <time>2024-04-27T10:59:36Z</time>
      </trkpt>
      <trkpt lat="45.84965" lon="6.43979">
        <ele>2172.6</ele>
        <time>2024-04-27T10:59:37Z</time>
      </trkpt>
      <trkpt lat="45.84966" lon="6.43978">
        <ele>2172.6</ele>
        <time>2024-04-27T10:59:38Z</time>
      </trkpt>
      <trkpt lat="45.84966" lon="6.43978">
        <ele>2172.6</ele>
        <time>2024-04-27T10:59:39Z</time>
      </trkpt>
      <trkpt lat="45.84966" lon="6.43978">
        <ele>2172.6</ele>
        <time>2024-04-27T10:59:40Z</time>
      </trkpt>
      <trkpt lat="45.84965" lon="6.43978">
        <ele>2172.6</ele>
        <time>2024-04-27T10:59:41Z</time>
      </trkpt>
      <trkpt lat="45.84965" lon="6.43978">
        <ele>2172.6</ele>
        <time>2024-04-27T10:59:42Z</time>
      </trkpt>
      <trkpt lat="45.84965" lon="6.43977">
        <ele>2172.6</ele>
        <time>2024-04-27T10:59:43Z</time>
      </trkpt>
      <trkpt lat="45.84965" lon="6.43977">
        <ele>2172.6</ele>
        <time>2024-04-27T10:59:44Z</time>
      </trkpt>
      <trkpt lat="45.84965" lon="6.43977">
        <ele>2172.6</ele>
        <time>2024-04-27T10:59:45Z</time>
      </trkpt>
      <trkpt lat="45.84964" lon="6.43977">
        <ele>2172.6</ele>
        <time>2024-04-27T10:59:46Z</time>
      </trkpt>
      <trkpt lat="45.84965" lon="6.43979">
        <ele>2173.7</ele>
        <time>2024-04-27T10:59:47Z</time>
      </trkpt>
      <trkpt lat="45.84964" lon="6.43979">
        <ele>2173.7</ele>
        <time>2024-04-27T10:59:48Z</time>
      </trkpt>
      <trkpt lat="45.84964" lon="6.4398">
        <ele>2174.6</ele>
        <time>2024-04-27T10:59:49Z</time>
      </trkpt>
      <trkpt lat="45.84965" lon="6.4398">
        <ele>2174.6</ele>
        <time>2024-04-27T10:59:50Z</time>
      </trkpt>
      <trkpt lat="45.84965" lon="6.4398">
        <ele>2174.6</ele>
        <time>2024-04-27T10:59:51Z</time>
      </trkpt>
      <trkpt lat="45.84965" lon="6.4398">
        <ele>2174.6</ele>
        <time>2024-04-27T10:59:52Z</time>
      </trkpt>
      <trkpt lat="45.84965" lon="6.4398">
        <ele>2175.7</ele>
        <time>2024-04-27T10:59:53Z</time>
      </trkpt>
      <trkpt lat="45.84965" lon="6.4398">
        <ele>2175.7</ele>
        <time>2024-04-27T10:59:54Z</time>
      </trkpt>
      <trkpt lat="45.84965" lon="6.4398">
        <ele>2175.7</ele>
        <time>2024-04-27T10:59:55Z</time>
      </trkpt>
      <trkpt lat="45.84965" lon="6.4398">
        <ele>2175.7</ele>
        <time>2024-04-27T10:59:56Z</time>
      </trkpt>
      <trkpt lat="45.84965" lon="6.43979">
        <ele>2174.6</ele>
        <time>2024-04-27T10:59:57Z</time>
      </trkpt>
      <trkpt lat="45.84965" lon="6.43979">
        <ele>2174.6</ele>
        <time>2024-04-27T10:59:58Z</time>
      </trkpt>
      <trkpt lat="45.84966" lon="6.43979">
        <ele>2174.6</ele>
        <time>2024-04-27T10:59:59Z</time>
      </trkpt>
      <trkpt lat="45.84966" lon="6.4398">
        <ele>2174.6</ele>
        <time>2024-04-27T11:00:00Z</time>
      </trkpt>
      <trkpt lat="45.84965" lon="6.4398">
        <ele>2173.7</ele>
        <time>2024-04-27T11:00:01Z</time>
      </trkpt>
      <trkpt lat="45.84965" lon="6.4398">
        <ele>2173.7</ele>
        <time>2024-04-27T11:00:02Z</time>
      </trkpt>
      <trkpt lat="45.84965" lon="6.43979">
        <ele>2173.7</ele>
        <time>2024-04-27T11:00:03Z</time>
      </trkpt>
      <trkpt lat="45.84965" lon="6.43978">
        <ele>2173.7</ele>
        <time>2024-04-27T11:00:04Z</time>
      </trkpt>
      <trkpt lat="45.84965" lon="6.43978">
        <ele>2173.7</ele>
        <time>2024-04-27T11:00:05Z</time>
      </trkpt>
      <trkpt lat="45.84964" lon="6.43978">
        <ele>2173.7</ele>
        <time>2024-04-27T11:00:06Z</time>
      </trkpt>
      <trkpt lat="45.84964" lon="6.43978">
        <ele>2173.7</ele>
        <time>2024-04-27T11:00:07Z</time>
      </trkpt>
      <trkpt lat="45.84964" lon="6.43978">
        <ele>2173.7</ele>
        <time>2024-04-27T11:00:08Z</time>
      </trkpt>
      <trkpt lat="45.84964" lon="6.43978">
        <ele>2173.7</ele>
        <time>2024-04-27T11:00:09Z</time>
      </trkpt>
      <trkpt lat="45.84964" lon="6.43978">
        <ele>2173.7</ele>
        <time>2024-04-27T11:00:10Z</time>
      </trkpt>
      <trkpt lat="45.84964" lon="6.43978">
        <ele>2173.7</ele>
        <time>2024-04-27T11:00:11Z</time>
      </trkpt>
      <trkpt lat="45.84964" lon="6.43978">
        <ele>2173.7</ele>
        <time>2024-04-27T11:00:12Z</time>
      </trkpt>
      <trkpt lat="45.84964" lon="6.43978">
        <ele>2173.7</ele>
        <time>2024-04-27T11:00:13Z</time>
      </trkpt>
      <trkpt lat="45.84964" lon="6.43978">
        <ele>2173.7</ele>
        <time>2024-04-27T11:00:14Z</time>
      </trkpt>
      <trkpt lat="45.84964" lon="6.43978">
        <ele>2173.7</ele>
        <time>2024-04-27T11:00:15Z</time>
      </trkpt>
      <trkpt lat="45.84964" lon="6.43978">
        <ele>2173.7</ele>
        <time>2024-04-27T11:00:16Z</time>
      </trkpt>
      <trkpt lat="45.84964" lon="6.43978">
        <ele>2173.7</ele>
        <time>2024-04-27T11:00:17Z</time>
      </trkpt>
      <trkpt lat="45.84964" lon="6.43978">
        <ele>2173.7</ele>
        <time>2024-04-27T11:00:18Z</time>
      </trkpt>
      <trkpt lat="45.84964" lon="6.43978">
        <ele>2173.7</ele>
        <time>2024-04-27T11:00:19Z</time>
      </trkpt>
      <trkpt lat="45.84964" lon="6.43978">
        <ele>2173.7</ele>
        <time>2024-04-27T11:00:20Z</time>
      </trkpt>
      <trkpt lat="45.84964" lon="6.43979">
        <ele>2174.6</ele>
        <time>2024-04-27T11:00:21Z</time>
      </trkpt>
      <trkpt lat="45.84964" lon="6.43979">
        <ele>2174.6</ele>
        <time>2024-04-27T11:00:22Z</time>
      </trkpt>
      <trkpt lat="45.84964" lon="6.43979">
        <ele>2174.6</ele>
        <time>2024-04-27T11:00:23Z</time>
      </trkpt>
      <trkpt lat="45.84964" lon="6.43979">
        <ele>2174.6</ele>
        <time>2024-04-27T11:00:24Z</time>
      </trkpt>
      <trkpt lat="45.84964" lon="6.43979">
        <ele>2175.7</ele>
        <time>2024-04-27T11:00:25Z</time>
      </trkpt>
      <trkpt lat="45.84964" lon="6.43979">
        <ele>2175.7</ele>
        <time>2024-04-27T11:00:26Z</time>
      </trkpt>
      <trkpt lat="45.84964" lon="6.43979">
        <ele>2175.7</ele>
        <time>2024-04-27T11:00:27Z</time>
      </trkpt>
      <trkpt lat="45.84964" lon="6.43979">
        <ele>2175.7</ele>
        <time>2024-04-27T11:00:28Z</time>
      </trkpt>
      <trkpt lat="45.84964" lon="6.43979">
        <ele>2175.7</ele>
        <time>2024-04-27T11:00:29Z</time>
      </trkpt>
      <trkpt lat="45.84964" lon="6.43979">
        <ele>2175.7</ele>
        <time>2024-04-27T11:00:30Z</time>
      </trkpt>
      <trkpt lat="45.84964" lon="6.43979">
        <ele>2175.7</ele>
        <time>2024-04-27T11:00:31Z</time>
      </trkpt>
      <trkpt lat="45.84964" lon="6.43979">
        <ele>2175.7</ele>
        <time>2024-04-27T11:00:32Z</time>
      </trkpt>
      <trkpt lat="45.84964" lon="6.43979">
        <ele>2174.6</ele>
        <time>2024-04-27T11:00:33Z</time>
      </trkpt>
      <trkpt lat="45.84964" lon="6.43979">
        <ele>2174.6</ele>
        <time>2024-04-27T11:00:34Z</time>
      </trkpt>
      <trkpt lat="45.84964" lon="6.43979">
        <ele>2174.6</ele>
        <time>2024-04-27T11:00:35Z</time>
      </trkpt>
      <trkpt lat="45.84965" lon="6.43979">
        <ele>2174.6</ele>
        <time>2024-04-27T11:00:36Z</time>
      </trkpt>
      <trkpt lat="45.84965" lon="6.43979">
        <ele>2175.7</ele>
        <time>2024-04-27T11:00:37Z</time>
      </trkpt>
      <trkpt lat="45.84965" lon="6.4398">
        <ele>2175.7</ele>
        <time>2024-04-27T11:00:38Z</time>
      </trkpt>
      <trkpt lat="45.84965" lon="6.43981">
        <ele>2175.7</ele>
        <time>2024-04-27T11:00:39Z</time>
      </trkpt>
      <trkpt lat="45.84965" lon="6.4398">
        <ele>2175.7</ele>
        <time>2024-04-27T11:00:40Z</time>
      </trkpt>
      <trkpt lat="45.84965" lon="6.4398">
        <ele>2174.6</ele>
        <time>2024-04-27T11:00:41Z</time>
      </trkpt>
      <trkpt lat="45.84965" lon="6.4398">
        <ele>2174.6</ele>
        <time>2024-04-27T11:00:42Z</time>
      </trkpt>
      <trkpt lat="45.84965" lon="6.4398">
        <ele>2174.6</ele>
        <time>2024-04-27T11:00:43Z</time>
      </trkpt>
      <trkpt lat="45.84966" lon="6.4398">
        <ele>2174.6</ele>
        <time>2024-04-27T11:00:44Z</time>
      </trkpt>
      <trkpt lat="45.84966" lon="6.4398">
        <ele>2174.6</ele>
        <time>2024-04-27T11:00:45Z</time>
      </trkpt>
      <trkpt lat="45.84967" lon="6.4398">
        <ele>2174.6</ele>
        <time>2024-04-27T11:00:46Z</time>
      </trkpt>
      <trkpt lat="45.84967" lon="6.4398">
        <ele>2173.7</ele>
        <time>2024-04-27T11:00:47Z</time>
      </trkpt>
      <trkpt lat="45.84967" lon="6.4398">
        <ele>2173.7</ele>
        <time>2024-04-27T11:00:48Z</time>
      </trkpt>
      <trkpt lat="45.84967" lon="6.4398">
        <ele>2172.6</ele>
        <time>2024-04-27T11:00:49Z</time>
      </trkpt>
      <trkpt lat="45.84967" lon="6.4398">
        <ele>2172.6</ele>
        <time>2024-04-27T11:00:50Z</time>
      </trkpt>
      <trkpt lat="45.84967" lon="6.4398">
        <ele>2172.6</ele>
        <time>2024-04-27T11:00:51Z</time>
      </trkpt>
      <trkpt lat="45.84967" lon="6.4398">
        <ele>2172.6</ele>
        <time>2024-04-27T11:00:52Z</time>
      </trkpt>
      <trkpt lat="45.84968" lon="6.4398">
        <ele>2172.6</ele>
        <time>2024-04-27T11:00:53Z</time>
      </trkpt>
      <trkpt lat="45.84968" lon="6.4398">
        <ele>2172.6</ele>
        <time>2024-04-27T11:00:54Z</time>
      </trkpt>
      <trkpt lat="45.84968" lon="6.4398">
        <ele>2172.6</ele>
        <time>2024-04-27T11:00:55Z</time>
      </trkpt>
      <trkpt lat="45.84969" lon="6.43981">
        <ele>2172.6</ele>
        <time>2024-04-27T11:00:56Z</time>
      </trkpt>
      <trkpt lat="45.84969" lon="6.4398">
        <ele>2172.6</ele>
        <time>2024-04-27T11:00:57Z</time>
      </trkpt>
      <trkpt lat="45.84969" lon="6.4398">
        <ele>2172.6</ele>
        <time>2024-04-27T11:00:58Z</time>
      </trkpt>
      <trkpt lat="45.84969" lon="6.43981">
        <ele>2172.6</ele>
        <time>2024-04-27T11:00:59Z</time>
      </trkpt>
      <trkpt lat="45.84969" lon="6.43981">
        <ele>2172.6</ele>
        <time>2024-04-27T11:01:00Z</time>
      </trkpt>
      <trkpt lat="45.84968" lon="6.43982">
        <ele>2172.6</ele>
        <time>2024-04-27T11:01:01Z</time>
      </trkpt>
      <trkpt lat="45.84968" lon="6.43982">
        <ele>2172.6</ele>
        <time>2024-04-27T11:01:02Z</time>
      </trkpt>
      <trkpt lat="45.84968" lon="6.43981">
        <ele>2172.6</ele>
        <time>2024-04-27T11:01:03Z</time>
      </trkpt>
      <trkpt lat="45.84968" lon="6.43982">
        <ele>2172.6</ele>
        <time>2024-04-27T11:01:04Z</time>
      </trkpt>
      <trkpt lat="45.84968" lon="6.43983">
        <ele>2172.6</ele>
        <time>2024-04-27T11:01:05Z</time>
      </trkpt>
      <trkpt lat="45.84967" lon="6.43984">
        <ele>2172.6</ele>
        <time>2024-04-27T11:01:06Z</time>
      </trkpt>
      <trkpt lat="45.84967" lon="6.43984">
        <ele>2172.6</ele>
        <time>2024-04-27T11:01:07Z</time>
      </trkpt>
      <trkpt lat="45.84966" lon="6.43985">
        <ele>2172.6</ele>
        <time>2024-04-27T11:01:08Z</time>
      </trkpt>
      <trkpt lat="45.84967" lon="6.43984">
        <ele>2172.6</ele>
        <time>2024-04-27T11:01:09Z</time>
      </trkpt>
      <trkpt lat="45.84968" lon="6.43984">
        <ele>2172.6</ele>
        <time>2024-04-27T11:01:10Z</time>
      </trkpt>
      <trkpt lat="45.84968" lon="6.43984">
        <ele>2172.6</ele>
        <time>2024-04-27T11:01:11Z</time>
      </trkpt>
      <trkpt lat="45.84969" lon="6.43984">
        <ele>2172.6</ele>
        <time>2024-04-27T11:01:12Z</time>
      </trkpt>
      <trkpt lat="45.84969" lon="6.43985">
        <ele>2173.7</ele>
        <time>2024-04-27T11:01:13Z</time>
      </trkpt>
      <trkpt lat="45.84969" lon="6.43985">
        <ele>2173.7</ele>
        <time>2024-04-27T11:01:14Z</time>
      </trkpt>
      <trkpt lat="45.84969" lon="6.43985">
        <ele>2173.7</ele>
        <time>2024-04-27T11:01:15Z</time>
      </trkpt>
      <trkpt lat="45.84969" lon="6.43984">
        <ele>2173.7</ele>
        <time>2024-04-27T11:01:16Z</time>
      </trkpt>
      <trkpt lat="45.84969" lon="6.43984">
        <ele>2173.7</ele>
        <time>2024-04-27T11:01:17Z</time>
      </trkpt>
      <trkpt lat="45.84969" lon="6.43983">
        <ele>2173.7</ele>
        <time>2024-04-27T11:01:18Z</time>
      </trkpt>
      <trkpt lat="45.84969" lon="6.43983">
        <ele>2172.6</ele>
        <time>2024-04-27T11:01:19Z</time>
      </trkpt>
      <trkpt lat="45.84969" lon="6.43982">
        <ele>2172.6</ele>
        <time>2024-04-27T11:01:20Z</time>
      </trkpt>
      <trkpt lat="45.8497" lon="6.43981">
        <ele>2172.6</ele>
        <time>2024-04-27T11:01:21Z</time>
      </trkpt>
      <trkpt lat="45.8497" lon="6.43981">
        <ele>2172.6</ele>
        <time>2024-04-27T11:01:22Z</time>
      </trkpt>
      <trkpt lat="45.8497" lon="6.43981">
        <ele>2172.6</ele>
        <time>2024-04-27T11:01:23Z</time>
      </trkpt>
      <trkpt lat="45.8497" lon="6.43982">
        <ele>2172.6</ele>
        <time>2024-04-27T11:01:24Z</time>
      </trkpt>
      <trkpt lat="45.84969" lon="6.43982">
        <ele>2172.6</ele>
        <time>2024-04-27T11:01:25Z</time>
      </trkpt>
      <trkpt lat="45.84969" lon="6.43983">
        <ele>2172.6</ele>
        <time>2024-04-27T11:01:26Z</time>
      </trkpt>
      <trkpt lat="45.84969" lon="6.43984">
        <ele>2172.6</ele>
        <time>2024-04-27T11:01:27Z</time>
      </trkpt>
      <trkpt lat="45.84968" lon="6.43985">
        <ele>2172.6</ele>
        <time>2024-04-27T11:01:28Z</time>
      </trkpt>
      <trkpt lat="45.84968" lon="6.43985">
        <ele>2172.6</ele>
        <time>2024-04-27T11:01:29Z</time>
      </trkpt>
      <trkpt lat="45.84968" lon="6.43985">
        <ele>2172.6</ele>
        <time>2024-04-27T11:01:30Z</time>
      </trkpt>
      <trkpt lat="45.84968" lon="6.43986">
        <ele>2172.6</ele>
        <time>2024-04-27T11:01:31Z</time>
      </trkpt>
      <trkpt lat="45.84967" lon="6.43986">
        <ele>2172.6</ele>
        <time>2024-04-27T11:01:32Z</time>
      </trkpt>
      <trkpt lat="45.84967" lon="6.43986">
        <ele>2172.6</ele>
        <time>2024-04-27T11:01:33Z</time>
      </trkpt>
      <trkpt lat="45.84967" lon="6.43986">
        <ele>2172.6</ele>
        <time>2024-04-27T11:01:34Z</time>
      </trkpt>
      <trkpt lat="45.84967" lon="6.43986">
        <ele>2171.6</ele>
        <time>2024-04-27T11:01:35Z</time>
      </trkpt>
      <trkpt lat="45.84968" lon="6.43986">
        <ele>2171.6</ele>
        <time>2024-04-27T11:01:36Z</time>
      </trkpt>
      <trkpt lat="45.84967" lon="6.43986">
        <ele>2171.6</ele>
        <time>2024-04-27T11:01:37Z</time>
      </trkpt>
      <trkpt lat="45.84967" lon="6.43987">
        <ele>2171.6</ele>
        <time>2024-04-27T11:01:38Z</time>
      </trkpt>
      <trkpt lat="45.84967" lon="6.43987">
        <ele>2171.6</ele>
        <time>2024-04-27T11:01:39Z</time>
      </trkpt>
      <trkpt lat="45.84967" lon="6.43986">
        <ele>2171.6</ele>
        <time>2024-04-27T11:01:40Z</time>
      </trkpt>
      <trkpt lat="45.84967" lon="6.43985">
        <ele>2171.6</ele>
        <time>2024-04-27T11:01:41Z</time>
      </trkpt>
      <trkpt lat="45.84968" lon="6.43985">
        <ele>2171.6</ele>
        <time>2024-04-27T11:01:42Z</time>
      </trkpt>
      <trkpt lat="45.84968" lon="6.43983">
        <ele>2171.6</ele>
        <time>2024-04-27T11:01:43Z</time>
      </trkpt>
      <trkpt lat="45.84968" lon="6.43983">
        <ele>2171.6</ele>
        <time>2024-04-27T11:01:44Z</time>
      </trkpt>
      <trkpt lat="45.84968" lon="6.43983">
        <ele>2172.6</ele>
        <time>2024-04-27T11:01:45Z</time>
      </trkpt>
      <trkpt lat="45.84968" lon="6.43983">
        <ele>2172.6</ele>
        <time>2024-04-27T11:01:46Z</time>
      </trkpt>
      <trkpt lat="45.84968" lon="6.43982">
        <ele>2172.6</ele>
        <time>2024-04-27T11:01:47Z</time>
      </trkpt>
      <trkpt lat="45.84968" lon="6.43982">
        <ele>2172.6</ele>
        <time>2024-04-27T11:01:48Z</time>
      </trkpt>
      <trkpt lat="45.84969" lon="6.43982">
        <ele>2172.6</ele>
        <time>2024-04-27T11:01:49Z</time>
      </trkpt>
      <trkpt lat="45.84969" lon="6.43981">
        <ele>2172.6</ele>
        <time>2024-04-27T11:01:50Z</time>
      </trkpt>
      <trkpt lat="45.84969" lon="6.4398">
        <ele>2172.6</ele>
        <time>2024-04-27T11:01:51Z</time>
      </trkpt>
      <trkpt lat="45.84969" lon="6.4398">
        <ele>2172.6</ele>
        <time>2024-04-27T11:01:52Z</time>
      </trkpt>
      <trkpt lat="45.84969" lon="6.43979">
        <ele>2173.7</ele>
        <time>2024-04-27T11:01:53Z</time>
      </trkpt>
      <trkpt lat="45.84969" lon="6.43977">
        <ele>2173.7</ele>
        <time>2024-04-27T11:01:54Z</time>
      </trkpt>
      <trkpt lat="45.84969" lon="6.43976">
        <ele>2173.7</ele>
        <time>2024-04-27T11:01:55Z</time>
      </trkpt>
      <trkpt lat="45.84969" lon="6.43975">
        <ele>2173.7</ele>
        <time>2024-04-27T11:01:56Z</time>
      </trkpt>
      <trkpt lat="45.84969" lon="6.43975">
        <ele>2173.7</ele>
        <time>2024-04-27T11:01:57Z</time>
      </trkpt>
      <trkpt lat="45.84968" lon="6.43976">
        <ele>2173.7</ele>
        <time>2024-04-27T11:01:58Z</time>
      </trkpt>
      <trkpt lat="45.84968" lon="6.43977">
        <ele>2173.7</ele>
        <time>2024-04-27T11:01:59Z</time>
      </trkpt>
      <trkpt lat="45.84968" lon="6.43978">
        <ele>2173.7</ele>
        <time>2024-04-27T11:02:00Z</time>
      </trkpt>
      <trkpt lat="45.84968" lon="6.43979">
        <ele>2173.7</ele>
        <time>2024-04-27T11:02:01Z</time>
      </trkpt>
      <trkpt lat="45.84968" lon="6.43979">
        <ele>2173.7</ele>
        <time>2024-04-27T11:02:02Z</time>
      </trkpt>
      <trkpt lat="45.84967" lon="6.43978">
        <ele>2173.7</ele>
        <time>2024-04-27T11:02:03Z</time>
      </trkpt>
      <trkpt lat="45.84967" lon="6.43978">
        <ele>2173.7</ele>
        <time>2024-04-27T11:02:04Z</time>
      </trkpt>
      <trkpt lat="45.84967" lon="6.43978">
        <ele>2173.7</ele>
        <time>2024-04-27T11:02:05Z</time>
      </trkpt>
      <trkpt lat="45.84967" lon="6.43978">
        <ele>2173.7</ele>
        <time>2024-04-27T11:02:06Z</time>
      </trkpt>
      <trkpt lat="45.84967" lon="6.43978">
        <ele>2173.7</ele>
        <time>2024-04-27T11:02:07Z</time>
      </trkpt>
      <trkpt lat="45.84967" lon="6.43977">
        <ele>2173.7</ele>
        <time>2024-04-27T11:02:08Z</time>
      </trkpt>
      <trkpt lat="45.84967" lon="6.43977">
        <ele>2173.7</ele>
        <time>2024-04-27T11:02:09Z</time>
      </trkpt>
      <trkpt lat="45.84967" lon="6.43977">
        <ele>2173.7</ele>
        <time>2024-04-27T11:02:10Z</time>
      </trkpt>
      <trkpt lat="45.84968" lon="6.43977">
        <ele>2173.7</ele>
        <time>2024-04-27T11:02:11Z</time>
      </trkpt>
      <trkpt lat="45.84968" lon="6.43976">
        <ele>2173.7</ele>
        <time>2024-04-27T11:02:12Z</time>
      </trkpt>
      <trkpt lat="45.84967" lon="6.43976">
        <ele>2172.6</ele>
        <time>2024-04-27T11:02:13Z</time>
      </trkpt>
      <trkpt lat="45.84967" lon="6.43976">
        <ele>2172.6</ele>
        <time>2024-04-27T11:02:14Z</time>
      </trkpt>
      <trkpt lat="45.84967" lon="6.43975">
        <ele>2172.6</ele>
        <time>2024-04-27T11:02:15Z</time>
      </trkpt>
      <trkpt lat="45.84968" lon="6.43975">
        <ele>2172.6</ele>
        <time>2024-04-27T11:02:16Z</time>
      </trkpt>
      <trkpt lat="45.84968" lon="6.43975">
        <ele>2172.6</ele>
        <time>2024-04-27T11:02:17Z</time>
      </trkpt>
      <trkpt lat="45.84968" lon="6.43975">
        <ele>2172.6</ele>
        <time>2024-04-27T11:02:18Z</time>
      </trkpt>
      <trkpt lat="45.84968" lon="6.43975">
        <ele>2172.6</ele>
        <time>2024-04-27T11:02:19Z</time>
      </trkpt>
      <trkpt lat="45.84968" lon="6.43975">
        <ele>2172.6</ele>
        <time>2024-04-27T11:02:20Z</time>
      </trkpt>
      <trkpt lat="45.84968" lon="6.43975">
        <ele>2172.6</ele>
        <time>2024-04-27T11:02:21Z</time>
      </trkpt>
      <trkpt lat="45.84968" lon="6.43975">
        <ele>2172.6</ele>
        <time>2024-04-27T11:02:22Z</time>
      </trkpt>
      <trkpt lat="45.84968" lon="6.43975">
        <ele>2172.6</ele>
        <time>2024-04-27T11:02:23Z</time>
      </trkpt>
      <trkpt lat="45.84968" lon="6.43975">
        <ele>2172.6</ele>
        <time>2024-04-27T11:02:24Z</time>
      </trkpt>
      <trkpt lat="45.84968" lon="6.43975">
        <ele>2173.7</ele>
        <time>2024-04-27T11:02:25Z</time>
      </trkpt>
      <trkpt lat="45.84968" lon="6.43975">
        <ele>2173.7</ele>
        <time>2024-04-27T11:02:26Z</time>
      </trkpt>
      <trkpt lat="45.84968" lon="6.43975">
        <ele>2173.7</ele>
        <time>2024-04-27T11:02:27Z</time>
      </trkpt>
      <trkpt lat="45.84968" lon="6.43975">
        <ele>2173.7</ele>
        <time>2024-04-27T11:02:28Z</time>
      </trkpt>
      <trkpt lat="45.84968" lon="6.43975">
        <ele>2173.7</ele>
        <time>2024-04-27T11:02:29Z</time>
      </trkpt>
      <trkpt lat="45.84968" lon="6.43975">
        <ele>2173.7</ele>
        <time>2024-04-27T11:02:30Z</time>
      </trkpt>
      <trkpt lat="45.84968" lon="6.43976">
        <ele>2174.6</ele>
        <time>2024-04-27T11:02:31Z</time>
      </trkpt>
      <trkpt lat="45.84967" lon="6.43976">
        <ele>2174.6</ele>
        <time>2024-04-27T11:02:32Z</time>
      </trkpt>
      <trkpt lat="45.84967" lon="6.43976">
        <ele>2174.6</ele>
        <time>2024-04-27T11:02:33Z</time>
      </trkpt>
      <trkpt lat="45.84967" lon="6.43976">
        <ele>2174.6</ele>
        <time>2024-04-27T11:02:34Z</time>
      </trkpt>
      <trkpt lat="45.84967" lon="6.43976">
        <ele>2174.6</ele>
        <time>2024-04-27T11:02:35Z</time>
      </trkpt>
      <trkpt lat="45.84967" lon="6.43976">
        <ele>2174.6</ele>
        <time>2024-04-27T11:02:36Z</time>
      </trkpt>
      <trkpt lat="45.84967" lon="6.43976">
        <ele>2173.7</ele>
        <time>2024-04-27T11:02:37Z</time>
      </trkpt>
      <trkpt lat="45.84967" lon="6.43976">
        <ele>2173.7</ele>
        <time>2024-04-27T11:02:38Z</time>
      </trkpt>
      <trkpt lat="45.84967" lon="6.43976">
        <ele>2173.7</ele>
        <time>2024-04-27T11:02:39Z</time>
      </trkpt>
      <trkpt lat="45.84967" lon="6.43976">
        <ele>2173.7</ele>
        <time>2024-04-27T11:02:40Z</time>
      </trkpt>
      <trkpt lat="45.84967" lon="6.43976">
        <ele>2173.7</ele>
        <time>2024-04-27T11:02:41Z</time>
      </trkpt>
      <trkpt lat="45.84967" lon="6.43976">
        <ele>2173.7</ele>
        <time>2024-04-27T11:02:42Z</time>
      </trkpt>
      <trkpt lat="45.84967" lon="6.43976">
        <ele>2173.7</ele>
        <time>2024-04-27T11:02:43Z</time>
      </trkpt>
      <trkpt lat="45.84966" lon="6.43975">
        <ele>2173.7</ele>
        <time>2024-04-27T11:02:44Z</time>
      </trkpt>
      <trkpt lat="45.84966" lon="6.43975">
        <ele>2173.7</ele>
        <time>2024-04-27T11:02:45Z</time>
      </trkpt>
      <trkpt lat="45.84965" lon="6.43975">
        <ele>2173.7</ele>
        <time>2024-04-27T11:02:46Z</time>
      </trkpt>
      <trkpt lat="45.84964" lon="6.43975">
        <ele>2173.7</ele>
        <time>2024-04-27T11:02:47Z</time>
      </trkpt>
      <trkpt lat="45.84964" lon="6.43974">
        <ele>2173.7</ele>
        <time>2024-04-27T11:02:48Z</time>
      </trkpt>
      <trkpt lat="45.84964" lon="6.43974">
        <ele>2173.7</ele>
        <time>2024-04-27T11:02:49Z</time>
      </trkpt>
      <trkpt lat="45.84964" lon="6.43973">
        <ele>2173.7</ele>
        <time>2024-04-27T11:02:50Z</time>
      </trkpt>
      <trkpt lat="45.84963" lon="6.43973">
        <ele>2173.7</ele>
        <time>2024-04-27T11:02:51Z</time>
      </trkpt>
      <trkpt lat="45.84963" lon="6.43974">
        <ele>2173.7</ele>
        <time>2024-04-27T11:02:52Z</time>
      </trkpt>
      <trkpt lat="45.84963" lon="6.43974">
        <ele>2173.7</ele>
        <time>2024-04-27T11:02:53Z</time>
      </trkpt>
      <trkpt lat="45.84963" lon="6.43975">
        <ele>2173.7</ele>
        <time>2024-04-27T11:02:54Z</time>
      </trkpt>
      <trkpt lat="45.84963" lon="6.43975">
        <ele>2173.7</ele>
        <time>2024-04-27T11:02:55Z</time>
      </trkpt>
      <trkpt lat="45.84963" lon="6.43975">
        <ele>2173.7</ele>
        <time>2024-04-27T11:02:56Z</time>
      </trkpt>
      <trkpt lat="45.84964" lon="6.43976">
        <ele>2173.7</ele>
        <time>2024-04-27T11:02:57Z</time>
      </trkpt>
      <trkpt lat="45.84965" lon="6.43976">
        <ele>2173.7</ele>
        <time>2024-04-27T11:02:58Z</time>
      </trkpt>
      <trkpt lat="45.84965" lon="6.43977">
        <ele>2173.7</ele>
        <time>2024-04-27T11:02:59Z</time>
      </trkpt>
      <trkpt lat="45.84966" lon="6.43978">
        <ele>2173.7</ele>
        <time>2024-04-27T11:03:00Z</time>
      </trkpt>
      <trkpt lat="45.84966" lon="6.43979">
        <ele>2173.7</ele>
        <time>2024-04-27T11:03:01Z</time>
      </trkpt>
      <trkpt lat="45.84966" lon="6.4398">
        <ele>2173.7</ele>
        <time>2024-04-27T11:03:02Z</time>
      </trkpt>
      <trkpt lat="45.84966" lon="6.4398">
        <ele>2174.6</ele>
        <time>2024-04-27T11:03:03Z</time>
      </trkpt>
      <trkpt lat="45.84966" lon="6.4398">
        <ele>2174.6</ele>
        <time>2024-04-27T11:03:04Z</time>
      </trkpt>
      <trkpt lat="45.84966" lon="6.4398">
        <ele>2174.6</ele>
        <time>2024-04-27T11:03:05Z</time>
      </trkpt>
      <trkpt lat="45.84966" lon="6.4398">
        <ele>2174.6</ele>
        <time>2024-04-27T11:03:06Z</time>
      </trkpt>
      <trkpt lat="45.84966" lon="6.4398">
        <ele>2174.6</ele>
        <time>2024-04-27T11:03:07Z</time>
      </trkpt>
      <trkpt lat="45.84966" lon="6.4398">
        <ele>2174.6</ele>
        <time>2024-04-27T11:03:08Z</time>
      </trkpt>
      <trkpt lat="45.84966" lon="6.4398">
        <ele>2174.6</ele>
        <time>2024-04-27T11:03:09Z</time>
      </trkpt>
      <trkpt lat="45.84966" lon="6.4398">
        <ele>2174.6</ele>
        <time>2024-04-27T11:03:10Z</time>
      </trkpt>
      <trkpt lat="45.84966" lon="6.4398">
        <ele>2174.6</ele>
        <time>2024-04-27T11:03:11Z</time>
      </trkpt>
      <trkpt lat="45.84966" lon="6.4398">
        <ele>2174.6</ele>
        <time>2024-04-27T11:03:12Z</time>
      </trkpt>
      <trkpt lat="45.84966" lon="6.4398">
        <ele>2174.6</ele>
        <time>2024-04-27T11:03:13Z</time>
      </trkpt>
      <trkpt lat="45.84966" lon="6.4398">
        <ele>2174.6</ele>
        <time>2024-04-27T11:03:14Z</time>
      </trkpt>
      <trkpt lat="45.84966" lon="6.4398">
        <ele>2174.6</ele>
        <time>2024-04-27T11:03:15Z</time>
      </trkpt>
      <trkpt lat="45.84966" lon="6.4398">
        <ele>2174.6</ele>
        <time>2024-04-27T11:03:16Z</time>
      </trkpt>
      <trkpt lat="45.84966" lon="6.4398">
        <ele>2170.7</ele>
        <time>2024-04-27T11:03:17Z</time>
      </trkpt>
      <trkpt lat="45.84965" lon="6.4398">
        <ele>2170.7</ele>
        <time>2024-04-27T11:03:18Z</time>
      </trkpt>
      <trkpt lat="45.84965" lon="6.43981">
        <ele>2170.7</ele>
        <time>2024-04-27T11:03:19Z</time>
      </trkpt>
      <trkpt lat="45.84965" lon="6.43982">
        <ele>2170.7</ele>
        <time>2024-04-27T11:03:20Z</time>
      </trkpt>
      <trkpt lat="45.84965" lon="6.43982">
        <ele>2170.7</ele>
        <time>2024-04-27T11:03:21Z</time>
      </trkpt>
      <trkpt lat="45.84965" lon="6.43982">
        <ele>2170.7</ele>
        <time>2024-04-27T11:03:22Z</time>
      </trkpt>
      <trkpt lat="45.84965" lon="6.43983">
        <ele>2171.6</ele>
        <time>2024-04-27T11:03:23Z</time>
      </trkpt>
      <trkpt lat="45.84966" lon="6.43983">
        <ele>2171.6</ele>
        <time>2024-04-27T11:03:24Z</time>
      </trkpt>
      <trkpt lat="45.84966" lon="6.43983">
        <ele>2171.6</ele>
        <time>2024-04-27T11:03:25Z</time>
      </trkpt>
      <trkpt lat="45.84966" lon="6.43983">
        <ele>2171.6</ele>
        <time>2024-04-27T11:03:26Z</time>
      </trkpt>
      <trkpt lat="45.84966" lon="6.43983">
        <ele>2171.6</ele>
        <time>2024-04-27T11:03:27Z</time>
      </trkpt>
      <trkpt lat="45.84966" lon="6.43983">
        <ele>2171.6</ele>
        <time>2024-04-27T11:03:28Z</time>
      </trkpt>
      <trkpt lat="45.84966" lon="6.43983">
        <ele>2171.6</ele>
        <time>2024-04-27T11:03:29Z</time>
      </trkpt>
      <trkpt lat="45.84966" lon="6.43984">
        <ele>2171.6</ele>
        <time>2024-04-27T11:03:30Z</time>
      </trkpt>
      <trkpt lat="45.84966" lon="6.43985">
        <ele>2171.6</ele>
        <time>2024-04-27T11:03:31Z</time>
      </trkpt>
      <trkpt lat="45.84966" lon="6.43985">
        <ele>2171.6</ele>
        <time>2024-04-27T11:03:32Z</time>
      </trkpt>
      <trkpt lat="45.84966" lon="6.43985">
        <ele>2171.6</ele>
        <time>2024-04-27T11:03:33Z</time>
      </trkpt>
      <trkpt lat="45.84966" lon="6.43985">
        <ele>2171.6</ele>
        <time>2024-04-27T11:03:34Z</time>
      </trkpt>
      <trkpt lat="45.84966" lon="6.43985">
        <ele>2171.6</ele>
        <time>2024-04-27T11:03:35Z</time>
      </trkpt>
      <trkpt lat="45.84966" lon="6.43985">
        <ele>2171.6</ele>
        <time>2024-04-27T11:03:36Z</time>
      </trkpt>
      <trkpt lat="45.84967" lon="6.43986">
        <ele>2171.6</ele>
        <time>2024-04-27T11:03:37Z</time>
      </trkpt>
      <trkpt lat="45.84967" lon="6.43986">
        <ele>2171.6</ele>
        <time>2024-04-27T11:03:38Z</time>
      </trkpt>
      <trkpt lat="45.84967" lon="6.43986">
        <ele>2171.6</ele>
        <time>2024-04-27T11:03:39Z</time>
      </trkpt>
      <trkpt lat="45.84967" lon="6.43986">
        <ele>2171.6</ele>
        <time>2024-04-27T11:03:40Z</time>
      </trkpt>
      <trkpt lat="45.84967" lon="6.43986">
        <ele>2171.6</ele>
        <time>2024-04-27T11:03:41Z</time>
      </trkpt>
      <trkpt lat="45.84967" lon="6.43986">
        <ele>2171.6</ele>
        <time>2024-04-27T11:03:42Z</time>
      </trkpt>
      <trkpt lat="45.84967" lon="6.43986">
        <ele>2171.6</ele>
        <time>2024-04-27T11:03:43Z</time>
      </trkpt>
      <trkpt lat="45.84967" lon="6.43986">
        <ele>2171.6</ele>
        <time>2024-04-27T11:03:44Z</time>
      </trkpt>
      <trkpt lat="45.84966" lon="6.43988">
        <ele>2173.7</ele>
        <time>2024-04-27T11:03:45Z</time>
      </trkpt>
      <trkpt lat="45.84965" lon="6.43988">
        <ele>2173.7</ele>
        <time>2024-04-27T11:03:46Z</time>
      </trkpt>
      <trkpt lat="45.84965" lon="6.43989">
        <ele>2173.7</ele>
        <time>2024-04-27T11:03:47Z</time>
      </trkpt>
      <trkpt lat="45.84965" lon="6.43989">
        <ele>2173.7</ele>
        <time>2024-04-27T11:03:48Z</time>
      </trkpt>
      <trkpt lat="45.84965" lon="6.4399">
        <ele>2173.7</ele>
        <time>2024-04-27T11:03:49Z</time>
      </trkpt>
      <trkpt lat="45.84964" lon="6.43991">
        <ele>2173.7</ele>
        <time>2024-04-27T11:03:50Z</time>
      </trkpt>
      <trkpt lat="45.84964" lon="6.43992">
        <ele>2172.6</ele>
        <time>2024-04-27T11:03:51Z</time>
      </trkpt>
      <trkpt lat="45.84964" lon="6.43993">
        <ele>2172.6</ele>
        <time>2024-04-27T11:03:52Z</time>
      </trkpt>
      <trkpt lat="45.84964" lon="6.43994">
        <ele>2172.6</ele>
        <time>2024-04-27T11:03:53Z</time>
      </trkpt>
      <trkpt lat="45.84964" lon="6.43993">
        <ele>2172.6</ele>
        <time>2024-04-27T11:03:54Z</time>
      </trkpt>
      <trkpt lat="45.84965" lon="6.43993">
        <ele>2171.6</ele>
        <time>2024-04-27T11:03:55Z</time>
      </trkpt>
      <trkpt lat="45.84965" lon="6.43993">
        <ele>2171.6</ele>
        <time>2024-04-27T11:03:56Z</time>
      </trkpt>
      <trkpt lat="45.84966" lon="6.43993">
        <ele>2171.6</ele>
        <time>2024-04-27T11:03:57Z</time>
      </trkpt>
      <trkpt lat="45.84966" lon="6.43993">
        <ele>2171.6</ele>
        <time>2024-04-27T11:03:58Z</time>
      </trkpt>
      <trkpt lat="45.84966" lon="6.43993">
        <ele>2172.6</ele>
        <time>2024-04-27T11:03:59Z</time>
      </trkpt>
      <trkpt lat="45.84967" lon="6.43992">
        <ele>2172.6</ele>
        <time>2024-04-27T11:04:00Z</time>
      </trkpt>
      <trkpt lat="45.84966" lon="6.43992">
        <ele>2172.6</ele>
        <time>2024-04-27T11:04:01Z</time>
      </trkpt>
      <trkpt lat="45.84966" lon="6.43991">
        <ele>2172.6</ele>
        <time>2024-04-27T11:04:02Z</time>
      </trkpt>
      <trkpt lat="45.84966" lon="6.43991">
        <ele>2172.6</ele>
        <time>2024-04-27T11:04:03Z</time>
      </trkpt>
      <trkpt lat="45.84966" lon="6.43991">
        <ele>2172.6</ele>
        <time>2024-04-27T11:04:04Z</time>
      </trkpt>
      <trkpt lat="45.84966" lon="6.43991">
        <ele>2173.7</ele>
        <time>2024-04-27T11:04:05Z</time>
      </trkpt>
      <trkpt lat="45.84966" lon="6.4399">
        <ele>2173.7</ele>
        <time>2024-04-27T11:04:06Z</time>
      </trkpt>
      <trkpt lat="45.84966" lon="6.4399">
        <ele>2173.7</ele>
        <time>2024-04-27T11:04:07Z</time>
      </trkpt>
      <trkpt lat="45.84966" lon="6.4399">
        <ele>2173.7</ele>
        <time>2024-04-27T11:04:08Z</time>
      </trkpt>
      <trkpt lat="45.84966" lon="6.43991">
        <ele>2172.6</ele>
        <time>2024-04-27T11:04:09Z</time>
      </trkpt>
      <trkpt lat="45.84966" lon="6.43991">
        <ele>2172.6</ele>
        <time>2024-04-27T11:04:10Z</time>
      </trkpt>
      <trkpt lat="45.84966" lon="6.43992">
        <ele>2172.6</ele>
        <time>2024-04-27T11:04:11Z</time>
      </trkpt>
      <trkpt lat="45.84967" lon="6.43992">
        <ele>2172.6</ele>
        <time>2024-04-27T11:04:12Z</time>
      </trkpt>
      <trkpt lat="45.84969" lon="6.43992">
        <ele>2172.6</ele>
        <time>2024-04-27T11:04:13Z</time>
      </trkpt>
      <trkpt lat="45.84969" lon="6.43992">
        <ele>2172.6</ele>
        <time>2024-04-27T11:04:14Z</time>
      </trkpt>
      <trkpt lat="45.84969" lon="6.43992">
        <ele>2172.6</ele>
        <time>2024-04-27T11:04:15Z</time>
      </trkpt>
      <trkpt lat="45.84969" lon="6.43992">
        <ele>2172.6</ele>
        <time>2024-04-27T11:04:16Z</time>
      </trkpt>
      <trkpt lat="45.84969" lon="6.43993">
        <ele>2172.6</ele>
        <time>2024-04-27T11:04:17Z</time>
      </trkpt>
      <trkpt lat="45.84969" lon="6.43994">
        <ele>2172.6</ele>
        <time>2024-04-27T11:04:18Z</time>
      </trkpt>
      <trkpt lat="45.8497" lon="6.43994">
        <ele>2172.6</ele>
        <time>2024-04-27T11:04:19Z</time>
      </trkpt>
      <trkpt lat="45.8497" lon="6.43994">
        <ele>2172.6</ele>
        <time>2024-04-27T11:04:20Z</time>
      </trkpt>
      <trkpt lat="45.84971" lon="6.43994">
        <ele>2172.6</ele>
        <time>2024-04-27T11:04:21Z</time>
      </trkpt>
      <trkpt lat="45.84971" lon="6.43993">
        <ele>2172.6</ele>
        <time>2024-04-27T11:04:22Z</time>
      </trkpt>
      <trkpt lat="45.8497" lon="6.43994">
        <ele>2172.6</ele>
        <time>2024-04-27T11:04:23Z</time>
      </trkpt>
      <trkpt lat="45.84969" lon="6.43994">
        <ele>2172.6</ele>
        <time>2024-04-27T11:04:24Z</time>
      </trkpt>
      <trkpt lat="45.84969" lon="6.43995">
        <ele>2172.6</ele>
        <time>2024-04-27T11:04:25Z</time>
      </trkpt>
      <trkpt lat="45.84969" lon="6.43995">
        <ele>2172.6</ele>
        <time>2024-04-27T11:04:26Z</time>
      </trkpt>
      <trkpt lat="45.84969" lon="6.43995">
        <ele>2173.7</ele>
        <time>2024-04-27T11:04:27Z</time>
      </trkpt>
      <trkpt lat="45.84969" lon="6.43995">
        <ele>2173.7</ele>
        <time>2024-04-27T11:04:28Z</time>
      </trkpt>
      <trkpt lat="45.84969" lon="6.43995">
        <ele>2173.7</ele>
        <time>2024-04-27T11:04:29Z</time>
      </trkpt>
      <trkpt lat="45.84969" lon="6.43995">
        <ele>2173.7</ele>
        <time>2024-04-27T11:04:30Z</time>
      </trkpt>
      <trkpt lat="45.84969" lon="6.43995">
        <ele>2173.7</ele>
        <time>2024-04-27T11:04:31Z</time>
      </trkpt>
      <trkpt lat="45.84969" lon="6.43995">
        <ele>2173.7</ele>
        <time>2024-04-27T11:04:32Z</time>
      </trkpt>
      <trkpt lat="45.84969" lon="6.43994">
        <ele>2174.6</ele>
        <time>2024-04-27T11:04:33Z</time>
      </trkpt>
      <trkpt lat="45.84969" lon="6.43994">
        <ele>2174.6</ele>
        <time>2024-04-27T11:04:34Z</time>
      </trkpt>
      <trkpt lat="45.84969" lon="6.43994">
        <ele>2173.7</ele>
        <time>2024-04-27T11:04:35Z</time>
      </trkpt>
      <trkpt lat="45.84969" lon="6.43994">
        <ele>2173.7</ele>
        <time>2024-04-27T11:04:36Z</time>
      </trkpt>
      <trkpt lat="45.84969" lon="6.43994">
        <ele>2173.7</ele>
        <time>2024-04-27T11:04:37Z</time>
      </trkpt>
      <trkpt lat="45.84969" lon="6.43994">
        <ele>2173.7</ele>
        <time>2024-04-27T11:04:38Z</time>
      </trkpt>
      <trkpt lat="45.84969" lon="6.43994">
        <ele>2172.6</ele>
        <time>2024-04-27T11:04:39Z</time>
      </trkpt>
      <trkpt lat="45.84969" lon="6.43994">
        <ele>2172.6</ele>
        <time>2024-04-27T11:04:40Z</time>
      </trkpt>
      <trkpt lat="45.84969" lon="6.43994">
        <ele>2172.6</ele>
        <time>2024-04-27T11:04:41Z</time>
      </trkpt>
      <trkpt lat="45.84969" lon="6.43994">
        <ele>2172.6</ele>
        <time>2024-04-27T11:04:42Z</time>
      </trkpt>
      <trkpt lat="45.84968" lon="6.43994">
        <ele>2172.6</ele>
        <time>2024-04-27T11:04:43Z</time>
      </trkpt>
      <trkpt lat="45.84968" lon="6.43994">
        <ele>2172.6</ele>
        <time>2024-04-27T11:04:44Z</time>
      </trkpt>
      <trkpt lat="45.84968" lon="6.43994">
        <ele>2172.6</ele>
        <time>2024-04-27T11:04:45Z</time>
      </trkpt>
      <trkpt lat="45.84967" lon="6.43994">
        <ele>2172.6</ele>
        <time>2024-04-27T11:04:46Z</time>
      </trkpt>
      <trkpt lat="45.84967" lon="6.43994">
        <ele>2172.6</ele>
        <time>2024-04-27T11:04:47Z</time>
      </trkpt>
      <trkpt lat="45.84966" lon="6.43994">
        <ele>2172.6</ele>
        <time>2024-04-27T11:04:48Z</time>
      </trkpt>
      <trkpt lat="45.84966" lon="6.43994">
        <ele>2172.6</ele>
        <time>2024-04-27T11:04:49Z</time>
      </trkpt>
      <trkpt lat="45.84966" lon="6.43994">
        <ele>2172.6</ele>
        <time>2024-04-27T11:04:50Z</time>
      </trkpt>
      <trkpt lat="45.84965" lon="6.43994">
        <ele>2172.6</ele>
        <time>2024-04-27T11:04:51Z</time>
      </trkpt>
      <trkpt lat="45.84965" lon="6.43994">
        <ele>2172.6</ele>
        <time>2024-04-27T11:04:52Z</time>
      </trkpt>
      <trkpt lat="45.84965" lon="6.43994">
        <ele>2171.6</ele>
        <time>2024-04-27T11:04:53Z</time>
      </trkpt>
      <trkpt lat="45.84965" lon="6.43994">
        <ele>2171.6</ele>
        <time>2024-04-27T11:04:54Z</time>
      </trkpt>
      <trkpt lat="45.84965" lon="6.43994">
        <ele>2171.6</ele>
        <time>2024-04-27T11:04:55Z</time>
      </trkpt>
      <trkpt lat="45.84965" lon="6.43994">
        <ele>2171.6</ele>
        <time>2024-04-27T11:04:56Z</time>
      </trkpt>
      <trkpt lat="45.84965" lon="6.43994">
        <ele>2171.6</ele>
        <time>2024-04-27T11:04:57Z</time>
      </trkpt>
      <trkpt lat="45.84965" lon="6.43994">
        <ele>2171.6</ele>
        <time>2024-04-27T11:04:58Z</time>
      </trkpt>
      <trkpt lat="45.84965" lon="6.43994">
        <ele>2171.6</ele>
        <time>2024-04-27T11:04:59Z</time>
      </trkpt>
      <trkpt lat="45.84965" lon="6.43994">
        <ele>2171.6</ele>
        <time>2024-04-27T11:05:00Z</time>
      </trkpt>
      <trkpt lat="45.84965" lon="6.43995">
        <ele>2171.6</ele>
        <time>2024-04-27T11:05:01Z</time>
      </trkpt>
      <trkpt lat="45.84965" lon="6.43995">
        <ele>2171.6</ele>
        <time>2024-04-27T11:05:02Z</time>
      </trkpt>
      <trkpt lat="45.84965" lon="6.43995">
        <ele>2171.6</ele>
        <time>2024-04-27T11:05:03Z</time>
      </trkpt>
      <trkpt lat="45.84965" lon="6.43995">
        <ele>2171.6</ele>
        <time>2024-04-27T11:05:04Z</time>
      </trkpt>
      <trkpt lat="45.84965" lon="6.43995">
        <ele>2171.6</ele>
        <time>2024-04-27T11:05:05Z</time>
      </trkpt>
      <trkpt lat="45.84965" lon="6.43995">
        <ele>2171.6</ele>
        <time>2024-04-27T11:05:06Z</time>
      </trkpt>
      <trkpt lat="45.84965" lon="6.43995">
        <ele>2171.6</ele>
        <time>2024-04-27T11:05:07Z</time>
      </trkpt>
      <trkpt lat="45.84965" lon="6.43995">
        <ele>2171.6</ele>
        <time>2024-04-27T11:05:08Z</time>
      </trkpt>
      <trkpt lat="45.84965" lon="6.43995">
        <ele>2171.6</ele>
        <time>2024-04-27T11:05:09Z</time>
      </trkpt>
      <trkpt lat="45.84965" lon="6.43995">
        <ele>2171.6</ele>
        <time>2024-04-27T11:05:10Z</time>
      </trkpt>
      <trkpt lat="45.84965" lon="6.43995">
        <ele>2171.6</ele>
        <time>2024-04-27T11:05:11Z</time>
      </trkpt>
      <trkpt lat="45.84965" lon="6.43995">
        <ele>2171.6</ele>
        <time>2024-04-27T11:05:12Z</time>
      </trkpt>
      <trkpt lat="45.84965" lon="6.43995">
        <ele>2171.6</ele>
        <time>2024-04-27T11:05:13Z</time>
      </trkpt>
      <trkpt lat="45.84965" lon="6.43995">
        <ele>2171.6</ele>
        <time>2024-04-27T11:05:14Z</time>
      </trkpt>
      <trkpt lat="45.84965" lon="6.43995">
        <ele>2172.6</ele>
        <time>2024-04-27T11:05:15Z</time>
      </trkpt>
      <trkpt lat="45.84965" lon="6.43995">
        <ele>2172.6</ele>
        <time>2024-04-27T11:05:16Z</time>
      </trkpt>
      <trkpt lat="45.84965" lon="6.43995">
        <ele>2172.6</ele>
        <time>2024-04-27T11:05:17Z</time>
      </trkpt>
      <trkpt lat="45.84965" lon="6.43995">
        <ele>2172.6</ele>
        <time>2024-04-27T11:05:18Z</time>
      </trkpt>
      <trkpt lat="45.84964" lon="6.43995">
        <ele>2172.6</ele>
        <time>2024-04-27T11:05:19Z</time>
      </trkpt>
      <trkpt lat="45.84964" lon="6.43995">
        <ele>2172.6</ele>
        <time>2024-04-27T11:05:20Z</time>
      </trkpt>
      <trkpt lat="45.84964" lon="6.43995">
        <ele>2172.6</ele>
        <time>2024-04-27T11:05:21Z</time>
      </trkpt>
      <trkpt lat="45.84964" lon="6.43995">
        <ele>2172.6</ele>
        <time>2024-04-27T11:05:22Z</time>
      </trkpt>
      <trkpt lat="45.84964" lon="6.43995">
        <ele>2171.6</ele>
        <time>2024-04-27T11:05:23Z</time>
      </trkpt>
      <trkpt lat="45.84964" lon="6.43995">
        <ele>2171.6</ele>
        <time>2024-04-27T11:05:24Z</time>
      </trkpt>
      <trkpt lat="45.84964" lon="6.43995">
        <ele>2171.6</ele>
        <time>2024-04-27T11:05:25Z</time>
      </trkpt>
      <trkpt lat="45.84964" lon="6.43995">
        <ele>2171.6</ele>
        <time>2024-04-27T11:05:26Z</time>
      </trkpt>
      <trkpt lat="45.84964" lon="6.43995">
        <ele>2170.7</ele>
        <time>2024-04-27T11:05:27Z</time>
      </trkpt>
      <trkpt lat="45.84964" lon="6.43995">
        <ele>2170.7</ele>
        <time>2024-04-27T11:05:28Z</time>
      </trkpt>
      <trkpt lat="45.84964" lon="6.43995">
        <ele>2170.7</ele>
        <time>2024-04-27T11:05:29Z</time>
      </trkpt>
      <trkpt lat="45.84964" lon="6.43995">
        <ele>2170.7</ele>
        <time>2024-04-27T11:05:30Z</time>
      </trkpt>
      <trkpt lat="45.84964" lon="6.43995">
        <ele>2169.6</ele>
        <time>2024-04-27T11:05:31Z</time>
      </trkpt>
      <trkpt lat="45.84964" lon="6.43995">
        <ele>2169.6</ele>
        <time>2024-04-27T11:05:32Z</time>
      </trkpt>
      <trkpt lat="45.84964" lon="6.43995">
        <ele>2169.6</ele>
        <time>2024-04-27T11:05:33Z</time>
      </trkpt>
      <trkpt lat="45.84964" lon="6.43995">
        <ele>2169.6</ele>
        <time>2024-04-27T11:05:34Z</time>
      </trkpt>
      <trkpt lat="45.84964" lon="6.43995">
        <ele>2169.6</ele>
        <time>2024-04-27T11:05:35Z</time>
      </trkpt>
      <trkpt lat="45.84964" lon="6.43996">
        <ele>2169.6</ele>
        <time>2024-04-27T11:05:36Z</time>
      </trkpt>
      <trkpt lat="45.84964" lon="6.43996">
        <ele>2169.6</ele>
        <time>2024-04-27T11:05:37Z</time>
      </trkpt>
      <trkpt lat="45.84964" lon="6.43996">
        <ele>2169.6</ele>
        <time>2024-04-27T11:05:38Z</time>
      </trkpt>
      <trkpt lat="45.84964" lon="6.43996">
        <ele>2170.7</ele>
        <time>2024-04-27T11:05:39Z</time>
      </trkpt>
      <trkpt lat="45.84964" lon="6.43996">
        <ele>2170.7</ele>
        <time>2024-04-27T11:05:40Z</time>
      </trkpt>
      <trkpt lat="45.84965" lon="6.43996">
        <ele>2170.7</ele>
        <time>2024-04-27T11:05:41Z</time>
      </trkpt>
      <trkpt lat="45.84965" lon="6.43996">
        <ele>2170.7</ele>
        <time>2024-04-27T11:05:42Z</time>
      </trkpt>
      <trkpt lat="45.84965" lon="6.43995">
        <ele>2170.7</ele>
        <time>2024-04-27T11:05:43Z</time>
      </trkpt>
      <trkpt lat="45.84965" lon="6.43996">
        <ele>2170.7</ele>
        <time>2024-04-27T11:05:44Z</time>
      </trkpt>
      <trkpt lat="45.84965" lon="6.43996">
        <ele>2170.7</ele>
        <time>2024-04-27T11:05:45Z</time>
      </trkpt>
      <trkpt lat="45.84965" lon="6.43996">
        <ele>2170.7</ele>
        <time>2024-04-27T11:05:46Z</time>
      </trkpt>
      <trkpt lat="45.84966" lon="6.43996">
        <ele>2170.7</ele>
        <time>2024-04-27T11:05:47Z</time>
      </trkpt>
      <trkpt lat="45.84966" lon="6.43996">
        <ele>2170.7</ele>
        <time>2024-04-27T11:05:48Z</time>
      </trkpt>
      <trkpt lat="45.84966" lon="6.43996">
        <ele>2171.6</ele>
        <time>2024-04-27T11:05:49Z</time>
      </trkpt>
      <trkpt lat="45.84966" lon="6.43996">
        <ele>2171.6</ele>
        <time>2024-04-27T11:05:50Z</time>
      </trkpt>
      <trkpt lat="45.84966" lon="6.43996">
        <ele>2171.6</ele>
        <time>2024-04-27T11:05:51Z</time>
      </trkpt>
      <trkpt lat="45.84966" lon="6.43996">
        <ele>2171.6</ele>
        <time>2024-04-27T11:05:52Z</time>
      </trkpt>
      <trkpt lat="45.84966" lon="6.43996">
        <ele>2171.6</ele>
        <time>2024-04-27T11:05:53Z</time>
      </trkpt>
      <trkpt lat="45.84966" lon="6.43996">
        <ele>2171.6</ele>
        <time>2024-04-27T11:05:54Z</time>
      </trkpt>
      <trkpt lat="45.84967" lon="6.43996">
        <ele>2171.6</ele>
        <time>2024-04-27T11:05:55Z</time>
      </trkpt>
      <trkpt lat="45.84967" lon="6.43996">
        <ele>2171.6</ele>
        <time>2024-04-27T11:05:56Z</time>
      </trkpt>
      <trkpt lat="45.84967" lon="6.43996">
        <ele>2171.6</ele>
        <time>2024-04-27T11:05:57Z</time>
      </trkpt>
      <trkpt lat="45.84967" lon="6.43996">
        <ele>2171.6</ele>
        <time>2024-04-27T11:05:58Z</time>
      </trkpt>
      <trkpt lat="45.84967" lon="6.43996">
        <ele>2171.6</ele>
        <time>2024-04-27T11:05:59Z</time>
      </trkpt>
      <trkpt lat="45.84967" lon="6.43996">
        <ele>2171.6</ele>
        <time>2024-04-27T11:06:00Z</time>
      </trkpt>
      <trkpt lat="45.84967" lon="6.43995">
        <ele>2171.6</ele>
        <time>2024-04-27T11:06:01Z</time>
      </trkpt>
      <trkpt lat="45.84967" lon="6.43995">
        <ele>2171.6</ele>
        <time>2024-04-27T11:06:02Z</time>
      </trkpt>
      <trkpt lat="45.84967" lon="6.43995">
        <ele>2172.6</ele>
        <time>2024-04-27T11:06:03Z</time>
      </trkpt>
      <trkpt lat="45.84967" lon="6.43995">
        <ele>2172.6</ele>
        <time>2024-04-27T11:06:04Z</time>
      </trkpt>
      <trkpt lat="45.84967" lon="6.43995">
        <ele>2172.6</ele>
        <time>2024-04-27T11:06:05Z</time>
      </trkpt>
      <trkpt lat="45.84967" lon="6.43995">
        <ele>2172.6</ele>
        <time>2024-04-27T11:06:06Z</time>
      </trkpt>
      <trkpt lat="45.84967" lon="6.43995">
        <ele>2172.6</ele>
        <time>2024-04-27T11:06:07Z</time>
      </trkpt>
      <trkpt lat="45.84967" lon="6.43995">
        <ele>2172.6</ele>
        <time>2024-04-27T11:06:08Z</time>
      </trkpt>
      <trkpt lat="45.84967" lon="6.43995">
        <ele>2171.6</ele>
        <time>2024-04-27T11:06:09Z</time>
      </trkpt>
      <trkpt lat="45.84967" lon="6.43995">
        <ele>2171.6</ele>
        <time>2024-04-27T11:06:10Z</time>
      </trkpt>
      <trkpt lat="45.84967" lon="6.43995">
        <ele>2171.6</ele>
        <time>2024-04-27T11:06:11Z</time>
      </trkpt>
      <trkpt lat="45.84967" lon="6.43995">
        <ele>2171.6</ele>
        <time>2024-04-27T11:06:12Z</time>
      </trkpt>
      <trkpt lat="45.84967" lon="6.43995">
        <ele>2171.6</ele>
        <time>2024-04-27T11:06:13Z</time>
      </trkpt>
      <trkpt lat="45.84967" lon="6.43995">
        <ele>2171.6</ele>
        <time>2024-04-27T11:06:14Z</time>
      </trkpt>
      <trkpt lat="45.84967" lon="6.43994">
        <ele>2166.7</ele>
        <time>2024-04-27T11:06:15Z</time>
      </trkpt>
      <trkpt lat="45.84967" lon="6.43994">
        <ele>2166.7</ele>
        <time>2024-04-27T11:06:16Z</time>
      </trkpt>
      <trkpt lat="45.84967" lon="6.43994">
        <ele>2166.7</ele>
        <time>2024-04-27T11:06:17Z</time>
      </trkpt>
      <trkpt lat="45.84967" lon="6.43994">
        <ele>2166.7</ele>
        <time>2024-04-27T11:06:18Z</time>
      </trkpt>
      <trkpt lat="45.84967" lon="6.43993">
        <ele>2166.7</ele>
        <time>2024-04-27T11:06:19Z</time>
      </trkpt>
      <trkpt lat="45.84967" lon="6.43993">
        <ele>2166.7</ele>
        <time>2024-04-27T11:06:20Z</time>
      </trkpt>
      <trkpt lat="45.84967" lon="6.43992">
        <ele>2164.7</ele>
        <time>2024-04-27T11:06:21Z</time>
      </trkpt>
      <trkpt lat="45.84967" lon="6.43992">
        <ele>2164.7</ele>
        <time>2024-04-27T11:06:22Z</time>
      </trkpt>
      <trkpt lat="45.84967" lon="6.43992">
        <ele>2164.7</ele>
        <time>2024-04-27T11:06:23Z</time>
      </trkpt>
      <trkpt lat="45.84967" lon="6.43992">
        <ele>2164.7</ele>
        <time>2024-04-27T11:06:24Z</time>
      </trkpt>
      <trkpt lat="45.84967" lon="6.43992">
        <ele>2164.7</ele>
        <time>2024-04-27T11:06:25Z</time>
      </trkpt>
      <trkpt lat="45.84967" lon="6.43991">
        <ele>2164.7</ele>
        <time>2024-04-27T11:06:26Z</time>
      </trkpt>
      <trkpt lat="45.84967" lon="6.43991">
        <ele>2165.6</ele>
        <time>2024-04-27T11:06:27Z</time>
      </trkpt>
      <trkpt lat="45.84967" lon="6.43991">
        <ele>2165.6</ele>
        <time>2024-04-27T11:06:28Z</time>
      </trkpt>
      <trkpt lat="45.84967" lon="6.43991">
        <ele>2165.6</ele>
        <time>2024-04-27T11:06:29Z</time>
      </trkpt>
      <trkpt lat="45.84968" lon="6.43991">
        <ele>2165.6</ele>
        <time>2024-04-27T11:06:30Z</time>
      </trkpt>
      <trkpt lat="45.84968" lon="6.43991">
        <ele>2167.6</ele>
        <time>2024-04-27T11:06:31Z</time>
      </trkpt>
      <trkpt lat="45.84968" lon="6.43991">
        <ele>2167.6</ele>
        <time>2024-04-27T11:06:32Z</time>
      </trkpt>
      <trkpt lat="45.84968" lon="6.43991">
        <ele>2167.6</ele>
        <time>2024-04-27T11:06:33Z</time>
      </trkpt>
      <trkpt lat="45.84968" lon="6.43991">
        <ele>2167.6</ele>
        <time>2024-04-27T11:06:34Z</time>
      </trkpt>
      <trkpt lat="45.84968" lon="6.43991">
        <ele>2167.6</ele>
        <time>2024-04-27T11:06:35Z</time>
      </trkpt>
      <trkpt lat="45.84968" lon="6.43991">
        <ele>2167.6</ele>
        <time>2024-04-27T11:06:36Z</time>
      </trkpt>
      <trkpt lat="45.84968" lon="6.4399">
        <ele>2168.7</ele>
        <time>2024-04-27T11:06:37Z</time>
      </trkpt>
      <trkpt lat="45.84968" lon="6.4399">
        <ele>2168.7</ele>
        <time>2024-04-27T11:06:38Z</time>
      </trkpt>
      <trkpt lat="45.84968" lon="6.4399">
        <ele>2168.7</ele>
        <time>2024-04-27T11:06:39Z</time>
      </trkpt>
      <trkpt lat="45.84968" lon="6.43989">
        <ele>2168.7</ele>
        <time>2024-04-27T11:06:40Z</time>
      </trkpt>
      <trkpt lat="45.84968" lon="6.43989">
        <ele>2168.7</ele>
        <time>2024-04-27T11:06:41Z</time>
      </trkpt>
      <trkpt lat="45.84968" lon="6.43989">
        <ele>2168.7</ele>
        <time>2024-04-27T11:06:42Z</time>
      </trkpt>
      <trkpt lat="45.84968" lon="6.43989">
        <ele>2168.7</ele>
        <time>2024-04-27T11:06:43Z</time>
      </trkpt>
      <trkpt lat="45.84968" lon="6.43989">
        <ele>2168.7</ele>
        <time>2024-04-27T11:06:44Z</time>
      </trkpt>
      <trkpt lat="45.84968" lon="6.43989">
        <ele>2168.7</ele>
        <time>2024-04-27T11:06:45Z</time>
      </trkpt>
      <trkpt lat="45.84968" lon="6.43989">
        <ele>2168.7</ele>
        <time>2024-04-27T11:06:46Z</time>
      </trkpt>
      <trkpt lat="45.84968" lon="6.43989">
        <ele>2167.6</ele>
        <time>2024-04-27T11:06:47Z</time>
      </trkpt>
      <trkpt lat="45.84968" lon="6.43989">
        <ele>2167.6</ele>
        <time>2024-04-27T11:06:48Z</time>
      </trkpt>
      <trkpt lat="45.84968" lon="6.43989">
        <ele>2167.6</ele>
        <time>2024-04-27T11:06:49Z</time>
      </trkpt>
      <trkpt lat="45.84968" lon="6.43989">
        <ele>2167.6</ele>
        <time>2024-04-27T11:06:50Z</time>
      </trkpt>
      <trkpt lat="45.84968" lon="6.43989">
        <ele>2167.6</ele>
        <time>2024-04-27T11:06:51Z</time>
      </trkpt>
      <trkpt lat="45.84968" lon="6.43989">
        <ele>2167.6</ele>
        <time>2024-04-27T11:06:52Z</time>
      </trkpt>
      <trkpt lat="45.84968" lon="6.43989">
        <ele>2167.6</ele>
        <time>2024-04-27T11:06:53Z</time>
      </trkpt>
      <trkpt lat="45.84968" lon="6.43989">
        <ele>2167.6</ele>
        <time>2024-04-27T11:06:54Z</time>
      </trkpt>
      <trkpt lat="45.84968" lon="6.43989">
        <ele>2167.6</ele>
        <time>2024-04-27T11:06:55Z</time>
      </trkpt>
      <trkpt lat="45.84968" lon="6.43989">
        <ele>2167.6</ele>
        <time>2024-04-27T11:06:56Z</time>
      </trkpt>
      <trkpt lat="45.84968" lon="6.43989">
        <ele>2168.7</ele>
        <time>2024-04-27T11:06:57Z</time>
      </trkpt>
      <trkpt lat="45.84968" lon="6.43989">
        <ele>2168.7</ele>
        <time>2024-04-27T11:06:58Z</time>
      </trkpt>
      <trkpt lat="45.84968" lon="6.43989">
        <ele>2168.7</ele>
        <time>2024-04-27T11:06:59Z</time>
      </trkpt>
      <trkpt lat="45.84968" lon="6.43989">
        <ele>2168.7</ele>
        <time>2024-04-27T11:07:00Z</time>
      </trkpt>
      <trkpt lat="45.84968" lon="6.43989">
        <ele>2169.6</ele>
        <time>2024-04-27T11:07:01Z</time>
      </trkpt>
      <trkpt lat="45.84968" lon="6.43989">
        <ele>2169.6</ele>
        <time>2024-04-27T11:07:02Z</time>
      </trkpt>
      <trkpt lat="45.84968" lon="6.43989">
        <ele>2169.6</ele>
        <time>2024-04-27T11:07:03Z</time>
      </trkpt>
      <trkpt lat="45.84968" lon="6.43989">
        <ele>2169.6</ele>
        <time>2024-04-27T11:07:04Z</time>
      </trkpt>
      <trkpt lat="45.84968" lon="6.43989">
        <ele>2170.7</ele>
        <time>2024-04-27T11:07:05Z</time>
      </trkpt>
      <trkpt lat="45.84968" lon="6.43989">
        <ele>2170.7</ele>
        <time>2024-04-27T11:07:06Z</time>
      </trkpt>
      <trkpt lat="45.84968" lon="6.43989">
        <ele>2170.7</ele>
        <time>2024-04-27T11:07:07Z</time>
      </trkpt>
      <trkpt lat="45.84968" lon="6.43989">
        <ele>2170.7</ele>
        <time>2024-04-27T11:07:08Z</time>
      </trkpt>
      <trkpt lat="45.84968" lon="6.43989">
        <ele>2170.7</ele>
        <time>2024-04-27T11:07:09Z</time>
      </trkpt>
      <trkpt lat="45.84968" lon="6.43989">
        <ele>2170.7</ele>
        <time>2024-04-27T11:07:10Z</time>
      </trkpt>
      <trkpt lat="45.84968" lon="6.43989">
        <ele>2170.7</ele>
        <time>2024-04-27T11:07:11Z</time>
      </trkpt>
      <trkpt lat="45.84968" lon="6.43989">
        <ele>2170.7</ele>
        <time>2024-04-27T11:07:12Z</time>
      </trkpt>
      <trkpt lat="45.84968" lon="6.43989">
        <ele>2170.7</ele>
        <time>2024-04-27T11:07:13Z</time>
      </trkpt>
      <trkpt lat="45.84968" lon="6.4399">
        <ele>2170.7</ele>
        <time>2024-04-27T11:07:14Z</time>
      </trkpt>
      <trkpt lat="45.84968" lon="6.4399">
        <ele>2170.7</ele>
        <time>2024-04-27T11:07:15Z</time>
      </trkpt>
      <trkpt lat="45.84968" lon="6.4399">
        <ele>2170.7</ele>
        <time>2024-04-27T11:07:16Z</time>
      </trkpt>
      <trkpt lat="45.84967" lon="6.4399">
        <ele>2170.7</ele>
        <time>2024-04-27T11:07:17Z</time>
      </trkpt>
      <trkpt lat="45.84967" lon="6.4399">
        <ele>2170.7</ele>
        <time>2024-04-27T11:07:18Z</time>
      </trkpt>
      <trkpt lat="45.84967" lon="6.4399">
        <ele>2170.7</ele>
        <time>2024-04-27T11:07:19Z</time>
      </trkpt>
      <trkpt lat="45.84967" lon="6.4399">
        <ele>2170.7</ele>
        <time>2024-04-27T11:07:20Z</time>
      </trkpt>
      <trkpt lat="45.84967" lon="6.4399">
        <ele>2170.7</ele>
        <time>2024-04-27T11:07:21Z</time>
      </trkpt>
      <trkpt lat="45.84967" lon="6.4399">
        <ele>2170.7</ele>
        <time>2024-04-27T11:07:22Z</time>
      </trkpt>
      <trkpt lat="45.84967" lon="6.4399">
        <ele>2170.7</ele>
        <time>2024-04-27T11:07:23Z</time>
      </trkpt>
      <trkpt lat="45.84967" lon="6.4399">
        <ele>2170.7</ele>
        <time>2024-04-27T11:07:24Z</time>
      </trkpt>
      <trkpt lat="45.84967" lon="6.4399">
        <ele>2170.7</ele>
        <time>2024-04-27T11:07:25Z</time>
      </trkpt>
      <trkpt lat="45.84967" lon="6.43991">
        <ele>2170.7</ele>
        <time>2024-04-27T11:07:26Z</time>
      </trkpt>
      <trkpt lat="45.84967" lon="6.43991">
        <ele>2170.7</ele>
        <time>2024-04-27T11:07:27Z</time>
      </trkpt>
      <trkpt lat="45.84967" lon="6.43991">
        <ele>2170.7</ele>
        <time>2024-04-27T11:07:28Z</time>
      </trkpt>
      <trkpt lat="45.84967" lon="6.43991">
        <ele>2170.7</ele>
        <time>2024-04-27T11:07:29Z</time>
      </trkpt>
      <trkpt lat="45.84968" lon="6.43991">
        <ele>2170.7</ele>
        <time>2024-04-27T11:07:30Z</time>
      </trkpt>
      <trkpt lat="45.84968" lon="6.43991">
        <ele>2170.7</ele>
        <time>2024-04-27T11:07:31Z</time>
      </trkpt>
      <trkpt lat="45.84969" lon="6.43991">
        <ele>2170.7</ele>
        <time>2024-04-27T11:07:32Z</time>
      </trkpt>
      <trkpt lat="45.84969" lon="6.43991">
        <ele>2170.7</ele>
        <time>2024-04-27T11:07:33Z</time>
      </trkpt>
      <trkpt lat="45.84969" lon="6.43991">
        <ele>2170.7</ele>
        <time>2024-04-27T11:07:34Z</time>
      </trkpt>
      <trkpt lat="45.84969" lon="6.43991">
        <ele>2170.7</ele>
        <time>2024-04-27T11:07:35Z</time>
      </trkpt>
      <trkpt lat="45.84969" lon="6.43991">
        <ele>2170.7</ele>
        <time>2024-04-27T11:07:36Z</time>
      </trkpt>
      <trkpt lat="45.84969" lon="6.43991">
        <ele>2170.7</ele>
        <time>2024-04-27T11:07:37Z</time>
      </trkpt>
      <trkpt lat="45.84968" lon="6.4399">
        <ele>2170.7</ele>
        <time>2024-04-27T11:07:38Z</time>
      </trkpt>
      <trkpt lat="45.84968" lon="6.4399">
        <ele>2170.7</ele>
        <time>2024-04-27T11:07:39Z</time>
      </trkpt>
      <trkpt lat="45.84968" lon="6.4399">
        <ele>2170.7</ele>
        <time>2024-04-27T11:07:40Z</time>
      </trkpt>
      <trkpt lat="45.84968" lon="6.4399">
        <ele>2170.7</ele>
        <time>2024-04-27T11:07:41Z</time>
      </trkpt>
      <trkpt lat="45.84968" lon="6.4399">
        <ele>2170.7</ele>
        <time>2024-04-27T11:07:42Z</time>
      </trkpt>
      <trkpt lat="45.84968" lon="6.4399">
        <ele>2170.7</ele>
        <time>2024-04-27T11:07:43Z</time>
      </trkpt>
      <trkpt lat="45.84968" lon="6.4399">
        <ele>2170.7</ele>
        <time>2024-04-27T11:07:44Z</time>
      </trkpt>
      <trkpt lat="45.84968" lon="6.4399">
        <ele>2170.7</ele>
        <time>2024-04-27T11:07:45Z</time>
      </trkpt>
      <trkpt lat="45.84968" lon="6.4399">
        <ele>2170.7</ele>
        <time>2024-04-27T11:07:46Z</time>
      </trkpt>
      <trkpt lat="45.84968" lon="6.4399">
        <ele>2170.7</ele>
        <time>2024-04-27T11:07:47Z</time>
      </trkpt>
      <trkpt lat="45.84968" lon="6.4399">
        <ele>2170.7</ele>
        <time>2024-04-27T11:07:48Z</time>
      </trkpt>
      <trkpt lat="45.84968" lon="6.4399">
        <ele>2170.7</ele>
        <time>2024-04-27T11:07:49Z</time>
      </trkpt>
      <trkpt lat="45.84968" lon="6.4399">
        <ele>2170.7</ele>
        <time>2024-04-27T11:07:50Z</time>
      </trkpt>
      <trkpt lat="45.84968" lon="6.4399">
        <ele>2170.7</ele>
        <time>2024-04-27T11:07:51Z</time>
      </trkpt>
      <trkpt lat="45.84968" lon="6.4399">
        <ele>2170.7</ele>
        <time>2024-04-27T11:07:52Z</time>
      </trkpt>
      <trkpt lat="45.84968" lon="6.4399">
        <ele>2169.6</ele>
        <time>2024-04-27T11:07:53Z</time>
      </trkpt>
      <trkpt lat="45.84968" lon="6.4399">
        <ele>2169.6</ele>
        <time>2024-04-27T11:07:54Z</time>
      </trkpt>
      <trkpt lat="45.84967" lon="6.4399">
        <ele>2169.6</ele>
        <time>2024-04-27T11:07:55Z</time>
      </trkpt>
      <trkpt lat="45.84967" lon="6.4399">
        <ele>2169.6</ele>
        <time>2024-04-27T11:07:56Z</time>
      </trkpt>
      <trkpt lat="45.84967" lon="6.4399">
        <ele>2169.6</ele>
        <time>2024-04-27T11:07:57Z</time>
      </trkpt>
      <trkpt lat="45.84967" lon="6.4399">
        <ele>2169.6</ele>
        <time>2024-04-27T11:07:58Z</time>
      </trkpt>
      <trkpt lat="45.84967" lon="6.4399">
        <ele>2169.6</ele>
        <time>2024-04-27T11:07:59Z</time>
      </trkpt>
      <trkpt lat="45.84967" lon="6.4399">
        <ele>2169.6</ele>
        <time>2024-04-27T11:08:00Z</time>
      </trkpt>
      <trkpt lat="45.84967" lon="6.43989">
        <ele>2169.6</ele>
        <time>2024-04-27T11:08:01Z</time>
      </trkpt>
      <trkpt lat="45.84966" lon="6.43988">
        <ele>2169.6</ele>
        <time>2024-04-27T11:08:02Z</time>
      </trkpt>
      <trkpt lat="45.84966" lon="6.43988">
        <ele>2169.6</ele>
        <time>2024-04-27T11:08:03Z</time>
      </trkpt>
      <trkpt lat="45.84966" lon="6.43988">
        <ele>2169.6</ele>
        <time>2024-04-27T11:08:04Z</time>
      </trkpt>
      <trkpt lat="45.84966" lon="6.43988">
        <ele>2169.6</ele>
        <time>2024-04-27T11:08:05Z</time>
      </trkpt>
      <trkpt lat="45.84966" lon="6.43988">
        <ele>2169.6</ele>
        <time>2024-04-27T11:08:06Z</time>
      </trkpt>
      <trkpt lat="45.84966" lon="6.43988">
        <ele>2170.7</ele>
        <time>2024-04-27T11:08:07Z</time>
      </trkpt>
      <trkpt lat="45.84966" lon="6.43988">
        <ele>2170.7</ele>
        <time>2024-04-27T11:08:08Z</time>
      </trkpt>
      <trkpt lat="45.84966" lon="6.43987">
        <ele>2171.6</ele>
        <time>2024-04-27T11:08:09Z</time>
      </trkpt>
      <trkpt lat="45.84966" lon="6.43987">
        <ele>2171.6</ele>
        <time>2024-04-27T11:08:10Z</time>
      </trkpt>
      <trkpt lat="45.84966" lon="6.43987">
        <ele>2171.6</ele>
        <time>2024-04-27T11:08:11Z</time>
      </trkpt>
      <trkpt lat="45.84966" lon="6.43987">
        <ele>2171.6</ele>
        <time>2024-04-27T11:08:12Z</time>
      </trkpt>
      <trkpt lat="45.84966" lon="6.43987">
        <ele>2171.6</ele>
        <time>2024-04-27T11:08:13Z</time>
      </trkpt>
      <trkpt lat="45.84966" lon="6.43987">
        <ele>2171.6</ele>
        <time>2024-04-27T11:08:14Z</time>
      </trkpt>
      <trkpt lat="45.84966" lon="6.43987">
        <ele>2171.6</ele>
        <time>2024-04-27T11:08:15Z</time>
      </trkpt>
      <trkpt lat="45.84966" lon="6.43987">
        <ele>2171.6</ele>
        <time>2024-04-27T11:08:16Z</time>
      </trkpt>
      <trkpt lat="45.84966" lon="6.43987">
        <ele>2171.6</ele>
        <time>2024-04-27T11:08:17Z</time>
      </trkpt>
      <trkpt lat="45.84966" lon="6.43987">
        <ele>2171.6</ele>
        <time>2024-04-27T11:08:18Z</time>
      </trkpt>
      <trkpt lat="45.84966" lon="6.43987">
        <ele>2170.7</ele>
        <time>2024-04-27T11:08:19Z</time>
      </trkpt>
      <trkpt lat="45.84966" lon="6.43988">
        <ele>2170.7</ele>
        <time>2024-04-27T11:08:20Z</time>
      </trkpt>
      <trkpt lat="45.84966" lon="6.43988">
        <ele>2170.7</ele>
        <time>2024-04-27T11:08:21Z</time>
      </trkpt>
      <trkpt lat="45.84966" lon="6.43988">
        <ele>2170.7</ele>
        <time>2024-04-27T11:08:22Z</time>
      </trkpt>
      <trkpt lat="45.84966" lon="6.43988">
        <ele>2170.7</ele>
        <time>2024-04-27T11:08:23Z</time>
      </trkpt>
      <trkpt lat="45.84966" lon="6.43989">
        <ele>2170.7</ele>
        <time>2024-04-27T11:08:24Z</time>
      </trkpt>
      <trkpt lat="45.84966" lon="6.43989">
        <ele>2170.7</ele>
        <time>2024-04-27T11:08:25Z</time>
      </trkpt>
      <trkpt lat="45.84966" lon="6.43989">
        <ele>2170.7</ele>
        <time>2024-04-27T11:08:26Z</time>
      </trkpt>
      <trkpt lat="45.84966" lon="6.43989">
        <ele>2170.7</ele>
        <time>2024-04-27T11:08:27Z</time>
      </trkpt>
      <trkpt lat="45.84966" lon="6.43989">
        <ele>2170.7</ele>
        <time>2024-04-27T11:08:28Z</time>
      </trkpt>
      <trkpt lat="45.84966" lon="6.43989">
        <ele>2170.7</ele>
        <time>2024-04-27T11:08:29Z</time>
      </trkpt>
      <trkpt lat="45.84966" lon="6.43989">
        <ele>2170.7</ele>
        <time>2024-04-27T11:08:30Z</time>
      </trkpt>
      <trkpt lat="45.84966" lon="6.43989">
        <ele>2170.7</ele>
        <time>2024-04-27T11:08:31Z</time>
      </trkpt>
      <trkpt lat="45.84966" lon="6.43989">
        <ele>2170.7</ele>
        <time>2024-04-27T11:08:32Z</time>
      </trkpt>
      <trkpt lat="45.84966" lon="6.43989">
        <ele>2170.7</ele>
        <time>2024-04-27T11:08:33Z</time>
      </trkpt>
      <trkpt lat="45.84966" lon="6.43989">
        <ele>2170.7</ele>
        <time>2024-04-27T11:08:34Z</time>
      </trkpt>
      <trkpt lat="45.84966" lon="6.43989">
        <ele>2170.7</ele>
        <time>2024-04-27T11:08:35Z</time>
      </trkpt>
      <trkpt lat="45.84965" lon="6.43989">
        <ele>2170.7</ele>
        <time>2024-04-27T11:08:36Z</time>
      </trkpt>
      <trkpt lat="45.84964" lon="6.43989">
        <ele>2170.7</ele>
        <time>2024-04-27T11:08:37Z</time>
      </trkpt>
      <trkpt lat="45.84964" lon="6.43989">
        <ele>2170.7</ele>
        <time>2024-04-27T11:08:38Z</time>
      </trkpt>
      <trkpt lat="45.84964" lon="6.43989">
        <ele>2170.7</ele>
        <time>2024-04-27T11:08:39Z</time>
      </trkpt>
      <trkpt lat="45.84964" lon="6.43989">
        <ele>2170.7</ele>
        <time>2024-04-27T11:08:40Z</time>
      </trkpt>
      <trkpt lat="45.84963" lon="6.43989">
        <ele>2174.6</ele>
        <time>2024-04-27T11:08:41Z</time>
      </trkpt>
      <trkpt lat="45.84963" lon="6.43989">
        <ele>2174.6</ele>
        <time>2024-04-27T11:08:42Z</time>
      </trkpt>
      <trkpt lat="45.84963" lon="6.43989">
        <ele>2174.6</ele>
        <time>2024-04-27T11:08:43Z</time>
      </trkpt>
      <trkpt lat="45.84963" lon="6.43989">
        <ele>2174.6</ele>
        <time>2024-04-27T11:08:44Z</time>
      </trkpt>
      <trkpt lat="45.84963" lon="6.43989">
        <ele>2173.7</ele>
        <time>2024-04-27T11:08:45Z</time>
      </trkpt>
      <trkpt lat="45.84963" lon="6.43989">
        <ele>2173.7</ele>
        <time>2024-04-27T11:08:46Z</time>
      </trkpt>
      <trkpt lat="45.84963" lon="6.43989">
        <ele>2172.6</ele>
        <time>2024-04-27T11:08:47Z</time>
      </trkpt>
      <trkpt lat="45.84963" lon="6.43989">
        <ele>2172.6</ele>
        <time>2024-04-27T11:08:48Z</time>
      </trkpt>
      <trkpt lat="45.84962" lon="6.43989">
        <ele>2172.6</ele>
        <time>2024-04-27T11:08:49Z</time>
      </trkpt>
      <trkpt lat="45.84962" lon="6.43989">
        <ele>2172.6</ele>
        <time>2024-04-27T11:08:50Z</time>
      </trkpt>
      <trkpt lat="45.84962" lon="6.43988">
        <ele>2172.6</ele>
        <time>2024-04-27T11:08:51Z</time>
      </trkpt>
      <trkpt lat="45.84962" lon="6.43988">
        <ele>2172.6</ele>
        <time>2024-04-27T11:08:52Z</time>
      </trkpt>
      <trkpt lat="45.84962" lon="6.43988">
        <ele>2172.6</ele>
        <time>2024-04-27T11:08:53Z</time>
      </trkpt>
      <trkpt lat="45.84962" lon="6.43988">
        <ele>2172.6</ele>
        <time>2024-04-27T11:08:54Z</time>
      </trkpt>
      <trkpt lat="45.84962" lon="6.43988">
        <ele>2172.6</ele>
        <time>2024-04-27T11:08:55Z</time>
      </trkpt>
      <trkpt lat="45.84962" lon="6.43988">
        <ele>2172.6</ele>
        <time>2024-04-27T11:08:56Z</time>
      </trkpt>
      <trkpt lat="45.84962" lon="6.43988">
        <ele>2172.6</ele>
        <time>2024-04-27T11:08:57Z</time>
      </trkpt>
      <trkpt lat="45.84962" lon="6.43988">
        <ele>2172.6</ele>
        <time>2024-04-27T11:08:58Z</time>
      </trkpt>
      <trkpt lat="45.84962" lon="6.43988">
        <ele>2172.6</ele>
        <time>2024-04-27T11:08:59Z</time>
      </trkpt>
      <trkpt lat="45.84962" lon="6.43988">
        <ele>2172.6</ele>
        <time>2024-04-27T11:09:00Z</time>
      </trkpt>
      <trkpt lat="45.84962" lon="6.43988">
        <ele>2172.6</ele>
        <time>2024-04-27T11:09:01Z</time>
      </trkpt>
      <trkpt lat="45.84962" lon="6.43988">
        <ele>2172.6</ele>
        <time>2024-04-27T11:09:02Z</time>
      </trkpt>
      <trkpt lat="45.84962" lon="6.43989">
        <ele>2172.6</ele>
        <time>2024-04-27T11:09:03Z</time>
      </trkpt>
      <trkpt lat="45.84962" lon="6.43989">
        <ele>2172.6</ele>
        <time>2024-04-27T11:09:04Z</time>
      </trkpt>
      <trkpt lat="45.84962" lon="6.43989">
        <ele>2171.6</ele>
        <time>2024-04-27T11:09:05Z</time>
      </trkpt>
      <trkpt lat="45.84962" lon="6.43989">
        <ele>2171.6</ele>
        <time>2024-04-27T11:09:06Z</time>
      </trkpt>
      <trkpt lat="45.84962" lon="6.43989">
        <ele>2171.6</ele>
        <time>2024-04-27T11:09:07Z</time>
      </trkpt>
      <trkpt lat="45.84962" lon="6.43989">
        <ele>2171.6</ele>
        <time>2024-04-27T11:09:08Z</time>
      </trkpt>
      <trkpt lat="45.84962" lon="6.43989">
        <ele>2171.6</ele>
        <time>2024-04-27T11:09:09Z</time>
      </trkpt>
      <trkpt lat="45.84962" lon="6.43989">
        <ele>2171.6</ele>
        <time>2024-04-27T11:09:10Z</time>
      </trkpt>
      <trkpt lat="45.84962" lon="6.4399">
        <ele>2171.6</ele>
        <time>2024-04-27T11:09:11Z</time>
      </trkpt>
      <trkpt lat="45.84962" lon="6.4399">
        <ele>2171.6</ele>
        <time>2024-04-27T11:09:12Z</time>
      </trkpt>
      <trkpt lat="45.84962" lon="6.4399">
        <ele>2171.6</ele>
        <time>2024-04-27T11:09:13Z</time>
      </trkpt>
      <trkpt lat="45.84962" lon="6.4399">
        <ele>2171.6</ele>
        <time>2024-04-27T11:09:14Z</time>
      </trkpt>
      <trkpt lat="45.84962" lon="6.4399">
        <ele>2171.6</ele>
        <time>2024-04-27T11:09:15Z</time>
      </trkpt>
      <trkpt lat="45.84962" lon="6.4399">
        <ele>2171.6</ele>
        <time>2024-04-27T11:09:16Z</time>
      </trkpt>
      <trkpt lat="45.84962" lon="6.4399">
        <ele>2171.6</ele>
        <time>2024-04-27T11:09:17Z</time>
      </trkpt>
      <trkpt lat="45.84962" lon="6.4399">
        <ele>2171.6</ele>
        <time>2024-04-27T11:09:18Z</time>
      </trkpt>
      <trkpt lat="45.84962" lon="6.4399">
        <ele>2171.6</ele>
        <time>2024-04-27T11:09:19Z</time>
      </trkpt>
      <trkpt lat="45.84962" lon="6.4399">
        <ele>2171.6</ele>
        <time>2024-04-27T11:09:20Z</time>
      </trkpt>
      <trkpt lat="45.84962" lon="6.4399">
        <ele>2171.6</ele>
        <time>2024-04-27T11:09:21Z</time>
      </trkpt>
      <trkpt lat="45.84962" lon="6.4399">
        <ele>2171.6</ele>
        <time>2024-04-27T11:09:22Z</time>
      </trkpt>
      <trkpt lat="45.84962" lon="6.4399">
        <ele>2171.6</ele>
        <time>2024-04-27T11:09:23Z</time>
      </trkpt>
      <trkpt lat="45.84962" lon="6.4399">
        <ele>2171.6</ele>
        <time>2024-04-27T11:09:24Z</time>
      </trkpt>
      <trkpt lat="45.84962" lon="6.4399">
        <ele>2170.7</ele>
        <time>2024-04-27T11:09:25Z</time>
      </trkpt>
      <trkpt lat="45.84962" lon="6.4399">
        <ele>2170.7</ele>
        <time>2024-04-27T11:09:26Z</time>
      </trkpt>
      <trkpt lat="45.84962" lon="6.4399">
        <ele>2169.6</ele>
        <time>2024-04-27T11:09:27Z</time>
      </trkpt>
      <trkpt lat="45.84962" lon="6.4399">
        <ele>2169.6</ele>
        <time>2024-04-27T11:09:28Z</time>
      </trkpt>
      <trkpt lat="45.84962" lon="6.4399">
        <ele>2169.6</ele>
        <time>2024-04-27T11:09:29Z</time>
      </trkpt>
      <trkpt lat="45.84962" lon="6.4399">
        <ele>2169.6</ele>
        <time>2024-04-27T11:09:30Z</time>
      </trkpt>
      <trkpt lat="45.84962" lon="6.4399">
        <ele>2168.7</ele>
        <time>2024-04-27T11:09:31Z</time>
      </trkpt>
      <trkpt lat="45.84961" lon="6.43989">
        <ele>2168.7</ele>
        <time>2024-04-27T11:09:32Z</time>
      </trkpt>
      <trkpt lat="45.8496" lon="6.43986">
        <ele>2168.7</ele>
        <time>2024-04-27T11:09:33Z</time>
      </trkpt>
      <trkpt lat="45.84959" lon="6.43984">
        <ele>2168.7</ele>
        <time>2024-04-27T11:09:34Z</time>
      </trkpt>
      <trkpt lat="45.84958" lon="6.43981">
        <ele>2168.7</ele>
        <time>2024-04-27T11:09:35Z</time>
      </trkpt>
      <trkpt lat="45.84958" lon="6.43978">
        <ele>2168.7</ele>
        <time>2024-04-27T11:09:36Z</time>
      </trkpt>
      <trkpt lat="45.84957" lon="6.43976">
        <ele>2160.6</ele>
        <time>2024-04-27T11:09:37Z</time>
      </trkpt>
      <trkpt lat="45.84957" lon="6.43974">
        <ele>2160.6</ele>
        <time>2024-04-27T11:09:38Z</time>
      </trkpt>
      <trkpt lat="45.84956" lon="6.43971">
        <ele>2158.6</ele>
        <time>2024-04-27T11:09:39Z</time>
      </trkpt>
      <trkpt lat="45.84955" lon="6.43968">
        <ele>2158.6</ele>
        <time>2024-04-27T11:09:40Z</time>
      </trkpt>
      <trkpt lat="45.84955" lon="6.43965">
        <ele>2158.6</ele>
        <time>2024-04-27T11:09:41Z</time>
      </trkpt>
      <trkpt lat="45.84955" lon="6.43963">
        <ele>2158.6</ele>
        <time>2024-04-27T11:09:42Z</time>
      </trkpt>
      <trkpt lat="45.84955" lon="6.43962">
        <ele>2158.6</ele>
        <time>2024-04-27T11:09:43Z</time>
      </trkpt>
      <trkpt lat="45.84956" lon="6.4396">
        <ele>2158.6</ele>
        <time>2024-04-27T11:09:44Z</time>
      </trkpt>
      <trkpt lat="45.84955" lon="6.43959">
        <ele>2152.7</ele>
        <time>2024-04-27T11:09:45Z</time>
      </trkpt>
      <trkpt lat="45.84955" lon="6.43956">
        <ele>2152.7</ele>
        <time>2024-04-27T11:09:46Z</time>
      </trkpt>
      <trkpt lat="45.84956" lon="6.43954">
        <ele>2150.7</ele>
        <time>2024-04-27T11:09:47Z</time>
      </trkpt>
      <trkpt lat="45.84957" lon="6.43953">
        <ele>2150.7</ele>
        <time>2024-04-27T11:09:48Z</time>
      </trkpt>
      <trkpt lat="45.84958" lon="6.43952">
        <ele>2148.7</ele>
        <time>2024-04-27T11:09:49Z</time>
      </trkpt>
      <trkpt lat="45.84957" lon="6.4395">
        <ele>2148.7</ele>
        <time>2024-04-27T11:09:50Z</time>
      </trkpt>
      <trkpt lat="45.84957" lon="6.43949">
        <ele>2146.6</ele>
        <time>2024-04-27T11:09:51Z</time>
      </trkpt>
      <trkpt lat="45.84957" lon="6.43947">
        <ele>2146.6</ele>
        <time>2024-04-27T11:09:52Z</time>
      </trkpt>
      <trkpt lat="45.84956" lon="6.43946">
        <ele>2145.7</ele>
        <time>2024-04-27T11:09:53Z</time>
      </trkpt>
      <trkpt lat="45.84956" lon="6.43946">
        <ele>2145.7</ele>
        <time>2024-04-27T11:09:54Z</time>
      </trkpt>
      <trkpt lat="45.84957" lon="6.43943">
        <ele>2145.7</ele>
        <time>2024-04-27T11:09:55Z</time>
      </trkpt>
      <trkpt lat="45.84957" lon="6.43942">
        <ele>2145.7</ele>
        <time>2024-04-27T11:09:56Z</time>
      </trkpt>
      <trkpt lat="45.84957" lon="6.4394">
        <ele>2144.6</ele>
        <time>2024-04-27T11:09:57Z</time>
      </trkpt>
      <trkpt lat="45.84958" lon="6.43938">
        <ele>2144.6</ele>
        <time>2024-04-27T11:09:58Z</time>
      </trkpt>
      <trkpt lat="45.84957" lon="6.43936">
        <ele>2142.6</ele>
        <time>2024-04-27T11:09:59Z</time>
      </trkpt>
      <trkpt lat="45.84956" lon="6.43933">
        <ele>2142.6</ele>
        <time>2024-04-27T11:10:00Z</time>
      </trkpt>
      <trkpt lat="45.84956" lon="6.43931">
        <ele>2139.7</ele>
        <time>2024-04-27T11:10:01Z</time>
      </trkpt>
      <trkpt lat="45.84955" lon="6.4393">
        <ele>2139.7</ele>
        <time>2024-04-27T11:10:02Z</time>
      </trkpt>
      <trkpt lat="45.84955" lon="6.4393">
        <ele>2138.7</ele>
        <time>2024-04-27T11:10:03Z</time>
      </trkpt>
      <trkpt lat="45.84955" lon="6.4393">
        <ele>2138.7</ele>
        <time>2024-04-27T11:10:04Z</time>
      </trkpt>
      <trkpt lat="45.84955" lon="6.4393">
        <ele>2136.7</ele>
        <time>2024-04-27T11:10:05Z</time>
      </trkpt>
      <trkpt lat="45.84955" lon="6.43931">
        <ele>2136.7</ele>
        <time>2024-04-27T11:10:06Z</time>
      </trkpt>
      <trkpt lat="45.84956" lon="6.43931">
        <ele>2136.7</ele>
        <time>2024-04-27T11:10:07Z</time>
      </trkpt>
      <trkpt lat="45.84956" lon="6.43931">
        <ele>2136.7</ele>
        <time>2024-04-27T11:10:08Z</time>
      </trkpt>
      <trkpt lat="45.84955" lon="6.4393">
        <ele>2135.6</ele>
        <time>2024-04-27T11:10:09Z</time>
      </trkpt>
      <trkpt lat="45.84956" lon="6.4393">
        <ele>2135.6</ele>
        <time>2024-04-27T11:10:10Z</time>
      </trkpt>
      <trkpt lat="45.84957" lon="6.4393">
        <ele>2135.6</ele>
        <time>2024-04-27T11:10:11Z</time>
      </trkpt>
      <trkpt lat="45.84957" lon="6.4393">
        <ele>2135.6</ele>
        <time>2024-04-27T11:10:12Z</time>
      </trkpt>
      <trkpt lat="45.84957" lon="6.4393">
        <ele>2135.6</ele>
        <time>2024-04-27T11:10:13Z</time>
      </trkpt>
      <trkpt lat="45.84957" lon="6.4393">
        <ele>2135.6</ele>
        <time>2024-04-27T11:10:14Z</time>
      </trkpt>
      <trkpt lat="45.84956" lon="6.43931">
        <ele>2135.6</ele>
        <time>2024-04-27T11:10:15Z</time>
      </trkpt>
      <trkpt lat="45.84956" lon="6.43931">
        <ele>2135.6</ele>
        <time>2024-04-27T11:10:16Z</time>
      </trkpt>
      <trkpt lat="45.84956" lon="6.43931">
        <ele>2135.6</ele>
        <time>2024-04-27T11:10:17Z</time>
      </trkpt>
      <trkpt lat="45.84956" lon="6.43931">
        <ele>2135.6</ele>
        <time>2024-04-27T11:10:18Z</time>
      </trkpt>
      <trkpt lat="45.84956" lon="6.43931">
        <ele>2135.6</ele>
        <time>2024-04-27T11:10:19Z</time>
      </trkpt>
      <trkpt lat="45.84956" lon="6.43931">
        <ele>2135.6</ele>
        <time>2024-04-27T11:10:20Z</time>
      </trkpt>
      <trkpt lat="45.84957" lon="6.43932">
        <ele>2136.7</ele>
        <time>2024-04-27T11:10:21Z</time>
      </trkpt>
      <trkpt lat="45.84956" lon="6.43932">
        <ele>2136.7</ele>
        <time>2024-04-27T11:10:22Z</time>
      </trkpt>
      <trkpt lat="45.84956" lon="6.43932">
        <ele>2136.7</ele>
        <time>2024-04-27T11:10:23Z</time>
      </trkpt>
      <trkpt lat="45.84956" lon="6.43932">
        <ele>2136.7</ele>
        <time>2024-04-27T11:10:24Z</time>
      </trkpt>
      <trkpt lat="45.84956" lon="6.43932">
        <ele>2137.6</ele>
        <time>2024-04-27T11:10:25Z</time>
      </trkpt>
      <trkpt lat="45.84956" lon="6.43932">
        <ele>2137.6</ele>
        <time>2024-04-27T11:10:26Z</time>
      </trkpt>
      <trkpt lat="45.84956" lon="6.43932">
        <ele>2137.6</ele>
        <time>2024-04-27T11:10:27Z</time>
      </trkpt>
      <trkpt lat="45.84956" lon="6.43932">
        <ele>2137.6</ele>
        <time>2024-04-27T11:10:28Z</time>
      </trkpt>
      <trkpt lat="45.84956" lon="6.43932">
        <ele>2137.6</ele>
        <time>2024-04-27T11:10:29Z</time>
      </trkpt>
      <trkpt lat="45.84956" lon="6.43932">
        <ele>2137.6</ele>
        <time>2024-04-27T11:10:30Z</time>
      </trkpt>
      <trkpt lat="45.84956" lon="6.43932">
        <ele>2137.6</ele>
        <time>2024-04-27T11:10:31Z</time>
      </trkpt>
      <trkpt lat="45.84956" lon="6.43932">
        <ele>2137.6</ele>
        <time>2024-04-27T11:10:32Z</time>
      </trkpt>
      <trkpt lat="45.84956" lon="6.43932">
        <ele>2136.7</ele>
        <time>2024-04-27T11:10:33Z</time>
      </trkpt>
      <trkpt lat="45.84956" lon="6.43932">
        <ele>2136.7</ele>
        <time>2024-04-27T11:10:34Z</time>
      </trkpt>
      <trkpt lat="45.84956" lon="6.43932">
        <ele>2136.7</ele>
        <time>2024-04-27T11:10:35Z</time>
      </trkpt>
      <trkpt lat="45.84956" lon="6.43932">
        <ele>2136.7</ele>
        <time>2024-04-27T11:10:36Z</time>
      </trkpt>
      <trkpt lat="45.84956" lon="6.43932">
        <ele>2136.7</ele>
        <time>2024-04-27T11:10:37Z</time>
      </trkpt>
      <trkpt lat="45.84956" lon="6.43932">
        <ele>2136.7</ele>
        <time>2024-04-27T11:10:38Z</time>
      </trkpt>
      <trkpt lat="45.84956" lon="6.43932">
        <ele>2136.7</ele>
        <time>2024-04-27T11:10:39Z</time>
      </trkpt>
      <trkpt lat="45.84956" lon="6.43932">
        <ele>2136.7</ele>
        <time>2024-04-27T11:10:40Z</time>
      </trkpt>
      <trkpt lat="45.84956" lon="6.43932">
        <ele>2136.7</ele>
        <time>2024-04-27T11:10:41Z</time>
      </trkpt>
      <trkpt lat="45.84956" lon="6.43932">
        <ele>2136.7</ele>
        <time>2024-04-27T11:10:42Z</time>
      </trkpt>
      <trkpt lat="45.84956" lon="6.43932">
        <ele>2136.7</ele>
        <time>2024-04-27T11:10:43Z</time>
      </trkpt>
      <trkpt lat="45.84956" lon="6.43932">
        <ele>2136.7</ele>
        <time>2024-04-27T11:10:44Z</time>
      </trkpt>
      <trkpt lat="45.84956" lon="6.43932">
        <ele>2136.7</ele>
        <time>2024-04-27T11:10:45Z</time>
      </trkpt>
      <trkpt lat="45.84956" lon="6.43932">
        <ele>2136.7</ele>
        <time>2024-04-27T11:10:46Z</time>
      </trkpt>
      <trkpt lat="45.84956" lon="6.43932">
        <ele>2136.7</ele>
        <time>2024-04-27T11:10:47Z</time>
      </trkpt>
      <trkpt lat="45.84956" lon="6.43932">
        <ele>2136.7</ele>
        <time>2024-04-27T11:10:48Z</time>
      </trkpt>
      <trkpt lat="45.84955" lon="6.43931">
        <ele>2135.6</ele>
        <time>2024-04-27T11:10:49Z</time>
      </trkpt>
      <trkpt lat="45.84955" lon="6.43931">
        <ele>2135.6</ele>
        <time>2024-04-27T11:10:50Z</time>
      </trkpt>
      <trkpt lat="45.84956" lon="6.43931">
        <ele>2134.7</ele>
        <time>2024-04-27T11:10:51Z</time>
      </trkpt>
      <trkpt lat="45.84958" lon="6.4393">
        <ele>2134.7</ele>
        <time>2024-04-27T11:10:52Z</time>
      </trkpt>
      <trkpt lat="45.84959" lon="6.43929">
        <ele>2133.6</ele>
        <time>2024-04-27T11:10:53Z</time>
      </trkpt>
      <trkpt lat="45.8496" lon="6.43927">
        <ele>2133.6</ele>
        <time>2024-04-27T11:10:54Z</time>
      </trkpt>
      <trkpt lat="45.8496" lon="6.43927">
        <ele>2133.6</ele>
        <time>2024-04-27T11:10:55Z</time>
      </trkpt>
      <trkpt lat="45.84961" lon="6.43926">
        <ele>2133.6</ele>
        <time>2024-04-27T11:10:56Z</time>
      </trkpt>
      <trkpt lat="45.84961" lon="6.43925">
        <ele>2132.7</ele>
        <time>2024-04-27T11:10:57Z</time>
      </trkpt>
      <trkpt lat="45.84962" lon="6.43924">
        <ele>2132.7</ele>
        <time>2024-04-27T11:10:58Z</time>
      </trkpt>
      <trkpt lat="45.84962" lon="6.43922">
        <ele>2131.6</ele>
        <time>2024-04-27T11:10:59Z</time>
      </trkpt>
      <trkpt lat="45.84962" lon="6.43921">
        <ele>2131.6</ele>
        <time>2024-04-27T11:11:00Z</time>
      </trkpt>
      <trkpt lat="45.84962" lon="6.43919">
        <ele>2131.6</ele>
        <time>2024-04-27T11:11:01Z</time>
      </trkpt>
      <trkpt lat="45.84962" lon="6.43917">
        <ele>2131.6</ele>
        <time>2024-04-27T11:11:02Z</time>
      </trkpt>
      <trkpt lat="45.84962" lon="6.43915">
        <ele>2131.6</ele>
        <time>2024-04-27T11:11:03Z</time>
      </trkpt>
      <trkpt lat="45.84962" lon="6.43914">
        <ele>2131.6</ele>
        <time>2024-04-27T11:11:04Z</time>
      </trkpt>
      <trkpt lat="45.84962" lon="6.43913">
        <ele>2131.6</ele>
        <time>2024-04-27T11:11:05Z</time>
      </trkpt>
      <trkpt lat="45.84963" lon="6.43912">
        <ele>2131.6</ele>
        <time>2024-04-27T11:11:06Z</time>
      </trkpt>
      <trkpt lat="45.84964" lon="6.43911">
        <ele>2127.7</ele>
        <time>2024-04-27T11:11:07Z</time>
      </trkpt>
      <trkpt lat="45.84964" lon="6.43909">
        <ele>2127.7</ele>
        <time>2024-04-27T11:11:08Z</time>
      </trkpt>
      <trkpt lat="45.84964" lon="6.43908">
        <ele>2127.7</ele>
        <time>2024-04-27T11:11:09Z</time>
      </trkpt>
      <trkpt lat="45.84964" lon="6.43906">
        <ele>2127.7</ele>
        <time>2024-04-27T11:11:10Z</time>
      </trkpt>
      <trkpt lat="45.84964" lon="6.43906">
        <ele>2127.7</ele>
        <time>2024-04-27T11:11:11Z</time>
      </trkpt>
      <trkpt lat="45.84964" lon="6.43905">
        <ele>2127.7</ele>
        <time>2024-04-27T11:11:12Z</time>
      </trkpt>
      <trkpt lat="45.84964" lon="6.43904">
        <ele>2122.7</ele>
        <time>2024-04-27T11:11:13Z</time>
      </trkpt>
      <trkpt lat="45.84964" lon="6.43902">
        <ele>2122.7</ele>
        <time>2024-04-27T11:11:14Z</time>
      </trkpt>
      <trkpt lat="45.84963" lon="6.43898">
        <ele>2121.6</ele>
        <time>2024-04-27T11:11:15Z</time>
      </trkpt>
      <trkpt lat="45.84961" lon="6.43894">
        <ele>2121.6</ele>
        <time>2024-04-27T11:11:16Z</time>
      </trkpt>
      <trkpt lat="45.84959" lon="6.4389">
        <ele>2119.6</ele>
        <time>2024-04-27T11:11:17Z</time>
      </trkpt>
      <trkpt lat="45.84956" lon="6.43888">
        <ele>2119.6</ele>
        <time>2024-04-27T11:11:18Z</time>
      </trkpt>
      <trkpt lat="45.84954" lon="6.43886">
        <ele>2117.6</ele>
        <time>2024-04-27T11:11:19Z</time>
      </trkpt>
      <trkpt lat="45.84951" lon="6.43885">
        <ele>2117.6</ele>
        <time>2024-04-27T11:11:20Z</time>
      </trkpt>
      <trkpt lat="45.8495" lon="6.43884">
        <ele>2117.6</ele>
        <time>2024-04-27T11:11:21Z</time>
      </trkpt>
      <trkpt lat="45.8495" lon="6.43883">
        <ele>2117.6</ele>
        <time>2024-04-27T11:11:22Z</time>
      </trkpt>
      <trkpt lat="45.84949" lon="6.43882">
        <ele>2117.6</ele>
        <time>2024-04-27T11:11:23Z</time>
      </trkpt>
      <trkpt lat="45.84949" lon="6.43883">
        <ele>2117.6</ele>
        <time>2024-04-27T11:11:24Z</time>
      </trkpt>
      <trkpt lat="45.84949" lon="6.43884">
        <ele>2117.6</ele>
        <time>2024-04-27T11:11:25Z</time>
      </trkpt>
      <trkpt lat="45.8495" lon="6.43887">
        <ele>2117.6</ele>
        <time>2024-04-27T11:11:26Z</time>
      </trkpt>
      <trkpt lat="45.84951" lon="6.43891">
        <ele>2117.6</ele>
        <time>2024-04-27T11:11:27Z</time>
      </trkpt>
      <trkpt lat="45.84952" lon="6.43893">
        <ele>2117.6</ele>
        <time>2024-04-27T11:11:28Z</time>
      </trkpt>
      <trkpt lat="45.84953" lon="6.43892">
        <ele>2117.6</ele>
        <time>2024-04-27T11:11:29Z</time>
      </trkpt>
      <trkpt lat="45.84954" lon="6.43892">
        <ele>2117.6</ele>
        <time>2024-04-27T11:11:30Z</time>
      </trkpt>
      <trkpt lat="45.84955" lon="6.43892">
        <ele>2115.6</ele>
        <time>2024-04-27T11:11:31Z</time>
      </trkpt>
      <trkpt lat="45.84955" lon="6.43891">
        <ele>2115.6</ele>
        <time>2024-04-27T11:11:32Z</time>
      </trkpt>
      <trkpt lat="45.84955" lon="6.4389">
        <ele>2114.6</ele>
        <time>2024-04-27T11:11:33Z</time>
      </trkpt>
      <trkpt lat="45.84954" lon="6.43888">
        <ele>2114.6</ele>
        <time>2024-04-27T11:11:34Z</time>
      </trkpt>
      <trkpt lat="45.84953" lon="6.43886">
        <ele>2113.7</ele>
        <time>2024-04-27T11:11:35Z</time>
      </trkpt>
      <trkpt lat="45.84951" lon="6.43884">
        <ele>2113.7</ele>
        <time>2024-04-27T11:11:36Z</time>
      </trkpt>
      <trkpt lat="45.8495" lon="6.43883">
        <ele>2112.6</ele>
        <time>2024-04-27T11:11:37Z</time>
      </trkpt>
      <trkpt lat="45.8495" lon="6.43882">
        <ele>2112.6</ele>
        <time>2024-04-27T11:11:38Z</time>
      </trkpt>
      <trkpt lat="45.8495" lon="6.43882">
        <ele>2112.6</ele>
        <time>2024-04-27T11:11:39Z</time>
      </trkpt>
      <trkpt lat="45.8495" lon="6.43882">
        <ele>2112.6</ele>
        <time>2024-04-27T11:11:40Z</time>
      </trkpt>
      <trkpt lat="45.8495" lon="6.43882">
        <ele>2112.6</ele>
        <time>2024-04-27T11:11:41Z</time>
      </trkpt>
      <trkpt lat="45.8495" lon="6.43882">
        <ele>2112.6</ele>
        <time>2024-04-27T11:11:42Z</time>
      </trkpt>
      <trkpt lat="45.8495" lon="6.43882">
        <ele>2112.6</ele>
        <time>2024-04-27T11:11:43Z</time>
      </trkpt>
      <trkpt lat="45.8495" lon="6.43882">
        <ele>2112.6</ele>
        <time>2024-04-27T11:11:44Z</time>
      </trkpt>
      <trkpt lat="45.8495" lon="6.43882">
        <ele>2112.6</ele>
        <time>2024-04-27T11:11:45Z</time>
      </trkpt>
      <trkpt lat="45.8495" lon="6.43882">
        <ele>2112.6</ele>
        <time>2024-04-27T11:11:46Z</time>
      </trkpt>
      <trkpt lat="45.8495" lon="6.43882">
        <ele>2113.7</ele>
        <time>2024-04-27T11:11:47Z</time>
      </trkpt>
      <trkpt lat="45.8495" lon="6.43882">
        <ele>2113.7</ele>
        <time>2024-04-27T11:11:48Z</time>
      </trkpt>
      <trkpt lat="45.8495" lon="6.43882">
        <ele>2113.7</ele>
        <time>2024-04-27T11:11:49Z</time>
      </trkpt>
      <trkpt lat="45.8495" lon="6.43882">
        <ele>2113.7</ele>
        <time>2024-04-27T11:11:50Z</time>
      </trkpt>
      <trkpt lat="45.8495" lon="6.43883">
        <ele>2113.7</ele>
        <time>2024-04-27T11:11:51Z</time>
      </trkpt>
      <trkpt lat="45.84951" lon="6.43883">
        <ele>2113.7</ele>
        <time>2024-04-27T11:11:52Z</time>
      </trkpt>
      <trkpt lat="45.84951" lon="6.43884">
        <ele>2113.7</ele>
        <time>2024-04-27T11:11:53Z</time>
      </trkpt>
      <trkpt lat="45.84951" lon="6.43884">
        <ele>2113.7</ele>
        <time>2024-04-27T11:11:54Z</time>
      </trkpt>
      <trkpt lat="45.84951" lon="6.43884">
        <ele>2112.6</ele>
        <time>2024-04-27T11:11:55Z</time>
      </trkpt>
      <trkpt lat="45.84951" lon="6.43884">
        <ele>2112.6</ele>
        <time>2024-04-27T11:11:56Z</time>
      </trkpt>
      <trkpt lat="45.84951" lon="6.43884">
        <ele>2112.6</ele>
        <time>2024-04-27T11:11:57Z</time>
      </trkpt>
      <trkpt lat="45.84951" lon="6.43884">
        <ele>2112.6</ele>
        <time>2024-04-27T11:11:58Z</time>
      </trkpt>
      <trkpt lat="45.84951" lon="6.43884">
        <ele>2112.6</ele>
        <time>2024-04-27T11:11:59Z</time>
      </trkpt>
      <trkpt lat="45.84951" lon="6.43885">
        <ele>2112.6</ele>
        <time>2024-04-27T11:12:00Z</time>
      </trkpt>
      <trkpt lat="45.84951" lon="6.43885">
        <ele>2112.6</ele>
        <time>2024-04-27T11:12:01Z</time>
      </trkpt>
      <trkpt lat="45.84951" lon="6.43885">
        <ele>2112.6</ele>
        <time>2024-04-27T11:12:02Z</time>
      </trkpt>
      <trkpt lat="45.84951" lon="6.43885">
        <ele>2112.6</ele>
        <time>2024-04-27T11:12:03Z</time>
      </trkpt>
      <trkpt lat="45.84951" lon="6.43885">
        <ele>2112.6</ele>
        <time>2024-04-27T11:12:04Z</time>
      </trkpt>
      <trkpt lat="45.84951" lon="6.43885">
        <ele>2112.6</ele>
        <time>2024-04-27T11:12:05Z</time>
      </trkpt>
      <trkpt lat="45.84951" lon="6.43885">
        <ele>2112.6</ele>
        <time>2024-04-27T11:12:06Z</time>
      </trkpt>
      <trkpt lat="45.84951" lon="6.43885">
        <ele>2113.7</ele>
        <time>2024-04-27T11:12:07Z</time>
      </trkpt>
      <trkpt lat="45.84951" lon="6.43885">
        <ele>2113.7</ele>
        <time>2024-04-27T11:12:08Z</time>
      </trkpt>
      <trkpt lat="45.84951" lon="6.43885">
        <ele>2113.7</ele>
        <time>2024-04-27T11:12:09Z</time>
      </trkpt>
      <trkpt lat="45.84951" lon="6.43885">
        <ele>2113.7</ele>
        <time>2024-04-27T11:12:10Z</time>
      </trkpt>
      <trkpt lat="45.84951" lon="6.43885">
        <ele>2114.6</ele>
        <time>2024-04-27T11:12:11Z</time>
      </trkpt>
      <trkpt lat="45.84951" lon="6.43885">
        <ele>2114.6</ele>
        <time>2024-04-27T11:12:12Z</time>
      </trkpt>
      <trkpt lat="45.84951" lon="6.43885">
        <ele>2114.6</ele>
        <time>2024-04-27T11:12:13Z</time>
      </trkpt>
      <trkpt lat="45.84951" lon="6.43884">
        <ele>2114.6</ele>
        <time>2024-04-27T11:12:14Z</time>
      </trkpt>
      <trkpt lat="45.84951" lon="6.43884">
        <ele>2115.6</ele>
        <time>2024-04-27T11:12:15Z</time>
      </trkpt>
      <trkpt lat="45.84951" lon="6.43884">
        <ele>2115.6</ele>
        <time>2024-04-27T11:12:16Z</time>
      </trkpt>
      <trkpt lat="45.84951" lon="6.43884">
        <ele>2115.6</ele>
        <time>2024-04-27T11:12:17Z</time>
      </trkpt>
      <trkpt lat="45.84951" lon="6.43884">
        <ele>2115.6</ele>
        <time>2024-04-27T11:12:18Z</time>
      </trkpt>
      <trkpt lat="45.84951" lon="6.43884">
        <ele>2115.6</ele>
        <time>2024-04-27T11:12:19Z</time>
      </trkpt>
      <trkpt lat="45.84951" lon="6.43884">
        <ele>2115.6</ele>
        <time>2024-04-27T11:12:20Z</time>
      </trkpt>
      <trkpt lat="45.84951" lon="6.43884">
        <ele>2115.6</ele>
        <time>2024-04-27T11:12:21Z</time>
      </trkpt>
      <trkpt lat="45.84951" lon="6.43883">
        <ele>2115.6</ele>
        <time>2024-04-27T11:12:22Z</time>
      </trkpt>
      <trkpt lat="45.84951" lon="6.43883">
        <ele>2115.6</ele>
        <time>2024-04-27T11:12:23Z</time>
      </trkpt>
      <trkpt lat="45.84951" lon="6.43883">
        <ele>2115.6</ele>
        <time>2024-04-27T11:12:24Z</time>
      </trkpt>
      <trkpt lat="45.84951" lon="6.43883">
        <ele>2116.7</ele>
        <time>2024-04-27T11:12:25Z</time>
      </trkpt>
      <trkpt lat="45.84951" lon="6.43883">
        <ele>2116.7</ele>
        <time>2024-04-27T11:12:26Z</time>
      </trkpt>
      <trkpt lat="45.84951" lon="6.43883">
        <ele>2116.7</ele>
        <time>2024-04-27T11:12:27Z</time>
      </trkpt>
      <trkpt lat="45.84951" lon="6.43883">
        <ele>2116.7</ele>
        <time>2024-04-27T11:12:28Z</time>
      </trkpt>
      <trkpt lat="45.84951" lon="6.43883">
        <ele>2115.6</ele>
        <time>2024-04-27T11:12:29Z</time>
      </trkpt>
      <trkpt lat="45.84951" lon="6.43883">
        <ele>2115.6</ele>
        <time>2024-04-27T11:12:30Z</time>
      </trkpt>
      <trkpt lat="45.84951" lon="6.43883">
        <ele>2115.6</ele>
        <time>2024-04-27T11:12:31Z</time>
      </trkpt>
      <trkpt lat="45.84951" lon="6.43883">
        <ele>2115.6</ele>
        <time>2024-04-27T11:12:32Z</time>
      </trkpt>
      <trkpt lat="45.84951" lon="6.43883">
        <ele>2115.6</ele>
        <time>2024-04-27T11:12:33Z</time>
      </trkpt>
      <trkpt lat="45.84951" lon="6.43883">
        <ele>2115.6</ele>
        <time>2024-04-27T11:12:34Z</time>
      </trkpt>
      <trkpt lat="45.84951" lon="6.43883">
        <ele>2111.7</ele>
        <time>2024-04-27T11:12:35Z</time>
      </trkpt>
      <trkpt lat="45.84951" lon="6.43883">
        <ele>2111.7</ele>
        <time>2024-04-27T11:12:36Z</time>
      </trkpt>
      <trkpt lat="45.84951" lon="6.43882">
        <ele>2111.7</ele>
        <time>2024-04-27T11:12:37Z</time>
      </trkpt>
      <trkpt lat="45.84951" lon="6.43882">
        <ele>2111.7</ele>
        <time>2024-04-27T11:12:38Z</time>
      </trkpt>
      <trkpt lat="45.84951" lon="6.43882">
        <ele>2110.6</ele>
        <time>2024-04-27T11:12:39Z</time>
      </trkpt>
      <trkpt lat="45.84951" lon="6.43882">
        <ele>2110.6</ele>
        <time>2024-04-27T11:12:40Z</time>
      </trkpt>
      <trkpt lat="45.84951" lon="6.43882">
        <ele>2110.6</ele>
        <time>2024-04-27T11:12:41Z</time>
      </trkpt>
      <trkpt lat="45.84951" lon="6.43882">
        <ele>2110.6</ele>
        <time>2024-04-27T11:12:42Z</time>
      </trkpt>
      <trkpt lat="45.84951" lon="6.43882">
        <ele>2110.6</ele>
        <time>2024-04-27T11:12:43Z</time>
      </trkpt>
      <trkpt lat="45.84951" lon="6.43882">
        <ele>2110.6</ele>
        <time>2024-04-27T11:12:44Z</time>
      </trkpt>
      <trkpt lat="45.84952" lon="6.43882">
        <ele>2110.6</ele>
        <time>2024-04-27T11:12:45Z</time>
      </trkpt>
      <trkpt lat="45.84952" lon="6.43882">
        <ele>2110.6</ele>
        <time>2024-04-27T11:12:46Z</time>
      </trkpt>
      <trkpt lat="45.84952" lon="6.43882">
        <ele>2110.6</ele>
        <time>2024-04-27T11:12:47Z</time>
      </trkpt>
      <trkpt lat="45.84952" lon="6.43882">
        <ele>2110.6</ele>
        <time>2024-04-27T11:12:48Z</time>
      </trkpt>
      <trkpt lat="45.84952" lon="6.43882">
        <ele>2109.7</ele>
        <time>2024-04-27T11:12:49Z</time>
      </trkpt>
      <trkpt lat="45.84953" lon="6.43881">
        <ele>2109.7</ele>
        <time>2024-04-27T11:12:50Z</time>
      </trkpt>
      <trkpt lat="45.84953" lon="6.43881">
        <ele>2109.7</ele>
        <time>2024-04-27T11:12:51Z</time>
      </trkpt>
      <trkpt lat="45.84953" lon="6.43881">
        <ele>2109.7</ele>
        <time>2024-04-27T11:12:52Z</time>
      </trkpt>
      <trkpt lat="45.84953" lon="6.43881">
        <ele>2109.7</ele>
        <time>2024-04-27T11:12:53Z</time>
      </trkpt>
      <trkpt lat="45.84953" lon="6.43881">
        <ele>2109.7</ele>
        <time>2024-04-27T11:12:54Z</time>
      </trkpt>
      <trkpt lat="45.84953" lon="6.43881">
        <ele>2110.6</ele>
        <time>2024-04-27T11:12:55Z</time>
      </trkpt>
      <trkpt lat="45.84953" lon="6.43881">
        <ele>2110.6</ele>
        <time>2024-04-27T11:12:56Z</time>
      </trkpt>
      <trkpt lat="45.84953" lon="6.43881">
        <ele>2110.6</ele>
        <time>2024-04-27T11:12:57Z</time>
      </trkpt>
      <trkpt lat="45.84953" lon="6.43881">
        <ele>2110.6</ele>
        <time>2024-04-27T11:12:58Z</time>
      </trkpt>
      <trkpt lat="45.84953" lon="6.43881">
        <ele>2110.6</ele>
        <time>2024-04-27T11:12:59Z</time>
      </trkpt>
      <trkpt lat="45.84953" lon="6.43881">
        <ele>2110.6</ele>
        <time>2024-04-27T11:13:00Z</time>
      </trkpt>
      <trkpt lat="45.84953" lon="6.43881">
        <ele>2109.7</ele>
        <time>2024-04-27T11:13:01Z</time>
      </trkpt>
      <trkpt lat="45.84953" lon="6.43881">
        <ele>2109.7</ele>
        <time>2024-04-27T11:13:02Z</time>
      </trkpt>
      <trkpt lat="45.84953" lon="6.43881">
        <ele>2109.7</ele>
        <time>2024-04-27T11:13:03Z</time>
      </trkpt>
      <trkpt lat="45.84953" lon="6.43881">
        <ele>2109.7</ele>
        <time>2024-04-27T11:13:04Z</time>
      </trkpt>
      <trkpt lat="45.84954" lon="6.43881">
        <ele>2109.7</ele>
        <time>2024-04-27T11:13:05Z</time>
      </trkpt>
      <trkpt lat="45.84954" lon="6.43881">
        <ele>2109.7</ele>
        <time>2024-04-27T11:13:06Z</time>
      </trkpt>
      <trkpt lat="45.84954" lon="6.43881">
        <ele>2110.6</ele>
        <time>2024-04-27T11:13:07Z</time>
      </trkpt>
      <trkpt lat="45.84954" lon="6.43881">
        <ele>2110.6</ele>
        <time>2024-04-27T11:13:08Z</time>
      </trkpt>
      <trkpt lat="45.84954" lon="6.43881">
        <ele>2110.6</ele>
        <time>2024-04-27T11:13:09Z</time>
      </trkpt>
      <trkpt lat="45.84954" lon="6.43881">
        <ele>2110.6</ele>
        <time>2024-04-27T11:13:10Z</time>
      </trkpt>
      <trkpt lat="45.84954" lon="6.43881">
        <ele>2110.6</ele>
        <time>2024-04-27T11:13:11Z</time>
      </trkpt>
      <trkpt lat="45.84954" lon="6.43881">
        <ele>2110.6</ele>
        <time>2024-04-27T11:13:12Z</time>
      </trkpt>
      <trkpt lat="45.84954" lon="6.43881">
        <ele>2110.6</ele>
        <time>2024-04-27T11:13:13Z</time>
      </trkpt>
      <trkpt lat="45.84954" lon="6.43882">
        <ele>2110.6</ele>
        <time>2024-04-27T11:13:14Z</time>
      </trkpt>
      <trkpt lat="45.84954" lon="6.43882">
        <ele>2110.6</ele>
        <time>2024-04-27T11:13:15Z</time>
      </trkpt>
      <trkpt lat="45.84955" lon="6.43882">
        <ele>2110.6</ele>
        <time>2024-04-27T11:13:16Z</time>
      </trkpt>
      <trkpt lat="45.84955" lon="6.43883">
        <ele>2110.6</ele>
        <time>2024-04-27T11:13:17Z</time>
      </trkpt>
      <trkpt lat="45.84955" lon="6.43883">
        <ele>2110.6</ele>
        <time>2024-04-27T11:13:18Z</time>
      </trkpt>
      <trkpt lat="45.84955" lon="6.43883">
        <ele>2110.6</ele>
        <time>2024-04-27T11:13:19Z</time>
      </trkpt>
      <trkpt lat="45.84955" lon="6.43884">
        <ele>2110.6</ele>
        <time>2024-04-27T11:13:20Z</time>
      </trkpt>
      <trkpt lat="45.84955" lon="6.43884">
        <ele>2110.6</ele>
        <time>2024-04-27T11:13:21Z</time>
      </trkpt>
      <trkpt lat="45.84955" lon="6.43884">
        <ele>2110.6</ele>
        <time>2024-04-27T11:13:22Z</time>
      </trkpt>
      <trkpt lat="45.84955" lon="6.43884">
        <ele>2110.6</ele>
        <time>2024-04-27T11:13:23Z</time>
      </trkpt>
      <trkpt lat="45.84955" lon="6.43884">
        <ele>2110.6</ele>
        <time>2024-04-27T11:13:24Z</time>
      </trkpt>
      <trkpt lat="45.84955" lon="6.43884">
        <ele>2110.6</ele>
        <time>2024-04-27T11:13:25Z</time>
      </trkpt>
      <trkpt lat="45.84955" lon="6.43884">
        <ele>2110.6</ele>
        <time>2024-04-27T11:13:26Z</time>
      </trkpt>
      <trkpt lat="45.84955" lon="6.43884">
        <ele>2111.7</ele>
        <time>2024-04-27T11:13:27Z</time>
      </trkpt>
      <trkpt lat="45.84955" lon="6.43884">
        <ele>2111.7</ele>
        <time>2024-04-27T11:13:28Z</time>
      </trkpt>
      <trkpt lat="45.84955" lon="6.43884">
        <ele>2111.7</ele>
        <time>2024-04-27T11:13:29Z</time>
      </trkpt>
      <trkpt lat="45.84955" lon="6.43884">
        <ele>2111.7</ele>
        <time>2024-04-27T11:13:30Z</time>
      </trkpt>
      <trkpt lat="45.84955" lon="6.43884">
        <ele>2111.7</ele>
        <time>2024-04-27T11:13:31Z</time>
      </trkpt>
      <trkpt lat="45.84955" lon="6.43884">
        <ele>2111.7</ele>
        <time>2024-04-27T11:13:32Z</time>
      </trkpt>
      <trkpt lat="45.84955" lon="6.43884">
        <ele>2113.7</ele>
        <time>2024-04-27T11:13:33Z</time>
      </trkpt>
      <trkpt lat="45.84955" lon="6.43884">
        <ele>2113.7</ele>
        <time>2024-04-27T11:13:34Z</time>
      </trkpt>
      <trkpt lat="45.84955" lon="6.43884">
        <ele>2113.7</ele>
        <time>2024-04-27T11:13:35Z</time>
      </trkpt>
      <trkpt lat="45.84955" lon="6.43884">
        <ele>2113.7</ele>
        <time>2024-04-27T11:13:36Z</time>
      </trkpt>
      <trkpt lat="45.84955" lon="6.43884">
        <ele>2113.7</ele>
        <time>2024-04-27T11:13:37Z</time>
      </trkpt>
      <trkpt lat="45.84955" lon="6.43884">
        <ele>2113.7</ele>
        <time>2024-04-27T11:13:38Z</time>
      </trkpt>
      <trkpt lat="45.84955" lon="6.43884">
        <ele>2113.7</ele>
        <time>2024-04-27T11:13:39Z</time>
      </trkpt>
      <trkpt lat="45.84955" lon="6.43884">
        <ele>2113.7</ele>
        <time>2024-04-27T11:13:40Z</time>
      </trkpt>
      <trkpt lat="45.84955" lon="6.43884">
        <ele>2112.6</ele>
        <time>2024-04-27T11:13:41Z</time>
      </trkpt>
      <trkpt lat="45.84955" lon="6.43884">
        <ele>2112.6</ele>
        <time>2024-04-27T11:13:42Z</time>
      </trkpt>
      <trkpt lat="45.84955" lon="6.43884">
        <ele>2112.6</ele>
        <time>2024-04-27T11:13:43Z</time>
      </trkpt>
      <trkpt lat="45.84955" lon="6.43884">
        <ele>2112.6</ele>
        <time>2024-04-27T11:13:44Z</time>
      </trkpt>
      <trkpt lat="45.84955" lon="6.43884">
        <ele>2111.7</ele>
        <time>2024-04-27T11:13:45Z</time>
      </trkpt>
      <trkpt lat="45.84955" lon="6.43884">
        <ele>2111.7</ele>
        <time>2024-04-27T11:13:46Z</time>
      </trkpt>
      <trkpt lat="45.84955" lon="6.43884">
        <ele>2111.7</ele>
        <time>2024-04-27T11:13:47Z</time>
      </trkpt>
      <trkpt lat="45.84955" lon="6.43884">
        <ele>2111.7</ele>
        <time>2024-04-27T11:13:48Z</time>
      </trkpt>
      <trkpt lat="45.84955" lon="6.43884">
        <ele>2111.7</ele>
        <time>2024-04-27T11:13:49Z</time>
      </trkpt>
      <trkpt lat="45.84955" lon="6.43884">
        <ele>2111.7</ele>
        <time>2024-04-27T11:13:50Z</time>
      </trkpt>
      <trkpt lat="45.84955" lon="6.43884">
        <ele>2109.7</ele>
        <time>2024-04-27T11:13:51Z</time>
      </trkpt>
      <trkpt lat="45.84955" lon="6.43883">
        <ele>2109.7</ele>
        <time>2024-04-27T11:13:52Z</time>
      </trkpt>
      <trkpt lat="45.84955" lon="6.43883">
        <ele>2110.6</ele>
        <time>2024-04-27T11:13:53Z</time>
      </trkpt>
      <trkpt lat="45.84955" lon="6.43883">
        <ele>2110.6</ele>
        <time>2024-04-27T11:13:54Z</time>
      </trkpt>
      <trkpt lat="45.84955" lon="6.43883">
        <ele>2110.6</ele>
        <time>2024-04-27T11:13:55Z</time>
      </trkpt>
      <trkpt lat="45.84955" lon="6.43882">
        <ele>2110.6</ele>
        <time>2024-04-27T11:13:56Z</time>
      </trkpt>
      <trkpt lat="45.84955" lon="6.43881">
        <ele>2110.6</ele>
        <time>2024-04-27T11:13:57Z</time>
      </trkpt>
      <trkpt lat="45.84956" lon="6.43881">
        <ele>2110.6</ele>
        <time>2024-04-27T11:13:58Z</time>
      </trkpt>
      <trkpt lat="45.84957" lon="6.4388">
        <ele>2109.7</ele>
        <time>2024-04-27T11:13:59Z</time>
      </trkpt>
      <trkpt lat="45.84957" lon="6.43879">
        <ele>2109.7</ele>
        <time>2024-04-27T11:14:00Z</time>
      </trkpt>
      <trkpt lat="45.84958" lon="6.43878">
        <ele>2109.7</ele>
        <time>2024-04-27T11:14:01Z</time>
      </trkpt>
      <trkpt lat="45.84959" lon="6.43878">
        <ele>2109.7</ele>
        <time>2024-04-27T11:14:02Z</time>
      </trkpt>
      <trkpt lat="45.84959" lon="6.43877">
        <ele>2108.6</ele>
        <time>2024-04-27T11:14:03Z</time>
      </trkpt>
      <trkpt lat="45.84959" lon="6.43877">
        <ele>2108.6</ele>
        <time>2024-04-27T11:14:04Z</time>
      </trkpt>
      <trkpt lat="45.8496" lon="6.43876">
        <ele>2108.6</ele>
        <time>2024-04-27T11:14:05Z</time>
      </trkpt>
      <trkpt lat="45.84961" lon="6.43875">
        <ele>2108.6</ele>
        <time>2024-04-27T11:14:06Z</time>
      </trkpt>
      <trkpt lat="45.84961" lon="6.43876">
        <ele>2108.6</ele>
        <time>2024-04-27T11:14:07Z</time>
      </trkpt>
      <trkpt lat="45.84962" lon="6.43876">
        <ele>2108.6</ele>
        <time>2024-04-27T11:14:08Z</time>
      </trkpt>
      <trkpt lat="45.84962" lon="6.43876">
        <ele>2108.6</ele>
        <time>2024-04-27T11:14:09Z</time>
      </trkpt>
      <trkpt lat="45.84962" lon="6.43876">
        <ele>2108.6</ele>
        <time>2024-04-27T11:14:10Z</time>
      </trkpt>
      <trkpt lat="45.84962" lon="6.43876">
        <ele>2108.6</ele>
        <time>2024-04-27T11:14:11Z</time>
      </trkpt>
      <trkpt lat="45.84962" lon="6.43876">
        <ele>2108.6</ele>
        <time>2024-04-27T11:14:12Z</time>
      </trkpt>
      <trkpt lat="45.84962" lon="6.43876">
        <ele>2108.6</ele>
        <time>2024-04-27T11:14:13Z</time>
      </trkpt>
      <trkpt lat="45.84962" lon="6.43876">
        <ele>2108.6</ele>
        <time>2024-04-27T11:14:14Z</time>
      </trkpt>
      <trkpt lat="45.84962" lon="6.43876">
        <ele>2109.7</ele>
        <time>2024-04-27T11:14:15Z</time>
      </trkpt>
      <trkpt lat="45.84962" lon="6.43876">
        <ele>2109.7</ele>
        <time>2024-04-27T11:14:16Z</time>
      </trkpt>
      <trkpt lat="45.84962" lon="6.43876">
        <ele>2109.7</ele>
        <time>2024-04-27T11:14:17Z</time>
      </trkpt>
      <trkpt lat="45.84962" lon="6.43876">
        <ele>2109.7</ele>
        <time>2024-04-27T11:14:18Z</time>
      </trkpt>
      <trkpt lat="45.84962" lon="6.43876">
        <ele>2109.7</ele>
        <time>2024-04-27T11:14:19Z</time>
      </trkpt>
      <trkpt lat="45.84962" lon="6.43876">
        <ele>2109.7</ele>
        <time>2024-04-27T11:14:20Z</time>
      </trkpt>
      <trkpt lat="45.84962" lon="6.43876">
        <ele>2109.7</ele>
        <time>2024-04-27T11:14:21Z</time>
      </trkpt>
      <trkpt lat="45.84962" lon="6.43876">
        <ele>2109.7</ele>
        <time>2024-04-27T11:14:22Z</time>
      </trkpt>
      <trkpt lat="45.84962" lon="6.43876">
        <ele>2109.7</ele>
        <time>2024-04-27T11:14:23Z</time>
      </trkpt>
      <trkpt lat="45.84962" lon="6.43876">
        <ele>2109.7</ele>
        <time>2024-04-27T11:14:24Z</time>
      </trkpt>
      <trkpt lat="45.84962" lon="6.43876">
        <ele>2109.7</ele>
        <time>2024-04-27T11:14:25Z</time>
      </trkpt>
      <trkpt lat="45.84962" lon="6.43876">
        <ele>2109.7</ele>
        <time>2024-04-27T11:14:26Z</time>
      </trkpt>
      <trkpt lat="45.84962" lon="6.43876">
        <ele>2109.7</ele>
        <time>2024-04-27T11:14:27Z</time>
      </trkpt>
      <trkpt lat="45.84962" lon="6.43876">
        <ele>2109.7</ele>
        <time>2024-04-27T11:14:28Z</time>
      </trkpt>
      <trkpt lat="45.84963" lon="6.43877">
        <ele>2109.7</ele>
        <time>2024-04-27T11:14:29Z</time>
      </trkpt>
      <trkpt lat="45.84964" lon="6.43878">
        <ele>2109.7</ele>
        <time>2024-04-27T11:14:30Z</time>
      </trkpt>
      <trkpt lat="45.84964" lon="6.43879">
        <ele>2109.7</ele>
        <time>2024-04-27T11:14:31Z</time>
      </trkpt>
      <trkpt lat="45.84965" lon="6.43881">
        <ele>2109.7</ele>
        <time>2024-04-27T11:14:32Z</time>
      </trkpt>
      <trkpt lat="45.84966" lon="6.43882">
        <ele>2108.6</ele>
        <time>2024-04-27T11:14:33Z</time>
      </trkpt>
      <trkpt lat="45.84967" lon="6.43883">
        <ele>2108.6</ele>
        <time>2024-04-27T11:14:34Z</time>
      </trkpt>
      <trkpt lat="45.84967" lon="6.43884">
        <ele>2108.6</ele>
        <time>2024-04-27T11:14:35Z</time>
      </trkpt>
      <trkpt lat="45.84968" lon="6.43885">
        <ele>2108.6</ele>
        <time>2024-04-27T11:14:36Z</time>
      </trkpt>
      <trkpt lat="45.84968" lon="6.43886">
        <ele>2108.6</ele>
        <time>2024-04-27T11:14:37Z</time>
      </trkpt>
      <trkpt lat="45.84969" lon="6.43888">
        <ele>2108.6</ele>
        <time>2024-04-27T11:14:38Z</time>
      </trkpt>
      <trkpt lat="45.84969" lon="6.43888">
        <ele>2108.6</ele>
        <time>2024-04-27T11:14:39Z</time>
      </trkpt>
      <trkpt lat="45.84969" lon="6.43887">
        <ele>2108.6</ele>
        <time>2024-04-27T11:14:40Z</time>
      </trkpt>
      <trkpt lat="45.84968" lon="6.43887">
        <ele>2108.6</ele>
        <time>2024-04-27T11:14:41Z</time>
      </trkpt>
      <trkpt lat="45.84967" lon="6.43887">
        <ele>2108.6</ele>
        <time>2024-04-27T11:14:42Z</time>
      </trkpt>
      <trkpt lat="45.84968" lon="6.43887">
        <ele>2108.6</ele>
        <time>2024-04-27T11:14:43Z</time>
      </trkpt>
      <trkpt lat="45.84969" lon="6.43887">
        <ele>2108.6</ele>
        <time>2024-04-27T11:14:44Z</time>
      </trkpt>
      <trkpt lat="45.84969" lon="6.43886">
        <ele>2108.6</ele>
        <time>2024-04-27T11:14:45Z</time>
      </trkpt>
      <trkpt lat="45.8497" lon="6.43886">
        <ele>2108.6</ele>
        <time>2024-04-27T11:14:46Z</time>
      </trkpt>
      <trkpt lat="45.84971" lon="6.43886">
        <ele>2108.6</ele>
        <time>2024-04-27T11:14:47Z</time>
      </trkpt>
      <trkpt lat="45.84972" lon="6.43887">
        <ele>2108.6</ele>
        <time>2024-04-27T11:14:48Z</time>
      </trkpt>
      <trkpt lat="45.84973" lon="6.43887">
        <ele>2108.6</ele>
        <time>2024-04-27T11:14:49Z</time>
      </trkpt>
      <trkpt lat="45.84973" lon="6.43888">
        <ele>2108.6</ele>
        <time>2024-04-27T11:14:50Z</time>
      </trkpt>
      <trkpt lat="45.84973" lon="6.43888">
        <ele>2108.6</ele>
        <time>2024-04-27T11:14:51Z</time>
      </trkpt>
      <trkpt lat="45.84973" lon="6.43887">
        <ele>2108.6</ele>
        <time>2024-04-27T11:14:52Z</time>
      </trkpt>
      <trkpt lat="45.84973" lon="6.43887">
        <ele>2108.6</ele>
        <time>2024-04-27T11:14:53Z</time>
      </trkpt>
      <trkpt lat="45.84973" lon="6.43886">
        <ele>2108.6</ele>
        <time>2024-04-27T11:14:54Z</time>
      </trkpt>
      <trkpt lat="45.84973" lon="6.43886">
        <ele>2108.6</ele>
        <time>2024-04-27T11:14:55Z</time>
      </trkpt>
      <trkpt lat="45.84973" lon="6.43885">
        <ele>2108.6</ele>
        <time>2024-04-27T11:14:56Z</time>
      </trkpt>
      <trkpt lat="45.84973" lon="6.43884">
        <ele>2108.6</ele>
        <time>2024-04-27T11:14:57Z</time>
      </trkpt>
      <trkpt lat="45.84973" lon="6.43884">
        <ele>2108.6</ele>
        <time>2024-04-27T11:14:58Z</time>
      </trkpt>
      <trkpt lat="45.84973" lon="6.43883">
        <ele>2108.6</ele>
        <time>2024-04-27T11:14:59Z</time>
      </trkpt>
      <trkpt lat="45.84974" lon="6.43882">
        <ele>2108.6</ele>
        <time>2024-04-27T11:15:00Z</time>
      </trkpt>
      <trkpt lat="45.84975" lon="6.43882">
        <ele>2108.6</ele>
        <time>2024-04-27T11:15:01Z</time>
      </trkpt>
      <trkpt lat="45.84976" lon="6.43882">
        <ele>2108.6</ele>
        <time>2024-04-27T11:15:02Z</time>
      </trkpt>
      <trkpt lat="45.84977" lon="6.43882">
        <ele>2108.6</ele>
        <time>2024-04-27T11:15:03Z</time>
      </trkpt>
      <trkpt lat="45.84978" lon="6.43881">
        <ele>2108.6</ele>
        <time>2024-04-27T11:15:04Z</time>
      </trkpt>
      <trkpt lat="45.84978" lon="6.43881">
        <ele>2108.6</ele>
        <time>2024-04-27T11:15:05Z</time>
      </trkpt>
      <trkpt lat="45.84979" lon="6.43881">
        <ele>2108.6</ele>
        <time>2024-04-27T11:15:06Z</time>
      </trkpt>
      <trkpt lat="45.8498" lon="6.4388">
        <ele>2108.6</ele>
        <time>2024-04-27T11:15:07Z</time>
      </trkpt>
      <trkpt lat="45.84981" lon="6.43879">
        <ele>2108.6</ele>
        <time>2024-04-27T11:15:08Z</time>
      </trkpt>
      <trkpt lat="45.84982" lon="6.43879">
        <ele>2108.6</ele>
        <time>2024-04-27T11:15:09Z</time>
      </trkpt>
      <trkpt lat="45.84983" lon="6.43879">
        <ele>2108.6</ele>
        <time>2024-04-27T11:15:10Z</time>
      </trkpt>
      <trkpt lat="45.84984" lon="6.4388">
        <ele>2108.6</ele>
        <time>2024-04-27T11:15:11Z</time>
      </trkpt>
      <trkpt lat="45.84984" lon="6.4388">
        <ele>2108.6</ele>
        <time>2024-04-27T11:15:12Z</time>
      </trkpt>
      <trkpt lat="45.84983" lon="6.43879">
        <ele>2108.6</ele>
        <time>2024-04-27T11:15:13Z</time>
      </trkpt>
      <trkpt lat="45.84981" lon="6.43879">
        <ele>2108.6</ele>
        <time>2024-04-27T11:15:14Z</time>
      </trkpt>
      <trkpt lat="45.84981" lon="6.43879">
        <ele>2108.6</ele>
        <time>2024-04-27T11:15:15Z</time>
      </trkpt>
      <trkpt lat="45.84981" lon="6.43879">
        <ele>2108.6</ele>
        <time>2024-04-27T11:15:16Z</time>
      </trkpt>
      <trkpt lat="45.84981" lon="6.43879">
        <ele>2108.6</ele>
        <time>2024-04-27T11:15:17Z</time>
      </trkpt>
      <trkpt lat="45.84981" lon="6.43879">
        <ele>2108.6</ele>
        <time>2024-04-27T11:15:18Z</time>
      </trkpt>
      <trkpt lat="45.84981" lon="6.43879">
        <ele>2108.6</ele>
        <time>2024-04-27T11:15:19Z</time>
      </trkpt>
      <trkpt lat="45.84981" lon="6.43879">
        <ele>2108.6</ele>
        <time>2024-04-27T11:15:20Z</time>
      </trkpt>
      <trkpt lat="45.84981" lon="6.43879">
        <ele>2108.6</ele>
        <time>2024-04-27T11:15:21Z</time>
      </trkpt>
      <trkpt lat="45.84982" lon="6.43879">
        <ele>2108.6</ele>
        <time>2024-04-27T11:15:22Z</time>
      </trkpt>
      <trkpt lat="45.84982" lon="6.43879">
        <ele>2108.6</ele>
        <time>2024-04-27T11:15:23Z</time>
      </trkpt>
      <trkpt lat="45.84982" lon="6.4388">
        <ele>2108.6</ele>
        <time>2024-04-27T11:15:24Z</time>
      </trkpt>
      <trkpt lat="45.84982" lon="6.4388">
        <ele>2108.6</ele>
        <time>2024-04-27T11:15:25Z</time>
      </trkpt>
      <trkpt lat="45.84982" lon="6.4388">
        <ele>2108.6</ele>
        <time>2024-04-27T11:15:26Z</time>
      </trkpt>
      <trkpt lat="45.84982" lon="6.4388">
        <ele>2108.6</ele>
        <time>2024-04-27T11:15:27Z</time>
      </trkpt>
      <trkpt lat="45.84981" lon="6.4388">
        <ele>2108.6</ele>
        <time>2024-04-27T11:15:28Z</time>
      </trkpt>
      <trkpt lat="45.84981" lon="6.43879">
        <ele>2108.6</ele>
        <time>2024-04-27T11:15:29Z</time>
      </trkpt>
      <trkpt lat="45.8498" lon="6.43879">
        <ele>2108.6</ele>
        <time>2024-04-27T11:15:30Z</time>
      </trkpt>
      <trkpt lat="45.84979" lon="6.43879">
        <ele>2108.6</ele>
        <time>2024-04-27T11:15:31Z</time>
      </trkpt>
      <trkpt lat="45.84979" lon="6.43879">
        <ele>2108.6</ele>
        <time>2024-04-27T11:15:32Z</time>
      </trkpt>
      <trkpt lat="45.84978" lon="6.43879">
        <ele>2108.6</ele>
        <time>2024-04-27T11:15:33Z</time>
      </trkpt>
      <trkpt lat="45.84978" lon="6.43879">
        <ele>2108.6</ele>
        <time>2024-04-27T11:15:34Z</time>
      </trkpt>
      <trkpt lat="45.84978" lon="6.43879">
        <ele>2108.6</ele>
        <time>2024-04-27T11:15:35Z</time>
      </trkpt>
      <trkpt lat="45.84977" lon="6.43878">
        <ele>2108.6</ele>
        <time>2024-04-27T11:15:36Z</time>
      </trkpt>
      <trkpt lat="45.84977" lon="6.43878">
        <ele>2108.6</ele>
        <time>2024-04-27T11:15:37Z</time>
      </trkpt>
      <trkpt lat="45.84977" lon="6.43878">
        <ele>2108.6</ele>
        <time>2024-04-27T11:15:38Z</time>
      </trkpt>
      <trkpt lat="45.84977" lon="6.43877">
        <ele>2108.6</ele>
        <time>2024-04-27T11:15:39Z</time>
      </trkpt>
      <trkpt lat="45.84977" lon="6.43877">
        <ele>2108.6</ele>
        <time>2024-04-27T11:15:40Z</time>
      </trkpt>
      <trkpt lat="45.84977" lon="6.43876">
        <ele>2108.6</ele>
        <time>2024-04-27T11:15:41Z</time>
      </trkpt>
      <trkpt lat="45.84977" lon="6.43875">
        <ele>2108.6</ele>
        <time>2024-04-27T11:15:42Z</time>
      </trkpt>
      <trkpt lat="45.84977" lon="6.43875">
        <ele>2108.6</ele>
        <time>2024-04-27T11:15:43Z</time>
      </trkpt>
      <trkpt lat="45.84977" lon="6.43876">
        <ele>2108.6</ele>
        <time>2024-04-27T11:15:44Z</time>
      </trkpt>
      <trkpt lat="45.84976" lon="6.43876">
        <ele>2108.6</ele>
        <time>2024-04-27T11:15:45Z</time>
      </trkpt>
      <trkpt lat="45.84976" lon="6.43876">
        <ele>2108.6</ele>
        <time>2024-04-27T11:15:46Z</time>
      </trkpt>
      <trkpt lat="45.84976" lon="6.43876">
        <ele>2108.6</ele>
        <time>2024-04-27T11:15:47Z</time>
      </trkpt>
      <trkpt lat="45.84976" lon="6.43876">
        <ele>2108.6</ele>
        <time>2024-04-27T11:15:48Z</time>
      </trkpt>
      <trkpt lat="45.84976" lon="6.43876">
        <ele>2108.6</ele>
        <time>2024-04-27T11:15:49Z</time>
      </trkpt>
      <trkpt lat="45.84976" lon="6.43876">
        <ele>2108.6</ele>
        <time>2024-04-27T11:15:50Z</time>
      </trkpt>
      <trkpt lat="45.84976" lon="6.43876">
        <ele>2108.6</ele>
        <time>2024-04-27T11:15:51Z</time>
      </trkpt>
      <trkpt lat="45.84976" lon="6.43876">
        <ele>2108.6</ele>
        <time>2024-04-27T11:15:52Z</time>
      </trkpt>
      <trkpt lat="45.84976" lon="6.43876">
        <ele>2108.6</ele>
        <time>2024-04-27T11:15:53Z</time>
      </trkpt>
      <trkpt lat="45.84976" lon="6.43876">
        <ele>2108.6</ele>
        <time>2024-04-27T11:15:54Z</time>
      </trkpt>
      <trkpt lat="45.84976" lon="6.43876">
        <ele>2109.7</ele>
        <time>2024-04-27T11:15:55Z</time>
      </trkpt>
      <trkpt lat="45.84976" lon="6.43876">
        <ele>2109.7</ele>
        <time>2024-04-27T11:15:56Z</time>
      </trkpt>
      <trkpt lat="45.84976" lon="6.43876">
        <ele>2109.7</ele>
        <time>2024-04-27T11:15:57Z</time>
      </trkpt>
      <trkpt lat="45.84976" lon="6.43876">
        <ele>2109.7</ele>
        <time>2024-04-27T11:15:58Z</time>
      </trkpt>
      <trkpt lat="45.84976" lon="6.43876">
        <ele>2109.7</ele>
        <time>2024-04-27T11:15:59Z</time>
      </trkpt>
      <trkpt lat="45.84976" lon="6.43876">
        <ele>2109.7</ele>
        <time>2024-04-27T11:16:00Z</time>
      </trkpt>
      <trkpt lat="45.84976" lon="6.43876">
        <ele>2110.6</ele>
        <time>2024-04-27T11:16:01Z</time>
      </trkpt>
      <trkpt lat="45.84976" lon="6.43876">
        <ele>2110.6</ele>
        <time>2024-04-27T11:16:02Z</time>
      </trkpt>
      <trkpt lat="45.84976" lon="6.43876">
        <ele>2110.6</ele>
        <time>2024-04-27T11:16:03Z</time>
      </trkpt>
      <trkpt lat="45.84976" lon="6.43876">
        <ele>2110.6</ele>
        <time>2024-04-27T11:16:04Z</time>
      </trkpt>
      <trkpt lat="45.84976" lon="6.43876">
        <ele>2110.6</ele>
        <time>2024-04-27T11:16:05Z</time>
      </trkpt>
      <trkpt lat="45.84976" lon="6.43876">
        <ele>2110.6</ele>
        <time>2024-04-27T11:16:06Z</time>
      </trkpt>
      <trkpt lat="45.84976" lon="6.43876">
        <ele>2110.6</ele>
        <time>2024-04-27T11:16:07Z</time>
      </trkpt>
      <trkpt lat="45.84976" lon="6.43876">
        <ele>2110.6</ele>
        <time>2024-04-27T11:16:08Z</time>
      </trkpt>
      <trkpt lat="45.84976" lon="6.43876">
        <ele>2110.6</ele>
        <time>2024-04-27T11:16:09Z</time>
      </trkpt>
      <trkpt lat="45.84975" lon="6.43876">
        <ele>2110.6</ele>
        <time>2024-04-27T11:16:10Z</time>
      </trkpt>
      <trkpt lat="45.84975" lon="6.43876">
        <ele>2111.7</ele>
        <time>2024-04-27T11:16:11Z</time>
      </trkpt>
      <trkpt lat="45.84975" lon="6.43876">
        <ele>2111.7</ele>
        <time>2024-04-27T11:16:12Z</time>
      </trkpt>
      <trkpt lat="45.84975" lon="6.43876">
        <ele>2111.7</ele>
        <time>2024-04-27T11:16:13Z</time>
      </trkpt>
      <trkpt lat="45.84975" lon="6.43877">
        <ele>2111.7</ele>
        <time>2024-04-27T11:16:14Z</time>
      </trkpt>
      <trkpt lat="45.84975" lon="6.43877">
        <ele>2111.7</ele>
        <time>2024-04-27T11:16:15Z</time>
      </trkpt>
      <trkpt lat="45.84975" lon="6.43877">
        <ele>2111.7</ele>
        <time>2024-04-27T11:16:16Z</time>
      </trkpt>
      <trkpt lat="45.84974" lon="6.43877">
        <ele>2111.7</ele>
        <time>2024-04-27T11:16:17Z</time>
      </trkpt>
      <trkpt lat="45.84974" lon="6.43877">
        <ele>2111.7</ele>
        <time>2024-04-27T11:16:18Z</time>
      </trkpt>
      <trkpt lat="45.84974" lon="6.43877">
        <ele>2111.7</ele>
        <time>2024-04-27T11:16:19Z</time>
      </trkpt>
      <trkpt lat="45.84974" lon="6.43877">
        <ele>2111.7</ele>
        <time>2024-04-27T11:16:20Z</time>
      </trkpt>
      <trkpt lat="45.84974" lon="6.43877">
        <ele>2111.7</ele>
        <time>2024-04-27T11:16:21Z</time>
      </trkpt>
      <trkpt lat="45.84974" lon="6.43877">
        <ele>2111.7</ele>
        <time>2024-04-27T11:16:22Z</time>
      </trkpt>
      <trkpt lat="45.84974" lon="6.43877">
        <ele>2111.7</ele>
        <time>2024-04-27T11:16:23Z</time>
      </trkpt>
      <trkpt lat="45.84974" lon="6.43877">
        <ele>2111.7</ele>
        <time>2024-04-27T11:16:24Z</time>
      </trkpt>
      <trkpt lat="45.84974" lon="6.43877">
        <ele>2111.7</ele>
        <time>2024-04-27T11:16:25Z</time>
      </trkpt>
      <trkpt lat="45.84974" lon="6.43877">
        <ele>2111.7</ele>
        <time>2024-04-27T11:16:26Z</time>
      </trkpt>
      <trkpt lat="45.84973" lon="6.43877">
        <ele>2111.7</ele>
        <time>2024-04-27T11:16:27Z</time>
      </trkpt>
      <trkpt lat="45.84973" lon="6.43877">
        <ele>2111.7</ele>
        <time>2024-04-27T11:16:28Z</time>
      </trkpt>
      <trkpt lat="45.84973" lon="6.43877">
        <ele>2110.6</ele>
        <time>2024-04-27T11:16:29Z</time>
      </trkpt>
      <trkpt lat="45.84973" lon="6.43877">
        <ele>2110.6</ele>
        <time>2024-04-27T11:16:30Z</time>
      </trkpt>
      <trkpt lat="45.84973" lon="6.43877">
        <ele>2110.6</ele>
        <time>2024-04-27T11:16:31Z</time>
      </trkpt>
      <trkpt lat="45.84973" lon="6.43877">
        <ele>2110.6</ele>
        <time>2024-04-27T11:16:32Z</time>
      </trkpt>
      <trkpt lat="45.84973" lon="6.43877">
        <ele>2109.7</ele>
        <time>2024-04-27T11:16:33Z</time>
      </trkpt>
      <trkpt lat="45.84973" lon="6.43877">
        <ele>2109.7</ele>
        <time>2024-04-27T11:16:34Z</time>
      </trkpt>
      <trkpt lat="45.84973" lon="6.43877">
        <ele>2109.7</ele>
        <time>2024-04-27T11:16:35Z</time>
      </trkpt>
      <trkpt lat="45.84973" lon="6.43877">
        <ele>2109.7</ele>
        <time>2024-04-27T11:16:36Z</time>
      </trkpt>
      <trkpt lat="45.84973" lon="6.43877">
        <ele>2109.7</ele>
        <time>2024-04-27T11:16:37Z</time>
      </trkpt>
      <trkpt lat="45.84973" lon="6.43877">
        <ele>2109.7</ele>
        <time>2024-04-27T11:16:38Z</time>
      </trkpt>
      <trkpt lat="45.84973" lon="6.43877">
        <ele>2109.7</ele>
        <time>2024-04-27T11:16:39Z</time>
      </trkpt>
      <trkpt lat="45.84973" lon="6.43877">
        <ele>2109.7</ele>
        <time>2024-04-27T11:16:40Z</time>
      </trkpt>
      <trkpt lat="45.84973" lon="6.43877">
        <ele>2109.7</ele>
        <time>2024-04-27T11:16:41Z</time>
      </trkpt>
      <trkpt lat="45.84973" lon="6.43877">
        <ele>2109.7</ele>
        <time>2024-04-27T11:16:42Z</time>
      </trkpt>
      <trkpt lat="45.84973" lon="6.43877">
        <ele>2109.7</ele>
        <time>2024-04-27T11:16:43Z</time>
      </trkpt>
      <trkpt lat="45.84973" lon="6.43877">
        <ele>2109.7</ele>
        <time>2024-04-27T11:16:44Z</time>
      </trkpt>
      <trkpt lat="45.84973" lon="6.43877">
        <ele>2109.7</ele>
        <time>2024-04-27T11:16:45Z</time>
      </trkpt>
      <trkpt lat="45.84973" lon="6.43877">
        <ele>2109.7</ele>
        <time>2024-04-27T11:16:46Z</time>
      </trkpt>
      <trkpt lat="45.84973" lon="6.43877">
        <ele>2109.7</ele>
        <time>2024-04-27T11:16:47Z</time>
      </trkpt>
      <trkpt lat="45.84973" lon="6.43878">
        <ele>2109.7</ele>
        <time>2024-04-27T11:16:48Z</time>
      </trkpt>
      <trkpt lat="45.84973" lon="6.43878">
        <ele>2109.7</ele>
        <time>2024-04-27T11:16:49Z</time>
      </trkpt>
      <trkpt lat="45.84973" lon="6.43878">
        <ele>2109.7</ele>
        <time>2024-04-27T11:16:50Z</time>
      </trkpt>
      <trkpt lat="45.84973" lon="6.43878">
        <ele>2109.7</ele>
        <time>2024-04-27T11:16:51Z</time>
      </trkpt>
      <trkpt lat="45.84973" lon="6.43879">
        <ele>2109.7</ele>
        <time>2024-04-27T11:16:52Z</time>
      </trkpt>
      <trkpt lat="45.84973" lon="6.43879">
        <ele>2109.7</ele>
        <time>2024-04-27T11:16:53Z</time>
      </trkpt>
      <trkpt lat="45.84973" lon="6.43879">
        <ele>2109.7</ele>
        <time>2024-04-27T11:16:54Z</time>
      </trkpt>
      <trkpt lat="45.84973" lon="6.43879">
        <ele>2109.7</ele>
        <time>2024-04-27T11:16:55Z</time>
      </trkpt>
      <trkpt lat="45.84973" lon="6.4388">
        <ele>2109.7</ele>
        <time>2024-04-27T11:16:56Z</time>
      </trkpt>
      <trkpt lat="45.84973" lon="6.4388">
        <ele>2109.7</ele>
        <time>2024-04-27T11:16:57Z</time>
      </trkpt>
      <trkpt lat="45.84973" lon="6.43881">
        <ele>2109.7</ele>
        <time>2024-04-27T11:16:58Z</time>
      </trkpt>
      <trkpt lat="45.84973" lon="6.43881">
        <ele>2108.6</ele>
        <time>2024-04-27T11:16:59Z</time>
      </trkpt>
      <trkpt lat="45.84973" lon="6.43882">
        <ele>2108.6</ele>
        <time>2024-04-27T11:17:00Z</time>
      </trkpt>
      <trkpt lat="45.84973" lon="6.43882">
        <ele>2108.6</ele>
        <time>2024-04-27T11:17:01Z</time>
      </trkpt>
      <trkpt lat="45.84973" lon="6.43882">
        <ele>2108.6</ele>
        <time>2024-04-27T11:17:02Z</time>
      </trkpt>
      <trkpt lat="45.84973" lon="6.43882">
        <ele>2108.6</ele>
        <time>2024-04-27T11:17:03Z</time>
      </trkpt>
      <trkpt lat="45.84973" lon="6.43883">
        <ele>2108.6</ele>
        <time>2024-04-27T11:17:04Z</time>
      </trkpt>
      <trkpt lat="45.84973" lon="6.43883">
        <ele>2108.6</ele>
        <time>2024-04-27T11:17:05Z</time>
      </trkpt>
      <trkpt lat="45.84973" lon="6.43884">
        <ele>2108.6</ele>
        <time>2024-04-27T11:17:06Z</time>
      </trkpt>
      <trkpt lat="45.84973" lon="6.43884">
        <ele>2108.6</ele>
        <time>2024-04-27T11:17:07Z</time>
      </trkpt>
      <trkpt lat="45.84973" lon="6.43884">
        <ele>2108.6</ele>
        <time>2024-04-27T11:17:08Z</time>
      </trkpt>
      <trkpt lat="45.84973" lon="6.43884">
        <ele>2108.6</ele>
        <time>2024-04-27T11:17:09Z</time>
      </trkpt>
      <trkpt lat="45.84974" lon="6.43885">
        <ele>2108.6</ele>
        <time>2024-04-27T11:17:10Z</time>
      </trkpt>
      <trkpt lat="45.84974" lon="6.43887">
        <ele>2108.6</ele>
        <time>2024-04-27T11:17:11Z</time>
      </trkpt>
      <trkpt lat="45.84974" lon="6.43889">
        <ele>2108.6</ele>
        <time>2024-04-27T11:17:12Z</time>
      </trkpt>
      <trkpt lat="45.84975" lon="6.4389">
        <ele>2108.6</ele>
        <time>2024-04-27T11:17:13Z</time>
      </trkpt>
      <trkpt lat="45.84974" lon="6.43892">
        <ele>2108.6</ele>
        <time>2024-04-27T11:17:14Z</time>
      </trkpt>
      <trkpt lat="45.84974" lon="6.43894">
        <ele>2107.7</ele>
        <time>2024-04-27T11:17:15Z</time>
      </trkpt>
      <trkpt lat="45.84974" lon="6.43896">
        <ele>2107.7</ele>
        <time>2024-04-27T11:17:16Z</time>
      </trkpt>
      <trkpt lat="45.84974" lon="6.43897">
        <ele>2107.7</ele>
        <time>2024-04-27T11:17:17Z</time>
      </trkpt>
      <trkpt lat="45.84975" lon="6.43899">
        <ele>2107.7</ele>
        <time>2024-04-27T11:17:18Z</time>
      </trkpt>
      <trkpt lat="45.84975" lon="6.439">
        <ele>2107.7</ele>
        <time>2024-04-27T11:17:19Z</time>
      </trkpt>
      <trkpt lat="45.84975" lon="6.439">
        <ele>2107.7</ele>
        <time>2024-04-27T11:17:20Z</time>
      </trkpt>
      <trkpt lat="45.84975" lon="6.439">
        <ele>2107.7</ele>
        <time>2024-04-27T11:17:21Z</time>
      </trkpt>
      <trkpt lat="45.84975" lon="6.43901">
        <ele>2107.7</ele>
        <time>2024-04-27T11:17:22Z</time>
      </trkpt>
      <trkpt lat="45.84976" lon="6.43901">
        <ele>2107.7</ele>
        <time>2024-04-27T11:17:23Z</time>
      </trkpt>
      <trkpt lat="45.84976" lon="6.43902">
        <ele>2107.7</ele>
        <time>2024-04-27T11:17:24Z</time>
      </trkpt>
      <trkpt lat="45.84977" lon="6.43902">
        <ele>2107.7</ele>
        <time>2024-04-27T11:17:25Z</time>
      </trkpt>
      <trkpt lat="45.84977" lon="6.43902">
        <ele>2107.7</ele>
        <time>2024-04-27T11:17:26Z</time>
      </trkpt>
      <trkpt lat="45.84977" lon="6.43902">
        <ele>2107.7</ele>
        <time>2024-04-27T11:17:27Z</time>
      </trkpt>
      <trkpt lat="45.84977" lon="6.43901">
        <ele>2107.7</ele>
        <time>2024-04-27T11:17:28Z</time>
      </trkpt>
      <trkpt lat="45.84977" lon="6.43901">
        <ele>2107.7</ele>
        <time>2024-04-27T11:17:29Z</time>
      </trkpt>
      <trkpt lat="45.84977" lon="6.43901">
        <ele>2107.7</ele>
        <time>2024-04-27T11:17:30Z</time>
      </trkpt>
      <trkpt lat="45.84977" lon="6.43901">
        <ele>2107.7</ele>
        <time>2024-04-27T11:17:31Z</time>
      </trkpt>
      <trkpt lat="45.84977" lon="6.43901">
        <ele>2107.7</ele>
        <time>2024-04-27T11:17:32Z</time>
      </trkpt>
      <trkpt lat="45.84977" lon="6.43901">
        <ele>2107.7</ele>
        <time>2024-04-27T11:17:33Z</time>
      </trkpt>
      <trkpt lat="45.84977" lon="6.43901">
        <ele>2107.7</ele>
        <time>2024-04-27T11:17:34Z</time>
      </trkpt>
      <trkpt lat="45.84977" lon="6.43901">
        <ele>2107.7</ele>
        <time>2024-04-27T11:17:35Z</time>
      </trkpt>
      <trkpt lat="45.84977" lon="6.43901">
        <ele>2107.7</ele>
        <time>2024-04-27T11:17:36Z</time>
      </trkpt>
      <trkpt lat="45.84977" lon="6.43901">
        <ele>2107.7</ele>
        <time>2024-04-27T11:17:37Z</time>
      </trkpt>
      <trkpt lat="45.84977" lon="6.43901">
        <ele>2107.7</ele>
        <time>2024-04-27T11:17:38Z</time>
      </trkpt>
      <trkpt lat="45.84977" lon="6.43901">
        <ele>2107.7</ele>
        <time>2024-04-27T11:17:39Z</time>
      </trkpt>
      <trkpt lat="45.84977" lon="6.43901">
        <ele>2107.7</ele>
        <time>2024-04-27T11:17:40Z</time>
      </trkpt>
      <trkpt lat="45.84976" lon="6.43901">
        <ele>2107.7</ele>
        <time>2024-04-27T11:17:41Z</time>
      </trkpt>
      <trkpt lat="45.84976" lon="6.43901">
        <ele>2107.7</ele>
        <time>2024-04-27T11:17:42Z</time>
      </trkpt>
      <trkpt lat="45.84976" lon="6.43901">
        <ele>2107.7</ele>
        <time>2024-04-27T11:17:43Z</time>
      </trkpt>
      <trkpt lat="45.84975" lon="6.439">
        <ele>2107.7</ele>
        <time>2024-04-27T11:17:44Z</time>
      </trkpt>
      <trkpt lat="45.84975" lon="6.439">
        <ele>2107.7</ele>
        <time>2024-04-27T11:17:45Z</time>
      </trkpt>
      <trkpt lat="45.84975" lon="6.43899">
        <ele>2107.7</ele>
        <time>2024-04-27T11:17:46Z</time>
      </trkpt>
      <trkpt lat="45.84975" lon="6.43899">
        <ele>2108.6</ele>
        <time>2024-04-27T11:17:47Z</time>
      </trkpt>
      <trkpt lat="45.84975" lon="6.43899">
        <ele>2108.6</ele>
        <time>2024-04-27T11:17:48Z</time>
      </trkpt>
      <trkpt lat="45.84974" lon="6.43899">
        <ele>2108.6</ele>
        <time>2024-04-27T11:17:49Z</time>
      </trkpt>
      <trkpt lat="45.84973" lon="6.43898">
        <ele>2108.6</ele>
        <time>2024-04-27T11:17:50Z</time>
      </trkpt>
      <trkpt lat="45.84971" lon="6.43897">
        <ele>2109.7</ele>
        <time>2024-04-27T11:17:51Z</time>
      </trkpt>
      <trkpt lat="45.84971" lon="6.43896">
        <ele>2109.7</ele>
        <time>2024-04-27T11:17:52Z</time>
      </trkpt>
      <trkpt lat="45.8497" lon="6.43895">
        <ele>2109.7</ele>
        <time>2024-04-27T11:17:53Z</time>
      </trkpt>
      <trkpt lat="45.84969" lon="6.43894">
        <ele>2109.7</ele>
        <time>2024-04-27T11:17:54Z</time>
      </trkpt>
      <trkpt lat="45.84968" lon="6.43893">
        <ele>2108.6</ele>
        <time>2024-04-27T11:17:55Z</time>
      </trkpt>
      <trkpt lat="45.84967" lon="6.43892">
        <ele>2108.6</ele>
        <time>2024-04-27T11:17:56Z</time>
      </trkpt>
      <trkpt lat="45.84966" lon="6.43891">
        <ele>2108.6</ele>
        <time>2024-04-27T11:17:57Z</time>
      </trkpt>
      <trkpt lat="45.84965" lon="6.4389">
        <ele>2108.6</ele>
        <time>2024-04-27T11:17:58Z</time>
      </trkpt>
      <trkpt lat="45.84964" lon="6.43889">
        <ele>2108.6</ele>
        <time>2024-04-27T11:17:59Z</time>
      </trkpt>
      <trkpt lat="45.84963" lon="6.43889">
        <ele>2108.6</ele>
        <time>2024-04-27T11:18:00Z</time>
      </trkpt>
      <trkpt lat="45.84963" lon="6.43888">
        <ele>2108.6</ele>
        <time>2024-04-27T11:18:01Z</time>
      </trkpt>
      <trkpt lat="45.84962" lon="6.43888">
        <ele>2108.6</ele>
        <time>2024-04-27T11:18:02Z</time>
      </trkpt>
      <trkpt lat="45.84962" lon="6.43888">
        <ele>2108.6</ele>
        <time>2024-04-27T11:18:03Z</time>
      </trkpt>
      <trkpt lat="45.84962" lon="6.43888">
        <ele>2108.6</ele>
        <time>2024-04-27T11:18:04Z</time>
      </trkpt>
      <trkpt lat="45.84962" lon="6.43888">
        <ele>2111.7</ele>
        <time>2024-04-27T11:18:05Z</time>
      </trkpt>
      <trkpt lat="45.84962" lon="6.43888">
        <ele>2111.7</ele>
        <time>2024-04-27T11:18:06Z</time>
      </trkpt>
      <trkpt lat="45.84962" lon="6.43888">
        <ele>2111.7</ele>
        <time>2024-04-27T11:18:07Z</time>
      </trkpt>
      <trkpt lat="45.84962" lon="6.43888">
        <ele>2111.7</ele>
        <time>2024-04-27T11:18:08Z</time>
      </trkpt>
      <trkpt lat="45.84962" lon="6.43888">
        <ele>2111.7</ele>
        <time>2024-04-27T11:18:09Z</time>
      </trkpt>
      <trkpt lat="45.84962" lon="6.43888">
        <ele>2111.7</ele>
        <time>2024-04-27T11:18:10Z</time>
      </trkpt>
      <trkpt lat="45.84962" lon="6.43888">
        <ele>2110.6</ele>
        <time>2024-04-27T11:18:11Z</time>
      </trkpt>
      <trkpt lat="45.84962" lon="6.43888">
        <ele>2110.6</ele>
        <time>2024-04-27T11:18:12Z</time>
      </trkpt>
      <trkpt lat="45.84962" lon="6.43888">
        <ele>2110.6</ele>
        <time>2024-04-27T11:18:13Z</time>
      </trkpt>
      <trkpt lat="45.84962" lon="6.43888">
        <ele>2110.6</ele>
        <time>2024-04-27T11:18:14Z</time>
      </trkpt>
      <trkpt lat="45.84962" lon="6.43888">
        <ele>2109.7</ele>
        <time>2024-04-27T11:18:15Z</time>
      </trkpt>
      <trkpt lat="45.84962" lon="6.43888">
        <ele>2109.7</ele>
        <time>2024-04-27T11:18:16Z</time>
      </trkpt>
      <trkpt lat="45.84962" lon="6.43888">
        <ele>2109.7</ele>
        <time>2024-04-27T11:18:17Z</time>
      </trkpt>
      <trkpt lat="45.84962" lon="6.43888">
        <ele>2109.7</ele>
        <time>2024-04-27T11:18:18Z</time>
      </trkpt>
      <trkpt lat="45.84962" lon="6.43888">
        <ele>2109.7</ele>
        <time>2024-04-27T11:18:19Z</time>
      </trkpt>
      <trkpt lat="45.84962" lon="6.43888">
        <ele>2109.7</ele>
        <time>2024-04-27T11:18:20Z</time>
      </trkpt>
      <trkpt lat="45.84961" lon="6.43888">
        <ele>2109.7</ele>
        <time>2024-04-27T11:18:21Z</time>
      </trkpt>
      <trkpt lat="45.84961" lon="6.43888">
        <ele>2109.7</ele>
        <time>2024-04-27T11:18:22Z</time>
      </trkpt>
      <trkpt lat="45.84961" lon="6.43888">
        <ele>2109.7</ele>
        <time>2024-04-27T11:18:23Z</time>
      </trkpt>
      <trkpt lat="45.84961" lon="6.43888">
        <ele>2109.7</ele>
        <time>2024-04-27T11:18:24Z</time>
      </trkpt>
      <trkpt lat="45.8496" lon="6.43888">
        <ele>2109.7</ele>
        <time>2024-04-27T11:18:25Z</time>
      </trkpt>
      <trkpt lat="45.8496" lon="6.43888">
        <ele>2109.7</ele>
        <time>2024-04-27T11:18:26Z</time>
      </trkpt>
      <trkpt lat="45.8496" lon="6.43888">
        <ele>2109.7</ele>
        <time>2024-04-27T11:18:27Z</time>
      </trkpt>
      <trkpt lat="45.8496" lon="6.43888">
        <ele>2109.7</ele>
        <time>2024-04-27T11:18:28Z</time>
      </trkpt>
      <trkpt lat="45.8496" lon="6.43888">
        <ele>2109.7</ele>
        <time>2024-04-27T11:18:29Z</time>
      </trkpt>
      <trkpt lat="45.8496" lon="6.43888">
        <ele>2109.7</ele>
        <time>2024-04-27T11:18:30Z</time>
      </trkpt>
      <trkpt lat="45.8496" lon="6.43888">
        <ele>2109.7</ele>
        <time>2024-04-27T11:18:31Z</time>
      </trkpt>
      <trkpt lat="45.8496" lon="6.43888">
        <ele>2109.7</ele>
        <time>2024-04-27T11:18:32Z</time>
      </trkpt>
      <trkpt lat="45.8496" lon="6.43888">
        <ele>2109.7</ele>
        <time>2024-04-27T11:18:33Z</time>
      </trkpt>
      <trkpt lat="45.8496" lon="6.43888">
        <ele>2109.7</ele>
        <time>2024-04-27T11:18:34Z</time>
      </trkpt>
      <trkpt lat="45.8496" lon="6.43888">
        <ele>2109.7</ele>
        <time>2024-04-27T11:18:35Z</time>
      </trkpt>
      <trkpt lat="45.8496" lon="6.43888">
        <ele>2109.7</ele>
        <time>2024-04-27T11:18:36Z</time>
      </trkpt>
      <trkpt lat="45.8496" lon="6.43888">
        <ele>2109.7</ele>
        <time>2024-04-27T11:18:37Z</time>
      </trkpt>
      <trkpt lat="45.8496" lon="6.43888">
        <ele>2109.7</ele>
        <time>2024-04-27T11:18:38Z</time>
      </trkpt>
      <trkpt lat="45.8496" lon="6.43888">
        <ele>2109.7</ele>
        <time>2024-04-27T11:18:39Z</time>
      </trkpt>
      <trkpt lat="45.8496" lon="6.43888">
        <ele>2109.7</ele>
        <time>2024-04-27T11:18:40Z</time>
      </trkpt>
      <trkpt lat="45.8496" lon="6.43888">
        <ele>2109.7</ele>
        <time>2024-04-27T11:18:41Z</time>
      </trkpt>
      <trkpt lat="45.84961" lon="6.43888">
        <ele>2109.7</ele>
        <time>2024-04-27T11:18:42Z</time>
      </trkpt>
      <trkpt lat="45.84961" lon="6.43888">
        <ele>2109.7</ele>
        <time>2024-04-27T11:18:43Z</time>
      </trkpt>
      <trkpt lat="45.84962" lon="6.43887">
        <ele>2109.7</ele>
        <time>2024-04-27T11:18:44Z</time>
      </trkpt>
      <trkpt lat="45.84963" lon="6.43886">
        <ele>2109.7</ele>
        <time>2024-04-27T11:18:45Z</time>
      </trkpt>
      <trkpt lat="45.84963" lon="6.43887">
        <ele>2109.7</ele>
        <time>2024-04-27T11:18:46Z</time>
      </trkpt>
      <trkpt lat="45.84965" lon="6.43887">
        <ele>2109.7</ele>
        <time>2024-04-27T11:18:47Z</time>
      </trkpt>
      <trkpt lat="45.84965" lon="6.43887">
        <ele>2109.7</ele>
        <time>2024-04-27T11:18:48Z</time>
      </trkpt>
      <trkpt lat="45.84965" lon="6.43887">
        <ele>2109.7</ele>
        <time>2024-04-27T11:18:49Z</time>
      </trkpt>
      <trkpt lat="45.84965" lon="6.43887">
        <ele>2109.7</ele>
        <time>2024-04-27T11:18:50Z</time>
      </trkpt>
      <trkpt lat="45.84965" lon="6.43887">
        <ele>2109.7</ele>
        <time>2024-04-27T11:18:51Z</time>
      </trkpt>
      <trkpt lat="45.84965" lon="6.43887">
        <ele>2109.7</ele>
        <time>2024-04-27T11:18:52Z</time>
      </trkpt>
      <trkpt lat="45.84965" lon="6.43887">
        <ele>2108.6</ele>
        <time>2024-04-27T11:18:53Z</time>
      </trkpt>
      <trkpt lat="45.84965" lon="6.43887">
        <ele>2108.6</ele>
        <time>2024-04-27T11:18:54Z</time>
      </trkpt>
      <trkpt lat="45.84965" lon="6.43887">
        <ele>2108.6</ele>
        <time>2024-04-27T11:18:55Z</time>
      </trkpt>
      <trkpt lat="45.84965" lon="6.43887">
        <ele>2108.6</ele>
        <time>2024-04-27T11:18:56Z</time>
      </trkpt>
      <trkpt lat="45.84965" lon="6.43887">
        <ele>2108.6</ele>
        <time>2024-04-27T11:18:57Z</time>
      </trkpt>
      <trkpt lat="45.84965" lon="6.43887">
        <ele>2108.6</ele>
        <time>2024-04-27T11:18:58Z</time>
      </trkpt>
      <trkpt lat="45.84965" lon="6.43887">
        <ele>2108.6</ele>
        <time>2024-04-27T11:18:59Z</time>
      </trkpt>
      <trkpt lat="45.84965" lon="6.43887">
        <ele>2108.6</ele>
        <time>2024-04-27T11:19:00Z</time>
      </trkpt>
      <trkpt lat="45.84965" lon="6.43886">
        <ele>2107.7</ele>
        <time>2024-04-27T11:19:01Z</time>
      </trkpt>
      <trkpt lat="45.84965" lon="6.43886">
        <ele>2107.7</ele>
        <time>2024-04-27T11:19:02Z</time>
      </trkpt>
      <trkpt lat="45.84965" lon="6.43886">
        <ele>2107.7</ele>
        <time>2024-04-27T11:19:03Z</time>
      </trkpt>
      <trkpt lat="45.84965" lon="6.43886">
        <ele>2107.7</ele>
        <time>2024-04-27T11:19:04Z</time>
      </trkpt>
      <trkpt lat="45.84965" lon="6.43886">
        <ele>2108.6</ele>
        <time>2024-04-27T11:19:05Z</time>
      </trkpt>
      <trkpt lat="45.84965" lon="6.43886">
        <ele>2108.6</ele>
        <time>2024-04-27T11:19:06Z</time>
      </trkpt>
      <trkpt lat="45.84965" lon="6.43886">
        <ele>2109.7</ele>
        <time>2024-04-27T11:19:07Z</time>
      </trkpt>
      <trkpt lat="45.84965" lon="6.43886">
        <ele>2109.7</ele>
        <time>2024-04-27T11:19:08Z</time>
      </trkpt>
      <trkpt lat="45.84965" lon="6.43886">
        <ele>2109.7</ele>
        <time>2024-04-27T11:19:09Z</time>
      </trkpt>
      <trkpt lat="45.84965" lon="6.43886">
        <ele>2109.7</ele>
        <time>2024-04-27T11:19:10Z</time>
      </trkpt>
      <trkpt lat="45.84965" lon="6.43886">
        <ele>2109.7</ele>
        <time>2024-04-27T11:19:11Z</time>
      </trkpt>
      <trkpt lat="45.84965" lon="6.43886">
        <ele>2109.7</ele>
        <time>2024-04-27T11:19:12Z</time>
      </trkpt>
      <trkpt lat="45.84965" lon="6.43886">
        <ele>2109.7</ele>
        <time>2024-04-27T11:19:13Z</time>
      </trkpt>
      <trkpt lat="45.84965" lon="6.43886">
        <ele>2109.7</ele>
        <time>2024-04-27T11:19:14Z</time>
      </trkpt>
      <trkpt lat="45.84964" lon="6.43886">
        <ele>2109.7</ele>
        <time>2024-04-27T11:19:15Z</time>
      </trkpt>
      <trkpt lat="45.84964" lon="6.43886">
        <ele>2109.7</ele>
        <time>2024-04-27T11:19:16Z</time>
      </trkpt>
      <trkpt lat="45.84964" lon="6.43886">
        <ele>2109.7</ele>
        <time>2024-04-27T11:19:17Z</time>
      </trkpt>
      <trkpt lat="45.84964" lon="6.43886">
        <ele>2109.7</ele>
        <time>2024-04-27T11:19:18Z</time>
      </trkpt>
      <trkpt lat="45.84964" lon="6.43886">
        <ele>2108.6</ele>
        <time>2024-04-27T11:19:19Z</time>
      </trkpt>
      <trkpt lat="45.84964" lon="6.43885">
        <ele>2108.6</ele>
        <time>2024-04-27T11:19:20Z</time>
      </trkpt>
      <trkpt lat="45.84964" lon="6.43885">
        <ele>2108.6</ele>
        <time>2024-04-27T11:19:21Z</time>
      </trkpt>
      <trkpt lat="45.84964" lon="6.43885">
        <ele>2108.6</ele>
        <time>2024-04-27T11:19:22Z</time>
      </trkpt>
      <trkpt lat="45.84964" lon="6.43885">
        <ele>2107.7</ele>
        <time>2024-04-27T11:19:23Z</time>
      </trkpt>
      <trkpt lat="45.84964" lon="6.43886">
        <ele>2107.7</ele>
        <time>2024-04-27T11:19:24Z</time>
      </trkpt>
      <trkpt lat="45.84965" lon="6.43885">
        <ele>2106.7</ele>
        <time>2024-04-27T11:19:25Z</time>
      </trkpt>
      <trkpt lat="45.84964" lon="6.43885">
        <ele>2106.7</ele>
        <time>2024-04-27T11:19:26Z</time>
      </trkpt>
      <trkpt lat="45.84962" lon="6.43883">
        <ele>2105.6</ele>
        <time>2024-04-27T11:19:27Z</time>
      </trkpt>
      <trkpt lat="45.8496" lon="6.43878">
        <ele>2105.6</ele>
        <time>2024-04-27T11:19:28Z</time>
      </trkpt>
      <trkpt lat="45.8496" lon="6.43875">
        <ele>2104.7</ele>
        <time>2024-04-27T11:19:29Z</time>
      </trkpt>
      <trkpt lat="45.84961" lon="6.43872">
        <ele>2104.7</ele>
        <time>2024-04-27T11:19:30Z</time>
      </trkpt>
      <trkpt lat="45.84963" lon="6.43872">
        <ele>2104.7</ele>
        <time>2024-04-27T11:19:31Z</time>
      </trkpt>
      <trkpt lat="45.84965" lon="6.43873">
        <ele>2104.7</ele>
        <time>2024-04-27T11:19:32Z</time>
      </trkpt>
      <trkpt lat="45.84966" lon="6.43873">
        <ele>2104.7</ele>
        <time>2024-04-27T11:19:33Z</time>
      </trkpt>
      <trkpt lat="45.84967" lon="6.43872">
        <ele>2104.7</ele>
        <time>2024-04-27T11:19:34Z</time>
      </trkpt>
      <trkpt lat="45.84968" lon="6.43871">
        <ele>2098.6</ele>
        <time>2024-04-27T11:19:35Z</time>
      </trkpt>
      <trkpt lat="45.84968" lon="6.4387">
        <ele>2098.6</ele>
        <time>2024-04-27T11:19:36Z</time>
      </trkpt>
      <trkpt lat="45.84968" lon="6.43869">
        <ele>2098.6</ele>
        <time>2024-04-27T11:19:37Z</time>
      </trkpt>
      <trkpt lat="45.84969" lon="6.43868">
        <ele>2098.6</ele>
        <time>2024-04-27T11:19:38Z</time>
      </trkpt>
      <trkpt lat="45.84969" lon="6.43868">
        <ele>2098.6</ele>
        <time>2024-04-27T11:19:39Z</time>
      </trkpt>
      <trkpt lat="45.84969" lon="6.43868">
        <ele>2098.6</ele>
        <time>2024-04-27T11:19:40Z</time>
      </trkpt>
      <trkpt lat="45.84969" lon="6.43868">
        <ele>2095.7</ele>
        <time>2024-04-27T11:19:41Z</time>
      </trkpt>
      <trkpt lat="45.84969" lon="6.43868">
        <ele>2095.7</ele>
        <time>2024-04-27T11:19:42Z</time>
      </trkpt>
      <trkpt lat="45.8497" lon="6.43867">
        <ele>2095.7</ele>
        <time>2024-04-27T11:19:43Z</time>
      </trkpt>
      <trkpt lat="45.8497" lon="6.43867">
        <ele>2095.7</ele>
        <time>2024-04-27T11:19:44Z</time>
      </trkpt>
      <trkpt lat="45.8497" lon="6.43866">
        <ele>2095.7</ele>
        <time>2024-04-27T11:19:45Z</time>
      </trkpt>
      <trkpt lat="45.8497" lon="6.43865">
        <ele>2095.7</ele>
        <time>2024-04-27T11:19:46Z</time>
      </trkpt>
      <trkpt lat="45.84969" lon="6.43864">
        <ele>2094.6</ele>
        <time>2024-04-27T11:19:47Z</time>
      </trkpt>
      <trkpt lat="45.84968" lon="6.43863">
        <ele>2094.6</ele>
        <time>2024-04-27T11:19:48Z</time>
      </trkpt>
      <trkpt lat="45.84968" lon="6.43862">
        <ele>2092.6</ele>
        <time>2024-04-27T11:19:49Z</time>
      </trkpt>
      <trkpt lat="45.84967" lon="6.43862">
        <ele>2092.6</ele>
        <time>2024-04-27T11:19:50Z</time>
      </trkpt>
      <trkpt lat="45.84967" lon="6.43861">
        <ele>2092.6</ele>
        <time>2024-04-27T11:19:51Z</time>
      </trkpt>
      <trkpt lat="45.84967" lon="6.43861">
        <ele>2092.6</ele>
        <time>2024-04-27T11:19:52Z</time>
      </trkpt>
      <trkpt lat="45.84967" lon="6.4386">
        <ele>2091.7</ele>
        <time>2024-04-27T11:19:53Z</time>
      </trkpt>
      <trkpt lat="45.84967" lon="6.4386">
        <ele>2091.7</ele>
        <time>2024-04-27T11:19:54Z</time>
      </trkpt>
      <trkpt lat="45.84967" lon="6.4386">
        <ele>2090.6</ele>
        <time>2024-04-27T11:19:55Z</time>
      </trkpt>
      <trkpt lat="45.84967" lon="6.43859">
        <ele>2090.6</ele>
        <time>2024-04-27T11:19:56Z</time>
      </trkpt>
      <trkpt lat="45.84967" lon="6.43859">
        <ele>2090.6</ele>
        <time>2024-04-27T11:19:57Z</time>
      </trkpt>
      <trkpt lat="45.84968" lon="6.43858">
        <ele>2090.6</ele>
        <time>2024-04-27T11:19:58Z</time>
      </trkpt>
      <trkpt lat="45.84968" lon="6.43858">
        <ele>2088.7</ele>
        <time>2024-04-27T11:19:59Z</time>
      </trkpt>
      <trkpt lat="45.84968" lon="6.43858">
        <ele>2088.7</ele>
        <time>2024-04-27T11:20:00Z</time>
      </trkpt>
      <trkpt lat="45.84968" lon="6.43858">
        <ele>2088.7</ele>
        <time>2024-04-27T11:20:01Z</time>
      </trkpt>
      <trkpt lat="45.84967" lon="6.43856">
        <ele>2088.7</ele>
        <time>2024-04-27T11:20:02Z</time>
      </trkpt>
      <trkpt lat="45.84967" lon="6.43855">
        <ele>2086.7</ele>
        <time>2024-04-27T11:20:03Z</time>
      </trkpt>
      <trkpt lat="45.84967" lon="6.43855">
        <ele>2086.7</ele>
        <time>2024-04-27T11:20:04Z</time>
      </trkpt>
      <trkpt lat="45.84966" lon="6.43854">
        <ele>2085.6</ele>
        <time>2024-04-27T11:20:05Z</time>
      </trkpt>
      <trkpt lat="45.84966" lon="6.43854">
        <ele>2085.6</ele>
        <time>2024-04-27T11:20:06Z</time>
      </trkpt>
      <trkpt lat="45.84966" lon="6.43853">
        <ele>2085.6</ele>
        <time>2024-04-27T11:20:07Z</time>
      </trkpt>
      <trkpt lat="45.84966" lon="6.43853">
        <ele>2085.6</ele>
        <time>2024-04-27T11:20:08Z</time>
      </trkpt>
      <trkpt lat="45.84966" lon="6.43853">
        <ele>2085.6</ele>
        <time>2024-04-27T11:20:09Z</time>
      </trkpt>
      <trkpt lat="45.84966" lon="6.43853">
        <ele>2085.6</ele>
        <time>2024-04-27T11:20:10Z</time>
      </trkpt>
      <trkpt lat="45.84967" lon="6.43854">
        <ele>2085.6</ele>
        <time>2024-04-27T11:20:11Z</time>
      </trkpt>
      <trkpt lat="45.84967" lon="6.43853">
        <ele>2085.6</ele>
        <time>2024-04-27T11:20:12Z</time>
      </trkpt>
      <trkpt lat="45.84967" lon="6.43853">
        <ele>2085.6</ele>
        <time>2024-04-27T11:20:13Z</time>
      </trkpt>
      <trkpt lat="45.84966" lon="6.43852">
        <ele>2085.6</ele>
        <time>2024-04-27T11:20:14Z</time>
      </trkpt>
      <trkpt lat="45.84966" lon="6.4385">
        <ele>2085.6</ele>
        <time>2024-04-27T11:20:15Z</time>
      </trkpt>
      <trkpt lat="45.84966" lon="6.43848">
        <ele>2085.6</ele>
        <time>2024-04-27T11:20:16Z</time>
      </trkpt>
      <trkpt lat="45.84967" lon="6.43846">
        <ele>2083.6</ele>
        <time>2024-04-27T11:20:17Z</time>
      </trkpt>
      <trkpt lat="45.84969" lon="6.43845">
        <ele>2083.6</ele>
        <time>2024-04-27T11:20:18Z</time>
      </trkpt>
      <trkpt lat="45.8497" lon="6.43844">
        <ele>2080.6</ele>
        <time>2024-04-27T11:20:19Z</time>
      </trkpt>
      <trkpt lat="45.84971" lon="6.43844">
        <ele>2080.6</ele>
        <time>2024-04-27T11:20:20Z</time>
      </trkpt>
      <trkpt lat="45.84972" lon="6.43842">
        <ele>2078.6</ele>
        <time>2024-04-27T11:20:21Z</time>
      </trkpt>
      <trkpt lat="45.84971" lon="6.4384">
        <ele>2078.6</ele>
        <time>2024-04-27T11:20:22Z</time>
      </trkpt>
      <trkpt lat="45.8497" lon="6.43837">
        <ele>2076.6</ele>
        <time>2024-04-27T11:20:23Z</time>
      </trkpt>
      <trkpt lat="45.84971" lon="6.43835">
        <ele>2076.6</ele>
        <time>2024-04-27T11:20:24Z</time>
      </trkpt>
      <trkpt lat="45.84972" lon="6.43834">
        <ele>2073.6</ele>
        <time>2024-04-27T11:20:25Z</time>
      </trkpt>
      <trkpt lat="45.84974" lon="6.43833">
        <ele>2073.6</ele>
        <time>2024-04-27T11:20:26Z</time>
      </trkpt>
      <trkpt lat="45.84976" lon="6.43833">
        <ele>2071.6</ele>
        <time>2024-04-27T11:20:27Z</time>
      </trkpt>
      <trkpt lat="45.84977" lon="6.43833">
        <ele>2071.6</ele>
        <time>2024-04-27T11:20:28Z</time>
      </trkpt>
      <trkpt lat="45.84977" lon="6.43831">
        <ele>2069.6</ele>
        <time>2024-04-27T11:20:29Z</time>
      </trkpt>
      <trkpt lat="45.84976" lon="6.4383">
        <ele>2069.6</ele>
        <time>2024-04-27T11:20:30Z</time>
      </trkpt>
      <trkpt lat="45.84976" lon="6.43829">
        <ele>2068.7</ele>
        <time>2024-04-27T11:20:31Z</time>
      </trkpt>
      <trkpt lat="45.84975" lon="6.43827">
        <ele>2068.7</ele>
        <time>2024-04-27T11:20:32Z</time>
      </trkpt>
      <trkpt lat="45.84976" lon="6.43826">
        <ele>2068.7</ele>
        <time>2024-04-27T11:20:33Z</time>
      </trkpt>
      <trkpt lat="45.84978" lon="6.43826">
        <ele>2068.7</ele>
        <time>2024-04-27T11:20:34Z</time>
      </trkpt>
      <trkpt lat="45.84982" lon="6.43826">
        <ele>2068.7</ele>
        <time>2024-04-27T11:20:35Z</time>
      </trkpt>
      <trkpt lat="45.84985" lon="6.43826">
        <ele>2068.7</ele>
        <time>2024-04-27T11:20:36Z</time>
      </trkpt>
      <trkpt lat="45.84989" lon="6.43827">
        <ele>2061.7</ele>
        <time>2024-04-27T11:20:37Z</time>
      </trkpt>
      <trkpt lat="45.84992" lon="6.43827">
        <ele>2061.7</ele>
        <time>2024-04-27T11:20:38Z</time>
      </trkpt>
      <trkpt lat="45.84995" lon="6.43827">
        <ele>2061.7</ele>
        <time>2024-04-27T11:20:39Z</time>
      </trkpt>
      <trkpt lat="45.84997" lon="6.43827">
        <ele>2061.7</ele>
        <time>2024-04-27T11:20:40Z</time>
      </trkpt>
      <trkpt lat="45.84998" lon="6.43826">
        <ele>2061.7</ele>
        <time>2024-04-27T11:20:41Z</time>
      </trkpt>
      <trkpt lat="45.84998" lon="6.43826">
        <ele>2061.7</ele>
        <time>2024-04-27T11:20:42Z</time>
      </trkpt>
      <trkpt lat="45.84999" lon="6.43826">
        <ele>2057.6</ele>
        <time>2024-04-27T11:20:43Z</time>
      </trkpt>
      <trkpt lat="45.84999" lon="6.43826">
        <ele>2057.6</ele>
        <time>2024-04-27T11:20:44Z</time>
      </trkpt>
      <trkpt lat="45.84999" lon="6.43826">
        <ele>2057.6</ele>
        <time>2024-04-27T11:20:45Z</time>
      </trkpt>
      <trkpt lat="45.84999" lon="6.43825">
        <ele>2057.6</ele>
        <time>2024-04-27T11:20:46Z</time>
      </trkpt>
      <trkpt lat="45.85" lon="6.43824">
        <ele>2057.6</ele>
        <time>2024-04-27T11:20:47Z</time>
      </trkpt>
      <trkpt lat="45.85" lon="6.43824">
        <ele>2057.6</ele>
        <time>2024-04-27T11:20:48Z</time>
      </trkpt>
      <trkpt lat="45.85" lon="6.43824">
        <ele>2056.7</ele>
        <time>2024-04-27T11:20:49Z</time>
      </trkpt>
      <trkpt lat="45.85001" lon="6.43825">
        <ele>2056.7</ele>
        <time>2024-04-27T11:20:50Z</time>
      </trkpt>
      <trkpt lat="45.85002" lon="6.43825">
        <ele>2056.7</ele>
        <time>2024-04-27T11:20:51Z</time>
      </trkpt>
      <trkpt lat="45.85003" lon="6.43826">
        <ele>2056.7</ele>
        <time>2024-04-27T11:20:52Z</time>
      </trkpt>
      <trkpt lat="45.85003" lon="6.43825">
        <ele>2055.6</ele>
        <time>2024-04-27T11:20:53Z</time>
      </trkpt>
      <trkpt lat="45.85003" lon="6.43824">
        <ele>2055.6</ele>
        <time>2024-04-27T11:20:54Z</time>
      </trkpt>
      <trkpt lat="45.85004" lon="6.43823">
        <ele>2054.7</ele>
        <time>2024-04-27T11:20:55Z</time>
      </trkpt>
      <trkpt lat="45.85004" lon="6.43822">
        <ele>2054.7</ele>
        <time>2024-04-27T11:20:56Z</time>
      </trkpt>
      <trkpt lat="45.85005" lon="6.43822">
        <ele>2052.7</ele>
        <time>2024-04-27T11:20:57Z</time>
      </trkpt>
      <trkpt lat="45.85005" lon="6.43822">
        <ele>2052.7</ele>
        <time>2024-04-27T11:20:58Z</time>
      </trkpt>
      <trkpt lat="45.85005" lon="6.43823">
        <ele>2051.6</ele>
        <time>2024-04-27T11:20:59Z</time>
      </trkpt>
      <trkpt lat="45.85005" lon="6.43824">
        <ele>2051.6</ele>
        <time>2024-04-27T11:21:00Z</time>
      </trkpt>
      <trkpt lat="45.85006" lon="6.43824">
        <ele>2051.6</ele>
        <time>2024-04-27T11:21:01Z</time>
      </trkpt>
      <trkpt lat="45.85006" lon="6.43824">
        <ele>2051.6</ele>
        <time>2024-04-27T11:21:02Z</time>
      </trkpt>
      <trkpt lat="45.85007" lon="6.43824">
        <ele>2050.7</ele>
        <time>2024-04-27T11:21:03Z</time>
      </trkpt>
      <trkpt lat="45.85007" lon="6.43823">
        <ele>2050.7</ele>
        <time>2024-04-27T11:21:04Z</time>
      </trkpt>
      <trkpt lat="45.85008" lon="6.43822">
        <ele>2050.7</ele>
        <time>2024-04-27T11:21:05Z</time>
      </trkpt>
      <trkpt lat="45.85007" lon="6.43821">
        <ele>2050.7</ele>
        <time>2024-04-27T11:21:06Z</time>
      </trkpt>
      <trkpt lat="45.85007" lon="6.4382">
        <ele>2049.7</ele>
        <time>2024-04-27T11:21:07Z</time>
      </trkpt>
      <trkpt lat="45.85007" lon="6.4382">
        <ele>2049.7</ele>
        <time>2024-04-27T11:21:08Z</time>
      </trkpt>
      <trkpt lat="45.85007" lon="6.4382">
        <ele>2049.7</ele>
        <time>2024-04-27T11:21:09Z</time>
      </trkpt>
      <trkpt lat="45.85007" lon="6.4382">
        <ele>2049.7</ele>
        <time>2024-04-27T11:21:10Z</time>
      </trkpt>
      <trkpt lat="45.85007" lon="6.4382">
        <ele>2049.7</ele>
        <time>2024-04-27T11:21:11Z</time>
      </trkpt>
      <trkpt lat="45.85007" lon="6.4382">
        <ele>2049.7</ele>
        <time>2024-04-27T11:21:12Z</time>
      </trkpt>
      <trkpt lat="45.85007" lon="6.4382">
        <ele>2049.7</ele>
        <time>2024-04-27T11:21:13Z</time>
      </trkpt>
      <trkpt lat="45.85007" lon="6.4382">
        <ele>2049.7</ele>
        <time>2024-04-27T11:21:14Z</time>
      </trkpt>
      <trkpt lat="45.85007" lon="6.4382">
        <ele>2049.7</ele>
        <time>2024-04-27T11:21:15Z</time>
      </trkpt>
      <trkpt lat="45.85007" lon="6.4382">
        <ele>2049.7</ele>
        <time>2024-04-27T11:21:16Z</time>
      </trkpt>
      <trkpt lat="45.85007" lon="6.4382">
        <ele>2049.7</ele>
        <time>2024-04-27T11:21:17Z</time>
      </trkpt>
      <trkpt lat="45.85007" lon="6.4382">
        <ele>2049.7</ele>
        <time>2024-04-27T11:21:18Z</time>
      </trkpt>
      <trkpt lat="45.85007" lon="6.4382">
        <ele>2049.7</ele>
        <time>2024-04-27T11:21:19Z</time>
      </trkpt>
      <trkpt lat="45.85007" lon="6.4382">
        <ele>2049.7</ele>
        <time>2024-04-27T11:21:20Z</time>
      </trkpt>
      <trkpt lat="45.85006" lon="6.4382">
        <ele>2049.7</ele>
        <time>2024-04-27T11:21:21Z</time>
      </trkpt>
      <trkpt lat="45.85006" lon="6.4382">
        <ele>2049.7</ele>
        <time>2024-04-27T11:21:22Z</time>
      </trkpt>
      <trkpt lat="45.85006" lon="6.4382">
        <ele>2049.7</ele>
        <time>2024-04-27T11:21:23Z</time>
      </trkpt>
      <trkpt lat="45.85006" lon="6.43819">
        <ele>2049.7</ele>
        <time>2024-04-27T11:21:24Z</time>
      </trkpt>
      <trkpt lat="45.85006" lon="6.43818">
        <ele>2049.7</ele>
        <time>2024-04-27T11:21:25Z</time>
      </trkpt>
      <trkpt lat="45.85005" lon="6.43818">
        <ele>2049.7</ele>
        <time>2024-04-27T11:21:26Z</time>
      </trkpt>
      <trkpt lat="45.85005" lon="6.43818">
        <ele>2049.7</ele>
        <time>2024-04-27T11:21:27Z</time>
      </trkpt>
      <trkpt lat="45.85005" lon="6.43818">
        <ele>2049.7</ele>
        <time>2024-04-27T11:21:28Z</time>
      </trkpt>
      <trkpt lat="45.85005" lon="6.43817">
        <ele>2049.7</ele>
        <time>2024-04-27T11:21:29Z</time>
      </trkpt>
      <trkpt lat="45.85005" lon="6.43817">
        <ele>2049.7</ele>
        <time>2024-04-27T11:21:30Z</time>
      </trkpt>
      <trkpt lat="45.85005" lon="6.43817">
        <ele>2049.7</ele>
        <time>2024-04-27T11:21:31Z</time>
      </trkpt>
      <trkpt lat="45.85004" lon="6.43817">
        <ele>2049.7</ele>
        <time>2024-04-27T11:21:32Z</time>
      </trkpt>
      <trkpt lat="45.85004" lon="6.43817">
        <ele>2049.7</ele>
        <time>2024-04-27T11:21:33Z</time>
      </trkpt>
      <trkpt lat="45.85004" lon="6.43817">
        <ele>2049.7</ele>
        <time>2024-04-27T11:21:34Z</time>
      </trkpt>
      <trkpt lat="45.85004" lon="6.43817">
        <ele>2049.7</ele>
        <time>2024-04-27T11:21:35Z</time>
      </trkpt>
      <trkpt lat="45.85004" lon="6.43817">
        <ele>2049.7</ele>
        <time>2024-04-27T11:21:36Z</time>
      </trkpt>
      <trkpt lat="45.85004" lon="6.43817">
        <ele>2049.7</ele>
        <time>2024-04-27T11:21:37Z</time>
      </trkpt>
      <trkpt lat="45.85004" lon="6.43817">
        <ele>2049.7</ele>
        <time>2024-04-27T11:21:38Z</time>
      </trkpt>
      <trkpt lat="45.85004" lon="6.43817">
        <ele>2049.7</ele>
        <time>2024-04-27T11:21:39Z</time>
      </trkpt>
      <trkpt lat="45.85004" lon="6.43817">
        <ele>2049.7</ele>
        <time>2024-04-27T11:21:40Z</time>
      </trkpt>
      <trkpt lat="45.85004" lon="6.43817">
        <ele>2050.7</ele>
        <time>2024-04-27T11:21:41Z</time>
      </trkpt>
      <trkpt lat="45.85004" lon="6.43817">
        <ele>2050.7</ele>
        <time>2024-04-27T11:21:42Z</time>
      </trkpt>
      <trkpt lat="45.85004" lon="6.43816">
        <ele>2050.7</ele>
        <time>2024-04-27T11:21:43Z</time>
      </trkpt>
      <trkpt lat="45.85004" lon="6.43816">
        <ele>2050.7</ele>
        <time>2024-04-27T11:21:44Z</time>
      </trkpt>
      <trkpt lat="45.85004" lon="6.43816">
        <ele>2050.7</ele>
        <time>2024-04-27T11:21:45Z</time>
      </trkpt>
      <trkpt lat="45.85004" lon="6.43816">
        <ele>2050.7</ele>
        <time>2024-04-27T11:21:46Z</time>
      </trkpt>
      <trkpt lat="45.85004" lon="6.43816">
        <ele>2050.7</ele>
        <time>2024-04-27T11:21:47Z</time>
      </trkpt>
      <trkpt lat="45.85004" lon="6.43816">
        <ele>2050.7</ele>
        <time>2024-04-27T11:21:48Z</time>
      </trkpt>
      <trkpt lat="45.85004" lon="6.43816">
        <ele>2050.7</ele>
        <time>2024-04-27T11:21:49Z</time>
      </trkpt>
      <trkpt lat="45.85005" lon="6.43816">
        <ele>2050.7</ele>
        <time>2024-04-27T11:21:50Z</time>
      </trkpt>
      <trkpt lat="45.85005" lon="6.43816">
        <ele>2050.7</ele>
        <time>2024-04-27T11:21:51Z</time>
      </trkpt>
      <trkpt lat="45.85005" lon="6.43816">
        <ele>2050.7</ele>
        <time>2024-04-27T11:21:52Z</time>
      </trkpt>
      <trkpt lat="45.85005" lon="6.43816">
        <ele>2050.7</ele>
        <time>2024-04-27T11:21:53Z</time>
      </trkpt>
      <trkpt lat="45.85005" lon="6.43816">
        <ele>2050.7</ele>
        <time>2024-04-27T11:21:54Z</time>
      </trkpt>
      <trkpt lat="45.85005" lon="6.43816">
        <ele>2050.7</ele>
        <time>2024-04-27T11:21:55Z</time>
      </trkpt>
      <trkpt lat="45.85005" lon="6.43816">
        <ele>2050.7</ele>
        <time>2024-04-27T11:21:56Z</time>
      </trkpt>
      <trkpt lat="45.85005" lon="6.43816">
        <ele>2050.7</ele>
        <time>2024-04-27T11:21:57Z</time>
      </trkpt>
      <trkpt lat="45.85005" lon="6.43816">
        <ele>2050.7</ele>
        <time>2024-04-27T11:21:58Z</time>
      </trkpt>
      <trkpt lat="45.85005" lon="6.43816">
        <ele>2050.7</ele>
        <time>2024-04-27T11:21:59Z</time>
      </trkpt>
      <trkpt lat="45.85005" lon="6.43816">
        <ele>2050.7</ele>
        <time>2024-04-27T11:22:00Z</time>
      </trkpt>
      <trkpt lat="45.85005" lon="6.43816">
        <ele>2050.7</ele>
        <time>2024-04-27T11:22:01Z</time>
      </trkpt>
      <trkpt lat="45.85005" lon="6.43816">
        <ele>2050.7</ele>
        <time>2024-04-27T11:22:02Z</time>
      </trkpt>
      <trkpt lat="45.85006" lon="6.43816">
        <ele>2051.6</ele>
        <time>2024-04-27T11:22:03Z</time>
      </trkpt>
      <trkpt lat="45.85006" lon="6.43816">
        <ele>2051.6</ele>
        <time>2024-04-27T11:22:04Z</time>
      </trkpt>
      <trkpt lat="45.85006" lon="6.43816">
        <ele>2051.6</ele>
        <time>2024-04-27T11:22:05Z</time>
      </trkpt>
      <trkpt lat="45.85006" lon="6.43816">
        <ele>2051.6</ele>
        <time>2024-04-27T11:22:06Z</time>
      </trkpt>
      <trkpt lat="45.85006" lon="6.43816">
        <ele>2051.6</ele>
        <time>2024-04-27T11:22:07Z</time>
      </trkpt>
      <trkpt lat="45.85006" lon="6.43816">
        <ele>2051.6</ele>
        <time>2024-04-27T11:22:08Z</time>
      </trkpt>
      <trkpt lat="45.85006" lon="6.43816">
        <ele>2051.6</ele>
        <time>2024-04-27T11:22:09Z</time>
      </trkpt>
      <trkpt lat="45.85006" lon="6.43816">
        <ele>2051.6</ele>
        <time>2024-04-27T11:22:10Z</time>
      </trkpt>
      <trkpt lat="45.85006" lon="6.43816">
        <ele>2051.6</ele>
        <time>2024-04-27T11:22:11Z</time>
      </trkpt>
      <trkpt lat="45.85006" lon="6.43816">
        <ele>2051.6</ele>
        <time>2024-04-27T11:22:12Z</time>
      </trkpt>
      <trkpt lat="45.85006" lon="6.43816">
        <ele>2051.6</ele>
        <time>2024-04-27T11:22:13Z</time>
      </trkpt>
      <trkpt lat="45.85006" lon="6.43815">
        <ele>2051.6</ele>
        <time>2024-04-27T11:22:14Z</time>
      </trkpt>
      <trkpt lat="45.85006" lon="6.43815">
        <ele>2050.7</ele>
        <time>2024-04-27T11:22:15Z</time>
      </trkpt>
      <trkpt lat="45.85006" lon="6.43815">
        <ele>2050.7</ele>
        <time>2024-04-27T11:22:16Z</time>
      </trkpt>
      <trkpt lat="45.85006" lon="6.43815">
        <ele>2050.7</ele>
        <time>2024-04-27T11:22:17Z</time>
      </trkpt>
      <trkpt lat="45.85006" lon="6.43815">
        <ele>2050.7</ele>
        <time>2024-04-27T11:22:18Z</time>
      </trkpt>
      <trkpt lat="45.85006" lon="6.43815">
        <ele>2050.7</ele>
        <time>2024-04-27T11:22:19Z</time>
      </trkpt>
      <trkpt lat="45.85005" lon="6.43815">
        <ele>2050.7</ele>
        <time>2024-04-27T11:22:20Z</time>
      </trkpt>
      <trkpt lat="45.85005" lon="6.43815">
        <ele>2050.7</ele>
        <time>2024-04-27T11:22:21Z</time>
      </trkpt>
      <trkpt lat="45.85005" lon="6.43815">
        <ele>2050.7</ele>
        <time>2024-04-27T11:22:22Z</time>
      </trkpt>
      <trkpt lat="45.85005" lon="6.43815">
        <ele>2050.7</ele>
        <time>2024-04-27T11:22:23Z</time>
      </trkpt>
      <trkpt lat="45.85005" lon="6.43815">
        <ele>2050.7</ele>
        <time>2024-04-27T11:22:24Z</time>
      </trkpt>
      <trkpt lat="45.85005" lon="6.43815">
        <ele>2050.7</ele>
        <time>2024-04-27T11:22:25Z</time>
      </trkpt>
      <trkpt lat="45.85005" lon="6.43815">
        <ele>2050.7</ele>
        <time>2024-04-27T11:22:26Z</time>
      </trkpt>
      <trkpt lat="45.85005" lon="6.43815">
        <ele>2049.7</ele>
        <time>2024-04-27T11:22:27Z</time>
      </trkpt>
      <trkpt lat="45.85005" lon="6.43815">
        <ele>2049.7</ele>
        <time>2024-04-27T11:22:28Z</time>
      </trkpt>
      <trkpt lat="45.85005" lon="6.43815">
        <ele>2049.7</ele>
        <time>2024-04-27T11:22:29Z</time>
      </trkpt>
      <trkpt lat="45.85005" lon="6.43815">
        <ele>2049.7</ele>
        <time>2024-04-27T11:22:30Z</time>
      </trkpt>
      <trkpt lat="45.85005" lon="6.43815">
        <ele>2049.7</ele>
        <time>2024-04-27T11:22:31Z</time>
      </trkpt>
      <trkpt lat="45.85005" lon="6.43815">
        <ele>2049.7</ele>
        <time>2024-04-27T11:22:32Z</time>
      </trkpt>
      <trkpt lat="45.85005" lon="6.43815">
        <ele>2049.7</ele>
        <time>2024-04-27T11:22:33Z</time>
      </trkpt>
      <trkpt lat="45.85005" lon="6.43815">
        <ele>2049.7</ele>
        <time>2024-04-27T11:22:34Z</time>
      </trkpt>
      <trkpt lat="45.85005" lon="6.43815">
        <ele>2049.7</ele>
        <time>2024-04-27T11:22:35Z</time>
      </trkpt>
      <trkpt lat="45.85006" lon="6.43815">
        <ele>2049.7</ele>
        <time>2024-04-27T11:22:36Z</time>
      </trkpt>
      <trkpt lat="45.85006" lon="6.43815">
        <ele>2049.7</ele>
        <time>2024-04-27T11:22:37Z</time>
      </trkpt>
      <trkpt lat="45.85006" lon="6.43815">
        <ele>2049.7</ele>
        <time>2024-04-27T11:22:38Z</time>
      </trkpt>
      <trkpt lat="45.85006" lon="6.43815">
        <ele>2048.6</ele>
        <time>2024-04-27T11:22:39Z</time>
      </trkpt>
      <trkpt lat="45.85006" lon="6.43815">
        <ele>2048.6</ele>
        <time>2024-04-27T11:22:40Z</time>
      </trkpt>
      <trkpt lat="45.85006" lon="6.43815">
        <ele>2048.6</ele>
        <time>2024-04-27T11:22:41Z</time>
      </trkpt>
      <trkpt lat="45.85006" lon="6.43815">
        <ele>2048.6</ele>
        <time>2024-04-27T11:22:42Z</time>
      </trkpt>
      <trkpt lat="45.85006" lon="6.43816">
        <ele>2048.6</ele>
        <time>2024-04-27T11:22:43Z</time>
      </trkpt>
      <trkpt lat="45.85006" lon="6.43816">
        <ele>2048.6</ele>
        <time>2024-04-27T11:22:44Z</time>
      </trkpt>
      <trkpt lat="45.85006" lon="6.43816">
        <ele>2048.6</ele>
        <time>2024-04-27T11:22:45Z</time>
      </trkpt>
      <trkpt lat="45.85006" lon="6.43816">
        <ele>2048.6</ele>
        <time>2024-04-27T11:22:46Z</time>
      </trkpt>
      <trkpt lat="45.85006" lon="6.43816">
        <ele>2048.6</ele>
        <time>2024-04-27T11:22:47Z</time>
      </trkpt>
      <trkpt lat="45.85006" lon="6.43816">
        <ele>2048.6</ele>
        <time>2024-04-27T11:22:48Z</time>
      </trkpt>
      <trkpt lat="45.85006" lon="6.43816">
        <ele>2048.6</ele>
        <time>2024-04-27T11:22:49Z</time>
      </trkpt>
      <trkpt lat="45.85006" lon="6.43816">
        <ele>2048.6</ele>
        <time>2024-04-27T11:22:50Z</time>
      </trkpt>
      <trkpt lat="45.85006" lon="6.43816">
        <ele>2048.6</ele>
        <time>2024-04-27T11:22:51Z</time>
      </trkpt>
      <trkpt lat="45.85006" lon="6.43816">
        <ele>2049.7</ele>
        <time>2024-04-27T11:22:52Z</time>
      </trkpt>
      <trkpt lat="45.85006" lon="6.43816">
        <ele>2049.7</ele>
        <time>2024-04-27T11:22:53Z</time>
      </trkpt>
      <trkpt lat="45.85006" lon="6.43816">
        <ele>2049.7</ele>
        <time>2024-04-27T11:22:54Z</time>
      </trkpt>
      <trkpt lat="45.85006" lon="6.43816">
        <ele>2049.7</ele>
        <time>2024-04-27T11:22:55Z</time>
      </trkpt>
      <trkpt lat="45.85006" lon="6.43816">
        <ele>2049.7</ele>
        <time>2024-04-27T11:22:56Z</time>
      </trkpt>
      <trkpt lat="45.85006" lon="6.43816">
        <ele>2049.7</ele>
        <time>2024-04-27T11:22:57Z</time>
      </trkpt>
      <trkpt lat="45.85006" lon="6.43816">
        <ele>2048.6</ele>
        <time>2024-04-27T11:22:58Z</time>
      </trkpt>
      <trkpt lat="45.85006" lon="6.43816">
        <ele>2048.6</ele>
        <time>2024-04-27T11:22:59Z</time>
      </trkpt>
      <trkpt lat="45.85006" lon="6.43816">
        <ele>2048.6</ele>
        <time>2024-04-27T11:23:00Z</time>
      </trkpt>
      <trkpt lat="45.85006" lon="6.43816">
        <ele>2048.6</ele>
        <time>2024-04-27T11:23:01Z</time>
      </trkpt>
      <trkpt lat="45.85006" lon="6.43816">
        <ele>2048.6</ele>
        <time>2024-04-27T11:23:02Z</time>
      </trkpt>
      <trkpt lat="45.85006" lon="6.43816">
        <ele>2048.6</ele>
        <time>2024-04-27T11:23:03Z</time>
      </trkpt>
      <trkpt lat="45.85006" lon="6.43816">
        <ele>2048.6</ele>
        <time>2024-04-27T11:23:04Z</time>
      </trkpt>
      <trkpt lat="45.85006" lon="6.43816">
        <ele>2048.6</ele>
        <time>2024-04-27T11:23:05Z</time>
      </trkpt>
      <trkpt lat="45.85006" lon="6.43816">
        <ele>2048.6</ele>
        <time>2024-04-27T11:23:06Z</time>
      </trkpt>
      <trkpt lat="45.85006" lon="6.43816">
        <ele>2048.6</ele>
        <time>2024-04-27T11:23:07Z</time>
      </trkpt>
      <trkpt lat="45.85006" lon="6.43816">
        <ele>2048.6</ele>
        <time>2024-04-27T11:23:08Z</time>
      </trkpt>
      <trkpt lat="45.85006" lon="6.43816">
        <ele>2048.6</ele>
        <time>2024-04-27T11:23:09Z</time>
      </trkpt>
      <trkpt lat="45.85006" lon="6.43816">
        <ele>2048.6</ele>
        <time>2024-04-27T11:23:10Z</time>
      </trkpt>
      <trkpt lat="45.85006" lon="6.43816">
        <ele>2048.6</ele>
        <time>2024-04-27T11:23:11Z</time>
      </trkpt>
      <trkpt lat="45.85006" lon="6.43816">
        <ele>2048.6</ele>
        <time>2024-04-27T11:23:12Z</time>
      </trkpt>
      <trkpt lat="45.85006" lon="6.43816">
        <ele>2048.6</ele>
        <time>2024-04-27T11:23:13Z</time>
      </trkpt>
      <trkpt lat="45.85006" lon="6.43816">
        <ele>2049.7</ele>
        <time>2024-04-27T11:23:14Z</time>
      </trkpt>
      <trkpt lat="45.85006" lon="6.43816">
        <ele>2049.7</ele>
        <time>2024-04-27T11:23:15Z</time>
      </trkpt>
      <trkpt lat="45.85006" lon="6.43816">
        <ele>2049.7</ele>
        <time>2024-04-27T11:23:16Z</time>
      </trkpt>
      <trkpt lat="45.85006" lon="6.43816">
        <ele>2049.7</ele>
        <time>2024-04-27T11:23:17Z</time>
      </trkpt>
      <trkpt lat="45.85006" lon="6.43816">
        <ele>2049.7</ele>
        <time>2024-04-27T11:23:18Z</time>
      </trkpt>
      <trkpt lat="45.85006" lon="6.43816">
        <ele>2049.7</ele>
        <time>2024-04-27T11:23:19Z</time>
      </trkpt>
      <trkpt lat="45.85006" lon="6.43816">
        <ele>2049.7</ele>
        <time>2024-04-27T11:23:20Z</time>
      </trkpt>
      <trkpt lat="45.85006" lon="6.43816">
        <ele>2049.7</ele>
        <time>2024-04-27T11:23:21Z</time>
      </trkpt>
      <trkpt lat="45.85006" lon="6.43816">
        <ele>2049.7</ele>
        <time>2024-04-27T11:23:22Z</time>
      </trkpt>
      <trkpt lat="45.85006" lon="6.43816">
        <ele>2049.7</ele>
        <time>2024-04-27T11:23:23Z</time>
      </trkpt>
      <trkpt lat="45.85006" lon="6.43816">
        <ele>2049.7</ele>
        <time>2024-04-27T11:23:24Z</time>
      </trkpt>
      <trkpt lat="45.85006" lon="6.43816">
        <ele>2049.7</ele>
        <time>2024-04-27T11:23:25Z</time>
      </trkpt>
      <trkpt lat="45.85006" lon="6.43816">
        <ele>2050.7</ele>
        <time>2024-04-27T11:23:26Z</time>
      </trkpt>
      <trkpt lat="45.85006" lon="6.43816">
        <ele>2050.7</ele>
        <time>2024-04-27T11:23:27Z</time>
      </trkpt>
      <trkpt lat="45.85006" lon="6.43816">
        <ele>2050.7</ele>
        <time>2024-04-27T11:23:28Z</time>
      </trkpt>
      <trkpt lat="45.85006" lon="6.43816">
        <ele>2050.7</ele>
        <time>2024-04-27T11:23:29Z</time>
      </trkpt>
      <trkpt lat="45.85006" lon="6.43816">
        <ele>2050.7</ele>
        <time>2024-04-27T11:23:30Z</time>
      </trkpt>
      <trkpt lat="45.85006" lon="6.43816">
        <ele>2050.7</ele>
        <time>2024-04-27T11:23:31Z</time>
      </trkpt>
      <trkpt lat="45.85006" lon="6.43816">
        <ele>2050.7</ele>
        <time>2024-04-27T11:23:32Z</time>
      </trkpt>
      <trkpt lat="45.85006" lon="6.43816">
        <ele>2050.7</ele>
        <time>2024-04-27T11:23:33Z</time>
      </trkpt>
      <trkpt lat="45.85006" lon="6.43816">
        <ele>2050.7</ele>
        <time>2024-04-27T11:23:34Z</time>
      </trkpt>
      <trkpt lat="45.85006" lon="6.43816">
        <ele>2050.7</ele>
        <time>2024-04-27T11:23:35Z</time>
      </trkpt>
      <trkpt lat="45.85006" lon="6.43816">
        <ele>2050.7</ele>
        <time>2024-04-27T11:23:36Z</time>
      </trkpt>
      <trkpt lat="45.85006" lon="6.43816">
        <ele>2050.7</ele>
        <time>2024-04-27T11:23:37Z</time>
      </trkpt>
      <trkpt lat="45.85006" lon="6.43816">
        <ele>2050.7</ele>
        <time>2024-04-27T11:23:38Z</time>
      </trkpt>
      <trkpt lat="45.85006" lon="6.43816">
        <ele>2050.7</ele>
        <time>2024-04-27T11:23:39Z</time>
      </trkpt>
      <trkpt lat="45.85006" lon="6.43816">
        <ele>2050.7</ele>
        <time>2024-04-27T11:23:40Z</time>
      </trkpt>
      <trkpt lat="45.85006" lon="6.43816">
        <ele>2050.7</ele>
        <time>2024-04-27T11:23:41Z</time>
      </trkpt>
      <trkpt lat="45.85006" lon="6.43816">
        <ele>2050.7</ele>
        <time>2024-04-27T11:23:42Z</time>
      </trkpt>
      <trkpt lat="45.85006" lon="6.43816">
        <ele>2050.7</ele>
        <time>2024-04-27T11:23:43Z</time>
      </trkpt>
      <trkpt lat="45.85006" lon="6.43816">
        <ele>2050.7</ele>
        <time>2024-04-27T11:23:44Z</time>
      </trkpt>
      <trkpt lat="45.85007" lon="6.43817">
        <ele>2050.7</ele>
        <time>2024-04-27T11:23:45Z</time>
      </trkpt>
      <trkpt lat="45.85007" lon="6.43817">
        <ele>2049.7</ele>
        <time>2024-04-27T11:23:46Z</time>
      </trkpt>
      <trkpt lat="45.85008" lon="6.43817">
        <ele>2049.7</ele>
        <time>2024-04-27T11:23:47Z</time>
      </trkpt>
      <trkpt lat="45.85008" lon="6.43817">
        <ele>2049.7</ele>
        <time>2024-04-27T11:23:48Z</time>
      </trkpt>
      <trkpt lat="45.85009" lon="6.43817">
        <ele>2049.7</ele>
        <time>2024-04-27T11:23:49Z</time>
      </trkpt>
      <trkpt lat="45.85009" lon="6.43817">
        <ele>2049.7</ele>
        <time>2024-04-27T11:23:50Z</time>
      </trkpt>
      <trkpt lat="45.85009" lon="6.43816">
        <ele>2049.7</ele>
        <time>2024-04-27T11:23:51Z</time>
      </trkpt>
      <trkpt lat="45.8501" lon="6.43817">
        <ele>2049.7</ele>
        <time>2024-04-27T11:23:52Z</time>
      </trkpt>
      <trkpt lat="45.8501" lon="6.43817">
        <ele>2049.7</ele>
        <time>2024-04-27T11:23:53Z</time>
      </trkpt>
      <trkpt lat="45.8501" lon="6.43816">
        <ele>2046.6</ele>
        <time>2024-04-27T11:23:54Z</time>
      </trkpt>
      <trkpt lat="45.8501" lon="6.43816">
        <ele>2046.6</ele>
        <time>2024-04-27T11:23:55Z</time>
      </trkpt>
      <trkpt lat="45.8501" lon="6.43815">
        <ele>2045.7</ele>
        <time>2024-04-27T11:23:56Z</time>
      </trkpt>
      <trkpt lat="45.8501" lon="6.43815">
        <ele>2045.7</ele>
        <time>2024-04-27T11:23:57Z</time>
      </trkpt>
      <trkpt lat="45.85011" lon="6.43815">
        <ele>2045.7</ele>
        <time>2024-04-27T11:23:58Z</time>
      </trkpt>
      <trkpt lat="45.85011" lon="6.43815">
        <ele>2045.7</ele>
        <time>2024-04-27T11:23:59Z</time>
      </trkpt>
      <trkpt lat="45.85011" lon="6.43815">
        <ele>2045.7</ele>
        <time>2024-04-27T11:24:00Z</time>
      </trkpt>
      <trkpt lat="45.85011" lon="6.43815">
        <ele>2045.7</ele>
        <time>2024-04-27T11:24:01Z</time>
      </trkpt>
      <trkpt lat="45.8501" lon="6.43814">
        <ele>2045.7</ele>
        <time>2024-04-27T11:24:02Z</time>
      </trkpt>
      <trkpt lat="45.8501" lon="6.43814">
        <ele>2045.7</ele>
        <time>2024-04-27T11:24:03Z</time>
      </trkpt>
      <trkpt lat="45.85011" lon="6.43814">
        <ele>2044.6</ele>
        <time>2024-04-27T11:24:04Z</time>
      </trkpt>
      <trkpt lat="45.85011" lon="6.43814">
        <ele>2044.6</ele>
        <time>2024-04-27T11:24:05Z</time>
      </trkpt>
      <trkpt lat="45.85011" lon="6.43814">
        <ele>2044.6</ele>
        <time>2024-04-27T11:24:06Z</time>
      </trkpt>
      <trkpt lat="45.85011" lon="6.43814">
        <ele>2044.6</ele>
        <time>2024-04-27T11:24:07Z</time>
      </trkpt>
      <trkpt lat="45.85011" lon="6.43815">
        <ele>2044.6</ele>
        <time>2024-04-27T11:24:08Z</time>
      </trkpt>
      <trkpt lat="45.85011" lon="6.43815">
        <ele>2044.6</ele>
        <time>2024-04-27T11:24:09Z</time>
      </trkpt>
      <trkpt lat="45.85011" lon="6.43814">
        <ele>2044.6</ele>
        <time>2024-04-27T11:24:10Z</time>
      </trkpt>
      <trkpt lat="45.85011" lon="6.43814">
        <ele>2044.6</ele>
        <time>2024-04-27T11:24:11Z</time>
      </trkpt>
      <trkpt lat="45.85012" lon="6.43813">
        <ele>2044.6</ele>
        <time>2024-04-27T11:24:12Z</time>
      </trkpt>
      <trkpt lat="45.85012" lon="6.43813">
        <ele>2044.6</ele>
        <time>2024-04-27T11:24:13Z</time>
      </trkpt>
      <trkpt lat="45.85012" lon="6.43813">
        <ele>2043.7</ele>
        <time>2024-04-27T11:24:14Z</time>
      </trkpt>
      <trkpt lat="45.85012" lon="6.43813">
        <ele>2043.7</ele>
        <time>2024-04-27T11:24:15Z</time>
      </trkpt>
      <trkpt lat="45.85013" lon="6.43813">
        <ele>2043.7</ele>
        <time>2024-04-27T11:24:16Z</time>
      </trkpt>
      <trkpt lat="45.85013" lon="6.43812">
        <ele>2043.7</ele>
        <time>2024-04-27T11:24:17Z</time>
      </trkpt>
      <trkpt lat="45.85014" lon="6.4381">
        <ele>2043.7</ele>
        <time>2024-04-27T11:24:18Z</time>
      </trkpt>
      <trkpt lat="45.85015" lon="6.43809">
        <ele>2043.7</ele>
        <time>2024-04-27T11:24:19Z</time>
      </trkpt>
      <trkpt lat="45.85016" lon="6.43809">
        <ele>2043.7</ele>
        <time>2024-04-27T11:24:20Z</time>
      </trkpt>
      <trkpt lat="45.85017" lon="6.43808">
        <ele>2043.7</ele>
        <time>2024-04-27T11:24:21Z</time>
      </trkpt>
      <trkpt lat="45.85018" lon="6.43807">
        <ele>2043.7</ele>
        <time>2024-04-27T11:24:22Z</time>
      </trkpt>
      <trkpt lat="45.8502" lon="6.43807">
        <ele>2043.7</ele>
        <time>2024-04-27T11:24:23Z</time>
      </trkpt>
      <trkpt lat="45.85021" lon="6.43806">
        <ele>2043.7</ele>
        <time>2024-04-27T11:24:24Z</time>
      </trkpt>
      <trkpt lat="45.85022" lon="6.43804">
        <ele>2043.7</ele>
        <time>2024-04-27T11:24:25Z</time>
      </trkpt>
      <trkpt lat="45.85023" lon="6.43803">
        <ele>2037.6</ele>
        <time>2024-04-27T11:24:26Z</time>
      </trkpt>
      <trkpt lat="45.85024" lon="6.43802">
        <ele>2037.6</ele>
        <time>2024-04-27T11:24:27Z</time>
      </trkpt>
      <trkpt lat="45.85026" lon="6.438">
        <ele>2036.7</ele>
        <time>2024-04-27T11:24:28Z</time>
      </trkpt>
      <trkpt lat="45.85027" lon="6.438">
        <ele>2036.7</ele>
        <time>2024-04-27T11:24:29Z</time>
      </trkpt>
      <trkpt lat="45.85028" lon="6.438">
        <ele>2035.6</ele>
        <time>2024-04-27T11:24:30Z</time>
      </trkpt>
      <trkpt lat="45.85028" lon="6.43798">
        <ele>2035.6</ele>
        <time>2024-04-27T11:24:31Z</time>
      </trkpt>
      <trkpt lat="45.85028" lon="6.43799">
        <ele>2035.6</ele>
        <time>2024-04-27T11:24:32Z</time>
      </trkpt>
      <trkpt lat="45.85029" lon="6.438">
        <ele>2035.6</ele>
        <time>2024-04-27T11:24:33Z</time>
      </trkpt>
      <trkpt lat="45.8503" lon="6.43801">
        <ele>2033.7</ele>
        <time>2024-04-27T11:24:34Z</time>
      </trkpt>
      <trkpt lat="45.8503" lon="6.438">
        <ele>2033.7</ele>
        <time>2024-04-27T11:24:35Z</time>
      </trkpt>
      <trkpt lat="45.85031" lon="6.438">
        <ele>2033.7</ele>
        <time>2024-04-27T11:24:36Z</time>
      </trkpt>
      <trkpt lat="45.85031" lon="6.438">
        <ele>2033.7</ele>
        <time>2024-04-27T11:24:37Z</time>
      </trkpt>
      <trkpt lat="45.85032" lon="6.438">
        <ele>2032.6</ele>
        <time>2024-04-27T11:24:38Z</time>
      </trkpt>
      <trkpt lat="45.85032" lon="6.438">
        <ele>2032.6</ele>
        <time>2024-04-27T11:24:39Z</time>
      </trkpt>
      <trkpt lat="45.85033" lon="6.43798">
        <ele>2031.7</ele>
        <time>2024-04-27T11:24:40Z</time>
      </trkpt>
      <trkpt lat="45.85034" lon="6.43797">
        <ele>2031.7</ele>
        <time>2024-04-27T11:24:41Z</time>
      </trkpt>
      <trkpt lat="45.85034" lon="6.43795">
        <ele>2031.7</ele>
        <time>2024-04-27T11:24:42Z</time>
      </trkpt>
      <trkpt lat="45.85036" lon="6.43792">
        <ele>2031.7</ele>
        <time>2024-04-27T11:24:43Z</time>
      </trkpt>
      <trkpt lat="45.85038" lon="6.4379">
        <ele>2028.6</ele>
        <time>2024-04-27T11:24:44Z</time>
      </trkpt>
      <trkpt lat="45.85039" lon="6.43789">
        <ele>2028.6</ele>
        <time>2024-04-27T11:24:45Z</time>
      </trkpt>
      <trkpt lat="45.85041" lon="6.4379">
        <ele>2026.6</ele>
        <time>2024-04-27T11:24:46Z</time>
      </trkpt>
      <trkpt lat="45.85043" lon="6.4379">
        <ele>2026.6</ele>
        <time>2024-04-27T11:24:47Z</time>
      </trkpt>
      <trkpt lat="45.85044" lon="6.4379">
        <ele>2023.6</ele>
        <time>2024-04-27T11:24:48Z</time>
      </trkpt>
      <trkpt lat="45.85045" lon="6.43789">
        <ele>2023.6</ele>
        <time>2024-04-27T11:24:49Z</time>
      </trkpt>
      <trkpt lat="45.85047" lon="6.43787">
        <ele>2021.6</ele>
        <time>2024-04-27T11:24:50Z</time>
      </trkpt>
      <trkpt lat="45.85047" lon="6.43785">
        <ele>2021.6</ele>
        <time>2024-04-27T11:24:51Z</time>
      </trkpt>
      <trkpt lat="45.85048" lon="6.43783">
        <ele>2021.6</ele>
        <time>2024-04-27T11:24:52Z</time>
      </trkpt>
      <trkpt lat="45.8505" lon="6.43783">
        <ele>2021.6</ele>
        <time>2024-04-27T11:24:53Z</time>
      </trkpt>
      <trkpt lat="45.85051" lon="6.43784">
        <ele>2021.6</ele>
        <time>2024-04-27T11:24:54Z</time>
      </trkpt>
      <trkpt lat="45.85054" lon="6.43784">
        <ele>2021.6</ele>
        <time>2024-04-27T11:24:55Z</time>
      </trkpt>
      <trkpt lat="45.85055" lon="6.43783">
        <ele>2015.7</ele>
        <time>2024-04-27T11:24:56Z</time>
      </trkpt>
      <trkpt lat="45.85057" lon="6.43784">
        <ele>2015.7</ele>
        <time>2024-04-27T11:24:57Z</time>
      </trkpt>
      <trkpt lat="45.85057" lon="6.43784">
        <ele>2013.7</ele>
        <time>2024-04-27T11:24:58Z</time>
      </trkpt>
      <trkpt lat="45.85057" lon="6.43783">
        <ele>2013.7</ele>
        <time>2024-04-27T11:24:59Z</time>
      </trkpt>
      <trkpt lat="45.85057" lon="6.43783">
        <ele>2012.6</ele>
        <time>2024-04-27T11:25:00Z</time>
      </trkpt>
      <trkpt lat="45.85057" lon="6.43782">
        <ele>2012.6</ele>
        <time>2024-04-27T11:25:01Z</time>
      </trkpt>
      <trkpt lat="45.85057" lon="6.4378">
        <ele>2011.7</ele>
        <time>2024-04-27T11:25:02Z</time>
      </trkpt>
      <trkpt lat="45.85058" lon="6.43778">
        <ele>2011.7</ele>
        <time>2024-04-27T11:25:03Z</time>
      </trkpt>
      <trkpt lat="45.85058" lon="6.43777">
        <ele>2009.7</ele>
        <time>2024-04-27T11:25:04Z</time>
      </trkpt>
      <trkpt lat="45.85059" lon="6.43777">
        <ele>2009.7</ele>
        <time>2024-04-27T11:25:05Z</time>
      </trkpt>
      <trkpt lat="45.85058" lon="6.43777">
        <ele>2008.7</ele>
        <time>2024-04-27T11:25:06Z</time>
      </trkpt>
      <trkpt lat="45.85058" lon="6.43778">
        <ele>2008.7</ele>
        <time>2024-04-27T11:25:07Z</time>
      </trkpt>
      <trkpt lat="45.85058" lon="6.43779">
        <ele>2008.7</ele>
        <time>2024-04-27T11:25:08Z</time>
      </trkpt>
      <trkpt lat="45.85058" lon="6.4378">
        <ele>2008.7</ele>
        <time>2024-04-27T11:25:09Z</time>
      </trkpt>
      <trkpt lat="45.85058" lon="6.4378">
        <ele>2008.7</ele>
        <time>2024-04-27T11:25:10Z</time>
      </trkpt>
      <trkpt lat="45.85058" lon="6.4378">
        <ele>2008.7</ele>
        <time>2024-04-27T11:25:11Z</time>
      </trkpt>
      <trkpt lat="45.85059" lon="6.43781">
        <ele>2008.7</ele>
        <time>2024-04-27T11:25:12Z</time>
      </trkpt>
      <trkpt lat="45.8506" lon="6.4378">
        <ele>2008.7</ele>
        <time>2024-04-27T11:25:13Z</time>
      </trkpt>
      <trkpt lat="45.8506" lon="6.4378">
        <ele>2007.6</ele>
        <time>2024-04-27T11:25:14Z</time>
      </trkpt>
      <trkpt lat="45.85061" lon="6.43779">
        <ele>2007.6</ele>
        <time>2024-04-27T11:25:15Z</time>
      </trkpt>
      <trkpt lat="45.85062" lon="6.43779">
        <ele>2005.6</ele>
        <time>2024-04-27T11:25:16Z</time>
      </trkpt>
      <trkpt lat="45.85063" lon="6.43779">
        <ele>2005.6</ele>
        <time>2024-04-27T11:25:17Z</time>
      </trkpt>
      <trkpt lat="45.85063" lon="6.43778">
        <ele>2004.7</ele>
        <time>2024-04-27T11:25:18Z</time>
      </trkpt>
      <trkpt lat="45.85063" lon="6.43777">
        <ele>2004.7</ele>
        <time>2024-04-27T11:25:19Z</time>
      </trkpt>
      <trkpt lat="45.85064" lon="6.43777">
        <ele>2002.7</ele>
        <time>2024-04-27T11:25:20Z</time>
      </trkpt>
      <trkpt lat="45.85065" lon="6.43777">
        <ele>2002.7</ele>
        <time>2024-04-27T11:25:21Z</time>
      </trkpt>
      <trkpt lat="45.85066" lon="6.43776">
        <ele>2001.6</ele>
        <time>2024-04-27T11:25:22Z</time>
      </trkpt>
      <trkpt lat="45.85066" lon="6.43777">
        <ele>2001.6</ele>
        <time>2024-04-27T11:25:23Z</time>
      </trkpt>
      <trkpt lat="45.85067" lon="6.43776">
        <ele>2000.6</ele>
        <time>2024-04-27T11:25:24Z</time>
      </trkpt>
      <trkpt lat="45.85067" lon="6.43777">
        <ele>2000.6</ele>
        <time>2024-04-27T11:25:25Z</time>
      </trkpt>
      <trkpt lat="45.85067" lon="6.43777">
        <ele>1999.7</ele>
        <time>2024-04-27T11:25:26Z</time>
      </trkpt>
      <trkpt lat="45.85066" lon="6.43777">
        <ele>1999.7</ele>
        <time>2024-04-27T11:25:27Z</time>
      </trkpt>
      <trkpt lat="45.85065" lon="6.43777">
        <ele>1999.7</ele>
        <time>2024-04-27T11:25:28Z</time>
      </trkpt>
      <trkpt lat="45.85065" lon="6.43777">
        <ele>1999.7</ele>
        <time>2024-04-27T11:25:29Z</time>
      </trkpt>
      <trkpt lat="45.85065" lon="6.43777">
        <ele>1998.6</ele>
        <time>2024-04-27T11:25:30Z</time>
      </trkpt>
      <trkpt lat="45.85064" lon="6.43776">
        <ele>1998.6</ele>
        <time>2024-04-27T11:25:31Z</time>
      </trkpt>
      <trkpt lat="45.85064" lon="6.43774">
        <ele>1998.6</ele>
        <time>2024-04-27T11:25:32Z</time>
      </trkpt>
      <trkpt lat="45.85064" lon="6.43773">
        <ele>1998.6</ele>
        <time>2024-04-27T11:25:33Z</time>
      </trkpt>
      <trkpt lat="45.85064" lon="6.43772">
        <ele>1998.6</ele>
        <time>2024-04-27T11:25:34Z</time>
      </trkpt>
      <trkpt lat="45.85064" lon="6.43773">
        <ele>1998.6</ele>
        <time>2024-04-27T11:25:35Z</time>
      </trkpt>
      <trkpt lat="45.85063" lon="6.43773">
        <ele>1998.6</ele>
        <time>2024-04-27T11:25:36Z</time>
      </trkpt>
      <trkpt lat="45.85063" lon="6.43772">
        <ele>1998.6</ele>
        <time>2024-04-27T11:25:37Z</time>
      </trkpt>
      <trkpt lat="45.85063" lon="6.43769">
        <ele>1998.6</ele>
        <time>2024-04-27T11:25:38Z</time>
      </trkpt>
      <trkpt lat="45.85062" lon="6.43767">
        <ele>1998.6</ele>
        <time>2024-04-27T11:25:39Z</time>
      </trkpt>
      <trkpt lat="45.85061" lon="6.43766">
        <ele>1998.6</ele>
        <time>2024-04-27T11:25:40Z</time>
      </trkpt>
      <trkpt lat="45.8506" lon="6.43765">
        <ele>1998.6</ele>
        <time>2024-04-27T11:25:41Z</time>
      </trkpt>
      <trkpt lat="45.85059" lon="6.43765">
        <ele>1998.6</ele>
        <time>2024-04-27T11:25:42Z</time>
      </trkpt>
      <trkpt lat="45.85059" lon="6.43766">
        <ele>1998.6</ele>
        <time>2024-04-27T11:25:43Z</time>
      </trkpt>
      <trkpt lat="45.85059" lon="6.43766">
        <ele>1998.6</ele>
        <time>2024-04-27T11:25:44Z</time>
      </trkpt>
      <trkpt lat="45.85059" lon="6.43766">
        <ele>1998.6</ele>
        <time>2024-04-27T11:25:45Z</time>
      </trkpt>
      <trkpt lat="45.85058" lon="6.43766">
        <ele>1998.6</ele>
        <time>2024-04-27T11:25:46Z</time>
      </trkpt>
      <trkpt lat="45.85059" lon="6.43766">
        <ele>1998.6</ele>
        <time>2024-04-27T11:25:47Z</time>
      </trkpt>
      <trkpt lat="45.8506" lon="6.43766">
        <ele>1998.6</ele>
        <time>2024-04-27T11:25:48Z</time>
      </trkpt>
      <trkpt lat="45.8506" lon="6.43767">
        <ele>1998.6</ele>
        <time>2024-04-27T11:25:49Z</time>
      </trkpt>
      <trkpt lat="45.8506" lon="6.43767">
        <ele>1998.6</ele>
        <time>2024-04-27T11:25:50Z</time>
      </trkpt>
      <trkpt lat="45.85059" lon="6.43765">
        <ele>1998.6</ele>
        <time>2024-04-27T11:25:51Z</time>
      </trkpt>
      <trkpt lat="45.85059" lon="6.43764">
        <ele>1998.6</ele>
        <time>2024-04-27T11:25:52Z</time>
      </trkpt>
      <trkpt lat="45.85058" lon="6.43763">
        <ele>1998.6</ele>
        <time>2024-04-27T11:25:53Z</time>
      </trkpt>
      <trkpt lat="45.85058" lon="6.43763">
        <ele>1998.6</ele>
        <time>2024-04-27T11:25:54Z</time>
      </trkpt>
      <trkpt lat="45.85057" lon="6.43763">
        <ele>1998.6</ele>
        <time>2024-04-27T11:25:55Z</time>
      </trkpt>
      <trkpt lat="45.85058" lon="6.43762">
        <ele>1999.7</ele>
        <time>2024-04-27T11:25:56Z</time>
      </trkpt>
      <trkpt lat="45.85057" lon="6.43762">
        <ele>1999.7</ele>
        <time>2024-04-27T11:25:57Z</time>
      </trkpt>
      <trkpt lat="45.85057" lon="6.43762">
        <ele>1999.7</ele>
        <time>2024-04-27T11:25:58Z</time>
      </trkpt>
      <trkpt lat="45.85057" lon="6.43762">
        <ele>1999.7</ele>
        <time>2024-04-27T11:25:59Z</time>
      </trkpt>
      <trkpt lat="45.85058" lon="6.43763">
        <ele>2000.6</ele>
        <time>2024-04-27T11:26:00Z</time>
      </trkpt>
      <trkpt lat="45.85058" lon="6.43763">
        <ele>2000.6</ele>
        <time>2024-04-27T11:26:01Z</time>
      </trkpt>
      <trkpt lat="45.85058" lon="6.43763">
        <ele>2000.6</ele>
        <time>2024-04-27T11:26:02Z</time>
      </trkpt>
      <trkpt lat="45.85058" lon="6.43762">
        <ele>2000.6</ele>
        <time>2024-04-27T11:26:03Z</time>
      </trkpt>
      <trkpt lat="45.85058" lon="6.43762">
        <ele>2000.6</ele>
        <time>2024-04-27T11:26:04Z</time>
      </trkpt>
      <trkpt lat="45.85058" lon="6.43762">
        <ele>2000.6</ele>
        <time>2024-04-27T11:26:05Z</time>
      </trkpt>
      <trkpt lat="45.85058" lon="6.43762">
        <ele>2000.6</ele>
        <time>2024-04-27T11:26:06Z</time>
      </trkpt>
      <trkpt lat="45.85058" lon="6.43762">
        <ele>2000.6</ele>
        <time>2024-04-27T11:26:07Z</time>
      </trkpt>
      <trkpt lat="45.85058" lon="6.43762">
        <ele>2000.6</ele>
        <time>2024-04-27T11:26:08Z</time>
      </trkpt>
      <trkpt lat="45.85058" lon="6.43762">
        <ele>2000.6</ele>
        <time>2024-04-27T11:26:09Z</time>
      </trkpt>
      <trkpt lat="45.85058" lon="6.43763">
        <ele>2000.6</ele>
        <time>2024-04-27T11:26:10Z</time>
      </trkpt>
      <trkpt lat="45.85058" lon="6.43764">
        <ele>2000.6</ele>
        <time>2024-04-27T11:26:11Z</time>
      </trkpt>
      <trkpt lat="45.85058" lon="6.43766">
        <ele>2000.6</ele>
        <time>2024-04-27T11:26:12Z</time>
      </trkpt>
      <trkpt lat="45.85058" lon="6.43767">
        <ele>2000.6</ele>
        <time>2024-04-27T11:26:13Z</time>
      </trkpt>
      <trkpt lat="45.85058" lon="6.43767">
        <ele>2000.6</ele>
        <time>2024-04-27T11:26:14Z</time>
      </trkpt>
      <trkpt lat="45.85059" lon="6.43768">
        <ele>2000.6</ele>
        <time>2024-04-27T11:26:15Z</time>
      </trkpt>
      <trkpt lat="45.85059" lon="6.43768">
        <ele>2000.6</ele>
        <time>2024-04-27T11:26:16Z</time>
      </trkpt>
      <trkpt lat="45.85059" lon="6.43769">
        <ele>2000.6</ele>
        <time>2024-04-27T11:26:17Z</time>
      </trkpt>
      <trkpt lat="45.8506" lon="6.43769">
        <ele>2000.6</ele>
        <time>2024-04-27T11:26:18Z</time>
      </trkpt>
      <trkpt lat="45.85059" lon="6.43768">
        <ele>2000.6</ele>
        <time>2024-04-27T11:26:19Z</time>
      </trkpt>
      <trkpt lat="45.85059" lon="6.43769">
        <ele>2000.6</ele>
        <time>2024-04-27T11:26:20Z</time>
      </trkpt>
      <trkpt lat="45.85059" lon="6.43769">
        <ele>2000.6</ele>
        <time>2024-04-27T11:26:21Z</time>
      </trkpt>
      <trkpt lat="45.85059" lon="6.43768">
        <ele>2000.6</ele>
        <time>2024-04-27T11:26:22Z</time>
      </trkpt>
      <trkpt lat="45.8506" lon="6.4377">
        <ele>2000.6</ele>
        <time>2024-04-27T11:26:23Z</time>
      </trkpt>
      <trkpt lat="45.8506" lon="6.43771">
        <ele>1999.7</ele>
        <time>2024-04-27T11:26:24Z</time>
      </trkpt>
      <trkpt lat="45.8506" lon="6.43771">
        <ele>1999.7</ele>
        <time>2024-04-27T11:26:25Z</time>
      </trkpt>
      <trkpt lat="45.8506" lon="6.43771">
        <ele>1999.7</ele>
        <time>2024-04-27T11:26:26Z</time>
      </trkpt>
      <trkpt lat="45.8506" lon="6.43771">
        <ele>1999.7</ele>
        <time>2024-04-27T11:26:27Z</time>
      </trkpt>
      <trkpt lat="45.8506" lon="6.43771">
        <ele>1999.7</ele>
        <time>2024-04-27T11:26:28Z</time>
      </trkpt>
      <trkpt lat="45.8506" lon="6.43771">
        <ele>1999.7</ele>
        <time>2024-04-27T11:26:29Z</time>
      </trkpt>
      <trkpt lat="45.8506" lon="6.43771">
        <ele>1999.7</ele>
        <time>2024-04-27T11:26:30Z</time>
      </trkpt>
      <trkpt lat="45.8506" lon="6.43771">
        <ele>1999.7</ele>
        <time>2024-04-27T11:26:31Z</time>
      </trkpt>
      <trkpt lat="45.8506" lon="6.43771">
        <ele>1999.7</ele>
        <time>2024-04-27T11:26:32Z</time>
      </trkpt>
      <trkpt lat="45.8506" lon="6.43771">
        <ele>1999.7</ele>
        <time>2024-04-27T11:26:33Z</time>
      </trkpt>
      <trkpt lat="45.8506" lon="6.43771">
        <ele>1999.7</ele>
        <time>2024-04-27T11:26:34Z</time>
      </trkpt>
      <trkpt lat="45.8506" lon="6.43771">
        <ele>1999.7</ele>
        <time>2024-04-27T11:26:35Z</time>
      </trkpt>
      <trkpt lat="45.85059" lon="6.43773">
        <ele>2000.6</ele>
        <time>2024-04-27T11:26:36Z</time>
      </trkpt>
      <trkpt lat="45.85059" lon="6.43774">
        <ele>2000.6</ele>
        <time>2024-04-27T11:26:37Z</time>
      </trkpt>
      <trkpt lat="45.85059" lon="6.43776">
        <ele>2000.6</ele>
        <time>2024-04-27T11:26:38Z</time>
      </trkpt>
      <trkpt lat="45.85059" lon="6.43777">
        <ele>2000.6</ele>
        <time>2024-04-27T11:26:39Z</time>
      </trkpt>
      <trkpt lat="45.85059" lon="6.43778">
        <ele>2000.6</ele>
        <time>2024-04-27T11:26:40Z</time>
      </trkpt>
      <trkpt lat="45.85059" lon="6.43779">
        <ele>2000.6</ele>
        <time>2024-04-27T11:26:41Z</time>
      </trkpt>
      <trkpt lat="45.85058" lon="6.4378">
        <ele>2000.6</ele>
        <time>2024-04-27T11:26:42Z</time>
      </trkpt>
      <trkpt lat="45.85058" lon="6.43781">
        <ele>2000.6</ele>
        <time>2024-04-27T11:26:43Z</time>
      </trkpt>
      <trkpt lat="45.85058" lon="6.43782">
        <ele>2001.6</ele>
        <time>2024-04-27T11:26:44Z</time>
      </trkpt>
      <trkpt lat="45.85057" lon="6.43783">
        <ele>2001.6</ele>
        <time>2024-04-27T11:26:45Z</time>
      </trkpt>
      <trkpt lat="45.85057" lon="6.43782">
        <ele>2001.6</ele>
        <time>2024-04-27T11:26:46Z</time>
      </trkpt>
      <trkpt lat="45.85057" lon="6.43782">
        <ele>2001.6</ele>
        <time>2024-04-27T11:26:47Z</time>
      </trkpt>
      <trkpt lat="45.85057" lon="6.43782">
        <ele>2001.6</ele>
        <time>2024-04-27T11:26:48Z</time>
      </trkpt>
      <trkpt lat="45.85057" lon="6.43782">
        <ele>2001.6</ele>
        <time>2024-04-27T11:26:49Z</time>
      </trkpt>
      <trkpt lat="45.85057" lon="6.43782">
        <ele>2001.6</ele>
        <time>2024-04-27T11:26:50Z</time>
      </trkpt>
      <trkpt lat="45.85057" lon="6.43782">
        <ele>2001.6</ele>
        <time>2024-04-27T11:26:51Z</time>
      </trkpt>
      <trkpt lat="45.85057" lon="6.43782">
        <ele>2001.6</ele>
        <time>2024-04-27T11:26:52Z</time>
      </trkpt>
      <trkpt lat="45.85057" lon="6.43782">
        <ele>2001.6</ele>
        <time>2024-04-27T11:26:53Z</time>
      </trkpt>
      <trkpt lat="45.85057" lon="6.43782">
        <ele>2001.6</ele>
        <time>2024-04-27T11:26:54Z</time>
      </trkpt>
      <trkpt lat="45.85057" lon="6.43782">
        <ele>2001.6</ele>
        <time>2024-04-27T11:26:55Z</time>
      </trkpt>
      <trkpt lat="45.85057" lon="6.43782">
        <ele>2001.6</ele>
        <time>2024-04-27T11:26:56Z</time>
      </trkpt>
      <trkpt lat="45.85057" lon="6.43782">
        <ele>2001.6</ele>
        <time>2024-04-27T11:26:57Z</time>
      </trkpt>
      <trkpt lat="45.85057" lon="6.43782">
        <ele>2001.6</ele>
        <time>2024-04-27T11:26:58Z</time>
      </trkpt>
      <trkpt lat="45.85057" lon="6.43782">
        <ele>2001.6</ele>
        <time>2024-04-27T11:26:59Z</time>
      </trkpt>
      <trkpt lat="45.85058" lon="6.43782">
        <ele>2001.6</ele>
        <time>2024-04-27T11:27:00Z</time>
      </trkpt>
      <trkpt lat="45.85058" lon="6.43782">
        <ele>2001.6</ele>
        <time>2024-04-27T11:27:01Z</time>
      </trkpt>
      <trkpt lat="45.85058" lon="6.43782">
        <ele>2001.6</ele>
        <time>2024-04-27T11:27:02Z</time>
      </trkpt>
      <trkpt lat="45.85058" lon="6.43781">
        <ele>2001.6</ele>
        <time>2024-04-27T11:27:03Z</time>
      </trkpt>
      <trkpt lat="45.85058" lon="6.43782">
        <ele>2001.6</ele>
        <time>2024-04-27T11:27:04Z</time>
      </trkpt>
      <trkpt lat="45.85057" lon="6.4378">
        <ele>2001.6</ele>
        <time>2024-04-27T11:27:05Z</time>
      </trkpt>
      <trkpt lat="45.85056" lon="6.43777">
        <ele>2001.6</ele>
        <time>2024-04-27T11:27:06Z</time>
      </trkpt>
      <trkpt lat="45.85058" lon="6.43777">
        <ele>2001.6</ele>
        <time>2024-04-27T11:27:07Z</time>
      </trkpt>
      <trkpt lat="45.85059" lon="6.43775">
        <ele>2001.6</ele>
        <time>2024-04-27T11:27:08Z</time>
      </trkpt>
      <trkpt lat="45.85059" lon="6.43774">
        <ele>2001.6</ele>
        <time>2024-04-27T11:27:09Z</time>
      </trkpt>
      <trkpt lat="45.85059" lon="6.43775">
        <ele>2001.6</ele>
        <time>2024-04-27T11:27:10Z</time>
      </trkpt>
      <trkpt lat="45.8506" lon="6.43776">
        <ele>2001.6</ele>
        <time>2024-04-27T11:27:11Z</time>
      </trkpt>
      <trkpt lat="45.8506" lon="6.43776">
        <ele>2001.6</ele>
        <time>2024-04-27T11:27:12Z</time>
      </trkpt>
      <trkpt lat="45.8506" lon="6.43776">
        <ele>2001.6</ele>
        <time>2024-04-27T11:27:13Z</time>
      </trkpt>
      <trkpt lat="45.8506" lon="6.43775">
        <ele>2001.6</ele>
        <time>2024-04-27T11:27:14Z</time>
      </trkpt>
      <trkpt lat="45.8506" lon="6.43774">
        <ele>2001.6</ele>
        <time>2024-04-27T11:27:15Z</time>
      </trkpt>
      <trkpt lat="45.85061" lon="6.43774">
        <ele>2001.6</ele>
        <time>2024-04-27T11:27:16Z</time>
      </trkpt>
      <trkpt lat="45.85062" lon="6.43774">
        <ele>2001.6</ele>
        <time>2024-04-27T11:27:17Z</time>
      </trkpt>
      <trkpt lat="45.85062" lon="6.43773">
        <ele>2001.6</ele>
        <time>2024-04-27T11:27:18Z</time>
      </trkpt>
      <trkpt lat="45.85062" lon="6.43771">
        <ele>2001.6</ele>
        <time>2024-04-27T11:27:19Z</time>
      </trkpt>
      <trkpt lat="45.85062" lon="6.4377">
        <ele>2001.6</ele>
        <time>2024-04-27T11:27:20Z</time>
      </trkpt>
      <trkpt lat="45.85061" lon="6.43768">
        <ele>2001.6</ele>
        <time>2024-04-27T11:27:21Z</time>
      </trkpt>
      <trkpt lat="45.85061" lon="6.43766">
        <ele>2001.6</ele>
        <time>2024-04-27T11:27:22Z</time>
      </trkpt>
      <trkpt lat="45.85062" lon="6.43764">
        <ele>2001.6</ele>
        <time>2024-04-27T11:27:23Z</time>
      </trkpt>
      <trkpt lat="45.85061" lon="6.43762">
        <ele>2001.6</ele>
        <time>2024-04-27T11:27:24Z</time>
      </trkpt>
      <trkpt lat="45.85062" lon="6.43759">
        <ele>2001.6</ele>
        <time>2024-04-27T11:27:25Z</time>
      </trkpt>
      <trkpt lat="45.85062" lon="6.43756">
        <ele>2001.6</ele>
        <time>2024-04-27T11:27:26Z</time>
      </trkpt>
      <trkpt lat="45.85061" lon="6.43754">
        <ele>2001.6</ele>
        <time>2024-04-27T11:27:27Z</time>
      </trkpt>
      <trkpt lat="45.85061" lon="6.43753">
        <ele>2001.6</ele>
        <time>2024-04-27T11:27:28Z</time>
      </trkpt>
      <trkpt lat="45.85061" lon="6.43752">
        <ele>2001.6</ele>
        <time>2024-04-27T11:27:29Z</time>
      </trkpt>
      <trkpt lat="45.85061" lon="6.43752">
        <ele>2001.6</ele>
        <time>2024-04-27T11:27:30Z</time>
      </trkpt>
      <trkpt lat="45.85061" lon="6.43753">
        <ele>2001.6</ele>
        <time>2024-04-27T11:27:31Z</time>
      </trkpt>
      <trkpt lat="45.85061" lon="6.43755">
        <ele>2001.6</ele>
        <time>2024-04-27T11:27:32Z</time>
      </trkpt>
      <trkpt lat="45.85062" lon="6.43756">
        <ele>2001.6</ele>
        <time>2024-04-27T11:27:33Z</time>
      </trkpt>
      <trkpt lat="45.85062" lon="6.43758">
        <ele>2001.6</ele>
        <time>2024-04-27T11:27:34Z</time>
      </trkpt>
      <trkpt lat="45.85063" lon="6.43759">
        <ele>2001.6</ele>
        <time>2024-04-27T11:27:35Z</time>
      </trkpt>
      <trkpt lat="45.85063" lon="6.43759">
        <ele>2001.6</ele>
        <time>2024-04-27T11:27:36Z</time>
      </trkpt>
      <trkpt lat="45.85062" lon="6.43757">
        <ele>2001.6</ele>
        <time>2024-04-27T11:27:37Z</time>
      </trkpt>
      <trkpt lat="45.85062" lon="6.43756">
        <ele>2001.6</ele>
        <time>2024-04-27T11:27:38Z</time>
      </trkpt>
      <trkpt lat="45.85062" lon="6.43755">
        <ele>2001.6</ele>
        <time>2024-04-27T11:27:39Z</time>
      </trkpt>
      <trkpt lat="45.85062" lon="6.43754">
        <ele>2000.6</ele>
        <time>2024-04-27T11:27:40Z</time>
      </trkpt>
      <trkpt lat="45.85062" lon="6.43755">
        <ele>2000.6</ele>
        <time>2024-04-27T11:27:41Z</time>
      </trkpt>
      <trkpt lat="45.85062" lon="6.43755">
        <ele>2000.6</ele>
        <time>2024-04-27T11:27:42Z</time>
      </trkpt>
      <trkpt lat="45.85063" lon="6.43756">
        <ele>2000.6</ele>
        <time>2024-04-27T11:27:43Z</time>
      </trkpt>
      <trkpt lat="45.85062" lon="6.43758">
        <ele>2000.6</ele>
        <time>2024-04-27T11:27:44Z</time>
      </trkpt>
      <trkpt lat="45.85062" lon="6.43759">
        <ele>2000.6</ele>
        <time>2024-04-27T11:27:45Z</time>
      </trkpt>
      <trkpt lat="45.85062" lon="6.4376">
        <ele>2000.6</ele>
        <time>2024-04-27T11:27:46Z</time>
      </trkpt>
      <trkpt lat="45.85061" lon="6.4376">
        <ele>2000.6</ele>
        <time>2024-04-27T11:27:47Z</time>
      </trkpt>
      <trkpt lat="45.85061" lon="6.4376">
        <ele>2000.6</ele>
        <time>2024-04-27T11:27:48Z</time>
      </trkpt>
      <trkpt lat="45.85061" lon="6.4376">
        <ele>2000.6</ele>
        <time>2024-04-27T11:27:49Z</time>
      </trkpt>
      <trkpt lat="45.85061" lon="6.4376">
        <ele>2000.6</ele>
        <time>2024-04-27T11:27:50Z</time>
      </trkpt>
      <trkpt lat="45.85061" lon="6.4376">
        <ele>2000.6</ele>
        <time>2024-04-27T11:27:51Z</time>
      </trkpt>
      <trkpt lat="45.85062" lon="6.43761">
        <ele>2000.6</ele>
        <time>2024-04-27T11:27:52Z</time>
      </trkpt>
      <trkpt lat="45.85062" lon="6.43761">
        <ele>2000.6</ele>
        <time>2024-04-27T11:27:53Z</time>
      </trkpt>
      <trkpt lat="45.85063" lon="6.4376">
        <ele>2000.6</ele>
        <time>2024-04-27T11:27:54Z</time>
      </trkpt>
      <trkpt lat="45.85062" lon="6.4376">
        <ele>2000.6</ele>
        <time>2024-04-27T11:27:55Z</time>
      </trkpt>
      <trkpt lat="45.85062" lon="6.43759">
        <ele>2000.6</ele>
        <time>2024-04-27T11:27:56Z</time>
      </trkpt>
      <trkpt lat="45.85062" lon="6.43759">
        <ele>2000.6</ele>
        <time>2024-04-27T11:27:57Z</time>
      </trkpt>
      <trkpt lat="45.85062" lon="6.43759">
        <ele>2000.6</ele>
        <time>2024-04-27T11:27:58Z</time>
      </trkpt>
      <trkpt lat="45.85062" lon="6.43759">
        <ele>2000.6</ele>
        <time>2024-04-27T11:27:59Z</time>
      </trkpt>
      <trkpt lat="45.85062" lon="6.43759">
        <ele>2000.6</ele>
        <time>2024-04-27T11:28:00Z</time>
      </trkpt>
      <trkpt lat="45.85062" lon="6.43758">
        <ele>2000.6</ele>
        <time>2024-04-27T11:28:01Z</time>
      </trkpt>
      <trkpt lat="45.85062" lon="6.43758">
        <ele>2000.6</ele>
        <time>2024-04-27T11:28:02Z</time>
      </trkpt>
      <trkpt lat="45.85062" lon="6.43758">
        <ele>2000.6</ele>
        <time>2024-04-27T11:28:03Z</time>
      </trkpt>
      <trkpt lat="45.85063" lon="6.43757">
        <ele>2000.6</ele>
        <time>2024-04-27T11:28:04Z</time>
      </trkpt>
      <trkpt lat="45.85063" lon="6.43757">
        <ele>2000.6</ele>
        <time>2024-04-27T11:28:05Z</time>
      </trkpt>
      <trkpt lat="45.85064" lon="6.43757">
        <ele>2000.6</ele>
        <time>2024-04-27T11:28:06Z</time>
      </trkpt>
      <trkpt lat="45.85064" lon="6.43757">
        <ele>2000.6</ele>
        <time>2024-04-27T11:28:07Z</time>
      </trkpt>
      <trkpt lat="45.85064" lon="6.43757">
        <ele>2000.6</ele>
        <time>2024-04-27T11:28:08Z</time>
      </trkpt>
      <trkpt lat="45.85065" lon="6.43756">
        <ele>2000.6</ele>
        <time>2024-04-27T11:28:09Z</time>
      </trkpt>
      <trkpt lat="45.85065" lon="6.43755">
        <ele>2000.6</ele>
        <time>2024-04-27T11:28:10Z</time>
      </trkpt>
      <trkpt lat="45.85065" lon="6.43755">
        <ele>2000.6</ele>
        <time>2024-04-27T11:28:11Z</time>
      </trkpt>
      <trkpt lat="45.85065" lon="6.43755">
        <ele>2000.6</ele>
        <time>2024-04-27T11:28:12Z</time>
      </trkpt>
      <trkpt lat="45.85064" lon="6.43756">
        <ele>2000.6</ele>
        <time>2024-04-27T11:28:13Z</time>
      </trkpt>
      <trkpt lat="45.85064" lon="6.43756">
        <ele>1999.7</ele>
        <time>2024-04-27T11:28:14Z</time>
      </trkpt>
      <trkpt lat="45.85064" lon="6.43756">
        <ele>1999.7</ele>
        <time>2024-04-27T11:28:15Z</time>
      </trkpt>
      <trkpt lat="45.85064" lon="6.43756">
        <ele>1999.7</ele>
        <time>2024-04-27T11:28:16Z</time>
      </trkpt>
      <trkpt lat="45.85063" lon="6.43757">
        <ele>1999.7</ele>
        <time>2024-04-27T11:28:17Z</time>
      </trkpt>
      <trkpt lat="45.85063" lon="6.43758">
        <ele>1999.7</ele>
        <time>2024-04-27T11:28:18Z</time>
      </trkpt>
      <trkpt lat="45.85062" lon="6.43758">
        <ele>1999.7</ele>
        <time>2024-04-27T11:28:19Z</time>
      </trkpt>
      <trkpt lat="45.85062" lon="6.43759">
        <ele>1999.7</ele>
        <time>2024-04-27T11:28:20Z</time>
      </trkpt>
      <trkpt lat="45.85062" lon="6.43759">
        <ele>1999.7</ele>
        <time>2024-04-27T11:28:21Z</time>
      </trkpt>
      <trkpt lat="45.85063" lon="6.43759">
        <ele>1999.7</ele>
        <time>2024-04-27T11:28:22Z</time>
      </trkpt>
      <trkpt lat="45.85063" lon="6.43758">
        <ele>1999.7</ele>
        <time>2024-04-27T11:28:23Z</time>
      </trkpt>
      <trkpt lat="45.85063" lon="6.43758">
        <ele>1999.7</ele>
        <time>2024-04-27T11:28:24Z</time>
      </trkpt>
      <trkpt lat="45.85063" lon="6.43759">
        <ele>1999.7</ele>
        <time>2024-04-27T11:28:25Z</time>
      </trkpt>
      <trkpt lat="45.85063" lon="6.4376">
        <ele>2000.6</ele>
        <time>2024-04-27T11:28:26Z</time>
      </trkpt>
      <trkpt lat="45.85063" lon="6.43761">
        <ele>2000.6</ele>
        <time>2024-04-27T11:28:27Z</time>
      </trkpt>
      <trkpt lat="45.85062" lon="6.43761">
        <ele>2000.6</ele>
        <time>2024-04-27T11:28:28Z</time>
      </trkpt>
      <trkpt lat="45.85062" lon="6.4376">
        <ele>2000.6</ele>
        <time>2024-04-27T11:28:29Z</time>
      </trkpt>
      <trkpt lat="45.85062" lon="6.4376">
        <ele>2000.6</ele>
        <time>2024-04-27T11:28:30Z</time>
      </trkpt>
      <trkpt lat="45.85063" lon="6.43759">
        <ele>2000.6</ele>
        <time>2024-04-27T11:28:31Z</time>
      </trkpt>
      <trkpt lat="45.85063" lon="6.43759">
        <ele>2000.6</ele>
        <time>2024-04-27T11:28:32Z</time>
      </trkpt>
      <trkpt lat="45.85063" lon="6.43758">
        <ele>2000.6</ele>
        <time>2024-04-27T11:28:33Z</time>
      </trkpt>
      <trkpt lat="45.85064" lon="6.43758">
        <ele>2000.6</ele>
        <time>2024-04-27T11:28:34Z</time>
      </trkpt>
      <trkpt lat="45.85064" lon="6.43758">
        <ele>2000.6</ele>
        <time>2024-04-27T11:28:35Z</time>
      </trkpt>
      <trkpt lat="45.85065" lon="6.43758">
        <ele>2000.6</ele>
        <time>2024-04-27T11:28:36Z</time>
      </trkpt>
      <trkpt lat="45.85065" lon="6.43758">
        <ele>2000.6</ele>
        <time>2024-04-27T11:28:37Z</time>
      </trkpt>
      <trkpt lat="45.85065" lon="6.43759">
        <ele>2000.6</ele>
        <time>2024-04-27T11:28:38Z</time>
      </trkpt>
      <trkpt lat="45.85065" lon="6.43759">
        <ele>2000.6</ele>
        <time>2024-04-27T11:28:39Z</time>
      </trkpt>
      <trkpt lat="45.85065" lon="6.43759">
        <ele>2001.6</ele>
        <time>2024-04-27T11:28:40Z</time>
      </trkpt>
      <trkpt lat="45.85065" lon="6.4376">
        <ele>2001.6</ele>
        <time>2024-04-27T11:28:41Z</time>
      </trkpt>
      <trkpt lat="45.85065" lon="6.4376">
        <ele>2001.6</ele>
        <time>2024-04-27T11:28:42Z</time>
      </trkpt>
      <trkpt lat="45.85065" lon="6.4376">
        <ele>2001.6</ele>
        <time>2024-04-27T11:28:43Z</time>
      </trkpt>
      <trkpt lat="45.85065" lon="6.4376">
        <ele>2001.6</ele>
        <time>2024-04-27T11:28:44Z</time>
      </trkpt>
      <trkpt lat="45.85065" lon="6.4376">
        <ele>2001.6</ele>
        <time>2024-04-27T11:28:45Z</time>
      </trkpt>
      <trkpt lat="45.85065" lon="6.43759">
        <ele>2001.6</ele>
        <time>2024-04-27T11:28:46Z</time>
      </trkpt>
      <trkpt lat="45.85064" lon="6.4376">
        <ele>2001.6</ele>
        <time>2024-04-27T11:28:47Z</time>
      </trkpt>
      <trkpt lat="45.85064" lon="6.43761">
        <ele>2001.6</ele>
        <time>2024-04-27T11:28:48Z</time>
      </trkpt>
      <trkpt lat="45.85063" lon="6.43761">
        <ele>2001.6</ele>
        <time>2024-04-27T11:28:49Z</time>
      </trkpt>
      <trkpt lat="45.85063" lon="6.43762">
        <ele>2001.6</ele>
        <time>2024-04-27T11:28:50Z</time>
      </trkpt>
      <trkpt lat="45.85063" lon="6.43762">
        <ele>2001.6</ele>
        <time>2024-04-27T11:28:51Z</time>
      </trkpt>
      <trkpt lat="45.85063" lon="6.43763">
        <ele>2001.6</ele>
        <time>2024-04-27T11:28:52Z</time>
      </trkpt>
      <trkpt lat="45.85063" lon="6.43764">
        <ele>2001.6</ele>
        <time>2024-04-27T11:28:53Z</time>
      </trkpt>
      <trkpt lat="45.85062" lon="6.43764">
        <ele>2001.6</ele>
        <time>2024-04-27T11:28:54Z</time>
      </trkpt>
      <trkpt lat="45.85062" lon="6.43764">
        <ele>2001.6</ele>
        <time>2024-04-27T11:28:55Z</time>
      </trkpt>
      <trkpt lat="45.85061" lon="6.43763">
        <ele>2001.6</ele>
        <time>2024-04-27T11:28:56Z</time>
      </trkpt>
      <trkpt lat="45.85061" lon="6.43762">
        <ele>2001.6</ele>
        <time>2024-04-27T11:28:57Z</time>
      </trkpt>
      <trkpt lat="45.85061" lon="6.43762">
        <ele>2001.6</ele>
        <time>2024-04-27T11:28:58Z</time>
      </trkpt>
      <trkpt lat="45.85061" lon="6.43762">
        <ele>2001.6</ele>
        <time>2024-04-27T11:28:59Z</time>
      </trkpt>
      <trkpt lat="45.85061" lon="6.43762">
        <ele>2001.6</ele>
        <time>2024-04-27T11:29:00Z</time>
      </trkpt>
      <trkpt lat="45.85061" lon="6.43762">
        <ele>2001.6</ele>
        <time>2024-04-27T11:29:01Z</time>
      </trkpt>
      <trkpt lat="45.85061" lon="6.43762">
        <ele>2001.6</ele>
        <time>2024-04-27T11:29:02Z</time>
      </trkpt>
      <trkpt lat="45.8506" lon="6.43762">
        <ele>2001.6</ele>
        <time>2024-04-27T11:29:03Z</time>
      </trkpt>
      <trkpt lat="45.8506" lon="6.43762">
        <ele>2001.6</ele>
        <time>2024-04-27T11:29:04Z</time>
      </trkpt>
      <trkpt lat="45.8506" lon="6.43762">
        <ele>2001.6</ele>
        <time>2024-04-27T11:29:05Z</time>
      </trkpt>
      <trkpt lat="45.85061" lon="6.43764">
        <ele>2001.6</ele>
        <time>2024-04-27T11:29:06Z</time>
      </trkpt>
      <trkpt lat="45.85061" lon="6.43764">
        <ele>2001.6</ele>
        <time>2024-04-27T11:29:07Z</time>
      </trkpt>
      <trkpt lat="45.85061" lon="6.43765">
        <ele>2001.6</ele>
        <time>2024-04-27T11:29:08Z</time>
      </trkpt>
      <trkpt lat="45.85062" lon="6.43764">
        <ele>2001.6</ele>
        <time>2024-04-27T11:29:09Z</time>
      </trkpt>
      <trkpt lat="45.85062" lon="6.43763">
        <ele>2001.6</ele>
        <time>2024-04-27T11:29:10Z</time>
      </trkpt>
      <trkpt lat="45.85062" lon="6.43763">
        <ele>2001.6</ele>
        <time>2024-04-27T11:29:11Z</time>
      </trkpt>
      <trkpt lat="45.85061" lon="6.43763">
        <ele>2000.6</ele>
        <time>2024-04-27T11:29:12Z</time>
      </trkpt>
      <trkpt lat="45.85061" lon="6.43763">
        <ele>2000.6</ele>
        <time>2024-04-27T11:29:13Z</time>
      </trkpt>
      <trkpt lat="45.8506" lon="6.43763">
        <ele>2000.6</ele>
        <time>2024-04-27T11:29:14Z</time>
      </trkpt>
      <trkpt lat="45.8506" lon="6.43764">
        <ele>2000.6</ele>
        <time>2024-04-27T11:29:15Z</time>
      </trkpt>
      <trkpt lat="45.8506" lon="6.43764">
        <ele>2000.6</ele>
        <time>2024-04-27T11:29:16Z</time>
      </trkpt>
      <trkpt lat="45.8506" lon="6.43764">
        <ele>2000.6</ele>
        <time>2024-04-27T11:29:17Z</time>
      </trkpt>
      <trkpt lat="45.8506" lon="6.43765">
        <ele>2000.6</ele>
        <time>2024-04-27T11:29:18Z</time>
      </trkpt>
      <trkpt lat="45.8506" lon="6.43765">
        <ele>2000.6</ele>
        <time>2024-04-27T11:29:19Z</time>
      </trkpt>
      <trkpt lat="45.8506" lon="6.43765">
        <ele>2000.6</ele>
        <time>2024-04-27T11:29:20Z</time>
      </trkpt>
      <trkpt lat="45.8506" lon="6.43765">
        <ele>2000.6</ele>
        <time>2024-04-27T11:29:21Z</time>
      </trkpt>
      <trkpt lat="45.8506" lon="6.43766">
        <ele>1999.7</ele>
        <time>2024-04-27T11:29:22Z</time>
      </trkpt>
      <trkpt lat="45.8506" lon="6.43767">
        <ele>1999.7</ele>
        <time>2024-04-27T11:29:23Z</time>
      </trkpt>
      <trkpt lat="45.8506" lon="6.43768">
        <ele>1999.7</ele>
        <time>2024-04-27T11:29:24Z</time>
      </trkpt>
      <trkpt lat="45.8506" lon="6.43768">
        <ele>1999.7</ele>
        <time>2024-04-27T11:29:25Z</time>
      </trkpt>
      <trkpt lat="45.8506" lon="6.43768">
        <ele>1999.7</ele>
        <time>2024-04-27T11:29:26Z</time>
      </trkpt>
      <trkpt lat="45.85061" lon="6.43768">
        <ele>1999.7</ele>
        <time>2024-04-27T11:29:27Z</time>
      </trkpt>
      <trkpt lat="45.85061" lon="6.43767">
        <ele>1999.7</ele>
        <time>2024-04-27T11:29:28Z</time>
      </trkpt>
      <trkpt lat="45.85061" lon="6.43767">
        <ele>1999.7</ele>
        <time>2024-04-27T11:29:29Z</time>
      </trkpt>
      <trkpt lat="45.85062" lon="6.43766">
        <ele>1998.6</ele>
        <time>2024-04-27T11:29:30Z</time>
      </trkpt>
      <trkpt lat="45.85062" lon="6.43764">
        <ele>1998.6</ele>
        <time>2024-04-27T11:29:31Z</time>
      </trkpt>
      <trkpt lat="45.85063" lon="6.43762">
        <ele>1998.6</ele>
        <time>2024-04-27T11:29:32Z</time>
      </trkpt>
      <trkpt lat="45.85064" lon="6.43761">
        <ele>1998.6</ele>
        <time>2024-04-27T11:29:33Z</time>
      </trkpt>
      <trkpt lat="45.85064" lon="6.43761">
        <ele>1998.6</ele>
        <time>2024-04-27T11:29:34Z</time>
      </trkpt>
      <trkpt lat="45.85065" lon="6.43762">
        <ele>1998.6</ele>
        <time>2024-04-27T11:29:35Z</time>
      </trkpt>
      <trkpt lat="45.85066" lon="6.43762">
        <ele>1998.6</ele>
        <time>2024-04-27T11:29:36Z</time>
      </trkpt>
      <trkpt lat="45.85067" lon="6.43763">
        <ele>1998.6</ele>
        <time>2024-04-27T11:29:37Z</time>
      </trkpt>
      <trkpt lat="45.85068" lon="6.43762">
        <ele>1998.6</ele>
        <time>2024-04-27T11:29:38Z</time>
      </trkpt>
      <trkpt lat="45.85068" lon="6.43762">
        <ele>1998.6</ele>
        <time>2024-04-27T11:29:39Z</time>
      </trkpt>
      <trkpt lat="45.85067" lon="6.43762">
        <ele>1997.7</ele>
        <time>2024-04-27T11:29:40Z</time>
      </trkpt>
      <trkpt lat="45.85068" lon="6.43761">
        <ele>1997.7</ele>
        <time>2024-04-27T11:29:41Z</time>
      </trkpt>
      <trkpt lat="45.8507" lon="6.43759">
        <ele>1996.6</ele>
        <time>2024-04-27T11:29:42Z</time>
      </trkpt>
      <trkpt lat="45.85073" lon="6.43758">
        <ele>1996.6</ele>
        <time>2024-04-27T11:29:43Z</time>
      </trkpt>
      <trkpt lat="45.85075" lon="6.43756">
        <ele>1996.6</ele>
        <time>2024-04-27T11:29:44Z</time>
      </trkpt>
      <trkpt lat="45.85077" lon="6.43753">
        <ele>1996.6</ele>
        <time>2024-04-27T11:29:45Z</time>
      </trkpt>
      <trkpt lat="45.85078" lon="6.43751">
        <ele>1996.6</ele>
        <time>2024-04-27T11:29:46Z</time>
      </trkpt>
      <trkpt lat="45.85079" lon="6.4375">
        <ele>1996.6</ele>
        <time>2024-04-27T11:29:47Z</time>
      </trkpt>
      <trkpt lat="45.85082" lon="6.43747">
        <ele>1987.6</ele>
        <time>2024-04-27T11:29:48Z</time>
      </trkpt>
      <trkpt lat="45.85084" lon="6.43747">
        <ele>1987.6</ele>
        <time>2024-04-27T11:29:49Z</time>
      </trkpt>
      <trkpt lat="45.85085" lon="6.43747">
        <ele>1987.6</ele>
        <time>2024-04-27T11:29:50Z</time>
      </trkpt>
      <trkpt lat="45.85086" lon="6.43748">
        <ele>1987.6</ele>
        <time>2024-04-27T11:29:51Z</time>
      </trkpt>
      <trkpt lat="45.85086" lon="6.43747">
        <ele>1987.6</ele>
        <time>2024-04-27T11:29:52Z</time>
      </trkpt>
      <trkpt lat="45.85086" lon="6.43745">
        <ele>1987.6</ele>
        <time>2024-04-27T11:29:53Z</time>
      </trkpt>
      <trkpt lat="45.85087" lon="6.43743">
        <ele>1979.7</ele>
        <time>2024-04-27T11:29:54Z</time>
      </trkpt>
      <trkpt lat="45.85087" lon="6.43739">
        <ele>1979.7</ele>
        <time>2024-04-27T11:29:55Z</time>
      </trkpt>
      <trkpt lat="45.85086" lon="6.43737">
        <ele>1976.7</ele>
        <time>2024-04-27T11:29:56Z</time>
      </trkpt>
      <trkpt lat="45.85087" lon="6.43738">
        <ele>1976.7</ele>
        <time>2024-04-27T11:29:57Z</time>
      </trkpt>
      <trkpt lat="45.85087" lon="6.4374">
        <ele>1972.7</ele>
        <time>2024-04-27T11:29:58Z</time>
      </trkpt>
      <trkpt lat="45.85087" lon="6.4374">
        <ele>1972.7</ele>
        <time>2024-04-27T11:29:59Z</time>
      </trkpt>
      <trkpt lat="45.85088" lon="6.4374">
        <ele>1971.6</ele>
        <time>2024-04-27T11:30:00Z</time>
      </trkpt>
      <trkpt lat="45.85089" lon="6.4374">
        <ele>1971.6</ele>
        <time>2024-04-27T11:30:01Z</time>
      </trkpt>
      <trkpt lat="45.8509" lon="6.43738">
        <ele>1970.7</ele>
        <time>2024-04-27T11:30:02Z</time>
      </trkpt>
      <trkpt lat="45.85091" lon="6.43737">
        <ele>1970.7</ele>
        <time>2024-04-27T11:30:03Z</time>
      </trkpt>
      <trkpt lat="45.85091" lon="6.43736">
        <ele>1969.6</ele>
        <time>2024-04-27T11:30:04Z</time>
      </trkpt>
      <trkpt lat="45.85093" lon="6.43734">
        <ele>1969.6</ele>
        <time>2024-04-27T11:30:05Z</time>
      </trkpt>
      <trkpt lat="45.85094" lon="6.43732">
        <ele>1967.7</ele>
        <time>2024-04-27T11:30:06Z</time>
      </trkpt>
      <trkpt lat="45.85095" lon="6.43731">
        <ele>1967.7</ele>
        <time>2024-04-27T11:30:07Z</time>
      </trkpt>
      <trkpt lat="45.85096" lon="6.4373">
        <ele>1964.6</ele>
        <time>2024-04-27T11:30:08Z</time>
      </trkpt>
      <trkpt lat="45.85096" lon="6.4373">
        <ele>1964.6</ele>
        <time>2024-04-27T11:30:09Z</time>
      </trkpt>
      <trkpt lat="45.85096" lon="6.43729">
        <ele>1960.7</ele>
        <time>2024-04-27T11:30:10Z</time>
      </trkpt>
      <trkpt lat="45.85096" lon="6.43728">
        <ele>1960.7</ele>
        <time>2024-04-27T11:30:11Z</time>
      </trkpt>
      <trkpt lat="45.85096" lon="6.43726">
        <ele>1957.6</ele>
        <time>2024-04-27T11:30:12Z</time>
      </trkpt>
      <trkpt lat="45.85096" lon="6.43725">
        <ele>1957.6</ele>
        <time>2024-04-27T11:30:13Z</time>
      </trkpt>
      <trkpt lat="45.85096" lon="6.43723">
        <ele>1954.7</ele>
        <time>2024-04-27T11:30:14Z</time>
      </trkpt>
      <trkpt lat="45.85097" lon="6.43723">
        <ele>1954.7</ele>
        <time>2024-04-27T11:30:15Z</time>
      </trkpt>
      <trkpt lat="45.85098" lon="6.43723">
        <ele>1951.7</ele>
        <time>2024-04-27T11:30:16Z</time>
      </trkpt>
      <trkpt lat="45.85098" lon="6.43724">
        <ele>1951.7</ele>
        <time>2024-04-27T11:30:17Z</time>
      </trkpt>
      <trkpt lat="45.85098" lon="6.43724">
        <ele>1948.6</ele>
        <time>2024-04-27T11:30:18Z</time>
      </trkpt>
      <trkpt lat="45.85098" lon="6.43725">
        <ele>1948.6</ele>
        <time>2024-04-27T11:30:19Z</time>
      </trkpt>
      <trkpt lat="45.85098" lon="6.43725">
        <ele>1945.7</ele>
        <time>2024-04-27T11:30:20Z</time>
      </trkpt>
      <trkpt lat="45.85097" lon="6.43726">
        <ele>1945.7</ele>
        <time>2024-04-27T11:30:21Z</time>
      </trkpt>
      <trkpt lat="45.85097" lon="6.43727">
        <ele>1944.6</ele>
        <time>2024-04-27T11:30:22Z</time>
      </trkpt>
      <trkpt lat="45.85097" lon="6.43728">
        <ele>1944.6</ele>
        <time>2024-04-27T11:30:23Z</time>
      </trkpt>
      <trkpt lat="45.85098" lon="6.43729">
        <ele>1942.7</ele>
        <time>2024-04-27T11:30:24Z</time>
      </trkpt>
      <trkpt lat="45.85099" lon="6.43728">
        <ele>1942.7</ele>
        <time>2024-04-27T11:30:25Z</time>
      </trkpt>
      <trkpt lat="45.85101" lon="6.43727">
        <ele>1941.6</ele>
        <time>2024-04-27T11:30:26Z</time>
      </trkpt>
      <trkpt lat="45.85102" lon="6.43727">
        <ele>1941.6</ele>
        <time>2024-04-27T11:30:27Z</time>
      </trkpt>
      <trkpt lat="45.85102" lon="6.43728">
        <ele>1939.6</ele>
        <time>2024-04-27T11:30:28Z</time>
      </trkpt>
      <trkpt lat="45.85103" lon="6.43727">
        <ele>1939.6</ele>
        <time>2024-04-27T11:30:29Z</time>
      </trkpt>
      <trkpt lat="45.85104" lon="6.43727">
        <ele>1937.6</ele>
        <time>2024-04-27T11:30:30Z</time>
      </trkpt>
      <trkpt lat="45.85103" lon="6.43726">
        <ele>1937.6</ele>
        <time>2024-04-27T11:30:31Z</time>
      </trkpt>
      <trkpt lat="45.85104" lon="6.43725">
        <ele>1937.6</ele>
        <time>2024-04-27T11:30:32Z</time>
      </trkpt>
      <trkpt lat="45.85104" lon="6.43726">
        <ele>1937.6</ele>
        <time>2024-04-27T11:30:33Z</time>
      </trkpt>
      <trkpt lat="45.85105" lon="6.43726">
        <ele>1935.7</ele>
        <time>2024-04-27T11:30:34Z</time>
      </trkpt>
      <trkpt lat="45.85107" lon="6.43726">
        <ele>1935.7</ele>
        <time>2024-04-27T11:30:35Z</time>
      </trkpt>
      <trkpt lat="45.85109" lon="6.43725">
        <ele>1933.7</ele>
        <time>2024-04-27T11:30:36Z</time>
      </trkpt>
      <trkpt lat="45.8511" lon="6.43723">
        <ele>1933.7</ele>
        <time>2024-04-27T11:30:37Z</time>
      </trkpt>
      <trkpt lat="45.85111" lon="6.43721">
        <ele>1932.6</ele>
        <time>2024-04-27T11:30:38Z</time>
      </trkpt>
      <trkpt lat="45.85112" lon="6.43719">
        <ele>1932.6</ele>
        <time>2024-04-27T11:30:39Z</time>
      </trkpt>
      <trkpt lat="45.85114" lon="6.43718">
        <ele>1930.6</ele>
        <time>2024-04-27T11:30:40Z</time>
      </trkpt>
      <trkpt lat="45.85116" lon="6.43717">
        <ele>1930.6</ele>
        <time>2024-04-27T11:30:41Z</time>
      </trkpt>
      <trkpt lat="45.85117" lon="6.43717">
        <ele>1928.6</ele>
        <time>2024-04-27T11:30:42Z</time>
      </trkpt>
      <trkpt lat="45.85118" lon="6.43716">
        <ele>1928.6</ele>
        <time>2024-04-27T11:30:43Z</time>
      </trkpt>
      <trkpt lat="45.85121" lon="6.43713">
        <ele>1926.7</ele>
        <time>2024-04-27T11:30:44Z</time>
      </trkpt>
      <trkpt lat="45.85123" lon="6.4371">
        <ele>1926.7</ele>
        <time>2024-04-27T11:30:45Z</time>
      </trkpt>
      <trkpt lat="45.85125" lon="6.43709">
        <ele>1926.7</ele>
        <time>2024-04-27T11:30:46Z</time>
      </trkpt>
      <trkpt lat="45.85127" lon="6.43709">
        <ele>1926.7</ele>
        <time>2024-04-27T11:30:47Z</time>
      </trkpt>
      <trkpt lat="45.85128" lon="6.43709">
        <ele>1926.7</ele>
        <time>2024-04-27T11:30:48Z</time>
      </trkpt>
      <trkpt lat="45.85128" lon="6.4371">
        <ele>1926.7</ele>
        <time>2024-04-27T11:30:49Z</time>
      </trkpt>
      <trkpt lat="45.8513" lon="6.43711">
        <ele>1919.7</ele>
        <time>2024-04-27T11:30:50Z</time>
      </trkpt>
      <trkpt lat="45.85131" lon="6.43711">
        <ele>1919.7</ele>
        <time>2024-04-27T11:30:51Z</time>
      </trkpt>
      <trkpt lat="45.85133" lon="6.4371">
        <ele>1919.7</ele>
        <time>2024-04-27T11:30:52Z</time>
      </trkpt>
      <trkpt lat="45.85133" lon="6.43708">
        <ele>1919.7</ele>
        <time>2024-04-27T11:30:53Z</time>
      </trkpt>
      <trkpt lat="45.85133" lon="6.43705">
        <ele>1919.7</ele>
        <time>2024-04-27T11:30:54Z</time>
      </trkpt>
      <trkpt lat="45.85133" lon="6.43703">
        <ele>1919.7</ele>
        <time>2024-04-27T11:30:55Z</time>
      </trkpt>
      <trkpt lat="45.85134" lon="6.43703">
        <ele>1913.7</ele>
        <time>2024-04-27T11:30:56Z</time>
      </trkpt>
      <trkpt lat="45.85135" lon="6.43703">
        <ele>1913.7</ele>
        <time>2024-04-27T11:30:57Z</time>
      </trkpt>
      <trkpt lat="45.85134" lon="6.43702">
        <ele>1911.6</ele>
        <time>2024-04-27T11:30:58Z</time>
      </trkpt>
      <trkpt lat="45.85134" lon="6.43701">
        <ele>1911.6</ele>
        <time>2024-04-27T11:30:59Z</time>
      </trkpt>
      <trkpt lat="45.85135" lon="6.437">
        <ele>1909.6</ele>
        <time>2024-04-27T11:31:00Z</time>
      </trkpt>
      <trkpt lat="45.85136" lon="6.43699">
        <ele>1909.6</ele>
        <time>2024-04-27T11:31:01Z</time>
      </trkpt>
      <trkpt lat="45.85137" lon="6.43697">
        <ele>1907.6</ele>
        <time>2024-04-27T11:31:02Z</time>
      </trkpt>
      <trkpt lat="45.85138" lon="6.43694">
        <ele>1907.6</ele>
        <time>2024-04-27T11:31:03Z</time>
      </trkpt>
      <trkpt lat="45.85138" lon="6.43691">
        <ele>1905.6</ele>
        <time>2024-04-27T11:31:04Z</time>
      </trkpt>
      <trkpt lat="45.85137" lon="6.4369">
        <ele>1905.6</ele>
        <time>2024-04-27T11:31:05Z</time>
      </trkpt>
      <trkpt lat="45.85137" lon="6.43687">
        <ele>1902.6</ele>
        <time>2024-04-27T11:31:06Z</time>
      </trkpt>
      <trkpt lat="45.85136" lon="6.43684">
        <ele>1902.6</ele>
        <time>2024-04-27T11:31:07Z</time>
      </trkpt>
      <trkpt lat="45.85137" lon="6.43682">
        <ele>1899.7</ele>
        <time>2024-04-27T11:31:08Z</time>
      </trkpt>
      <trkpt lat="45.85138" lon="6.4368">
        <ele>1899.7</ele>
        <time>2024-04-27T11:31:09Z</time>
      </trkpt>
      <trkpt lat="45.85139" lon="6.43678">
        <ele>1898.6</ele>
        <time>2024-04-27T11:31:10Z</time>
      </trkpt>
      <trkpt lat="45.8514" lon="6.43675">
        <ele>1898.6</ele>
        <time>2024-04-27T11:31:11Z</time>
      </trkpt>
      <trkpt lat="45.8514" lon="6.43674">
        <ele>1898.6</ele>
        <time>2024-04-27T11:31:12Z</time>
      </trkpt>
      <trkpt lat="45.85141" lon="6.43673">
        <ele>1898.6</ele>
        <time>2024-04-27T11:31:13Z</time>
      </trkpt>
      <trkpt lat="45.85143" lon="6.43674">
        <ele>1899.7</ele>
        <time>2024-04-27T11:31:14Z</time>
      </trkpt>
      <trkpt lat="45.85144" lon="6.43675">
        <ele>1899.7</ele>
        <time>2024-04-27T11:31:15Z</time>
      </trkpt>
      <trkpt lat="45.85145" lon="6.43675">
        <ele>1900.6</ele>
        <time>2024-04-27T11:31:16Z</time>
      </trkpt>
      <trkpt lat="45.85147" lon="6.43675">
        <ele>1900.6</ele>
        <time>2024-04-27T11:31:17Z</time>
      </trkpt>
      <trkpt lat="45.85148" lon="6.43676">
        <ele>1901.7</ele>
        <time>2024-04-27T11:31:18Z</time>
      </trkpt>
      <trkpt lat="45.85148" lon="6.43676">
        <ele>1901.7</ele>
        <time>2024-04-27T11:31:19Z</time>
      </trkpt>
      <trkpt lat="45.85149" lon="6.43676">
        <ele>1902.6</ele>
        <time>2024-04-27T11:31:20Z</time>
      </trkpt>
      <trkpt lat="45.85149" lon="6.43676">
        <ele>1902.6</ele>
        <time>2024-04-27T11:31:21Z</time>
      </trkpt>
      <trkpt lat="45.85149" lon="6.43676">
        <ele>1904.7</ele>
        <time>2024-04-27T11:31:22Z</time>
      </trkpt>
      <trkpt lat="45.8515" lon="6.43675">
        <ele>1904.7</ele>
        <time>2024-04-27T11:31:23Z</time>
      </trkpt>
      <trkpt lat="45.8515" lon="6.43675">
        <ele>1905.6</ele>
        <time>2024-04-27T11:31:24Z</time>
      </trkpt>
      <trkpt lat="45.85151" lon="6.43676">
        <ele>1905.6</ele>
        <time>2024-04-27T11:31:25Z</time>
      </trkpt>
      <trkpt lat="45.85152" lon="6.43677">
        <ele>1907.6</ele>
        <time>2024-04-27T11:31:26Z</time>
      </trkpt>
      <trkpt lat="45.85153" lon="6.43678">
        <ele>1907.6</ele>
        <time>2024-04-27T11:31:27Z</time>
      </trkpt>
      <trkpt lat="45.85153" lon="6.43678">
        <ele>1908.7</ele>
        <time>2024-04-27T11:31:28Z</time>
      </trkpt>
      <trkpt lat="45.85153" lon="6.43678">
        <ele>1908.7</ele>
        <time>2024-04-27T11:31:29Z</time>
      </trkpt>
      <trkpt lat="45.85154" lon="6.43678">
        <ele>1910.7</ele>
        <time>2024-04-27T11:31:30Z</time>
      </trkpt>
      <trkpt lat="45.85155" lon="6.43677">
        <ele>1910.7</ele>
        <time>2024-04-27T11:31:31Z</time>
      </trkpt>
      <trkpt lat="45.85156" lon="6.43675">
        <ele>1911.6</ele>
        <time>2024-04-27T11:31:32Z</time>
      </trkpt>
      <trkpt lat="45.85156" lon="6.43674">
        <ele>1911.6</ele>
        <time>2024-04-27T11:31:33Z</time>
      </trkpt>
      <trkpt lat="45.85157" lon="6.43673">
        <ele>1912.6</ele>
        <time>2024-04-27T11:31:34Z</time>
      </trkpt>
      <trkpt lat="45.85158" lon="6.43671">
        <ele>1912.6</ele>
        <time>2024-04-27T11:31:35Z</time>
      </trkpt>
      <trkpt lat="45.8516" lon="6.43671">
        <ele>1913.7</ele>
        <time>2024-04-27T11:31:36Z</time>
      </trkpt>
      <trkpt lat="45.85162" lon="6.43672">
        <ele>1913.7</ele>
        <time>2024-04-27T11:31:37Z</time>
      </trkpt>
      <trkpt lat="45.85164" lon="6.43674">
        <ele>1913.7</ele>
        <time>2024-04-27T11:31:38Z</time>
      </trkpt>
      <trkpt lat="45.85166" lon="6.43674">
        <ele>1913.7</ele>
        <time>2024-04-27T11:31:39Z</time>
      </trkpt>
      <trkpt lat="45.85168" lon="6.43673">
        <ele>1914.6</ele>
        <time>2024-04-27T11:31:40Z</time>
      </trkpt>
      <trkpt lat="45.85171" lon="6.43673">
        <ele>1914.6</ele>
        <time>2024-04-27T11:31:41Z</time>
      </trkpt>
      <trkpt lat="45.85172" lon="6.43672">
        <ele>1914.6</ele>
        <time>2024-04-27T11:31:42Z</time>
      </trkpt>
      <trkpt lat="45.85173" lon="6.43671">
        <ele>1914.6</ele>
        <time>2024-04-27T11:31:43Z</time>
      </trkpt>
      <trkpt lat="45.85175" lon="6.43671">
        <ele>1915.7</ele>
        <time>2024-04-27T11:31:44Z</time>
      </trkpt>
      <trkpt lat="45.85177" lon="6.43673">
        <ele>1915.7</ele>
        <time>2024-04-27T11:31:45Z</time>
      </trkpt>
      <trkpt lat="45.85178" lon="6.43675">
        <ele>1915.7</ele>
        <time>2024-04-27T11:31:46Z</time>
      </trkpt>
      <trkpt lat="45.8518" lon="6.43676">
        <ele>1915.7</ele>
        <time>2024-04-27T11:31:47Z</time>
      </trkpt>
      <trkpt lat="45.85182" lon="6.43676">
        <ele>1916.6</ele>
        <time>2024-04-27T11:31:48Z</time>
      </trkpt>
      <trkpt lat="45.85183" lon="6.43675">
        <ele>1916.6</ele>
        <time>2024-04-27T11:31:49Z</time>
      </trkpt>
      <trkpt lat="45.85184" lon="6.43672">
        <ele>1917.7</ele>
        <time>2024-04-27T11:31:50Z</time>
      </trkpt>
      <trkpt lat="45.85186" lon="6.43672">
        <ele>1917.7</ele>
        <time>2024-04-27T11:31:51Z</time>
      </trkpt>
      <trkpt lat="45.85187" lon="6.43674">
        <ele>1917.7</ele>
        <time>2024-04-27T11:31:52Z</time>
      </trkpt>
      <trkpt lat="45.85188" lon="6.43676">
        <ele>1917.7</ele>
        <time>2024-04-27T11:31:53Z</time>
      </trkpt>
      <trkpt lat="45.85189" lon="6.43677">
        <ele>1917.7</ele>
        <time>2024-04-27T11:31:54Z</time>
      </trkpt>
      <trkpt lat="45.85191" lon="6.43678">
        <ele>1917.7</ele>
        <time>2024-04-27T11:31:55Z</time>
      </trkpt>
      <trkpt lat="45.85193" lon="6.4368">
        <ele>1917.7</ele>
        <time>2024-04-27T11:31:56Z</time>
      </trkpt>
      <trkpt lat="45.85194" lon="6.43683">
        <ele>1917.7</ele>
        <time>2024-04-27T11:31:57Z</time>
      </trkpt>
      <trkpt lat="45.85195" lon="6.43684">
        <ele>1918.6</ele>
        <time>2024-04-27T11:31:58Z</time>
      </trkpt>
      <trkpt lat="45.85196" lon="6.43683">
        <ele>1918.6</ele>
        <time>2024-04-27T11:31:59Z</time>
      </trkpt>
      <trkpt lat="45.85196" lon="6.43683">
        <ele>1918.6</ele>
        <time>2024-04-27T11:32:00Z</time>
      </trkpt>
      <trkpt lat="45.85197" lon="6.43682">
        <ele>1918.6</ele>
        <time>2024-04-27T11:32:01Z</time>
      </trkpt>
      <trkpt lat="45.85199" lon="6.43682">
        <ele>1918.6</ele>
        <time>2024-04-27T11:32:02Z</time>
      </trkpt>
      <trkpt lat="45.852" lon="6.43684">
        <ele>1918.6</ele>
        <time>2024-04-27T11:32:03Z</time>
      </trkpt>
      <trkpt lat="45.85201" lon="6.43685">
        <ele>1917.7</ele>
        <time>2024-04-27T11:32:04Z</time>
      </trkpt>
      <trkpt lat="45.85202" lon="6.43686">
        <ele>1917.7</ele>
        <time>2024-04-27T11:32:05Z</time>
      </trkpt>
      <trkpt lat="45.85203" lon="6.43685">
        <ele>1917.7</ele>
        <time>2024-04-27T11:32:06Z</time>
      </trkpt>
      <trkpt lat="45.85204" lon="6.43684">
        <ele>1917.7</ele>
        <time>2024-04-27T11:32:07Z</time>
      </trkpt>
      <trkpt lat="45.85205" lon="6.43684">
        <ele>1917.7</ele>
        <time>2024-04-27T11:32:08Z</time>
      </trkpt>
      <trkpt lat="45.85208" lon="6.43685">
        <ele>1917.7</ele>
        <time>2024-04-27T11:32:09Z</time>
      </trkpt>
      <trkpt lat="45.8521" lon="6.43685">
        <ele>1910.7</ele>
        <time>2024-04-27T11:32:10Z</time>
      </trkpt>
      <trkpt lat="45.85212" lon="6.43686">
        <ele>1910.7</ele>
        <time>2024-04-27T11:32:11Z</time>
      </trkpt>
      <trkpt lat="45.85214" lon="6.43686">
        <ele>1910.7</ele>
        <time>2024-04-27T11:32:12Z</time>
      </trkpt>
      <trkpt lat="45.85214" lon="6.43685">
        <ele>1910.7</ele>
        <time>2024-04-27T11:32:13Z</time>
      </trkpt>
      <trkpt lat="45.85215" lon="6.43683">
        <ele>1910.7</ele>
        <time>2024-04-27T11:32:14Z</time>
      </trkpt>
      <trkpt lat="45.85215" lon="6.43682">
        <ele>1910.7</ele>
        <time>2024-04-27T11:32:15Z</time>
      </trkpt>
      <trkpt lat="45.85217" lon="6.43681">
        <ele>1901.7</ele>
        <time>2024-04-27T11:32:16Z</time>
      </trkpt>
      <trkpt lat="45.85219" lon="6.43681">
        <ele>1901.7</ele>
        <time>2024-04-27T11:32:17Z</time>
      </trkpt>
      <trkpt lat="45.8522" lon="6.43681">
        <ele>1897.7</ele>
        <time>2024-04-27T11:32:18Z</time>
      </trkpt>
      <trkpt lat="45.85221" lon="6.43681">
        <ele>1897.7</ele>
        <time>2024-04-27T11:32:19Z</time>
      </trkpt>
      <trkpt lat="45.85222" lon="6.43681">
        <ele>1892.7</ele>
        <time>2024-04-27T11:32:20Z</time>
      </trkpt>
      <trkpt lat="45.85222" lon="6.43681">
        <ele>1892.7</ele>
        <time>2024-04-27T11:32:21Z</time>
      </trkpt>
      <trkpt lat="45.85222" lon="6.43682">
        <ele>1888.7</ele>
        <time>2024-04-27T11:32:22Z</time>
      </trkpt>
      <trkpt lat="45.85222" lon="6.43682">
        <ele>1888.7</ele>
        <time>2024-04-27T11:32:23Z</time>
      </trkpt>
      <trkpt lat="45.85222" lon="6.43682">
        <ele>1885.7</ele>
        <time>2024-04-27T11:32:24Z</time>
      </trkpt>
      <trkpt lat="45.85222" lon="6.43682">
        <ele>1885.7</ele>
        <time>2024-04-27T11:32:25Z</time>
      </trkpt>
      <trkpt lat="45.85222" lon="6.43682">
        <ele>1884.6</ele>
        <time>2024-04-27T11:32:26Z</time>
      </trkpt>
      <trkpt lat="45.85223" lon="6.4368">
        <ele>1884.6</ele>
        <time>2024-04-27T11:32:27Z</time>
      </trkpt>
      <trkpt lat="45.85223" lon="6.4368">
        <ele>1882.6</ele>
        <time>2024-04-27T11:32:28Z</time>
      </trkpt>
      <trkpt lat="45.85224" lon="6.43679">
        <ele>1882.6</ele>
        <time>2024-04-27T11:32:29Z</time>
      </trkpt>
      <trkpt lat="45.85225" lon="6.43679">
        <ele>1880.6</ele>
        <time>2024-04-27T11:32:30Z</time>
      </trkpt>
      <trkpt lat="45.85226" lon="6.43679">
        <ele>1880.6</ele>
        <time>2024-04-27T11:32:31Z</time>
      </trkpt>
      <trkpt lat="45.85227" lon="6.43678">
        <ele>1879.6</ele>
        <time>2024-04-27T11:32:32Z</time>
      </trkpt>
      <trkpt lat="45.85229" lon="6.43679">
        <ele>1879.6</ele>
        <time>2024-04-27T11:32:33Z</time>
      </trkpt>
      <trkpt lat="45.8523" lon="6.43679">
        <ele>1876.7</ele>
        <time>2024-04-27T11:32:34Z</time>
      </trkpt>
      <trkpt lat="45.85231" lon="6.4368">
        <ele>1876.7</ele>
        <time>2024-04-27T11:32:35Z</time>
      </trkpt>
      <trkpt lat="45.85232" lon="6.43681">
        <ele>1874.7</ele>
        <time>2024-04-27T11:32:36Z</time>
      </trkpt>
      <trkpt lat="45.85234" lon="6.43682">
        <ele>1874.7</ele>
        <time>2024-04-27T11:32:37Z</time>
      </trkpt>
      <trkpt lat="45.85236" lon="6.43685">
        <ele>1871.6</ele>
        <time>2024-04-27T11:32:38Z</time>
      </trkpt>
      <trkpt lat="45.85238" lon="6.43686">
        <ele>1871.6</ele>
        <time>2024-04-27T11:32:39Z</time>
      </trkpt>
      <trkpt lat="45.85241" lon="6.43689">
        <ele>1869.7</ele>
        <time>2024-04-27T11:32:40Z</time>
      </trkpt>
      <trkpt lat="45.85244" lon="6.43691">
        <ele>1869.7</ele>
        <time>2024-04-27T11:32:41Z</time>
      </trkpt>
      <trkpt lat="45.85247" lon="6.43692">
        <ele>1867.7</ele>
        <time>2024-04-27T11:32:42Z</time>
      </trkpt>
      <trkpt lat="45.85249" lon="6.43693">
        <ele>1867.7</ele>
        <time>2024-04-27T11:32:43Z</time>
      </trkpt>
      <trkpt lat="45.85252" lon="6.43694">
        <ele>1865.7</ele>
        <time>2024-04-27T11:32:44Z</time>
      </trkpt>
      <trkpt lat="45.85254" lon="6.43694">
        <ele>1865.7</ele>
        <time>2024-04-27T11:32:45Z</time>
      </trkpt>
      <trkpt lat="45.85255" lon="6.43694">
        <ele>1864.6</ele>
        <time>2024-04-27T11:32:46Z</time>
      </trkpt>
      <trkpt lat="45.85255" lon="6.43694">
        <ele>1864.6</ele>
        <time>2024-04-27T11:32:47Z</time>
      </trkpt>
      <trkpt lat="45.85255" lon="6.43692">
        <ele>1863.7</ele>
        <time>2024-04-27T11:32:48Z</time>
      </trkpt>
      <trkpt lat="45.85256" lon="6.43689">
        <ele>1863.7</ele>
        <time>2024-04-27T11:32:49Z</time>
      </trkpt>
      <trkpt lat="45.85258" lon="6.43687">
        <ele>1861.6</ele>
        <time>2024-04-27T11:32:50Z</time>
      </trkpt>
      <trkpt lat="45.8526" lon="6.43687">
        <ele>1861.6</ele>
        <time>2024-04-27T11:32:51Z</time>
      </trkpt>
      <trkpt lat="45.85262" lon="6.43687">
        <ele>1859.6</ele>
        <time>2024-04-27T11:32:52Z</time>
      </trkpt>
      <trkpt lat="45.85263" lon="6.43687">
        <ele>1859.6</ele>
        <time>2024-04-27T11:32:53Z</time>
      </trkpt>
      <trkpt lat="45.85265" lon="6.43684">
        <ele>1858.7</ele>
        <time>2024-04-27T11:32:54Z</time>
      </trkpt>
      <trkpt lat="45.85265" lon="6.43681">
        <ele>1858.7</ele>
        <time>2024-04-27T11:32:55Z</time>
      </trkpt>
      <trkpt lat="45.85264" lon="6.43678">
        <ele>1855.6</ele>
        <time>2024-04-27T11:32:56Z</time>
      </trkpt>
      <trkpt lat="45.85263" lon="6.43677">
        <ele>1855.6</ele>
        <time>2024-04-27T11:32:57Z</time>
      </trkpt>
      <trkpt lat="45.85263" lon="6.43676">
        <ele>1853.7</ele>
        <time>2024-04-27T11:32:58Z</time>
      </trkpt>
      <trkpt lat="45.85261" lon="6.43677">
        <ele>1853.7</ele>
        <time>2024-04-27T11:32:59Z</time>
      </trkpt>
      <trkpt lat="45.85261" lon="6.43678">
        <ele>1851.7</ele>
        <time>2024-04-27T11:33:00Z</time>
      </trkpt>
      <trkpt lat="45.8526" lon="6.4368">
        <ele>1851.7</ele>
        <time>2024-04-27T11:33:01Z</time>
      </trkpt>
      <trkpt lat="45.8526" lon="6.43681">
        <ele>1850.6</ele>
        <time>2024-04-27T11:33:02Z</time>
      </trkpt>
      <trkpt lat="45.85261" lon="6.43682">
        <ele>1850.6</ele>
        <time>2024-04-27T11:33:03Z</time>
      </trkpt>
      <trkpt lat="45.85262" lon="6.43681">
        <ele>1849.7</ele>
        <time>2024-04-27T11:33:04Z</time>
      </trkpt>
      <trkpt lat="45.85264" lon="6.4368">
        <ele>1849.7</ele>
        <time>2024-04-27T11:33:05Z</time>
      </trkpt>
      <trkpt lat="45.85265" lon="6.4368">
        <ele>1848.6</ele>
        <time>2024-04-27T11:33:06Z</time>
      </trkpt>
      <trkpt lat="45.85265" lon="6.4368">
        <ele>1848.6</ele>
        <time>2024-04-27T11:33:07Z</time>
      </trkpt>
      <trkpt lat="45.85265" lon="6.4368">
        <ele>1848.6</ele>
        <time>2024-04-27T11:33:08Z</time>
      </trkpt>
      <trkpt lat="45.85265" lon="6.4368">
        <ele>1848.6</ele>
        <time>2024-04-27T11:33:09Z</time>
      </trkpt>
      <trkpt lat="45.85265" lon="6.4368">
        <ele>1847.7</ele>
        <time>2024-04-27T11:33:10Z</time>
      </trkpt>
      <trkpt lat="45.85265" lon="6.4368">
        <ele>1847.7</ele>
        <time>2024-04-27T11:33:11Z</time>
      </trkpt>
      <trkpt lat="45.85265" lon="6.4368">
        <ele>1846.7</ele>
        <time>2024-04-27T11:33:12Z</time>
      </trkpt>
      <trkpt lat="45.85265" lon="6.43679">
        <ele>1846.7</ele>
        <time>2024-04-27T11:33:13Z</time>
      </trkpt>
      <trkpt lat="45.85264" lon="6.43679">
        <ele>1845.6</ele>
        <time>2024-04-27T11:33:14Z</time>
      </trkpt>
      <trkpt lat="45.85263" lon="6.43679">
        <ele>1845.6</ele>
        <time>2024-04-27T11:33:15Z</time>
      </trkpt>
      <trkpt lat="45.85263" lon="6.43679">
        <ele>1844.7</ele>
        <time>2024-04-27T11:33:16Z</time>
      </trkpt>
      <trkpt lat="45.85262" lon="6.43679">
        <ele>1844.7</ele>
        <time>2024-04-27T11:33:17Z</time>
      </trkpt>
      <trkpt lat="45.85262" lon="6.4368">
        <ele>1843.6</ele>
        <time>2024-04-27T11:33:18Z</time>
      </trkpt>
      <trkpt lat="45.85263" lon="6.43681">
        <ele>1843.6</ele>
        <time>2024-04-27T11:33:19Z</time>
      </trkpt>
      <trkpt lat="45.85263" lon="6.43682">
        <ele>1843.6</ele>
        <time>2024-04-27T11:33:20Z</time>
      </trkpt>
      <trkpt lat="45.85263" lon="6.43682">
        <ele>1843.6</ele>
        <time>2024-04-27T11:33:21Z</time>
      </trkpt>
      <trkpt lat="45.85264" lon="6.43683">
        <ele>1843.6</ele>
        <time>2024-04-27T11:33:22Z</time>
      </trkpt>
      <trkpt lat="45.85264" lon="6.43683">
        <ele>1843.6</ele>
        <time>2024-04-27T11:33:23Z</time>
      </trkpt>
      <trkpt lat="45.85264" lon="6.43683">
        <ele>1843.6</ele>
        <time>2024-04-27T11:33:24Z</time>
      </trkpt>
      <trkpt lat="45.85264" lon="6.43683">
        <ele>1843.6</ele>
        <time>2024-04-27T11:33:25Z</time>
      </trkpt>
      <trkpt lat="45.85263" lon="6.43683">
        <ele>1841.6</ele>
        <time>2024-04-27T11:33:26Z</time>
      </trkpt>
      <trkpt lat="45.85264" lon="6.43684">
        <ele>1841.6</ele>
        <time>2024-04-27T11:33:27Z</time>
      </trkpt>
      <trkpt lat="45.85263" lon="6.43684">
        <ele>1841.6</ele>
        <time>2024-04-27T11:33:28Z</time>
      </trkpt>
      <trkpt lat="45.85263" lon="6.43684">
        <ele>1841.6</ele>
        <time>2024-04-27T11:33:29Z</time>
      </trkpt>
      <trkpt lat="45.85263" lon="6.43684">
        <ele>1841.6</ele>
        <time>2024-04-27T11:33:30Z</time>
      </trkpt>
      <trkpt lat="45.85264" lon="6.43684">
        <ele>1841.6</ele>
        <time>2024-04-27T11:33:31Z</time>
      </trkpt>
      <trkpt lat="45.85264" lon="6.43685">
        <ele>1837.7</ele>
        <time>2024-04-27T11:33:32Z</time>
      </trkpt>
      <trkpt lat="45.85264" lon="6.43684">
        <ele>1837.7</ele>
        <time>2024-04-27T11:33:33Z</time>
      </trkpt>
      <trkpt lat="45.85264" lon="6.43684">
        <ele>1836.6</ele>
        <time>2024-04-27T11:33:34Z</time>
      </trkpt>
      <trkpt lat="45.85264" lon="6.43684">
        <ele>1836.6</ele>
        <time>2024-04-27T11:33:35Z</time>
      </trkpt>
      <trkpt lat="45.85264" lon="6.43684">
        <ele>1835.7</ele>
        <time>2024-04-27T11:33:36Z</time>
      </trkpt>
      <trkpt lat="45.85264" lon="6.43684">
        <ele>1835.7</ele>
        <time>2024-04-27T11:33:37Z</time>
      </trkpt>
      <trkpt lat="45.85264" lon="6.43683">
        <ele>1834.6</ele>
        <time>2024-04-27T11:33:38Z</time>
      </trkpt>
      <trkpt lat="45.85265" lon="6.43683">
        <ele>1834.6</ele>
        <time>2024-04-27T11:33:39Z</time>
      </trkpt>
      <trkpt lat="45.85265" lon="6.43684">
        <ele>1833.7</ele>
        <time>2024-04-27T11:33:40Z</time>
      </trkpt>
      <trkpt lat="45.85265" lon="6.43684">
        <ele>1833.7</ele>
        <time>2024-04-27T11:33:41Z</time>
      </trkpt>
      <trkpt lat="45.85265" lon="6.43684">
        <ele>1832.6</ele>
        <time>2024-04-27T11:33:42Z</time>
      </trkpt>
      <trkpt lat="45.85265" lon="6.43684">
        <ele>1832.6</ele>
        <time>2024-04-27T11:33:43Z</time>
      </trkpt>
      <trkpt lat="45.85265" lon="6.43684">
        <ele>1831.7</ele>
        <time>2024-04-27T11:33:44Z</time>
      </trkpt>
      <trkpt lat="45.85265" lon="6.43684">
        <ele>1831.7</ele>
        <time>2024-04-27T11:33:45Z</time>
      </trkpt>
      <trkpt lat="45.85265" lon="6.43684">
        <ele>1830.7</ele>
        <time>2024-04-27T11:33:46Z</time>
      </trkpt>
      <trkpt lat="45.85265" lon="6.43684">
        <ele>1830.7</ele>
        <time>2024-04-27T11:33:47Z</time>
      </trkpt>
      <trkpt lat="45.85265" lon="6.43684">
        <ele>1829.6</ele>
        <time>2024-04-27T11:33:48Z</time>
      </trkpt>
      <trkpt lat="45.85265" lon="6.43684">
        <ele>1829.6</ele>
        <time>2024-04-27T11:33:49Z</time>
      </trkpt>
      <trkpt lat="45.85265" lon="6.43684">
        <ele>1828.7</ele>
        <time>2024-04-27T11:33:50Z</time>
      </trkpt>
      <trkpt lat="45.85265" lon="6.43684">
        <ele>1828.7</ele>
        <time>2024-04-27T11:33:51Z</time>
      </trkpt>
      <trkpt lat="45.85265" lon="6.43684">
        <ele>1827.6</ele>
        <time>2024-04-27T11:33:52Z</time>
      </trkpt>
      <trkpt lat="45.85265" lon="6.43684">
        <ele>1827.6</ele>
        <time>2024-04-27T11:33:53Z</time>
      </trkpt>
      <trkpt lat="45.85266" lon="6.43683">
        <ele>1825.6</ele>
        <time>2024-04-27T11:33:54Z</time>
      </trkpt>
      <trkpt lat="45.85266" lon="6.43682">
        <ele>1825.6</ele>
        <time>2024-04-27T11:33:55Z</time>
      </trkpt>
      <trkpt lat="45.85267" lon="6.43681">
        <ele>1824.7</ele>
        <time>2024-04-27T11:33:56Z</time>
      </trkpt>
      <trkpt lat="45.85268" lon="6.4368">
        <ele>1824.7</ele>
        <time>2024-04-27T11:33:57Z</time>
      </trkpt>
      <trkpt lat="45.85269" lon="6.43679">
        <ele>1823.6</ele>
        <time>2024-04-27T11:33:58Z</time>
      </trkpt>
      <trkpt lat="45.8527" lon="6.43679">
        <ele>1823.6</ele>
        <time>2024-04-27T11:33:59Z</time>
      </trkpt>
      <trkpt lat="45.8527" lon="6.43679">
        <ele>1822.6</ele>
        <time>2024-04-27T11:34:00Z</time>
      </trkpt>
      <trkpt lat="45.85271" lon="6.43679">
        <ele>1822.6</ele>
        <time>2024-04-27T11:34:01Z</time>
      </trkpt>
      <trkpt lat="45.85272" lon="6.43678">
        <ele>1820.6</ele>
        <time>2024-04-27T11:34:02Z</time>
      </trkpt>
      <trkpt lat="45.85273" lon="6.43678">
        <ele>1820.6</ele>
        <time>2024-04-27T11:34:03Z</time>
      </trkpt>
      <trkpt lat="45.85274" lon="6.43678">
        <ele>1819.7</ele>
        <time>2024-04-27T11:34:04Z</time>
      </trkpt>
      <trkpt lat="45.85274" lon="6.43678">
        <ele>1819.7</ele>
        <time>2024-04-27T11:34:05Z</time>
      </trkpt>
      <trkpt lat="45.85274" lon="6.43678">
        <ele>1818.6</ele>
        <time>2024-04-27T11:34:06Z</time>
      </trkpt>
      <trkpt lat="45.85272" lon="6.43679">
        <ele>1818.6</ele>
        <time>2024-04-27T11:34:07Z</time>
      </trkpt>
      <trkpt lat="45.85271" lon="6.4368">
        <ele>1817.7</ele>
        <time>2024-04-27T11:34:08Z</time>
      </trkpt>
      <trkpt lat="45.8527" lon="6.4368">
        <ele>1817.7</ele>
        <time>2024-04-27T11:34:09Z</time>
      </trkpt>
      <trkpt lat="45.85269" lon="6.4368">
        <ele>1816.6</ele>
        <time>2024-04-27T11:34:10Z</time>
      </trkpt>
      <trkpt lat="45.85269" lon="6.4368">
        <ele>1816.6</ele>
        <time>2024-04-27T11:34:11Z</time>
      </trkpt>
      <trkpt lat="45.85269" lon="6.4368">
        <ele>1814.6</ele>
        <time>2024-04-27T11:34:12Z</time>
      </trkpt>
      <trkpt lat="45.85269" lon="6.43681">
        <ele>1814.6</ele>
        <time>2024-04-27T11:34:13Z</time>
      </trkpt>
      <trkpt lat="45.85269" lon="6.43681">
        <ele>1812.7</ele>
        <time>2024-04-27T11:34:14Z</time>
      </trkpt>
      <trkpt lat="45.85269" lon="6.43681">
        <ele>1812.7</ele>
        <time>2024-04-27T11:34:15Z</time>
      </trkpt>
      <trkpt lat="45.85269" lon="6.43681">
        <ele>1810.7</ele>
        <time>2024-04-27T11:34:16Z</time>
      </trkpt>
      <trkpt lat="45.85269" lon="6.43681">
        <ele>1810.7</ele>
        <time>2024-04-27T11:34:17Z</time>
      </trkpt>
      <trkpt lat="45.85269" lon="6.43681">
        <ele>1809.6</ele>
        <time>2024-04-27T11:34:18Z</time>
      </trkpt>
      <trkpt lat="45.85269" lon="6.43681">
        <ele>1809.6</ele>
        <time>2024-04-27T11:34:19Z</time>
      </trkpt>
      <trkpt lat="45.85269" lon="6.43681">
        <ele>1806.6</ele>
        <time>2024-04-27T11:34:20Z</time>
      </trkpt>
      <trkpt lat="45.85269" lon="6.43681">
        <ele>1806.6</ele>
        <time>2024-04-27T11:34:21Z</time>
      </trkpt>
      <trkpt lat="45.85269" lon="6.43681">
        <ele>1804.6</ele>
        <time>2024-04-27T11:34:22Z</time>
      </trkpt>
      <trkpt lat="45.85269" lon="6.43681">
        <ele>1804.6</ele>
        <time>2024-04-27T11:34:23Z</time>
      </trkpt>
      <trkpt lat="45.85269" lon="6.43681">
        <ele>1804.6</ele>
        <time>2024-04-27T11:34:24Z</time>
      </trkpt>
      <trkpt lat="45.85269" lon="6.43681">
        <ele>1804.6</ele>
        <time>2024-04-27T11:34:25Z</time>
      </trkpt>
      <trkpt lat="45.85269" lon="6.43681">
        <ele>1804.6</ele>
        <time>2024-04-27T11:34:26Z</time>
      </trkpt>
      <trkpt lat="45.85269" lon="6.43681">
        <ele>1804.6</ele>
        <time>2024-04-27T11:34:27Z</time>
      </trkpt>
      <trkpt lat="45.85269" lon="6.43681">
        <ele>1798.6</ele>
        <time>2024-04-27T11:34:28Z</time>
      </trkpt>
      <trkpt lat="45.85269" lon="6.43681">
        <ele>1798.6</ele>
        <time>2024-04-27T11:34:29Z</time>
      </trkpt>
      <trkpt lat="45.85269" lon="6.43681">
        <ele>1798.6</ele>
        <time>2024-04-27T11:34:30Z</time>
      </trkpt>
      <trkpt lat="45.85269" lon="6.43681">
        <ele>1798.6</ele>
        <time>2024-04-27T11:34:31Z</time>
      </trkpt>
      <trkpt lat="45.85268" lon="6.43681">
        <ele>1798.6</ele>
        <time>2024-04-27T11:34:32Z</time>
      </trkpt>
      <trkpt lat="45.85267" lon="6.4368">
        <ele>1798.6</ele>
        <time>2024-04-27T11:34:33Z</time>
      </trkpt>
      <trkpt lat="45.85266" lon="6.43677">
        <ele>1791.6</ele>
        <time>2024-04-27T11:34:34Z</time>
      </trkpt>
      <trkpt lat="45.85264" lon="6.43675">
        <ele>1791.6</ele>
        <time>2024-04-27T11:34:35Z</time>
      </trkpt>
      <trkpt lat="45.85263" lon="6.4367">
        <ele>1788.6</ele>
        <time>2024-04-27T11:34:36Z</time>
      </trkpt>
      <trkpt lat="45.85262" lon="6.43668">
        <ele>1788.6</ele>
        <time>2024-04-27T11:34:37Z</time>
      </trkpt>
      <trkpt lat="45.85264" lon="6.43667">
        <ele>1785.7</ele>
        <time>2024-04-27T11:34:38Z</time>
      </trkpt>
      <trkpt lat="45.85265" lon="6.43666">
        <ele>1785.7</ele>
        <time>2024-04-27T11:34:39Z</time>
      </trkpt>
      <trkpt lat="45.85266" lon="6.43669">
        <ele>1782.6</ele>
        <time>2024-04-27T11:34:40Z</time>
      </trkpt>
      <trkpt lat="45.85269" lon="6.4367">
        <ele>1782.6</ele>
        <time>2024-04-27T11:34:41Z</time>
      </trkpt>
      <trkpt lat="45.85271" lon="6.43671">
        <ele>1780.7</ele>
        <time>2024-04-27T11:34:42Z</time>
      </trkpt>
      <trkpt lat="45.85272" lon="6.4367">
        <ele>1780.7</ele>
        <time>2024-04-27T11:34:43Z</time>
      </trkpt>
      <trkpt lat="45.85272" lon="6.43667">
        <ele>1777.6</ele>
        <time>2024-04-27T11:34:44Z</time>
      </trkpt>
      <trkpt lat="45.85272" lon="6.43662">
        <ele>1777.6</ele>
        <time>2024-04-27T11:34:45Z</time>
      </trkpt>
      <trkpt lat="45.85273" lon="6.43661">
        <ele>1774.7</ele>
        <time>2024-04-27T11:34:46Z</time>
      </trkpt>
      <trkpt lat="45.85276" lon="6.4366">
        <ele>1774.7</ele>
        <time>2024-04-27T11:34:47Z</time>
      </trkpt>
      <trkpt lat="45.85278" lon="6.43662">
        <ele>1771.7</ele>
        <time>2024-04-27T11:34:48Z</time>
      </trkpt>
      <trkpt lat="45.8528" lon="6.43664">
        <ele>1771.7</ele>
        <time>2024-04-27T11:34:49Z</time>
      </trkpt>
      <trkpt lat="45.85282" lon="6.43666">
        <ele>1768.6</ele>
        <time>2024-04-27T11:34:50Z</time>
      </trkpt>
      <trkpt lat="45.85284" lon="6.43667">
        <ele>1768.6</ele>
        <time>2024-04-27T11:34:51Z</time>
      </trkpt>
      <trkpt lat="45.85286" lon="6.43669">
        <ele>1766.6</ele>
        <time>2024-04-27T11:34:52Z</time>
      </trkpt>
      <trkpt lat="45.85288" lon="6.4367">
        <ele>1766.6</ele>
        <time>2024-04-27T11:34:53Z</time>
      </trkpt>
      <trkpt lat="45.85289" lon="6.43669">
        <ele>1764.7</ele>
        <time>2024-04-27T11:34:54Z</time>
      </trkpt>
      <trkpt lat="45.85289" lon="6.43667">
        <ele>1764.7</ele>
        <time>2024-04-27T11:34:55Z</time>
      </trkpt>
      <trkpt lat="45.8529" lon="6.43666">
        <ele>1762.7</ele>
        <time>2024-04-27T11:34:56Z</time>
      </trkpt>
      <trkpt lat="45.85292" lon="6.43665">
        <ele>1762.7</ele>
        <time>2024-04-27T11:34:57Z</time>
      </trkpt>
      <trkpt lat="45.85295" lon="6.43663">
        <ele>1759.6</ele>
        <time>2024-04-27T11:34:58Z</time>
      </trkpt>
      <trkpt lat="45.85295" lon="6.43661">
        <ele>1759.6</ele>
        <time>2024-04-27T11:34:59Z</time>
      </trkpt>
      <trkpt lat="45.85295" lon="6.43659">
        <ele>1757.7</ele>
        <time>2024-04-27T11:35:00Z</time>
      </trkpt>
      <trkpt lat="45.85294" lon="6.43657">
        <ele>1757.7</ele>
        <time>2024-04-27T11:35:01Z</time>
      </trkpt>
      <trkpt lat="45.85292" lon="6.43654">
        <ele>1755.7</ele>
        <time>2024-04-27T11:35:02Z</time>
      </trkpt>
      <trkpt lat="45.85293" lon="6.43651">
        <ele>1755.7</ele>
        <time>2024-04-27T11:35:03Z</time>
      </trkpt>
      <trkpt lat="45.85294" lon="6.43649">
        <ele>1753.7</ele>
        <time>2024-04-27T11:35:04Z</time>
      </trkpt>
      <trkpt lat="45.85296" lon="6.43648">
        <ele>1753.7</ele>
        <time>2024-04-27T11:35:05Z</time>
      </trkpt>
      <trkpt lat="45.85298" lon="6.43648">
        <ele>1751.7</ele>
        <time>2024-04-27T11:35:06Z</time>
      </trkpt>
      <trkpt lat="45.853" lon="6.43649">
        <ele>1751.7</ele>
        <time>2024-04-27T11:35:07Z</time>
      </trkpt>
      <trkpt lat="45.853" lon="6.43648">
        <ele>1749.6</ele>
        <time>2024-04-27T11:35:08Z</time>
      </trkpt>
      <trkpt lat="45.853" lon="6.43646">
        <ele>1749.6</ele>
        <time>2024-04-27T11:35:09Z</time>
      </trkpt>
      <trkpt lat="45.853" lon="6.43644">
        <ele>1748.7</ele>
        <time>2024-04-27T11:35:10Z</time>
      </trkpt>
      <trkpt lat="45.85299" lon="6.43641">
        <ele>1748.7</ele>
        <time>2024-04-27T11:35:11Z</time>
      </trkpt>
      <trkpt lat="45.85298" lon="6.43638">
        <ele>1746.7</ele>
        <time>2024-04-27T11:35:12Z</time>
      </trkpt>
      <trkpt lat="45.85299" lon="6.43636">
        <ele>1746.7</ele>
        <time>2024-04-27T11:35:13Z</time>
      </trkpt>
      <trkpt lat="45.85301" lon="6.43635">
        <ele>1744.7</ele>
        <time>2024-04-27T11:35:14Z</time>
      </trkpt>
      <trkpt lat="45.85302" lon="6.43635">
        <ele>1744.7</ele>
        <time>2024-04-27T11:35:15Z</time>
      </trkpt>
      <trkpt lat="45.85304" lon="6.43637">
        <ele>1742.7</ele>
        <time>2024-04-27T11:35:16Z</time>
      </trkpt>
      <trkpt lat="45.85305" lon="6.43637">
        <ele>1742.7</ele>
        <time>2024-04-27T11:35:17Z</time>
      </trkpt>
      <trkpt lat="45.85306" lon="6.43636">
        <ele>1741.6</ele>
        <time>2024-04-27T11:35:18Z</time>
      </trkpt>
      <trkpt lat="45.85307" lon="6.43635">
        <ele>1741.6</ele>
        <time>2024-04-27T11:35:19Z</time>
      </trkpt>
      <trkpt lat="45.85308" lon="6.43634">
        <ele>1739.7</ele>
        <time>2024-04-27T11:35:20Z</time>
      </trkpt>
      <trkpt lat="45.85309" lon="6.43633">
        <ele>1739.7</ele>
        <time>2024-04-27T11:35:21Z</time>
      </trkpt>
      <trkpt lat="45.85309" lon="6.43632">
        <ele>1738.6</ele>
        <time>2024-04-27T11:35:22Z</time>
      </trkpt>
      <trkpt lat="45.8531" lon="6.43632">
        <ele>1738.6</ele>
        <time>2024-04-27T11:35:23Z</time>
      </trkpt>
      <trkpt lat="45.8531" lon="6.43631">
        <ele>1736.6</ele>
        <time>2024-04-27T11:35:24Z</time>
      </trkpt>
      <trkpt lat="45.85312" lon="6.4363">
        <ele>1736.6</ele>
        <time>2024-04-27T11:35:25Z</time>
      </trkpt>
      <trkpt lat="45.85313" lon="6.43628">
        <ele>1735.7</ele>
        <time>2024-04-27T11:35:26Z</time>
      </trkpt>
      <trkpt lat="45.85314" lon="6.43627">
        <ele>1735.7</ele>
        <time>2024-04-27T11:35:27Z</time>
      </trkpt>
      <trkpt lat="45.85315" lon="6.43626">
        <ele>1735.7</ele>
        <time>2024-04-27T11:35:28Z</time>
      </trkpt>
      <trkpt lat="45.85316" lon="6.43625">
        <ele>1735.7</ele>
        <time>2024-04-27T11:35:29Z</time>
      </trkpt>
      <trkpt lat="45.85316" lon="6.43625">
        <ele>1735.7</ele>
        <time>2024-04-27T11:35:30Z</time>
      </trkpt>
      <trkpt lat="45.85316" lon="6.43625">
        <ele>1735.7</ele>
        <time>2024-04-27T11:35:31Z</time>
      </trkpt>
      <trkpt lat="45.85316" lon="6.43624">
        <ele>1730.7</ele>
        <time>2024-04-27T11:35:32Z</time>
      </trkpt>
      <trkpt lat="45.85316" lon="6.43623">
        <ele>1730.7</ele>
        <time>2024-04-27T11:35:33Z</time>
      </trkpt>
      <trkpt lat="45.85318" lon="6.43622">
        <ele>1729.6</ele>
        <time>2024-04-27T11:35:34Z</time>
      </trkpt>
      <trkpt lat="45.85319" lon="6.43622">
        <ele>1729.6</ele>
        <time>2024-04-27T11:35:35Z</time>
      </trkpt>
      <trkpt lat="45.8532" lon="6.43622">
        <ele>1729.6</ele>
        <time>2024-04-27T11:35:36Z</time>
      </trkpt>
      <trkpt lat="45.85321" lon="6.43622">
        <ele>1729.6</ele>
        <time>2024-04-27T11:35:37Z</time>
      </trkpt>
      <trkpt lat="45.85321" lon="6.43622">
        <ele>1729.6</ele>
        <time>2024-04-27T11:35:38Z</time>
      </trkpt>
      <trkpt lat="45.85322" lon="6.43623">
        <ele>1729.6</ele>
        <time>2024-04-27T11:35:39Z</time>
      </trkpt>
      <trkpt lat="45.85323" lon="6.43623">
        <ele>1723.7</ele>
        <time>2024-04-27T11:35:40Z</time>
      </trkpt>
      <trkpt lat="45.85326" lon="6.43624">
        <ele>1723.7</ele>
        <time>2024-04-27T11:35:41Z</time>
      </trkpt>
      <trkpt lat="45.85329" lon="6.43626">
        <ele>1721.7</ele>
        <time>2024-04-27T11:35:42Z</time>
      </trkpt>
      <trkpt lat="45.8533" lon="6.43627">
        <ele>1721.7</ele>
        <time>2024-04-27T11:35:43Z</time>
      </trkpt>
      <trkpt lat="45.85331" lon="6.43629">
        <ele>1720.6</ele>
        <time>2024-04-27T11:35:44Z</time>
      </trkpt>
      <trkpt lat="45.85333" lon="6.43632">
        <ele>1720.6</ele>
        <time>2024-04-27T11:35:45Z</time>
      </trkpt>
      <trkpt lat="45.85334" lon="6.43633">
        <ele>1718.6</ele>
        <time>2024-04-27T11:35:46Z</time>
      </trkpt>
      <trkpt lat="45.85335" lon="6.43634">
        <ele>1718.6</ele>
        <time>2024-04-27T11:35:47Z</time>
      </trkpt>
      <trkpt lat="45.85336" lon="6.43632">
        <ele>1717.6</ele>
        <time>2024-04-27T11:35:48Z</time>
      </trkpt>
      <trkpt lat="45.85336" lon="6.43629">
        <ele>1717.6</ele>
        <time>2024-04-27T11:35:49Z</time>
      </trkpt>
      <trkpt lat="45.85336" lon="6.43626">
        <ele>1716.7</ele>
        <time>2024-04-27T11:35:50Z</time>
      </trkpt>
      <trkpt lat="45.85336" lon="6.43623">
        <ele>1716.7</ele>
        <time>2024-04-27T11:35:51Z</time>
      </trkpt>
      <trkpt lat="45.85335" lon="6.43621">
        <ele>1714.7</ele>
        <time>2024-04-27T11:35:52Z</time>
      </trkpt>
      <trkpt lat="45.85335" lon="6.43618">
        <ele>1714.7</ele>
        <time>2024-04-27T11:35:53Z</time>
      </trkpt>
      <trkpt lat="45.85335" lon="6.43617">
        <ele>1713.6</ele>
        <time>2024-04-27T11:35:54Z</time>
      </trkpt>
      <trkpt lat="45.85334" lon="6.43615">
        <ele>1713.6</ele>
        <time>2024-04-27T11:35:55Z</time>
      </trkpt>
      <trkpt lat="45.85334" lon="6.43613">
        <ele>1712.7</ele>
        <time>2024-04-27T11:35:56Z</time>
      </trkpt>
      <trkpt lat="45.85334" lon="6.43612">
        <ele>1712.7</ele>
        <time>2024-04-27T11:35:57Z</time>
      </trkpt>
      <trkpt lat="45.85333" lon="6.4361">
        <ele>1711.6</ele>
        <time>2024-04-27T11:35:58Z</time>
      </trkpt>
      <trkpt lat="45.85334" lon="6.43608">
        <ele>1711.6</ele>
        <time>2024-04-27T11:35:59Z</time>
      </trkpt>
      <trkpt lat="45.85335" lon="6.43607">
        <ele>1710.7</ele>
        <time>2024-04-27T11:36:00Z</time>
      </trkpt>
      <trkpt lat="45.85337" lon="6.43607">
        <ele>1710.7</ele>
        <time>2024-04-27T11:36:01Z</time>
      </trkpt>
      <trkpt lat="45.8534" lon="6.43607">
        <ele>1708.6</ele>
        <time>2024-04-27T11:36:02Z</time>
      </trkpt>
      <trkpt lat="45.85344" lon="6.43609">
        <ele>1708.6</ele>
        <time>2024-04-27T11:36:03Z</time>
      </trkpt>
      <trkpt lat="45.85347" lon="6.43612">
        <ele>1707.7</ele>
        <time>2024-04-27T11:36:04Z</time>
      </trkpt>
      <trkpt lat="45.8535" lon="6.43615">
        <ele>1707.7</ele>
        <time>2024-04-27T11:36:05Z</time>
      </trkpt>
      <trkpt lat="45.85353" lon="6.43617">
        <ele>1705.7</ele>
        <time>2024-04-27T11:36:06Z</time>
      </trkpt>
      <trkpt lat="45.85354" lon="6.43619">
        <ele>1705.7</ele>
        <time>2024-04-27T11:36:07Z</time>
      </trkpt>
      <trkpt lat="45.85355" lon="6.43618">
        <ele>1704.6</ele>
        <time>2024-04-27T11:36:08Z</time>
      </trkpt>
      <trkpt lat="45.85356" lon="6.43616">
        <ele>1704.6</ele>
        <time>2024-04-27T11:36:09Z</time>
      </trkpt>
      <trkpt lat="45.85357" lon="6.43611">
        <ele>1703.7</ele>
        <time>2024-04-27T11:36:10Z</time>
      </trkpt>
      <trkpt lat="45.85357" lon="6.43607">
        <ele>1703.7</ele>
        <time>2024-04-27T11:36:11Z</time>
      </trkpt>
      <trkpt lat="45.85356" lon="6.43602">
        <ele>1701.7</ele>
        <time>2024-04-27T11:36:12Z</time>
      </trkpt>
      <trkpt lat="45.85355" lon="6.43599">
        <ele>1701.7</ele>
        <time>2024-04-27T11:36:13Z</time>
      </trkpt>
      <trkpt lat="45.85355" lon="6.43596">
        <ele>1700.7</ele>
        <time>2024-04-27T11:36:14Z</time>
      </trkpt>
      <trkpt lat="45.85356" lon="6.43594">
        <ele>1700.7</ele>
        <time>2024-04-27T11:36:15Z</time>
      </trkpt>
      <trkpt lat="45.85359" lon="6.43592">
        <ele>1698.7</ele>
        <time>2024-04-27T11:36:16Z</time>
      </trkpt>
      <trkpt lat="45.85362" lon="6.43593">
        <ele>1698.7</ele>
        <time>2024-04-27T11:36:17Z</time>
      </trkpt>
      <trkpt lat="45.85364" lon="6.43593">
        <ele>1697.6</ele>
        <time>2024-04-27T11:36:18Z</time>
      </trkpt>
      <trkpt lat="45.85367" lon="6.4359">
        <ele>1697.6</ele>
        <time>2024-04-27T11:36:19Z</time>
      </trkpt>
      <trkpt lat="45.85367" lon="6.43587">
        <ele>1696.7</ele>
        <time>2024-04-27T11:36:20Z</time>
      </trkpt>
      <trkpt lat="45.85366" lon="6.43583">
        <ele>1696.7</ele>
        <time>2024-04-27T11:36:21Z</time>
      </trkpt>
      <trkpt lat="45.85365" lon="6.43578">
        <ele>1694.7</ele>
        <time>2024-04-27T11:36:22Z</time>
      </trkpt>
      <trkpt lat="45.85365" lon="6.43575">
        <ele>1694.7</ele>
        <time>2024-04-27T11:36:23Z</time>
      </trkpt>
      <trkpt lat="45.85368" lon="6.43572">
        <ele>1693.6</ele>
        <time>2024-04-27T11:36:24Z</time>
      </trkpt>
      <trkpt lat="45.85371" lon="6.43572">
        <ele>1693.6</ele>
        <time>2024-04-27T11:36:25Z</time>
      </trkpt>
      <trkpt lat="45.85375" lon="6.43573">
        <ele>1691.7</ele>
        <time>2024-04-27T11:36:26Z</time>
      </trkpt>
      <trkpt lat="45.85378" lon="6.43572">
        <ele>1691.7</ele>
        <time>2024-04-27T11:36:27Z</time>
      </trkpt>
      <trkpt lat="45.8538" lon="6.43568">
        <ele>1690.6</ele>
        <time>2024-04-27T11:36:28Z</time>
      </trkpt>
      <trkpt lat="45.85379" lon="6.43564">
        <ele>1690.6</ele>
        <time>2024-04-27T11:36:29Z</time>
      </trkpt>
      <trkpt lat="45.85378" lon="6.43562">
        <ele>1689.7</ele>
        <time>2024-04-27T11:36:30Z</time>
      </trkpt>
      <trkpt lat="45.85377" lon="6.4356">
        <ele>1689.7</ele>
        <time>2024-04-27T11:36:31Z</time>
      </trkpt>
      <trkpt lat="45.85377" lon="6.43559">
        <ele>1688.6</ele>
        <time>2024-04-27T11:36:32Z</time>
      </trkpt>
      <trkpt lat="45.85378" lon="6.43556">
        <ele>1688.6</ele>
        <time>2024-04-27T11:36:33Z</time>
      </trkpt>
      <trkpt lat="45.85379" lon="6.43554">
        <ele>1687.7</ele>
        <time>2024-04-27T11:36:34Z</time>
      </trkpt>
      <trkpt lat="45.85381" lon="6.43552">
        <ele>1687.7</ele>
        <time>2024-04-27T11:36:35Z</time>
      </trkpt>
      <trkpt lat="45.85382" lon="6.43548">
        <ele>1686.6</ele>
        <time>2024-04-27T11:36:36Z</time>
      </trkpt>
      <trkpt lat="45.85384" lon="6.43545">
        <ele>1686.6</ele>
        <time>2024-04-27T11:36:37Z</time>
      </trkpt>
      <trkpt lat="45.85386" lon="6.43541">
        <ele>1686.6</ele>
        <time>2024-04-27T11:36:38Z</time>
      </trkpt>
      <trkpt lat="45.85389" lon="6.43538">
        <ele>1686.6</ele>
        <time>2024-04-27T11:36:39Z</time>
      </trkpt>
      <trkpt lat="45.85391" lon="6.43537">
        <ele>1686.6</ele>
        <time>2024-04-27T11:36:40Z</time>
      </trkpt>
      <trkpt lat="45.85393" lon="6.43536">
        <ele>1686.6</ele>
        <time>2024-04-27T11:36:41Z</time>
      </trkpt>
      <trkpt lat="45.85395" lon="6.43535">
        <ele>1682.7</ele>
        <time>2024-04-27T11:36:42Z</time>
      </trkpt>
      <trkpt lat="45.85397" lon="6.43531">
        <ele>1682.7</ele>
        <time>2024-04-27T11:36:43Z</time>
      </trkpt>
      <trkpt lat="45.85397" lon="6.43528">
        <ele>1682.7</ele>
        <time>2024-04-27T11:36:44Z</time>
      </trkpt>
      <trkpt lat="45.85397" lon="6.43524">
        <ele>1682.7</ele>
        <time>2024-04-27T11:36:45Z</time>
      </trkpt>
      <trkpt lat="45.85396" lon="6.43522">
        <ele>1682.7</ele>
        <time>2024-04-27T11:36:46Z</time>
      </trkpt>
      <trkpt lat="45.85396" lon="6.43521">
        <ele>1682.7</ele>
        <time>2024-04-27T11:36:47Z</time>
      </trkpt>
      <trkpt lat="45.85396" lon="6.4352">
        <ele>1678.7</ele>
        <time>2024-04-27T11:36:48Z</time>
      </trkpt>
      <trkpt lat="45.85397" lon="6.43519">
        <ele>1678.7</ele>
        <time>2024-04-27T11:36:49Z</time>
      </trkpt>
      <trkpt lat="45.854" lon="6.43518">
        <ele>1677.6</ele>
        <time>2024-04-27T11:36:50Z</time>
      </trkpt>
      <trkpt lat="45.85403" lon="6.43517">
        <ele>1677.6</ele>
        <time>2024-04-27T11:36:51Z</time>
      </trkpt>
      <trkpt lat="45.85406" lon="6.43518">
        <ele>1676.6</ele>
        <time>2024-04-27T11:36:52Z</time>
      </trkpt>
      <trkpt lat="45.85409" lon="6.43519">
        <ele>1676.6</ele>
        <time>2024-04-27T11:36:53Z</time>
      </trkpt>
      <trkpt lat="45.85413" lon="6.4352">
        <ele>1674.6</ele>
        <time>2024-04-27T11:36:54Z</time>
      </trkpt>
      <trkpt lat="45.85416" lon="6.4352">
        <ele>1674.6</ele>
        <time>2024-04-27T11:36:55Z</time>
      </trkpt>
      <trkpt lat="45.85417" lon="6.4352">
        <ele>1673.7</ele>
        <time>2024-04-27T11:36:56Z</time>
      </trkpt>
      <trkpt lat="45.85417" lon="6.43518">
        <ele>1673.7</ele>
        <time>2024-04-27T11:36:57Z</time>
      </trkpt>
      <trkpt lat="45.85417" lon="6.43516">
        <ele>1672.6</ele>
        <time>2024-04-27T11:36:58Z</time>
      </trkpt>
      <trkpt lat="45.85416" lon="6.43513">
        <ele>1672.6</ele>
        <time>2024-04-27T11:36:59Z</time>
      </trkpt>
      <trkpt lat="45.85414" lon="6.43511">
        <ele>1670.6</ele>
        <time>2024-04-27T11:37:00Z</time>
      </trkpt>
      <trkpt lat="45.85414" lon="6.43508">
        <ele>1670.6</ele>
        <time>2024-04-27T11:37:01Z</time>
      </trkpt>
      <trkpt lat="45.85415" lon="6.43504">
        <ele>1669.7</ele>
        <time>2024-04-27T11:37:02Z</time>
      </trkpt>
      <trkpt lat="45.85417" lon="6.43501">
        <ele>1669.7</ele>
        <time>2024-04-27T11:37:03Z</time>
      </trkpt>
      <trkpt lat="45.85419" lon="6.43499">
        <ele>1667.6</ele>
        <time>2024-04-27T11:37:04Z</time>
      </trkpt>
      <trkpt lat="45.85422" lon="6.43498">
        <ele>1667.6</ele>
        <time>2024-04-27T11:37:05Z</time>
      </trkpt>
      <trkpt lat="45.85424" lon="6.43498">
        <ele>1666.7</ele>
        <time>2024-04-27T11:37:06Z</time>
      </trkpt>
      <trkpt lat="45.85425" lon="6.43499">
        <ele>1666.7</ele>
        <time>2024-04-27T11:37:07Z</time>
      </trkpt>
      <trkpt lat="45.85427" lon="6.435">
        <ele>1665.6</ele>
        <time>2024-04-27T11:37:08Z</time>
      </trkpt>
      <trkpt lat="45.85428" lon="6.43501">
        <ele>1665.6</ele>
        <time>2024-04-27T11:37:09Z</time>
      </trkpt>
      <trkpt lat="45.85428" lon="6.43502">
        <ele>1663.6</ele>
        <time>2024-04-27T11:37:10Z</time>
      </trkpt>
      <trkpt lat="45.85428" lon="6.43503">
        <ele>1663.6</ele>
        <time>2024-04-27T11:37:11Z</time>
      </trkpt>
      <trkpt lat="45.85429" lon="6.43503">
        <ele>1662.7</ele>
        <time>2024-04-27T11:37:12Z</time>
      </trkpt>
      <trkpt lat="45.85429" lon="6.43504">
        <ele>1662.7</ele>
        <time>2024-04-27T11:37:13Z</time>
      </trkpt>
      <trkpt lat="45.85429" lon="6.43504">
        <ele>1661.6</ele>
        <time>2024-04-27T11:37:14Z</time>
      </trkpt>
      <trkpt lat="45.8543" lon="6.43504">
        <ele>1661.6</ele>
        <time>2024-04-27T11:37:15Z</time>
      </trkpt>
      <trkpt lat="45.8543" lon="6.43504">
        <ele>1659.7</ele>
        <time>2024-04-27T11:37:16Z</time>
      </trkpt>
      <trkpt lat="45.8543" lon="6.43505">
        <ele>1659.7</ele>
        <time>2024-04-27T11:37:17Z</time>
      </trkpt>
      <trkpt lat="45.85432" lon="6.43506">
        <ele>1658.6</ele>
        <time>2024-04-27T11:37:18Z</time>
      </trkpt>
      <trkpt lat="45.85433" lon="6.43507">
        <ele>1658.6</ele>
        <time>2024-04-27T11:37:19Z</time>
      </trkpt>
      <trkpt lat="45.85434" lon="6.43508">
        <ele>1657.7</ele>
        <time>2024-04-27T11:37:20Z</time>
      </trkpt>
      <trkpt lat="45.85436" lon="6.43509">
        <ele>1657.7</ele>
        <time>2024-04-27T11:37:21Z</time>
      </trkpt>
      <trkpt lat="45.85439" lon="6.43509">
        <ele>1655.7</ele>
        <time>2024-04-27T11:37:22Z</time>
      </trkpt>
      <trkpt lat="45.85442" lon="6.43509">
        <ele>1655.7</ele>
        <time>2024-04-27T11:37:23Z</time>
      </trkpt>
      <trkpt lat="45.85446" lon="6.43509">
        <ele>1654.6</ele>
        <time>2024-04-27T11:37:24Z</time>
      </trkpt>
      <trkpt lat="45.85449" lon="6.4351">
        <ele>1654.6</ele>
        <time>2024-04-27T11:37:25Z</time>
      </trkpt>
      <trkpt lat="45.85455" lon="6.4351">
        <ele>1652.6</ele>
        <time>2024-04-27T11:37:26Z</time>
      </trkpt>
      <trkpt lat="45.85459" lon="6.43511">
        <ele>1652.6</ele>
        <time>2024-04-27T11:37:27Z</time>
      </trkpt>
      <trkpt lat="45.85464" lon="6.43511">
        <ele>1651.6</ele>
        <time>2024-04-27T11:37:28Z</time>
      </trkpt>
      <trkpt lat="45.85468" lon="6.43512">
        <ele>1651.6</ele>
        <time>2024-04-27T11:37:29Z</time>
      </trkpt>
      <trkpt lat="45.85475" lon="6.43514">
        <ele>1650.7</ele>
        <time>2024-04-27T11:37:30Z</time>
      </trkpt>
      <trkpt lat="45.8548" lon="6.43517">
        <ele>1650.7</ele>
        <time>2024-04-27T11:37:31Z</time>
      </trkpt>
      <trkpt lat="45.85484" lon="6.4352">
        <ele>1648.7</ele>
        <time>2024-04-27T11:37:32Z</time>
      </trkpt>
      <trkpt lat="45.85487" lon="6.43523">
        <ele>1648.7</ele>
        <time>2024-04-27T11:37:33Z</time>
      </trkpt>
      <trkpt lat="45.85488" lon="6.43526">
        <ele>1647.6</ele>
        <time>2024-04-27T11:37:34Z</time>
      </trkpt>
      <trkpt lat="45.8549" lon="6.4353">
        <ele>1647.6</ele>
        <time>2024-04-27T11:37:35Z</time>
      </trkpt>
      <trkpt lat="45.85492" lon="6.43533">
        <ele>1646.7</ele>
        <time>2024-04-27T11:37:36Z</time>
      </trkpt>
      <trkpt lat="45.85491" lon="6.43536">
        <ele>1646.7</ele>
        <time>2024-04-27T11:37:37Z</time>
      </trkpt>
      <trkpt lat="45.85492" lon="6.43537">
        <ele>1645.6</ele>
        <time>2024-04-27T11:37:38Z</time>
      </trkpt>
      <trkpt lat="45.85491" lon="6.43537">
        <ele>1645.6</ele>
        <time>2024-04-27T11:37:39Z</time>
      </trkpt>
      <trkpt lat="45.85491" lon="6.43537">
        <ele>1644.6</ele>
        <time>2024-04-27T11:37:40Z</time>
      </trkpt>
      <trkpt lat="45.85492" lon="6.43535">
        <ele>1644.6</ele>
        <time>2024-04-27T11:37:41Z</time>
      </trkpt>
      <trkpt lat="45.85492" lon="6.43533">
        <ele>1643.7</ele>
        <time>2024-04-27T11:37:42Z</time>
      </trkpt>
      <trkpt lat="45.85493" lon="6.43532">
        <ele>1643.7</ele>
        <time>2024-04-27T11:37:43Z</time>
      </trkpt>
      <trkpt lat="45.85494" lon="6.43532">
        <ele>1642.6</ele>
        <time>2024-04-27T11:37:44Z</time>
      </trkpt>
      <trkpt lat="45.85495" lon="6.43532">
        <ele>1642.6</ele>
        <time>2024-04-27T11:37:45Z</time>
      </trkpt>
      <trkpt lat="45.85496" lon="6.43532">
        <ele>1642.6</ele>
        <time>2024-04-27T11:37:46Z</time>
      </trkpt>
      <trkpt lat="45.85497" lon="6.43532">
        <ele>1642.6</ele>
        <time>2024-04-27T11:37:47Z</time>
      </trkpt>
      <trkpt lat="45.85497" lon="6.43531">
        <ele>1641.7</ele>
        <time>2024-04-27T11:37:48Z</time>
      </trkpt>
      <trkpt lat="45.85497" lon="6.43532">
        <ele>1641.7</ele>
        <time>2024-04-27T11:37:49Z</time>
      </trkpt>
      <trkpt lat="45.85497" lon="6.43532">
        <ele>1641.7</ele>
        <time>2024-04-27T11:37:50Z</time>
      </trkpt>
      <trkpt lat="45.85497" lon="6.43531">
        <ele>1641.7</ele>
        <time>2024-04-27T11:37:51Z</time>
      </trkpt>
      <trkpt lat="45.85497" lon="6.43531">
        <ele>1640.6</ele>
        <time>2024-04-27T11:37:52Z</time>
      </trkpt>
      <trkpt lat="45.85496" lon="6.43531">
        <ele>1640.6</ele>
        <time>2024-04-27T11:37:53Z</time>
      </trkpt>
      <trkpt lat="45.85496" lon="6.43531">
        <ele>1639.7</ele>
        <time>2024-04-27T11:37:54Z</time>
      </trkpt>
      <trkpt lat="45.85496" lon="6.43531">
        <ele>1639.7</ele>
        <time>2024-04-27T11:37:55Z</time>
      </trkpt>
      <trkpt lat="45.85496" lon="6.43531">
        <ele>1638.6</ele>
        <time>2024-04-27T11:37:56Z</time>
      </trkpt>
      <trkpt lat="45.85496" lon="6.43531">
        <ele>1638.6</ele>
        <time>2024-04-27T11:37:57Z</time>
      </trkpt>
      <trkpt lat="45.85496" lon="6.43531">
        <ele>1637.7</ele>
        <time>2024-04-27T11:37:58Z</time>
      </trkpt>
      <trkpt lat="45.85496" lon="6.43531">
        <ele>1637.7</ele>
        <time>2024-04-27T11:37:59Z</time>
      </trkpt>
      <trkpt lat="45.85496" lon="6.43531">
        <ele>1636.6</ele>
        <time>2024-04-27T11:38:00Z</time>
      </trkpt>
      <trkpt lat="45.85496" lon="6.43531">
        <ele>1636.6</ele>
        <time>2024-04-27T11:38:01Z</time>
      </trkpt>
      <trkpt lat="45.85496" lon="6.43531">
        <ele>1635.6</ele>
        <time>2024-04-27T11:38:02Z</time>
      </trkpt>
      <trkpt lat="45.85496" lon="6.43531">
        <ele>1635.6</ele>
        <time>2024-04-27T11:38:03Z</time>
      </trkpt>
      <trkpt lat="45.85496" lon="6.43531">
        <ele>1635.6</ele>
        <time>2024-04-27T11:38:04Z</time>
      </trkpt>
      <trkpt lat="45.85496" lon="6.43531">
        <ele>1635.6</ele>
        <time>2024-04-27T11:38:05Z</time>
      </trkpt>
      <trkpt lat="45.85496" lon="6.43531">
        <ele>1635.6</ele>
        <time>2024-04-27T11:38:06Z</time>
      </trkpt>
      <trkpt lat="45.85496" lon="6.43531">
        <ele>1635.6</ele>
        <time>2024-04-27T11:38:07Z</time>
      </trkpt>
      <trkpt lat="45.85496" lon="6.43531">
        <ele>1631.6</ele>
        <time>2024-04-27T11:38:08Z</time>
      </trkpt>
      <trkpt lat="45.85496" lon="6.43531">
        <ele>1631.6</ele>
        <time>2024-04-27T11:38:09Z</time>
      </trkpt>
      <trkpt lat="45.85496" lon="6.43531">
        <ele>1631.6</ele>
        <time>2024-04-27T11:38:10Z</time>
      </trkpt>
      <trkpt lat="45.85496" lon="6.43531">
        <ele>1631.6</ele>
        <time>2024-04-27T11:38:11Z</time>
      </trkpt>
      <trkpt lat="45.85496" lon="6.43531">
        <ele>1631.6</ele>
        <time>2024-04-27T11:38:12Z</time>
      </trkpt>
      <trkpt lat="45.85496" lon="6.43531">
        <ele>1631.6</ele>
        <time>2024-04-27T11:38:13Z</time>
      </trkpt>
      <trkpt lat="45.85499" lon="6.43532">
        <ele>1626.6</ele>
        <time>2024-04-27T11:38:14Z</time>
      </trkpt>
      <trkpt lat="45.85502" lon="6.43535">
        <ele>1626.6</ele>
        <time>2024-04-27T11:38:15Z</time>
      </trkpt>
      <trkpt lat="45.85504" lon="6.43537">
        <ele>1625.7</ele>
        <time>2024-04-27T11:38:16Z</time>
      </trkpt>
      <trkpt lat="45.85506" lon="6.4354">
        <ele>1625.7</ele>
        <time>2024-04-27T11:38:17Z</time>
      </trkpt>
      <trkpt lat="45.85507" lon="6.43543">
        <ele>1624.6</ele>
        <time>2024-04-27T11:38:18Z</time>
      </trkpt>
      <trkpt lat="45.85508" lon="6.43545">
        <ele>1624.6</ele>
        <time>2024-04-27T11:38:19Z</time>
      </trkpt>
      <trkpt lat="45.85509" lon="6.43547">
        <ele>1622.6</ele>
        <time>2024-04-27T11:38:20Z</time>
      </trkpt>
      <trkpt lat="45.85511" lon="6.43548">
        <ele>1622.6</ele>
        <time>2024-04-27T11:38:21Z</time>
      </trkpt>
      <trkpt lat="45.85513" lon="6.43548">
        <ele>1621.7</ele>
        <time>2024-04-27T11:38:22Z</time>
      </trkpt>
      <trkpt lat="45.85514" lon="6.43547">
        <ele>1621.7</ele>
        <time>2024-04-27T11:38:23Z</time>
      </trkpt>
      <trkpt lat="45.85515" lon="6.43544">
        <ele>1620.6</ele>
        <time>2024-04-27T11:38:24Z</time>
      </trkpt>
      <trkpt lat="45.85515" lon="6.4354">
        <ele>1620.6</ele>
        <time>2024-04-27T11:38:25Z</time>
      </trkpt>
      <trkpt lat="45.85515" lon="6.43537">
        <ele>1619.6</ele>
        <time>2024-04-27T11:38:26Z</time>
      </trkpt>
      <trkpt lat="45.85517" lon="6.43534">
        <ele>1619.6</ele>
        <time>2024-04-27T11:38:27Z</time>
      </trkpt>
      <trkpt lat="45.85519" lon="6.43534">
        <ele>1618.7</ele>
        <time>2024-04-27T11:38:28Z</time>
      </trkpt>
      <trkpt lat="45.85522" lon="6.43536">
        <ele>1618.7</ele>
        <time>2024-04-27T11:38:29Z</time>
      </trkpt>
      <trkpt lat="45.85525" lon="6.43539">
        <ele>1617.6</ele>
        <time>2024-04-27T11:38:30Z</time>
      </trkpt>
      <trkpt lat="45.85528" lon="6.43542">
        <ele>1617.6</ele>
        <time>2024-04-27T11:38:31Z</time>
      </trkpt>
      <trkpt lat="45.85531" lon="6.43543">
        <ele>1616.7</ele>
        <time>2024-04-27T11:38:32Z</time>
      </trkpt>
      <trkpt lat="45.85535" lon="6.43542">
        <ele>1616.7</ele>
        <time>2024-04-27T11:38:33Z</time>
      </trkpt>
      <trkpt lat="45.85539" lon="6.43541">
        <ele>1615.6</ele>
        <time>2024-04-27T11:38:34Z</time>
      </trkpt>
      <trkpt lat="45.85542" lon="6.43538">
        <ele>1615.6</ele>
        <time>2024-04-27T11:38:35Z</time>
      </trkpt>
      <trkpt lat="45.85544" lon="6.43535">
        <ele>1614.7</ele>
        <time>2024-04-27T11:38:36Z</time>
      </trkpt>
      <trkpt lat="45.85543" lon="6.43532">
        <ele>1614.7</ele>
        <time>2024-04-27T11:38:37Z</time>
      </trkpt>
      <trkpt lat="45.85544" lon="6.4353">
        <ele>1613.6</ele>
        <time>2024-04-27T11:38:38Z</time>
      </trkpt>
      <trkpt lat="45.85544" lon="6.43528">
        <ele>1613.6</ele>
        <time>2024-04-27T11:38:39Z</time>
      </trkpt>
      <trkpt lat="45.85545" lon="6.43527">
        <ele>1612.7</ele>
        <time>2024-04-27T11:38:40Z</time>
      </trkpt>
      <trkpt lat="45.85547" lon="6.43525">
        <ele>1612.7</ele>
        <time>2024-04-27T11:38:41Z</time>
      </trkpt>
      <trkpt lat="45.8555" lon="6.43524">
        <ele>1610.6</ele>
        <time>2024-04-27T11:38:42Z</time>
      </trkpt>
      <trkpt lat="45.85553" lon="6.43522">
        <ele>1610.6</ele>
        <time>2024-04-27T11:38:43Z</time>
      </trkpt>
      <trkpt lat="45.85557" lon="6.4352">
        <ele>1609.7</ele>
        <time>2024-04-27T11:38:44Z</time>
      </trkpt>
      <trkpt lat="45.8556" lon="6.43518">
        <ele>1609.7</ele>
        <time>2024-04-27T11:38:45Z</time>
      </trkpt>
      <trkpt lat="45.85564" lon="6.43516">
        <ele>1608.6</ele>
        <time>2024-04-27T11:38:46Z</time>
      </trkpt>
      <trkpt lat="45.85567" lon="6.43514">
        <ele>1608.6</ele>
        <time>2024-04-27T11:38:47Z</time>
      </trkpt>
      <trkpt lat="45.8557" lon="6.43513">
        <ele>1607.7</ele>
        <time>2024-04-27T11:38:48Z</time>
      </trkpt>
      <trkpt lat="45.85572" lon="6.43513">
        <ele>1607.7</ele>
        <time>2024-04-27T11:38:49Z</time>
      </trkpt>
      <trkpt lat="45.85573" lon="6.43514">
        <ele>1606.6</ele>
        <time>2024-04-27T11:38:50Z</time>
      </trkpt>
      <trkpt lat="45.85573" lon="6.43514">
        <ele>1606.6</ele>
        <time>2024-04-27T11:38:51Z</time>
      </trkpt>
      <trkpt lat="45.85573" lon="6.43515">
        <ele>1604.6</ele>
        <time>2024-04-27T11:38:52Z</time>
      </trkpt>
      <trkpt lat="45.85573" lon="6.43515">
        <ele>1604.6</ele>
        <time>2024-04-27T11:38:53Z</time>
      </trkpt>
      <trkpt lat="45.85574" lon="6.43514">
        <ele>1603.6</ele>
        <time>2024-04-27T11:38:54Z</time>
      </trkpt>
      <trkpt lat="45.85574" lon="6.43514">
        <ele>1603.6</ele>
        <time>2024-04-27T11:38:55Z</time>
      </trkpt>
      <trkpt lat="45.85574" lon="6.43515">
        <ele>1602.7</ele>
        <time>2024-04-27T11:38:56Z</time>
      </trkpt>
      <trkpt lat="45.85574" lon="6.43515">
        <ele>1602.7</ele>
        <time>2024-04-27T11:38:57Z</time>
      </trkpt>
      <trkpt lat="45.85574" lon="6.43515">
        <ele>1600.7</ele>
        <time>2024-04-27T11:38:58Z</time>
      </trkpt>
      <trkpt lat="45.85575" lon="6.43516">
        <ele>1600.7</ele>
        <time>2024-04-27T11:38:59Z</time>
      </trkpt>
      <trkpt lat="45.85575" lon="6.43516">
        <ele>1599.6</ele>
        <time>2024-04-27T11:39:00Z</time>
      </trkpt>
      <trkpt lat="45.85575" lon="6.43516">
        <ele>1599.6</ele>
        <time>2024-04-27T11:39:01Z</time>
      </trkpt>
      <trkpt lat="45.85575" lon="6.43516">
        <ele>1597.6</ele>
        <time>2024-04-27T11:39:02Z</time>
      </trkpt>
      <trkpt lat="45.85575" lon="6.43516">
        <ele>1597.6</ele>
        <time>2024-04-27T11:39:03Z</time>
      </trkpt>
      <trkpt lat="45.85575" lon="6.43516">
        <ele>1596.7</ele>
        <time>2024-04-27T11:39:04Z</time>
      </trkpt>
      <trkpt lat="45.85576" lon="6.43516">
        <ele>1596.7</ele>
        <time>2024-04-27T11:39:05Z</time>
      </trkpt>
      <trkpt lat="45.85576" lon="6.43516">
        <ele>1596.7</ele>
        <time>2024-04-27T11:39:06Z</time>
      </trkpt>
      <trkpt lat="45.85577" lon="6.43516">
        <ele>1596.7</ele>
        <time>2024-04-27T11:39:07Z</time>
      </trkpt>
      <trkpt lat="45.85577" lon="6.43517">
        <ele>1596.7</ele>
        <time>2024-04-27T11:39:08Z</time>
      </trkpt>
      <trkpt lat="45.85577" lon="6.43517">
        <ele>1596.7</ele>
        <time>2024-04-27T11:39:09Z</time>
      </trkpt>
      <trkpt lat="45.85577" lon="6.43517">
        <ele>1591.7</ele>
        <time>2024-04-27T11:39:10Z</time>
      </trkpt>
      <trkpt lat="45.85577" lon="6.43517">
        <ele>1591.7</ele>
        <time>2024-04-27T11:39:11Z</time>
      </trkpt>
      <trkpt lat="45.85577" lon="6.43516">
        <ele>1591.7</ele>
        <time>2024-04-27T11:39:12Z</time>
      </trkpt>
      <trkpt lat="45.85577" lon="6.43516">
        <ele>1591.7</ele>
        <time>2024-04-27T11:39:13Z</time>
      </trkpt>
      <trkpt lat="45.85577" lon="6.43516">
        <ele>1591.7</ele>
        <time>2024-04-27T11:39:14Z</time>
      </trkpt>
      <trkpt lat="45.85578" lon="6.43516">
        <ele>1591.7</ele>
        <time>2024-04-27T11:39:15Z</time>
      </trkpt>
      <trkpt lat="45.85578" lon="6.43517">
        <ele>1587.6</ele>
        <time>2024-04-27T11:39:16Z</time>
      </trkpt>
      <trkpt lat="45.85579" lon="6.43517">
        <ele>1587.6</ele>
        <time>2024-04-27T11:39:17Z</time>
      </trkpt>
      <trkpt lat="45.8558" lon="6.43517">
        <ele>1585.6</ele>
        <time>2024-04-27T11:39:18Z</time>
      </trkpt>
      <trkpt lat="45.85581" lon="6.43519">
        <ele>1585.6</ele>
        <time>2024-04-27T11:39:19Z</time>
      </trkpt>
      <trkpt lat="45.85581" lon="6.4352">
        <ele>1584.7</ele>
        <time>2024-04-27T11:39:20Z</time>
      </trkpt>
      <trkpt lat="45.85581" lon="6.4352">
        <ele>1584.7</ele>
        <time>2024-04-27T11:39:21Z</time>
      </trkpt>
      <trkpt lat="45.85581" lon="6.43519">
        <ele>1583.6</ele>
        <time>2024-04-27T11:39:22Z</time>
      </trkpt>
      <trkpt lat="45.85581" lon="6.43519">
        <ele>1583.6</ele>
        <time>2024-04-27T11:39:23Z</time>
      </trkpt>
      <trkpt lat="45.85581" lon="6.43519">
        <ele>1582.7</ele>
        <time>2024-04-27T11:39:24Z</time>
      </trkpt>
      <trkpt lat="45.85581" lon="6.43519">
        <ele>1582.7</ele>
        <time>2024-04-27T11:39:25Z</time>
      </trkpt>
      <trkpt lat="45.85581" lon="6.43519">
        <ele>1580.7</ele>
        <time>2024-04-27T11:39:26Z</time>
      </trkpt>
      <trkpt lat="45.85581" lon="6.43519">
        <ele>1580.7</ele>
        <time>2024-04-27T11:39:27Z</time>
      </trkpt>
      <trkpt lat="45.85581" lon="6.43519">
        <ele>1579.6</ele>
        <time>2024-04-27T11:39:28Z</time>
      </trkpt>
      <trkpt lat="45.85582" lon="6.43519">
        <ele>1579.6</ele>
        <time>2024-04-27T11:39:29Z</time>
      </trkpt>
      <trkpt lat="45.85582" lon="6.43519">
        <ele>1579.6</ele>
        <time>2024-04-27T11:39:30Z</time>
      </trkpt>
      <trkpt lat="45.85582" lon="6.43519">
        <ele>1579.6</ele>
        <time>2024-04-27T11:39:31Z</time>
      </trkpt>
      <trkpt lat="45.85582" lon="6.43519">
        <ele>1578.6</ele>
        <time>2024-04-27T11:39:32Z</time>
      </trkpt>
      <trkpt lat="45.85582" lon="6.43519">
        <ele>1578.6</ele>
        <time>2024-04-27T11:39:33Z</time>
      </trkpt>
      <trkpt lat="45.85582" lon="6.43519">
        <ele>1577.7</ele>
        <time>2024-04-27T11:39:34Z</time>
      </trkpt>
      <trkpt lat="45.85582" lon="6.43519">
        <ele>1577.7</ele>
        <time>2024-04-27T11:39:35Z</time>
      </trkpt>
      <trkpt lat="45.85582" lon="6.43519">
        <ele>1576.6</ele>
        <time>2024-04-27T11:39:36Z</time>
      </trkpt>
      <trkpt lat="45.85582" lon="6.43519">
        <ele>1576.6</ele>
        <time>2024-04-27T11:39:37Z</time>
      </trkpt>
      <trkpt lat="45.85582" lon="6.43519">
        <ele>1575.7</ele>
        <time>2024-04-27T11:39:38Z</time>
      </trkpt>
      <trkpt lat="45.85582" lon="6.43519">
        <ele>1575.7</ele>
        <time>2024-04-27T11:39:39Z</time>
      </trkpt>
      <trkpt lat="45.85581" lon="6.43519">
        <ele>1575.7</ele>
        <time>2024-04-27T11:39:40Z</time>
      </trkpt>
      <trkpt lat="45.85581" lon="6.43519">
        <ele>1575.7</ele>
        <time>2024-04-27T11:39:41Z</time>
      </trkpt>
      <trkpt lat="45.85581" lon="6.43519">
        <ele>1574.6</ele>
        <time>2024-04-27T11:39:42Z</time>
      </trkpt>
      <trkpt lat="45.85581" lon="6.43519">
        <ele>1574.6</ele>
        <time>2024-04-27T11:39:43Z</time>
      </trkpt>
      <trkpt lat="45.85581" lon="6.43519">
        <ele>1572.6</ele>
        <time>2024-04-27T11:39:44Z</time>
      </trkpt>
      <trkpt lat="45.85581" lon="6.43519">
        <ele>1572.6</ele>
        <time>2024-04-27T11:39:45Z</time>
      </trkpt>
      <trkpt lat="45.85581" lon="6.43519">
        <ele>1572.6</ele>
        <time>2024-04-27T11:39:46Z</time>
      </trkpt>
      <trkpt lat="45.85581" lon="6.43519">
        <ele>1572.6</ele>
        <time>2024-04-27T11:39:47Z</time>
      </trkpt>
      <trkpt lat="45.85581" lon="6.43519">
        <ele>1572.6</ele>
        <time>2024-04-27T11:39:48Z</time>
      </trkpt>
      <trkpt lat="45.85581" lon="6.43519">
        <ele>1572.6</ele>
        <time>2024-04-27T11:39:49Z</time>
      </trkpt>
      <trkpt lat="45.85581" lon="6.43519">
        <ele>1570.7</ele>
        <time>2024-04-27T11:39:50Z</time>
      </trkpt>
      <trkpt lat="45.85581" lon="6.43519">
        <ele>1570.7</ele>
        <time>2024-04-27T11:39:51Z</time>
      </trkpt>
      <trkpt lat="45.85581" lon="6.43519">
        <ele>1569.6</ele>
        <time>2024-04-27T11:39:52Z</time>
      </trkpt>
      <trkpt lat="45.85581" lon="6.43519">
        <ele>1569.6</ele>
        <time>2024-04-27T11:39:53Z</time>
      </trkpt>
      <trkpt lat="45.85581" lon="6.43519">
        <ele>1569.6</ele>
        <time>2024-04-27T11:39:54Z</time>
      </trkpt>
      <trkpt lat="45.85581" lon="6.43519">
        <ele>1569.6</ele>
        <time>2024-04-27T11:39:55Z</time>
      </trkpt>
      <trkpt lat="45.85581" lon="6.43519">
        <ele>1568.7</ele>
        <time>2024-04-27T11:39:56Z</time>
      </trkpt>
      <trkpt lat="45.85581" lon="6.43519">
        <ele>1568.7</ele>
        <time>2024-04-27T11:39:57Z</time>
      </trkpt>
      <trkpt lat="45.8558" lon="6.43518">
        <ele>1568.7</ele>
        <time>2024-04-27T11:39:58Z</time>
      </trkpt>
      <trkpt lat="45.8558" lon="6.43518">
        <ele>1568.7</ele>
        <time>2024-04-27T11:39:59Z</time>
      </trkpt>
      <trkpt lat="45.85579" lon="6.43519">
        <ele>1568.7</ele>
        <time>2024-04-27T11:40:00Z</time>
      </trkpt>
      <trkpt lat="45.85579" lon="6.43519">
        <ele>1568.7</ele>
        <time>2024-04-27T11:40:01Z</time>
      </trkpt>
      <trkpt lat="45.85578" lon="6.4352">
        <ele>1566.7</ele>
        <time>2024-04-27T11:40:02Z</time>
      </trkpt>
      <trkpt lat="45.85578" lon="6.43519">
        <ele>1566.7</ele>
        <time>2024-04-27T11:40:03Z</time>
      </trkpt>
      <trkpt lat="45.85578" lon="6.43518">
        <ele>1565.6</ele>
        <time>2024-04-27T11:40:04Z</time>
      </trkpt>
      <trkpt lat="45.85578" lon="6.43518">
        <ele>1565.6</ele>
        <time>2024-04-27T11:40:05Z</time>
      </trkpt>
      <trkpt lat="45.85578" lon="6.43518">
        <ele>1565.6</ele>
        <time>2024-04-27T11:40:06Z</time>
      </trkpt>
      <trkpt lat="45.85578" lon="6.43518">
        <ele>1565.6</ele>
        <time>2024-04-27T11:40:07Z</time>
      </trkpt>
      <trkpt lat="45.85578" lon="6.43518">
        <ele>1565.6</ele>
        <time>2024-04-27T11:40:08Z</time>
      </trkpt>
      <trkpt lat="45.85578" lon="6.43518">
        <ele>1565.6</ele>
        <time>2024-04-27T11:40:09Z</time>
      </trkpt>
      <trkpt lat="45.85578" lon="6.43518">
        <ele>1565.6</ele>
        <time>2024-04-27T11:40:10Z</time>
      </trkpt>
      <trkpt lat="45.85578" lon="6.43518">
        <ele>1565.6</ele>
        <time>2024-04-27T11:40:11Z</time>
      </trkpt>
      <trkpt lat="45.85578" lon="6.43518">
        <ele>1565.6</ele>
        <time>2024-04-27T11:40:12Z</time>
      </trkpt>
      <trkpt lat="45.85578" lon="6.43518">
        <ele>1565.6</ele>
        <time>2024-04-27T11:40:13Z</time>
      </trkpt>
      <trkpt lat="45.85578" lon="6.43518">
        <ele>1561.7</ele>
        <time>2024-04-27T11:40:14Z</time>
      </trkpt>
      <trkpt lat="45.85578" lon="6.43518">
        <ele>1561.7</ele>
        <time>2024-04-27T11:40:15Z</time>
      </trkpt>
      <trkpt lat="45.85578" lon="6.43519">
        <ele>1560.6</ele>
        <time>2024-04-27T11:40:16Z</time>
      </trkpt>
      <trkpt lat="45.85578" lon="6.43519">
        <ele>1560.6</ele>
        <time>2024-04-27T11:40:17Z</time>
      </trkpt>
      <trkpt lat="45.85578" lon="6.43519">
        <ele>1560.6</ele>
        <time>2024-04-27T11:40:18Z</time>
      </trkpt>
      <trkpt lat="45.85578" lon="6.43519">
        <ele>1560.6</ele>
        <time>2024-04-27T11:40:19Z</time>
      </trkpt>
      <trkpt lat="45.85578" lon="6.43519">
        <ele>1560.6</ele>
        <time>2024-04-27T11:40:20Z</time>
      </trkpt>
      <trkpt lat="45.85578" lon="6.43519">
        <ele>1560.6</ele>
        <time>2024-04-27T11:40:21Z</time>
      </trkpt>
      <trkpt lat="45.85578" lon="6.43519">
        <ele>1560.6</ele>
        <time>2024-04-27T11:40:22Z</time>
      </trkpt>
      <trkpt lat="45.85578" lon="6.43519">
        <ele>1560.6</ele>
        <time>2024-04-27T11:40:23Z</time>
      </trkpt>
      <trkpt lat="45.85578" lon="6.43519">
        <ele>1559.7</ele>
        <time>2024-04-27T11:40:24Z</time>
      </trkpt>
      <trkpt lat="45.85578" lon="6.4352">
        <ele>1559.7</ele>
        <time>2024-04-27T11:40:25Z</time>
      </trkpt>
      <trkpt lat="45.85578" lon="6.4352">
        <ele>1559.7</ele>
        <time>2024-04-27T11:40:26Z</time>
      </trkpt>
      <trkpt lat="45.85578" lon="6.4352">
        <ele>1559.7</ele>
        <time>2024-04-27T11:40:27Z</time>
      </trkpt>
      <trkpt lat="45.85578" lon="6.4352">
        <ele>1558.6</ele>
        <time>2024-04-27T11:40:28Z</time>
      </trkpt>
      <trkpt lat="45.85577" lon="6.4352">
        <ele>1558.6</ele>
        <time>2024-04-27T11:40:29Z</time>
      </trkpt>
      <trkpt lat="45.85577" lon="6.4352">
        <ele>1558.6</ele>
        <time>2024-04-27T11:40:30Z</time>
      </trkpt>
      <trkpt lat="45.85577" lon="6.4352">
        <ele>1558.6</ele>
        <time>2024-04-27T11:40:31Z</time>
      </trkpt>
      <trkpt lat="45.85577" lon="6.43521">
        <ele>1558.6</ele>
        <time>2024-04-27T11:40:32Z</time>
      </trkpt>
      <trkpt lat="45.85577" lon="6.43522">
        <ele>1558.6</ele>
        <time>2024-04-27T11:40:33Z</time>
      </trkpt>
      <trkpt lat="45.85577" lon="6.43522">
        <ele>1557.7</ele>
        <time>2024-04-27T11:40:34Z</time>
      </trkpt>
      <trkpt lat="45.85577" lon="6.43522">
        <ele>1557.7</ele>
        <time>2024-04-27T11:40:35Z</time>
      </trkpt>
      <trkpt lat="45.85577" lon="6.43522">
        <ele>1557.7</ele>
        <time>2024-04-27T11:40:36Z</time>
      </trkpt>
      <trkpt lat="45.85577" lon="6.43523">
        <ele>1557.7</ele>
        <time>2024-04-27T11:40:37Z</time>
      </trkpt>
      <trkpt lat="45.85577" lon="6.43523">
        <ele>1556.6</ele>
        <time>2024-04-27T11:40:38Z</time>
      </trkpt>
      <trkpt lat="45.85577" lon="6.43523">
        <ele>1556.6</ele>
        <time>2024-04-27T11:40:39Z</time>
      </trkpt>
      <trkpt lat="45.85577" lon="6.43523">
        <ele>1555.7</ele>
        <time>2024-04-27T11:40:40Z</time>
      </trkpt>
      <trkpt lat="45.85577" lon="6.43523">
        <ele>1555.7</ele>
        <time>2024-04-27T11:40:41Z</time>
      </trkpt>
      <trkpt lat="45.85577" lon="6.43523">
        <ele>1555.7</ele>
        <time>2024-04-27T11:40:42Z</time>
      </trkpt>
      <trkpt lat="45.85577" lon="6.43522">
        <ele>1555.7</ele>
        <time>2024-04-27T11:40:43Z</time>
      </trkpt>
      <trkpt lat="45.85578" lon="6.43523">
        <ele>1555.7</ele>
        <time>2024-04-27T11:40:44Z</time>
      </trkpt>
      <trkpt lat="45.85579" lon="6.43523">
        <ele>1555.7</ele>
        <time>2024-04-27T11:40:45Z</time>
      </trkpt>
      <trkpt lat="45.85579" lon="6.43523">
        <ele>1556.6</ele>
        <time>2024-04-27T11:40:46Z</time>
      </trkpt>
      <trkpt lat="45.8558" lon="6.43523">
        <ele>1556.6</ele>
        <time>2024-04-27T11:40:47Z</time>
      </trkpt>
      <trkpt lat="45.8558" lon="6.43524">
        <ele>1557.7</ele>
        <time>2024-04-27T11:40:48Z</time>
      </trkpt>
      <trkpt lat="45.85579" lon="6.43524">
        <ele>1557.7</ele>
        <time>2024-04-27T11:40:49Z</time>
      </trkpt>
      <trkpt lat="45.85579" lon="6.43524">
        <ele>1558.6</ele>
        <time>2024-04-27T11:40:50Z</time>
      </trkpt>
      <trkpt lat="45.85579" lon="6.43523">
        <ele>1558.6</ele>
        <time>2024-04-27T11:40:51Z</time>
      </trkpt>
      <trkpt lat="45.85578" lon="6.43521">
        <ele>1559.7</ele>
        <time>2024-04-27T11:40:52Z</time>
      </trkpt>
      <trkpt lat="45.85578" lon="6.43521">
        <ele>1559.7</ele>
        <time>2024-04-27T11:40:53Z</time>
      </trkpt>
      <trkpt lat="45.85576" lon="6.4352">
        <ele>1559.7</ele>
        <time>2024-04-27T11:40:54Z</time>
      </trkpt>
      <trkpt lat="45.85577" lon="6.4352">
        <ele>1559.7</ele>
        <time>2024-04-27T11:40:55Z</time>
      </trkpt>
      <trkpt lat="45.85576" lon="6.43521">
        <ele>1559.7</ele>
        <time>2024-04-27T11:40:56Z</time>
      </trkpt>
      <trkpt lat="45.85577" lon="6.43522">
        <ele>1559.7</ele>
        <time>2024-04-27T11:40:57Z</time>
      </trkpt>
      <trkpt lat="45.85576" lon="6.43522">
        <ele>1563.6</ele>
        <time>2024-04-27T11:40:58Z</time>
      </trkpt>
      <trkpt lat="45.85576" lon="6.43522">
        <ele>1563.6</ele>
        <time>2024-04-27T11:40:59Z</time>
      </trkpt>
      <trkpt lat="45.85576" lon="6.43522">
        <ele>1565.6</ele>
        <time>2024-04-27T11:41:00Z</time>
      </trkpt>
      <trkpt lat="45.85576" lon="6.43522">
        <ele>1565.6</ele>
        <time>2024-04-27T11:41:01Z</time>
      </trkpt>
      <trkpt lat="45.85575" lon="6.43522">
        <ele>1566.7</ele>
        <time>2024-04-27T11:41:02Z</time>
      </trkpt>
      <trkpt lat="45.85575" lon="6.43522">
        <ele>1566.7</ele>
        <time>2024-04-27T11:41:03Z</time>
      </trkpt>
      <trkpt lat="45.85575" lon="6.43522">
        <ele>1567.6</ele>
        <time>2024-04-27T11:41:04Z</time>
      </trkpt>
      <trkpt lat="45.85575" lon="6.43522">
        <ele>1567.6</ele>
        <time>2024-04-27T11:41:05Z</time>
      </trkpt>
      <trkpt lat="45.85575" lon="6.43522">
        <ele>1568.7</ele>
        <time>2024-04-27T11:41:06Z</time>
      </trkpt>
      <trkpt lat="45.85575" lon="6.43522">
        <ele>1568.7</ele>
        <time>2024-04-27T11:41:07Z</time>
      </trkpt>
      <trkpt lat="45.85575" lon="6.43522">
        <ele>1569.6</ele>
        <time>2024-04-27T11:41:08Z</time>
      </trkpt>
      <trkpt lat="45.85575" lon="6.43522">
        <ele>1569.6</ele>
        <time>2024-04-27T11:41:09Z</time>
      </trkpt>
      <trkpt lat="45.85575" lon="6.43522">
        <ele>1570.7</ele>
        <time>2024-04-27T11:41:10Z</time>
      </trkpt>
      <trkpt lat="45.85575" lon="6.43522">
        <ele>1570.7</ele>
        <time>2024-04-27T11:41:11Z</time>
      </trkpt>
      <trkpt lat="45.85575" lon="6.43522">
        <ele>1570.7</ele>
        <time>2024-04-27T11:41:12Z</time>
      </trkpt>
      <trkpt lat="45.85575" lon="6.43522">
        <ele>1570.7</ele>
        <time>2024-04-27T11:41:13Z</time>
      </trkpt>
      <trkpt lat="45.85575" lon="6.43522">
        <ele>1570.7</ele>
        <time>2024-04-27T11:41:14Z</time>
      </trkpt>
      <trkpt lat="45.85575" lon="6.43521">
        <ele>1570.7</ele>
        <time>2024-04-27T11:41:15Z</time>
      </trkpt>
      <trkpt lat="45.85575" lon="6.43521">
        <ele>1576.6</ele>
        <time>2024-04-27T11:41:16Z</time>
      </trkpt>
      <trkpt lat="45.85575" lon="6.43521">
        <ele>1576.6</ele>
        <time>2024-04-27T11:41:17Z</time>
      </trkpt>
      <trkpt lat="45.85575" lon="6.43521">
        <ele>1577.7</ele>
        <time>2024-04-27T11:41:18Z</time>
      </trkpt>
      <trkpt lat="45.85575" lon="6.4352">
        <ele>1577.7</ele>
        <time>2024-04-27T11:41:19Z</time>
      </trkpt>
      <trkpt lat="45.85575" lon="6.4352">
        <ele>1579.6</ele>
        <time>2024-04-27T11:41:20Z</time>
      </trkpt>
      <trkpt lat="45.85575" lon="6.43519">
        <ele>1579.6</ele>
        <time>2024-04-27T11:41:21Z</time>
      </trkpt>
      <trkpt lat="45.85575" lon="6.43518">
        <ele>1580.7</ele>
        <time>2024-04-27T11:41:22Z</time>
      </trkpt>
      <trkpt lat="45.85575" lon="6.43518">
        <ele>1580.7</ele>
        <time>2024-04-27T11:41:23Z</time>
      </trkpt>
      <trkpt lat="45.85575" lon="6.43518">
        <ele>1580.7</ele>
        <time>2024-04-27T11:41:24Z</time>
      </trkpt>
      <trkpt lat="45.85574" lon="6.43517">
        <ele>1580.7</ele>
        <time>2024-04-27T11:41:25Z</time>
      </trkpt>
      <trkpt lat="45.85574" lon="6.43516">
        <ele>1581.6</ele>
        <time>2024-04-27T11:41:26Z</time>
      </trkpt>
      <trkpt lat="45.85574" lon="6.43514">
        <ele>1581.6</ele>
        <time>2024-04-27T11:41:27Z</time>
      </trkpt>
      <trkpt lat="45.85574" lon="6.43513">
        <ele>1581.6</ele>
        <time>2024-04-27T11:41:28Z</time>
      </trkpt>
      <trkpt lat="45.85574" lon="6.43511">
        <ele>1581.6</ele>
        <time>2024-04-27T11:41:29Z</time>
      </trkpt>
      <trkpt lat="45.85574" lon="6.4351">
        <ele>1581.6</ele>
        <time>2024-04-27T11:41:30Z</time>
      </trkpt>
      <trkpt lat="45.85574" lon="6.4351">
        <ele>1581.6</ele>
        <time>2024-04-27T11:41:31Z</time>
      </trkpt>
      <trkpt lat="45.85574" lon="6.4351">
        <ele>1581.6</ele>
        <time>2024-04-27T11:41:32Z</time>
      </trkpt>
      <trkpt lat="45.85574" lon="6.4351">
        <ele>1581.6</ele>
        <time>2024-04-27T11:41:33Z</time>
      </trkpt>
      <trkpt lat="45.85574" lon="6.4351">
        <ele>1582.7</ele>
        <time>2024-04-27T11:41:34Z</time>
      </trkpt>
      <trkpt lat="45.85574" lon="6.4351">
        <ele>1582.7</ele>
        <time>2024-04-27T11:41:35Z</time>
      </trkpt>
      <trkpt lat="45.85574" lon="6.4351">
        <ele>1585.6</ele>
        <time>2024-04-27T11:41:36Z</time>
      </trkpt>
      <trkpt lat="45.85574" lon="6.4351">
        <ele>1585.6</ele>
        <time>2024-04-27T11:41:37Z</time>
      </trkpt>
      <trkpt lat="45.85574" lon="6.4351">
        <ele>1587.6</ele>
        <time>2024-04-27T11:41:38Z</time>
      </trkpt>
      <trkpt lat="45.85574" lon="6.4351">
        <ele>1587.6</ele>
        <time>2024-04-27T11:41:39Z</time>
      </trkpt>
      <trkpt lat="45.85574" lon="6.43509">
        <ele>1589.7</ele>
        <time>2024-04-27T11:41:40Z</time>
      </trkpt>
      <trkpt lat="45.85574" lon="6.43508">
        <ele>1589.7</ele>
        <time>2024-04-27T11:41:41Z</time>
      </trkpt>
      <trkpt lat="45.85574" lon="6.43506">
        <ele>1593.7</ele>
        <time>2024-04-27T11:41:42Z</time>
      </trkpt>
      <trkpt lat="45.85575" lon="6.43506">
        <ele>1593.7</ele>
        <time>2024-04-27T11:41:43Z</time>
      </trkpt>
      <trkpt lat="45.85575" lon="6.43506">
        <ele>1598.7</ele>
        <time>2024-04-27T11:41:44Z</time>
      </trkpt>
      <trkpt lat="45.85576" lon="6.43507">
        <ele>1598.7</ele>
        <time>2024-04-27T11:41:45Z</time>
      </trkpt>
      <trkpt lat="45.85576" lon="6.43507">
        <ele>1602.7</ele>
        <time>2024-04-27T11:41:46Z</time>
      </trkpt>
      <trkpt lat="45.85577" lon="6.43508">
        <ele>1602.7</ele>
        <time>2024-04-27T11:41:47Z</time>
      </trkpt>
      <trkpt lat="45.85577" lon="6.43508">
        <ele>1607.7</ele>
        <time>2024-04-27T11:41:48Z</time>
      </trkpt>
      <trkpt lat="45.85577" lon="6.43508">
        <ele>1607.7</ele>
        <time>2024-04-27T11:41:49Z</time>
      </trkpt>
      <trkpt lat="45.85577" lon="6.43508">
        <ele>1611.7</ele>
        <time>2024-04-27T11:41:50Z</time>
      </trkpt>
      <trkpt lat="45.85577" lon="6.43507">
        <ele>1611.7</ele>
        <time>2024-04-27T11:41:51Z</time>
      </trkpt>
      <trkpt lat="45.85577" lon="6.43506">
        <ele>1615.6</ele>
        <time>2024-04-27T11:41:52Z</time>
      </trkpt>
      <trkpt lat="45.85577" lon="6.43506">
        <ele>1615.6</ele>
        <time>2024-04-27T11:41:53Z</time>
      </trkpt>
      <trkpt lat="45.85577" lon="6.43507">
        <ele>1620.6</ele>
        <time>2024-04-27T11:41:54Z</time>
      </trkpt>
      <trkpt lat="45.85577" lon="6.43507">
        <ele>1620.6</ele>
        <time>2024-04-27T11:41:55Z</time>
      </trkpt>
      <trkpt lat="45.85577" lon="6.43508">
        <ele>1620.6</ele>
        <time>2024-04-27T11:41:56Z</time>
      </trkpt>
      <trkpt lat="45.85577" lon="6.43508">
        <ele>1620.6</ele>
        <time>2024-04-27T11:41:57Z</time>
      </trkpt>
      <trkpt lat="45.85577" lon="6.43508">
        <ele>1631.6</ele>
        <time>2024-04-27T11:41:58Z</time>
      </trkpt>
      <trkpt lat="45.85577" lon="6.43508">
        <ele>1631.6</ele>
        <time>2024-04-27T11:41:59Z</time>
      </trkpt>
      <trkpt lat="45.85577" lon="6.43508">
        <ele>1637.7</ele>
        <time>2024-04-27T11:42:00Z</time>
      </trkpt>
      <trkpt lat="45.85577" lon="6.43508">
        <ele>1637.7</ele>
        <time>2024-04-27T11:42:01Z</time>
      </trkpt>
      <trkpt lat="45.85577" lon="6.43508">
        <ele>1643.7</ele>
        <time>2024-04-27T11:42:02Z</time>
      </trkpt>
      <trkpt lat="45.85577" lon="6.43508">
        <ele>1643.7</ele>
        <time>2024-04-27T11:42:03Z</time>
      </trkpt>
      <trkpt lat="45.85577" lon="6.43508">
        <ele>1649.6</ele>
        <time>2024-04-27T11:42:04Z</time>
      </trkpt>
      <trkpt lat="45.85577" lon="6.43508">
        <ele>1649.6</ele>
        <time>2024-04-27T11:42:05Z</time>
      </trkpt>
      <trkpt lat="45.85577" lon="6.43508">
        <ele>1653.7</ele>
        <time>2024-04-27T11:42:06Z</time>
      </trkpt>
      <trkpt lat="45.85577" lon="6.43508">
        <ele>1653.7</ele>
        <time>2024-04-27T11:42:07Z</time>
      </trkpt>
      <trkpt lat="45.85577" lon="6.43508">
        <ele>1657.7</ele>
        <time>2024-04-27T11:42:08Z</time>
      </trkpt>
      <trkpt lat="45.85577" lon="6.43508">
        <ele>1657.7</ele>
        <time>2024-04-27T11:42:09Z</time>
      </trkpt>
      <trkpt lat="45.85577" lon="6.43508">
        <ele>1660.6</ele>
        <time>2024-04-27T11:42:10Z</time>
      </trkpt>
      <trkpt lat="45.85577" lon="6.43508">
        <ele>1660.6</ele>
        <time>2024-04-27T11:42:11Z</time>
      </trkpt>
      <trkpt lat="45.85577" lon="6.43508">
        <ele>1662.7</ele>
        <time>2024-04-27T11:42:12Z</time>
      </trkpt>
      <trkpt lat="45.85577" lon="6.43508">
        <ele>1662.7</ele>
        <time>2024-04-27T11:42:13Z</time>
      </trkpt>
      <trkpt lat="45.85577" lon="6.43508">
        <ele>1662.7</ele>
        <time>2024-04-27T11:42:14Z</time>
      </trkpt>
      <trkpt lat="45.85577" lon="6.43508">
        <ele>1662.7</ele>
        <time>2024-04-27T11:42:15Z</time>
      </trkpt>
      <trkpt lat="45.85577" lon="6.43508">
        <ele>1662.7</ele>
        <time>2024-04-27T11:42:16Z</time>
      </trkpt>
      <trkpt lat="45.85577" lon="6.43509">
        <ele>1662.7</ele>
        <time>2024-04-27T11:42:17Z</time>
      </trkpt>
      <trkpt lat="45.85577" lon="6.43509">
        <ele>1667.6</ele>
        <time>2024-04-27T11:42:18Z</time>
      </trkpt>
      <trkpt lat="45.85577" lon="6.43509">
        <ele>1667.6</ele>
        <time>2024-04-27T11:42:19Z</time>
      </trkpt>
      <trkpt lat="45.85577" lon="6.43509">
        <ele>1668.6</ele>
        <time>2024-04-27T11:42:20Z</time>
      </trkpt>
      <trkpt lat="45.85578" lon="6.43509">
        <ele>1668.6</ele>
        <time>2024-04-27T11:42:21Z</time>
      </trkpt>
      <trkpt lat="45.85578" lon="6.43509">
        <ele>1668.6</ele>
        <time>2024-04-27T11:42:22Z</time>
      </trkpt>
      <trkpt lat="45.85578" lon="6.4351">
        <ele>1668.6</ele>
        <time>2024-04-27T11:42:23Z</time>
      </trkpt>
      <trkpt lat="45.85578" lon="6.4351">
        <ele>1667.6</ele>
        <time>2024-04-27T11:42:24Z</time>
      </trkpt>
      <trkpt lat="45.85578" lon="6.43511">
        <ele>1667.6</ele>
        <time>2024-04-27T11:42:25Z</time>
      </trkpt>
      <trkpt lat="45.85578" lon="6.43512">
        <ele>1667.6</ele>
        <time>2024-04-27T11:42:26Z</time>
      </trkpt>
      <trkpt lat="45.85578" lon="6.43513">
        <ele>1667.6</ele>
        <time>2024-04-27T11:42:27Z</time>
      </trkpt>
      <trkpt lat="45.85579" lon="6.43514">
        <ele>1667.6</ele>
        <time>2024-04-27T11:42:28Z</time>
      </trkpt>
      <trkpt lat="45.85579" lon="6.43516">
        <ele>1667.6</ele>
        <time>2024-04-27T11:42:29Z</time>
      </trkpt>
      <trkpt lat="45.85579" lon="6.43519">
        <ele>1666.7</ele>
        <time>2024-04-27T11:42:30Z</time>
      </trkpt>
      <trkpt lat="45.8558" lon="6.43521">
        <ele>1666.7</ele>
        <time>2024-04-27T11:42:31Z</time>
      </trkpt>
      <trkpt lat="45.8558" lon="6.43521">
        <ele>1666.7</ele>
        <time>2024-04-27T11:42:32Z</time>
      </trkpt>
      <trkpt lat="45.8558" lon="6.43521">
        <ele>1666.7</ele>
        <time>2024-04-27T11:42:33Z</time>
      </trkpt>
      <trkpt lat="45.8558" lon="6.43522">
        <ele>1664.7</ele>
        <time>2024-04-27T11:42:34Z</time>
      </trkpt>
      <trkpt lat="45.8558" lon="6.43521">
        <ele>1664.7</ele>
        <time>2024-04-27T11:42:35Z</time>
      </trkpt>
      <trkpt lat="45.8558" lon="6.43521">
        <ele>1664.7</ele>
        <time>2024-04-27T11:42:36Z</time>
      </trkpt>
      <trkpt lat="45.8558" lon="6.43521">
        <ele>1664.7</ele>
        <time>2024-04-27T11:42:37Z</time>
      </trkpt>
      <trkpt lat="45.85579" lon="6.4352">
        <ele>1664.7</ele>
        <time>2024-04-27T11:42:38Z</time>
      </trkpt>
      <trkpt lat="45.85579" lon="6.4352">
        <ele>1664.7</ele>
        <time>2024-04-27T11:42:39Z</time>
      </trkpt>
      <trkpt lat="45.85578" lon="6.43519">
        <ele>1664.7</ele>
        <time>2024-04-27T11:42:40Z</time>
      </trkpt>
      <trkpt lat="45.85579" lon="6.43518">
        <ele>1664.7</ele>
        <time>2024-04-27T11:42:41Z</time>
      </trkpt>
      <trkpt lat="45.85579" lon="6.43518">
        <ele>1664.7</ele>
        <time>2024-04-27T11:42:42Z</time>
      </trkpt>
      <trkpt lat="45.8558" lon="6.43517">
        <ele>1664.7</ele>
        <time>2024-04-27T11:42:43Z</time>
      </trkpt>
      <trkpt lat="45.85581" lon="6.43517">
        <ele>1664.7</ele>
        <time>2024-04-27T11:42:44Z</time>
      </trkpt>
      <trkpt lat="45.85581" lon="6.43517">
        <ele>1664.7</ele>
        <time>2024-04-27T11:42:45Z</time>
      </trkpt>
      <trkpt lat="45.85581" lon="6.43517">
        <ele>1664.7</ele>
        <time>2024-04-27T11:42:46Z</time>
      </trkpt>
      <trkpt lat="45.85581" lon="6.43517">
        <ele>1664.7</ele>
        <time>2024-04-27T11:42:47Z</time>
      </trkpt>
      <trkpt lat="45.85581" lon="6.43517">
        <ele>1664.7</ele>
        <time>2024-04-27T11:42:48Z</time>
      </trkpt>
      <trkpt lat="45.85581" lon="6.43517">
        <ele>1664.7</ele>
        <time>2024-04-27T11:42:49Z</time>
      </trkpt>
      <trkpt lat="45.85581" lon="6.43517">
        <ele>1664.7</ele>
        <time>2024-04-27T11:42:50Z</time>
      </trkpt>
      <trkpt lat="45.85581" lon="6.43517">
        <ele>1664.7</ele>
        <time>2024-04-27T11:42:51Z</time>
      </trkpt>
      <trkpt lat="45.85581" lon="6.43517">
        <ele>1664.7</ele>
        <time>2024-04-27T11:42:52Z</time>
      </trkpt>
      <trkpt lat="45.85581" lon="6.43517">
        <ele>1664.7</ele>
        <time>2024-04-27T11:42:53Z</time>
      </trkpt>
      <trkpt lat="45.85581" lon="6.43517">
        <ele>1664.7</ele>
        <time>2024-04-27T11:42:54Z</time>
      </trkpt>
      <trkpt lat="45.85581" lon="6.43517">
        <ele>1664.7</ele>
        <time>2024-04-27T11:42:55Z</time>
      </trkpt>
      <trkpt lat="45.85581" lon="6.43517">
        <ele>1664.7</ele>
        <time>2024-04-27T11:42:56Z</time>
      </trkpt>
      <trkpt lat="45.85581" lon="6.43517">
        <ele>1664.7</ele>
        <time>2024-04-27T11:42:57Z</time>
      </trkpt>
      <trkpt lat="45.85581" lon="6.43517">
        <ele>1664.7</ele>
        <time>2024-04-27T11:42:58Z</time>
      </trkpt>
      <trkpt lat="45.85581" lon="6.43517">
        <ele>1664.7</ele>
        <time>2024-04-27T11:42:59Z</time>
      </trkpt>
      <trkpt lat="45.85581" lon="6.43516">
        <ele>1664.7</ele>
        <time>2024-04-27T11:43:00Z</time>
      </trkpt>
      <trkpt lat="45.85581" lon="6.43515">
        <ele>1664.7</ele>
        <time>2024-04-27T11:43:01Z</time>
      </trkpt>
      <trkpt lat="45.85581" lon="6.43514">
        <ele>1664.7</ele>
        <time>2024-04-27T11:43:02Z</time>
      </trkpt>
      <trkpt lat="45.85581" lon="6.43514">
        <ele>1664.7</ele>
        <time>2024-04-27T11:43:03Z</time>
      </trkpt>
      <trkpt lat="45.85582" lon="6.43514">
        <ele>1664.7</ele>
        <time>2024-04-27T11:43:04Z</time>
      </trkpt>
      <trkpt lat="45.85582" lon="6.43515">
        <ele>1664.7</ele>
        <time>2024-04-27T11:43:05Z</time>
      </trkpt>
      <trkpt lat="45.85581" lon="6.43514">
        <ele>1664.7</ele>
        <time>2024-04-27T11:43:06Z</time>
      </trkpt>
      <trkpt lat="45.8558" lon="6.43513">
        <ele>1664.7</ele>
        <time>2024-04-27T11:43:07Z</time>
      </trkpt>
      <trkpt lat="45.8558" lon="6.43513">
        <ele>1664.7</ele>
        <time>2024-04-27T11:43:08Z</time>
      </trkpt>
      <trkpt lat="45.85579" lon="6.43513">
        <ele>1664.7</ele>
        <time>2024-04-27T11:43:09Z</time>
      </trkpt>
      <trkpt lat="45.85579" lon="6.43513">
        <ele>1664.7</ele>
        <time>2024-04-27T11:43:10Z</time>
      </trkpt>
      <trkpt lat="45.85579" lon="6.43513">
        <ele>1664.7</ele>
        <time>2024-04-27T11:43:11Z</time>
      </trkpt>
      <trkpt lat="45.85579" lon="6.43513">
        <ele>1664.7</ele>
        <time>2024-04-27T11:43:12Z</time>
      </trkpt>
      <trkpt lat="45.85579" lon="6.43513">
        <ele>1664.7</ele>
        <time>2024-04-27T11:43:13Z</time>
      </trkpt>
      <trkpt lat="45.85579" lon="6.43513">
        <ele>1664.7</ele>
        <time>2024-04-27T11:43:14Z</time>
      </trkpt>
      <trkpt lat="45.85579" lon="6.43513">
        <ele>1664.7</ele>
        <time>2024-04-27T11:43:15Z</time>
      </trkpt>
      <trkpt lat="45.85579" lon="6.43513">
        <ele>1663.6</ele>
        <time>2024-04-27T11:43:16Z</time>
      </trkpt>
      <trkpt lat="45.85579" lon="6.43513">
        <ele>1663.6</ele>
        <time>2024-04-27T11:43:17Z</time>
      </trkpt>
      <trkpt lat="45.85579" lon="6.43513">
        <ele>1663.6</ele>
        <time>2024-04-27T11:43:18Z</time>
      </trkpt>
      <trkpt lat="45.85579" lon="6.43513">
        <ele>1663.6</ele>
        <time>2024-04-27T11:43:19Z</time>
      </trkpt>
      <trkpt lat="45.85579" lon="6.43513">
        <ele>1662.7</ele>
        <time>2024-04-27T11:43:20Z</time>
      </trkpt>
      <trkpt lat="45.85579" lon="6.43513">
        <ele>1662.7</ele>
        <time>2024-04-27T11:43:21Z</time>
      </trkpt>
      <trkpt lat="45.8558" lon="6.43513">
        <ele>1662.7</ele>
        <time>2024-04-27T11:43:22Z</time>
      </trkpt>
      <trkpt lat="45.8558" lon="6.43513">
        <ele>1662.7</ele>
        <time>2024-04-27T11:43:23Z</time>
      </trkpt>
      <trkpt lat="45.8558" lon="6.43513">
        <ele>1662.7</ele>
        <time>2024-04-27T11:43:24Z</time>
      </trkpt>
      <trkpt lat="45.8558" lon="6.43512">
        <ele>1662.7</ele>
        <time>2024-04-27T11:43:25Z</time>
      </trkpt>
      <trkpt lat="45.8558" lon="6.43512">
        <ele>1662.7</ele>
        <time>2024-04-27T11:43:26Z</time>
      </trkpt>
      <trkpt lat="45.8558" lon="6.43512">
        <ele>1662.7</ele>
        <time>2024-04-27T11:43:27Z</time>
      </trkpt>
      <trkpt lat="45.8558" lon="6.43512">
        <ele>1662.7</ele>
        <time>2024-04-27T11:43:28Z</time>
      </trkpt>
      <trkpt lat="45.8558" lon="6.43512">
        <ele>1662.7</ele>
        <time>2024-04-27T11:43:29Z</time>
      </trkpt>
      <trkpt lat="45.8558" lon="6.43512">
        <ele>1662.7</ele>
        <time>2024-04-27T11:43:30Z</time>
      </trkpt>
      <trkpt lat="45.8558" lon="6.43512">
        <ele>1662.7</ele>
        <time>2024-04-27T11:43:31Z</time>
      </trkpt>
      <trkpt lat="45.8558" lon="6.43512">
        <ele>1662.7</ele>
        <time>2024-04-27T11:43:32Z</time>
      </trkpt>
      <trkpt lat="45.8558" lon="6.43512">
        <ele>1662.7</ele>
        <time>2024-04-27T11:43:33Z</time>
      </trkpt>
      <trkpt lat="45.8558" lon="6.43512">
        <ele>1660.6</ele>
        <time>2024-04-27T11:43:34Z</time>
      </trkpt>
      <trkpt lat="45.8558" lon="6.43512">
        <ele>1660.6</ele>
        <time>2024-04-27T11:43:35Z</time>
      </trkpt>
      <trkpt lat="45.8558" lon="6.43512">
        <ele>1660.6</ele>
        <time>2024-04-27T11:43:36Z</time>
      </trkpt>
      <trkpt lat="45.8558" lon="6.43512">
        <ele>1660.6</ele>
        <time>2024-04-27T11:43:37Z</time>
      </trkpt>
      <trkpt lat="45.8558" lon="6.43512">
        <ele>1660.6</ele>
        <time>2024-04-27T11:43:38Z</time>
      </trkpt>
      <trkpt lat="45.8558" lon="6.43512">
        <ele>1660.6</ele>
        <time>2024-04-27T11:43:39Z</time>
      </trkpt>
      <trkpt lat="45.8558" lon="6.43512">
        <ele>1661.6</ele>
        <time>2024-04-27T11:43:40Z</time>
      </trkpt>
      <trkpt lat="45.8558" lon="6.43512">
        <ele>1661.6</ele>
        <time>2024-04-27T11:43:41Z</time>
      </trkpt>
      <trkpt lat="45.8558" lon="6.43512">
        <ele>1661.6</ele>
        <time>2024-04-27T11:43:42Z</time>
      </trkpt>
      <trkpt lat="45.8558" lon="6.43512">
        <ele>1661.6</ele>
        <time>2024-04-27T11:43:43Z</time>
      </trkpt>
      <trkpt lat="45.8558" lon="6.43512">
        <ele>1661.6</ele>
        <time>2024-04-27T11:43:44Z</time>
      </trkpt>
      <trkpt lat="45.8558" lon="6.43512">
        <ele>1661.6</ele>
        <time>2024-04-27T11:43:45Z</time>
      </trkpt>
      <trkpt lat="45.85579" lon="6.43512">
        <ele>1660.6</ele>
        <time>2024-04-27T11:43:46Z</time>
      </trkpt>
      <trkpt lat="45.85579" lon="6.43512">
        <ele>1660.6</ele>
        <time>2024-04-27T11:43:47Z</time>
      </trkpt>
      <trkpt lat="45.85579" lon="6.43512">
        <ele>1660.6</ele>
        <time>2024-04-27T11:43:48Z</time>
      </trkpt>
      <trkpt lat="45.85579" lon="6.43512">
        <ele>1660.6</ele>
        <time>2024-04-27T11:43:49Z</time>
      </trkpt>
      <trkpt lat="45.85578" lon="6.43512">
        <ele>1659.7</ele>
        <time>2024-04-27T11:43:50Z</time>
      </trkpt>
      <trkpt lat="45.85578" lon="6.43512">
        <ele>1659.7</ele>
        <time>2024-04-27T11:43:51Z</time>
      </trkpt>
      <trkpt lat="45.85578" lon="6.43512">
        <ele>1659.7</ele>
        <time>2024-04-27T11:43:52Z</time>
      </trkpt>
      <trkpt lat="45.85578" lon="6.43512">
        <ele>1659.7</ele>
        <time>2024-04-27T11:43:53Z</time>
      </trkpt>
      <trkpt lat="45.85578" lon="6.43512">
        <ele>1658.6</ele>
        <time>2024-04-27T11:43:54Z</time>
      </trkpt>
      <trkpt lat="45.85577" lon="6.43512">
        <ele>1658.6</ele>
        <time>2024-04-27T11:43:55Z</time>
      </trkpt>
      <trkpt lat="45.85577" lon="6.43512">
        <ele>1658.6</ele>
        <time>2024-04-27T11:43:56Z</time>
      </trkpt>
      <trkpt lat="45.85577" lon="6.43512">
        <ele>1658.6</ele>
        <time>2024-04-27T11:43:57Z</time>
      </trkpt>
      <trkpt lat="45.85577" lon="6.43512">
        <ele>1658.6</ele>
        <time>2024-04-27T11:43:58Z</time>
      </trkpt>
      <trkpt lat="45.85577" lon="6.43512">
        <ele>1658.6</ele>
        <time>2024-04-27T11:43:59Z</time>
      </trkpt>
      <trkpt lat="45.85577" lon="6.43512">
        <ele>1658.6</ele>
        <time>2024-04-27T11:44:00Z</time>
      </trkpt>
      <trkpt lat="45.85576" lon="6.43512">
        <ele>1658.6</ele>
        <time>2024-04-27T11:44:01Z</time>
      </trkpt>
      <trkpt lat="45.85576" lon="6.43512">
        <ele>1657.7</ele>
        <time>2024-04-27T11:44:02Z</time>
      </trkpt>
      <trkpt lat="45.85576" lon="6.43512">
        <ele>1657.7</ele>
        <time>2024-04-27T11:44:03Z</time>
      </trkpt>
      <trkpt lat="45.85576" lon="6.43512">
        <ele>1657.7</ele>
        <time>2024-04-27T11:44:04Z</time>
      </trkpt>
      <trkpt lat="45.85576" lon="6.43512">
        <ele>1657.7</ele>
        <time>2024-04-27T11:44:05Z</time>
      </trkpt>
      <trkpt lat="45.85576" lon="6.43513">
        <ele>1657.7</ele>
        <time>2024-04-27T11:44:06Z</time>
      </trkpt>
      <trkpt lat="45.85576" lon="6.43513">
        <ele>1657.7</ele>
        <time>2024-04-27T11:44:07Z</time>
      </trkpt>
      <trkpt lat="45.85576" lon="6.43513">
        <ele>1657.7</ele>
        <time>2024-04-27T11:44:08Z</time>
      </trkpt>
      <trkpt lat="45.85576" lon="6.43513">
        <ele>1657.7</ele>
        <time>2024-04-27T11:44:09Z</time>
      </trkpt>
      <trkpt lat="45.85575" lon="6.43513">
        <ele>1657.7</ele>
        <time>2024-04-27T11:44:10Z</time>
      </trkpt>
      <trkpt lat="45.85575" lon="6.43513">
        <ele>1657.7</ele>
        <time>2024-04-27T11:44:11Z</time>
      </trkpt>
      <trkpt lat="45.85575" lon="6.43513">
        <ele>1656.6</ele>
        <time>2024-04-27T11:44:12Z</time>
      </trkpt>
      <trkpt lat="45.85575" lon="6.43513">
        <ele>1656.6</ele>
        <time>2024-04-27T11:44:13Z</time>
      </trkpt>
      <trkpt lat="45.85575" lon="6.43513">
        <ele>1656.6</ele>
        <time>2024-04-27T11:44:14Z</time>
      </trkpt>
      <trkpt lat="45.85575" lon="6.43513">
        <ele>1656.6</ele>
        <time>2024-04-27T11:44:15Z</time>
      </trkpt>
      <trkpt lat="45.85575" lon="6.43513">
        <ele>1656.6</ele>
        <time>2024-04-27T11:44:16Z</time>
      </trkpt>
      <trkpt lat="45.85575" lon="6.43513">
        <ele>1656.6</ele>
        <time>2024-04-27T11:44:17Z</time>
      </trkpt>
      <trkpt lat="45.85575" lon="6.43513">
        <ele>1656.6</ele>
        <time>2024-04-27T11:44:18Z</time>
      </trkpt>
      <trkpt lat="45.85575" lon="6.43513">
        <ele>1656.6</ele>
        <time>2024-04-27T11:44:19Z</time>
      </trkpt>
      <trkpt lat="45.85575" lon="6.43513">
        <ele>1656.6</ele>
        <time>2024-04-27T11:44:20Z</time>
      </trkpt>
      <trkpt lat="45.85575" lon="6.43513">
        <ele>1656.6</ele>
        <time>2024-04-27T11:44:21Z</time>
      </trkpt>
      <trkpt lat="45.85575" lon="6.43513">
        <ele>1656.6</ele>
        <time>2024-04-27T11:44:22Z</time>
      </trkpt>
      <trkpt lat="45.85575" lon="6.43513">
        <ele>1656.6</ele>
        <time>2024-04-27T11:44:23Z</time>
      </trkpt>
      <trkpt lat="45.85575" lon="6.43514">
        <ele>1656.6</ele>
        <time>2024-04-27T11:44:24Z</time>
      </trkpt>
      <trkpt lat="45.85575" lon="6.43515">
        <ele>1656.6</ele>
        <time>2024-04-27T11:44:25Z</time>
      </trkpt>
      <trkpt lat="45.85575" lon="6.43516">
        <ele>1656.6</ele>
        <time>2024-04-27T11:44:26Z</time>
      </trkpt>
      <trkpt lat="45.85575" lon="6.43516">
        <ele>1656.6</ele>
        <time>2024-04-27T11:44:27Z</time>
      </trkpt>
      <trkpt lat="45.85575" lon="6.43516">
        <ele>1656.6</ele>
        <time>2024-04-27T11:44:28Z</time>
      </trkpt>
      <trkpt lat="45.85575" lon="6.43517">
        <ele>1656.6</ele>
        <time>2024-04-27T11:44:29Z</time>
      </trkpt>
      <trkpt lat="45.85575" lon="6.43517">
        <ele>1656.6</ele>
        <time>2024-04-27T11:44:30Z</time>
      </trkpt>
      <trkpt lat="45.85576" lon="6.43517">
        <ele>1656.6</ele>
        <time>2024-04-27T11:44:31Z</time>
      </trkpt>
      <trkpt lat="45.85576" lon="6.43517">
        <ele>1656.6</ele>
        <time>2024-04-27T11:44:32Z</time>
      </trkpt>
      <trkpt lat="45.85576" lon="6.43517">
        <ele>1656.6</ele>
        <time>2024-04-27T11:44:33Z</time>
      </trkpt>
      <trkpt lat="45.85576" lon="6.43517">
        <ele>1656.6</ele>
        <time>2024-04-27T11:44:34Z</time>
      </trkpt>
      <trkpt lat="45.85576" lon="6.43517">
        <ele>1656.6</ele>
        <time>2024-04-27T11:44:35Z</time>
      </trkpt>
      <trkpt lat="45.85576" lon="6.43517">
        <ele>1656.6</ele>
        <time>2024-04-27T11:44:36Z</time>
      </trkpt>
      <trkpt lat="45.85576" lon="6.43517">
        <ele>1656.6</ele>
        <time>2024-04-27T11:44:37Z</time>
      </trkpt>
      <trkpt lat="45.85576" lon="6.43517">
        <ele>1656.6</ele>
        <time>2024-04-27T11:44:38Z</time>
      </trkpt>
      <trkpt lat="45.85576" lon="6.43517">
        <ele>1656.6</ele>
        <time>2024-04-27T11:44:39Z</time>
      </trkpt>
      <trkpt lat="45.85576" lon="6.43517">
        <ele>1655.7</ele>
        <time>2024-04-27T11:44:40Z</time>
      </trkpt>
      <trkpt lat="45.85576" lon="6.43517">
        <ele>1655.7</ele>
        <time>2024-04-27T11:44:41Z</time>
      </trkpt>
      <trkpt lat="45.85576" lon="6.43517">
        <ele>1655.7</ele>
        <time>2024-04-27T11:44:42Z</time>
      </trkpt>
      <trkpt lat="45.85576" lon="6.43517">
        <ele>1655.7</ele>
        <time>2024-04-27T11:44:43Z</time>
      </trkpt>
      <trkpt lat="45.85576" lon="6.43517">
        <ele>1655.7</ele>
        <time>2024-04-27T11:44:44Z</time>
      </trkpt>
      <trkpt lat="45.85576" lon="6.43517">
        <ele>1655.7</ele>
        <time>2024-04-27T11:44:45Z</time>
      </trkpt>
      <trkpt lat="45.85576" lon="6.43517">
        <ele>1654.6</ele>
        <time>2024-04-27T11:44:46Z</time>
      </trkpt>
      <trkpt lat="45.85576" lon="6.43517">
        <ele>1654.6</ele>
        <time>2024-04-27T11:44:47Z</time>
      </trkpt>
      <trkpt lat="45.85576" lon="6.43517">
        <ele>1654.6</ele>
        <time>2024-04-27T11:44:48Z</time>
      </trkpt>
      <trkpt lat="45.85576" lon="6.43517">
        <ele>1654.6</ele>
        <time>2024-04-27T11:44:49Z</time>
      </trkpt>
      <trkpt lat="45.85576" lon="6.43517">
        <ele>1654.6</ele>
        <time>2024-04-27T11:44:50Z</time>
      </trkpt>
      <trkpt lat="45.85576" lon="6.43517">
        <ele>1654.6</ele>
        <time>2024-04-27T11:44:51Z</time>
      </trkpt>
      <trkpt lat="45.85576" lon="6.43517">
        <ele>1654.6</ele>
        <time>2024-04-27T11:44:52Z</time>
      </trkpt>
      <trkpt lat="45.85576" lon="6.43517">
        <ele>1654.6</ele>
        <time>2024-04-27T11:44:53Z</time>
      </trkpt>
      <trkpt lat="45.85576" lon="6.43517">
        <ele>1654.6</ele>
        <time>2024-04-27T11:44:54Z</time>
      </trkpt>
      <trkpt lat="45.85576" lon="6.43517">
        <ele>1654.6</ele>
        <time>2024-04-27T11:44:55Z</time>
      </trkpt>
      <trkpt lat="45.85576" lon="6.43517">
        <ele>1654.6</ele>
        <time>2024-04-27T11:44:56Z</time>
      </trkpt>
      <trkpt lat="45.85576" lon="6.43518">
        <ele>1654.6</ele>
        <time>2024-04-27T11:44:57Z</time>
      </trkpt>
      <trkpt lat="45.85576" lon="6.43519">
        <ele>1654.6</ele>
        <time>2024-04-27T11:44:58Z</time>
      </trkpt>
      <trkpt lat="45.85576" lon="6.43519">
        <ele>1654.6</ele>
        <time>2024-04-27T11:44:59Z</time>
      </trkpt>
      <trkpt lat="45.85577" lon="6.43519">
        <ele>1654.6</ele>
        <time>2024-04-27T11:45:00Z</time>
      </trkpt>
      <trkpt lat="45.85577" lon="6.4352">
        <ele>1654.6</ele>
        <time>2024-04-27T11:45:01Z</time>
      </trkpt>
      <trkpt lat="45.85577" lon="6.4352">
        <ele>1654.6</ele>
        <time>2024-04-27T11:45:02Z</time>
      </trkpt>
      <trkpt lat="45.85577" lon="6.4352">
        <ele>1654.6</ele>
        <time>2024-04-27T11:45:03Z</time>
      </trkpt>
      <trkpt lat="45.85578" lon="6.4352">
        <ele>1654.6</ele>
        <time>2024-04-27T11:45:04Z</time>
      </trkpt>
      <trkpt lat="45.85578" lon="6.4352">
        <ele>1654.6</ele>
        <time>2024-04-27T11:45:05Z</time>
      </trkpt>
      <trkpt lat="45.85578" lon="6.4352">
        <ele>1654.6</ele>
        <time>2024-04-27T11:45:06Z</time>
      </trkpt>
      <trkpt lat="45.85578" lon="6.4352">
        <ele>1654.6</ele>
        <time>2024-04-27T11:45:07Z</time>
      </trkpt>
      <trkpt lat="45.85578" lon="6.4352">
        <ele>1654.6</ele>
        <time>2024-04-27T11:45:08Z</time>
      </trkpt>
      <trkpt lat="45.85578" lon="6.4352">
        <ele>1654.6</ele>
        <time>2024-04-27T11:45:09Z</time>
      </trkpt>
      <trkpt lat="45.85579" lon="6.4352">
        <ele>1654.6</ele>
        <time>2024-04-27T11:45:10Z</time>
      </trkpt>
      <trkpt lat="45.85579" lon="6.4352">
        <ele>1654.6</ele>
        <time>2024-04-27T11:45:11Z</time>
      </trkpt>
      <trkpt lat="45.85579" lon="6.4352">
        <ele>1654.6</ele>
        <time>2024-04-27T11:45:12Z</time>
      </trkpt>
      <trkpt lat="45.85579" lon="6.4352">
        <ele>1654.6</ele>
        <time>2024-04-27T11:45:13Z</time>
      </trkpt>
      <trkpt lat="45.85579" lon="6.4352">
        <ele>1654.6</ele>
        <time>2024-04-27T11:45:14Z</time>
      </trkpt>
      <trkpt lat="45.85579" lon="6.4352">
        <ele>1654.6</ele>
        <time>2024-04-27T11:45:15Z</time>
      </trkpt>
      <trkpt lat="45.85579" lon="6.4352">
        <ele>1654.6</ele>
        <time>2024-04-27T11:45:16Z</time>
      </trkpt>
      <trkpt lat="45.85579" lon="6.4352">
        <ele>1654.6</ele>
        <time>2024-04-27T11:45:17Z</time>
      </trkpt>
      <trkpt lat="45.85579" lon="6.4352">
        <ele>1654.6</ele>
        <time>2024-04-27T11:45:18Z</time>
      </trkpt>
      <trkpt lat="45.85579" lon="6.4352">
        <ele>1654.6</ele>
        <time>2024-04-27T11:45:19Z</time>
      </trkpt>
      <trkpt lat="45.85579" lon="6.4352">
        <ele>1654.6</ele>
        <time>2024-04-27T11:45:20Z</time>
      </trkpt>
      <trkpt lat="45.85579" lon="6.4352">
        <ele>1654.6</ele>
        <time>2024-04-27T11:45:21Z</time>
      </trkpt>
      <trkpt lat="45.85579" lon="6.4352">
        <ele>1654.6</ele>
        <time>2024-04-27T11:45:22Z</time>
      </trkpt>
      <trkpt lat="45.85579" lon="6.4352">
        <ele>1654.6</ele>
        <time>2024-04-27T11:45:23Z</time>
      </trkpt>
      <trkpt lat="45.85579" lon="6.4352">
        <ele>1654.6</ele>
        <time>2024-04-27T11:45:24Z</time>
      </trkpt>
      <trkpt lat="45.85579" lon="6.4352">
        <ele>1654.6</ele>
        <time>2024-04-27T11:45:25Z</time>
      </trkpt>
      <trkpt lat="45.85579" lon="6.4352">
        <ele>1654.6</ele>
        <time>2024-04-27T11:45:26Z</time>
      </trkpt>
      <trkpt lat="45.8558" lon="6.4352">
        <ele>1654.6</ele>
        <time>2024-04-27T11:45:27Z</time>
      </trkpt>
      <trkpt lat="45.8558" lon="6.43519">
        <ele>1654.6</ele>
        <time>2024-04-27T11:45:28Z</time>
      </trkpt>
      <trkpt lat="45.8558" lon="6.43519">
        <ele>1654.6</ele>
        <time>2024-04-27T11:45:29Z</time>
      </trkpt>
      <trkpt lat="45.8558" lon="6.43518">
        <ele>1654.6</ele>
        <time>2024-04-27T11:45:30Z</time>
      </trkpt>
      <trkpt lat="45.8558" lon="6.43518">
        <ele>1654.6</ele>
        <time>2024-04-27T11:45:31Z</time>
      </trkpt>
      <trkpt lat="45.8558" lon="6.43517">
        <ele>1654.6</ele>
        <time>2024-04-27T11:45:32Z</time>
      </trkpt>
      <trkpt lat="45.8558" lon="6.43517">
        <ele>1654.6</ele>
        <time>2024-04-27T11:45:33Z</time>
      </trkpt>
      <trkpt lat="45.8558" lon="6.43517">
        <ele>1654.6</ele>
        <time>2024-04-27T11:45:34Z</time>
      </trkpt>
      <trkpt lat="45.8558" lon="6.43517">
        <ele>1654.6</ele>
        <time>2024-04-27T11:45:35Z</time>
      </trkpt>
      <trkpt lat="45.8558" lon="6.43517">
        <ele>1654.6</ele>
        <time>2024-04-27T11:45:36Z</time>
      </trkpt>
      <trkpt lat="45.8558" lon="6.43517">
        <ele>1654.6</ele>
        <time>2024-04-27T11:45:37Z</time>
      </trkpt>
      <trkpt lat="45.8558" lon="6.43516">
        <ele>1654.6</ele>
        <time>2024-04-27T11:45:38Z</time>
      </trkpt>
      <trkpt lat="45.8558" lon="6.43516">
        <ele>1654.6</ele>
        <time>2024-04-27T11:45:39Z</time>
      </trkpt>
      <trkpt lat="45.8558" lon="6.43516">
        <ele>1654.6</ele>
        <time>2024-04-27T11:45:40Z</time>
      </trkpt>
      <trkpt lat="45.8558" lon="6.43516">
        <ele>1654.6</ele>
        <time>2024-04-27T11:45:41Z</time>
      </trkpt>
      <trkpt lat="45.8558" lon="6.43516">
        <ele>1654.6</ele>
        <time>2024-04-27T11:45:42Z</time>
      </trkpt>
      <trkpt lat="45.8558" lon="6.43516">
        <ele>1654.6</ele>
        <time>2024-04-27T11:45:43Z</time>
      </trkpt>
      <trkpt lat="45.8558" lon="6.43516">
        <ele>1654.6</ele>
        <time>2024-04-27T11:45:44Z</time>
      </trkpt>
      <trkpt lat="45.85579" lon="6.43516">
        <ele>1654.6</ele>
        <time>2024-04-27T11:45:45Z</time>
      </trkpt>
      <trkpt lat="45.85579" lon="6.43516">
        <ele>1653.7</ele>
        <time>2024-04-27T11:45:46Z</time>
      </trkpt>
      <trkpt lat="45.85579" lon="6.43516">
        <ele>1653.7</ele>
        <time>2024-04-27T11:45:47Z</time>
      </trkpt>
      <trkpt lat="45.85579" lon="6.43516">
        <ele>1653.7</ele>
        <time>2024-04-27T11:45:48Z</time>
      </trkpt>
      <trkpt lat="45.85579" lon="6.43516">
        <ele>1653.7</ele>
        <time>2024-04-27T11:45:49Z</time>
      </trkpt>
      <trkpt lat="45.85579" lon="6.43516">
        <ele>1653.7</ele>
        <time>2024-04-27T11:45:50Z</time>
      </trkpt>
      <trkpt lat="45.85579" lon="6.43516">
        <ele>1653.7</ele>
        <time>2024-04-27T11:45:51Z</time>
      </trkpt>
      <trkpt lat="45.85579" lon="6.43516">
        <ele>1653.7</ele>
        <time>2024-04-27T11:45:52Z</time>
      </trkpt>
      <trkpt lat="45.85579" lon="6.43517">
        <ele>1653.7</ele>
        <time>2024-04-27T11:45:53Z</time>
      </trkpt>
      <trkpt lat="45.85579" lon="6.43517">
        <ele>1653.7</ele>
        <time>2024-04-27T11:45:54Z</time>
      </trkpt>
      <trkpt lat="45.85579" lon="6.43517">
        <ele>1653.7</ele>
        <time>2024-04-27T11:45:55Z</time>
      </trkpt>
      <trkpt lat="45.85579" lon="6.43517">
        <ele>1653.7</ele>
        <time>2024-04-27T11:45:56Z</time>
      </trkpt>
      <trkpt lat="45.85579" lon="6.43518">
        <ele>1653.7</ele>
        <time>2024-04-27T11:45:57Z</time>
      </trkpt>
      <trkpt lat="45.85579" lon="6.43518">
        <ele>1653.7</ele>
        <time>2024-04-27T11:45:58Z</time>
      </trkpt>
      <trkpt lat="45.85579" lon="6.43518">
        <ele>1653.7</ele>
        <time>2024-04-27T11:45:59Z</time>
      </trkpt>
      <trkpt lat="45.85579" lon="6.43518">
        <ele>1653.7</ele>
        <time>2024-04-27T11:46:00Z</time>
      </trkpt>
      <trkpt lat="45.85579" lon="6.43518">
        <ele>1653.7</ele>
        <time>2024-04-27T11:46:01Z</time>
      </trkpt>
      <trkpt lat="45.85579" lon="6.43518">
        <ele>1653.7</ele>
        <time>2024-04-27T11:46:02Z</time>
      </trkpt>
      <trkpt lat="45.85579" lon="6.43518">
        <ele>1653.7</ele>
        <time>2024-04-27T11:46:03Z</time>
      </trkpt>
      <trkpt lat="45.85579" lon="6.43518">
        <ele>1653.7</ele>
        <time>2024-04-27T11:46:04Z</time>
      </trkpt>
      <trkpt lat="45.85579" lon="6.43518">
        <ele>1653.7</ele>
        <time>2024-04-27T11:46:05Z</time>
      </trkpt>
      <trkpt lat="45.85579" lon="6.43518">
        <ele>1652.6</ele>
        <time>2024-04-27T11:46:06Z</time>
      </trkpt>
      <trkpt lat="45.85579" lon="6.43518">
        <ele>1652.6</ele>
        <time>2024-04-27T11:46:07Z</time>
      </trkpt>
      <trkpt lat="45.85579" lon="6.43519">
        <ele>1652.6</ele>
        <time>2024-04-27T11:46:08Z</time>
      </trkpt>
      <trkpt lat="45.85579" lon="6.43519">
        <ele>1652.6</ele>
        <time>2024-04-27T11:46:09Z</time>
      </trkpt>
      <trkpt lat="45.85579" lon="6.43519">
        <ele>1652.6</ele>
        <time>2024-04-27T11:46:10Z</time>
      </trkpt>
      <trkpt lat="45.85579" lon="6.43519">
        <ele>1652.6</ele>
        <time>2024-04-27T11:46:11Z</time>
      </trkpt>
      <trkpt lat="45.85579" lon="6.43519">
        <ele>1652.6</ele>
        <time>2024-04-27T11:46:12Z</time>
      </trkpt>
      <trkpt lat="45.85579" lon="6.43519">
        <ele>1652.6</ele>
        <time>2024-04-27T11:46:13Z</time>
      </trkpt>
      <trkpt lat="45.85579" lon="6.43519">
        <ele>1652.6</ele>
        <time>2024-04-27T11:46:14Z</time>
      </trkpt>
      <trkpt lat="45.85579" lon="6.43519">
        <ele>1652.6</ele>
        <time>2024-04-27T11:46:15Z</time>
      </trkpt>
      <trkpt lat="45.85579" lon="6.43519">
        <ele>1652.6</ele>
        <time>2024-04-27T11:46:16Z</time>
      </trkpt>
      <trkpt lat="45.85579" lon="6.43519">
        <ele>1652.6</ele>
        <time>2024-04-27T11:46:17Z</time>
      </trkpt>
      <trkpt lat="45.85579" lon="6.43519">
        <ele>1652.6</ele>
        <time>2024-04-27T11:46:18Z</time>
      </trkpt>
      <trkpt lat="45.85579" lon="6.43519">
        <ele>1652.6</ele>
        <time>2024-04-27T11:46:19Z</time>
      </trkpt>
      <trkpt lat="45.85579" lon="6.43519">
        <ele>1652.6</ele>
        <time>2024-04-27T11:46:20Z</time>
      </trkpt>
      <trkpt lat="45.85579" lon="6.43519">
        <ele>1652.6</ele>
        <time>2024-04-27T11:46:21Z</time>
      </trkpt>
      <trkpt lat="45.85579" lon="6.4352">
        <ele>1652.6</ele>
        <time>2024-04-27T11:46:22Z</time>
      </trkpt>
      <trkpt lat="45.85579" lon="6.4352">
        <ele>1652.6</ele>
        <time>2024-04-27T11:46:23Z</time>
      </trkpt>
      <trkpt lat="45.8558" lon="6.4352">
        <ele>1652.6</ele>
        <time>2024-04-27T11:46:24Z</time>
      </trkpt>
      <trkpt lat="45.8558" lon="6.4352">
        <ele>1652.6</ele>
        <time>2024-04-27T11:46:25Z</time>
      </trkpt>
      <trkpt lat="45.8558" lon="6.4352">
        <ele>1652.6</ele>
        <time>2024-04-27T11:46:26Z</time>
      </trkpt>
      <trkpt lat="45.8558" lon="6.4352">
        <ele>1652.6</ele>
        <time>2024-04-27T11:46:27Z</time>
      </trkpt>
      <trkpt lat="45.8558" lon="6.43519">
        <ele>1652.6</ele>
        <time>2024-04-27T11:46:28Z</time>
      </trkpt>
      <trkpt lat="45.8558" lon="6.43519">
        <ele>1652.6</ele>
        <time>2024-04-27T11:46:29Z</time>
      </trkpt>
      <trkpt lat="45.8558" lon="6.43518">
        <ele>1652.6</ele>
        <time>2024-04-27T11:46:30Z</time>
      </trkpt>
      <trkpt lat="45.85581" lon="6.43518">
        <ele>1652.6</ele>
        <time>2024-04-27T11:46:31Z</time>
      </trkpt>
      <trkpt lat="45.85581" lon="6.43517">
        <ele>1652.6</ele>
        <time>2024-04-27T11:46:32Z</time>
      </trkpt>
      <trkpt lat="45.85581" lon="6.43517">
        <ele>1652.6</ele>
        <time>2024-04-27T11:46:33Z</time>
      </trkpt>
      <trkpt lat="45.85582" lon="6.43516">
        <ele>1652.6</ele>
        <time>2024-04-27T11:46:34Z</time>
      </trkpt>
      <trkpt lat="45.85582" lon="6.43516">
        <ele>1652.6</ele>
        <time>2024-04-27T11:46:35Z</time>
      </trkpt>
      <trkpt lat="45.85583" lon="6.43515">
        <ele>1652.6</ele>
        <time>2024-04-27T11:46:36Z</time>
      </trkpt>
      <trkpt lat="45.85583" lon="6.43515">
        <ele>1652.6</ele>
        <time>2024-04-27T11:46:37Z</time>
      </trkpt>
      <trkpt lat="45.85583" lon="6.43515">
        <ele>1652.6</ele>
        <time>2024-04-27T11:46:38Z</time>
      </trkpt>
      <trkpt lat="45.85583" lon="6.43515">
        <ele>1652.6</ele>
        <time>2024-04-27T11:46:39Z</time>
      </trkpt>
      <trkpt lat="45.85583" lon="6.43515">
        <ele>1652.6</ele>
        <time>2024-04-27T11:46:40Z</time>
      </trkpt>
      <trkpt lat="45.85583" lon="6.43515">
        <ele>1652.6</ele>
        <time>2024-04-27T11:46:41Z</time>
      </trkpt>
      <trkpt lat="45.85583" lon="6.43515">
        <ele>1652.6</ele>
        <time>2024-04-27T11:46:42Z</time>
      </trkpt>
      <trkpt lat="45.85583" lon="6.43515">
        <ele>1652.6</ele>
        <time>2024-04-27T11:46:43Z</time>
      </trkpt>
      <trkpt lat="45.85583" lon="6.43515">
        <ele>1652.6</ele>
        <time>2024-04-27T11:46:44Z</time>
      </trkpt>
      <trkpt lat="45.85583" lon="6.43515">
        <ele>1652.6</ele>
        <time>2024-04-27T11:46:45Z</time>
      </trkpt>
      <trkpt lat="45.85583" lon="6.43515">
        <ele>1652.6</ele>
        <time>2024-04-27T11:46:46Z</time>
      </trkpt>
      <trkpt lat="45.85583" lon="6.43515">
        <ele>1652.6</ele>
        <time>2024-04-27T11:46:47Z</time>
      </trkpt>
      <trkpt lat="45.85583" lon="6.43515">
        <ele>1652.6</ele>
        <time>2024-04-27T11:46:48Z</time>
      </trkpt>
      <trkpt lat="45.85583" lon="6.43515">
        <ele>1652.6</ele>
        <time>2024-04-27T11:46:49Z</time>
      </trkpt>
      <trkpt lat="45.85583" lon="6.43515">
        <ele>1651.6</ele>
        <time>2024-04-27T11:46:50Z</time>
      </trkpt>
      <trkpt lat="45.85583" lon="6.43515">
        <ele>1651.6</ele>
        <time>2024-04-27T11:46:51Z</time>
      </trkpt>
      <trkpt lat="45.85583" lon="6.43515">
        <ele>1651.6</ele>
        <time>2024-04-27T11:46:52Z</time>
      </trkpt>
      <trkpt lat="45.85583" lon="6.43515">
        <ele>1651.6</ele>
        <time>2024-04-27T11:46:53Z</time>
      </trkpt>
      <trkpt lat="45.85583" lon="6.43514">
        <ele>1651.6</ele>
        <time>2024-04-27T11:46:54Z</time>
      </trkpt>
      <trkpt lat="45.85583" lon="6.43514">
        <ele>1651.6</ele>
        <time>2024-04-27T11:46:55Z</time>
      </trkpt>
      <trkpt lat="45.85583" lon="6.43514">
        <ele>1651.6</ele>
        <time>2024-04-27T11:46:56Z</time>
      </trkpt>
      <trkpt lat="45.85583" lon="6.43514">
        <ele>1651.6</ele>
        <time>2024-04-27T11:46:57Z</time>
      </trkpt>
      <trkpt lat="45.85583" lon="6.43514">
        <ele>1651.6</ele>
        <time>2024-04-27T11:46:58Z</time>
      </trkpt>
      <trkpt lat="45.85583" lon="6.43513">
        <ele>1651.6</ele>
        <time>2024-04-27T11:46:59Z</time>
      </trkpt>
      <trkpt lat="45.85582" lon="6.43513">
        <ele>1651.6</ele>
        <time>2024-04-27T11:47:00Z</time>
      </trkpt>
      <trkpt lat="45.85582" lon="6.43513">
        <ele>1651.6</ele>
        <time>2024-04-27T11:47:01Z</time>
      </trkpt>
      <trkpt lat="45.85582" lon="6.43513">
        <ele>1651.6</ele>
        <time>2024-04-27T11:47:02Z</time>
      </trkpt>
      <trkpt lat="45.85582" lon="6.43513">
        <ele>1651.6</ele>
        <time>2024-04-27T11:47:03Z</time>
      </trkpt>
      <trkpt lat="45.85582" lon="6.43513">
        <ele>1651.6</ele>
        <time>2024-04-27T11:47:04Z</time>
      </trkpt>
      <trkpt lat="45.85582" lon="6.43513">
        <ele>1651.6</ele>
        <time>2024-04-27T11:47:05Z</time>
      </trkpt>
      <trkpt lat="45.85582" lon="6.43513">
        <ele>1652.6</ele>
        <time>2024-04-27T11:47:06Z</time>
      </trkpt>
      <trkpt lat="45.85582" lon="6.43513">
        <ele>1652.6</ele>
        <time>2024-04-27T11:47:07Z</time>
      </trkpt>
      <trkpt lat="45.85582" lon="6.43513">
        <ele>1652.6</ele>
        <time>2024-04-27T11:47:08Z</time>
      </trkpt>
      <trkpt lat="45.85582" lon="6.43513">
        <ele>1652.6</ele>
        <time>2024-04-27T11:47:09Z</time>
      </trkpt>
      <trkpt lat="45.85582" lon="6.43513">
        <ele>1651.6</ele>
        <time>2024-04-27T11:47:10Z</time>
      </trkpt>
      <trkpt lat="45.85582" lon="6.43513">
        <ele>1651.6</ele>
        <time>2024-04-27T11:47:11Z</time>
      </trkpt>
      <trkpt lat="45.85582" lon="6.43513">
        <ele>1651.6</ele>
        <time>2024-04-27T11:47:12Z</time>
      </trkpt>
      <trkpt lat="45.85582" lon="6.43513">
        <ele>1651.6</ele>
        <time>2024-04-27T11:47:13Z</time>
      </trkpt>
      <trkpt lat="45.85582" lon="6.43514">
        <ele>1651.6</ele>
        <time>2024-04-27T11:47:14Z</time>
      </trkpt>
      <trkpt lat="45.85582" lon="6.43514">
        <ele>1651.6</ele>
        <time>2024-04-27T11:47:15Z</time>
      </trkpt>
      <trkpt lat="45.85581" lon="6.43514">
        <ele>1651.6</ele>
        <time>2024-04-27T11:47:16Z</time>
      </trkpt>
      <trkpt lat="45.85581" lon="6.43515">
        <ele>1651.6</ele>
        <time>2024-04-27T11:47:17Z</time>
      </trkpt>
      <trkpt lat="45.85581" lon="6.43515">
        <ele>1650.7</ele>
        <time>2024-04-27T11:47:18Z</time>
      </trkpt>
      <trkpt lat="45.85581" lon="6.43515">
        <ele>1650.7</ele>
        <time>2024-04-27T11:47:19Z</time>
      </trkpt>
      <trkpt lat="45.85581" lon="6.43515">
        <ele>1650.7</ele>
        <time>2024-04-27T11:47:20Z</time>
      </trkpt>
      <trkpt lat="45.85581" lon="6.43516">
        <ele>1650.7</ele>
        <time>2024-04-27T11:47:21Z</time>
      </trkpt>
      <trkpt lat="45.85581" lon="6.43516">
        <ele>1650.7</ele>
        <time>2024-04-27T11:47:22Z</time>
      </trkpt>
      <trkpt lat="45.85581" lon="6.43516">
        <ele>1650.7</ele>
        <time>2024-04-27T11:47:23Z</time>
      </trkpt>
      <trkpt lat="45.85581" lon="6.43516">
        <ele>1650.7</ele>
        <time>2024-04-27T11:47:24Z</time>
      </trkpt>
      <trkpt lat="45.85581" lon="6.43516">
        <ele>1650.7</ele>
        <time>2024-04-27T11:47:25Z</time>
      </trkpt>
      <trkpt lat="45.85581" lon="6.43516">
        <ele>1650.7</ele>
        <time>2024-04-27T11:47:26Z</time>
      </trkpt>
      <trkpt lat="45.85581" lon="6.43516">
        <ele>1650.7</ele>
        <time>2024-04-27T11:47:27Z</time>
      </trkpt>
      <trkpt lat="45.85581" lon="6.43517">
        <ele>1650.7</ele>
        <time>2024-04-27T11:47:28Z</time>
      </trkpt>
      <trkpt lat="45.85581" lon="6.43517">
        <ele>1650.7</ele>
        <time>2024-04-27T11:47:29Z</time>
      </trkpt>
      <trkpt lat="45.8558" lon="6.43517">
        <ele>1650.7</ele>
        <time>2024-04-27T11:47:30Z</time>
      </trkpt>
      <trkpt lat="45.8558" lon="6.43517">
        <ele>1650.7</ele>
        <time>2024-04-27T11:47:31Z</time>
      </trkpt>
      <trkpt lat="45.8558" lon="6.43517">
        <ele>1650.7</ele>
        <time>2024-04-27T11:47:32Z</time>
      </trkpt>
      <trkpt lat="45.8558" lon="6.43517">
        <ele>1650.7</ele>
        <time>2024-04-27T11:47:33Z</time>
      </trkpt>
      <trkpt lat="45.8558" lon="6.43517">
        <ele>1651.6</ele>
        <time>2024-04-27T11:47:34Z</time>
      </trkpt>
      <trkpt lat="45.8558" lon="6.43517">
        <ele>1651.6</ele>
        <time>2024-04-27T11:47:35Z</time>
      </trkpt>
      <trkpt lat="45.8558" lon="6.43517">
        <ele>1651.6</ele>
        <time>2024-04-27T11:47:36Z</time>
      </trkpt>
      <trkpt lat="45.8558" lon="6.43517">
        <ele>1651.6</ele>
        <time>2024-04-27T11:47:37Z</time>
      </trkpt>
      <trkpt lat="45.8558" lon="6.43517">
        <ele>1651.6</ele>
        <time>2024-04-27T11:47:38Z</time>
      </trkpt>
      <trkpt lat="45.8558" lon="6.43517">
        <ele>1651.6</ele>
        <time>2024-04-27T11:47:39Z</time>
      </trkpt>
      <trkpt lat="45.8558" lon="6.43517">
        <ele>1651.6</ele>
        <time>2024-04-27T11:47:40Z</time>
      </trkpt>
      <trkpt lat="45.8558" lon="6.43517">
        <ele>1651.6</ele>
        <time>2024-04-27T11:47:41Z</time>
      </trkpt>
      <trkpt lat="45.8558" lon="6.43517">
        <ele>1651.6</ele>
        <time>2024-04-27T11:47:42Z</time>
      </trkpt>
      <trkpt lat="45.8558" lon="6.43517">
        <ele>1651.6</ele>
        <time>2024-04-27T11:47:43Z</time>
      </trkpt>
      <trkpt lat="45.8558" lon="6.43516">
        <ele>1651.6</ele>
        <time>2024-04-27T11:47:44Z</time>
      </trkpt>
      <trkpt lat="45.8558" lon="6.43516">
        <ele>1651.6</ele>
        <time>2024-04-27T11:47:45Z</time>
      </trkpt>
      <trkpt lat="45.85581" lon="6.43516">
        <ele>1651.6</ele>
        <time>2024-04-27T11:47:46Z</time>
      </trkpt>
      <trkpt lat="45.85581" lon="6.43515">
        <ele>1651.6</ele>
        <time>2024-04-27T11:47:47Z</time>
      </trkpt>
      <trkpt lat="45.85582" lon="6.43515">
        <ele>1651.6</ele>
        <time>2024-04-27T11:47:48Z</time>
      </trkpt>
      <trkpt lat="45.85582" lon="6.43515">
        <ele>1651.6</ele>
        <time>2024-04-27T11:47:49Z</time>
      </trkpt>
      <trkpt lat="45.85582" lon="6.43515">
        <ele>1651.6</ele>
        <time>2024-04-27T11:47:50Z</time>
      </trkpt>
      <trkpt lat="45.85582" lon="6.43515">
        <ele>1651.6</ele>
        <time>2024-04-27T11:47:51Z</time>
      </trkpt>
      <trkpt lat="45.85582" lon="6.43515">
        <ele>1651.6</ele>
        <time>2024-04-27T11:47:52Z</time>
      </trkpt>
      <trkpt lat="45.85582" lon="6.43515">
        <ele>1651.6</ele>
        <time>2024-04-27T11:47:53Z</time>
      </trkpt>
      <trkpt lat="45.85582" lon="6.43515">
        <ele>1651.6</ele>
        <time>2024-04-27T11:47:54Z</time>
      </trkpt>
      <trkpt lat="45.85582" lon="6.43515">
        <ele>1651.6</ele>
        <time>2024-04-27T11:47:55Z</time>
      </trkpt>
      <trkpt lat="45.85582" lon="6.43515">
        <ele>1651.6</ele>
        <time>2024-04-27T11:47:56Z</time>
      </trkpt>
      <trkpt lat="45.85583" lon="6.43515">
        <ele>1651.6</ele>
        <time>2024-04-27T11:47:57Z</time>
      </trkpt>
      <trkpt lat="45.85583" lon="6.43514">
        <ele>1651.6</ele>
        <time>2024-04-27T11:47:58Z</time>
      </trkpt>
      <trkpt lat="45.85583" lon="6.43514">
        <ele>1651.6</ele>
        <time>2024-04-27T11:47:59Z</time>
      </trkpt>
      <trkpt lat="45.85584" lon="6.43513">
        <ele>1651.6</ele>
        <time>2024-04-27T11:48:00Z</time>
      </trkpt>
      <trkpt lat="45.85584" lon="6.43513">
        <ele>1651.6</ele>
        <time>2024-04-27T11:48:01Z</time>
      </trkpt>
      <trkpt lat="45.85584" lon="6.43513">
        <ele>1650.7</ele>
        <time>2024-04-27T11:48:02Z</time>
      </trkpt>
      <trkpt lat="45.85584" lon="6.43513">
        <ele>1650.7</ele>
        <time>2024-04-27T11:48:03Z</time>
      </trkpt>
      <trkpt lat="45.85584" lon="6.43513">
        <ele>1650.7</ele>
        <time>2024-04-27T11:48:04Z</time>
      </trkpt>
      <trkpt lat="45.85584" lon="6.43513">
        <ele>1650.7</ele>
        <time>2024-04-27T11:48:05Z</time>
      </trkpt>
      <trkpt lat="45.85584" lon="6.43513">
        <ele>1650.7</ele>
        <time>2024-04-27T11:48:06Z</time>
      </trkpt>
      <trkpt lat="45.85585" lon="6.43513">
        <ele>1650.7</ele>
        <time>2024-04-27T11:48:07Z</time>
      </trkpt>
      <trkpt lat="45.85585" lon="6.43512">
        <ele>1650.7</ele>
        <time>2024-04-27T11:48:08Z</time>
      </trkpt>
      <trkpt lat="45.85585" lon="6.43513">
        <ele>1650.7</ele>
        <time>2024-04-27T11:48:09Z</time>
      </trkpt>
      <trkpt lat="45.85585" lon="6.43513">
        <ele>1650.7</ele>
        <time>2024-04-27T11:48:10Z</time>
      </trkpt>
      <trkpt lat="45.85585" lon="6.43514">
        <ele>1650.7</ele>
        <time>2024-04-27T11:48:11Z</time>
      </trkpt>
      <trkpt lat="45.85583" lon="6.43514">
        <ele>1650.7</ele>
        <time>2024-04-27T11:48:12Z</time>
      </trkpt>
      <trkpt lat="45.85582" lon="6.43512">
        <ele>1650.7</ele>
        <time>2024-04-27T11:48:13Z</time>
      </trkpt>
      <trkpt lat="45.85582" lon="6.4351">
        <ele>1650.7</ele>
        <time>2024-04-27T11:48:14Z</time>
      </trkpt>
      <trkpt lat="45.85582" lon="6.43509">
        <ele>1650.7</ele>
        <time>2024-04-27T11:48:15Z</time>
      </trkpt>
      <trkpt lat="45.85581" lon="6.43508">
        <ele>1650.7</ele>
        <time>2024-04-27T11:48:16Z</time>
      </trkpt>
      <trkpt lat="45.85581" lon="6.43508">
        <ele>1650.7</ele>
        <time>2024-04-27T11:48:17Z</time>
      </trkpt>
      <trkpt lat="45.8558" lon="6.43508">
        <ele>1650.7</ele>
        <time>2024-04-27T11:48:18Z</time>
      </trkpt>
      <trkpt lat="45.8558" lon="6.43507">
        <ele>1650.7</ele>
        <time>2024-04-27T11:48:19Z</time>
      </trkpt>
      <trkpt lat="45.85579" lon="6.43507">
        <ele>1650.7</ele>
        <time>2024-04-27T11:48:20Z</time>
      </trkpt>
      <trkpt lat="45.85579" lon="6.43507">
        <ele>1650.7</ele>
        <time>2024-04-27T11:48:21Z</time>
      </trkpt>
      <trkpt lat="45.85579" lon="6.43507">
        <ele>1650.7</ele>
        <time>2024-04-27T11:48:22Z</time>
      </trkpt>
      <trkpt lat="45.85579" lon="6.43507">
        <ele>1650.7</ele>
        <time>2024-04-27T11:48:23Z</time>
      </trkpt>
      <trkpt lat="45.85579" lon="6.43507">
        <ele>1650.7</ele>
        <time>2024-04-27T11:48:24Z</time>
      </trkpt>
      <trkpt lat="45.85579" lon="6.43508">
        <ele>1650.7</ele>
        <time>2024-04-27T11:48:25Z</time>
      </trkpt>
      <trkpt lat="45.85579" lon="6.43508">
        <ele>1650.7</ele>
        <time>2024-04-27T11:48:26Z</time>
      </trkpt>
      <trkpt lat="45.85579" lon="6.43508">
        <ele>1650.7</ele>
        <time>2024-04-27T11:48:27Z</time>
      </trkpt>
      <trkpt lat="45.85579" lon="6.43508">
        <ele>1650.7</ele>
        <time>2024-04-27T11:48:28Z</time>
      </trkpt>
      <trkpt lat="45.8558" lon="6.43508">
        <ele>1650.7</ele>
        <time>2024-04-27T11:48:29Z</time>
      </trkpt>
      <trkpt lat="45.8558" lon="6.4351">
        <ele>1651.6</ele>
        <time>2024-04-27T11:48:30Z</time>
      </trkpt>
      <trkpt lat="45.8558" lon="6.4351">
        <ele>1651.6</ele>
        <time>2024-04-27T11:48:31Z</time>
      </trkpt>
      <trkpt lat="45.85581" lon="6.43511">
        <ele>1651.6</ele>
        <time>2024-04-27T11:48:32Z</time>
      </trkpt>
      <trkpt lat="45.85581" lon="6.43511">
        <ele>1651.6</ele>
        <time>2024-04-27T11:48:33Z</time>
      </trkpt>
      <trkpt lat="45.85581" lon="6.43511">
        <ele>1651.6</ele>
        <time>2024-04-27T11:48:34Z</time>
      </trkpt>
      <trkpt lat="45.85581" lon="6.43511">
        <ele>1651.6</ele>
        <time>2024-04-27T11:48:35Z</time>
      </trkpt>
      <trkpt lat="45.85581" lon="6.43511">
        <ele>1651.6</ele>
        <time>2024-04-27T11:48:36Z</time>
      </trkpt>
      <trkpt lat="45.85581" lon="6.43511">
        <ele>1651.6</ele>
        <time>2024-04-27T11:48:37Z</time>
      </trkpt>
      <trkpt lat="45.85581" lon="6.43511">
        <ele>1651.6</ele>
        <time>2024-04-27T11:48:38Z</time>
      </trkpt>
      <trkpt lat="45.85581" lon="6.43511">
        <ele>1651.6</ele>
        <time>2024-04-27T11:48:39Z</time>
      </trkpt>
      <trkpt lat="45.85581" lon="6.43511">
        <ele>1651.6</ele>
        <time>2024-04-27T11:48:40Z</time>
      </trkpt>
      <trkpt lat="45.85581" lon="6.43511">
        <ele>1651.6</ele>
        <time>2024-04-27T11:48:41Z</time>
      </trkpt>
      <trkpt lat="45.85581" lon="6.43511">
        <ele>1652.6</ele>
        <time>2024-04-27T11:48:42Z</time>
      </trkpt>
      <trkpt lat="45.85581" lon="6.43511">
        <ele>1652.6</ele>
        <time>2024-04-27T11:48:43Z</time>
      </trkpt>
      <trkpt lat="45.85581" lon="6.43511">
        <ele>1652.6</ele>
        <time>2024-04-27T11:48:44Z</time>
      </trkpt>
      <trkpt lat="45.85581" lon="6.43511">
        <ele>1652.6</ele>
        <time>2024-04-27T11:48:45Z</time>
      </trkpt>
      <trkpt lat="45.85581" lon="6.43511">
        <ele>1653.7</ele>
        <time>2024-04-27T11:48:46Z</time>
      </trkpt>
      <trkpt lat="45.8558" lon="6.43511">
        <ele>1653.7</ele>
        <time>2024-04-27T11:48:47Z</time>
      </trkpt>
      <trkpt lat="45.8558" lon="6.43511">
        <ele>1653.7</ele>
        <time>2024-04-27T11:48:48Z</time>
      </trkpt>
      <trkpt lat="45.8558" lon="6.43512">
        <ele>1653.7</ele>
        <time>2024-04-27T11:48:49Z</time>
      </trkpt>
      <trkpt lat="45.8558" lon="6.43512">
        <ele>1653.7</ele>
        <time>2024-04-27T11:48:50Z</time>
      </trkpt>
      <trkpt lat="45.8558" lon="6.43513">
        <ele>1653.7</ele>
        <time>2024-04-27T11:48:51Z</time>
      </trkpt>
      <trkpt lat="45.8558" lon="6.43513">
        <ele>1654.6</ele>
        <time>2024-04-27T11:48:52Z</time>
      </trkpt>
      <trkpt lat="45.8558" lon="6.43513">
        <ele>1654.6</ele>
        <time>2024-04-27T11:48:53Z</time>
      </trkpt>
      <trkpt lat="45.8558" lon="6.43513">
        <ele>1654.6</ele>
        <time>2024-04-27T11:48:54Z</time>
      </trkpt>
      <trkpt lat="45.8558" lon="6.43513">
        <ele>1654.6</ele>
        <time>2024-04-27T11:48:55Z</time>
      </trkpt>
      <trkpt lat="45.8558" lon="6.43513">
        <ele>1655.7</ele>
        <time>2024-04-27T11:48:56Z</time>
      </trkpt>
      <trkpt lat="45.8558" lon="6.43513">
        <ele>1655.7</ele>
        <time>2024-04-27T11:48:57Z</time>
      </trkpt>
      <trkpt lat="45.85581" lon="6.43513">
        <ele>1655.7</ele>
        <time>2024-04-27T11:48:58Z</time>
      </trkpt>
      <trkpt lat="45.85581" lon="6.43513">
        <ele>1655.7</ele>
        <time>2024-04-27T11:48:59Z</time>
      </trkpt>
      <trkpt lat="45.85581" lon="6.43514">
        <ele>1656.6</ele>
        <time>2024-04-27T11:49:00Z</time>
      </trkpt>
      <trkpt lat="45.85581" lon="6.43514">
        <ele>1656.6</ele>
        <time>2024-04-27T11:49:01Z</time>
      </trkpt>
      <trkpt lat="45.85581" lon="6.43514">
        <ele>1656.6</ele>
        <time>2024-04-27T11:49:02Z</time>
      </trkpt>
      <trkpt lat="45.85581" lon="6.43514">
        <ele>1656.6</ele>
        <time>2024-04-27T11:49:03Z</time>
      </trkpt>
      <trkpt lat="45.85581" lon="6.43515">
        <ele>1656.6</ele>
        <time>2024-04-27T11:49:04Z</time>
      </trkpt>
      <trkpt lat="45.85581" lon="6.43515">
        <ele>1656.6</ele>
        <time>2024-04-27T11:49:05Z</time>
      </trkpt>
      <trkpt lat="45.85581" lon="6.43515">
        <ele>1657.7</ele>
        <time>2024-04-27T11:49:06Z</time>
      </trkpt>
      <trkpt lat="45.85581" lon="6.43515">
        <ele>1657.7</ele>
        <time>2024-04-27T11:49:07Z</time>
      </trkpt>
      <trkpt lat="45.85581" lon="6.43515">
        <ele>1657.7</ele>
        <time>2024-04-27T11:49:08Z</time>
      </trkpt>
      <trkpt lat="45.85581" lon="6.43515">
        <ele>1657.7</ele>
        <time>2024-04-27T11:49:09Z</time>
      </trkpt>
      <trkpt lat="45.85581" lon="6.43515">
        <ele>1657.7</ele>
        <time>2024-04-27T11:49:10Z</time>
      </trkpt>
      <trkpt lat="45.85581" lon="6.43515">
        <ele>1657.7</ele>
        <time>2024-04-27T11:49:11Z</time>
      </trkpt>
      <trkpt lat="45.85581" lon="6.43516">
        <ele>1658.6</ele>
        <time>2024-04-27T11:49:12Z</time>
      </trkpt>
      <trkpt lat="45.85581" lon="6.43516">
        <ele>1658.6</ele>
        <time>2024-04-27T11:49:13Z</time>
      </trkpt>
      <trkpt lat="45.85581" lon="6.43516">
        <ele>1658.6</ele>
        <time>2024-04-27T11:49:14Z</time>
      </trkpt>
      <trkpt lat="45.85581" lon="6.43516">
        <ele>1658.6</ele>
        <time>2024-04-27T11:49:15Z</time>
      </trkpt>
      <trkpt lat="45.85581" lon="6.43516">
        <ele>1658.6</ele>
        <time>2024-04-27T11:49:16Z</time>
      </trkpt>
      <trkpt lat="45.85581" lon="6.43517">
        <ele>1658.6</ele>
        <time>2024-04-27T11:49:17Z</time>
      </trkpt>
      <trkpt lat="45.85581" lon="6.43517">
        <ele>1658.6</ele>
        <time>2024-04-27T11:49:18Z</time>
      </trkpt>
      <trkpt lat="45.85581" lon="6.43517">
        <ele>1659.7</ele>
        <time>2024-04-27T11:49:19Z</time>
      </trkpt>
      <trkpt lat="45.85581" lon="6.43517">
        <ele>1659.7</ele>
        <time>2024-04-27T11:49:20Z</time>
      </trkpt>
      <trkpt lat="45.85581" lon="6.43517">
        <ele>1659.7</ele>
        <time>2024-04-27T11:49:21Z</time>
      </trkpt>
      <trkpt lat="45.85582" lon="6.43517">
        <ele>1659.7</ele>
        <time>2024-04-27T11:49:22Z</time>
      </trkpt>
      <trkpt lat="45.85582" lon="6.43517">
        <ele>1659.7</ele>
        <time>2024-04-27T11:49:23Z</time>
      </trkpt>
      <trkpt lat="45.85582" lon="6.43517">
        <ele>1659.7</ele>
        <time>2024-04-27T11:49:24Z</time>
      </trkpt>
      <trkpt lat="45.85582" lon="6.43517">
        <ele>1659.7</ele>
        <time>2024-04-27T11:49:25Z</time>
      </trkpt>
      <trkpt lat="45.85582" lon="6.43517">
        <ele>1659.7</ele>
        <time>2024-04-27T11:49:26Z</time>
      </trkpt>
      <trkpt lat="45.85582" lon="6.43517">
        <ele>1660.6</ele>
        <time>2024-04-27T11:49:27Z</time>
      </trkpt>
      <trkpt lat="45.85582" lon="6.43517">
        <ele>1660.6</ele>
        <time>2024-04-27T11:49:28Z</time>
      </trkpt>
      <trkpt lat="45.85582" lon="6.43517">
        <ele>1660.6</ele>
        <time>2024-04-27T11:49:29Z</time>
      </trkpt>
      <trkpt lat="45.85582" lon="6.43517">
        <ele>1660.6</ele>
        <time>2024-04-27T11:49:30Z</time>
      </trkpt>
      <trkpt lat="45.85582" lon="6.43517">
        <ele>1660.6</ele>
        <time>2024-04-27T11:49:31Z</time>
      </trkpt>
      <trkpt lat="45.85582" lon="6.43517">
        <ele>1660.6</ele>
        <time>2024-04-27T11:49:32Z</time>
      </trkpt>
      <trkpt lat="45.85582" lon="6.43517">
        <ele>1661.6</ele>
        <time>2024-04-27T11:49:33Z</time>
      </trkpt>
      <trkpt lat="45.85582" lon="6.43517">
        <ele>1661.6</ele>
        <time>2024-04-27T11:49:34Z</time>
      </trkpt>
      <trkpt lat="45.85582" lon="6.43518">
        <ele>1662.7</ele>
        <time>2024-04-27T11:49:35Z</time>
      </trkpt>
      <trkpt lat="45.85582" lon="6.43518">
        <ele>1662.7</ele>
        <time>2024-04-27T11:49:36Z</time>
      </trkpt>
      <trkpt lat="45.85582" lon="6.43518">
        <ele>1662.7</ele>
        <time>2024-04-27T11:49:37Z</time>
      </trkpt>
      <trkpt lat="45.85582" lon="6.43518">
        <ele>1662.7</ele>
        <time>2024-04-27T11:49:38Z</time>
      </trkpt>
      <trkpt lat="45.85582" lon="6.43518">
        <ele>1662.7</ele>
        <time>2024-04-27T11:49:39Z</time>
      </trkpt>
      <trkpt lat="45.85582" lon="6.43518">
        <ele>1662.7</ele>
        <time>2024-04-27T11:49:40Z</time>
      </trkpt>
      <trkpt lat="45.85582" lon="6.43518">
        <ele>1663.6</ele>
        <time>2024-04-27T11:49:41Z</time>
      </trkpt>
      <trkpt lat="45.85582" lon="6.43518">
        <ele>1663.6</ele>
        <time>2024-04-27T11:49:42Z</time>
      </trkpt>
      <trkpt lat="45.85582" lon="6.43518">
        <ele>1664.7</ele>
        <time>2024-04-27T11:49:43Z</time>
      </trkpt>
      <trkpt lat="45.85582" lon="6.43518">
        <ele>1664.7</ele>
        <time>2024-04-27T11:49:44Z</time>
      </trkpt>
      <trkpt lat="45.85582" lon="6.43517">
        <ele>1664.7</ele>
        <time>2024-04-27T11:49:45Z</time>
      </trkpt>
      <trkpt lat="45.85582" lon="6.43518">
        <ele>1664.7</ele>
        <time>2024-04-27T11:49:46Z</time>
      </trkpt>
      <trkpt lat="45.85582" lon="6.43518">
        <ele>1664.7</ele>
        <time>2024-04-27T11:49:47Z</time>
      </trkpt>
      <trkpt lat="45.85582" lon="6.43518">
        <ele>1664.7</ele>
        <time>2024-04-27T11:49:48Z</time>
      </trkpt>
      <trkpt lat="45.85582" lon="6.43518">
        <ele>1664.7</ele>
        <time>2024-04-27T11:49:49Z</time>
      </trkpt>
      <trkpt lat="45.85582" lon="6.43518">
        <ele>1664.7</ele>
        <time>2024-04-27T11:49:50Z</time>
      </trkpt>
      <trkpt lat="45.85582" lon="6.43518">
        <ele>1666.7</ele>
        <time>2024-04-27T11:49:51Z</time>
      </trkpt>
      <trkpt lat="45.85583" lon="6.43518">
        <ele>1666.7</ele>
        <time>2024-04-27T11:49:52Z</time>
      </trkpt>
      <trkpt lat="45.85583" lon="6.43518">
        <ele>1666.7</ele>
        <time>2024-04-27T11:49:53Z</time>
      </trkpt>
      <trkpt lat="45.85583" lon="6.43518">
        <ele>1666.7</ele>
        <time>2024-04-27T11:49:54Z</time>
      </trkpt>
      <trkpt lat="45.85583" lon="6.43518">
        <ele>1666.7</ele>
        <time>2024-04-27T11:49:55Z</time>
      </trkpt>
      <trkpt lat="45.85583" lon="6.43518">
        <ele>1666.7</ele>
        <time>2024-04-27T11:49:56Z</time>
      </trkpt>
      <trkpt lat="45.85583" lon="6.43518">
        <ele>1666.7</ele>
        <time>2024-04-27T11:49:57Z</time>
      </trkpt>
      <trkpt lat="45.85583" lon="6.43518">
        <ele>1666.7</ele>
        <time>2024-04-27T11:49:58Z</time>
      </trkpt>
      <trkpt lat="45.85583" lon="6.43518">
        <ele>1667.6</ele>
        <time>2024-04-27T11:49:59Z</time>
      </trkpt>
      <trkpt lat="45.85583" lon="6.43518">
        <ele>1667.6</ele>
        <time>2024-04-27T11:50:00Z</time>
      </trkpt>
      <trkpt lat="45.85583" lon="6.43518">
        <ele>1667.6</ele>
        <time>2024-04-27T11:50:01Z</time>
      </trkpt>
      <trkpt lat="45.85583" lon="6.43518">
        <ele>1667.6</ele>
        <time>2024-04-27T11:50:02Z</time>
      </trkpt>
      <trkpt lat="45.85583" lon="6.43518">
        <ele>1667.6</ele>
        <time>2024-04-27T11:50:03Z</time>
      </trkpt>
      <trkpt lat="45.85583" lon="6.43518">
        <ele>1667.6</ele>
        <time>2024-04-27T11:50:04Z</time>
      </trkpt>
      <trkpt lat="45.85583" lon="6.43518">
        <ele>1667.6</ele>
        <time>2024-04-27T11:50:05Z</time>
      </trkpt>
      <trkpt lat="45.85583" lon="6.43518">
        <ele>1667.6</ele>
        <time>2024-04-27T11:50:06Z</time>
      </trkpt>
      <trkpt lat="45.85583" lon="6.43518">
        <ele>1667.6</ele>
        <time>2024-04-27T11:50:07Z</time>
      </trkpt>
      <trkpt lat="45.85583" lon="6.43518">
        <ele>1667.6</ele>
        <time>2024-04-27T11:50:08Z</time>
      </trkpt>
      <trkpt lat="45.85583" lon="6.43518">
        <ele>1668.6</ele>
        <time>2024-04-27T11:50:09Z</time>
      </trkpt>
      <trkpt lat="45.85583" lon="6.43518">
        <ele>1668.6</ele>
        <time>2024-04-27T11:50:10Z</time>
      </trkpt>
      <trkpt lat="45.85583" lon="6.43518">
        <ele>1668.6</ele>
        <time>2024-04-27T11:50:11Z</time>
      </trkpt>
      <trkpt lat="45.85583" lon="6.43518">
        <ele>1668.6</ele>
        <time>2024-04-27T11:50:12Z</time>
      </trkpt>
      <trkpt lat="45.85583" lon="6.43518">
        <ele>1668.6</ele>
        <time>2024-04-27T11:50:13Z</time>
      </trkpt>
      <trkpt lat="45.85583" lon="6.43517">
        <ele>1668.6</ele>
        <time>2024-04-27T11:50:14Z</time>
      </trkpt>
      <trkpt lat="45.85583" lon="6.43517">
        <ele>1668.6</ele>
        <time>2024-04-27T11:50:15Z</time>
      </trkpt>
      <trkpt lat="45.85583" lon="6.43517">
        <ele>1668.6</ele>
        <time>2024-04-27T11:50:16Z</time>
      </trkpt>
      <trkpt lat="45.85583" lon="6.43517">
        <ele>1670.6</ele>
        <time>2024-04-27T11:50:17Z</time>
      </trkpt>
      <trkpt lat="45.85583" lon="6.43517">
        <ele>1670.6</ele>
        <time>2024-04-27T11:50:18Z</time>
      </trkpt>
      <trkpt lat="45.85583" lon="6.43517">
        <ele>1670.6</ele>
        <time>2024-04-27T11:50:19Z</time>
      </trkpt>
      <trkpt lat="45.85583" lon="6.43517">
        <ele>1670.6</ele>
        <time>2024-04-27T11:50:20Z</time>
      </trkpt>
      <trkpt lat="45.85583" lon="6.43517">
        <ele>1670.6</ele>
        <time>2024-04-27T11:50:21Z</time>
      </trkpt>
      <trkpt lat="45.85583" lon="6.43517">
        <ele>1670.6</ele>
        <time>2024-04-27T11:50:22Z</time>
      </trkpt>
      <trkpt lat="45.85583" lon="6.43517">
        <ele>1670.6</ele>
        <time>2024-04-27T11:50:23Z</time>
      </trkpt>
      <trkpt lat="45.85583" lon="6.43517">
        <ele>1670.6</ele>
        <time>2024-04-27T11:50:24Z</time>
      </trkpt>
      <trkpt lat="45.85583" lon="6.43517">
        <ele>1670.6</ele>
        <time>2024-04-27T11:50:25Z</time>
      </trkpt>
      <trkpt lat="45.85583" lon="6.43517">
        <ele>1670.6</ele>
        <time>2024-04-27T11:50:26Z</time>
      </trkpt>
      <trkpt lat="45.85583" lon="6.43517">
        <ele>1670.6</ele>
        <time>2024-04-27T11:50:27Z</time>
      </trkpt>
      <trkpt lat="45.85583" lon="6.43517">
        <ele>1670.6</ele>
        <time>2024-04-27T11:50:28Z</time>
      </trkpt>
      <trkpt lat="45.85583" lon="6.43517">
        <ele>1670.6</ele>
        <time>2024-04-27T11:50:29Z</time>
      </trkpt>
      <trkpt lat="45.85583" lon="6.43517">
        <ele>1670.6</ele>
        <time>2024-04-27T11:50:30Z</time>
      </trkpt>
      <trkpt lat="45.85584" lon="6.43517">
        <ele>1670.6</ele>
        <time>2024-04-27T11:50:31Z</time>
      </trkpt>
      <trkpt lat="45.85584" lon="6.43517">
        <ele>1670.6</ele>
        <time>2024-04-27T11:50:32Z</time>
      </trkpt>
      <trkpt lat="45.85584" lon="6.43517">
        <ele>1670.6</ele>
        <time>2024-04-27T11:50:33Z</time>
      </trkpt>
      <trkpt lat="45.85584" lon="6.43517">
        <ele>1670.6</ele>
        <time>2024-04-27T11:50:34Z</time>
      </trkpt>
      <trkpt lat="45.85584" lon="6.43517">
        <ele>1670.6</ele>
        <time>2024-04-27T11:50:35Z</time>
      </trkpt>
      <trkpt lat="45.85584" lon="6.43517">
        <ele>1670.6</ele>
        <time>2024-04-27T11:50:36Z</time>
      </trkpt>
      <trkpt lat="45.85584" lon="6.43517">
        <ele>1670.6</ele>
        <time>2024-04-27T11:50:37Z</time>
      </trkpt>
      <trkpt lat="45.85584" lon="6.43517">
        <ele>1670.6</ele>
        <time>2024-04-27T11:50:38Z</time>
      </trkpt>
      <trkpt lat="45.85584" lon="6.43517">
        <ele>1670.6</ele>
        <time>2024-04-27T11:50:39Z</time>
      </trkpt>
      <trkpt lat="45.85584" lon="6.43517">
        <ele>1670.6</ele>
        <time>2024-04-27T11:50:40Z</time>
      </trkpt>
      <trkpt lat="45.85584" lon="6.43517">
        <ele>1670.6</ele>
        <time>2024-04-27T11:50:41Z</time>
      </trkpt>
      <trkpt lat="45.85584" lon="6.43517">
        <ele>1670.6</ele>
        <time>2024-04-27T11:50:42Z</time>
      </trkpt>
      <trkpt lat="45.85584" lon="6.43517">
        <ele>1670.6</ele>
        <time>2024-04-27T11:50:43Z</time>
      </trkpt>
      <trkpt lat="45.85584" lon="6.43517">
        <ele>1670.6</ele>
        <time>2024-04-27T11:50:44Z</time>
      </trkpt>
      <trkpt lat="45.85584" lon="6.43517">
        <ele>1672.6</ele>
        <time>2024-04-27T11:50:45Z</time>
      </trkpt>
      <trkpt lat="45.85584" lon="6.43517">
        <ele>1672.6</ele>
        <time>2024-04-27T11:50:46Z</time>
      </trkpt>
      <trkpt lat="45.85584" lon="6.43517">
        <ele>1672.6</ele>
        <time>2024-04-27T11:50:47Z</time>
      </trkpt>
      <trkpt lat="45.85584" lon="6.43517">
        <ele>1672.6</ele>
        <time>2024-04-27T11:50:48Z</time>
      </trkpt>
      <trkpt lat="45.85584" lon="6.43517">
        <ele>1672.6</ele>
        <time>2024-04-27T11:50:49Z</time>
      </trkpt>
      <trkpt lat="45.85584" lon="6.43517">
        <ele>1672.6</ele>
        <time>2024-04-27T11:50:50Z</time>
      </trkpt>
      <trkpt lat="45.85584" lon="6.43517">
        <ele>1672.6</ele>
        <time>2024-04-27T11:50:51Z</time>
      </trkpt>
      <trkpt lat="45.85584" lon="6.43517">
        <ele>1672.6</ele>
        <time>2024-04-27T11:50:52Z</time>
      </trkpt>
      <trkpt lat="45.85584" lon="6.43517">
        <ele>1672.6</ele>
        <time>2024-04-27T11:50:53Z</time>
      </trkpt>
      <trkpt lat="45.85584" lon="6.43517">
        <ele>1672.6</ele>
        <time>2024-04-27T11:50:54Z</time>
      </trkpt>
      <trkpt lat="45.85584" lon="6.43517">
        <ele>1672.6</ele>
        <time>2024-04-27T11:50:55Z</time>
      </trkpt>
      <trkpt lat="45.85584" lon="6.43517">
        <ele>1672.6</ele>
        <time>2024-04-27T11:50:56Z</time>
      </trkpt>
      <trkpt lat="45.85584" lon="6.43518">
        <ele>1672.6</ele>
        <time>2024-04-27T11:50:57Z</time>
      </trkpt>
      <trkpt lat="45.85584" lon="6.43518">
        <ele>1672.6</ele>
        <time>2024-04-27T11:50:58Z</time>
      </trkpt>
      <trkpt lat="45.85584" lon="6.43518">
        <ele>1671.7</ele>
        <time>2024-04-27T11:50:59Z</time>
      </trkpt>
      <trkpt lat="45.85584" lon="6.43518">
        <ele>1671.7</ele>
        <time>2024-04-27T11:51:00Z</time>
      </trkpt>
      <trkpt lat="45.85584" lon="6.43518">
        <ele>1671.7</ele>
        <time>2024-04-27T11:51:01Z</time>
      </trkpt>
      <trkpt lat="45.85584" lon="6.43518">
        <ele>1671.7</ele>
        <time>2024-04-27T11:51:02Z</time>
      </trkpt>
      <trkpt lat="45.85584" lon="6.43518">
        <ele>1670.6</ele>
        <time>2024-04-27T11:51:03Z</time>
      </trkpt>
      <trkpt lat="45.85584" lon="6.43518">
        <ele>1670.6</ele>
        <time>2024-04-27T11:51:04Z</time>
      </trkpt>
      <trkpt lat="45.85584" lon="6.43518">
        <ele>1670.6</ele>
        <time>2024-04-27T11:51:05Z</time>
      </trkpt>
      <trkpt lat="45.85584" lon="6.43518">
        <ele>1670.6</ele>
        <time>2024-04-27T11:51:06Z</time>
      </trkpt>
      <trkpt lat="45.85584" lon="6.43518">
        <ele>1669.7</ele>
        <time>2024-04-27T11:51:07Z</time>
      </trkpt>
      <trkpt lat="45.85584" lon="6.43518">
        <ele>1669.7</ele>
        <time>2024-04-27T11:51:08Z</time>
      </trkpt>
      <trkpt lat="45.85584" lon="6.43518">
        <ele>1668.6</ele>
        <time>2024-04-27T11:51:09Z</time>
      </trkpt>
      <trkpt lat="45.85584" lon="6.43518">
        <ele>1668.6</ele>
        <time>2024-04-27T11:51:10Z</time>
      </trkpt>
      <trkpt lat="45.85584" lon="6.43518">
        <ele>1667.6</ele>
        <time>2024-04-27T11:51:11Z</time>
      </trkpt>
      <trkpt lat="45.85584" lon="6.43518">
        <ele>1667.6</ele>
        <time>2024-04-27T11:51:12Z</time>
      </trkpt>
      <trkpt lat="45.85584" lon="6.43518">
        <ele>1666.7</ele>
        <time>2024-04-27T11:51:13Z</time>
      </trkpt>
      <trkpt lat="45.85584" lon="6.43518">
        <ele>1666.7</ele>
        <time>2024-04-27T11:51:14Z</time>
      </trkpt>
      <trkpt lat="45.85584" lon="6.43518">
        <ele>1665.6</ele>
        <time>2024-04-27T11:51:15Z</time>
      </trkpt>
      <trkpt lat="45.85584" lon="6.43518">
        <ele>1665.6</ele>
        <time>2024-04-27T11:51:16Z</time>
      </trkpt>
      <trkpt lat="45.85584" lon="6.43518">
        <ele>1664.7</ele>
        <time>2024-04-27T11:51:17Z</time>
      </trkpt>
      <trkpt lat="45.85584" lon="6.43518">
        <ele>1664.7</ele>
        <time>2024-04-27T11:51:18Z</time>
      </trkpt>
      <trkpt lat="45.85584" lon="6.43518">
        <ele>1664.7</ele>
        <time>2024-04-27T11:51:19Z</time>
      </trkpt>
      <trkpt lat="45.85584" lon="6.43518">
        <ele>1664.7</ele>
        <time>2024-04-27T11:51:20Z</time>
      </trkpt>
      <trkpt lat="45.85584" lon="6.43518">
        <ele>1664.7</ele>
        <time>2024-04-27T11:51:21Z</time>
      </trkpt>
      <trkpt lat="45.85584" lon="6.43518">
        <ele>1664.7</ele>
        <time>2024-04-27T11:51:22Z</time>
      </trkpt>
      <trkpt lat="45.85584" lon="6.43518">
        <ele>1664.7</ele>
        <time>2024-04-27T11:51:23Z</time>
      </trkpt>
      <trkpt lat="45.85584" lon="6.43518">
        <ele>1664.7</ele>
        <time>2024-04-27T11:51:24Z</time>
      </trkpt>
      <trkpt lat="45.85584" lon="6.43518">
        <ele>1660.6</ele>
        <time>2024-04-27T11:51:25Z</time>
      </trkpt>
      <trkpt lat="45.85584" lon="6.43518">
        <ele>1660.6</ele>
        <time>2024-04-27T11:51:26Z</time>
      </trkpt>
      <trkpt lat="45.85584" lon="6.43518">
        <ele>1659.7</ele>
        <time>2024-04-27T11:51:27Z</time>
      </trkpt>
      <trkpt lat="45.85584" lon="6.43518">
        <ele>1659.7</ele>
        <time>2024-04-27T11:51:28Z</time>
      </trkpt>
      <trkpt lat="45.85584" lon="6.43518">
        <ele>1659.7</ele>
        <time>2024-04-27T11:51:29Z</time>
      </trkpt>
      <trkpt lat="45.85584" lon="6.43518">
        <ele>1659.7</ele>
        <time>2024-04-27T11:51:30Z</time>
      </trkpt>
      <trkpt lat="45.85584" lon="6.43518">
        <ele>1659.7</ele>
        <time>2024-04-27T11:51:31Z</time>
      </trkpt>
      <trkpt lat="45.85584" lon="6.43518">
        <ele>1659.7</ele>
        <time>2024-04-27T11:51:32Z</time>
      </trkpt>
      <trkpt lat="45.85584" lon="6.43518">
        <ele>1654.6</ele>
        <time>2024-04-27T11:51:33Z</time>
      </trkpt>
      <trkpt lat="45.85584" lon="6.43518">
        <ele>1654.6</ele>
        <time>2024-04-27T11:51:34Z</time>
      </trkpt>
      <trkpt lat="45.85584" lon="6.43518">
        <ele>1653.7</ele>
        <time>2024-04-27T11:51:35Z</time>
      </trkpt>
      <trkpt lat="45.85584" lon="6.43517">
        <ele>1653.7</ele>
        <time>2024-04-27T11:51:36Z</time>
      </trkpt>
      <trkpt lat="45.85584" lon="6.43517">
        <ele>1651.6</ele>
        <time>2024-04-27T11:51:37Z</time>
      </trkpt>
      <trkpt lat="45.85584" lon="6.43517">
        <ele>1651.6</ele>
        <time>2024-04-27T11:51:38Z</time>
      </trkpt>
      <trkpt lat="45.85584" lon="6.43517">
        <ele>1650.7</ele>
        <time>2024-04-27T11:51:39Z</time>
      </trkpt>
      <trkpt lat="45.85584" lon="6.43517">
        <ele>1650.7</ele>
        <time>2024-04-27T11:51:40Z</time>
      </trkpt>
      <trkpt lat="45.85584" lon="6.43517">
        <ele>1648.7</ele>
        <time>2024-04-27T11:51:41Z</time>
      </trkpt>
      <trkpt lat="45.85584" lon="6.43517">
        <ele>1648.7</ele>
        <time>2024-04-27T11:51:42Z</time>
      </trkpt>
      <trkpt lat="45.85584" lon="6.43517">
        <ele>1647.6</ele>
        <time>2024-04-27T11:51:43Z</time>
      </trkpt>
      <trkpt lat="45.85584" lon="6.43517">
        <ele>1647.6</ele>
        <time>2024-04-27T11:51:44Z</time>
      </trkpt>
      <trkpt lat="45.85584" lon="6.43517">
        <ele>1645.6</ele>
        <time>2024-04-27T11:51:45Z</time>
      </trkpt>
      <trkpt lat="45.85584" lon="6.43517">
        <ele>1645.6</ele>
        <time>2024-04-27T11:51:46Z</time>
      </trkpt>
      <trkpt lat="45.85584" lon="6.43517">
        <ele>1644.6</ele>
        <time>2024-04-27T11:51:47Z</time>
      </trkpt>
      <trkpt lat="45.85584" lon="6.43517">
        <ele>1644.6</ele>
        <time>2024-04-27T11:51:48Z</time>
      </trkpt>
      <trkpt lat="45.85584" lon="6.43517">
        <ele>1642.6</ele>
        <time>2024-04-27T11:51:49Z</time>
      </trkpt>
      <trkpt lat="45.85584" lon="6.43517">
        <ele>1642.6</ele>
        <time>2024-04-27T11:51:50Z</time>
      </trkpt>
      <trkpt lat="45.85584" lon="6.43517">
        <ele>1641.7</ele>
        <time>2024-04-27T11:51:51Z</time>
      </trkpt>
      <trkpt lat="45.85584" lon="6.43517">
        <ele>1641.7</ele>
        <time>2024-04-27T11:51:52Z</time>
      </trkpt>
      <trkpt lat="45.85584" lon="6.43517">
        <ele>1639.7</ele>
        <time>2024-04-27T11:51:53Z</time>
      </trkpt>
      <trkpt lat="45.85584" lon="6.43517">
        <ele>1639.7</ele>
        <time>2024-04-27T11:51:54Z</time>
      </trkpt>
      <trkpt lat="45.85584" lon="6.43517">
        <ele>1639.7</ele>
        <time>2024-04-27T11:51:55Z</time>
      </trkpt>
      <trkpt lat="45.85584" lon="6.43517">
        <ele>1639.7</ele>
        <time>2024-04-27T11:51:56Z</time>
      </trkpt>
      <trkpt lat="45.85584" lon="6.43517">
        <ele>1638.6</ele>
        <time>2024-04-27T11:51:57Z</time>
      </trkpt>
      <trkpt lat="45.85584" lon="6.43517">
        <ele>1638.6</ele>
        <time>2024-04-27T11:51:58Z</time>
      </trkpt>
      <trkpt lat="45.85584" lon="6.43517">
        <ele>1636.6</ele>
        <time>2024-04-27T11:51:59Z</time>
      </trkpt>
      <trkpt lat="45.85584" lon="6.43517">
        <ele>1636.6</ele>
        <time>2024-04-27T11:52:00Z</time>
      </trkpt>
      <trkpt lat="45.85584" lon="6.43517">
        <ele>1635.6</ele>
        <time>2024-04-27T11:52:01Z</time>
      </trkpt>
      <trkpt lat="45.85584" lon="6.43517">
        <ele>1635.6</ele>
        <time>2024-04-27T11:52:02Z</time>
      </trkpt>
      <trkpt lat="45.85584" lon="6.43517">
        <ele>1634.7</ele>
        <time>2024-04-27T11:52:03Z</time>
      </trkpt>
      <trkpt lat="45.85584" lon="6.43517">
        <ele>1634.7</ele>
        <time>2024-04-27T11:52:04Z</time>
      </trkpt>
      <trkpt lat="45.85584" lon="6.43517">
        <ele>1633.6</ele>
        <time>2024-04-27T11:52:05Z</time>
      </trkpt>
      <trkpt lat="45.85584" lon="6.43517">
        <ele>1633.6</ele>
        <time>2024-04-27T11:52:06Z</time>
      </trkpt>
      <trkpt lat="45.85584" lon="6.43517">
        <ele>1632.7</ele>
        <time>2024-04-27T11:52:07Z</time>
      </trkpt>
      <trkpt lat="45.85584" lon="6.43517">
        <ele>1632.7</ele>
        <time>2024-04-27T11:52:08Z</time>
      </trkpt>
      <trkpt lat="45.85584" lon="6.43517">
        <ele>1631.6</ele>
        <time>2024-04-27T11:52:09Z</time>
      </trkpt>
      <trkpt lat="45.85584" lon="6.43517">
        <ele>1631.6</ele>
        <time>2024-04-27T11:52:10Z</time>
      </trkpt>
      <trkpt lat="45.85584" lon="6.43517">
        <ele>1630.7</ele>
        <time>2024-04-27T11:52:11Z</time>
      </trkpt>
      <trkpt lat="45.85584" lon="6.43517">
        <ele>1630.7</ele>
        <time>2024-04-27T11:52:12Z</time>
      </trkpt>
      <trkpt lat="45.85584" lon="6.43517">
        <ele>1628.7</ele>
        <time>2024-04-27T11:52:13Z</time>
      </trkpt>
      <trkpt lat="45.85584" lon="6.43517">
        <ele>1628.7</ele>
        <time>2024-04-27T11:52:14Z</time>
      </trkpt>
      <trkpt lat="45.85584" lon="6.43517">
        <ele>1627.7</ele>
        <time>2024-04-27T11:52:15Z</time>
      </trkpt>
      <trkpt lat="45.85584" lon="6.43517">
        <ele>1627.7</ele>
        <time>2024-04-27T11:52:16Z</time>
      </trkpt>
      <trkpt lat="45.85584" lon="6.43517">
        <ele>1626.6</ele>
        <time>2024-04-27T11:52:17Z</time>
      </trkpt>
      <trkpt lat="45.85584" lon="6.43517">
        <ele>1626.6</ele>
        <time>2024-04-27T11:52:18Z</time>
      </trkpt>
      <trkpt lat="45.85584" lon="6.43517">
        <ele>1624.6</ele>
        <time>2024-04-27T11:52:19Z</time>
      </trkpt>
      <trkpt lat="45.85584" lon="6.43517">
        <ele>1624.6</ele>
        <time>2024-04-27T11:52:20Z</time>
      </trkpt>
      <trkpt lat="45.85584" lon="6.43517">
        <ele>1623.7</ele>
        <time>2024-04-27T11:52:21Z</time>
      </trkpt>
      <trkpt lat="45.85584" lon="6.43517">
        <ele>1623.7</ele>
        <time>2024-04-27T11:52:22Z</time>
      </trkpt>
      <trkpt lat="45.85584" lon="6.43517">
        <ele>1622.6</ele>
        <time>2024-04-27T11:52:23Z</time>
      </trkpt>
      <trkpt lat="45.85584" lon="6.43517">
        <ele>1622.6</ele>
        <time>2024-04-27T11:52:24Z</time>
      </trkpt>
      <trkpt lat="45.85584" lon="6.43517">
        <ele>1621.7</ele>
        <time>2024-04-27T11:52:25Z</time>
      </trkpt>
      <trkpt lat="45.85584" lon="6.43517">
        <ele>1621.7</ele>
        <time>2024-04-27T11:52:26Z</time>
      </trkpt>
      <trkpt lat="45.85584" lon="6.43517">
        <ele>1620.6</ele>
        <time>2024-04-27T11:52:27Z</time>
      </trkpt>
      <trkpt lat="45.85584" lon="6.43517">
        <ele>1620.6</ele>
        <time>2024-04-27T11:52:28Z</time>
      </trkpt>
      <trkpt lat="45.85584" lon="6.43517">
        <ele>1619.6</ele>
        <time>2024-04-27T11:52:29Z</time>
      </trkpt>
      <trkpt lat="45.85584" lon="6.43517">
        <ele>1619.6</ele>
        <time>2024-04-27T11:52:30Z</time>
      </trkpt>
      <trkpt lat="45.85584" lon="6.43517">
        <ele>1618.7</ele>
        <time>2024-04-27T11:52:31Z</time>
      </trkpt>
      <trkpt lat="45.85584" lon="6.43517">
        <ele>1618.7</ele>
        <time>2024-04-27T11:52:32Z</time>
      </trkpt>
      <trkpt lat="45.85584" lon="6.43517">
        <ele>1618.7</ele>
        <time>2024-04-27T11:52:33Z</time>
      </trkpt>
      <trkpt lat="45.85584" lon="6.43517">
        <ele>1618.7</ele>
        <time>2024-04-27T11:52:34Z</time>
      </trkpt>
      <trkpt lat="45.85584" lon="6.43517">
        <ele>1618.7</ele>
        <time>2024-04-27T11:52:35Z</time>
      </trkpt>
      <trkpt lat="45.85584" lon="6.43517">
        <ele>1618.7</ele>
        <time>2024-04-27T11:52:36Z</time>
      </trkpt>
      <trkpt lat="45.85584" lon="6.43517">
        <ele>1614.7</ele>
        <time>2024-04-27T11:52:37Z</time>
      </trkpt>
      <trkpt lat="45.85584" lon="6.43517">
        <ele>1614.7</ele>
        <time>2024-04-27T11:52:38Z</time>
      </trkpt>
      <trkpt lat="45.85584" lon="6.43517">
        <ele>1614.7</ele>
        <time>2024-04-27T11:52:39Z</time>
      </trkpt>
      <trkpt lat="45.85584" lon="6.43517">
        <ele>1614.7</ele>
        <time>2024-04-27T11:52:40Z</time>
      </trkpt>
      <trkpt lat="45.85584" lon="6.43517">
        <ele>1614.7</ele>
        <time>2024-04-27T11:52:41Z</time>
      </trkpt>
      <trkpt lat="45.85584" lon="6.43517">
        <ele>1614.7</ele>
        <time>2024-04-27T11:52:42Z</time>
      </trkpt>
      <trkpt lat="45.85584" lon="6.43517">
        <ele>1610.6</ele>
        <time>2024-04-27T11:52:43Z</time>
      </trkpt>
      <trkpt lat="45.85584" lon="6.43517">
        <ele>1610.6</ele>
        <time>2024-04-27T11:52:44Z</time>
      </trkpt>
      <trkpt lat="45.85584" lon="6.43517">
        <ele>1609.7</ele>
        <time>2024-04-27T11:52:45Z</time>
      </trkpt>
      <trkpt lat="45.85584" lon="6.43517">
        <ele>1609.7</ele>
        <time>2024-04-27T11:52:46Z</time>
      </trkpt>
      <trkpt lat="45.85584" lon="6.43517">
        <ele>1609.7</ele>
        <time>2024-04-27T11:52:47Z</time>
      </trkpt>
      <trkpt lat="45.85584" lon="6.43517">
        <ele>1609.7</ele>
        <time>2024-04-27T11:52:48Z</time>
      </trkpt>
      <trkpt lat="45.85584" lon="6.43517">
        <ele>1608.6</ele>
        <time>2024-04-27T11:52:49Z</time>
      </trkpt>
      <trkpt lat="45.85584" lon="6.43517">
        <ele>1608.6</ele>
        <time>2024-04-27T11:52:50Z</time>
      </trkpt>
      <trkpt lat="45.85584" lon="6.43517">
        <ele>1608.6</ele>
        <time>2024-04-27T11:52:51Z</time>
      </trkpt>
      <trkpt lat="45.85584" lon="6.43517">
        <ele>1608.6</ele>
        <time>2024-04-27T11:52:52Z</time>
      </trkpt>
      <trkpt lat="45.85584" lon="6.43517">
        <ele>1607.7</ele>
        <time>2024-04-27T11:52:53Z</time>
      </trkpt>
      <trkpt lat="45.85584" lon="6.43517">
        <ele>1607.7</ele>
        <time>2024-04-27T11:52:54Z</time>
      </trkpt>
      <trkpt lat="45.85584" lon="6.43517">
        <ele>1606.6</ele>
        <time>2024-04-27T11:52:55Z</time>
      </trkpt>
      <trkpt lat="45.85584" lon="6.43517">
        <ele>1606.6</ele>
        <time>2024-04-27T11:52:56Z</time>
      </trkpt>
      <trkpt lat="45.85584" lon="6.43517">
        <ele>1604.6</ele>
        <time>2024-04-27T11:52:57Z</time>
      </trkpt>
      <trkpt lat="45.85584" lon="6.43517">
        <ele>1604.6</ele>
        <time>2024-04-27T11:52:58Z</time>
      </trkpt>
      <trkpt lat="45.85584" lon="6.43517">
        <ele>1603.6</ele>
        <time>2024-04-27T11:52:59Z</time>
      </trkpt>
      <trkpt lat="45.85584" lon="6.43517">
        <ele>1603.6</ele>
        <time>2024-04-27T11:53:00Z</time>
      </trkpt>
      <trkpt lat="45.85584" lon="6.43517">
        <ele>1601.6</ele>
        <time>2024-04-27T11:53:01Z</time>
      </trkpt>
      <trkpt lat="45.85584" lon="6.43517">
        <ele>1601.6</ele>
        <time>2024-04-27T11:53:02Z</time>
      </trkpt>
      <trkpt lat="45.85584" lon="6.43517">
        <ele>1600.7</ele>
        <time>2024-04-27T11:53:03Z</time>
      </trkpt>
      <trkpt lat="45.85584" lon="6.43517">
        <ele>1600.7</ele>
        <time>2024-04-27T11:53:04Z</time>
      </trkpt>
      <trkpt lat="45.85584" lon="6.43517">
        <ele>1599.6</ele>
        <time>2024-04-27T11:53:05Z</time>
      </trkpt>
      <trkpt lat="45.85584" lon="6.43517">
        <ele>1599.6</ele>
        <time>2024-04-27T11:53:06Z</time>
      </trkpt>
      <trkpt lat="45.85584" lon="6.43517">
        <ele>1597.6</ele>
        <time>2024-04-27T11:53:07Z</time>
      </trkpt>
      <trkpt lat="45.85584" lon="6.43517">
        <ele>1597.6</ele>
        <time>2024-04-27T11:53:08Z</time>
      </trkpt>
      <trkpt lat="45.85584" lon="6.43517">
        <ele>1596.7</ele>
        <time>2024-04-27T11:53:09Z</time>
      </trkpt>
      <trkpt lat="45.85584" lon="6.43517">
        <ele>1596.7</ele>
        <time>2024-04-27T11:53:10Z</time>
      </trkpt>
      <trkpt lat="45.85584" lon="6.43517">
        <ele>1595.6</ele>
        <time>2024-04-27T11:53:11Z</time>
      </trkpt>
      <trkpt lat="45.85584" lon="6.43517">
        <ele>1595.6</ele>
        <time>2024-04-27T11:53:12Z</time>
      </trkpt>
      <trkpt lat="45.85584" lon="6.43517">
        <ele>1594.6</ele>
        <time>2024-04-27T11:53:13Z</time>
      </trkpt>
      <trkpt lat="45.85584" lon="6.43517">
        <ele>1594.6</ele>
        <time>2024-04-27T11:53:14Z</time>
      </trkpt>
      <trkpt lat="45.85584" lon="6.43517">
        <ele>1592.6</ele>
        <time>2024-04-27T11:53:15Z</time>
      </trkpt>
      <trkpt lat="45.85584" lon="6.43517">
        <ele>1592.6</ele>
        <time>2024-04-27T11:53:16Z</time>
      </trkpt>
      <trkpt lat="45.85584" lon="6.43517">
        <ele>1591.7</ele>
        <time>2024-04-27T11:53:17Z</time>
      </trkpt>
      <trkpt lat="45.85584" lon="6.43517">
        <ele>1591.7</ele>
        <time>2024-04-27T11:53:18Z</time>
      </trkpt>
      <trkpt lat="45.85584" lon="6.43517">
        <ele>1590.6</ele>
        <time>2024-04-27T11:53:19Z</time>
      </trkpt>
      <trkpt lat="45.85584" lon="6.43517">
        <ele>1590.6</ele>
        <time>2024-04-27T11:53:20Z</time>
      </trkpt>
      <trkpt lat="45.85584" lon="6.43517">
        <ele>1589.7</ele>
        <time>2024-04-27T11:53:21Z</time>
      </trkpt>
      <trkpt lat="45.85584" lon="6.43517">
        <ele>1589.7</ele>
        <time>2024-04-27T11:53:22Z</time>
      </trkpt>
      <trkpt lat="45.85584" lon="6.43517">
        <ele>1588.6</ele>
        <time>2024-04-27T11:53:23Z</time>
      </trkpt>
      <trkpt lat="45.85584" lon="6.43517">
        <ele>1588.6</ele>
        <time>2024-04-27T11:53:24Z</time>
      </trkpt>
      <trkpt lat="45.85584" lon="6.43517">
        <ele>1586.7</ele>
        <time>2024-04-27T11:53:25Z</time>
      </trkpt>
      <trkpt lat="45.85584" lon="6.43517">
        <ele>1586.7</ele>
        <time>2024-04-27T11:53:26Z</time>
      </trkpt>
      <trkpt lat="45.85584" lon="6.43517">
        <ele>1586.7</ele>
        <time>2024-04-27T11:53:27Z</time>
      </trkpt>
      <trkpt lat="45.85584" lon="6.43517">
        <ele>1586.7</ele>
        <time>2024-04-27T11:53:28Z</time>
      </trkpt>
      <trkpt lat="45.85584" lon="6.43517">
        <ele>1584.7</ele>
        <time>2024-04-27T11:53:29Z</time>
      </trkpt>
      <trkpt lat="45.85584" lon="6.43517">
        <ele>1584.7</ele>
        <time>2024-04-27T11:53:30Z</time>
      </trkpt>
      <trkpt lat="45.85584" lon="6.43517">
        <ele>1583.6</ele>
        <time>2024-04-27T11:53:31Z</time>
      </trkpt>
      <trkpt lat="45.85584" lon="6.43517">
        <ele>1583.6</ele>
        <time>2024-04-27T11:53:32Z</time>
      </trkpt>
      <trkpt lat="45.85584" lon="6.43517">
        <ele>1582.7</ele>
        <time>2024-04-27T11:53:33Z</time>
      </trkpt>
      <trkpt lat="45.85584" lon="6.43517">
        <ele>1582.7</ele>
        <time>2024-04-27T11:53:34Z</time>
      </trkpt>
      <trkpt lat="45.85584" lon="6.43517">
        <ele>1581.6</ele>
        <time>2024-04-27T11:53:35Z</time>
      </trkpt>
      <trkpt lat="45.85584" lon="6.43517">
        <ele>1581.6</ele>
        <time>2024-04-27T11:53:36Z</time>
      </trkpt>
      <trkpt lat="45.85584" lon="6.43517">
        <ele>1580.7</ele>
        <time>2024-04-27T11:53:37Z</time>
      </trkpt>
      <trkpt lat="45.85584" lon="6.43517">
        <ele>1580.7</ele>
        <time>2024-04-27T11:53:38Z</time>
      </trkpt>
      <trkpt lat="45.85584" lon="6.43517">
        <ele>1579.6</ele>
        <time>2024-04-27T11:53:39Z</time>
      </trkpt>
      <trkpt lat="45.85584" lon="6.43516">
        <ele>1579.6</ele>
        <time>2024-04-27T11:53:40Z</time>
      </trkpt>
      <trkpt lat="45.85584" lon="6.43516">
        <ele>1579.6</ele>
        <time>2024-04-27T11:53:41Z</time>
      </trkpt>
      <trkpt lat="45.85583" lon="6.43516">
        <ele>1579.6</ele>
        <time>2024-04-27T11:53:42Z</time>
      </trkpt>
      <trkpt lat="45.85583" lon="6.43516">
        <ele>1578.6</ele>
        <time>2024-04-27T11:53:43Z</time>
      </trkpt>
      <trkpt lat="45.85583" lon="6.43516">
        <ele>1578.6</ele>
        <time>2024-04-27T11:53:44Z</time>
      </trkpt>
      <trkpt lat="45.85583" lon="6.43516">
        <ele>1578.6</ele>
        <time>2024-04-27T11:53:45Z</time>
      </trkpt>
      <trkpt lat="45.85583" lon="6.43516">
        <ele>1578.6</ele>
        <time>2024-04-27T11:53:46Z</time>
      </trkpt>
      <trkpt lat="45.85583" lon="6.43516">
        <ele>1577.7</ele>
        <time>2024-04-27T11:53:47Z</time>
      </trkpt>
      <trkpt lat="45.85583" lon="6.43516">
        <ele>1577.7</ele>
        <time>2024-04-27T11:53:48Z</time>
      </trkpt>
      <trkpt lat="45.85583" lon="6.43516">
        <ele>1577.7</ele>
        <time>2024-04-27T11:53:49Z</time>
      </trkpt>
      <trkpt lat="45.85582" lon="6.43515">
        <ele>1577.7</ele>
        <time>2024-04-27T11:53:50Z</time>
      </trkpt>
      <trkpt lat="45.85582" lon="6.43515">
        <ele>1576.6</ele>
        <time>2024-04-27T11:53:51Z</time>
      </trkpt>
      <trkpt lat="45.85582" lon="6.43515">
        <ele>1576.6</ele>
        <time>2024-04-27T11:53:52Z</time>
      </trkpt>
      <trkpt lat="45.85582" lon="6.43515">
        <ele>1575.7</ele>
        <time>2024-04-27T11:53:53Z</time>
      </trkpt>
      <trkpt lat="45.85582" lon="6.43515">
        <ele>1575.7</ele>
        <time>2024-04-27T11:53:54Z</time>
      </trkpt>
      <trkpt lat="45.85582" lon="6.43515">
        <ele>1574.6</ele>
        <time>2024-04-27T11:53:55Z</time>
      </trkpt>
      <trkpt lat="45.85582" lon="6.43515">
        <ele>1574.6</ele>
        <time>2024-04-27T11:53:56Z</time>
      </trkpt>
      <trkpt lat="45.85582" lon="6.43515">
        <ele>1574.6</ele>
        <time>2024-04-27T11:53:57Z</time>
      </trkpt>
      <trkpt lat="45.85582" lon="6.43515">
        <ele>1574.6</ele>
        <time>2024-04-27T11:53:58Z</time>
      </trkpt>
      <trkpt lat="45.85582" lon="6.43515">
        <ele>1573.7</ele>
        <time>2024-04-27T11:53:59Z</time>
      </trkpt>
      <trkpt lat="45.85582" lon="6.43515">
        <ele>1573.7</ele>
        <time>2024-04-27T11:54:00Z</time>
      </trkpt>
      <trkpt lat="45.85582" lon="6.43515">
        <ele>1573.7</ele>
        <time>2024-04-27T11:54:01Z</time>
      </trkpt>
      <trkpt lat="45.85582" lon="6.43515">
        <ele>1573.7</ele>
        <time>2024-04-27T11:54:02Z</time>
      </trkpt>
      <trkpt lat="45.85582" lon="6.43515">
        <ele>1573.7</ele>
        <time>2024-04-27T11:54:03Z</time>
      </trkpt>
      <trkpt lat="45.85582" lon="6.43515">
        <ele>1573.7</ele>
        <time>2024-04-27T11:54:04Z</time>
      </trkpt>
      <trkpt lat="45.85582" lon="6.43515">
        <ele>1587.6</ele>
        <time>2024-04-27T11:54:05Z</time>
      </trkpt>
      <trkpt lat="45.85582" lon="6.43515">
        <ele>1587.6</ele>
        <time>2024-04-27T11:54:06Z</time>
      </trkpt>
      <trkpt lat="45.85582" lon="6.43515">
        <ele>1612.7</ele>
        <time>2024-04-27T11:54:07Z</time>
      </trkpt>
      <trkpt lat="45.85581" lon="6.43515">
        <ele>1612.7</ele>
        <time>2024-04-27T11:54:08Z</time>
      </trkpt>
      <trkpt lat="45.85581" lon="6.43515">
        <ele>1625.7</ele>
        <time>2024-04-27T11:54:09Z</time>
      </trkpt>
      <trkpt lat="45.85581" lon="6.43515">
        <ele>1625.7</ele>
        <time>2024-04-27T11:54:10Z</time>
      </trkpt>
      <trkpt lat="45.85581" lon="6.43515">
        <ele>1625.7</ele>
        <time>2024-04-27T11:54:11Z</time>
      </trkpt>
      <trkpt lat="45.85581" lon="6.43515">
        <ele>1625.7</ele>
        <time>2024-04-27T11:54:12Z</time>
      </trkpt>
      <trkpt lat="45.85581" lon="6.43515">
        <ele>1634.7</ele>
        <time>2024-04-27T11:54:13Z</time>
      </trkpt>
      <trkpt lat="45.85581" lon="6.43515">
        <ele>1634.7</ele>
        <time>2024-04-27T11:54:14Z</time>
      </trkpt>
      <trkpt lat="45.85581" lon="6.43515">
        <ele>1636.6</ele>
        <time>2024-04-27T11:54:15Z</time>
      </trkpt>
      <trkpt lat="45.85581" lon="6.43515">
        <ele>1636.6</ele>
        <time>2024-04-27T11:54:16Z</time>
      </trkpt>
      <trkpt lat="45.85581" lon="6.43516">
        <ele>1636.6</ele>
        <time>2024-04-27T11:54:17Z</time>
      </trkpt>
      <trkpt lat="45.85581" lon="6.43517">
        <ele>1636.6</ele>
        <time>2024-04-27T11:54:18Z</time>
      </trkpt>
      <trkpt lat="45.85581" lon="6.43517">
        <ele>1636.6</ele>
        <time>2024-04-27T11:54:19Z</time>
      </trkpt>
      <trkpt lat="45.85581" lon="6.43518">
        <ele>1636.6</ele>
        <time>2024-04-27T11:54:20Z</time>
      </trkpt>
      <trkpt lat="45.85581" lon="6.43518">
        <ele>1637.7</ele>
        <time>2024-04-27T11:54:21Z</time>
      </trkpt>
      <trkpt lat="45.85581" lon="6.43518">
        <ele>1637.7</ele>
        <time>2024-04-27T11:54:22Z</time>
      </trkpt>
      <trkpt lat="45.85581" lon="6.43518">
        <ele>1637.7</ele>
        <time>2024-04-27T11:54:23Z</time>
      </trkpt>
      <trkpt lat="45.85581" lon="6.43518">
        <ele>1637.7</ele>
        <time>2024-04-27T11:54:24Z</time>
      </trkpt>
      <trkpt lat="45.85581" lon="6.43518">
        <ele>1637.7</ele>
        <time>2024-04-27T11:54:25Z</time>
      </trkpt>
      <trkpt lat="45.85581" lon="6.43518">
        <ele>1637.7</ele>
        <time>2024-04-27T11:54:26Z</time>
      </trkpt>
      <trkpt lat="45.85581" lon="6.43518">
        <ele>1637.7</ele>
        <time>2024-04-27T11:54:27Z</time>
      </trkpt>
      <trkpt lat="45.85581" lon="6.43518">
        <ele>1637.7</ele>
        <time>2024-04-27T11:54:28Z</time>
      </trkpt>
      <trkpt lat="45.85581" lon="6.43518">
        <ele>1637.7</ele>
        <time>2024-04-27T11:54:29Z</time>
      </trkpt>
      <trkpt lat="45.85581" lon="6.43518">
        <ele>1637.7</ele>
        <time>2024-04-27T11:54:30Z</time>
      </trkpt>
      <trkpt lat="45.85581" lon="6.43518">
        <ele>1636.6</ele>
        <time>2024-04-27T11:54:31Z</time>
      </trkpt>
      <trkpt lat="45.85581" lon="6.43518">
        <ele>1636.6</ele>
        <time>2024-04-27T11:54:32Z</time>
      </trkpt>
      <trkpt lat="45.85581" lon="6.43518">
        <ele>1636.6</ele>
        <time>2024-04-27T11:54:33Z</time>
      </trkpt>
      <trkpt lat="45.85581" lon="6.43518">
        <ele>1636.6</ele>
        <time>2024-04-27T11:54:34Z</time>
      </trkpt>
      <trkpt lat="45.85581" lon="6.43518">
        <ele>1636.6</ele>
        <time>2024-04-27T11:54:35Z</time>
      </trkpt>
      <trkpt lat="45.85581" lon="6.43518">
        <ele>1636.6</ele>
        <time>2024-04-27T11:54:36Z</time>
      </trkpt>
      <trkpt lat="45.85581" lon="6.43518">
        <ele>1636.6</ele>
        <time>2024-04-27T11:54:37Z</time>
      </trkpt>
      <trkpt lat="45.85581" lon="6.43518">
        <ele>1636.6</ele>
        <time>2024-04-27T11:54:38Z</time>
      </trkpt>
      <trkpt lat="45.85581" lon="6.43518">
        <ele>1636.6</ele>
        <time>2024-04-27T11:54:39Z</time>
      </trkpt>
      <trkpt lat="45.85581" lon="6.43518">
        <ele>1636.6</ele>
        <time>2024-04-27T11:54:40Z</time>
      </trkpt>
      <trkpt lat="45.85581" lon="6.43518">
        <ele>1636.6</ele>
        <time>2024-04-27T11:54:41Z</time>
      </trkpt>
      <trkpt lat="45.85581" lon="6.43518">
        <ele>1636.6</ele>
        <time>2024-04-27T11:54:42Z</time>
      </trkpt>
      <trkpt lat="45.85581" lon="6.43517">
        <ele>1636.6</ele>
        <time>2024-04-27T11:54:43Z</time>
      </trkpt>
      <trkpt lat="45.85581" lon="6.43517">
        <ele>1636.6</ele>
        <time>2024-04-27T11:54:44Z</time>
      </trkpt>
      <trkpt lat="45.85581" lon="6.43517">
        <ele>1636.6</ele>
        <time>2024-04-27T11:54:45Z</time>
      </trkpt>
      <trkpt lat="45.85581" lon="6.43517">
        <ele>1636.6</ele>
        <time>2024-04-27T11:54:46Z</time>
      </trkpt>
      <trkpt lat="45.85581" lon="6.43517">
        <ele>1636.6</ele>
        <time>2024-04-27T11:54:47Z</time>
      </trkpt>
      <trkpt lat="45.85581" lon="6.43517">
        <ele>1636.6</ele>
        <time>2024-04-27T11:54:48Z</time>
      </trkpt>
      <trkpt lat="45.85581" lon="6.43517">
        <ele>1636.6</ele>
        <time>2024-04-27T11:54:49Z</time>
      </trkpt>
      <trkpt lat="45.85581" lon="6.43517">
        <ele>1636.6</ele>
        <time>2024-04-27T11:54:50Z</time>
      </trkpt>
      <trkpt lat="45.85581" lon="6.43517">
        <ele>1636.6</ele>
        <time>2024-04-27T11:54:51Z</time>
      </trkpt>
      <trkpt lat="45.85581" lon="6.43517">
        <ele>1636.6</ele>
        <time>2024-04-27T11:54:52Z</time>
      </trkpt>
      <trkpt lat="45.85581" lon="6.43517">
        <ele>1636.6</ele>
        <time>2024-04-27T11:54:53Z</time>
      </trkpt>
      <trkpt lat="45.85581" lon="6.43517">
        <ele>1636.6</ele>
        <time>2024-04-27T11:54:54Z</time>
      </trkpt>
      <trkpt lat="45.85581" lon="6.43517">
        <ele>1636.6</ele>
        <time>2024-04-27T11:54:55Z</time>
      </trkpt>
      <trkpt lat="45.85581" lon="6.43517">
        <ele>1636.6</ele>
        <time>2024-04-27T11:54:56Z</time>
      </trkpt>
      <trkpt lat="45.85581" lon="6.43517">
        <ele>1636.6</ele>
        <time>2024-04-27T11:54:57Z</time>
      </trkpt>
      <trkpt lat="45.85581" lon="6.43517">
        <ele>1636.6</ele>
        <time>2024-04-27T11:54:58Z</time>
      </trkpt>
      <trkpt lat="45.85581" lon="6.43517">
        <ele>1636.6</ele>
        <time>2024-04-27T11:54:59Z</time>
      </trkpt>
      <trkpt lat="45.85581" lon="6.43517">
        <ele>1636.6</ele>
        <time>2024-04-27T11:55:00Z</time>
      </trkpt>
      <trkpt lat="45.85581" lon="6.43517">
        <ele>1636.6</ele>
        <time>2024-04-27T11:55:01Z</time>
      </trkpt>
      <trkpt lat="45.85581" lon="6.43517">
        <ele>1636.6</ele>
        <time>2024-04-27T11:55:02Z</time>
      </trkpt>
      <trkpt lat="45.85581" lon="6.43517">
        <ele>1636.6</ele>
        <time>2024-04-27T11:55:03Z</time>
      </trkpt>
      <trkpt lat="45.85581" lon="6.43517">
        <ele>1636.6</ele>
        <time>2024-04-27T11:55:04Z</time>
      </trkpt>
      <trkpt lat="45.85581" lon="6.43517">
        <ele>1636.6</ele>
        <time>2024-04-27T11:55:05Z</time>
      </trkpt>
      <trkpt lat="45.85581" lon="6.43517">
        <ele>1636.6</ele>
        <time>2024-04-27T11:55:06Z</time>
      </trkpt>
      <trkpt lat="45.85581" lon="6.43517">
        <ele>1636.6</ele>
        <time>2024-04-27T11:55:07Z</time>
      </trkpt>
      <trkpt lat="45.85581" lon="6.43517">
        <ele>1636.6</ele>
        <time>2024-04-27T11:55:08Z</time>
      </trkpt>
      <trkpt lat="45.85581" lon="6.43517">
        <ele>1636.6</ele>
        <time>2024-04-27T11:55:09Z</time>
      </trkpt>
      <trkpt lat="45.85581" lon="6.43518">
        <ele>1636.6</ele>
        <time>2024-04-27T11:55:10Z</time>
      </trkpt>
      <trkpt lat="45.85581" lon="6.43518">
        <ele>1636.6</ele>
        <time>2024-04-27T11:55:11Z</time>
      </trkpt>
      <trkpt lat="45.85581" lon="6.43518">
        <ele>1636.6</ele>
        <time>2024-04-27T11:55:12Z</time>
      </trkpt>
      <trkpt lat="45.85581" lon="6.43518">
        <ele>1636.6</ele>
        <time>2024-04-27T11:55:13Z</time>
      </trkpt>
      <trkpt lat="45.85581" lon="6.43518">
        <ele>1636.6</ele>
        <time>2024-04-27T11:55:14Z</time>
      </trkpt>
      <trkpt lat="45.85581" lon="6.43518">
        <ele>1636.6</ele>
        <time>2024-04-27T11:55:15Z</time>
      </trkpt>
      <trkpt lat="45.85581" lon="6.43518">
        <ele>1636.6</ele>
        <time>2024-04-27T11:55:16Z</time>
      </trkpt>
      <trkpt lat="45.85581" lon="6.43518">
        <ele>1637.7</ele>
        <time>2024-04-27T11:55:17Z</time>
      </trkpt>
      <trkpt lat="45.85581" lon="6.43518">
        <ele>1637.7</ele>
        <time>2024-04-27T11:55:18Z</time>
      </trkpt>
      <trkpt lat="45.85581" lon="6.43519">
        <ele>1637.7</ele>
        <time>2024-04-27T11:55:19Z</time>
      </trkpt>
      <trkpt lat="45.85581" lon="6.43519">
        <ele>1637.7</ele>
        <time>2024-04-27T11:55:20Z</time>
      </trkpt>
      <trkpt lat="45.85581" lon="6.4352">
        <ele>1637.7</ele>
        <time>2024-04-27T11:55:21Z</time>
      </trkpt>
      <trkpt lat="45.85581" lon="6.4352">
        <ele>1637.7</ele>
        <time>2024-04-27T11:55:22Z</time>
      </trkpt>
      <trkpt lat="45.85581" lon="6.43521">
        <ele>1637.7</ele>
        <time>2024-04-27T11:55:23Z</time>
      </trkpt>
      <trkpt lat="45.85581" lon="6.43521">
        <ele>1637.7</ele>
        <time>2024-04-27T11:55:24Z</time>
      </trkpt>
      <trkpt lat="45.85581" lon="6.43521">
        <ele>1637.7</ele>
        <time>2024-04-27T11:55:25Z</time>
      </trkpt>
      <trkpt lat="45.85581" lon="6.43521">
        <ele>1637.7</ele>
        <time>2024-04-27T11:55:26Z</time>
      </trkpt>
      <trkpt lat="45.85581" lon="6.43521">
        <ele>1637.7</ele>
        <time>2024-04-27T11:55:27Z</time>
      </trkpt>
      <trkpt lat="45.85581" lon="6.43521">
        <ele>1637.7</ele>
        <time>2024-04-27T11:55:28Z</time>
      </trkpt>
      <trkpt lat="45.85581" lon="6.43521">
        <ele>1637.7</ele>
        <time>2024-04-27T11:55:29Z</time>
      </trkpt>
      <trkpt lat="45.85581" lon="6.43521">
        <ele>1637.7</ele>
        <time>2024-04-27T11:55:30Z</time>
      </trkpt>
      <trkpt lat="45.85581" lon="6.43521">
        <ele>1637.7</ele>
        <time>2024-04-27T11:55:31Z</time>
      </trkpt>
      <trkpt lat="45.85581" lon="6.43521">
        <ele>1637.7</ele>
        <time>2024-04-27T11:55:32Z</time>
      </trkpt>
      <trkpt lat="45.85581" lon="6.43521">
        <ele>1637.7</ele>
        <time>2024-04-27T11:55:33Z</time>
      </trkpt>
      <trkpt lat="45.85581" lon="6.43521">
        <ele>1637.7</ele>
        <time>2024-04-27T11:55:34Z</time>
      </trkpt>
      <trkpt lat="45.85581" lon="6.43521">
        <ele>1637.7</ele>
        <time>2024-04-27T11:55:35Z</time>
      </trkpt>
      <trkpt lat="45.85581" lon="6.43521">
        <ele>1637.7</ele>
        <time>2024-04-27T11:55:36Z</time>
      </trkpt>
      <trkpt lat="45.85581" lon="6.43521">
        <ele>1637.7</ele>
        <time>2024-04-27T11:55:37Z</time>
      </trkpt>
      <trkpt lat="45.85581" lon="6.43521">
        <ele>1637.7</ele>
        <time>2024-04-27T11:55:38Z</time>
      </trkpt>
      <trkpt lat="45.85581" lon="6.43521">
        <ele>1637.7</ele>
        <time>2024-04-27T11:55:39Z</time>
      </trkpt>
      <trkpt lat="45.85581" lon="6.43521">
        <ele>1637.7</ele>
        <time>2024-04-27T11:55:40Z</time>
      </trkpt>
      <trkpt lat="45.85581" lon="6.43521">
        <ele>1637.7</ele>
        <time>2024-04-27T11:55:41Z</time>
      </trkpt>
      <trkpt lat="45.85581" lon="6.43521">
        <ele>1637.7</ele>
        <time>2024-04-27T11:55:42Z</time>
      </trkpt>
      <trkpt lat="45.85581" lon="6.43521">
        <ele>1637.7</ele>
        <time>2024-04-27T11:55:43Z</time>
      </trkpt>
      <trkpt lat="45.85581" lon="6.43521">
        <ele>1637.7</ele>
        <time>2024-04-27T11:55:44Z</time>
      </trkpt>
      <trkpt lat="45.85581" lon="6.43521">
        <ele>1637.7</ele>
        <time>2024-04-27T11:55:45Z</time>
      </trkpt>
      <trkpt lat="45.85581" lon="6.43521">
        <ele>1637.7</ele>
        <time>2024-04-27T11:55:46Z</time>
      </trkpt>
      <trkpt lat="45.85581" lon="6.43521">
        <ele>1637.7</ele>
        <time>2024-04-27T11:55:47Z</time>
      </trkpt>
      <trkpt lat="45.85581" lon="6.43521">
        <ele>1637.7</ele>
        <time>2024-04-27T11:55:48Z</time>
      </trkpt>
      <trkpt lat="45.85581" lon="6.43521">
        <ele>1637.7</ele>
        <time>2024-04-27T11:55:49Z</time>
      </trkpt>
      <trkpt lat="45.85581" lon="6.43521">
        <ele>1637.7</ele>
        <time>2024-04-27T11:55:50Z</time>
      </trkpt>
      <trkpt lat="45.85581" lon="6.43521">
        <ele>1637.7</ele>
        <time>2024-04-27T11:55:51Z</time>
      </trkpt>
      <trkpt lat="45.8558" lon="6.43521">
        <ele>1637.7</ele>
        <time>2024-04-27T11:55:52Z</time>
      </trkpt>
      <trkpt lat="45.8558" lon="6.43521">
        <ele>1637.7</ele>
        <time>2024-04-27T11:55:53Z</time>
      </trkpt>
      <trkpt lat="45.8558" lon="6.43521">
        <ele>1637.7</ele>
        <time>2024-04-27T11:55:54Z</time>
      </trkpt>
      <trkpt lat="45.8558" lon="6.43521">
        <ele>1637.7</ele>
        <time>2024-04-27T11:55:55Z</time>
      </trkpt>
      <trkpt lat="45.8558" lon="6.4352">
        <ele>1637.7</ele>
        <time>2024-04-27T11:55:56Z</time>
      </trkpt>
      <trkpt lat="45.8558" lon="6.4352">
        <ele>1637.7</ele>
        <time>2024-04-27T11:55:57Z</time>
      </trkpt>
      <trkpt lat="45.8558" lon="6.4352">
        <ele>1637.7</ele>
        <time>2024-04-27T11:55:58Z</time>
      </trkpt>
      <trkpt lat="45.8558" lon="6.4352">
        <ele>1637.7</ele>
        <time>2024-04-27T11:55:59Z</time>
      </trkpt>
      <trkpt lat="45.8558" lon="6.4352">
        <ele>1637.7</ele>
        <time>2024-04-27T11:56:00Z</time>
      </trkpt>
      <trkpt lat="45.8558" lon="6.4352">
        <ele>1637.7</ele>
        <time>2024-04-27T11:56:01Z</time>
      </trkpt>
      <trkpt lat="45.8558" lon="6.4352">
        <ele>1637.7</ele>
        <time>2024-04-27T11:56:02Z</time>
      </trkpt>
      <trkpt lat="45.8558" lon="6.4352">
        <ele>1637.7</ele>
        <time>2024-04-27T11:56:03Z</time>
      </trkpt>
      <trkpt lat="45.8558" lon="6.4352">
        <ele>1637.7</ele>
        <time>2024-04-27T11:56:04Z</time>
      </trkpt>
      <trkpt lat="45.8558" lon="6.4352">
        <ele>1637.7</ele>
        <time>2024-04-27T11:56:05Z</time>
      </trkpt>
      <trkpt lat="45.8558" lon="6.4352">
        <ele>1637.7</ele>
        <time>2024-04-27T11:56:06Z</time>
      </trkpt>
      <trkpt lat="45.8558" lon="6.4352">
        <ele>1637.7</ele>
        <time>2024-04-27T11:56:07Z</time>
      </trkpt>
      <trkpt lat="45.8558" lon="6.4352">
        <ele>1637.7</ele>
        <time>2024-04-27T11:56:08Z</time>
      </trkpt>
      <trkpt lat="45.8558" lon="6.43521">
        <ele>1637.7</ele>
        <time>2024-04-27T11:56:09Z</time>
      </trkpt>
      <trkpt lat="45.85579" lon="6.43521">
        <ele>1637.7</ele>
        <time>2024-04-27T11:56:10Z</time>
      </trkpt>
      <trkpt lat="45.85579" lon="6.43521">
        <ele>1637.7</ele>
        <time>2024-04-27T11:56:11Z</time>
      </trkpt>
      <trkpt lat="45.85579" lon="6.43521">
        <ele>1637.7</ele>
        <time>2024-04-27T11:56:12Z</time>
      </trkpt>
      <trkpt lat="45.85579" lon="6.43521">
        <ele>1636.6</ele>
        <time>2024-04-27T11:56:13Z</time>
      </trkpt>
      <trkpt lat="45.85579" lon="6.43521">
        <ele>1636.6</ele>
        <time>2024-04-27T11:56:14Z</time>
      </trkpt>
      <trkpt lat="45.85579" lon="6.43521">
        <ele>1636.6</ele>
        <time>2024-04-27T11:56:15Z</time>
      </trkpt>
      <trkpt lat="45.85579" lon="6.43521">
        <ele>1636.6</ele>
        <time>2024-04-27T11:56:16Z</time>
      </trkpt>
      <trkpt lat="45.85579" lon="6.43521">
        <ele>1636.6</ele>
        <time>2024-04-27T11:56:17Z</time>
      </trkpt>
      <trkpt lat="45.85579" lon="6.43521">
        <ele>1636.6</ele>
        <time>2024-04-27T11:56:18Z</time>
      </trkpt>
      <trkpt lat="45.85579" lon="6.43521">
        <ele>1636.6</ele>
        <time>2024-04-27T11:56:19Z</time>
      </trkpt>
      <trkpt lat="45.85579" lon="6.43521">
        <ele>1636.6</ele>
        <time>2024-04-27T11:56:20Z</time>
      </trkpt>
      <trkpt lat="45.85579" lon="6.43521">
        <ele>1637.7</ele>
        <time>2024-04-27T11:56:21Z</time>
      </trkpt>
      <trkpt lat="45.85579" lon="6.43521">
        <ele>1637.7</ele>
        <time>2024-04-27T11:56:22Z</time>
      </trkpt>
      <trkpt lat="45.85579" lon="6.43521">
        <ele>1637.7</ele>
        <time>2024-04-27T11:56:23Z</time>
      </trkpt>
      <trkpt lat="45.85579" lon="6.43521">
        <ele>1637.7</ele>
        <time>2024-04-27T11:56:24Z</time>
      </trkpt>
      <trkpt lat="45.85579" lon="6.43521">
        <ele>1637.7</ele>
        <time>2024-04-27T11:56:25Z</time>
      </trkpt>
      <trkpt lat="45.85579" lon="6.43521">
        <ele>1637.7</ele>
        <time>2024-04-27T11:56:26Z</time>
      </trkpt>
      <trkpt lat="45.85579" lon="6.43521">
        <ele>1637.7</ele>
        <time>2024-04-27T11:56:27Z</time>
      </trkpt>
      <trkpt lat="45.85579" lon="6.43521">
        <ele>1637.7</ele>
        <time>2024-04-27T11:56:28Z</time>
      </trkpt>
      <trkpt lat="45.85579" lon="6.43521">
        <ele>1637.7</ele>
        <time>2024-04-27T11:56:29Z</time>
      </trkpt>
      <trkpt lat="45.8558" lon="6.43521">
        <ele>1637.7</ele>
        <time>2024-04-27T11:56:30Z</time>
      </trkpt>
      <trkpt lat="45.8558" lon="6.43521">
        <ele>1637.7</ele>
        <time>2024-04-27T11:56:31Z</time>
      </trkpt>
      <trkpt lat="45.8558" lon="6.43521">
        <ele>1637.7</ele>
        <time>2024-04-27T11:56:32Z</time>
      </trkpt>
      <trkpt lat="45.8558" lon="6.43521">
        <ele>1637.7</ele>
        <time>2024-04-27T11:56:33Z</time>
      </trkpt>
      <trkpt lat="45.8558" lon="6.43521">
        <ele>1637.7</ele>
        <time>2024-04-27T11:56:34Z</time>
      </trkpt>
      <trkpt lat="45.8558" lon="6.43521">
        <ele>1637.7</ele>
        <time>2024-04-27T11:56:35Z</time>
      </trkpt>
      <trkpt lat="45.8558" lon="6.43521">
        <ele>1637.7</ele>
        <time>2024-04-27T11:56:36Z</time>
      </trkpt>
      <trkpt lat="45.8558" lon="6.43521">
        <ele>1637.7</ele>
        <time>2024-04-27T11:56:37Z</time>
      </trkpt>
      <trkpt lat="45.8558" lon="6.43521">
        <ele>1637.7</ele>
        <time>2024-04-27T11:56:38Z</time>
      </trkpt>
      <trkpt lat="45.8558" lon="6.43521">
        <ele>1637.7</ele>
        <time>2024-04-27T11:56:39Z</time>
      </trkpt>
      <trkpt lat="45.8558" lon="6.43521">
        <ele>1637.7</ele>
        <time>2024-04-27T11:56:40Z</time>
      </trkpt>
      <trkpt lat="45.8558" lon="6.43521">
        <ele>1637.7</ele>
        <time>2024-04-27T11:56:41Z</time>
      </trkpt>
      <trkpt lat="45.8558" lon="6.43521">
        <ele>1637.7</ele>
        <time>2024-04-27T11:56:42Z</time>
      </trkpt>
      <trkpt lat="45.85581" lon="6.43521">
        <ele>1637.7</ele>
        <time>2024-04-27T11:56:43Z</time>
      </trkpt>
      <trkpt lat="45.85581" lon="6.4352">
        <ele>1637.7</ele>
        <time>2024-04-27T11:56:44Z</time>
      </trkpt>
      <trkpt lat="45.85581" lon="6.4352">
        <ele>1637.7</ele>
        <time>2024-04-27T11:56:45Z</time>
      </trkpt>
      <trkpt lat="45.85581" lon="6.4352">
        <ele>1637.7</ele>
        <time>2024-04-27T11:56:46Z</time>
      </trkpt>
      <trkpt lat="45.85581" lon="6.4352">
        <ele>1637.7</ele>
        <time>2024-04-27T11:56:47Z</time>
      </trkpt>
      <trkpt lat="45.85581" lon="6.4352">
        <ele>1637.7</ele>
        <time>2024-04-27T11:56:48Z</time>
      </trkpt>
      <trkpt lat="45.85581" lon="6.4352">
        <ele>1637.7</ele>
        <time>2024-04-27T11:56:49Z</time>
      </trkpt>
      <trkpt lat="45.85581" lon="6.4352">
        <ele>1637.7</ele>
        <time>2024-04-27T11:56:50Z</time>
      </trkpt>
      <trkpt lat="45.85581" lon="6.43519">
        <ele>1637.7</ele>
        <time>2024-04-27T11:56:51Z</time>
      </trkpt>
      <trkpt lat="45.85581" lon="6.43519">
        <ele>1637.7</ele>
        <time>2024-04-27T11:56:52Z</time>
      </trkpt>
      <trkpt lat="45.85581" lon="6.43519">
        <ele>1637.7</ele>
        <time>2024-04-27T11:56:53Z</time>
      </trkpt>
      <trkpt lat="45.85581" lon="6.43519">
        <ele>1637.7</ele>
        <time>2024-04-27T11:56:54Z</time>
      </trkpt>
      <trkpt lat="45.85581" lon="6.43519">
        <ele>1637.7</ele>
        <time>2024-04-27T11:56:55Z</time>
      </trkpt>
      <trkpt lat="45.85581" lon="6.43519">
        <ele>1637.7</ele>
        <time>2024-04-27T11:56:56Z</time>
      </trkpt>
      <trkpt lat="45.85581" lon="6.43519">
        <ele>1637.7</ele>
        <time>2024-04-27T11:56:57Z</time>
      </trkpt>
      <trkpt lat="45.85581" lon="6.43519">
        <ele>1637.7</ele>
        <time>2024-04-27T11:56:58Z</time>
      </trkpt>
      <trkpt lat="45.85581" lon="6.43519">
        <ele>1637.7</ele>
        <time>2024-04-27T11:56:59Z</time>
      </trkpt>
      <trkpt lat="45.85581" lon="6.43519">
        <ele>1637.7</ele>
        <time>2024-04-27T11:57:00Z</time>
      </trkpt>
      <trkpt lat="45.85581" lon="6.43519">
        <ele>1637.7</ele>
        <time>2024-04-27T11:57:01Z</time>
      </trkpt>
      <trkpt lat="45.85581" lon="6.43519">
        <ele>1637.7</ele>
        <time>2024-04-27T11:57:02Z</time>
      </trkpt>
      <trkpt lat="45.85581" lon="6.43519">
        <ele>1637.7</ele>
        <time>2024-04-27T11:57:03Z</time>
      </trkpt>
      <trkpt lat="45.85581" lon="6.43519">
        <ele>1637.7</ele>
        <time>2024-04-27T11:57:04Z</time>
      </trkpt>
      <trkpt lat="45.85581" lon="6.43519">
        <ele>1637.7</ele>
        <time>2024-04-27T11:57:05Z</time>
      </trkpt>
      <trkpt lat="45.85581" lon="6.43519">
        <ele>1637.7</ele>
        <time>2024-04-27T11:57:06Z</time>
      </trkpt>
      <trkpt lat="45.85581" lon="6.43519">
        <ele>1637.7</ele>
        <time>2024-04-27T11:57:07Z</time>
      </trkpt>
      <trkpt lat="45.85581" lon="6.43519">
        <ele>1637.7</ele>
        <time>2024-04-27T11:57:08Z</time>
      </trkpt>
      <trkpt lat="45.85581" lon="6.43519">
        <ele>1637.7</ele>
        <time>2024-04-27T11:57:09Z</time>
      </trkpt>
      <trkpt lat="45.85581" lon="6.43519">
        <ele>1637.7</ele>
        <time>2024-04-27T11:57:10Z</time>
      </trkpt>
      <trkpt lat="45.85581" lon="6.43519">
        <ele>1637.7</ele>
        <time>2024-04-27T11:57:11Z</time>
      </trkpt>
      <trkpt lat="45.85581" lon="6.43519">
        <ele>1637.7</ele>
        <time>2024-04-27T11:57:12Z</time>
      </trkpt>
      <trkpt lat="45.85581" lon="6.43519">
        <ele>1637.7</ele>
        <time>2024-04-27T11:57:13Z</time>
      </trkpt>
      <trkpt lat="45.85581" lon="6.43519">
        <ele>1637.7</ele>
        <time>2024-04-27T11:57:14Z</time>
      </trkpt>
      <trkpt lat="45.85581" lon="6.43519">
        <ele>1637.7</ele>
        <time>2024-04-27T11:57:15Z</time>
      </trkpt>
      <trkpt lat="45.85581" lon="6.43519">
        <ele>1637.7</ele>
        <time>2024-04-27T11:57:16Z</time>
      </trkpt>
      <trkpt lat="45.85581" lon="6.43519">
        <ele>1637.7</ele>
        <time>2024-04-27T11:57:17Z</time>
      </trkpt>
      <trkpt lat="45.85581" lon="6.43519">
        <ele>1637.7</ele>
        <time>2024-04-27T11:57:18Z</time>
      </trkpt>
      <trkpt lat="45.85581" lon="6.43519">
        <ele>1638.6</ele>
        <time>2024-04-27T11:57:19Z</time>
      </trkpt>
      <trkpt lat="45.85581" lon="6.43519">
        <ele>1638.6</ele>
        <time>2024-04-27T11:57:20Z</time>
      </trkpt>
      <trkpt lat="45.85581" lon="6.43519">
        <ele>1638.6</ele>
        <time>2024-04-27T11:57:21Z</time>
      </trkpt>
      <trkpt lat="45.85581" lon="6.43519">
        <ele>1638.6</ele>
        <time>2024-04-27T11:57:22Z</time>
      </trkpt>
      <trkpt lat="45.85581" lon="6.43519">
        <ele>1638.6</ele>
        <time>2024-04-27T11:57:23Z</time>
      </trkpt>
      <trkpt lat="45.85581" lon="6.43519">
        <ele>1638.6</ele>
        <time>2024-04-27T11:57:24Z</time>
      </trkpt>
      <trkpt lat="45.85581" lon="6.43519">
        <ele>1638.6</ele>
        <time>2024-04-27T11:57:25Z</time>
      </trkpt>
      <trkpt lat="45.85581" lon="6.43519">
        <ele>1638.6</ele>
        <time>2024-04-27T11:57:26Z</time>
      </trkpt>
      <trkpt lat="45.85581" lon="6.43519">
        <ele>1637.7</ele>
        <time>2024-04-27T11:57:27Z</time>
      </trkpt>
      <trkpt lat="45.85581" lon="6.43519">
        <ele>1637.7</ele>
        <time>2024-04-27T11:57:28Z</time>
      </trkpt>
      <trkpt lat="45.85581" lon="6.43519">
        <ele>1637.7</ele>
        <time>2024-04-27T11:57:29Z</time>
      </trkpt>
      <trkpt lat="45.85581" lon="6.43519">
        <ele>1637.7</ele>
        <time>2024-04-27T11:57:30Z</time>
      </trkpt>
      <trkpt lat="45.85581" lon="6.43519">
        <ele>1637.7</ele>
        <time>2024-04-27T11:57:31Z</time>
      </trkpt>
      <trkpt lat="45.85581" lon="6.43519">
        <ele>1637.7</ele>
        <time>2024-04-27T11:57:32Z</time>
      </trkpt>
      <trkpt lat="45.85581" lon="6.43519">
        <ele>1637.7</ele>
        <time>2024-04-27T11:57:33Z</time>
      </trkpt>
      <trkpt lat="45.85581" lon="6.43519">
        <ele>1637.7</ele>
        <time>2024-04-27T11:57:34Z</time>
      </trkpt>
      <trkpt lat="45.85581" lon="6.43519">
        <ele>1637.7</ele>
        <time>2024-04-27T11:57:35Z</time>
      </trkpt>
      <trkpt lat="45.85581" lon="6.43519">
        <ele>1637.7</ele>
        <time>2024-04-27T11:57:36Z</time>
      </trkpt>
      <trkpt lat="45.85581" lon="6.43519">
        <ele>1637.7</ele>
        <time>2024-04-27T11:57:37Z</time>
      </trkpt>
      <trkpt lat="45.85581" lon="6.43519">
        <ele>1637.7</ele>
        <time>2024-04-27T11:57:38Z</time>
      </trkpt>
      <trkpt lat="45.85581" lon="6.43519">
        <ele>1637.7</ele>
        <time>2024-04-27T11:57:39Z</time>
      </trkpt>
      <trkpt lat="45.85581" lon="6.43519">
        <ele>1637.7</ele>
        <time>2024-04-27T11:57:40Z</time>
      </trkpt>
      <trkpt lat="45.85581" lon="6.43519">
        <ele>1637.7</ele>
        <time>2024-04-27T11:57:41Z</time>
      </trkpt>
      <trkpt lat="45.85581" lon="6.43519">
        <ele>1637.7</ele>
        <time>2024-04-27T11:57:42Z</time>
      </trkpt>
      <trkpt lat="45.85581" lon="6.43519">
        <ele>1637.7</ele>
        <time>2024-04-27T11:57:43Z</time>
      </trkpt>
      <trkpt lat="45.85581" lon="6.43519">
        <ele>1637.7</ele>
        <time>2024-04-27T11:57:44Z</time>
      </trkpt>
      <trkpt lat="45.85581" lon="6.43519">
        <ele>1637.7</ele>
        <time>2024-04-27T11:57:45Z</time>
      </trkpt>
      <trkpt lat="45.85581" lon="6.43519">
        <ele>1637.7</ele>
        <time>2024-04-27T11:57:46Z</time>
      </trkpt>
      <trkpt lat="45.85581" lon="6.43519">
        <ele>1637.7</ele>
        <time>2024-04-27T11:57:47Z</time>
      </trkpt>
      <trkpt lat="45.85581" lon="6.43519">
        <ele>1637.7</ele>
        <time>2024-04-27T11:57:48Z</time>
      </trkpt>
      <trkpt lat="45.85581" lon="6.43519">
        <ele>1637.7</ele>
        <time>2024-04-27T11:57:49Z</time>
      </trkpt>
      <trkpt lat="45.85581" lon="6.43519">
        <ele>1637.7</ele>
        <time>2024-04-27T11:57:50Z</time>
      </trkpt>
      <trkpt lat="45.85581" lon="6.43519">
        <ele>1637.7</ele>
        <time>2024-04-27T11:57:51Z</time>
      </trkpt>
      <trkpt lat="45.85581" lon="6.43519">
        <ele>1637.7</ele>
        <time>2024-04-27T11:57:52Z</time>
      </trkpt>
      <trkpt lat="45.85581" lon="6.43519">
        <ele>1637.7</ele>
        <time>2024-04-27T11:57:53Z</time>
      </trkpt>
      <trkpt lat="45.85581" lon="6.43519">
        <ele>1637.7</ele>
        <time>2024-04-27T11:57:54Z</time>
      </trkpt>
      <trkpt lat="45.85581" lon="6.43519">
        <ele>1637.7</ele>
        <time>2024-04-27T11:57:55Z</time>
      </trkpt>
      <trkpt lat="45.85581" lon="6.43519">
        <ele>1637.7</ele>
        <time>2024-04-27T11:57:56Z</time>
      </trkpt>
      <trkpt lat="45.85581" lon="6.43519">
        <ele>1637.7</ele>
        <time>2024-04-27T11:57:57Z</time>
      </trkpt>
      <trkpt lat="45.85581" lon="6.43519">
        <ele>1637.7</ele>
        <time>2024-04-27T11:57:58Z</time>
      </trkpt>
      <trkpt lat="45.85581" lon="6.43519">
        <ele>1637.7</ele>
        <time>2024-04-27T11:57:59Z</time>
      </trkpt>
      <trkpt lat="45.85581" lon="6.43519">
        <ele>1637.7</ele>
        <time>2024-04-27T11:58:00Z</time>
      </trkpt>
      <trkpt lat="45.85581" lon="6.43519">
        <ele>1637.7</ele>
        <time>2024-04-27T11:58:01Z</time>
      </trkpt>
      <trkpt lat="45.85581" lon="6.43519">
        <ele>1637.7</ele>
        <time>2024-04-27T11:58:02Z</time>
      </trkpt>
      <trkpt lat="45.85581" lon="6.43519">
        <ele>1637.7</ele>
        <time>2024-04-27T11:58:03Z</time>
      </trkpt>
      <trkpt lat="45.85581" lon="6.43519">
        <ele>1637.7</ele>
        <time>2024-04-27T11:58:04Z</time>
      </trkpt>
      <trkpt lat="45.85581" lon="6.43519">
        <ele>1637.7</ele>
        <time>2024-04-27T11:58:05Z</time>
      </trkpt>
      <trkpt lat="45.85581" lon="6.43519">
        <ele>1637.7</ele>
        <time>2024-04-27T11:58:06Z</time>
      </trkpt>
      <trkpt lat="45.85581" lon="6.43519">
        <ele>1637.7</ele>
        <time>2024-04-27T11:58:07Z</time>
      </trkpt>
      <trkpt lat="45.85581" lon="6.43519">
        <ele>1637.7</ele>
        <time>2024-04-27T11:58:08Z</time>
      </trkpt>
      <trkpt lat="45.85581" lon="6.43519">
        <ele>1637.7</ele>
        <time>2024-04-27T11:58:09Z</time>
      </trkpt>
      <trkpt lat="45.85581" lon="6.43519">
        <ele>1637.7</ele>
        <time>2024-04-27T11:58:10Z</time>
      </trkpt>
      <trkpt lat="45.85581" lon="6.43519">
        <ele>1637.7</ele>
        <time>2024-04-27T11:58:11Z</time>
      </trkpt>
      <trkpt lat="45.85581" lon="6.43519">
        <ele>1637.7</ele>
        <time>2024-04-27T11:58:12Z</time>
      </trkpt>
      <trkpt lat="45.85581" lon="6.43519">
        <ele>1637.7</ele>
        <time>2024-04-27T11:58:13Z</time>
      </trkpt>
      <trkpt lat="45.85581" lon="6.43519">
        <ele>1637.7</ele>
        <time>2024-04-27T11:58:14Z</time>
      </trkpt>
      <trkpt lat="45.85581" lon="6.43519">
        <ele>1637.7</ele>
        <time>2024-04-27T11:58:15Z</time>
      </trkpt>
      <trkpt lat="45.85581" lon="6.43519">
        <ele>1637.7</ele>
        <time>2024-04-27T11:58:16Z</time>
      </trkpt>
      <trkpt lat="45.85581" lon="6.43519">
        <ele>1637.7</ele>
        <time>2024-04-27T11:58:17Z</time>
      </trkpt>
      <trkpt lat="45.85581" lon="6.43519">
        <ele>1637.7</ele>
        <time>2024-04-27T11:58:18Z</time>
      </trkpt>
      <trkpt lat="45.85581" lon="6.43519">
        <ele>1637.7</ele>
        <time>2024-04-27T11:58:19Z</time>
      </trkpt>
      <trkpt lat="45.85581" lon="6.43519">
        <ele>1637.7</ele>
        <time>2024-04-27T11:58:20Z</time>
      </trkpt>
      <trkpt lat="45.85581" lon="6.43519">
        <ele>1637.7</ele>
        <time>2024-04-27T11:58:21Z</time>
      </trkpt>
      <trkpt lat="45.85581" lon="6.43519">
        <ele>1637.7</ele>
        <time>2024-04-27T11:58:22Z</time>
      </trkpt>
      <trkpt lat="45.85581" lon="6.43519">
        <ele>1637.7</ele>
        <time>2024-04-27T11:58:23Z</time>
      </trkpt>
      <trkpt lat="45.85581" lon="6.43519">
        <ele>1637.7</ele>
        <time>2024-04-27T11:58:24Z</time>
      </trkpt>
      <trkpt lat="45.85581" lon="6.43519">
        <ele>1637.7</ele>
        <time>2024-04-27T11:58:25Z</time>
      </trkpt>
      <trkpt lat="45.85581" lon="6.43519">
        <ele>1637.7</ele>
        <time>2024-04-27T11:58:26Z</time>
      </trkpt>
      <trkpt lat="45.85581" lon="6.43519">
        <ele>1637.7</ele>
        <time>2024-04-27T11:58:27Z</time>
      </trkpt>
      <trkpt lat="45.85581" lon="6.43519">
        <ele>1637.7</ele>
        <time>2024-04-27T11:58:28Z</time>
      </trkpt>
      <trkpt lat="45.85581" lon="6.43519">
        <ele>1637.7</ele>
        <time>2024-04-27T11:58:29Z</time>
      </trkpt>
      <trkpt lat="45.85581" lon="6.43519">
        <ele>1637.7</ele>
        <time>2024-04-27T11:58:30Z</time>
      </trkpt>
      <trkpt lat="45.85581" lon="6.43519">
        <ele>1637.7</ele>
        <time>2024-04-27T11:58:31Z</time>
      </trkpt>
      <trkpt lat="45.85581" lon="6.43519">
        <ele>1637.7</ele>
        <time>2024-04-27T11:58:32Z</time>
      </trkpt>
      <trkpt lat="45.85581" lon="6.43519">
        <ele>1637.7</ele>
        <time>2024-04-27T11:58:33Z</time>
      </trkpt>
      <trkpt lat="45.85581" lon="6.43518">
        <ele>1637.7</ele>
        <time>2024-04-27T11:58:34Z</time>
      </trkpt>
      <trkpt lat="45.85581" lon="6.43518">
        <ele>1637.7</ele>
        <time>2024-04-27T11:58:35Z</time>
      </trkpt>
      <trkpt lat="45.85581" lon="6.43518">
        <ele>1637.7</ele>
        <time>2024-04-27T11:58:36Z</time>
      </trkpt>
      <trkpt lat="45.85581" lon="6.43518">
        <ele>1637.7</ele>
        <time>2024-04-27T11:58:37Z</time>
      </trkpt>
      <trkpt lat="45.85581" lon="6.43518">
        <ele>1637.7</ele>
        <time>2024-04-27T11:58:38Z</time>
      </trkpt>
      <trkpt lat="45.85581" lon="6.43518">
        <ele>1637.7</ele>
        <time>2024-04-27T11:58:39Z</time>
      </trkpt>
      <trkpt lat="45.85581" lon="6.43518">
        <ele>1637.7</ele>
        <time>2024-04-27T11:58:40Z</time>
      </trkpt>
      <trkpt lat="45.85581" lon="6.43518">
        <ele>1637.7</ele>
        <time>2024-04-27T11:58:41Z</time>
      </trkpt>
      <trkpt lat="45.85581" lon="6.43518">
        <ele>1637.7</ele>
        <time>2024-04-27T11:58:42Z</time>
      </trkpt>
      <trkpt lat="45.85581" lon="6.43518">
        <ele>1637.7</ele>
        <time>2024-04-27T11:58:43Z</time>
      </trkpt>
      <trkpt lat="45.85581" lon="6.43518">
        <ele>1637.7</ele>
        <time>2024-04-27T11:58:44Z</time>
      </trkpt>
      <trkpt lat="45.85581" lon="6.43518">
        <ele>1637.7</ele>
        <time>2024-04-27T11:58:45Z</time>
      </trkpt>
      <trkpt lat="45.85581" lon="6.43518">
        <ele>1637.7</ele>
        <time>2024-04-27T11:58:46Z</time>
      </trkpt>
      <trkpt lat="45.85581" lon="6.43518">
        <ele>1637.7</ele>
        <time>2024-04-27T11:58:47Z</time>
      </trkpt>
      <trkpt lat="45.85581" lon="6.43518">
        <ele>1637.7</ele>
        <time>2024-04-27T11:58:48Z</time>
      </trkpt>
      <trkpt lat="45.85581" lon="6.43518">
        <ele>1637.7</ele>
        <time>2024-04-27T11:58:49Z</time>
      </trkpt>
      <trkpt lat="45.85581" lon="6.43518">
        <ele>1637.7</ele>
        <time>2024-04-27T11:58:50Z</time>
      </trkpt>
      <trkpt lat="45.85581" lon="6.43518">
        <ele>1637.7</ele>
        <time>2024-04-27T11:58:51Z</time>
      </trkpt>
      <trkpt lat="45.85581" lon="6.43518">
        <ele>1637.7</ele>
        <time>2024-04-27T11:58:52Z</time>
      </trkpt>
      <trkpt lat="45.85581" lon="6.43518">
        <ele>1637.7</ele>
        <time>2024-04-27T11:58:53Z</time>
      </trkpt>
      <trkpt lat="45.85581" lon="6.43518">
        <ele>1637.7</ele>
        <time>2024-04-27T11:58:54Z</time>
      </trkpt>
      <trkpt lat="45.85581" lon="6.43518">
        <ele>1637.7</ele>
        <time>2024-04-27T11:58:55Z</time>
      </trkpt>
      <trkpt lat="45.85581" lon="6.43518">
        <ele>1637.7</ele>
        <time>2024-04-27T11:58:56Z</time>
      </trkpt>
      <trkpt lat="45.85581" lon="6.43518">
        <ele>1637.7</ele>
        <time>2024-04-27T11:58:57Z</time>
      </trkpt>
      <trkpt lat="45.85581" lon="6.43518">
        <ele>1637.7</ele>
        <time>2024-04-27T11:58:58Z</time>
      </trkpt>
      <trkpt lat="45.85581" lon="6.43518">
        <ele>1637.7</ele>
        <time>2024-04-27T11:58:59Z</time>
      </trkpt>
      <trkpt lat="45.85581" lon="6.43518">
        <ele>1637.7</ele>
        <time>2024-04-27T11:59:00Z</time>
      </trkpt>
      <trkpt lat="45.85581" lon="6.43518">
        <ele>1637.7</ele>
        <time>2024-04-27T11:59:01Z</time>
      </trkpt>
      <trkpt lat="45.85581" lon="6.43518">
        <ele>1637.7</ele>
        <time>2024-04-27T11:59:02Z</time>
      </trkpt>
      <trkpt lat="45.85581" lon="6.43518">
        <ele>1637.7</ele>
        <time>2024-04-27T11:59:03Z</time>
      </trkpt>
      <trkpt lat="45.85581" lon="6.43518">
        <ele>1637.7</ele>
        <time>2024-04-27T11:59:04Z</time>
      </trkpt>
      <trkpt lat="45.85581" lon="6.43518">
        <ele>1637.7</ele>
        <time>2024-04-27T11:59:05Z</time>
      </trkpt>
      <trkpt lat="45.85581" lon="6.43518">
        <ele>1637.7</ele>
        <time>2024-04-27T11:59:06Z</time>
      </trkpt>
      <trkpt lat="45.85581" lon="6.43518">
        <ele>1637.7</ele>
        <time>2024-04-27T11:59:07Z</time>
      </trkpt>
      <trkpt lat="45.85581" lon="6.43518">
        <ele>1637.7</ele>
        <time>2024-04-27T11:59:08Z</time>
      </trkpt>
      <trkpt lat="45.85581" lon="6.43518">
        <ele>1637.7</ele>
        <time>2024-04-27T11:59:09Z</time>
      </trkpt>
      <trkpt lat="45.85581" lon="6.43518">
        <ele>1637.7</ele>
        <time>2024-04-27T11:59:10Z</time>
      </trkpt>
      <trkpt lat="45.85581" lon="6.43518">
        <ele>1637.7</ele>
        <time>2024-04-27T11:59:11Z</time>
      </trkpt>
      <trkpt lat="45.85581" lon="6.43518">
        <ele>1637.7</ele>
        <time>2024-04-27T11:59:12Z</time>
      </trkpt>
      <trkpt lat="45.85581" lon="6.43518">
        <ele>1637.7</ele>
        <time>2024-04-27T11:59:13Z</time>
      </trkpt>
      <trkpt lat="45.85581" lon="6.43518">
        <ele>1637.7</ele>
        <time>2024-04-27T11:59:14Z</time>
      </trkpt>
      <trkpt lat="45.85581" lon="6.43518">
        <ele>1637.7</ele>
        <time>2024-04-27T11:59:15Z</time>
      </trkpt>
      <trkpt lat="45.85581" lon="6.43518">
        <ele>1637.7</ele>
        <time>2024-04-27T11:59:16Z</time>
      </trkpt>
      <trkpt lat="45.85581" lon="6.43518">
        <ele>1637.7</ele>
        <time>2024-04-27T11:59:17Z</time>
      </trkpt>
      <trkpt lat="45.85581" lon="6.43518">
        <ele>1637.7</ele>
        <time>2024-04-27T11:59:18Z</time>
      </trkpt>
      <trkpt lat="45.85581" lon="6.43518">
        <ele>1637.7</ele>
        <time>2024-04-27T11:59:19Z</time>
      </trkpt>
      <trkpt lat="45.85581" lon="6.43518">
        <ele>1637.7</ele>
        <time>2024-04-27T11:59:20Z</time>
      </trkpt>
      <trkpt lat="45.85581" lon="6.43518">
        <ele>1637.7</ele>
        <time>2024-04-27T11:59:21Z</time>
      </trkpt>
      <trkpt lat="45.85581" lon="6.43518">
        <ele>1637.7</ele>
        <time>2024-04-27T11:59:22Z</time>
      </trkpt>
      <trkpt lat="45.85581" lon="6.43518">
        <ele>1637.7</ele>
        <time>2024-04-27T11:59:23Z</time>
      </trkpt>
      <trkpt lat="45.85581" lon="6.43518">
        <ele>1637.7</ele>
        <time>2024-04-27T11:59:24Z</time>
      </trkpt>
      <trkpt lat="45.85581" lon="6.43518">
        <ele>1638.6</ele>
        <time>2024-04-27T11:59:25Z</time>
      </trkpt>
      <trkpt lat="45.85581" lon="6.43518">
        <ele>1638.6</ele>
        <time>2024-04-27T11:59:26Z</time>
      </trkpt>
      <trkpt lat="45.85581" lon="6.43518">
        <ele>1638.6</ele>
        <time>2024-04-27T11:59:27Z</time>
      </trkpt>
      <trkpt lat="45.85581" lon="6.43518">
        <ele>1638.6</ele>
        <time>2024-04-27T11:59:28Z</time>
      </trkpt>
      <trkpt lat="45.85581" lon="6.43518">
        <ele>1638.6</ele>
        <time>2024-04-27T11:59:29Z</time>
      </trkpt>
      <trkpt lat="45.85581" lon="6.43518">
        <ele>1638.6</ele>
        <time>2024-04-27T11:59:30Z</time>
      </trkpt>
      <trkpt lat="45.85581" lon="6.43518">
        <ele>1638.6</ele>
        <time>2024-04-27T11:59:31Z</time>
      </trkpt>
      <trkpt lat="45.85581" lon="6.43518">
        <ele>1638.6</ele>
        <time>2024-04-27T11:59:32Z</time>
      </trkpt>
      <trkpt lat="45.85581" lon="6.43518">
        <ele>1638.6</ele>
        <time>2024-04-27T11:59:33Z</time>
      </trkpt>
      <trkpt lat="45.85581" lon="6.43518">
        <ele>1638.6</ele>
        <time>2024-04-27T11:59:34Z</time>
      </trkpt>
      <trkpt lat="45.85581" lon="6.43518">
        <ele>1638.6</ele>
        <time>2024-04-27T11:59:35Z</time>
      </trkpt>
      <trkpt lat="45.85581" lon="6.43518">
        <ele>1638.6</ele>
        <time>2024-04-27T11:59:36Z</time>
      </trkpt>
      <trkpt lat="45.85581" lon="6.43518">
        <ele>1637.7</ele>
        <time>2024-04-27T11:59:37Z</time>
      </trkpt>
      <trkpt lat="45.85581" lon="6.43518">
        <ele>1637.7</ele>
        <time>2024-04-27T11:59:38Z</time>
      </trkpt>
      <trkpt lat="45.85581" lon="6.43518">
        <ele>1636.6</ele>
        <time>2024-04-27T11:59:39Z</time>
      </trkpt>
      <trkpt lat="45.85581" lon="6.43518">
        <ele>1636.6</ele>
        <time>2024-04-27T11:59:40Z</time>
      </trkpt>
      <trkpt lat="45.85581" lon="6.43518">
        <ele>1636.6</ele>
        <time>2024-04-27T11:59:41Z</time>
      </trkpt>
      <trkpt lat="45.85581" lon="6.43518">
        <ele>1636.6</ele>
        <time>2024-04-27T11:59:42Z</time>
      </trkpt>
      <trkpt lat="45.85581" lon="6.43518">
        <ele>1636.6</ele>
        <time>2024-04-27T11:59:43Z</time>
      </trkpt>
      <trkpt lat="45.85581" lon="6.43518">
        <ele>1636.6</ele>
        <time>2024-04-27T11:59:44Z</time>
      </trkpt>
      <trkpt lat="45.85581" lon="6.43518">
        <ele>1636.6</ele>
        <time>2024-04-27T11:59:45Z</time>
      </trkpt>
      <trkpt lat="45.85581" lon="6.43518">
        <ele>1636.6</ele>
        <time>2024-04-27T11:59:46Z</time>
      </trkpt>
      <trkpt lat="45.85581" lon="6.43518">
        <ele>1636.6</ele>
        <time>2024-04-27T11:59:47Z</time>
      </trkpt>
      <trkpt lat="45.85581" lon="6.43518">
        <ele>1636.6</ele>
        <time>2024-04-27T11:59:48Z</time>
      </trkpt>
      <trkpt lat="45.85581" lon="6.43518">
        <ele>1636.6</ele>
        <time>2024-04-27T11:59:49Z</time>
      </trkpt>
      <trkpt lat="45.85581" lon="6.43518">
        <ele>1636.6</ele>
        <time>2024-04-27T11:59:50Z</time>
      </trkpt>
      <trkpt lat="45.85581" lon="6.43518">
        <ele>1636.6</ele>
        <time>2024-04-27T11:59:51Z</time>
      </trkpt>
      <trkpt lat="45.85581" lon="6.43518">
        <ele>1636.6</ele>
        <time>2024-04-27T11:59:52Z</time>
      </trkpt>
      <trkpt lat="45.85581" lon="6.43518">
        <ele>1636.6</ele>
        <time>2024-04-27T11:59:53Z</time>
      </trkpt>
      <trkpt lat="45.85581" lon="6.43518">
        <ele>1636.6</ele>
        <time>2024-04-27T11:59:54Z</time>
      </trkpt>
      <trkpt lat="45.85581" lon="6.43518">
        <ele>1636.6</ele>
        <time>2024-04-27T11:59:55Z</time>
      </trkpt>
      <trkpt lat="45.85581" lon="6.43518">
        <ele>1636.6</ele>
        <time>2024-04-27T11:59:56Z</time>
      </trkpt>
      <trkpt lat="45.85581" lon="6.43518">
        <ele>1637.7</ele>
        <time>2024-04-27T11:59:57Z</time>
      </trkpt>
      <trkpt lat="45.85581" lon="6.43518">
        <ele>1637.7</ele>
        <time>2024-04-27T11:59:58Z</time>
      </trkpt>
      <trkpt lat="45.85581" lon="6.43518">
        <ele>1637.7</ele>
        <time>2024-04-27T11:59:59Z</time>
      </trkpt>
      <trkpt lat="45.85581" lon="6.43518">
        <ele>1637.7</ele>
        <time>2024-04-27T12:00:00Z</time>
      </trkpt>
      <trkpt lat="45.85581" lon="6.43518">
        <ele>1637.7</ele>
        <time>2024-04-27T12:00:01Z</time>
      </trkpt>
      <trkpt lat="45.85581" lon="6.43518">
        <ele>1637.7</ele>
        <time>2024-04-27T12:00:02Z</time>
      </trkpt>
      <trkpt lat="45.85581" lon="6.43518">
        <ele>1637.7</ele>
        <time>2024-04-27T12:00:03Z</time>
      </trkpt>
      <trkpt lat="45.85581" lon="6.43518">
        <ele>1637.7</ele>
        <time>2024-04-27T12:00:04Z</time>
      </trkpt>
      <trkpt lat="45.85581" lon="6.43518">
        <ele>1637.7</ele>
        <time>2024-04-27T12:00:05Z</time>
      </trkpt>
      <trkpt lat="45.85581" lon="6.43518">
        <ele>1637.7</ele>
        <time>2024-04-27T12:00:06Z</time>
      </trkpt>
      <trkpt lat="45.85581" lon="6.43518">
        <ele>1637.7</ele>
        <time>2024-04-27T12:00:07Z</time>
      </trkpt>
      <trkpt lat="45.85581" lon="6.43518">
        <ele>1637.7</ele>
        <time>2024-04-27T12:00:08Z</time>
      </trkpt>
      <trkpt lat="45.85581" lon="6.43518">
        <ele>1637.7</ele>
        <time>2024-04-27T12:00:09Z</time>
      </trkpt>
      <trkpt lat="45.85581" lon="6.43518">
        <ele>1637.7</ele>
        <time>2024-04-27T12:00:10Z</time>
      </trkpt>
      <trkpt lat="45.85581" lon="6.43518">
        <ele>1637.7</ele>
        <time>2024-04-27T12:00:11Z</time>
      </trkpt>
      <trkpt lat="45.85581" lon="6.43518">
        <ele>1637.7</ele>
        <time>2024-04-27T12:00:12Z</time>
      </trkpt>
      <trkpt lat="45.85581" lon="6.43518">
        <ele>1637.7</ele>
        <time>2024-04-27T12:00:13Z</time>
      </trkpt>
      <trkpt lat="45.85581" lon="6.43518">
        <ele>1637.7</ele>
        <time>2024-04-27T12:00:14Z</time>
      </trkpt>
      <trkpt lat="45.85581" lon="6.43518">
        <ele>1637.7</ele>
        <time>2024-04-27T12:00:15Z</time>
      </trkpt>
      <trkpt lat="45.85581" lon="6.43518">
        <ele>1637.7</ele>
        <time>2024-04-27T12:00:16Z</time>
      </trkpt>
      <trkpt lat="45.85581" lon="6.43518">
        <ele>1638.6</ele>
        <time>2024-04-27T12:00:17Z</time>
      </trkpt>
      <trkpt lat="45.85581" lon="6.43518">
        <ele>1638.6</ele>
        <time>2024-04-27T12:00:18Z</time>
      </trkpt>
      <trkpt lat="45.85581" lon="6.43518">
        <ele>1638.6</ele>
        <time>2024-04-27T12:00:19Z</time>
      </trkpt>
      <trkpt lat="45.85581" lon="6.43518">
        <ele>1638.6</ele>
        <time>2024-04-27T12:00:20Z</time>
      </trkpt>
      <trkpt lat="45.85581" lon="6.43518">
        <ele>1638.6</ele>
        <time>2024-04-27T12:00:21Z</time>
      </trkpt>
      <trkpt lat="45.85581" lon="6.43518">
        <ele>1638.6</ele>
        <time>2024-04-27T12:00:22Z</time>
      </trkpt>
      <trkpt lat="45.85581" lon="6.43518">
        <ele>1638.6</ele>
        <time>2024-04-27T12:00:23Z</time>
      </trkpt>
      <trkpt lat="45.85581" lon="6.43518">
        <ele>1638.6</ele>
        <time>2024-04-27T12:00:24Z</time>
      </trkpt>
      <trkpt lat="45.85581" lon="6.43518">
        <ele>1639.7</ele>
        <time>2024-04-27T12:00:25Z</time>
      </trkpt>
      <trkpt lat="45.85581" lon="6.43518">
        <ele>1639.7</ele>
        <time>2024-04-27T12:00:26Z</time>
      </trkpt>
      <trkpt lat="45.85581" lon="6.43518">
        <ele>1639.7</ele>
        <time>2024-04-27T12:00:27Z</time>
      </trkpt>
      <trkpt lat="45.85581" lon="6.43518">
        <ele>1639.7</ele>
        <time>2024-04-27T12:00:28Z</time>
      </trkpt>
      <trkpt lat="45.85581" lon="6.43518">
        <ele>1640.6</ele>
        <time>2024-04-27T12:00:29Z</time>
      </trkpt>
      <trkpt lat="45.85581" lon="6.43518">
        <ele>1640.6</ele>
        <time>2024-04-27T12:00:30Z</time>
      </trkpt>
      <trkpt lat="45.85581" lon="6.43518">
        <ele>1640.6</ele>
        <time>2024-04-27T12:00:31Z</time>
      </trkpt>
      <trkpt lat="45.85581" lon="6.43518">
        <ele>1640.6</ele>
        <time>2024-04-27T12:00:32Z</time>
      </trkpt>
      <trkpt lat="45.85581" lon="6.43518">
        <ele>1640.6</ele>
        <time>2024-04-27T12:00:33Z</time>
      </trkpt>
      <trkpt lat="45.85581" lon="6.43518">
        <ele>1640.6</ele>
        <time>2024-04-27T12:00:34Z</time>
      </trkpt>
      <trkpt lat="45.85581" lon="6.43518">
        <ele>1640.6</ele>
        <time>2024-04-27T12:00:35Z</time>
      </trkpt>
      <trkpt lat="45.85581" lon="6.43518">
        <ele>1640.6</ele>
        <time>2024-04-27T12:00:36Z</time>
      </trkpt>
      <trkpt lat="45.85581" lon="6.43518">
        <ele>1640.6</ele>
        <time>2024-04-27T12:00:37Z</time>
      </trkpt>
      <trkpt lat="45.85581" lon="6.43518">
        <ele>1640.6</ele>
        <time>2024-04-27T12:00:38Z</time>
      </trkpt>
      <trkpt lat="45.85581" lon="6.43518">
        <ele>1640.6</ele>
        <time>2024-04-27T12:00:39Z</time>
      </trkpt>
      <trkpt lat="45.85581" lon="6.43518">
        <ele>1640.6</ele>
        <time>2024-04-27T12:00:40Z</time>
      </trkpt>
      <trkpt lat="45.85581" lon="6.43518">
        <ele>1638.6</ele>
        <time>2024-04-27T12:00:41Z</time>
      </trkpt>
      <trkpt lat="45.85581" lon="6.43518">
        <ele>1638.6</ele>
        <time>2024-04-27T12:00:42Z</time>
      </trkpt>
      <trkpt lat="45.85581" lon="6.43518">
        <ele>1638.6</ele>
        <time>2024-04-27T12:00:43Z</time>
      </trkpt>
      <trkpt lat="45.85581" lon="6.43518">
        <ele>1638.6</ele>
        <time>2024-04-27T12:00:44Z</time>
      </trkpt>
      <trkpt lat="45.85581" lon="6.43518">
        <ele>1639.7</ele>
        <time>2024-04-27T12:00:45Z</time>
      </trkpt>
      <trkpt lat="45.85581" lon="6.43518">
        <ele>1639.7</ele>
        <time>2024-04-27T12:00:46Z</time>
      </trkpt>
      <trkpt lat="45.85581" lon="6.43518">
        <ele>1639.7</ele>
        <time>2024-04-27T12:00:47Z</time>
      </trkpt>
      <trkpt lat="45.85581" lon="6.43518">
        <ele>1639.7</ele>
        <time>2024-04-27T12:00:48Z</time>
      </trkpt>
      <trkpt lat="45.85581" lon="6.43518">
        <ele>1639.7</ele>
        <time>2024-04-27T12:00:49Z</time>
      </trkpt>
      <trkpt lat="45.85581" lon="6.43518">
        <ele>1639.7</ele>
        <time>2024-04-27T12:00:50Z</time>
      </trkpt>
      <trkpt lat="45.85581" lon="6.43518">
        <ele>1638.6</ele>
        <time>2024-04-27T12:00:51Z</time>
      </trkpt>
      <trkpt lat="45.85581" lon="6.43518">
        <ele>1638.6</ele>
        <time>2024-04-27T12:00:52Z</time>
      </trkpt>
      <trkpt lat="45.85581" lon="6.43518">
        <ele>1638.6</ele>
        <time>2024-04-27T12:00:53Z</time>
      </trkpt>
      <trkpt lat="45.85581" lon="6.43518">
        <ele>1638.6</ele>
        <time>2024-04-27T12:00:54Z</time>
      </trkpt>
      <trkpt lat="45.85581" lon="6.43518">
        <ele>1638.6</ele>
        <time>2024-04-27T12:00:55Z</time>
      </trkpt>
      <trkpt lat="45.85581" lon="6.43518">
        <ele>1638.6</ele>
        <time>2024-04-27T12:00:56Z</time>
      </trkpt>
      <trkpt lat="45.85581" lon="6.43518">
        <ele>1638.6</ele>
        <time>2024-04-27T12:00:57Z</time>
      </trkpt>
      <trkpt lat="45.85581" lon="6.43518">
        <ele>1638.6</ele>
        <time>2024-04-27T12:00:58Z</time>
      </trkpt>
      <trkpt lat="45.85581" lon="6.43518">
        <ele>1638.6</ele>
        <time>2024-04-27T12:00:59Z</time>
      </trkpt>
      <trkpt lat="45.85581" lon="6.43518">
        <ele>1638.6</ele>
        <time>2024-04-27T12:01:00Z</time>
      </trkpt>
      <trkpt lat="45.85581" lon="6.43518">
        <ele>1638.6</ele>
        <time>2024-04-27T12:01:01Z</time>
      </trkpt>
      <trkpt lat="45.85581" lon="6.43518">
        <ele>1638.6</ele>
        <time>2024-04-27T12:01:02Z</time>
      </trkpt>
      <trkpt lat="45.85581" lon="6.43518">
        <ele>1637.7</ele>
        <time>2024-04-27T12:01:03Z</time>
      </trkpt>
      <trkpt lat="45.85581" lon="6.43518">
        <ele>1637.7</ele>
        <time>2024-04-27T12:01:04Z</time>
      </trkpt>
      <trkpt lat="45.85581" lon="6.43518">
        <ele>1637.7</ele>
        <time>2024-04-27T12:01:05Z</time>
      </trkpt>
      <trkpt lat="45.85581" lon="6.43518">
        <ele>1637.7</ele>
        <time>2024-04-27T12:01:06Z</time>
      </trkpt>
      <trkpt lat="45.85581" lon="6.43518">
        <ele>1637.7</ele>
        <time>2024-04-27T12:01:07Z</time>
      </trkpt>
      <trkpt lat="45.85581" lon="6.43518">
        <ele>1637.7</ele>
        <time>2024-04-27T12:01:08Z</time>
      </trkpt>
      <trkpt lat="45.85581" lon="6.43518">
        <ele>1637.7</ele>
        <time>2024-04-27T12:01:09Z</time>
      </trkpt>
      <trkpt lat="45.85581" lon="6.43518">
        <ele>1637.7</ele>
        <time>2024-04-27T12:01:10Z</time>
      </trkpt>
      <trkpt lat="45.85581" lon="6.43518">
        <ele>1637.7</ele>
        <time>2024-04-27T12:01:11Z</time>
      </trkpt>
      <trkpt lat="45.85581" lon="6.43518">
        <ele>1637.7</ele>
        <time>2024-04-27T12:01:12Z</time>
      </trkpt>
      <trkpt lat="45.85581" lon="6.43518">
        <ele>1637.7</ele>
        <time>2024-04-27T12:01:13Z</time>
      </trkpt>
      <trkpt lat="45.85581" lon="6.43518">
        <ele>1637.7</ele>
        <time>2024-04-27T12:01:14Z</time>
      </trkpt>
      <trkpt lat="45.85581" lon="6.43518">
        <ele>1637.7</ele>
        <time>2024-04-27T12:01:15Z</time>
      </trkpt>
      <trkpt lat="45.85581" lon="6.43518">
        <ele>1637.7</ele>
        <time>2024-04-27T12:01:16Z</time>
      </trkpt>
      <trkpt lat="45.85581" lon="6.43518">
        <ele>1637.7</ele>
        <time>2024-04-27T12:01:17Z</time>
      </trkpt>
      <trkpt lat="45.85581" lon="6.43518">
        <ele>1637.7</ele>
        <time>2024-04-27T12:01:18Z</time>
      </trkpt>
      <trkpt lat="45.85581" lon="6.43518">
        <ele>1637.7</ele>
        <time>2024-04-27T12:01:19Z</time>
      </trkpt>
      <trkpt lat="45.85581" lon="6.43518">
        <ele>1637.7</ele>
        <time>2024-04-27T12:01:20Z</time>
      </trkpt>
      <trkpt lat="45.85581" lon="6.43518">
        <ele>1637.7</ele>
        <time>2024-04-27T12:01:21Z</time>
      </trkpt>
      <trkpt lat="45.85581" lon="6.43518">
        <ele>1637.7</ele>
        <time>2024-04-27T12:01:22Z</time>
      </trkpt>
      <trkpt lat="45.85581" lon="6.43518">
        <ele>1637.7</ele>
        <time>2024-04-27T12:01:23Z</time>
      </trkpt>
      <trkpt lat="45.85581" lon="6.43518">
        <ele>1637.7</ele>
        <time>2024-04-27T12:01:24Z</time>
      </trkpt>
      <trkpt lat="45.85581" lon="6.43518">
        <ele>1638.6</ele>
        <time>2024-04-27T12:01:25Z</time>
      </trkpt>
      <trkpt lat="45.85581" lon="6.43518">
        <ele>1638.6</ele>
        <time>2024-04-27T12:01:26Z</time>
      </trkpt>
      <trkpt lat="45.85581" lon="6.43518">
        <ele>1638.6</ele>
        <time>2024-04-27T12:01:27Z</time>
      </trkpt>
      <trkpt lat="45.85581" lon="6.43518">
        <ele>1638.6</ele>
        <time>2024-04-27T12:01:28Z</time>
      </trkpt>
      <trkpt lat="45.85581" lon="6.43518">
        <ele>1638.6</ele>
        <time>2024-04-27T12:01:29Z</time>
      </trkpt>
      <trkpt lat="45.85581" lon="6.43518">
        <ele>1638.6</ele>
        <time>2024-04-27T12:01:30Z</time>
      </trkpt>
      <trkpt lat="45.85581" lon="6.43518">
        <ele>1638.6</ele>
        <time>2024-04-27T12:01:31Z</time>
      </trkpt>
      <trkpt lat="45.85581" lon="6.43518">
        <ele>1638.6</ele>
        <time>2024-04-27T12:01:32Z</time>
      </trkpt>
      <trkpt lat="45.85581" lon="6.43518">
        <ele>1638.6</ele>
        <time>2024-04-27T12:01:33Z</time>
      </trkpt>
      <trkpt lat="45.85581" lon="6.43518">
        <ele>1638.6</ele>
        <time>2024-04-27T12:01:34Z</time>
      </trkpt>
      <trkpt lat="45.85581" lon="6.43518">
        <ele>1638.6</ele>
        <time>2024-04-27T12:01:35Z</time>
      </trkpt>
      <trkpt lat="45.85581" lon="6.43518">
        <ele>1638.6</ele>
        <time>2024-04-27T12:01:36Z</time>
      </trkpt>
      <trkpt lat="45.85581" lon="6.43518">
        <ele>1638.6</ele>
        <time>2024-04-27T12:01:37Z</time>
      </trkpt>
      <trkpt lat="45.85581" lon="6.43518">
        <ele>1638.6</ele>
        <time>2024-04-27T12:01:38Z</time>
      </trkpt>
      <trkpt lat="45.85581" lon="6.43518">
        <ele>1638.6</ele>
        <time>2024-04-27T12:01:39Z</time>
      </trkpt>
      <trkpt lat="45.85581" lon="6.43518">
        <ele>1638.6</ele>
        <time>2024-04-27T12:01:40Z</time>
      </trkpt>
      <trkpt lat="45.85581" lon="6.43518">
        <ele>1638.6</ele>
        <time>2024-04-27T12:01:41Z</time>
      </trkpt>
      <trkpt lat="45.85581" lon="6.43518">
        <ele>1638.6</ele>
        <time>2024-04-27T12:01:42Z</time>
      </trkpt>
      <trkpt lat="45.85581" lon="6.43518">
        <ele>1638.6</ele>
        <time>2024-04-27T12:01:43Z</time>
      </trkpt>
      <trkpt lat="45.85581" lon="6.43518">
        <ele>1638.6</ele>
        <time>2024-04-27T12:01:44Z</time>
      </trkpt>
      <trkpt lat="45.85581" lon="6.43518">
        <ele>1638.6</ele>
        <time>2024-04-27T12:01:45Z</time>
      </trkpt>
      <trkpt lat="45.85581" lon="6.43518">
        <ele>1638.6</ele>
        <time>2024-04-27T12:01:46Z</time>
      </trkpt>
      <trkpt lat="45.85581" lon="6.43518">
        <ele>1638.6</ele>
        <time>2024-04-27T12:01:47Z</time>
      </trkpt>
      <trkpt lat="45.85581" lon="6.43518">
        <ele>1638.6</ele>
        <time>2024-04-27T12:01:48Z</time>
      </trkpt>
      <trkpt lat="45.85581" lon="6.43518">
        <ele>1638.6</ele>
        <time>2024-04-27T12:01:49Z</time>
      </trkpt>
      <trkpt lat="45.85581" lon="6.43518">
        <ele>1638.6</ele>
        <time>2024-04-27T12:01:50Z</time>
      </trkpt>
      <trkpt lat="45.85581" lon="6.43518">
        <ele>1638.6</ele>
        <time>2024-04-27T12:01:51Z</time>
      </trkpt>
      <trkpt lat="45.85581" lon="6.43518">
        <ele>1638.6</ele>
        <time>2024-04-27T12:01:52Z</time>
      </trkpt>
      <trkpt lat="45.85581" lon="6.43518">
        <ele>1638.6</ele>
        <time>2024-04-27T12:01:53Z</time>
      </trkpt>
      <trkpt lat="45.85581" lon="6.43518">
        <ele>1638.6</ele>
        <time>2024-04-27T12:01:54Z</time>
      </trkpt>
      <trkpt lat="45.85581" lon="6.43518">
        <ele>1638.6</ele>
        <time>2024-04-27T12:01:55Z</time>
      </trkpt>
      <trkpt lat="45.85581" lon="6.43518">
        <ele>1638.6</ele>
        <time>2024-04-27T12:01:56Z</time>
      </trkpt>
      <trkpt lat="45.85581" lon="6.43518">
        <ele>1638.6</ele>
        <time>2024-04-27T12:01:57Z</time>
      </trkpt>
      <trkpt lat="45.85581" lon="6.43518">
        <ele>1638.6</ele>
        <time>2024-04-27T12:01:58Z</time>
      </trkpt>
      <trkpt lat="45.85581" lon="6.43518">
        <ele>1638.6</ele>
        <time>2024-04-27T12:01:59Z</time>
      </trkpt>
      <trkpt lat="45.85581" lon="6.43518">
        <ele>1638.6</ele>
        <time>2024-04-27T12:02:00Z</time>
      </trkpt>
      <trkpt lat="45.85581" lon="6.43518">
        <ele>1638.6</ele>
        <time>2024-04-27T12:02:01Z</time>
      </trkpt>
      <trkpt lat="45.85581" lon="6.43518">
        <ele>1638.6</ele>
        <time>2024-04-27T12:02:02Z</time>
      </trkpt>
      <trkpt lat="45.85581" lon="6.43518">
        <ele>1638.6</ele>
        <time>2024-04-27T12:02:03Z</time>
      </trkpt>
      <trkpt lat="45.85581" lon="6.43518">
        <ele>1638.6</ele>
        <time>2024-04-27T12:02:04Z</time>
      </trkpt>
      <trkpt lat="45.85581" lon="6.43518">
        <ele>1638.6</ele>
        <time>2024-04-27T12:02:05Z</time>
      </trkpt>
      <trkpt lat="45.85581" lon="6.43518">
        <ele>1638.6</ele>
        <time>2024-04-27T12:02:06Z</time>
      </trkpt>
      <trkpt lat="45.85581" lon="6.43518">
        <ele>1638.6</ele>
        <time>2024-04-27T12:02:07Z</time>
      </trkpt>
      <trkpt lat="45.85581" lon="6.43518">
        <ele>1638.6</ele>
        <time>2024-04-27T12:02:08Z</time>
      </trkpt>
      <trkpt lat="45.85581" lon="6.43518">
        <ele>1638.6</ele>
        <time>2024-04-27T12:02:09Z</time>
      </trkpt>
      <trkpt lat="45.85581" lon="6.43518">
        <ele>1638.6</ele>
        <time>2024-04-27T12:02:10Z</time>
      </trkpt>
      <trkpt lat="45.85581" lon="6.43518">
        <ele>1638.6</ele>
        <time>2024-04-27T12:02:11Z</time>
      </trkpt>
      <trkpt lat="45.85581" lon="6.43518">
        <ele>1638.6</ele>
        <time>2024-04-27T12:02:12Z</time>
      </trkpt>
      <trkpt lat="45.85581" lon="6.43518">
        <ele>1638.6</ele>
        <time>2024-04-27T12:02:13Z</time>
      </trkpt>
      <trkpt lat="45.85581" lon="6.43518">
        <ele>1638.6</ele>
        <time>2024-04-27T12:02:14Z</time>
      </trkpt>
      <trkpt lat="45.85581" lon="6.43518">
        <ele>1638.6</ele>
        <time>2024-04-27T12:02:15Z</time>
      </trkpt>
      <trkpt lat="45.85581" lon="6.43518">
        <ele>1638.6</ele>
        <time>2024-04-27T12:02:16Z</time>
      </trkpt>
      <trkpt lat="45.85581" lon="6.43518">
        <ele>1638.6</ele>
        <time>2024-04-27T12:02:17Z</time>
      </trkpt>
      <trkpt lat="45.85581" lon="6.43518">
        <ele>1638.6</ele>
        <time>2024-04-27T12:02:18Z</time>
      </trkpt>
      <trkpt lat="45.85581" lon="6.43518">
        <ele>1638.6</ele>
        <time>2024-04-27T12:02:19Z</time>
      </trkpt>
      <trkpt lat="45.85581" lon="6.43518">
        <ele>1638.6</ele>
        <time>2024-04-27T12:02:20Z</time>
      </trkpt>
      <trkpt lat="45.85581" lon="6.43518">
        <ele>1638.6</ele>
        <time>2024-04-27T12:02:21Z</time>
      </trkpt>
      <trkpt lat="45.85581" lon="6.43518">
        <ele>1638.6</ele>
        <time>2024-04-27T12:02:22Z</time>
      </trkpt>
      <trkpt lat="45.85581" lon="6.43518">
        <ele>1638.6</ele>
        <time>2024-04-27T12:02:23Z</time>
      </trkpt>
      <trkpt lat="45.85581" lon="6.43518">
        <ele>1638.6</ele>
        <time>2024-04-27T12:02:24Z</time>
      </trkpt>
      <trkpt lat="45.85581" lon="6.43518">
        <ele>1638.6</ele>
        <time>2024-04-27T12:02:25Z</time>
      </trkpt>
      <trkpt lat="45.85581" lon="6.43518">
        <ele>1638.6</ele>
        <time>2024-04-27T12:02:26Z</time>
      </trkpt>
      <trkpt lat="45.85581" lon="6.43518">
        <ele>1638.6</ele>
        <time>2024-04-27T12:02:27Z</time>
      </trkpt>
      <trkpt lat="45.85581" lon="6.43518">
        <ele>1638.6</ele>
        <time>2024-04-27T12:02:28Z</time>
      </trkpt>
      <trkpt lat="45.85581" lon="6.43518">
        <ele>1638.6</ele>
        <time>2024-04-27T12:02:29Z</time>
      </trkpt>
      <trkpt lat="45.85581" lon="6.43518">
        <ele>1638.6</ele>
        <time>2024-04-27T12:02:30Z</time>
      </trkpt>
      <trkpt lat="45.85581" lon="6.43518">
        <ele>1638.6</ele>
        <time>2024-04-27T12:02:31Z</time>
      </trkpt>
      <trkpt lat="45.85581" lon="6.43518">
        <ele>1638.6</ele>
        <time>2024-04-27T12:02:32Z</time>
      </trkpt>
      <trkpt lat="45.85581" lon="6.43518">
        <ele>1638.6</ele>
        <time>2024-04-27T12:02:33Z</time>
      </trkpt>
      <trkpt lat="45.85581" lon="6.43518">
        <ele>1638.6</ele>
        <time>2024-04-27T12:02:34Z</time>
      </trkpt>
      <trkpt lat="45.85581" lon="6.43518">
        <ele>1638.6</ele>
        <time>2024-04-27T12:02:35Z</time>
      </trkpt>
      <trkpt lat="45.85581" lon="6.43518">
        <ele>1638.6</ele>
        <time>2024-04-27T12:02:36Z</time>
      </trkpt>
      <trkpt lat="45.85581" lon="6.43518">
        <ele>1639.7</ele>
        <time>2024-04-27T12:02:37Z</time>
      </trkpt>
      <trkpt lat="45.85581" lon="6.43518">
        <ele>1639.7</ele>
        <time>2024-04-27T12:02:38Z</time>
      </trkpt>
      <trkpt lat="45.85581" lon="6.43518">
        <ele>1639.7</ele>
        <time>2024-04-27T12:02:39Z</time>
      </trkpt>
      <trkpt lat="45.85581" lon="6.43518">
        <ele>1639.7</ele>
        <time>2024-04-27T12:02:40Z</time>
      </trkpt>
      <trkpt lat="45.85581" lon="6.43518">
        <ele>1639.7</ele>
        <time>2024-04-27T12:02:41Z</time>
      </trkpt>
      <trkpt lat="45.85582" lon="6.43518">
        <ele>1639.7</ele>
        <time>2024-04-27T12:02:42Z</time>
      </trkpt>
      <trkpt lat="45.85582" lon="6.43518">
        <ele>1639.7</ele>
        <time>2024-04-27T12:02:43Z</time>
      </trkpt>
      <trkpt lat="45.85582" lon="6.43518">
        <ele>1639.7</ele>
        <time>2024-04-27T12:02:44Z</time>
      </trkpt>
      <trkpt lat="45.85582" lon="6.43518">
        <ele>1638.6</ele>
        <time>2024-04-27T12:02:45Z</time>
      </trkpt>
      <trkpt lat="45.85582" lon="6.43518">
        <ele>1638.6</ele>
        <time>2024-04-27T12:02:46Z</time>
      </trkpt>
      <trkpt lat="45.85582" lon="6.43518">
        <ele>1638.6</ele>
        <time>2024-04-27T12:02:47Z</time>
      </trkpt>
      <trkpt lat="45.85582" lon="6.43518">
        <ele>1638.6</ele>
        <time>2024-04-27T12:02:48Z</time>
      </trkpt>
      <trkpt lat="45.85582" lon="6.43518">
        <ele>1638.6</ele>
        <time>2024-04-27T12:02:49Z</time>
      </trkpt>
      <trkpt lat="45.85582" lon="6.43518">
        <ele>1638.6</ele>
        <time>2024-04-27T12:02:50Z</time>
      </trkpt>
      <trkpt lat="45.85582" lon="6.43518">
        <ele>1638.6</ele>
        <time>2024-04-27T12:02:51Z</time>
      </trkpt>
      <trkpt lat="45.85582" lon="6.43518">
        <ele>1638.6</ele>
        <time>2024-04-27T12:02:52Z</time>
      </trkpt>
      <trkpt lat="45.85582" lon="6.43518">
        <ele>1638.6</ele>
        <time>2024-04-27T12:02:53Z</time>
      </trkpt>
      <trkpt lat="45.85582" lon="6.43518">
        <ele>1638.6</ele>
        <time>2024-04-27T12:02:54Z</time>
      </trkpt>
      <trkpt lat="45.85582" lon="6.43518">
        <ele>1638.6</ele>
        <time>2024-04-27T12:02:55Z</time>
      </trkpt>
      <trkpt lat="45.85582" lon="6.43518">
        <ele>1638.6</ele>
        <time>2024-04-27T12:02:56Z</time>
      </trkpt>
      <trkpt lat="45.85582" lon="6.43518">
        <ele>1639.7</ele>
        <time>2024-04-27T12:02:57Z</time>
      </trkpt>
      <trkpt lat="45.85582" lon="6.43518">
        <ele>1639.7</ele>
        <time>2024-04-27T12:02:58Z</time>
      </trkpt>
      <trkpt lat="45.85582" lon="6.43518">
        <ele>1639.7</ele>
        <time>2024-04-27T12:02:59Z</time>
      </trkpt>
      <trkpt lat="45.85582" lon="6.43518">
        <ele>1639.7</ele>
        <time>2024-04-27T12:03:00Z</time>
      </trkpt>
      <trkpt lat="45.85582" lon="6.43518">
        <ele>1639.7</ele>
        <time>2024-04-27T12:03:01Z</time>
      </trkpt>
      <trkpt lat="45.85582" lon="6.43518">
        <ele>1639.7</ele>
        <time>2024-04-27T12:03:02Z</time>
      </trkpt>
      <trkpt lat="45.85582" lon="6.43518">
        <ele>1639.7</ele>
        <time>2024-04-27T12:03:03Z</time>
      </trkpt>
      <trkpt lat="45.85582" lon="6.43518">
        <ele>1639.7</ele>
        <time>2024-04-27T12:03:04Z</time>
      </trkpt>
      <trkpt lat="45.85581" lon="6.43519">
        <ele>1639.7</ele>
        <time>2024-04-27T12:03:05Z</time>
      </trkpt>
      <trkpt lat="45.8558" lon="6.43522">
        <ele>1639.7</ele>
        <time>2024-04-27T12:03:06Z</time>
      </trkpt>
      <trkpt lat="45.85579" lon="6.43523">
        <ele>1639.7</ele>
        <time>2024-04-27T12:03:07Z</time>
      </trkpt>
      <trkpt lat="45.85577" lon="6.43525">
        <ele>1639.7</ele>
        <time>2024-04-27T12:03:08Z</time>
      </trkpt>
      <trkpt lat="45.85577" lon="6.43527">
        <ele>1639.7</ele>
        <time>2024-04-27T12:03:09Z</time>
      </trkpt>
      <trkpt lat="45.85576" lon="6.43528">
        <ele>1639.7</ele>
        <time>2024-04-27T12:03:10Z</time>
      </trkpt>
      <trkpt lat="45.85575" lon="6.4353">
        <ele>1639.7</ele>
        <time>2024-04-27T12:03:11Z</time>
      </trkpt>
      <trkpt lat="45.85574" lon="6.43533">
        <ele>1639.7</ele>
        <time>2024-04-27T12:03:12Z</time>
      </trkpt>
      <trkpt lat="45.85573" lon="6.43535">
        <ele>1639.7</ele>
        <time>2024-04-27T12:03:13Z</time>
      </trkpt>
      <trkpt lat="45.85573" lon="6.43536">
        <ele>1639.7</ele>
        <time>2024-04-27T12:03:14Z</time>
      </trkpt>
      <trkpt lat="45.85573" lon="6.43536">
        <ele>1639.7</ele>
        <time>2024-04-27T12:03:15Z</time>
      </trkpt>
      <trkpt lat="45.85573" lon="6.43537">
        <ele>1639.7</ele>
        <time>2024-04-27T12:03:16Z</time>
      </trkpt>
      <trkpt lat="45.85573" lon="6.43538">
        <ele>1639.7</ele>
        <time>2024-04-27T12:03:17Z</time>
      </trkpt>
      <trkpt lat="45.85572" lon="6.43539">
        <ele>1639.7</ele>
        <time>2024-04-27T12:03:18Z</time>
      </trkpt>
      <trkpt lat="45.85572" lon="6.4354">
        <ele>1640.6</ele>
        <time>2024-04-27T12:03:19Z</time>
      </trkpt>
      <trkpt lat="45.85572" lon="6.4354">
        <ele>1640.6</ele>
        <time>2024-04-27T12:03:20Z</time>
      </trkpt>
      <trkpt lat="45.85571" lon="6.43541">
        <ele>1640.6</ele>
        <time>2024-04-27T12:03:21Z</time>
      </trkpt>
      <trkpt lat="45.85572" lon="6.43543">
        <ele>1640.6</ele>
        <time>2024-04-27T12:03:22Z</time>
      </trkpt>
      <trkpt lat="45.85571" lon="6.43544">
        <ele>1641.7</ele>
        <time>2024-04-27T12:03:23Z</time>
      </trkpt>
      <trkpt lat="45.85571" lon="6.43545">
        <ele>1641.7</ele>
        <time>2024-04-27T12:03:24Z</time>
      </trkpt>
      <trkpt lat="45.85571" lon="6.43546">
        <ele>1642.6</ele>
        <time>2024-04-27T12:03:25Z</time>
      </trkpt>
      <trkpt lat="45.85571" lon="6.43547">
        <ele>1642.6</ele>
        <time>2024-04-27T12:03:26Z</time>
      </trkpt>
      <trkpt lat="45.85571" lon="6.43547">
        <ele>1642.6</ele>
        <time>2024-04-27T12:03:27Z</time>
      </trkpt>
      <trkpt lat="45.85571" lon="6.43548">
        <ele>1642.6</ele>
        <time>2024-04-27T12:03:28Z</time>
      </trkpt>
      <trkpt lat="45.85571" lon="6.43549">
        <ele>1642.6</ele>
        <time>2024-04-27T12:03:29Z</time>
      </trkpt>
      <trkpt lat="45.85571" lon="6.43549">
        <ele>1642.6</ele>
        <time>2024-04-27T12:03:30Z</time>
      </trkpt>
      <trkpt lat="45.85571" lon="6.4355">
        <ele>1643.7</ele>
        <time>2024-04-27T12:03:31Z</time>
      </trkpt>
      <trkpt lat="45.85571" lon="6.4355">
        <ele>1643.7</ele>
        <time>2024-04-27T12:03:32Z</time>
      </trkpt>
      <trkpt lat="45.85571" lon="6.4355">
        <ele>1643.7</ele>
        <time>2024-04-27T12:03:33Z</time>
      </trkpt>
      <trkpt lat="45.8557" lon="6.43551">
        <ele>1643.7</ele>
        <time>2024-04-27T12:03:34Z</time>
      </trkpt>
      <trkpt lat="45.8557" lon="6.43552">
        <ele>1643.7</ele>
        <time>2024-04-27T12:03:35Z</time>
      </trkpt>
      <trkpt lat="45.8557" lon="6.43553">
        <ele>1643.7</ele>
        <time>2024-04-27T12:03:36Z</time>
      </trkpt>
      <trkpt lat="45.85569" lon="6.43554">
        <ele>1643.7</ele>
        <time>2024-04-27T12:03:37Z</time>
      </trkpt>
      <trkpt lat="45.85569" lon="6.43554">
        <ele>1643.7</ele>
        <time>2024-04-27T12:03:38Z</time>
      </trkpt>
      <trkpt lat="45.8557" lon="6.43555">
        <ele>1643.7</ele>
        <time>2024-04-27T12:03:39Z</time>
      </trkpt>
      <trkpt lat="45.8557" lon="6.43556">
        <ele>1643.7</ele>
        <time>2024-04-27T12:03:40Z</time>
      </trkpt>
      <trkpt lat="45.8557" lon="6.43557">
        <ele>1643.7</ele>
        <time>2024-04-27T12:03:41Z</time>
      </trkpt>
      <trkpt lat="45.8557" lon="6.43558">
        <ele>1643.7</ele>
        <time>2024-04-27T12:03:42Z</time>
      </trkpt>
      <trkpt lat="45.8557" lon="6.43559">
        <ele>1643.7</ele>
        <time>2024-04-27T12:03:43Z</time>
      </trkpt>
      <trkpt lat="45.8557" lon="6.43558">
        <ele>1643.7</ele>
        <time>2024-04-27T12:03:44Z</time>
      </trkpt>
      <trkpt lat="45.8557" lon="6.43559">
        <ele>1644.6</ele>
        <time>2024-04-27T12:03:45Z</time>
      </trkpt>
      <trkpt lat="45.85569" lon="6.4356">
        <ele>1644.6</ele>
        <time>2024-04-27T12:03:46Z</time>
      </trkpt>
      <trkpt lat="45.85568" lon="6.4356">
        <ele>1644.6</ele>
        <time>2024-04-27T12:03:47Z</time>
      </trkpt>
      <trkpt lat="45.85568" lon="6.43561">
        <ele>1644.6</ele>
        <time>2024-04-27T12:03:48Z</time>
      </trkpt>
      <trkpt lat="45.85568" lon="6.43562">
        <ele>1644.6</ele>
        <time>2024-04-27T12:03:49Z</time>
      </trkpt>
      <trkpt lat="45.85568" lon="6.43562">
        <ele>1644.6</ele>
        <time>2024-04-27T12:03:50Z</time>
      </trkpt>
      <trkpt lat="45.85568" lon="6.43563">
        <ele>1644.6</ele>
        <time>2024-04-27T12:03:51Z</time>
      </trkpt>
      <trkpt lat="45.85568" lon="6.43564">
        <ele>1644.6</ele>
        <time>2024-04-27T12:03:52Z</time>
      </trkpt>
      <trkpt lat="45.85568" lon="6.43565">
        <ele>1645.6</ele>
        <time>2024-04-27T12:03:53Z</time>
      </trkpt>
      <trkpt lat="45.85568" lon="6.43565">
        <ele>1645.6</ele>
        <time>2024-04-27T12:03:54Z</time>
      </trkpt>
      <trkpt lat="45.85568" lon="6.43566">
        <ele>1645.6</ele>
        <time>2024-04-27T12:03:55Z</time>
      </trkpt>
      <trkpt lat="45.85568" lon="6.43566">
        <ele>1645.6</ele>
        <time>2024-04-27T12:03:56Z</time>
      </trkpt>
      <trkpt lat="45.85568" lon="6.43567">
        <ele>1645.6</ele>
        <time>2024-04-27T12:03:57Z</time>
      </trkpt>
      <trkpt lat="45.85569" lon="6.43568">
        <ele>1645.6</ele>
        <time>2024-04-27T12:03:58Z</time>
      </trkpt>
      <trkpt lat="45.85569" lon="6.43569">
        <ele>1646.7</ele>
        <time>2024-04-27T12:03:59Z</time>
      </trkpt>
      <trkpt lat="45.85569" lon="6.4357">
        <ele>1646.7</ele>
        <time>2024-04-27T12:04:00Z</time>
      </trkpt>
      <trkpt lat="45.85569" lon="6.4357">
        <ele>1646.7</ele>
        <time>2024-04-27T12:04:01Z</time>
      </trkpt>
      <trkpt lat="45.85569" lon="6.4357">
        <ele>1646.7</ele>
        <time>2024-04-27T12:04:02Z</time>
      </trkpt>
      <trkpt lat="45.85569" lon="6.43571">
        <ele>1646.7</ele>
        <time>2024-04-27T12:04:03Z</time>
      </trkpt>
      <trkpt lat="45.85569" lon="6.43571">
        <ele>1646.7</ele>
        <time>2024-04-27T12:04:04Z</time>
      </trkpt>
      <trkpt lat="45.85569" lon="6.43571">
        <ele>1647.6</ele>
        <time>2024-04-27T12:04:05Z</time>
      </trkpt>
      <trkpt lat="45.85569" lon="6.43571">
        <ele>1647.6</ele>
        <time>2024-04-27T12:04:06Z</time>
      </trkpt>
      <trkpt lat="45.85569" lon="6.43572">
        <ele>1647.6</ele>
        <time>2024-04-27T12:04:07Z</time>
      </trkpt>
      <trkpt lat="45.85569" lon="6.43573">
        <ele>1647.6</ele>
        <time>2024-04-27T12:04:08Z</time>
      </trkpt>
      <trkpt lat="45.85568" lon="6.43574">
        <ele>1648.7</ele>
        <time>2024-04-27T12:04:09Z</time>
      </trkpt>
      <trkpt lat="45.85568" lon="6.43574">
        <ele>1648.7</ele>
        <time>2024-04-27T12:04:10Z</time>
      </trkpt>
      <trkpt lat="45.85568" lon="6.43575">
        <ele>1648.7</ele>
        <time>2024-04-27T12:04:11Z</time>
      </trkpt>
      <trkpt lat="45.85569" lon="6.43577">
        <ele>1648.7</ele>
        <time>2024-04-27T12:04:12Z</time>
      </trkpt>
      <trkpt lat="45.85569" lon="6.43577">
        <ele>1648.7</ele>
        <time>2024-04-27T12:04:13Z</time>
      </trkpt>
      <trkpt lat="45.85569" lon="6.43578">
        <ele>1648.7</ele>
        <time>2024-04-27T12:04:14Z</time>
      </trkpt>
      <trkpt lat="45.85569" lon="6.43579">
        <ele>1649.6</ele>
        <time>2024-04-27T12:04:15Z</time>
      </trkpt>
      <trkpt lat="45.85569" lon="6.4358">
        <ele>1649.6</ele>
        <time>2024-04-27T12:04:16Z</time>
      </trkpt>
      <trkpt lat="45.85569" lon="6.43581">
        <ele>1649.6</ele>
        <time>2024-04-27T12:04:17Z</time>
      </trkpt>
      <trkpt lat="45.85569" lon="6.43582">
        <ele>1649.6</ele>
        <time>2024-04-27T12:04:18Z</time>
      </trkpt>
      <trkpt lat="45.85569" lon="6.43582">
        <ele>1649.6</ele>
        <time>2024-04-27T12:04:19Z</time>
      </trkpt>
      <trkpt lat="45.85569" lon="6.43582">
        <ele>1649.6</ele>
        <time>2024-04-27T12:04:20Z</time>
      </trkpt>
      <trkpt lat="45.8557" lon="6.43583">
        <ele>1649.6</ele>
        <time>2024-04-27T12:04:21Z</time>
      </trkpt>
      <trkpt lat="45.8557" lon="6.43583">
        <ele>1649.6</ele>
        <time>2024-04-27T12:04:22Z</time>
      </trkpt>
      <trkpt lat="45.85571" lon="6.43583">
        <ele>1649.6</ele>
        <time>2024-04-27T12:04:23Z</time>
      </trkpt>
      <trkpt lat="45.85571" lon="6.43584">
        <ele>1649.6</ele>
        <time>2024-04-27T12:04:24Z</time>
      </trkpt>
      <trkpt lat="45.85571" lon="6.43584">
        <ele>1649.6</ele>
        <time>2024-04-27T12:04:25Z</time>
      </trkpt>
      <trkpt lat="45.85571" lon="6.43585">
        <ele>1649.6</ele>
        <time>2024-04-27T12:04:26Z</time>
      </trkpt>
      <trkpt lat="45.85572" lon="6.43585">
        <ele>1649.6</ele>
        <time>2024-04-27T12:04:27Z</time>
      </trkpt>
      <trkpt lat="45.85572" lon="6.43586">
        <ele>1649.6</ele>
        <time>2024-04-27T12:04:28Z</time>
      </trkpt>
      <trkpt lat="45.85573" lon="6.43586">
        <ele>1652.6</ele>
        <time>2024-04-27T12:04:29Z</time>
      </trkpt>
      <trkpt lat="45.85573" lon="6.43587">
        <ele>1652.6</ele>
        <time>2024-04-27T12:04:30Z</time>
      </trkpt>
      <trkpt lat="45.85573" lon="6.43587">
        <ele>1652.6</ele>
        <time>2024-04-27T12:04:31Z</time>
      </trkpt>
      <trkpt lat="45.85574" lon="6.43588">
        <ele>1652.6</ele>
        <time>2024-04-27T12:04:32Z</time>
      </trkpt>
      <trkpt lat="45.85574" lon="6.43589">
        <ele>1653.7</ele>
        <time>2024-04-27T12:04:33Z</time>
      </trkpt>
      <trkpt lat="45.85575" lon="6.43589">
        <ele>1653.7</ele>
        <time>2024-04-27T12:04:34Z</time>
      </trkpt>
      <trkpt lat="45.85575" lon="6.4359">
        <ele>1653.7</ele>
        <time>2024-04-27T12:04:35Z</time>
      </trkpt>
      <trkpt lat="45.85575" lon="6.43591">
        <ele>1653.7</ele>
        <time>2024-04-27T12:04:36Z</time>
      </trkpt>
      <trkpt lat="45.85576" lon="6.43591">
        <ele>1653.7</ele>
        <time>2024-04-27T12:04:37Z</time>
      </trkpt>
      <trkpt lat="45.85576" lon="6.43591">
        <ele>1653.7</ele>
        <time>2024-04-27T12:04:38Z</time>
      </trkpt>
      <trkpt lat="45.85576" lon="6.43592">
        <ele>1654.6</ele>
        <time>2024-04-27T12:04:39Z</time>
      </trkpt>
      <trkpt lat="45.85576" lon="6.43593">
        <ele>1654.6</ele>
        <time>2024-04-27T12:04:40Z</time>
      </trkpt>
      <trkpt lat="45.85576" lon="6.43594">
        <ele>1654.6</ele>
        <time>2024-04-27T12:04:41Z</time>
      </trkpt>
      <trkpt lat="45.85576" lon="6.43595">
        <ele>1654.6</ele>
        <time>2024-04-27T12:04:42Z</time>
      </trkpt>
      <trkpt lat="45.85576" lon="6.43596">
        <ele>1655.7</ele>
        <time>2024-04-27T12:04:43Z</time>
      </trkpt>
      <trkpt lat="45.85576" lon="6.43597">
        <ele>1655.7</ele>
        <time>2024-04-27T12:04:44Z</time>
      </trkpt>
      <trkpt lat="45.85576" lon="6.43598">
        <ele>1655.7</ele>
        <time>2024-04-27T12:04:45Z</time>
      </trkpt>
      <trkpt lat="45.85576" lon="6.43598">
        <ele>1655.7</ele>
        <time>2024-04-27T12:04:46Z</time>
      </trkpt>
      <trkpt lat="45.85575" lon="6.43599">
        <ele>1656.6</ele>
        <time>2024-04-27T12:04:47Z</time>
      </trkpt>
      <trkpt lat="45.85575" lon="6.43599">
        <ele>1656.6</ele>
        <time>2024-04-27T12:04:48Z</time>
      </trkpt>
      <trkpt lat="45.85575" lon="6.436">
        <ele>1656.6</ele>
        <time>2024-04-27T12:04:49Z</time>
      </trkpt>
      <trkpt lat="45.85574" lon="6.43601">
        <ele>1656.6</ele>
        <time>2024-04-27T12:04:50Z</time>
      </trkpt>
      <trkpt lat="45.85574" lon="6.43601">
        <ele>1656.6</ele>
        <time>2024-04-27T12:04:51Z</time>
      </trkpt>
      <trkpt lat="45.85574" lon="6.43602">
        <ele>1656.6</ele>
        <time>2024-04-27T12:04:52Z</time>
      </trkpt>
      <trkpt lat="45.85574" lon="6.43603">
        <ele>1657.7</ele>
        <time>2024-04-27T12:04:53Z</time>
      </trkpt>
      <trkpt lat="45.85573" lon="6.43603">
        <ele>1657.7</ele>
        <time>2024-04-27T12:04:54Z</time>
      </trkpt>
      <trkpt lat="45.85573" lon="6.43604">
        <ele>1657.7</ele>
        <time>2024-04-27T12:04:55Z</time>
      </trkpt>
      <trkpt lat="45.85574" lon="6.43605">
        <ele>1657.7</ele>
        <time>2024-04-27T12:04:56Z</time>
      </trkpt>
      <trkpt lat="45.85574" lon="6.43605">
        <ele>1657.7</ele>
        <time>2024-04-27T12:04:57Z</time>
      </trkpt>
      <trkpt lat="45.85573" lon="6.43606">
        <ele>1657.7</ele>
        <time>2024-04-27T12:04:58Z</time>
      </trkpt>
      <trkpt lat="45.85573" lon="6.43606">
        <ele>1658.6</ele>
        <time>2024-04-27T12:04:59Z</time>
      </trkpt>
      <trkpt lat="45.85573" lon="6.43607">
        <ele>1658.6</ele>
        <time>2024-04-27T12:05:00Z</time>
      </trkpt>
      <trkpt lat="45.85572" lon="6.43607">
        <ele>1658.6</ele>
        <time>2024-04-27T12:05:01Z</time>
      </trkpt>
      <trkpt lat="45.85572" lon="6.43607">
        <ele>1658.6</ele>
        <time>2024-04-27T12:05:02Z</time>
      </trkpt>
      <trkpt lat="45.85573" lon="6.43607">
        <ele>1659.7</ele>
        <time>2024-04-27T12:05:03Z</time>
      </trkpt>
      <trkpt lat="45.85573" lon="6.43607">
        <ele>1659.7</ele>
        <time>2024-04-27T12:05:04Z</time>
      </trkpt>
      <trkpt lat="45.85573" lon="6.43608">
        <ele>1659.7</ele>
        <time>2024-04-27T12:05:05Z</time>
      </trkpt>
      <trkpt lat="45.85573" lon="6.43608">
        <ele>1659.7</ele>
        <time>2024-04-27T12:05:06Z</time>
      </trkpt>
      <trkpt lat="45.85573" lon="6.43608">
        <ele>1659.7</ele>
        <time>2024-04-27T12:05:07Z</time>
      </trkpt>
      <trkpt lat="45.85573" lon="6.43608">
        <ele>1659.7</ele>
        <time>2024-04-27T12:05:08Z</time>
      </trkpt>
      <trkpt lat="45.85573" lon="6.43609">
        <ele>1659.7</ele>
        <time>2024-04-27T12:05:09Z</time>
      </trkpt>
      <trkpt lat="45.85573" lon="6.4361">
        <ele>1659.7</ele>
        <time>2024-04-27T12:05:10Z</time>
      </trkpt>
      <trkpt lat="45.85573" lon="6.43611">
        <ele>1659.7</ele>
        <time>2024-04-27T12:05:11Z</time>
      </trkpt>
      <trkpt lat="45.85573" lon="6.43612">
        <ele>1659.7</ele>
        <time>2024-04-27T12:05:12Z</time>
      </trkpt>
      <trkpt lat="45.85573" lon="6.43612">
        <ele>1660.6</ele>
        <time>2024-04-27T12:05:13Z</time>
      </trkpt>
      <trkpt lat="45.85573" lon="6.43613">
        <ele>1660.6</ele>
        <time>2024-04-27T12:05:14Z</time>
      </trkpt>
      <trkpt lat="45.85573" lon="6.43613">
        <ele>1660.6</ele>
        <time>2024-04-27T12:05:15Z</time>
      </trkpt>
      <trkpt lat="45.85573" lon="6.43614">
        <ele>1660.6</ele>
        <time>2024-04-27T12:05:16Z</time>
      </trkpt>
      <trkpt lat="45.85573" lon="6.43614">
        <ele>1661.6</ele>
        <time>2024-04-27T12:05:17Z</time>
      </trkpt>
      <trkpt lat="45.85574" lon="6.43615">
        <ele>1661.6</ele>
        <time>2024-04-27T12:05:18Z</time>
      </trkpt>
      <trkpt lat="45.85574" lon="6.43616">
        <ele>1662.7</ele>
        <time>2024-04-27T12:05:19Z</time>
      </trkpt>
      <trkpt lat="45.85574" lon="6.43616">
        <ele>1662.7</ele>
        <time>2024-04-27T12:05:20Z</time>
      </trkpt>
      <trkpt lat="45.85574" lon="6.43617">
        <ele>1662.7</ele>
        <time>2024-04-27T12:05:21Z</time>
      </trkpt>
      <trkpt lat="45.85575" lon="6.43617">
        <ele>1662.7</ele>
        <time>2024-04-27T12:05:22Z</time>
      </trkpt>
      <trkpt lat="45.85575" lon="6.43619">
        <ele>1663.6</ele>
        <time>2024-04-27T12:05:23Z</time>
      </trkpt>
      <trkpt lat="45.85575" lon="6.43619">
        <ele>1663.6</ele>
        <time>2024-04-27T12:05:24Z</time>
      </trkpt>
      <trkpt lat="45.85574" lon="6.4362">
        <ele>1663.6</ele>
        <time>2024-04-27T12:05:25Z</time>
      </trkpt>
      <trkpt lat="45.85574" lon="6.4362">
        <ele>1663.6</ele>
        <time>2024-04-27T12:05:26Z</time>
      </trkpt>
      <trkpt lat="45.85575" lon="6.4362">
        <ele>1663.6</ele>
        <time>2024-04-27T12:05:27Z</time>
      </trkpt>
      <trkpt lat="45.85576" lon="6.4362">
        <ele>1663.6</ele>
        <time>2024-04-27T12:05:28Z</time>
      </trkpt>
      <trkpt lat="45.85576" lon="6.4362">
        <ele>1663.6</ele>
        <time>2024-04-27T12:05:29Z</time>
      </trkpt>
      <trkpt lat="45.85576" lon="6.43621">
        <ele>1663.6</ele>
        <time>2024-04-27T12:05:30Z</time>
      </trkpt>
      <trkpt lat="45.85577" lon="6.43621">
        <ele>1663.6</ele>
        <time>2024-04-27T12:05:31Z</time>
      </trkpt>
      <trkpt lat="45.85577" lon="6.43621">
        <ele>1663.6</ele>
        <time>2024-04-27T12:05:32Z</time>
      </trkpt>
      <trkpt lat="45.85578" lon="6.43622">
        <ele>1664.7</ele>
        <time>2024-04-27T12:05:33Z</time>
      </trkpt>
      <trkpt lat="45.85578" lon="6.43622">
        <ele>1664.7</ele>
        <time>2024-04-27T12:05:34Z</time>
      </trkpt>
      <trkpt lat="45.85579" lon="6.43622">
        <ele>1664.7</ele>
        <time>2024-04-27T12:05:35Z</time>
      </trkpt>
      <trkpt lat="45.85579" lon="6.43623">
        <ele>1664.7</ele>
        <time>2024-04-27T12:05:36Z</time>
      </trkpt>
      <trkpt lat="45.85579" lon="6.43623">
        <ele>1664.7</ele>
        <time>2024-04-27T12:05:37Z</time>
      </trkpt>
      <trkpt lat="45.8558" lon="6.43624">
        <ele>1664.7</ele>
        <time>2024-04-27T12:05:38Z</time>
      </trkpt>
      <trkpt lat="45.8558" lon="6.43624">
        <ele>1665.6</ele>
        <time>2024-04-27T12:05:39Z</time>
      </trkpt>
      <trkpt lat="45.85581" lon="6.43624">
        <ele>1665.6</ele>
        <time>2024-04-27T12:05:40Z</time>
      </trkpt>
      <trkpt lat="45.85581" lon="6.43625">
        <ele>1665.6</ele>
        <time>2024-04-27T12:05:41Z</time>
      </trkpt>
      <trkpt lat="45.85582" lon="6.43625">
        <ele>1665.6</ele>
        <time>2024-04-27T12:05:42Z</time>
      </trkpt>
      <trkpt lat="45.85582" lon="6.43625">
        <ele>1666.7</ele>
        <time>2024-04-27T12:05:43Z</time>
      </trkpt>
      <trkpt lat="45.85582" lon="6.43626">
        <ele>1666.7</ele>
        <time>2024-04-27T12:05:44Z</time>
      </trkpt>
      <trkpt lat="45.85583" lon="6.43626">
        <ele>1666.7</ele>
        <time>2024-04-27T12:05:45Z</time>
      </trkpt>
      <trkpt lat="45.85583" lon="6.43627">
        <ele>1666.7</ele>
        <time>2024-04-27T12:05:46Z</time>
      </trkpt>
      <trkpt lat="45.85583" lon="6.43627">
        <ele>1666.7</ele>
        <time>2024-04-27T12:05:47Z</time>
      </trkpt>
      <trkpt lat="45.85584" lon="6.43628">
        <ele>1666.7</ele>
        <time>2024-04-27T12:05:48Z</time>
      </trkpt>
      <trkpt lat="45.85584" lon="6.43628">
        <ele>1667.6</ele>
        <time>2024-04-27T12:05:49Z</time>
      </trkpt>
      <trkpt lat="45.85585" lon="6.43628">
        <ele>1667.6</ele>
        <time>2024-04-27T12:05:50Z</time>
      </trkpt>
      <trkpt lat="45.85586" lon="6.43629">
        <ele>1667.6</ele>
        <time>2024-04-27T12:05:51Z</time>
      </trkpt>
      <trkpt lat="45.85586" lon="6.43629">
        <ele>1667.6</ele>
        <time>2024-04-27T12:05:52Z</time>
      </trkpt>
      <trkpt lat="45.85587" lon="6.43629">
        <ele>1667.6</ele>
        <time>2024-04-27T12:05:53Z</time>
      </trkpt>
      <trkpt lat="45.85587" lon="6.43629">
        <ele>1667.6</ele>
        <time>2024-04-27T12:05:54Z</time>
      </trkpt>
      <trkpt lat="45.85588" lon="6.4363">
        <ele>1667.6</ele>
        <time>2024-04-27T12:05:55Z</time>
      </trkpt>
      <trkpt lat="45.85588" lon="6.43631">
        <ele>1667.6</ele>
        <time>2024-04-27T12:05:56Z</time>
      </trkpt>
      <trkpt lat="45.85589" lon="6.43631">
        <ele>1668.6</ele>
        <time>2024-04-27T12:05:57Z</time>
      </trkpt>
      <trkpt lat="45.85589" lon="6.43632">
        <ele>1668.6</ele>
        <time>2024-04-27T12:05:58Z</time>
      </trkpt>
      <trkpt lat="45.8559" lon="6.43633">
        <ele>1668.6</ele>
        <time>2024-04-27T12:05:59Z</time>
      </trkpt>
      <trkpt lat="45.8559" lon="6.43633">
        <ele>1668.6</ele>
        <time>2024-04-27T12:06:00Z</time>
      </trkpt>
      <trkpt lat="45.8559" lon="6.43634">
        <ele>1668.6</ele>
        <time>2024-04-27T12:06:01Z</time>
      </trkpt>
      <trkpt lat="45.8559" lon="6.43635">
        <ele>1668.6</ele>
        <time>2024-04-27T12:06:02Z</time>
      </trkpt>
      <trkpt lat="45.85591" lon="6.43635">
        <ele>1669.7</ele>
        <time>2024-04-27T12:06:03Z</time>
      </trkpt>
      <trkpt lat="45.85591" lon="6.43636">
        <ele>1669.7</ele>
        <time>2024-04-27T12:06:04Z</time>
      </trkpt>
      <trkpt lat="45.85592" lon="6.43636">
        <ele>1670.6</ele>
        <time>2024-04-27T12:06:05Z</time>
      </trkpt>
      <trkpt lat="45.85592" lon="6.43636">
        <ele>1670.6</ele>
        <time>2024-04-27T12:06:06Z</time>
      </trkpt>
      <trkpt lat="45.85593" lon="6.43637">
        <ele>1670.6</ele>
        <time>2024-04-27T12:06:07Z</time>
      </trkpt>
      <trkpt lat="45.85593" lon="6.43637">
        <ele>1670.6</ele>
        <time>2024-04-27T12:06:08Z</time>
      </trkpt>
      <trkpt lat="45.85594" lon="6.43638">
        <ele>1670.6</ele>
        <time>2024-04-27T12:06:09Z</time>
      </trkpt>
      <trkpt lat="45.85594" lon="6.43638">
        <ele>1670.6</ele>
        <time>2024-04-27T12:06:10Z</time>
      </trkpt>
      <trkpt lat="45.85595" lon="6.43639">
        <ele>1671.7</ele>
        <time>2024-04-27T12:06:11Z</time>
      </trkpt>
      <trkpt lat="45.85595" lon="6.43639">
        <ele>1671.7</ele>
        <time>2024-04-27T12:06:12Z</time>
      </trkpt>
      <trkpt lat="45.85596" lon="6.4364">
        <ele>1671.7</ele>
        <time>2024-04-27T12:06:13Z</time>
      </trkpt>
      <trkpt lat="45.85597" lon="6.4364">
        <ele>1671.7</ele>
        <time>2024-04-27T12:06:14Z</time>
      </trkpt>
      <trkpt lat="45.85598" lon="6.4364">
        <ele>1672.6</ele>
        <time>2024-04-27T12:06:15Z</time>
      </trkpt>
      <trkpt lat="45.85599" lon="6.4364">
        <ele>1672.6</ele>
        <time>2024-04-27T12:06:16Z</time>
      </trkpt>
      <trkpt lat="45.85599" lon="6.4364">
        <ele>1672.6</ele>
        <time>2024-04-27T12:06:17Z</time>
      </trkpt>
      <trkpt lat="45.856" lon="6.4364">
        <ele>1672.6</ele>
        <time>2024-04-27T12:06:18Z</time>
      </trkpt>
      <trkpt lat="45.85601" lon="6.43641">
        <ele>1672.6</ele>
        <time>2024-04-27T12:06:19Z</time>
      </trkpt>
      <trkpt lat="45.85602" lon="6.43641">
        <ele>1672.6</ele>
        <time>2024-04-27T12:06:20Z</time>
      </trkpt>
      <trkpt lat="45.85603" lon="6.4364">
        <ele>1673.7</ele>
        <time>2024-04-27T12:06:21Z</time>
      </trkpt>
      <trkpt lat="45.85604" lon="6.4364">
        <ele>1673.7</ele>
        <time>2024-04-27T12:06:22Z</time>
      </trkpt>
      <trkpt lat="45.85605" lon="6.43641">
        <ele>1673.7</ele>
        <time>2024-04-27T12:06:23Z</time>
      </trkpt>
      <trkpt lat="45.85606" lon="6.43641">
        <ele>1673.7</ele>
        <time>2024-04-27T12:06:24Z</time>
      </trkpt>
      <trkpt lat="45.85607" lon="6.43642">
        <ele>1673.7</ele>
        <time>2024-04-27T12:06:25Z</time>
      </trkpt>
      <trkpt lat="45.85608" lon="6.43642">
        <ele>1673.7</ele>
        <time>2024-04-27T12:06:26Z</time>
      </trkpt>
      <trkpt lat="45.85609" lon="6.43643">
        <ele>1673.7</ele>
        <time>2024-04-27T12:06:27Z</time>
      </trkpt>
      <trkpt lat="45.85609" lon="6.43643">
        <ele>1673.7</ele>
        <time>2024-04-27T12:06:28Z</time>
      </trkpt>
      <trkpt lat="45.8561" lon="6.43643">
        <ele>1673.7</ele>
        <time>2024-04-27T12:06:29Z</time>
      </trkpt>
      <trkpt lat="45.8561" lon="6.43644">
        <ele>1673.7</ele>
        <time>2024-04-27T12:06:30Z</time>
      </trkpt>
      <trkpt lat="45.85611" lon="6.43645">
        <ele>1673.7</ele>
        <time>2024-04-27T12:06:31Z</time>
      </trkpt>
      <trkpt lat="45.85611" lon="6.43645">
        <ele>1673.7</ele>
        <time>2024-04-27T12:06:32Z</time>
      </trkpt>
      <trkpt lat="45.85612" lon="6.43646">
        <ele>1673.7</ele>
        <time>2024-04-27T12:06:33Z</time>
      </trkpt>
      <trkpt lat="45.85612" lon="6.43646">
        <ele>1673.7</ele>
        <time>2024-04-27T12:06:34Z</time>
      </trkpt>
      <trkpt lat="45.85613" lon="6.43647">
        <ele>1676.6</ele>
        <time>2024-04-27T12:06:35Z</time>
      </trkpt>
      <trkpt lat="45.85613" lon="6.43648">
        <ele>1676.6</ele>
        <time>2024-04-27T12:06:36Z</time>
      </trkpt>
      <trkpt lat="45.85614" lon="6.43649">
        <ele>1677.6</ele>
        <time>2024-04-27T12:06:37Z</time>
      </trkpt>
      <trkpt lat="45.85615" lon="6.43649">
        <ele>1677.6</ele>
        <time>2024-04-27T12:06:38Z</time>
      </trkpt>
      <trkpt lat="45.85615" lon="6.4365">
        <ele>1677.6</ele>
        <time>2024-04-27T12:06:39Z</time>
      </trkpt>
      <trkpt lat="45.85616" lon="6.4365">
        <ele>1677.6</ele>
        <time>2024-04-27T12:06:40Z</time>
      </trkpt>
      <trkpt lat="45.85616" lon="6.43651">
        <ele>1677.6</ele>
        <time>2024-04-27T12:06:41Z</time>
      </trkpt>
      <trkpt lat="45.85617" lon="6.43651">
        <ele>1677.6</ele>
        <time>2024-04-27T12:06:42Z</time>
      </trkpt>
      <trkpt lat="45.85618" lon="6.43652">
        <ele>1677.6</ele>
        <time>2024-04-27T12:06:43Z</time>
      </trkpt>
      <trkpt lat="45.85618" lon="6.43652">
        <ele>1677.6</ele>
        <time>2024-04-27T12:06:44Z</time>
      </trkpt>
      <trkpt lat="45.85619" lon="6.43653">
        <ele>1677.6</ele>
        <time>2024-04-27T12:06:45Z</time>
      </trkpt>
      <trkpt lat="45.85619" lon="6.43654">
        <ele>1677.6</ele>
        <time>2024-04-27T12:06:46Z</time>
      </trkpt>
      <trkpt lat="45.85619" lon="6.43654">
        <ele>1677.6</ele>
        <time>2024-04-27T12:06:47Z</time>
      </trkpt>
      <trkpt lat="45.8562" lon="6.43655">
        <ele>1677.6</ele>
        <time>2024-04-27T12:06:48Z</time>
      </trkpt>
      <trkpt lat="45.8562" lon="6.43656">
        <ele>1678.7</ele>
        <time>2024-04-27T12:06:49Z</time>
      </trkpt>
      <trkpt lat="45.8562" lon="6.43657">
        <ele>1678.7</ele>
        <time>2024-04-27T12:06:50Z</time>
      </trkpt>
      <trkpt lat="45.8562" lon="6.43657">
        <ele>1679.6</ele>
        <time>2024-04-27T12:06:51Z</time>
      </trkpt>
      <trkpt lat="45.85621" lon="6.43657">
        <ele>1679.6</ele>
        <time>2024-04-27T12:06:52Z</time>
      </trkpt>
      <trkpt lat="45.85621" lon="6.43658">
        <ele>1680.7</ele>
        <time>2024-04-27T12:06:53Z</time>
      </trkpt>
      <trkpt lat="45.85622" lon="6.43658">
        <ele>1680.7</ele>
        <time>2024-04-27T12:06:54Z</time>
      </trkpt>
      <trkpt lat="45.85622" lon="6.43659">
        <ele>1681.6</ele>
        <time>2024-04-27T12:06:55Z</time>
      </trkpt>
      <trkpt lat="45.85622" lon="6.43659">
        <ele>1681.6</ele>
        <time>2024-04-27T12:06:56Z</time>
      </trkpt>
      <trkpt lat="45.85623" lon="6.43659">
        <ele>1682.7</ele>
        <time>2024-04-27T12:06:57Z</time>
      </trkpt>
      <trkpt lat="45.85623" lon="6.4366">
        <ele>1682.7</ele>
        <time>2024-04-27T12:06:58Z</time>
      </trkpt>
      <trkpt lat="45.85623" lon="6.43661">
        <ele>1682.7</ele>
        <time>2024-04-27T12:06:59Z</time>
      </trkpt>
      <trkpt lat="45.85624" lon="6.43661">
        <ele>1682.7</ele>
        <time>2024-04-27T12:07:00Z</time>
      </trkpt>
      <trkpt lat="45.85624" lon="6.43662">
        <ele>1683.6</ele>
        <time>2024-04-27T12:07:01Z</time>
      </trkpt>
      <trkpt lat="45.85624" lon="6.43663">
        <ele>1683.6</ele>
        <time>2024-04-27T12:07:02Z</time>
      </trkpt>
      <trkpt lat="45.85625" lon="6.43663">
        <ele>1684.7</ele>
        <time>2024-04-27T12:07:03Z</time>
      </trkpt>
      <trkpt lat="45.85626" lon="6.43664">
        <ele>1684.7</ele>
        <time>2024-04-27T12:07:04Z</time>
      </trkpt>
      <trkpt lat="45.85626" lon="6.43664">
        <ele>1684.7</ele>
        <time>2024-04-27T12:07:05Z</time>
      </trkpt>
      <trkpt lat="45.85627" lon="6.43664">
        <ele>1684.7</ele>
        <time>2024-04-27T12:07:06Z</time>
      </trkpt>
      <trkpt lat="45.85627" lon="6.43665">
        <ele>1685.7</ele>
        <time>2024-04-27T12:07:07Z</time>
      </trkpt>
      <trkpt lat="45.85628" lon="6.43666">
        <ele>1685.7</ele>
        <time>2024-04-27T12:07:08Z</time>
      </trkpt>
      <trkpt lat="45.85629" lon="6.43666">
        <ele>1685.7</ele>
        <time>2024-04-27T12:07:09Z</time>
      </trkpt>
      <trkpt lat="45.85629" lon="6.43667">
        <ele>1685.7</ele>
        <time>2024-04-27T12:07:10Z</time>
      </trkpt>
      <trkpt lat="45.8563" lon="6.43667">
        <ele>1685.7</ele>
        <time>2024-04-27T12:07:11Z</time>
      </trkpt>
      <trkpt lat="45.8563" lon="6.43668">
        <ele>1685.7</ele>
        <time>2024-04-27T12:07:12Z</time>
      </trkpt>
      <trkpt lat="45.8563" lon="6.43669">
        <ele>1685.7</ele>
        <time>2024-04-27T12:07:13Z</time>
      </trkpt>
      <trkpt lat="45.85631" lon="6.4367">
        <ele>1685.7</ele>
        <time>2024-04-27T12:07:14Z</time>
      </trkpt>
      <trkpt lat="45.85631" lon="6.43671">
        <ele>1686.6</ele>
        <time>2024-04-27T12:07:15Z</time>
      </trkpt>
      <trkpt lat="45.85632" lon="6.43671">
        <ele>1686.6</ele>
        <time>2024-04-27T12:07:16Z</time>
      </trkpt>
      <trkpt lat="45.85632" lon="6.43672">
        <ele>1686.6</ele>
        <time>2024-04-27T12:07:17Z</time>
      </trkpt>
      <trkpt lat="45.85632" lon="6.43673">
        <ele>1686.6</ele>
        <time>2024-04-27T12:07:18Z</time>
      </trkpt>
      <trkpt lat="45.85633" lon="6.43674">
        <ele>1686.6</ele>
        <time>2024-04-27T12:07:19Z</time>
      </trkpt>
      <trkpt lat="45.85633" lon="6.43675">
        <ele>1686.6</ele>
        <time>2024-04-27T12:07:20Z</time>
      </trkpt>
      <trkpt lat="45.85633" lon="6.43676">
        <ele>1687.7</ele>
        <time>2024-04-27T12:07:21Z</time>
      </trkpt>
      <trkpt lat="45.85634" lon="6.43677">
        <ele>1687.7</ele>
        <time>2024-04-27T12:07:22Z</time>
      </trkpt>
      <trkpt lat="45.85634" lon="6.43678">
        <ele>1687.7</ele>
        <time>2024-04-27T12:07:23Z</time>
      </trkpt>
      <trkpt lat="45.85635" lon="6.43678">
        <ele>1687.7</ele>
        <time>2024-04-27T12:07:24Z</time>
      </trkpt>
      <trkpt lat="45.85635" lon="6.43679">
        <ele>1687.7</ele>
        <time>2024-04-27T12:07:25Z</time>
      </trkpt>
      <trkpt lat="45.85636" lon="6.43679">
        <ele>1687.7</ele>
        <time>2024-04-27T12:07:26Z</time>
      </trkpt>
      <trkpt lat="45.85637" lon="6.4368">
        <ele>1687.7</ele>
        <time>2024-04-27T12:07:27Z</time>
      </trkpt>
      <trkpt lat="45.85637" lon="6.43681">
        <ele>1687.7</ele>
        <time>2024-04-27T12:07:28Z</time>
      </trkpt>
      <trkpt lat="45.85638" lon="6.43682">
        <ele>1687.7</ele>
        <time>2024-04-27T12:07:29Z</time>
      </trkpt>
      <trkpt lat="45.85637" lon="6.43682">
        <ele>1687.7</ele>
        <time>2024-04-27T12:07:30Z</time>
      </trkpt>
      <trkpt lat="45.85637" lon="6.43682">
        <ele>1687.7</ele>
        <time>2024-04-27T12:07:31Z</time>
      </trkpt>
      <trkpt lat="45.85637" lon="6.43683">
        <ele>1687.7</ele>
        <time>2024-04-27T12:07:32Z</time>
      </trkpt>
      <trkpt lat="45.85637" lon="6.43684">
        <ele>1687.7</ele>
        <time>2024-04-27T12:07:33Z</time>
      </trkpt>
      <trkpt lat="45.85637" lon="6.43685">
        <ele>1687.7</ele>
        <time>2024-04-27T12:07:34Z</time>
      </trkpt>
      <trkpt lat="45.85637" lon="6.43686">
        <ele>1688.6</ele>
        <time>2024-04-27T12:07:35Z</time>
      </trkpt>
      <trkpt lat="45.85637" lon="6.43687">
        <ele>1688.6</ele>
        <time>2024-04-27T12:07:36Z</time>
      </trkpt>
      <trkpt lat="45.85637" lon="6.43688">
        <ele>1688.6</ele>
        <time>2024-04-27T12:07:37Z</time>
      </trkpt>
      <trkpt lat="45.85637" lon="6.43689">
        <ele>1688.6</ele>
        <time>2024-04-27T12:07:38Z</time>
      </trkpt>
      <trkpt lat="45.85637" lon="6.4369">
        <ele>1689.7</ele>
        <time>2024-04-27T12:07:39Z</time>
      </trkpt>
      <trkpt lat="45.85637" lon="6.43691">
        <ele>1689.7</ele>
        <time>2024-04-27T12:07:40Z</time>
      </trkpt>
      <trkpt lat="45.85637" lon="6.43691">
        <ele>1689.7</ele>
        <time>2024-04-27T12:07:41Z</time>
      </trkpt>
      <trkpt lat="45.85637" lon="6.43692">
        <ele>1689.7</ele>
        <time>2024-04-27T12:07:42Z</time>
      </trkpt>
      <trkpt lat="45.85637" lon="6.43693">
        <ele>1690.6</ele>
        <time>2024-04-27T12:07:43Z</time>
      </trkpt>
      <trkpt lat="45.85637" lon="6.43693">
        <ele>1690.6</ele>
        <time>2024-04-27T12:07:44Z</time>
      </trkpt>
      <trkpt lat="45.85638" lon="6.43694">
        <ele>1690.6</ele>
        <time>2024-04-27T12:07:45Z</time>
      </trkpt>
      <trkpt lat="45.85639" lon="6.43695">
        <ele>1690.6</ele>
        <time>2024-04-27T12:07:46Z</time>
      </trkpt>
      <trkpt lat="45.85639" lon="6.43695">
        <ele>1691.7</ele>
        <time>2024-04-27T12:07:47Z</time>
      </trkpt>
      <trkpt lat="45.8564" lon="6.43696">
        <ele>1691.7</ele>
        <time>2024-04-27T12:07:48Z</time>
      </trkpt>
      <trkpt lat="45.8564" lon="6.43697">
        <ele>1691.7</ele>
        <time>2024-04-27T12:07:49Z</time>
      </trkpt>
      <trkpt lat="45.85641" lon="6.43698">
        <ele>1691.7</ele>
        <time>2024-04-27T12:07:50Z</time>
      </trkpt>
      <trkpt lat="45.85641" lon="6.43698">
        <ele>1692.6</ele>
        <time>2024-04-27T12:07:51Z</time>
      </trkpt>
      <trkpt lat="45.85641" lon="6.43699">
        <ele>1692.6</ele>
        <time>2024-04-27T12:07:52Z</time>
      </trkpt>
      <trkpt lat="45.85641" lon="6.43699">
        <ele>1692.6</ele>
        <time>2024-04-27T12:07:53Z</time>
      </trkpt>
      <trkpt lat="45.85641" lon="6.437">
        <ele>1692.6</ele>
        <time>2024-04-27T12:07:54Z</time>
      </trkpt>
      <trkpt lat="45.85641" lon="6.437">
        <ele>1692.6</ele>
        <time>2024-04-27T12:07:55Z</time>
      </trkpt>
      <trkpt lat="45.85641" lon="6.43701">
        <ele>1692.6</ele>
        <time>2024-04-27T12:07:56Z</time>
      </trkpt>
      <trkpt lat="45.85642" lon="6.43702">
        <ele>1692.6</ele>
        <time>2024-04-27T12:07:57Z</time>
      </trkpt>
      <trkpt lat="45.85642" lon="6.43702">
        <ele>1692.6</ele>
        <time>2024-04-27T12:07:58Z</time>
      </trkpt>
      <trkpt lat="45.85642" lon="6.43703">
        <ele>1692.6</ele>
        <time>2024-04-27T12:07:59Z</time>
      </trkpt>
      <trkpt lat="45.85643" lon="6.43704">
        <ele>1692.6</ele>
        <time>2024-04-27T12:08:00Z</time>
      </trkpt>
      <trkpt lat="45.85643" lon="6.43704">
        <ele>1693.6</ele>
        <time>2024-04-27T12:08:01Z</time>
      </trkpt>
      <trkpt lat="45.85643" lon="6.43705">
        <ele>1693.6</ele>
        <time>2024-04-27T12:08:02Z</time>
      </trkpt>
      <trkpt lat="45.85643" lon="6.43705">
        <ele>1694.7</ele>
        <time>2024-04-27T12:08:03Z</time>
      </trkpt>
      <trkpt lat="45.85644" lon="6.43706">
        <ele>1694.7</ele>
        <time>2024-04-27T12:08:04Z</time>
      </trkpt>
      <trkpt lat="45.85644" lon="6.43706">
        <ele>1694.7</ele>
        <time>2024-04-27T12:08:05Z</time>
      </trkpt>
      <trkpt lat="45.85644" lon="6.43707">
        <ele>1694.7</ele>
        <time>2024-04-27T12:08:06Z</time>
      </trkpt>
      <trkpt lat="45.85644" lon="6.43708">
        <ele>1695.6</ele>
        <time>2024-04-27T12:08:07Z</time>
      </trkpt>
      <trkpt lat="45.85644" lon="6.43709">
        <ele>1695.6</ele>
        <time>2024-04-27T12:08:08Z</time>
      </trkpt>
      <trkpt lat="45.85644" lon="6.43709">
        <ele>1695.6</ele>
        <time>2024-04-27T12:08:09Z</time>
      </trkpt>
      <trkpt lat="45.85644" lon="6.43709">
        <ele>1695.6</ele>
        <time>2024-04-27T12:08:10Z</time>
      </trkpt>
      <trkpt lat="45.85644" lon="6.4371">
        <ele>1695.6</ele>
        <time>2024-04-27T12:08:11Z</time>
      </trkpt>
      <trkpt lat="45.85645" lon="6.43711">
        <ele>1695.6</ele>
        <time>2024-04-27T12:08:12Z</time>
      </trkpt>
      <trkpt lat="45.85645" lon="6.43711">
        <ele>1695.6</ele>
        <time>2024-04-27T12:08:13Z</time>
      </trkpt>
      <trkpt lat="45.85645" lon="6.43712">
        <ele>1695.6</ele>
        <time>2024-04-27T12:08:14Z</time>
      </trkpt>
      <trkpt lat="45.85646" lon="6.43713">
        <ele>1695.6</ele>
        <time>2024-04-27T12:08:15Z</time>
      </trkpt>
      <trkpt lat="45.85646" lon="6.43713">
        <ele>1695.6</ele>
        <time>2024-04-27T12:08:16Z</time>
      </trkpt>
      <trkpt lat="45.85647" lon="6.43714">
        <ele>1695.6</ele>
        <time>2024-04-27T12:08:17Z</time>
      </trkpt>
      <trkpt lat="45.85647" lon="6.43714">
        <ele>1695.6</ele>
        <time>2024-04-27T12:08:18Z</time>
      </trkpt>
      <trkpt lat="45.85647" lon="6.43715">
        <ele>1697.6</ele>
        <time>2024-04-27T12:08:19Z</time>
      </trkpt>
      <trkpt lat="45.85648" lon="6.43716">
        <ele>1697.6</ele>
        <time>2024-04-27T12:08:20Z</time>
      </trkpt>
      <trkpt lat="45.85648" lon="6.43716">
        <ele>1697.6</ele>
        <time>2024-04-27T12:08:21Z</time>
      </trkpt>
      <trkpt lat="45.85648" lon="6.43717">
        <ele>1697.6</ele>
        <time>2024-04-27T12:08:22Z</time>
      </trkpt>
      <trkpt lat="45.85649" lon="6.43718">
        <ele>1697.6</ele>
        <time>2024-04-27T12:08:23Z</time>
      </trkpt>
      <trkpt lat="45.85649" lon="6.43718">
        <ele>1697.6</ele>
        <time>2024-04-27T12:08:24Z</time>
      </trkpt>
      <trkpt lat="45.85649" lon="6.43718">
        <ele>1697.6</ele>
        <time>2024-04-27T12:08:25Z</time>
      </trkpt>
      <trkpt lat="45.8565" lon="6.43719">
        <ele>1697.6</ele>
        <time>2024-04-27T12:08:26Z</time>
      </trkpt>
      <trkpt lat="45.85651" lon="6.43719">
        <ele>1698.7</ele>
        <time>2024-04-27T12:08:27Z</time>
      </trkpt>
      <trkpt lat="45.85651" lon="6.4372">
        <ele>1698.7</ele>
        <time>2024-04-27T12:08:28Z</time>
      </trkpt>
      <trkpt lat="45.85651" lon="6.4372">
        <ele>1698.7</ele>
        <time>2024-04-27T12:08:29Z</time>
      </trkpt>
      <trkpt lat="45.85651" lon="6.43722">
        <ele>1698.7</ele>
        <time>2024-04-27T12:08:30Z</time>
      </trkpt>
      <trkpt lat="45.85652" lon="6.43723">
        <ele>1699.6</ele>
        <time>2024-04-27T12:08:31Z</time>
      </trkpt>
      <trkpt lat="45.85652" lon="6.43723">
        <ele>1699.6</ele>
        <time>2024-04-27T12:08:32Z</time>
      </trkpt>
      <trkpt lat="45.85653" lon="6.43723">
        <ele>1699.6</ele>
        <time>2024-04-27T12:08:33Z</time>
      </trkpt>
      <trkpt lat="45.85653" lon="6.43724">
        <ele>1699.6</ele>
        <time>2024-04-27T12:08:34Z</time>
      </trkpt>
      <trkpt lat="45.85653" lon="6.43725">
        <ele>1700.7</ele>
        <time>2024-04-27T12:08:35Z</time>
      </trkpt>
      <trkpt lat="45.85653" lon="6.43725">
        <ele>1700.7</ele>
        <time>2024-04-27T12:08:36Z</time>
      </trkpt>
      <trkpt lat="45.85653" lon="6.43725">
        <ele>1700.7</ele>
        <time>2024-04-27T12:08:37Z</time>
      </trkpt>
      <trkpt lat="45.85653" lon="6.43726">
        <ele>1700.7</ele>
        <time>2024-04-27T12:08:38Z</time>
      </trkpt>
      <trkpt lat="45.85654" lon="6.43726">
        <ele>1701.7</ele>
        <time>2024-04-27T12:08:39Z</time>
      </trkpt>
      <trkpt lat="45.85654" lon="6.43727">
        <ele>1701.7</ele>
        <time>2024-04-27T12:08:40Z</time>
      </trkpt>
      <trkpt lat="45.85654" lon="6.43728">
        <ele>1701.7</ele>
        <time>2024-04-27T12:08:41Z</time>
      </trkpt>
      <trkpt lat="45.85655" lon="6.43729">
        <ele>1701.7</ele>
        <time>2024-04-27T12:08:42Z</time>
      </trkpt>
      <trkpt lat="45.85655" lon="6.4373">
        <ele>1702.6</ele>
        <time>2024-04-27T12:08:43Z</time>
      </trkpt>
      <trkpt lat="45.85656" lon="6.4373">
        <ele>1702.6</ele>
        <time>2024-04-27T12:08:44Z</time>
      </trkpt>
      <trkpt lat="45.85656" lon="6.43731">
        <ele>1702.6</ele>
        <time>2024-04-27T12:08:45Z</time>
      </trkpt>
      <trkpt lat="45.85657" lon="6.43732">
        <ele>1702.6</ele>
        <time>2024-04-27T12:08:46Z</time>
      </trkpt>
      <trkpt lat="45.85657" lon="6.43732">
        <ele>1702.6</ele>
        <time>2024-04-27T12:08:47Z</time>
      </trkpt>
      <trkpt lat="45.85658" lon="6.43733">
        <ele>1702.6</ele>
        <time>2024-04-27T12:08:48Z</time>
      </trkpt>
      <trkpt lat="45.85658" lon="6.43733">
        <ele>1702.6</ele>
        <time>2024-04-27T12:08:49Z</time>
      </trkpt>
      <trkpt lat="45.85659" lon="6.43733">
        <ele>1702.6</ele>
        <time>2024-04-27T12:08:50Z</time>
      </trkpt>
      <trkpt lat="45.85659" lon="6.43734">
        <ele>1703.7</ele>
        <time>2024-04-27T12:08:51Z</time>
      </trkpt>
      <trkpt lat="45.8566" lon="6.43735">
        <ele>1703.7</ele>
        <time>2024-04-27T12:08:52Z</time>
      </trkpt>
      <trkpt lat="45.8566" lon="6.43736">
        <ele>1703.7</ele>
        <time>2024-04-27T12:08:53Z</time>
      </trkpt>
      <trkpt lat="45.8566" lon="6.43737">
        <ele>1703.7</ele>
        <time>2024-04-27T12:08:54Z</time>
      </trkpt>
      <trkpt lat="45.8566" lon="6.43738">
        <ele>1704.6</ele>
        <time>2024-04-27T12:08:55Z</time>
      </trkpt>
      <trkpt lat="45.8566" lon="6.43738">
        <ele>1704.6</ele>
        <time>2024-04-27T12:08:56Z</time>
      </trkpt>
      <trkpt lat="45.8566" lon="6.43739">
        <ele>1704.6</ele>
        <time>2024-04-27T12:08:57Z</time>
      </trkpt>
      <trkpt lat="45.85661" lon="6.4374">
        <ele>1704.6</ele>
        <time>2024-04-27T12:08:58Z</time>
      </trkpt>
      <trkpt lat="45.85661" lon="6.4374">
        <ele>1705.7</ele>
        <time>2024-04-27T12:08:59Z</time>
      </trkpt>
      <trkpt lat="45.85661" lon="6.43741">
        <ele>1705.7</ele>
        <time>2024-04-27T12:09:00Z</time>
      </trkpt>
      <trkpt lat="45.85661" lon="6.43742">
        <ele>1705.7</ele>
        <time>2024-04-27T12:09:01Z</time>
      </trkpt>
      <trkpt lat="45.85662" lon="6.43743">
        <ele>1705.7</ele>
        <time>2024-04-27T12:09:02Z</time>
      </trkpt>
      <trkpt lat="45.85663" lon="6.43744">
        <ele>1705.7</ele>
        <time>2024-04-27T12:09:03Z</time>
      </trkpt>
      <trkpt lat="45.85664" lon="6.43745">
        <ele>1705.7</ele>
        <time>2024-04-27T12:09:04Z</time>
      </trkpt>
      <trkpt lat="45.85664" lon="6.43745">
        <ele>1705.7</ele>
        <time>2024-04-27T12:09:05Z</time>
      </trkpt>
      <trkpt lat="45.85664" lon="6.43746">
        <ele>1705.7</ele>
        <time>2024-04-27T12:09:06Z</time>
      </trkpt>
      <trkpt lat="45.85664" lon="6.43747">
        <ele>1706.6</ele>
        <time>2024-04-27T12:09:07Z</time>
      </trkpt>
      <trkpt lat="45.85665" lon="6.43748">
        <ele>1706.6</ele>
        <time>2024-04-27T12:09:08Z</time>
      </trkpt>
      <trkpt lat="45.85665" lon="6.43748">
        <ele>1706.6</ele>
        <time>2024-04-27T12:09:09Z</time>
      </trkpt>
      <trkpt lat="45.85665" lon="6.43749">
        <ele>1706.6</ele>
        <time>2024-04-27T12:09:10Z</time>
      </trkpt>
      <trkpt lat="45.85666" lon="6.43749">
        <ele>1706.6</ele>
        <time>2024-04-27T12:09:11Z</time>
      </trkpt>
      <trkpt lat="45.85666" lon="6.4375">
        <ele>1706.6</ele>
        <time>2024-04-27T12:09:12Z</time>
      </trkpt>
      <trkpt lat="45.85667" lon="6.43751">
        <ele>1707.7</ele>
        <time>2024-04-27T12:09:13Z</time>
      </trkpt>
      <trkpt lat="45.85667" lon="6.43752">
        <ele>1707.7</ele>
        <time>2024-04-27T12:09:14Z</time>
      </trkpt>
      <trkpt lat="45.85667" lon="6.43752">
        <ele>1707.7</ele>
        <time>2024-04-27T12:09:15Z</time>
      </trkpt>
      <trkpt lat="45.85668" lon="6.43753">
        <ele>1707.7</ele>
        <time>2024-04-27T12:09:16Z</time>
      </trkpt>
      <trkpt lat="45.85668" lon="6.43754">
        <ele>1708.6</ele>
        <time>2024-04-27T12:09:17Z</time>
      </trkpt>
      <trkpt lat="45.85668" lon="6.43755">
        <ele>1708.6</ele>
        <time>2024-04-27T12:09:18Z</time>
      </trkpt>
      <trkpt lat="45.85669" lon="6.43755">
        <ele>1708.6</ele>
        <time>2024-04-27T12:09:19Z</time>
      </trkpt>
      <trkpt lat="45.85669" lon="6.43756">
        <ele>1708.6</ele>
        <time>2024-04-27T12:09:20Z</time>
      </trkpt>
      <trkpt lat="45.85669" lon="6.43756">
        <ele>1709.6</ele>
        <time>2024-04-27T12:09:21Z</time>
      </trkpt>
      <trkpt lat="45.85669" lon="6.43757">
        <ele>1709.6</ele>
        <time>2024-04-27T12:09:22Z</time>
      </trkpt>
      <trkpt lat="45.85669" lon="6.43758">
        <ele>1709.6</ele>
        <time>2024-04-27T12:09:23Z</time>
      </trkpt>
      <trkpt lat="45.85669" lon="6.4376">
        <ele>1709.6</ele>
        <time>2024-04-27T12:09:24Z</time>
      </trkpt>
      <trkpt lat="45.8567" lon="6.4376">
        <ele>1709.6</ele>
        <time>2024-04-27T12:09:25Z</time>
      </trkpt>
      <trkpt lat="45.8567" lon="6.43761">
        <ele>1709.6</ele>
        <time>2024-04-27T12:09:26Z</time>
      </trkpt>
      <trkpt lat="45.8567" lon="6.43762">
        <ele>1710.7</ele>
        <time>2024-04-27T12:09:27Z</time>
      </trkpt>
      <trkpt lat="45.8567" lon="6.43763">
        <ele>1710.7</ele>
        <time>2024-04-27T12:09:28Z</time>
      </trkpt>
      <trkpt lat="45.85671" lon="6.43764">
        <ele>1710.7</ele>
        <time>2024-04-27T12:09:29Z</time>
      </trkpt>
      <trkpt lat="45.85671" lon="6.43765">
        <ele>1710.7</ele>
        <time>2024-04-27T12:09:30Z</time>
      </trkpt>
      <trkpt lat="45.85671" lon="6.43766">
        <ele>1710.7</ele>
        <time>2024-04-27T12:09:31Z</time>
      </trkpt>
      <trkpt lat="45.85672" lon="6.43766">
        <ele>1710.7</ele>
        <time>2024-04-27T12:09:32Z</time>
      </trkpt>
      <trkpt lat="45.85672" lon="6.43767">
        <ele>1711.6</ele>
        <time>2024-04-27T12:09:33Z</time>
      </trkpt>
      <trkpt lat="45.85672" lon="6.43768">
        <ele>1711.6</ele>
        <time>2024-04-27T12:09:34Z</time>
      </trkpt>
      <trkpt lat="45.85672" lon="6.43768">
        <ele>1711.6</ele>
        <time>2024-04-27T12:09:35Z</time>
      </trkpt>
      <trkpt lat="45.85672" lon="6.43769">
        <ele>1711.6</ele>
        <time>2024-04-27T12:09:36Z</time>
      </trkpt>
      <trkpt lat="45.85672" lon="6.4377">
        <ele>1712.7</ele>
        <time>2024-04-27T12:09:37Z</time>
      </trkpt>
      <trkpt lat="45.85672" lon="6.43771">
        <ele>1712.7</ele>
        <time>2024-04-27T12:09:38Z</time>
      </trkpt>
      <trkpt lat="45.85672" lon="6.43771">
        <ele>1712.7</ele>
        <time>2024-04-27T12:09:39Z</time>
      </trkpt>
      <trkpt lat="45.85671" lon="6.43772">
        <ele>1712.7</ele>
        <time>2024-04-27T12:09:40Z</time>
      </trkpt>
      <trkpt lat="45.85671" lon="6.43772">
        <ele>1713.6</ele>
        <time>2024-04-27T12:09:41Z</time>
      </trkpt>
      <trkpt lat="45.85671" lon="6.43773">
        <ele>1713.6</ele>
        <time>2024-04-27T12:09:42Z</time>
      </trkpt>
      <trkpt lat="45.85671" lon="6.43774">
        <ele>1713.6</ele>
        <time>2024-04-27T12:09:43Z</time>
      </trkpt>
      <trkpt lat="45.85671" lon="6.43774">
        <ele>1713.6</ele>
        <time>2024-04-27T12:09:44Z</time>
      </trkpt>
      <trkpt lat="45.85671" lon="6.43775">
        <ele>1714.7</ele>
        <time>2024-04-27T12:09:45Z</time>
      </trkpt>
      <trkpt lat="45.85671" lon="6.43775">
        <ele>1714.7</ele>
        <time>2024-04-27T12:09:46Z</time>
      </trkpt>
      <trkpt lat="45.85671" lon="6.43776">
        <ele>1714.7</ele>
        <time>2024-04-27T12:09:47Z</time>
      </trkpt>
      <trkpt lat="45.85671" lon="6.43777">
        <ele>1714.7</ele>
        <time>2024-04-27T12:09:48Z</time>
      </trkpt>
      <trkpt lat="45.85671" lon="6.43778">
        <ele>1715.6</ele>
        <time>2024-04-27T12:09:49Z</time>
      </trkpt>
      <trkpt lat="45.85671" lon="6.43779">
        <ele>1715.6</ele>
        <time>2024-04-27T12:09:50Z</time>
      </trkpt>
      <trkpt lat="45.85671" lon="6.43779">
        <ele>1716.7</ele>
        <time>2024-04-27T12:09:51Z</time>
      </trkpt>
      <trkpt lat="45.85671" lon="6.4378">
        <ele>1716.7</ele>
        <time>2024-04-27T12:09:52Z</time>
      </trkpt>
      <trkpt lat="45.85671" lon="6.43782">
        <ele>1716.7</ele>
        <time>2024-04-27T12:09:53Z</time>
      </trkpt>
      <trkpt lat="45.8567" lon="6.43783">
        <ele>1716.7</ele>
        <time>2024-04-27T12:09:54Z</time>
      </trkpt>
      <trkpt lat="45.85671" lon="6.43784">
        <ele>1717.6</ele>
        <time>2024-04-27T12:09:55Z</time>
      </trkpt>
      <trkpt lat="45.8567" lon="6.43784">
        <ele>1717.6</ele>
        <time>2024-04-27T12:09:56Z</time>
      </trkpt>
      <trkpt lat="45.85671" lon="6.43785">
        <ele>1717.6</ele>
        <time>2024-04-27T12:09:57Z</time>
      </trkpt>
      <trkpt lat="45.85671" lon="6.43786">
        <ele>1717.6</ele>
        <time>2024-04-27T12:09:58Z</time>
      </trkpt>
      <trkpt lat="45.85671" lon="6.43787">
        <ele>1717.6</ele>
        <time>2024-04-27T12:09:59Z</time>
      </trkpt>
      <trkpt lat="45.85671" lon="6.43788">
        <ele>1717.6</ele>
        <time>2024-04-27T12:10:00Z</time>
      </trkpt>
      <trkpt lat="45.85671" lon="6.43789">
        <ele>1717.6</ele>
        <time>2024-04-27T12:10:01Z</time>
      </trkpt>
      <trkpt lat="45.85671" lon="6.43789">
        <ele>1717.6</ele>
        <time>2024-04-27T12:10:02Z</time>
      </trkpt>
      <trkpt lat="45.85672" lon="6.4379">
        <ele>1717.6</ele>
        <time>2024-04-27T12:10:03Z</time>
      </trkpt>
      <trkpt lat="45.85672" lon="6.43791">
        <ele>1717.6</ele>
        <time>2024-04-27T12:10:04Z</time>
      </trkpt>
      <trkpt lat="45.85672" lon="6.43792">
        <ele>1718.6</ele>
        <time>2024-04-27T12:10:05Z</time>
      </trkpt>
      <trkpt lat="45.85672" lon="6.43793">
        <ele>1718.6</ele>
        <time>2024-04-27T12:10:06Z</time>
      </trkpt>
      <trkpt lat="45.85673" lon="6.43794">
        <ele>1718.6</ele>
        <time>2024-04-27T12:10:07Z</time>
      </trkpt>
      <trkpt lat="45.85674" lon="6.43793">
        <ele>1718.6</ele>
        <time>2024-04-27T12:10:08Z</time>
      </trkpt>
      <trkpt lat="45.85674" lon="6.43793">
        <ele>1718.6</ele>
        <time>2024-04-27T12:10:09Z</time>
      </trkpt>
      <trkpt lat="45.85674" lon="6.43793">
        <ele>1718.6</ele>
        <time>2024-04-27T12:10:10Z</time>
      </trkpt>
      <trkpt lat="45.85675" lon="6.43793">
        <ele>1718.6</ele>
        <time>2024-04-27T12:10:11Z</time>
      </trkpt>
      <trkpt lat="45.85675" lon="6.43793">
        <ele>1718.6</ele>
        <time>2024-04-27T12:10:12Z</time>
      </trkpt>
      <trkpt lat="45.85676" lon="6.43793">
        <ele>1718.6</ele>
        <time>2024-04-27T12:10:13Z</time>
      </trkpt>
      <trkpt lat="45.85676" lon="6.43793">
        <ele>1718.6</ele>
        <time>2024-04-27T12:10:14Z</time>
      </trkpt>
      <trkpt lat="45.85677" lon="6.43793">
        <ele>1719.7</ele>
        <time>2024-04-27T12:10:15Z</time>
      </trkpt>
      <trkpt lat="45.85678" lon="6.43793">
        <ele>1719.7</ele>
        <time>2024-04-27T12:10:16Z</time>
      </trkpt>
      <trkpt lat="45.85678" lon="6.43794">
        <ele>1719.7</ele>
        <time>2024-04-27T12:10:17Z</time>
      </trkpt>
      <trkpt lat="45.85679" lon="6.43794">
        <ele>1719.7</ele>
        <time>2024-04-27T12:10:18Z</time>
      </trkpt>
      <trkpt lat="45.8568" lon="6.43794">
        <ele>1720.6</ele>
        <time>2024-04-27T12:10:19Z</time>
      </trkpt>
      <trkpt lat="45.8568" lon="6.43795">
        <ele>1720.6</ele>
        <time>2024-04-27T12:10:20Z</time>
      </trkpt>
      <trkpt lat="45.85681" lon="6.43795">
        <ele>1720.6</ele>
        <time>2024-04-27T12:10:21Z</time>
      </trkpt>
      <trkpt lat="45.85681" lon="6.43796">
        <ele>1720.6</ele>
        <time>2024-04-27T12:10:22Z</time>
      </trkpt>
      <trkpt lat="45.85682" lon="6.43796">
        <ele>1720.6</ele>
        <time>2024-04-27T12:10:23Z</time>
      </trkpt>
      <trkpt lat="45.85682" lon="6.43797">
        <ele>1720.6</ele>
        <time>2024-04-27T12:10:24Z</time>
      </trkpt>
      <trkpt lat="45.85682" lon="6.43797">
        <ele>1721.7</ele>
        <time>2024-04-27T12:10:25Z</time>
      </trkpt>
      <trkpt lat="45.85682" lon="6.43798">
        <ele>1721.7</ele>
        <time>2024-04-27T12:10:26Z</time>
      </trkpt>
      <trkpt lat="45.85683" lon="6.43799">
        <ele>1721.7</ele>
        <time>2024-04-27T12:10:27Z</time>
      </trkpt>
      <trkpt lat="45.85684" lon="6.43799">
        <ele>1721.7</ele>
        <time>2024-04-27T12:10:28Z</time>
      </trkpt>
      <trkpt lat="45.85684" lon="6.438">
        <ele>1722.6</ele>
        <time>2024-04-27T12:10:29Z</time>
      </trkpt>
      <trkpt lat="45.85685" lon="6.43801">
        <ele>1722.6</ele>
        <time>2024-04-27T12:10:30Z</time>
      </trkpt>
      <trkpt lat="45.85685" lon="6.43801">
        <ele>1723.7</ele>
        <time>2024-04-27T12:10:31Z</time>
      </trkpt>
      <trkpt lat="45.85686" lon="6.43802">
        <ele>1723.7</ele>
        <time>2024-04-27T12:10:32Z</time>
      </trkpt>
      <trkpt lat="45.85687" lon="6.43802">
        <ele>1723.7</ele>
        <time>2024-04-27T12:10:33Z</time>
      </trkpt>
      <trkpt lat="45.85687" lon="6.43802">
        <ele>1723.7</ele>
        <time>2024-04-27T12:10:34Z</time>
      </trkpt>
      <trkpt lat="45.85687" lon="6.43803">
        <ele>1723.7</ele>
        <time>2024-04-27T12:10:35Z</time>
      </trkpt>
      <trkpt lat="45.85687" lon="6.43803">
        <ele>1723.7</ele>
        <time>2024-04-27T12:10:36Z</time>
      </trkpt>
      <trkpt lat="45.85687" lon="6.43804">
        <ele>1723.7</ele>
        <time>2024-04-27T12:10:37Z</time>
      </trkpt>
      <trkpt lat="45.85686" lon="6.43805">
        <ele>1723.7</ele>
        <time>2024-04-27T12:10:38Z</time>
      </trkpt>
      <trkpt lat="45.85686" lon="6.43805">
        <ele>1724.6</ele>
        <time>2024-04-27T12:10:39Z</time>
      </trkpt>
      <trkpt lat="45.85685" lon="6.43805">
        <ele>1724.6</ele>
        <time>2024-04-27T12:10:40Z</time>
      </trkpt>
      <trkpt lat="45.85685" lon="6.43806">
        <ele>1725.6</ele>
        <time>2024-04-27T12:10:41Z</time>
      </trkpt>
      <trkpt lat="45.85685" lon="6.43806">
        <ele>1725.6</ele>
        <time>2024-04-27T12:10:42Z</time>
      </trkpt>
      <trkpt lat="45.85684" lon="6.43807">
        <ele>1725.6</ele>
        <time>2024-04-27T12:10:43Z</time>
      </trkpt>
      <trkpt lat="45.85683" lon="6.43807">
        <ele>1725.6</ele>
        <time>2024-04-27T12:10:44Z</time>
      </trkpt>
      <trkpt lat="45.85683" lon="6.43807">
        <ele>1726.7</ele>
        <time>2024-04-27T12:10:45Z</time>
      </trkpt>
      <trkpt lat="45.85682" lon="6.43808">
        <ele>1726.7</ele>
        <time>2024-04-27T12:10:46Z</time>
      </trkpt>
      <trkpt lat="45.85682" lon="6.43808">
        <ele>1727.6</ele>
        <time>2024-04-27T12:10:47Z</time>
      </trkpt>
      <trkpt lat="45.85681" lon="6.43808">
        <ele>1727.6</ele>
        <time>2024-04-27T12:10:48Z</time>
      </trkpt>
      <trkpt lat="45.85681" lon="6.43809">
        <ele>1727.6</ele>
        <time>2024-04-27T12:10:49Z</time>
      </trkpt>
      <trkpt lat="45.85681" lon="6.4381">
        <ele>1727.6</ele>
        <time>2024-04-27T12:10:50Z</time>
      </trkpt>
      <trkpt lat="45.85681" lon="6.4381">
        <ele>1727.6</ele>
        <time>2024-04-27T12:10:51Z</time>
      </trkpt>
      <trkpt lat="45.85681" lon="6.4381">
        <ele>1727.6</ele>
        <time>2024-04-27T12:10:52Z</time>
      </trkpt>
      <trkpt lat="45.85681" lon="6.43811">
        <ele>1727.6</ele>
        <time>2024-04-27T12:10:53Z</time>
      </trkpt>
      <trkpt lat="45.85682" lon="6.43812">
        <ele>1727.6</ele>
        <time>2024-04-27T12:10:54Z</time>
      </trkpt>
      <trkpt lat="45.85683" lon="6.43813">
        <ele>1727.6</ele>
        <time>2024-04-27T12:10:55Z</time>
      </trkpt>
      <trkpt lat="45.85683" lon="6.43813">
        <ele>1727.6</ele>
        <time>2024-04-27T12:10:56Z</time>
      </trkpt>
      <trkpt lat="45.85684" lon="6.43814">
        <ele>1727.6</ele>
        <time>2024-04-27T12:10:57Z</time>
      </trkpt>
      <trkpt lat="45.85684" lon="6.43814">
        <ele>1727.6</ele>
        <time>2024-04-27T12:10:58Z</time>
      </trkpt>
      <trkpt lat="45.85685" lon="6.43815">
        <ele>1728.7</ele>
        <time>2024-04-27T12:10:59Z</time>
      </trkpt>
      <trkpt lat="45.85685" lon="6.43815">
        <ele>1728.7</ele>
        <time>2024-04-27T12:11:00Z</time>
      </trkpt>
      <trkpt lat="45.85686" lon="6.43816">
        <ele>1728.7</ele>
        <time>2024-04-27T12:11:01Z</time>
      </trkpt>
      <trkpt lat="45.85686" lon="6.43816">
        <ele>1728.7</ele>
        <time>2024-04-27T12:11:02Z</time>
      </trkpt>
      <trkpt lat="45.85687" lon="6.43817">
        <ele>1728.7</ele>
        <time>2024-04-27T12:11:03Z</time>
      </trkpt>
      <trkpt lat="45.85687" lon="6.43817">
        <ele>1728.7</ele>
        <time>2024-04-27T12:11:04Z</time>
      </trkpt>
      <trkpt lat="45.85688" lon="6.43817">
        <ele>1729.6</ele>
        <time>2024-04-27T12:11:05Z</time>
      </trkpt>
      <trkpt lat="45.85688" lon="6.43818">
        <ele>1729.6</ele>
        <time>2024-04-27T12:11:06Z</time>
      </trkpt>
      <trkpt lat="45.85689" lon="6.43818">
        <ele>1729.6</ele>
        <time>2024-04-27T12:11:07Z</time>
      </trkpt>
      <trkpt lat="45.8569" lon="6.43818">
        <ele>1729.6</ele>
        <time>2024-04-27T12:11:08Z</time>
      </trkpt>
      <trkpt lat="45.8569" lon="6.43818">
        <ele>1729.6</ele>
        <time>2024-04-27T12:11:09Z</time>
      </trkpt>
      <trkpt lat="45.85691" lon="6.43818">
        <ele>1729.6</ele>
        <time>2024-04-27T12:11:10Z</time>
      </trkpt>
      <trkpt lat="45.85691" lon="6.43819">
        <ele>1730.7</ele>
        <time>2024-04-27T12:11:11Z</time>
      </trkpt>
      <trkpt lat="45.85692" lon="6.43819">
        <ele>1730.7</ele>
        <time>2024-04-27T12:11:12Z</time>
      </trkpt>
      <trkpt lat="45.85692" lon="6.4382">
        <ele>1731.6</ele>
        <time>2024-04-27T12:11:13Z</time>
      </trkpt>
      <trkpt lat="45.85692" lon="6.43821">
        <ele>1731.6</ele>
        <time>2024-04-27T12:11:14Z</time>
      </trkpt>
      <trkpt lat="45.85692" lon="6.43822">
        <ele>1731.6</ele>
        <time>2024-04-27T12:11:15Z</time>
      </trkpt>
      <trkpt lat="45.85693" lon="6.43823">
        <ele>1731.6</ele>
        <time>2024-04-27T12:11:16Z</time>
      </trkpt>
      <trkpt lat="45.85693" lon="6.43823">
        <ele>1731.6</ele>
        <time>2024-04-27T12:11:17Z</time>
      </trkpt>
      <trkpt lat="45.85692" lon="6.43824">
        <ele>1731.6</ele>
        <time>2024-04-27T12:11:18Z</time>
      </trkpt>
      <trkpt lat="45.85692" lon="6.43824">
        <ele>1731.6</ele>
        <time>2024-04-27T12:11:19Z</time>
      </trkpt>
      <trkpt lat="45.85691" lon="6.43825">
        <ele>1731.6</ele>
        <time>2024-04-27T12:11:20Z</time>
      </trkpt>
      <trkpt lat="45.8569" lon="6.43826">
        <ele>1732.7</ele>
        <time>2024-04-27T12:11:21Z</time>
      </trkpt>
      <trkpt lat="45.8569" lon="6.43827">
        <ele>1732.7</ele>
        <time>2024-04-27T12:11:22Z</time>
      </trkpt>
      <trkpt lat="45.85689" lon="6.43827">
        <ele>1733.6</ele>
        <time>2024-04-27T12:11:23Z</time>
      </trkpt>
      <trkpt lat="45.85688" lon="6.43827">
        <ele>1733.6</ele>
        <time>2024-04-27T12:11:24Z</time>
      </trkpt>
      <trkpt lat="45.85688" lon="6.43828">
        <ele>1733.6</ele>
        <time>2024-04-27T12:11:25Z</time>
      </trkpt>
      <trkpt lat="45.85688" lon="6.43829">
        <ele>1733.6</ele>
        <time>2024-04-27T12:11:26Z</time>
      </trkpt>
      <trkpt lat="45.85687" lon="6.4383">
        <ele>1733.6</ele>
        <time>2024-04-27T12:11:27Z</time>
      </trkpt>
      <trkpt lat="45.85687" lon="6.4383">
        <ele>1733.6</ele>
        <time>2024-04-27T12:11:28Z</time>
      </trkpt>
      <trkpt lat="45.85686" lon="6.4383">
        <ele>1734.6</ele>
        <time>2024-04-27T12:11:29Z</time>
      </trkpt>
      <trkpt lat="45.85686" lon="6.43831">
        <ele>1734.6</ele>
        <time>2024-04-27T12:11:30Z</time>
      </trkpt>
      <trkpt lat="45.85685" lon="6.43831">
        <ele>1734.6</ele>
        <time>2024-04-27T12:11:31Z</time>
      </trkpt>
      <trkpt lat="45.85685" lon="6.43832">
        <ele>1734.6</ele>
        <time>2024-04-27T12:11:32Z</time>
      </trkpt>
      <trkpt lat="45.85684" lon="6.43832">
        <ele>1735.7</ele>
        <time>2024-04-27T12:11:33Z</time>
      </trkpt>
      <trkpt lat="45.85684" lon="6.43833">
        <ele>1735.7</ele>
        <time>2024-04-27T12:11:34Z</time>
      </trkpt>
      <trkpt lat="45.85683" lon="6.43833">
        <ele>1735.7</ele>
        <time>2024-04-27T12:11:35Z</time>
      </trkpt>
      <trkpt lat="45.85683" lon="6.43833">
        <ele>1735.7</ele>
        <time>2024-04-27T12:11:36Z</time>
      </trkpt>
      <trkpt lat="45.85682" lon="6.43833">
        <ele>1736.6</ele>
        <time>2024-04-27T12:11:37Z</time>
      </trkpt>
      <trkpt lat="45.85682" lon="6.43833">
        <ele>1736.6</ele>
        <time>2024-04-27T12:11:38Z</time>
      </trkpt>
      <trkpt lat="45.85682" lon="6.43834">
        <ele>1736.6</ele>
        <time>2024-04-27T12:11:39Z</time>
      </trkpt>
      <trkpt lat="45.85681" lon="6.43834">
        <ele>1736.6</ele>
        <time>2024-04-27T12:11:40Z</time>
      </trkpt>
      <trkpt lat="45.85681" lon="6.43834">
        <ele>1737.7</ele>
        <time>2024-04-27T12:11:41Z</time>
      </trkpt>
      <trkpt lat="45.8568" lon="6.43835">
        <ele>1737.7</ele>
        <time>2024-04-27T12:11:42Z</time>
      </trkpt>
      <trkpt lat="45.8568" lon="6.43835">
        <ele>1737.7</ele>
        <time>2024-04-27T12:11:43Z</time>
      </trkpt>
      <trkpt lat="45.85679" lon="6.43836">
        <ele>1737.7</ele>
        <time>2024-04-27T12:11:44Z</time>
      </trkpt>
      <trkpt lat="45.85678" lon="6.43836">
        <ele>1737.7</ele>
        <time>2024-04-27T12:11:45Z</time>
      </trkpt>
      <trkpt lat="45.85677" lon="6.43837">
        <ele>1737.7</ele>
        <time>2024-04-27T12:11:46Z</time>
      </trkpt>
      <trkpt lat="45.85677" lon="6.43837">
        <ele>1738.6</ele>
        <time>2024-04-27T12:11:47Z</time>
      </trkpt>
      <trkpt lat="45.85677" lon="6.43837">
        <ele>1738.6</ele>
        <time>2024-04-27T12:11:48Z</time>
      </trkpt>
      <trkpt lat="45.85676" lon="6.43838">
        <ele>1738.6</ele>
        <time>2024-04-27T12:11:49Z</time>
      </trkpt>
      <trkpt lat="45.85676" lon="6.43838">
        <ele>1738.6</ele>
        <time>2024-04-27T12:11:50Z</time>
      </trkpt>
      <trkpt lat="45.85676" lon="6.43838">
        <ele>1738.6</ele>
        <time>2024-04-27T12:11:51Z</time>
      </trkpt>
      <trkpt lat="45.85675" lon="6.43838">
        <ele>1738.6</ele>
        <time>2024-04-27T12:11:52Z</time>
      </trkpt>
      <trkpt lat="45.85675" lon="6.43838">
        <ele>1739.7</ele>
        <time>2024-04-27T12:11:53Z</time>
      </trkpt>
      <trkpt lat="45.85675" lon="6.43838">
        <ele>1739.7</ele>
        <time>2024-04-27T12:11:54Z</time>
      </trkpt>
      <trkpt lat="45.85675" lon="6.43838">
        <ele>1739.7</ele>
        <time>2024-04-27T12:11:55Z</time>
      </trkpt>
      <trkpt lat="45.85675" lon="6.43839">
        <ele>1739.7</ele>
        <time>2024-04-27T12:11:56Z</time>
      </trkpt>
      <trkpt lat="45.85675" lon="6.43838">
        <ele>1739.7</ele>
        <time>2024-04-27T12:11:57Z</time>
      </trkpt>
      <trkpt lat="45.85675" lon="6.43838">
        <ele>1739.7</ele>
        <time>2024-04-27T12:11:58Z</time>
      </trkpt>
      <trkpt lat="45.85675" lon="6.43838">
        <ele>1739.7</ele>
        <time>2024-04-27T12:11:59Z</time>
      </trkpt>
      <trkpt lat="45.85676" lon="6.43838">
        <ele>1739.7</ele>
        <time>2024-04-27T12:12:00Z</time>
      </trkpt>
      <trkpt lat="45.85676" lon="6.43838">
        <ele>1739.7</ele>
        <time>2024-04-27T12:12:01Z</time>
      </trkpt>
      <trkpt lat="45.85676" lon="6.43838">
        <ele>1739.7</ele>
        <time>2024-04-27T12:12:02Z</time>
      </trkpt>
      <trkpt lat="45.85676" lon="6.43838">
        <ele>1739.7</ele>
        <time>2024-04-27T12:12:03Z</time>
      </trkpt>
      <trkpt lat="45.85676" lon="6.43838">
        <ele>1739.7</ele>
        <time>2024-04-27T12:12:04Z</time>
      </trkpt>
      <trkpt lat="45.85677" lon="6.43839">
        <ele>1739.7</ele>
        <time>2024-04-27T12:12:05Z</time>
      </trkpt>
      <trkpt lat="45.85678" lon="6.43839">
        <ele>1739.7</ele>
        <time>2024-04-27T12:12:06Z</time>
      </trkpt>
      <trkpt lat="45.85678" lon="6.43839">
        <ele>1739.7</ele>
        <time>2024-04-27T12:12:07Z</time>
      </trkpt>
      <trkpt lat="45.85679" lon="6.4384">
        <ele>1739.7</ele>
        <time>2024-04-27T12:12:08Z</time>
      </trkpt>
      <trkpt lat="45.85679" lon="6.4384">
        <ele>1739.7</ele>
        <time>2024-04-27T12:12:09Z</time>
      </trkpt>
      <trkpt lat="45.8568" lon="6.43841">
        <ele>1739.7</ele>
        <time>2024-04-27T12:12:10Z</time>
      </trkpt>
      <trkpt lat="45.8568" lon="6.43842">
        <ele>1739.7</ele>
        <time>2024-04-27T12:12:11Z</time>
      </trkpt>
      <trkpt lat="45.8568" lon="6.43843">
        <ele>1739.7</ele>
        <time>2024-04-27T12:12:12Z</time>
      </trkpt>
      <trkpt lat="45.8568" lon="6.43843">
        <ele>1739.7</ele>
        <time>2024-04-27T12:12:13Z</time>
      </trkpt>
      <trkpt lat="45.85681" lon="6.43844">
        <ele>1739.7</ele>
        <time>2024-04-27T12:12:14Z</time>
      </trkpt>
      <trkpt lat="45.85681" lon="6.43844">
        <ele>1739.7</ele>
        <time>2024-04-27T12:12:15Z</time>
      </trkpt>
      <trkpt lat="45.85681" lon="6.43845">
        <ele>1739.7</ele>
        <time>2024-04-27T12:12:16Z</time>
      </trkpt>
      <trkpt lat="45.85681" lon="6.43845">
        <ele>1741.6</ele>
        <time>2024-04-27T12:12:17Z</time>
      </trkpt>
      <trkpt lat="45.85681" lon="6.43845">
        <ele>1741.6</ele>
        <time>2024-04-27T12:12:18Z</time>
      </trkpt>
      <trkpt lat="45.85681" lon="6.43846">
        <ele>1741.6</ele>
        <time>2024-04-27T12:12:19Z</time>
      </trkpt>
      <trkpt lat="45.85682" lon="6.43847">
        <ele>1741.6</ele>
        <time>2024-04-27T12:12:20Z</time>
      </trkpt>
      <trkpt lat="45.85682" lon="6.43847">
        <ele>1742.7</ele>
        <time>2024-04-27T12:12:21Z</time>
      </trkpt>
      <trkpt lat="45.85683" lon="6.43848">
        <ele>1742.7</ele>
        <time>2024-04-27T12:12:22Z</time>
      </trkpt>
      <trkpt lat="45.85683" lon="6.43848">
        <ele>1742.7</ele>
        <time>2024-04-27T12:12:23Z</time>
      </trkpt>
      <trkpt lat="45.85683" lon="6.43849">
        <ele>1742.7</ele>
        <time>2024-04-27T12:12:24Z</time>
      </trkpt>
      <trkpt lat="45.85684" lon="6.43849">
        <ele>1742.7</ele>
        <time>2024-04-27T12:12:25Z</time>
      </trkpt>
      <trkpt lat="45.85684" lon="6.4385">
        <ele>1742.7</ele>
        <time>2024-04-27T12:12:26Z</time>
      </trkpt>
      <trkpt lat="45.85684" lon="6.43849">
        <ele>1743.6</ele>
        <time>2024-04-27T12:12:27Z</time>
      </trkpt>
      <trkpt lat="45.85685" lon="6.4385">
        <ele>1743.6</ele>
        <time>2024-04-27T12:12:28Z</time>
      </trkpt>
      <trkpt lat="45.85686" lon="6.43851">
        <ele>1743.6</ele>
        <time>2024-04-27T12:12:29Z</time>
      </trkpt>
      <trkpt lat="45.85686" lon="6.43851">
        <ele>1743.6</ele>
        <time>2024-04-27T12:12:30Z</time>
      </trkpt>
      <trkpt lat="45.85686" lon="6.43852">
        <ele>1744.7</ele>
        <time>2024-04-27T12:12:31Z</time>
      </trkpt>
      <trkpt lat="45.85686" lon="6.43852">
        <ele>1744.7</ele>
        <time>2024-04-27T12:12:32Z</time>
      </trkpt>
      <trkpt lat="45.85687" lon="6.43853">
        <ele>1744.7</ele>
        <time>2024-04-27T12:12:33Z</time>
      </trkpt>
      <trkpt lat="45.85688" lon="6.43853">
        <ele>1744.7</ele>
        <time>2024-04-27T12:12:34Z</time>
      </trkpt>
      <trkpt lat="45.85688" lon="6.43854">
        <ele>1745.6</ele>
        <time>2024-04-27T12:12:35Z</time>
      </trkpt>
      <trkpt lat="45.85689" lon="6.43855">
        <ele>1745.6</ele>
        <time>2024-04-27T12:12:36Z</time>
      </trkpt>
      <trkpt lat="45.85689" lon="6.43855">
        <ele>1745.6</ele>
        <time>2024-04-27T12:12:37Z</time>
      </trkpt>
      <trkpt lat="45.85689" lon="6.43855">
        <ele>1745.6</ele>
        <time>2024-04-27T12:12:38Z</time>
      </trkpt>
      <trkpt lat="45.8569" lon="6.43856">
        <ele>1746.7</ele>
        <time>2024-04-27T12:12:39Z</time>
      </trkpt>
      <trkpt lat="45.8569" lon="6.43856">
        <ele>1746.7</ele>
        <time>2024-04-27T12:12:40Z</time>
      </trkpt>
      <trkpt lat="45.85691" lon="6.43857">
        <ele>1746.7</ele>
        <time>2024-04-27T12:12:41Z</time>
      </trkpt>
      <trkpt lat="45.85691" lon="6.43857">
        <ele>1746.7</ele>
        <time>2024-04-27T12:12:42Z</time>
      </trkpt>
      <trkpt lat="45.85691" lon="6.43858">
        <ele>1746.7</ele>
        <time>2024-04-27T12:12:43Z</time>
      </trkpt>
      <trkpt lat="45.85692" lon="6.43859">
        <ele>1746.7</ele>
        <time>2024-04-27T12:12:44Z</time>
      </trkpt>
      <trkpt lat="45.85693" lon="6.43859">
        <ele>1747.6</ele>
        <time>2024-04-27T12:12:45Z</time>
      </trkpt>
      <trkpt lat="45.85693" lon="6.43859">
        <ele>1747.6</ele>
        <time>2024-04-27T12:12:46Z</time>
      </trkpt>
      <trkpt lat="45.85694" lon="6.4386">
        <ele>1747.6</ele>
        <time>2024-04-27T12:12:47Z</time>
      </trkpt>
      <trkpt lat="45.85694" lon="6.4386">
        <ele>1747.6</ele>
        <time>2024-04-27T12:12:48Z</time>
      </trkpt>
      <trkpt lat="45.85695" lon="6.43861">
        <ele>1748.7</ele>
        <time>2024-04-27T12:12:49Z</time>
      </trkpt>
      <trkpt lat="45.85695" lon="6.43862">
        <ele>1748.7</ele>
        <time>2024-04-27T12:12:50Z</time>
      </trkpt>
      <trkpt lat="45.85695" lon="6.43862">
        <ele>1748.7</ele>
        <time>2024-04-27T12:12:51Z</time>
      </trkpt>
      <trkpt lat="45.85696" lon="6.43862">
        <ele>1748.7</ele>
        <time>2024-04-27T12:12:52Z</time>
      </trkpt>
      <trkpt lat="45.85696" lon="6.43863">
        <ele>1748.7</ele>
        <time>2024-04-27T12:12:53Z</time>
      </trkpt>
      <trkpt lat="45.85696" lon="6.43863">
        <ele>1748.7</ele>
        <time>2024-04-27T12:12:54Z</time>
      </trkpt>
      <trkpt lat="45.85697" lon="6.43864">
        <ele>1748.7</ele>
        <time>2024-04-27T12:12:55Z</time>
      </trkpt>
      <trkpt lat="45.85697" lon="6.43865">
        <ele>1748.7</ele>
        <time>2024-04-27T12:12:56Z</time>
      </trkpt>
      <trkpt lat="45.85697" lon="6.43866">
        <ele>1748.7</ele>
        <time>2024-04-27T12:12:57Z</time>
      </trkpt>
      <trkpt lat="45.85697" lon="6.43866">
        <ele>1748.7</ele>
        <time>2024-04-27T12:12:58Z</time>
      </trkpt>
      <trkpt lat="45.85696" lon="6.43867">
        <ele>1748.7</ele>
        <time>2024-04-27T12:12:59Z</time>
      </trkpt>
      <trkpt lat="45.85695" lon="6.43868">
        <ele>1748.7</ele>
        <time>2024-04-27T12:13:00Z</time>
      </trkpt>
      <trkpt lat="45.85695" lon="6.43868">
        <ele>1751.7</ele>
        <time>2024-04-27T12:13:01Z</time>
      </trkpt>
      <trkpt lat="45.85694" lon="6.43868">
        <ele>1751.7</ele>
        <time>2024-04-27T12:13:02Z</time>
      </trkpt>
      <trkpt lat="45.85693" lon="6.43869">
        <ele>1751.7</ele>
        <time>2024-04-27T12:13:03Z</time>
      </trkpt>
      <trkpt lat="45.85693" lon="6.43869">
        <ele>1751.7</ele>
        <time>2024-04-27T12:13:04Z</time>
      </trkpt>
      <trkpt lat="45.85692" lon="6.43869">
        <ele>1751.7</ele>
        <time>2024-04-27T12:13:05Z</time>
      </trkpt>
      <trkpt lat="45.85692" lon="6.4387">
        <ele>1751.7</ele>
        <time>2024-04-27T12:13:06Z</time>
      </trkpt>
      <trkpt lat="45.85691" lon="6.4387">
        <ele>1751.7</ele>
        <time>2024-04-27T12:13:07Z</time>
      </trkpt>
      <trkpt lat="45.85691" lon="6.43871">
        <ele>1751.7</ele>
        <time>2024-04-27T12:13:08Z</time>
      </trkpt>
      <trkpt lat="45.8569" lon="6.43871">
        <ele>1751.7</ele>
        <time>2024-04-27T12:13:09Z</time>
      </trkpt>
      <trkpt lat="45.85689" lon="6.43872">
        <ele>1751.7</ele>
        <time>2024-04-27T12:13:10Z</time>
      </trkpt>
      <trkpt lat="45.85688" lon="6.43873">
        <ele>1751.7</ele>
        <time>2024-04-27T12:13:11Z</time>
      </trkpt>
      <trkpt lat="45.85688" lon="6.43874">
        <ele>1751.7</ele>
        <time>2024-04-27T12:13:12Z</time>
      </trkpt>
      <trkpt lat="45.85687" lon="6.43874">
        <ele>1752.6</ele>
        <time>2024-04-27T12:13:13Z</time>
      </trkpt>
      <trkpt lat="45.85686" lon="6.43874">
        <ele>1752.6</ele>
        <time>2024-04-27T12:13:14Z</time>
      </trkpt>
      <trkpt lat="45.85685" lon="6.43874">
        <ele>1752.6</ele>
        <time>2024-04-27T12:13:15Z</time>
      </trkpt>
      <trkpt lat="45.85684" lon="6.43874">
        <ele>1752.6</ele>
        <time>2024-04-27T12:13:16Z</time>
      </trkpt>
      <trkpt lat="45.85683" lon="6.43874">
        <ele>1752.6</ele>
        <time>2024-04-27T12:13:17Z</time>
      </trkpt>
      <trkpt lat="45.85683" lon="6.43873">
        <ele>1752.6</ele>
        <time>2024-04-27T12:13:18Z</time>
      </trkpt>
      <trkpt lat="45.85682" lon="6.43873">
        <ele>1752.6</ele>
        <time>2024-04-27T12:13:19Z</time>
      </trkpt>
      <trkpt lat="45.85681" lon="6.43873">
        <ele>1752.6</ele>
        <time>2024-04-27T12:13:20Z</time>
      </trkpt>
      <trkpt lat="45.85681" lon="6.43873">
        <ele>1752.6</ele>
        <time>2024-04-27T12:13:21Z</time>
      </trkpt>
      <trkpt lat="45.8568" lon="6.43873">
        <ele>1752.6</ele>
        <time>2024-04-27T12:13:22Z</time>
      </trkpt>
      <trkpt lat="45.8568" lon="6.43874">
        <ele>1754.6</ele>
        <time>2024-04-27T12:13:23Z</time>
      </trkpt>
      <trkpt lat="45.85679" lon="6.43874">
        <ele>1754.6</ele>
        <time>2024-04-27T12:13:24Z</time>
      </trkpt>
      <trkpt lat="45.85679" lon="6.43874">
        <ele>1754.6</ele>
        <time>2024-04-27T12:13:25Z</time>
      </trkpt>
      <trkpt lat="45.85678" lon="6.43874">
        <ele>1754.6</ele>
        <time>2024-04-27T12:13:26Z</time>
      </trkpt>
      <trkpt lat="45.85678" lon="6.43874">
        <ele>1755.7</ele>
        <time>2024-04-27T12:13:27Z</time>
      </trkpt>
      <trkpt lat="45.85677" lon="6.43874">
        <ele>1755.7</ele>
        <time>2024-04-27T12:13:28Z</time>
      </trkpt>
      <trkpt lat="45.85676" lon="6.43874">
        <ele>1755.7</ele>
        <time>2024-04-27T12:13:29Z</time>
      </trkpt>
      <trkpt lat="45.85675" lon="6.43875">
        <ele>1755.7</ele>
        <time>2024-04-27T12:13:30Z</time>
      </trkpt>
      <trkpt lat="45.85675" lon="6.43875">
        <ele>1755.7</ele>
        <time>2024-04-27T12:13:31Z</time>
      </trkpt>
      <trkpt lat="45.85674" lon="6.43875">
        <ele>1755.7</ele>
        <time>2024-04-27T12:13:32Z</time>
      </trkpt>
      <trkpt lat="45.85674" lon="6.43876">
        <ele>1755.7</ele>
        <time>2024-04-27T12:13:33Z</time>
      </trkpt>
      <trkpt lat="45.85673" lon="6.43876">
        <ele>1755.7</ele>
        <time>2024-04-27T12:13:34Z</time>
      </trkpt>
      <trkpt lat="45.85672" lon="6.43876">
        <ele>1756.6</ele>
        <time>2024-04-27T12:13:35Z</time>
      </trkpt>
      <trkpt lat="45.85671" lon="6.43876">
        <ele>1756.6</ele>
        <time>2024-04-27T12:13:36Z</time>
      </trkpt>
      <trkpt lat="45.85671" lon="6.43876">
        <ele>1756.6</ele>
        <time>2024-04-27T12:13:37Z</time>
      </trkpt>
      <trkpt lat="45.8567" lon="6.43877">
        <ele>1756.6</ele>
        <time>2024-04-27T12:13:38Z</time>
      </trkpt>
      <trkpt lat="45.8567" lon="6.43877">
        <ele>1757.7</ele>
        <time>2024-04-27T12:13:39Z</time>
      </trkpt>
      <trkpt lat="45.85669" lon="6.43877">
        <ele>1757.7</ele>
        <time>2024-04-27T12:13:40Z</time>
      </trkpt>
      <trkpt lat="45.85668" lon="6.43877">
        <ele>1757.7</ele>
        <time>2024-04-27T12:13:41Z</time>
      </trkpt>
      <trkpt lat="45.85668" lon="6.43877">
        <ele>1757.7</ele>
        <time>2024-04-27T12:13:42Z</time>
      </trkpt>
      <trkpt lat="45.85667" lon="6.43878">
        <ele>1757.7</ele>
        <time>2024-04-27T12:13:43Z</time>
      </trkpt>
      <trkpt lat="45.85666" lon="6.43878">
        <ele>1757.7</ele>
        <time>2024-04-27T12:13:44Z</time>
      </trkpt>
      <trkpt lat="45.85666" lon="6.43878">
        <ele>1758.7</ele>
        <time>2024-04-27T12:13:45Z</time>
      </trkpt>
      <trkpt lat="45.85665" lon="6.43878">
        <ele>1758.7</ele>
        <time>2024-04-27T12:13:46Z</time>
      </trkpt>
      <trkpt lat="45.85665" lon="6.43879">
        <ele>1758.7</ele>
        <time>2024-04-27T12:13:47Z</time>
      </trkpt>
      <trkpt lat="45.85664" lon="6.43878">
        <ele>1758.7</ele>
        <time>2024-04-27T12:13:48Z</time>
      </trkpt>
      <trkpt lat="45.85664" lon="6.43879">
        <ele>1759.6</ele>
        <time>2024-04-27T12:13:49Z</time>
      </trkpt>
      <trkpt lat="45.85664" lon="6.43879">
        <ele>1759.6</ele>
        <time>2024-04-27T12:13:50Z</time>
      </trkpt>
      <trkpt lat="45.85664" lon="6.43879">
        <ele>1759.6</ele>
        <time>2024-04-27T12:13:51Z</time>
      </trkpt>
      <trkpt lat="45.85665" lon="6.4388">
        <ele>1759.6</ele>
        <time>2024-04-27T12:13:52Z</time>
      </trkpt>
      <trkpt lat="45.85665" lon="6.4388">
        <ele>1759.6</ele>
        <time>2024-04-27T12:13:53Z</time>
      </trkpt>
      <trkpt lat="45.85665" lon="6.43881">
        <ele>1759.6</ele>
        <time>2024-04-27T12:13:54Z</time>
      </trkpt>
      <trkpt lat="45.85665" lon="6.43882">
        <ele>1760.7</ele>
        <time>2024-04-27T12:13:55Z</time>
      </trkpt>
      <trkpt lat="45.85666" lon="6.43882">
        <ele>1760.7</ele>
        <time>2024-04-27T12:13:56Z</time>
      </trkpt>
      <trkpt lat="45.85666" lon="6.43883">
        <ele>1760.7</ele>
        <time>2024-04-27T12:13:57Z</time>
      </trkpt>
      <trkpt lat="45.85666" lon="6.43883">
        <ele>1760.7</ele>
        <time>2024-04-27T12:13:58Z</time>
      </trkpt>
      <trkpt lat="45.85666" lon="6.43884">
        <ele>1760.7</ele>
        <time>2024-04-27T12:13:59Z</time>
      </trkpt>
      <trkpt lat="45.85666" lon="6.43885">
        <ele>1760.7</ele>
        <time>2024-04-27T12:14:00Z</time>
      </trkpt>
      <trkpt lat="45.85666" lon="6.43886">
        <ele>1761.6</ele>
        <time>2024-04-27T12:14:01Z</time>
      </trkpt>
      <trkpt lat="45.85666" lon="6.43886">
        <ele>1761.6</ele>
        <time>2024-04-27T12:14:02Z</time>
      </trkpt>
      <trkpt lat="45.85666" lon="6.43887">
        <ele>1761.6</ele>
        <time>2024-04-27T12:14:03Z</time>
      </trkpt>
      <trkpt lat="45.85666" lon="6.43887">
        <ele>1761.6</ele>
        <time>2024-04-27T12:14:04Z</time>
      </trkpt>
      <trkpt lat="45.85667" lon="6.43888">
        <ele>1762.7</ele>
        <time>2024-04-27T12:14:05Z</time>
      </trkpt>
      <trkpt lat="45.85667" lon="6.43889">
        <ele>1762.7</ele>
        <time>2024-04-27T12:14:06Z</time>
      </trkpt>
      <trkpt lat="45.85667" lon="6.43889">
        <ele>1762.7</ele>
        <time>2024-04-27T12:14:07Z</time>
      </trkpt>
      <trkpt lat="45.85667" lon="6.4389">
        <ele>1762.7</ele>
        <time>2024-04-27T12:14:08Z</time>
      </trkpt>
      <trkpt lat="45.85666" lon="6.43891">
        <ele>1762.7</ele>
        <time>2024-04-27T12:14:09Z</time>
      </trkpt>
      <trkpt lat="45.85666" lon="6.43891">
        <ele>1762.7</ele>
        <time>2024-04-27T12:14:10Z</time>
      </trkpt>
      <trkpt lat="45.85667" lon="6.43892">
        <ele>1762.7</ele>
        <time>2024-04-27T12:14:11Z</time>
      </trkpt>
      <trkpt lat="45.85667" lon="6.43892">
        <ele>1762.7</ele>
        <time>2024-04-27T12:14:12Z</time>
      </trkpt>
      <trkpt lat="45.85667" lon="6.43893">
        <ele>1763.6</ele>
        <time>2024-04-27T12:14:13Z</time>
      </trkpt>
      <trkpt lat="45.85667" lon="6.43894">
        <ele>1763.6</ele>
        <time>2024-04-27T12:14:14Z</time>
      </trkpt>
      <trkpt lat="45.85667" lon="6.43894">
        <ele>1763.6</ele>
        <time>2024-04-27T12:14:15Z</time>
      </trkpt>
      <trkpt lat="45.85667" lon="6.43895">
        <ele>1763.6</ele>
        <time>2024-04-27T12:14:16Z</time>
      </trkpt>
      <trkpt lat="45.85667" lon="6.43896">
        <ele>1764.7</ele>
        <time>2024-04-27T12:14:17Z</time>
      </trkpt>
      <trkpt lat="45.85667" lon="6.43896">
        <ele>1764.7</ele>
        <time>2024-04-27T12:14:18Z</time>
      </trkpt>
      <trkpt lat="45.85667" lon="6.43897">
        <ele>1764.7</ele>
        <time>2024-04-27T12:14:19Z</time>
      </trkpt>
      <trkpt lat="45.85668" lon="6.43897">
        <ele>1764.7</ele>
        <time>2024-04-27T12:14:20Z</time>
      </trkpt>
      <trkpt lat="45.85668" lon="6.43898">
        <ele>1764.7</ele>
        <time>2024-04-27T12:14:21Z</time>
      </trkpt>
      <trkpt lat="45.85668" lon="6.43899">
        <ele>1764.7</ele>
        <time>2024-04-27T12:14:22Z</time>
      </trkpt>
      <trkpt lat="45.85668" lon="6.439">
        <ele>1765.6</ele>
        <time>2024-04-27T12:14:23Z</time>
      </trkpt>
      <trkpt lat="45.85669" lon="6.439">
        <ele>1765.6</ele>
        <time>2024-04-27T12:14:24Z</time>
      </trkpt>
      <trkpt lat="45.85669" lon="6.43901">
        <ele>1765.6</ele>
        <time>2024-04-27T12:14:25Z</time>
      </trkpt>
      <trkpt lat="45.85669" lon="6.43902">
        <ele>1765.6</ele>
        <time>2024-04-27T12:14:26Z</time>
      </trkpt>
      <trkpt lat="45.85669" lon="6.43902">
        <ele>1765.6</ele>
        <time>2024-04-27T12:14:27Z</time>
      </trkpt>
      <trkpt lat="45.85669" lon="6.43903">
        <ele>1765.6</ele>
        <time>2024-04-27T12:14:28Z</time>
      </trkpt>
      <trkpt lat="45.8567" lon="6.43903">
        <ele>1765.6</ele>
        <time>2024-04-27T12:14:29Z</time>
      </trkpt>
      <trkpt lat="45.8567" lon="6.43904">
        <ele>1765.6</ele>
        <time>2024-04-27T12:14:30Z</time>
      </trkpt>
      <trkpt lat="45.85671" lon="6.43904">
        <ele>1765.6</ele>
        <time>2024-04-27T12:14:31Z</time>
      </trkpt>
      <trkpt lat="45.85671" lon="6.43905">
        <ele>1765.6</ele>
        <time>2024-04-27T12:14:32Z</time>
      </trkpt>
      <trkpt lat="45.85671" lon="6.43905">
        <ele>1765.6</ele>
        <time>2024-04-27T12:14:33Z</time>
      </trkpt>
      <trkpt lat="45.85671" lon="6.43906">
        <ele>1765.6</ele>
        <time>2024-04-27T12:14:34Z</time>
      </trkpt>
      <trkpt lat="45.85672" lon="6.43907">
        <ele>1765.6</ele>
        <time>2024-04-27T12:14:35Z</time>
      </trkpt>
      <trkpt lat="45.85672" lon="6.43908">
        <ele>1765.6</ele>
        <time>2024-04-27T12:14:36Z</time>
      </trkpt>
      <trkpt lat="45.85672" lon="6.43908">
        <ele>1768.6</ele>
        <time>2024-04-27T12:14:37Z</time>
      </trkpt>
      <trkpt lat="45.85673" lon="6.43909">
        <ele>1768.6</ele>
        <time>2024-04-27T12:14:38Z</time>
      </trkpt>
      <trkpt lat="45.85673" lon="6.43909">
        <ele>1768.6</ele>
        <time>2024-04-27T12:14:39Z</time>
      </trkpt>
      <trkpt lat="45.85673" lon="6.4391">
        <ele>1768.6</ele>
        <time>2024-04-27T12:14:40Z</time>
      </trkpt>
      <trkpt lat="45.85673" lon="6.4391">
        <ele>1769.7</ele>
        <time>2024-04-27T12:14:41Z</time>
      </trkpt>
      <trkpt lat="45.85673" lon="6.4391">
        <ele>1769.7</ele>
        <time>2024-04-27T12:14:42Z</time>
      </trkpt>
      <trkpt lat="45.85674" lon="6.43911">
        <ele>1769.7</ele>
        <time>2024-04-27T12:14:43Z</time>
      </trkpt>
      <trkpt lat="45.85674" lon="6.43912">
        <ele>1769.7</ele>
        <time>2024-04-27T12:14:44Z</time>
      </trkpt>
      <trkpt lat="45.85674" lon="6.43912">
        <ele>1770.6</ele>
        <time>2024-04-27T12:14:45Z</time>
      </trkpt>
      <trkpt lat="45.85674" lon="6.43913">
        <ele>1770.6</ele>
        <time>2024-04-27T12:14:46Z</time>
      </trkpt>
      <trkpt lat="45.85674" lon="6.43914">
        <ele>1770.6</ele>
        <time>2024-04-27T12:14:47Z</time>
      </trkpt>
      <trkpt lat="45.85674" lon="6.43915">
        <ele>1770.6</ele>
        <time>2024-04-27T12:14:48Z</time>
      </trkpt>
      <trkpt lat="45.85674" lon="6.43915">
        <ele>1771.7</ele>
        <time>2024-04-27T12:14:49Z</time>
      </trkpt>
      <trkpt lat="45.85674" lon="6.43916">
        <ele>1771.7</ele>
        <time>2024-04-27T12:14:50Z</time>
      </trkpt>
      <trkpt lat="45.85674" lon="6.43917">
        <ele>1771.7</ele>
        <time>2024-04-27T12:14:51Z</time>
      </trkpt>
      <trkpt lat="45.85675" lon="6.43917">
        <ele>1771.7</ele>
        <time>2024-04-27T12:14:52Z</time>
      </trkpt>
      <trkpt lat="45.85675" lon="6.43918">
        <ele>1771.7</ele>
        <time>2024-04-27T12:14:53Z</time>
      </trkpt>
      <trkpt lat="45.85676" lon="6.43918">
        <ele>1771.7</ele>
        <time>2024-04-27T12:14:54Z</time>
      </trkpt>
      <trkpt lat="45.85676" lon="6.43919">
        <ele>1771.7</ele>
        <time>2024-04-27T12:14:55Z</time>
      </trkpt>
      <trkpt lat="45.85677" lon="6.4392">
        <ele>1772.6</ele>
        <time>2024-04-27T12:14:56Z</time>
      </trkpt>
      <trkpt lat="45.85677" lon="6.43921">
        <ele>1772.6</ele>
        <time>2024-04-27T12:14:57Z</time>
      </trkpt>
      <trkpt lat="45.85677" lon="6.43921">
        <ele>1772.6</ele>
        <time>2024-04-27T12:14:58Z</time>
      </trkpt>
      <trkpt lat="45.85677" lon="6.43921">
        <ele>1772.6</ele>
        <time>2024-04-27T12:14:59Z</time>
      </trkpt>
      <trkpt lat="45.85677" lon="6.43921">
        <ele>1773.7</ele>
        <time>2024-04-27T12:15:00Z</time>
      </trkpt>
      <trkpt lat="45.85677" lon="6.43922">
        <ele>1773.7</ele>
        <time>2024-04-27T12:15:01Z</time>
      </trkpt>
      <trkpt lat="45.85677" lon="6.43922">
        <ele>1773.7</ele>
        <time>2024-04-27T12:15:02Z</time>
      </trkpt>
      <trkpt lat="45.85677" lon="6.43923">
        <ele>1773.7</ele>
        <time>2024-04-27T12:15:03Z</time>
      </trkpt>
      <trkpt lat="45.85677" lon="6.43923">
        <ele>1773.7</ele>
        <time>2024-04-27T12:15:04Z</time>
      </trkpt>
      <trkpt lat="45.85677" lon="6.43924">
        <ele>1773.7</ele>
        <time>2024-04-27T12:15:05Z</time>
      </trkpt>
      <trkpt lat="45.85678" lon="6.43924">
        <ele>1774.7</ele>
        <time>2024-04-27T12:15:06Z</time>
      </trkpt>
      <trkpt lat="45.85678" lon="6.43925">
        <ele>1774.7</ele>
        <time>2024-04-27T12:15:07Z</time>
      </trkpt>
      <trkpt lat="45.85678" lon="6.43926">
        <ele>1774.7</ele>
        <time>2024-04-27T12:15:08Z</time>
      </trkpt>
      <trkpt lat="45.85678" lon="6.43926">
        <ele>1774.7</ele>
        <time>2024-04-27T12:15:09Z</time>
      </trkpt>
      <trkpt lat="45.85679" lon="6.43927">
        <ele>1774.7</ele>
        <time>2024-04-27T12:15:10Z</time>
      </trkpt>
      <trkpt lat="45.85679" lon="6.43927">
        <ele>1774.7</ele>
        <time>2024-04-27T12:15:11Z</time>
      </trkpt>
      <trkpt lat="45.8568" lon="6.43928">
        <ele>1775.6</ele>
        <time>2024-04-27T12:15:12Z</time>
      </trkpt>
      <trkpt lat="45.8568" lon="6.43928">
        <ele>1775.6</ele>
        <time>2024-04-27T12:15:13Z</time>
      </trkpt>
      <trkpt lat="45.8568" lon="6.43929">
        <ele>1775.6</ele>
        <time>2024-04-27T12:15:14Z</time>
      </trkpt>
      <trkpt lat="45.8568" lon="6.4393">
        <ele>1775.6</ele>
        <time>2024-04-27T12:15:15Z</time>
      </trkpt>
      <trkpt lat="45.8568" lon="6.43931">
        <ele>1775.6</ele>
        <time>2024-04-27T12:15:16Z</time>
      </trkpt>
      <trkpt lat="45.85681" lon="6.43932">
        <ele>1775.6</ele>
        <time>2024-04-27T12:15:17Z</time>
      </trkpt>
      <trkpt lat="45.85681" lon="6.43933">
        <ele>1775.6</ele>
        <time>2024-04-27T12:15:18Z</time>
      </trkpt>
      <trkpt lat="45.85681" lon="6.43933">
        <ele>1775.6</ele>
        <time>2024-04-27T12:15:19Z</time>
      </trkpt>
      <trkpt lat="45.85682" lon="6.43933">
        <ele>1776.7</ele>
        <time>2024-04-27T12:15:20Z</time>
      </trkpt>
      <trkpt lat="45.85682" lon="6.43934">
        <ele>1776.7</ele>
        <time>2024-04-27T12:15:21Z</time>
      </trkpt>
      <trkpt lat="45.85683" lon="6.43934">
        <ele>1776.7</ele>
        <time>2024-04-27T12:15:22Z</time>
      </trkpt>
      <trkpt lat="45.85683" lon="6.43935">
        <ele>1776.7</ele>
        <time>2024-04-27T12:15:23Z</time>
      </trkpt>
      <trkpt lat="45.85683" lon="6.43935">
        <ele>1777.6</ele>
        <time>2024-04-27T12:15:24Z</time>
      </trkpt>
      <trkpt lat="45.85684" lon="6.43935">
        <ele>1777.6</ele>
        <time>2024-04-27T12:15:25Z</time>
      </trkpt>
      <trkpt lat="45.85684" lon="6.43936">
        <ele>1777.6</ele>
        <time>2024-04-27T12:15:26Z</time>
      </trkpt>
      <trkpt lat="45.85685" lon="6.43936">
        <ele>1777.6</ele>
        <time>2024-04-27T12:15:27Z</time>
      </trkpt>
      <trkpt lat="45.85685" lon="6.43936">
        <ele>1778.7</ele>
        <time>2024-04-27T12:15:28Z</time>
      </trkpt>
      <trkpt lat="45.85685" lon="6.43936">
        <ele>1778.7</ele>
        <time>2024-04-27T12:15:29Z</time>
      </trkpt>
      <trkpt lat="45.85686" lon="6.43937">
        <ele>1778.7</ele>
        <time>2024-04-27T12:15:30Z</time>
      </trkpt>
      <trkpt lat="45.85687" lon="6.43937">
        <ele>1778.7</ele>
        <time>2024-04-27T12:15:31Z</time>
      </trkpt>
      <trkpt lat="45.85688" lon="6.43937">
        <ele>1779.6</ele>
        <time>2024-04-27T12:15:32Z</time>
      </trkpt>
      <trkpt lat="45.85688" lon="6.43938">
        <ele>1779.6</ele>
        <time>2024-04-27T12:15:33Z</time>
      </trkpt>
      <trkpt lat="45.85689" lon="6.43938">
        <ele>1779.6</ele>
        <time>2024-04-27T12:15:34Z</time>
      </trkpt>
      <trkpt lat="45.85689" lon="6.43939">
        <ele>1779.6</ele>
        <time>2024-04-27T12:15:35Z</time>
      </trkpt>
      <trkpt lat="45.8569" lon="6.43939">
        <ele>1780.7</ele>
        <time>2024-04-27T12:15:36Z</time>
      </trkpt>
      <trkpt lat="45.85691" lon="6.4394">
        <ele>1780.7</ele>
        <time>2024-04-27T12:15:37Z</time>
      </trkpt>
      <trkpt lat="45.85691" lon="6.4394">
        <ele>1781.6</ele>
        <time>2024-04-27T12:15:38Z</time>
      </trkpt>
      <trkpt lat="45.85692" lon="6.43941">
        <ele>1781.6</ele>
        <time>2024-04-27T12:15:39Z</time>
      </trkpt>
      <trkpt lat="45.85693" lon="6.43941">
        <ele>1781.6</ele>
        <time>2024-04-27T12:15:40Z</time>
      </trkpt>
      <trkpt lat="45.85693" lon="6.43941">
        <ele>1781.6</ele>
        <time>2024-04-27T12:15:41Z</time>
      </trkpt>
      <trkpt lat="45.85693" lon="6.43941">
        <ele>1782.6</ele>
        <time>2024-04-27T12:15:42Z</time>
      </trkpt>
      <trkpt lat="45.85694" lon="6.43942">
        <ele>1782.6</ele>
        <time>2024-04-27T12:15:43Z</time>
      </trkpt>
      <trkpt lat="45.85695" lon="6.43943">
        <ele>1782.6</ele>
        <time>2024-04-27T12:15:44Z</time>
      </trkpt>
      <trkpt lat="45.85695" lon="6.43943">
        <ele>1782.6</ele>
        <time>2024-04-27T12:15:45Z</time>
      </trkpt>
      <trkpt lat="45.85696" lon="6.43943">
        <ele>1782.6</ele>
        <time>2024-04-27T12:15:46Z</time>
      </trkpt>
      <trkpt lat="45.85697" lon="6.43944">
        <ele>1782.6</ele>
        <time>2024-04-27T12:15:47Z</time>
      </trkpt>
      <trkpt lat="45.85697" lon="6.43945">
        <ele>1782.6</ele>
        <time>2024-04-27T12:15:48Z</time>
      </trkpt>
      <trkpt lat="45.85698" lon="6.43945">
        <ele>1782.6</ele>
        <time>2024-04-27T12:15:49Z</time>
      </trkpt>
      <trkpt lat="45.85699" lon="6.43946">
        <ele>1782.6</ele>
        <time>2024-04-27T12:15:50Z</time>
      </trkpt>
      <trkpt lat="45.857" lon="6.43946">
        <ele>1782.6</ele>
        <time>2024-04-27T12:15:51Z</time>
      </trkpt>
      <trkpt lat="45.857" lon="6.43946">
        <ele>1785.7</ele>
        <time>2024-04-27T12:15:52Z</time>
      </trkpt>
      <trkpt lat="45.857" lon="6.43947">
        <ele>1785.7</ele>
        <time>2024-04-27T12:15:53Z</time>
      </trkpt>
      <trkpt lat="45.85701" lon="6.43947">
        <ele>1785.7</ele>
        <time>2024-04-27T12:15:54Z</time>
      </trkpt>
      <trkpt lat="45.85701" lon="6.43948">
        <ele>1785.7</ele>
        <time>2024-04-27T12:15:55Z</time>
      </trkpt>
      <trkpt lat="45.85702" lon="6.43948">
        <ele>1785.7</ele>
        <time>2024-04-27T12:15:56Z</time>
      </trkpt>
      <trkpt lat="45.85702" lon="6.43949">
        <ele>1785.7</ele>
        <time>2024-04-27T12:15:57Z</time>
      </trkpt>
      <trkpt lat="45.85702" lon="6.43949">
        <ele>1786.6</ele>
        <time>2024-04-27T12:15:58Z</time>
      </trkpt>
      <trkpt lat="45.85703" lon="6.4395">
        <ele>1786.6</ele>
        <time>2024-04-27T12:15:59Z</time>
      </trkpt>
      <trkpt lat="45.85703" lon="6.43951">
        <ele>1786.6</ele>
        <time>2024-04-27T12:16:00Z</time>
      </trkpt>
      <trkpt lat="45.85703" lon="6.43951">
        <ele>1786.6</ele>
        <time>2024-04-27T12:16:01Z</time>
      </trkpt>
      <trkpt lat="45.85703" lon="6.43952">
        <ele>1786.6</ele>
        <time>2024-04-27T12:16:02Z</time>
      </trkpt>
      <trkpt lat="45.85703" lon="6.43953">
        <ele>1786.6</ele>
        <time>2024-04-27T12:16:03Z</time>
      </trkpt>
      <trkpt lat="45.85703" lon="6.43954">
        <ele>1786.6</ele>
        <time>2024-04-27T12:16:04Z</time>
      </trkpt>
      <trkpt lat="45.85704" lon="6.43955">
        <ele>1786.6</ele>
        <time>2024-04-27T12:16:05Z</time>
      </trkpt>
      <trkpt lat="45.85704" lon="6.43956">
        <ele>1787.7</ele>
        <time>2024-04-27T12:16:06Z</time>
      </trkpt>
      <trkpt lat="45.85704" lon="6.43956">
        <ele>1787.7</ele>
        <time>2024-04-27T12:16:07Z</time>
      </trkpt>
      <trkpt lat="45.85704" lon="6.43957">
        <ele>1787.7</ele>
        <time>2024-04-27T12:16:08Z</time>
      </trkpt>
      <trkpt lat="45.85704" lon="6.43957">
        <ele>1787.7</ele>
        <time>2024-04-27T12:16:09Z</time>
      </trkpt>
      <trkpt lat="45.85704" lon="6.43958">
        <ele>1787.7</ele>
        <time>2024-04-27T12:16:10Z</time>
      </trkpt>
      <trkpt lat="45.85705" lon="6.43959">
        <ele>1787.7</ele>
        <time>2024-04-27T12:16:11Z</time>
      </trkpt>
      <trkpt lat="45.85705" lon="6.4396">
        <ele>1788.6</ele>
        <time>2024-04-27T12:16:12Z</time>
      </trkpt>
      <trkpt lat="45.85706" lon="6.4396">
        <ele>1788.6</ele>
        <time>2024-04-27T12:16:13Z</time>
      </trkpt>
      <trkpt lat="45.85706" lon="6.43961">
        <ele>1789.7</ele>
        <time>2024-04-27T12:16:14Z</time>
      </trkpt>
      <trkpt lat="45.85706" lon="6.43962">
        <ele>1789.7</ele>
        <time>2024-04-27T12:16:15Z</time>
      </trkpt>
      <trkpt lat="45.85707" lon="6.43962">
        <ele>1789.7</ele>
        <time>2024-04-27T12:16:16Z</time>
      </trkpt>
      <trkpt lat="45.85707" lon="6.43963">
        <ele>1789.7</ele>
        <time>2024-04-27T12:16:17Z</time>
      </trkpt>
      <trkpt lat="45.85707" lon="6.43963">
        <ele>1789.7</ele>
        <time>2024-04-27T12:16:18Z</time>
      </trkpt>
      <trkpt lat="45.85708" lon="6.43964">
        <ele>1789.7</ele>
        <time>2024-04-27T12:16:19Z</time>
      </trkpt>
      <trkpt lat="45.85708" lon="6.43964">
        <ele>1790.6</ele>
        <time>2024-04-27T12:16:20Z</time>
      </trkpt>
      <trkpt lat="45.85709" lon="6.43965">
        <ele>1790.6</ele>
        <time>2024-04-27T12:16:21Z</time>
      </trkpt>
      <trkpt lat="45.85709" lon="6.43966">
        <ele>1790.6</ele>
        <time>2024-04-27T12:16:22Z</time>
      </trkpt>
      <trkpt lat="45.85709" lon="6.43966">
        <ele>1790.6</ele>
        <time>2024-04-27T12:16:23Z</time>
      </trkpt>
      <trkpt lat="45.85709" lon="6.43967">
        <ele>1791.6</ele>
        <time>2024-04-27T12:16:24Z</time>
      </trkpt>
      <trkpt lat="45.8571" lon="6.43968">
        <ele>1791.6</ele>
        <time>2024-04-27T12:16:25Z</time>
      </trkpt>
      <trkpt lat="45.8571" lon="6.43968">
        <ele>1791.6</ele>
        <time>2024-04-27T12:16:26Z</time>
      </trkpt>
      <trkpt lat="45.85711" lon="6.43969">
        <ele>1791.6</ele>
        <time>2024-04-27T12:16:27Z</time>
      </trkpt>
      <trkpt lat="45.85711" lon="6.43969">
        <ele>1791.6</ele>
        <time>2024-04-27T12:16:28Z</time>
      </trkpt>
      <trkpt lat="45.85711" lon="6.4397">
        <ele>1791.6</ele>
        <time>2024-04-27T12:16:29Z</time>
      </trkpt>
      <trkpt lat="45.85712" lon="6.4397">
        <ele>1792.7</ele>
        <time>2024-04-27T12:16:30Z</time>
      </trkpt>
      <trkpt lat="45.85712" lon="6.43971">
        <ele>1792.7</ele>
        <time>2024-04-27T12:16:31Z</time>
      </trkpt>
      <trkpt lat="45.85712" lon="6.43972">
        <ele>1793.6</ele>
        <time>2024-04-27T12:16:32Z</time>
      </trkpt>
      <trkpt lat="45.85712" lon="6.43972">
        <ele>1793.6</ele>
        <time>2024-04-27T12:16:33Z</time>
      </trkpt>
      <trkpt lat="45.85712" lon="6.43973">
        <ele>1793.6</ele>
        <time>2024-04-27T12:16:34Z</time>
      </trkpt>
      <trkpt lat="45.85712" lon="6.43974">
        <ele>1793.6</ele>
        <time>2024-04-27T12:16:35Z</time>
      </trkpt>
      <trkpt lat="45.85713" lon="6.43975">
        <ele>1794.7</ele>
        <time>2024-04-27T12:16:36Z</time>
      </trkpt>
      <trkpt lat="45.85713" lon="6.43976">
        <ele>1794.7</ele>
        <time>2024-04-27T12:16:37Z</time>
      </trkpt>
      <trkpt lat="45.85713" lon="6.43976">
        <ele>1794.7</ele>
        <time>2024-04-27T12:16:38Z</time>
      </trkpt>
      <trkpt lat="45.85714" lon="6.43978">
        <ele>1794.7</ele>
        <time>2024-04-27T12:16:39Z</time>
      </trkpt>
      <trkpt lat="45.85714" lon="6.43978">
        <ele>1795.6</ele>
        <time>2024-04-27T12:16:40Z</time>
      </trkpt>
      <trkpt lat="45.85715" lon="6.43979">
        <ele>1795.6</ele>
        <time>2024-04-27T12:16:41Z</time>
      </trkpt>
      <trkpt lat="45.85715" lon="6.43979">
        <ele>1795.6</ele>
        <time>2024-04-27T12:16:42Z</time>
      </trkpt>
      <trkpt lat="45.85715" lon="6.4398">
        <ele>1795.6</ele>
        <time>2024-04-27T12:16:43Z</time>
      </trkpt>
      <trkpt lat="45.85715" lon="6.4398">
        <ele>1795.6</ele>
        <time>2024-04-27T12:16:44Z</time>
      </trkpt>
      <trkpt lat="45.85716" lon="6.43981">
        <ele>1795.6</ele>
        <time>2024-04-27T12:16:45Z</time>
      </trkpt>
      <trkpt lat="45.85716" lon="6.43982">
        <ele>1795.6</ele>
        <time>2024-04-27T12:16:46Z</time>
      </trkpt>
      <trkpt lat="45.85717" lon="6.43982">
        <ele>1795.6</ele>
        <time>2024-04-27T12:16:47Z</time>
      </trkpt>
      <trkpt lat="45.85717" lon="6.43983">
        <ele>1795.6</ele>
        <time>2024-04-27T12:16:48Z</time>
      </trkpt>
      <trkpt lat="45.85717" lon="6.43984">
        <ele>1795.6</ele>
        <time>2024-04-27T12:16:49Z</time>
      </trkpt>
      <trkpt lat="45.85718" lon="6.43985">
        <ele>1796.7</ele>
        <time>2024-04-27T12:16:50Z</time>
      </trkpt>
      <trkpt lat="45.85718" lon="6.43985">
        <ele>1796.7</ele>
        <time>2024-04-27T12:16:51Z</time>
      </trkpt>
      <trkpt lat="45.85719" lon="6.43986">
        <ele>1796.7</ele>
        <time>2024-04-27T12:16:52Z</time>
      </trkpt>
      <trkpt lat="45.85719" lon="6.43987">
        <ele>1796.7</ele>
        <time>2024-04-27T12:16:53Z</time>
      </trkpt>
      <trkpt lat="45.85719" lon="6.43987">
        <ele>1797.6</ele>
        <time>2024-04-27T12:16:54Z</time>
      </trkpt>
      <trkpt lat="45.85719" lon="6.43988">
        <ele>1797.6</ele>
        <time>2024-04-27T12:16:55Z</time>
      </trkpt>
      <trkpt lat="45.8572" lon="6.43989">
        <ele>1797.6</ele>
        <time>2024-04-27T12:16:56Z</time>
      </trkpt>
      <trkpt lat="45.8572" lon="6.43989">
        <ele>1797.6</ele>
        <time>2024-04-27T12:16:57Z</time>
      </trkpt>
      <trkpt lat="45.8572" lon="6.4399">
        <ele>1798.6</ele>
        <time>2024-04-27T12:16:58Z</time>
      </trkpt>
      <trkpt lat="45.85721" lon="6.43991">
        <ele>1798.6</ele>
        <time>2024-04-27T12:16:59Z</time>
      </trkpt>
      <trkpt lat="45.85721" lon="6.43992">
        <ele>1798.6</ele>
        <time>2024-04-27T12:17:00Z</time>
      </trkpt>
      <trkpt lat="45.85722" lon="6.43993">
        <ele>1798.6</ele>
        <time>2024-04-27T12:17:01Z</time>
      </trkpt>
      <trkpt lat="45.85722" lon="6.43993">
        <ele>1799.7</ele>
        <time>2024-04-27T12:17:02Z</time>
      </trkpt>
      <trkpt lat="45.85722" lon="6.43994">
        <ele>1799.7</ele>
        <time>2024-04-27T12:17:03Z</time>
      </trkpt>
      <trkpt lat="45.85722" lon="6.43994">
        <ele>1799.7</ele>
        <time>2024-04-27T12:17:04Z</time>
      </trkpt>
      <trkpt lat="45.85723" lon="6.43995">
        <ele>1799.7</ele>
        <time>2024-04-27T12:17:05Z</time>
      </trkpt>
      <trkpt lat="45.85723" lon="6.43995">
        <ele>1799.7</ele>
        <time>2024-04-27T12:17:06Z</time>
      </trkpt>
      <trkpt lat="45.85724" lon="6.43996">
        <ele>1799.7</ele>
        <time>2024-04-27T12:17:07Z</time>
      </trkpt>
      <trkpt lat="45.85724" lon="6.43997">
        <ele>1800.6</ele>
        <time>2024-04-27T12:17:08Z</time>
      </trkpt>
      <trkpt lat="45.85724" lon="6.43998">
        <ele>1800.6</ele>
        <time>2024-04-27T12:17:09Z</time>
      </trkpt>
      <trkpt lat="45.85724" lon="6.43998">
        <ele>1801.7</ele>
        <time>2024-04-27T12:17:10Z</time>
      </trkpt>
      <trkpt lat="45.85725" lon="6.43999">
        <ele>1801.7</ele>
        <time>2024-04-27T12:17:11Z</time>
      </trkpt>
      <trkpt lat="45.85725" lon="6.43999">
        <ele>1801.7</ele>
        <time>2024-04-27T12:17:12Z</time>
      </trkpt>
      <trkpt lat="45.85726" lon="6.44">
        <ele>1801.7</ele>
        <time>2024-04-27T12:17:13Z</time>
      </trkpt>
      <trkpt lat="45.85726" lon="6.44">
        <ele>1801.7</ele>
        <time>2024-04-27T12:17:14Z</time>
      </trkpt>
      <trkpt lat="45.85726" lon="6.44001">
        <ele>1801.7</ele>
        <time>2024-04-27T12:17:15Z</time>
      </trkpt>
      <trkpt lat="45.85727" lon="6.44002">
        <ele>1802.6</ele>
        <time>2024-04-27T12:17:16Z</time>
      </trkpt>
      <trkpt lat="45.85727" lon="6.44003">
        <ele>1802.6</ele>
        <time>2024-04-27T12:17:17Z</time>
      </trkpt>
      <trkpt lat="45.85727" lon="6.44004">
        <ele>1802.6</ele>
        <time>2024-04-27T12:17:18Z</time>
      </trkpt>
      <trkpt lat="45.85727" lon="6.44004">
        <ele>1802.6</ele>
        <time>2024-04-27T12:17:19Z</time>
      </trkpt>
      <trkpt lat="45.85727" lon="6.44005">
        <ele>1803.7</ele>
        <time>2024-04-27T12:17:20Z</time>
      </trkpt>
      <trkpt lat="45.85728" lon="6.44006">
        <ele>1803.7</ele>
        <time>2024-04-27T12:17:21Z</time>
      </trkpt>
      <trkpt lat="45.85728" lon="6.44007">
        <ele>1803.7</ele>
        <time>2024-04-27T12:17:22Z</time>
      </trkpt>
      <trkpt lat="45.85728" lon="6.44008">
        <ele>1803.7</ele>
        <time>2024-04-27T12:17:23Z</time>
      </trkpt>
      <trkpt lat="45.85728" lon="6.44008">
        <ele>1803.7</ele>
        <time>2024-04-27T12:17:24Z</time>
      </trkpt>
      <trkpt lat="45.85728" lon="6.44009">
        <ele>1803.7</ele>
        <time>2024-04-27T12:17:25Z</time>
      </trkpt>
      <trkpt lat="45.85728" lon="6.4401">
        <ele>1803.7</ele>
        <time>2024-04-27T12:17:26Z</time>
      </trkpt>
      <trkpt lat="45.85728" lon="6.44011">
        <ele>1803.7</ele>
        <time>2024-04-27T12:17:27Z</time>
      </trkpt>
      <trkpt lat="45.85728" lon="6.44011">
        <ele>1803.7</ele>
        <time>2024-04-27T12:17:28Z</time>
      </trkpt>
      <trkpt lat="45.85729" lon="6.44012">
        <ele>1803.7</ele>
        <time>2024-04-27T12:17:29Z</time>
      </trkpt>
      <trkpt lat="45.85729" lon="6.44013">
        <ele>1804.6</ele>
        <time>2024-04-27T12:17:30Z</time>
      </trkpt>
      <trkpt lat="45.85729" lon="6.44014">
        <ele>1804.6</ele>
        <time>2024-04-27T12:17:31Z</time>
      </trkpt>
      <trkpt lat="45.85729" lon="6.44015">
        <ele>1804.6</ele>
        <time>2024-04-27T12:17:32Z</time>
      </trkpt>
      <trkpt lat="45.8573" lon="6.44016">
        <ele>1804.6</ele>
        <time>2024-04-27T12:17:33Z</time>
      </trkpt>
      <trkpt lat="45.8573" lon="6.44017">
        <ele>1804.6</ele>
        <time>2024-04-27T12:17:34Z</time>
      </trkpt>
      <trkpt lat="45.8573" lon="6.44018">
        <ele>1804.6</ele>
        <time>2024-04-27T12:17:35Z</time>
      </trkpt>
      <trkpt lat="45.8573" lon="6.44019">
        <ele>1805.7</ele>
        <time>2024-04-27T12:17:36Z</time>
      </trkpt>
      <trkpt lat="45.8573" lon="6.44019">
        <ele>1805.7</ele>
        <time>2024-04-27T12:17:37Z</time>
      </trkpt>
      <trkpt lat="45.85731" lon="6.44021">
        <ele>1805.7</ele>
        <time>2024-04-27T12:17:38Z</time>
      </trkpt>
      <trkpt lat="45.85731" lon="6.44022">
        <ele>1805.7</ele>
        <time>2024-04-27T12:17:39Z</time>
      </trkpt>
      <trkpt lat="45.85731" lon="6.44022">
        <ele>1805.7</ele>
        <time>2024-04-27T12:17:40Z</time>
      </trkpt>
      <trkpt lat="45.85731" lon="6.44023">
        <ele>1805.7</ele>
        <time>2024-04-27T12:17:41Z</time>
      </trkpt>
      <trkpt lat="45.85731" lon="6.44024">
        <ele>1805.7</ele>
        <time>2024-04-27T12:17:42Z</time>
      </trkpt>
      <trkpt lat="45.85731" lon="6.44025">
        <ele>1805.7</ele>
        <time>2024-04-27T12:17:43Z</time>
      </trkpt>
      <trkpt lat="45.85732" lon="6.44026">
        <ele>1805.7</ele>
        <time>2024-04-27T12:17:44Z</time>
      </trkpt>
      <trkpt lat="45.85732" lon="6.44027">
        <ele>1805.7</ele>
        <time>2024-04-27T12:17:45Z</time>
      </trkpt>
      <trkpt lat="45.85732" lon="6.44028">
        <ele>1806.6</ele>
        <time>2024-04-27T12:17:46Z</time>
      </trkpt>
      <trkpt lat="45.85732" lon="6.44029">
        <ele>1806.6</ele>
        <time>2024-04-27T12:17:47Z</time>
      </trkpt>
      <trkpt lat="45.85732" lon="6.44029">
        <ele>1806.6</ele>
        <time>2024-04-27T12:17:48Z</time>
      </trkpt>
      <trkpt lat="45.85732" lon="6.4403">
        <ele>1806.6</ele>
        <time>2024-04-27T12:17:49Z</time>
      </trkpt>
      <trkpt lat="45.85732" lon="6.44031">
        <ele>1806.6</ele>
        <time>2024-04-27T12:17:50Z</time>
      </trkpt>
      <trkpt lat="45.85732" lon="6.44032">
        <ele>1806.6</ele>
        <time>2024-04-27T12:17:51Z</time>
      </trkpt>
      <trkpt lat="45.85733" lon="6.44033">
        <ele>1807.6</ele>
        <time>2024-04-27T12:17:52Z</time>
      </trkpt>
      <trkpt lat="45.85733" lon="6.44034">
        <ele>1807.6</ele>
        <time>2024-04-27T12:17:53Z</time>
      </trkpt>
      <trkpt lat="45.85734" lon="6.44035">
        <ele>1807.6</ele>
        <time>2024-04-27T12:17:54Z</time>
      </trkpt>
      <trkpt lat="45.85734" lon="6.44036">
        <ele>1807.6</ele>
        <time>2024-04-27T12:17:55Z</time>
      </trkpt>
      <trkpt lat="45.85734" lon="6.44036">
        <ele>1807.6</ele>
        <time>2024-04-27T12:17:56Z</time>
      </trkpt>
      <trkpt lat="45.85734" lon="6.44038">
        <ele>1807.6</ele>
        <time>2024-04-27T12:17:57Z</time>
      </trkpt>
      <trkpt lat="45.85734" lon="6.44039">
        <ele>1808.7</ele>
        <time>2024-04-27T12:17:58Z</time>
      </trkpt>
      <trkpt lat="45.85734" lon="6.4404">
        <ele>1808.7</ele>
        <time>2024-04-27T12:17:59Z</time>
      </trkpt>
      <trkpt lat="45.85734" lon="6.44041">
        <ele>1808.7</ele>
        <time>2024-04-27T12:18:00Z</time>
      </trkpt>
      <trkpt lat="45.85734" lon="6.44042">
        <ele>1808.7</ele>
        <time>2024-04-27T12:18:01Z</time>
      </trkpt>
      <trkpt lat="45.85734" lon="6.44042">
        <ele>1809.6</ele>
        <time>2024-04-27T12:18:02Z</time>
      </trkpt>
      <trkpt lat="45.85734" lon="6.44043">
        <ele>1809.6</ele>
        <time>2024-04-27T12:18:03Z</time>
      </trkpt>
      <trkpt lat="45.85735" lon="6.44044">
        <ele>1809.6</ele>
        <time>2024-04-27T12:18:04Z</time>
      </trkpt>
      <trkpt lat="45.85735" lon="6.44044">
        <ele>1809.6</ele>
        <time>2024-04-27T12:18:05Z</time>
      </trkpt>
      <trkpt lat="45.85735" lon="6.44045">
        <ele>1810.7</ele>
        <time>2024-04-27T12:18:06Z</time>
      </trkpt>
      <trkpt lat="45.85736" lon="6.44046">
        <ele>1810.7</ele>
        <time>2024-04-27T12:18:07Z</time>
      </trkpt>
      <trkpt lat="45.85736" lon="6.44046">
        <ele>1810.7</ele>
        <time>2024-04-27T12:18:08Z</time>
      </trkpt>
      <trkpt lat="45.85736" lon="6.44047">
        <ele>1810.7</ele>
        <time>2024-04-27T12:18:09Z</time>
      </trkpt>
      <trkpt lat="45.85737" lon="6.44047">
        <ele>1810.7</ele>
        <time>2024-04-27T12:18:10Z</time>
      </trkpt>
      <trkpt lat="45.85737" lon="6.44048">
        <ele>1810.7</ele>
        <time>2024-04-27T12:18:11Z</time>
      </trkpt>
      <trkpt lat="45.85737" lon="6.44048">
        <ele>1810.7</ele>
        <time>2024-04-27T12:18:12Z</time>
      </trkpt>
      <trkpt lat="45.85738" lon="6.44049">
        <ele>1810.7</ele>
        <time>2024-04-27T12:18:13Z</time>
      </trkpt>
      <trkpt lat="45.85738" lon="6.4405">
        <ele>1811.6</ele>
        <time>2024-04-27T12:18:14Z</time>
      </trkpt>
      <trkpt lat="45.85739" lon="6.44051">
        <ele>1811.6</ele>
        <time>2024-04-27T12:18:15Z</time>
      </trkpt>
      <trkpt lat="45.85739" lon="6.44051">
        <ele>1811.6</ele>
        <time>2024-04-27T12:18:16Z</time>
      </trkpt>
      <trkpt lat="45.8574" lon="6.44052">
        <ele>1811.6</ele>
        <time>2024-04-27T12:18:17Z</time>
      </trkpt>
      <trkpt lat="45.8574" lon="6.44053">
        <ele>1812.7</ele>
        <time>2024-04-27T12:18:18Z</time>
      </trkpt>
      <trkpt lat="45.85741" lon="6.44054">
        <ele>1812.7</ele>
        <time>2024-04-27T12:18:19Z</time>
      </trkpt>
      <trkpt lat="45.85741" lon="6.44054">
        <ele>1812.7</ele>
        <time>2024-04-27T12:18:20Z</time>
      </trkpt>
      <trkpt lat="45.85742" lon="6.44055">
        <ele>1812.7</ele>
        <time>2024-04-27T12:18:21Z</time>
      </trkpt>
      <trkpt lat="45.85742" lon="6.44056">
        <ele>1812.7</ele>
        <time>2024-04-27T12:18:22Z</time>
      </trkpt>
      <trkpt lat="45.85742" lon="6.44057">
        <ele>1812.7</ele>
        <time>2024-04-27T12:18:23Z</time>
      </trkpt>
      <trkpt lat="45.85742" lon="6.44058">
        <ele>1812.7</ele>
        <time>2024-04-27T12:18:24Z</time>
      </trkpt>
      <trkpt lat="45.85743" lon="6.44058">
        <ele>1812.7</ele>
        <time>2024-04-27T12:18:25Z</time>
      </trkpt>
      <trkpt lat="45.85743" lon="6.44059">
        <ele>1813.6</ele>
        <time>2024-04-27T12:18:26Z</time>
      </trkpt>
      <trkpt lat="45.85743" lon="6.4406">
        <ele>1813.6</ele>
        <time>2024-04-27T12:18:27Z</time>
      </trkpt>
      <trkpt lat="45.85743" lon="6.44061">
        <ele>1813.6</ele>
        <time>2024-04-27T12:18:28Z</time>
      </trkpt>
      <trkpt lat="45.85743" lon="6.44062">
        <ele>1813.6</ele>
        <time>2024-04-27T12:18:29Z</time>
      </trkpt>
      <trkpt lat="45.85743" lon="6.44063">
        <ele>1813.6</ele>
        <time>2024-04-27T12:18:30Z</time>
      </trkpt>
      <trkpt lat="45.85743" lon="6.44064">
        <ele>1813.6</ele>
        <time>2024-04-27T12:18:31Z</time>
      </trkpt>
      <trkpt lat="45.85743" lon="6.44065">
        <ele>1813.6</ele>
        <time>2024-04-27T12:18:32Z</time>
      </trkpt>
      <trkpt lat="45.85743" lon="6.44065">
        <ele>1813.6</ele>
        <time>2024-04-27T12:18:33Z</time>
      </trkpt>
      <trkpt lat="45.85743" lon="6.44066">
        <ele>1814.6</ele>
        <time>2024-04-27T12:18:34Z</time>
      </trkpt>
      <trkpt lat="45.85743" lon="6.44067">
        <ele>1814.6</ele>
        <time>2024-04-27T12:18:35Z</time>
      </trkpt>
      <trkpt lat="45.85743" lon="6.44068">
        <ele>1814.6</ele>
        <time>2024-04-27T12:18:36Z</time>
      </trkpt>
      <trkpt lat="45.85744" lon="6.44069">
        <ele>1814.6</ele>
        <time>2024-04-27T12:18:37Z</time>
      </trkpt>
      <trkpt lat="45.85744" lon="6.44069">
        <ele>1815.7</ele>
        <time>2024-04-27T12:18:38Z</time>
      </trkpt>
      <trkpt lat="45.85744" lon="6.4407">
        <ele>1815.7</ele>
        <time>2024-04-27T12:18:39Z</time>
      </trkpt>
      <trkpt lat="45.85744" lon="6.44071">
        <ele>1815.7</ele>
        <time>2024-04-27T12:18:40Z</time>
      </trkpt>
      <trkpt lat="45.85744" lon="6.44072">
        <ele>1815.7</ele>
        <time>2024-04-27T12:18:41Z</time>
      </trkpt>
      <trkpt lat="45.85744" lon="6.44073">
        <ele>1815.7</ele>
        <time>2024-04-27T12:18:42Z</time>
      </trkpt>
      <trkpt lat="45.85744" lon="6.44074">
        <ele>1815.7</ele>
        <time>2024-04-27T12:18:43Z</time>
      </trkpt>
      <trkpt lat="45.85745" lon="6.44075">
        <ele>1816.6</ele>
        <time>2024-04-27T12:18:44Z</time>
      </trkpt>
      <trkpt lat="45.85745" lon="6.44076">
        <ele>1816.6</ele>
        <time>2024-04-27T12:18:45Z</time>
      </trkpt>
      <trkpt lat="45.85744" lon="6.44077">
        <ele>1816.6</ele>
        <time>2024-04-27T12:18:46Z</time>
      </trkpt>
      <trkpt lat="45.85744" lon="6.44078">
        <ele>1816.6</ele>
        <time>2024-04-27T12:18:47Z</time>
      </trkpt>
      <trkpt lat="45.85744" lon="6.44078">
        <ele>1817.7</ele>
        <time>2024-04-27T12:18:48Z</time>
      </trkpt>
      <trkpt lat="45.85744" lon="6.44079">
        <ele>1817.7</ele>
        <time>2024-04-27T12:18:49Z</time>
      </trkpt>
      <trkpt lat="45.85744" lon="6.4408">
        <ele>1817.7</ele>
        <time>2024-04-27T12:18:50Z</time>
      </trkpt>
      <trkpt lat="45.85744" lon="6.4408">
        <ele>1817.7</ele>
        <time>2024-04-27T12:18:51Z</time>
      </trkpt>
      <trkpt lat="45.85745" lon="6.4408">
        <ele>1817.7</ele>
        <time>2024-04-27T12:18:52Z</time>
      </trkpt>
      <trkpt lat="45.85745" lon="6.44081">
        <ele>1817.7</ele>
        <time>2024-04-27T12:18:53Z</time>
      </trkpt>
      <trkpt lat="45.85745" lon="6.44082">
        <ele>1817.7</ele>
        <time>2024-04-27T12:18:54Z</time>
      </trkpt>
      <trkpt lat="45.85745" lon="6.44082">
        <ele>1817.7</ele>
        <time>2024-04-27T12:18:55Z</time>
      </trkpt>
      <trkpt lat="45.85745" lon="6.44082">
        <ele>1818.6</ele>
        <time>2024-04-27T12:18:56Z</time>
      </trkpt>
      <trkpt lat="45.85746" lon="6.44083">
        <ele>1818.6</ele>
        <time>2024-04-27T12:18:57Z</time>
      </trkpt>
      <trkpt lat="45.85746" lon="6.44083">
        <ele>1818.6</ele>
        <time>2024-04-27T12:18:58Z</time>
      </trkpt>
      <trkpt lat="45.85746" lon="6.44084">
        <ele>1818.6</ele>
        <time>2024-04-27T12:18:59Z</time>
      </trkpt>
      <trkpt lat="45.85747" lon="6.44085">
        <ele>1818.6</ele>
        <time>2024-04-27T12:19:00Z</time>
      </trkpt>
      <trkpt lat="45.85747" lon="6.44086">
        <ele>1818.6</ele>
        <time>2024-04-27T12:19:01Z</time>
      </trkpt>
      <trkpt lat="45.85748" lon="6.44086">
        <ele>1819.7</ele>
        <time>2024-04-27T12:19:02Z</time>
      </trkpt>
      <trkpt lat="45.85748" lon="6.44086">
        <ele>1819.7</ele>
        <time>2024-04-27T12:19:03Z</time>
      </trkpt>
      <trkpt lat="45.85748" lon="6.44087">
        <ele>1819.7</ele>
        <time>2024-04-27T12:19:04Z</time>
      </trkpt>
      <trkpt lat="45.85749" lon="6.44087">
        <ele>1819.7</ele>
        <time>2024-04-27T12:19:05Z</time>
      </trkpt>
      <trkpt lat="45.85749" lon="6.44087">
        <ele>1820.6</ele>
        <time>2024-04-27T12:19:06Z</time>
      </trkpt>
      <trkpt lat="45.85749" lon="6.44088">
        <ele>1820.6</ele>
        <time>2024-04-27T12:19:07Z</time>
      </trkpt>
      <trkpt lat="45.8575" lon="6.44088">
        <ele>1820.6</ele>
        <time>2024-04-27T12:19:08Z</time>
      </trkpt>
      <trkpt lat="45.8575" lon="6.44089">
        <ele>1820.6</ele>
        <time>2024-04-27T12:19:09Z</time>
      </trkpt>
      <trkpt lat="45.85751" lon="6.44089">
        <ele>1820.6</ele>
        <time>2024-04-27T12:19:10Z</time>
      </trkpt>
      <trkpt lat="45.85751" lon="6.4409">
        <ele>1820.6</ele>
        <time>2024-04-27T12:19:11Z</time>
      </trkpt>
      <trkpt lat="45.85752" lon="6.4409">
        <ele>1820.6</ele>
        <time>2024-04-27T12:19:12Z</time>
      </trkpt>
      <trkpt lat="45.85752" lon="6.44091">
        <ele>1820.6</ele>
        <time>2024-04-27T12:19:13Z</time>
      </trkpt>
      <trkpt lat="45.85753" lon="6.44091">
        <ele>1821.7</ele>
        <time>2024-04-27T12:19:14Z</time>
      </trkpt>
      <trkpt lat="45.85753" lon="6.44092">
        <ele>1821.7</ele>
        <time>2024-04-27T12:19:15Z</time>
      </trkpt>
      <trkpt lat="45.85754" lon="6.44093">
        <ele>1821.7</ele>
        <time>2024-04-27T12:19:16Z</time>
      </trkpt>
      <trkpt lat="45.85754" lon="6.44093">
        <ele>1821.7</ele>
        <time>2024-04-27T12:19:17Z</time>
      </trkpt>
      <trkpt lat="45.85754" lon="6.44094">
        <ele>1821.7</ele>
        <time>2024-04-27T12:19:18Z</time>
      </trkpt>
      <trkpt lat="45.85754" lon="6.44094">
        <ele>1821.7</ele>
        <time>2024-04-27T12:19:19Z</time>
      </trkpt>
      <trkpt lat="45.85755" lon="6.44095">
        <ele>1822.6</ele>
        <time>2024-04-27T12:19:20Z</time>
      </trkpt>
      <trkpt lat="45.85755" lon="6.44095">
        <ele>1822.6</ele>
        <time>2024-04-27T12:19:21Z</time>
      </trkpt>
      <trkpt lat="45.85755" lon="6.44096">
        <ele>1822.6</ele>
        <time>2024-04-27T12:19:22Z</time>
      </trkpt>
      <trkpt lat="45.85756" lon="6.44097">
        <ele>1822.6</ele>
        <time>2024-04-27T12:19:23Z</time>
      </trkpt>
      <trkpt lat="45.85756" lon="6.44097">
        <ele>1823.6</ele>
        <time>2024-04-27T12:19:24Z</time>
      </trkpt>
      <trkpt lat="45.85756" lon="6.44098">
        <ele>1823.6</ele>
        <time>2024-04-27T12:19:25Z</time>
      </trkpt>
      <trkpt lat="45.85757" lon="6.44098">
        <ele>1823.6</ele>
        <time>2024-04-27T12:19:26Z</time>
      </trkpt>
      <trkpt lat="45.85757" lon="6.44099">
        <ele>1823.6</ele>
        <time>2024-04-27T12:19:27Z</time>
      </trkpt>
      <trkpt lat="45.85758" lon="6.44099">
        <ele>1823.6</ele>
        <time>2024-04-27T12:19:28Z</time>
      </trkpt>
      <trkpt lat="45.85758" lon="6.441">
        <ele>1823.6</ele>
        <time>2024-04-27T12:19:29Z</time>
      </trkpt>
      <trkpt lat="45.85758" lon="6.441">
        <ele>1824.7</ele>
        <time>2024-04-27T12:19:30Z</time>
      </trkpt>
      <trkpt lat="45.85758" lon="6.44101">
        <ele>1824.7</ele>
        <time>2024-04-27T12:19:31Z</time>
      </trkpt>
      <trkpt lat="45.85759" lon="6.44102">
        <ele>1824.7</ele>
        <time>2024-04-27T12:19:32Z</time>
      </trkpt>
      <trkpt lat="45.85759" lon="6.44102">
        <ele>1824.7</ele>
        <time>2024-04-27T12:19:33Z</time>
      </trkpt>
      <trkpt lat="45.85759" lon="6.44103">
        <ele>1825.6</ele>
        <time>2024-04-27T12:19:34Z</time>
      </trkpt>
      <trkpt lat="45.85759" lon="6.44104">
        <ele>1825.6</ele>
        <time>2024-04-27T12:19:35Z</time>
      </trkpt>
      <trkpt lat="45.85759" lon="6.44104">
        <ele>1825.6</ele>
        <time>2024-04-27T12:19:36Z</time>
      </trkpt>
      <trkpt lat="45.85758" lon="6.44105">
        <ele>1825.6</ele>
        <time>2024-04-27T12:19:37Z</time>
      </trkpt>
      <trkpt lat="45.85758" lon="6.44106">
        <ele>1826.7</ele>
        <time>2024-04-27T12:19:38Z</time>
      </trkpt>
      <trkpt lat="45.85758" lon="6.44107">
        <ele>1826.7</ele>
        <time>2024-04-27T12:19:39Z</time>
      </trkpt>
      <trkpt lat="45.85758" lon="6.44107">
        <ele>1826.7</ele>
        <time>2024-04-27T12:19:40Z</time>
      </trkpt>
      <trkpt lat="45.85758" lon="6.44108">
        <ele>1826.7</ele>
        <time>2024-04-27T12:19:41Z</time>
      </trkpt>
      <trkpt lat="45.85759" lon="6.44109">
        <ele>1826.7</ele>
        <time>2024-04-27T12:19:42Z</time>
      </trkpt>
      <trkpt lat="45.85759" lon="6.44109">
        <ele>1826.7</ele>
        <time>2024-04-27T12:19:43Z</time>
      </trkpt>
      <trkpt lat="45.85758" lon="6.4411">
        <ele>1827.6</ele>
        <time>2024-04-27T12:19:44Z</time>
      </trkpt>
      <trkpt lat="45.85758" lon="6.4411">
        <ele>1827.6</ele>
        <time>2024-04-27T12:19:45Z</time>
      </trkpt>
      <trkpt lat="45.85758" lon="6.44111">
        <ele>1827.6</ele>
        <time>2024-04-27T12:19:46Z</time>
      </trkpt>
      <trkpt lat="45.85758" lon="6.44111">
        <ele>1827.6</ele>
        <time>2024-04-27T12:19:47Z</time>
      </trkpt>
      <trkpt lat="45.85757" lon="6.44112">
        <ele>1827.6</ele>
        <time>2024-04-27T12:19:48Z</time>
      </trkpt>
      <trkpt lat="45.85757" lon="6.44113">
        <ele>1827.6</ele>
        <time>2024-04-27T12:19:49Z</time>
      </trkpt>
      <trkpt lat="45.85756" lon="6.44113">
        <ele>1827.6</ele>
        <time>2024-04-27T12:19:50Z</time>
      </trkpt>
      <trkpt lat="45.85756" lon="6.44114">
        <ele>1827.6</ele>
        <time>2024-04-27T12:19:51Z</time>
      </trkpt>
      <trkpt lat="45.85756" lon="6.44114">
        <ele>1828.7</ele>
        <time>2024-04-27T12:19:52Z</time>
      </trkpt>
      <trkpt lat="45.85756" lon="6.44115">
        <ele>1828.7</ele>
        <time>2024-04-27T12:19:53Z</time>
      </trkpt>
      <trkpt lat="45.85755" lon="6.44116">
        <ele>1828.7</ele>
        <time>2024-04-27T12:19:54Z</time>
      </trkpt>
      <trkpt lat="45.85755" lon="6.44117">
        <ele>1828.7</ele>
        <time>2024-04-27T12:19:55Z</time>
      </trkpt>
      <trkpt lat="45.85755" lon="6.44117">
        <ele>1828.7</ele>
        <time>2024-04-27T12:19:56Z</time>
      </trkpt>
      <trkpt lat="45.85755" lon="6.44118">
        <ele>1828.7</ele>
        <time>2024-04-27T12:19:57Z</time>
      </trkpt>
      <trkpt lat="45.85755" lon="6.44118">
        <ele>1828.7</ele>
        <time>2024-04-27T12:19:58Z</time>
      </trkpt>
      <trkpt lat="45.85755" lon="6.44119">
        <ele>1828.7</ele>
        <time>2024-04-27T12:19:59Z</time>
      </trkpt>
      <trkpt lat="45.85755" lon="6.4412">
        <ele>1829.6</ele>
        <time>2024-04-27T12:20:00Z</time>
      </trkpt>
      <trkpt lat="45.85754" lon="6.4412">
        <ele>1829.6</ele>
        <time>2024-04-27T12:20:01Z</time>
      </trkpt>
      <trkpt lat="45.85754" lon="6.4412">
        <ele>1830.7</ele>
        <time>2024-04-27T12:20:02Z</time>
      </trkpt>
      <trkpt lat="45.85754" lon="6.44121">
        <ele>1830.7</ele>
        <time>2024-04-27T12:20:03Z</time>
      </trkpt>
      <trkpt lat="45.85754" lon="6.44121">
        <ele>1830.7</ele>
        <time>2024-04-27T12:20:04Z</time>
      </trkpt>
      <trkpt lat="45.85754" lon="6.44122">
        <ele>1830.7</ele>
        <time>2024-04-27T12:20:05Z</time>
      </trkpt>
      <trkpt lat="45.85754" lon="6.44122">
        <ele>1831.7</ele>
        <time>2024-04-27T12:20:06Z</time>
      </trkpt>
      <trkpt lat="45.85754" lon="6.44123">
        <ele>1831.7</ele>
        <time>2024-04-27T12:20:07Z</time>
      </trkpt>
      <trkpt lat="45.85755" lon="6.44123">
        <ele>1831.7</ele>
        <time>2024-04-27T12:20:08Z</time>
      </trkpt>
      <trkpt lat="45.85755" lon="6.44124">
        <ele>1831.7</ele>
        <time>2024-04-27T12:20:09Z</time>
      </trkpt>
      <trkpt lat="45.85756" lon="6.44124">
        <ele>1831.7</ele>
        <time>2024-04-27T12:20:10Z</time>
      </trkpt>
      <trkpt lat="45.85756" lon="6.44125">
        <ele>1831.7</ele>
        <time>2024-04-27T12:20:11Z</time>
      </trkpt>
      <trkpt lat="45.85756" lon="6.44126">
        <ele>1831.7</ele>
        <time>2024-04-27T12:20:12Z</time>
      </trkpt>
      <trkpt lat="45.85757" lon="6.44126">
        <ele>1831.7</ele>
        <time>2024-04-27T12:20:13Z</time>
      </trkpt>
      <trkpt lat="45.85757" lon="6.44127">
        <ele>1831.7</ele>
        <time>2024-04-27T12:20:14Z</time>
      </trkpt>
      <trkpt lat="45.85758" lon="6.44128">
        <ele>1831.7</ele>
        <time>2024-04-27T12:20:15Z</time>
      </trkpt>
      <trkpt lat="45.85758" lon="6.44129">
        <ele>1832.6</ele>
        <time>2024-04-27T12:20:16Z</time>
      </trkpt>
      <trkpt lat="45.85759" lon="6.44129">
        <ele>1832.6</ele>
        <time>2024-04-27T12:20:17Z</time>
      </trkpt>
      <trkpt lat="45.85759" lon="6.4413">
        <ele>1832.6</ele>
        <time>2024-04-27T12:20:18Z</time>
      </trkpt>
      <trkpt lat="45.8576" lon="6.4413">
        <ele>1832.6</ele>
        <time>2024-04-27T12:20:19Z</time>
      </trkpt>
      <trkpt lat="45.8576" lon="6.44131">
        <ele>1833.7</ele>
        <time>2024-04-27T12:20:20Z</time>
      </trkpt>
      <trkpt lat="45.8576" lon="6.44131">
        <ele>1833.7</ele>
        <time>2024-04-27T12:20:21Z</time>
      </trkpt>
      <trkpt lat="45.85761" lon="6.44132">
        <ele>1833.7</ele>
        <time>2024-04-27T12:20:22Z</time>
      </trkpt>
      <trkpt lat="45.85761" lon="6.44132">
        <ele>1833.7</ele>
        <time>2024-04-27T12:20:23Z</time>
      </trkpt>
      <trkpt lat="45.85761" lon="6.44132">
        <ele>1833.7</ele>
        <time>2024-04-27T12:20:24Z</time>
      </trkpt>
      <trkpt lat="45.85762" lon="6.44133">
        <ele>1833.7</ele>
        <time>2024-04-27T12:20:25Z</time>
      </trkpt>
      <trkpt lat="45.85762" lon="6.44133">
        <ele>1834.6</ele>
        <time>2024-04-27T12:20:26Z</time>
      </trkpt>
      <trkpt lat="45.85763" lon="6.44134">
        <ele>1834.6</ele>
        <time>2024-04-27T12:20:27Z</time>
      </trkpt>
      <trkpt lat="45.85763" lon="6.44135">
        <ele>1834.6</ele>
        <time>2024-04-27T12:20:28Z</time>
      </trkpt>
      <trkpt lat="45.85764" lon="6.44135">
        <ele>1834.6</ele>
        <time>2024-04-27T12:20:29Z</time>
      </trkpt>
      <trkpt lat="45.85764" lon="6.44136">
        <ele>1834.6</ele>
        <time>2024-04-27T12:20:30Z</time>
      </trkpt>
      <trkpt lat="45.85765" lon="6.44136">
        <ele>1834.6</ele>
        <time>2024-04-27T12:20:31Z</time>
      </trkpt>
      <trkpt lat="45.85766" lon="6.44137">
        <ele>1835.7</ele>
        <time>2024-04-27T12:20:32Z</time>
      </trkpt>
      <trkpt lat="45.85766" lon="6.44138">
        <ele>1835.7</ele>
        <time>2024-04-27T12:20:33Z</time>
      </trkpt>
      <trkpt lat="45.85767" lon="6.44138">
        <ele>1835.7</ele>
        <time>2024-04-27T12:20:34Z</time>
      </trkpt>
      <trkpt lat="45.85767" lon="6.44139">
        <ele>1835.7</ele>
        <time>2024-04-27T12:20:35Z</time>
      </trkpt>
      <trkpt lat="45.85768" lon="6.44139">
        <ele>1835.7</ele>
        <time>2024-04-27T12:20:36Z</time>
      </trkpt>
      <trkpt lat="45.85768" lon="6.4414">
        <ele>1835.7</ele>
        <time>2024-04-27T12:20:37Z</time>
      </trkpt>
      <trkpt lat="45.85769" lon="6.4414">
        <ele>1835.7</ele>
        <time>2024-04-27T12:20:38Z</time>
      </trkpt>
      <trkpt lat="45.85769" lon="6.44141">
        <ele>1835.7</ele>
        <time>2024-04-27T12:20:39Z</time>
      </trkpt>
      <trkpt lat="45.8577" lon="6.44141">
        <ele>1836.6</ele>
        <time>2024-04-27T12:20:40Z</time>
      </trkpt>
      <trkpt lat="45.8577" lon="6.44141">
        <ele>1836.6</ele>
        <time>2024-04-27T12:20:41Z</time>
      </trkpt>
      <trkpt lat="45.8577" lon="6.44142">
        <ele>1836.6</ele>
        <time>2024-04-27T12:20:42Z</time>
      </trkpt>
      <trkpt lat="45.85771" lon="6.44143">
        <ele>1836.6</ele>
        <time>2024-04-27T12:20:43Z</time>
      </trkpt>
      <trkpt lat="45.85771" lon="6.44144">
        <ele>1836.6</ele>
        <time>2024-04-27T12:20:44Z</time>
      </trkpt>
      <trkpt lat="45.85771" lon="6.44145">
        <ele>1836.6</ele>
        <time>2024-04-27T12:20:45Z</time>
      </trkpt>
      <trkpt lat="45.85771" lon="6.44145">
        <ele>1837.7</ele>
        <time>2024-04-27T12:20:46Z</time>
      </trkpt>
      <trkpt lat="45.85771" lon="6.44146">
        <ele>1837.7</ele>
        <time>2024-04-27T12:20:47Z</time>
      </trkpt>
      <trkpt lat="45.8577" lon="6.44147">
        <ele>1837.7</ele>
        <time>2024-04-27T12:20:48Z</time>
      </trkpt>
      <trkpt lat="45.8577" lon="6.44147">
        <ele>1837.7</ele>
        <time>2024-04-27T12:20:49Z</time>
      </trkpt>
      <trkpt lat="45.85769" lon="6.44148">
        <ele>1838.6</ele>
        <time>2024-04-27T12:20:50Z</time>
      </trkpt>
      <trkpt lat="45.85769" lon="6.44149">
        <ele>1838.6</ele>
        <time>2024-04-27T12:20:51Z</time>
      </trkpt>
      <trkpt lat="45.85768" lon="6.4415">
        <ele>1838.6</ele>
        <time>2024-04-27T12:20:52Z</time>
      </trkpt>
      <trkpt lat="45.85768" lon="6.4415">
        <ele>1838.6</ele>
        <time>2024-04-27T12:20:53Z</time>
      </trkpt>
      <trkpt lat="45.85768" lon="6.44151">
        <ele>1839.6</ele>
        <time>2024-04-27T12:20:54Z</time>
      </trkpt>
      <trkpt lat="45.85767" lon="6.44151">
        <ele>1839.6</ele>
        <time>2024-04-27T12:20:55Z</time>
      </trkpt>
      <trkpt lat="45.85767" lon="6.44152">
        <ele>1839.6</ele>
        <time>2024-04-27T12:20:56Z</time>
      </trkpt>
      <trkpt lat="45.85767" lon="6.44153">
        <ele>1839.6</ele>
        <time>2024-04-27T12:20:57Z</time>
      </trkpt>
      <trkpt lat="45.85767" lon="6.44153">
        <ele>1839.6</ele>
        <time>2024-04-27T12:20:58Z</time>
      </trkpt>
      <trkpt lat="45.85767" lon="6.44153">
        <ele>1839.6</ele>
        <time>2024-04-27T12:20:59Z</time>
      </trkpt>
      <trkpt lat="45.85767" lon="6.44154">
        <ele>1840.7</ele>
        <time>2024-04-27T12:21:00Z</time>
      </trkpt>
      <trkpt lat="45.85767" lon="6.44154">
        <ele>1840.7</ele>
        <time>2024-04-27T12:21:01Z</time>
      </trkpt>
      <trkpt lat="45.85768" lon="6.44155">
        <ele>1840.7</ele>
        <time>2024-04-27T12:21:02Z</time>
      </trkpt>
      <trkpt lat="45.85768" lon="6.44155">
        <ele>1840.7</ele>
        <time>2024-04-27T12:21:03Z</time>
      </trkpt>
      <trkpt lat="45.85769" lon="6.44155">
        <ele>1840.7</ele>
        <time>2024-04-27T12:21:04Z</time>
      </trkpt>
      <trkpt lat="45.85769" lon="6.44156">
        <ele>1840.7</ele>
        <time>2024-04-27T12:21:05Z</time>
      </trkpt>
      <trkpt lat="45.85769" lon="6.44156">
        <ele>1840.7</ele>
        <time>2024-04-27T12:21:06Z</time>
      </trkpt>
      <trkpt lat="45.8577" lon="6.44157">
        <ele>1840.7</ele>
        <time>2024-04-27T12:21:07Z</time>
      </trkpt>
      <trkpt lat="45.8577" lon="6.44158">
        <ele>1841.6</ele>
        <time>2024-04-27T12:21:08Z</time>
      </trkpt>
      <trkpt lat="45.85771" lon="6.44158">
        <ele>1841.6</ele>
        <time>2024-04-27T12:21:09Z</time>
      </trkpt>
      <trkpt lat="45.85771" lon="6.44159">
        <ele>1841.6</ele>
        <time>2024-04-27T12:21:10Z</time>
      </trkpt>
      <trkpt lat="45.85771" lon="6.44159">
        <ele>1841.6</ele>
        <time>2024-04-27T12:21:11Z</time>
      </trkpt>
      <trkpt lat="45.85771" lon="6.44159">
        <ele>1842.7</ele>
        <time>2024-04-27T12:21:12Z</time>
      </trkpt>
      <trkpt lat="45.85772" lon="6.4416">
        <ele>1842.7</ele>
        <time>2024-04-27T12:21:13Z</time>
      </trkpt>
      <trkpt lat="45.85772" lon="6.4416">
        <ele>1842.7</ele>
        <time>2024-04-27T12:21:14Z</time>
      </trkpt>
      <trkpt lat="45.85772" lon="6.44161">
        <ele>1842.7</ele>
        <time>2024-04-27T12:21:15Z</time>
      </trkpt>
      <trkpt lat="45.85773" lon="6.44161">
        <ele>1842.7</ele>
        <time>2024-04-27T12:21:16Z</time>
      </trkpt>
      <trkpt lat="45.85773" lon="6.44162">
        <ele>1842.7</ele>
        <time>2024-04-27T12:21:17Z</time>
      </trkpt>
      <trkpt lat="45.85773" lon="6.44162">
        <ele>1843.6</ele>
        <time>2024-04-27T12:21:18Z</time>
      </trkpt>
      <trkpt lat="45.85774" lon="6.44163">
        <ele>1843.6</ele>
        <time>2024-04-27T12:21:19Z</time>
      </trkpt>
      <trkpt lat="45.85774" lon="6.44163">
        <ele>1843.6</ele>
        <time>2024-04-27T12:21:20Z</time>
      </trkpt>
      <trkpt lat="45.85775" lon="6.44164">
        <ele>1843.6</ele>
        <time>2024-04-27T12:21:21Z</time>
      </trkpt>
      <trkpt lat="45.85776" lon="6.44164">
        <ele>1844.7</ele>
        <time>2024-04-27T12:21:22Z</time>
      </trkpt>
      <trkpt lat="45.85776" lon="6.44165">
        <ele>1844.7</ele>
        <time>2024-04-27T12:21:23Z</time>
      </trkpt>
      <trkpt lat="45.85777" lon="6.44165">
        <ele>1844.7</ele>
        <time>2024-04-27T12:21:24Z</time>
      </trkpt>
      <trkpt lat="45.85777" lon="6.44166">
        <ele>1844.7</ele>
        <time>2024-04-27T12:21:25Z</time>
      </trkpt>
      <trkpt lat="45.85778" lon="6.44166">
        <ele>1844.7</ele>
        <time>2024-04-27T12:21:26Z</time>
      </trkpt>
      <trkpt lat="45.85778" lon="6.44167">
        <ele>1844.7</ele>
        <time>2024-04-27T12:21:27Z</time>
      </trkpt>
      <trkpt lat="45.85777" lon="6.44168">
        <ele>1844.7</ele>
        <time>2024-04-27T12:21:28Z</time>
      </trkpt>
      <trkpt lat="45.85777" lon="6.44168">
        <ele>1844.7</ele>
        <time>2024-04-27T12:21:29Z</time>
      </trkpt>
      <trkpt lat="45.85777" lon="6.44169">
        <ele>1845.6</ele>
        <time>2024-04-27T12:21:30Z</time>
      </trkpt>
      <trkpt lat="45.85776" lon="6.4417">
        <ele>1845.6</ele>
        <time>2024-04-27T12:21:31Z</time>
      </trkpt>
      <trkpt lat="45.85776" lon="6.4417">
        <ele>1845.6</ele>
        <time>2024-04-27T12:21:32Z</time>
      </trkpt>
      <trkpt lat="45.85775" lon="6.44171">
        <ele>1845.6</ele>
        <time>2024-04-27T12:21:33Z</time>
      </trkpt>
      <trkpt lat="45.85775" lon="6.44171">
        <ele>1846.7</ele>
        <time>2024-04-27T12:21:34Z</time>
      </trkpt>
      <trkpt lat="45.85775" lon="6.44172">
        <ele>1846.7</ele>
        <time>2024-04-27T12:21:35Z</time>
      </trkpt>
      <trkpt lat="45.85774" lon="6.44173">
        <ele>1846.7</ele>
        <time>2024-04-27T12:21:36Z</time>
      </trkpt>
      <trkpt lat="45.85774" lon="6.44173">
        <ele>1846.7</ele>
        <time>2024-04-27T12:21:37Z</time>
      </trkpt>
      <trkpt lat="45.85774" lon="6.44174">
        <ele>1847.7</ele>
        <time>2024-04-27T12:21:38Z</time>
      </trkpt>
      <trkpt lat="45.85774" lon="6.44174">
        <ele>1847.7</ele>
        <time>2024-04-27T12:21:39Z</time>
      </trkpt>
      <trkpt lat="45.85774" lon="6.44175">
        <ele>1847.7</ele>
        <time>2024-04-27T12:21:40Z</time>
      </trkpt>
      <trkpt lat="45.85774" lon="6.44176">
        <ele>1847.7</ele>
        <time>2024-04-27T12:21:41Z</time>
      </trkpt>
      <trkpt lat="45.85773" lon="6.44177">
        <ele>1847.7</ele>
        <time>2024-04-27T12:21:42Z</time>
      </trkpt>
      <trkpt lat="45.85773" lon="6.44177">
        <ele>1847.7</ele>
        <time>2024-04-27T12:21:43Z</time>
      </trkpt>
      <trkpt lat="45.85773" lon="6.44178">
        <ele>1847.7</ele>
        <time>2024-04-27T12:21:44Z</time>
      </trkpt>
      <trkpt lat="45.85772" lon="6.44178">
        <ele>1847.7</ele>
        <time>2024-04-27T12:21:45Z</time>
      </trkpt>
      <trkpt lat="45.85773" lon="6.44178">
        <ele>1848.6</ele>
        <time>2024-04-27T12:21:46Z</time>
      </trkpt>
      <trkpt lat="45.85773" lon="6.44179">
        <ele>1848.6</ele>
        <time>2024-04-27T12:21:47Z</time>
      </trkpt>
      <trkpt lat="45.85773" lon="6.44179">
        <ele>1848.6</ele>
        <time>2024-04-27T12:21:48Z</time>
      </trkpt>
      <trkpt lat="45.85774" lon="6.4418">
        <ele>1848.6</ele>
        <time>2024-04-27T12:21:49Z</time>
      </trkpt>
      <trkpt lat="45.85774" lon="6.4418">
        <ele>1848.6</ele>
        <time>2024-04-27T12:21:50Z</time>
      </trkpt>
      <trkpt lat="45.85774" lon="6.44181">
        <ele>1848.6</ele>
        <time>2024-04-27T12:21:51Z</time>
      </trkpt>
      <trkpt lat="45.85774" lon="6.44181">
        <ele>1848.6</ele>
        <time>2024-04-27T12:21:52Z</time>
      </trkpt>
      <trkpt lat="45.85775" lon="6.44181">
        <ele>1848.6</ele>
        <time>2024-04-27T12:21:53Z</time>
      </trkpt>
      <trkpt lat="45.85775" lon="6.44182">
        <ele>1848.6</ele>
        <time>2024-04-27T12:21:54Z</time>
      </trkpt>
      <trkpt lat="45.85776" lon="6.44182">
        <ele>1848.6</ele>
        <time>2024-04-27T12:21:55Z</time>
      </trkpt>
      <trkpt lat="45.85776" lon="6.44183">
        <ele>1849.7</ele>
        <time>2024-04-27T12:21:56Z</time>
      </trkpt>
      <trkpt lat="45.85777" lon="6.44183">
        <ele>1849.7</ele>
        <time>2024-04-27T12:21:57Z</time>
      </trkpt>
      <trkpt lat="45.85777" lon="6.44184">
        <ele>1849.7</ele>
        <time>2024-04-27T12:21:58Z</time>
      </trkpt>
      <trkpt lat="45.85778" lon="6.44184">
        <ele>1849.7</ele>
        <time>2024-04-27T12:21:59Z</time>
      </trkpt>
      <trkpt lat="45.85778" lon="6.44184">
        <ele>1850.6</ele>
        <time>2024-04-27T12:22:00Z</time>
      </trkpt>
      <trkpt lat="45.85779" lon="6.44185">
        <ele>1850.6</ele>
        <time>2024-04-27T12:22:01Z</time>
      </trkpt>
      <trkpt lat="45.85779" lon="6.44185">
        <ele>1850.6</ele>
        <time>2024-04-27T12:22:02Z</time>
      </trkpt>
      <trkpt lat="45.8578" lon="6.44186">
        <ele>1850.6</ele>
        <time>2024-04-27T12:22:03Z</time>
      </trkpt>
      <trkpt lat="45.85781" lon="6.44186">
        <ele>1851.7</ele>
        <time>2024-04-27T12:22:04Z</time>
      </trkpt>
      <trkpt lat="45.85781" lon="6.44186">
        <ele>1851.7</ele>
        <time>2024-04-27T12:22:05Z</time>
      </trkpt>
      <trkpt lat="45.85781" lon="6.44187">
        <ele>1851.7</ele>
        <time>2024-04-27T12:22:06Z</time>
      </trkpt>
      <trkpt lat="45.85781" lon="6.44187">
        <ele>1851.7</ele>
        <time>2024-04-27T12:22:07Z</time>
      </trkpt>
      <trkpt lat="45.85782" lon="6.44188">
        <ele>1851.7</ele>
        <time>2024-04-27T12:22:08Z</time>
      </trkpt>
      <trkpt lat="45.85782" lon="6.44188">
        <ele>1851.7</ele>
        <time>2024-04-27T12:22:09Z</time>
      </trkpt>
      <trkpt lat="45.85783" lon="6.44189">
        <ele>1851.7</ele>
        <time>2024-04-27T12:22:10Z</time>
      </trkpt>
      <trkpt lat="45.85784" lon="6.44189">
        <ele>1851.7</ele>
        <time>2024-04-27T12:22:11Z</time>
      </trkpt>
      <trkpt lat="45.85784" lon="6.44189">
        <ele>1852.6</ele>
        <time>2024-04-27T12:22:12Z</time>
      </trkpt>
      <trkpt lat="45.85785" lon="6.4419">
        <ele>1852.6</ele>
        <time>2024-04-27T12:22:13Z</time>
      </trkpt>
      <trkpt lat="45.85785" lon="6.4419">
        <ele>1852.6</ele>
        <time>2024-04-27T12:22:14Z</time>
      </trkpt>
      <trkpt lat="45.85785" lon="6.44191">
        <ele>1852.6</ele>
        <time>2024-04-27T12:22:15Z</time>
      </trkpt>
      <trkpt lat="45.85785" lon="6.44191">
        <ele>1852.6</ele>
        <time>2024-04-27T12:22:16Z</time>
      </trkpt>
      <trkpt lat="45.85786" lon="6.44192">
        <ele>1852.6</ele>
        <time>2024-04-27T12:22:17Z</time>
      </trkpt>
      <trkpt lat="45.85786" lon="6.44192">
        <ele>1853.7</ele>
        <time>2024-04-27T12:22:18Z</time>
      </trkpt>
      <trkpt lat="45.85786" lon="6.44193">
        <ele>1853.7</ele>
        <time>2024-04-27T12:22:19Z</time>
      </trkpt>
      <trkpt lat="45.85787" lon="6.44193">
        <ele>1853.7</ele>
        <time>2024-04-27T12:22:20Z</time>
      </trkpt>
      <trkpt lat="45.85787" lon="6.44194">
        <ele>1853.7</ele>
        <time>2024-04-27T12:22:21Z</time>
      </trkpt>
      <trkpt lat="45.85787" lon="6.44195">
        <ele>1853.7</ele>
        <time>2024-04-27T12:22:22Z</time>
      </trkpt>
      <trkpt lat="45.85788" lon="6.44195">
        <ele>1853.7</ele>
        <time>2024-04-27T12:22:23Z</time>
      </trkpt>
      <trkpt lat="45.85788" lon="6.44196">
        <ele>1854.6</ele>
        <time>2024-04-27T12:22:24Z</time>
      </trkpt>
      <trkpt lat="45.85788" lon="6.44197">
        <ele>1854.6</ele>
        <time>2024-04-27T12:22:25Z</time>
      </trkpt>
      <trkpt lat="45.85789" lon="6.44197">
        <ele>1855.6</ele>
        <time>2024-04-27T12:22:26Z</time>
      </trkpt>
      <trkpt lat="45.85789" lon="6.44198">
        <ele>1855.6</ele>
        <time>2024-04-27T12:22:27Z</time>
      </trkpt>
      <trkpt lat="45.85789" lon="6.44199">
        <ele>1855.6</ele>
        <time>2024-04-27T12:22:28Z</time>
      </trkpt>
      <trkpt lat="45.85789" lon="6.442">
        <ele>1855.6</ele>
        <time>2024-04-27T12:22:29Z</time>
      </trkpt>
      <trkpt lat="45.8579" lon="6.442">
        <ele>1856.7</ele>
        <time>2024-04-27T12:22:30Z</time>
      </trkpt>
      <trkpt lat="45.8579" lon="6.44201">
        <ele>1856.7</ele>
        <time>2024-04-27T12:22:31Z</time>
      </trkpt>
      <trkpt lat="45.8579" lon="6.44202">
        <ele>1856.7</ele>
        <time>2024-04-27T12:22:32Z</time>
      </trkpt>
      <trkpt lat="45.85789" lon="6.44202">
        <ele>1856.7</ele>
        <time>2024-04-27T12:22:33Z</time>
      </trkpt>
      <trkpt lat="45.85789" lon="6.44203">
        <ele>1856.7</ele>
        <time>2024-04-27T12:22:34Z</time>
      </trkpt>
      <trkpt lat="45.85789" lon="6.44203">
        <ele>1856.7</ele>
        <time>2024-04-27T12:22:35Z</time>
      </trkpt>
      <trkpt lat="45.85788" lon="6.44204">
        <ele>1857.6</ele>
        <time>2024-04-27T12:22:36Z</time>
      </trkpt>
      <trkpt lat="45.85788" lon="6.44205">
        <ele>1857.6</ele>
        <time>2024-04-27T12:22:37Z</time>
      </trkpt>
      <trkpt lat="45.85787" lon="6.44206">
        <ele>1857.6</ele>
        <time>2024-04-27T12:22:38Z</time>
      </trkpt>
      <trkpt lat="45.85787" lon="6.44206">
        <ele>1857.6</ele>
        <time>2024-04-27T12:22:39Z</time>
      </trkpt>
      <trkpt lat="45.85786" lon="6.44207">
        <ele>1858.7</ele>
        <time>2024-04-27T12:22:40Z</time>
      </trkpt>
      <trkpt lat="45.85786" lon="6.44207">
        <ele>1858.7</ele>
        <time>2024-04-27T12:22:41Z</time>
      </trkpt>
      <trkpt lat="45.85786" lon="6.44208">
        <ele>1858.7</ele>
        <time>2024-04-27T12:22:42Z</time>
      </trkpt>
      <trkpt lat="45.85785" lon="6.44209">
        <ele>1858.7</ele>
        <time>2024-04-27T12:22:43Z</time>
      </trkpt>
      <trkpt lat="45.85785" lon="6.44209">
        <ele>1858.7</ele>
        <time>2024-04-27T12:22:44Z</time>
      </trkpt>
      <trkpt lat="45.85785" lon="6.44209">
        <ele>1858.7</ele>
        <time>2024-04-27T12:22:45Z</time>
      </trkpt>
      <trkpt lat="45.85784" lon="6.4421">
        <ele>1859.6</ele>
        <time>2024-04-27T12:22:46Z</time>
      </trkpt>
      <trkpt lat="45.85784" lon="6.44211">
        <ele>1859.6</ele>
        <time>2024-04-27T12:22:47Z</time>
      </trkpt>
      <trkpt lat="45.85784" lon="6.44211">
        <ele>1859.6</ele>
        <time>2024-04-27T12:22:48Z</time>
      </trkpt>
      <trkpt lat="45.85784" lon="6.44212">
        <ele>1859.6</ele>
        <time>2024-04-27T12:22:49Z</time>
      </trkpt>
      <trkpt lat="45.85783" lon="6.44212">
        <ele>1859.6</ele>
        <time>2024-04-27T12:22:50Z</time>
      </trkpt>
      <trkpt lat="45.85783" lon="6.44213">
        <ele>1859.6</ele>
        <time>2024-04-27T12:22:51Z</time>
      </trkpt>
      <trkpt lat="45.85783" lon="6.44214">
        <ele>1860.7</ele>
        <time>2024-04-27T12:22:52Z</time>
      </trkpt>
      <trkpt lat="45.85783" lon="6.44214">
        <ele>1860.7</ele>
        <time>2024-04-27T12:22:53Z</time>
      </trkpt>
      <trkpt lat="45.85783" lon="6.44214">
        <ele>1860.7</ele>
        <time>2024-04-27T12:22:54Z</time>
      </trkpt>
      <trkpt lat="45.85783" lon="6.44215">
        <ele>1860.7</ele>
        <time>2024-04-27T12:22:55Z</time>
      </trkpt>
      <trkpt lat="45.85783" lon="6.44216">
        <ele>1861.6</ele>
        <time>2024-04-27T12:22:56Z</time>
      </trkpt>
      <trkpt lat="45.85783" lon="6.44216">
        <ele>1861.6</ele>
        <time>2024-04-27T12:22:57Z</time>
      </trkpt>
      <trkpt lat="45.85783" lon="6.44217">
        <ele>1861.6</ele>
        <time>2024-04-27T12:22:58Z</time>
      </trkpt>
      <trkpt lat="45.85782" lon="6.44217">
        <ele>1861.6</ele>
        <time>2024-04-27T12:22:59Z</time>
      </trkpt>
      <trkpt lat="45.85782" lon="6.44217">
        <ele>1862.7</ele>
        <time>2024-04-27T12:23:00Z</time>
      </trkpt>
      <trkpt lat="45.85782" lon="6.44218">
        <ele>1862.7</ele>
        <time>2024-04-27T12:23:01Z</time>
      </trkpt>
      <trkpt lat="45.85781" lon="6.44218">
        <ele>1862.7</ele>
        <time>2024-04-27T12:23:02Z</time>
      </trkpt>
      <trkpt lat="45.85781" lon="6.44219">
        <ele>1862.7</ele>
        <time>2024-04-27T12:23:03Z</time>
      </trkpt>
      <trkpt lat="45.85781" lon="6.44219">
        <ele>1863.7</ele>
        <time>2024-04-27T12:23:04Z</time>
      </trkpt>
      <trkpt lat="45.8578" lon="6.4422">
        <ele>1863.7</ele>
        <time>2024-04-27T12:23:05Z</time>
      </trkpt>
      <trkpt lat="45.8578" lon="6.4422">
        <ele>1863.7</ele>
        <time>2024-04-27T12:23:06Z</time>
      </trkpt>
      <trkpt lat="45.85779" lon="6.44221">
        <ele>1863.7</ele>
        <time>2024-04-27T12:23:07Z</time>
      </trkpt>
      <trkpt lat="45.85779" lon="6.44221">
        <ele>1864.6</ele>
        <time>2024-04-27T12:23:08Z</time>
      </trkpt>
      <trkpt lat="45.85778" lon="6.44221">
        <ele>1864.6</ele>
        <time>2024-04-27T12:23:09Z</time>
      </trkpt>
      <trkpt lat="45.85778" lon="6.44222">
        <ele>1864.6</ele>
        <time>2024-04-27T12:23:10Z</time>
      </trkpt>
      <trkpt lat="45.85777" lon="6.44223">
        <ele>1864.6</ele>
        <time>2024-04-27T12:23:11Z</time>
      </trkpt>
      <trkpt lat="45.85776" lon="6.44223">
        <ele>1865.7</ele>
        <time>2024-04-27T12:23:12Z</time>
      </trkpt>
      <trkpt lat="45.85775" lon="6.44223">
        <ele>1865.7</ele>
        <time>2024-04-27T12:23:13Z</time>
      </trkpt>
      <trkpt lat="45.85774" lon="6.44224">
        <ele>1865.7</ele>
        <time>2024-04-27T12:23:14Z</time>
      </trkpt>
      <trkpt lat="45.85774" lon="6.44224">
        <ele>1865.7</ele>
        <time>2024-04-27T12:23:15Z</time>
      </trkpt>
      <trkpt lat="45.85773" lon="6.44224">
        <ele>1866.6</ele>
        <time>2024-04-27T12:23:16Z</time>
      </trkpt>
      <trkpt lat="45.85773" lon="6.44225">
        <ele>1866.6</ele>
        <time>2024-04-27T12:23:17Z</time>
      </trkpt>
      <trkpt lat="45.85772" lon="6.44226">
        <ele>1866.6</ele>
        <time>2024-04-27T12:23:18Z</time>
      </trkpt>
      <trkpt lat="45.85771" lon="6.44226">
        <ele>1866.6</ele>
        <time>2024-04-27T12:23:19Z</time>
      </trkpt>
      <trkpt lat="45.85771" lon="6.44227">
        <ele>1866.6</ele>
        <time>2024-04-27T12:23:20Z</time>
      </trkpt>
      <trkpt lat="45.8577" lon="6.44227">
        <ele>1866.6</ele>
        <time>2024-04-27T12:23:21Z</time>
      </trkpt>
      <trkpt lat="45.8577" lon="6.44227">
        <ele>1866.6</ele>
        <time>2024-04-27T12:23:22Z</time>
      </trkpt>
      <trkpt lat="45.8577" lon="6.44227">
        <ele>1866.6</ele>
        <time>2024-04-27T12:23:23Z</time>
      </trkpt>
      <trkpt lat="45.8577" lon="6.44227">
        <ele>1867.7</ele>
        <time>2024-04-27T12:23:24Z</time>
      </trkpt>
      <trkpt lat="45.85771" lon="6.44227">
        <ele>1867.7</ele>
        <time>2024-04-27T12:23:25Z</time>
      </trkpt>
      <trkpt lat="45.85771" lon="6.44227">
        <ele>1867.7</ele>
        <time>2024-04-27T12:23:26Z</time>
      </trkpt>
      <trkpt lat="45.85771" lon="6.44227">
        <ele>1867.7</ele>
        <time>2024-04-27T12:23:27Z</time>
      </trkpt>
      <trkpt lat="45.85771" lon="6.44227">
        <ele>1867.7</ele>
        <time>2024-04-27T12:23:28Z</time>
      </trkpt>
      <trkpt lat="45.85772" lon="6.44227">
        <ele>1867.7</ele>
        <time>2024-04-27T12:23:29Z</time>
      </trkpt>
      <trkpt lat="45.85772" lon="6.44228">
        <ele>1867.7</ele>
        <time>2024-04-27T12:23:30Z</time>
      </trkpt>
      <trkpt lat="45.85772" lon="6.44228">
        <ele>1867.7</ele>
        <time>2024-04-27T12:23:31Z</time>
      </trkpt>
      <trkpt lat="45.85773" lon="6.44229">
        <ele>1868.6</ele>
        <time>2024-04-27T12:23:32Z</time>
      </trkpt>
      <trkpt lat="45.85773" lon="6.44229">
        <ele>1868.6</ele>
        <time>2024-04-27T12:23:33Z</time>
      </trkpt>
      <trkpt lat="45.85773" lon="6.4423">
        <ele>1868.6</ele>
        <time>2024-04-27T12:23:34Z</time>
      </trkpt>
      <trkpt lat="45.85774" lon="6.44231">
        <ele>1868.6</ele>
        <time>2024-04-27T12:23:35Z</time>
      </trkpt>
      <trkpt lat="45.85774" lon="6.44231">
        <ele>1869.7</ele>
        <time>2024-04-27T12:23:36Z</time>
      </trkpt>
      <trkpt lat="45.85775" lon="6.44232">
        <ele>1869.7</ele>
        <time>2024-04-27T12:23:37Z</time>
      </trkpt>
      <trkpt lat="45.85775" lon="6.44233">
        <ele>1869.7</ele>
        <time>2024-04-27T12:23:38Z</time>
      </trkpt>
      <trkpt lat="45.85775" lon="6.44234">
        <ele>1869.7</ele>
        <time>2024-04-27T12:23:39Z</time>
      </trkpt>
      <trkpt lat="45.85776" lon="6.44234">
        <ele>1870.6</ele>
        <time>2024-04-27T12:23:40Z</time>
      </trkpt>
      <trkpt lat="45.85776" lon="6.44235">
        <ele>1870.6</ele>
        <time>2024-04-27T12:23:41Z</time>
      </trkpt>
      <trkpt lat="45.85776" lon="6.44236">
        <ele>1870.6</ele>
        <time>2024-04-27T12:23:42Z</time>
      </trkpt>
      <trkpt lat="45.85777" lon="6.44236">
        <ele>1870.6</ele>
        <time>2024-04-27T12:23:43Z</time>
      </trkpt>
      <trkpt lat="45.85777" lon="6.44237">
        <ele>1870.6</ele>
        <time>2024-04-27T12:23:44Z</time>
      </trkpt>
      <trkpt lat="45.85777" lon="6.44237">
        <ele>1870.6</ele>
        <time>2024-04-27T12:23:45Z</time>
      </trkpt>
      <trkpt lat="45.85778" lon="6.44238">
        <ele>1870.6</ele>
        <time>2024-04-27T12:23:46Z</time>
      </trkpt>
      <trkpt lat="45.85778" lon="6.44238">
        <ele>1870.6</ele>
        <time>2024-04-27T12:23:47Z</time>
      </trkpt>
      <trkpt lat="45.85779" lon="6.44239">
        <ele>1871.6</ele>
        <time>2024-04-27T12:23:48Z</time>
      </trkpt>
      <trkpt lat="45.85779" lon="6.44239">
        <ele>1871.6</ele>
        <time>2024-04-27T12:23:49Z</time>
      </trkpt>
      <trkpt lat="45.8578" lon="6.4424">
        <ele>1871.6</ele>
        <time>2024-04-27T12:23:50Z</time>
      </trkpt>
      <trkpt lat="45.8578" lon="6.4424">
        <ele>1871.6</ele>
        <time>2024-04-27T12:23:51Z</time>
      </trkpt>
      <trkpt lat="45.8578" lon="6.4424">
        <ele>1871.6</ele>
        <time>2024-04-27T12:23:52Z</time>
      </trkpt>
      <trkpt lat="45.85781" lon="6.4424">
        <ele>1871.6</ele>
        <time>2024-04-27T12:23:53Z</time>
      </trkpt>
      <trkpt lat="45.85781" lon="6.4424">
        <ele>1871.6</ele>
        <time>2024-04-27T12:23:54Z</time>
      </trkpt>
      <trkpt lat="45.85781" lon="6.44241">
        <ele>1871.6</ele>
        <time>2024-04-27T12:23:55Z</time>
      </trkpt>
      <trkpt lat="45.85782" lon="6.44241">
        <ele>1872.7</ele>
        <time>2024-04-27T12:23:56Z</time>
      </trkpt>
      <trkpt lat="45.85782" lon="6.44242">
        <ele>1872.7</ele>
        <time>2024-04-27T12:23:57Z</time>
      </trkpt>
      <trkpt lat="45.85782" lon="6.44242">
        <ele>1872.7</ele>
        <time>2024-04-27T12:23:58Z</time>
      </trkpt>
      <trkpt lat="45.85783" lon="6.44242">
        <ele>1872.7</ele>
        <time>2024-04-27T12:23:59Z</time>
      </trkpt>
      <trkpt lat="45.85783" lon="6.44243">
        <ele>1872.7</ele>
        <time>2024-04-27T12:24:00Z</time>
      </trkpt>
      <trkpt lat="45.85784" lon="6.44243">
        <ele>1872.7</ele>
        <time>2024-04-27T12:24:01Z</time>
      </trkpt>
      <trkpt lat="45.85784" lon="6.44244">
        <ele>1872.7</ele>
        <time>2024-04-27T12:24:02Z</time>
      </trkpt>
      <trkpt lat="45.85785" lon="6.44244">
        <ele>1872.7</ele>
        <time>2024-04-27T12:24:03Z</time>
      </trkpt>
      <trkpt lat="45.85786" lon="6.44244">
        <ele>1873.6</ele>
        <time>2024-04-27T12:24:04Z</time>
      </trkpt>
      <trkpt lat="45.85786" lon="6.44245">
        <ele>1873.6</ele>
        <time>2024-04-27T12:24:05Z</time>
      </trkpt>
      <trkpt lat="45.85786" lon="6.44245">
        <ele>1873.6</ele>
        <time>2024-04-27T12:24:06Z</time>
      </trkpt>
      <trkpt lat="45.85787" lon="6.44245">
        <ele>1873.6</ele>
        <time>2024-04-27T12:24:07Z</time>
      </trkpt>
      <trkpt lat="45.85787" lon="6.44246">
        <ele>1873.6</ele>
        <time>2024-04-27T12:24:08Z</time>
      </trkpt>
      <trkpt lat="45.85787" lon="6.44246">
        <ele>1873.6</ele>
        <time>2024-04-27T12:24:09Z</time>
      </trkpt>
      <trkpt lat="45.85788" lon="6.44246">
        <ele>1873.6</ele>
        <time>2024-04-27T12:24:10Z</time>
      </trkpt>
      <trkpt lat="45.85788" lon="6.44246">
        <ele>1873.6</ele>
        <time>2024-04-27T12:24:11Z</time>
      </trkpt>
      <trkpt lat="45.85789" lon="6.44247">
        <ele>1874.7</ele>
        <time>2024-04-27T12:24:12Z</time>
      </trkpt>
      <trkpt lat="45.85789" lon="6.44247">
        <ele>1874.7</ele>
        <time>2024-04-27T12:24:13Z</time>
      </trkpt>
      <trkpt lat="45.85789" lon="6.44248">
        <ele>1874.7</ele>
        <time>2024-04-27T12:24:14Z</time>
      </trkpt>
      <trkpt lat="45.8579" lon="6.44248">
        <ele>1874.7</ele>
        <time>2024-04-27T12:24:15Z</time>
      </trkpt>
      <trkpt lat="45.8579" lon="6.44248">
        <ele>1874.7</ele>
        <time>2024-04-27T12:24:16Z</time>
      </trkpt>
      <trkpt lat="45.85791" lon="6.44249">
        <ele>1874.7</ele>
        <time>2024-04-27T12:24:17Z</time>
      </trkpt>
      <trkpt lat="45.85791" lon="6.44249">
        <ele>1875.6</ele>
        <time>2024-04-27T12:24:18Z</time>
      </trkpt>
      <trkpt lat="45.85792" lon="6.4425">
        <ele>1875.6</ele>
        <time>2024-04-27T12:24:19Z</time>
      </trkpt>
      <trkpt lat="45.85793" lon="6.4425">
        <ele>1876.7</ele>
        <time>2024-04-27T12:24:20Z</time>
      </trkpt>
      <trkpt lat="45.85793" lon="6.4425">
        <ele>1876.7</ele>
        <time>2024-04-27T12:24:21Z</time>
      </trkpt>
      <trkpt lat="45.85794" lon="6.4425">
        <ele>1876.7</ele>
        <time>2024-04-27T12:24:22Z</time>
      </trkpt>
      <trkpt lat="45.85794" lon="6.4425">
        <ele>1876.7</ele>
        <time>2024-04-27T12:24:23Z</time>
      </trkpt>
      <trkpt lat="45.85795" lon="6.4425">
        <ele>1876.7</ele>
        <time>2024-04-27T12:24:24Z</time>
      </trkpt>
      <trkpt lat="45.85795" lon="6.44251">
        <ele>1876.7</ele>
        <time>2024-04-27T12:24:25Z</time>
      </trkpt>
      <trkpt lat="45.85796" lon="6.44251">
        <ele>1877.6</ele>
        <time>2024-04-27T12:24:26Z</time>
      </trkpt>
      <trkpt lat="45.85797" lon="6.44251">
        <ele>1877.6</ele>
        <time>2024-04-27T12:24:27Z</time>
      </trkpt>
      <trkpt lat="45.85797" lon="6.44251">
        <ele>1877.6</ele>
        <time>2024-04-27T12:24:28Z</time>
      </trkpt>
      <trkpt lat="45.85798" lon="6.44251">
        <ele>1877.6</ele>
        <time>2024-04-27T12:24:29Z</time>
      </trkpt>
      <trkpt lat="45.85798" lon="6.44251">
        <ele>1877.6</ele>
        <time>2024-04-27T12:24:30Z</time>
      </trkpt>
      <trkpt lat="45.85799" lon="6.44251">
        <ele>1877.6</ele>
        <time>2024-04-27T12:24:31Z</time>
      </trkpt>
      <trkpt lat="45.85799" lon="6.44251">
        <ele>1878.7</ele>
        <time>2024-04-27T12:24:32Z</time>
      </trkpt>
      <trkpt lat="45.858" lon="6.44251">
        <ele>1878.7</ele>
        <time>2024-04-27T12:24:33Z</time>
      </trkpt>
      <trkpt lat="45.858" lon="6.44251">
        <ele>1878.7</ele>
        <time>2024-04-27T12:24:34Z</time>
      </trkpt>
      <trkpt lat="45.85801" lon="6.44252">
        <ele>1878.7</ele>
        <time>2024-04-27T12:24:35Z</time>
      </trkpt>
      <trkpt lat="45.85801" lon="6.44252">
        <ele>1879.6</ele>
        <time>2024-04-27T12:24:36Z</time>
      </trkpt>
      <trkpt lat="45.85801" lon="6.44253">
        <ele>1879.6</ele>
        <time>2024-04-27T12:24:37Z</time>
      </trkpt>
      <trkpt lat="45.85801" lon="6.44254">
        <ele>1880.6</ele>
        <time>2024-04-27T12:24:38Z</time>
      </trkpt>
      <trkpt lat="45.858" lon="6.44255">
        <ele>1880.6</ele>
        <time>2024-04-27T12:24:39Z</time>
      </trkpt>
      <trkpt lat="45.858" lon="6.44255">
        <ele>1880.6</ele>
        <time>2024-04-27T12:24:40Z</time>
      </trkpt>
      <trkpt lat="45.858" lon="6.44256">
        <ele>1880.6</ele>
        <time>2024-04-27T12:24:41Z</time>
      </trkpt>
      <trkpt lat="45.858" lon="6.44257">
        <ele>1881.7</ele>
        <time>2024-04-27T12:24:42Z</time>
      </trkpt>
      <trkpt lat="45.858" lon="6.44258">
        <ele>1881.7</ele>
        <time>2024-04-27T12:24:43Z</time>
      </trkpt>
      <trkpt lat="45.858" lon="6.44259">
        <ele>1881.7</ele>
        <time>2024-04-27T12:24:44Z</time>
      </trkpt>
      <trkpt lat="45.858" lon="6.44259">
        <ele>1881.7</ele>
        <time>2024-04-27T12:24:45Z</time>
      </trkpt>
      <trkpt lat="45.85799" lon="6.4426">
        <ele>1881.7</ele>
        <time>2024-04-27T12:24:46Z</time>
      </trkpt>
      <trkpt lat="45.85799" lon="6.44261">
        <ele>1881.7</ele>
        <time>2024-04-27T12:24:47Z</time>
      </trkpt>
      <trkpt lat="45.85799" lon="6.44262">
        <ele>1881.7</ele>
        <time>2024-04-27T12:24:48Z</time>
      </trkpt>
      <trkpt lat="45.85799" lon="6.44262">
        <ele>1881.7</ele>
        <time>2024-04-27T12:24:49Z</time>
      </trkpt>
      <trkpt lat="45.85799" lon="6.44263">
        <ele>1882.6</ele>
        <time>2024-04-27T12:24:50Z</time>
      </trkpt>
      <trkpt lat="45.85798" lon="6.44264">
        <ele>1882.6</ele>
        <time>2024-04-27T12:24:51Z</time>
      </trkpt>
      <trkpt lat="45.85798" lon="6.44265">
        <ele>1882.6</ele>
        <time>2024-04-27T12:24:52Z</time>
      </trkpt>
      <trkpt lat="45.85797" lon="6.44265">
        <ele>1882.6</ele>
        <time>2024-04-27T12:24:53Z</time>
      </trkpt>
      <trkpt lat="45.85797" lon="6.44266">
        <ele>1883.7</ele>
        <time>2024-04-27T12:24:54Z</time>
      </trkpt>
      <trkpt lat="45.85797" lon="6.44267">
        <ele>1883.7</ele>
        <time>2024-04-27T12:24:55Z</time>
      </trkpt>
      <trkpt lat="45.85797" lon="6.44267">
        <ele>1883.7</ele>
        <time>2024-04-27T12:24:56Z</time>
      </trkpt>
      <trkpt lat="45.85797" lon="6.44268">
        <ele>1883.7</ele>
        <time>2024-04-27T12:24:57Z</time>
      </trkpt>
      <trkpt lat="45.85797" lon="6.44268">
        <ele>1883.7</ele>
        <time>2024-04-27T12:24:58Z</time>
      </trkpt>
      <trkpt lat="45.85797" lon="6.44269">
        <ele>1883.7</ele>
        <time>2024-04-27T12:24:59Z</time>
      </trkpt>
      <trkpt lat="45.85798" lon="6.44268">
        <ele>1884.6</ele>
        <time>2024-04-27T12:25:00Z</time>
      </trkpt>
      <trkpt lat="45.85798" lon="6.44268">
        <ele>1884.6</ele>
        <time>2024-04-27T12:25:01Z</time>
      </trkpt>
      <trkpt lat="45.85798" lon="6.44268">
        <ele>1884.6</ele>
        <time>2024-04-27T12:25:02Z</time>
      </trkpt>
      <trkpt lat="45.85798" lon="6.44268">
        <ele>1884.6</ele>
        <time>2024-04-27T12:25:03Z</time>
      </trkpt>
      <trkpt lat="45.85798" lon="6.44268">
        <ele>1884.6</ele>
        <time>2024-04-27T12:25:04Z</time>
      </trkpt>
      <trkpt lat="45.85799" lon="6.44268">
        <ele>1884.6</ele>
        <time>2024-04-27T12:25:05Z</time>
      </trkpt>
      <trkpt lat="45.85799" lon="6.44268">
        <ele>1884.6</ele>
        <time>2024-04-27T12:25:06Z</time>
      </trkpt>
      <trkpt lat="45.858" lon="6.44269">
        <ele>1884.6</ele>
        <time>2024-04-27T12:25:07Z</time>
      </trkpt>
      <trkpt lat="45.85801" lon="6.44269">
        <ele>1884.6</ele>
        <time>2024-04-27T12:25:08Z</time>
      </trkpt>
      <trkpt lat="45.85801" lon="6.4427">
        <ele>1884.6</ele>
        <time>2024-04-27T12:25:09Z</time>
      </trkpt>
      <trkpt lat="45.85802" lon="6.4427">
        <ele>1885.7</ele>
        <time>2024-04-27T12:25:10Z</time>
      </trkpt>
      <trkpt lat="45.85803" lon="6.4427">
        <ele>1885.7</ele>
        <time>2024-04-27T12:25:11Z</time>
      </trkpt>
      <trkpt lat="45.85803" lon="6.4427">
        <ele>1885.7</ele>
        <time>2024-04-27T12:25:12Z</time>
      </trkpt>
      <trkpt lat="45.85804" lon="6.4427">
        <ele>1885.7</ele>
        <time>2024-04-27T12:25:13Z</time>
      </trkpt>
      <trkpt lat="45.85804" lon="6.4427">
        <ele>1885.7</ele>
        <time>2024-04-27T12:25:14Z</time>
      </trkpt>
      <trkpt lat="45.85804" lon="6.4427">
        <ele>1885.7</ele>
        <time>2024-04-27T12:25:15Z</time>
      </trkpt>
      <trkpt lat="45.85805" lon="6.4427">
        <ele>1885.7</ele>
        <time>2024-04-27T12:25:16Z</time>
      </trkpt>
      <trkpt lat="45.85805" lon="6.4427">
        <ele>1885.7</ele>
        <time>2024-04-27T12:25:17Z</time>
      </trkpt>
      <trkpt lat="45.85806" lon="6.4427">
        <ele>1886.6</ele>
        <time>2024-04-27T12:25:18Z</time>
      </trkpt>
      <trkpt lat="45.85806" lon="6.4427">
        <ele>1886.6</ele>
        <time>2024-04-27T12:25:19Z</time>
      </trkpt>
      <trkpt lat="45.85806" lon="6.4427">
        <ele>1886.6</ele>
        <time>2024-04-27T12:25:20Z</time>
      </trkpt>
      <trkpt lat="45.85807" lon="6.44271">
        <ele>1886.6</ele>
        <time>2024-04-27T12:25:21Z</time>
      </trkpt>
      <trkpt lat="45.85807" lon="6.44271">
        <ele>1886.6</ele>
        <time>2024-04-27T12:25:22Z</time>
      </trkpt>
      <trkpt lat="45.85807" lon="6.44271">
        <ele>1886.6</ele>
        <time>2024-04-27T12:25:23Z</time>
      </trkpt>
      <trkpt lat="45.85808" lon="6.44271">
        <ele>1886.6</ele>
        <time>2024-04-27T12:25:24Z</time>
      </trkpt>
      <trkpt lat="45.85808" lon="6.44271">
        <ele>1886.6</ele>
        <time>2024-04-27T12:25:25Z</time>
      </trkpt>
      <trkpt lat="45.85809" lon="6.44271">
        <ele>1886.6</ele>
        <time>2024-04-27T12:25:26Z</time>
      </trkpt>
      <trkpt lat="45.85809" lon="6.44271">
        <ele>1886.6</ele>
        <time>2024-04-27T12:25:27Z</time>
      </trkpt>
      <trkpt lat="45.8581" lon="6.44271">
        <ele>1887.6</ele>
        <time>2024-04-27T12:25:28Z</time>
      </trkpt>
      <trkpt lat="45.8581" lon="6.44271">
        <ele>1887.6</ele>
        <time>2024-04-27T12:25:29Z</time>
      </trkpt>
      <trkpt lat="45.8581" lon="6.44272">
        <ele>1887.6</ele>
        <time>2024-04-27T12:25:30Z</time>
      </trkpt>
      <trkpt lat="45.8581" lon="6.44272">
        <ele>1887.6</ele>
        <time>2024-04-27T12:25:31Z</time>
      </trkpt>
      <trkpt lat="45.8581" lon="6.44273">
        <ele>1887.6</ele>
        <time>2024-04-27T12:25:32Z</time>
      </trkpt>
      <trkpt lat="45.8581" lon="6.44273">
        <ele>1887.6</ele>
        <time>2024-04-27T12:25:33Z</time>
      </trkpt>
      <trkpt lat="45.85809" lon="6.44274">
        <ele>1887.6</ele>
        <time>2024-04-27T12:25:34Z</time>
      </trkpt>
      <trkpt lat="45.85809" lon="6.44274">
        <ele>1887.6</ele>
        <time>2024-04-27T12:25:35Z</time>
      </trkpt>
      <trkpt lat="45.85808" lon="6.44275">
        <ele>1890.7</ele>
        <time>2024-04-27T12:25:36Z</time>
      </trkpt>
      <trkpt lat="45.85808" lon="6.44276">
        <ele>1890.7</ele>
        <time>2024-04-27T12:25:37Z</time>
      </trkpt>
      <trkpt lat="45.85808" lon="6.44276">
        <ele>1890.7</ele>
        <time>2024-04-27T12:25:38Z</time>
      </trkpt>
      <trkpt lat="45.85808" lon="6.44277">
        <ele>1890.7</ele>
        <time>2024-04-27T12:25:39Z</time>
      </trkpt>
      <trkpt lat="45.85807" lon="6.44277">
        <ele>1890.7</ele>
        <time>2024-04-27T12:25:40Z</time>
      </trkpt>
      <trkpt lat="45.85807" lon="6.44278">
        <ele>1890.7</ele>
        <time>2024-04-27T12:25:41Z</time>
      </trkpt>
      <trkpt lat="45.85807" lon="6.44279">
        <ele>1891.6</ele>
        <time>2024-04-27T12:25:42Z</time>
      </trkpt>
      <trkpt lat="45.85807" lon="6.4428">
        <ele>1891.6</ele>
        <time>2024-04-27T12:25:43Z</time>
      </trkpt>
      <trkpt lat="45.85807" lon="6.4428">
        <ele>1891.6</ele>
        <time>2024-04-27T12:25:44Z</time>
      </trkpt>
      <trkpt lat="45.85806" lon="6.44282">
        <ele>1891.6</ele>
        <time>2024-04-27T12:25:45Z</time>
      </trkpt>
      <trkpt lat="45.85806" lon="6.44282">
        <ele>1892.7</ele>
        <time>2024-04-27T12:25:46Z</time>
      </trkpt>
      <trkpt lat="45.85806" lon="6.44283">
        <ele>1892.7</ele>
        <time>2024-04-27T12:25:47Z</time>
      </trkpt>
      <trkpt lat="45.85806" lon="6.44284">
        <ele>1892.7</ele>
        <time>2024-04-27T12:25:48Z</time>
      </trkpt>
      <trkpt lat="45.85806" lon="6.44284">
        <ele>1892.7</ele>
        <time>2024-04-27T12:25:49Z</time>
      </trkpt>
      <trkpt lat="45.85805" lon="6.44285">
        <ele>1892.7</ele>
        <time>2024-04-27T12:25:50Z</time>
      </trkpt>
      <trkpt lat="45.85805" lon="6.44286">
        <ele>1892.7</ele>
        <time>2024-04-27T12:25:51Z</time>
      </trkpt>
      <trkpt lat="45.85805" lon="6.44287">
        <ele>1892.7</ele>
        <time>2024-04-27T12:25:52Z</time>
      </trkpt>
      <trkpt lat="45.85805" lon="6.44288">
        <ele>1892.7</ele>
        <time>2024-04-27T12:25:53Z</time>
      </trkpt>
      <trkpt lat="45.85804" lon="6.44288">
        <ele>1892.7</ele>
        <time>2024-04-27T12:25:54Z</time>
      </trkpt>
      <trkpt lat="45.85804" lon="6.44289">
        <ele>1892.7</ele>
        <time>2024-04-27T12:25:55Z</time>
      </trkpt>
      <trkpt lat="45.85804" lon="6.44289">
        <ele>1892.7</ele>
        <time>2024-04-27T12:25:56Z</time>
      </trkpt>
      <trkpt lat="45.85803" lon="6.4429">
        <ele>1892.7</ele>
        <time>2024-04-27T12:25:57Z</time>
      </trkpt>
      <trkpt lat="45.85803" lon="6.44291">
        <ele>1892.7</ele>
        <time>2024-04-27T12:25:58Z</time>
      </trkpt>
      <trkpt lat="45.85803" lon="6.44291">
        <ele>1892.7</ele>
        <time>2024-04-27T12:25:59Z</time>
      </trkpt>
      <trkpt lat="45.85802" lon="6.44292">
        <ele>1892.7</ele>
        <time>2024-04-27T12:26:00Z</time>
      </trkpt>
      <trkpt lat="45.85802" lon="6.44292">
        <ele>1892.7</ele>
        <time>2024-04-27T12:26:01Z</time>
      </trkpt>
      <trkpt lat="45.85801" lon="6.44293">
        <ele>1893.6</ele>
        <time>2024-04-27T12:26:02Z</time>
      </trkpt>
      <trkpt lat="45.85801" lon="6.44293">
        <ele>1893.6</ele>
        <time>2024-04-27T12:26:03Z</time>
      </trkpt>
      <trkpt lat="45.85801" lon="6.44293">
        <ele>1893.6</ele>
        <time>2024-04-27T12:26:04Z</time>
      </trkpt>
      <trkpt lat="45.858" lon="6.44294">
        <ele>1893.6</ele>
        <time>2024-04-27T12:26:05Z</time>
      </trkpt>
      <trkpt lat="45.858" lon="6.44294">
        <ele>1893.6</ele>
        <time>2024-04-27T12:26:06Z</time>
      </trkpt>
      <trkpt lat="45.85799" lon="6.44295">
        <ele>1893.6</ele>
        <time>2024-04-27T12:26:07Z</time>
      </trkpt>
      <trkpt lat="45.85799" lon="6.44295">
        <ele>1893.6</ele>
        <time>2024-04-27T12:26:08Z</time>
      </trkpt>
      <trkpt lat="45.85798" lon="6.44296">
        <ele>1893.6</ele>
        <time>2024-04-27T12:26:09Z</time>
      </trkpt>
      <trkpt lat="45.85798" lon="6.44296">
        <ele>1893.6</ele>
        <time>2024-04-27T12:26:10Z</time>
      </trkpt>
      <trkpt lat="45.85798" lon="6.44296">
        <ele>1893.6</ele>
        <time>2024-04-27T12:26:11Z</time>
      </trkpt>
      <trkpt lat="45.85797" lon="6.44296">
        <ele>1893.6</ele>
        <time>2024-04-27T12:26:12Z</time>
      </trkpt>
      <trkpt lat="45.85797" lon="6.44297">
        <ele>1893.6</ele>
        <time>2024-04-27T12:26:13Z</time>
      </trkpt>
      <trkpt lat="45.85796" lon="6.44297">
        <ele>1895.6</ele>
        <time>2024-04-27T12:26:14Z</time>
      </trkpt>
      <trkpt lat="45.85796" lon="6.44297">
        <ele>1895.6</ele>
        <time>2024-04-27T12:26:15Z</time>
      </trkpt>
      <trkpt lat="45.85796" lon="6.44298">
        <ele>1895.6</ele>
        <time>2024-04-27T12:26:16Z</time>
      </trkpt>
      <trkpt lat="45.85796" lon="6.44298">
        <ele>1895.6</ele>
        <time>2024-04-27T12:26:17Z</time>
      </trkpt>
      <trkpt lat="45.85797" lon="6.44298">
        <ele>1895.6</ele>
        <time>2024-04-27T12:26:18Z</time>
      </trkpt>
      <trkpt lat="45.85797" lon="6.44298">
        <ele>1895.6</ele>
        <time>2024-04-27T12:26:19Z</time>
      </trkpt>
      <trkpt lat="45.85797" lon="6.44298">
        <ele>1895.6</ele>
        <time>2024-04-27T12:26:20Z</time>
      </trkpt>
      <trkpt lat="45.85798" lon="6.44299">
        <ele>1895.6</ele>
        <time>2024-04-27T12:26:21Z</time>
      </trkpt>
      <trkpt lat="45.85798" lon="6.443">
        <ele>1895.6</ele>
        <time>2024-04-27T12:26:22Z</time>
      </trkpt>
      <trkpt lat="45.85799" lon="6.443">
        <ele>1895.6</ele>
        <time>2024-04-27T12:26:23Z</time>
      </trkpt>
      <trkpt lat="45.85799" lon="6.44301">
        <ele>1896.6</ele>
        <time>2024-04-27T12:26:24Z</time>
      </trkpt>
      <trkpt lat="45.85799" lon="6.44301">
        <ele>1896.6</ele>
        <time>2024-04-27T12:26:25Z</time>
      </trkpt>
      <trkpt lat="45.858" lon="6.44301">
        <ele>1896.6</ele>
        <time>2024-04-27T12:26:26Z</time>
      </trkpt>
      <trkpt lat="45.858" lon="6.44302">
        <ele>1896.6</ele>
        <time>2024-04-27T12:26:27Z</time>
      </trkpt>
      <trkpt lat="45.85801" lon="6.44302">
        <ele>1896.6</ele>
        <time>2024-04-27T12:26:28Z</time>
      </trkpt>
      <trkpt lat="45.85801" lon="6.44302">
        <ele>1896.6</ele>
        <time>2024-04-27T12:26:29Z</time>
      </trkpt>
      <trkpt lat="45.85802" lon="6.44303">
        <ele>1896.6</ele>
        <time>2024-04-27T12:26:30Z</time>
      </trkpt>
      <trkpt lat="45.85802" lon="6.44304">
        <ele>1896.6</ele>
        <time>2024-04-27T12:26:31Z</time>
      </trkpt>
      <trkpt lat="45.85802" lon="6.44303">
        <ele>1896.6</ele>
        <time>2024-04-27T12:26:32Z</time>
      </trkpt>
      <trkpt lat="45.85802" lon="6.44304">
        <ele>1896.6</ele>
        <time>2024-04-27T12:26:33Z</time>
      </trkpt>
      <trkpt lat="45.85802" lon="6.44304">
        <ele>1896.6</ele>
        <time>2024-04-27T12:26:34Z</time>
      </trkpt>
      <trkpt lat="45.85802" lon="6.44304">
        <ele>1896.6</ele>
        <time>2024-04-27T12:26:35Z</time>
      </trkpt>
      <trkpt lat="45.85803" lon="6.44304">
        <ele>1896.6</ele>
        <time>2024-04-27T12:26:36Z</time>
      </trkpt>
      <trkpt lat="45.85803" lon="6.44303">
        <ele>1896.6</ele>
        <time>2024-04-27T12:26:37Z</time>
      </trkpt>
      <trkpt lat="45.85803" lon="6.44303">
        <ele>1896.6</ele>
        <time>2024-04-27T12:26:38Z</time>
      </trkpt>
      <trkpt lat="45.85804" lon="6.44304">
        <ele>1896.6</ele>
        <time>2024-04-27T12:26:39Z</time>
      </trkpt>
      <trkpt lat="45.85805" lon="6.44304">
        <ele>1896.6</ele>
        <time>2024-04-27T12:26:40Z</time>
      </trkpt>
      <trkpt lat="45.85805" lon="6.44305">
        <ele>1896.6</ele>
        <time>2024-04-27T12:26:41Z</time>
      </trkpt>
      <trkpt lat="45.85805" lon="6.44305">
        <ele>1897.7</ele>
        <time>2024-04-27T12:26:42Z</time>
      </trkpt>
      <trkpt lat="45.85805" lon="6.44306">
        <ele>1897.7</ele>
        <time>2024-04-27T12:26:43Z</time>
      </trkpt>
      <trkpt lat="45.85805" lon="6.44306">
        <ele>1898.6</ele>
        <time>2024-04-27T12:26:44Z</time>
      </trkpt>
      <trkpt lat="45.85805" lon="6.44307">
        <ele>1898.6</ele>
        <time>2024-04-27T12:26:45Z</time>
      </trkpt>
      <trkpt lat="45.85805" lon="6.44308">
        <ele>1898.6</ele>
        <time>2024-04-27T12:26:46Z</time>
      </trkpt>
      <trkpt lat="45.85805" lon="6.44309">
        <ele>1898.6</ele>
        <time>2024-04-27T12:26:47Z</time>
      </trkpt>
      <trkpt lat="45.85804" lon="6.44309">
        <ele>1898.6</ele>
        <time>2024-04-27T12:26:48Z</time>
      </trkpt>
      <trkpt lat="45.85804" lon="6.4431">
        <ele>1898.6</ele>
        <time>2024-04-27T12:26:49Z</time>
      </trkpt>
      <trkpt lat="45.85804" lon="6.44311">
        <ele>1899.7</ele>
        <time>2024-04-27T12:26:50Z</time>
      </trkpt>
      <trkpt lat="45.85804" lon="6.44312">
        <ele>1899.7</ele>
        <time>2024-04-27T12:26:51Z</time>
      </trkpt>
      <trkpt lat="45.85803" lon="6.44312">
        <ele>1899.7</ele>
        <time>2024-04-27T12:26:52Z</time>
      </trkpt>
      <trkpt lat="45.85803" lon="6.44313">
        <ele>1899.7</ele>
        <time>2024-04-27T12:26:53Z</time>
      </trkpt>
      <trkpt lat="45.85802" lon="6.44313">
        <ele>1900.6</ele>
        <time>2024-04-27T12:26:54Z</time>
      </trkpt>
      <trkpt lat="45.85802" lon="6.44314">
        <ele>1900.6</ele>
        <time>2024-04-27T12:26:55Z</time>
      </trkpt>
      <trkpt lat="45.85801" lon="6.44314">
        <ele>1900.6</ele>
        <time>2024-04-27T12:26:56Z</time>
      </trkpt>
      <trkpt lat="45.85801" lon="6.44315">
        <ele>1900.6</ele>
        <time>2024-04-27T12:26:57Z</time>
      </trkpt>
      <trkpt lat="45.858" lon="6.44315">
        <ele>1900.6</ele>
        <time>2024-04-27T12:26:58Z</time>
      </trkpt>
      <trkpt lat="45.858" lon="6.44315">
        <ele>1900.6</ele>
        <time>2024-04-27T12:26:59Z</time>
      </trkpt>
      <trkpt lat="45.85799" lon="6.44316">
        <ele>1900.6</ele>
        <time>2024-04-27T12:27:00Z</time>
      </trkpt>
      <trkpt lat="45.85799" lon="6.44316">
        <ele>1900.6</ele>
        <time>2024-04-27T12:27:01Z</time>
      </trkpt>
      <trkpt lat="45.85798" lon="6.44317">
        <ele>1901.7</ele>
        <time>2024-04-27T12:27:02Z</time>
      </trkpt>
      <trkpt lat="45.85798" lon="6.44318">
        <ele>1901.7</ele>
        <time>2024-04-27T12:27:03Z</time>
      </trkpt>
      <trkpt lat="45.85798" lon="6.44319">
        <ele>1901.7</ele>
        <time>2024-04-27T12:27:04Z</time>
      </trkpt>
      <trkpt lat="45.85798" lon="6.44319">
        <ele>1901.7</ele>
        <time>2024-04-27T12:27:05Z</time>
      </trkpt>
      <trkpt lat="45.85798" lon="6.4432">
        <ele>1901.7</ele>
        <time>2024-04-27T12:27:06Z</time>
      </trkpt>
      <trkpt lat="45.85798" lon="6.44321">
        <ele>1901.7</ele>
        <time>2024-04-27T12:27:07Z</time>
      </trkpt>
      <trkpt lat="45.85798" lon="6.44322">
        <ele>1901.7</ele>
        <time>2024-04-27T12:27:08Z</time>
      </trkpt>
      <trkpt lat="45.85798" lon="6.44323">
        <ele>1901.7</ele>
        <time>2024-04-27T12:27:09Z</time>
      </trkpt>
      <trkpt lat="45.85798" lon="6.44323">
        <ele>1902.6</ele>
        <time>2024-04-27T12:27:10Z</time>
      </trkpt>
      <trkpt lat="45.85799" lon="6.44324">
        <ele>1902.6</ele>
        <time>2024-04-27T12:27:11Z</time>
      </trkpt>
      <trkpt lat="45.85799" lon="6.44324">
        <ele>1902.6</ele>
        <time>2024-04-27T12:27:12Z</time>
      </trkpt>
      <trkpt lat="45.858" lon="6.44325">
        <ele>1902.6</ele>
        <time>2024-04-27T12:27:13Z</time>
      </trkpt>
      <trkpt lat="45.858" lon="6.44325">
        <ele>1902.6</ele>
        <time>2024-04-27T12:27:14Z</time>
      </trkpt>
      <trkpt lat="45.858" lon="6.44326">
        <ele>1902.6</ele>
        <time>2024-04-27T12:27:15Z</time>
      </trkpt>
      <trkpt lat="45.858" lon="6.44326">
        <ele>1903.7</ele>
        <time>2024-04-27T12:27:16Z</time>
      </trkpt>
      <trkpt lat="45.85801" lon="6.44326">
        <ele>1903.7</ele>
        <time>2024-04-27T12:27:17Z</time>
      </trkpt>
      <trkpt lat="45.85801" lon="6.44326">
        <ele>1903.7</ele>
        <time>2024-04-27T12:27:18Z</time>
      </trkpt>
      <trkpt lat="45.85802" lon="6.44327">
        <ele>1903.7</ele>
        <time>2024-04-27T12:27:19Z</time>
      </trkpt>
      <trkpt lat="45.85802" lon="6.44327">
        <ele>1903.7</ele>
        <time>2024-04-27T12:27:20Z</time>
      </trkpt>
      <trkpt lat="45.85802" lon="6.44327">
        <ele>1903.7</ele>
        <time>2024-04-27T12:27:21Z</time>
      </trkpt>
      <trkpt lat="45.85803" lon="6.44327">
        <ele>1903.7</ele>
        <time>2024-04-27T12:27:22Z</time>
      </trkpt>
      <trkpt lat="45.85803" lon="6.44328">
        <ele>1903.7</ele>
        <time>2024-04-27T12:27:23Z</time>
      </trkpt>
      <trkpt lat="45.85804" lon="6.44328">
        <ele>1904.7</ele>
        <time>2024-04-27T12:27:24Z</time>
      </trkpt>
      <trkpt lat="45.85804" lon="6.44328">
        <ele>1904.7</ele>
        <time>2024-04-27T12:27:25Z</time>
      </trkpt>
      <trkpt lat="45.85805" lon="6.44328">
        <ele>1904.7</ele>
        <time>2024-04-27T12:27:26Z</time>
      </trkpt>
      <trkpt lat="45.85805" lon="6.44328">
        <ele>1904.7</ele>
        <time>2024-04-27T12:27:27Z</time>
      </trkpt>
      <trkpt lat="45.85806" lon="6.44328">
        <ele>1904.7</ele>
        <time>2024-04-27T12:27:28Z</time>
      </trkpt>
      <trkpt lat="45.85806" lon="6.44328">
        <ele>1904.7</ele>
        <time>2024-04-27T12:27:29Z</time>
      </trkpt>
      <trkpt lat="45.85807" lon="6.44328">
        <ele>1905.6</ele>
        <time>2024-04-27T12:27:30Z</time>
      </trkpt>
      <trkpt lat="45.85807" lon="6.44329">
        <ele>1905.6</ele>
        <time>2024-04-27T12:27:31Z</time>
      </trkpt>
      <trkpt lat="45.85807" lon="6.44329">
        <ele>1906.7</ele>
        <time>2024-04-27T12:27:32Z</time>
      </trkpt>
      <trkpt lat="45.85808" lon="6.4433">
        <ele>1906.7</ele>
        <time>2024-04-27T12:27:33Z</time>
      </trkpt>
      <trkpt lat="45.85809" lon="6.4433">
        <ele>1906.7</ele>
        <time>2024-04-27T12:27:34Z</time>
      </trkpt>
      <trkpt lat="45.85809" lon="6.4433">
        <ele>1906.7</ele>
        <time>2024-04-27T12:27:35Z</time>
      </trkpt>
      <trkpt lat="45.8581" lon="6.44331">
        <ele>1906.7</ele>
        <time>2024-04-27T12:27:36Z</time>
      </trkpt>
      <trkpt lat="45.85811" lon="6.44331">
        <ele>1906.7</ele>
        <time>2024-04-27T12:27:37Z</time>
      </trkpt>
      <trkpt lat="45.85811" lon="6.44331">
        <ele>1907.6</ele>
        <time>2024-04-27T12:27:38Z</time>
      </trkpt>
      <trkpt lat="45.85812" lon="6.44332">
        <ele>1907.6</ele>
        <time>2024-04-27T12:27:39Z</time>
      </trkpt>
      <trkpt lat="45.85812" lon="6.44332">
        <ele>1907.6</ele>
        <time>2024-04-27T12:27:40Z</time>
      </trkpt>
      <trkpt lat="45.85813" lon="6.44332">
        <ele>1907.6</ele>
        <time>2024-04-27T12:27:41Z</time>
      </trkpt>
      <trkpt lat="45.85814" lon="6.44332">
        <ele>1907.6</ele>
        <time>2024-04-27T12:27:42Z</time>
      </trkpt>
      <trkpt lat="45.85814" lon="6.44332">
        <ele>1907.6</ele>
        <time>2024-04-27T12:27:43Z</time>
      </trkpt>
      <trkpt lat="45.85814" lon="6.44332">
        <ele>1908.7</ele>
        <time>2024-04-27T12:27:44Z</time>
      </trkpt>
      <trkpt lat="45.85815" lon="6.44332">
        <ele>1908.7</ele>
        <time>2024-04-27T12:27:45Z</time>
      </trkpt>
      <trkpt lat="45.85815" lon="6.44332">
        <ele>1908.7</ele>
        <time>2024-04-27T12:27:46Z</time>
      </trkpt>
      <trkpt lat="45.85816" lon="6.44332">
        <ele>1908.7</ele>
        <time>2024-04-27T12:27:47Z</time>
      </trkpt>
      <trkpt lat="45.85817" lon="6.44332">
        <ele>1909.6</ele>
        <time>2024-04-27T12:27:48Z</time>
      </trkpt>
      <trkpt lat="45.85817" lon="6.44333">
        <ele>1909.6</ele>
        <time>2024-04-27T12:27:49Z</time>
      </trkpt>
      <trkpt lat="45.85818" lon="6.44333">
        <ele>1909.6</ele>
        <time>2024-04-27T12:27:50Z</time>
      </trkpt>
      <trkpt lat="45.85818" lon="6.44333">
        <ele>1909.6</ele>
        <time>2024-04-27T12:27:51Z</time>
      </trkpt>
      <trkpt lat="45.85819" lon="6.44334">
        <ele>1910.7</ele>
        <time>2024-04-27T12:27:52Z</time>
      </trkpt>
      <trkpt lat="45.8582" lon="6.44334">
        <ele>1910.7</ele>
        <time>2024-04-27T12:27:53Z</time>
      </trkpt>
      <trkpt lat="45.8582" lon="6.44334">
        <ele>1910.7</ele>
        <time>2024-04-27T12:27:54Z</time>
      </trkpt>
      <trkpt lat="45.85821" lon="6.44334">
        <ele>1910.7</ele>
        <time>2024-04-27T12:27:55Z</time>
      </trkpt>
      <trkpt lat="45.85821" lon="6.44334">
        <ele>1910.7</ele>
        <time>2024-04-27T12:27:56Z</time>
      </trkpt>
      <trkpt lat="45.85822" lon="6.44334">
        <ele>1910.7</ele>
        <time>2024-04-27T12:27:57Z</time>
      </trkpt>
      <trkpt lat="45.85822" lon="6.44334">
        <ele>1910.7</ele>
        <time>2024-04-27T12:27:58Z</time>
      </trkpt>
      <trkpt lat="45.85823" lon="6.44334">
        <ele>1910.7</ele>
        <time>2024-04-27T12:27:59Z</time>
      </trkpt>
      <trkpt lat="45.85823" lon="6.44334">
        <ele>1911.6</ele>
        <time>2024-04-27T12:28:00Z</time>
      </trkpt>
      <trkpt lat="45.85824" lon="6.44334">
        <ele>1911.6</ele>
        <time>2024-04-27T12:28:01Z</time>
      </trkpt>
      <trkpt lat="45.85824" lon="6.44334">
        <ele>1911.6</ele>
        <time>2024-04-27T12:28:02Z</time>
      </trkpt>
      <trkpt lat="45.85825" lon="6.44334">
        <ele>1911.6</ele>
        <time>2024-04-27T12:28:03Z</time>
      </trkpt>
      <trkpt lat="45.85826" lon="6.44334">
        <ele>1911.6</ele>
        <time>2024-04-27T12:28:04Z</time>
      </trkpt>
      <trkpt lat="45.85826" lon="6.44334">
        <ele>1911.6</ele>
        <time>2024-04-27T12:28:05Z</time>
      </trkpt>
      <trkpt lat="45.85827" lon="6.44334">
        <ele>1911.6</ele>
        <time>2024-04-27T12:28:06Z</time>
      </trkpt>
      <trkpt lat="45.85828" lon="6.44334">
        <ele>1911.6</ele>
        <time>2024-04-27T12:28:07Z</time>
      </trkpt>
      <trkpt lat="45.85828" lon="6.44334">
        <ele>1911.6</ele>
        <time>2024-04-27T12:28:08Z</time>
      </trkpt>
      <trkpt lat="45.85829" lon="6.44334">
        <ele>1911.6</ele>
        <time>2024-04-27T12:28:09Z</time>
      </trkpt>
      <trkpt lat="45.85829" lon="6.44334">
        <ele>1912.6</ele>
        <time>2024-04-27T12:28:10Z</time>
      </trkpt>
      <trkpt lat="45.8583" lon="6.44334">
        <ele>1912.6</ele>
        <time>2024-04-27T12:28:11Z</time>
      </trkpt>
      <trkpt lat="45.8583" lon="6.44334">
        <ele>1912.6</ele>
        <time>2024-04-27T12:28:12Z</time>
      </trkpt>
      <trkpt lat="45.85831" lon="6.44334">
        <ele>1912.6</ele>
        <time>2024-04-27T12:28:13Z</time>
      </trkpt>
      <trkpt lat="45.85831" lon="6.44334">
        <ele>1913.7</ele>
        <time>2024-04-27T12:28:14Z</time>
      </trkpt>
      <trkpt lat="45.85832" lon="6.44335">
        <ele>1913.7</ele>
        <time>2024-04-27T12:28:15Z</time>
      </trkpt>
      <trkpt lat="45.85832" lon="6.44335">
        <ele>1913.7</ele>
        <time>2024-04-27T12:28:16Z</time>
      </trkpt>
      <trkpt lat="45.85833" lon="6.44335">
        <ele>1913.7</ele>
        <time>2024-04-27T12:28:17Z</time>
      </trkpt>
      <trkpt lat="45.85833" lon="6.44336">
        <ele>1913.7</ele>
        <time>2024-04-27T12:28:18Z</time>
      </trkpt>
      <trkpt lat="45.85834" lon="6.44336">
        <ele>1913.7</ele>
        <time>2024-04-27T12:28:19Z</time>
      </trkpt>
      <trkpt lat="45.85835" lon="6.44336">
        <ele>1914.6</ele>
        <time>2024-04-27T12:28:20Z</time>
      </trkpt>
      <trkpt lat="45.85835" lon="6.44336">
        <ele>1914.6</ele>
        <time>2024-04-27T12:28:21Z</time>
      </trkpt>
      <trkpt lat="45.85836" lon="6.44337">
        <ele>1914.6</ele>
        <time>2024-04-27T12:28:22Z</time>
      </trkpt>
      <trkpt lat="45.85837" lon="6.44337">
        <ele>1914.6</ele>
        <time>2024-04-27T12:28:23Z</time>
      </trkpt>
      <trkpt lat="45.85837" lon="6.44337">
        <ele>1914.6</ele>
        <time>2024-04-27T12:28:24Z</time>
      </trkpt>
      <trkpt lat="45.85837" lon="6.44337">
        <ele>1914.6</ele>
        <time>2024-04-27T12:28:25Z</time>
      </trkpt>
      <trkpt lat="45.85838" lon="6.44337">
        <ele>1915.7</ele>
        <time>2024-04-27T12:28:26Z</time>
      </trkpt>
      <trkpt lat="45.85838" lon="6.44337">
        <ele>1915.7</ele>
        <time>2024-04-27T12:28:27Z</time>
      </trkpt>
      <trkpt lat="45.85838" lon="6.44335">
        <ele>1915.7</ele>
        <time>2024-04-27T12:28:28Z</time>
      </trkpt>
      <trkpt lat="45.85839" lon="6.44335">
        <ele>1915.7</ele>
        <time>2024-04-27T12:28:29Z</time>
      </trkpt>
      <trkpt lat="45.85839" lon="6.44335">
        <ele>1915.7</ele>
        <time>2024-04-27T12:28:30Z</time>
      </trkpt>
      <trkpt lat="45.85839" lon="6.44336">
        <ele>1915.7</ele>
        <time>2024-04-27T12:28:31Z</time>
      </trkpt>
      <trkpt lat="45.8584" lon="6.44337">
        <ele>1915.7</ele>
        <time>2024-04-27T12:28:32Z</time>
      </trkpt>
      <trkpt lat="45.85841" lon="6.44338">
        <ele>1915.7</ele>
        <time>2024-04-27T12:28:33Z</time>
      </trkpt>
      <trkpt lat="45.85841" lon="6.44338">
        <ele>1917.7</ele>
        <time>2024-04-27T12:28:34Z</time>
      </trkpt>
      <trkpt lat="45.85842" lon="6.44338">
        <ele>1917.7</ele>
        <time>2024-04-27T12:28:35Z</time>
      </trkpt>
      <trkpt lat="45.85842" lon="6.44338">
        <ele>1917.7</ele>
        <time>2024-04-27T12:28:36Z</time>
      </trkpt>
      <trkpt lat="45.85843" lon="6.44338">
        <ele>1917.7</ele>
        <time>2024-04-27T12:28:37Z</time>
      </trkpt>
      <trkpt lat="45.85843" lon="6.44339">
        <ele>1917.7</ele>
        <time>2024-04-27T12:28:38Z</time>
      </trkpt>
      <trkpt lat="45.85843" lon="6.44339">
        <ele>1917.7</ele>
        <time>2024-04-27T12:28:39Z</time>
      </trkpt>
      <trkpt lat="45.85844" lon="6.44339">
        <ele>1917.7</ele>
        <time>2024-04-27T12:28:40Z</time>
      </trkpt>
      <trkpt lat="45.85844" lon="6.4434">
        <ele>1917.7</ele>
        <time>2024-04-27T12:28:41Z</time>
      </trkpt>
      <trkpt lat="45.85844" lon="6.4434">
        <ele>1917.7</ele>
        <time>2024-04-27T12:28:42Z</time>
      </trkpt>
      <trkpt lat="45.85845" lon="6.44341">
        <ele>1917.7</ele>
        <time>2024-04-27T12:28:43Z</time>
      </trkpt>
      <trkpt lat="45.85845" lon="6.44341">
        <ele>1917.7</ele>
        <time>2024-04-27T12:28:44Z</time>
      </trkpt>
      <trkpt lat="45.85846" lon="6.44341">
        <ele>1917.7</ele>
        <time>2024-04-27T12:28:45Z</time>
      </trkpt>
      <trkpt lat="45.85846" lon="6.44341">
        <ele>1918.6</ele>
        <time>2024-04-27T12:28:46Z</time>
      </trkpt>
      <trkpt lat="45.85847" lon="6.44342">
        <ele>1918.6</ele>
        <time>2024-04-27T12:28:47Z</time>
      </trkpt>
      <trkpt lat="45.85847" lon="6.44342">
        <ele>1918.6</ele>
        <time>2024-04-27T12:28:48Z</time>
      </trkpt>
      <trkpt lat="45.85847" lon="6.44342">
        <ele>1918.6</ele>
        <time>2024-04-27T12:28:49Z</time>
      </trkpt>
      <trkpt lat="45.85848" lon="6.44342">
        <ele>1919.7</ele>
        <time>2024-04-27T12:28:50Z</time>
      </trkpt>
      <trkpt lat="45.85848" lon="6.44343">
        <ele>1919.7</ele>
        <time>2024-04-27T12:28:51Z</time>
      </trkpt>
      <trkpt lat="45.85849" lon="6.44343">
        <ele>1919.7</ele>
        <time>2024-04-27T12:28:52Z</time>
      </trkpt>
      <trkpt lat="45.85849" lon="6.44343">
        <ele>1919.7</ele>
        <time>2024-04-27T12:28:53Z</time>
      </trkpt>
      <trkpt lat="45.8585" lon="6.44344">
        <ele>1920.7</ele>
        <time>2024-04-27T12:28:54Z</time>
      </trkpt>
      <trkpt lat="45.85851" lon="6.44344">
        <ele>1920.7</ele>
        <time>2024-04-27T12:28:55Z</time>
      </trkpt>
      <trkpt lat="45.85851" lon="6.44345">
        <ele>1920.7</ele>
        <time>2024-04-27T12:28:56Z</time>
      </trkpt>
      <trkpt lat="45.85852" lon="6.44347">
        <ele>1920.7</ele>
        <time>2024-04-27T12:28:57Z</time>
      </trkpt>
      <trkpt lat="45.85851" lon="6.44348">
        <ele>1921.6</ele>
        <time>2024-04-27T12:28:58Z</time>
      </trkpt>
      <trkpt lat="45.85851" lon="6.44349">
        <ele>1921.6</ele>
        <time>2024-04-27T12:28:59Z</time>
      </trkpt>
      <trkpt lat="45.85851" lon="6.44349">
        <ele>1921.6</ele>
        <time>2024-04-27T12:29:00Z</time>
      </trkpt>
      <trkpt lat="45.85851" lon="6.44351">
        <ele>1921.6</ele>
        <time>2024-04-27T12:29:01Z</time>
      </trkpt>
      <trkpt lat="45.85851" lon="6.44351">
        <ele>1922.7</ele>
        <time>2024-04-27T12:29:02Z</time>
      </trkpt>
      <trkpt lat="45.85851" lon="6.44352">
        <ele>1922.7</ele>
        <time>2024-04-27T12:29:03Z</time>
      </trkpt>
      <trkpt lat="45.85851" lon="6.44353">
        <ele>1922.7</ele>
        <time>2024-04-27T12:29:04Z</time>
      </trkpt>
      <trkpt lat="45.85851" lon="6.44354">
        <ele>1922.7</ele>
        <time>2024-04-27T12:29:05Z</time>
      </trkpt>
      <trkpt lat="45.85851" lon="6.44355">
        <ele>1923.6</ele>
        <time>2024-04-27T12:29:06Z</time>
      </trkpt>
      <trkpt lat="45.8585" lon="6.44355">
        <ele>1923.6</ele>
        <time>2024-04-27T12:29:07Z</time>
      </trkpt>
      <trkpt lat="45.85851" lon="6.44356">
        <ele>1923.6</ele>
        <time>2024-04-27T12:29:08Z</time>
      </trkpt>
      <trkpt lat="45.85851" lon="6.44357">
        <ele>1923.6</ele>
        <time>2024-04-27T12:29:09Z</time>
      </trkpt>
      <trkpt lat="45.85851" lon="6.44358">
        <ele>1923.6</ele>
        <time>2024-04-27T12:29:10Z</time>
      </trkpt>
      <trkpt lat="45.85851" lon="6.44358">
        <ele>1923.6</ele>
        <time>2024-04-27T12:29:11Z</time>
      </trkpt>
      <trkpt lat="45.85851" lon="6.44358">
        <ele>1924.7</ele>
        <time>2024-04-27T12:29:12Z</time>
      </trkpt>
      <trkpt lat="45.85851" lon="6.44359">
        <ele>1924.7</ele>
        <time>2024-04-27T12:29:13Z</time>
      </trkpt>
      <trkpt lat="45.85851" lon="6.44359">
        <ele>1924.7</ele>
        <time>2024-04-27T12:29:14Z</time>
      </trkpt>
      <trkpt lat="45.85851" lon="6.4436">
        <ele>1924.7</ele>
        <time>2024-04-27T12:29:15Z</time>
      </trkpt>
      <trkpt lat="45.8585" lon="6.44361">
        <ele>1924.7</ele>
        <time>2024-04-27T12:29:16Z</time>
      </trkpt>
      <trkpt lat="45.8585" lon="6.44362">
        <ele>1924.7</ele>
        <time>2024-04-27T12:29:17Z</time>
      </trkpt>
      <trkpt lat="45.8585" lon="6.44363">
        <ele>1925.6</ele>
        <time>2024-04-27T12:29:18Z</time>
      </trkpt>
      <trkpt lat="45.8585" lon="6.44364">
        <ele>1925.6</ele>
        <time>2024-04-27T12:29:19Z</time>
      </trkpt>
      <trkpt lat="45.8585" lon="6.44364">
        <ele>1925.6</ele>
        <time>2024-04-27T12:29:20Z</time>
      </trkpt>
      <trkpt lat="45.85849" lon="6.44365">
        <ele>1925.6</ele>
        <time>2024-04-27T12:29:21Z</time>
      </trkpt>
      <trkpt lat="45.85849" lon="6.44366">
        <ele>1925.6</ele>
        <time>2024-04-27T12:29:22Z</time>
      </trkpt>
      <trkpt lat="45.85849" lon="6.44367">
        <ele>1925.6</ele>
        <time>2024-04-27T12:29:23Z</time>
      </trkpt>
      <trkpt lat="45.85849" lon="6.44368">
        <ele>1925.6</ele>
        <time>2024-04-27T12:29:24Z</time>
      </trkpt>
      <trkpt lat="45.85849" lon="6.44369">
        <ele>1925.6</ele>
        <time>2024-04-27T12:29:25Z</time>
      </trkpt>
      <trkpt lat="45.85849" lon="6.4437">
        <ele>1926.7</ele>
        <time>2024-04-27T12:29:26Z</time>
      </trkpt>
      <trkpt lat="45.85849" lon="6.4437">
        <ele>1926.7</ele>
        <time>2024-04-27T12:29:27Z</time>
      </trkpt>
      <trkpt lat="45.85849" lon="6.44371">
        <ele>1926.7</ele>
        <time>2024-04-27T12:29:28Z</time>
      </trkpt>
      <trkpt lat="45.85849" lon="6.44372">
        <ele>1926.7</ele>
        <time>2024-04-27T12:29:29Z</time>
      </trkpt>
      <trkpt lat="45.85849" lon="6.44373">
        <ele>1927.6</ele>
        <time>2024-04-27T12:29:30Z</time>
      </trkpt>
      <trkpt lat="45.8585" lon="6.44374">
        <ele>1927.6</ele>
        <time>2024-04-27T12:29:31Z</time>
      </trkpt>
      <trkpt lat="45.8585" lon="6.44376">
        <ele>1927.6</ele>
        <time>2024-04-27T12:29:32Z</time>
      </trkpt>
      <trkpt lat="45.8585" lon="6.44376">
        <ele>1927.6</ele>
        <time>2024-04-27T12:29:33Z</time>
      </trkpt>
      <trkpt lat="45.85849" lon="6.44377">
        <ele>1927.6</ele>
        <time>2024-04-27T12:29:34Z</time>
      </trkpt>
      <trkpt lat="45.85849" lon="6.44378">
        <ele>1927.6</ele>
        <time>2024-04-27T12:29:35Z</time>
      </trkpt>
      <trkpt lat="45.85848" lon="6.44379">
        <ele>1927.6</ele>
        <time>2024-04-27T12:29:36Z</time>
      </trkpt>
      <trkpt lat="45.85848" lon="6.4438">
        <ele>1927.6</ele>
        <time>2024-04-27T12:29:37Z</time>
      </trkpt>
      <trkpt lat="45.85848" lon="6.44382">
        <ele>1928.6</ele>
        <time>2024-04-27T12:29:38Z</time>
      </trkpt>
      <trkpt lat="45.85848" lon="6.44383">
        <ele>1928.6</ele>
        <time>2024-04-27T12:29:39Z</time>
      </trkpt>
      <trkpt lat="45.85848" lon="6.44384">
        <ele>1928.6</ele>
        <time>2024-04-27T12:29:40Z</time>
      </trkpt>
      <trkpt lat="45.85848" lon="6.44385">
        <ele>1928.6</ele>
        <time>2024-04-27T12:29:41Z</time>
      </trkpt>
      <trkpt lat="45.85848" lon="6.44385">
        <ele>1929.7</ele>
        <time>2024-04-27T12:29:42Z</time>
      </trkpt>
      <trkpt lat="45.85848" lon="6.44386">
        <ele>1929.7</ele>
        <time>2024-04-27T12:29:43Z</time>
      </trkpt>
      <trkpt lat="45.85848" lon="6.44387">
        <ele>1929.7</ele>
        <time>2024-04-27T12:29:44Z</time>
      </trkpt>
      <trkpt lat="45.85848" lon="6.44388">
        <ele>1929.7</ele>
        <time>2024-04-27T12:29:45Z</time>
      </trkpt>
      <trkpt lat="45.85848" lon="6.44389">
        <ele>1929.7</ele>
        <time>2024-04-27T12:29:46Z</time>
      </trkpt>
      <trkpt lat="45.85848" lon="6.4439">
        <ele>1929.7</ele>
        <time>2024-04-27T12:29:47Z</time>
      </trkpt>
      <trkpt lat="45.85848" lon="6.4439">
        <ele>1930.6</ele>
        <time>2024-04-27T12:29:48Z</time>
      </trkpt>
      <trkpt lat="45.85848" lon="6.44392">
        <ele>1930.6</ele>
        <time>2024-04-27T12:29:49Z</time>
      </trkpt>
      <trkpt lat="45.85848" lon="6.44393">
        <ele>1930.6</ele>
        <time>2024-04-27T12:29:50Z</time>
      </trkpt>
      <trkpt lat="45.85849" lon="6.44393">
        <ele>1930.6</ele>
        <time>2024-04-27T12:29:51Z</time>
      </trkpt>
      <trkpt lat="45.85848" lon="6.44394">
        <ele>1930.6</ele>
        <time>2024-04-27T12:29:52Z</time>
      </trkpt>
      <trkpt lat="45.85847" lon="6.44395">
        <ele>1930.6</ele>
        <time>2024-04-27T12:29:53Z</time>
      </trkpt>
      <trkpt lat="45.85847" lon="6.44396">
        <ele>1931.7</ele>
        <time>2024-04-27T12:29:54Z</time>
      </trkpt>
      <trkpt lat="45.85847" lon="6.44396">
        <ele>1931.7</ele>
        <time>2024-04-27T12:29:55Z</time>
      </trkpt>
      <trkpt lat="45.85847" lon="6.44397">
        <ele>1931.7</ele>
        <time>2024-04-27T12:29:56Z</time>
      </trkpt>
      <trkpt lat="45.85847" lon="6.44398">
        <ele>1931.7</ele>
        <time>2024-04-27T12:29:57Z</time>
      </trkpt>
      <trkpt lat="45.85847" lon="6.44399">
        <ele>1931.7</ele>
        <time>2024-04-27T12:29:58Z</time>
      </trkpt>
      <trkpt lat="45.85847" lon="6.44399">
        <ele>1931.7</ele>
        <time>2024-04-27T12:29:59Z</time>
      </trkpt>
      <trkpt lat="45.85847" lon="6.444">
        <ele>1932.6</ele>
        <time>2024-04-27T12:30:00Z</time>
      </trkpt>
      <trkpt lat="45.85847" lon="6.44401">
        <ele>1932.6</ele>
        <time>2024-04-27T12:30:01Z</time>
      </trkpt>
      <trkpt lat="45.85847" lon="6.44402">
        <ele>1932.6</ele>
        <time>2024-04-27T12:30:02Z</time>
      </trkpt>
      <trkpt lat="45.85847" lon="6.44404">
        <ele>1932.6</ele>
        <time>2024-04-27T12:30:03Z</time>
      </trkpt>
      <trkpt lat="45.85847" lon="6.44404">
        <ele>1932.6</ele>
        <time>2024-04-27T12:30:04Z</time>
      </trkpt>
      <trkpt lat="45.85847" lon="6.44405">
        <ele>1932.6</ele>
        <time>2024-04-27T12:30:05Z</time>
      </trkpt>
      <trkpt lat="45.85847" lon="6.44405">
        <ele>1932.6</ele>
        <time>2024-04-27T12:30:06Z</time>
      </trkpt>
      <trkpt lat="45.85847" lon="6.44406">
        <ele>1932.6</ele>
        <time>2024-04-27T12:30:07Z</time>
      </trkpt>
      <trkpt lat="45.85846" lon="6.44406">
        <ele>1933.7</ele>
        <time>2024-04-27T12:30:08Z</time>
      </trkpt>
      <trkpt lat="45.85846" lon="6.44407">
        <ele>1933.7</ele>
        <time>2024-04-27T12:30:09Z</time>
      </trkpt>
      <trkpt lat="45.85846" lon="6.44408">
        <ele>1933.7</ele>
        <time>2024-04-27T12:30:10Z</time>
      </trkpt>
      <trkpt lat="45.85846" lon="6.44408">
        <ele>1933.7</ele>
        <time>2024-04-27T12:30:11Z</time>
      </trkpt>
      <trkpt lat="45.85846" lon="6.44409">
        <ele>1933.7</ele>
        <time>2024-04-27T12:30:12Z</time>
      </trkpt>
      <trkpt lat="45.85846" lon="6.44409">
        <ele>1933.7</ele>
        <time>2024-04-27T12:30:13Z</time>
      </trkpt>
      <trkpt lat="45.85846" lon="6.44411">
        <ele>1933.7</ele>
        <time>2024-04-27T12:30:14Z</time>
      </trkpt>
      <trkpt lat="45.85846" lon="6.44411">
        <ele>1933.7</ele>
        <time>2024-04-27T12:30:15Z</time>
      </trkpt>
      <trkpt lat="45.85846" lon="6.4441">
        <ele>1933.7</ele>
        <time>2024-04-27T12:30:16Z</time>
      </trkpt>
      <trkpt lat="45.85846" lon="6.44411">
        <ele>1933.7</ele>
        <time>2024-04-27T12:30:17Z</time>
      </trkpt>
      <trkpt lat="45.85846" lon="6.44412">
        <ele>1934.6</ele>
        <time>2024-04-27T12:30:18Z</time>
      </trkpt>
      <trkpt lat="45.85846" lon="6.44413">
        <ele>1934.6</ele>
        <time>2024-04-27T12:30:19Z</time>
      </trkpt>
      <trkpt lat="45.85847" lon="6.44414">
        <ele>1934.6</ele>
        <time>2024-04-27T12:30:20Z</time>
      </trkpt>
      <trkpt lat="45.85847" lon="6.44415">
        <ele>1934.6</ele>
        <time>2024-04-27T12:30:21Z</time>
      </trkpt>
      <trkpt lat="45.85847" lon="6.44415">
        <ele>1934.6</ele>
        <time>2024-04-27T12:30:22Z</time>
      </trkpt>
      <trkpt lat="45.85847" lon="6.44417">
        <ele>1934.6</ele>
        <time>2024-04-27T12:30:23Z</time>
      </trkpt>
      <trkpt lat="45.85847" lon="6.44417">
        <ele>1934.6</ele>
        <time>2024-04-27T12:30:24Z</time>
      </trkpt>
      <trkpt lat="45.85846" lon="6.44418">
        <ele>1934.6</ele>
        <time>2024-04-27T12:30:25Z</time>
      </trkpt>
      <trkpt lat="45.85846" lon="6.44418">
        <ele>1934.6</ele>
        <time>2024-04-27T12:30:26Z</time>
      </trkpt>
      <trkpt lat="45.85846" lon="6.44419">
        <ele>1934.6</ele>
        <time>2024-04-27T12:30:27Z</time>
      </trkpt>
      <trkpt lat="45.85846" lon="6.44419">
        <ele>1936.7</ele>
        <time>2024-04-27T12:30:28Z</time>
      </trkpt>
      <trkpt lat="45.85846" lon="6.44419">
        <ele>1936.7</ele>
        <time>2024-04-27T12:30:29Z</time>
      </trkpt>
      <trkpt lat="45.85846" lon="6.4442">
        <ele>1936.7</ele>
        <time>2024-04-27T12:30:30Z</time>
      </trkpt>
      <trkpt lat="45.85846" lon="6.44421">
        <ele>1936.7</ele>
        <time>2024-04-27T12:30:31Z</time>
      </trkpt>
      <trkpt lat="45.85846" lon="6.44423">
        <ele>1937.6</ele>
        <time>2024-04-27T12:30:32Z</time>
      </trkpt>
      <trkpt lat="45.85846" lon="6.44423">
        <ele>1937.6</ele>
        <time>2024-04-27T12:30:33Z</time>
      </trkpt>
      <trkpt lat="45.85846" lon="6.44424">
        <ele>1937.6</ele>
        <time>2024-04-27T12:30:34Z</time>
      </trkpt>
      <trkpt lat="45.85846" lon="6.44425">
        <ele>1937.6</ele>
        <time>2024-04-27T12:30:35Z</time>
      </trkpt>
      <trkpt lat="45.85846" lon="6.44425">
        <ele>1938.7</ele>
        <time>2024-04-27T12:30:36Z</time>
      </trkpt>
      <trkpt lat="45.85846" lon="6.44426">
        <ele>1938.7</ele>
        <time>2024-04-27T12:30:37Z</time>
      </trkpt>
      <trkpt lat="45.85846" lon="6.44426">
        <ele>1938.7</ele>
        <time>2024-04-27T12:30:38Z</time>
      </trkpt>
      <trkpt lat="45.85846" lon="6.44427">
        <ele>1938.7</ele>
        <time>2024-04-27T12:30:39Z</time>
      </trkpt>
      <trkpt lat="45.85846" lon="6.44428">
        <ele>1938.7</ele>
        <time>2024-04-27T12:30:40Z</time>
      </trkpt>
      <trkpt lat="45.85846" lon="6.44429">
        <ele>1938.7</ele>
        <time>2024-04-27T12:30:41Z</time>
      </trkpt>
      <trkpt lat="45.85846" lon="6.4443">
        <ele>1938.7</ele>
        <time>2024-04-27T12:30:42Z</time>
      </trkpt>
      <trkpt lat="45.85846" lon="6.44431">
        <ele>1938.7</ele>
        <time>2024-04-27T12:30:43Z</time>
      </trkpt>
      <trkpt lat="45.85846" lon="6.44431">
        <ele>1938.7</ele>
        <time>2024-04-27T12:30:44Z</time>
      </trkpt>
      <trkpt lat="45.85846" lon="6.44431">
        <ele>1938.7</ele>
        <time>2024-04-27T12:30:45Z</time>
      </trkpt>
      <trkpt lat="45.85847" lon="6.44432">
        <ele>1939.6</ele>
        <time>2024-04-27T12:30:46Z</time>
      </trkpt>
      <trkpt lat="45.85847" lon="6.44432">
        <ele>1939.6</ele>
        <time>2024-04-27T12:30:47Z</time>
      </trkpt>
      <trkpt lat="45.85847" lon="6.44433">
        <ele>1939.6</ele>
        <time>2024-04-27T12:30:48Z</time>
      </trkpt>
      <trkpt lat="45.85847" lon="6.44434">
        <ele>1939.6</ele>
        <time>2024-04-27T12:30:49Z</time>
      </trkpt>
      <trkpt lat="45.85847" lon="6.44434">
        <ele>1940.7</ele>
        <time>2024-04-27T12:30:50Z</time>
      </trkpt>
      <trkpt lat="45.85847" lon="6.44435">
        <ele>1940.7</ele>
        <time>2024-04-27T12:30:51Z</time>
      </trkpt>
      <trkpt lat="45.85847" lon="6.44435">
        <ele>1940.7</ele>
        <time>2024-04-27T12:30:52Z</time>
      </trkpt>
      <trkpt lat="45.85848" lon="6.44436">
        <ele>1940.7</ele>
        <time>2024-04-27T12:30:53Z</time>
      </trkpt>
      <trkpt lat="45.85848" lon="6.44437">
        <ele>1940.7</ele>
        <time>2024-04-27T12:30:54Z</time>
      </trkpt>
      <trkpt lat="45.85849" lon="6.44437">
        <ele>1940.7</ele>
        <time>2024-04-27T12:30:55Z</time>
      </trkpt>
      <trkpt lat="45.85849" lon="6.44437">
        <ele>1940.7</ele>
        <time>2024-04-27T12:30:56Z</time>
      </trkpt>
      <trkpt lat="45.85849" lon="6.44438">
        <ele>1940.7</ele>
        <time>2024-04-27T12:30:57Z</time>
      </trkpt>
      <trkpt lat="45.85849" lon="6.44438">
        <ele>1940.7</ele>
        <time>2024-04-27T12:30:58Z</time>
      </trkpt>
      <trkpt lat="45.85849" lon="6.44439">
        <ele>1940.7</ele>
        <time>2024-04-27T12:30:59Z</time>
      </trkpt>
      <trkpt lat="45.8585" lon="6.4444">
        <ele>1940.7</ele>
        <time>2024-04-27T12:31:00Z</time>
      </trkpt>
      <trkpt lat="45.8585" lon="6.44441">
        <ele>1940.7</ele>
        <time>2024-04-27T12:31:01Z</time>
      </trkpt>
      <trkpt lat="45.85851" lon="6.44442">
        <ele>1941.6</ele>
        <time>2024-04-27T12:31:02Z</time>
      </trkpt>
      <trkpt lat="45.85851" lon="6.44445">
        <ele>1941.6</ele>
        <time>2024-04-27T12:31:03Z</time>
      </trkpt>
      <trkpt lat="45.85851" lon="6.44446">
        <ele>1941.6</ele>
        <time>2024-04-27T12:31:04Z</time>
      </trkpt>
      <trkpt lat="45.85851" lon="6.44446">
        <ele>1941.6</ele>
        <time>2024-04-27T12:31:05Z</time>
      </trkpt>
      <trkpt lat="45.85851" lon="6.44447">
        <ele>1942.7</ele>
        <time>2024-04-27T12:31:06Z</time>
      </trkpt>
      <trkpt lat="45.85851" lon="6.44448">
        <ele>1942.7</ele>
        <time>2024-04-27T12:31:07Z</time>
      </trkpt>
      <trkpt lat="45.85851" lon="6.44449">
        <ele>1942.7</ele>
        <time>2024-04-27T12:31:08Z</time>
      </trkpt>
      <trkpt lat="45.85851" lon="6.4445">
        <ele>1942.7</ele>
        <time>2024-04-27T12:31:09Z</time>
      </trkpt>
      <trkpt lat="45.85851" lon="6.4445">
        <ele>1943.6</ele>
        <time>2024-04-27T12:31:10Z</time>
      </trkpt>
      <trkpt lat="45.85851" lon="6.4445">
        <ele>1943.6</ele>
        <time>2024-04-27T12:31:11Z</time>
      </trkpt>
      <trkpt lat="45.85851" lon="6.44451">
        <ele>1943.6</ele>
        <time>2024-04-27T12:31:12Z</time>
      </trkpt>
      <trkpt lat="45.85852" lon="6.44452">
        <ele>1943.6</ele>
        <time>2024-04-27T12:31:13Z</time>
      </trkpt>
      <trkpt lat="45.85852" lon="6.44452">
        <ele>1944.6</ele>
        <time>2024-04-27T12:31:14Z</time>
      </trkpt>
      <trkpt lat="45.85851" lon="6.44452">
        <ele>1944.6</ele>
        <time>2024-04-27T12:31:15Z</time>
      </trkpt>
      <trkpt lat="45.85851" lon="6.44452">
        <ele>1944.6</ele>
        <time>2024-04-27T12:31:16Z</time>
      </trkpt>
      <trkpt lat="45.85852" lon="6.44453">
        <ele>1944.6</ele>
        <time>2024-04-27T12:31:17Z</time>
      </trkpt>
      <trkpt lat="45.85852" lon="6.44453">
        <ele>1944.6</ele>
        <time>2024-04-27T12:31:18Z</time>
      </trkpt>
      <trkpt lat="45.85852" lon="6.44454">
        <ele>1944.6</ele>
        <time>2024-04-27T12:31:19Z</time>
      </trkpt>
      <trkpt lat="45.85852" lon="6.44454">
        <ele>1945.7</ele>
        <time>2024-04-27T12:31:20Z</time>
      </trkpt>
      <trkpt lat="45.85852" lon="6.44455">
        <ele>1945.7</ele>
        <time>2024-04-27T12:31:21Z</time>
      </trkpt>
      <trkpt lat="45.85853" lon="6.44455">
        <ele>1945.7</ele>
        <time>2024-04-27T12:31:22Z</time>
      </trkpt>
      <trkpt lat="45.85853" lon="6.44455">
        <ele>1945.7</ele>
        <time>2024-04-27T12:31:23Z</time>
      </trkpt>
      <trkpt lat="45.85853" lon="6.44455">
        <ele>1945.7</ele>
        <time>2024-04-27T12:31:24Z</time>
      </trkpt>
      <trkpt lat="45.85853" lon="6.44455">
        <ele>1945.7</ele>
        <time>2024-04-27T12:31:25Z</time>
      </trkpt>
      <trkpt lat="45.85853" lon="6.44456">
        <ele>1946.6</ele>
        <time>2024-04-27T12:31:26Z</time>
      </trkpt>
      <trkpt lat="45.85853" lon="6.44456">
        <ele>1946.6</ele>
        <time>2024-04-27T12:31:27Z</time>
      </trkpt>
      <trkpt lat="45.85853" lon="6.44457">
        <ele>1946.6</ele>
        <time>2024-04-27T12:31:28Z</time>
      </trkpt>
      <trkpt lat="45.85854" lon="6.44458">
        <ele>1946.6</ele>
        <time>2024-04-27T12:31:29Z</time>
      </trkpt>
      <trkpt lat="45.85854" lon="6.44459">
        <ele>1947.7</ele>
        <time>2024-04-27T12:31:30Z</time>
      </trkpt>
      <trkpt lat="45.85856" lon="6.4446">
        <ele>1947.7</ele>
        <time>2024-04-27T12:31:31Z</time>
      </trkpt>
      <trkpt lat="45.85855" lon="6.4446">
        <ele>1947.7</ele>
        <time>2024-04-27T12:31:32Z</time>
      </trkpt>
      <trkpt lat="45.85854" lon="6.4446">
        <ele>1947.7</ele>
        <time>2024-04-27T12:31:33Z</time>
      </trkpt>
      <trkpt lat="45.85854" lon="6.4446">
        <ele>1947.7</ele>
        <time>2024-04-27T12:31:34Z</time>
      </trkpt>
      <trkpt lat="45.85854" lon="6.44461">
        <ele>1947.7</ele>
        <time>2024-04-27T12:31:35Z</time>
      </trkpt>
      <trkpt lat="45.85854" lon="6.44461">
        <ele>1948.6</ele>
        <time>2024-04-27T12:31:36Z</time>
      </trkpt>
      <trkpt lat="45.85855" lon="6.44462">
        <ele>1948.6</ele>
        <time>2024-04-27T12:31:37Z</time>
      </trkpt>
      <trkpt lat="45.85855" lon="6.44463">
        <ele>1948.6</ele>
        <time>2024-04-27T12:31:38Z</time>
      </trkpt>
      <trkpt lat="45.85856" lon="6.44464">
        <ele>1948.6</ele>
        <time>2024-04-27T12:31:39Z</time>
      </trkpt>
      <trkpt lat="45.85856" lon="6.44465">
        <ele>1948.6</ele>
        <time>2024-04-27T12:31:40Z</time>
      </trkpt>
      <trkpt lat="45.85856" lon="6.44466">
        <ele>1948.6</ele>
        <time>2024-04-27T12:31:41Z</time>
      </trkpt>
      <trkpt lat="45.85856" lon="6.44466">
        <ele>1949.7</ele>
        <time>2024-04-27T12:31:42Z</time>
      </trkpt>
      <trkpt lat="45.85857" lon="6.44467">
        <ele>1949.7</ele>
        <time>2024-04-27T12:31:43Z</time>
      </trkpt>
      <trkpt lat="45.85857" lon="6.44468">
        <ele>1949.7</ele>
        <time>2024-04-27T12:31:44Z</time>
      </trkpt>
      <trkpt lat="45.85857" lon="6.44469">
        <ele>1949.7</ele>
        <time>2024-04-27T12:31:45Z</time>
      </trkpt>
      <trkpt lat="45.85858" lon="6.4447">
        <ele>1950.6</ele>
        <time>2024-04-27T12:31:46Z</time>
      </trkpt>
      <trkpt lat="45.85857" lon="6.44471">
        <ele>1950.6</ele>
        <time>2024-04-27T12:31:47Z</time>
      </trkpt>
      <trkpt lat="45.85857" lon="6.44472">
        <ele>1950.6</ele>
        <time>2024-04-27T12:31:48Z</time>
      </trkpt>
      <trkpt lat="45.85857" lon="6.44472">
        <ele>1950.6</ele>
        <time>2024-04-27T12:31:49Z</time>
      </trkpt>
      <trkpt lat="45.85857" lon="6.44473">
        <ele>1951.7</ele>
        <time>2024-04-27T12:31:50Z</time>
      </trkpt>
      <trkpt lat="45.85857" lon="6.44475">
        <ele>1951.7</ele>
        <time>2024-04-27T12:31:51Z</time>
      </trkpt>
      <trkpt lat="45.85858" lon="6.44475">
        <ele>1951.7</ele>
        <time>2024-04-27T12:31:52Z</time>
      </trkpt>
      <trkpt lat="45.85858" lon="6.44476">
        <ele>1951.7</ele>
        <time>2024-04-27T12:31:53Z</time>
      </trkpt>
      <trkpt lat="45.85857" lon="6.44477">
        <ele>1951.7</ele>
        <time>2024-04-27T12:31:54Z</time>
      </trkpt>
      <trkpt lat="45.85857" lon="6.44477">
        <ele>1951.7</ele>
        <time>2024-04-27T12:31:55Z</time>
      </trkpt>
      <trkpt lat="45.85857" lon="6.44477">
        <ele>1951.7</ele>
        <time>2024-04-27T12:31:56Z</time>
      </trkpt>
      <trkpt lat="45.85856" lon="6.44478">
        <ele>1951.7</ele>
        <time>2024-04-27T12:31:57Z</time>
      </trkpt>
      <trkpt lat="45.85856" lon="6.44479">
        <ele>1951.7</ele>
        <time>2024-04-27T12:31:58Z</time>
      </trkpt>
      <trkpt lat="45.85855" lon="6.4448">
        <ele>1951.7</ele>
        <time>2024-04-27T12:31:59Z</time>
      </trkpt>
      <trkpt lat="45.85855" lon="6.4448">
        <ele>1951.7</ele>
        <time>2024-04-27T12:32:00Z</time>
      </trkpt>
      <trkpt lat="45.85855" lon="6.44481">
        <ele>1951.7</ele>
        <time>2024-04-27T12:32:01Z</time>
      </trkpt>
      <trkpt lat="45.85855" lon="6.44482">
        <ele>1951.7</ele>
        <time>2024-04-27T12:32:02Z</time>
      </trkpt>
      <trkpt lat="45.85855" lon="6.44482">
        <ele>1951.7</ele>
        <time>2024-04-27T12:32:03Z</time>
      </trkpt>
      <trkpt lat="45.85855" lon="6.44483">
        <ele>1951.7</ele>
        <time>2024-04-27T12:32:04Z</time>
      </trkpt>
      <trkpt lat="45.85855" lon="6.44484">
        <ele>1951.7</ele>
        <time>2024-04-27T12:32:05Z</time>
      </trkpt>
      <trkpt lat="45.85855" lon="6.44485">
        <ele>1951.7</ele>
        <time>2024-04-27T12:32:06Z</time>
      </trkpt>
      <trkpt lat="45.85855" lon="6.44486">
        <ele>1951.7</ele>
        <time>2024-04-27T12:32:07Z</time>
      </trkpt>
      <trkpt lat="45.85855" lon="6.44487">
        <ele>1951.7</ele>
        <time>2024-04-27T12:32:08Z</time>
      </trkpt>
      <trkpt lat="45.85855" lon="6.44488">
        <ele>1951.7</ele>
        <time>2024-04-27T12:32:09Z</time>
      </trkpt>
      <trkpt lat="45.85855" lon="6.44488">
        <ele>1951.7</ele>
        <time>2024-04-27T12:32:10Z</time>
      </trkpt>
      <trkpt lat="45.85854" lon="6.44489">
        <ele>1951.7</ele>
        <time>2024-04-27T12:32:11Z</time>
      </trkpt>
      <trkpt lat="45.85854" lon="6.44489">
        <ele>1951.7</ele>
        <time>2024-04-27T12:32:12Z</time>
      </trkpt>
      <trkpt lat="45.85854" lon="6.4449">
        <ele>1951.7</ele>
        <time>2024-04-27T12:32:13Z</time>
      </trkpt>
      <trkpt lat="45.85853" lon="6.4449">
        <ele>1952.6</ele>
        <time>2024-04-27T12:32:14Z</time>
      </trkpt>
      <trkpt lat="45.85851" lon="6.44489">
        <ele>1952.6</ele>
        <time>2024-04-27T12:32:15Z</time>
      </trkpt>
      <trkpt lat="45.85851" lon="6.4449">
        <ele>1953.6</ele>
        <time>2024-04-27T12:32:16Z</time>
      </trkpt>
      <trkpt lat="45.85852" lon="6.44492">
        <ele>1953.6</ele>
        <time>2024-04-27T12:32:17Z</time>
      </trkpt>
      <trkpt lat="45.85852" lon="6.44492">
        <ele>1953.6</ele>
        <time>2024-04-27T12:32:18Z</time>
      </trkpt>
      <trkpt lat="45.85851" lon="6.44492">
        <ele>1953.6</ele>
        <time>2024-04-27T12:32:19Z</time>
      </trkpt>
      <trkpt lat="45.85851" lon="6.44493">
        <ele>1953.6</ele>
        <time>2024-04-27T12:32:20Z</time>
      </trkpt>
      <trkpt lat="45.85851" lon="6.44494">
        <ele>1953.6</ele>
        <time>2024-04-27T12:32:21Z</time>
      </trkpt>
      <trkpt lat="45.85851" lon="6.44495">
        <ele>1954.7</ele>
        <time>2024-04-27T12:32:22Z</time>
      </trkpt>
      <trkpt lat="45.85851" lon="6.44495">
        <ele>1954.7</ele>
        <time>2024-04-27T12:32:23Z</time>
      </trkpt>
      <trkpt lat="45.8585" lon="6.44496">
        <ele>1954.7</ele>
        <time>2024-04-27T12:32:24Z</time>
      </trkpt>
      <trkpt lat="45.8585" lon="6.44497">
        <ele>1954.7</ele>
        <time>2024-04-27T12:32:25Z</time>
      </trkpt>
      <trkpt lat="45.8585" lon="6.44498">
        <ele>1954.7</ele>
        <time>2024-04-27T12:32:26Z</time>
      </trkpt>
      <trkpt lat="45.85851" lon="6.44499">
        <ele>1954.7</ele>
        <time>2024-04-27T12:32:27Z</time>
      </trkpt>
      <trkpt lat="45.8585" lon="6.44499">
        <ele>1955.6</ele>
        <time>2024-04-27T12:32:28Z</time>
      </trkpt>
      <trkpt lat="45.8585" lon="6.445">
        <ele>1955.6</ele>
        <time>2024-04-27T12:32:29Z</time>
      </trkpt>
      <trkpt lat="45.8585" lon="6.445">
        <ele>1955.6</ele>
        <time>2024-04-27T12:32:30Z</time>
      </trkpt>
      <trkpt lat="45.85849" lon="6.44501">
        <ele>1955.6</ele>
        <time>2024-04-27T12:32:31Z</time>
      </trkpt>
      <trkpt lat="45.85849" lon="6.44502">
        <ele>1955.6</ele>
        <time>2024-04-27T12:32:32Z</time>
      </trkpt>
      <trkpt lat="45.85849" lon="6.44503">
        <ele>1955.6</ele>
        <time>2024-04-27T12:32:33Z</time>
      </trkpt>
      <trkpt lat="45.85849" lon="6.44504">
        <ele>1956.7</ele>
        <time>2024-04-27T12:32:34Z</time>
      </trkpt>
      <trkpt lat="45.85849" lon="6.44505">
        <ele>1956.7</ele>
        <time>2024-04-27T12:32:35Z</time>
      </trkpt>
      <trkpt lat="45.85849" lon="6.44506">
        <ele>1956.7</ele>
        <time>2024-04-27T12:32:36Z</time>
      </trkpt>
      <trkpt lat="45.85849" lon="6.44507">
        <ele>1956.7</ele>
        <time>2024-04-27T12:32:37Z</time>
      </trkpt>
      <trkpt lat="45.85849" lon="6.44507">
        <ele>1956.7</ele>
        <time>2024-04-27T12:32:38Z</time>
      </trkpt>
      <trkpt lat="45.85849" lon="6.44507">
        <ele>1956.7</ele>
        <time>2024-04-27T12:32:39Z</time>
      </trkpt>
      <trkpt lat="45.85849" lon="6.44508">
        <ele>1957.6</ele>
        <time>2024-04-27T12:32:40Z</time>
      </trkpt>
      <trkpt lat="45.85849" lon="6.44509">
        <ele>1957.6</ele>
        <time>2024-04-27T12:32:41Z</time>
      </trkpt>
      <trkpt lat="45.85849" lon="6.4451">
        <ele>1957.6</ele>
        <time>2024-04-27T12:32:42Z</time>
      </trkpt>
      <trkpt lat="45.85849" lon="6.4451">
        <ele>1957.6</ele>
        <time>2024-04-27T12:32:43Z</time>
      </trkpt>
      <trkpt lat="45.85849" lon="6.44511">
        <ele>1957.6</ele>
        <time>2024-04-27T12:32:44Z</time>
      </trkpt>
      <trkpt lat="45.85849" lon="6.44512">
        <ele>1957.6</ele>
        <time>2024-04-27T12:32:45Z</time>
      </trkpt>
      <trkpt lat="45.85849" lon="6.44513">
        <ele>1957.6</ele>
        <time>2024-04-27T12:32:46Z</time>
      </trkpt>
      <trkpt lat="45.85849" lon="6.44513">
        <ele>1957.6</ele>
        <time>2024-04-27T12:32:47Z</time>
      </trkpt>
      <trkpt lat="45.85849" lon="6.44514">
        <ele>1958.7</ele>
        <time>2024-04-27T12:32:48Z</time>
      </trkpt>
      <trkpt lat="45.85849" lon="6.44514">
        <ele>1958.7</ele>
        <time>2024-04-27T12:32:49Z</time>
      </trkpt>
      <trkpt lat="45.85849" lon="6.44515">
        <ele>1958.7</ele>
        <time>2024-04-27T12:32:50Z</time>
      </trkpt>
      <trkpt lat="45.85849" lon="6.44515">
        <ele>1958.7</ele>
        <time>2024-04-27T12:32:51Z</time>
      </trkpt>
      <trkpt lat="45.8585" lon="6.44516">
        <ele>1959.6</ele>
        <time>2024-04-27T12:32:52Z</time>
      </trkpt>
      <trkpt lat="45.8585" lon="6.44516">
        <ele>1959.6</ele>
        <time>2024-04-27T12:32:53Z</time>
      </trkpt>
      <trkpt lat="45.8585" lon="6.44517">
        <ele>1959.6</ele>
        <time>2024-04-27T12:32:54Z</time>
      </trkpt>
      <trkpt lat="45.85851" lon="6.44517">
        <ele>1959.6</ele>
        <time>2024-04-27T12:32:55Z</time>
      </trkpt>
      <trkpt lat="45.85851" lon="6.44518">
        <ele>1959.6</ele>
        <time>2024-04-27T12:32:56Z</time>
      </trkpt>
      <trkpt lat="45.85851" lon="6.44518">
        <ele>1959.6</ele>
        <time>2024-04-27T12:32:57Z</time>
      </trkpt>
      <trkpt lat="45.85851" lon="6.44519">
        <ele>1960.7</ele>
        <time>2024-04-27T12:32:58Z</time>
      </trkpt>
      <trkpt lat="45.85851" lon="6.44519">
        <ele>1960.7</ele>
        <time>2024-04-27T12:32:59Z</time>
      </trkpt>
      <trkpt lat="45.85851" lon="6.44519">
        <ele>1960.7</ele>
        <time>2024-04-27T12:33:00Z</time>
      </trkpt>
      <trkpt lat="45.85852" lon="6.4452">
        <ele>1960.7</ele>
        <time>2024-04-27T12:33:01Z</time>
      </trkpt>
      <trkpt lat="45.85852" lon="6.4452">
        <ele>1961.7</ele>
        <time>2024-04-27T12:33:02Z</time>
      </trkpt>
      <trkpt lat="45.85853" lon="6.44521">
        <ele>1961.7</ele>
        <time>2024-04-27T12:33:03Z</time>
      </trkpt>
      <trkpt lat="45.85853" lon="6.44521">
        <ele>1961.7</ele>
        <time>2024-04-27T12:33:04Z</time>
      </trkpt>
      <trkpt lat="45.85853" lon="6.44523">
        <ele>1961.7</ele>
        <time>2024-04-27T12:33:05Z</time>
      </trkpt>
      <trkpt lat="45.85853" lon="6.44523">
        <ele>1962.6</ele>
        <time>2024-04-27T12:33:06Z</time>
      </trkpt>
      <trkpt lat="45.85854" lon="6.44524">
        <ele>1962.6</ele>
        <time>2024-04-27T12:33:07Z</time>
      </trkpt>
      <trkpt lat="45.85854" lon="6.44524">
        <ele>1962.6</ele>
        <time>2024-04-27T12:33:08Z</time>
      </trkpt>
      <trkpt lat="45.85854" lon="6.44525">
        <ele>1962.6</ele>
        <time>2024-04-27T12:33:09Z</time>
      </trkpt>
      <trkpt lat="45.85855" lon="6.44525">
        <ele>1962.6</ele>
        <time>2024-04-27T12:33:10Z</time>
      </trkpt>
      <trkpt lat="45.85855" lon="6.44525">
        <ele>1962.6</ele>
        <time>2024-04-27T12:33:11Z</time>
      </trkpt>
      <trkpt lat="45.85856" lon="6.44526">
        <ele>1962.6</ele>
        <time>2024-04-27T12:33:12Z</time>
      </trkpt>
      <trkpt lat="45.85856" lon="6.44526">
        <ele>1962.6</ele>
        <time>2024-04-27T12:33:13Z</time>
      </trkpt>
      <trkpt lat="45.85857" lon="6.44526">
        <ele>1962.6</ele>
        <time>2024-04-27T12:33:14Z</time>
      </trkpt>
      <trkpt lat="45.85857" lon="6.44526">
        <ele>1962.6</ele>
        <time>2024-04-27T12:33:15Z</time>
      </trkpt>
      <trkpt lat="45.85857" lon="6.44527">
        <ele>1962.6</ele>
        <time>2024-04-27T12:33:16Z</time>
      </trkpt>
      <trkpt lat="45.85858" lon="6.44527">
        <ele>1962.6</ele>
        <time>2024-04-27T12:33:17Z</time>
      </trkpt>
      <trkpt lat="45.85858" lon="6.44528">
        <ele>1962.6</ele>
        <time>2024-04-27T12:33:18Z</time>
      </trkpt>
      <trkpt lat="45.85859" lon="6.44529">
        <ele>1962.6</ele>
        <time>2024-04-27T12:33:19Z</time>
      </trkpt>
      <trkpt lat="45.8586" lon="6.4453">
        <ele>1963.7</ele>
        <time>2024-04-27T12:33:20Z</time>
      </trkpt>
      <trkpt lat="45.85859" lon="6.4453">
        <ele>1963.7</ele>
        <time>2024-04-27T12:33:21Z</time>
      </trkpt>
      <trkpt lat="45.85859" lon="6.4453">
        <ele>1963.7</ele>
        <time>2024-04-27T12:33:22Z</time>
      </trkpt>
      <trkpt lat="45.85859" lon="6.44529">
        <ele>1963.7</ele>
        <time>2024-04-27T12:33:23Z</time>
      </trkpt>
      <trkpt lat="45.85858" lon="6.44529">
        <ele>1963.7</ele>
        <time>2024-04-27T12:33:24Z</time>
      </trkpt>
      <trkpt lat="45.85858" lon="6.44529">
        <ele>1963.7</ele>
        <time>2024-04-27T12:33:25Z</time>
      </trkpt>
      <trkpt lat="45.85858" lon="6.44529">
        <ele>1963.7</ele>
        <time>2024-04-27T12:33:26Z</time>
      </trkpt>
      <trkpt lat="45.85858" lon="6.44529">
        <ele>1963.7</ele>
        <time>2024-04-27T12:33:27Z</time>
      </trkpt>
      <trkpt lat="45.85858" lon="6.4453">
        <ele>1963.7</ele>
        <time>2024-04-27T12:33:28Z</time>
      </trkpt>
      <trkpt lat="45.85858" lon="6.44531">
        <ele>1963.7</ele>
        <time>2024-04-27T12:33:29Z</time>
      </trkpt>
      <trkpt lat="45.85859" lon="6.44531">
        <ele>1964.6</ele>
        <time>2024-04-27T12:33:30Z</time>
      </trkpt>
      <trkpt lat="45.85859" lon="6.44531">
        <ele>1964.6</ele>
        <time>2024-04-27T12:33:31Z</time>
      </trkpt>
      <trkpt lat="45.85859" lon="6.44533">
        <ele>1964.6</ele>
        <time>2024-04-27T12:33:32Z</time>
      </trkpt>
      <trkpt lat="45.8586" lon="6.44534">
        <ele>1964.6</ele>
        <time>2024-04-27T12:33:33Z</time>
      </trkpt>
      <trkpt lat="45.8586" lon="6.44535">
        <ele>1964.6</ele>
        <time>2024-04-27T12:33:34Z</time>
      </trkpt>
      <trkpt lat="45.8586" lon="6.44536">
        <ele>1964.6</ele>
        <time>2024-04-27T12:33:35Z</time>
      </trkpt>
      <trkpt lat="45.8586" lon="6.44536">
        <ele>1964.6</ele>
        <time>2024-04-27T12:33:36Z</time>
      </trkpt>
      <trkpt lat="45.8586" lon="6.44538">
        <ele>1964.6</ele>
        <time>2024-04-27T12:33:37Z</time>
      </trkpt>
      <trkpt lat="45.8586" lon="6.44538">
        <ele>1964.6</ele>
        <time>2024-04-27T12:33:38Z</time>
      </trkpt>
      <trkpt lat="45.8586" lon="6.44538">
        <ele>1964.6</ele>
        <time>2024-04-27T12:33:39Z</time>
      </trkpt>
      <trkpt lat="45.8586" lon="6.44538">
        <ele>1964.6</ele>
        <time>2024-04-27T12:33:40Z</time>
      </trkpt>
      <trkpt lat="45.85859" lon="6.44537">
        <ele>1964.6</ele>
        <time>2024-04-27T12:33:41Z</time>
      </trkpt>
      <trkpt lat="45.85859" lon="6.44536">
        <ele>1966.6</ele>
        <time>2024-04-27T12:33:42Z</time>
      </trkpt>
      <trkpt lat="45.8586" lon="6.44535">
        <ele>1966.6</ele>
        <time>2024-04-27T12:33:43Z</time>
      </trkpt>
      <trkpt lat="45.8586" lon="6.44535">
        <ele>1965.7</ele>
        <time>2024-04-27T12:33:44Z</time>
      </trkpt>
      <trkpt lat="45.85861" lon="6.44535">
        <ele>1965.7</ele>
        <time>2024-04-27T12:33:45Z</time>
      </trkpt>
      <trkpt lat="45.85862" lon="6.44535">
        <ele>1965.7</ele>
        <time>2024-04-27T12:33:46Z</time>
      </trkpt>
      <trkpt lat="45.85863" lon="6.44535">
        <ele>1965.7</ele>
        <time>2024-04-27T12:33:47Z</time>
      </trkpt>
      <trkpt lat="45.85863" lon="6.44536">
        <ele>1965.7</ele>
        <time>2024-04-27T12:33:48Z</time>
      </trkpt>
      <trkpt lat="45.85863" lon="6.44537">
        <ele>1965.7</ele>
        <time>2024-04-27T12:33:49Z</time>
      </trkpt>
      <trkpt lat="45.85863" lon="6.44537">
        <ele>1965.7</ele>
        <time>2024-04-27T12:33:50Z</time>
      </trkpt>
      <trkpt lat="45.85863" lon="6.44538">
        <ele>1965.7</ele>
        <time>2024-04-27T12:33:51Z</time>
      </trkpt>
      <trkpt lat="45.85863" lon="6.44538">
        <ele>1965.7</ele>
        <time>2024-04-27T12:33:52Z</time>
      </trkpt>
      <trkpt lat="45.85863" lon="6.44539">
        <ele>1965.7</ele>
        <time>2024-04-27T12:33:53Z</time>
      </trkpt>
      <trkpt lat="45.85863" lon="6.4454">
        <ele>1966.6</ele>
        <time>2024-04-27T12:33:54Z</time>
      </trkpt>
      <trkpt lat="45.85863" lon="6.4454">
        <ele>1966.6</ele>
        <time>2024-04-27T12:33:55Z</time>
      </trkpt>
      <trkpt lat="45.85864" lon="6.44541">
        <ele>1966.6</ele>
        <time>2024-04-27T12:33:56Z</time>
      </trkpt>
      <trkpt lat="45.85863" lon="6.44542">
        <ele>1966.6</ele>
        <time>2024-04-27T12:33:57Z</time>
      </trkpt>
      <trkpt lat="45.85864" lon="6.44543">
        <ele>1966.6</ele>
        <time>2024-04-27T12:33:58Z</time>
      </trkpt>
      <trkpt lat="45.85863" lon="6.44544">
        <ele>1966.6</ele>
        <time>2024-04-27T12:33:59Z</time>
      </trkpt>
      <trkpt lat="45.85863" lon="6.44544">
        <ele>1966.6</ele>
        <time>2024-04-27T12:34:00Z</time>
      </trkpt>
      <trkpt lat="45.85863" lon="6.44546">
        <ele>1966.6</ele>
        <time>2024-04-27T12:34:01Z</time>
      </trkpt>
      <trkpt lat="45.85863" lon="6.44547">
        <ele>1966.6</ele>
        <time>2024-04-27T12:34:02Z</time>
      </trkpt>
      <trkpt lat="45.85864" lon="6.44549">
        <ele>1966.6</ele>
        <time>2024-04-27T12:34:03Z</time>
      </trkpt>
      <trkpt lat="45.85863" lon="6.4455">
        <ele>1967.7</ele>
        <time>2024-04-27T12:34:04Z</time>
      </trkpt>
      <trkpt lat="45.85864" lon="6.4455">
        <ele>1967.7</ele>
        <time>2024-04-27T12:34:05Z</time>
      </trkpt>
      <trkpt lat="45.85864" lon="6.44551">
        <ele>1967.7</ele>
        <time>2024-04-27T12:34:06Z</time>
      </trkpt>
      <trkpt lat="45.85864" lon="6.44552">
        <ele>1967.7</ele>
        <time>2024-04-27T12:34:07Z</time>
      </trkpt>
      <trkpt lat="45.85864" lon="6.44553">
        <ele>1967.7</ele>
        <time>2024-04-27T12:34:08Z</time>
      </trkpt>
      <trkpt lat="45.85864" lon="6.44554">
        <ele>1967.7</ele>
        <time>2024-04-27T12:34:09Z</time>
      </trkpt>
      <trkpt lat="45.85864" lon="6.44555">
        <ele>1967.7</ele>
        <time>2024-04-27T12:34:10Z</time>
      </trkpt>
      <trkpt lat="45.85864" lon="6.44556">
        <ele>1967.7</ele>
        <time>2024-04-27T12:34:11Z</time>
      </trkpt>
      <trkpt lat="45.85864" lon="6.44557">
        <ele>1968.6</ele>
        <time>2024-04-27T12:34:12Z</time>
      </trkpt>
      <trkpt lat="45.85864" lon="6.44557">
        <ele>1968.6</ele>
        <time>2024-04-27T12:34:13Z</time>
      </trkpt>
      <trkpt lat="45.85864" lon="6.44558">
        <ele>1968.6</ele>
        <time>2024-04-27T12:34:14Z</time>
      </trkpt>
      <trkpt lat="45.85864" lon="6.44559">
        <ele>1968.6</ele>
        <time>2024-04-27T12:34:15Z</time>
      </trkpt>
      <trkpt lat="45.85864" lon="6.4456">
        <ele>1968.6</ele>
        <time>2024-04-27T12:34:16Z</time>
      </trkpt>
      <trkpt lat="45.85864" lon="6.4456">
        <ele>1968.6</ele>
        <time>2024-04-27T12:34:17Z</time>
      </trkpt>
      <trkpt lat="45.85865" lon="6.4456">
        <ele>1968.6</ele>
        <time>2024-04-27T12:34:18Z</time>
      </trkpt>
      <trkpt lat="45.85864" lon="6.44561">
        <ele>1968.6</ele>
        <time>2024-04-27T12:34:19Z</time>
      </trkpt>
      <trkpt lat="45.85864" lon="6.44562">
        <ele>1968.6</ele>
        <time>2024-04-27T12:34:20Z</time>
      </trkpt>
      <trkpt lat="45.85865" lon="6.44562">
        <ele>1968.6</ele>
        <time>2024-04-27T12:34:21Z</time>
      </trkpt>
      <trkpt lat="45.85865" lon="6.44563">
        <ele>1968.6</ele>
        <time>2024-04-27T12:34:22Z</time>
      </trkpt>
      <trkpt lat="45.85865" lon="6.44563">
        <ele>1968.6</ele>
        <time>2024-04-27T12:34:23Z</time>
      </trkpt>
      <trkpt lat="45.85865" lon="6.44564">
        <ele>1970.7</ele>
        <time>2024-04-27T12:34:24Z</time>
      </trkpt>
      <trkpt lat="45.85865" lon="6.44564">
        <ele>1970.7</ele>
        <time>2024-04-27T12:34:25Z</time>
      </trkpt>
      <trkpt lat="45.85865" lon="6.44565">
        <ele>1970.7</ele>
        <time>2024-04-27T12:34:26Z</time>
      </trkpt>
      <trkpt lat="45.85865" lon="6.44566">
        <ele>1970.7</ele>
        <time>2024-04-27T12:34:27Z</time>
      </trkpt>
      <trkpt lat="45.85866" lon="6.44566">
        <ele>1970.7</ele>
        <time>2024-04-27T12:34:28Z</time>
      </trkpt>
      <trkpt lat="45.85866" lon="6.44567">
        <ele>1970.7</ele>
        <time>2024-04-27T12:34:29Z</time>
      </trkpt>
      <trkpt lat="45.85866" lon="6.44567">
        <ele>1970.7</ele>
        <time>2024-04-27T12:34:30Z</time>
      </trkpt>
      <trkpt lat="45.85867" lon="6.44568">
        <ele>1970.7</ele>
        <time>2024-04-27T12:34:31Z</time>
      </trkpt>
      <trkpt lat="45.85867" lon="6.44568">
        <ele>1971.6</ele>
        <time>2024-04-27T12:34:32Z</time>
      </trkpt>
      <trkpt lat="45.85867" lon="6.44568">
        <ele>1971.6</ele>
        <time>2024-04-27T12:34:33Z</time>
      </trkpt>
      <trkpt lat="45.85868" lon="6.44568">
        <ele>1971.6</ele>
        <time>2024-04-27T12:34:34Z</time>
      </trkpt>
      <trkpt lat="45.85868" lon="6.44568">
        <ele>1971.6</ele>
        <time>2024-04-27T12:34:35Z</time>
      </trkpt>
      <trkpt lat="45.85869" lon="6.44569">
        <ele>1972.7</ele>
        <time>2024-04-27T12:34:36Z</time>
      </trkpt>
      <trkpt lat="45.85869" lon="6.44569">
        <ele>1972.7</ele>
        <time>2024-04-27T12:34:37Z</time>
      </trkpt>
      <trkpt lat="45.85869" lon="6.4457">
        <ele>1972.7</ele>
        <time>2024-04-27T12:34:38Z</time>
      </trkpt>
      <trkpt lat="45.8587" lon="6.4457">
        <ele>1972.7</ele>
        <time>2024-04-27T12:34:39Z</time>
      </trkpt>
      <trkpt lat="45.85871" lon="6.4457">
        <ele>1973.6</ele>
        <time>2024-04-27T12:34:40Z</time>
      </trkpt>
      <trkpt lat="45.85871" lon="6.4457">
        <ele>1973.6</ele>
        <time>2024-04-27T12:34:41Z</time>
      </trkpt>
      <trkpt lat="45.85871" lon="6.4457">
        <ele>1973.6</ele>
        <time>2024-04-27T12:34:42Z</time>
      </trkpt>
      <trkpt lat="45.85872" lon="6.4457">
        <ele>1973.6</ele>
        <time>2024-04-27T12:34:43Z</time>
      </trkpt>
      <trkpt lat="45.85872" lon="6.4457">
        <ele>1973.6</ele>
        <time>2024-04-27T12:34:44Z</time>
      </trkpt>
      <trkpt lat="45.85873" lon="6.4457">
        <ele>1973.6</ele>
        <time>2024-04-27T12:34:45Z</time>
      </trkpt>
      <trkpt lat="45.85873" lon="6.4457">
        <ele>1974.7</ele>
        <time>2024-04-27T12:34:46Z</time>
      </trkpt>
      <trkpt lat="45.85874" lon="6.4457">
        <ele>1974.7</ele>
        <time>2024-04-27T12:34:47Z</time>
      </trkpt>
      <trkpt lat="45.85874" lon="6.4457">
        <ele>1974.7</ele>
        <time>2024-04-27T12:34:48Z</time>
      </trkpt>
      <trkpt lat="45.85874" lon="6.4457">
        <ele>1974.7</ele>
        <time>2024-04-27T12:34:49Z</time>
      </trkpt>
      <trkpt lat="45.85875" lon="6.4457">
        <ele>1974.7</ele>
        <time>2024-04-27T12:34:50Z</time>
      </trkpt>
      <trkpt lat="45.85875" lon="6.4457">
        <ele>1974.7</ele>
        <time>2024-04-27T12:34:51Z</time>
      </trkpt>
      <trkpt lat="45.85876" lon="6.44571">
        <ele>1975.6</ele>
        <time>2024-04-27T12:34:52Z</time>
      </trkpt>
      <trkpt lat="45.85876" lon="6.44571">
        <ele>1975.6</ele>
        <time>2024-04-27T12:34:53Z</time>
      </trkpt>
      <trkpt lat="45.85877" lon="6.44571">
        <ele>1975.6</ele>
        <time>2024-04-27T12:34:54Z</time>
      </trkpt>
      <trkpt lat="45.85877" lon="6.44571">
        <ele>1975.6</ele>
        <time>2024-04-27T12:34:55Z</time>
      </trkpt>
      <trkpt lat="45.85878" lon="6.44571">
        <ele>1975.6</ele>
        <time>2024-04-27T12:34:56Z</time>
      </trkpt>
      <trkpt lat="45.85879" lon="6.44572">
        <ele>1975.6</ele>
        <time>2024-04-27T12:34:57Z</time>
      </trkpt>
      <trkpt lat="45.85879" lon="6.44572">
        <ele>1976.7</ele>
        <time>2024-04-27T12:34:58Z</time>
      </trkpt>
      <trkpt lat="45.8588" lon="6.44572">
        <ele>1976.7</ele>
        <time>2024-04-27T12:34:59Z</time>
      </trkpt>
      <trkpt lat="45.8588" lon="6.44572">
        <ele>1976.7</ele>
        <time>2024-04-27T12:35:00Z</time>
      </trkpt>
      <trkpt lat="45.85881" lon="6.44572">
        <ele>1976.7</ele>
        <time>2024-04-27T12:35:01Z</time>
      </trkpt>
      <trkpt lat="45.85881" lon="6.44572">
        <ele>1976.7</ele>
        <time>2024-04-27T12:35:02Z</time>
      </trkpt>
      <trkpt lat="45.85882" lon="6.44572">
        <ele>1976.7</ele>
        <time>2024-04-27T12:35:03Z</time>
      </trkpt>
      <trkpt lat="45.85882" lon="6.44572">
        <ele>1977.7</ele>
        <time>2024-04-27T12:35:04Z</time>
      </trkpt>
      <trkpt lat="45.85882" lon="6.44571">
        <ele>1977.7</ele>
        <time>2024-04-27T12:35:05Z</time>
      </trkpt>
      <trkpt lat="45.85882" lon="6.44571">
        <ele>1977.7</ele>
        <time>2024-04-27T12:35:06Z</time>
      </trkpt>
      <trkpt lat="45.85882" lon="6.44571">
        <ele>1977.7</ele>
        <time>2024-04-27T12:35:07Z</time>
      </trkpt>
      <trkpt lat="45.85883" lon="6.44571">
        <ele>1977.7</ele>
        <time>2024-04-27T12:35:08Z</time>
      </trkpt>
      <trkpt lat="45.85883" lon="6.4457">
        <ele>1977.7</ele>
        <time>2024-04-27T12:35:09Z</time>
      </trkpt>
      <trkpt lat="45.85883" lon="6.44571">
        <ele>1978.6</ele>
        <time>2024-04-27T12:35:10Z</time>
      </trkpt>
      <trkpt lat="45.85883" lon="6.44571">
        <ele>1978.6</ele>
        <time>2024-04-27T12:35:11Z</time>
      </trkpt>
      <trkpt lat="45.85884" lon="6.44571">
        <ele>1978.6</ele>
        <time>2024-04-27T12:35:12Z</time>
      </trkpt>
      <trkpt lat="45.85885" lon="6.44572">
        <ele>1978.6</ele>
        <time>2024-04-27T12:35:13Z</time>
      </trkpt>
      <trkpt lat="45.85885" lon="6.44573">
        <ele>1978.6</ele>
        <time>2024-04-27T12:35:14Z</time>
      </trkpt>
      <trkpt lat="45.85885" lon="6.44574">
        <ele>1978.6</ele>
        <time>2024-04-27T12:35:15Z</time>
      </trkpt>
      <trkpt lat="45.85886" lon="6.44575">
        <ele>1979.7</ele>
        <time>2024-04-27T12:35:16Z</time>
      </trkpt>
      <trkpt lat="45.85886" lon="6.44576">
        <ele>1979.7</ele>
        <time>2024-04-27T12:35:17Z</time>
      </trkpt>
      <trkpt lat="45.85886" lon="6.44577">
        <ele>1980.6</ele>
        <time>2024-04-27T12:35:18Z</time>
      </trkpt>
      <trkpt lat="45.85886" lon="6.44578">
        <ele>1980.6</ele>
        <time>2024-04-27T12:35:19Z</time>
      </trkpt>
      <trkpt lat="45.85886" lon="6.44579">
        <ele>1980.6</ele>
        <time>2024-04-27T12:35:20Z</time>
      </trkpt>
      <trkpt lat="45.85886" lon="6.4458">
        <ele>1980.6</ele>
        <time>2024-04-27T12:35:21Z</time>
      </trkpt>
      <trkpt lat="45.85886" lon="6.44581">
        <ele>1980.6</ele>
        <time>2024-04-27T12:35:22Z</time>
      </trkpt>
      <trkpt lat="45.85886" lon="6.44582">
        <ele>1980.6</ele>
        <time>2024-04-27T12:35:23Z</time>
      </trkpt>
      <trkpt lat="45.85886" lon="6.44583">
        <ele>1980.6</ele>
        <time>2024-04-27T12:35:24Z</time>
      </trkpt>
      <trkpt lat="45.85885" lon="6.44584">
        <ele>1980.6</ele>
        <time>2024-04-27T12:35:25Z</time>
      </trkpt>
      <trkpt lat="45.85886" lon="6.44584">
        <ele>1981.7</ele>
        <time>2024-04-27T12:35:26Z</time>
      </trkpt>
      <trkpt lat="45.85886" lon="6.44585">
        <ele>1981.7</ele>
        <time>2024-04-27T12:35:27Z</time>
      </trkpt>
      <trkpt lat="45.85886" lon="6.44587">
        <ele>1981.7</ele>
        <time>2024-04-27T12:35:28Z</time>
      </trkpt>
      <trkpt lat="45.85886" lon="6.44588">
        <ele>1981.7</ele>
        <time>2024-04-27T12:35:29Z</time>
      </trkpt>
      <trkpt lat="45.85886" lon="6.44589">
        <ele>1982.6</ele>
        <time>2024-04-27T12:35:30Z</time>
      </trkpt>
      <trkpt lat="45.85886" lon="6.44589">
        <ele>1982.6</ele>
        <time>2024-04-27T12:35:31Z</time>
      </trkpt>
      <trkpt lat="45.85886" lon="6.44589">
        <ele>1982.6</ele>
        <time>2024-04-27T12:35:32Z</time>
      </trkpt>
      <trkpt lat="45.85885" lon="6.4459">
        <ele>1982.6</ele>
        <time>2024-04-27T12:35:33Z</time>
      </trkpt>
      <trkpt lat="45.85885" lon="6.4459">
        <ele>1982.6</ele>
        <time>2024-04-27T12:35:34Z</time>
      </trkpt>
      <trkpt lat="45.85885" lon="6.44591">
        <ele>1982.6</ele>
        <time>2024-04-27T12:35:35Z</time>
      </trkpt>
      <trkpt lat="45.85885" lon="6.44593">
        <ele>1982.6</ele>
        <time>2024-04-27T12:35:36Z</time>
      </trkpt>
      <trkpt lat="45.85885" lon="6.44594">
        <ele>1982.6</ele>
        <time>2024-04-27T12:35:37Z</time>
      </trkpt>
      <trkpt lat="45.85885" lon="6.44595">
        <ele>1983.7</ele>
        <time>2024-04-27T12:35:38Z</time>
      </trkpt>
      <trkpt lat="45.85886" lon="6.44596">
        <ele>1983.7</ele>
        <time>2024-04-27T12:35:39Z</time>
      </trkpt>
      <trkpt lat="45.85885" lon="6.44597">
        <ele>1983.7</ele>
        <time>2024-04-27T12:35:40Z</time>
      </trkpt>
      <trkpt lat="45.85884" lon="6.44597">
        <ele>1983.7</ele>
        <time>2024-04-27T12:35:41Z</time>
      </trkpt>
      <trkpt lat="45.85883" lon="6.44597">
        <ele>1984.6</ele>
        <time>2024-04-27T12:35:42Z</time>
      </trkpt>
      <trkpt lat="45.85883" lon="6.44597">
        <ele>1984.6</ele>
        <time>2024-04-27T12:35:43Z</time>
      </trkpt>
      <trkpt lat="45.85882" lon="6.44598">
        <ele>1984.6</ele>
        <time>2024-04-27T12:35:44Z</time>
      </trkpt>
      <trkpt lat="45.85882" lon="6.44599">
        <ele>1984.6</ele>
        <time>2024-04-27T12:35:45Z</time>
      </trkpt>
      <trkpt lat="45.85883" lon="6.446">
        <ele>1984.6</ele>
        <time>2024-04-27T12:35:46Z</time>
      </trkpt>
      <trkpt lat="45.85882" lon="6.446">
        <ele>1984.6</ele>
        <time>2024-04-27T12:35:47Z</time>
      </trkpt>
      <trkpt lat="45.85882" lon="6.44601">
        <ele>1985.6</ele>
        <time>2024-04-27T12:35:48Z</time>
      </trkpt>
      <trkpt lat="45.85882" lon="6.44601">
        <ele>1985.6</ele>
        <time>2024-04-27T12:35:49Z</time>
      </trkpt>
      <trkpt lat="45.85881" lon="6.44601">
        <ele>1985.6</ele>
        <time>2024-04-27T12:35:50Z</time>
      </trkpt>
      <trkpt lat="45.8588" lon="6.44602">
        <ele>1985.6</ele>
        <time>2024-04-27T12:35:51Z</time>
      </trkpt>
      <trkpt lat="45.8588" lon="6.44603">
        <ele>1985.6</ele>
        <time>2024-04-27T12:35:52Z</time>
      </trkpt>
      <trkpt lat="45.8588" lon="6.44604">
        <ele>1985.6</ele>
        <time>2024-04-27T12:35:53Z</time>
      </trkpt>
      <trkpt lat="45.8588" lon="6.44605">
        <ele>1986.7</ele>
        <time>2024-04-27T12:35:54Z</time>
      </trkpt>
      <trkpt lat="45.8588" lon="6.44605">
        <ele>1986.7</ele>
        <time>2024-04-27T12:35:55Z</time>
      </trkpt>
      <trkpt lat="45.85879" lon="6.44606">
        <ele>1986.7</ele>
        <time>2024-04-27T12:35:56Z</time>
      </trkpt>
      <trkpt lat="45.85879" lon="6.44606">
        <ele>1986.7</ele>
        <time>2024-04-27T12:35:57Z</time>
      </trkpt>
      <trkpt lat="45.85878" lon="6.44606">
        <ele>1987.6</ele>
        <time>2024-04-27T12:35:58Z</time>
      </trkpt>
      <trkpt lat="45.85877" lon="6.44606">
        <ele>1987.6</ele>
        <time>2024-04-27T12:35:59Z</time>
      </trkpt>
      <trkpt lat="45.85876" lon="6.44606">
        <ele>1987.6</ele>
        <time>2024-04-27T12:36:00Z</time>
      </trkpt>
      <trkpt lat="45.85876" lon="6.44606">
        <ele>1987.6</ele>
        <time>2024-04-27T12:36:01Z</time>
      </trkpt>
      <trkpt lat="45.85876" lon="6.44606">
        <ele>1987.6</ele>
        <time>2024-04-27T12:36:02Z</time>
      </trkpt>
      <trkpt lat="45.85876" lon="6.44607">
        <ele>1987.6</ele>
        <time>2024-04-27T12:36:03Z</time>
      </trkpt>
      <trkpt lat="45.85877" lon="6.44607">
        <ele>1987.6</ele>
        <time>2024-04-27T12:36:04Z</time>
      </trkpt>
      <trkpt lat="45.85877" lon="6.44607">
        <ele>1987.6</ele>
        <time>2024-04-27T12:36:05Z</time>
      </trkpt>
      <trkpt lat="45.85877" lon="6.44607">
        <ele>1987.6</ele>
        <time>2024-04-27T12:36:06Z</time>
      </trkpt>
      <trkpt lat="45.85877" lon="6.44607">
        <ele>1987.6</ele>
        <time>2024-04-27T12:36:07Z</time>
      </trkpt>
      <trkpt lat="45.85878" lon="6.44607">
        <ele>1987.6</ele>
        <time>2024-04-27T12:36:08Z</time>
      </trkpt>
      <trkpt lat="45.85878" lon="6.44608">
        <ele>1987.6</ele>
        <time>2024-04-27T12:36:09Z</time>
      </trkpt>
      <trkpt lat="45.85879" lon="6.44608">
        <ele>1987.6</ele>
        <time>2024-04-27T12:36:10Z</time>
      </trkpt>
      <trkpt lat="45.85879" lon="6.44609">
        <ele>1987.6</ele>
        <time>2024-04-27T12:36:11Z</time>
      </trkpt>
      <trkpt lat="45.8588" lon="6.44609">
        <ele>1987.6</ele>
        <time>2024-04-27T12:36:12Z</time>
      </trkpt>
      <trkpt lat="45.8588" lon="6.44609">
        <ele>1987.6</ele>
        <time>2024-04-27T12:36:13Z</time>
      </trkpt>
      <trkpt lat="45.8588" lon="6.44609">
        <ele>1987.6</ele>
        <time>2024-04-27T12:36:14Z</time>
      </trkpt>
      <trkpt lat="45.85879" lon="6.4461">
        <ele>1987.6</ele>
        <time>2024-04-27T12:36:15Z</time>
      </trkpt>
      <trkpt lat="45.85879" lon="6.44609">
        <ele>1987.6</ele>
        <time>2024-04-27T12:36:16Z</time>
      </trkpt>
      <trkpt lat="45.85879" lon="6.44609">
        <ele>1987.6</ele>
        <time>2024-04-27T12:36:17Z</time>
      </trkpt>
      <trkpt lat="45.85879" lon="6.44609">
        <ele>1987.6</ele>
        <time>2024-04-27T12:36:18Z</time>
      </trkpt>
      <trkpt lat="45.85879" lon="6.44608">
        <ele>1987.6</ele>
        <time>2024-04-27T12:36:19Z</time>
      </trkpt>
      <trkpt lat="45.8588" lon="6.44608">
        <ele>1987.6</ele>
        <time>2024-04-27T12:36:20Z</time>
      </trkpt>
      <trkpt lat="45.8588" lon="6.44608">
        <ele>1987.6</ele>
        <time>2024-04-27T12:36:21Z</time>
      </trkpt>
      <trkpt lat="45.8588" lon="6.44608">
        <ele>1990.7</ele>
        <time>2024-04-27T12:36:22Z</time>
      </trkpt>
      <trkpt lat="45.85881" lon="6.44608">
        <ele>1990.7</ele>
        <time>2024-04-27T12:36:23Z</time>
      </trkpt>
      <trkpt lat="45.85881" lon="6.44608">
        <ele>1990.7</ele>
        <time>2024-04-27T12:36:24Z</time>
      </trkpt>
      <trkpt lat="45.85881" lon="6.44608">
        <ele>1990.7</ele>
        <time>2024-04-27T12:36:25Z</time>
      </trkpt>
      <trkpt lat="45.85882" lon="6.44608">
        <ele>1990.7</ele>
        <time>2024-04-27T12:36:26Z</time>
      </trkpt>
      <trkpt lat="45.85882" lon="6.44608">
        <ele>1990.7</ele>
        <time>2024-04-27T12:36:27Z</time>
      </trkpt>
      <trkpt lat="45.85883" lon="6.44609">
        <ele>1991.6</ele>
        <time>2024-04-27T12:36:28Z</time>
      </trkpt>
      <trkpt lat="45.85883" lon="6.44609">
        <ele>1991.6</ele>
        <time>2024-04-27T12:36:29Z</time>
      </trkpt>
      <trkpt lat="45.85883" lon="6.44609">
        <ele>1991.6</ele>
        <time>2024-04-27T12:36:30Z</time>
      </trkpt>
      <trkpt lat="45.85884" lon="6.44608">
        <ele>1991.6</ele>
        <time>2024-04-27T12:36:31Z</time>
      </trkpt>
      <trkpt lat="45.85884" lon="6.44609">
        <ele>1992.7</ele>
        <time>2024-04-27T12:36:32Z</time>
      </trkpt>
      <trkpt lat="45.85884" lon="6.44608">
        <ele>1992.7</ele>
        <time>2024-04-27T12:36:33Z</time>
      </trkpt>
      <trkpt lat="45.85885" lon="6.44608">
        <ele>1992.7</ele>
        <time>2024-04-27T12:36:34Z</time>
      </trkpt>
      <trkpt lat="45.85886" lon="6.44609">
        <ele>1992.7</ele>
        <time>2024-04-27T12:36:35Z</time>
      </trkpt>
      <trkpt lat="45.85886" lon="6.44609">
        <ele>1992.7</ele>
        <time>2024-04-27T12:36:36Z</time>
      </trkpt>
      <trkpt lat="45.85886" lon="6.44609">
        <ele>1992.7</ele>
        <time>2024-04-27T12:36:37Z</time>
      </trkpt>
      <trkpt lat="45.85887" lon="6.4461">
        <ele>1992.7</ele>
        <time>2024-04-27T12:36:38Z</time>
      </trkpt>
      <trkpt lat="45.85886" lon="6.4461">
        <ele>1992.7</ele>
        <time>2024-04-27T12:36:39Z</time>
      </trkpt>
      <trkpt lat="45.85886" lon="6.4461">
        <ele>1992.7</ele>
        <time>2024-04-27T12:36:40Z</time>
      </trkpt>
      <trkpt lat="45.85886" lon="6.44611">
        <ele>1992.7</ele>
        <time>2024-04-27T12:36:41Z</time>
      </trkpt>
      <trkpt lat="45.85886" lon="6.44612">
        <ele>1992.7</ele>
        <time>2024-04-27T12:36:42Z</time>
      </trkpt>
      <trkpt lat="45.85886" lon="6.44613">
        <ele>1992.7</ele>
        <time>2024-04-27T12:36:43Z</time>
      </trkpt>
      <trkpt lat="45.85886" lon="6.44613">
        <ele>1995.7</ele>
        <time>2024-04-27T12:36:44Z</time>
      </trkpt>
      <trkpt lat="45.85886" lon="6.44614">
        <ele>1995.7</ele>
        <time>2024-04-27T12:36:45Z</time>
      </trkpt>
      <trkpt lat="45.85886" lon="6.44615">
        <ele>1996.6</ele>
        <time>2024-04-27T12:36:46Z</time>
      </trkpt>
      <trkpt lat="45.85886" lon="6.44616">
        <ele>1996.6</ele>
        <time>2024-04-27T12:36:47Z</time>
      </trkpt>
      <trkpt lat="45.85886" lon="6.44617">
        <ele>1996.6</ele>
        <time>2024-04-27T12:36:48Z</time>
      </trkpt>
      <trkpt lat="45.85885" lon="6.44618">
        <ele>1996.6</ele>
        <time>2024-04-27T12:36:49Z</time>
      </trkpt>
      <trkpt lat="45.85885" lon="6.44619">
        <ele>1997.7</ele>
        <time>2024-04-27T12:36:50Z</time>
      </trkpt>
      <trkpt lat="45.85885" lon="6.44619">
        <ele>1997.7</ele>
        <time>2024-04-27T12:36:51Z</time>
      </trkpt>
      <trkpt lat="45.85884" lon="6.4462">
        <ele>1997.7</ele>
        <time>2024-04-27T12:36:52Z</time>
      </trkpt>
      <trkpt lat="45.85884" lon="6.44621">
        <ele>1997.7</ele>
        <time>2024-04-27T12:36:53Z</time>
      </trkpt>
      <trkpt lat="45.85884" lon="6.44622">
        <ele>1997.7</ele>
        <time>2024-04-27T12:36:54Z</time>
      </trkpt>
      <trkpt lat="45.85885" lon="6.44623">
        <ele>1997.7</ele>
        <time>2024-04-27T12:36:55Z</time>
      </trkpt>
      <trkpt lat="45.85884" lon="6.44624">
        <ele>1997.7</ele>
        <time>2024-04-27T12:36:56Z</time>
      </trkpt>
      <trkpt lat="45.85884" lon="6.44625">
        <ele>1997.7</ele>
        <time>2024-04-27T12:36:57Z</time>
      </trkpt>
      <trkpt lat="45.85883" lon="6.44625">
        <ele>1997.7</ele>
        <time>2024-04-27T12:36:58Z</time>
      </trkpt>
      <trkpt lat="45.85883" lon="6.44626">
        <ele>1997.7</ele>
        <time>2024-04-27T12:36:59Z</time>
      </trkpt>
      <trkpt lat="45.85883" lon="6.44627">
        <ele>1997.7</ele>
        <time>2024-04-27T12:37:00Z</time>
      </trkpt>
      <trkpt lat="45.85883" lon="6.44628">
        <ele>1997.7</ele>
        <time>2024-04-27T12:37:01Z</time>
      </trkpt>
      <trkpt lat="45.85883" lon="6.44628">
        <ele>1999.7</ele>
        <time>2024-04-27T12:37:02Z</time>
      </trkpt>
      <trkpt lat="45.85883" lon="6.44629">
        <ele>1999.7</ele>
        <time>2024-04-27T12:37:03Z</time>
      </trkpt>
      <trkpt lat="45.85882" lon="6.4463">
        <ele>1999.7</ele>
        <time>2024-04-27T12:37:04Z</time>
      </trkpt>
      <trkpt lat="45.85882" lon="6.4463">
        <ele>1999.7</ele>
        <time>2024-04-27T12:37:05Z</time>
      </trkpt>
      <trkpt lat="45.8588" lon="6.4463">
        <ele>1999.7</ele>
        <time>2024-04-27T12:37:06Z</time>
      </trkpt>
      <trkpt lat="45.85879" lon="6.44631">
        <ele>1999.7</ele>
        <time>2024-04-27T12:37:07Z</time>
      </trkpt>
      <trkpt lat="45.85879" lon="6.44632">
        <ele>1999.7</ele>
        <time>2024-04-27T12:37:08Z</time>
      </trkpt>
      <trkpt lat="45.85879" lon="6.44632">
        <ele>1999.7</ele>
        <time>2024-04-27T12:37:09Z</time>
      </trkpt>
      <trkpt lat="45.85879" lon="6.44633">
        <ele>1999.7</ele>
        <time>2024-04-27T12:37:10Z</time>
      </trkpt>
      <trkpt lat="45.85879" lon="6.44634">
        <ele>1999.7</ele>
        <time>2024-04-27T12:37:11Z</time>
      </trkpt>
      <trkpt lat="45.85879" lon="6.44635">
        <ele>1999.7</ele>
        <time>2024-04-27T12:37:12Z</time>
      </trkpt>
      <trkpt lat="45.85878" lon="6.44635">
        <ele>1999.7</ele>
        <time>2024-04-27T12:37:13Z</time>
      </trkpt>
      <trkpt lat="45.85878" lon="6.44635">
        <ele>2001.6</ele>
        <time>2024-04-27T12:37:14Z</time>
      </trkpt>
      <trkpt lat="45.85877" lon="6.44636">
        <ele>2001.6</ele>
        <time>2024-04-27T12:37:15Z</time>
      </trkpt>
      <trkpt lat="45.85877" lon="6.44636">
        <ele>2001.6</ele>
        <time>2024-04-27T12:37:16Z</time>
      </trkpt>
      <trkpt lat="45.85876" lon="6.44636">
        <ele>2001.6</ele>
        <time>2024-04-27T12:37:17Z</time>
      </trkpt>
      <trkpt lat="45.85876" lon="6.44637">
        <ele>2002.7</ele>
        <time>2024-04-27T12:37:18Z</time>
      </trkpt>
      <trkpt lat="45.85875" lon="6.44637">
        <ele>2002.7</ele>
        <time>2024-04-27T12:37:19Z</time>
      </trkpt>
      <trkpt lat="45.85874" lon="6.44637">
        <ele>2002.7</ele>
        <time>2024-04-27T12:37:20Z</time>
      </trkpt>
      <trkpt lat="45.85873" lon="6.44637">
        <ele>2002.7</ele>
        <time>2024-04-27T12:37:21Z</time>
      </trkpt>
      <trkpt lat="45.85873" lon="6.44637">
        <ele>2002.7</ele>
        <time>2024-04-27T12:37:22Z</time>
      </trkpt>
      <trkpt lat="45.85872" lon="6.44637">
        <ele>2002.7</ele>
        <time>2024-04-27T12:37:23Z</time>
      </trkpt>
      <trkpt lat="45.85872" lon="6.44638">
        <ele>2002.7</ele>
        <time>2024-04-27T12:37:24Z</time>
      </trkpt>
      <trkpt lat="45.85871" lon="6.44638">
        <ele>2002.7</ele>
        <time>2024-04-27T12:37:25Z</time>
      </trkpt>
      <trkpt lat="45.85871" lon="6.44638">
        <ele>2002.7</ele>
        <time>2024-04-27T12:37:26Z</time>
      </trkpt>
      <trkpt lat="45.8587" lon="6.44639">
        <ele>2002.7</ele>
        <time>2024-04-27T12:37:27Z</time>
      </trkpt>
      <trkpt lat="45.8587" lon="6.44639">
        <ele>2003.6</ele>
        <time>2024-04-27T12:37:28Z</time>
      </trkpt>
      <trkpt lat="45.85869" lon="6.44639">
        <ele>2003.6</ele>
        <time>2024-04-27T12:37:29Z</time>
      </trkpt>
      <trkpt lat="45.85869" lon="6.4464">
        <ele>2004.7</ele>
        <time>2024-04-27T12:37:30Z</time>
      </trkpt>
      <trkpt lat="45.85868" lon="6.4464">
        <ele>2004.7</ele>
        <time>2024-04-27T12:37:31Z</time>
      </trkpt>
      <trkpt lat="45.85867" lon="6.44641">
        <ele>2004.7</ele>
        <time>2024-04-27T12:37:32Z</time>
      </trkpt>
      <trkpt lat="45.85866" lon="6.44641">
        <ele>2004.7</ele>
        <time>2024-04-27T12:37:33Z</time>
      </trkpt>
      <trkpt lat="45.85866" lon="6.44641">
        <ele>2005.6</ele>
        <time>2024-04-27T12:37:34Z</time>
      </trkpt>
      <trkpt lat="45.85865" lon="6.44641">
        <ele>2005.6</ele>
        <time>2024-04-27T12:37:35Z</time>
      </trkpt>
      <trkpt lat="45.85864" lon="6.44641">
        <ele>2005.6</ele>
        <time>2024-04-27T12:37:36Z</time>
      </trkpt>
      <trkpt lat="45.85863" lon="6.44641">
        <ele>2005.6</ele>
        <time>2024-04-27T12:37:37Z</time>
      </trkpt>
      <trkpt lat="45.85863" lon="6.44642">
        <ele>2005.6</ele>
        <time>2024-04-27T12:37:38Z</time>
      </trkpt>
      <trkpt lat="45.85863" lon="6.44642">
        <ele>2005.6</ele>
        <time>2024-04-27T12:37:39Z</time>
      </trkpt>
      <trkpt lat="45.85862" lon="6.44643">
        <ele>2005.6</ele>
        <time>2024-04-27T12:37:40Z</time>
      </trkpt>
      <trkpt lat="45.85862" lon="6.44643">
        <ele>2005.6</ele>
        <time>2024-04-27T12:37:41Z</time>
      </trkpt>
      <trkpt lat="45.85861" lon="6.44644">
        <ele>2005.6</ele>
        <time>2024-04-27T12:37:42Z</time>
      </trkpt>
      <trkpt lat="45.85861" lon="6.44644">
        <ele>2005.6</ele>
        <time>2024-04-27T12:37:43Z</time>
      </trkpt>
      <trkpt lat="45.85861" lon="6.44645">
        <ele>2006.7</ele>
        <time>2024-04-27T12:37:44Z</time>
      </trkpt>
      <trkpt lat="45.85861" lon="6.44646">
        <ele>2006.7</ele>
        <time>2024-04-27T12:37:45Z</time>
      </trkpt>
      <trkpt lat="45.85861" lon="6.44646">
        <ele>2006.7</ele>
        <time>2024-04-27T12:37:46Z</time>
      </trkpt>
      <trkpt lat="45.8586" lon="6.44647">
        <ele>2006.7</ele>
        <time>2024-04-27T12:37:47Z</time>
      </trkpt>
      <trkpt lat="45.8586" lon="6.44648">
        <ele>2006.7</ele>
        <time>2024-04-27T12:37:48Z</time>
      </trkpt>
      <trkpt lat="45.8586" lon="6.44648">
        <ele>2006.7</ele>
        <time>2024-04-27T12:37:49Z</time>
      </trkpt>
      <trkpt lat="45.8586" lon="6.44648">
        <ele>2007.6</ele>
        <time>2024-04-27T12:37:50Z</time>
      </trkpt>
      <trkpt lat="45.85859" lon="6.44649">
        <ele>2007.6</ele>
        <time>2024-04-27T12:37:51Z</time>
      </trkpt>
      <trkpt lat="45.85859" lon="6.4465">
        <ele>2007.6</ele>
        <time>2024-04-27T12:37:52Z</time>
      </trkpt>
      <trkpt lat="45.85859" lon="6.44651">
        <ele>2007.6</ele>
        <time>2024-04-27T12:37:53Z</time>
      </trkpt>
      <trkpt lat="45.85859" lon="6.44652">
        <ele>2008.7</ele>
        <time>2024-04-27T12:37:54Z</time>
      </trkpt>
      <trkpt lat="45.85859" lon="6.44652">
        <ele>2008.7</ele>
        <time>2024-04-27T12:37:55Z</time>
      </trkpt>
      <trkpt lat="45.85858" lon="6.44653">
        <ele>2008.7</ele>
        <time>2024-04-27T12:37:56Z</time>
      </trkpt>
      <trkpt lat="45.85858" lon="6.44655">
        <ele>2008.7</ele>
        <time>2024-04-27T12:37:57Z</time>
      </trkpt>
      <trkpt lat="45.85858" lon="6.44655">
        <ele>2009.7</ele>
        <time>2024-04-27T12:37:58Z</time>
      </trkpt>
      <trkpt lat="45.85858" lon="6.44656">
        <ele>2009.7</ele>
        <time>2024-04-27T12:37:59Z</time>
      </trkpt>
      <trkpt lat="45.85858" lon="6.44657">
        <ele>2009.7</ele>
        <time>2024-04-27T12:38:00Z</time>
      </trkpt>
      <trkpt lat="45.85858" lon="6.44658">
        <ele>2009.7</ele>
        <time>2024-04-27T12:38:01Z</time>
      </trkpt>
      <trkpt lat="45.85857" lon="6.44658">
        <ele>2009.7</ele>
        <time>2024-04-27T12:38:02Z</time>
      </trkpt>
      <trkpt lat="45.85857" lon="6.44658">
        <ele>2009.7</ele>
        <time>2024-04-27T12:38:03Z</time>
      </trkpt>
      <trkpt lat="45.85856" lon="6.44658">
        <ele>2009.7</ele>
        <time>2024-04-27T12:38:04Z</time>
      </trkpt>
      <trkpt lat="45.85856" lon="6.44659">
        <ele>2009.7</ele>
        <time>2024-04-27T12:38:05Z</time>
      </trkpt>
      <trkpt lat="45.85856" lon="6.4466">
        <ele>2010.6</ele>
        <time>2024-04-27T12:38:06Z</time>
      </trkpt>
      <trkpt lat="45.85856" lon="6.4466">
        <ele>2010.6</ele>
        <time>2024-04-27T12:38:07Z</time>
      </trkpt>
      <trkpt lat="45.85855" lon="6.44661">
        <ele>2010.6</ele>
        <time>2024-04-27T12:38:08Z</time>
      </trkpt>
      <trkpt lat="45.85855" lon="6.44662">
        <ele>2010.6</ele>
        <time>2024-04-27T12:38:09Z</time>
      </trkpt>
      <trkpt lat="45.85855" lon="6.44662">
        <ele>2010.6</ele>
        <time>2024-04-27T12:38:10Z</time>
      </trkpt>
      <trkpt lat="45.85855" lon="6.44662">
        <ele>2010.6</ele>
        <time>2024-04-27T12:38:11Z</time>
      </trkpt>
      <trkpt lat="45.85855" lon="6.44664">
        <ele>2011.7</ele>
        <time>2024-04-27T12:38:12Z</time>
      </trkpt>
      <trkpt lat="45.85855" lon="6.44664">
        <ele>2011.7</ele>
        <time>2024-04-27T12:38:13Z</time>
      </trkpt>
      <trkpt lat="45.85854" lon="6.44664">
        <ele>2011.7</ele>
        <time>2024-04-27T12:38:14Z</time>
      </trkpt>
      <trkpt lat="45.85854" lon="6.44664">
        <ele>2011.7</ele>
        <time>2024-04-27T12:38:15Z</time>
      </trkpt>
      <trkpt lat="45.85853" lon="6.44665">
        <ele>2012.6</ele>
        <time>2024-04-27T12:38:16Z</time>
      </trkpt>
      <trkpt lat="45.85853" lon="6.44666">
        <ele>2012.6</ele>
        <time>2024-04-27T12:38:17Z</time>
      </trkpt>
      <trkpt lat="45.85853" lon="6.44667">
        <ele>2012.6</ele>
        <time>2024-04-27T12:38:18Z</time>
      </trkpt>
      <trkpt lat="45.85853" lon="6.44668">
        <ele>2012.6</ele>
        <time>2024-04-27T12:38:19Z</time>
      </trkpt>
      <trkpt lat="45.85852" lon="6.44669">
        <ele>2012.6</ele>
        <time>2024-04-27T12:38:20Z</time>
      </trkpt>
      <trkpt lat="45.85852" lon="6.44669">
        <ele>2012.6</ele>
        <time>2024-04-27T12:38:21Z</time>
      </trkpt>
      <trkpt lat="45.85852" lon="6.44672">
        <ele>2013.7</ele>
        <time>2024-04-27T12:38:22Z</time>
      </trkpt>
      <trkpt lat="45.85852" lon="6.44673">
        <ele>2013.7</ele>
        <time>2024-04-27T12:38:23Z</time>
      </trkpt>
      <trkpt lat="45.85852" lon="6.44674">
        <ele>2013.7</ele>
        <time>2024-04-27T12:38:24Z</time>
      </trkpt>
      <trkpt lat="45.85852" lon="6.44675">
        <ele>2013.7</ele>
        <time>2024-04-27T12:38:25Z</time>
      </trkpt>
      <trkpt lat="45.85851" lon="6.44675">
        <ele>2014.6</ele>
        <time>2024-04-27T12:38:26Z</time>
      </trkpt>
      <trkpt lat="45.85851" lon="6.44676">
        <ele>2014.6</ele>
        <time>2024-04-27T12:38:27Z</time>
      </trkpt>
      <trkpt lat="45.85851" lon="6.44677">
        <ele>2014.6</ele>
        <time>2024-04-27T12:38:28Z</time>
      </trkpt>
      <trkpt lat="45.8585" lon="6.44677">
        <ele>2014.6</ele>
        <time>2024-04-27T12:38:29Z</time>
      </trkpt>
      <trkpt lat="45.8585" lon="6.44678">
        <ele>2014.6</ele>
        <time>2024-04-27T12:38:30Z</time>
      </trkpt>
      <trkpt lat="45.8585" lon="6.44679">
        <ele>2014.6</ele>
        <time>2024-04-27T12:38:31Z</time>
      </trkpt>
      <trkpt lat="45.8585" lon="6.4468">
        <ele>2014.6</ele>
        <time>2024-04-27T12:38:32Z</time>
      </trkpt>
      <trkpt lat="45.8585" lon="6.44681">
        <ele>2014.6</ele>
        <time>2024-04-27T12:38:33Z</time>
      </trkpt>
      <trkpt lat="45.85849" lon="6.44682">
        <ele>2015.7</ele>
        <time>2024-04-27T12:38:34Z</time>
      </trkpt>
      <trkpt lat="45.85849" lon="6.44682">
        <ele>2015.7</ele>
        <time>2024-04-27T12:38:35Z</time>
      </trkpt>
      <trkpt lat="45.85849" lon="6.44684">
        <ele>2015.7</ele>
        <time>2024-04-27T12:38:36Z</time>
      </trkpt>
      <trkpt lat="45.85849" lon="6.44685">
        <ele>2015.7</ele>
        <time>2024-04-27T12:38:37Z</time>
      </trkpt>
      <trkpt lat="45.8585" lon="6.44686">
        <ele>2016.6</ele>
        <time>2024-04-27T12:38:38Z</time>
      </trkpt>
      <trkpt lat="45.8585" lon="6.44686">
        <ele>2016.6</ele>
        <time>2024-04-27T12:38:39Z</time>
      </trkpt>
      <trkpt lat="45.8585" lon="6.44688">
        <ele>2016.6</ele>
        <time>2024-04-27T12:38:40Z</time>
      </trkpt>
      <trkpt lat="45.85849" lon="6.44689">
        <ele>2016.6</ele>
        <time>2024-04-27T12:38:41Z</time>
      </trkpt>
      <trkpt lat="45.85849" lon="6.44689">
        <ele>2016.6</ele>
        <time>2024-04-27T12:38:42Z</time>
      </trkpt>
      <trkpt lat="45.85849" lon="6.4469">
        <ele>2016.6</ele>
        <time>2024-04-27T12:38:43Z</time>
      </trkpt>
      <trkpt lat="45.85848" lon="6.44691">
        <ele>2017.6</ele>
        <time>2024-04-27T12:38:44Z</time>
      </trkpt>
      <trkpt lat="45.85849" lon="6.44692">
        <ele>2017.6</ele>
        <time>2024-04-27T12:38:45Z</time>
      </trkpt>
      <trkpt lat="45.85849" lon="6.44693">
        <ele>2018.7</ele>
        <time>2024-04-27T12:38:46Z</time>
      </trkpt>
      <trkpt lat="45.85849" lon="6.44693">
        <ele>2018.7</ele>
        <time>2024-04-27T12:38:47Z</time>
      </trkpt>
      <trkpt lat="45.85849" lon="6.44694">
        <ele>2018.7</ele>
        <time>2024-04-27T12:38:48Z</time>
      </trkpt>
      <trkpt lat="45.85849" lon="6.44695">
        <ele>2018.7</ele>
        <time>2024-04-27T12:38:49Z</time>
      </trkpt>
      <trkpt lat="45.85849" lon="6.44695">
        <ele>2019.6</ele>
        <time>2024-04-27T12:38:50Z</time>
      </trkpt>
      <trkpt lat="45.85849" lon="6.44696">
        <ele>2019.6</ele>
        <time>2024-04-27T12:38:51Z</time>
      </trkpt>
      <trkpt lat="45.85849" lon="6.44696">
        <ele>2019.6</ele>
        <time>2024-04-27T12:38:52Z</time>
      </trkpt>
      <trkpt lat="45.8585" lon="6.44696">
        <ele>2019.6</ele>
        <time>2024-04-27T12:38:53Z</time>
      </trkpt>
      <trkpt lat="45.8585" lon="6.44696">
        <ele>2019.6</ele>
        <time>2024-04-27T12:38:54Z</time>
      </trkpt>
      <trkpt lat="45.8585" lon="6.44696">
        <ele>2019.6</ele>
        <time>2024-04-27T12:38:55Z</time>
      </trkpt>
      <trkpt lat="45.85851" lon="6.44697">
        <ele>2019.6</ele>
        <time>2024-04-27T12:38:56Z</time>
      </trkpt>
      <trkpt lat="45.85851" lon="6.44697">
        <ele>2019.6</ele>
        <time>2024-04-27T12:38:57Z</time>
      </trkpt>
      <trkpt lat="45.85852" lon="6.44698">
        <ele>2019.6</ele>
        <time>2024-04-27T12:38:58Z</time>
      </trkpt>
      <trkpt lat="45.85852" lon="6.44698">
        <ele>2019.6</ele>
        <time>2024-04-27T12:38:59Z</time>
      </trkpt>
      <trkpt lat="45.85853" lon="6.44699">
        <ele>2019.6</ele>
        <time>2024-04-27T12:39:00Z</time>
      </trkpt>
      <trkpt lat="45.85853" lon="6.44699">
        <ele>2019.6</ele>
        <time>2024-04-27T12:39:01Z</time>
      </trkpt>
      <trkpt lat="45.85854" lon="6.447">
        <ele>2020.7</ele>
        <time>2024-04-27T12:39:02Z</time>
      </trkpt>
      <trkpt lat="45.85854" lon="6.447">
        <ele>2020.7</ele>
        <time>2024-04-27T12:39:03Z</time>
      </trkpt>
      <trkpt lat="45.85855" lon="6.44701">
        <ele>2020.7</ele>
        <time>2024-04-27T12:39:04Z</time>
      </trkpt>
      <trkpt lat="45.85855" lon="6.44701">
        <ele>2020.7</ele>
        <time>2024-04-27T12:39:05Z</time>
      </trkpt>
      <trkpt lat="45.85856" lon="6.44702">
        <ele>2021.6</ele>
        <time>2024-04-27T12:39:06Z</time>
      </trkpt>
      <trkpt lat="45.85856" lon="6.44702">
        <ele>2021.6</ele>
        <time>2024-04-27T12:39:07Z</time>
      </trkpt>
      <trkpt lat="45.85857" lon="6.44702">
        <ele>2021.6</ele>
        <time>2024-04-27T12:39:08Z</time>
      </trkpt>
      <trkpt lat="45.85857" lon="6.44703">
        <ele>2021.6</ele>
        <time>2024-04-27T12:39:09Z</time>
      </trkpt>
      <trkpt lat="45.85857" lon="6.44703">
        <ele>2021.6</ele>
        <time>2024-04-27T12:39:10Z</time>
      </trkpt>
      <trkpt lat="45.85858" lon="6.44703">
        <ele>2021.6</ele>
        <time>2024-04-27T12:39:11Z</time>
      </trkpt>
      <trkpt lat="45.85858" lon="6.44704">
        <ele>2022.7</ele>
        <time>2024-04-27T12:39:12Z</time>
      </trkpt>
      <trkpt lat="45.85858" lon="6.44704">
        <ele>2022.7</ele>
        <time>2024-04-27T12:39:13Z</time>
      </trkpt>
      <trkpt lat="45.85859" lon="6.44704">
        <ele>2022.7</ele>
        <time>2024-04-27T12:39:14Z</time>
      </trkpt>
      <trkpt lat="45.85859" lon="6.44705">
        <ele>2022.7</ele>
        <time>2024-04-27T12:39:15Z</time>
      </trkpt>
      <trkpt lat="45.8586" lon="6.44705">
        <ele>2022.7</ele>
        <time>2024-04-27T12:39:16Z</time>
      </trkpt>
      <trkpt lat="45.8586" lon="6.44706">
        <ele>2022.7</ele>
        <time>2024-04-27T12:39:17Z</time>
      </trkpt>
      <trkpt lat="45.85861" lon="6.44706">
        <ele>2023.6</ele>
        <time>2024-04-27T12:39:18Z</time>
      </trkpt>
      <trkpt lat="45.85861" lon="6.44706">
        <ele>2023.6</ele>
        <time>2024-04-27T12:39:19Z</time>
      </trkpt>
      <trkpt lat="45.85862" lon="6.44706">
        <ele>2023.6</ele>
        <time>2024-04-27T12:39:20Z</time>
      </trkpt>
      <trkpt lat="45.85862" lon="6.44707">
        <ele>2023.6</ele>
        <time>2024-04-27T12:39:21Z</time>
      </trkpt>
      <trkpt lat="45.85863" lon="6.44707">
        <ele>2023.6</ele>
        <time>2024-04-27T12:39:22Z</time>
      </trkpt>
      <trkpt lat="45.85863" lon="6.44707">
        <ele>2023.6</ele>
        <time>2024-04-27T12:39:23Z</time>
      </trkpt>
      <trkpt lat="45.85863" lon="6.44708">
        <ele>2023.6</ele>
        <time>2024-04-27T12:39:24Z</time>
      </trkpt>
      <trkpt lat="45.85864" lon="6.44708">
        <ele>2023.6</ele>
        <time>2024-04-27T12:39:25Z</time>
      </trkpt>
      <trkpt lat="45.85864" lon="6.44708">
        <ele>2024.7</ele>
        <time>2024-04-27T12:39:26Z</time>
      </trkpt>
      <trkpt lat="45.85864" lon="6.44708">
        <ele>2024.7</ele>
        <time>2024-04-27T12:39:27Z</time>
      </trkpt>
      <trkpt lat="45.85864" lon="6.44708">
        <ele>2024.7</ele>
        <time>2024-04-27T12:39:28Z</time>
      </trkpt>
      <trkpt lat="45.85865" lon="6.44708">
        <ele>2024.7</ele>
        <time>2024-04-27T12:39:29Z</time>
      </trkpt>
      <trkpt lat="45.85865" lon="6.44709">
        <ele>2024.7</ele>
        <time>2024-04-27T12:39:30Z</time>
      </trkpt>
      <trkpt lat="45.85866" lon="6.44709">
        <ele>2024.7</ele>
        <time>2024-04-27T12:39:31Z</time>
      </trkpt>
      <trkpt lat="45.85866" lon="6.44709">
        <ele>2025.6</ele>
        <time>2024-04-27T12:39:32Z</time>
      </trkpt>
      <trkpt lat="45.85867" lon="6.4471">
        <ele>2025.6</ele>
        <time>2024-04-27T12:39:33Z</time>
      </trkpt>
      <trkpt lat="45.85868" lon="6.4471">
        <ele>2025.6</ele>
        <time>2024-04-27T12:39:34Z</time>
      </trkpt>
      <trkpt lat="45.85869" lon="6.44712">
        <ele>2025.6</ele>
        <time>2024-04-27T12:39:35Z</time>
      </trkpt>
      <trkpt lat="45.85869" lon="6.44712">
        <ele>2025.6</ele>
        <time>2024-04-27T12:39:36Z</time>
      </trkpt>
      <trkpt lat="45.8587" lon="6.44713">
        <ele>2025.6</ele>
        <time>2024-04-27T12:39:37Z</time>
      </trkpt>
      <trkpt lat="45.8587" lon="6.44713">
        <ele>2026.6</ele>
        <time>2024-04-27T12:39:38Z</time>
      </trkpt>
      <trkpt lat="45.8587" lon="6.44713">
        <ele>2026.6</ele>
        <time>2024-04-27T12:39:39Z</time>
      </trkpt>
      <trkpt lat="45.85871" lon="6.44714">
        <ele>2026.6</ele>
        <time>2024-04-27T12:39:40Z</time>
      </trkpt>
      <trkpt lat="45.85871" lon="6.44714">
        <ele>2026.6</ele>
        <time>2024-04-27T12:39:41Z</time>
      </trkpt>
      <trkpt lat="45.85871" lon="6.44715">
        <ele>2026.6</ele>
        <time>2024-04-27T12:39:42Z</time>
      </trkpt>
      <trkpt lat="45.85872" lon="6.44715">
        <ele>2026.6</ele>
        <time>2024-04-27T12:39:43Z</time>
      </trkpt>
      <trkpt lat="45.85872" lon="6.44715">
        <ele>2027.7</ele>
        <time>2024-04-27T12:39:44Z</time>
      </trkpt>
      <trkpt lat="45.85873" lon="6.44715">
        <ele>2027.7</ele>
        <time>2024-04-27T12:39:45Z</time>
      </trkpt>
      <trkpt lat="45.85873" lon="6.44716">
        <ele>2027.7</ele>
        <time>2024-04-27T12:39:46Z</time>
      </trkpt>
      <trkpt lat="45.85873" lon="6.44716">
        <ele>2027.7</ele>
        <time>2024-04-27T12:39:47Z</time>
      </trkpt>
      <trkpt lat="45.85874" lon="6.44716">
        <ele>2027.7</ele>
        <time>2024-04-27T12:39:48Z</time>
      </trkpt>
      <trkpt lat="45.85875" lon="6.44717">
        <ele>2027.7</ele>
        <time>2024-04-27T12:39:49Z</time>
      </trkpt>
      <trkpt lat="45.85875" lon="6.44717">
        <ele>2027.7</ele>
        <time>2024-04-27T12:39:50Z</time>
      </trkpt>
      <trkpt lat="45.85876" lon="6.44718">
        <ele>2027.7</ele>
        <time>2024-04-27T12:39:51Z</time>
      </trkpt>
      <trkpt lat="45.85876" lon="6.44718">
        <ele>2028.6</ele>
        <time>2024-04-27T12:39:52Z</time>
      </trkpt>
      <trkpt lat="45.85876" lon="6.44719">
        <ele>2028.6</ele>
        <time>2024-04-27T12:39:53Z</time>
      </trkpt>
      <trkpt lat="45.85877" lon="6.4472">
        <ele>2028.6</ele>
        <time>2024-04-27T12:39:54Z</time>
      </trkpt>
      <trkpt lat="45.85877" lon="6.44721">
        <ele>2028.6</ele>
        <time>2024-04-27T12:39:55Z</time>
      </trkpt>
      <trkpt lat="45.85877" lon="6.44721">
        <ele>2028.6</ele>
        <time>2024-04-27T12:39:56Z</time>
      </trkpt>
      <trkpt lat="45.85878" lon="6.44721">
        <ele>2028.6</ele>
        <time>2024-04-27T12:39:57Z</time>
      </trkpt>
      <trkpt lat="45.85878" lon="6.44722">
        <ele>2029.7</ele>
        <time>2024-04-27T12:39:58Z</time>
      </trkpt>
      <trkpt lat="45.85878" lon="6.44723">
        <ele>2029.7</ele>
        <time>2024-04-27T12:39:59Z</time>
      </trkpt>
      <trkpt lat="45.85878" lon="6.44723">
        <ele>2029.7</ele>
        <time>2024-04-27T12:40:00Z</time>
      </trkpt>
      <trkpt lat="45.85878" lon="6.44724">
        <ele>2029.7</ele>
        <time>2024-04-27T12:40:01Z</time>
      </trkpt>
      <trkpt lat="45.85877" lon="6.44724">
        <ele>2029.7</ele>
        <time>2024-04-27T12:40:02Z</time>
      </trkpt>
      <trkpt lat="45.85878" lon="6.44727">
        <ele>2029.7</ele>
        <time>2024-04-27T12:40:03Z</time>
      </trkpt>
      <trkpt lat="45.85877" lon="6.44727">
        <ele>2029.7</ele>
        <time>2024-04-27T12:40:04Z</time>
      </trkpt>
      <trkpt lat="45.85877" lon="6.44728">
        <ele>2029.7</ele>
        <time>2024-04-27T12:40:05Z</time>
      </trkpt>
      <trkpt lat="45.85878" lon="6.44731">
        <ele>2029.7</ele>
        <time>2024-04-27T12:40:06Z</time>
      </trkpt>
      <trkpt lat="45.85878" lon="6.44732">
        <ele>2029.7</ele>
        <time>2024-04-27T12:40:07Z</time>
      </trkpt>
      <trkpt lat="45.85878" lon="6.44732">
        <ele>2032.6</ele>
        <time>2024-04-27T12:40:08Z</time>
      </trkpt>
      <trkpt lat="45.85878" lon="6.44732">
        <ele>2032.6</ele>
        <time>2024-04-27T12:40:09Z</time>
      </trkpt>
      <trkpt lat="45.85877" lon="6.44733">
        <ele>2032.6</ele>
        <time>2024-04-27T12:40:10Z</time>
      </trkpt>
      <trkpt lat="45.85877" lon="6.44733">
        <ele>2032.6</ele>
        <time>2024-04-27T12:40:11Z</time>
      </trkpt>
      <trkpt lat="45.85877" lon="6.44733">
        <ele>2033.7</ele>
        <time>2024-04-27T12:40:12Z</time>
      </trkpt>
      <trkpt lat="45.85877" lon="6.44734">
        <ele>2033.7</ele>
        <time>2024-04-27T12:40:13Z</time>
      </trkpt>
      <trkpt lat="45.85878" lon="6.44736">
        <ele>2033.7</ele>
        <time>2024-04-27T12:40:14Z</time>
      </trkpt>
      <trkpt lat="45.85877" lon="6.44737">
        <ele>2033.7</ele>
        <time>2024-04-27T12:40:15Z</time>
      </trkpt>
      <trkpt lat="45.85877" lon="6.44737">
        <ele>2034.7</ele>
        <time>2024-04-27T12:40:16Z</time>
      </trkpt>
      <trkpt lat="45.85877" lon="6.44738">
        <ele>2034.7</ele>
        <time>2024-04-27T12:40:17Z</time>
      </trkpt>
      <trkpt lat="45.85876" lon="6.44738">
        <ele>2034.7</ele>
        <time>2024-04-27T12:40:18Z</time>
      </trkpt>
      <trkpt lat="45.85876" lon="6.44739">
        <ele>2034.7</ele>
        <time>2024-04-27T12:40:19Z</time>
      </trkpt>
      <trkpt lat="45.85876" lon="6.4474">
        <ele>2034.7</ele>
        <time>2024-04-27T12:40:20Z</time>
      </trkpt>
      <trkpt lat="45.85876" lon="6.44741">
        <ele>2034.7</ele>
        <time>2024-04-27T12:40:21Z</time>
      </trkpt>
      <trkpt lat="45.85875" lon="6.44741">
        <ele>2034.7</ele>
        <time>2024-04-27T12:40:22Z</time>
      </trkpt>
      <trkpt lat="45.85874" lon="6.44741">
        <ele>2034.7</ele>
        <time>2024-04-27T12:40:23Z</time>
      </trkpt>
      <trkpt lat="45.85874" lon="6.44742">
        <ele>2035.6</ele>
        <time>2024-04-27T12:40:24Z</time>
      </trkpt>
      <trkpt lat="45.85875" lon="6.44743">
        <ele>2035.6</ele>
        <time>2024-04-27T12:40:25Z</time>
      </trkpt>
      <trkpt lat="45.85874" lon="6.44744">
        <ele>2035.6</ele>
        <time>2024-04-27T12:40:26Z</time>
      </trkpt>
      <trkpt lat="45.85874" lon="6.44745">
        <ele>2035.6</ele>
        <time>2024-04-27T12:40:27Z</time>
      </trkpt>
      <trkpt lat="45.85874" lon="6.44746">
        <ele>2035.6</ele>
        <time>2024-04-27T12:40:28Z</time>
      </trkpt>
      <trkpt lat="45.85874" lon="6.44747">
        <ele>2035.6</ele>
        <time>2024-04-27T12:40:29Z</time>
      </trkpt>
      <trkpt lat="45.85874" lon="6.44748">
        <ele>2036.7</ele>
        <time>2024-04-27T12:40:30Z</time>
      </trkpt>
      <trkpt lat="45.85874" lon="6.44748">
        <ele>2036.7</ele>
        <time>2024-04-27T12:40:31Z</time>
      </trkpt>
      <trkpt lat="45.85873" lon="6.44749">
        <ele>2036.7</ele>
        <time>2024-04-27T12:40:32Z</time>
      </trkpt>
      <trkpt lat="45.85874" lon="6.4475">
        <ele>2036.7</ele>
        <time>2024-04-27T12:40:33Z</time>
      </trkpt>
      <trkpt lat="45.85873" lon="6.44752">
        <ele>2036.7</ele>
        <time>2024-04-27T12:40:34Z</time>
      </trkpt>
      <trkpt lat="45.85873" lon="6.44752">
        <ele>2036.7</ele>
        <time>2024-04-27T12:40:35Z</time>
      </trkpt>
      <trkpt lat="45.85872" lon="6.44752">
        <ele>2036.7</ele>
        <time>2024-04-27T12:40:36Z</time>
      </trkpt>
      <trkpt lat="45.85872" lon="6.44753">
        <ele>2036.7</ele>
        <time>2024-04-27T12:40:37Z</time>
      </trkpt>
      <trkpt lat="45.85871" lon="6.44753">
        <ele>2037.6</ele>
        <time>2024-04-27T12:40:38Z</time>
      </trkpt>
      <trkpt lat="45.85871" lon="6.44753">
        <ele>2037.6</ele>
        <time>2024-04-27T12:40:39Z</time>
      </trkpt>
      <trkpt lat="45.85871" lon="6.44753">
        <ele>2037.6</ele>
        <time>2024-04-27T12:40:40Z</time>
      </trkpt>
      <trkpt lat="45.8587" lon="6.44754">
        <ele>2037.6</ele>
        <time>2024-04-27T12:40:41Z</time>
      </trkpt>
      <trkpt lat="45.8587" lon="6.44755">
        <ele>2038.7</ele>
        <time>2024-04-27T12:40:42Z</time>
      </trkpt>
      <trkpt lat="45.85869" lon="6.44756">
        <ele>2038.7</ele>
        <time>2024-04-27T12:40:43Z</time>
      </trkpt>
      <trkpt lat="45.85869" lon="6.44757">
        <ele>2038.7</ele>
        <time>2024-04-27T12:40:44Z</time>
      </trkpt>
      <trkpt lat="45.85868" lon="6.44757">
        <ele>2038.7</ele>
        <time>2024-04-27T12:40:45Z</time>
      </trkpt>
      <trkpt lat="45.85868" lon="6.44758">
        <ele>2038.7</ele>
        <time>2024-04-27T12:40:46Z</time>
      </trkpt>
      <trkpt lat="45.85868" lon="6.44759">
        <ele>2038.7</ele>
        <time>2024-04-27T12:40:47Z</time>
      </trkpt>
      <trkpt lat="45.85868" lon="6.4476">
        <ele>2038.7</ele>
        <time>2024-04-27T12:40:48Z</time>
      </trkpt>
      <trkpt lat="45.85868" lon="6.4476">
        <ele>2038.7</ele>
        <time>2024-04-27T12:40:49Z</time>
      </trkpt>
      <trkpt lat="45.85867" lon="6.44761">
        <ele>2038.7</ele>
        <time>2024-04-27T12:40:50Z</time>
      </trkpt>
      <trkpt lat="45.85867" lon="6.44762">
        <ele>2038.7</ele>
        <time>2024-04-27T12:40:51Z</time>
      </trkpt>
      <trkpt lat="45.85868" lon="6.44762">
        <ele>2038.7</ele>
        <time>2024-04-27T12:40:52Z</time>
      </trkpt>
      <trkpt lat="45.85868" lon="6.44763">
        <ele>2038.7</ele>
        <time>2024-04-27T12:40:53Z</time>
      </trkpt>
      <trkpt lat="45.85868" lon="6.44764">
        <ele>2038.7</ele>
        <time>2024-04-27T12:40:54Z</time>
      </trkpt>
      <trkpt lat="45.85867" lon="6.44765">
        <ele>2038.7</ele>
        <time>2024-04-27T12:40:55Z</time>
      </trkpt>
      <trkpt lat="45.85867" lon="6.44766">
        <ele>2038.7</ele>
        <time>2024-04-27T12:40:56Z</time>
      </trkpt>
      <trkpt lat="45.85867" lon="6.44767">
        <ele>2038.7</ele>
        <time>2024-04-27T12:40:57Z</time>
      </trkpt>
      <trkpt lat="45.85868" lon="6.44768">
        <ele>2038.7</ele>
        <time>2024-04-27T12:40:58Z</time>
      </trkpt>
      <trkpt lat="45.85868" lon="6.44769">
        <ele>2040.7</ele>
        <time>2024-04-27T12:40:59Z</time>
      </trkpt>
      <trkpt lat="45.85868" lon="6.4477">
        <ele>2040.7</ele>
        <time>2024-04-27T12:41:00Z</time>
      </trkpt>
      <trkpt lat="45.85868" lon="6.4477">
        <ele>2040.7</ele>
        <time>2024-04-27T12:41:01Z</time>
      </trkpt>
      <trkpt lat="45.85867" lon="6.44771">
        <ele>2040.7</ele>
        <time>2024-04-27T12:41:02Z</time>
      </trkpt>
      <trkpt lat="45.85867" lon="6.44772">
        <ele>2041.6</ele>
        <time>2024-04-27T12:41:03Z</time>
      </trkpt>
      <trkpt lat="45.85867" lon="6.44773">
        <ele>2041.6</ele>
        <time>2024-04-27T12:41:04Z</time>
      </trkpt>
      <trkpt lat="45.85867" lon="6.44774">
        <ele>2041.6</ele>
        <time>2024-04-27T12:41:05Z</time>
      </trkpt>
      <trkpt lat="45.85867" lon="6.44775">
        <ele>2041.6</ele>
        <time>2024-04-27T12:41:06Z</time>
      </trkpt>
      <trkpt lat="45.85867" lon="6.44776">
        <ele>2041.6</ele>
        <time>2024-04-27T12:41:07Z</time>
      </trkpt>
      <trkpt lat="45.85867" lon="6.44776">
        <ele>2041.6</ele>
        <time>2024-04-27T12:41:08Z</time>
      </trkpt>
      <trkpt lat="45.85866" lon="6.44777">
        <ele>2042.6</ele>
        <time>2024-04-27T12:41:09Z</time>
      </trkpt>
      <trkpt lat="45.85866" lon="6.44778">
        <ele>2042.6</ele>
        <time>2024-04-27T12:41:10Z</time>
      </trkpt>
      <trkpt lat="45.85865" lon="6.44778">
        <ele>2042.6</ele>
        <time>2024-04-27T12:41:11Z</time>
      </trkpt>
      <trkpt lat="45.85865" lon="6.44779">
        <ele>2042.6</ele>
        <time>2024-04-27T12:41:12Z</time>
      </trkpt>
      <trkpt lat="45.85865" lon="6.4478">
        <ele>2042.6</ele>
        <time>2024-04-27T12:41:13Z</time>
      </trkpt>
      <trkpt lat="45.85865" lon="6.44781">
        <ele>2042.6</ele>
        <time>2024-04-27T12:41:14Z</time>
      </trkpt>
      <trkpt lat="45.85864" lon="6.44781">
        <ele>2042.6</ele>
        <time>2024-04-27T12:41:15Z</time>
      </trkpt>
      <trkpt lat="45.85864" lon="6.44782">
        <ele>2042.6</ele>
        <time>2024-04-27T12:41:16Z</time>
      </trkpt>
      <trkpt lat="45.85864" lon="6.44782">
        <ele>2042.6</ele>
        <time>2024-04-27T12:41:17Z</time>
      </trkpt>
      <trkpt lat="45.85863" lon="6.44783">
        <ele>2042.6</ele>
        <time>2024-04-27T12:41:18Z</time>
      </trkpt>
      <trkpt lat="45.85863" lon="6.44784">
        <ele>2043.7</ele>
        <time>2024-04-27T12:41:19Z</time>
      </trkpt>
      <trkpt lat="45.85863" lon="6.44784">
        <ele>2043.7</ele>
        <time>2024-04-27T12:41:20Z</time>
      </trkpt>
      <trkpt lat="45.85863" lon="6.44784">
        <ele>2043.7</ele>
        <time>2024-04-27T12:41:21Z</time>
      </trkpt>
      <trkpt lat="45.85863" lon="6.44785">
        <ele>2043.7</ele>
        <time>2024-04-27T12:41:22Z</time>
      </trkpt>
      <trkpt lat="45.85864" lon="6.44785">
        <ele>2043.7</ele>
        <time>2024-04-27T12:41:23Z</time>
      </trkpt>
      <trkpt lat="45.85864" lon="6.44786">
        <ele>2043.7</ele>
        <time>2024-04-27T12:41:24Z</time>
      </trkpt>
      <trkpt lat="45.85864" lon="6.44786">
        <ele>2043.7</ele>
        <time>2024-04-27T12:41:25Z</time>
      </trkpt>
      <trkpt lat="45.85864" lon="6.44786">
        <ele>2043.7</ele>
        <time>2024-04-27T12:41:26Z</time>
      </trkpt>
      <trkpt lat="45.85865" lon="6.44786">
        <ele>2043.7</ele>
        <time>2024-04-27T12:41:27Z</time>
      </trkpt>
      <trkpt lat="45.85865" lon="6.44787">
        <ele>2043.7</ele>
        <time>2024-04-27T12:41:28Z</time>
      </trkpt>
      <trkpt lat="45.85865" lon="6.44787">
        <ele>2045.7</ele>
        <time>2024-04-27T12:41:29Z</time>
      </trkpt>
      <trkpt lat="45.85866" lon="6.44787">
        <ele>2045.7</ele>
        <time>2024-04-27T12:41:30Z</time>
      </trkpt>
      <trkpt lat="45.85866" lon="6.44788">
        <ele>2045.7</ele>
        <time>2024-04-27T12:41:31Z</time>
      </trkpt>
      <trkpt lat="45.85867" lon="6.44788">
        <ele>2045.7</ele>
        <time>2024-04-27T12:41:32Z</time>
      </trkpt>
      <trkpt lat="45.85867" lon="6.44788">
        <ele>2046.6</ele>
        <time>2024-04-27T12:41:33Z</time>
      </trkpt>
      <trkpt lat="45.85868" lon="6.44788">
        <ele>2046.6</ele>
        <time>2024-04-27T12:41:34Z</time>
      </trkpt>
      <trkpt lat="45.85868" lon="6.44789">
        <ele>2046.6</ele>
        <time>2024-04-27T12:41:35Z</time>
      </trkpt>
      <trkpt lat="45.85869" lon="6.44789">
        <ele>2046.6</ele>
        <time>2024-04-27T12:41:36Z</time>
      </trkpt>
      <trkpt lat="45.85869" lon="6.44788">
        <ele>2046.6</ele>
        <time>2024-04-27T12:41:37Z</time>
      </trkpt>
      <trkpt lat="45.85869" lon="6.44788">
        <ele>2046.6</ele>
        <time>2024-04-27T12:41:38Z</time>
      </trkpt>
      <trkpt lat="45.85869" lon="6.44789">
        <ele>2046.6</ele>
        <time>2024-04-27T12:41:39Z</time>
      </trkpt>
      <trkpt lat="45.8587" lon="6.44789">
        <ele>2046.6</ele>
        <time>2024-04-27T12:41:40Z</time>
      </trkpt>
      <trkpt lat="45.8587" lon="6.44789">
        <ele>2047.7</ele>
        <time>2024-04-27T12:41:41Z</time>
      </trkpt>
      <trkpt lat="45.85871" lon="6.44789">
        <ele>2047.7</ele>
        <time>2024-04-27T12:41:42Z</time>
      </trkpt>
      <trkpt lat="45.85871" lon="6.4479">
        <ele>2047.7</ele>
        <time>2024-04-27T12:41:43Z</time>
      </trkpt>
      <trkpt lat="45.85872" lon="6.4479">
        <ele>2047.7</ele>
        <time>2024-04-27T12:41:44Z</time>
      </trkpt>
      <trkpt lat="45.85872" lon="6.4479">
        <ele>2047.7</ele>
        <time>2024-04-27T12:41:45Z</time>
      </trkpt>
      <trkpt lat="45.85872" lon="6.4479">
        <ele>2047.7</ele>
        <time>2024-04-27T12:41:46Z</time>
      </trkpt>
      <trkpt lat="45.85873" lon="6.4479">
        <ele>2048.6</ele>
        <time>2024-04-27T12:41:47Z</time>
      </trkpt>
      <trkpt lat="45.85873" lon="6.4479">
        <ele>2048.6</ele>
        <time>2024-04-27T12:41:48Z</time>
      </trkpt>
      <trkpt lat="45.85874" lon="6.4479">
        <ele>2048.6</ele>
        <time>2024-04-27T12:41:49Z</time>
      </trkpt>
      <trkpt lat="45.85874" lon="6.4479">
        <ele>2048.6</ele>
        <time>2024-04-27T12:41:50Z</time>
      </trkpt>
      <trkpt lat="45.85875" lon="6.4479">
        <ele>2048.6</ele>
        <time>2024-04-27T12:41:51Z</time>
      </trkpt>
      <trkpt lat="45.85875" lon="6.44791">
        <ele>2048.6</ele>
        <time>2024-04-27T12:41:52Z</time>
      </trkpt>
      <trkpt lat="45.85876" lon="6.44791">
        <ele>2049.7</ele>
        <time>2024-04-27T12:41:53Z</time>
      </trkpt>
      <trkpt lat="45.85876" lon="6.44791">
        <ele>2049.7</ele>
        <time>2024-04-27T12:41:54Z</time>
      </trkpt>
      <trkpt lat="45.85877" lon="6.44791">
        <ele>2049.7</ele>
        <time>2024-04-27T12:41:55Z</time>
      </trkpt>
      <trkpt lat="45.85877" lon="6.44791">
        <ele>2049.7</ele>
        <time>2024-04-27T12:41:56Z</time>
      </trkpt>
      <trkpt lat="45.85877" lon="6.44791">
        <ele>2049.7</ele>
        <time>2024-04-27T12:41:57Z</time>
      </trkpt>
      <trkpt lat="45.85878" lon="6.44791">
        <ele>2049.7</ele>
        <time>2024-04-27T12:41:58Z</time>
      </trkpt>
      <trkpt lat="45.85878" lon="6.44791">
        <ele>2049.7</ele>
        <time>2024-04-27T12:41:59Z</time>
      </trkpt>
      <trkpt lat="45.85879" lon="6.44791">
        <ele>2049.7</ele>
        <time>2024-04-27T12:42:00Z</time>
      </trkpt>
      <trkpt lat="45.85881" lon="6.44792">
        <ele>2050.7</ele>
        <time>2024-04-27T12:42:01Z</time>
      </trkpt>
      <trkpt lat="45.85882" lon="6.44794">
        <ele>2050.7</ele>
        <time>2024-04-27T12:42:02Z</time>
      </trkpt>
      <trkpt lat="45.85882" lon="6.44795">
        <ele>2050.7</ele>
        <time>2024-04-27T12:42:03Z</time>
      </trkpt>
      <trkpt lat="45.85882" lon="6.44796">
        <ele>2050.7</ele>
        <time>2024-04-27T12:42:04Z</time>
      </trkpt>
      <trkpt lat="45.85881" lon="6.44796">
        <ele>2050.7</ele>
        <time>2024-04-27T12:42:05Z</time>
      </trkpt>
      <trkpt lat="45.85881" lon="6.44797">
        <ele>2050.7</ele>
        <time>2024-04-27T12:42:06Z</time>
      </trkpt>
      <trkpt lat="45.85882" lon="6.44798">
        <ele>2051.6</ele>
        <time>2024-04-27T12:42:07Z</time>
      </trkpt>
      <trkpt lat="45.85881" lon="6.44799">
        <ele>2051.6</ele>
        <time>2024-04-27T12:42:08Z</time>
      </trkpt>
      <trkpt lat="45.85881" lon="6.448">
        <ele>2052.7</ele>
        <time>2024-04-27T12:42:09Z</time>
      </trkpt>
      <trkpt lat="45.85881" lon="6.44801">
        <ele>2052.7</ele>
        <time>2024-04-27T12:42:10Z</time>
      </trkpt>
      <trkpt lat="45.85881" lon="6.44802">
        <ele>2052.7</ele>
        <time>2024-04-27T12:42:11Z</time>
      </trkpt>
      <trkpt lat="45.85881" lon="6.44802">
        <ele>2052.7</ele>
        <time>2024-04-27T12:42:12Z</time>
      </trkpt>
      <trkpt lat="45.85881" lon="6.44803">
        <ele>2053.6</ele>
        <time>2024-04-27T12:42:13Z</time>
      </trkpt>
      <trkpt lat="45.85881" lon="6.44803">
        <ele>2053.6</ele>
        <time>2024-04-27T12:42:14Z</time>
      </trkpt>
      <trkpt lat="45.85881" lon="6.44804">
        <ele>2053.6</ele>
        <time>2024-04-27T12:42:15Z</time>
      </trkpt>
      <trkpt lat="45.85881" lon="6.44806">
        <ele>2053.6</ele>
        <time>2024-04-27T12:42:16Z</time>
      </trkpt>
      <trkpt lat="45.85881" lon="6.44807">
        <ele>2053.6</ele>
        <time>2024-04-27T12:42:17Z</time>
      </trkpt>
      <trkpt lat="45.85881" lon="6.44808">
        <ele>2053.6</ele>
        <time>2024-04-27T12:42:18Z</time>
      </trkpt>
      <trkpt lat="45.85881" lon="6.44808">
        <ele>2053.6</ele>
        <time>2024-04-27T12:42:19Z</time>
      </trkpt>
      <trkpt lat="45.8588" lon="6.44808">
        <ele>2053.6</ele>
        <time>2024-04-27T12:42:20Z</time>
      </trkpt>
      <trkpt lat="45.85879" lon="6.44808">
        <ele>2053.6</ele>
        <time>2024-04-27T12:42:21Z</time>
      </trkpt>
      <trkpt lat="45.85879" lon="6.44808">
        <ele>2053.6</ele>
        <time>2024-04-27T12:42:22Z</time>
      </trkpt>
      <trkpt lat="45.8588" lon="6.44808">
        <ele>2054.7</ele>
        <time>2024-04-27T12:42:23Z</time>
      </trkpt>
      <trkpt lat="45.8588" lon="6.44808">
        <ele>2054.7</ele>
        <time>2024-04-27T12:42:24Z</time>
      </trkpt>
      <trkpt lat="45.85879" lon="6.44808">
        <ele>2054.7</ele>
        <time>2024-04-27T12:42:25Z</time>
      </trkpt>
      <trkpt lat="45.85879" lon="6.44809">
        <ele>2054.7</ele>
        <time>2024-04-27T12:42:26Z</time>
      </trkpt>
      <trkpt lat="45.85878" lon="6.4481">
        <ele>2054.7</ele>
        <time>2024-04-27T12:42:27Z</time>
      </trkpt>
      <trkpt lat="45.85877" lon="6.4481">
        <ele>2054.7</ele>
        <time>2024-04-27T12:42:28Z</time>
      </trkpt>
      <trkpt lat="45.85877" lon="6.44811">
        <ele>2055.6</ele>
        <time>2024-04-27T12:42:29Z</time>
      </trkpt>
      <trkpt lat="45.85877" lon="6.44812">
        <ele>2055.6</ele>
        <time>2024-04-27T12:42:30Z</time>
      </trkpt>
      <trkpt lat="45.85877" lon="6.44813">
        <ele>2055.6</ele>
        <time>2024-04-27T12:42:31Z</time>
      </trkpt>
      <trkpt lat="45.85877" lon="6.44814">
        <ele>2055.6</ele>
        <time>2024-04-27T12:42:32Z</time>
      </trkpt>
      <trkpt lat="45.85877" lon="6.44814">
        <ele>2055.6</ele>
        <time>2024-04-27T12:42:33Z</time>
      </trkpt>
      <trkpt lat="45.85877" lon="6.44815">
        <ele>2055.6</ele>
        <time>2024-04-27T12:42:34Z</time>
      </trkpt>
      <trkpt lat="45.85877" lon="6.44816">
        <ele>2056.7</ele>
        <time>2024-04-27T12:42:35Z</time>
      </trkpt>
      <trkpt lat="45.85877" lon="6.44817">
        <ele>2056.7</ele>
        <time>2024-04-27T12:42:36Z</time>
      </trkpt>
      <trkpt lat="45.85877" lon="6.44817">
        <ele>2056.7</ele>
        <time>2024-04-27T12:42:37Z</time>
      </trkpt>
      <trkpt lat="45.85876" lon="6.44817">
        <ele>2056.7</ele>
        <time>2024-04-27T12:42:38Z</time>
      </trkpt>
      <trkpt lat="45.85876" lon="6.44818">
        <ele>2056.7</ele>
        <time>2024-04-27T12:42:39Z</time>
      </trkpt>
      <trkpt lat="45.85875" lon="6.44818">
        <ele>2056.7</ele>
        <time>2024-04-27T12:42:40Z</time>
      </trkpt>
      <trkpt lat="45.85875" lon="6.44818">
        <ele>2057.6</ele>
        <time>2024-04-27T12:42:41Z</time>
      </trkpt>
      <trkpt lat="45.85875" lon="6.44819">
        <ele>2057.6</ele>
        <time>2024-04-27T12:42:42Z</time>
      </trkpt>
      <trkpt lat="45.85875" lon="6.4482">
        <ele>2057.6</ele>
        <time>2024-04-27T12:42:43Z</time>
      </trkpt>
      <trkpt lat="45.85875" lon="6.4482">
        <ele>2057.6</ele>
        <time>2024-04-27T12:42:44Z</time>
      </trkpt>
      <trkpt lat="45.85874" lon="6.4482">
        <ele>2057.6</ele>
        <time>2024-04-27T12:42:45Z</time>
      </trkpt>
      <trkpt lat="45.85874" lon="6.4482">
        <ele>2057.6</ele>
        <time>2024-04-27T12:42:46Z</time>
      </trkpt>
      <trkpt lat="45.85874" lon="6.44819">
        <ele>2057.6</ele>
        <time>2024-04-27T12:42:47Z</time>
      </trkpt>
      <trkpt lat="45.85873" lon="6.44819">
        <ele>2057.6</ele>
        <time>2024-04-27T12:42:48Z</time>
      </trkpt>
      <trkpt lat="45.85873" lon="6.44819">
        <ele>2057.6</ele>
        <time>2024-04-27T12:42:49Z</time>
      </trkpt>
      <trkpt lat="45.85873" lon="6.44819">
        <ele>2057.6</ele>
        <time>2024-04-27T12:42:50Z</time>
      </trkpt>
      <trkpt lat="45.85873" lon="6.44819">
        <ele>2057.6</ele>
        <time>2024-04-27T12:42:51Z</time>
      </trkpt>
      <trkpt lat="45.85873" lon="6.44819">
        <ele>2057.6</ele>
        <time>2024-04-27T12:42:52Z</time>
      </trkpt>
      <trkpt lat="45.85873" lon="6.44819">
        <ele>2057.6</ele>
        <time>2024-04-27T12:42:53Z</time>
      </trkpt>
      <trkpt lat="45.85873" lon="6.44819">
        <ele>2057.6</ele>
        <time>2024-04-27T12:42:54Z</time>
      </trkpt>
      <trkpt lat="45.85873" lon="6.44819">
        <ele>2057.6</ele>
        <time>2024-04-27T12:42:55Z</time>
      </trkpt>
      <trkpt lat="45.85873" lon="6.44819">
        <ele>2057.6</ele>
        <time>2024-04-27T12:42:56Z</time>
      </trkpt>
      <trkpt lat="45.85873" lon="6.44819">
        <ele>2057.6</ele>
        <time>2024-04-27T12:42:57Z</time>
      </trkpt>
      <trkpt lat="45.85873" lon="6.44819">
        <ele>2057.6</ele>
        <time>2024-04-27T12:42:58Z</time>
      </trkpt>
      <trkpt lat="45.85873" lon="6.44819">
        <ele>2058.6</ele>
        <time>2024-04-27T12:42:59Z</time>
      </trkpt>
      <trkpt lat="45.85873" lon="6.44819">
        <ele>2058.6</ele>
        <time>2024-04-27T12:43:00Z</time>
      </trkpt>
      <trkpt lat="45.85873" lon="6.44819">
        <ele>2058.6</ele>
        <time>2024-04-27T12:43:01Z</time>
      </trkpt>
      <trkpt lat="45.85873" lon="6.44819">
        <ele>2058.6</ele>
        <time>2024-04-27T12:43:02Z</time>
      </trkpt>
      <trkpt lat="45.85873" lon="6.4482">
        <ele>2058.6</ele>
        <time>2024-04-27T12:43:03Z</time>
      </trkpt>
      <trkpt lat="45.85873" lon="6.4482">
        <ele>2058.6</ele>
        <time>2024-04-27T12:43:04Z</time>
      </trkpt>
      <trkpt lat="45.85873" lon="6.44821">
        <ele>2059.7</ele>
        <time>2024-04-27T12:43:05Z</time>
      </trkpt>
      <trkpt lat="45.85873" lon="6.44823">
        <ele>2059.7</ele>
        <time>2024-04-27T12:43:06Z</time>
      </trkpt>
      <trkpt lat="45.85873" lon="6.44825">
        <ele>2059.7</ele>
        <time>2024-04-27T12:43:07Z</time>
      </trkpt>
      <trkpt lat="45.85872" lon="6.44826">
        <ele>2059.7</ele>
        <time>2024-04-27T12:43:08Z</time>
      </trkpt>
      <trkpt lat="45.85872" lon="6.44827">
        <ele>2059.7</ele>
        <time>2024-04-27T12:43:09Z</time>
      </trkpt>
      <trkpt lat="45.85871" lon="6.44828">
        <ele>2059.7</ele>
        <time>2024-04-27T12:43:10Z</time>
      </trkpt>
      <trkpt lat="45.85871" lon="6.4483">
        <ele>2060.6</ele>
        <time>2024-04-27T12:43:11Z</time>
      </trkpt>
      <trkpt lat="45.85871" lon="6.44831">
        <ele>2060.6</ele>
        <time>2024-04-27T12:43:12Z</time>
      </trkpt>
      <trkpt lat="45.85871" lon="6.44832">
        <ele>2060.6</ele>
        <time>2024-04-27T12:43:13Z</time>
      </trkpt>
      <trkpt lat="45.85871" lon="6.44833">
        <ele>2060.6</ele>
        <time>2024-04-27T12:43:14Z</time>
      </trkpt>
      <trkpt lat="45.85871" lon="6.44833">
        <ele>2060.6</ele>
        <time>2024-04-27T12:43:15Z</time>
      </trkpt>
      <trkpt lat="45.85872" lon="6.44833">
        <ele>2060.6</ele>
        <time>2024-04-27T12:43:16Z</time>
      </trkpt>
      <trkpt lat="45.85872" lon="6.44833">
        <ele>2060.6</ele>
        <time>2024-04-27T12:43:17Z</time>
      </trkpt>
      <trkpt lat="45.85873" lon="6.44834">
        <ele>2060.6</ele>
        <time>2024-04-27T12:43:18Z</time>
      </trkpt>
      <trkpt lat="45.85873" lon="6.44834">
        <ele>2061.7</ele>
        <time>2024-04-27T12:43:19Z</time>
      </trkpt>
      <trkpt lat="45.85874" lon="6.44834">
        <ele>2061.7</ele>
        <time>2024-04-27T12:43:20Z</time>
      </trkpt>
      <trkpt lat="45.85875" lon="6.44834">
        <ele>2061.7</ele>
        <time>2024-04-27T12:43:21Z</time>
      </trkpt>
      <trkpt lat="45.85876" lon="6.44834">
        <ele>2061.7</ele>
        <time>2024-04-27T12:43:22Z</time>
      </trkpt>
      <trkpt lat="45.85876" lon="6.44834">
        <ele>2062.6</ele>
        <time>2024-04-27T12:43:23Z</time>
      </trkpt>
      <trkpt lat="45.85877" lon="6.44835">
        <ele>2062.6</ele>
        <time>2024-04-27T12:43:24Z</time>
      </trkpt>
      <trkpt lat="45.85877" lon="6.44835">
        <ele>2062.6</ele>
        <time>2024-04-27T12:43:25Z</time>
      </trkpt>
      <trkpt lat="45.85877" lon="6.44835">
        <ele>2062.6</ele>
        <time>2024-04-27T12:43:26Z</time>
      </trkpt>
      <trkpt lat="45.85878" lon="6.44835">
        <ele>2062.6</ele>
        <time>2024-04-27T12:43:27Z</time>
      </trkpt>
      <trkpt lat="45.85879" lon="6.44836">
        <ele>2062.6</ele>
        <time>2024-04-27T12:43:28Z</time>
      </trkpt>
      <trkpt lat="45.8588" lon="6.44836">
        <ele>2063.7</ele>
        <time>2024-04-27T12:43:29Z</time>
      </trkpt>
      <trkpt lat="45.8588" lon="6.44837">
        <ele>2063.7</ele>
        <time>2024-04-27T12:43:30Z</time>
      </trkpt>
      <trkpt lat="45.85881" lon="6.44837">
        <ele>2063.7</ele>
        <time>2024-04-27T12:43:31Z</time>
      </trkpt>
      <trkpt lat="45.85881" lon="6.44837">
        <ele>2063.7</ele>
        <time>2024-04-27T12:43:32Z</time>
      </trkpt>
      <trkpt lat="45.85882" lon="6.44836">
        <ele>2063.7</ele>
        <time>2024-04-27T12:43:33Z</time>
      </trkpt>
      <trkpt lat="45.85883" lon="6.44836">
        <ele>2063.7</ele>
        <time>2024-04-27T12:43:34Z</time>
      </trkpt>
      <trkpt lat="45.85884" lon="6.44836">
        <ele>2064.6</ele>
        <time>2024-04-27T12:43:35Z</time>
      </trkpt>
      <trkpt lat="45.85884" lon="6.44836">
        <ele>2064.6</ele>
        <time>2024-04-27T12:43:36Z</time>
      </trkpt>
      <trkpt lat="45.85885" lon="6.44836">
        <ele>2064.6</ele>
        <time>2024-04-27T12:43:37Z</time>
      </trkpt>
      <trkpt lat="45.85886" lon="6.44836">
        <ele>2064.6</ele>
        <time>2024-04-27T12:43:38Z</time>
      </trkpt>
      <trkpt lat="45.85886" lon="6.44836">
        <ele>2064.6</ele>
        <time>2024-04-27T12:43:39Z</time>
      </trkpt>
      <trkpt lat="45.85887" lon="6.44836">
        <ele>2064.6</ele>
        <time>2024-04-27T12:43:40Z</time>
      </trkpt>
      <trkpt lat="45.85887" lon="6.44836">
        <ele>2065.7</ele>
        <time>2024-04-27T12:43:41Z</time>
      </trkpt>
      <trkpt lat="45.85888" lon="6.44836">
        <ele>2065.7</ele>
        <time>2024-04-27T12:43:42Z</time>
      </trkpt>
      <trkpt lat="45.85888" lon="6.44835">
        <ele>2065.7</ele>
        <time>2024-04-27T12:43:43Z</time>
      </trkpt>
      <trkpt lat="45.85889" lon="6.44835">
        <ele>2065.7</ele>
        <time>2024-04-27T12:43:44Z</time>
      </trkpt>
      <trkpt lat="45.8589" lon="6.44835">
        <ele>2065.7</ele>
        <time>2024-04-27T12:43:45Z</time>
      </trkpt>
      <trkpt lat="45.8589" lon="6.44835">
        <ele>2065.7</ele>
        <time>2024-04-27T12:43:46Z</time>
      </trkpt>
      <trkpt lat="45.85891" lon="6.44834">
        <ele>2066.7</ele>
        <time>2024-04-27T12:43:47Z</time>
      </trkpt>
      <trkpt lat="45.85891" lon="6.44834">
        <ele>2066.7</ele>
        <time>2024-04-27T12:43:48Z</time>
      </trkpt>
      <trkpt lat="45.85892" lon="6.44834">
        <ele>2066.7</ele>
        <time>2024-04-27T12:43:49Z</time>
      </trkpt>
      <trkpt lat="45.85893" lon="6.44835">
        <ele>2066.7</ele>
        <time>2024-04-27T12:43:50Z</time>
      </trkpt>
      <trkpt lat="45.85893" lon="6.44836">
        <ele>2067.6</ele>
        <time>2024-04-27T12:43:51Z</time>
      </trkpt>
      <trkpt lat="45.85893" lon="6.44837">
        <ele>2067.6</ele>
        <time>2024-04-27T12:43:52Z</time>
      </trkpt>
      <trkpt lat="45.85893" lon="6.44838">
        <ele>2068.7</ele>
        <time>2024-04-27T12:43:53Z</time>
      </trkpt>
      <trkpt lat="45.85893" lon="6.44839">
        <ele>2068.7</ele>
        <time>2024-04-27T12:43:54Z</time>
      </trkpt>
      <trkpt lat="45.85893" lon="6.4484">
        <ele>2069.6</ele>
        <time>2024-04-27T12:43:55Z</time>
      </trkpt>
      <trkpt lat="45.85893" lon="6.44841">
        <ele>2069.6</ele>
        <time>2024-04-27T12:43:56Z</time>
      </trkpt>
      <trkpt lat="45.85893" lon="6.44842">
        <ele>2069.6</ele>
        <time>2024-04-27T12:43:57Z</time>
      </trkpt>
      <trkpt lat="45.85893" lon="6.44842">
        <ele>2069.6</ele>
        <time>2024-04-27T12:43:58Z</time>
      </trkpt>
      <trkpt lat="45.85893" lon="6.44843">
        <ele>2069.6</ele>
        <time>2024-04-27T12:43:59Z</time>
      </trkpt>
      <trkpt lat="45.85893" lon="6.44845">
        <ele>2069.6</ele>
        <time>2024-04-27T12:44:00Z</time>
      </trkpt>
      <trkpt lat="45.85893" lon="6.44845">
        <ele>2069.6</ele>
        <time>2024-04-27T12:44:01Z</time>
      </trkpt>
      <trkpt lat="45.85893" lon="6.44848">
        <ele>2069.6</ele>
        <time>2024-04-27T12:44:02Z</time>
      </trkpt>
      <trkpt lat="45.85893" lon="6.44848">
        <ele>2070.7</ele>
        <time>2024-04-27T12:44:03Z</time>
      </trkpt>
      <trkpt lat="45.85894" lon="6.44849">
        <ele>2070.7</ele>
        <time>2024-04-27T12:44:04Z</time>
      </trkpt>
      <trkpt lat="45.85894" lon="6.4485">
        <ele>2070.7</ele>
        <time>2024-04-27T12:44:05Z</time>
      </trkpt>
      <trkpt lat="45.85893" lon="6.44851">
        <ele>2070.7</ele>
        <time>2024-04-27T12:44:06Z</time>
      </trkpt>
      <trkpt lat="45.85893" lon="6.44852">
        <ele>2070.7</ele>
        <time>2024-04-27T12:44:07Z</time>
      </trkpt>
      <trkpt lat="45.85893" lon="6.44853">
        <ele>2070.7</ele>
        <time>2024-04-27T12:44:08Z</time>
      </trkpt>
      <trkpt lat="45.85893" lon="6.44854">
        <ele>2070.7</ele>
        <time>2024-04-27T12:44:09Z</time>
      </trkpt>
      <trkpt lat="45.85892" lon="6.44855">
        <ele>2070.7</ele>
        <time>2024-04-27T12:44:10Z</time>
      </trkpt>
      <trkpt lat="45.85892" lon="6.44856">
        <ele>2070.7</ele>
        <time>2024-04-27T12:44:11Z</time>
      </trkpt>
      <trkpt lat="45.85891" lon="6.44857">
        <ele>2070.7</ele>
        <time>2024-04-27T12:44:12Z</time>
      </trkpt>
      <trkpt lat="45.8589" lon="6.44857">
        <ele>2070.7</ele>
        <time>2024-04-27T12:44:13Z</time>
      </trkpt>
      <trkpt lat="45.8589" lon="6.44858">
        <ele>2070.7</ele>
        <time>2024-04-27T12:44:14Z</time>
      </trkpt>
      <trkpt lat="45.8589" lon="6.44859">
        <ele>2072.7</ele>
        <time>2024-04-27T12:44:15Z</time>
      </trkpt>
      <trkpt lat="45.85891" lon="6.44859">
        <ele>2072.7</ele>
        <time>2024-04-27T12:44:16Z</time>
      </trkpt>
      <trkpt lat="45.85892" lon="6.4486">
        <ele>2072.7</ele>
        <time>2024-04-27T12:44:17Z</time>
      </trkpt>
      <trkpt lat="45.85893" lon="6.44862">
        <ele>2072.7</ele>
        <time>2024-04-27T12:44:18Z</time>
      </trkpt>
      <trkpt lat="45.85893" lon="6.44863">
        <ele>2072.7</ele>
        <time>2024-04-27T12:44:19Z</time>
      </trkpt>
      <trkpt lat="45.85892" lon="6.44863">
        <ele>2072.7</ele>
        <time>2024-04-27T12:44:20Z</time>
      </trkpt>
      <trkpt lat="45.85892" lon="6.44864">
        <ele>2072.7</ele>
        <time>2024-04-27T12:44:21Z</time>
      </trkpt>
      <trkpt lat="45.85892" lon="6.44865">
        <ele>2072.7</ele>
        <time>2024-04-27T12:44:22Z</time>
      </trkpt>
      <trkpt lat="45.85892" lon="6.44866">
        <ele>2072.7</ele>
        <time>2024-04-27T12:44:23Z</time>
      </trkpt>
      <trkpt lat="45.85892" lon="6.44867">
        <ele>2072.7</ele>
        <time>2024-04-27T12:44:24Z</time>
      </trkpt>
      <trkpt lat="45.85892" lon="6.44868">
        <ele>2072.7</ele>
        <time>2024-04-27T12:44:25Z</time>
      </trkpt>
      <trkpt lat="45.85892" lon="6.44869">
        <ele>2072.7</ele>
        <time>2024-04-27T12:44:26Z</time>
      </trkpt>
      <trkpt lat="45.85892" lon="6.4487">
        <ele>2073.6</ele>
        <time>2024-04-27T12:44:27Z</time>
      </trkpt>
      <trkpt lat="45.85891" lon="6.44871">
        <ele>2073.6</ele>
        <time>2024-04-27T12:44:28Z</time>
      </trkpt>
      <trkpt lat="45.85891" lon="6.44872">
        <ele>2073.6</ele>
        <time>2024-04-27T12:44:29Z</time>
      </trkpt>
      <trkpt lat="45.85891" lon="6.44873">
        <ele>2073.6</ele>
        <time>2024-04-27T12:44:30Z</time>
      </trkpt>
      <trkpt lat="45.85891" lon="6.44874">
        <ele>2073.6</ele>
        <time>2024-04-27T12:44:31Z</time>
      </trkpt>
      <trkpt lat="45.85891" lon="6.44875">
        <ele>2073.6</ele>
        <time>2024-04-27T12:44:32Z</time>
      </trkpt>
      <trkpt lat="45.85891" lon="6.44876">
        <ele>2073.6</ele>
        <time>2024-04-27T12:44:33Z</time>
      </trkpt>
      <trkpt lat="45.85891" lon="6.44877">
        <ele>2073.6</ele>
        <time>2024-04-27T12:44:34Z</time>
      </trkpt>
      <trkpt lat="45.85891" lon="6.44878">
        <ele>2073.6</ele>
        <time>2024-04-27T12:44:35Z</time>
      </trkpt>
      <trkpt lat="45.85891" lon="6.44879">
        <ele>2073.6</ele>
        <time>2024-04-27T12:44:36Z</time>
      </trkpt>
      <trkpt lat="45.85891" lon="6.44879">
        <ele>2073.6</ele>
        <time>2024-04-27T12:44:37Z</time>
      </trkpt>
      <trkpt lat="45.85891" lon="6.4488">
        <ele>2073.6</ele>
        <time>2024-04-27T12:44:38Z</time>
      </trkpt>
      <trkpt lat="45.85891" lon="6.44881">
        <ele>2075.7</ele>
        <time>2024-04-27T12:44:39Z</time>
      </trkpt>
      <trkpt lat="45.85891" lon="6.44881">
        <ele>2075.7</ele>
        <time>2024-04-27T12:44:40Z</time>
      </trkpt>
      <trkpt lat="45.8589" lon="6.44882">
        <ele>2075.7</ele>
        <time>2024-04-27T12:44:41Z</time>
      </trkpt>
      <trkpt lat="45.8589" lon="6.44883">
        <ele>2075.7</ele>
        <time>2024-04-27T12:44:42Z</time>
      </trkpt>
      <trkpt lat="45.85889" lon="6.44884">
        <ele>2076.6</ele>
        <time>2024-04-27T12:44:43Z</time>
      </trkpt>
      <trkpt lat="45.85889" lon="6.44884">
        <ele>2076.6</ele>
        <time>2024-04-27T12:44:44Z</time>
      </trkpt>
      <trkpt lat="45.85889" lon="6.44886">
        <ele>2076.6</ele>
        <time>2024-04-27T12:44:45Z</time>
      </trkpt>
      <trkpt lat="45.85889" lon="6.44887">
        <ele>2076.6</ele>
        <time>2024-04-27T12:44:46Z</time>
      </trkpt>
      <trkpt lat="45.85889" lon="6.44887">
        <ele>2076.6</ele>
        <time>2024-04-27T12:44:47Z</time>
      </trkpt>
      <trkpt lat="45.85888" lon="6.44888">
        <ele>2076.6</ele>
        <time>2024-04-27T12:44:48Z</time>
      </trkpt>
      <trkpt lat="45.85888" lon="6.44889">
        <ele>2076.6</ele>
        <time>2024-04-27T12:44:49Z</time>
      </trkpt>
      <trkpt lat="45.85889" lon="6.4489">
        <ele>2076.6</ele>
        <time>2024-04-27T12:44:50Z</time>
      </trkpt>
      <trkpt lat="45.85888" lon="6.4489">
        <ele>2077.7</ele>
        <time>2024-04-27T12:44:51Z</time>
      </trkpt>
      <trkpt lat="45.85887" lon="6.44889">
        <ele>2077.7</ele>
        <time>2024-04-27T12:44:52Z</time>
      </trkpt>
      <trkpt lat="45.85886" lon="6.44889">
        <ele>2077.7</ele>
        <time>2024-04-27T12:44:53Z</time>
      </trkpt>
      <trkpt lat="45.85885" lon="6.4489">
        <ele>2077.7</ele>
        <time>2024-04-27T12:44:54Z</time>
      </trkpt>
      <trkpt lat="45.85885" lon="6.44891">
        <ele>2078.6</ele>
        <time>2024-04-27T12:44:55Z</time>
      </trkpt>
      <trkpt lat="45.85885" lon="6.44892">
        <ele>2078.6</ele>
        <time>2024-04-27T12:44:56Z</time>
      </trkpt>
      <trkpt lat="45.85884" lon="6.44892">
        <ele>2078.6</ele>
        <time>2024-04-27T12:44:57Z</time>
      </trkpt>
      <trkpt lat="45.85884" lon="6.44893">
        <ele>2078.6</ele>
        <time>2024-04-27T12:44:58Z</time>
      </trkpt>
      <trkpt lat="45.85884" lon="6.44893">
        <ele>2078.6</ele>
        <time>2024-04-27T12:44:59Z</time>
      </trkpt>
      <trkpt lat="45.85884" lon="6.44893">
        <ele>2078.6</ele>
        <time>2024-04-27T12:45:00Z</time>
      </trkpt>
      <trkpt lat="45.85883" lon="6.44894">
        <ele>2079.7</ele>
        <time>2024-04-27T12:45:01Z</time>
      </trkpt>
      <trkpt lat="45.85883" lon="6.44893">
        <ele>2079.7</ele>
        <time>2024-04-27T12:45:02Z</time>
      </trkpt>
      <trkpt lat="45.85883" lon="6.44893">
        <ele>2079.7</ele>
        <time>2024-04-27T12:45:03Z</time>
      </trkpt>
      <trkpt lat="45.85883" lon="6.44893">
        <ele>2079.7</ele>
        <time>2024-04-27T12:45:04Z</time>
      </trkpt>
      <trkpt lat="45.85884" lon="6.44893">
        <ele>2080.6</ele>
        <time>2024-04-27T12:45:05Z</time>
      </trkpt>
      <trkpt lat="45.85884" lon="6.44893">
        <ele>2080.6</ele>
        <time>2024-04-27T12:45:06Z</time>
      </trkpt>
      <trkpt lat="45.85885" lon="6.44894">
        <ele>2080.6</ele>
        <time>2024-04-27T12:45:07Z</time>
      </trkpt>
      <trkpt lat="45.85885" lon="6.44894">
        <ele>2080.6</ele>
        <time>2024-04-27T12:45:08Z</time>
      </trkpt>
      <trkpt lat="45.85886" lon="6.44894">
        <ele>2080.6</ele>
        <time>2024-04-27T12:45:09Z</time>
      </trkpt>
      <trkpt lat="45.85886" lon="6.44894">
        <ele>2080.6</ele>
        <time>2024-04-27T12:45:10Z</time>
      </trkpt>
      <trkpt lat="45.85886" lon="6.44894">
        <ele>2080.6</ele>
        <time>2024-04-27T12:45:11Z</time>
      </trkpt>
      <trkpt lat="45.85886" lon="6.44893">
        <ele>2080.6</ele>
        <time>2024-04-27T12:45:12Z</time>
      </trkpt>
      <trkpt lat="45.85887" lon="6.44892">
        <ele>2081.7</ele>
        <time>2024-04-27T12:45:13Z</time>
      </trkpt>
      <trkpt lat="45.85887" lon="6.44893">
        <ele>2081.7</ele>
        <time>2024-04-27T12:45:14Z</time>
      </trkpt>
      <trkpt lat="45.85888" lon="6.44893">
        <ele>2081.7</ele>
        <time>2024-04-27T12:45:15Z</time>
      </trkpt>
      <trkpt lat="45.85889" lon="6.44893">
        <ele>2081.7</ele>
        <time>2024-04-27T12:45:16Z</time>
      </trkpt>
      <trkpt lat="45.8589" lon="6.44893">
        <ele>2081.7</ele>
        <time>2024-04-27T12:45:17Z</time>
      </trkpt>
      <trkpt lat="45.85891" lon="6.44893">
        <ele>2081.7</ele>
        <time>2024-04-27T12:45:18Z</time>
      </trkpt>
      <trkpt lat="45.85891" lon="6.44892">
        <ele>2081.7</ele>
        <time>2024-04-27T12:45:19Z</time>
      </trkpt>
      <trkpt lat="45.85892" lon="6.44893">
        <ele>2081.7</ele>
        <time>2024-04-27T12:45:20Z</time>
      </trkpt>
      <trkpt lat="45.85892" lon="6.44893">
        <ele>2082.7</ele>
        <time>2024-04-27T12:45:21Z</time>
      </trkpt>
      <trkpt lat="45.85893" lon="6.44892">
        <ele>2082.7</ele>
        <time>2024-04-27T12:45:22Z</time>
      </trkpt>
      <trkpt lat="45.85894" lon="6.44892">
        <ele>2082.7</ele>
        <time>2024-04-27T12:45:23Z</time>
      </trkpt>
      <trkpt lat="45.85894" lon="6.44892">
        <ele>2082.7</ele>
        <time>2024-04-27T12:45:24Z</time>
      </trkpt>
      <trkpt lat="45.85895" lon="6.44892">
        <ele>2082.7</ele>
        <time>2024-04-27T12:45:25Z</time>
      </trkpt>
      <trkpt lat="45.85895" lon="6.44892">
        <ele>2082.7</ele>
        <time>2024-04-27T12:45:26Z</time>
      </trkpt>
      <trkpt lat="45.85895" lon="6.44892">
        <ele>2083.6</ele>
        <time>2024-04-27T12:45:27Z</time>
      </trkpt>
      <trkpt lat="45.85896" lon="6.44892">
        <ele>2083.6</ele>
        <time>2024-04-27T12:45:28Z</time>
      </trkpt>
      <trkpt lat="45.85896" lon="6.44891">
        <ele>2083.6</ele>
        <time>2024-04-27T12:45:29Z</time>
      </trkpt>
      <trkpt lat="45.85897" lon="6.44892">
        <ele>2083.6</ele>
        <time>2024-04-27T12:45:30Z</time>
      </trkpt>
      <trkpt lat="45.85897" lon="6.44891">
        <ele>2084.7</ele>
        <time>2024-04-27T12:45:31Z</time>
      </trkpt>
      <trkpt lat="45.85898" lon="6.44892">
        <ele>2084.7</ele>
        <time>2024-04-27T12:45:32Z</time>
      </trkpt>
      <trkpt lat="45.85899" lon="6.44892">
        <ele>2084.7</ele>
        <time>2024-04-27T12:45:33Z</time>
      </trkpt>
      <trkpt lat="45.85899" lon="6.44892">
        <ele>2084.7</ele>
        <time>2024-04-27T12:45:34Z</time>
      </trkpt>
      <trkpt lat="45.85899" lon="6.44892">
        <ele>2084.7</ele>
        <time>2024-04-27T12:45:35Z</time>
      </trkpt>
      <trkpt lat="45.859" lon="6.44891">
        <ele>2084.7</ele>
        <time>2024-04-27T12:45:36Z</time>
      </trkpt>
      <trkpt lat="45.859" lon="6.44891">
        <ele>2084.7</ele>
        <time>2024-04-27T12:45:37Z</time>
      </trkpt>
      <trkpt lat="45.859" lon="6.44891">
        <ele>2084.7</ele>
        <time>2024-04-27T12:45:38Z</time>
      </trkpt>
      <trkpt lat="45.85901" lon="6.44891">
        <ele>2085.6</ele>
        <time>2024-04-27T12:45:39Z</time>
      </trkpt>
      <trkpt lat="45.85901" lon="6.44891">
        <ele>2085.6</ele>
        <time>2024-04-27T12:45:40Z</time>
      </trkpt>
      <trkpt lat="45.85902" lon="6.44891">
        <ele>2085.6</ele>
        <time>2024-04-27T12:45:41Z</time>
      </trkpt>
      <trkpt lat="45.85903" lon="6.44891">
        <ele>2085.6</ele>
        <time>2024-04-27T12:45:42Z</time>
      </trkpt>
      <trkpt lat="45.85903" lon="6.44892">
        <ele>2086.7</ele>
        <time>2024-04-27T12:45:43Z</time>
      </trkpt>
      <trkpt lat="45.85903" lon="6.44892">
        <ele>2086.7</ele>
        <time>2024-04-27T12:45:44Z</time>
      </trkpt>
      <trkpt lat="45.85904" lon="6.44893">
        <ele>2086.7</ele>
        <time>2024-04-27T12:45:45Z</time>
      </trkpt>
      <trkpt lat="45.85904" lon="6.44894">
        <ele>2086.7</ele>
        <time>2024-04-27T12:45:46Z</time>
      </trkpt>
      <trkpt lat="45.85905" lon="6.44895">
        <ele>2087.6</ele>
        <time>2024-04-27T12:45:47Z</time>
      </trkpt>
      <trkpt lat="45.85905" lon="6.44896">
        <ele>2087.6</ele>
        <time>2024-04-27T12:45:48Z</time>
      </trkpt>
      <trkpt lat="45.85905" lon="6.44897">
        <ele>2087.6</ele>
        <time>2024-04-27T12:45:49Z</time>
      </trkpt>
      <trkpt lat="45.85905" lon="6.44898">
        <ele>2087.6</ele>
        <time>2024-04-27T12:45:50Z</time>
      </trkpt>
      <trkpt lat="45.85905" lon="6.44899">
        <ele>2087.6</ele>
        <time>2024-04-27T12:45:51Z</time>
      </trkpt>
      <trkpt lat="45.85905" lon="6.44899">
        <ele>2087.6</ele>
        <time>2024-04-27T12:45:52Z</time>
      </trkpt>
      <trkpt lat="45.85906" lon="6.449">
        <ele>2088.7</ele>
        <time>2024-04-27T12:45:53Z</time>
      </trkpt>
      <trkpt lat="45.85906" lon="6.44901">
        <ele>2088.7</ele>
        <time>2024-04-27T12:45:54Z</time>
      </trkpt>
      <trkpt lat="45.85906" lon="6.44902">
        <ele>2088.7</ele>
        <time>2024-04-27T12:45:55Z</time>
      </trkpt>
      <trkpt lat="45.85906" lon="6.44903">
        <ele>2088.7</ele>
        <time>2024-04-27T12:45:56Z</time>
      </trkpt>
      <trkpt lat="45.85906" lon="6.44904">
        <ele>2089.6</ele>
        <time>2024-04-27T12:45:57Z</time>
      </trkpt>
      <trkpt lat="45.85906" lon="6.44905">
        <ele>2089.6</ele>
        <time>2024-04-27T12:45:58Z</time>
      </trkpt>
      <trkpt lat="45.85906" lon="6.44905">
        <ele>2089.6</ele>
        <time>2024-04-27T12:45:59Z</time>
      </trkpt>
      <trkpt lat="45.85907" lon="6.44906">
        <ele>2089.6</ele>
        <time>2024-04-27T12:46:00Z</time>
      </trkpt>
      <trkpt lat="45.85908" lon="6.44907">
        <ele>2090.6</ele>
        <time>2024-04-27T12:46:01Z</time>
      </trkpt>
      <trkpt lat="45.85908" lon="6.44907">
        <ele>2090.6</ele>
        <time>2024-04-27T12:46:02Z</time>
      </trkpt>
      <trkpt lat="45.85908" lon="6.44909">
        <ele>2090.6</ele>
        <time>2024-04-27T12:46:03Z</time>
      </trkpt>
      <trkpt lat="45.85909" lon="6.4491">
        <ele>2090.6</ele>
        <time>2024-04-27T12:46:04Z</time>
      </trkpt>
      <trkpt lat="45.85909" lon="6.44912">
        <ele>2091.7</ele>
        <time>2024-04-27T12:46:05Z</time>
      </trkpt>
      <trkpt lat="45.8591" lon="6.44913">
        <ele>2091.7</ele>
        <time>2024-04-27T12:46:06Z</time>
      </trkpt>
      <trkpt lat="45.85909" lon="6.44913">
        <ele>2091.7</ele>
        <time>2024-04-27T12:46:07Z</time>
      </trkpt>
      <trkpt lat="45.85909" lon="6.44913">
        <ele>2091.7</ele>
        <time>2024-04-27T12:46:08Z</time>
      </trkpt>
      <trkpt lat="45.85909" lon="6.44914">
        <ele>2092.6</ele>
        <time>2024-04-27T12:46:09Z</time>
      </trkpt>
      <trkpt lat="45.85909" lon="6.44915">
        <ele>2092.6</ele>
        <time>2024-04-27T12:46:10Z</time>
      </trkpt>
      <trkpt lat="45.85909" lon="6.44915">
        <ele>2092.6</ele>
        <time>2024-04-27T12:46:11Z</time>
      </trkpt>
      <trkpt lat="45.85909" lon="6.44915">
        <ele>2092.6</ele>
        <time>2024-04-27T12:46:12Z</time>
      </trkpt>
      <trkpt lat="45.85909" lon="6.44916">
        <ele>2093.7</ele>
        <time>2024-04-27T12:46:13Z</time>
      </trkpt>
      <trkpt lat="45.8591" lon="6.44918">
        <ele>2093.7</ele>
        <time>2024-04-27T12:46:14Z</time>
      </trkpt>
      <trkpt lat="45.8591" lon="6.44919">
        <ele>2093.7</ele>
        <time>2024-04-27T12:46:15Z</time>
      </trkpt>
      <trkpt lat="45.8591" lon="6.44919">
        <ele>2093.7</ele>
        <time>2024-04-27T12:46:16Z</time>
      </trkpt>
      <trkpt lat="45.85909" lon="6.44919">
        <ele>2094.6</ele>
        <time>2024-04-27T12:46:17Z</time>
      </trkpt>
      <trkpt lat="45.85909" lon="6.4492">
        <ele>2094.6</ele>
        <time>2024-04-27T12:46:18Z</time>
      </trkpt>
      <trkpt lat="45.85909" lon="6.4492">
        <ele>2094.6</ele>
        <time>2024-04-27T12:46:19Z</time>
      </trkpt>
      <trkpt lat="45.85909" lon="6.44921">
        <ele>2094.6</ele>
        <time>2024-04-27T12:46:20Z</time>
      </trkpt>
      <trkpt lat="45.85909" lon="6.44922">
        <ele>2094.6</ele>
        <time>2024-04-27T12:46:21Z</time>
      </trkpt>
      <trkpt lat="45.85909" lon="6.44922">
        <ele>2094.6</ele>
        <time>2024-04-27T12:46:22Z</time>
      </trkpt>
      <trkpt lat="45.85909" lon="6.44922">
        <ele>2095.7</ele>
        <time>2024-04-27T12:46:23Z</time>
      </trkpt>
      <trkpt lat="45.85908" lon="6.44922">
        <ele>2095.7</ele>
        <time>2024-04-27T12:46:24Z</time>
      </trkpt>
      <trkpt lat="45.85908" lon="6.44923">
        <ele>2095.7</ele>
        <time>2024-04-27T12:46:25Z</time>
      </trkpt>
      <trkpt lat="45.85908" lon="6.44924">
        <ele>2095.7</ele>
        <time>2024-04-27T12:46:26Z</time>
      </trkpt>
      <trkpt lat="45.85907" lon="6.44926">
        <ele>2096.6</ele>
        <time>2024-04-27T12:46:27Z</time>
      </trkpt>
      <trkpt lat="45.85907" lon="6.44926">
        <ele>2096.6</ele>
        <time>2024-04-27T12:46:28Z</time>
      </trkpt>
      <trkpt lat="45.85906" lon="6.44927">
        <ele>2096.6</ele>
        <time>2024-04-27T12:46:29Z</time>
      </trkpt>
      <trkpt lat="45.85905" lon="6.44927">
        <ele>2096.6</ele>
        <time>2024-04-27T12:46:30Z</time>
      </trkpt>
      <trkpt lat="45.85905" lon="6.44928">
        <ele>2097.7</ele>
        <time>2024-04-27T12:46:31Z</time>
      </trkpt>
      <trkpt lat="45.85904" lon="6.44929">
        <ele>2097.7</ele>
        <time>2024-04-27T12:46:32Z</time>
      </trkpt>
      <trkpt lat="45.85904" lon="6.4493">
        <ele>2097.7</ele>
        <time>2024-04-27T12:46:33Z</time>
      </trkpt>
      <trkpt lat="45.85903" lon="6.4493">
        <ele>2097.7</ele>
        <time>2024-04-27T12:46:34Z</time>
      </trkpt>
      <trkpt lat="45.85902" lon="6.4493">
        <ele>2098.6</ele>
        <time>2024-04-27T12:46:35Z</time>
      </trkpt>
      <trkpt lat="45.85902" lon="6.44931">
        <ele>2098.6</ele>
        <time>2024-04-27T12:46:36Z</time>
      </trkpt>
      <trkpt lat="45.85901" lon="6.44931">
        <ele>2098.6</ele>
        <time>2024-04-27T12:46:37Z</time>
      </trkpt>
      <trkpt lat="45.85901" lon="6.44932">
        <ele>2098.6</ele>
        <time>2024-04-27T12:46:38Z</time>
      </trkpt>
      <trkpt lat="45.85901" lon="6.44933">
        <ele>2099.6</ele>
        <time>2024-04-27T12:46:39Z</time>
      </trkpt>
      <trkpt lat="45.85901" lon="6.44934">
        <ele>2099.6</ele>
        <time>2024-04-27T12:46:40Z</time>
      </trkpt>
      <trkpt lat="45.85901" lon="6.44934">
        <ele>2099.6</ele>
        <time>2024-04-27T12:46:41Z</time>
      </trkpt>
      <trkpt lat="45.85901" lon="6.44936">
        <ele>2099.6</ele>
        <time>2024-04-27T12:46:42Z</time>
      </trkpt>
      <trkpt lat="45.85901" lon="6.44937">
        <ele>2099.6</ele>
        <time>2024-04-27T12:46:43Z</time>
      </trkpt>
      <trkpt lat="45.859" lon="6.44938">
        <ele>2099.6</ele>
        <time>2024-04-27T12:46:44Z</time>
      </trkpt>
      <trkpt lat="45.859" lon="6.44938">
        <ele>2099.6</ele>
        <time>2024-04-27T12:46:45Z</time>
      </trkpt>
      <trkpt lat="45.85899" lon="6.44939">
        <ele>2099.6</ele>
        <time>2024-04-27T12:46:46Z</time>
      </trkpt>
      <trkpt lat="45.85898" lon="6.4494">
        <ele>2099.6</ele>
        <time>2024-04-27T12:46:47Z</time>
      </trkpt>
      <trkpt lat="45.85898" lon="6.4494">
        <ele>2099.6</ele>
        <time>2024-04-27T12:46:48Z</time>
      </trkpt>
      <trkpt lat="45.85897" lon="6.44941">
        <ele>2099.6</ele>
        <time>2024-04-27T12:46:49Z</time>
      </trkpt>
      <trkpt lat="45.85897" lon="6.44941">
        <ele>2099.6</ele>
        <time>2024-04-27T12:46:50Z</time>
      </trkpt>
      <trkpt lat="45.85896" lon="6.44942">
        <ele>2100.7</ele>
        <time>2024-04-27T12:46:51Z</time>
      </trkpt>
      <trkpt lat="45.85895" lon="6.44943">
        <ele>2100.7</ele>
        <time>2024-04-27T12:46:52Z</time>
      </trkpt>
      <trkpt lat="45.85895" lon="6.44943">
        <ele>2100.7</ele>
        <time>2024-04-27T12:46:53Z</time>
      </trkpt>
      <trkpt lat="45.85895" lon="6.44944">
        <ele>2100.7</ele>
        <time>2024-04-27T12:46:54Z</time>
      </trkpt>
      <trkpt lat="45.85895" lon="6.44945">
        <ele>2101.6</ele>
        <time>2024-04-27T12:46:55Z</time>
      </trkpt>
      <trkpt lat="45.85894" lon="6.44945">
        <ele>2101.6</ele>
        <time>2024-04-27T12:46:56Z</time>
      </trkpt>
      <trkpt lat="45.85893" lon="6.44945">
        <ele>2102.7</ele>
        <time>2024-04-27T12:46:57Z</time>
      </trkpt>
      <trkpt lat="45.85892" lon="6.44946">
        <ele>2102.7</ele>
        <time>2024-04-27T12:46:58Z</time>
      </trkpt>
      <trkpt lat="45.85892" lon="6.44947">
        <ele>2102.7</ele>
        <time>2024-04-27T12:46:59Z</time>
      </trkpt>
      <trkpt lat="45.85892" lon="6.44947">
        <ele>2102.7</ele>
        <time>2024-04-27T12:47:00Z</time>
      </trkpt>
      <trkpt lat="45.85892" lon="6.44948">
        <ele>2102.7</ele>
        <time>2024-04-27T12:47:01Z</time>
      </trkpt>
      <trkpt lat="45.85892" lon="6.44948">
        <ele>2102.7</ele>
        <time>2024-04-27T12:47:02Z</time>
      </trkpt>
      <trkpt lat="45.85892" lon="6.44948">
        <ele>2103.6</ele>
        <time>2024-04-27T12:47:03Z</time>
      </trkpt>
      <trkpt lat="45.85892" lon="6.44949">
        <ele>2103.6</ele>
        <time>2024-04-27T12:47:04Z</time>
      </trkpt>
      <trkpt lat="45.85892" lon="6.4495">
        <ele>2103.6</ele>
        <time>2024-04-27T12:47:05Z</time>
      </trkpt>
      <trkpt lat="45.85892" lon="6.4495">
        <ele>2103.6</ele>
        <time>2024-04-27T12:47:06Z</time>
      </trkpt>
      <trkpt lat="45.85891" lon="6.44951">
        <ele>2104.7</ele>
        <time>2024-04-27T12:47:07Z</time>
      </trkpt>
      <trkpt lat="45.85891" lon="6.44952">
        <ele>2104.7</ele>
        <time>2024-04-27T12:47:08Z</time>
      </trkpt>
      <trkpt lat="45.8589" lon="6.44953">
        <ele>2104.7</ele>
        <time>2024-04-27T12:47:09Z</time>
      </trkpt>
      <trkpt lat="45.85889" lon="6.44954">
        <ele>2104.7</ele>
        <time>2024-04-27T12:47:10Z</time>
      </trkpt>
      <trkpt lat="45.85889" lon="6.44954">
        <ele>2104.7</ele>
        <time>2024-04-27T12:47:11Z</time>
      </trkpt>
      <trkpt lat="45.85889" lon="6.44954">
        <ele>2104.7</ele>
        <time>2024-04-27T12:47:12Z</time>
      </trkpt>
      <trkpt lat="45.85888" lon="6.44955">
        <ele>2104.7</ele>
        <time>2024-04-27T12:47:13Z</time>
      </trkpt>
      <trkpt lat="45.85888" lon="6.44956">
        <ele>2104.7</ele>
        <time>2024-04-27T12:47:14Z</time>
      </trkpt>
      <trkpt lat="45.85887" lon="6.44956">
        <ele>2105.6</ele>
        <time>2024-04-27T12:47:15Z</time>
      </trkpt>
      <trkpt lat="45.85887" lon="6.44956">
        <ele>2105.6</ele>
        <time>2024-04-27T12:47:16Z</time>
      </trkpt>
      <trkpt lat="45.85887" lon="6.44956">
        <ele>2105.6</ele>
        <time>2024-04-27T12:47:17Z</time>
      </trkpt>
      <trkpt lat="45.85887" lon="6.44956">
        <ele>2105.6</ele>
        <time>2024-04-27T12:47:18Z</time>
      </trkpt>
      <trkpt lat="45.85887" lon="6.44957">
        <ele>2105.6</ele>
        <time>2024-04-27T12:47:19Z</time>
      </trkpt>
      <trkpt lat="45.85887" lon="6.44957">
        <ele>2105.6</ele>
        <time>2024-04-27T12:47:20Z</time>
      </trkpt>
      <trkpt lat="45.85887" lon="6.44958">
        <ele>2105.6</ele>
        <time>2024-04-27T12:47:21Z</time>
      </trkpt>
      <trkpt lat="45.85888" lon="6.44958">
        <ele>2105.6</ele>
        <time>2024-04-27T12:47:22Z</time>
      </trkpt>
      <trkpt lat="45.85887" lon="6.44958">
        <ele>2105.6</ele>
        <time>2024-04-27T12:47:23Z</time>
      </trkpt>
      <trkpt lat="45.85888" lon="6.44958">
        <ele>2105.6</ele>
        <time>2024-04-27T12:47:24Z</time>
      </trkpt>
      <trkpt lat="45.85888" lon="6.44959">
        <ele>2105.6</ele>
        <time>2024-04-27T12:47:25Z</time>
      </trkpt>
      <trkpt lat="45.85889" lon="6.44959">
        <ele>2105.6</ele>
        <time>2024-04-27T12:47:26Z</time>
      </trkpt>
      <trkpt lat="45.85889" lon="6.44959">
        <ele>2106.7</ele>
        <time>2024-04-27T12:47:27Z</time>
      </trkpt>
      <trkpt lat="45.85889" lon="6.44959">
        <ele>2106.7</ele>
        <time>2024-04-27T12:47:28Z</time>
      </trkpt>
      <trkpt lat="45.8589" lon="6.4496">
        <ele>2106.7</ele>
        <time>2024-04-27T12:47:29Z</time>
      </trkpt>
      <trkpt lat="45.8589" lon="6.4496">
        <ele>2106.7</ele>
        <time>2024-04-27T12:47:30Z</time>
      </trkpt>
      <trkpt lat="45.85891" lon="6.4496">
        <ele>2107.7</ele>
        <time>2024-04-27T12:47:31Z</time>
      </trkpt>
      <trkpt lat="45.85891" lon="6.44961">
        <ele>2107.7</ele>
        <time>2024-04-27T12:47:32Z</time>
      </trkpt>
      <trkpt lat="45.85891" lon="6.44961">
        <ele>2107.7</ele>
        <time>2024-04-27T12:47:33Z</time>
      </trkpt>
      <trkpt lat="45.85892" lon="6.44961">
        <ele>2107.7</ele>
        <time>2024-04-27T12:47:34Z</time>
      </trkpt>
      <trkpt lat="45.85892" lon="6.44961">
        <ele>2108.6</ele>
        <time>2024-04-27T12:47:35Z</time>
      </trkpt>
      <trkpt lat="45.85892" lon="6.44961">
        <ele>2108.6</ele>
        <time>2024-04-27T12:47:36Z</time>
      </trkpt>
      <trkpt lat="45.85893" lon="6.44961">
        <ele>2108.6</ele>
        <time>2024-04-27T12:47:37Z</time>
      </trkpt>
      <trkpt lat="45.85894" lon="6.44961">
        <ele>2108.6</ele>
        <time>2024-04-27T12:47:38Z</time>
      </trkpt>
      <trkpt lat="45.85895" lon="6.44962">
        <ele>2108.6</ele>
        <time>2024-04-27T12:47:39Z</time>
      </trkpt>
      <trkpt lat="45.85895" lon="6.44962">
        <ele>2108.6</ele>
        <time>2024-04-27T12:47:40Z</time>
      </trkpt>
      <trkpt lat="45.85896" lon="6.44963">
        <ele>2108.6</ele>
        <time>2024-04-27T12:47:41Z</time>
      </trkpt>
      <trkpt lat="45.85896" lon="6.44963">
        <ele>2108.6</ele>
        <time>2024-04-27T12:47:42Z</time>
      </trkpt>
      <trkpt lat="45.85896" lon="6.44963">
        <ele>2108.6</ele>
        <time>2024-04-27T12:47:43Z</time>
      </trkpt>
      <trkpt lat="45.85897" lon="6.44962">
        <ele>2108.6</ele>
        <time>2024-04-27T12:47:44Z</time>
      </trkpt>
      <trkpt lat="45.85897" lon="6.44962">
        <ele>2108.6</ele>
        <time>2024-04-27T12:47:45Z</time>
      </trkpt>
      <trkpt lat="45.85898" lon="6.44962">
        <ele>2108.6</ele>
        <time>2024-04-27T12:47:46Z</time>
      </trkpt>
      <trkpt lat="45.85898" lon="6.44961">
        <ele>2108.6</ele>
        <time>2024-04-27T12:47:47Z</time>
      </trkpt>
      <trkpt lat="45.85899" lon="6.44962">
        <ele>2108.6</ele>
        <time>2024-04-27T12:47:48Z</time>
      </trkpt>
      <trkpt lat="45.85901" lon="6.44962">
        <ele>2108.6</ele>
        <time>2024-04-27T12:47:49Z</time>
      </trkpt>
      <trkpt lat="45.85901" lon="6.44963">
        <ele>2108.6</ele>
        <time>2024-04-27T12:47:50Z</time>
      </trkpt>
      <trkpt lat="45.85902" lon="6.44962">
        <ele>2108.6</ele>
        <time>2024-04-27T12:47:51Z</time>
      </trkpt>
      <trkpt lat="45.85903" lon="6.44962">
        <ele>2108.6</ele>
        <time>2024-04-27T12:47:52Z</time>
      </trkpt>
      <trkpt lat="45.85904" lon="6.44962">
        <ele>2109.7</ele>
        <time>2024-04-27T12:47:53Z</time>
      </trkpt>
      <trkpt lat="45.85905" lon="6.44963">
        <ele>2109.7</ele>
        <time>2024-04-27T12:47:54Z</time>
      </trkpt>
      <trkpt lat="45.85906" lon="6.44962">
        <ele>2109.7</ele>
        <time>2024-04-27T12:47:55Z</time>
      </trkpt>
      <trkpt lat="45.85906" lon="6.44962">
        <ele>2109.7</ele>
        <time>2024-04-27T12:47:56Z</time>
      </trkpt>
      <trkpt lat="45.85906" lon="6.44962">
        <ele>2109.7</ele>
        <time>2024-04-27T12:47:57Z</time>
      </trkpt>
      <trkpt lat="45.85906" lon="6.44962">
        <ele>2109.7</ele>
        <time>2024-04-27T12:47:58Z</time>
      </trkpt>
      <trkpt lat="45.85907" lon="6.44962">
        <ele>2109.7</ele>
        <time>2024-04-27T12:47:59Z</time>
      </trkpt>
      <trkpt lat="45.85908" lon="6.44962">
        <ele>2109.7</ele>
        <time>2024-04-27T12:48:00Z</time>
      </trkpt>
      <trkpt lat="45.85909" lon="6.44962">
        <ele>2110.6</ele>
        <time>2024-04-27T12:48:01Z</time>
      </trkpt>
      <trkpt lat="45.85909" lon="6.44963">
        <ele>2110.6</ele>
        <time>2024-04-27T12:48:02Z</time>
      </trkpt>
      <trkpt lat="45.8591" lon="6.44962">
        <ele>2110.6</ele>
        <time>2024-04-27T12:48:03Z</time>
      </trkpt>
      <trkpt lat="45.85911" lon="6.44963">
        <ele>2110.6</ele>
        <time>2024-04-27T12:48:04Z</time>
      </trkpt>
      <trkpt lat="45.85911" lon="6.44962">
        <ele>2111.7</ele>
        <time>2024-04-27T12:48:05Z</time>
      </trkpt>
      <trkpt lat="45.85912" lon="6.44962">
        <ele>2111.7</ele>
        <time>2024-04-27T12:48:06Z</time>
      </trkpt>
      <trkpt lat="45.85912" lon="6.44962">
        <ele>2111.7</ele>
        <time>2024-04-27T12:48:07Z</time>
      </trkpt>
      <trkpt lat="45.85913" lon="6.44962">
        <ele>2111.7</ele>
        <time>2024-04-27T12:48:08Z</time>
      </trkpt>
      <trkpt lat="45.85914" lon="6.44962">
        <ele>2111.7</ele>
        <time>2024-04-27T12:48:09Z</time>
      </trkpt>
      <trkpt lat="45.85914" lon="6.44962">
        <ele>2111.7</ele>
        <time>2024-04-27T12:48:10Z</time>
      </trkpt>
      <trkpt lat="45.85915" lon="6.44962">
        <ele>2111.7</ele>
        <time>2024-04-27T12:48:11Z</time>
      </trkpt>
      <trkpt lat="45.85915" lon="6.44962">
        <ele>2111.7</ele>
        <time>2024-04-27T12:48:12Z</time>
      </trkpt>
      <trkpt lat="45.85915" lon="6.44962">
        <ele>2111.7</ele>
        <time>2024-04-27T12:48:13Z</time>
      </trkpt>
      <trkpt lat="45.85916" lon="6.44962">
        <ele>2111.7</ele>
        <time>2024-04-27T12:48:14Z</time>
      </trkpt>
      <trkpt lat="45.85916" lon="6.44961">
        <ele>2111.7</ele>
        <time>2024-04-27T12:48:15Z</time>
      </trkpt>
      <trkpt lat="45.85916" lon="6.44961">
        <ele>2111.7</ele>
        <time>2024-04-27T12:48:16Z</time>
      </trkpt>
      <trkpt lat="45.85917" lon="6.44961">
        <ele>2111.7</ele>
        <time>2024-04-27T12:48:17Z</time>
      </trkpt>
      <trkpt lat="45.85918" lon="6.44961">
        <ele>2111.7</ele>
        <time>2024-04-27T12:48:18Z</time>
      </trkpt>
      <trkpt lat="45.85918" lon="6.44961">
        <ele>2111.7</ele>
        <time>2024-04-27T12:48:19Z</time>
      </trkpt>
      <trkpt lat="45.85919" lon="6.44961">
        <ele>2111.7</ele>
        <time>2024-04-27T12:48:20Z</time>
      </trkpt>
      <trkpt lat="45.8592" lon="6.44961">
        <ele>2113.7</ele>
        <time>2024-04-27T12:48:21Z</time>
      </trkpt>
      <trkpt lat="45.8592" lon="6.44961">
        <ele>2113.7</ele>
        <time>2024-04-27T12:48:22Z</time>
      </trkpt>
      <trkpt lat="45.85919" lon="6.44959">
        <ele>2113.7</ele>
        <time>2024-04-27T12:48:23Z</time>
      </trkpt>
      <trkpt lat="45.85919" lon="6.44958">
        <ele>2113.7</ele>
        <time>2024-04-27T12:48:24Z</time>
      </trkpt>
      <trkpt lat="45.8592" lon="6.44956">
        <ele>2114.6</ele>
        <time>2024-04-27T12:48:25Z</time>
      </trkpt>
      <trkpt lat="45.8592" lon="6.44957">
        <ele>2114.6</ele>
        <time>2024-04-27T12:48:26Z</time>
      </trkpt>
      <trkpt lat="45.85921" lon="6.44956">
        <ele>2114.6</ele>
        <time>2024-04-27T12:48:27Z</time>
      </trkpt>
      <trkpt lat="45.85921" lon="6.44956">
        <ele>2114.6</ele>
        <time>2024-04-27T12:48:28Z</time>
      </trkpt>
      <trkpt lat="45.85922" lon="6.44956">
        <ele>2115.6</ele>
        <time>2024-04-27T12:48:29Z</time>
      </trkpt>
      <trkpt lat="45.85922" lon="6.44956">
        <ele>2115.6</ele>
        <time>2024-04-27T12:48:30Z</time>
      </trkpt>
      <trkpt lat="45.85923" lon="6.44956">
        <ele>2115.6</ele>
        <time>2024-04-27T12:48:31Z</time>
      </trkpt>
      <trkpt lat="45.85924" lon="6.44956">
        <ele>2115.6</ele>
        <time>2024-04-27T12:48:32Z</time>
      </trkpt>
      <trkpt lat="45.85924" lon="6.44957">
        <ele>2115.6</ele>
        <time>2024-04-27T12:48:33Z</time>
      </trkpt>
      <trkpt lat="45.85925" lon="6.44957">
        <ele>2115.6</ele>
        <time>2024-04-27T12:48:34Z</time>
      </trkpt>
      <trkpt lat="45.85926" lon="6.44957">
        <ele>2115.6</ele>
        <time>2024-04-27T12:48:35Z</time>
      </trkpt>
      <trkpt lat="45.85926" lon="6.44957">
        <ele>2115.6</ele>
        <time>2024-04-27T12:48:36Z</time>
      </trkpt>
      <trkpt lat="45.85926" lon="6.44956">
        <ele>2115.6</ele>
        <time>2024-04-27T12:48:37Z</time>
      </trkpt>
      <trkpt lat="45.85926" lon="6.44956">
        <ele>2115.6</ele>
        <time>2024-04-27T12:48:38Z</time>
      </trkpt>
      <trkpt lat="45.85927" lon="6.44956">
        <ele>2117.6</ele>
        <time>2024-04-27T12:48:39Z</time>
      </trkpt>
      <trkpt lat="45.85928" lon="6.44956">
        <ele>2117.6</ele>
        <time>2024-04-27T12:48:40Z</time>
      </trkpt>
      <trkpt lat="45.85928" lon="6.44956">
        <ele>2117.6</ele>
        <time>2024-04-27T12:48:41Z</time>
      </trkpt>
      <trkpt lat="45.85928" lon="6.44956">
        <ele>2117.6</ele>
        <time>2024-04-27T12:48:42Z</time>
      </trkpt>
      <trkpt lat="45.85929" lon="6.44955">
        <ele>2117.6</ele>
        <time>2024-04-27T12:48:43Z</time>
      </trkpt>
      <trkpt lat="45.85929" lon="6.44955">
        <ele>2117.6</ele>
        <time>2024-04-27T12:48:44Z</time>
      </trkpt>
      <trkpt lat="45.85929" lon="6.44955">
        <ele>2117.6</ele>
        <time>2024-04-27T12:48:45Z</time>
      </trkpt>
      <trkpt lat="45.8593" lon="6.44955">
        <ele>2117.6</ele>
        <time>2024-04-27T12:48:46Z</time>
      </trkpt>
      <trkpt lat="45.8593" lon="6.44955">
        <ele>2118.7</ele>
        <time>2024-04-27T12:48:47Z</time>
      </trkpt>
      <trkpt lat="45.8593" lon="6.44955">
        <ele>2118.7</ele>
        <time>2024-04-27T12:48:48Z</time>
      </trkpt>
      <trkpt lat="45.85931" lon="6.44955">
        <ele>2118.7</ele>
        <time>2024-04-27T12:48:49Z</time>
      </trkpt>
      <trkpt lat="45.85931" lon="6.44955">
        <ele>2118.7</ele>
        <time>2024-04-27T12:48:50Z</time>
      </trkpt>
      <trkpt lat="45.85932" lon="6.44955">
        <ele>2118.7</ele>
        <time>2024-04-27T12:48:51Z</time>
      </trkpt>
      <trkpt lat="45.85933" lon="6.44955">
        <ele>2118.7</ele>
        <time>2024-04-27T12:48:52Z</time>
      </trkpt>
      <trkpt lat="45.85933" lon="6.44955">
        <ele>2119.6</ele>
        <time>2024-04-27T12:48:53Z</time>
      </trkpt>
      <trkpt lat="45.85934" lon="6.44954">
        <ele>2119.6</ele>
        <time>2024-04-27T12:48:54Z</time>
      </trkpt>
      <trkpt lat="45.85934" lon="6.44954">
        <ele>2119.6</ele>
        <time>2024-04-27T12:48:55Z</time>
      </trkpt>
      <trkpt lat="45.85935" lon="6.44954">
        <ele>2119.6</ele>
        <time>2024-04-27T12:48:56Z</time>
      </trkpt>
      <trkpt lat="45.85936" lon="6.44953">
        <ele>2120.7</ele>
        <time>2024-04-27T12:48:57Z</time>
      </trkpt>
      <trkpt lat="45.85937" lon="6.44953">
        <ele>2120.7</ele>
        <time>2024-04-27T12:48:58Z</time>
      </trkpt>
      <trkpt lat="45.85937" lon="6.44952">
        <ele>2120.7</ele>
        <time>2024-04-27T12:48:59Z</time>
      </trkpt>
      <trkpt lat="45.85937" lon="6.44952">
        <ele>2120.7</ele>
        <time>2024-04-27T12:49:00Z</time>
      </trkpt>
      <trkpt lat="45.85938" lon="6.44951">
        <ele>2120.7</ele>
        <time>2024-04-27T12:49:01Z</time>
      </trkpt>
      <trkpt lat="45.85938" lon="6.44951">
        <ele>2120.7</ele>
        <time>2024-04-27T12:49:02Z</time>
      </trkpt>
      <trkpt lat="45.85939" lon="6.4495">
        <ele>2121.6</ele>
        <time>2024-04-27T12:49:03Z</time>
      </trkpt>
      <trkpt lat="45.8594" lon="6.44951">
        <ele>2121.6</ele>
        <time>2024-04-27T12:49:04Z</time>
      </trkpt>
      <trkpt lat="45.8594" lon="6.44951">
        <ele>2121.6</ele>
        <time>2024-04-27T12:49:05Z</time>
      </trkpt>
      <trkpt lat="45.85941" lon="6.44952">
        <ele>2121.6</ele>
        <time>2024-04-27T12:49:06Z</time>
      </trkpt>
      <trkpt lat="45.85941" lon="6.44952">
        <ele>2123.7</ele>
        <time>2024-04-27T12:49:07Z</time>
      </trkpt>
      <trkpt lat="45.85941" lon="6.44953">
        <ele>2123.7</ele>
        <time>2024-04-27T12:49:08Z</time>
      </trkpt>
      <trkpt lat="45.85941" lon="6.44954">
        <ele>2123.7</ele>
        <time>2024-04-27T12:49:09Z</time>
      </trkpt>
      <trkpt lat="45.85942" lon="6.44956">
        <ele>2123.7</ele>
        <time>2024-04-27T12:49:10Z</time>
      </trkpt>
      <trkpt lat="45.85942" lon="6.44957">
        <ele>2124.6</ele>
        <time>2024-04-27T12:49:11Z</time>
      </trkpt>
      <trkpt lat="45.85942" lon="6.44958">
        <ele>2124.6</ele>
        <time>2024-04-27T12:49:12Z</time>
      </trkpt>
      <trkpt lat="45.85942" lon="6.44959">
        <ele>2124.6</ele>
        <time>2024-04-27T12:49:13Z</time>
      </trkpt>
      <trkpt lat="45.85943" lon="6.44961">
        <ele>2124.6</ele>
        <time>2024-04-27T12:49:14Z</time>
      </trkpt>
      <trkpt lat="45.85944" lon="6.44962">
        <ele>2125.7</ele>
        <time>2024-04-27T12:49:15Z</time>
      </trkpt>
      <trkpt lat="45.85944" lon="6.44963">
        <ele>2125.7</ele>
        <time>2024-04-27T12:49:16Z</time>
      </trkpt>
      <trkpt lat="45.85944" lon="6.44964">
        <ele>2125.7</ele>
        <time>2024-04-27T12:49:17Z</time>
      </trkpt>
      <trkpt lat="45.85944" lon="6.44965">
        <ele>2125.7</ele>
        <time>2024-04-27T12:49:18Z</time>
      </trkpt>
      <trkpt lat="45.85943" lon="6.44967">
        <ele>2125.7</ele>
        <time>2024-04-27T12:49:19Z</time>
      </trkpt>
      <trkpt lat="45.85944" lon="6.44968">
        <ele>2125.7</ele>
        <time>2024-04-27T12:49:20Z</time>
      </trkpt>
      <trkpt lat="45.85945" lon="6.44969">
        <ele>2125.7</ele>
        <time>2024-04-27T12:49:21Z</time>
      </trkpt>
      <trkpt lat="45.85945" lon="6.4497">
        <ele>2125.7</ele>
        <time>2024-04-27T12:49:22Z</time>
      </trkpt>
      <trkpt lat="45.85946" lon="6.44971">
        <ele>2126.6</ele>
        <time>2024-04-27T12:49:23Z</time>
      </trkpt>
      <trkpt lat="45.85946" lon="6.44973">
        <ele>2126.6</ele>
        <time>2024-04-27T12:49:24Z</time>
      </trkpt>
      <trkpt lat="45.85947" lon="6.44974">
        <ele>2126.6</ele>
        <time>2024-04-27T12:49:25Z</time>
      </trkpt>
      <trkpt lat="45.85947" lon="6.44974">
        <ele>2126.6</ele>
        <time>2024-04-27T12:49:26Z</time>
      </trkpt>
      <trkpt lat="45.85946" lon="6.44975">
        <ele>2126.6</ele>
        <time>2024-04-27T12:49:27Z</time>
      </trkpt>
      <trkpt lat="45.85945" lon="6.44975">
        <ele>2126.6</ele>
        <time>2024-04-27T12:49:28Z</time>
      </trkpt>
      <trkpt lat="45.85944" lon="6.44975">
        <ele>2126.6</ele>
        <time>2024-04-27T12:49:29Z</time>
      </trkpt>
      <trkpt lat="45.85944" lon="6.44976">
        <ele>2126.6</ele>
        <time>2024-04-27T12:49:30Z</time>
      </trkpt>
      <trkpt lat="45.85943" lon="6.44977">
        <ele>2127.7</ele>
        <time>2024-04-27T12:49:31Z</time>
      </trkpt>
      <trkpt lat="45.85943" lon="6.44978">
        <ele>2127.7</ele>
        <time>2024-04-27T12:49:32Z</time>
      </trkpt>
      <trkpt lat="45.85942" lon="6.44979">
        <ele>2127.7</ele>
        <time>2024-04-27T12:49:33Z</time>
      </trkpt>
      <trkpt lat="45.85942" lon="6.4498">
        <ele>2127.7</ele>
        <time>2024-04-27T12:49:34Z</time>
      </trkpt>
      <trkpt lat="45.85942" lon="6.4498">
        <ele>2128.6</ele>
        <time>2024-04-27T12:49:35Z</time>
      </trkpt>
      <trkpt lat="45.85941" lon="6.44982">
        <ele>2128.6</ele>
        <time>2024-04-27T12:49:36Z</time>
      </trkpt>
      <trkpt lat="45.85941" lon="6.44983">
        <ele>2128.6</ele>
        <time>2024-04-27T12:49:37Z</time>
      </trkpt>
      <trkpt lat="45.85941" lon="6.44984">
        <ele>2128.6</ele>
        <time>2024-04-27T12:49:38Z</time>
      </trkpt>
      <trkpt lat="45.8594" lon="6.44985">
        <ele>2128.6</ele>
        <time>2024-04-27T12:49:39Z</time>
      </trkpt>
      <trkpt lat="45.8594" lon="6.44986">
        <ele>2128.6</ele>
        <time>2024-04-27T12:49:40Z</time>
      </trkpt>
      <trkpt lat="45.8594" lon="6.44987">
        <ele>2129.7</ele>
        <time>2024-04-27T12:49:41Z</time>
      </trkpt>
      <trkpt lat="45.85939" lon="6.44988">
        <ele>2129.7</ele>
        <time>2024-04-27T12:49:42Z</time>
      </trkpt>
      <trkpt lat="45.85939" lon="6.44989">
        <ele>2129.7</ele>
        <time>2024-04-27T12:49:43Z</time>
      </trkpt>
      <trkpt lat="45.85939" lon="6.4499">
        <ele>2129.7</ele>
        <time>2024-04-27T12:49:44Z</time>
      </trkpt>
      <trkpt lat="45.85938" lon="6.44991">
        <ele>2130.6</ele>
        <time>2024-04-27T12:49:45Z</time>
      </trkpt>
      <trkpt lat="45.85938" lon="6.44992">
        <ele>2130.6</ele>
        <time>2024-04-27T12:49:46Z</time>
      </trkpt>
      <trkpt lat="45.85938" lon="6.44993">
        <ele>2130.6</ele>
        <time>2024-04-27T12:49:47Z</time>
      </trkpt>
      <trkpt lat="45.85937" lon="6.44993">
        <ele>2130.6</ele>
        <time>2024-04-27T12:49:48Z</time>
      </trkpt>
      <trkpt lat="45.85937" lon="6.44994">
        <ele>2130.6</ele>
        <time>2024-04-27T12:49:49Z</time>
      </trkpt>
      <trkpt lat="45.85937" lon="6.44995">
        <ele>2130.6</ele>
        <time>2024-04-27T12:49:50Z</time>
      </trkpt>
      <trkpt lat="45.85937" lon="6.44996">
        <ele>2130.6</ele>
        <time>2024-04-27T12:49:51Z</time>
      </trkpt>
      <trkpt lat="45.85937" lon="6.44997">
        <ele>2130.6</ele>
        <time>2024-04-27T12:49:52Z</time>
      </trkpt>
      <trkpt lat="45.85937" lon="6.44998">
        <ele>2130.6</ele>
        <time>2024-04-27T12:49:53Z</time>
      </trkpt>
      <trkpt lat="45.85936" lon="6.44999">
        <ele>2130.6</ele>
        <time>2024-04-27T12:49:54Z</time>
      </trkpt>
      <trkpt lat="45.85936" lon="6.45">
        <ele>2131.6</ele>
        <time>2024-04-27T12:49:55Z</time>
      </trkpt>
      <trkpt lat="45.85937" lon="6.45">
        <ele>2131.6</ele>
        <time>2024-04-27T12:49:56Z</time>
      </trkpt>
      <trkpt lat="45.85936" lon="6.45">
        <ele>2131.6</ele>
        <time>2024-04-27T12:49:57Z</time>
      </trkpt>
      <trkpt lat="45.85936" lon="6.45">
        <ele>2131.6</ele>
        <time>2024-04-27T12:49:58Z</time>
      </trkpt>
      <trkpt lat="45.85935" lon="6.45001">
        <ele>2131.6</ele>
        <time>2024-04-27T12:49:59Z</time>
      </trkpt>
      <trkpt lat="45.85935" lon="6.45001">
        <ele>2131.6</ele>
        <time>2024-04-27T12:50:00Z</time>
      </trkpt>
      <trkpt lat="45.85934" lon="6.45002">
        <ele>2131.6</ele>
        <time>2024-04-27T12:50:01Z</time>
      </trkpt>
      <trkpt lat="45.85934" lon="6.45003">
        <ele>2131.6</ele>
        <time>2024-04-27T12:50:02Z</time>
      </trkpt>
      <trkpt lat="45.85934" lon="6.45004">
        <ele>2131.6</ele>
        <time>2024-04-27T12:50:03Z</time>
      </trkpt>
      <trkpt lat="45.85933" lon="6.45006">
        <ele>2131.6</ele>
        <time>2024-04-27T12:50:04Z</time>
      </trkpt>
      <trkpt lat="45.85932" lon="6.45006">
        <ele>2132.7</ele>
        <time>2024-04-27T12:50:05Z</time>
      </trkpt>
      <trkpt lat="45.85932" lon="6.45007">
        <ele>2132.7</ele>
        <time>2024-04-27T12:50:06Z</time>
      </trkpt>
      <trkpt lat="45.85932" lon="6.45008">
        <ele>2132.7</ele>
        <time>2024-04-27T12:50:07Z</time>
      </trkpt>
      <trkpt lat="45.85932" lon="6.45009">
        <ele>2132.7</ele>
        <time>2024-04-27T12:50:08Z</time>
      </trkpt>
      <trkpt lat="45.85931" lon="6.4501">
        <ele>2133.6</ele>
        <time>2024-04-27T12:50:09Z</time>
      </trkpt>
      <trkpt lat="45.85931" lon="6.4501">
        <ele>2133.6</ele>
        <time>2024-04-27T12:50:10Z</time>
      </trkpt>
      <trkpt lat="45.8593" lon="6.45011">
        <ele>2133.6</ele>
        <time>2024-04-27T12:50:11Z</time>
      </trkpt>
      <trkpt lat="45.85929" lon="6.45012">
        <ele>2133.6</ele>
        <time>2024-04-27T12:50:12Z</time>
      </trkpt>
      <trkpt lat="45.85928" lon="6.45012">
        <ele>2133.6</ele>
        <time>2024-04-27T12:50:13Z</time>
      </trkpt>
      <trkpt lat="45.85928" lon="6.45013">
        <ele>2133.6</ele>
        <time>2024-04-27T12:50:14Z</time>
      </trkpt>
      <trkpt lat="45.85928" lon="6.45014">
        <ele>2134.7</ele>
        <time>2024-04-27T12:50:15Z</time>
      </trkpt>
      <trkpt lat="45.85928" lon="6.45015">
        <ele>2134.7</ele>
        <time>2024-04-27T12:50:16Z</time>
      </trkpt>
      <trkpt lat="45.85928" lon="6.45016">
        <ele>2134.7</ele>
        <time>2024-04-27T12:50:17Z</time>
      </trkpt>
      <trkpt lat="45.85929" lon="6.45019">
        <ele>2134.7</ele>
        <time>2024-04-27T12:50:18Z</time>
      </trkpt>
      <trkpt lat="45.85929" lon="6.45019">
        <ele>2134.7</ele>
        <time>2024-04-27T12:50:19Z</time>
      </trkpt>
      <trkpt lat="45.85929" lon="6.4502">
        <ele>2134.7</ele>
        <time>2024-04-27T12:50:20Z</time>
      </trkpt>
      <trkpt lat="45.85928" lon="6.4502">
        <ele>2135.6</ele>
        <time>2024-04-27T12:50:21Z</time>
      </trkpt>
      <trkpt lat="45.85928" lon="6.45021">
        <ele>2135.6</ele>
        <time>2024-04-27T12:50:22Z</time>
      </trkpt>
      <trkpt lat="45.85927" lon="6.45021">
        <ele>2135.6</ele>
        <time>2024-04-27T12:50:23Z</time>
      </trkpt>
      <trkpt lat="45.85926" lon="6.45022">
        <ele>2135.6</ele>
        <time>2024-04-27T12:50:24Z</time>
      </trkpt>
      <trkpt lat="45.85926" lon="6.45023">
        <ele>2135.6</ele>
        <time>2024-04-27T12:50:25Z</time>
      </trkpt>
      <trkpt lat="45.85926" lon="6.45024">
        <ele>2135.6</ele>
        <time>2024-04-27T12:50:26Z</time>
      </trkpt>
      <trkpt lat="45.85925" lon="6.45025">
        <ele>2136.7</ele>
        <time>2024-04-27T12:50:27Z</time>
      </trkpt>
      <trkpt lat="45.85925" lon="6.45026">
        <ele>2136.7</ele>
        <time>2024-04-27T12:50:28Z</time>
      </trkpt>
      <trkpt lat="45.85924" lon="6.45027">
        <ele>2136.7</ele>
        <time>2024-04-27T12:50:29Z</time>
      </trkpt>
      <trkpt lat="45.85923" lon="6.45027">
        <ele>2136.7</ele>
        <time>2024-04-27T12:50:30Z</time>
      </trkpt>
      <trkpt lat="45.85922" lon="6.45028">
        <ele>2136.7</ele>
        <time>2024-04-27T12:50:31Z</time>
      </trkpt>
      <trkpt lat="45.85921" lon="6.45028">
        <ele>2136.7</ele>
        <time>2024-04-27T12:50:32Z</time>
      </trkpt>
      <trkpt lat="45.85921" lon="6.45029">
        <ele>2136.7</ele>
        <time>2024-04-27T12:50:33Z</time>
      </trkpt>
      <trkpt lat="45.8592" lon="6.45029">
        <ele>2136.7</ele>
        <time>2024-04-27T12:50:34Z</time>
      </trkpt>
      <trkpt lat="45.8592" lon="6.4503">
        <ele>2136.7</ele>
        <time>2024-04-27T12:50:35Z</time>
      </trkpt>
      <trkpt lat="45.8592" lon="6.45031">
        <ele>2136.7</ele>
        <time>2024-04-27T12:50:36Z</time>
      </trkpt>
      <trkpt lat="45.85919" lon="6.45032">
        <ele>2136.7</ele>
        <time>2024-04-27T12:50:37Z</time>
      </trkpt>
      <trkpt lat="45.85919" lon="6.45033">
        <ele>2136.7</ele>
        <time>2024-04-27T12:50:38Z</time>
      </trkpt>
      <trkpt lat="45.85919" lon="6.45033">
        <ele>2136.7</ele>
        <time>2024-04-27T12:50:39Z</time>
      </trkpt>
      <trkpt lat="45.85918" lon="6.45034">
        <ele>2136.7</ele>
        <time>2024-04-27T12:50:40Z</time>
      </trkpt>
      <trkpt lat="45.85918" lon="6.45034">
        <ele>2137.6</ele>
        <time>2024-04-27T12:50:41Z</time>
      </trkpt>
      <trkpt lat="45.85918" lon="6.45033">
        <ele>2137.6</ele>
        <time>2024-04-27T12:50:42Z</time>
      </trkpt>
      <trkpt lat="45.85917" lon="6.45033">
        <ele>2137.6</ele>
        <time>2024-04-27T12:50:43Z</time>
      </trkpt>
      <trkpt lat="45.85917" lon="6.45033">
        <ele>2137.6</ele>
        <time>2024-04-27T12:50:44Z</time>
      </trkpt>
      <trkpt lat="45.85918" lon="6.45033">
        <ele>2137.6</ele>
        <time>2024-04-27T12:50:45Z</time>
      </trkpt>
      <trkpt lat="45.85918" lon="6.45032">
        <ele>2137.6</ele>
        <time>2024-04-27T12:50:46Z</time>
      </trkpt>
      <trkpt lat="45.85918" lon="6.45032">
        <ele>2137.6</ele>
        <time>2024-04-27T12:50:47Z</time>
      </trkpt>
      <trkpt lat="45.85918" lon="6.45032">
        <ele>2137.6</ele>
        <time>2024-04-27T12:50:48Z</time>
      </trkpt>
      <trkpt lat="45.85918" lon="6.45032">
        <ele>2137.6</ele>
        <time>2024-04-27T12:50:49Z</time>
      </trkpt>
      <trkpt lat="45.85918" lon="6.45031">
        <ele>2137.6</ele>
        <time>2024-04-27T12:50:50Z</time>
      </trkpt>
      <trkpt lat="45.85918" lon="6.45031">
        <ele>2137.6</ele>
        <time>2024-04-27T12:50:51Z</time>
      </trkpt>
      <trkpt lat="45.85919" lon="6.45031">
        <ele>2137.6</ele>
        <time>2024-04-27T12:50:52Z</time>
      </trkpt>
      <trkpt lat="45.85919" lon="6.45031">
        <ele>2138.7</ele>
        <time>2024-04-27T12:50:53Z</time>
      </trkpt>
      <trkpt lat="45.85919" lon="6.45031">
        <ele>2138.7</ele>
        <time>2024-04-27T12:50:54Z</time>
      </trkpt>
      <trkpt lat="45.8592" lon="6.45031">
        <ele>2138.7</ele>
        <time>2024-04-27T12:50:55Z</time>
      </trkpt>
      <trkpt lat="45.8592" lon="6.45031">
        <ele>2138.7</ele>
        <time>2024-04-27T12:50:56Z</time>
      </trkpt>
      <trkpt lat="45.8592" lon="6.4503">
        <ele>2139.7</ele>
        <time>2024-04-27T12:50:57Z</time>
      </trkpt>
      <trkpt lat="45.8592" lon="6.4503">
        <ele>2139.7</ele>
        <time>2024-04-27T12:50:58Z</time>
      </trkpt>
      <trkpt lat="45.8592" lon="6.4503">
        <ele>2139.7</ele>
        <time>2024-04-27T12:50:59Z</time>
      </trkpt>
      <trkpt lat="45.8592" lon="6.4503">
        <ele>2139.7</ele>
        <time>2024-04-27T12:51:00Z</time>
      </trkpt>
      <trkpt lat="45.8592" lon="6.45029">
        <ele>2139.7</ele>
        <time>2024-04-27T12:51:01Z</time>
      </trkpt>
      <trkpt lat="45.85921" lon="6.45029">
        <ele>2139.7</ele>
        <time>2024-04-27T12:51:02Z</time>
      </trkpt>
      <trkpt lat="45.85921" lon="6.45029">
        <ele>2140.6</ele>
        <time>2024-04-27T12:51:03Z</time>
      </trkpt>
      <trkpt lat="45.85921" lon="6.45028">
        <ele>2140.6</ele>
        <time>2024-04-27T12:51:04Z</time>
      </trkpt>
      <trkpt lat="45.85922" lon="6.45028">
        <ele>2140.6</ele>
        <time>2024-04-27T12:51:05Z</time>
      </trkpt>
      <trkpt lat="45.85922" lon="6.45028">
        <ele>2140.6</ele>
        <time>2024-04-27T12:51:06Z</time>
      </trkpt>
      <trkpt lat="45.85922" lon="6.45028">
        <ele>2141.7</ele>
        <time>2024-04-27T12:51:07Z</time>
      </trkpt>
      <trkpt lat="45.85923" lon="6.45028">
        <ele>2141.7</ele>
        <time>2024-04-27T12:51:08Z</time>
      </trkpt>
      <trkpt lat="45.85923" lon="6.45029">
        <ele>2141.7</ele>
        <time>2024-04-27T12:51:09Z</time>
      </trkpt>
      <trkpt lat="45.85923" lon="6.45029">
        <ele>2141.7</ele>
        <time>2024-04-27T12:51:10Z</time>
      </trkpt>
      <trkpt lat="45.85924" lon="6.45028">
        <ele>2141.7</ele>
        <time>2024-04-27T12:51:11Z</time>
      </trkpt>
      <trkpt lat="45.85924" lon="6.45028">
        <ele>2141.7</ele>
        <time>2024-04-27T12:51:12Z</time>
      </trkpt>
      <trkpt lat="45.85924" lon="6.45028">
        <ele>2142.6</ele>
        <time>2024-04-27T12:51:13Z</time>
      </trkpt>
      <trkpt lat="45.85925" lon="6.45028">
        <ele>2142.6</ele>
        <time>2024-04-27T12:51:14Z</time>
      </trkpt>
      <trkpt lat="45.85925" lon="6.45028">
        <ele>2142.6</ele>
        <time>2024-04-27T12:51:15Z</time>
      </trkpt>
      <trkpt lat="45.85926" lon="6.45028">
        <ele>2142.6</ele>
        <time>2024-04-27T12:51:16Z</time>
      </trkpt>
      <trkpt lat="45.85926" lon="6.45028">
        <ele>2143.7</ele>
        <time>2024-04-27T12:51:17Z</time>
      </trkpt>
      <trkpt lat="45.85927" lon="6.45028">
        <ele>2143.7</ele>
        <time>2024-04-27T12:51:18Z</time>
      </trkpt>
      <trkpt lat="45.85927" lon="6.45029">
        <ele>2143.7</ele>
        <time>2024-04-27T12:51:19Z</time>
      </trkpt>
      <trkpt lat="45.85927" lon="6.45029">
        <ele>2143.7</ele>
        <time>2024-04-27T12:51:20Z</time>
      </trkpt>
      <trkpt lat="45.85928" lon="6.45029">
        <ele>2144.6</ele>
        <time>2024-04-27T12:51:21Z</time>
      </trkpt>
      <trkpt lat="45.85928" lon="6.4503">
        <ele>2144.6</ele>
        <time>2024-04-27T12:51:22Z</time>
      </trkpt>
      <trkpt lat="45.85928" lon="6.4503">
        <ele>2144.6</ele>
        <time>2024-04-27T12:51:23Z</time>
      </trkpt>
      <trkpt lat="45.85929" lon="6.4503">
        <ele>2144.6</ele>
        <time>2024-04-27T12:51:24Z</time>
      </trkpt>
      <trkpt lat="45.85929" lon="6.4503">
        <ele>2145.7</ele>
        <time>2024-04-27T12:51:25Z</time>
      </trkpt>
      <trkpt lat="45.8593" lon="6.4503">
        <ele>2145.7</ele>
        <time>2024-04-27T12:51:26Z</time>
      </trkpt>
      <trkpt lat="45.8593" lon="6.45031">
        <ele>2145.7</ele>
        <time>2024-04-27T12:51:27Z</time>
      </trkpt>
      <trkpt lat="45.8593" lon="6.45031">
        <ele>2145.7</ele>
        <time>2024-04-27T12:51:28Z</time>
      </trkpt>
      <trkpt lat="45.8593" lon="6.45032">
        <ele>2146.6</ele>
        <time>2024-04-27T12:51:29Z</time>
      </trkpt>
      <trkpt lat="45.8593" lon="6.45032">
        <ele>2146.6</ele>
        <time>2024-04-27T12:51:30Z</time>
      </trkpt>
      <trkpt lat="45.85929" lon="6.45033">
        <ele>2146.6</ele>
        <time>2024-04-27T12:51:31Z</time>
      </trkpt>
      <trkpt lat="45.85929" lon="6.45033">
        <ele>2146.6</ele>
        <time>2024-04-27T12:51:32Z</time>
      </trkpt>
      <trkpt lat="45.8593" lon="6.45034">
        <ele>2147.6</ele>
        <time>2024-04-27T12:51:33Z</time>
      </trkpt>
      <trkpt lat="45.8593" lon="6.45036">
        <ele>2147.6</ele>
        <time>2024-04-27T12:51:34Z</time>
      </trkpt>
      <trkpt lat="45.85931" lon="6.45037">
        <ele>2147.6</ele>
        <time>2024-04-27T12:51:35Z</time>
      </trkpt>
      <trkpt lat="45.85931" lon="6.45038">
        <ele>2147.6</ele>
        <time>2024-04-27T12:51:36Z</time>
      </trkpt>
      <trkpt lat="45.8593" lon="6.45039">
        <ele>2147.6</ele>
        <time>2024-04-27T12:51:37Z</time>
      </trkpt>
      <trkpt lat="45.8593" lon="6.4504">
        <ele>2147.6</ele>
        <time>2024-04-27T12:51:38Z</time>
      </trkpt>
      <trkpt lat="45.8593" lon="6.45041">
        <ele>2148.7</ele>
        <time>2024-04-27T12:51:39Z</time>
      </trkpt>
      <trkpt lat="45.8593" lon="6.45042">
        <ele>2148.7</ele>
        <time>2024-04-27T12:51:40Z</time>
      </trkpt>
      <trkpt lat="45.8593" lon="6.45042">
        <ele>2148.7</ele>
        <time>2024-04-27T12:51:41Z</time>
      </trkpt>
      <trkpt lat="45.8593" lon="6.45043">
        <ele>2148.7</ele>
        <time>2024-04-27T12:51:42Z</time>
      </trkpt>
      <trkpt lat="45.8593" lon="6.45043">
        <ele>2148.7</ele>
        <time>2024-04-27T12:51:43Z</time>
      </trkpt>
      <trkpt lat="45.85929" lon="6.45045">
        <ele>2148.7</ele>
        <time>2024-04-27T12:51:44Z</time>
      </trkpt>
      <trkpt lat="45.85929" lon="6.45046">
        <ele>2148.7</ele>
        <time>2024-04-27T12:51:45Z</time>
      </trkpt>
      <trkpt lat="45.85929" lon="6.45046">
        <ele>2148.7</ele>
        <time>2024-04-27T12:51:46Z</time>
      </trkpt>
      <trkpt lat="45.85929" lon="6.45048">
        <ele>2148.7</ele>
        <time>2024-04-27T12:51:47Z</time>
      </trkpt>
      <trkpt lat="45.85929" lon="6.45049">
        <ele>2148.7</ele>
        <time>2024-04-27T12:51:48Z</time>
      </trkpt>
      <trkpt lat="45.85929" lon="6.4505">
        <ele>2148.7</ele>
        <time>2024-04-27T12:51:49Z</time>
      </trkpt>
      <trkpt lat="45.8593" lon="6.45051">
        <ele>2148.7</ele>
        <time>2024-04-27T12:51:50Z</time>
      </trkpt>
      <trkpt lat="45.8593" lon="6.45052">
        <ele>2148.7</ele>
        <time>2024-04-27T12:51:51Z</time>
      </trkpt>
      <trkpt lat="45.8593" lon="6.45053">
        <ele>2148.7</ele>
        <time>2024-04-27T12:51:52Z</time>
      </trkpt>
      <trkpt lat="45.85929" lon="6.45053">
        <ele>2148.7</ele>
        <time>2024-04-27T12:51:53Z</time>
      </trkpt>
      <trkpt lat="45.85929" lon="6.45054">
        <ele>2148.7</ele>
        <time>2024-04-27T12:51:54Z</time>
      </trkpt>
      <trkpt lat="45.85927" lon="6.45055">
        <ele>2149.6</ele>
        <time>2024-04-27T12:51:55Z</time>
      </trkpt>
      <trkpt lat="45.85927" lon="6.45055">
        <ele>2149.6</ele>
        <time>2024-04-27T12:51:56Z</time>
      </trkpt>
      <trkpt lat="45.85926" lon="6.45056">
        <ele>2149.6</ele>
        <time>2024-04-27T12:51:57Z</time>
      </trkpt>
      <trkpt lat="45.85925" lon="6.45056">
        <ele>2149.6</ele>
        <time>2024-04-27T12:51:58Z</time>
      </trkpt>
      <trkpt lat="45.85925" lon="6.45057">
        <ele>2149.6</ele>
        <time>2024-04-27T12:51:59Z</time>
      </trkpt>
      <trkpt lat="45.85924" lon="6.45058">
        <ele>2149.6</ele>
        <time>2024-04-27T12:52:00Z</time>
      </trkpt>
      <trkpt lat="45.85925" lon="6.45059">
        <ele>2149.6</ele>
        <time>2024-04-27T12:52:01Z</time>
      </trkpt>
      <trkpt lat="45.85925" lon="6.45059">
        <ele>2149.6</ele>
        <time>2024-04-27T12:52:02Z</time>
      </trkpt>
      <trkpt lat="45.85925" lon="6.4506">
        <ele>2150.7</ele>
        <time>2024-04-27T12:52:03Z</time>
      </trkpt>
      <trkpt lat="45.85924" lon="6.4506">
        <ele>2150.7</ele>
        <time>2024-04-27T12:52:04Z</time>
      </trkpt>
      <trkpt lat="45.85923" lon="6.45061">
        <ele>2150.7</ele>
        <time>2024-04-27T12:52:05Z</time>
      </trkpt>
      <trkpt lat="45.85923" lon="6.45061">
        <ele>2150.7</ele>
        <time>2024-04-27T12:52:06Z</time>
      </trkpt>
      <trkpt lat="45.85922" lon="6.4506">
        <ele>2150.7</ele>
        <time>2024-04-27T12:52:07Z</time>
      </trkpt>
      <trkpt lat="45.85922" lon="6.4506">
        <ele>2150.7</ele>
        <time>2024-04-27T12:52:08Z</time>
      </trkpt>
      <trkpt lat="45.85922" lon="6.4506">
        <ele>2150.7</ele>
        <time>2024-04-27T12:52:09Z</time>
      </trkpt>
      <trkpt lat="45.85922" lon="6.45059">
        <ele>2150.7</ele>
        <time>2024-04-27T12:52:10Z</time>
      </trkpt>
      <trkpt lat="45.85922" lon="6.45059">
        <ele>2150.7</ele>
        <time>2024-04-27T12:52:11Z</time>
      </trkpt>
      <trkpt lat="45.85922" lon="6.45059">
        <ele>2150.7</ele>
        <time>2024-04-27T12:52:12Z</time>
      </trkpt>
      <trkpt lat="45.85922" lon="6.45059">
        <ele>2150.7</ele>
        <time>2024-04-27T12:52:13Z</time>
      </trkpt>
      <trkpt lat="45.85923" lon="6.45059">
        <ele>2150.7</ele>
        <time>2024-04-27T12:52:14Z</time>
      </trkpt>
      <trkpt lat="45.85923" lon="6.45058">
        <ele>2150.7</ele>
        <time>2024-04-27T12:52:15Z</time>
      </trkpt>
      <trkpt lat="45.85923" lon="6.45057">
        <ele>2150.7</ele>
        <time>2024-04-27T12:52:16Z</time>
      </trkpt>
      <trkpt lat="45.85923" lon="6.45057">
        <ele>2150.7</ele>
        <time>2024-04-27T12:52:17Z</time>
      </trkpt>
      <trkpt lat="45.85924" lon="6.45057">
        <ele>2150.7</ele>
        <time>2024-04-27T12:52:18Z</time>
      </trkpt>
      <trkpt lat="45.85924" lon="6.45057">
        <ele>2150.7</ele>
        <time>2024-04-27T12:52:19Z</time>
      </trkpt>
      <trkpt lat="45.85925" lon="6.45057">
        <ele>2150.7</ele>
        <time>2024-04-27T12:52:20Z</time>
      </trkpt>
      <trkpt lat="45.85925" lon="6.45057">
        <ele>2151.6</ele>
        <time>2024-04-27T12:52:21Z</time>
      </trkpt>
      <trkpt lat="45.85925" lon="6.45057">
        <ele>2151.6</ele>
        <time>2024-04-27T12:52:22Z</time>
      </trkpt>
      <trkpt lat="45.85925" lon="6.45057">
        <ele>2151.6</ele>
        <time>2024-04-27T12:52:23Z</time>
      </trkpt>
      <trkpt lat="45.85925" lon="6.45057">
        <ele>2151.6</ele>
        <time>2024-04-27T12:52:24Z</time>
      </trkpt>
      <trkpt lat="45.85925" lon="6.45057">
        <ele>2151.6</ele>
        <time>2024-04-27T12:52:25Z</time>
      </trkpt>
      <trkpt lat="45.85925" lon="6.45057">
        <ele>2151.6</ele>
        <time>2024-04-27T12:52:26Z</time>
      </trkpt>
      <trkpt lat="45.85925" lon="6.45057">
        <ele>2151.6</ele>
        <time>2024-04-27T12:52:27Z</time>
      </trkpt>
      <trkpt lat="45.85925" lon="6.45057">
        <ele>2151.6</ele>
        <time>2024-04-27T12:52:28Z</time>
      </trkpt>
      <trkpt lat="45.85925" lon="6.45057">
        <ele>2152.7</ele>
        <time>2024-04-27T12:52:29Z</time>
      </trkpt>
      <trkpt lat="45.85925" lon="6.45057">
        <ele>2152.7</ele>
        <time>2024-04-27T12:52:30Z</time>
      </trkpt>
      <trkpt lat="45.85925" lon="6.45057">
        <ele>2152.7</ele>
        <time>2024-04-27T12:52:31Z</time>
      </trkpt>
      <trkpt lat="45.85925" lon="6.45057">
        <ele>2152.7</ele>
        <time>2024-04-27T12:52:32Z</time>
      </trkpt>
      <trkpt lat="45.85925" lon="6.45057">
        <ele>2152.7</ele>
        <time>2024-04-27T12:52:33Z</time>
      </trkpt>
      <trkpt lat="45.85925" lon="6.45057">
        <ele>2152.7</ele>
        <time>2024-04-27T12:52:34Z</time>
      </trkpt>
      <trkpt lat="45.85925" lon="6.45057">
        <ele>2153.6</ele>
        <time>2024-04-27T12:52:35Z</time>
      </trkpt>
      <trkpt lat="45.85925" lon="6.45057">
        <ele>2153.6</ele>
        <time>2024-04-27T12:52:36Z</time>
      </trkpt>
      <trkpt lat="45.85925" lon="6.45057">
        <ele>2153.6</ele>
        <time>2024-04-27T12:52:37Z</time>
      </trkpt>
      <trkpt lat="45.85925" lon="6.45057">
        <ele>2153.6</ele>
        <time>2024-04-27T12:52:38Z</time>
      </trkpt>
      <trkpt lat="45.85925" lon="6.45057">
        <ele>2154.7</ele>
        <time>2024-04-27T12:52:39Z</time>
      </trkpt>
      <trkpt lat="45.85926" lon="6.45057">
        <ele>2154.7</ele>
        <time>2024-04-27T12:52:40Z</time>
      </trkpt>
      <trkpt lat="45.85926" lon="6.45057">
        <ele>2154.7</ele>
        <time>2024-04-27T12:52:41Z</time>
      </trkpt>
      <trkpt lat="45.85926" lon="6.45057">
        <ele>2154.7</ele>
        <time>2024-04-27T12:52:42Z</time>
      </trkpt>
      <trkpt lat="45.85927" lon="6.45057">
        <ele>2155.7</ele>
        <time>2024-04-27T12:52:43Z</time>
      </trkpt>
      <trkpt lat="45.85928" lon="6.45057">
        <ele>2155.7</ele>
        <time>2024-04-27T12:52:44Z</time>
      </trkpt>
      <trkpt lat="45.85929" lon="6.45057">
        <ele>2155.7</ele>
        <time>2024-04-27T12:52:45Z</time>
      </trkpt>
      <trkpt lat="45.8593" lon="6.45057">
        <ele>2155.7</ele>
        <time>2024-04-27T12:52:46Z</time>
      </trkpt>
      <trkpt lat="45.85931" lon="6.45057">
        <ele>2155.7</ele>
        <time>2024-04-27T12:52:47Z</time>
      </trkpt>
      <trkpt lat="45.85932" lon="6.45057">
        <ele>2155.7</ele>
        <time>2024-04-27T12:52:48Z</time>
      </trkpt>
      <trkpt lat="45.85933" lon="6.45056">
        <ele>2156.6</ele>
        <time>2024-04-27T12:52:49Z</time>
      </trkpt>
      <trkpt lat="45.85934" lon="6.45056">
        <ele>2156.6</ele>
        <time>2024-04-27T12:52:50Z</time>
      </trkpt>
      <trkpt lat="45.85935" lon="6.45055">
        <ele>2156.6</ele>
        <time>2024-04-27T12:52:51Z</time>
      </trkpt>
      <trkpt lat="45.85936" lon="6.45054">
        <ele>2156.6</ele>
        <time>2024-04-27T12:52:52Z</time>
      </trkpt>
      <trkpt lat="45.85936" lon="6.45054">
        <ele>2157.7</ele>
        <time>2024-04-27T12:52:53Z</time>
      </trkpt>
      <trkpt lat="45.85937" lon="6.45054">
        <ele>2157.7</ele>
        <time>2024-04-27T12:52:54Z</time>
      </trkpt>
      <trkpt lat="45.85937" lon="6.45054">
        <ele>2157.7</ele>
        <time>2024-04-27T12:52:55Z</time>
      </trkpt>
      <trkpt lat="45.85938" lon="6.45055">
        <ele>2157.7</ele>
        <time>2024-04-27T12:52:56Z</time>
      </trkpt>
      <trkpt lat="45.85938" lon="6.45056">
        <ele>2158.6</ele>
        <time>2024-04-27T12:52:57Z</time>
      </trkpt>
      <trkpt lat="45.85937" lon="6.45056">
        <ele>2158.6</ele>
        <time>2024-04-27T12:52:58Z</time>
      </trkpt>
      <trkpt lat="45.85937" lon="6.45056">
        <ele>2158.6</ele>
        <time>2024-04-27T12:52:59Z</time>
      </trkpt>
      <trkpt lat="45.85937" lon="6.45057">
        <ele>2158.6</ele>
        <time>2024-04-27T12:53:00Z</time>
      </trkpt>
      <trkpt lat="45.85937" lon="6.45058">
        <ele>2159.7</ele>
        <time>2024-04-27T12:53:01Z</time>
      </trkpt>
      <trkpt lat="45.85938" lon="6.45058">
        <ele>2159.7</ele>
        <time>2024-04-27T12:53:02Z</time>
      </trkpt>
      <trkpt lat="45.85939" lon="6.4506">
        <ele>2159.7</ele>
        <time>2024-04-27T12:53:03Z</time>
      </trkpt>
      <trkpt lat="45.85939" lon="6.45061">
        <ele>2159.7</ele>
        <time>2024-04-27T12:53:04Z</time>
      </trkpt>
      <trkpt lat="45.85939" lon="6.45062">
        <ele>2160.6</ele>
        <time>2024-04-27T12:53:05Z</time>
      </trkpt>
      <trkpt lat="45.85939" lon="6.45062">
        <ele>2160.6</ele>
        <time>2024-04-27T12:53:06Z</time>
      </trkpt>
      <trkpt lat="45.85939" lon="6.45063">
        <ele>2160.6</ele>
        <time>2024-04-27T12:53:07Z</time>
      </trkpt>
      <trkpt lat="45.8594" lon="6.45064">
        <ele>2160.6</ele>
        <time>2024-04-27T12:53:08Z</time>
      </trkpt>
      <trkpt lat="45.8594" lon="6.45065">
        <ele>2160.6</ele>
        <time>2024-04-27T12:53:09Z</time>
      </trkpt>
      <trkpt lat="45.8594" lon="6.45066">
        <ele>2160.6</ele>
        <time>2024-04-27T12:53:10Z</time>
      </trkpt>
      <trkpt lat="45.8594" lon="6.45067">
        <ele>2160.6</ele>
        <time>2024-04-27T12:53:11Z</time>
      </trkpt>
      <trkpt lat="45.8594" lon="6.45068">
        <ele>2160.6</ele>
        <time>2024-04-27T12:53:12Z</time>
      </trkpt>
      <trkpt lat="45.8594" lon="6.45069">
        <ele>2161.7</ele>
        <time>2024-04-27T12:53:13Z</time>
      </trkpt>
      <trkpt lat="45.8594" lon="6.4507">
        <ele>2161.7</ele>
        <time>2024-04-27T12:53:14Z</time>
      </trkpt>
      <trkpt lat="45.8594" lon="6.4507">
        <ele>2161.7</ele>
        <time>2024-04-27T12:53:15Z</time>
      </trkpt>
      <trkpt lat="45.8594" lon="6.45071">
        <ele>2161.7</ele>
        <time>2024-04-27T12:53:16Z</time>
      </trkpt>
      <trkpt lat="45.85939" lon="6.45072">
        <ele>2161.7</ele>
        <time>2024-04-27T12:53:17Z</time>
      </trkpt>
      <trkpt lat="45.85939" lon="6.45072">
        <ele>2161.7</ele>
        <time>2024-04-27T12:53:18Z</time>
      </trkpt>
      <trkpt lat="45.85938" lon="6.45073">
        <ele>2161.7</ele>
        <time>2024-04-27T12:53:19Z</time>
      </trkpt>
      <trkpt lat="45.85939" lon="6.45074">
        <ele>2161.7</ele>
        <time>2024-04-27T12:53:20Z</time>
      </trkpt>
      <trkpt lat="45.85939" lon="6.45075">
        <ele>2162.6</ele>
        <time>2024-04-27T12:53:21Z</time>
      </trkpt>
      <trkpt lat="45.85939" lon="6.45076">
        <ele>2162.6</ele>
        <time>2024-04-27T12:53:22Z</time>
      </trkpt>
      <trkpt lat="45.85939" lon="6.45077">
        <ele>2162.6</ele>
        <time>2024-04-27T12:53:23Z</time>
      </trkpt>
      <trkpt lat="45.85938" lon="6.45078">
        <ele>2162.6</ele>
        <time>2024-04-27T12:53:24Z</time>
      </trkpt>
      <trkpt lat="45.85938" lon="6.45078">
        <ele>2162.6</ele>
        <time>2024-04-27T12:53:25Z</time>
      </trkpt>
      <trkpt lat="45.85938" lon="6.45079">
        <ele>2162.6</ele>
        <time>2024-04-27T12:53:26Z</time>
      </trkpt>
      <trkpt lat="45.85937" lon="6.45079">
        <ele>2162.6</ele>
        <time>2024-04-27T12:53:27Z</time>
      </trkpt>
      <trkpt lat="45.85937" lon="6.4508">
        <ele>2162.6</ele>
        <time>2024-04-27T12:53:28Z</time>
      </trkpt>
      <trkpt lat="45.85937" lon="6.4508">
        <ele>2162.6</ele>
        <time>2024-04-27T12:53:29Z</time>
      </trkpt>
      <trkpt lat="45.85937" lon="6.45081">
        <ele>2162.6</ele>
        <time>2024-04-27T12:53:30Z</time>
      </trkpt>
      <trkpt lat="45.85937" lon="6.45082">
        <ele>2162.6</ele>
        <time>2024-04-27T12:53:31Z</time>
      </trkpt>
      <trkpt lat="45.85937" lon="6.45083">
        <ele>2162.6</ele>
        <time>2024-04-27T12:53:32Z</time>
      </trkpt>
      <trkpt lat="45.85937" lon="6.45083">
        <ele>2162.6</ele>
        <time>2024-04-27T12:53:33Z</time>
      </trkpt>
      <trkpt lat="45.85936" lon="6.45083">
        <ele>2162.6</ele>
        <time>2024-04-27T12:53:34Z</time>
      </trkpt>
      <trkpt lat="45.85935" lon="6.45084">
        <ele>2162.6</ele>
        <time>2024-04-27T12:53:35Z</time>
      </trkpt>
      <trkpt lat="45.85935" lon="6.45084">
        <ele>2162.6</ele>
        <time>2024-04-27T12:53:36Z</time>
      </trkpt>
      <trkpt lat="45.85934" lon="6.45085">
        <ele>2165.6</ele>
        <time>2024-04-27T12:53:37Z</time>
      </trkpt>
      <trkpt lat="45.85934" lon="6.45086">
        <ele>2165.6</ele>
        <time>2024-04-27T12:53:38Z</time>
      </trkpt>
      <trkpt lat="45.85934" lon="6.45086">
        <ele>2165.6</ele>
        <time>2024-04-27T12:53:39Z</time>
      </trkpt>
      <trkpt lat="45.85934" lon="6.45087">
        <ele>2165.6</ele>
        <time>2024-04-27T12:53:40Z</time>
      </trkpt>
      <trkpt lat="45.85934" lon="6.45088">
        <ele>2166.7</ele>
        <time>2024-04-27T12:53:41Z</time>
      </trkpt>
      <trkpt lat="45.85934" lon="6.45088">
        <ele>2166.7</ele>
        <time>2024-04-27T12:53:42Z</time>
      </trkpt>
      <trkpt lat="45.85933" lon="6.45089">
        <ele>2166.7</ele>
        <time>2024-04-27T12:53:43Z</time>
      </trkpt>
      <trkpt lat="45.85933" lon="6.4509">
        <ele>2166.7</ele>
        <time>2024-04-27T12:53:44Z</time>
      </trkpt>
      <trkpt lat="45.85933" lon="6.4509">
        <ele>2166.7</ele>
        <time>2024-04-27T12:53:45Z</time>
      </trkpt>
      <trkpt lat="45.85932" lon="6.45091">
        <ele>2166.7</ele>
        <time>2024-04-27T12:53:46Z</time>
      </trkpt>
      <trkpt lat="45.85932" lon="6.45091">
        <ele>2166.7</ele>
        <time>2024-04-27T12:53:47Z</time>
      </trkpt>
      <trkpt lat="45.85932" lon="6.45092">
        <ele>2166.7</ele>
        <time>2024-04-27T12:53:48Z</time>
      </trkpt>
      <trkpt lat="45.85931" lon="6.45092">
        <ele>2167.6</ele>
        <time>2024-04-27T12:53:49Z</time>
      </trkpt>
      <trkpt lat="45.85931" lon="6.45092">
        <ele>2167.6</ele>
        <time>2024-04-27T12:53:50Z</time>
      </trkpt>
      <trkpt lat="45.85931" lon="6.45093">
        <ele>2167.6</ele>
        <time>2024-04-27T12:53:51Z</time>
      </trkpt>
      <trkpt lat="45.8593" lon="6.45093">
        <ele>2167.6</ele>
        <time>2024-04-27T12:53:52Z</time>
      </trkpt>
      <trkpt lat="45.8593" lon="6.45094">
        <ele>2167.6</ele>
        <time>2024-04-27T12:53:53Z</time>
      </trkpt>
      <trkpt lat="45.8593" lon="6.45094">
        <ele>2167.6</ele>
        <time>2024-04-27T12:53:54Z</time>
      </trkpt>
      <trkpt lat="45.85929" lon="6.45094">
        <ele>2168.7</ele>
        <time>2024-04-27T12:53:55Z</time>
      </trkpt>
      <trkpt lat="45.85928" lon="6.45094">
        <ele>2168.7</ele>
        <time>2024-04-27T12:53:56Z</time>
      </trkpt>
      <trkpt lat="45.85927" lon="6.45095">
        <ele>2168.7</ele>
        <time>2024-04-27T12:53:57Z</time>
      </trkpt>
      <trkpt lat="45.85927" lon="6.45095">
        <ele>2168.7</ele>
        <time>2024-04-27T12:53:58Z</time>
      </trkpt>
      <trkpt lat="45.85927" lon="6.45095">
        <ele>2168.7</ele>
        <time>2024-04-27T12:53:59Z</time>
      </trkpt>
      <trkpt lat="45.85927" lon="6.45095">
        <ele>2168.7</ele>
        <time>2024-04-27T12:54:00Z</time>
      </trkpt>
      <trkpt lat="45.85927" lon="6.45095">
        <ele>2169.6</ele>
        <time>2024-04-27T12:54:01Z</time>
      </trkpt>
      <trkpt lat="45.85927" lon="6.45095">
        <ele>2169.6</ele>
        <time>2024-04-27T12:54:02Z</time>
      </trkpt>
      <trkpt lat="45.85928" lon="6.45095">
        <ele>2168.7</ele>
        <time>2024-04-27T12:54:03Z</time>
      </trkpt>
      <trkpt lat="45.85928" lon="6.45095">
        <ele>2168.7</ele>
        <time>2024-04-27T12:54:04Z</time>
      </trkpt>
      <trkpt lat="45.85928" lon="6.45095">
        <ele>2168.7</ele>
        <time>2024-04-27T12:54:05Z</time>
      </trkpt>
      <trkpt lat="45.85928" lon="6.45096">
        <ele>2168.7</ele>
        <time>2024-04-27T12:54:06Z</time>
      </trkpt>
      <trkpt lat="45.85928" lon="6.45095">
        <ele>2168.7</ele>
        <time>2024-04-27T12:54:07Z</time>
      </trkpt>
      <trkpt lat="45.85928" lon="6.45094">
        <ele>2168.7</ele>
        <time>2024-04-27T12:54:08Z</time>
      </trkpt>
      <trkpt lat="45.85929" lon="6.45094">
        <ele>2168.7</ele>
        <time>2024-04-27T12:54:09Z</time>
      </trkpt>
      <trkpt lat="45.85929" lon="6.45093">
        <ele>2168.7</ele>
        <time>2024-04-27T12:54:10Z</time>
      </trkpt>
      <trkpt lat="45.8593" lon="6.45093">
        <ele>2168.7</ele>
        <time>2024-04-27T12:54:11Z</time>
      </trkpt>
      <trkpt lat="45.8593" lon="6.45093">
        <ele>2168.7</ele>
        <time>2024-04-27T12:54:12Z</time>
      </trkpt>
      <trkpt lat="45.85931" lon="6.45093">
        <ele>2168.7</ele>
        <time>2024-04-27T12:54:13Z</time>
      </trkpt>
      <trkpt lat="45.85931" lon="6.45093">
        <ele>2168.7</ele>
        <time>2024-04-27T12:54:14Z</time>
      </trkpt>
      <trkpt lat="45.85932" lon="6.45093">
        <ele>2168.7</ele>
        <time>2024-04-27T12:54:15Z</time>
      </trkpt>
      <trkpt lat="45.85932" lon="6.45093">
        <ele>2168.7</ele>
        <time>2024-04-27T12:54:16Z</time>
      </trkpt>
      <trkpt lat="45.85932" lon="6.45093">
        <ele>2168.7</ele>
        <time>2024-04-27T12:54:17Z</time>
      </trkpt>
      <trkpt lat="45.85933" lon="6.45093">
        <ele>2168.7</ele>
        <time>2024-04-27T12:54:18Z</time>
      </trkpt>
      <trkpt lat="45.85933" lon="6.45092">
        <ele>2169.6</ele>
        <time>2024-04-27T12:54:19Z</time>
      </trkpt>
      <trkpt lat="45.85934" lon="6.45092">
        <ele>2169.6</ele>
        <time>2024-04-27T12:54:20Z</time>
      </trkpt>
      <trkpt lat="45.85934" lon="6.45093">
        <ele>2170.7</ele>
        <time>2024-04-27T12:54:21Z</time>
      </trkpt>
      <trkpt lat="45.85935" lon="6.45093">
        <ele>2170.7</ele>
        <time>2024-04-27T12:54:22Z</time>
      </trkpt>
      <trkpt lat="45.85935" lon="6.45093">
        <ele>2170.7</ele>
        <time>2024-04-27T12:54:23Z</time>
      </trkpt>
      <trkpt lat="45.85935" lon="6.45093">
        <ele>2170.7</ele>
        <time>2024-04-27T12:54:24Z</time>
      </trkpt>
      <trkpt lat="45.85936" lon="6.45092">
        <ele>2170.7</ele>
        <time>2024-04-27T12:54:25Z</time>
      </trkpt>
      <trkpt lat="45.85936" lon="6.45092">
        <ele>2170.7</ele>
        <time>2024-04-27T12:54:26Z</time>
      </trkpt>
      <trkpt lat="45.85937" lon="6.45093">
        <ele>2171.6</ele>
        <time>2024-04-27T12:54:27Z</time>
      </trkpt>
      <trkpt lat="45.85938" lon="6.45093">
        <ele>2171.6</ele>
        <time>2024-04-27T12:54:28Z</time>
      </trkpt>
      <trkpt lat="45.85939" lon="6.45093">
        <ele>2172.6</ele>
        <time>2024-04-27T12:54:29Z</time>
      </trkpt>
      <trkpt lat="45.85939" lon="6.45093">
        <ele>2172.6</ele>
        <time>2024-04-27T12:54:30Z</time>
      </trkpt>
      <trkpt lat="45.85939" lon="6.45093">
        <ele>2172.6</ele>
        <time>2024-04-27T12:54:31Z</time>
      </trkpt>
      <trkpt lat="45.8594" lon="6.45093">
        <ele>2172.6</ele>
        <time>2024-04-27T12:54:32Z</time>
      </trkpt>
      <trkpt lat="45.8594" lon="6.45093">
        <ele>2172.6</ele>
        <time>2024-04-27T12:54:33Z</time>
      </trkpt>
      <trkpt lat="45.8594" lon="6.45092">
        <ele>2172.6</ele>
        <time>2024-04-27T12:54:34Z</time>
      </trkpt>
      <trkpt lat="45.85941" lon="6.45092">
        <ele>2172.6</ele>
        <time>2024-04-27T12:54:35Z</time>
      </trkpt>
      <trkpt lat="45.85941" lon="6.45093">
        <ele>2172.6</ele>
        <time>2024-04-27T12:54:36Z</time>
      </trkpt>
      <trkpt lat="45.85942" lon="6.45093">
        <ele>2172.6</ele>
        <time>2024-04-27T12:54:37Z</time>
      </trkpt>
      <trkpt lat="45.85942" lon="6.45093">
        <ele>2172.6</ele>
        <time>2024-04-27T12:54:38Z</time>
      </trkpt>
      <trkpt lat="45.85943" lon="6.45093">
        <ele>2172.6</ele>
        <time>2024-04-27T12:54:39Z</time>
      </trkpt>
      <trkpt lat="45.85943" lon="6.45093">
        <ele>2172.6</ele>
        <time>2024-04-27T12:54:40Z</time>
      </trkpt>
      <trkpt lat="45.85944" lon="6.45093">
        <ele>2172.6</ele>
        <time>2024-04-27T12:54:41Z</time>
      </trkpt>
      <trkpt lat="45.85944" lon="6.45093">
        <ele>2172.6</ele>
        <time>2024-04-27T12:54:42Z</time>
      </trkpt>
      <trkpt lat="45.85944" lon="6.45093">
        <ele>2172.6</ele>
        <time>2024-04-27T12:54:43Z</time>
      </trkpt>
      <trkpt lat="45.85945" lon="6.45093">
        <ele>2172.6</ele>
        <time>2024-04-27T12:54:44Z</time>
      </trkpt>
      <trkpt lat="45.85946" lon="6.45093">
        <ele>2174.6</ele>
        <time>2024-04-27T12:54:45Z</time>
      </trkpt>
      <trkpt lat="45.85946" lon="6.45093">
        <ele>2174.6</ele>
        <time>2024-04-27T12:54:46Z</time>
      </trkpt>
      <trkpt lat="45.85947" lon="6.45093">
        <ele>2174.6</ele>
        <time>2024-04-27T12:54:47Z</time>
      </trkpt>
      <trkpt lat="45.85947" lon="6.45093">
        <ele>2174.6</ele>
        <time>2024-04-27T12:54:48Z</time>
      </trkpt>
      <trkpt lat="45.85947" lon="6.45092">
        <ele>2175.7</ele>
        <time>2024-04-27T12:54:49Z</time>
      </trkpt>
      <trkpt lat="45.85947" lon="6.45092">
        <ele>2175.7</ele>
        <time>2024-04-27T12:54:50Z</time>
      </trkpt>
      <trkpt lat="45.85948" lon="6.45092">
        <ele>2175.7</ele>
        <time>2024-04-27T12:54:51Z</time>
      </trkpt>
      <trkpt lat="45.85948" lon="6.45092">
        <ele>2175.7</ele>
        <time>2024-04-27T12:54:52Z</time>
      </trkpt>
      <trkpt lat="45.85948" lon="6.45092">
        <ele>2175.7</ele>
        <time>2024-04-27T12:54:53Z</time>
      </trkpt>
      <trkpt lat="45.85948" lon="6.45093">
        <ele>2175.7</ele>
        <time>2024-04-27T12:54:54Z</time>
      </trkpt>
      <trkpt lat="45.85947" lon="6.45093">
        <ele>2176.6</ele>
        <time>2024-04-27T12:54:55Z</time>
      </trkpt>
      <trkpt lat="45.85947" lon="6.45094">
        <ele>2176.6</ele>
        <time>2024-04-27T12:54:56Z</time>
      </trkpt>
      <trkpt lat="45.85947" lon="6.45095">
        <ele>2177.7</ele>
        <time>2024-04-27T12:54:57Z</time>
      </trkpt>
      <trkpt lat="45.85948" lon="6.45095">
        <ele>2177.7</ele>
        <time>2024-04-27T12:54:58Z</time>
      </trkpt>
      <trkpt lat="45.85948" lon="6.45096">
        <ele>2177.7</ele>
        <time>2024-04-27T12:54:59Z</time>
      </trkpt>
      <trkpt lat="45.85948" lon="6.45097">
        <ele>2177.7</ele>
        <time>2024-04-27T12:55:00Z</time>
      </trkpt>
      <trkpt lat="45.85948" lon="6.45098">
        <ele>2177.7</ele>
        <time>2024-04-27T12:55:01Z</time>
      </trkpt>
      <trkpt lat="45.85949" lon="6.45099">
        <ele>2177.7</ele>
        <time>2024-04-27T12:55:02Z</time>
      </trkpt>
      <trkpt lat="45.85949" lon="6.45099">
        <ele>2178.6</ele>
        <time>2024-04-27T12:55:03Z</time>
      </trkpt>
      <trkpt lat="45.85949" lon="6.451">
        <ele>2178.6</ele>
        <time>2024-04-27T12:55:04Z</time>
      </trkpt>
      <trkpt lat="45.85949" lon="6.45101">
        <ele>2179.7</ele>
        <time>2024-04-27T12:55:05Z</time>
      </trkpt>
      <trkpt lat="45.85949" lon="6.45102">
        <ele>2179.7</ele>
        <time>2024-04-27T12:55:06Z</time>
      </trkpt>
      <trkpt lat="45.85948" lon="6.45102">
        <ele>2179.7</ele>
        <time>2024-04-27T12:55:07Z</time>
      </trkpt>
      <trkpt lat="45.85948" lon="6.45103">
        <ele>2179.7</ele>
        <time>2024-04-27T12:55:08Z</time>
      </trkpt>
      <trkpt lat="45.85948" lon="6.45103">
        <ele>2179.7</ele>
        <time>2024-04-27T12:55:09Z</time>
      </trkpt>
      <trkpt lat="45.85948" lon="6.45104">
        <ele>2179.7</ele>
        <time>2024-04-27T12:55:10Z</time>
      </trkpt>
      <trkpt lat="45.85948" lon="6.45105">
        <ele>2180.7</ele>
        <time>2024-04-27T12:55:11Z</time>
      </trkpt>
      <trkpt lat="45.85948" lon="6.45106">
        <ele>2180.7</ele>
        <time>2024-04-27T12:55:12Z</time>
      </trkpt>
      <trkpt lat="45.85948" lon="6.45107">
        <ele>2180.7</ele>
        <time>2024-04-27T12:55:13Z</time>
      </trkpt>
      <trkpt lat="45.85948" lon="6.45107">
        <ele>2180.7</ele>
        <time>2024-04-27T12:55:14Z</time>
      </trkpt>
      <trkpt lat="45.85948" lon="6.45108">
        <ele>2181.6</ele>
        <time>2024-04-27T12:55:15Z</time>
      </trkpt>
      <trkpt lat="45.85947" lon="6.45108">
        <ele>2181.6</ele>
        <time>2024-04-27T12:55:16Z</time>
      </trkpt>
      <trkpt lat="45.85947" lon="6.45109">
        <ele>2181.6</ele>
        <time>2024-04-27T12:55:17Z</time>
      </trkpt>
      <trkpt lat="45.85947" lon="6.4511">
        <ele>2181.6</ele>
        <time>2024-04-27T12:55:18Z</time>
      </trkpt>
      <trkpt lat="45.85947" lon="6.4511">
        <ele>2181.6</ele>
        <time>2024-04-27T12:55:19Z</time>
      </trkpt>
      <trkpt lat="45.85946" lon="6.4511">
        <ele>2181.6</ele>
        <time>2024-04-27T12:55:20Z</time>
      </trkpt>
      <trkpt lat="45.85946" lon="6.45111">
        <ele>2181.6</ele>
        <time>2024-04-27T12:55:21Z</time>
      </trkpt>
      <trkpt lat="45.85946" lon="6.45111">
        <ele>2181.6</ele>
        <time>2024-04-27T12:55:22Z</time>
      </trkpt>
      <trkpt lat="45.85946" lon="6.45112">
        <ele>2182.7</ele>
        <time>2024-04-27T12:55:23Z</time>
      </trkpt>
      <trkpt lat="45.85946" lon="6.45113">
        <ele>2182.7</ele>
        <time>2024-04-27T12:55:24Z</time>
      </trkpt>
      <trkpt lat="45.85946" lon="6.45113">
        <ele>2182.7</ele>
        <time>2024-04-27T12:55:25Z</time>
      </trkpt>
      <trkpt lat="45.85945" lon="6.45114">
        <ele>2182.7</ele>
        <time>2024-04-27T12:55:26Z</time>
      </trkpt>
      <trkpt lat="45.85945" lon="6.45115">
        <ele>2182.7</ele>
        <time>2024-04-27T12:55:27Z</time>
      </trkpt>
      <trkpt lat="45.85945" lon="6.45115">
        <ele>2182.7</ele>
        <time>2024-04-27T12:55:28Z</time>
      </trkpt>
      <trkpt lat="45.85944" lon="6.45116">
        <ele>2183.6</ele>
        <time>2024-04-27T12:55:29Z</time>
      </trkpt>
      <trkpt lat="45.85942" lon="6.45117">
        <ele>2183.6</ele>
        <time>2024-04-27T12:55:30Z</time>
      </trkpt>
      <trkpt lat="45.85942" lon="6.45118">
        <ele>2183.6</ele>
        <time>2024-04-27T12:55:31Z</time>
      </trkpt>
      <trkpt lat="45.85941" lon="6.45119">
        <ele>2183.6</ele>
        <time>2024-04-27T12:55:32Z</time>
      </trkpt>
      <trkpt lat="45.85941" lon="6.45119">
        <ele>2184.7</ele>
        <time>2024-04-27T12:55:33Z</time>
      </trkpt>
      <trkpt lat="45.8594" lon="6.45119">
        <ele>2184.7</ele>
        <time>2024-04-27T12:55:34Z</time>
      </trkpt>
      <trkpt lat="45.85939" lon="6.4512">
        <ele>2184.7</ele>
        <time>2024-04-27T12:55:35Z</time>
      </trkpt>
      <trkpt lat="45.85939" lon="6.4512">
        <ele>2184.7</ele>
        <time>2024-04-27T12:55:36Z</time>
      </trkpt>
      <trkpt lat="45.85939" lon="6.45121">
        <ele>2185.6</ele>
        <time>2024-04-27T12:55:37Z</time>
      </trkpt>
      <trkpt lat="45.85939" lon="6.45121">
        <ele>2185.6</ele>
        <time>2024-04-27T12:55:38Z</time>
      </trkpt>
      <trkpt lat="45.85938" lon="6.45121">
        <ele>2185.6</ele>
        <time>2024-04-27T12:55:39Z</time>
      </trkpt>
      <trkpt lat="45.85938" lon="6.45122">
        <ele>2185.6</ele>
        <time>2024-04-27T12:55:40Z</time>
      </trkpt>
      <trkpt lat="45.85938" lon="6.45122">
        <ele>2186.7</ele>
        <time>2024-04-27T12:55:41Z</time>
      </trkpt>
      <trkpt lat="45.85937" lon="6.45123">
        <ele>2186.7</ele>
        <time>2024-04-27T12:55:42Z</time>
      </trkpt>
      <trkpt lat="45.85937" lon="6.45124">
        <ele>2186.7</ele>
        <time>2024-04-27T12:55:43Z</time>
      </trkpt>
      <trkpt lat="45.85937" lon="6.45124">
        <ele>2186.7</ele>
        <time>2024-04-27T12:55:44Z</time>
      </trkpt>
      <trkpt lat="45.85938" lon="6.45125">
        <ele>2186.7</ele>
        <time>2024-04-27T12:55:45Z</time>
      </trkpt>
      <trkpt lat="45.85937" lon="6.45126">
        <ele>2186.7</ele>
        <time>2024-04-27T12:55:46Z</time>
      </trkpt>
      <trkpt lat="45.85937" lon="6.45126">
        <ele>2186.7</ele>
        <time>2024-04-27T12:55:47Z</time>
      </trkpt>
      <trkpt lat="45.85937" lon="6.45127">
        <ele>2186.7</ele>
        <time>2024-04-27T12:55:48Z</time>
      </trkpt>
      <trkpt lat="45.85936" lon="6.45127">
        <ele>2187.6</ele>
        <time>2024-04-27T12:55:49Z</time>
      </trkpt>
      <trkpt lat="45.85935" lon="6.45126">
        <ele>2187.6</ele>
        <time>2024-04-27T12:55:50Z</time>
      </trkpt>
      <trkpt lat="45.85935" lon="6.45127">
        <ele>2187.6</ele>
        <time>2024-04-27T12:55:51Z</time>
      </trkpt>
      <trkpt lat="45.85935" lon="6.45128">
        <ele>2187.6</ele>
        <time>2024-04-27T12:55:52Z</time>
      </trkpt>
      <trkpt lat="45.85935" lon="6.45128">
        <ele>2187.6</ele>
        <time>2024-04-27T12:55:53Z</time>
      </trkpt>
      <trkpt lat="45.85934" lon="6.45129">
        <ele>2187.6</ele>
        <time>2024-04-27T12:55:54Z</time>
      </trkpt>
      <trkpt lat="45.85933" lon="6.45129">
        <ele>2188.6</ele>
        <time>2024-04-27T12:55:55Z</time>
      </trkpt>
      <trkpt lat="45.85933" lon="6.4513">
        <ele>2188.6</ele>
        <time>2024-04-27T12:55:56Z</time>
      </trkpt>
      <trkpt lat="45.85932" lon="6.4513">
        <ele>2188.6</ele>
        <time>2024-04-27T12:55:57Z</time>
      </trkpt>
      <trkpt lat="45.85932" lon="6.45131">
        <ele>2188.6</ele>
        <time>2024-04-27T12:55:58Z</time>
      </trkpt>
      <trkpt lat="45.85932" lon="6.45132">
        <ele>2188.6</ele>
        <time>2024-04-27T12:55:59Z</time>
      </trkpt>
      <trkpt lat="45.85932" lon="6.45132">
        <ele>2188.6</ele>
        <time>2024-04-27T12:56:00Z</time>
      </trkpt>
      <trkpt lat="45.85931" lon="6.45132">
        <ele>2189.7</ele>
        <time>2024-04-27T12:56:01Z</time>
      </trkpt>
      <trkpt lat="45.85931" lon="6.45132">
        <ele>2189.7</ele>
        <time>2024-04-27T12:56:02Z</time>
      </trkpt>
      <trkpt lat="45.85931" lon="6.45133">
        <ele>2189.7</ele>
        <time>2024-04-27T12:56:03Z</time>
      </trkpt>
      <trkpt lat="45.85931" lon="6.45134">
        <ele>2189.7</ele>
        <time>2024-04-27T12:56:04Z</time>
      </trkpt>
      <trkpt lat="45.8593" lon="6.45134">
        <ele>2189.7</ele>
        <time>2024-04-27T12:56:05Z</time>
      </trkpt>
      <trkpt lat="45.8593" lon="6.45134">
        <ele>2189.7</ele>
        <time>2024-04-27T12:56:06Z</time>
      </trkpt>
      <trkpt lat="45.8593" lon="6.45135">
        <ele>2189.7</ele>
        <time>2024-04-27T12:56:07Z</time>
      </trkpt>
      <trkpt lat="45.8593" lon="6.45135">
        <ele>2189.7</ele>
        <time>2024-04-27T12:56:08Z</time>
      </trkpt>
      <trkpt lat="45.8593" lon="6.45136">
        <ele>2190.6</ele>
        <time>2024-04-27T12:56:09Z</time>
      </trkpt>
      <trkpt lat="45.85929" lon="6.45136">
        <ele>2190.6</ele>
        <time>2024-04-27T12:56:10Z</time>
      </trkpt>
      <trkpt lat="45.85929" lon="6.45136">
        <ele>2190.6</ele>
        <time>2024-04-27T12:56:11Z</time>
      </trkpt>
      <trkpt lat="45.85928" lon="6.45137">
        <ele>2190.6</ele>
        <time>2024-04-27T12:56:12Z</time>
      </trkpt>
      <trkpt lat="45.85928" lon="6.45137">
        <ele>2190.6</ele>
        <time>2024-04-27T12:56:13Z</time>
      </trkpt>
      <trkpt lat="45.85927" lon="6.45137">
        <ele>2190.6</ele>
        <time>2024-04-27T12:56:14Z</time>
      </trkpt>
      <trkpt lat="45.85926" lon="6.45138">
        <ele>2191.7</ele>
        <time>2024-04-27T12:56:15Z</time>
      </trkpt>
      <trkpt lat="45.85925" lon="6.45139">
        <ele>2191.7</ele>
        <time>2024-04-27T12:56:16Z</time>
      </trkpt>
      <trkpt lat="45.85924" lon="6.45139">
        <ele>2192.6</ele>
        <time>2024-04-27T12:56:17Z</time>
      </trkpt>
      <trkpt lat="45.85923" lon="6.45139">
        <ele>2192.6</ele>
        <time>2024-04-27T12:56:18Z</time>
      </trkpt>
      <trkpt lat="45.85923" lon="6.4514">
        <ele>2192.6</ele>
        <time>2024-04-27T12:56:19Z</time>
      </trkpt>
      <trkpt lat="45.85922" lon="6.45142">
        <ele>2192.6</ele>
        <time>2024-04-27T12:56:20Z</time>
      </trkpt>
      <trkpt lat="45.85922" lon="6.45141">
        <ele>2193.7</ele>
        <time>2024-04-27T12:56:21Z</time>
      </trkpt>
      <trkpt lat="45.85922" lon="6.45142">
        <ele>2193.7</ele>
        <time>2024-04-27T12:56:22Z</time>
      </trkpt>
      <trkpt lat="45.85921" lon="6.45142">
        <ele>2193.7</ele>
        <time>2024-04-27T12:56:23Z</time>
      </trkpt>
      <trkpt lat="45.85921" lon="6.45142">
        <ele>2193.7</ele>
        <time>2024-04-27T12:56:24Z</time>
      </trkpt>
      <trkpt lat="45.85921" lon="6.45142">
        <ele>2194.6</ele>
        <time>2024-04-27T12:56:25Z</time>
      </trkpt>
      <trkpt lat="45.85921" lon="6.45142">
        <ele>2194.6</ele>
        <time>2024-04-27T12:56:26Z</time>
      </trkpt>
      <trkpt lat="45.85922" lon="6.45142">
        <ele>2194.6</ele>
        <time>2024-04-27T12:56:27Z</time>
      </trkpt>
      <trkpt lat="45.85922" lon="6.45142">
        <ele>2194.6</ele>
        <time>2024-04-27T12:56:28Z</time>
      </trkpt>
      <trkpt lat="45.85923" lon="6.45142">
        <ele>2195.7</ele>
        <time>2024-04-27T12:56:29Z</time>
      </trkpt>
      <trkpt lat="45.85923" lon="6.45142">
        <ele>2195.7</ele>
        <time>2024-04-27T12:56:30Z</time>
      </trkpt>
      <trkpt lat="45.85923" lon="6.45142">
        <ele>2195.7</ele>
        <time>2024-04-27T12:56:31Z</time>
      </trkpt>
      <trkpt lat="45.85922" lon="6.45141">
        <ele>2195.7</ele>
        <time>2024-04-27T12:56:32Z</time>
      </trkpt>
      <trkpt lat="45.85923" lon="6.45141">
        <ele>2195.7</ele>
        <time>2024-04-27T12:56:33Z</time>
      </trkpt>
      <trkpt lat="45.85923" lon="6.45141">
        <ele>2195.7</ele>
        <time>2024-04-27T12:56:34Z</time>
      </trkpt>
      <trkpt lat="45.85924" lon="6.45141">
        <ele>2195.7</ele>
        <time>2024-04-27T12:56:35Z</time>
      </trkpt>
      <trkpt lat="45.85925" lon="6.45141">
        <ele>2195.7</ele>
        <time>2024-04-27T12:56:36Z</time>
      </trkpt>
      <trkpt lat="45.85925" lon="6.45142">
        <ele>2195.7</ele>
        <time>2024-04-27T12:56:37Z</time>
      </trkpt>
      <trkpt lat="45.85925" lon="6.45142">
        <ele>2195.7</ele>
        <time>2024-04-27T12:56:38Z</time>
      </trkpt>
      <trkpt lat="45.85926" lon="6.45142">
        <ele>2195.7</ele>
        <time>2024-04-27T12:56:39Z</time>
      </trkpt>
      <trkpt lat="45.85926" lon="6.45143">
        <ele>2195.7</ele>
        <time>2024-04-27T12:56:40Z</time>
      </trkpt>
      <trkpt lat="45.85926" lon="6.45143">
        <ele>2195.7</ele>
        <time>2024-04-27T12:56:41Z</time>
      </trkpt>
      <trkpt lat="45.85926" lon="6.45142">
        <ele>2195.7</ele>
        <time>2024-04-27T12:56:42Z</time>
      </trkpt>
      <trkpt lat="45.85927" lon="6.45143">
        <ele>2196.7</ele>
        <time>2024-04-27T12:56:43Z</time>
      </trkpt>
      <trkpt lat="45.85927" lon="6.45143">
        <ele>2196.7</ele>
        <time>2024-04-27T12:56:44Z</time>
      </trkpt>
      <trkpt lat="45.85928" lon="6.45143">
        <ele>2196.7</ele>
        <time>2024-04-27T12:56:45Z</time>
      </trkpt>
      <trkpt lat="45.85928" lon="6.45144">
        <ele>2196.7</ele>
        <time>2024-04-27T12:56:46Z</time>
      </trkpt>
      <trkpt lat="45.85929" lon="6.45144">
        <ele>2196.7</ele>
        <time>2024-04-27T12:56:47Z</time>
      </trkpt>
      <trkpt lat="45.85929" lon="6.45144">
        <ele>2196.7</ele>
        <time>2024-04-27T12:56:48Z</time>
      </trkpt>
      <trkpt lat="45.8593" lon="6.45145">
        <ele>2196.7</ele>
        <time>2024-04-27T12:56:49Z</time>
      </trkpt>
      <trkpt lat="45.8593" lon="6.45145">
        <ele>2196.7</ele>
        <time>2024-04-27T12:56:50Z</time>
      </trkpt>
      <trkpt lat="45.8593" lon="6.45145">
        <ele>2197.6</ele>
        <time>2024-04-27T12:56:51Z</time>
      </trkpt>
      <trkpt lat="45.8593" lon="6.45145">
        <ele>2197.6</ele>
        <time>2024-04-27T12:56:52Z</time>
      </trkpt>
      <trkpt lat="45.85931" lon="6.45145">
        <ele>2197.6</ele>
        <time>2024-04-27T12:56:53Z</time>
      </trkpt>
      <trkpt lat="45.85931" lon="6.45145">
        <ele>2197.6</ele>
        <time>2024-04-27T12:56:54Z</time>
      </trkpt>
      <trkpt lat="45.85931" lon="6.45145">
        <ele>2198.7</ele>
        <time>2024-04-27T12:56:55Z</time>
      </trkpt>
      <trkpt lat="45.85932" lon="6.45145">
        <ele>2198.7</ele>
        <time>2024-04-27T12:56:56Z</time>
      </trkpt>
      <trkpt lat="45.85932" lon="6.45146">
        <ele>2198.7</ele>
        <time>2024-04-27T12:56:57Z</time>
      </trkpt>
      <trkpt lat="45.85933" lon="6.45146">
        <ele>2198.7</ele>
        <time>2024-04-27T12:56:58Z</time>
      </trkpt>
      <trkpt lat="45.85933" lon="6.45146">
        <ele>2199.6</ele>
        <time>2024-04-27T12:56:59Z</time>
      </trkpt>
      <trkpt lat="45.85934" lon="6.45146">
        <ele>2199.6</ele>
        <time>2024-04-27T12:57:00Z</time>
      </trkpt>
      <trkpt lat="45.85934" lon="6.45146">
        <ele>2199.6</ele>
        <time>2024-04-27T12:57:01Z</time>
      </trkpt>
      <trkpt lat="45.85935" lon="6.45146">
        <ele>2199.6</ele>
        <time>2024-04-27T12:57:02Z</time>
      </trkpt>
      <trkpt lat="45.85935" lon="6.45146">
        <ele>2199.6</ele>
        <time>2024-04-27T12:57:03Z</time>
      </trkpt>
      <trkpt lat="45.85936" lon="6.45146">
        <ele>2199.6</ele>
        <time>2024-04-27T12:57:04Z</time>
      </trkpt>
      <trkpt lat="45.85936" lon="6.45146">
        <ele>2199.6</ele>
        <time>2024-04-27T12:57:05Z</time>
      </trkpt>
      <trkpt lat="45.85936" lon="6.45146">
        <ele>2199.6</ele>
        <time>2024-04-27T12:57:06Z</time>
      </trkpt>
      <trkpt lat="45.85937" lon="6.45146">
        <ele>2199.6</ele>
        <time>2024-04-27T12:57:07Z</time>
      </trkpt>
      <trkpt lat="45.85937" lon="6.45146">
        <ele>2199.6</ele>
        <time>2024-04-27T12:57:08Z</time>
      </trkpt>
      <trkpt lat="45.85937" lon="6.45146">
        <ele>2199.6</ele>
        <time>2024-04-27T12:57:09Z</time>
      </trkpt>
      <trkpt lat="45.85938" lon="6.45146">
        <ele>2199.6</ele>
        <time>2024-04-27T12:57:10Z</time>
      </trkpt>
      <trkpt lat="45.85938" lon="6.45146">
        <ele>2200.7</ele>
        <time>2024-04-27T12:57:11Z</time>
      </trkpt>
      <trkpt lat="45.85938" lon="6.45146">
        <ele>2200.7</ele>
        <time>2024-04-27T12:57:12Z</time>
      </trkpt>
      <trkpt lat="45.85939" lon="6.45146">
        <ele>2200.7</ele>
        <time>2024-04-27T12:57:13Z</time>
      </trkpt>
      <trkpt lat="45.85939" lon="6.45146">
        <ele>2200.7</ele>
        <time>2024-04-27T12:57:14Z</time>
      </trkpt>
      <trkpt lat="45.8594" lon="6.45146">
        <ele>2201.6</ele>
        <time>2024-04-27T12:57:15Z</time>
      </trkpt>
      <trkpt lat="45.8594" lon="6.45145">
        <ele>2201.6</ele>
        <time>2024-04-27T12:57:16Z</time>
      </trkpt>
      <trkpt lat="45.8594" lon="6.45145">
        <ele>2201.6</ele>
        <time>2024-04-27T12:57:17Z</time>
      </trkpt>
      <trkpt lat="45.85941" lon="6.45145">
        <ele>2201.6</ele>
        <time>2024-04-27T12:57:18Z</time>
      </trkpt>
      <trkpt lat="45.85941" lon="6.45146">
        <ele>2202.7</ele>
        <time>2024-04-27T12:57:19Z</time>
      </trkpt>
      <trkpt lat="45.85942" lon="6.45146">
        <ele>2202.7</ele>
        <time>2024-04-27T12:57:20Z</time>
      </trkpt>
      <trkpt lat="45.85942" lon="6.45147">
        <ele>2202.7</ele>
        <time>2024-04-27T12:57:21Z</time>
      </trkpt>
      <trkpt lat="45.85942" lon="6.45147">
        <ele>2202.7</ele>
        <time>2024-04-27T12:57:22Z</time>
      </trkpt>
      <trkpt lat="45.85943" lon="6.45147">
        <ele>2202.7</ele>
        <time>2024-04-27T12:57:23Z</time>
      </trkpt>
      <trkpt lat="45.85943" lon="6.45147">
        <ele>2202.7</ele>
        <time>2024-04-27T12:57:24Z</time>
      </trkpt>
      <trkpt lat="45.85943" lon="6.45147">
        <ele>2203.6</ele>
        <time>2024-04-27T12:57:25Z</time>
      </trkpt>
      <trkpt lat="45.85944" lon="6.45147">
        <ele>2203.6</ele>
        <time>2024-04-27T12:57:26Z</time>
      </trkpt>
      <trkpt lat="45.85945" lon="6.45147">
        <ele>2203.6</ele>
        <time>2024-04-27T12:57:27Z</time>
      </trkpt>
      <trkpt lat="45.85945" lon="6.45147">
        <ele>2203.6</ele>
        <time>2024-04-27T12:57:28Z</time>
      </trkpt>
      <trkpt lat="45.85946" lon="6.45147">
        <ele>2204.6</ele>
        <time>2024-04-27T12:57:29Z</time>
      </trkpt>
      <trkpt lat="45.85946" lon="6.45147">
        <ele>2204.6</ele>
        <time>2024-04-27T12:57:30Z</time>
      </trkpt>
      <trkpt lat="45.85946" lon="6.45148">
        <ele>2204.6</ele>
        <time>2024-04-27T12:57:31Z</time>
      </trkpt>
      <trkpt lat="45.85946" lon="6.45148">
        <ele>2204.6</ele>
        <time>2024-04-27T12:57:32Z</time>
      </trkpt>
      <trkpt lat="45.85947" lon="6.45148">
        <ele>2204.6</ele>
        <time>2024-04-27T12:57:33Z</time>
      </trkpt>
      <trkpt lat="45.85947" lon="6.45149">
        <ele>2204.6</ele>
        <time>2024-04-27T12:57:34Z</time>
      </trkpt>
      <trkpt lat="45.85947" lon="6.45149">
        <ele>2204.6</ele>
        <time>2024-04-27T12:57:35Z</time>
      </trkpt>
      <trkpt lat="45.85947" lon="6.45149">
        <ele>2204.6</ele>
        <time>2024-04-27T12:57:36Z</time>
      </trkpt>
      <trkpt lat="45.85947" lon="6.45149">
        <ele>2204.6</ele>
        <time>2024-04-27T12:57:37Z</time>
      </trkpt>
      <trkpt lat="45.85946" lon="6.4515">
        <ele>2204.6</ele>
        <time>2024-04-27T12:57:38Z</time>
      </trkpt>
      <trkpt lat="45.85946" lon="6.4515">
        <ele>2204.6</ele>
        <time>2024-04-27T12:57:39Z</time>
      </trkpt>
      <trkpt lat="45.85945" lon="6.45151">
        <ele>2204.6</ele>
        <time>2024-04-27T12:57:40Z</time>
      </trkpt>
      <trkpt lat="45.85945" lon="6.45151">
        <ele>2206.6</ele>
        <time>2024-04-27T12:57:41Z</time>
      </trkpt>
      <trkpt lat="45.85945" lon="6.45152">
        <ele>2206.6</ele>
        <time>2024-04-27T12:57:42Z</time>
      </trkpt>
      <trkpt lat="45.85945" lon="6.45153">
        <ele>2207.7</ele>
        <time>2024-04-27T12:57:43Z</time>
      </trkpt>
      <trkpt lat="45.85944" lon="6.45153">
        <ele>2207.7</ele>
        <time>2024-04-27T12:57:44Z</time>
      </trkpt>
      <trkpt lat="45.85944" lon="6.45154">
        <ele>2207.7</ele>
        <time>2024-04-27T12:57:45Z</time>
      </trkpt>
      <trkpt lat="45.85944" lon="6.45155">
        <ele>2207.7</ele>
        <time>2024-04-27T12:57:46Z</time>
      </trkpt>
      <trkpt lat="45.85944" lon="6.45155">
        <ele>2207.7</ele>
        <time>2024-04-27T12:57:47Z</time>
      </trkpt>
      <trkpt lat="45.85943" lon="6.45156">
        <ele>2207.7</ele>
        <time>2024-04-27T12:57:48Z</time>
      </trkpt>
      <trkpt lat="45.85943" lon="6.45157">
        <ele>2207.7</ele>
        <time>2024-04-27T12:57:49Z</time>
      </trkpt>
      <trkpt lat="45.85943" lon="6.45157">
        <ele>2207.7</ele>
        <time>2024-04-27T12:57:50Z</time>
      </trkpt>
      <trkpt lat="45.85942" lon="6.45158">
        <ele>2208.6</ele>
        <time>2024-04-27T12:57:51Z</time>
      </trkpt>
      <trkpt lat="45.85942" lon="6.45158">
        <ele>2208.6</ele>
        <time>2024-04-27T12:57:52Z</time>
      </trkpt>
      <trkpt lat="45.85941" lon="6.45159">
        <ele>2208.6</ele>
        <time>2024-04-27T12:57:53Z</time>
      </trkpt>
      <trkpt lat="45.85941" lon="6.4516">
        <ele>2208.6</ele>
        <time>2024-04-27T12:57:54Z</time>
      </trkpt>
      <trkpt lat="45.85941" lon="6.45161">
        <ele>2208.6</ele>
        <time>2024-04-27T12:57:55Z</time>
      </trkpt>
      <trkpt lat="45.85941" lon="6.45161">
        <ele>2208.6</ele>
        <time>2024-04-27T12:57:56Z</time>
      </trkpt>
      <trkpt lat="45.85941" lon="6.45162">
        <ele>2209.7</ele>
        <time>2024-04-27T12:57:57Z</time>
      </trkpt>
      <trkpt lat="45.8594" lon="6.45162">
        <ele>2209.7</ele>
        <time>2024-04-27T12:57:58Z</time>
      </trkpt>
      <trkpt lat="45.8594" lon="6.45163">
        <ele>2209.7</ele>
        <time>2024-04-27T12:57:59Z</time>
      </trkpt>
      <trkpt lat="45.85939" lon="6.45163">
        <ele>2209.7</ele>
        <time>2024-04-27T12:58:00Z</time>
      </trkpt>
      <trkpt lat="45.85939" lon="6.45164">
        <ele>2209.7</ele>
        <time>2024-04-27T12:58:01Z</time>
      </trkpt>
      <trkpt lat="45.85938" lon="6.45164">
        <ele>2209.7</ele>
        <time>2024-04-27T12:58:02Z</time>
      </trkpt>
      <trkpt lat="45.85938" lon="6.45165">
        <ele>2209.7</ele>
        <time>2024-04-27T12:58:03Z</time>
      </trkpt>
      <trkpt lat="45.85938" lon="6.45165">
        <ele>2209.7</ele>
        <time>2024-04-27T12:58:04Z</time>
      </trkpt>
      <trkpt lat="45.85938" lon="6.45166">
        <ele>2210.6</ele>
        <time>2024-04-27T12:58:05Z</time>
      </trkpt>
      <trkpt lat="45.85938" lon="6.45166">
        <ele>2210.6</ele>
        <time>2024-04-27T12:58:06Z</time>
      </trkpt>
      <trkpt lat="45.85938" lon="6.45166">
        <ele>2210.6</ele>
        <time>2024-04-27T12:58:07Z</time>
      </trkpt>
      <trkpt lat="45.85938" lon="6.45166">
        <ele>2210.6</ele>
        <time>2024-04-27T12:58:08Z</time>
      </trkpt>
      <trkpt lat="45.85937" lon="6.45167">
        <ele>2211.7</ele>
        <time>2024-04-27T12:58:09Z</time>
      </trkpt>
      <trkpt lat="45.85937" lon="6.45167">
        <ele>2211.7</ele>
        <time>2024-04-27T12:58:10Z</time>
      </trkpt>
      <trkpt lat="45.85937" lon="6.45168">
        <ele>2211.7</ele>
        <time>2024-04-27T12:58:11Z</time>
      </trkpt>
      <trkpt lat="45.85936" lon="6.45169">
        <ele>2211.7</ele>
        <time>2024-04-27T12:58:12Z</time>
      </trkpt>
      <trkpt lat="45.85935" lon="6.45169">
        <ele>2212.7</ele>
        <time>2024-04-27T12:58:13Z</time>
      </trkpt>
      <trkpt lat="45.85935" lon="6.45169">
        <ele>2212.7</ele>
        <time>2024-04-27T12:58:14Z</time>
      </trkpt>
      <trkpt lat="45.85934" lon="6.4517">
        <ele>2212.7</ele>
        <time>2024-04-27T12:58:15Z</time>
      </trkpt>
      <trkpt lat="45.85934" lon="6.4517">
        <ele>2212.7</ele>
        <time>2024-04-27T12:58:16Z</time>
      </trkpt>
      <trkpt lat="45.85934" lon="6.45171">
        <ele>2212.7</ele>
        <time>2024-04-27T12:58:17Z</time>
      </trkpt>
      <trkpt lat="45.85933" lon="6.45171">
        <ele>2212.7</ele>
        <time>2024-04-27T12:58:18Z</time>
      </trkpt>
      <trkpt lat="45.85933" lon="6.45172">
        <ele>2213.6</ele>
        <time>2024-04-27T12:58:19Z</time>
      </trkpt>
      <trkpt lat="45.85932" lon="6.45172">
        <ele>2213.6</ele>
        <time>2024-04-27T12:58:20Z</time>
      </trkpt>
      <trkpt lat="45.85932" lon="6.45173">
        <ele>2213.6</ele>
        <time>2024-04-27T12:58:21Z</time>
      </trkpt>
      <trkpt lat="45.85932" lon="6.45173">
        <ele>2213.6</ele>
        <time>2024-04-27T12:58:22Z</time>
      </trkpt>
      <trkpt lat="45.85931" lon="6.45173">
        <ele>2213.6</ele>
        <time>2024-04-27T12:58:23Z</time>
      </trkpt>
      <trkpt lat="45.85931" lon="6.45174">
        <ele>2213.6</ele>
        <time>2024-04-27T12:58:24Z</time>
      </trkpt>
      <trkpt lat="45.8593" lon="6.45174">
        <ele>2213.6</ele>
        <time>2024-04-27T12:58:25Z</time>
      </trkpt>
      <trkpt lat="45.8593" lon="6.45174">
        <ele>2213.6</ele>
        <time>2024-04-27T12:58:26Z</time>
      </trkpt>
      <trkpt lat="45.85929" lon="6.45175">
        <ele>2213.6</ele>
        <time>2024-04-27T12:58:27Z</time>
      </trkpt>
      <trkpt lat="45.85928" lon="6.45175">
        <ele>2213.6</ele>
        <time>2024-04-27T12:58:28Z</time>
      </trkpt>
      <trkpt lat="45.85928" lon="6.45175">
        <ele>2213.6</ele>
        <time>2024-04-27T12:58:29Z</time>
      </trkpt>
      <trkpt lat="45.85927" lon="6.45176">
        <ele>2213.6</ele>
        <time>2024-04-27T12:58:30Z</time>
      </trkpt>
      <trkpt lat="45.85927" lon="6.45176">
        <ele>2213.6</ele>
        <time>2024-04-27T12:58:31Z</time>
      </trkpt>
      <trkpt lat="45.85927" lon="6.45177">
        <ele>2213.6</ele>
        <time>2024-04-27T12:58:32Z</time>
      </trkpt>
      <trkpt lat="45.85926" lon="6.45177">
        <ele>2215.6</ele>
        <time>2024-04-27T12:58:33Z</time>
      </trkpt>
      <trkpt lat="45.85925" lon="6.45176">
        <ele>2215.6</ele>
        <time>2024-04-27T12:58:34Z</time>
      </trkpt>
      <trkpt lat="45.85924" lon="6.45176">
        <ele>2215.6</ele>
        <time>2024-04-27T12:58:35Z</time>
      </trkpt>
      <trkpt lat="45.85924" lon="6.45177">
        <ele>2215.6</ele>
        <time>2024-04-27T12:58:36Z</time>
      </trkpt>
      <trkpt lat="45.85925" lon="6.45177">
        <ele>2216.7</ele>
        <time>2024-04-27T12:58:37Z</time>
      </trkpt>
      <trkpt lat="45.85924" lon="6.45176">
        <ele>2216.7</ele>
        <time>2024-04-27T12:58:38Z</time>
      </trkpt>
      <trkpt lat="45.85924" lon="6.45176">
        <ele>2216.7</ele>
        <time>2024-04-27T12:58:39Z</time>
      </trkpt>
      <trkpt lat="45.85925" lon="6.45176">
        <ele>2216.7</ele>
        <time>2024-04-27T12:58:40Z</time>
      </trkpt>
      <trkpt lat="45.85925" lon="6.45176">
        <ele>2216.7</ele>
        <time>2024-04-27T12:58:41Z</time>
      </trkpt>
      <trkpt lat="45.85926" lon="6.45176">
        <ele>2216.7</ele>
        <time>2024-04-27T12:58:42Z</time>
      </trkpt>
      <trkpt lat="45.85925" lon="6.45176">
        <ele>2216.7</ele>
        <time>2024-04-27T12:58:43Z</time>
      </trkpt>
      <trkpt lat="45.85924" lon="6.45176">
        <ele>2216.7</ele>
        <time>2024-04-27T12:58:44Z</time>
      </trkpt>
      <trkpt lat="45.85925" lon="6.45176">
        <ele>2216.7</ele>
        <time>2024-04-27T12:58:45Z</time>
      </trkpt>
      <trkpt lat="45.85925" lon="6.45176">
        <ele>2216.7</ele>
        <time>2024-04-27T12:58:46Z</time>
      </trkpt>
      <trkpt lat="45.85926" lon="6.45177">
        <ele>2216.7</ele>
        <time>2024-04-27T12:58:47Z</time>
      </trkpt>
      <trkpt lat="45.85926" lon="6.45177">
        <ele>2216.7</ele>
        <time>2024-04-27T12:58:48Z</time>
      </trkpt>
      <trkpt lat="45.85926" lon="6.45177">
        <ele>2216.7</ele>
        <time>2024-04-27T12:58:49Z</time>
      </trkpt>
      <trkpt lat="45.85927" lon="6.45178">
        <ele>2216.7</ele>
        <time>2024-04-27T12:58:50Z</time>
      </trkpt>
      <trkpt lat="45.85928" lon="6.45179">
        <ele>2216.7</ele>
        <time>2024-04-27T12:58:51Z</time>
      </trkpt>
      <trkpt lat="45.85928" lon="6.45179">
        <ele>2216.7</ele>
        <time>2024-04-27T12:58:52Z</time>
      </trkpt>
      <trkpt lat="45.85929" lon="6.45179">
        <ele>2216.7</ele>
        <time>2024-04-27T12:58:53Z</time>
      </trkpt>
      <trkpt lat="45.85929" lon="6.45179">
        <ele>2216.7</ele>
        <time>2024-04-27T12:58:54Z</time>
      </trkpt>
      <trkpt lat="45.8593" lon="6.4518">
        <ele>2216.7</ele>
        <time>2024-04-27T12:58:55Z</time>
      </trkpt>
      <trkpt lat="45.8593" lon="6.4518">
        <ele>2216.7</ele>
        <time>2024-04-27T12:58:56Z</time>
      </trkpt>
      <trkpt lat="45.85931" lon="6.45181">
        <ele>2216.7</ele>
        <time>2024-04-27T12:58:57Z</time>
      </trkpt>
      <trkpt lat="45.85931" lon="6.45181">
        <ele>2216.7</ele>
        <time>2024-04-27T12:58:58Z</time>
      </trkpt>
      <trkpt lat="45.85932" lon="6.45182">
        <ele>2216.7</ele>
        <time>2024-04-27T12:58:59Z</time>
      </trkpt>
      <trkpt lat="45.85932" lon="6.45182">
        <ele>2216.7</ele>
        <time>2024-04-27T12:59:00Z</time>
      </trkpt>
      <trkpt lat="45.85933" lon="6.45182">
        <ele>2216.7</ele>
        <time>2024-04-27T12:59:01Z</time>
      </trkpt>
      <trkpt lat="45.85933" lon="6.45183">
        <ele>2216.7</ele>
        <time>2024-04-27T12:59:02Z</time>
      </trkpt>
      <trkpt lat="45.85933" lon="6.45183">
        <ele>2218.7</ele>
        <time>2024-04-27T12:59:03Z</time>
      </trkpt>
      <trkpt lat="45.85934" lon="6.45183">
        <ele>2218.7</ele>
        <time>2024-04-27T12:59:04Z</time>
      </trkpt>
      <trkpt lat="45.85934" lon="6.45183">
        <ele>2218.7</ele>
        <time>2024-04-27T12:59:05Z</time>
      </trkpt>
      <trkpt lat="45.85935" lon="6.45183">
        <ele>2218.7</ele>
        <time>2024-04-27T12:59:06Z</time>
      </trkpt>
      <trkpt lat="45.85936" lon="6.45183">
        <ele>2218.7</ele>
        <time>2024-04-27T12:59:07Z</time>
      </trkpt>
      <trkpt lat="45.85937" lon="6.45183">
        <ele>2218.7</ele>
        <time>2024-04-27T12:59:08Z</time>
      </trkpt>
      <trkpt lat="45.85937" lon="6.45183">
        <ele>2220.6</ele>
        <time>2024-04-27T12:59:09Z</time>
      </trkpt>
      <trkpt lat="45.85937" lon="6.45183">
        <ele>2220.6</ele>
        <time>2024-04-27T12:59:10Z</time>
      </trkpt>
      <trkpt lat="45.85936" lon="6.45184">
        <ele>2220.6</ele>
        <time>2024-04-27T12:59:11Z</time>
      </trkpt>
      <trkpt lat="45.85936" lon="6.45185">
        <ele>2220.6</ele>
        <time>2024-04-27T12:59:12Z</time>
      </trkpt>
      <trkpt lat="45.85935" lon="6.45185">
        <ele>2221.7</ele>
        <time>2024-04-27T12:59:13Z</time>
      </trkpt>
      <trkpt lat="45.85935" lon="6.45186">
        <ele>2221.7</ele>
        <time>2024-04-27T12:59:14Z</time>
      </trkpt>
      <trkpt lat="45.85935" lon="6.45186">
        <ele>2221.7</ele>
        <time>2024-04-27T12:59:15Z</time>
      </trkpt>
      <trkpt lat="45.85935" lon="6.45186">
        <ele>2221.7</ele>
        <time>2024-04-27T12:59:16Z</time>
      </trkpt>
      <trkpt lat="45.85935" lon="6.45187">
        <ele>2221.7</ele>
        <time>2024-04-27T12:59:17Z</time>
      </trkpt>
      <trkpt lat="45.85934" lon="6.45187">
        <ele>2221.7</ele>
        <time>2024-04-27T12:59:18Z</time>
      </trkpt>
      <trkpt lat="45.85934" lon="6.45188">
        <ele>2221.7</ele>
        <time>2024-04-27T12:59:19Z</time>
      </trkpt>
      <trkpt lat="45.85933" lon="6.45188">
        <ele>2221.7</ele>
        <time>2024-04-27T12:59:20Z</time>
      </trkpt>
      <trkpt lat="45.85932" lon="6.45189">
        <ele>2222.6</ele>
        <time>2024-04-27T12:59:21Z</time>
      </trkpt>
      <trkpt lat="45.85931" lon="6.45189">
        <ele>2222.6</ele>
        <time>2024-04-27T12:59:22Z</time>
      </trkpt>
      <trkpt lat="45.85931" lon="6.45189">
        <ele>2222.6</ele>
        <time>2024-04-27T12:59:23Z</time>
      </trkpt>
      <trkpt lat="45.85931" lon="6.4519">
        <ele>2222.6</ele>
        <time>2024-04-27T12:59:24Z</time>
      </trkpt>
      <trkpt lat="45.85931" lon="6.4519">
        <ele>2222.6</ele>
        <time>2024-04-27T12:59:25Z</time>
      </trkpt>
      <trkpt lat="45.8593" lon="6.4519">
        <ele>2222.6</ele>
        <time>2024-04-27T12:59:26Z</time>
      </trkpt>
      <trkpt lat="45.85931" lon="6.4519">
        <ele>2222.6</ele>
        <time>2024-04-27T12:59:27Z</time>
      </trkpt>
      <trkpt lat="45.85931" lon="6.4519">
        <ele>2222.6</ele>
        <time>2024-04-27T12:59:28Z</time>
      </trkpt>
      <trkpt lat="45.85932" lon="6.4519">
        <ele>2223.7</ele>
        <time>2024-04-27T12:59:29Z</time>
      </trkpt>
      <trkpt lat="45.85932" lon="6.4519">
        <ele>2223.7</ele>
        <time>2024-04-27T12:59:30Z</time>
      </trkpt>
      <trkpt lat="45.85932" lon="6.4519">
        <ele>2223.7</ele>
        <time>2024-04-27T12:59:31Z</time>
      </trkpt>
      <trkpt lat="45.85933" lon="6.45191">
        <ele>2223.7</ele>
        <time>2024-04-27T12:59:32Z</time>
      </trkpt>
      <trkpt lat="45.85933" lon="6.45191">
        <ele>2223.7</ele>
        <time>2024-04-27T12:59:33Z</time>
      </trkpt>
      <trkpt lat="45.85934" lon="6.45191">
        <ele>2223.7</ele>
        <time>2024-04-27T12:59:34Z</time>
      </trkpt>
      <trkpt lat="45.85935" lon="6.45191">
        <ele>2223.7</ele>
        <time>2024-04-27T12:59:35Z</time>
      </trkpt>
      <trkpt lat="45.85935" lon="6.45191">
        <ele>2223.7</ele>
        <time>2024-04-27T12:59:36Z</time>
      </trkpt>
      <trkpt lat="45.85936" lon="6.4519">
        <ele>2222.6</ele>
        <time>2024-04-27T12:59:37Z</time>
      </trkpt>
      <trkpt lat="45.85936" lon="6.45191">
        <ele>2222.6</ele>
        <time>2024-04-27T12:59:38Z</time>
      </trkpt>
      <trkpt lat="45.85936" lon="6.45191">
        <ele>2222.6</ele>
        <time>2024-04-27T12:59:39Z</time>
      </trkpt>
      <trkpt lat="45.85936" lon="6.45192">
        <ele>2222.6</ele>
        <time>2024-04-27T12:59:40Z</time>
      </trkpt>
      <trkpt lat="45.85936" lon="6.45192">
        <ele>2222.6</ele>
        <time>2024-04-27T12:59:41Z</time>
      </trkpt>
      <trkpt lat="45.85936" lon="6.45192">
        <ele>2222.6</ele>
        <time>2024-04-27T12:59:42Z</time>
      </trkpt>
      <trkpt lat="45.85936" lon="6.45193">
        <ele>2224.6</ele>
        <time>2024-04-27T12:59:43Z</time>
      </trkpt>
      <trkpt lat="45.85936" lon="6.45193">
        <ele>2224.6</ele>
        <time>2024-04-27T12:59:44Z</time>
      </trkpt>
      <trkpt lat="45.85936" lon="6.45193">
        <ele>2224.6</ele>
        <time>2024-04-27T12:59:45Z</time>
      </trkpt>
      <trkpt lat="45.85936" lon="6.45194">
        <ele>2224.6</ele>
        <time>2024-04-27T12:59:46Z</time>
      </trkpt>
      <trkpt lat="45.85935" lon="6.45194">
        <ele>2224.6</ele>
        <time>2024-04-27T12:59:47Z</time>
      </trkpt>
      <trkpt lat="45.85935" lon="6.45194">
        <ele>2224.6</ele>
        <time>2024-04-27T12:59:48Z</time>
      </trkpt>
      <trkpt lat="45.85935" lon="6.45195">
        <ele>2224.6</ele>
        <time>2024-04-27T12:59:49Z</time>
      </trkpt>
      <trkpt lat="45.85935" lon="6.45195">
        <ele>2224.6</ele>
        <time>2024-04-27T12:59:50Z</time>
      </trkpt>
      <trkpt lat="45.85935" lon="6.45195">
        <ele>2224.6</ele>
        <time>2024-04-27T12:59:51Z</time>
      </trkpt>
      <trkpt lat="45.85935" lon="6.45195">
        <ele>2224.6</ele>
        <time>2024-04-27T12:59:52Z</time>
      </trkpt>
      <trkpt lat="45.85934" lon="6.45195">
        <ele>2224.6</ele>
        <time>2024-04-27T12:59:53Z</time>
      </trkpt>
      <trkpt lat="45.85934" lon="6.45196">
        <ele>2224.6</ele>
        <time>2024-04-27T12:59:54Z</time>
      </trkpt>
      <trkpt lat="45.85934" lon="6.45196">
        <ele>2225.7</ele>
        <time>2024-04-27T12:59:55Z</time>
      </trkpt>
      <trkpt lat="45.85934" lon="6.45196">
        <ele>2225.7</ele>
        <time>2024-04-27T12:59:56Z</time>
      </trkpt>
      <trkpt lat="45.85933" lon="6.45196">
        <ele>2225.7</ele>
        <time>2024-04-27T12:59:57Z</time>
      </trkpt>
      <trkpt lat="45.85934" lon="6.45198">
        <ele>2225.7</ele>
        <time>2024-04-27T12:59:58Z</time>
      </trkpt>
      <trkpt lat="45.85933" lon="6.45197">
        <ele>2225.7</ele>
        <time>2024-04-27T12:59:59Z</time>
      </trkpt>
      <trkpt lat="45.85933" lon="6.45196">
        <ele>2225.7</ele>
        <time>2024-04-27T13:00:00Z</time>
      </trkpt>
      <trkpt lat="45.85933" lon="6.45196">
        <ele>2225.7</ele>
        <time>2024-04-27T13:00:01Z</time>
      </trkpt>
      <trkpt lat="45.85934" lon="6.45195">
        <ele>2225.7</ele>
        <time>2024-04-27T13:00:02Z</time>
      </trkpt>
      <trkpt lat="45.85934" lon="6.45196">
        <ele>2225.7</ele>
        <time>2024-04-27T13:00:03Z</time>
      </trkpt>
      <trkpt lat="45.85935" lon="6.45196">
        <ele>2225.7</ele>
        <time>2024-04-27T13:00:04Z</time>
      </trkpt>
      <trkpt lat="45.85935" lon="6.45196">
        <ele>2225.7</ele>
        <time>2024-04-27T13:00:05Z</time>
      </trkpt>
      <trkpt lat="45.85935" lon="6.45196">
        <ele>2225.7</ele>
        <time>2024-04-27T13:00:06Z</time>
      </trkpt>
      <trkpt lat="45.85935" lon="6.45196">
        <ele>2225.7</ele>
        <time>2024-04-27T13:00:07Z</time>
      </trkpt>
      <trkpt lat="45.85936" lon="6.45197">
        <ele>2225.7</ele>
        <time>2024-04-27T13:00:08Z</time>
      </trkpt>
      <trkpt lat="45.85937" lon="6.45197">
        <ele>2225.7</ele>
        <time>2024-04-27T13:00:09Z</time>
      </trkpt>
      <trkpt lat="45.85938" lon="6.45197">
        <ele>2225.7</ele>
        <time>2024-04-27T13:00:10Z</time>
      </trkpt>
      <trkpt lat="45.85938" lon="6.45197">
        <ele>2225.7</ele>
        <time>2024-04-27T13:00:11Z</time>
      </trkpt>
      <trkpt lat="45.85938" lon="6.45197">
        <ele>2225.7</ele>
        <time>2024-04-27T13:00:12Z</time>
      </trkpt>
      <trkpt lat="45.85939" lon="6.45198">
        <ele>2225.7</ele>
        <time>2024-04-27T13:00:13Z</time>
      </trkpt>
      <trkpt lat="45.8594" lon="6.45198">
        <ele>2225.7</ele>
        <time>2024-04-27T13:00:14Z</time>
      </trkpt>
      <trkpt lat="45.8594" lon="6.45198">
        <ele>2228.7</ele>
        <time>2024-04-27T13:00:15Z</time>
      </trkpt>
      <trkpt lat="45.85941" lon="6.45198">
        <ele>2228.7</ele>
        <time>2024-04-27T13:00:16Z</time>
      </trkpt>
      <trkpt lat="45.85941" lon="6.45198">
        <ele>2228.7</ele>
        <time>2024-04-27T13:00:17Z</time>
      </trkpt>
      <trkpt lat="45.85942" lon="6.45198">
        <ele>2228.7</ele>
        <time>2024-04-27T13:00:18Z</time>
      </trkpt>
      <trkpt lat="45.85943" lon="6.45198">
        <ele>2228.7</ele>
        <time>2024-04-27T13:00:19Z</time>
      </trkpt>
      <trkpt lat="45.85943" lon="6.45198">
        <ele>2228.7</ele>
        <time>2024-04-27T13:00:20Z</time>
      </trkpt>
      <trkpt lat="45.85944" lon="6.45199">
        <ele>2228.7</ele>
        <time>2024-04-27T13:00:21Z</time>
      </trkpt>
      <trkpt lat="45.85944" lon="6.45199">
        <ele>2228.7</ele>
        <time>2024-04-27T13:00:22Z</time>
      </trkpt>
      <trkpt lat="45.85945" lon="6.45199">
        <ele>2228.7</ele>
        <time>2024-04-27T13:00:23Z</time>
      </trkpt>
      <trkpt lat="45.85945" lon="6.45199">
        <ele>2228.7</ele>
        <time>2024-04-27T13:00:24Z</time>
      </trkpt>
      <trkpt lat="45.85945" lon="6.45199">
        <ele>2228.7</ele>
        <time>2024-04-27T13:00:25Z</time>
      </trkpt>
      <trkpt lat="45.85946" lon="6.45199">
        <ele>2228.7</ele>
        <time>2024-04-27T13:00:26Z</time>
      </trkpt>
      <trkpt lat="45.85947" lon="6.45199">
        <ele>2229.6</ele>
        <time>2024-04-27T13:00:27Z</time>
      </trkpt>
      <trkpt lat="45.85947" lon="6.45199">
        <ele>2229.6</ele>
        <time>2024-04-27T13:00:28Z</time>
      </trkpt>
      <trkpt lat="45.85948" lon="6.452">
        <ele>2229.6</ele>
        <time>2024-04-27T13:00:29Z</time>
      </trkpt>
      <trkpt lat="45.85949" lon="6.452">
        <ele>2229.6</ele>
        <time>2024-04-27T13:00:30Z</time>
      </trkpt>
      <trkpt lat="45.85949" lon="6.45201">
        <ele>2229.6</ele>
        <time>2024-04-27T13:00:31Z</time>
      </trkpt>
      <trkpt lat="45.8595" lon="6.45201">
        <ele>2229.6</ele>
        <time>2024-04-27T13:00:32Z</time>
      </trkpt>
      <trkpt lat="45.8595" lon="6.45201">
        <ele>2230.7</ele>
        <time>2024-04-27T13:00:33Z</time>
      </trkpt>
      <trkpt lat="45.85951" lon="6.45201">
        <ele>2230.7</ele>
        <time>2024-04-27T13:00:34Z</time>
      </trkpt>
      <trkpt lat="45.85952" lon="6.45201">
        <ele>2230.7</ele>
        <time>2024-04-27T13:00:35Z</time>
      </trkpt>
      <trkpt lat="45.85952" lon="6.45201">
        <ele>2230.7</ele>
        <time>2024-04-27T13:00:36Z</time>
      </trkpt>
      <trkpt lat="45.85953" lon="6.45201">
        <ele>2230.7</ele>
        <time>2024-04-27T13:00:37Z</time>
      </trkpt>
      <trkpt lat="45.85953" lon="6.45201">
        <ele>2230.7</ele>
        <time>2024-04-27T13:00:38Z</time>
      </trkpt>
      <trkpt lat="45.85953" lon="6.45201">
        <ele>2231.6</ele>
        <time>2024-04-27T13:00:39Z</time>
      </trkpt>
      <trkpt lat="45.85954" lon="6.452">
        <ele>2231.6</ele>
        <time>2024-04-27T13:00:40Z</time>
      </trkpt>
      <trkpt lat="45.85954" lon="6.452">
        <ele>2231.6</ele>
        <time>2024-04-27T13:00:41Z</time>
      </trkpt>
      <trkpt lat="45.85954" lon="6.45199">
        <ele>2231.6</ele>
        <time>2024-04-27T13:00:42Z</time>
      </trkpt>
      <trkpt lat="45.85954" lon="6.452">
        <ele>2232.7</ele>
        <time>2024-04-27T13:00:43Z</time>
      </trkpt>
      <trkpt lat="45.85955" lon="6.452">
        <ele>2232.7</ele>
        <time>2024-04-27T13:00:44Z</time>
      </trkpt>
      <trkpt lat="45.85955" lon="6.45201">
        <ele>2232.7</ele>
        <time>2024-04-27T13:00:45Z</time>
      </trkpt>
      <trkpt lat="45.85955" lon="6.45202">
        <ele>2232.7</ele>
        <time>2024-04-27T13:00:46Z</time>
      </trkpt>
      <trkpt lat="45.85955" lon="6.45203">
        <ele>2232.7</ele>
        <time>2024-04-27T13:00:47Z</time>
      </trkpt>
      <trkpt lat="45.85954" lon="6.45204">
        <ele>2232.7</ele>
        <time>2024-04-27T13:00:48Z</time>
      </trkpt>
      <trkpt lat="45.85954" lon="6.45204">
        <ele>2232.7</ele>
        <time>2024-04-27T13:00:49Z</time>
      </trkpt>
      <trkpt lat="45.85954" lon="6.45204">
        <ele>2232.7</ele>
        <time>2024-04-27T13:00:50Z</time>
      </trkpt>
      <trkpt lat="45.85954" lon="6.45205">
        <ele>2232.7</ele>
        <time>2024-04-27T13:00:51Z</time>
      </trkpt>
      <trkpt lat="45.85955" lon="6.45205">
        <ele>2232.7</ele>
        <time>2024-04-27T13:00:52Z</time>
      </trkpt>
      <trkpt lat="45.85955" lon="6.45206">
        <ele>2232.7</ele>
        <time>2024-04-27T13:00:53Z</time>
      </trkpt>
      <trkpt lat="45.85955" lon="6.45207">
        <ele>2232.7</ele>
        <time>2024-04-27T13:00:54Z</time>
      </trkpt>
      <trkpt lat="45.85955" lon="6.45207">
        <ele>2232.7</ele>
        <time>2024-04-27T13:00:55Z</time>
      </trkpt>
      <trkpt lat="45.85955" lon="6.45208">
        <ele>2232.7</ele>
        <time>2024-04-27T13:00:56Z</time>
      </trkpt>
      <trkpt lat="45.85955" lon="6.45208">
        <ele>2232.7</ele>
        <time>2024-04-27T13:00:57Z</time>
      </trkpt>
      <trkpt lat="45.85955" lon="6.45208">
        <ele>2232.7</ele>
        <time>2024-04-27T13:00:58Z</time>
      </trkpt>
      <trkpt lat="45.85955" lon="6.45209">
        <ele>2232.7</ele>
        <time>2024-04-27T13:00:59Z</time>
      </trkpt>
      <trkpt lat="45.85955" lon="6.45209">
        <ele>2232.7</ele>
        <time>2024-04-27T13:01:00Z</time>
      </trkpt>
      <trkpt lat="45.85955" lon="6.45209">
        <ele>2232.7</ele>
        <time>2024-04-27T13:01:01Z</time>
      </trkpt>
      <trkpt lat="45.85955" lon="6.45208">
        <ele>2232.7</ele>
        <time>2024-04-27T13:01:02Z</time>
      </trkpt>
      <trkpt lat="45.85955" lon="6.45208">
        <ele>2232.7</ele>
        <time>2024-04-27T13:01:03Z</time>
      </trkpt>
      <trkpt lat="45.85955" lon="6.45209">
        <ele>2232.7</ele>
        <time>2024-04-27T13:01:04Z</time>
      </trkpt>
      <trkpt lat="45.85956" lon="6.45209">
        <ele>2232.7</ele>
        <time>2024-04-27T13:01:05Z</time>
      </trkpt>
      <trkpt lat="45.85956" lon="6.45209">
        <ele>2232.7</ele>
        <time>2024-04-27T13:01:06Z</time>
      </trkpt>
      <trkpt lat="45.85955" lon="6.45209">
        <ele>2231.6</ele>
        <time>2024-04-27T13:01:07Z</time>
      </trkpt>
      <trkpt lat="45.85955" lon="6.4521">
        <ele>2231.6</ele>
        <time>2024-04-27T13:01:08Z</time>
      </trkpt>
      <trkpt lat="45.85955" lon="6.4521">
        <ele>2231.6</ele>
        <time>2024-04-27T13:01:09Z</time>
      </trkpt>
      <trkpt lat="45.85955" lon="6.4521">
        <ele>2231.6</ele>
        <time>2024-04-27T13:01:10Z</time>
      </trkpt>
      <trkpt lat="45.85955" lon="6.4521">
        <ele>2231.6</ele>
        <time>2024-04-27T13:01:11Z</time>
      </trkpt>
      <trkpt lat="45.85955" lon="6.4521">
        <ele>2231.6</ele>
        <time>2024-04-27T13:01:12Z</time>
      </trkpt>
      <trkpt lat="45.85955" lon="6.4521">
        <ele>2231.6</ele>
        <time>2024-04-27T13:01:13Z</time>
      </trkpt>
      <trkpt lat="45.85955" lon="6.4521">
        <ele>2231.6</ele>
        <time>2024-04-27T13:01:14Z</time>
      </trkpt>
      <trkpt lat="45.85955" lon="6.4521">
        <ele>2231.6</ele>
        <time>2024-04-27T13:01:15Z</time>
      </trkpt>
      <trkpt lat="45.85955" lon="6.4521">
        <ele>2231.6</ele>
        <time>2024-04-27T13:01:16Z</time>
      </trkpt>
      <trkpt lat="45.85955" lon="6.4521">
        <ele>2231.6</ele>
        <time>2024-04-27T13:01:17Z</time>
      </trkpt>
      <trkpt lat="45.85955" lon="6.4521">
        <ele>2231.6</ele>
        <time>2024-04-27T13:01:18Z</time>
      </trkpt>
      <trkpt lat="45.85955" lon="6.4521">
        <ele>2231.6</ele>
        <time>2024-04-27T13:01:19Z</time>
      </trkpt>
      <trkpt lat="45.85955" lon="6.4521">
        <ele>2231.6</ele>
        <time>2024-04-27T13:01:20Z</time>
      </trkpt>
      <trkpt lat="45.85955" lon="6.4521">
        <ele>2231.6</ele>
        <time>2024-04-27T13:01:21Z</time>
      </trkpt>
      <trkpt lat="45.85955" lon="6.4521">
        <ele>2231.6</ele>
        <time>2024-04-27T13:01:22Z</time>
      </trkpt>
      <trkpt lat="45.85955" lon="6.4521">
        <ele>2231.6</ele>
        <time>2024-04-27T13:01:23Z</time>
      </trkpt>
      <trkpt lat="45.85955" lon="6.4521">
        <ele>2231.6</ele>
        <time>2024-04-27T13:01:24Z</time>
      </trkpt>
      <trkpt lat="45.85955" lon="6.4521">
        <ele>2231.6</ele>
        <time>2024-04-27T13:01:25Z</time>
      </trkpt>
      <trkpt lat="45.85955" lon="6.45209">
        <ele>2231.6</ele>
        <time>2024-04-27T13:01:26Z</time>
      </trkpt>
      <trkpt lat="45.85955" lon="6.45209">
        <ele>2231.6</ele>
        <time>2024-04-27T13:01:27Z</time>
      </trkpt>
      <trkpt lat="45.85955" lon="6.45209">
        <ele>2231.6</ele>
        <time>2024-04-27T13:01:28Z</time>
      </trkpt>
      <trkpt lat="45.85955" lon="6.45209">
        <ele>2231.6</ele>
        <time>2024-04-27T13:01:29Z</time>
      </trkpt>
      <trkpt lat="45.85956" lon="6.45209">
        <ele>2231.6</ele>
        <time>2024-04-27T13:01:30Z</time>
      </trkpt>
      <trkpt lat="45.85956" lon="6.45209">
        <ele>2231.6</ele>
        <time>2024-04-27T13:01:31Z</time>
      </trkpt>
      <trkpt lat="45.85956" lon="6.45209">
        <ele>2231.6</ele>
        <time>2024-04-27T13:01:32Z</time>
      </trkpt>
      <trkpt lat="45.85956" lon="6.45209">
        <ele>2231.6</ele>
        <time>2024-04-27T13:01:33Z</time>
      </trkpt>
      <trkpt lat="45.85956" lon="6.45209">
        <ele>2231.6</ele>
        <time>2024-04-27T13:01:34Z</time>
      </trkpt>
      <trkpt lat="45.85956" lon="6.45209">
        <ele>2231.6</ele>
        <time>2024-04-27T13:01:35Z</time>
      </trkpt>
      <trkpt lat="45.85956" lon="6.45209">
        <ele>2231.6</ele>
        <time>2024-04-27T13:01:36Z</time>
      </trkpt>
      <trkpt lat="45.85956" lon="6.45209">
        <ele>2231.6</ele>
        <time>2024-04-27T13:01:37Z</time>
      </trkpt>
      <trkpt lat="45.85956" lon="6.45209">
        <ele>2231.6</ele>
        <time>2024-04-27T13:01:38Z</time>
      </trkpt>
      <trkpt lat="45.85956" lon="6.45209">
        <ele>2231.6</ele>
        <time>2024-04-27T13:01:39Z</time>
      </trkpt>
      <trkpt lat="45.85956" lon="6.45209">
        <ele>2231.6</ele>
        <time>2024-04-27T13:01:40Z</time>
      </trkpt>
      <trkpt lat="45.85956" lon="6.45209">
        <ele>2231.6</ele>
        <time>2024-04-27T13:01:41Z</time>
      </trkpt>
      <trkpt lat="45.85956" lon="6.45209">
        <ele>2231.6</ele>
        <time>2024-04-27T13:01:42Z</time>
      </trkpt>
      <trkpt lat="45.85956" lon="6.45209">
        <ele>2232.7</ele>
        <time>2024-04-27T13:01:43Z</time>
      </trkpt>
      <trkpt lat="45.85956" lon="6.45209">
        <ele>2232.7</ele>
        <time>2024-04-27T13:01:44Z</time>
      </trkpt>
      <trkpt lat="45.85956" lon="6.45209">
        <ele>2232.7</ele>
        <time>2024-04-27T13:01:45Z</time>
      </trkpt>
      <trkpt lat="45.85956" lon="6.45208">
        <ele>2232.7</ele>
        <time>2024-04-27T13:01:46Z</time>
      </trkpt>
      <trkpt lat="45.85956" lon="6.45208">
        <ele>2232.7</ele>
        <time>2024-04-27T13:01:47Z</time>
      </trkpt>
      <trkpt lat="45.85956" lon="6.45208">
        <ele>2232.7</ele>
        <time>2024-04-27T13:01:48Z</time>
      </trkpt>
      <trkpt lat="45.85956" lon="6.45208">
        <ele>2232.7</ele>
        <time>2024-04-27T13:01:49Z</time>
      </trkpt>
      <trkpt lat="45.85956" lon="6.45208">
        <ele>2232.7</ele>
        <time>2024-04-27T13:01:50Z</time>
      </trkpt>
      <trkpt lat="45.85956" lon="6.45208">
        <ele>2232.7</ele>
        <time>2024-04-27T13:01:51Z</time>
      </trkpt>
      <trkpt lat="45.85956" lon="6.45208">
        <ele>2232.7</ele>
        <time>2024-04-27T13:01:52Z</time>
      </trkpt>
      <trkpt lat="45.85955" lon="6.45207">
        <ele>2232.7</ele>
        <time>2024-04-27T13:01:53Z</time>
      </trkpt>
      <trkpt lat="45.85955" lon="6.45207">
        <ele>2232.7</ele>
        <time>2024-04-27T13:01:54Z</time>
      </trkpt>
      <trkpt lat="45.85955" lon="6.45207">
        <ele>2232.7</ele>
        <time>2024-04-27T13:01:55Z</time>
      </trkpt>
      <trkpt lat="45.85955" lon="6.45207">
        <ele>2232.7</ele>
        <time>2024-04-27T13:01:56Z</time>
      </trkpt>
      <trkpt lat="45.85955" lon="6.45207">
        <ele>2232.7</ele>
        <time>2024-04-27T13:01:57Z</time>
      </trkpt>
      <trkpt lat="45.85955" lon="6.45207">
        <ele>2232.7</ele>
        <time>2024-04-27T13:01:58Z</time>
      </trkpt>
      <trkpt lat="45.85955" lon="6.45207">
        <ele>2232.7</ele>
        <time>2024-04-27T13:01:59Z</time>
      </trkpt>
      <trkpt lat="45.85955" lon="6.45207">
        <ele>2232.7</ele>
        <time>2024-04-27T13:02:00Z</time>
      </trkpt>
      <trkpt lat="45.85955" lon="6.45207">
        <ele>2232.7</ele>
        <time>2024-04-27T13:02:01Z</time>
      </trkpt>
      <trkpt lat="45.85955" lon="6.45207">
        <ele>2232.7</ele>
        <time>2024-04-27T13:02:02Z</time>
      </trkpt>
      <trkpt lat="45.85954" lon="6.45207">
        <ele>2232.7</ele>
        <time>2024-04-27T13:02:03Z</time>
      </trkpt>
      <trkpt lat="45.85954" lon="6.45207">
        <ele>2232.7</ele>
        <time>2024-04-27T13:02:04Z</time>
      </trkpt>
      <trkpt lat="45.85954" lon="6.45207">
        <ele>2232.7</ele>
        <time>2024-04-27T13:02:05Z</time>
      </trkpt>
      <trkpt lat="45.85954" lon="6.45207">
        <ele>2232.7</ele>
        <time>2024-04-27T13:02:06Z</time>
      </trkpt>
      <trkpt lat="45.85954" lon="6.45207">
        <ele>2232.7</ele>
        <time>2024-04-27T13:02:07Z</time>
      </trkpt>
      <trkpt lat="45.85954" lon="6.45207">
        <ele>2232.7</ele>
        <time>2024-04-27T13:02:08Z</time>
      </trkpt>
      <trkpt lat="45.85954" lon="6.45207">
        <ele>2231.6</ele>
        <time>2024-04-27T13:02:09Z</time>
      </trkpt>
      <trkpt lat="45.85954" lon="6.45207">
        <ele>2231.6</ele>
        <time>2024-04-27T13:02:10Z</time>
      </trkpt>
      <trkpt lat="45.85954" lon="6.45207">
        <ele>2231.6</ele>
        <time>2024-04-27T13:02:11Z</time>
      </trkpt>
      <trkpt lat="45.85954" lon="6.45207">
        <ele>2231.6</ele>
        <time>2024-04-27T13:02:12Z</time>
      </trkpt>
      <trkpt lat="45.85953" lon="6.45207">
        <ele>2231.6</ele>
        <time>2024-04-27T13:02:13Z</time>
      </trkpt>
      <trkpt lat="45.85953" lon="6.45207">
        <ele>2231.6</ele>
        <time>2024-04-27T13:02:14Z</time>
      </trkpt>
      <trkpt lat="45.85953" lon="6.45207">
        <ele>2232.7</ele>
        <time>2024-04-27T13:02:15Z</time>
      </trkpt>
      <trkpt lat="45.85953" lon="6.45207">
        <ele>2232.7</ele>
        <time>2024-04-27T13:02:16Z</time>
      </trkpt>
      <trkpt lat="45.85953" lon="6.45207">
        <ele>2232.7</ele>
        <time>2024-04-27T13:02:17Z</time>
      </trkpt>
      <trkpt lat="45.85953" lon="6.45207">
        <ele>2232.7</ele>
        <time>2024-04-27T13:02:18Z</time>
      </trkpt>
      <trkpt lat="45.85953" lon="6.45207">
        <ele>2232.7</ele>
        <time>2024-04-27T13:02:19Z</time>
      </trkpt>
      <trkpt lat="45.85953" lon="6.45207">
        <ele>2232.7</ele>
        <time>2024-04-27T13:02:20Z</time>
      </trkpt>
      <trkpt lat="45.85953" lon="6.45208">
        <ele>2232.7</ele>
        <time>2024-04-27T13:02:21Z</time>
      </trkpt>
      <trkpt lat="45.85953" lon="6.45208">
        <ele>2232.7</ele>
        <time>2024-04-27T13:02:22Z</time>
      </trkpt>
      <trkpt lat="45.85952" lon="6.45208">
        <ele>2231.6</ele>
        <time>2024-04-27T13:02:23Z</time>
      </trkpt>
      <trkpt lat="45.85952" lon="6.45208">
        <ele>2231.6</ele>
        <time>2024-04-27T13:02:24Z</time>
      </trkpt>
      <trkpt lat="45.85952" lon="6.45208">
        <ele>2231.6</ele>
        <time>2024-04-27T13:02:25Z</time>
      </trkpt>
      <trkpt lat="45.85952" lon="6.45208">
        <ele>2231.6</ele>
        <time>2024-04-27T13:02:26Z</time>
      </trkpt>
      <trkpt lat="45.85952" lon="6.45208">
        <ele>2231.6</ele>
        <time>2024-04-27T13:02:27Z</time>
      </trkpt>
      <trkpt lat="45.85952" lon="6.45208">
        <ele>2231.6</ele>
        <time>2024-04-27T13:02:28Z</time>
      </trkpt>
      <trkpt lat="45.85952" lon="6.45208">
        <ele>2231.6</ele>
        <time>2024-04-27T13:02:29Z</time>
      </trkpt>
      <trkpt lat="45.85952" lon="6.45208">
        <ele>2231.6</ele>
        <time>2024-04-27T13:02:30Z</time>
      </trkpt>
      <trkpt lat="45.85952" lon="6.45208">
        <ele>2231.6</ele>
        <time>2024-04-27T13:02:31Z</time>
      </trkpt>
      <trkpt lat="45.85952" lon="6.45208">
        <ele>2231.6</ele>
        <time>2024-04-27T13:02:32Z</time>
      </trkpt>
      <trkpt lat="45.85952" lon="6.45208">
        <ele>2231.6</ele>
        <time>2024-04-27T13:02:33Z</time>
      </trkpt>
      <trkpt lat="45.85952" lon="6.45208">
        <ele>2231.6</ele>
        <time>2024-04-27T13:02:34Z</time>
      </trkpt>
      <trkpt lat="45.85952" lon="6.45208">
        <ele>2231.6</ele>
        <time>2024-04-27T13:02:35Z</time>
      </trkpt>
      <trkpt lat="45.85952" lon="6.45208">
        <ele>2231.6</ele>
        <time>2024-04-27T13:02:36Z</time>
      </trkpt>
      <trkpt lat="45.85952" lon="6.45209">
        <ele>2231.6</ele>
        <time>2024-04-27T13:02:37Z</time>
      </trkpt>
      <trkpt lat="45.85952" lon="6.45209">
        <ele>2231.6</ele>
        <time>2024-04-27T13:02:38Z</time>
      </trkpt>
      <trkpt lat="45.85952" lon="6.45209">
        <ele>2231.6</ele>
        <time>2024-04-27T13:02:39Z</time>
      </trkpt>
      <trkpt lat="45.85952" lon="6.45209">
        <ele>2231.6</ele>
        <time>2024-04-27T13:02:40Z</time>
      </trkpt>
      <trkpt lat="45.85952" lon="6.45209">
        <ele>2231.6</ele>
        <time>2024-04-27T13:02:41Z</time>
      </trkpt>
      <trkpt lat="45.85952" lon="6.45209">
        <ele>2231.6</ele>
        <time>2024-04-27T13:02:42Z</time>
      </trkpt>
      <trkpt lat="45.85951" lon="6.45209">
        <ele>2231.6</ele>
        <time>2024-04-27T13:02:43Z</time>
      </trkpt>
      <trkpt lat="45.85951" lon="6.45209">
        <ele>2231.6</ele>
        <time>2024-04-27T13:02:44Z</time>
      </trkpt>
      <trkpt lat="45.85951" lon="6.45209">
        <ele>2231.6</ele>
        <time>2024-04-27T13:02:45Z</time>
      </trkpt>
      <trkpt lat="45.85951" lon="6.45209">
        <ele>2231.6</ele>
        <time>2024-04-27T13:02:46Z</time>
      </trkpt>
      <trkpt lat="45.85951" lon="6.4521">
        <ele>2231.6</ele>
        <time>2024-04-27T13:02:47Z</time>
      </trkpt>
      <trkpt lat="45.85951" lon="6.4521">
        <ele>2231.6</ele>
        <time>2024-04-27T13:02:48Z</time>
      </trkpt>
      <trkpt lat="45.85951" lon="6.4521">
        <ele>2232.7</ele>
        <time>2024-04-27T13:02:49Z</time>
      </trkpt>
      <trkpt lat="45.85951" lon="6.4521">
        <ele>2232.7</ele>
        <time>2024-04-27T13:02:50Z</time>
      </trkpt>
      <trkpt lat="45.85951" lon="6.45211">
        <ele>2232.7</ele>
        <time>2024-04-27T13:02:51Z</time>
      </trkpt>
      <trkpt lat="45.85951" lon="6.45211">
        <ele>2232.7</ele>
        <time>2024-04-27T13:02:52Z</time>
      </trkpt>
      <trkpt lat="45.85951" lon="6.45211">
        <ele>2232.7</ele>
        <time>2024-04-27T13:02:53Z</time>
      </trkpt>
      <trkpt lat="45.85951" lon="6.45211">
        <ele>2232.7</ele>
        <time>2024-04-27T13:02:54Z</time>
      </trkpt>
      <trkpt lat="45.85951" lon="6.45211">
        <ele>2232.7</ele>
        <time>2024-04-27T13:02:55Z</time>
      </trkpt>
      <trkpt lat="45.85951" lon="6.45211">
        <ele>2232.7</ele>
        <time>2024-04-27T13:02:56Z</time>
      </trkpt>
      <trkpt lat="45.85951" lon="6.45211">
        <ele>2232.7</ele>
        <time>2024-04-27T13:02:57Z</time>
      </trkpt>
      <trkpt lat="45.85951" lon="6.45211">
        <ele>2232.7</ele>
        <time>2024-04-27T13:02:58Z</time>
      </trkpt>
      <trkpt lat="45.85951" lon="6.45211">
        <ele>2232.7</ele>
        <time>2024-04-27T13:02:59Z</time>
      </trkpt>
      <trkpt lat="45.85951" lon="6.45211">
        <ele>2232.7</ele>
        <time>2024-04-27T13:03:00Z</time>
      </trkpt>
      <trkpt lat="45.85952" lon="6.45211">
        <ele>2232.7</ele>
        <time>2024-04-27T13:03:01Z</time>
      </trkpt>
      <trkpt lat="45.85952" lon="6.45211">
        <ele>2232.7</ele>
        <time>2024-04-27T13:03:02Z</time>
      </trkpt>
      <trkpt lat="45.85952" lon="6.45211">
        <ele>2232.7</ele>
        <time>2024-04-27T13:03:03Z</time>
      </trkpt>
      <trkpt lat="45.85952" lon="6.45211">
        <ele>2232.7</ele>
        <time>2024-04-27T13:03:04Z</time>
      </trkpt>
      <trkpt lat="45.85952" lon="6.45211">
        <ele>2232.7</ele>
        <time>2024-04-27T13:03:05Z</time>
      </trkpt>
      <trkpt lat="45.85952" lon="6.45211">
        <ele>2232.7</ele>
        <time>2024-04-27T13:03:06Z</time>
      </trkpt>
      <trkpt lat="45.85952" lon="6.45211">
        <ele>2232.7</ele>
        <time>2024-04-27T13:03:07Z</time>
      </trkpt>
      <trkpt lat="45.85952" lon="6.45211">
        <ele>2232.7</ele>
        <time>2024-04-27T13:03:08Z</time>
      </trkpt>
      <trkpt lat="45.85952" lon="6.45211">
        <ele>2232.7</ele>
        <time>2024-04-27T13:03:09Z</time>
      </trkpt>
      <trkpt lat="45.85952" lon="6.45211">
        <ele>2232.7</ele>
        <time>2024-04-27T13:03:10Z</time>
      </trkpt>
      <trkpt lat="45.85952" lon="6.45211">
        <ele>2232.7</ele>
        <time>2024-04-27T13:03:11Z</time>
      </trkpt>
      <trkpt lat="45.85952" lon="6.4521">
        <ele>2232.7</ele>
        <time>2024-04-27T13:03:12Z</time>
      </trkpt>
      <trkpt lat="45.85952" lon="6.4521">
        <ele>2232.7</ele>
        <time>2024-04-27T13:03:13Z</time>
      </trkpt>
      <trkpt lat="45.85952" lon="6.4521">
        <ele>2232.7</ele>
        <time>2024-04-27T13:03:14Z</time>
      </trkpt>
      <trkpt lat="45.85952" lon="6.4521">
        <ele>2232.7</ele>
        <time>2024-04-27T13:03:15Z</time>
      </trkpt>
      <trkpt lat="45.85952" lon="6.4521">
        <ele>2232.7</ele>
        <time>2024-04-27T13:03:16Z</time>
      </trkpt>
      <trkpt lat="45.85952" lon="6.4521">
        <ele>2232.7</ele>
        <time>2024-04-27T13:03:17Z</time>
      </trkpt>
      <trkpt lat="45.85952" lon="6.4521">
        <ele>2232.7</ele>
        <time>2024-04-27T13:03:18Z</time>
      </trkpt>
      <trkpt lat="45.85952" lon="6.4521">
        <ele>2232.7</ele>
        <time>2024-04-27T13:03:19Z</time>
      </trkpt>
      <trkpt lat="45.85952" lon="6.4521">
        <ele>2232.7</ele>
        <time>2024-04-27T13:03:20Z</time>
      </trkpt>
      <trkpt lat="45.85952" lon="6.4521">
        <ele>2232.7</ele>
        <time>2024-04-27T13:03:21Z</time>
      </trkpt>
      <trkpt lat="45.85951" lon="6.4521">
        <ele>2232.7</ele>
        <time>2024-04-27T13:03:22Z</time>
      </trkpt>
      <trkpt lat="45.85951" lon="6.4521">
        <ele>2232.7</ele>
        <time>2024-04-27T13:03:23Z</time>
      </trkpt>
      <trkpt lat="45.85951" lon="6.4521">
        <ele>2232.7</ele>
        <time>2024-04-27T13:03:24Z</time>
      </trkpt>
      <trkpt lat="45.85951" lon="6.4521">
        <ele>2232.7</ele>
        <time>2024-04-27T13:03:25Z</time>
      </trkpt>
      <trkpt lat="45.85951" lon="6.4521">
        <ele>2232.7</ele>
        <time>2024-04-27T13:03:26Z</time>
      </trkpt>
      <trkpt lat="45.85951" lon="6.4521">
        <ele>2232.7</ele>
        <time>2024-04-27T13:03:27Z</time>
      </trkpt>
      <trkpt lat="45.85951" lon="6.4521">
        <ele>2232.7</ele>
        <time>2024-04-27T13:03:28Z</time>
      </trkpt>
      <trkpt lat="45.85951" lon="6.4521">
        <ele>2232.7</ele>
        <time>2024-04-27T13:03:29Z</time>
      </trkpt>
      <trkpt lat="45.85951" lon="6.4521">
        <ele>2232.7</ele>
        <time>2024-04-27T13:03:30Z</time>
      </trkpt>
      <trkpt lat="45.85951" lon="6.4521">
        <ele>2232.7</ele>
        <time>2024-04-27T13:03:31Z</time>
      </trkpt>
      <trkpt lat="45.85951" lon="6.4521">
        <ele>2232.7</ele>
        <time>2024-04-27T13:03:32Z</time>
      </trkpt>
      <trkpt lat="45.85951" lon="6.4521">
        <ele>2232.7</ele>
        <time>2024-04-27T13:03:33Z</time>
      </trkpt>
      <trkpt lat="45.85951" lon="6.4521">
        <ele>2232.7</ele>
        <time>2024-04-27T13:03:34Z</time>
      </trkpt>
      <trkpt lat="45.85951" lon="6.4521">
        <ele>2232.7</ele>
        <time>2024-04-27T13:03:35Z</time>
      </trkpt>
      <trkpt lat="45.85951" lon="6.4521">
        <ele>2232.7</ele>
        <time>2024-04-27T13:03:36Z</time>
      </trkpt>
      <trkpt lat="45.85951" lon="6.4521">
        <ele>2232.7</ele>
        <time>2024-04-27T13:03:37Z</time>
      </trkpt>
      <trkpt lat="45.85951" lon="6.4521">
        <ele>2232.7</ele>
        <time>2024-04-27T13:03:38Z</time>
      </trkpt>
      <trkpt lat="45.85951" lon="6.4521">
        <ele>2232.7</ele>
        <time>2024-04-27T13:03:39Z</time>
      </trkpt>
      <trkpt lat="45.85951" lon="6.4521">
        <ele>2232.7</ele>
        <time>2024-04-27T13:03:40Z</time>
      </trkpt>
      <trkpt lat="45.85951" lon="6.4521">
        <ele>2232.7</ele>
        <time>2024-04-27T13:03:41Z</time>
      </trkpt>
      <trkpt lat="45.85951" lon="6.4521">
        <ele>2232.7</ele>
        <time>2024-04-27T13:03:42Z</time>
      </trkpt>
      <trkpt lat="45.85951" lon="6.4521">
        <ele>2232.7</ele>
        <time>2024-04-27T13:03:43Z</time>
      </trkpt>
      <trkpt lat="45.85951" lon="6.4521">
        <ele>2232.7</ele>
        <time>2024-04-27T13:03:44Z</time>
      </trkpt>
      <trkpt lat="45.85951" lon="6.4521">
        <ele>2232.7</ele>
        <time>2024-04-27T13:03:45Z</time>
      </trkpt>
      <trkpt lat="45.85951" lon="6.4521">
        <ele>2232.7</ele>
        <time>2024-04-27T13:03:46Z</time>
      </trkpt>
      <trkpt lat="45.85951" lon="6.4521">
        <ele>2232.7</ele>
        <time>2024-04-27T13:03:47Z</time>
      </trkpt>
      <trkpt lat="45.85951" lon="6.4521">
        <ele>2232.7</ele>
        <time>2024-04-27T13:03:48Z</time>
      </trkpt>
      <trkpt lat="45.85951" lon="6.4521">
        <ele>2232.7</ele>
        <time>2024-04-27T13:03:49Z</time>
      </trkpt>
      <trkpt lat="45.85951" lon="6.4521">
        <ele>2232.7</ele>
        <time>2024-04-27T13:03:50Z</time>
      </trkpt>
      <trkpt lat="45.85951" lon="6.4521">
        <ele>2232.7</ele>
        <time>2024-04-27T13:03:51Z</time>
      </trkpt>
      <trkpt lat="45.85951" lon="6.4521">
        <ele>2232.7</ele>
        <time>2024-04-27T13:03:52Z</time>
      </trkpt>
      <trkpt lat="45.85951" lon="6.4521">
        <ele>2232.7</ele>
        <time>2024-04-27T13:03:53Z</time>
      </trkpt>
      <trkpt lat="45.85951" lon="6.4521">
        <ele>2232.7</ele>
        <time>2024-04-27T13:03:54Z</time>
      </trkpt>
      <trkpt lat="45.85951" lon="6.4521">
        <ele>2232.7</ele>
        <time>2024-04-27T13:03:55Z</time>
      </trkpt>
      <trkpt lat="45.85952" lon="6.4521">
        <ele>2232.7</ele>
        <time>2024-04-27T13:03:56Z</time>
      </trkpt>
      <trkpt lat="45.85952" lon="6.45209">
        <ele>2232.7</ele>
        <time>2024-04-27T13:03:57Z</time>
      </trkpt>
      <trkpt lat="45.85952" lon="6.45209">
        <ele>2232.7</ele>
        <time>2024-04-27T13:03:58Z</time>
      </trkpt>
      <trkpt lat="45.85952" lon="6.45209">
        <ele>2232.7</ele>
        <time>2024-04-27T13:03:59Z</time>
      </trkpt>
      <trkpt lat="45.85952" lon="6.45209">
        <ele>2232.7</ele>
        <time>2024-04-27T13:04:00Z</time>
      </trkpt>
      <trkpt lat="45.85952" lon="6.45209">
        <ele>2232.7</ele>
        <time>2024-04-27T13:04:01Z</time>
      </trkpt>
      <trkpt lat="45.85952" lon="6.45209">
        <ele>2232.7</ele>
        <time>2024-04-27T13:04:02Z</time>
      </trkpt>
      <trkpt lat="45.85952" lon="6.45209">
        <ele>2232.7</ele>
        <time>2024-04-27T13:04:03Z</time>
      </trkpt>
      <trkpt lat="45.85952" lon="6.45209">
        <ele>2232.7</ele>
        <time>2024-04-27T13:04:04Z</time>
      </trkpt>
      <trkpt lat="45.85952" lon="6.45209">
        <ele>2232.7</ele>
        <time>2024-04-27T13:04:05Z</time>
      </trkpt>
      <trkpt lat="45.85952" lon="6.45209">
        <ele>2232.7</ele>
        <time>2024-04-27T13:04:06Z</time>
      </trkpt>
      <trkpt lat="45.85952" lon="6.45209">
        <ele>2232.7</ele>
        <time>2024-04-27T13:04:07Z</time>
      </trkpt>
      <trkpt lat="45.85952" lon="6.45209">
        <ele>2232.7</ele>
        <time>2024-04-27T13:04:08Z</time>
      </trkpt>
      <trkpt lat="45.85952" lon="6.45209">
        <ele>2232.7</ele>
        <time>2024-04-27T13:04:09Z</time>
      </trkpt>
      <trkpt lat="45.85952" lon="6.45209">
        <ele>2232.7</ele>
        <time>2024-04-27T13:04:10Z</time>
      </trkpt>
      <trkpt lat="45.85952" lon="6.45209">
        <ele>2232.7</ele>
        <time>2024-04-27T13:04:11Z</time>
      </trkpt>
      <trkpt lat="45.85952" lon="6.45209">
        <ele>2232.7</ele>
        <time>2024-04-27T13:04:12Z</time>
      </trkpt>
      <trkpt lat="45.85952" lon="6.45209">
        <ele>2232.7</ele>
        <time>2024-04-27T13:04:13Z</time>
      </trkpt>
      <trkpt lat="45.85952" lon="6.45209">
        <ele>2232.7</ele>
        <time>2024-04-27T13:04:14Z</time>
      </trkpt>
      <trkpt lat="45.85952" lon="6.45209">
        <ele>2232.7</ele>
        <time>2024-04-27T13:04:15Z</time>
      </trkpt>
      <trkpt lat="45.85952" lon="6.45209">
        <ele>2232.7</ele>
        <time>2024-04-27T13:04:16Z</time>
      </trkpt>
      <trkpt lat="45.85952" lon="6.45209">
        <ele>2232.7</ele>
        <time>2024-04-27T13:04:17Z</time>
      </trkpt>
      <trkpt lat="45.85952" lon="6.45209">
        <ele>2232.7</ele>
        <time>2024-04-27T13:04:18Z</time>
      </trkpt>
      <trkpt lat="45.85952" lon="6.45209">
        <ele>2232.7</ele>
        <time>2024-04-27T13:04:19Z</time>
      </trkpt>
      <trkpt lat="45.85952" lon="6.45209">
        <ele>2232.7</ele>
        <time>2024-04-27T13:04:20Z</time>
      </trkpt>
      <trkpt lat="45.85952" lon="6.45209">
        <ele>2232.7</ele>
        <time>2024-04-27T13:04:21Z</time>
      </trkpt>
      <trkpt lat="45.85952" lon="6.45209">
        <ele>2232.7</ele>
        <time>2024-04-27T13:04:22Z</time>
      </trkpt>
      <trkpt lat="45.85952" lon="6.45209">
        <ele>2231.6</ele>
        <time>2024-04-27T13:04:23Z</time>
      </trkpt>
      <trkpt lat="45.85952" lon="6.45209">
        <ele>2231.6</ele>
        <time>2024-04-27T13:04:24Z</time>
      </trkpt>
      <trkpt lat="45.85952" lon="6.45209">
        <ele>2231.6</ele>
        <time>2024-04-27T13:04:25Z</time>
      </trkpt>
      <trkpt lat="45.85952" lon="6.45208">
        <ele>2231.6</ele>
        <time>2024-04-27T13:04:26Z</time>
      </trkpt>
      <trkpt lat="45.85952" lon="6.45208">
        <ele>2231.6</ele>
        <time>2024-04-27T13:04:27Z</time>
      </trkpt>
      <trkpt lat="45.85952" lon="6.45208">
        <ele>2231.6</ele>
        <time>2024-04-27T13:04:28Z</time>
      </trkpt>
      <trkpt lat="45.85952" lon="6.45208">
        <ele>2231.6</ele>
        <time>2024-04-27T13:04:29Z</time>
      </trkpt>
      <trkpt lat="45.85952" lon="6.45208">
        <ele>2231.6</ele>
        <time>2024-04-27T13:04:30Z</time>
      </trkpt>
      <trkpt lat="45.85953" lon="6.45208">
        <ele>2231.6</ele>
        <time>2024-04-27T13:04:31Z</time>
      </trkpt>
      <trkpt lat="45.85953" lon="6.45208">
        <ele>2231.6</ele>
        <time>2024-04-27T13:04:32Z</time>
      </trkpt>
      <trkpt lat="45.85953" lon="6.45208">
        <ele>2231.6</ele>
        <time>2024-04-27T13:04:33Z</time>
      </trkpt>
      <trkpt lat="45.85953" lon="6.45208">
        <ele>2231.6</ele>
        <time>2024-04-27T13:04:34Z</time>
      </trkpt>
      <trkpt lat="45.85954" lon="6.45208">
        <ele>2231.6</ele>
        <time>2024-04-27T13:04:35Z</time>
      </trkpt>
      <trkpt lat="45.85954" lon="6.45208">
        <ele>2231.6</ele>
        <time>2024-04-27T13:04:36Z</time>
      </trkpt>
      <trkpt lat="45.85954" lon="6.45208">
        <ele>2231.6</ele>
        <time>2024-04-27T13:04:37Z</time>
      </trkpt>
      <trkpt lat="45.85955" lon="6.45208">
        <ele>2231.6</ele>
        <time>2024-04-27T13:04:38Z</time>
      </trkpt>
      <trkpt lat="45.85954" lon="6.45209">
        <ele>2231.6</ele>
        <time>2024-04-27T13:04:39Z</time>
      </trkpt>
      <trkpt lat="45.85953" lon="6.45209">
        <ele>2231.6</ele>
        <time>2024-04-27T13:04:40Z</time>
      </trkpt>
      <trkpt lat="45.85952" lon="6.45209">
        <ele>2231.6</ele>
        <time>2024-04-27T13:04:41Z</time>
      </trkpt>
      <trkpt lat="45.85952" lon="6.45209">
        <ele>2231.6</ele>
        <time>2024-04-27T13:04:42Z</time>
      </trkpt>
      <trkpt lat="45.85952" lon="6.45209">
        <ele>2231.6</ele>
        <time>2024-04-27T13:04:43Z</time>
      </trkpt>
      <trkpt lat="45.85952" lon="6.45208">
        <ele>2231.6</ele>
        <time>2024-04-27T13:04:44Z</time>
      </trkpt>
      <trkpt lat="45.85953" lon="6.45209">
        <ele>2231.6</ele>
        <time>2024-04-27T13:04:45Z</time>
      </trkpt>
      <trkpt lat="45.85953" lon="6.45209">
        <ele>2231.6</ele>
        <time>2024-04-27T13:04:46Z</time>
      </trkpt>
      <trkpt lat="45.85953" lon="6.45209">
        <ele>2231.6</ele>
        <time>2024-04-27T13:04:47Z</time>
      </trkpt>
      <trkpt lat="45.85953" lon="6.4521">
        <ele>2231.6</ele>
        <time>2024-04-27T13:04:48Z</time>
      </trkpt>
      <trkpt lat="45.85952" lon="6.4521">
        <ele>2231.6</ele>
        <time>2024-04-27T13:04:49Z</time>
      </trkpt>
      <trkpt lat="45.85952" lon="6.45209">
        <ele>2231.6</ele>
        <time>2024-04-27T13:04:50Z</time>
      </trkpt>
      <trkpt lat="45.85952" lon="6.45209">
        <ele>2231.6</ele>
        <time>2024-04-27T13:04:51Z</time>
      </trkpt>
      <trkpt lat="45.85952" lon="6.45209">
        <ele>2231.6</ele>
        <time>2024-04-27T13:04:52Z</time>
      </trkpt>
      <trkpt lat="45.85952" lon="6.45209">
        <ele>2231.6</ele>
        <time>2024-04-27T13:04:53Z</time>
      </trkpt>
      <trkpt lat="45.85952" lon="6.45209">
        <ele>2231.6</ele>
        <time>2024-04-27T13:04:54Z</time>
      </trkpt>
      <trkpt lat="45.85952" lon="6.45209">
        <ele>2231.6</ele>
        <time>2024-04-27T13:04:55Z</time>
      </trkpt>
      <trkpt lat="45.85952" lon="6.45209">
        <ele>2231.6</ele>
        <time>2024-04-27T13:04:56Z</time>
      </trkpt>
      <trkpt lat="45.85952" lon="6.45209">
        <ele>2231.6</ele>
        <time>2024-04-27T13:04:57Z</time>
      </trkpt>
      <trkpt lat="45.85952" lon="6.45209">
        <ele>2231.6</ele>
        <time>2024-04-27T13:04:58Z</time>
      </trkpt>
      <trkpt lat="45.85952" lon="6.45209">
        <ele>2231.6</ele>
        <time>2024-04-27T13:04:59Z</time>
      </trkpt>
      <trkpt lat="45.85952" lon="6.45209">
        <ele>2231.6</ele>
        <time>2024-04-27T13:05:00Z</time>
      </trkpt>
      <trkpt lat="45.85952" lon="6.45209">
        <ele>2231.6</ele>
        <time>2024-04-27T13:05:01Z</time>
      </trkpt>
      <trkpt lat="45.85952" lon="6.45209">
        <ele>2231.6</ele>
        <time>2024-04-27T13:05:02Z</time>
      </trkpt>
      <trkpt lat="45.85953" lon="6.45209">
        <ele>2231.6</ele>
        <time>2024-04-27T13:05:03Z</time>
      </trkpt>
      <trkpt lat="45.85953" lon="6.45209">
        <ele>2231.6</ele>
        <time>2024-04-27T13:05:04Z</time>
      </trkpt>
      <trkpt lat="45.85953" lon="6.45209">
        <ele>2231.6</ele>
        <time>2024-04-27T13:05:05Z</time>
      </trkpt>
      <trkpt lat="45.85953" lon="6.45209">
        <ele>2231.6</ele>
        <time>2024-04-27T13:05:06Z</time>
      </trkpt>
      <trkpt lat="45.85953" lon="6.45208">
        <ele>2231.6</ele>
        <time>2024-04-27T13:05:07Z</time>
      </trkpt>
      <trkpt lat="45.85953" lon="6.45208">
        <ele>2231.6</ele>
        <time>2024-04-27T13:05:08Z</time>
      </trkpt>
      <trkpt lat="45.85953" lon="6.45207">
        <ele>2231.6</ele>
        <time>2024-04-27T13:05:09Z</time>
      </trkpt>
      <trkpt lat="45.85953" lon="6.45207">
        <ele>2231.6</ele>
        <time>2024-04-27T13:05:10Z</time>
      </trkpt>
      <trkpt lat="45.85953" lon="6.45207">
        <ele>2231.6</ele>
        <time>2024-04-27T13:05:11Z</time>
      </trkpt>
      <trkpt lat="45.85953" lon="6.45207">
        <ele>2231.6</ele>
        <time>2024-04-27T13:05:12Z</time>
      </trkpt>
      <trkpt lat="45.85953" lon="6.45207">
        <ele>2231.6</ele>
        <time>2024-04-27T13:05:13Z</time>
      </trkpt>
      <trkpt lat="45.85954" lon="6.45207">
        <ele>2231.6</ele>
        <time>2024-04-27T13:05:14Z</time>
      </trkpt>
      <trkpt lat="45.85954" lon="6.45206">
        <ele>2231.6</ele>
        <time>2024-04-27T13:05:15Z</time>
      </trkpt>
      <trkpt lat="45.85954" lon="6.45206">
        <ele>2231.6</ele>
        <time>2024-04-27T13:05:16Z</time>
      </trkpt>
      <trkpt lat="45.85954" lon="6.45206">
        <ele>2231.6</ele>
        <time>2024-04-27T13:05:17Z</time>
      </trkpt>
      <trkpt lat="45.85955" lon="6.45206">
        <ele>2231.6</ele>
        <time>2024-04-27T13:05:18Z</time>
      </trkpt>
      <trkpt lat="45.85955" lon="6.45205">
        <ele>2231.6</ele>
        <time>2024-04-27T13:05:19Z</time>
      </trkpt>
      <trkpt lat="45.85955" lon="6.45205">
        <ele>2231.6</ele>
        <time>2024-04-27T13:05:20Z</time>
      </trkpt>
      <trkpt lat="45.85955" lon="6.45205">
        <ele>2231.6</ele>
        <time>2024-04-27T13:05:21Z</time>
      </trkpt>
      <trkpt lat="45.85955" lon="6.45204">
        <ele>2231.6</ele>
        <time>2024-04-27T13:05:22Z</time>
      </trkpt>
      <trkpt lat="45.85955" lon="6.45204">
        <ele>2231.6</ele>
        <time>2024-04-27T13:05:23Z</time>
      </trkpt>
      <trkpt lat="45.85955" lon="6.45204">
        <ele>2231.6</ele>
        <time>2024-04-27T13:05:24Z</time>
      </trkpt>
      <trkpt lat="45.85955" lon="6.45203">
        <ele>2232.7</ele>
        <time>2024-04-27T13:05:25Z</time>
      </trkpt>
      <trkpt lat="45.85955" lon="6.45203">
        <ele>2232.7</ele>
        <time>2024-04-27T13:05:26Z</time>
      </trkpt>
      <trkpt lat="45.85955" lon="6.45203">
        <ele>2232.7</ele>
        <time>2024-04-27T13:05:27Z</time>
      </trkpt>
      <trkpt lat="45.85955" lon="6.45202">
        <ele>2232.7</ele>
        <time>2024-04-27T13:05:28Z</time>
      </trkpt>
      <trkpt lat="45.85955" lon="6.45202">
        <ele>2232.7</ele>
        <time>2024-04-27T13:05:29Z</time>
      </trkpt>
      <trkpt lat="45.85955" lon="6.45202">
        <ele>2232.7</ele>
        <time>2024-04-27T13:05:30Z</time>
      </trkpt>
      <trkpt lat="45.85955" lon="6.45202">
        <ele>2233.6</ele>
        <time>2024-04-27T13:05:31Z</time>
      </trkpt>
      <trkpt lat="45.85955" lon="6.45202">
        <ele>2233.6</ele>
        <time>2024-04-27T13:05:32Z</time>
      </trkpt>
      <trkpt lat="45.85955" lon="6.45202">
        <ele>2233.6</ele>
        <time>2024-04-27T13:05:33Z</time>
      </trkpt>
      <trkpt lat="45.85955" lon="6.45202">
        <ele>2233.6</ele>
        <time>2024-04-27T13:05:34Z</time>
      </trkpt>
      <trkpt lat="45.85955" lon="6.45202">
        <ele>2233.6</ele>
        <time>2024-04-27T13:05:35Z</time>
      </trkpt>
      <trkpt lat="45.85955" lon="6.45202">
        <ele>2233.6</ele>
        <time>2024-04-27T13:05:36Z</time>
      </trkpt>
      <trkpt lat="45.85954" lon="6.45202">
        <ele>2233.6</ele>
        <time>2024-04-27T13:05:37Z</time>
      </trkpt>
      <trkpt lat="45.85954" lon="6.45202">
        <ele>2233.6</ele>
        <time>2024-04-27T13:05:38Z</time>
      </trkpt>
      <trkpt lat="45.85954" lon="6.45202">
        <ele>2233.6</ele>
        <time>2024-04-27T13:05:39Z</time>
      </trkpt>
      <trkpt lat="45.85954" lon="6.45202">
        <ele>2233.6</ele>
        <time>2024-04-27T13:05:40Z</time>
      </trkpt>
      <trkpt lat="45.85953" lon="6.45202">
        <ele>2233.6</ele>
        <time>2024-04-27T13:05:41Z</time>
      </trkpt>
      <trkpt lat="45.85953" lon="6.45202">
        <ele>2233.6</ele>
        <time>2024-04-27T13:05:42Z</time>
      </trkpt>
      <trkpt lat="45.85953" lon="6.45202">
        <ele>2233.6</ele>
        <time>2024-04-27T13:05:43Z</time>
      </trkpt>
      <trkpt lat="45.85953" lon="6.45202">
        <ele>2233.6</ele>
        <time>2024-04-27T13:05:44Z</time>
      </trkpt>
      <trkpt lat="45.85953" lon="6.45202">
        <ele>2233.6</ele>
        <time>2024-04-27T13:05:45Z</time>
      </trkpt>
      <trkpt lat="45.85953" lon="6.45202">
        <ele>2233.6</ele>
        <time>2024-04-27T13:05:46Z</time>
      </trkpt>
      <trkpt lat="45.85953" lon="6.45202">
        <ele>2232.7</ele>
        <time>2024-04-27T13:05:47Z</time>
      </trkpt>
      <trkpt lat="45.85953" lon="6.45202">
        <ele>2232.7</ele>
        <time>2024-04-27T13:05:48Z</time>
      </trkpt>
      <trkpt lat="45.85953" lon="6.45202">
        <ele>2232.7</ele>
        <time>2024-04-27T13:05:49Z</time>
      </trkpt>
      <trkpt lat="45.85953" lon="6.45202">
        <ele>2232.7</ele>
        <time>2024-04-27T13:05:50Z</time>
      </trkpt>
      <trkpt lat="45.85952" lon="6.45202">
        <ele>2232.7</ele>
        <time>2024-04-27T13:05:51Z</time>
      </trkpt>
      <trkpt lat="45.85952" lon="6.45202">
        <ele>2232.7</ele>
        <time>2024-04-27T13:05:52Z</time>
      </trkpt>
      <trkpt lat="45.85952" lon="6.45202">
        <ele>2232.7</ele>
        <time>2024-04-27T13:05:53Z</time>
      </trkpt>
      <trkpt lat="45.85952" lon="6.45202">
        <ele>2232.7</ele>
        <time>2024-04-27T13:05:54Z</time>
      </trkpt>
      <trkpt lat="45.85952" lon="6.45202">
        <ele>2232.7</ele>
        <time>2024-04-27T13:05:55Z</time>
      </trkpt>
      <trkpt lat="45.85952" lon="6.45201">
        <ele>2232.7</ele>
        <time>2024-04-27T13:05:56Z</time>
      </trkpt>
      <trkpt lat="45.85952" lon="6.45201">
        <ele>2232.7</ele>
        <time>2024-04-27T13:05:57Z</time>
      </trkpt>
      <trkpt lat="45.85952" lon="6.45201">
        <ele>2232.7</ele>
        <time>2024-04-27T13:05:58Z</time>
      </trkpt>
      <trkpt lat="45.85952" lon="6.45201">
        <ele>2232.7</ele>
        <time>2024-04-27T13:05:59Z</time>
      </trkpt>
      <trkpt lat="45.85952" lon="6.45201">
        <ele>2232.7</ele>
        <time>2024-04-27T13:06:00Z</time>
      </trkpt>
      <trkpt lat="45.85951" lon="6.45201">
        <ele>2232.7</ele>
        <time>2024-04-27T13:06:01Z</time>
      </trkpt>
      <trkpt lat="45.85951" lon="6.45201">
        <ele>2232.7</ele>
        <time>2024-04-27T13:06:02Z</time>
      </trkpt>
      <trkpt lat="45.85951" lon="6.45201">
        <ele>2232.7</ele>
        <time>2024-04-27T13:06:03Z</time>
      </trkpt>
      <trkpt lat="45.85951" lon="6.45201">
        <ele>2232.7</ele>
        <time>2024-04-27T13:06:04Z</time>
      </trkpt>
      <trkpt lat="45.85951" lon="6.45201">
        <ele>2232.7</ele>
        <time>2024-04-27T13:06:05Z</time>
      </trkpt>
      <trkpt lat="45.85951" lon="6.45201">
        <ele>2232.7</ele>
        <time>2024-04-27T13:06:06Z</time>
      </trkpt>
      <trkpt lat="45.85951" lon="6.45201">
        <ele>2232.7</ele>
        <time>2024-04-27T13:06:07Z</time>
      </trkpt>
      <trkpt lat="45.85951" lon="6.45201">
        <ele>2232.7</ele>
        <time>2024-04-27T13:06:08Z</time>
      </trkpt>
      <trkpt lat="45.85951" lon="6.45201">
        <ele>2232.7</ele>
        <time>2024-04-27T13:06:09Z</time>
      </trkpt>
      <trkpt lat="45.85951" lon="6.45201">
        <ele>2232.7</ele>
        <time>2024-04-27T13:06:10Z</time>
      </trkpt>
      <trkpt lat="45.8595" lon="6.45202">
        <ele>2232.7</ele>
        <time>2024-04-27T13:06:11Z</time>
      </trkpt>
      <trkpt lat="45.8595" lon="6.45202">
        <ele>2232.7</ele>
        <time>2024-04-27T13:06:12Z</time>
      </trkpt>
      <trkpt lat="45.8595" lon="6.45202">
        <ele>2232.7</ele>
        <time>2024-04-27T13:06:13Z</time>
      </trkpt>
      <trkpt lat="45.8595" lon="6.45202">
        <ele>2232.7</ele>
        <time>2024-04-27T13:06:14Z</time>
      </trkpt>
      <trkpt lat="45.8595" lon="6.45202">
        <ele>2232.7</ele>
        <time>2024-04-27T13:06:15Z</time>
      </trkpt>
      <trkpt lat="45.8595" lon="6.45202">
        <ele>2232.7</ele>
        <time>2024-04-27T13:06:16Z</time>
      </trkpt>
      <trkpt lat="45.8595" lon="6.45202">
        <ele>2232.7</ele>
        <time>2024-04-27T13:06:17Z</time>
      </trkpt>
      <trkpt lat="45.8595" lon="6.45202">
        <ele>2232.7</ele>
        <time>2024-04-27T13:06:18Z</time>
      </trkpt>
      <trkpt lat="45.85949" lon="6.45202">
        <ele>2232.7</ele>
        <time>2024-04-27T13:06:19Z</time>
      </trkpt>
      <trkpt lat="45.85949" lon="6.45202">
        <ele>2232.7</ele>
        <time>2024-04-27T13:06:20Z</time>
      </trkpt>
      <trkpt lat="45.85949" lon="6.45203">
        <ele>2232.7</ele>
        <time>2024-04-27T13:06:21Z</time>
      </trkpt>
      <trkpt lat="45.85949" lon="6.45203">
        <ele>2232.7</ele>
        <time>2024-04-27T13:06:22Z</time>
      </trkpt>
      <trkpt lat="45.85949" lon="6.45203">
        <ele>2232.7</ele>
        <time>2024-04-27T13:06:23Z</time>
      </trkpt>
      <trkpt lat="45.85949" lon="6.45203">
        <ele>2232.7</ele>
        <time>2024-04-27T13:06:24Z</time>
      </trkpt>
      <trkpt lat="45.85949" lon="6.45203">
        <ele>2232.7</ele>
        <time>2024-04-27T13:06:25Z</time>
      </trkpt>
      <trkpt lat="45.85949" lon="6.45203">
        <ele>2232.7</ele>
        <time>2024-04-27T13:06:26Z</time>
      </trkpt>
      <trkpt lat="45.85949" lon="6.45203">
        <ele>2232.7</ele>
        <time>2024-04-27T13:06:27Z</time>
      </trkpt>
      <trkpt lat="45.85949" lon="6.45203">
        <ele>2232.7</ele>
        <time>2024-04-27T13:06:28Z</time>
      </trkpt>
      <trkpt lat="45.85949" lon="6.45203">
        <ele>2232.7</ele>
        <time>2024-04-27T13:06:29Z</time>
      </trkpt>
      <trkpt lat="45.85949" lon="6.45203">
        <ele>2232.7</ele>
        <time>2024-04-27T13:06:30Z</time>
      </trkpt>
      <trkpt lat="45.85949" lon="6.45203">
        <ele>2231.6</ele>
        <time>2024-04-27T13:06:31Z</time>
      </trkpt>
      <trkpt lat="45.85949" lon="6.45203">
        <ele>2231.6</ele>
        <time>2024-04-27T13:06:32Z</time>
      </trkpt>
      <trkpt lat="45.85949" lon="6.45203">
        <ele>2231.6</ele>
        <time>2024-04-27T13:06:33Z</time>
      </trkpt>
      <trkpt lat="45.85949" lon="6.45203">
        <ele>2231.6</ele>
        <time>2024-04-27T13:06:34Z</time>
      </trkpt>
      <trkpt lat="45.85949" lon="6.45203">
        <ele>2231.6</ele>
        <time>2024-04-27T13:06:35Z</time>
      </trkpt>
      <trkpt lat="45.85949" lon="6.45203">
        <ele>2231.6</ele>
        <time>2024-04-27T13:06:36Z</time>
      </trkpt>
      <trkpt lat="45.85949" lon="6.45204">
        <ele>2231.6</ele>
        <time>2024-04-27T13:06:37Z</time>
      </trkpt>
      <trkpt lat="45.85949" lon="6.45204">
        <ele>2231.6</ele>
        <time>2024-04-27T13:06:38Z</time>
      </trkpt>
      <trkpt lat="45.85949" lon="6.45204">
        <ele>2231.6</ele>
        <time>2024-04-27T13:06:39Z</time>
      </trkpt>
      <trkpt lat="45.85949" lon="6.45204">
        <ele>2231.6</ele>
        <time>2024-04-27T13:06:40Z</time>
      </trkpt>
      <trkpt lat="45.85949" lon="6.45204">
        <ele>2231.6</ele>
        <time>2024-04-27T13:06:41Z</time>
      </trkpt>
      <trkpt lat="45.8595" lon="6.45204">
        <ele>2231.6</ele>
        <time>2024-04-27T13:06:42Z</time>
      </trkpt>
      <trkpt lat="45.8595" lon="6.45204">
        <ele>2231.6</ele>
        <time>2024-04-27T13:06:43Z</time>
      </trkpt>
      <trkpt lat="45.8595" lon="6.45204">
        <ele>2231.6</ele>
        <time>2024-04-27T13:06:44Z</time>
      </trkpt>
      <trkpt lat="45.8595" lon="6.45204">
        <ele>2231.6</ele>
        <time>2024-04-27T13:06:45Z</time>
      </trkpt>
      <trkpt lat="45.8595" lon="6.45204">
        <ele>2231.6</ele>
        <time>2024-04-27T13:06:46Z</time>
      </trkpt>
      <trkpt lat="45.8595" lon="6.45204">
        <ele>2231.6</ele>
        <time>2024-04-27T13:06:47Z</time>
      </trkpt>
      <trkpt lat="45.8595" lon="6.45204">
        <ele>2231.6</ele>
        <time>2024-04-27T13:06:48Z</time>
      </trkpt>
      <trkpt lat="45.8595" lon="6.45204">
        <ele>2231.6</ele>
        <time>2024-04-27T13:06:49Z</time>
      </trkpt>
      <trkpt lat="45.8595" lon="6.45204">
        <ele>2232.7</ele>
        <time>2024-04-27T13:06:50Z</time>
      </trkpt>
      <trkpt lat="45.8595" lon="6.45204">
        <ele>2232.7</ele>
        <time>2024-04-27T13:06:51Z</time>
      </trkpt>
      <trkpt lat="45.8595" lon="6.45204">
        <ele>2232.7</ele>
        <time>2024-04-27T13:06:52Z</time>
      </trkpt>
      <trkpt lat="45.8595" lon="6.45204">
        <ele>2232.7</ele>
        <time>2024-04-27T13:06:53Z</time>
      </trkpt>
      <trkpt lat="45.8595" lon="6.45204">
        <ele>2232.7</ele>
        <time>2024-04-27T13:06:54Z</time>
      </trkpt>
      <trkpt lat="45.8595" lon="6.45204">
        <ele>2232.7</ele>
        <time>2024-04-27T13:06:55Z</time>
      </trkpt>
      <trkpt lat="45.8595" lon="6.45204">
        <ele>2232.7</ele>
        <time>2024-04-27T13:06:56Z</time>
      </trkpt>
      <trkpt lat="45.8595" lon="6.45204">
        <ele>2232.7</ele>
        <time>2024-04-27T13:06:57Z</time>
      </trkpt>
      <trkpt lat="45.8595" lon="6.45204">
        <ele>2233.6</ele>
        <time>2024-04-27T13:06:58Z</time>
      </trkpt>
      <trkpt lat="45.8595" lon="6.45204">
        <ele>2233.6</ele>
        <time>2024-04-27T13:06:59Z</time>
      </trkpt>
      <trkpt lat="45.8595" lon="6.45204">
        <ele>2233.6</ele>
        <time>2024-04-27T13:07:00Z</time>
      </trkpt>
      <trkpt lat="45.8595" lon="6.45204">
        <ele>2233.6</ele>
        <time>2024-04-27T13:07:01Z</time>
      </trkpt>
      <trkpt lat="45.8595" lon="6.45204">
        <ele>2232.7</ele>
        <time>2024-04-27T13:07:02Z</time>
      </trkpt>
      <trkpt lat="45.8595" lon="6.45204">
        <ele>2232.7</ele>
        <time>2024-04-27T13:07:03Z</time>
      </trkpt>
      <trkpt lat="45.8595" lon="6.45204">
        <ele>2232.7</ele>
        <time>2024-04-27T13:07:04Z</time>
      </trkpt>
      <trkpt lat="45.8595" lon="6.45204">
        <ele>2232.7</ele>
        <time>2024-04-27T13:07:05Z</time>
      </trkpt>
      <trkpt lat="45.8595" lon="6.45204">
        <ele>2232.7</ele>
        <time>2024-04-27T13:07:06Z</time>
      </trkpt>
      <trkpt lat="45.8595" lon="6.45204">
        <ele>2232.7</ele>
        <time>2024-04-27T13:07:07Z</time>
      </trkpt>
      <trkpt lat="45.8595" lon="6.45204">
        <ele>2232.7</ele>
        <time>2024-04-27T13:07:08Z</time>
      </trkpt>
      <trkpt lat="45.8595" lon="6.45204">
        <ele>2232.7</ele>
        <time>2024-04-27T13:07:09Z</time>
      </trkpt>
      <trkpt lat="45.8595" lon="6.45204">
        <ele>2232.7</ele>
        <time>2024-04-27T13:07:10Z</time>
      </trkpt>
      <trkpt lat="45.8595" lon="6.45204">
        <ele>2232.7</ele>
        <time>2024-04-27T13:07:11Z</time>
      </trkpt>
      <trkpt lat="45.85951" lon="6.45204">
        <ele>2232.7</ele>
        <time>2024-04-27T13:07:12Z</time>
      </trkpt>
      <trkpt lat="45.85951" lon="6.45204">
        <ele>2232.7</ele>
        <time>2024-04-27T13:07:13Z</time>
      </trkpt>
      <trkpt lat="45.85951" lon="6.45204">
        <ele>2232.7</ele>
        <time>2024-04-27T13:07:14Z</time>
      </trkpt>
      <trkpt lat="45.85951" lon="6.45204">
        <ele>2232.7</ele>
        <time>2024-04-27T13:07:15Z</time>
      </trkpt>
      <trkpt lat="45.85951" lon="6.45204">
        <ele>2232.7</ele>
        <time>2024-04-27T13:07:16Z</time>
      </trkpt>
      <trkpt lat="45.85951" lon="6.45204">
        <ele>2232.7</ele>
        <time>2024-04-27T13:07:17Z</time>
      </trkpt>
      <trkpt lat="45.85951" lon="6.45204">
        <ele>2232.7</ele>
        <time>2024-04-27T13:07:18Z</time>
      </trkpt>
      <trkpt lat="45.85951" lon="6.45204">
        <ele>2232.7</ele>
        <time>2024-04-27T13:07:19Z</time>
      </trkpt>
      <trkpt lat="45.85951" lon="6.45204">
        <ele>2232.7</ele>
        <time>2024-04-27T13:07:20Z</time>
      </trkpt>
      <trkpt lat="45.85951" lon="6.45204">
        <ele>2232.7</ele>
        <time>2024-04-27T13:07:21Z</time>
      </trkpt>
      <trkpt lat="45.85951" lon="6.45204">
        <ele>2232.7</ele>
        <time>2024-04-27T13:07:22Z</time>
      </trkpt>
      <trkpt lat="45.85951" lon="6.45204">
        <ele>2232.7</ele>
        <time>2024-04-27T13:07:23Z</time>
      </trkpt>
      <trkpt lat="45.85951" lon="6.45204">
        <ele>2232.7</ele>
        <time>2024-04-27T13:07:24Z</time>
      </trkpt>
      <trkpt lat="45.85951" lon="6.45204">
        <ele>2232.7</ele>
        <time>2024-04-27T13:07:25Z</time>
      </trkpt>
      <trkpt lat="45.85951" lon="6.45205">
        <ele>2232.7</ele>
        <time>2024-04-27T13:07:26Z</time>
      </trkpt>
      <trkpt lat="45.85951" lon="6.45205">
        <ele>2232.7</ele>
        <time>2024-04-27T13:07:27Z</time>
      </trkpt>
      <trkpt lat="45.85951" lon="6.45205">
        <ele>2232.7</ele>
        <time>2024-04-27T13:07:28Z</time>
      </trkpt>
      <trkpt lat="45.85951" lon="6.45205">
        <ele>2232.7</ele>
        <time>2024-04-27T13:07:29Z</time>
      </trkpt>
      <trkpt lat="45.85952" lon="6.45205">
        <ele>2232.7</ele>
        <time>2024-04-27T13:07:30Z</time>
      </trkpt>
      <trkpt lat="45.85952" lon="6.45205">
        <ele>2232.7</ele>
        <time>2024-04-27T13:07:31Z</time>
      </trkpt>
      <trkpt lat="45.85953" lon="6.45205">
        <ele>2232.7</ele>
        <time>2024-04-27T13:07:32Z</time>
      </trkpt>
      <trkpt lat="45.85953" lon="6.45205">
        <ele>2232.7</ele>
        <time>2024-04-27T13:07:33Z</time>
      </trkpt>
      <trkpt lat="45.85953" lon="6.45205">
        <ele>2232.7</ele>
        <time>2024-04-27T13:07:34Z</time>
      </trkpt>
      <trkpt lat="45.85953" lon="6.45205">
        <ele>2232.7</ele>
        <time>2024-04-27T13:07:35Z</time>
      </trkpt>
      <trkpt lat="45.85953" lon="6.45205">
        <ele>2232.7</ele>
        <time>2024-04-27T13:07:36Z</time>
      </trkpt>
      <trkpt lat="45.85953" lon="6.45205">
        <ele>2232.7</ele>
        <time>2024-04-27T13:07:37Z</time>
      </trkpt>
      <trkpt lat="45.85953" lon="6.45205">
        <ele>2232.7</ele>
        <time>2024-04-27T13:07:38Z</time>
      </trkpt>
      <trkpt lat="45.85953" lon="6.45205">
        <ele>2232.7</ele>
        <time>2024-04-27T13:07:39Z</time>
      </trkpt>
      <trkpt lat="45.85955" lon="6.45205">
        <ele>2232.7</ele>
        <time>2024-04-27T13:07:40Z</time>
      </trkpt>
      <trkpt lat="45.85955" lon="6.45205">
        <ele>2232.7</ele>
        <time>2024-04-27T13:07:41Z</time>
      </trkpt>
      <trkpt lat="45.85955" lon="6.45205">
        <ele>2232.7</ele>
        <time>2024-04-27T13:07:42Z</time>
      </trkpt>
      <trkpt lat="45.85956" lon="6.45205">
        <ele>2232.7</ele>
        <time>2024-04-27T13:07:43Z</time>
      </trkpt>
      <trkpt lat="45.85956" lon="6.45205">
        <ele>2232.7</ele>
        <time>2024-04-27T13:07:44Z</time>
      </trkpt>
      <trkpt lat="45.85956" lon="6.45205">
        <ele>2232.7</ele>
        <time>2024-04-27T13:07:45Z</time>
      </trkpt>
      <trkpt lat="45.85956" lon="6.45205">
        <ele>2232.7</ele>
        <time>2024-04-27T13:07:46Z</time>
      </trkpt>
      <trkpt lat="45.85956" lon="6.45205">
        <ele>2232.7</ele>
        <time>2024-04-27T13:07:47Z</time>
      </trkpt>
      <trkpt lat="45.85956" lon="6.45205">
        <ele>2232.7</ele>
        <time>2024-04-27T13:07:48Z</time>
      </trkpt>
      <trkpt lat="45.85956" lon="6.45205">
        <ele>2232.7</ele>
        <time>2024-04-27T13:07:49Z</time>
      </trkpt>
      <trkpt lat="45.85956" lon="6.45204">
        <ele>2232.7</ele>
        <time>2024-04-27T13:07:50Z</time>
      </trkpt>
      <trkpt lat="45.85956" lon="6.45204">
        <ele>2232.7</ele>
        <time>2024-04-27T13:07:51Z</time>
      </trkpt>
      <trkpt lat="45.85956" lon="6.45204">
        <ele>2232.7</ele>
        <time>2024-04-27T13:07:52Z</time>
      </trkpt>
      <trkpt lat="45.85956" lon="6.45204">
        <ele>2232.7</ele>
        <time>2024-04-27T13:07:53Z</time>
      </trkpt>
      <trkpt lat="45.85956" lon="6.45204">
        <ele>2232.7</ele>
        <time>2024-04-27T13:07:54Z</time>
      </trkpt>
      <trkpt lat="45.85956" lon="6.45204">
        <ele>2232.7</ele>
        <time>2024-04-27T13:07:55Z</time>
      </trkpt>
      <trkpt lat="45.85956" lon="6.45204">
        <ele>2232.7</ele>
        <time>2024-04-27T13:07:56Z</time>
      </trkpt>
      <trkpt lat="45.85956" lon="6.45204">
        <ele>2232.7</ele>
        <time>2024-04-27T13:07:57Z</time>
      </trkpt>
      <trkpt lat="45.85956" lon="6.45204">
        <ele>2232.7</ele>
        <time>2024-04-27T13:07:58Z</time>
      </trkpt>
      <trkpt lat="45.85956" lon="6.45204">
        <ele>2232.7</ele>
        <time>2024-04-27T13:07:59Z</time>
      </trkpt>
      <trkpt lat="45.85956" lon="6.45204">
        <ele>2232.7</ele>
        <time>2024-04-27T13:08:00Z</time>
      </trkpt>
      <trkpt lat="45.85956" lon="6.45204">
        <ele>2232.7</ele>
        <time>2024-04-27T13:08:01Z</time>
      </trkpt>
      <trkpt lat="45.85955" lon="6.45204">
        <ele>2232.7</ele>
        <time>2024-04-27T13:08:02Z</time>
      </trkpt>
      <trkpt lat="45.85954" lon="6.45204">
        <ele>2232.7</ele>
        <time>2024-04-27T13:08:03Z</time>
      </trkpt>
      <trkpt lat="45.85954" lon="6.45204">
        <ele>2232.7</ele>
        <time>2024-04-27T13:08:04Z</time>
      </trkpt>
      <trkpt lat="45.85954" lon="6.45204">
        <ele>2232.7</ele>
        <time>2024-04-27T13:08:05Z</time>
      </trkpt>
      <trkpt lat="45.85954" lon="6.45204">
        <ele>2232.7</ele>
        <time>2024-04-27T13:08:06Z</time>
      </trkpt>
      <trkpt lat="45.85954" lon="6.45204">
        <ele>2232.7</ele>
        <time>2024-04-27T13:08:07Z</time>
      </trkpt>
      <trkpt lat="45.85954" lon="6.45204">
        <ele>2232.7</ele>
        <time>2024-04-27T13:08:08Z</time>
      </trkpt>
      <trkpt lat="45.85954" lon="6.45204">
        <ele>2232.7</ele>
        <time>2024-04-27T13:08:09Z</time>
      </trkpt>
      <trkpt lat="45.85954" lon="6.45204">
        <ele>2232.7</ele>
        <time>2024-04-27T13:08:10Z</time>
      </trkpt>
      <trkpt lat="45.85954" lon="6.45204">
        <ele>2232.7</ele>
        <time>2024-04-27T13:08:11Z</time>
      </trkpt>
      <trkpt lat="45.85954" lon="6.45204">
        <ele>2232.7</ele>
        <time>2024-04-27T13:08:12Z</time>
      </trkpt>
      <trkpt lat="45.85954" lon="6.45204">
        <ele>2232.7</ele>
        <time>2024-04-27T13:08:13Z</time>
      </trkpt>
      <trkpt lat="45.85954" lon="6.45204">
        <ele>2232.7</ele>
        <time>2024-04-27T13:08:14Z</time>
      </trkpt>
      <trkpt lat="45.85953" lon="6.45204">
        <ele>2232.7</ele>
        <time>2024-04-27T13:08:15Z</time>
      </trkpt>
      <trkpt lat="45.85953" lon="6.45204">
        <ele>2231.6</ele>
        <time>2024-04-27T13:08:16Z</time>
      </trkpt>
      <trkpt lat="45.85953" lon="6.45204">
        <ele>2231.6</ele>
        <time>2024-04-27T13:08:17Z</time>
      </trkpt>
      <trkpt lat="45.85953" lon="6.45204">
        <ele>2231.6</ele>
        <time>2024-04-27T13:08:18Z</time>
      </trkpt>
      <trkpt lat="45.85953" lon="6.45204">
        <ele>2231.6</ele>
        <time>2024-04-27T13:08:19Z</time>
      </trkpt>
      <trkpt lat="45.85953" lon="6.45204">
        <ele>2231.6</ele>
        <time>2024-04-27T13:08:20Z</time>
      </trkpt>
      <trkpt lat="45.85953" lon="6.45204">
        <ele>2231.6</ele>
        <time>2024-04-27T13:08:21Z</time>
      </trkpt>
      <trkpt lat="45.85952" lon="6.45204">
        <ele>2231.6</ele>
        <time>2024-04-27T13:08:22Z</time>
      </trkpt>
      <trkpt lat="45.85952" lon="6.45204">
        <ele>2231.6</ele>
        <time>2024-04-27T13:08:23Z</time>
      </trkpt>
      <trkpt lat="45.85952" lon="6.45204">
        <ele>2231.6</ele>
        <time>2024-04-27T13:08:24Z</time>
      </trkpt>
      <trkpt lat="45.85951" lon="6.45204">
        <ele>2231.6</ele>
        <time>2024-04-27T13:08:25Z</time>
      </trkpt>
      <trkpt lat="45.85951" lon="6.45204">
        <ele>2231.6</ele>
        <time>2024-04-27T13:08:26Z</time>
      </trkpt>
      <trkpt lat="45.85951" lon="6.45204">
        <ele>2231.6</ele>
        <time>2024-04-27T13:08:27Z</time>
      </trkpt>
      <trkpt lat="45.85951" lon="6.45204">
        <ele>2231.6</ele>
        <time>2024-04-27T13:08:28Z</time>
      </trkpt>
      <trkpt lat="45.8595" lon="6.45204">
        <ele>2231.6</ele>
        <time>2024-04-27T13:08:29Z</time>
      </trkpt>
      <trkpt lat="45.8595" lon="6.45204">
        <ele>2231.6</ele>
        <time>2024-04-27T13:08:30Z</time>
      </trkpt>
      <trkpt lat="45.8595" lon="6.45205">
        <ele>2231.6</ele>
        <time>2024-04-27T13:08:31Z</time>
      </trkpt>
      <trkpt lat="45.8595" lon="6.45205">
        <ele>2231.6</ele>
        <time>2024-04-27T13:08:32Z</time>
      </trkpt>
      <trkpt lat="45.8595" lon="6.45205">
        <ele>2231.6</ele>
        <time>2024-04-27T13:08:33Z</time>
      </trkpt>
      <trkpt lat="45.8595" lon="6.45205">
        <ele>2231.6</ele>
        <time>2024-04-27T13:08:34Z</time>
      </trkpt>
      <trkpt lat="45.8595" lon="6.45205">
        <ele>2231.6</ele>
        <time>2024-04-27T13:08:35Z</time>
      </trkpt>
      <trkpt lat="45.8595" lon="6.45205">
        <ele>2230.7</ele>
        <time>2024-04-27T13:08:36Z</time>
      </trkpt>
      <trkpt lat="45.8595" lon="6.45205">
        <ele>2230.7</ele>
        <time>2024-04-27T13:08:37Z</time>
      </trkpt>
      <trkpt lat="45.8595" lon="6.45205">
        <ele>2230.7</ele>
        <time>2024-04-27T13:08:38Z</time>
      </trkpt>
      <trkpt lat="45.8595" lon="6.45205">
        <ele>2230.7</ele>
        <time>2024-04-27T13:08:39Z</time>
      </trkpt>
      <trkpt lat="45.8595" lon="6.45205">
        <ele>2230.7</ele>
        <time>2024-04-27T13:08:40Z</time>
      </trkpt>
      <trkpt lat="45.8595" lon="6.45206">
        <ele>2230.7</ele>
        <time>2024-04-27T13:08:41Z</time>
      </trkpt>
      <trkpt lat="45.8595" lon="6.45206">
        <ele>2230.7</ele>
        <time>2024-04-27T13:08:42Z</time>
      </trkpt>
      <trkpt lat="45.8595" lon="6.45206">
        <ele>2230.7</ele>
        <time>2024-04-27T13:08:43Z</time>
      </trkpt>
      <trkpt lat="45.8595" lon="6.45206">
        <ele>2230.7</ele>
        <time>2024-04-27T13:08:44Z</time>
      </trkpt>
      <trkpt lat="45.8595" lon="6.45206">
        <ele>2230.7</ele>
        <time>2024-04-27T13:08:45Z</time>
      </trkpt>
      <trkpt lat="45.8595" lon="6.45206">
        <ele>2230.7</ele>
        <time>2024-04-27T13:08:46Z</time>
      </trkpt>
      <trkpt lat="45.8595" lon="6.45206">
        <ele>2230.7</ele>
        <time>2024-04-27T13:08:47Z</time>
      </trkpt>
      <trkpt lat="45.8595" lon="6.45206">
        <ele>2230.7</ele>
        <time>2024-04-27T13:08:48Z</time>
      </trkpt>
      <trkpt lat="45.8595" lon="6.45206">
        <ele>2230.7</ele>
        <time>2024-04-27T13:08:49Z</time>
      </trkpt>
      <trkpt lat="45.8595" lon="6.45206">
        <ele>2230.7</ele>
        <time>2024-04-27T13:08:50Z</time>
      </trkpt>
      <trkpt lat="45.8595" lon="6.45206">
        <ele>2230.7</ele>
        <time>2024-04-27T13:08:51Z</time>
      </trkpt>
      <trkpt lat="45.85949" lon="6.45206">
        <ele>2230.7</ele>
        <time>2024-04-27T13:08:52Z</time>
      </trkpt>
      <trkpt lat="45.8595" lon="6.45206">
        <ele>2230.7</ele>
        <time>2024-04-27T13:08:53Z</time>
      </trkpt>
      <trkpt lat="45.8595" lon="6.45206">
        <ele>2230.7</ele>
        <time>2024-04-27T13:08:54Z</time>
      </trkpt>
      <trkpt lat="45.8595" lon="6.45206">
        <ele>2230.7</ele>
        <time>2024-04-27T13:08:55Z</time>
      </trkpt>
      <trkpt lat="45.8595" lon="6.45206">
        <ele>2230.7</ele>
        <time>2024-04-27T13:08:56Z</time>
      </trkpt>
      <trkpt lat="45.8595" lon="6.45206">
        <ele>2230.7</ele>
        <time>2024-04-27T13:08:57Z</time>
      </trkpt>
      <trkpt lat="45.8595" lon="6.45206">
        <ele>2230.7</ele>
        <time>2024-04-27T13:08:58Z</time>
      </trkpt>
      <trkpt lat="45.8595" lon="6.45206">
        <ele>2230.7</ele>
        <time>2024-04-27T13:08:59Z</time>
      </trkpt>
      <trkpt lat="45.8595" lon="6.45205">
        <ele>2231.6</ele>
        <time>2024-04-27T13:09:00Z</time>
      </trkpt>
      <trkpt lat="45.8595" lon="6.45205">
        <ele>2231.6</ele>
        <time>2024-04-27T13:09:01Z</time>
      </trkpt>
      <trkpt lat="45.8595" lon="6.45205">
        <ele>2231.6</ele>
        <time>2024-04-27T13:09:02Z</time>
      </trkpt>
      <trkpt lat="45.8595" lon="6.45205">
        <ele>2231.6</ele>
        <time>2024-04-27T13:09:03Z</time>
      </trkpt>
      <trkpt lat="45.8595" lon="6.45205">
        <ele>2231.6</ele>
        <time>2024-04-27T13:09:04Z</time>
      </trkpt>
      <trkpt lat="45.8595" lon="6.45205">
        <ele>2231.6</ele>
        <time>2024-04-27T13:09:05Z</time>
      </trkpt>
      <trkpt lat="45.8595" lon="6.45205">
        <ele>2231.6</ele>
        <time>2024-04-27T13:09:06Z</time>
      </trkpt>
      <trkpt lat="45.8595" lon="6.45205">
        <ele>2231.6</ele>
        <time>2024-04-27T13:09:07Z</time>
      </trkpt>
      <trkpt lat="45.8595" lon="6.45205">
        <ele>2231.6</ele>
        <time>2024-04-27T13:09:08Z</time>
      </trkpt>
      <trkpt lat="45.8595" lon="6.45205">
        <ele>2231.6</ele>
        <time>2024-04-27T13:09:09Z</time>
      </trkpt>
      <trkpt lat="45.8595" lon="6.45205">
        <ele>2231.6</ele>
        <time>2024-04-27T13:09:10Z</time>
      </trkpt>
      <trkpt lat="45.8595" lon="6.45204">
        <ele>2231.6</ele>
        <time>2024-04-27T13:09:11Z</time>
      </trkpt>
      <trkpt lat="45.8595" lon="6.45204">
        <ele>2231.6</ele>
        <time>2024-04-27T13:09:12Z</time>
      </trkpt>
      <trkpt lat="45.8595" lon="6.45204">
        <ele>2231.6</ele>
        <time>2024-04-27T13:09:13Z</time>
      </trkpt>
      <trkpt lat="45.85951" lon="6.45204">
        <ele>2231.6</ele>
        <time>2024-04-27T13:09:14Z</time>
      </trkpt>
      <trkpt lat="45.85951" lon="6.45204">
        <ele>2231.6</ele>
        <time>2024-04-27T13:09:15Z</time>
      </trkpt>
      <trkpt lat="45.85951" lon="6.45204">
        <ele>2231.6</ele>
        <time>2024-04-27T13:09:16Z</time>
      </trkpt>
      <trkpt lat="45.85951" lon="6.45204">
        <ele>2231.6</ele>
        <time>2024-04-27T13:09:17Z</time>
      </trkpt>
      <trkpt lat="45.85951" lon="6.45204">
        <ele>2231.6</ele>
        <time>2024-04-27T13:09:18Z</time>
      </trkpt>
      <trkpt lat="45.85951" lon="6.45204">
        <ele>2231.6</ele>
        <time>2024-04-27T13:09:19Z</time>
      </trkpt>
      <trkpt lat="45.85951" lon="6.45204">
        <ele>2231.6</ele>
        <time>2024-04-27T13:09:20Z</time>
      </trkpt>
      <trkpt lat="45.85951" lon="6.45204">
        <ele>2231.6</ele>
        <time>2024-04-27T13:09:21Z</time>
      </trkpt>
      <trkpt lat="45.85951" lon="6.45204">
        <ele>2231.6</ele>
        <time>2024-04-27T13:09:22Z</time>
      </trkpt>
      <trkpt lat="45.85951" lon="6.45204">
        <ele>2231.6</ele>
        <time>2024-04-27T13:09:23Z</time>
      </trkpt>
      <trkpt lat="45.85951" lon="6.45205">
        <ele>2231.6</ele>
        <time>2024-04-27T13:09:24Z</time>
      </trkpt>
      <trkpt lat="45.8595" lon="6.45205">
        <ele>2231.6</ele>
        <time>2024-04-27T13:09:25Z</time>
      </trkpt>
      <trkpt lat="45.8595" lon="6.45205">
        <ele>2231.6</ele>
        <time>2024-04-27T13:09:26Z</time>
      </trkpt>
      <trkpt lat="45.8595" lon="6.45205">
        <ele>2231.6</ele>
        <time>2024-04-27T13:09:27Z</time>
      </trkpt>
      <trkpt lat="45.8595" lon="6.45205">
        <ele>2231.6</ele>
        <time>2024-04-27T13:09:28Z</time>
      </trkpt>
      <trkpt lat="45.8595" lon="6.45205">
        <ele>2231.6</ele>
        <time>2024-04-27T13:09:29Z</time>
      </trkpt>
      <trkpt lat="45.8595" lon="6.45205">
        <ele>2231.6</ele>
        <time>2024-04-27T13:09:30Z</time>
      </trkpt>
      <trkpt lat="45.8595" lon="6.45205">
        <ele>2231.6</ele>
        <time>2024-04-27T13:09:31Z</time>
      </trkpt>
      <trkpt lat="45.8595" lon="6.45205">
        <ele>2231.6</ele>
        <time>2024-04-27T13:09:32Z</time>
      </trkpt>
      <trkpt lat="45.8595" lon="6.45205">
        <ele>2231.6</ele>
        <time>2024-04-27T13:09:33Z</time>
      </trkpt>
      <trkpt lat="45.8595" lon="6.45205">
        <ele>2232.7</ele>
        <time>2024-04-27T13:09:34Z</time>
      </trkpt>
      <trkpt lat="45.8595" lon="6.45205">
        <ele>2232.7</ele>
        <time>2024-04-27T13:09:35Z</time>
      </trkpt>
      <trkpt lat="45.8595" lon="6.45205">
        <ele>2232.7</ele>
        <time>2024-04-27T13:09:36Z</time>
      </trkpt>
      <trkpt lat="45.8595" lon="6.45205">
        <ele>2232.7</ele>
        <time>2024-04-27T13:09:37Z</time>
      </trkpt>
      <trkpt lat="45.8595" lon="6.45205">
        <ele>2232.7</ele>
        <time>2024-04-27T13:09:38Z</time>
      </trkpt>
      <trkpt lat="45.8595" lon="6.45205">
        <ele>2232.7</ele>
        <time>2024-04-27T13:09:39Z</time>
      </trkpt>
      <trkpt lat="45.8595" lon="6.45205">
        <ele>2232.7</ele>
        <time>2024-04-27T13:09:40Z</time>
      </trkpt>
      <trkpt lat="45.8595" lon="6.45205">
        <ele>2232.7</ele>
        <time>2024-04-27T13:09:41Z</time>
      </trkpt>
      <trkpt lat="45.8595" lon="6.45205">
        <ele>2232.7</ele>
        <time>2024-04-27T13:09:42Z</time>
      </trkpt>
      <trkpt lat="45.8595" lon="6.45205">
        <ele>2232.7</ele>
        <time>2024-04-27T13:09:43Z</time>
      </trkpt>
      <trkpt lat="45.8595" lon="6.45205">
        <ele>2232.7</ele>
        <time>2024-04-27T13:09:44Z</time>
      </trkpt>
      <trkpt lat="45.8595" lon="6.45205">
        <ele>2232.7</ele>
        <time>2024-04-27T13:09:45Z</time>
      </trkpt>
      <trkpt lat="45.85951" lon="6.45205">
        <ele>2232.7</ele>
        <time>2024-04-27T13:09:46Z</time>
      </trkpt>
      <trkpt lat="45.85951" lon="6.45205">
        <ele>2232.7</ele>
        <time>2024-04-27T13:09:47Z</time>
      </trkpt>
      <trkpt lat="45.85951" lon="6.45205">
        <ele>2233.6</ele>
        <time>2024-04-27T13:09:48Z</time>
      </trkpt>
      <trkpt lat="45.85951" lon="6.45205">
        <ele>2233.6</ele>
        <time>2024-04-27T13:09:49Z</time>
      </trkpt>
      <trkpt lat="45.85951" lon="6.45205">
        <ele>2233.6</ele>
        <time>2024-04-27T13:09:50Z</time>
      </trkpt>
      <trkpt lat="45.85951" lon="6.45205">
        <ele>2233.6</ele>
        <time>2024-04-27T13:09:51Z</time>
      </trkpt>
      <trkpt lat="45.85951" lon="6.45205">
        <ele>2233.6</ele>
        <time>2024-04-27T13:09:52Z</time>
      </trkpt>
      <trkpt lat="45.85951" lon="6.45205">
        <ele>2233.6</ele>
        <time>2024-04-27T13:09:53Z</time>
      </trkpt>
      <trkpt lat="45.85951" lon="6.45205">
        <ele>2233.6</ele>
        <time>2024-04-27T13:09:54Z</time>
      </trkpt>
      <trkpt lat="45.85951" lon="6.45205">
        <ele>2233.6</ele>
        <time>2024-04-27T13:09:55Z</time>
      </trkpt>
      <trkpt lat="45.85951" lon="6.45205">
        <ele>2233.6</ele>
        <time>2024-04-27T13:09:56Z</time>
      </trkpt>
      <trkpt lat="45.85951" lon="6.45205">
        <ele>2233.6</ele>
        <time>2024-04-27T13:09:57Z</time>
      </trkpt>
      <trkpt lat="45.85951" lon="6.45205">
        <ele>2233.6</ele>
        <time>2024-04-27T13:09:58Z</time>
      </trkpt>
      <trkpt lat="45.85951" lon="6.45205">
        <ele>2233.6</ele>
        <time>2024-04-27T13:09:59Z</time>
      </trkpt>
      <trkpt lat="45.85951" lon="6.45205">
        <ele>2233.6</ele>
        <time>2024-04-27T13:10:00Z</time>
      </trkpt>
      <trkpt lat="45.85951" lon="6.45205">
        <ele>2233.6</ele>
        <time>2024-04-27T13:10:01Z</time>
      </trkpt>
      <trkpt lat="45.85951" lon="6.45205">
        <ele>2233.6</ele>
        <time>2024-04-27T13:10:02Z</time>
      </trkpt>
      <trkpt lat="45.85951" lon="6.45205">
        <ele>2233.6</ele>
        <time>2024-04-27T13:10:03Z</time>
      </trkpt>
      <trkpt lat="45.85952" lon="6.45205">
        <ele>2233.6</ele>
        <time>2024-04-27T13:10:04Z</time>
      </trkpt>
      <trkpt lat="45.85952" lon="6.45205">
        <ele>2233.6</ele>
        <time>2024-04-27T13:10:05Z</time>
      </trkpt>
      <trkpt lat="45.85952" lon="6.45205">
        <ele>2233.6</ele>
        <time>2024-04-27T13:10:06Z</time>
      </trkpt>
      <trkpt lat="45.85952" lon="6.45205">
        <ele>2233.6</ele>
        <time>2024-04-27T13:10:07Z</time>
      </trkpt>
      <trkpt lat="45.85952" lon="6.45205">
        <ele>2233.6</ele>
        <time>2024-04-27T13:10:08Z</time>
      </trkpt>
      <trkpt lat="45.85952" lon="6.45205">
        <ele>2233.6</ele>
        <time>2024-04-27T13:10:09Z</time>
      </trkpt>
      <trkpt lat="45.85952" lon="6.45205">
        <ele>2233.6</ele>
        <time>2024-04-27T13:10:10Z</time>
      </trkpt>
      <trkpt lat="45.85952" lon="6.45205">
        <ele>2233.6</ele>
        <time>2024-04-27T13:10:11Z</time>
      </trkpt>
      <trkpt lat="45.85952" lon="6.45205">
        <ele>2233.6</ele>
        <time>2024-04-27T13:10:12Z</time>
      </trkpt>
      <trkpt lat="45.85952" lon="6.45205">
        <ele>2233.6</ele>
        <time>2024-04-27T13:10:13Z</time>
      </trkpt>
      <trkpt lat="45.85952" lon="6.45205">
        <ele>2233.6</ele>
        <time>2024-04-27T13:10:14Z</time>
      </trkpt>
      <trkpt lat="45.85952" lon="6.45205">
        <ele>2233.6</ele>
        <time>2024-04-27T13:10:15Z</time>
      </trkpt>
      <trkpt lat="45.85952" lon="6.45205">
        <ele>2233.6</ele>
        <time>2024-04-27T13:10:16Z</time>
      </trkpt>
      <trkpt lat="45.85952" lon="6.45205">
        <ele>2233.6</ele>
        <time>2024-04-27T13:10:17Z</time>
      </trkpt>
      <trkpt lat="45.85953" lon="6.45204">
        <ele>2233.6</ele>
        <time>2024-04-27T13:10:18Z</time>
      </trkpt>
      <trkpt lat="45.85953" lon="6.45204">
        <ele>2233.6</ele>
        <time>2024-04-27T13:10:19Z</time>
      </trkpt>
      <trkpt lat="45.85953" lon="6.45204">
        <ele>2233.6</ele>
        <time>2024-04-27T13:10:20Z</time>
      </trkpt>
      <trkpt lat="45.85953" lon="6.45204">
        <ele>2233.6</ele>
        <time>2024-04-27T13:10:21Z</time>
      </trkpt>
      <trkpt lat="45.85953" lon="6.45204">
        <ele>2233.6</ele>
        <time>2024-04-27T13:10:22Z</time>
      </trkpt>
      <trkpt lat="45.85953" lon="6.45204">
        <ele>2233.6</ele>
        <time>2024-04-27T13:10:23Z</time>
      </trkpt>
      <trkpt lat="45.85953" lon="6.45204">
        <ele>2233.6</ele>
        <time>2024-04-27T13:10:24Z</time>
      </trkpt>
      <trkpt lat="45.85953" lon="6.45204">
        <ele>2233.6</ele>
        <time>2024-04-27T13:10:25Z</time>
      </trkpt>
      <trkpt lat="45.85953" lon="6.45204">
        <ele>2233.6</ele>
        <time>2024-04-27T13:10:26Z</time>
      </trkpt>
      <trkpt lat="45.85953" lon="6.45204">
        <ele>2233.6</ele>
        <time>2024-04-27T13:10:27Z</time>
      </trkpt>
      <trkpt lat="45.85953" lon="6.45204">
        <ele>2233.6</ele>
        <time>2024-04-27T13:10:28Z</time>
      </trkpt>
      <trkpt lat="45.85953" lon="6.45204">
        <ele>2233.6</ele>
        <time>2024-04-27T13:10:29Z</time>
      </trkpt>
      <trkpt lat="45.85953" lon="6.45204">
        <ele>2233.6</ele>
        <time>2024-04-27T13:10:30Z</time>
      </trkpt>
      <trkpt lat="45.85953" lon="6.45204">
        <ele>2233.6</ele>
        <time>2024-04-27T13:10:31Z</time>
      </trkpt>
      <trkpt lat="45.85953" lon="6.45204">
        <ele>2233.6</ele>
        <time>2024-04-27T13:10:32Z</time>
      </trkpt>
      <trkpt lat="45.85953" lon="6.45204">
        <ele>2233.6</ele>
        <time>2024-04-27T13:10:33Z</time>
      </trkpt>
      <trkpt lat="45.85953" lon="6.45204">
        <ele>2233.6</ele>
        <time>2024-04-27T13:10:34Z</time>
      </trkpt>
      <trkpt lat="45.85953" lon="6.45204">
        <ele>2233.6</ele>
        <time>2024-04-27T13:10:35Z</time>
      </trkpt>
      <trkpt lat="45.85954" lon="6.45204">
        <ele>2233.6</ele>
        <time>2024-04-27T13:10:36Z</time>
      </trkpt>
      <trkpt lat="45.85954" lon="6.45204">
        <ele>2233.6</ele>
        <time>2024-04-27T13:10:37Z</time>
      </trkpt>
      <trkpt lat="45.85954" lon="6.45204">
        <ele>2233.6</ele>
        <time>2024-04-27T13:10:38Z</time>
      </trkpt>
      <trkpt lat="45.85954" lon="6.45204">
        <ele>2233.6</ele>
        <time>2024-04-27T13:10:39Z</time>
      </trkpt>
      <trkpt lat="45.85954" lon="6.45204">
        <ele>2233.6</ele>
        <time>2024-04-27T13:10:40Z</time>
      </trkpt>
      <trkpt lat="45.85954" lon="6.45204">
        <ele>2233.6</ele>
        <time>2024-04-27T13:10:41Z</time>
      </trkpt>
      <trkpt lat="45.85954" lon="6.45204">
        <ele>2233.6</ele>
        <time>2024-04-27T13:10:42Z</time>
      </trkpt>
      <trkpt lat="45.85954" lon="6.45204">
        <ele>2233.6</ele>
        <time>2024-04-27T13:10:43Z</time>
      </trkpt>
      <trkpt lat="45.85954" lon="6.45204">
        <ele>2233.6</ele>
        <time>2024-04-27T13:10:44Z</time>
      </trkpt>
      <trkpt lat="45.85954" lon="6.45204">
        <ele>2233.6</ele>
        <time>2024-04-27T13:10:45Z</time>
      </trkpt>
      <trkpt lat="45.85954" lon="6.45204">
        <ele>2233.6</ele>
        <time>2024-04-27T13:10:46Z</time>
      </trkpt>
      <trkpt lat="45.85954" lon="6.45204">
        <ele>2233.6</ele>
        <time>2024-04-27T13:10:47Z</time>
      </trkpt>
      <trkpt lat="45.85954" lon="6.45204">
        <ele>2233.6</ele>
        <time>2024-04-27T13:10:48Z</time>
      </trkpt>
      <trkpt lat="45.85954" lon="6.45204">
        <ele>2233.6</ele>
        <time>2024-04-27T13:10:49Z</time>
      </trkpt>
      <trkpt lat="45.85954" lon="6.45204">
        <ele>2233.6</ele>
        <time>2024-04-27T13:10:50Z</time>
      </trkpt>
      <trkpt lat="45.85954" lon="6.45204">
        <ele>2233.6</ele>
        <time>2024-04-27T13:10:51Z</time>
      </trkpt>
      <trkpt lat="45.85954" lon="6.45204">
        <ele>2233.6</ele>
        <time>2024-04-27T13:10:52Z</time>
      </trkpt>
      <trkpt lat="45.85954" lon="6.45204">
        <ele>2233.6</ele>
        <time>2024-04-27T13:10:53Z</time>
      </trkpt>
      <trkpt lat="45.85954" lon="6.45204">
        <ele>2233.6</ele>
        <time>2024-04-27T13:10:54Z</time>
      </trkpt>
      <trkpt lat="45.85954" lon="6.45204">
        <ele>2233.6</ele>
        <time>2024-04-27T13:10:55Z</time>
      </trkpt>
      <trkpt lat="45.85954" lon="6.45204">
        <ele>2233.6</ele>
        <time>2024-04-27T13:10:56Z</time>
      </trkpt>
      <trkpt lat="45.85954" lon="6.45204">
        <ele>2233.6</ele>
        <time>2024-04-27T13:10:57Z</time>
      </trkpt>
      <trkpt lat="45.85954" lon="6.45204">
        <ele>2233.6</ele>
        <time>2024-04-27T13:10:58Z</time>
      </trkpt>
      <trkpt lat="45.85954" lon="6.45204">
        <ele>2233.6</ele>
        <time>2024-04-27T13:10:59Z</time>
      </trkpt>
      <trkpt lat="45.85954" lon="6.45204">
        <ele>2233.6</ele>
        <time>2024-04-27T13:11:00Z</time>
      </trkpt>
      <trkpt lat="45.85954" lon="6.45204">
        <ele>2233.6</ele>
        <time>2024-04-27T13:11:01Z</time>
      </trkpt>
      <trkpt lat="45.85954" lon="6.45204">
        <ele>2233.6</ele>
        <time>2024-04-27T13:11:02Z</time>
      </trkpt>
      <trkpt lat="45.85954" lon="6.45204">
        <ele>2233.6</ele>
        <time>2024-04-27T13:11:03Z</time>
      </trkpt>
      <trkpt lat="45.85954" lon="6.45204">
        <ele>2233.6</ele>
        <time>2024-04-27T13:11:04Z</time>
      </trkpt>
      <trkpt lat="45.85954" lon="6.45204">
        <ele>2233.6</ele>
        <time>2024-04-27T13:11:05Z</time>
      </trkpt>
      <trkpt lat="45.85954" lon="6.45204">
        <ele>2233.6</ele>
        <time>2024-04-27T13:11:06Z</time>
      </trkpt>
      <trkpt lat="45.85954" lon="6.45204">
        <ele>2233.6</ele>
        <time>2024-04-27T13:11:07Z</time>
      </trkpt>
      <trkpt lat="45.85954" lon="6.45204">
        <ele>2233.6</ele>
        <time>2024-04-27T13:11:08Z</time>
      </trkpt>
      <trkpt lat="45.85954" lon="6.45204">
        <ele>2233.6</ele>
        <time>2024-04-27T13:11:09Z</time>
      </trkpt>
      <trkpt lat="45.85954" lon="6.45204">
        <ele>2233.6</ele>
        <time>2024-04-27T13:11:10Z</time>
      </trkpt>
      <trkpt lat="45.85954" lon="6.45204">
        <ele>2233.6</ele>
        <time>2024-04-27T13:11:11Z</time>
      </trkpt>
      <trkpt lat="45.85954" lon="6.45204">
        <ele>2233.6</ele>
        <time>2024-04-27T13:11:12Z</time>
      </trkpt>
      <trkpt lat="45.85954" lon="6.45204">
        <ele>2233.6</ele>
        <time>2024-04-27T13:11:13Z</time>
      </trkpt>
      <trkpt lat="45.85954" lon="6.45204">
        <ele>2233.6</ele>
        <time>2024-04-27T13:11:14Z</time>
      </trkpt>
      <trkpt lat="45.85954" lon="6.45204">
        <ele>2233.6</ele>
        <time>2024-04-27T13:11:15Z</time>
      </trkpt>
      <trkpt lat="45.85954" lon="6.45204">
        <ele>2233.6</ele>
        <time>2024-04-27T13:11:16Z</time>
      </trkpt>
      <trkpt lat="45.85954" lon="6.45204">
        <ele>2233.6</ele>
        <time>2024-04-27T13:11:17Z</time>
      </trkpt>
      <trkpt lat="45.85954" lon="6.45204">
        <ele>2233.6</ele>
        <time>2024-04-27T13:11:18Z</time>
      </trkpt>
      <trkpt lat="45.85954" lon="6.45204">
        <ele>2233.6</ele>
        <time>2024-04-27T13:11:19Z</time>
      </trkpt>
      <trkpt lat="45.85954" lon="6.45204">
        <ele>2233.6</ele>
        <time>2024-04-27T13:11:20Z</time>
      </trkpt>
      <trkpt lat="45.85954" lon="6.45204">
        <ele>2233.6</ele>
        <time>2024-04-27T13:11:21Z</time>
      </trkpt>
      <trkpt lat="45.85954" lon="6.45204">
        <ele>2233.6</ele>
        <time>2024-04-27T13:11:22Z</time>
      </trkpt>
      <trkpt lat="45.85954" lon="6.45204">
        <ele>2233.6</ele>
        <time>2024-04-27T13:11:23Z</time>
      </trkpt>
      <trkpt lat="45.85954" lon="6.45204">
        <ele>2233.6</ele>
        <time>2024-04-27T13:11:24Z</time>
      </trkpt>
      <trkpt lat="45.85954" lon="6.45204">
        <ele>2233.6</ele>
        <time>2024-04-27T13:11:25Z</time>
      </trkpt>
      <trkpt lat="45.85954" lon="6.45204">
        <ele>2233.6</ele>
        <time>2024-04-27T13:11:26Z</time>
      </trkpt>
      <trkpt lat="45.85954" lon="6.45204">
        <ele>2233.6</ele>
        <time>2024-04-27T13:11:27Z</time>
      </trkpt>
      <trkpt lat="45.85954" lon="6.45204">
        <ele>2233.6</ele>
        <time>2024-04-27T13:11:28Z</time>
      </trkpt>
      <trkpt lat="45.85954" lon="6.45204">
        <ele>2233.6</ele>
        <time>2024-04-27T13:11:29Z</time>
      </trkpt>
      <trkpt lat="45.85954" lon="6.45204">
        <ele>2233.6</ele>
        <time>2024-04-27T13:11:30Z</time>
      </trkpt>
      <trkpt lat="45.85954" lon="6.45204">
        <ele>2233.6</ele>
        <time>2024-04-27T13:11:31Z</time>
      </trkpt>
      <trkpt lat="45.85954" lon="6.45204">
        <ele>2232.7</ele>
        <time>2024-04-27T13:11:32Z</time>
      </trkpt>
      <trkpt lat="45.85954" lon="6.45204">
        <ele>2232.7</ele>
        <time>2024-04-27T13:11:33Z</time>
      </trkpt>
      <trkpt lat="45.85954" lon="6.45204">
        <ele>2232.7</ele>
        <time>2024-04-27T13:11:34Z</time>
      </trkpt>
      <trkpt lat="45.85954" lon="6.45204">
        <ele>2232.7</ele>
        <time>2024-04-27T13:11:35Z</time>
      </trkpt>
      <trkpt lat="45.85954" lon="6.45204">
        <ele>2232.7</ele>
        <time>2024-04-27T13:11:36Z</time>
      </trkpt>
      <trkpt lat="45.85954" lon="6.45204">
        <ele>2232.7</ele>
        <time>2024-04-27T13:11:37Z</time>
      </trkpt>
      <trkpt lat="45.85954" lon="6.45204">
        <ele>2232.7</ele>
        <time>2024-04-27T13:11:38Z</time>
      </trkpt>
      <trkpt lat="45.85954" lon="6.45204">
        <ele>2232.7</ele>
        <time>2024-04-27T13:11:39Z</time>
      </trkpt>
      <trkpt lat="45.85954" lon="6.45204">
        <ele>2232.7</ele>
        <time>2024-04-27T13:11:40Z</time>
      </trkpt>
      <trkpt lat="45.85954" lon="6.45204">
        <ele>2232.7</ele>
        <time>2024-04-27T13:11:41Z</time>
      </trkpt>
      <trkpt lat="45.85954" lon="6.45204">
        <ele>2232.7</ele>
        <time>2024-04-27T13:11:42Z</time>
      </trkpt>
      <trkpt lat="45.85954" lon="6.45204">
        <ele>2232.7</ele>
        <time>2024-04-27T13:11:43Z</time>
      </trkpt>
      <trkpt lat="45.85954" lon="6.45204">
        <ele>2232.7</ele>
        <time>2024-04-27T13:11:44Z</time>
      </trkpt>
      <trkpt lat="45.85954" lon="6.45204">
        <ele>2232.7</ele>
        <time>2024-04-27T13:11:45Z</time>
      </trkpt>
      <trkpt lat="45.85954" lon="6.45204">
        <ele>2232.7</ele>
        <time>2024-04-27T13:11:46Z</time>
      </trkpt>
      <trkpt lat="45.85954" lon="6.45204">
        <ele>2232.7</ele>
        <time>2024-04-27T13:11:47Z</time>
      </trkpt>
      <trkpt lat="45.85954" lon="6.45204">
        <ele>2232.7</ele>
        <time>2024-04-27T13:11:48Z</time>
      </trkpt>
      <trkpt lat="45.85954" lon="6.45204">
        <ele>2232.7</ele>
        <time>2024-04-27T13:11:49Z</time>
      </trkpt>
      <trkpt lat="45.85954" lon="6.45204">
        <ele>2232.7</ele>
        <time>2024-04-27T13:11:50Z</time>
      </trkpt>
      <trkpt lat="45.85954" lon="6.45204">
        <ele>2232.7</ele>
        <time>2024-04-27T13:11:51Z</time>
      </trkpt>
      <trkpt lat="45.85954" lon="6.45204">
        <ele>2232.7</ele>
        <time>2024-04-27T13:11:52Z</time>
      </trkpt>
      <trkpt lat="45.85954" lon="6.45204">
        <ele>2232.7</ele>
        <time>2024-04-27T13:11:53Z</time>
      </trkpt>
      <trkpt lat="45.85954" lon="6.45204">
        <ele>2232.7</ele>
        <time>2024-04-27T13:11:54Z</time>
      </trkpt>
      <trkpt lat="45.85954" lon="6.45204">
        <ele>2232.7</ele>
        <time>2024-04-27T13:11:55Z</time>
      </trkpt>
      <trkpt lat="45.85954" lon="6.45204">
        <ele>2232.7</ele>
        <time>2024-04-27T13:11:56Z</time>
      </trkpt>
      <trkpt lat="45.85954" lon="6.45204">
        <ele>2232.7</ele>
        <time>2024-04-27T13:11:57Z</time>
      </trkpt>
      <trkpt lat="45.85954" lon="6.45204">
        <ele>2232.7</ele>
        <time>2024-04-27T13:11:58Z</time>
      </trkpt>
      <trkpt lat="45.85954" lon="6.45204">
        <ele>2232.7</ele>
        <time>2024-04-27T13:11:59Z</time>
      </trkpt>
      <trkpt lat="45.85954" lon="6.45206">
        <ele>2231.6</ele>
        <time>2024-04-27T13:12:00Z</time>
      </trkpt>
      <trkpt lat="45.85954" lon="6.45206">
        <ele>2231.6</ele>
        <time>2024-04-27T13:12:01Z</time>
      </trkpt>
      <trkpt lat="45.85953" lon="6.45207">
        <ele>2231.6</ele>
        <time>2024-04-27T13:12:02Z</time>
      </trkpt>
      <trkpt lat="45.85953" lon="6.45208">
        <ele>2231.6</ele>
        <time>2024-04-27T13:12:03Z</time>
      </trkpt>
      <trkpt lat="45.85952" lon="6.45208">
        <ele>2230.7</ele>
        <time>2024-04-27T13:12:04Z</time>
      </trkpt>
      <trkpt lat="45.85952" lon="6.45208">
        <ele>2230.7</ele>
        <time>2024-04-27T13:12:05Z</time>
      </trkpt>
      <trkpt lat="45.85952" lon="6.45209">
        <ele>2230.7</ele>
        <time>2024-04-27T13:12:06Z</time>
      </trkpt>
      <trkpt lat="45.85952" lon="6.45209">
        <ele>2230.7</ele>
        <time>2024-04-27T13:12:07Z</time>
      </trkpt>
      <trkpt lat="45.85952" lon="6.45209">
        <ele>2230.7</ele>
        <time>2024-04-27T13:12:08Z</time>
      </trkpt>
      <trkpt lat="45.85952" lon="6.45209">
        <ele>2230.7</ele>
        <time>2024-04-27T13:12:09Z</time>
      </trkpt>
      <trkpt lat="45.85952" lon="6.45209">
        <ele>2230.7</ele>
        <time>2024-04-27T13:12:10Z</time>
      </trkpt>
      <trkpt lat="45.85952" lon="6.45209">
        <ele>2230.7</ele>
        <time>2024-04-27T13:12:11Z</time>
      </trkpt>
      <trkpt lat="45.85952" lon="6.45209">
        <ele>2230.7</ele>
        <time>2024-04-27T13:12:12Z</time>
      </trkpt>
      <trkpt lat="45.85952" lon="6.45209">
        <ele>2230.7</ele>
        <time>2024-04-27T13:12:13Z</time>
      </trkpt>
      <trkpt lat="45.85952" lon="6.45209">
        <ele>2230.7</ele>
        <time>2024-04-27T13:12:14Z</time>
      </trkpt>
      <trkpt lat="45.85952" lon="6.45209">
        <ele>2230.7</ele>
        <time>2024-04-27T13:12:15Z</time>
      </trkpt>
      <trkpt lat="45.85952" lon="6.45209">
        <ele>2230.7</ele>
        <time>2024-04-27T13:12:16Z</time>
      </trkpt>
      <trkpt lat="45.85952" lon="6.45209">
        <ele>2230.7</ele>
        <time>2024-04-27T13:12:17Z</time>
      </trkpt>
      <trkpt lat="45.85952" lon="6.45209">
        <ele>2231.6</ele>
        <time>2024-04-27T13:12:18Z</time>
      </trkpt>
      <trkpt lat="45.85952" lon="6.45209">
        <ele>2231.6</ele>
        <time>2024-04-27T13:12:19Z</time>
      </trkpt>
      <trkpt lat="45.85952" lon="6.45209">
        <ele>2231.6</ele>
        <time>2024-04-27T13:12:20Z</time>
      </trkpt>
      <trkpt lat="45.85952" lon="6.45209">
        <ele>2231.6</ele>
        <time>2024-04-27T13:12:21Z</time>
      </trkpt>
      <trkpt lat="45.85952" lon="6.45209">
        <ele>2231.6</ele>
        <time>2024-04-27T13:12:22Z</time>
      </trkpt>
      <trkpt lat="45.85952" lon="6.45209">
        <ele>2231.6</ele>
        <time>2024-04-27T13:12:23Z</time>
      </trkpt>
      <trkpt lat="45.85952" lon="6.45209">
        <ele>2231.6</ele>
        <time>2024-04-27T13:12:24Z</time>
      </trkpt>
      <trkpt lat="45.85952" lon="6.45209">
        <ele>2231.6</ele>
        <time>2024-04-27T13:12:25Z</time>
      </trkpt>
      <trkpt lat="45.85952" lon="6.45209">
        <ele>2230.7</ele>
        <time>2024-04-27T13:12:26Z</time>
      </trkpt>
      <trkpt lat="45.85952" lon="6.45209">
        <ele>2230.7</ele>
        <time>2024-04-27T13:12:27Z</time>
      </trkpt>
      <trkpt lat="45.85952" lon="6.45209">
        <ele>2230.7</ele>
        <time>2024-04-27T13:12:28Z</time>
      </trkpt>
      <trkpt lat="45.85952" lon="6.45209">
        <ele>2230.7</ele>
        <time>2024-04-27T13:12:29Z</time>
      </trkpt>
      <trkpt lat="45.85952" lon="6.45209">
        <ele>2231.6</ele>
        <time>2024-04-27T13:12:30Z</time>
      </trkpt>
      <trkpt lat="45.85951" lon="6.45209">
        <ele>2231.6</ele>
        <time>2024-04-27T13:12:31Z</time>
      </trkpt>
      <trkpt lat="45.85951" lon="6.45209">
        <ele>2231.6</ele>
        <time>2024-04-27T13:12:32Z</time>
      </trkpt>
      <trkpt lat="45.85951" lon="6.45209">
        <ele>2231.6</ele>
        <time>2024-04-27T13:12:33Z</time>
      </trkpt>
      <trkpt lat="45.85951" lon="6.45209">
        <ele>2231.6</ele>
        <time>2024-04-27T13:12:34Z</time>
      </trkpt>
      <trkpt lat="45.85951" lon="6.45209">
        <ele>2231.6</ele>
        <time>2024-04-27T13:12:35Z</time>
      </trkpt>
      <trkpt lat="45.85951" lon="6.45209">
        <ele>2231.6</ele>
        <time>2024-04-27T13:12:36Z</time>
      </trkpt>
      <trkpt lat="45.85951" lon="6.45209">
        <ele>2231.6</ele>
        <time>2024-04-27T13:12:37Z</time>
      </trkpt>
      <trkpt lat="45.85951" lon="6.45209">
        <ele>2232.7</ele>
        <time>2024-04-27T13:12:38Z</time>
      </trkpt>
      <trkpt lat="45.85951" lon="6.45209">
        <ele>2232.7</ele>
        <time>2024-04-27T13:12:39Z</time>
      </trkpt>
      <trkpt lat="45.85951" lon="6.45209">
        <ele>2232.7</ele>
        <time>2024-04-27T13:12:40Z</time>
      </trkpt>
      <trkpt lat="45.85951" lon="6.45209">
        <ele>2232.7</ele>
        <time>2024-04-27T13:12:41Z</time>
      </trkpt>
      <trkpt lat="45.85951" lon="6.45209">
        <ele>2232.7</ele>
        <time>2024-04-27T13:12:42Z</time>
      </trkpt>
      <trkpt lat="45.85951" lon="6.45209">
        <ele>2232.7</ele>
        <time>2024-04-27T13:12:43Z</time>
      </trkpt>
      <trkpt lat="45.85951" lon="6.45209">
        <ele>2232.7</ele>
        <time>2024-04-27T13:12:44Z</time>
      </trkpt>
      <trkpt lat="45.85951" lon="6.45209">
        <ele>2232.7</ele>
        <time>2024-04-27T13:12:45Z</time>
      </trkpt>
      <trkpt lat="45.85951" lon="6.45209">
        <ele>2232.7</ele>
        <time>2024-04-27T13:12:46Z</time>
      </trkpt>
      <trkpt lat="45.85951" lon="6.45209">
        <ele>2232.7</ele>
        <time>2024-04-27T13:12:47Z</time>
      </trkpt>
      <trkpt lat="45.85951" lon="6.45209">
        <ele>2232.7</ele>
        <time>2024-04-27T13:12:48Z</time>
      </trkpt>
      <trkpt lat="45.85951" lon="6.45209">
        <ele>2232.7</ele>
        <time>2024-04-27T13:12:49Z</time>
      </trkpt>
      <trkpt lat="45.85951" lon="6.45209">
        <ele>2232.7</ele>
        <time>2024-04-27T13:12:50Z</time>
      </trkpt>
      <trkpt lat="45.85951" lon="6.45209">
        <ele>2232.7</ele>
        <time>2024-04-27T13:12:51Z</time>
      </trkpt>
      <trkpt lat="45.85951" lon="6.4521">
        <ele>2232.7</ele>
        <time>2024-04-27T13:12:52Z</time>
      </trkpt>
      <trkpt lat="45.85951" lon="6.4521">
        <ele>2232.7</ele>
        <time>2024-04-27T13:12:53Z</time>
      </trkpt>
      <trkpt lat="45.85951" lon="6.4521">
        <ele>2232.7</ele>
        <time>2024-04-27T13:12:54Z</time>
      </trkpt>
      <trkpt lat="45.85952" lon="6.4521">
        <ele>2232.7</ele>
        <time>2024-04-27T13:12:55Z</time>
      </trkpt>
      <trkpt lat="45.85952" lon="6.4521">
        <ele>2232.7</ele>
        <time>2024-04-27T13:12:56Z</time>
      </trkpt>
      <trkpt lat="45.85952" lon="6.4521">
        <ele>2232.7</ele>
        <time>2024-04-27T13:12:57Z</time>
      </trkpt>
      <trkpt lat="45.85952" lon="6.45211">
        <ele>2232.7</ele>
        <time>2024-04-27T13:12:58Z</time>
      </trkpt>
      <trkpt lat="45.85952" lon="6.45211">
        <ele>2232.7</ele>
        <time>2024-04-27T13:12:59Z</time>
      </trkpt>
      <trkpt lat="45.85952" lon="6.45211">
        <ele>2232.7</ele>
        <time>2024-04-27T13:13:00Z</time>
      </trkpt>
      <trkpt lat="45.85952" lon="6.45211">
        <ele>2232.7</ele>
        <time>2024-04-27T13:13:01Z</time>
      </trkpt>
      <trkpt lat="45.85952" lon="6.45211">
        <ele>2232.7</ele>
        <time>2024-04-27T13:13:02Z</time>
      </trkpt>
      <trkpt lat="45.85952" lon="6.45211">
        <ele>2232.7</ele>
        <time>2024-04-27T13:13:03Z</time>
      </trkpt>
      <trkpt lat="45.85952" lon="6.45211">
        <ele>2233.6</ele>
        <time>2024-04-27T13:13:04Z</time>
      </trkpt>
      <trkpt lat="45.85952" lon="6.45211">
        <ele>2233.6</ele>
        <time>2024-04-27T13:13:05Z</time>
      </trkpt>
      <trkpt lat="45.85952" lon="6.45211">
        <ele>2233.6</ele>
        <time>2024-04-27T13:13:06Z</time>
      </trkpt>
      <trkpt lat="45.85953" lon="6.45211">
        <ele>2233.6</ele>
        <time>2024-04-27T13:13:07Z</time>
      </trkpt>
      <trkpt lat="45.85953" lon="6.45212">
        <ele>2233.6</ele>
        <time>2024-04-27T13:13:08Z</time>
      </trkpt>
      <trkpt lat="45.85953" lon="6.45212">
        <ele>2233.6</ele>
        <time>2024-04-27T13:13:09Z</time>
      </trkpt>
      <trkpt lat="45.85953" lon="6.45212">
        <ele>2233.6</ele>
        <time>2024-04-27T13:13:10Z</time>
      </trkpt>
      <trkpt lat="45.85953" lon="6.45212">
        <ele>2233.6</ele>
        <time>2024-04-27T13:13:11Z</time>
      </trkpt>
      <trkpt lat="45.85953" lon="6.45212">
        <ele>2233.6</ele>
        <time>2024-04-27T13:13:12Z</time>
      </trkpt>
      <trkpt lat="45.85953" lon="6.45212">
        <ele>2233.6</ele>
        <time>2024-04-27T13:13:13Z</time>
      </trkpt>
      <trkpt lat="45.85953" lon="6.45212">
        <ele>2233.6</ele>
        <time>2024-04-27T13:13:14Z</time>
      </trkpt>
      <trkpt lat="45.85953" lon="6.45212">
        <ele>2233.6</ele>
        <time>2024-04-27T13:13:15Z</time>
      </trkpt>
      <trkpt lat="45.85954" lon="6.45212">
        <ele>2233.6</ele>
        <time>2024-04-27T13:13:16Z</time>
      </trkpt>
      <trkpt lat="45.85954" lon="6.45212">
        <ele>2233.6</ele>
        <time>2024-04-27T13:13:17Z</time>
      </trkpt>
      <trkpt lat="45.85954" lon="6.45212">
        <ele>2233.6</ele>
        <time>2024-04-27T13:13:18Z</time>
      </trkpt>
      <trkpt lat="45.85954" lon="6.45212">
        <ele>2233.6</ele>
        <time>2024-04-27T13:13:19Z</time>
      </trkpt>
      <trkpt lat="45.85954" lon="6.45212">
        <ele>2232.7</ele>
        <time>2024-04-27T13:13:20Z</time>
      </trkpt>
      <trkpt lat="45.85954" lon="6.45212">
        <ele>2232.7</ele>
        <time>2024-04-27T13:13:21Z</time>
      </trkpt>
      <trkpt lat="45.85954" lon="6.45212">
        <ele>2232.7</ele>
        <time>2024-04-27T13:13:22Z</time>
      </trkpt>
      <trkpt lat="45.85954" lon="6.45212">
        <ele>2232.7</ele>
        <time>2024-04-27T13:13:23Z</time>
      </trkpt>
      <trkpt lat="45.85954" lon="6.45212">
        <ele>2232.7</ele>
        <time>2024-04-27T13:13:24Z</time>
      </trkpt>
      <trkpt lat="45.85954" lon="6.45212">
        <ele>2232.7</ele>
        <time>2024-04-27T13:13:25Z</time>
      </trkpt>
      <trkpt lat="45.85954" lon="6.45212">
        <ele>2232.7</ele>
        <time>2024-04-27T13:13:26Z</time>
      </trkpt>
      <trkpt lat="45.85954" lon="6.45212">
        <ele>2232.7</ele>
        <time>2024-04-27T13:13:27Z</time>
      </trkpt>
      <trkpt lat="45.85954" lon="6.45213">
        <ele>2232.7</ele>
        <time>2024-04-27T13:13:28Z</time>
      </trkpt>
      <trkpt lat="45.85954" lon="6.45213">
        <ele>2232.7</ele>
        <time>2024-04-27T13:13:29Z</time>
      </trkpt>
      <trkpt lat="45.85954" lon="6.45213">
        <ele>2231.6</ele>
        <time>2024-04-27T13:13:30Z</time>
      </trkpt>
      <trkpt lat="45.85954" lon="6.45213">
        <ele>2231.6</ele>
        <time>2024-04-27T13:13:31Z</time>
      </trkpt>
      <trkpt lat="45.85954" lon="6.45213">
        <ele>2231.6</ele>
        <time>2024-04-27T13:13:32Z</time>
      </trkpt>
      <trkpt lat="45.85954" lon="6.45213">
        <ele>2231.6</ele>
        <time>2024-04-27T13:13:33Z</time>
      </trkpt>
      <trkpt lat="45.85954" lon="6.45213">
        <ele>2231.6</ele>
        <time>2024-04-27T13:13:34Z</time>
      </trkpt>
      <trkpt lat="45.85954" lon="6.45213">
        <ele>2231.6</ele>
        <time>2024-04-27T13:13:35Z</time>
      </trkpt>
      <trkpt lat="45.85954" lon="6.45213">
        <ele>2231.6</ele>
        <time>2024-04-27T13:13:36Z</time>
      </trkpt>
      <trkpt lat="45.85954" lon="6.45213">
        <ele>2231.6</ele>
        <time>2024-04-27T13:13:37Z</time>
      </trkpt>
      <trkpt lat="45.85954" lon="6.45214">
        <ele>2231.6</ele>
        <time>2024-04-27T13:13:38Z</time>
      </trkpt>
      <trkpt lat="45.85954" lon="6.45214">
        <ele>2231.6</ele>
        <time>2024-04-27T13:13:39Z</time>
      </trkpt>
      <trkpt lat="45.85953" lon="6.45214">
        <ele>2232.7</ele>
        <time>2024-04-27T13:13:40Z</time>
      </trkpt>
      <trkpt lat="45.85953" lon="6.45214">
        <ele>2232.7</ele>
        <time>2024-04-27T13:13:41Z</time>
      </trkpt>
      <trkpt lat="45.85953" lon="6.45214">
        <ele>2232.7</ele>
        <time>2024-04-27T13:13:42Z</time>
      </trkpt>
      <trkpt lat="45.85953" lon="6.45214">
        <ele>2232.7</ele>
        <time>2024-04-27T13:13:43Z</time>
      </trkpt>
      <trkpt lat="45.85953" lon="6.45214">
        <ele>2232.7</ele>
        <time>2024-04-27T13:13:44Z</time>
      </trkpt>
      <trkpt lat="45.85953" lon="6.45214">
        <ele>2232.7</ele>
        <time>2024-04-27T13:13:45Z</time>
      </trkpt>
      <trkpt lat="45.85952" lon="6.45214">
        <ele>2232.7</ele>
        <time>2024-04-27T13:13:46Z</time>
      </trkpt>
      <trkpt lat="45.85952" lon="6.45214">
        <ele>2232.7</ele>
        <time>2024-04-27T13:13:47Z</time>
      </trkpt>
      <trkpt lat="45.85952" lon="6.45214">
        <ele>2232.7</ele>
        <time>2024-04-27T13:13:48Z</time>
      </trkpt>
      <trkpt lat="45.85952" lon="6.45214">
        <ele>2232.7</ele>
        <time>2024-04-27T13:13:49Z</time>
      </trkpt>
      <trkpt lat="45.85952" lon="6.45214">
        <ele>2232.7</ele>
        <time>2024-04-27T13:13:50Z</time>
      </trkpt>
      <trkpt lat="45.85952" lon="6.45214">
        <ele>2232.7</ele>
        <time>2024-04-27T13:13:51Z</time>
      </trkpt>
      <trkpt lat="45.85952" lon="6.45214">
        <ele>2232.7</ele>
        <time>2024-04-27T13:13:52Z</time>
      </trkpt>
      <trkpt lat="45.85952" lon="6.45214">
        <ele>2232.7</ele>
        <time>2024-04-27T13:13:53Z</time>
      </trkpt>
      <trkpt lat="45.85952" lon="6.45214">
        <ele>2232.7</ele>
        <time>2024-04-27T13:13:54Z</time>
      </trkpt>
      <trkpt lat="45.85952" lon="6.45214">
        <ele>2232.7</ele>
        <time>2024-04-27T13:13:55Z</time>
      </trkpt>
      <trkpt lat="45.85952" lon="6.45214">
        <ele>2232.7</ele>
        <time>2024-04-27T13:13:56Z</time>
      </trkpt>
      <trkpt lat="45.85952" lon="6.45214">
        <ele>2232.7</ele>
        <time>2024-04-27T13:13:57Z</time>
      </trkpt>
      <trkpt lat="45.85952" lon="6.45214">
        <ele>2232.7</ele>
        <time>2024-04-27T13:13:58Z</time>
      </trkpt>
      <trkpt lat="45.85952" lon="6.45214">
        <ele>2232.7</ele>
        <time>2024-04-27T13:13:59Z</time>
      </trkpt>
      <trkpt lat="45.85952" lon="6.45214">
        <ele>2232.7</ele>
        <time>2024-04-27T13:14:00Z</time>
      </trkpt>
      <trkpt lat="45.85952" lon="6.45213">
        <ele>2232.7</ele>
        <time>2024-04-27T13:14:01Z</time>
      </trkpt>
      <trkpt lat="45.85952" lon="6.45213">
        <ele>2232.7</ele>
        <time>2024-04-27T13:14:02Z</time>
      </trkpt>
      <trkpt lat="45.85952" lon="6.45213">
        <ele>2232.7</ele>
        <time>2024-04-27T13:14:03Z</time>
      </trkpt>
      <trkpt lat="45.85952" lon="6.45213">
        <ele>2232.7</ele>
        <time>2024-04-27T13:14:04Z</time>
      </trkpt>
      <trkpt lat="45.85952" lon="6.45213">
        <ele>2232.7</ele>
        <time>2024-04-27T13:14:05Z</time>
      </trkpt>
      <trkpt lat="45.85952" lon="6.45212">
        <ele>2232.7</ele>
        <time>2024-04-27T13:14:06Z</time>
      </trkpt>
      <trkpt lat="45.85952" lon="6.45212">
        <ele>2232.7</ele>
        <time>2024-04-27T13:14:07Z</time>
      </trkpt>
      <trkpt lat="45.85952" lon="6.45211">
        <ele>2232.7</ele>
        <time>2024-04-27T13:14:08Z</time>
      </trkpt>
      <trkpt lat="45.85952" lon="6.45211">
        <ele>2232.7</ele>
        <time>2024-04-27T13:14:09Z</time>
      </trkpt>
      <trkpt lat="45.85952" lon="6.45211">
        <ele>2232.7</ele>
        <time>2024-04-27T13:14:10Z</time>
      </trkpt>
      <trkpt lat="45.85952" lon="6.4521">
        <ele>2232.7</ele>
        <time>2024-04-27T13:14:11Z</time>
      </trkpt>
      <trkpt lat="45.85952" lon="6.4521">
        <ele>2232.7</ele>
        <time>2024-04-27T13:14:12Z</time>
      </trkpt>
      <trkpt lat="45.85952" lon="6.4521">
        <ele>2232.7</ele>
        <time>2024-04-27T13:14:13Z</time>
      </trkpt>
      <trkpt lat="45.85952" lon="6.4521">
        <ele>2232.7</ele>
        <time>2024-04-27T13:14:14Z</time>
      </trkpt>
      <trkpt lat="45.85952" lon="6.4521">
        <ele>2232.7</ele>
        <time>2024-04-27T13:14:15Z</time>
      </trkpt>
      <trkpt lat="45.85952" lon="6.4521">
        <ele>2232.7</ele>
        <time>2024-04-27T13:14:16Z</time>
      </trkpt>
      <trkpt lat="45.85952" lon="6.45209">
        <ele>2232.7</ele>
        <time>2024-04-27T13:14:17Z</time>
      </trkpt>
      <trkpt lat="45.85952" lon="6.45209">
        <ele>2232.7</ele>
        <time>2024-04-27T13:14:18Z</time>
      </trkpt>
      <trkpt lat="45.85952" lon="6.45209">
        <ele>2232.7</ele>
        <time>2024-04-27T13:14:19Z</time>
      </trkpt>
      <trkpt lat="45.85952" lon="6.45209">
        <ele>2232.7</ele>
        <time>2024-04-27T13:14:20Z</time>
      </trkpt>
      <trkpt lat="45.85952" lon="6.45209">
        <ele>2232.7</ele>
        <time>2024-04-27T13:14:21Z</time>
      </trkpt>
      <trkpt lat="45.85952" lon="6.45209">
        <ele>2232.7</ele>
        <time>2024-04-27T13:14:22Z</time>
      </trkpt>
      <trkpt lat="45.85952" lon="6.45209">
        <ele>2232.7</ele>
        <time>2024-04-27T13:14:23Z</time>
      </trkpt>
      <trkpt lat="45.85953" lon="6.45209">
        <ele>2232.7</ele>
        <time>2024-04-27T13:14:24Z</time>
      </trkpt>
      <trkpt lat="45.85953" lon="6.45209">
        <ele>2232.7</ele>
        <time>2024-04-27T13:14:25Z</time>
      </trkpt>
      <trkpt lat="45.85953" lon="6.45209">
        <ele>2232.7</ele>
        <time>2024-04-27T13:14:26Z</time>
      </trkpt>
      <trkpt lat="45.85953" lon="6.45209">
        <ele>2232.7</ele>
        <time>2024-04-27T13:14:27Z</time>
      </trkpt>
      <trkpt lat="45.85953" lon="6.45209">
        <ele>2232.7</ele>
        <time>2024-04-27T13:14:28Z</time>
      </trkpt>
      <trkpt lat="45.85953" lon="6.45209">
        <ele>2232.7</ele>
        <time>2024-04-27T13:14:29Z</time>
      </trkpt>
      <trkpt lat="45.85953" lon="6.45209">
        <ele>2232.7</ele>
        <time>2024-04-27T13:14:30Z</time>
      </trkpt>
      <trkpt lat="45.85953" lon="6.45209">
        <ele>2232.7</ele>
        <time>2024-04-27T13:14:31Z</time>
      </trkpt>
      <trkpt lat="45.85953" lon="6.45209">
        <ele>2232.7</ele>
        <time>2024-04-27T13:14:32Z</time>
      </trkpt>
      <trkpt lat="45.85953" lon="6.45209">
        <ele>2232.7</ele>
        <time>2024-04-27T13:14:33Z</time>
      </trkpt>
      <trkpt lat="45.85953" lon="6.45208">
        <ele>2232.7</ele>
        <time>2024-04-27T13:14:34Z</time>
      </trkpt>
      <trkpt lat="45.85953" lon="6.45208">
        <ele>2232.7</ele>
        <time>2024-04-27T13:14:35Z</time>
      </trkpt>
      <trkpt lat="45.85953" lon="6.45208">
        <ele>2232.7</ele>
        <time>2024-04-27T13:14:36Z</time>
      </trkpt>
      <trkpt lat="45.85953" lon="6.45208">
        <ele>2232.7</ele>
        <time>2024-04-27T13:14:37Z</time>
      </trkpt>
      <trkpt lat="45.85953" lon="6.45208">
        <ele>2232.7</ele>
        <time>2024-04-27T13:14:38Z</time>
      </trkpt>
      <trkpt lat="45.85953" lon="6.45208">
        <ele>2232.7</ele>
        <time>2024-04-27T13:14:39Z</time>
      </trkpt>
      <trkpt lat="45.85953" lon="6.45208">
        <ele>2232.7</ele>
        <time>2024-04-27T13:14:40Z</time>
      </trkpt>
      <trkpt lat="45.85953" lon="6.45208">
        <ele>2232.7</ele>
        <time>2024-04-27T13:14:41Z</time>
      </trkpt>
      <trkpt lat="45.85953" lon="6.45208">
        <ele>2232.7</ele>
        <time>2024-04-27T13:14:42Z</time>
      </trkpt>
      <trkpt lat="45.85953" lon="6.45208">
        <ele>2232.7</ele>
        <time>2024-04-27T13:14:43Z</time>
      </trkpt>
      <trkpt lat="45.85953" lon="6.45208">
        <ele>2232.7</ele>
        <time>2024-04-27T13:14:44Z</time>
      </trkpt>
      <trkpt lat="45.85953" lon="6.45208">
        <ele>2232.7</ele>
        <time>2024-04-27T13:14:45Z</time>
      </trkpt>
      <trkpt lat="45.85953" lon="6.45208">
        <ele>2232.7</ele>
        <time>2024-04-27T13:14:46Z</time>
      </trkpt>
      <trkpt lat="45.85953" lon="6.45208">
        <ele>2232.7</ele>
        <time>2024-04-27T13:14:47Z</time>
      </trkpt>
      <trkpt lat="45.85953" lon="6.45208">
        <ele>2232.7</ele>
        <time>2024-04-27T13:14:48Z</time>
      </trkpt>
      <trkpt lat="45.85953" lon="6.45208">
        <ele>2232.7</ele>
        <time>2024-04-27T13:14:49Z</time>
      </trkpt>
      <trkpt lat="45.85953" lon="6.45208">
        <ele>2232.7</ele>
        <time>2024-04-27T13:14:50Z</time>
      </trkpt>
      <trkpt lat="45.85953" lon="6.45208">
        <ele>2232.7</ele>
        <time>2024-04-27T13:14:51Z</time>
      </trkpt>
      <trkpt lat="45.85953" lon="6.45208">
        <ele>2232.7</ele>
        <time>2024-04-27T13:14:52Z</time>
      </trkpt>
      <trkpt lat="45.85953" lon="6.45208">
        <ele>2232.7</ele>
        <time>2024-04-27T13:14:53Z</time>
      </trkpt>
      <trkpt lat="45.85953" lon="6.45208">
        <ele>2232.7</ele>
        <time>2024-04-27T13:14:54Z</time>
      </trkpt>
      <trkpt lat="45.85953" lon="6.45208">
        <ele>2232.7</ele>
        <time>2024-04-27T13:14:55Z</time>
      </trkpt>
      <trkpt lat="45.85953" lon="6.45208">
        <ele>2232.7</ele>
        <time>2024-04-27T13:14:56Z</time>
      </trkpt>
      <trkpt lat="45.85953" lon="6.45208">
        <ele>2232.7</ele>
        <time>2024-04-27T13:14:57Z</time>
      </trkpt>
      <trkpt lat="45.85953" lon="6.45208">
        <ele>2232.7</ele>
        <time>2024-04-27T13:14:58Z</time>
      </trkpt>
      <trkpt lat="45.85953" lon="6.45208">
        <ele>2232.7</ele>
        <time>2024-04-27T13:14:59Z</time>
      </trkpt>
      <trkpt lat="45.85953" lon="6.45208">
        <ele>2232.7</ele>
        <time>2024-04-27T13:15:00Z</time>
      </trkpt>
      <trkpt lat="45.85953" lon="6.45208">
        <ele>2232.7</ele>
        <time>2024-04-27T13:15:01Z</time>
      </trkpt>
      <trkpt lat="45.85953" lon="6.45208">
        <ele>2232.7</ele>
        <time>2024-04-27T13:15:02Z</time>
      </trkpt>
      <trkpt lat="45.85953" lon="6.45209">
        <ele>2232.7</ele>
        <time>2024-04-27T13:15:03Z</time>
      </trkpt>
      <trkpt lat="45.85953" lon="6.45209">
        <ele>2232.7</ele>
        <time>2024-04-27T13:15:04Z</time>
      </trkpt>
      <trkpt lat="45.85953" lon="6.45209">
        <ele>2232.7</ele>
        <time>2024-04-27T13:15:05Z</time>
      </trkpt>
      <trkpt lat="45.85953" lon="6.45209">
        <ele>2232.7</ele>
        <time>2024-04-27T13:15:06Z</time>
      </trkpt>
      <trkpt lat="45.85953" lon="6.45209">
        <ele>2232.7</ele>
        <time>2024-04-27T13:15:07Z</time>
      </trkpt>
      <trkpt lat="45.85953" lon="6.45209">
        <ele>2232.7</ele>
        <time>2024-04-27T13:15:08Z</time>
      </trkpt>
      <trkpt lat="45.85953" lon="6.45209">
        <ele>2232.7</ele>
        <time>2024-04-27T13:15:09Z</time>
      </trkpt>
      <trkpt lat="45.85953" lon="6.45209">
        <ele>2232.7</ele>
        <time>2024-04-27T13:15:10Z</time>
      </trkpt>
      <trkpt lat="45.85953" lon="6.45209">
        <ele>2232.7</ele>
        <time>2024-04-27T13:15:11Z</time>
      </trkpt>
      <trkpt lat="45.85953" lon="6.45209">
        <ele>2232.7</ele>
        <time>2024-04-27T13:15:12Z</time>
      </trkpt>
      <trkpt lat="45.85953" lon="6.45209">
        <ele>2232.7</ele>
        <time>2024-04-27T13:15:13Z</time>
      </trkpt>
      <trkpt lat="45.85953" lon="6.45209">
        <ele>2232.7</ele>
        <time>2024-04-27T13:15:14Z</time>
      </trkpt>
      <trkpt lat="45.85953" lon="6.45209">
        <ele>2232.7</ele>
        <time>2024-04-27T13:15:15Z</time>
      </trkpt>
      <trkpt lat="45.85953" lon="6.45209">
        <ele>2232.7</ele>
        <time>2024-04-27T13:15:16Z</time>
      </trkpt>
      <trkpt lat="45.85953" lon="6.45209">
        <ele>2232.7</ele>
        <time>2024-04-27T13:15:17Z</time>
      </trkpt>
      <trkpt lat="45.85953" lon="6.45209">
        <ele>2232.7</ele>
        <time>2024-04-27T13:15:18Z</time>
      </trkpt>
      <trkpt lat="45.85953" lon="6.45209">
        <ele>2232.7</ele>
        <time>2024-04-27T13:15:19Z</time>
      </trkpt>
      <trkpt lat="45.85953" lon="6.45209">
        <ele>2232.7</ele>
        <time>2024-04-27T13:15:20Z</time>
      </trkpt>
      <trkpt lat="45.85953" lon="6.45209">
        <ele>2232.7</ele>
        <time>2024-04-27T13:15:21Z</time>
      </trkpt>
      <trkpt lat="45.85953" lon="6.45209">
        <ele>2232.7</ele>
        <time>2024-04-27T13:15:22Z</time>
      </trkpt>
      <trkpt lat="45.85953" lon="6.45209">
        <ele>2232.7</ele>
        <time>2024-04-27T13:15:23Z</time>
      </trkpt>
      <trkpt lat="45.85953" lon="6.45209">
        <ele>2232.7</ele>
        <time>2024-04-27T13:15:24Z</time>
      </trkpt>
      <trkpt lat="45.85953" lon="6.45209">
        <ele>2232.7</ele>
        <time>2024-04-27T13:15:25Z</time>
      </trkpt>
      <trkpt lat="45.85953" lon="6.45209">
        <ele>2232.7</ele>
        <time>2024-04-27T13:15:26Z</time>
      </trkpt>
      <trkpt lat="45.85952" lon="6.45209">
        <ele>2232.7</ele>
        <time>2024-04-27T13:15:27Z</time>
      </trkpt>
      <trkpt lat="45.85952" lon="6.45209">
        <ele>2232.7</ele>
        <time>2024-04-27T13:15:28Z</time>
      </trkpt>
      <trkpt lat="45.85952" lon="6.45209">
        <ele>2232.7</ele>
        <time>2024-04-27T13:15:29Z</time>
      </trkpt>
      <trkpt lat="45.85952" lon="6.45209">
        <ele>2232.7</ele>
        <time>2024-04-27T13:15:30Z</time>
      </trkpt>
      <trkpt lat="45.85952" lon="6.45209">
        <ele>2232.7</ele>
        <time>2024-04-27T13:15:31Z</time>
      </trkpt>
      <trkpt lat="45.85952" lon="6.45209">
        <ele>2232.7</ele>
        <time>2024-04-27T13:15:32Z</time>
      </trkpt>
      <trkpt lat="45.85952" lon="6.45209">
        <ele>2232.7</ele>
        <time>2024-04-27T13:15:33Z</time>
      </trkpt>
      <trkpt lat="45.85952" lon="6.45209">
        <ele>2232.7</ele>
        <time>2024-04-27T13:15:34Z</time>
      </trkpt>
      <trkpt lat="45.85952" lon="6.45209">
        <ele>2232.7</ele>
        <time>2024-04-27T13:15:35Z</time>
      </trkpt>
      <trkpt lat="45.85952" lon="6.45209">
        <ele>2232.7</ele>
        <time>2024-04-27T13:15:36Z</time>
      </trkpt>
      <trkpt lat="45.85952" lon="6.45209">
        <ele>2232.7</ele>
        <time>2024-04-27T13:15:37Z</time>
      </trkpt>
      <trkpt lat="45.85952" lon="6.45209">
        <ele>2232.7</ele>
        <time>2024-04-27T13:15:38Z</time>
      </trkpt>
      <trkpt lat="45.85952" lon="6.45209">
        <ele>2232.7</ele>
        <time>2024-04-27T13:15:39Z</time>
      </trkpt>
      <trkpt lat="45.85952" lon="6.45209">
        <ele>2232.7</ele>
        <time>2024-04-27T13:15:40Z</time>
      </trkpt>
      <trkpt lat="45.85952" lon="6.45209">
        <ele>2232.7</ele>
        <time>2024-04-27T13:15:41Z</time>
      </trkpt>
      <trkpt lat="45.85952" lon="6.45209">
        <ele>2231.6</ele>
        <time>2024-04-27T13:15:42Z</time>
      </trkpt>
      <trkpt lat="45.85952" lon="6.45209">
        <ele>2231.6</ele>
        <time>2024-04-27T13:15:43Z</time>
      </trkpt>
      <trkpt lat="45.85952" lon="6.45209">
        <ele>2231.6</ele>
        <time>2024-04-27T13:15:44Z</time>
      </trkpt>
      <trkpt lat="45.85952" lon="6.45209">
        <ele>2231.6</ele>
        <time>2024-04-27T13:15:45Z</time>
      </trkpt>
      <trkpt lat="45.85952" lon="6.45209">
        <ele>2231.6</ele>
        <time>2024-04-27T13:15:46Z</time>
      </trkpt>
      <trkpt lat="45.85952" lon="6.45209">
        <ele>2231.6</ele>
        <time>2024-04-27T13:15:47Z</time>
      </trkpt>
      <trkpt lat="45.85952" lon="6.45209">
        <ele>2231.6</ele>
        <time>2024-04-27T13:15:48Z</time>
      </trkpt>
      <trkpt lat="45.85952" lon="6.45209">
        <ele>2231.6</ele>
        <time>2024-04-27T13:15:49Z</time>
      </trkpt>
      <trkpt lat="45.85952" lon="6.45209">
        <ele>2231.6</ele>
        <time>2024-04-27T13:15:50Z</time>
      </trkpt>
      <trkpt lat="45.85952" lon="6.45209">
        <ele>2231.6</ele>
        <time>2024-04-27T13:15:51Z</time>
      </trkpt>
      <trkpt lat="45.85952" lon="6.45209">
        <ele>2231.6</ele>
        <time>2024-04-27T13:15:52Z</time>
      </trkpt>
      <trkpt lat="45.85952" lon="6.45209">
        <ele>2231.6</ele>
        <time>2024-04-27T13:15:53Z</time>
      </trkpt>
      <trkpt lat="45.85952" lon="6.45209">
        <ele>2231.6</ele>
        <time>2024-04-27T13:15:54Z</time>
      </trkpt>
      <trkpt lat="45.85952" lon="6.45209">
        <ele>2231.6</ele>
        <time>2024-04-27T13:15:55Z</time>
      </trkpt>
      <trkpt lat="45.85952" lon="6.45209">
        <ele>2231.6</ele>
        <time>2024-04-27T13:15:56Z</time>
      </trkpt>
      <trkpt lat="45.85952" lon="6.45209">
        <ele>2231.6</ele>
        <time>2024-04-27T13:15:57Z</time>
      </trkpt>
      <trkpt lat="45.85952" lon="6.45209">
        <ele>2231.6</ele>
        <time>2024-04-27T13:15:58Z</time>
      </trkpt>
      <trkpt lat="45.85952" lon="6.45209">
        <ele>2231.6</ele>
        <time>2024-04-27T13:15:59Z</time>
      </trkpt>
      <trkpt lat="45.85952" lon="6.45209">
        <ele>2230.7</ele>
        <time>2024-04-27T13:16:00Z</time>
      </trkpt>
      <trkpt lat="45.85952" lon="6.45209">
        <ele>2230.7</ele>
        <time>2024-04-27T13:16:01Z</time>
      </trkpt>
      <trkpt lat="45.85952" lon="6.45209">
        <ele>2230.7</ele>
        <time>2024-04-27T13:16:02Z</time>
      </trkpt>
      <trkpt lat="45.85952" lon="6.45209">
        <ele>2230.7</ele>
        <time>2024-04-27T13:16:03Z</time>
      </trkpt>
      <trkpt lat="45.85952" lon="6.45209">
        <ele>2230.7</ele>
        <time>2024-04-27T13:16:04Z</time>
      </trkpt>
      <trkpt lat="45.85952" lon="6.45209">
        <ele>2230.7</ele>
        <time>2024-04-27T13:16:05Z</time>
      </trkpt>
      <trkpt lat="45.85952" lon="6.45209">
        <ele>2230.7</ele>
        <time>2024-04-27T13:16:06Z</time>
      </trkpt>
      <trkpt lat="45.85952" lon="6.45209">
        <ele>2230.7</ele>
        <time>2024-04-27T13:16:07Z</time>
      </trkpt>
      <trkpt lat="45.85952" lon="6.45209">
        <ele>2230.7</ele>
        <time>2024-04-27T13:16:08Z</time>
      </trkpt>
      <trkpt lat="45.85952" lon="6.45209">
        <ele>2230.7</ele>
        <time>2024-04-27T13:16:09Z</time>
      </trkpt>
      <trkpt lat="45.85952" lon="6.45209">
        <ele>2230.7</ele>
        <time>2024-04-27T13:16:10Z</time>
      </trkpt>
      <trkpt lat="45.85952" lon="6.45209">
        <ele>2230.7</ele>
        <time>2024-04-27T13:16:11Z</time>
      </trkpt>
      <trkpt lat="45.85952" lon="6.45209">
        <ele>2230.7</ele>
        <time>2024-04-27T13:16:12Z</time>
      </trkpt>
      <trkpt lat="45.85952" lon="6.45209">
        <ele>2230.7</ele>
        <time>2024-04-27T13:16:13Z</time>
      </trkpt>
      <trkpt lat="45.85952" lon="6.45209">
        <ele>2230.7</ele>
        <time>2024-04-27T13:16:14Z</time>
      </trkpt>
      <trkpt lat="45.85952" lon="6.45209">
        <ele>2230.7</ele>
        <time>2024-04-27T13:16:15Z</time>
      </trkpt>
      <trkpt lat="45.85952" lon="6.45209">
        <ele>2230.7</ele>
        <time>2024-04-27T13:16:16Z</time>
      </trkpt>
      <trkpt lat="45.85953" lon="6.45209">
        <ele>2230.7</ele>
        <time>2024-04-27T13:16:17Z</time>
      </trkpt>
      <trkpt lat="45.85953" lon="6.45209">
        <ele>2230.7</ele>
        <time>2024-04-27T13:16:18Z</time>
      </trkpt>
      <trkpt lat="45.85953" lon="6.45209">
        <ele>2230.7</ele>
        <time>2024-04-27T13:16:19Z</time>
      </trkpt>
      <trkpt lat="45.85953" lon="6.45209">
        <ele>2230.7</ele>
        <time>2024-04-27T13:16:20Z</time>
      </trkpt>
      <trkpt lat="45.85953" lon="6.45209">
        <ele>2230.7</ele>
        <time>2024-04-27T13:16:21Z</time>
      </trkpt>
      <trkpt lat="45.85953" lon="6.45209">
        <ele>2230.7</ele>
        <time>2024-04-27T13:16:22Z</time>
      </trkpt>
      <trkpt lat="45.85953" lon="6.45209">
        <ele>2230.7</ele>
        <time>2024-04-27T13:16:23Z</time>
      </trkpt>
      <trkpt lat="45.85953" lon="6.45209">
        <ele>2230.7</ele>
        <time>2024-04-27T13:16:24Z</time>
      </trkpt>
      <trkpt lat="45.85953" lon="6.45209">
        <ele>2230.7</ele>
        <time>2024-04-27T13:16:25Z</time>
      </trkpt>
      <trkpt lat="45.85953" lon="6.45209">
        <ele>2230.7</ele>
        <time>2024-04-27T13:16:26Z</time>
      </trkpt>
      <trkpt lat="45.85953" lon="6.45209">
        <ele>2230.7</ele>
        <time>2024-04-27T13:16:27Z</time>
      </trkpt>
      <trkpt lat="45.85953" lon="6.45209">
        <ele>2230.7</ele>
        <time>2024-04-27T13:16:28Z</time>
      </trkpt>
      <trkpt lat="45.85953" lon="6.45209">
        <ele>2230.7</ele>
        <time>2024-04-27T13:16:29Z</time>
      </trkpt>
      <trkpt lat="45.85953" lon="6.45209">
        <ele>2230.7</ele>
        <time>2024-04-27T13:16:30Z</time>
      </trkpt>
      <trkpt lat="45.85953" lon="6.45209">
        <ele>2230.7</ele>
        <time>2024-04-27T13:16:31Z</time>
      </trkpt>
      <trkpt lat="45.85953" lon="6.45209">
        <ele>2230.7</ele>
        <time>2024-04-27T13:16:32Z</time>
      </trkpt>
      <trkpt lat="45.85953" lon="6.45209">
        <ele>2230.7</ele>
        <time>2024-04-27T13:16:33Z</time>
      </trkpt>
      <trkpt lat="45.85953" lon="6.45209">
        <ele>2230.7</ele>
        <time>2024-04-27T13:16:34Z</time>
      </trkpt>
      <trkpt lat="45.85953" lon="6.45209">
        <ele>2230.7</ele>
        <time>2024-04-27T13:16:35Z</time>
      </trkpt>
      <trkpt lat="45.85953" lon="6.45209">
        <ele>2230.7</ele>
        <time>2024-04-27T13:16:36Z</time>
      </trkpt>
      <trkpt lat="45.85953" lon="6.45209">
        <ele>2230.7</ele>
        <time>2024-04-27T13:16:37Z</time>
      </trkpt>
      <trkpt lat="45.85953" lon="6.45209">
        <ele>2230.7</ele>
        <time>2024-04-27T13:16:38Z</time>
      </trkpt>
      <trkpt lat="45.85953" lon="6.45209">
        <ele>2230.7</ele>
        <time>2024-04-27T13:16:39Z</time>
      </trkpt>
      <trkpt lat="45.85953" lon="6.45209">
        <ele>2230.7</ele>
        <time>2024-04-27T13:16:40Z</time>
      </trkpt>
      <trkpt lat="45.85953" lon="6.45209">
        <ele>2230.7</ele>
        <time>2024-04-27T13:16:41Z</time>
      </trkpt>
      <trkpt lat="45.85953" lon="6.45209">
        <ele>2230.7</ele>
        <time>2024-04-27T13:16:42Z</time>
      </trkpt>
      <trkpt lat="45.85953" lon="6.45209">
        <ele>2230.7</ele>
        <time>2024-04-27T13:16:43Z</time>
      </trkpt>
      <trkpt lat="45.85953" lon="6.45209">
        <ele>2230.7</ele>
        <time>2024-04-27T13:16:44Z</time>
      </trkpt>
      <trkpt lat="45.85953" lon="6.45209">
        <ele>2230.7</ele>
        <time>2024-04-27T13:16:45Z</time>
      </trkpt>
      <trkpt lat="45.85953" lon="6.45209">
        <ele>2230.7</ele>
        <time>2024-04-27T13:16:46Z</time>
      </trkpt>
      <trkpt lat="45.85953" lon="6.45209">
        <ele>2230.7</ele>
        <time>2024-04-27T13:16:47Z</time>
      </trkpt>
      <trkpt lat="45.85953" lon="6.45209">
        <ele>2230.7</ele>
        <time>2024-04-27T13:16:48Z</time>
      </trkpt>
      <trkpt lat="45.85953" lon="6.45209">
        <ele>2230.7</ele>
        <time>2024-04-27T13:16:49Z</time>
      </trkpt>
      <trkpt lat="45.85953" lon="6.45209">
        <ele>2230.7</ele>
        <time>2024-04-27T13:16:50Z</time>
      </trkpt>
      <trkpt lat="45.85953" lon="6.45209">
        <ele>2230.7</ele>
        <time>2024-04-27T13:16:51Z</time>
      </trkpt>
      <trkpt lat="45.85953" lon="6.45209">
        <ele>2230.7</ele>
        <time>2024-04-27T13:16:52Z</time>
      </trkpt>
      <trkpt lat="45.85953" lon="6.45209">
        <ele>2230.7</ele>
        <time>2024-04-27T13:16:53Z</time>
      </trkpt>
      <trkpt lat="45.85953" lon="6.45209">
        <ele>2230.7</ele>
        <time>2024-04-27T13:16:54Z</time>
      </trkpt>
      <trkpt lat="45.85953" lon="6.45209">
        <ele>2230.7</ele>
        <time>2024-04-27T13:16:55Z</time>
      </trkpt>
      <trkpt lat="45.85953" lon="6.45209">
        <ele>2230.7</ele>
        <time>2024-04-27T13:16:56Z</time>
      </trkpt>
      <trkpt lat="45.85953" lon="6.45209">
        <ele>2230.7</ele>
        <time>2024-04-27T13:16:57Z</time>
      </trkpt>
      <trkpt lat="45.85953" lon="6.45209">
        <ele>2230.7</ele>
        <time>2024-04-27T13:16:58Z</time>
      </trkpt>
      <trkpt lat="45.85953" lon="6.45209">
        <ele>2230.7</ele>
        <time>2024-04-27T13:16:59Z</time>
      </trkpt>
      <trkpt lat="45.85953" lon="6.45209">
        <ele>2230.7</ele>
        <time>2024-04-27T13:17:00Z</time>
      </trkpt>
      <trkpt lat="45.85953" lon="6.45209">
        <ele>2230.7</ele>
        <time>2024-04-27T13:17:01Z</time>
      </trkpt>
      <trkpt lat="45.85953" lon="6.45209">
        <ele>2230.7</ele>
        <time>2024-04-27T13:17:02Z</time>
      </trkpt>
      <trkpt lat="45.85953" lon="6.45209">
        <ele>2230.7</ele>
        <time>2024-04-27T13:17:03Z</time>
      </trkpt>
      <trkpt lat="45.85953" lon="6.45209">
        <ele>2230.7</ele>
        <time>2024-04-27T13:17:04Z</time>
      </trkpt>
      <trkpt lat="45.85953" lon="6.45209">
        <ele>2230.7</ele>
        <time>2024-04-27T13:17:05Z</time>
      </trkpt>
      <trkpt lat="45.85953" lon="6.45209">
        <ele>2230.7</ele>
        <time>2024-04-27T13:17:06Z</time>
      </trkpt>
      <trkpt lat="45.85953" lon="6.45209">
        <ele>2230.7</ele>
        <time>2024-04-27T13:17:07Z</time>
      </trkpt>
      <trkpt lat="45.85953" lon="6.45209">
        <ele>2230.7</ele>
        <time>2024-04-27T13:17:08Z</time>
      </trkpt>
      <trkpt lat="45.85953" lon="6.45209">
        <ele>2230.7</ele>
        <time>2024-04-27T13:17:09Z</time>
      </trkpt>
      <trkpt lat="45.85953" lon="6.45209">
        <ele>2230.7</ele>
        <time>2024-04-27T13:17:10Z</time>
      </trkpt>
      <trkpt lat="45.85953" lon="6.45209">
        <ele>2230.7</ele>
        <time>2024-04-27T13:17:11Z</time>
      </trkpt>
      <trkpt lat="45.85953" lon="6.45209">
        <ele>2230.7</ele>
        <time>2024-04-27T13:17:12Z</time>
      </trkpt>
      <trkpt lat="45.85953" lon="6.45209">
        <ele>2230.7</ele>
        <time>2024-04-27T13:17:13Z</time>
      </trkpt>
      <trkpt lat="45.85953" lon="6.45209">
        <ele>2230.7</ele>
        <time>2024-04-27T13:17:14Z</time>
      </trkpt>
      <trkpt lat="45.85953" lon="6.45209">
        <ele>2230.7</ele>
        <time>2024-04-27T13:17:15Z</time>
      </trkpt>
      <trkpt lat="45.85953" lon="6.45209">
        <ele>2231.6</ele>
        <time>2024-04-27T13:17:16Z</time>
      </trkpt>
      <trkpt lat="45.85953" lon="6.45209">
        <ele>2231.6</ele>
        <time>2024-04-27T13:17:17Z</time>
      </trkpt>
      <trkpt lat="45.85953" lon="6.45209">
        <ele>2231.6</ele>
        <time>2024-04-27T13:17:18Z</time>
      </trkpt>
      <trkpt lat="45.85953" lon="6.45209">
        <ele>2231.6</ele>
        <time>2024-04-27T13:17:19Z</time>
      </trkpt>
      <trkpt lat="45.85953" lon="6.45209">
        <ele>2231.6</ele>
        <time>2024-04-27T13:17:20Z</time>
      </trkpt>
      <trkpt lat="45.85953" lon="6.45209">
        <ele>2231.6</ele>
        <time>2024-04-27T13:17:21Z</time>
      </trkpt>
      <trkpt lat="45.85953" lon="6.45209">
        <ele>2231.6</ele>
        <time>2024-04-27T13:17:22Z</time>
      </trkpt>
      <trkpt lat="45.85953" lon="6.45209">
        <ele>2231.6</ele>
        <time>2024-04-27T13:17:23Z</time>
      </trkpt>
      <trkpt lat="45.85953" lon="6.45209">
        <ele>2231.6</ele>
        <time>2024-04-27T13:17:24Z</time>
      </trkpt>
      <trkpt lat="45.85953" lon="6.45209">
        <ele>2231.6</ele>
        <time>2024-04-27T13:17:25Z</time>
      </trkpt>
      <trkpt lat="45.85953" lon="6.45209">
        <ele>2231.6</ele>
        <time>2024-04-27T13:17:26Z</time>
      </trkpt>
      <trkpt lat="45.85953" lon="6.45209">
        <ele>2231.6</ele>
        <time>2024-04-27T13:17:27Z</time>
      </trkpt>
      <trkpt lat="45.85953" lon="6.45209">
        <ele>2231.6</ele>
        <time>2024-04-27T13:17:28Z</time>
      </trkpt>
      <trkpt lat="45.85953" lon="6.45209">
        <ele>2231.6</ele>
        <time>2024-04-27T13:17:29Z</time>
      </trkpt>
      <trkpt lat="45.85953" lon="6.45209">
        <ele>2231.6</ele>
        <time>2024-04-27T13:17:30Z</time>
      </trkpt>
      <trkpt lat="45.85953" lon="6.45209">
        <ele>2231.6</ele>
        <time>2024-04-27T13:17:31Z</time>
      </trkpt>
      <trkpt lat="45.85953" lon="6.45209">
        <ele>2231.6</ele>
        <time>2024-04-27T13:17:32Z</time>
      </trkpt>
      <trkpt lat="45.85953" lon="6.45209">
        <ele>2231.6</ele>
        <time>2024-04-27T13:17:33Z</time>
      </trkpt>
      <trkpt lat="45.85953" lon="6.45209">
        <ele>2231.6</ele>
        <time>2024-04-27T13:17:34Z</time>
      </trkpt>
      <trkpt lat="45.85953" lon="6.45209">
        <ele>2231.6</ele>
        <time>2024-04-27T13:17:35Z</time>
      </trkpt>
      <trkpt lat="45.85953" lon="6.45209">
        <ele>2231.6</ele>
        <time>2024-04-27T13:17:36Z</time>
      </trkpt>
      <trkpt lat="45.85953" lon="6.45209">
        <ele>2231.6</ele>
        <time>2024-04-27T13:17:37Z</time>
      </trkpt>
      <trkpt lat="45.85953" lon="6.45209">
        <ele>2231.6</ele>
        <time>2024-04-27T13:17:38Z</time>
      </trkpt>
      <trkpt lat="45.85953" lon="6.45209">
        <ele>2231.6</ele>
        <time>2024-04-27T13:17:39Z</time>
      </trkpt>
      <trkpt lat="45.85953" lon="6.45209">
        <ele>2231.6</ele>
        <time>2024-04-27T13:17:40Z</time>
      </trkpt>
      <trkpt lat="45.85953" lon="6.45209">
        <ele>2231.6</ele>
        <time>2024-04-27T13:17:41Z</time>
      </trkpt>
      <trkpt lat="45.85953" lon="6.45209">
        <ele>2231.6</ele>
        <time>2024-04-27T13:17:42Z</time>
      </trkpt>
      <trkpt lat="45.85953" lon="6.45209">
        <ele>2231.6</ele>
        <time>2024-04-27T13:17:43Z</time>
      </trkpt>
      <trkpt lat="45.85953" lon="6.45209">
        <ele>2231.6</ele>
        <time>2024-04-27T13:17:44Z</time>
      </trkpt>
      <trkpt lat="45.85953" lon="6.45209">
        <ele>2231.6</ele>
        <time>2024-04-27T13:17:45Z</time>
      </trkpt>
      <trkpt lat="45.85953" lon="6.45209">
        <ele>2231.6</ele>
        <time>2024-04-27T13:17:46Z</time>
      </trkpt>
      <trkpt lat="45.85953" lon="6.45209">
        <ele>2231.6</ele>
        <time>2024-04-27T13:17:47Z</time>
      </trkpt>
      <trkpt lat="45.85953" lon="6.45209">
        <ele>2231.6</ele>
        <time>2024-04-27T13:17:48Z</time>
      </trkpt>
      <trkpt lat="45.85953" lon="6.45209">
        <ele>2231.6</ele>
        <time>2024-04-27T13:17:49Z</time>
      </trkpt>
      <trkpt lat="45.85953" lon="6.45209">
        <ele>2231.6</ele>
        <time>2024-04-27T13:17:50Z</time>
      </trkpt>
      <trkpt lat="45.85953" lon="6.45209">
        <ele>2231.6</ele>
        <time>2024-04-27T13:17:51Z</time>
      </trkpt>
      <trkpt lat="45.85953" lon="6.45209">
        <ele>2231.6</ele>
        <time>2024-04-27T13:17:52Z</time>
      </trkpt>
      <trkpt lat="45.85953" lon="6.45209">
        <ele>2231.6</ele>
        <time>2024-04-27T13:17:53Z</time>
      </trkpt>
      <trkpt lat="45.85953" lon="6.45209">
        <ele>2231.6</ele>
        <time>2024-04-27T13:17:54Z</time>
      </trkpt>
      <trkpt lat="45.85953" lon="6.45209">
        <ele>2231.6</ele>
        <time>2024-04-27T13:17:55Z</time>
      </trkpt>
      <trkpt lat="45.85953" lon="6.45209">
        <ele>2231.6</ele>
        <time>2024-04-27T13:17:56Z</time>
      </trkpt>
      <trkpt lat="45.85953" lon="6.45209">
        <ele>2231.6</ele>
        <time>2024-04-27T13:17:57Z</time>
      </trkpt>
      <trkpt lat="45.85953" lon="6.45209">
        <ele>2231.6</ele>
        <time>2024-04-27T13:17:58Z</time>
      </trkpt>
      <trkpt lat="45.85953" lon="6.45209">
        <ele>2231.6</ele>
        <time>2024-04-27T13:17:59Z</time>
      </trkpt>
      <trkpt lat="45.85953" lon="6.45209">
        <ele>2231.6</ele>
        <time>2024-04-27T13:18:00Z</time>
      </trkpt>
      <trkpt lat="45.85953" lon="6.45209">
        <ele>2231.6</ele>
        <time>2024-04-27T13:18:01Z</time>
      </trkpt>
      <trkpt lat="45.85953" lon="6.45209">
        <ele>2231.6</ele>
        <time>2024-04-27T13:18:02Z</time>
      </trkpt>
      <trkpt lat="45.85953" lon="6.45209">
        <ele>2231.6</ele>
        <time>2024-04-27T13:18:03Z</time>
      </trkpt>
      <trkpt lat="45.85953" lon="6.45209">
        <ele>2231.6</ele>
        <time>2024-04-27T13:18:04Z</time>
      </trkpt>
      <trkpt lat="45.85953" lon="6.45209">
        <ele>2231.6</ele>
        <time>2024-04-27T13:18:05Z</time>
      </trkpt>
      <trkpt lat="45.85953" lon="6.45209">
        <ele>2231.6</ele>
        <time>2024-04-27T13:18:06Z</time>
      </trkpt>
      <trkpt lat="45.85953" lon="6.45209">
        <ele>2231.6</ele>
        <time>2024-04-27T13:18:07Z</time>
      </trkpt>
      <trkpt lat="45.85953" lon="6.45209">
        <ele>2231.6</ele>
        <time>2024-04-27T13:18:08Z</time>
      </trkpt>
      <trkpt lat="45.85953" lon="6.45209">
        <ele>2231.6</ele>
        <time>2024-04-27T13:18:09Z</time>
      </trkpt>
      <trkpt lat="45.85953" lon="6.45209">
        <ele>2231.6</ele>
        <time>2024-04-27T13:18:10Z</time>
      </trkpt>
      <trkpt lat="45.85953" lon="6.45209">
        <ele>2231.6</ele>
        <time>2024-04-27T13:18:11Z</time>
      </trkpt>
      <trkpt lat="45.85953" lon="6.45209">
        <ele>2231.6</ele>
        <time>2024-04-27T13:18:12Z</time>
      </trkpt>
      <trkpt lat="45.85953" lon="6.45209">
        <ele>2231.6</ele>
        <time>2024-04-27T13:18:13Z</time>
      </trkpt>
      <trkpt lat="45.85953" lon="6.45209">
        <ele>2231.6</ele>
        <time>2024-04-27T13:18:14Z</time>
      </trkpt>
      <trkpt lat="45.85953" lon="6.45209">
        <ele>2231.6</ele>
        <time>2024-04-27T13:18:15Z</time>
      </trkpt>
      <trkpt lat="45.85953" lon="6.45209">
        <ele>2231.6</ele>
        <time>2024-04-27T13:18:16Z</time>
      </trkpt>
      <trkpt lat="45.85953" lon="6.45209">
        <ele>2231.6</ele>
        <time>2024-04-27T13:18:17Z</time>
      </trkpt>
      <trkpt lat="45.85953" lon="6.45209">
        <ele>2231.6</ele>
        <time>2024-04-27T13:18:18Z</time>
      </trkpt>
      <trkpt lat="45.85953" lon="6.45209">
        <ele>2231.6</ele>
        <time>2024-04-27T13:18:19Z</time>
      </trkpt>
      <trkpt lat="45.85953" lon="6.45209">
        <ele>2231.6</ele>
        <time>2024-04-27T13:18:20Z</time>
      </trkpt>
      <trkpt lat="45.85953" lon="6.45209">
        <ele>2231.6</ele>
        <time>2024-04-27T13:18:21Z</time>
      </trkpt>
      <trkpt lat="45.85953" lon="6.45209">
        <ele>2231.6</ele>
        <time>2024-04-27T13:18:22Z</time>
      </trkpt>
      <trkpt lat="45.85953" lon="6.45209">
        <ele>2231.6</ele>
        <time>2024-04-27T13:18:23Z</time>
      </trkpt>
      <trkpt lat="45.85953" lon="6.45209">
        <ele>2231.6</ele>
        <time>2024-04-27T13:18:24Z</time>
      </trkpt>
      <trkpt lat="45.85953" lon="6.45209">
        <ele>2231.6</ele>
        <time>2024-04-27T13:18:25Z</time>
      </trkpt>
      <trkpt lat="45.85953" lon="6.45209">
        <ele>2231.6</ele>
        <time>2024-04-27T13:18:26Z</time>
      </trkpt>
      <trkpt lat="45.85953" lon="6.45209">
        <ele>2231.6</ele>
        <time>2024-04-27T13:18:27Z</time>
      </trkpt>
      <trkpt lat="45.85953" lon="6.45209">
        <ele>2231.6</ele>
        <time>2024-04-27T13:18:28Z</time>
      </trkpt>
      <trkpt lat="45.85953" lon="6.45209">
        <ele>2231.6</ele>
        <time>2024-04-27T13:18:29Z</time>
      </trkpt>
      <trkpt lat="45.85953" lon="6.45209">
        <ele>2231.6</ele>
        <time>2024-04-27T13:18:30Z</time>
      </trkpt>
      <trkpt lat="45.85953" lon="6.45209">
        <ele>2231.6</ele>
        <time>2024-04-27T13:18:31Z</time>
      </trkpt>
      <trkpt lat="45.85953" lon="6.45209">
        <ele>2231.6</ele>
        <time>2024-04-27T13:18:32Z</time>
      </trkpt>
      <trkpt lat="45.85953" lon="6.45209">
        <ele>2231.6</ele>
        <time>2024-04-27T13:18:33Z</time>
      </trkpt>
      <trkpt lat="45.85953" lon="6.45209">
        <ele>2231.6</ele>
        <time>2024-04-27T13:18:34Z</time>
      </trkpt>
      <trkpt lat="45.85953" lon="6.45209">
        <ele>2231.6</ele>
        <time>2024-04-27T13:18:35Z</time>
      </trkpt>
      <trkpt lat="45.85953" lon="6.45209">
        <ele>2231.6</ele>
        <time>2024-04-27T13:18:36Z</time>
      </trkpt>
      <trkpt lat="45.85953" lon="6.45209">
        <ele>2231.6</ele>
        <time>2024-04-27T13:18:37Z</time>
      </trkpt>
      <trkpt lat="45.85953" lon="6.45209">
        <ele>2231.6</ele>
        <time>2024-04-27T13:18:38Z</time>
      </trkpt>
      <trkpt lat="45.85953" lon="6.45209">
        <ele>2231.6</ele>
        <time>2024-04-27T13:18:39Z</time>
      </trkpt>
      <trkpt lat="45.85953" lon="6.45209">
        <ele>2231.6</ele>
        <time>2024-04-27T13:18:40Z</time>
      </trkpt>
      <trkpt lat="45.85953" lon="6.45209">
        <ele>2231.6</ele>
        <time>2024-04-27T13:18:41Z</time>
      </trkpt>
      <trkpt lat="45.85953" lon="6.45209">
        <ele>2231.6</ele>
        <time>2024-04-27T13:18:42Z</time>
      </trkpt>
      <trkpt lat="45.85953" lon="6.45209">
        <ele>2231.6</ele>
        <time>2024-04-27T13:18:43Z</time>
      </trkpt>
      <trkpt lat="45.85953" lon="6.45209">
        <ele>2231.6</ele>
        <time>2024-04-27T13:18:44Z</time>
      </trkpt>
      <trkpt lat="45.85953" lon="6.45209">
        <ele>2231.6</ele>
        <time>2024-04-27T13:18:45Z</time>
      </trkpt>
      <trkpt lat="45.85953" lon="6.45209">
        <ele>2231.6</ele>
        <time>2024-04-27T13:18:46Z</time>
      </trkpt>
      <trkpt lat="45.85953" lon="6.45209">
        <ele>2231.6</ele>
        <time>2024-04-27T13:18:47Z</time>
      </trkpt>
      <trkpt lat="45.85953" lon="6.45209">
        <ele>2231.6</ele>
        <time>2024-04-27T13:18:48Z</time>
      </trkpt>
      <trkpt lat="45.85953" lon="6.45209">
        <ele>2231.6</ele>
        <time>2024-04-27T13:18:49Z</time>
      </trkpt>
      <trkpt lat="45.85953" lon="6.45209">
        <ele>2231.6</ele>
        <time>2024-04-27T13:18:50Z</time>
      </trkpt>
      <trkpt lat="45.85953" lon="6.45209">
        <ele>2231.6</ele>
        <time>2024-04-27T13:18:51Z</time>
      </trkpt>
      <trkpt lat="45.85953" lon="6.45209">
        <ele>2231.6</ele>
        <time>2024-04-27T13:18:52Z</time>
      </trkpt>
      <trkpt lat="45.85953" lon="6.45209">
        <ele>2231.6</ele>
        <time>2024-04-27T13:18:53Z</time>
      </trkpt>
      <trkpt lat="45.85953" lon="6.45209">
        <ele>2231.6</ele>
        <time>2024-04-27T13:18:54Z</time>
      </trkpt>
      <trkpt lat="45.85953" lon="6.45209">
        <ele>2231.6</ele>
        <time>2024-04-27T13:18:55Z</time>
      </trkpt>
      <trkpt lat="45.85953" lon="6.45209">
        <ele>2230.7</ele>
        <time>2024-04-27T13:18:56Z</time>
      </trkpt>
      <trkpt lat="45.85953" lon="6.45209">
        <ele>2230.7</ele>
        <time>2024-04-27T13:18:57Z</time>
      </trkpt>
      <trkpt lat="45.85953" lon="6.45209">
        <ele>2230.7</ele>
        <time>2024-04-27T13:18:58Z</time>
      </trkpt>
      <trkpt lat="45.85953" lon="6.45209">
        <ele>2230.7</ele>
        <time>2024-04-27T13:18:59Z</time>
      </trkpt>
      <trkpt lat="45.85953" lon="6.45209">
        <ele>2230.7</ele>
        <time>2024-04-27T13:19:00Z</time>
      </trkpt>
      <trkpt lat="45.85953" lon="6.45209">
        <ele>2230.7</ele>
        <time>2024-04-27T13:19:01Z</time>
      </trkpt>
      <trkpt lat="45.85953" lon="6.45209">
        <ele>2230.7</ele>
        <time>2024-04-27T13:19:02Z</time>
      </trkpt>
      <trkpt lat="45.85953" lon="6.45209">
        <ele>2230.7</ele>
        <time>2024-04-27T13:19:03Z</time>
      </trkpt>
      <trkpt lat="45.85953" lon="6.45209">
        <ele>2230.7</ele>
        <time>2024-04-27T13:19:04Z</time>
      </trkpt>
      <trkpt lat="45.85953" lon="6.45209">
        <ele>2230.7</ele>
        <time>2024-04-27T13:19:05Z</time>
      </trkpt>
      <trkpt lat="45.85953" lon="6.45209">
        <ele>2230.7</ele>
        <time>2024-04-27T13:19:06Z</time>
      </trkpt>
      <trkpt lat="45.85953" lon="6.45209">
        <ele>2230.7</ele>
        <time>2024-04-27T13:19:07Z</time>
      </trkpt>
      <trkpt lat="45.85953" lon="6.45209">
        <ele>2230.7</ele>
        <time>2024-04-27T13:19:08Z</time>
      </trkpt>
      <trkpt lat="45.85953" lon="6.45209">
        <ele>2230.7</ele>
        <time>2024-04-27T13:19:09Z</time>
      </trkpt>
      <trkpt lat="45.85953" lon="6.45209">
        <ele>2230.7</ele>
        <time>2024-04-27T13:19:10Z</time>
      </trkpt>
      <trkpt lat="45.85953" lon="6.45209">
        <ele>2230.7</ele>
        <time>2024-04-27T13:19:11Z</time>
      </trkpt>
      <trkpt lat="45.85953" lon="6.45209">
        <ele>2230.7</ele>
        <time>2024-04-27T13:19:12Z</time>
      </trkpt>
      <trkpt lat="45.85953" lon="6.45209">
        <ele>2230.7</ele>
        <time>2024-04-27T13:19:13Z</time>
      </trkpt>
      <trkpt lat="45.85953" lon="6.45209">
        <ele>2230.7</ele>
        <time>2024-04-27T13:19:14Z</time>
      </trkpt>
      <trkpt lat="45.85952" lon="6.45208">
        <ele>2230.7</ele>
        <time>2024-04-27T13:19:15Z</time>
      </trkpt>
      <trkpt lat="45.85952" lon="6.45208">
        <ele>2230.7</ele>
        <time>2024-04-27T13:19:16Z</time>
      </trkpt>
      <trkpt lat="45.85952" lon="6.45208">
        <ele>2230.7</ele>
        <time>2024-04-27T13:19:17Z</time>
      </trkpt>
      <trkpt lat="45.85952" lon="6.45208">
        <ele>2230.7</ele>
        <time>2024-04-27T13:19:18Z</time>
      </trkpt>
      <trkpt lat="45.85952" lon="6.45208">
        <ele>2230.7</ele>
        <time>2024-04-27T13:19:19Z</time>
      </trkpt>
      <trkpt lat="45.85952" lon="6.45208">
        <ele>2231.6</ele>
        <time>2024-04-27T13:19:20Z</time>
      </trkpt>
      <trkpt lat="45.85952" lon="6.45208">
        <ele>2231.6</ele>
        <time>2024-04-27T13:19:21Z</time>
      </trkpt>
      <trkpt lat="45.85952" lon="6.45205">
        <ele>2231.6</ele>
        <time>2024-04-27T13:19:22Z</time>
      </trkpt>
      <trkpt lat="45.85951" lon="6.45205">
        <ele>2231.6</ele>
        <time>2024-04-27T13:19:23Z</time>
      </trkpt>
      <trkpt lat="45.85951" lon="6.45205">
        <ele>2231.6</ele>
        <time>2024-04-27T13:19:24Z</time>
      </trkpt>
      <trkpt lat="45.85951" lon="6.45205">
        <ele>2231.6</ele>
        <time>2024-04-27T13:19:25Z</time>
      </trkpt>
      <trkpt lat="45.85951" lon="6.45205">
        <ele>2231.6</ele>
        <time>2024-04-27T13:19:26Z</time>
      </trkpt>
      <trkpt lat="45.85951" lon="6.45205">
        <ele>2231.6</ele>
        <time>2024-04-27T13:19:27Z</time>
      </trkpt>
      <trkpt lat="45.85951" lon="6.45205">
        <ele>2231.6</ele>
        <time>2024-04-27T13:19:28Z</time>
      </trkpt>
      <trkpt lat="45.85951" lon="6.45205">
        <ele>2231.6</ele>
        <time>2024-04-27T13:19:29Z</time>
      </trkpt>
      <trkpt lat="45.85951" lon="6.45205">
        <ele>2231.6</ele>
        <time>2024-04-27T13:19:30Z</time>
      </trkpt>
      <trkpt lat="45.85951" lon="6.45205">
        <ele>2231.6</ele>
        <time>2024-04-27T13:19:31Z</time>
      </trkpt>
      <trkpt lat="45.85951" lon="6.45205">
        <ele>2231.6</ele>
        <time>2024-04-27T13:19:32Z</time>
      </trkpt>
      <trkpt lat="45.85951" lon="6.45205">
        <ele>2231.6</ele>
        <time>2024-04-27T13:19:33Z</time>
      </trkpt>
      <trkpt lat="45.85951" lon="6.45204">
        <ele>2231.6</ele>
        <time>2024-04-27T13:19:34Z</time>
      </trkpt>
      <trkpt lat="45.85951" lon="6.45204">
        <ele>2231.6</ele>
        <time>2024-04-27T13:19:35Z</time>
      </trkpt>
      <trkpt lat="45.85951" lon="6.45204">
        <ele>2231.6</ele>
        <time>2024-04-27T13:19:36Z</time>
      </trkpt>
      <trkpt lat="45.85951" lon="6.45204">
        <ele>2231.6</ele>
        <time>2024-04-27T13:19:37Z</time>
      </trkpt>
      <trkpt lat="45.85951" lon="6.45204">
        <ele>2231.6</ele>
        <time>2024-04-27T13:19:38Z</time>
      </trkpt>
      <trkpt lat="45.85951" lon="6.45204">
        <ele>2231.6</ele>
        <time>2024-04-27T13:19:39Z</time>
      </trkpt>
      <trkpt lat="45.85951" lon="6.45204">
        <ele>2231.6</ele>
        <time>2024-04-27T13:19:40Z</time>
      </trkpt>
      <trkpt lat="45.85951" lon="6.45204">
        <ele>2231.6</ele>
        <time>2024-04-27T13:19:41Z</time>
      </trkpt>
      <trkpt lat="45.85951" lon="6.45204">
        <ele>2231.6</ele>
        <time>2024-04-27T13:19:42Z</time>
      </trkpt>
      <trkpt lat="45.85951" lon="6.45204">
        <ele>2231.6</ele>
        <time>2024-04-27T13:19:43Z</time>
      </trkpt>
      <trkpt lat="45.85951" lon="6.45204">
        <ele>2231.6</ele>
        <time>2024-04-27T13:19:44Z</time>
      </trkpt>
      <trkpt lat="45.85951" lon="6.45204">
        <ele>2231.6</ele>
        <time>2024-04-27T13:19:45Z</time>
      </trkpt>
      <trkpt lat="45.85951" lon="6.45204">
        <ele>2231.6</ele>
        <time>2024-04-27T13:19:46Z</time>
      </trkpt>
      <trkpt lat="45.85951" lon="6.45204">
        <ele>2231.6</ele>
        <time>2024-04-27T13:19:47Z</time>
      </trkpt>
      <trkpt lat="45.85951" lon="6.45204">
        <ele>2231.6</ele>
        <time>2024-04-27T13:19:48Z</time>
      </trkpt>
      <trkpt lat="45.85951" lon="6.45204">
        <ele>2231.6</ele>
        <time>2024-04-27T13:19:49Z</time>
      </trkpt>
      <trkpt lat="45.85951" lon="6.45204">
        <ele>2231.6</ele>
        <time>2024-04-27T13:19:50Z</time>
      </trkpt>
      <trkpt lat="45.85951" lon="6.45204">
        <ele>2231.6</ele>
        <time>2024-04-27T13:19:51Z</time>
      </trkpt>
      <trkpt lat="45.85951" lon="6.45204">
        <ele>2231.6</ele>
        <time>2024-04-27T13:19:52Z</time>
      </trkpt>
      <trkpt lat="45.85951" lon="6.45204">
        <ele>2231.6</ele>
        <time>2024-04-27T13:19:53Z</time>
      </trkpt>
      <trkpt lat="45.85951" lon="6.45203">
        <ele>2231.6</ele>
        <time>2024-04-27T13:19:54Z</time>
      </trkpt>
      <trkpt lat="45.85951" lon="6.45203">
        <ele>2231.6</ele>
        <time>2024-04-27T13:19:55Z</time>
      </trkpt>
      <trkpt lat="45.85951" lon="6.45203">
        <ele>2231.6</ele>
        <time>2024-04-27T13:19:56Z</time>
      </trkpt>
      <trkpt lat="45.85951" lon="6.45203">
        <ele>2231.6</ele>
        <time>2024-04-27T13:19:57Z</time>
      </trkpt>
      <trkpt lat="45.85951" lon="6.45203">
        <ele>2231.6</ele>
        <time>2024-04-27T13:19:58Z</time>
      </trkpt>
      <trkpt lat="45.85951" lon="6.45202">
        <ele>2231.6</ele>
        <time>2024-04-27T13:19:59Z</time>
      </trkpt>
      <trkpt lat="45.85951" lon="6.45201">
        <ele>2231.6</ele>
        <time>2024-04-27T13:20:00Z</time>
      </trkpt>
      <trkpt lat="45.85951" lon="6.45201">
        <ele>2231.6</ele>
        <time>2024-04-27T13:20:01Z</time>
      </trkpt>
      <trkpt lat="45.85951" lon="6.45201">
        <ele>2231.6</ele>
        <time>2024-04-27T13:20:02Z</time>
      </trkpt>
      <trkpt lat="45.85951" lon="6.45201">
        <ele>2231.6</ele>
        <time>2024-04-27T13:20:03Z</time>
      </trkpt>
      <trkpt lat="45.85951" lon="6.45201">
        <ele>2231.6</ele>
        <time>2024-04-27T13:20:04Z</time>
      </trkpt>
      <trkpt lat="45.85951" lon="6.45201">
        <ele>2231.6</ele>
        <time>2024-04-27T13:20:05Z</time>
      </trkpt>
      <trkpt lat="45.85951" lon="6.45201">
        <ele>2231.6</ele>
        <time>2024-04-27T13:20:06Z</time>
      </trkpt>
      <trkpt lat="45.85951" lon="6.45201">
        <ele>2231.6</ele>
        <time>2024-04-27T13:20:07Z</time>
      </trkpt>
      <trkpt lat="45.85951" lon="6.45201">
        <ele>2231.6</ele>
        <time>2024-04-27T13:20:08Z</time>
      </trkpt>
      <trkpt lat="45.85951" lon="6.45201">
        <ele>2231.6</ele>
        <time>2024-04-27T13:20:09Z</time>
      </trkpt>
      <trkpt lat="45.85951" lon="6.45201">
        <ele>2232.7</ele>
        <time>2024-04-27T13:20:10Z</time>
      </trkpt>
      <trkpt lat="45.85951" lon="6.45201">
        <ele>2232.7</ele>
        <time>2024-04-27T13:20:11Z</time>
      </trkpt>
      <trkpt lat="45.85951" lon="6.45201">
        <ele>2232.7</ele>
        <time>2024-04-27T13:20:12Z</time>
      </trkpt>
      <trkpt lat="45.85951" lon="6.45201">
        <ele>2232.7</ele>
        <time>2024-04-27T13:20:13Z</time>
      </trkpt>
      <trkpt lat="45.85951" lon="6.45201">
        <ele>2232.7</ele>
        <time>2024-04-27T13:20:14Z</time>
      </trkpt>
      <trkpt lat="45.85951" lon="6.45201">
        <ele>2232.7</ele>
        <time>2024-04-27T13:20:15Z</time>
      </trkpt>
      <trkpt lat="45.85951" lon="6.45201">
        <ele>2232.7</ele>
        <time>2024-04-27T13:20:16Z</time>
      </trkpt>
      <trkpt lat="45.85951" lon="6.45201">
        <ele>2232.7</ele>
        <time>2024-04-27T13:20:17Z</time>
      </trkpt>
      <trkpt lat="45.85951" lon="6.45201">
        <ele>2232.7</ele>
        <time>2024-04-27T13:20:18Z</time>
      </trkpt>
      <trkpt lat="45.85951" lon="6.45202">
        <ele>2232.7</ele>
        <time>2024-04-27T13:20:19Z</time>
      </trkpt>
      <trkpt lat="45.85951" lon="6.45202">
        <ele>2232.7</ele>
        <time>2024-04-27T13:20:20Z</time>
      </trkpt>
      <trkpt lat="45.85951" lon="6.45202">
        <ele>2232.7</ele>
        <time>2024-04-27T13:20:21Z</time>
      </trkpt>
      <trkpt lat="45.85951" lon="6.45202">
        <ele>2232.7</ele>
        <time>2024-04-27T13:20:22Z</time>
      </trkpt>
      <trkpt lat="45.85951" lon="6.45202">
        <ele>2232.7</ele>
        <time>2024-04-27T13:20:23Z</time>
      </trkpt>
      <trkpt lat="45.85951" lon="6.45202">
        <ele>2232.7</ele>
        <time>2024-04-27T13:20:24Z</time>
      </trkpt>
      <trkpt lat="45.85951" lon="6.45202">
        <ele>2232.7</ele>
        <time>2024-04-27T13:20:25Z</time>
      </trkpt>
      <trkpt lat="45.85951" lon="6.45202">
        <ele>2232.7</ele>
        <time>2024-04-27T13:20:26Z</time>
      </trkpt>
      <trkpt lat="45.85951" lon="6.45202">
        <ele>2232.7</ele>
        <time>2024-04-27T13:20:27Z</time>
      </trkpt>
      <trkpt lat="45.85951" lon="6.45202">
        <ele>2232.7</ele>
        <time>2024-04-27T13:20:28Z</time>
      </trkpt>
      <trkpt lat="45.85951" lon="6.45202">
        <ele>2232.7</ele>
        <time>2024-04-27T13:20:29Z</time>
      </trkpt>
      <trkpt lat="45.85951" lon="6.45202">
        <ele>2232.7</ele>
        <time>2024-04-27T13:20:30Z</time>
      </trkpt>
      <trkpt lat="45.85951" lon="6.45202">
        <ele>2232.7</ele>
        <time>2024-04-27T13:20:31Z</time>
      </trkpt>
      <trkpt lat="45.85951" lon="6.45202">
        <ele>2232.7</ele>
        <time>2024-04-27T13:20:32Z</time>
      </trkpt>
      <trkpt lat="45.85951" lon="6.45202">
        <ele>2232.7</ele>
        <time>2024-04-27T13:20:33Z</time>
      </trkpt>
      <trkpt lat="45.85951" lon="6.45202">
        <ele>2232.7</ele>
        <time>2024-04-27T13:20:34Z</time>
      </trkpt>
      <trkpt lat="45.85951" lon="6.45202">
        <ele>2232.7</ele>
        <time>2024-04-27T13:20:35Z</time>
      </trkpt>
      <trkpt lat="45.85951" lon="6.45202">
        <ele>2232.7</ele>
        <time>2024-04-27T13:20:36Z</time>
      </trkpt>
      <trkpt lat="45.85951" lon="6.45201">
        <ele>2232.7</ele>
        <time>2024-04-27T13:20:37Z</time>
      </trkpt>
      <trkpt lat="45.85951" lon="6.45201">
        <ele>2232.7</ele>
        <time>2024-04-27T13:20:38Z</time>
      </trkpt>
      <trkpt lat="45.85951" lon="6.45201">
        <ele>2232.7</ele>
        <time>2024-04-27T13:20:39Z</time>
      </trkpt>
      <trkpt lat="45.85951" lon="6.45201">
        <ele>2232.7</ele>
        <time>2024-04-27T13:20:40Z</time>
      </trkpt>
      <trkpt lat="45.85951" lon="6.45201">
        <ele>2232.7</ele>
        <time>2024-04-27T13:20:41Z</time>
      </trkpt>
      <trkpt lat="45.85951" lon="6.45201">
        <ele>2232.7</ele>
        <time>2024-04-27T13:20:42Z</time>
      </trkpt>
      <trkpt lat="45.85951" lon="6.45201">
        <ele>2232.7</ele>
        <time>2024-04-27T13:20:43Z</time>
      </trkpt>
      <trkpt lat="45.85951" lon="6.45201">
        <ele>2232.7</ele>
        <time>2024-04-27T13:20:44Z</time>
      </trkpt>
      <trkpt lat="45.85951" lon="6.45201">
        <ele>2232.7</ele>
        <time>2024-04-27T13:20:45Z</time>
      </trkpt>
      <trkpt lat="45.85951" lon="6.45201">
        <ele>2232.7</ele>
        <time>2024-04-27T13:20:46Z</time>
      </trkpt>
      <trkpt lat="45.85951" lon="6.45201">
        <ele>2232.7</ele>
        <time>2024-04-27T13:20:47Z</time>
      </trkpt>
      <trkpt lat="45.85951" lon="6.45201">
        <ele>2232.7</ele>
        <time>2024-04-27T13:20:48Z</time>
      </trkpt>
      <trkpt lat="45.85951" lon="6.452">
        <ele>2232.7</ele>
        <time>2024-04-27T13:20:49Z</time>
      </trkpt>
      <trkpt lat="45.85951" lon="6.452">
        <ele>2232.7</ele>
        <time>2024-04-27T13:20:50Z</time>
      </trkpt>
      <trkpt lat="45.85951" lon="6.452">
        <ele>2232.7</ele>
        <time>2024-04-27T13:20:51Z</time>
      </trkpt>
      <trkpt lat="45.85951" lon="6.452">
        <ele>2232.7</ele>
        <time>2024-04-27T13:20:52Z</time>
      </trkpt>
      <trkpt lat="45.85951" lon="6.452">
        <ele>2232.7</ele>
        <time>2024-04-27T13:20:53Z</time>
      </trkpt>
      <trkpt lat="45.85951" lon="6.452">
        <ele>2232.7</ele>
        <time>2024-04-27T13:20:54Z</time>
      </trkpt>
      <trkpt lat="45.85951" lon="6.452">
        <ele>2232.7</ele>
        <time>2024-04-27T13:20:55Z</time>
      </trkpt>
      <trkpt lat="45.85951" lon="6.452">
        <ele>2231.6</ele>
        <time>2024-04-27T13:20:56Z</time>
      </trkpt>
      <trkpt lat="45.85952" lon="6.452">
        <ele>2231.6</ele>
        <time>2024-04-27T13:20:57Z</time>
      </trkpt>
      <trkpt lat="45.85952" lon="6.452">
        <ele>2231.6</ele>
        <time>2024-04-27T13:20:58Z</time>
      </trkpt>
      <trkpt lat="45.85952" lon="6.452">
        <ele>2231.6</ele>
        <time>2024-04-27T13:20:59Z</time>
      </trkpt>
      <trkpt lat="45.85952" lon="6.452">
        <ele>2231.6</ele>
        <time>2024-04-27T13:21:00Z</time>
      </trkpt>
      <trkpt lat="45.85952" lon="6.452">
        <ele>2231.6</ele>
        <time>2024-04-27T13:21:01Z</time>
      </trkpt>
      <trkpt lat="45.85952" lon="6.452">
        <ele>2231.6</ele>
        <time>2024-04-27T13:21:02Z</time>
      </trkpt>
      <trkpt lat="45.85952" lon="6.452">
        <ele>2231.6</ele>
        <time>2024-04-27T13:21:03Z</time>
      </trkpt>
      <trkpt lat="45.85952" lon="6.452">
        <ele>2231.6</ele>
        <time>2024-04-27T13:21:04Z</time>
      </trkpt>
      <trkpt lat="45.85952" lon="6.452">
        <ele>2231.6</ele>
        <time>2024-04-27T13:21:05Z</time>
      </trkpt>
      <trkpt lat="45.85952" lon="6.452">
        <ele>2231.6</ele>
        <time>2024-04-27T13:21:06Z</time>
      </trkpt>
      <trkpt lat="45.85952" lon="6.452">
        <ele>2231.6</ele>
        <time>2024-04-27T13:21:07Z</time>
      </trkpt>
      <trkpt lat="45.85952" lon="6.452">
        <ele>2231.6</ele>
        <time>2024-04-27T13:21:08Z</time>
      </trkpt>
      <trkpt lat="45.85952" lon="6.452">
        <ele>2231.6</ele>
        <time>2024-04-27T13:21:09Z</time>
      </trkpt>
      <trkpt lat="45.85952" lon="6.452">
        <ele>2231.6</ele>
        <time>2024-04-27T13:21:10Z</time>
      </trkpt>
      <trkpt lat="45.85952" lon="6.452">
        <ele>2231.6</ele>
        <time>2024-04-27T13:21:11Z</time>
      </trkpt>
      <trkpt lat="45.85952" lon="6.452">
        <ele>2231.6</ele>
        <time>2024-04-27T13:21:12Z</time>
      </trkpt>
      <trkpt lat="45.85952" lon="6.45201">
        <ele>2231.6</ele>
        <time>2024-04-27T13:21:13Z</time>
      </trkpt>
      <trkpt lat="45.85952" lon="6.45201">
        <ele>2231.6</ele>
        <time>2024-04-27T13:21:14Z</time>
      </trkpt>
      <trkpt lat="45.85952" lon="6.45201">
        <ele>2231.6</ele>
        <time>2024-04-27T13:21:15Z</time>
      </trkpt>
      <trkpt lat="45.85952" lon="6.45201">
        <ele>2231.6</ele>
        <time>2024-04-27T13:21:16Z</time>
      </trkpt>
      <trkpt lat="45.85952" lon="6.45201">
        <ele>2231.6</ele>
        <time>2024-04-27T13:21:17Z</time>
      </trkpt>
      <trkpt lat="45.85952" lon="6.45201">
        <ele>2231.6</ele>
        <time>2024-04-27T13:21:18Z</time>
      </trkpt>
      <trkpt lat="45.85952" lon="6.45201">
        <ele>2231.6</ele>
        <time>2024-04-27T13:21:19Z</time>
      </trkpt>
      <trkpt lat="45.85952" lon="6.45202">
        <ele>2231.6</ele>
        <time>2024-04-27T13:21:20Z</time>
      </trkpt>
      <trkpt lat="45.85952" lon="6.45203">
        <ele>2231.6</ele>
        <time>2024-04-27T13:21:21Z</time>
      </trkpt>
      <trkpt lat="45.85951" lon="6.45203">
        <ele>2231.6</ele>
        <time>2024-04-27T13:21:22Z</time>
      </trkpt>
      <trkpt lat="45.85951" lon="6.45204">
        <ele>2231.6</ele>
        <time>2024-04-27T13:21:23Z</time>
      </trkpt>
      <trkpt lat="45.85951" lon="6.45204">
        <ele>2231.6</ele>
        <time>2024-04-27T13:21:24Z</time>
      </trkpt>
      <trkpt lat="45.85951" lon="6.45204">
        <ele>2231.6</ele>
        <time>2024-04-27T13:21:25Z</time>
      </trkpt>
      <trkpt lat="45.85951" lon="6.45204">
        <ele>2231.6</ele>
        <time>2024-04-27T13:21:26Z</time>
      </trkpt>
      <trkpt lat="45.85951" lon="6.45204">
        <ele>2231.6</ele>
        <time>2024-04-27T13:21:27Z</time>
      </trkpt>
      <trkpt lat="45.85951" lon="6.45204">
        <ele>2231.6</ele>
        <time>2024-04-27T13:21:28Z</time>
      </trkpt>
      <trkpt lat="45.85951" lon="6.45204">
        <ele>2231.6</ele>
        <time>2024-04-27T13:21:29Z</time>
      </trkpt>
      <trkpt lat="45.85951" lon="6.45205">
        <ele>2231.6</ele>
        <time>2024-04-27T13:21:30Z</time>
      </trkpt>
      <trkpt lat="45.85951" lon="6.45205">
        <ele>2231.6</ele>
        <time>2024-04-27T13:21:31Z</time>
      </trkpt>
      <trkpt lat="45.85951" lon="6.45205">
        <ele>2231.6</ele>
        <time>2024-04-27T13:21:32Z</time>
      </trkpt>
      <trkpt lat="45.85951" lon="6.45205">
        <ele>2231.6</ele>
        <time>2024-04-27T13:21:33Z</time>
      </trkpt>
      <trkpt lat="45.85951" lon="6.45205">
        <ele>2231.6</ele>
        <time>2024-04-27T13:21:34Z</time>
      </trkpt>
      <trkpt lat="45.85951" lon="6.45205">
        <ele>2231.6</ele>
        <time>2024-04-27T13:21:35Z</time>
      </trkpt>
      <trkpt lat="45.85951" lon="6.45205">
        <ele>2231.6</ele>
        <time>2024-04-27T13:21:36Z</time>
      </trkpt>
      <trkpt lat="45.85951" lon="6.45205">
        <ele>2231.6</ele>
        <time>2024-04-27T13:21:37Z</time>
      </trkpt>
      <trkpt lat="45.85951" lon="6.45205">
        <ele>2231.6</ele>
        <time>2024-04-27T13:21:38Z</time>
      </trkpt>
      <trkpt lat="45.85951" lon="6.45205">
        <ele>2231.6</ele>
        <time>2024-04-27T13:21:39Z</time>
      </trkpt>
      <trkpt lat="45.85951" lon="6.45205">
        <ele>2231.6</ele>
        <time>2024-04-27T13:21:40Z</time>
      </trkpt>
      <trkpt lat="45.85951" lon="6.45205">
        <ele>2231.6</ele>
        <time>2024-04-27T13:21:41Z</time>
      </trkpt>
      <trkpt lat="45.85951" lon="6.45205">
        <ele>2231.6</ele>
        <time>2024-04-27T13:21:42Z</time>
      </trkpt>
      <trkpt lat="45.85951" lon="6.45205">
        <ele>2231.6</ele>
        <time>2024-04-27T13:21:43Z</time>
      </trkpt>
      <trkpt lat="45.85951" lon="6.45205">
        <ele>2231.6</ele>
        <time>2024-04-27T13:21:44Z</time>
      </trkpt>
      <trkpt lat="45.85951" lon="6.45205">
        <ele>2231.6</ele>
        <time>2024-04-27T13:21:45Z</time>
      </trkpt>
      <trkpt lat="45.85951" lon="6.45205">
        <ele>2231.6</ele>
        <time>2024-04-27T13:21:46Z</time>
      </trkpt>
      <trkpt lat="45.85951" lon="6.45205">
        <ele>2231.6</ele>
        <time>2024-04-27T13:21:47Z</time>
      </trkpt>
      <trkpt lat="45.85951" lon="6.45205">
        <ele>2231.6</ele>
        <time>2024-04-27T13:21:48Z</time>
      </trkpt>
      <trkpt lat="45.85951" lon="6.45205">
        <ele>2231.6</ele>
        <time>2024-04-27T13:21:49Z</time>
      </trkpt>
      <trkpt lat="45.85951" lon="6.45206">
        <ele>2231.6</ele>
        <time>2024-04-27T13:21:50Z</time>
      </trkpt>
      <trkpt lat="45.85952" lon="6.45208">
        <ele>2231.6</ele>
        <time>2024-04-27T13:21:51Z</time>
      </trkpt>
      <trkpt lat="45.85952" lon="6.4521">
        <ele>2231.6</ele>
        <time>2024-04-27T13:21:52Z</time>
      </trkpt>
      <trkpt lat="45.85952" lon="6.45212">
        <ele>2231.6</ele>
        <time>2024-04-27T13:21:53Z</time>
      </trkpt>
      <trkpt lat="45.85952" lon="6.45213">
        <ele>2230.7</ele>
        <time>2024-04-27T13:21:54Z</time>
      </trkpt>
      <trkpt lat="45.85952" lon="6.45214">
        <ele>2230.7</ele>
        <time>2024-04-27T13:21:55Z</time>
      </trkpt>
      <trkpt lat="45.85952" lon="6.45216">
        <ele>2230.7</ele>
        <time>2024-04-27T13:21:56Z</time>
      </trkpt>
      <trkpt lat="45.85953" lon="6.45217">
        <ele>2230.7</ele>
        <time>2024-04-27T13:21:57Z</time>
      </trkpt>
      <trkpt lat="45.85953" lon="6.45218">
        <ele>2230.7</ele>
        <time>2024-04-27T13:21:58Z</time>
      </trkpt>
      <trkpt lat="45.85953" lon="6.45219">
        <ele>2230.7</ele>
        <time>2024-04-27T13:21:59Z</time>
      </trkpt>
      <trkpt lat="45.85953" lon="6.45219">
        <ele>2230.7</ele>
        <time>2024-04-27T13:22:00Z</time>
      </trkpt>
      <trkpt lat="45.85954" lon="6.45218">
        <ele>2230.7</ele>
        <time>2024-04-27T13:22:01Z</time>
      </trkpt>
      <trkpt lat="45.85954" lon="6.45218">
        <ele>2230.7</ele>
        <time>2024-04-27T13:22:02Z</time>
      </trkpt>
      <trkpt lat="45.85954" lon="6.45218">
        <ele>2230.7</ele>
        <time>2024-04-27T13:22:03Z</time>
      </trkpt>
      <trkpt lat="45.85954" lon="6.45218">
        <ele>2230.7</ele>
        <time>2024-04-27T13:22:04Z</time>
      </trkpt>
      <trkpt lat="45.85954" lon="6.45218">
        <ele>2230.7</ele>
        <time>2024-04-27T13:22:05Z</time>
      </trkpt>
      <trkpt lat="45.85954" lon="6.45218">
        <ele>2230.7</ele>
        <time>2024-04-27T13:22:06Z</time>
      </trkpt>
      <trkpt lat="45.85954" lon="6.45218">
        <ele>2230.7</ele>
        <time>2024-04-27T13:22:07Z</time>
      </trkpt>
      <trkpt lat="45.85954" lon="6.45218">
        <ele>2230.7</ele>
        <time>2024-04-27T13:22:08Z</time>
      </trkpt>
      <trkpt lat="45.85954" lon="6.45218">
        <ele>2230.7</ele>
        <time>2024-04-27T13:22:09Z</time>
      </trkpt>
      <trkpt lat="45.85954" lon="6.45218">
        <ele>2230.7</ele>
        <time>2024-04-27T13:22:10Z</time>
      </trkpt>
      <trkpt lat="45.85954" lon="6.45218">
        <ele>2230.7</ele>
        <time>2024-04-27T13:22:11Z</time>
      </trkpt>
      <trkpt lat="45.85954" lon="6.45218">
        <ele>2230.7</ele>
        <time>2024-04-27T13:22:12Z</time>
      </trkpt>
      <trkpt lat="45.85954" lon="6.45218">
        <ele>2230.7</ele>
        <time>2024-04-27T13:22:13Z</time>
      </trkpt>
      <trkpt lat="45.85954" lon="6.45218">
        <ele>2230.7</ele>
        <time>2024-04-27T13:22:14Z</time>
      </trkpt>
      <trkpt lat="45.85954" lon="6.45218">
        <ele>2230.7</ele>
        <time>2024-04-27T13:22:15Z</time>
      </trkpt>
      <trkpt lat="45.85954" lon="6.45218">
        <ele>2230.7</ele>
        <time>2024-04-27T13:22:16Z</time>
      </trkpt>
      <trkpt lat="45.85954" lon="6.45219">
        <ele>2230.7</ele>
        <time>2024-04-27T13:22:17Z</time>
      </trkpt>
      <trkpt lat="45.85954" lon="6.45219">
        <ele>2231.6</ele>
        <time>2024-04-27T13:22:18Z</time>
      </trkpt>
      <trkpt lat="45.85954" lon="6.45219">
        <ele>2231.6</ele>
        <time>2024-04-27T13:22:19Z</time>
      </trkpt>
      <trkpt lat="45.85954" lon="6.45219">
        <ele>2231.6</ele>
        <time>2024-04-27T13:22:20Z</time>
      </trkpt>
      <trkpt lat="45.85954" lon="6.45219">
        <ele>2231.6</ele>
        <time>2024-04-27T13:22:21Z</time>
      </trkpt>
      <trkpt lat="45.85954" lon="6.45219">
        <ele>2231.6</ele>
        <time>2024-04-27T13:22:22Z</time>
      </trkpt>
      <trkpt lat="45.85954" lon="6.45219">
        <ele>2231.6</ele>
        <time>2024-04-27T13:22:23Z</time>
      </trkpt>
      <trkpt lat="45.85954" lon="6.45219">
        <ele>2231.6</ele>
        <time>2024-04-27T13:22:24Z</time>
      </trkpt>
      <trkpt lat="45.85954" lon="6.45218">
        <ele>2231.6</ele>
        <time>2024-04-27T13:22:25Z</time>
      </trkpt>
      <trkpt lat="45.85954" lon="6.45218">
        <ele>2231.6</ele>
        <time>2024-04-27T13:22:26Z</time>
      </trkpt>
      <trkpt lat="45.85954" lon="6.45218">
        <ele>2231.6</ele>
        <time>2024-04-27T13:22:27Z</time>
      </trkpt>
      <trkpt lat="45.85954" lon="6.45218">
        <ele>2231.6</ele>
        <time>2024-04-27T13:22:28Z</time>
      </trkpt>
      <trkpt lat="45.85954" lon="6.45218">
        <ele>2231.6</ele>
        <time>2024-04-27T13:22:29Z</time>
      </trkpt>
      <trkpt lat="45.85954" lon="6.45218">
        <ele>2231.6</ele>
        <time>2024-04-27T13:22:30Z</time>
      </trkpt>
      <trkpt lat="45.85954" lon="6.45218">
        <ele>2231.6</ele>
        <time>2024-04-27T13:22:31Z</time>
      </trkpt>
      <trkpt lat="45.85954" lon="6.45218">
        <ele>2231.6</ele>
        <time>2024-04-27T13:22:32Z</time>
      </trkpt>
      <trkpt lat="45.85954" lon="6.45218">
        <ele>2231.6</ele>
        <time>2024-04-27T13:22:33Z</time>
      </trkpt>
      <trkpt lat="45.85954" lon="6.45218">
        <ele>2231.6</ele>
        <time>2024-04-27T13:22:34Z</time>
      </trkpt>
      <trkpt lat="45.85955" lon="6.45218">
        <ele>2231.6</ele>
        <time>2024-04-27T13:22:35Z</time>
      </trkpt>
      <trkpt lat="45.85955" lon="6.45218">
        <ele>2231.6</ele>
        <time>2024-04-27T13:22:36Z</time>
      </trkpt>
      <trkpt lat="45.85955" lon="6.45218">
        <ele>2231.6</ele>
        <time>2024-04-27T13:22:37Z</time>
      </trkpt>
      <trkpt lat="45.85955" lon="6.45218">
        <ele>2231.6</ele>
        <time>2024-04-27T13:22:38Z</time>
      </trkpt>
      <trkpt lat="45.85954" lon="6.45217">
        <ele>2231.6</ele>
        <time>2024-04-27T13:22:39Z</time>
      </trkpt>
      <trkpt lat="45.85954" lon="6.45217">
        <ele>2232.7</ele>
        <time>2024-04-27T13:22:40Z</time>
      </trkpt>
      <trkpt lat="45.85954" lon="6.45217">
        <ele>2232.7</ele>
        <time>2024-04-27T13:22:41Z</time>
      </trkpt>
      <trkpt lat="45.85954" lon="6.45217">
        <ele>2232.7</ele>
        <time>2024-04-27T13:22:42Z</time>
      </trkpt>
      <trkpt lat="45.85954" lon="6.45217">
        <ele>2232.7</ele>
        <time>2024-04-27T13:22:43Z</time>
      </trkpt>
      <trkpt lat="45.85954" lon="6.45217">
        <ele>2232.7</ele>
        <time>2024-04-27T13:22:44Z</time>
      </trkpt>
      <trkpt lat="45.85954" lon="6.45217">
        <ele>2232.7</ele>
        <time>2024-04-27T13:22:45Z</time>
      </trkpt>
      <trkpt lat="45.85954" lon="6.45217">
        <ele>2232.7</ele>
        <time>2024-04-27T13:22:46Z</time>
      </trkpt>
      <trkpt lat="45.85954" lon="6.45217">
        <ele>2232.7</ele>
        <time>2024-04-27T13:22:47Z</time>
      </trkpt>
      <trkpt lat="45.85954" lon="6.45217">
        <ele>2232.7</ele>
        <time>2024-04-27T13:22:48Z</time>
      </trkpt>
      <trkpt lat="45.85954" lon="6.45217">
        <ele>2232.7</ele>
        <time>2024-04-27T13:22:49Z</time>
      </trkpt>
      <trkpt lat="45.85954" lon="6.45217">
        <ele>2232.7</ele>
        <time>2024-04-27T13:22:50Z</time>
      </trkpt>
      <trkpt lat="45.85954" lon="6.45217">
        <ele>2232.7</ele>
        <time>2024-04-27T13:22:51Z</time>
      </trkpt>
      <trkpt lat="45.85954" lon="6.45217">
        <ele>2232.7</ele>
        <time>2024-04-27T13:22:52Z</time>
      </trkpt>
      <trkpt lat="45.85954" lon="6.45217">
        <ele>2232.7</ele>
        <time>2024-04-27T13:22:53Z</time>
      </trkpt>
      <trkpt lat="45.85954" lon="6.45217">
        <ele>2232.7</ele>
        <time>2024-04-27T13:22:54Z</time>
      </trkpt>
      <trkpt lat="45.85954" lon="6.45217">
        <ele>2232.7</ele>
        <time>2024-04-27T13:22:55Z</time>
      </trkpt>
      <trkpt lat="45.85954" lon="6.45217">
        <ele>2233.6</ele>
        <time>2024-04-27T13:22:56Z</time>
      </trkpt>
      <trkpt lat="45.85954" lon="6.45217">
        <ele>2233.6</ele>
        <time>2024-04-27T13:22:57Z</time>
      </trkpt>
      <trkpt lat="45.85954" lon="6.45216">
        <ele>2233.6</ele>
        <time>2024-04-27T13:22:58Z</time>
      </trkpt>
      <trkpt lat="45.85954" lon="6.45216">
        <ele>2233.6</ele>
        <time>2024-04-27T13:22:59Z</time>
      </trkpt>
      <trkpt lat="45.85954" lon="6.45216">
        <ele>2233.6</ele>
        <time>2024-04-27T13:23:00Z</time>
      </trkpt>
      <trkpt lat="45.85954" lon="6.45215">
        <ele>2233.6</ele>
        <time>2024-04-27T13:23:01Z</time>
      </trkpt>
      <trkpt lat="45.85953" lon="6.45215">
        <ele>2233.6</ele>
        <time>2024-04-27T13:23:02Z</time>
      </trkpt>
      <trkpt lat="45.85953" lon="6.45215">
        <ele>2233.6</ele>
        <time>2024-04-27T13:23:03Z</time>
      </trkpt>
      <trkpt lat="45.85953" lon="6.45214">
        <ele>2234.7</ele>
        <time>2024-04-27T13:23:04Z</time>
      </trkpt>
      <trkpt lat="45.85953" lon="6.45213">
        <ele>2234.7</ele>
        <time>2024-04-27T13:23:05Z</time>
      </trkpt>
      <trkpt lat="45.85953" lon="6.45213">
        <ele>2234.7</ele>
        <time>2024-04-27T13:23:06Z</time>
      </trkpt>
      <trkpt lat="45.85953" lon="6.45213">
        <ele>2234.7</ele>
        <time>2024-04-27T13:23:07Z</time>
      </trkpt>
      <trkpt lat="45.85953" lon="6.45213">
        <ele>2234.7</ele>
        <time>2024-04-27T13:23:08Z</time>
      </trkpt>
      <trkpt lat="45.85953" lon="6.45212">
        <ele>2234.7</ele>
        <time>2024-04-27T13:23:09Z</time>
      </trkpt>
      <trkpt lat="45.85953" lon="6.45212">
        <ele>2234.7</ele>
        <time>2024-04-27T13:23:10Z</time>
      </trkpt>
      <trkpt lat="45.85953" lon="6.45212">
        <ele>2234.7</ele>
        <time>2024-04-27T13:23:11Z</time>
      </trkpt>
      <trkpt lat="45.85953" lon="6.45212">
        <ele>2233.6</ele>
        <time>2024-04-27T13:23:12Z</time>
      </trkpt>
      <trkpt lat="45.85953" lon="6.45212">
        <ele>2233.6</ele>
        <time>2024-04-27T13:23:13Z</time>
      </trkpt>
      <trkpt lat="45.85953" lon="6.45212">
        <ele>2233.6</ele>
        <time>2024-04-27T13:23:14Z</time>
      </trkpt>
      <trkpt lat="45.85953" lon="6.45212">
        <ele>2233.6</ele>
        <time>2024-04-27T13:23:15Z</time>
      </trkpt>
      <trkpt lat="45.85953" lon="6.45212">
        <ele>2233.6</ele>
        <time>2024-04-27T13:23:16Z</time>
      </trkpt>
      <trkpt lat="45.85953" lon="6.45212">
        <ele>2233.6</ele>
        <time>2024-04-27T13:23:17Z</time>
      </trkpt>
      <trkpt lat="45.85953" lon="6.45212">
        <ele>2233.6</ele>
        <time>2024-04-27T13:23:18Z</time>
      </trkpt>
      <trkpt lat="45.85953" lon="6.45212">
        <ele>2233.6</ele>
        <time>2024-04-27T13:23:19Z</time>
      </trkpt>
      <trkpt lat="45.85953" lon="6.45212">
        <ele>2233.6</ele>
        <time>2024-04-27T13:23:20Z</time>
      </trkpt>
      <trkpt lat="45.85953" lon="6.45212">
        <ele>2233.6</ele>
        <time>2024-04-27T13:23:21Z</time>
      </trkpt>
      <trkpt lat="45.85953" lon="6.45212">
        <ele>2233.6</ele>
        <time>2024-04-27T13:23:22Z</time>
      </trkpt>
      <trkpt lat="45.85953" lon="6.45212">
        <ele>2233.6</ele>
        <time>2024-04-27T13:23:23Z</time>
      </trkpt>
      <trkpt lat="45.85953" lon="6.45212">
        <ele>2233.6</ele>
        <time>2024-04-27T13:23:24Z</time>
      </trkpt>
      <trkpt lat="45.85953" lon="6.45212">
        <ele>2233.6</ele>
        <time>2024-04-27T13:23:25Z</time>
      </trkpt>
      <trkpt lat="45.85953" lon="6.45212">
        <ele>2233.6</ele>
        <time>2024-04-27T13:23:26Z</time>
      </trkpt>
      <trkpt lat="45.85953" lon="6.45212">
        <ele>2233.6</ele>
        <time>2024-04-27T13:23:27Z</time>
      </trkpt>
      <trkpt lat="45.85953" lon="6.45212">
        <ele>2233.6</ele>
        <time>2024-04-27T13:23:28Z</time>
      </trkpt>
      <trkpt lat="45.85953" lon="6.45212">
        <ele>2233.6</ele>
        <time>2024-04-27T13:23:29Z</time>
      </trkpt>
      <trkpt lat="45.85953" lon="6.45212">
        <ele>2233.6</ele>
        <time>2024-04-27T13:23:30Z</time>
      </trkpt>
      <trkpt lat="45.85953" lon="6.45212">
        <ele>2233.6</ele>
        <time>2024-04-27T13:23:31Z</time>
      </trkpt>
      <trkpt lat="45.85953" lon="6.45212">
        <ele>2232.7</ele>
        <time>2024-04-27T13:23:32Z</time>
      </trkpt>
      <trkpt lat="45.85953" lon="6.45212">
        <ele>2232.7</ele>
        <time>2024-04-27T13:23:33Z</time>
      </trkpt>
      <trkpt lat="45.85953" lon="6.45212">
        <ele>2232.7</ele>
        <time>2024-04-27T13:23:34Z</time>
      </trkpt>
      <trkpt lat="45.85953" lon="6.45212">
        <ele>2232.7</ele>
        <time>2024-04-27T13:23:35Z</time>
      </trkpt>
      <trkpt lat="45.85953" lon="6.45212">
        <ele>2232.7</ele>
        <time>2024-04-27T13:23:36Z</time>
      </trkpt>
      <trkpt lat="45.85953" lon="6.45212">
        <ele>2232.7</ele>
        <time>2024-04-27T13:23:37Z</time>
      </trkpt>
      <trkpt lat="45.85953" lon="6.45212">
        <ele>2232.7</ele>
        <time>2024-04-27T13:23:38Z</time>
      </trkpt>
      <trkpt lat="45.85953" lon="6.45212">
        <ele>2232.7</ele>
        <time>2024-04-27T13:23:39Z</time>
      </trkpt>
      <trkpt lat="45.85953" lon="6.45212">
        <ele>2232.7</ele>
        <time>2024-04-27T13:23:40Z</time>
      </trkpt>
      <trkpt lat="45.85953" lon="6.45212">
        <ele>2232.7</ele>
        <time>2024-04-27T13:23:41Z</time>
      </trkpt>
      <trkpt lat="45.85953" lon="6.45213">
        <ele>2232.7</ele>
        <time>2024-04-27T13:23:42Z</time>
      </trkpt>
      <trkpt lat="45.85953" lon="6.45213">
        <ele>2232.7</ele>
        <time>2024-04-27T13:23:43Z</time>
      </trkpt>
      <trkpt lat="45.85953" lon="6.45213">
        <ele>2232.7</ele>
        <time>2024-04-27T13:23:44Z</time>
      </trkpt>
      <trkpt lat="45.85953" lon="6.45213">
        <ele>2232.7</ele>
        <time>2024-04-27T13:23:45Z</time>
      </trkpt>
      <trkpt lat="45.85953" lon="6.45213">
        <ele>2232.7</ele>
        <time>2024-04-27T13:23:46Z</time>
      </trkpt>
      <trkpt lat="45.85953" lon="6.45213">
        <ele>2232.7</ele>
        <time>2024-04-27T13:23:47Z</time>
      </trkpt>
      <trkpt lat="45.85953" lon="6.45213">
        <ele>2232.7</ele>
        <time>2024-04-27T13:23:48Z</time>
      </trkpt>
      <trkpt lat="45.85953" lon="6.45213">
        <ele>2232.7</ele>
        <time>2024-04-27T13:23:49Z</time>
      </trkpt>
      <trkpt lat="45.85953" lon="6.45213">
        <ele>2232.7</ele>
        <time>2024-04-27T13:23:50Z</time>
      </trkpt>
      <trkpt lat="45.85953" lon="6.45213">
        <ele>2232.7</ele>
        <time>2024-04-27T13:23:51Z</time>
      </trkpt>
      <trkpt lat="45.85953" lon="6.45213">
        <ele>2232.7</ele>
        <time>2024-04-27T13:23:52Z</time>
      </trkpt>
      <trkpt lat="45.85953" lon="6.45213">
        <ele>2232.7</ele>
        <time>2024-04-27T13:23:53Z</time>
      </trkpt>
      <trkpt lat="45.85953" lon="6.45213">
        <ele>2232.7</ele>
        <time>2024-04-27T13:23:54Z</time>
      </trkpt>
      <trkpt lat="45.85953" lon="6.45213">
        <ele>2232.7</ele>
        <time>2024-04-27T13:23:55Z</time>
      </trkpt>
      <trkpt lat="45.85953" lon="6.45213">
        <ele>2232.7</ele>
        <time>2024-04-27T13:23:56Z</time>
      </trkpt>
      <trkpt lat="45.85953" lon="6.45213">
        <ele>2232.7</ele>
        <time>2024-04-27T13:23:57Z</time>
      </trkpt>
      <trkpt lat="45.85953" lon="6.45213">
        <ele>2232.7</ele>
        <time>2024-04-27T13:23:58Z</time>
      </trkpt>
      <trkpt lat="45.85953" lon="6.45214">
        <ele>2232.7</ele>
        <time>2024-04-27T13:23:59Z</time>
      </trkpt>
      <trkpt lat="45.85953" lon="6.45214">
        <ele>2232.7</ele>
        <time>2024-04-27T13:24:00Z</time>
      </trkpt>
      <trkpt lat="45.85953" lon="6.45214">
        <ele>2232.7</ele>
        <time>2024-04-27T13:24:01Z</time>
      </trkpt>
      <trkpt lat="45.85953" lon="6.45214">
        <ele>2232.7</ele>
        <time>2024-04-27T13:24:02Z</time>
      </trkpt>
      <trkpt lat="45.85953" lon="6.45214">
        <ele>2232.7</ele>
        <time>2024-04-27T13:24:03Z</time>
      </trkpt>
      <trkpt lat="45.85953" lon="6.45214">
        <ele>2232.7</ele>
        <time>2024-04-27T13:24:04Z</time>
      </trkpt>
      <trkpt lat="45.85953" lon="6.45214">
        <ele>2232.7</ele>
        <time>2024-04-27T13:24:05Z</time>
      </trkpt>
      <trkpt lat="45.85953" lon="6.45214">
        <ele>2232.7</ele>
        <time>2024-04-27T13:24:06Z</time>
      </trkpt>
      <trkpt lat="45.85953" lon="6.45214">
        <ele>2232.7</ele>
        <time>2024-04-27T13:24:07Z</time>
      </trkpt>
      <trkpt lat="45.85953" lon="6.45214">
        <ele>2232.7</ele>
        <time>2024-04-27T13:24:08Z</time>
      </trkpt>
      <trkpt lat="45.85953" lon="6.45214">
        <ele>2232.7</ele>
        <time>2024-04-27T13:24:09Z</time>
      </trkpt>
      <trkpt lat="45.85953" lon="6.45214">
        <ele>2232.7</ele>
        <time>2024-04-27T13:24:10Z</time>
      </trkpt>
      <trkpt lat="45.85953" lon="6.45214">
        <ele>2232.7</ele>
        <time>2024-04-27T13:24:11Z</time>
      </trkpt>
      <trkpt lat="45.85953" lon="6.45214">
        <ele>2231.6</ele>
        <time>2024-04-27T13:24:12Z</time>
      </trkpt>
      <trkpt lat="45.85953" lon="6.45214">
        <ele>2231.6</ele>
        <time>2024-04-27T13:24:13Z</time>
      </trkpt>
      <trkpt lat="45.85953" lon="6.45214">
        <ele>2231.6</ele>
        <time>2024-04-27T13:24:14Z</time>
      </trkpt>
      <trkpt lat="45.85953" lon="6.45214">
        <ele>2231.6</ele>
        <time>2024-04-27T13:24:15Z</time>
      </trkpt>
      <trkpt lat="45.85953" lon="6.45214">
        <ele>2231.6</ele>
        <time>2024-04-27T13:24:16Z</time>
      </trkpt>
      <trkpt lat="45.85953" lon="6.45214">
        <ele>2231.6</ele>
        <time>2024-04-27T13:24:17Z</time>
      </trkpt>
      <trkpt lat="45.85953" lon="6.45215">
        <ele>2231.6</ele>
        <time>2024-04-27T13:24:18Z</time>
      </trkpt>
      <trkpt lat="45.85953" lon="6.45215">
        <ele>2231.6</ele>
        <time>2024-04-27T13:24:19Z</time>
      </trkpt>
      <trkpt lat="45.85953" lon="6.45215">
        <ele>2231.6</ele>
        <time>2024-04-27T13:24:20Z</time>
      </trkpt>
      <trkpt lat="45.85953" lon="6.45215">
        <ele>2231.6</ele>
        <time>2024-04-27T13:24:21Z</time>
      </trkpt>
      <trkpt lat="45.85953" lon="6.45216">
        <ele>2231.6</ele>
        <time>2024-04-27T13:24:22Z</time>
      </trkpt>
      <trkpt lat="45.85953" lon="6.45216">
        <ele>2231.6</ele>
        <time>2024-04-27T13:24:23Z</time>
      </trkpt>
      <trkpt lat="45.85954" lon="6.45216">
        <ele>2231.6</ele>
        <time>2024-04-27T13:24:24Z</time>
      </trkpt>
      <trkpt lat="45.85954" lon="6.45216">
        <ele>2231.6</ele>
        <time>2024-04-27T13:24:25Z</time>
      </trkpt>
      <trkpt lat="45.85954" lon="6.45216">
        <ele>2231.6</ele>
        <time>2024-04-27T13:24:26Z</time>
      </trkpt>
      <trkpt lat="45.85954" lon="6.45216">
        <ele>2231.6</ele>
        <time>2024-04-27T13:24:27Z</time>
      </trkpt>
      <trkpt lat="45.85954" lon="6.45217">
        <ele>2231.6</ele>
        <time>2024-04-27T13:24:28Z</time>
      </trkpt>
      <trkpt lat="45.85954" lon="6.45217">
        <ele>2231.6</ele>
        <time>2024-04-27T13:24:29Z</time>
      </trkpt>
      <trkpt lat="45.85954" lon="6.45217">
        <ele>2231.6</ele>
        <time>2024-04-27T13:24:30Z</time>
      </trkpt>
      <trkpt lat="45.85954" lon="6.45217">
        <ele>2231.6</ele>
        <time>2024-04-27T13:24:31Z</time>
      </trkpt>
      <trkpt lat="45.85954" lon="6.45217">
        <ele>2231.6</ele>
        <time>2024-04-27T13:24:32Z</time>
      </trkpt>
      <trkpt lat="45.85954" lon="6.45217">
        <ele>2231.6</ele>
        <time>2024-04-27T13:24:33Z</time>
      </trkpt>
      <trkpt lat="45.85954" lon="6.45217">
        <ele>2231.6</ele>
        <time>2024-04-27T13:24:34Z</time>
      </trkpt>
      <trkpt lat="45.85954" lon="6.45217">
        <ele>2231.6</ele>
        <time>2024-04-27T13:24:35Z</time>
      </trkpt>
      <trkpt lat="45.85954" lon="6.45217">
        <ele>2231.6</ele>
        <time>2024-04-27T13:24:36Z</time>
      </trkpt>
      <trkpt lat="45.85954" lon="6.45217">
        <ele>2231.6</ele>
        <time>2024-04-27T13:24:37Z</time>
      </trkpt>
      <trkpt lat="45.85954" lon="6.45217">
        <ele>2231.6</ele>
        <time>2024-04-27T13:24:38Z</time>
      </trkpt>
      <trkpt lat="45.85954" lon="6.45217">
        <ele>2231.6</ele>
        <time>2024-04-27T13:24:39Z</time>
      </trkpt>
      <trkpt lat="45.85954" lon="6.45217">
        <ele>2231.6</ele>
        <time>2024-04-27T13:24:40Z</time>
      </trkpt>
      <trkpt lat="45.85954" lon="6.45217">
        <ele>2231.6</ele>
        <time>2024-04-27T13:24:41Z</time>
      </trkpt>
      <trkpt lat="45.85954" lon="6.45217">
        <ele>2231.6</ele>
        <time>2024-04-27T13:24:42Z</time>
      </trkpt>
      <trkpt lat="45.85954" lon="6.45217">
        <ele>2231.6</ele>
        <time>2024-04-27T13:24:43Z</time>
      </trkpt>
      <trkpt lat="45.85954" lon="6.45217">
        <ele>2231.6</ele>
        <time>2024-04-27T13:24:44Z</time>
      </trkpt>
      <trkpt lat="45.85954" lon="6.45217">
        <ele>2231.6</ele>
        <time>2024-04-27T13:24:45Z</time>
      </trkpt>
      <trkpt lat="45.85954" lon="6.45217">
        <ele>2231.6</ele>
        <time>2024-04-27T13:24:46Z</time>
      </trkpt>
      <trkpt lat="45.85954" lon="6.45217">
        <ele>2231.6</ele>
        <time>2024-04-27T13:24:47Z</time>
      </trkpt>
      <trkpt lat="45.85954" lon="6.45217">
        <ele>2231.6</ele>
        <time>2024-04-27T13:24:48Z</time>
      </trkpt>
      <trkpt lat="45.85954" lon="6.45217">
        <ele>2231.6</ele>
        <time>2024-04-27T13:24:49Z</time>
      </trkpt>
      <trkpt lat="45.85954" lon="6.45217">
        <ele>2231.6</ele>
        <time>2024-04-27T13:24:50Z</time>
      </trkpt>
      <trkpt lat="45.85954" lon="6.45217">
        <ele>2231.6</ele>
        <time>2024-04-27T13:24:51Z</time>
      </trkpt>
      <trkpt lat="45.85954" lon="6.45217">
        <ele>2231.6</ele>
        <time>2024-04-27T13:24:52Z</time>
      </trkpt>
      <trkpt lat="45.85954" lon="6.45217">
        <ele>2231.6</ele>
        <time>2024-04-27T13:24:53Z</time>
      </trkpt>
      <trkpt lat="45.85954" lon="6.45217">
        <ele>2231.6</ele>
        <time>2024-04-27T13:24:54Z</time>
      </trkpt>
      <trkpt lat="45.85954" lon="6.45217">
        <ele>2231.6</ele>
        <time>2024-04-27T13:24:55Z</time>
      </trkpt>
      <trkpt lat="45.85954" lon="6.45217">
        <ele>2231.6</ele>
        <time>2024-04-27T13:24:56Z</time>
      </trkpt>
      <trkpt lat="45.85954" lon="6.45217">
        <ele>2231.6</ele>
        <time>2024-04-27T13:24:57Z</time>
      </trkpt>
      <trkpt lat="45.85954" lon="6.45217">
        <ele>2231.6</ele>
        <time>2024-04-27T13:24:58Z</time>
      </trkpt>
      <trkpt lat="45.85954" lon="6.45217">
        <ele>2231.6</ele>
        <time>2024-04-27T13:24:59Z</time>
      </trkpt>
      <trkpt lat="45.85954" lon="6.45217">
        <ele>2231.6</ele>
        <time>2024-04-27T13:25:00Z</time>
      </trkpt>
      <trkpt lat="45.85954" lon="6.45217">
        <ele>2231.6</ele>
        <time>2024-04-27T13:25:01Z</time>
      </trkpt>
      <trkpt lat="45.85954" lon="6.45217">
        <ele>2230.7</ele>
        <time>2024-04-27T13:25:02Z</time>
      </trkpt>
      <trkpt lat="45.85954" lon="6.45217">
        <ele>2230.7</ele>
        <time>2024-04-27T13:25:03Z</time>
      </trkpt>
      <trkpt lat="45.85954" lon="6.45216">
        <ele>2230.7</ele>
        <time>2024-04-27T13:25:04Z</time>
      </trkpt>
      <trkpt lat="45.85954" lon="6.45216">
        <ele>2230.7</ele>
        <time>2024-04-27T13:25:05Z</time>
      </trkpt>
      <trkpt lat="45.85954" lon="6.45216">
        <ele>2230.7</ele>
        <time>2024-04-27T13:25:06Z</time>
      </trkpt>
      <trkpt lat="45.85954" lon="6.45217">
        <ele>2230.7</ele>
        <time>2024-04-27T13:25:07Z</time>
      </trkpt>
      <trkpt lat="45.85955" lon="6.45221">
        <ele>2229.6</ele>
        <time>2024-04-27T13:25:08Z</time>
      </trkpt>
      <trkpt lat="45.85956" lon="6.45226">
        <ele>2229.6</ele>
        <time>2024-04-27T13:25:09Z</time>
      </trkpt>
      <trkpt lat="45.85957" lon="6.4523">
        <ele>2229.6</ele>
        <time>2024-04-27T13:25:10Z</time>
      </trkpt>
      <trkpt lat="45.85958" lon="6.45234">
        <ele>2229.6</ele>
        <time>2024-04-27T13:25:11Z</time>
      </trkpt>
      <trkpt lat="45.85959" lon="6.45239">
        <ele>2228.7</ele>
        <time>2024-04-27T13:25:12Z</time>
      </trkpt>
      <trkpt lat="45.8596" lon="6.45242">
        <ele>2228.7</ele>
        <time>2024-04-27T13:25:13Z</time>
      </trkpt>
      <trkpt lat="45.8596" lon="6.45243">
        <ele>2228.7</ele>
        <time>2024-04-27T13:25:14Z</time>
      </trkpt>
      <trkpt lat="45.8596" lon="6.45244">
        <ele>2228.7</ele>
        <time>2024-04-27T13:25:15Z</time>
      </trkpt>
      <trkpt lat="45.85961" lon="6.45245">
        <ele>2228.7</ele>
        <time>2024-04-27T13:25:16Z</time>
      </trkpt>
      <trkpt lat="45.85961" lon="6.45246">
        <ele>2228.7</ele>
        <time>2024-04-27T13:25:17Z</time>
      </trkpt>
      <trkpt lat="45.85962" lon="6.45246">
        <ele>2228.7</ele>
        <time>2024-04-27T13:25:18Z</time>
      </trkpt>
      <trkpt lat="45.85962" lon="6.45246">
        <ele>2228.7</ele>
        <time>2024-04-27T13:25:19Z</time>
      </trkpt>
      <trkpt lat="45.85962" lon="6.45246">
        <ele>2228.7</ele>
        <time>2024-04-27T13:25:20Z</time>
      </trkpt>
      <trkpt lat="45.85962" lon="6.45246">
        <ele>2228.7</ele>
        <time>2024-04-27T13:25:21Z</time>
      </trkpt>
      <trkpt lat="45.85963" lon="6.45246">
        <ele>2228.7</ele>
        <time>2024-04-27T13:25:22Z</time>
      </trkpt>
      <trkpt lat="45.85963" lon="6.45246">
        <ele>2228.7</ele>
        <time>2024-04-27T13:25:23Z</time>
      </trkpt>
      <trkpt lat="45.85964" lon="6.45247">
        <ele>2228.7</ele>
        <time>2024-04-27T13:25:24Z</time>
      </trkpt>
      <trkpt lat="45.85964" lon="6.45247">
        <ele>2228.7</ele>
        <time>2024-04-27T13:25:25Z</time>
      </trkpt>
      <trkpt lat="45.85964" lon="6.45246">
        <ele>2228.7</ele>
        <time>2024-04-27T13:25:26Z</time>
      </trkpt>
      <trkpt lat="45.85965" lon="6.45246">
        <ele>2228.7</ele>
        <time>2024-04-27T13:25:27Z</time>
      </trkpt>
      <trkpt lat="45.85965" lon="6.45246">
        <ele>2228.7</ele>
        <time>2024-04-27T13:25:28Z</time>
      </trkpt>
      <trkpt lat="45.85965" lon="6.45245">
        <ele>2228.7</ele>
        <time>2024-04-27T13:25:29Z</time>
      </trkpt>
      <trkpt lat="45.85965" lon="6.45245">
        <ele>2227.7</ele>
        <time>2024-04-27T13:25:30Z</time>
      </trkpt>
      <trkpt lat="45.85965" lon="6.45245">
        <ele>2227.7</ele>
        <time>2024-04-27T13:25:31Z</time>
      </trkpt>
      <trkpt lat="45.85965" lon="6.45245">
        <ele>2227.7</ele>
        <time>2024-04-27T13:25:32Z</time>
      </trkpt>
      <trkpt lat="45.85965" lon="6.45245">
        <ele>2227.7</ele>
        <time>2024-04-27T13:25:33Z</time>
      </trkpt>
      <trkpt lat="45.85965" lon="6.45245">
        <ele>2227.7</ele>
        <time>2024-04-27T13:25:34Z</time>
      </trkpt>
      <trkpt lat="45.85965" lon="6.45245">
        <ele>2227.7</ele>
        <time>2024-04-27T13:25:35Z</time>
      </trkpt>
      <trkpt lat="45.85965" lon="6.45245">
        <ele>2227.7</ele>
        <time>2024-04-27T13:25:36Z</time>
      </trkpt>
      <trkpt lat="45.85965" lon="6.45245">
        <ele>2227.7</ele>
        <time>2024-04-27T13:25:37Z</time>
      </trkpt>
      <trkpt lat="45.85965" lon="6.45245">
        <ele>2226.6</ele>
        <time>2024-04-27T13:25:38Z</time>
      </trkpt>
      <trkpt lat="45.85965" lon="6.45245">
        <ele>2226.6</ele>
        <time>2024-04-27T13:25:39Z</time>
      </trkpt>
      <trkpt lat="45.85965" lon="6.45245">
        <ele>2226.6</ele>
        <time>2024-04-27T13:25:40Z</time>
      </trkpt>
      <trkpt lat="45.85965" lon="6.45245">
        <ele>2226.6</ele>
        <time>2024-04-27T13:25:41Z</time>
      </trkpt>
      <trkpt lat="45.85965" lon="6.45245">
        <ele>2226.6</ele>
        <time>2024-04-27T13:25:42Z</time>
      </trkpt>
      <trkpt lat="45.85965" lon="6.45245">
        <ele>2226.6</ele>
        <time>2024-04-27T13:25:43Z</time>
      </trkpt>
      <trkpt lat="45.85965" lon="6.45245">
        <ele>2226.6</ele>
        <time>2024-04-27T13:25:44Z</time>
      </trkpt>
      <trkpt lat="45.85964" lon="6.45245">
        <ele>2226.6</ele>
        <time>2024-04-27T13:25:45Z</time>
      </trkpt>
      <trkpt lat="45.85964" lon="6.45245">
        <ele>2227.7</ele>
        <time>2024-04-27T13:25:46Z</time>
      </trkpt>
      <trkpt lat="45.85964" lon="6.45245">
        <ele>2227.7</ele>
        <time>2024-04-27T13:25:47Z</time>
      </trkpt>
      <trkpt lat="45.85964" lon="6.45245">
        <ele>2227.7</ele>
        <time>2024-04-27T13:25:48Z</time>
      </trkpt>
      <trkpt lat="45.85964" lon="6.45245">
        <ele>2227.7</ele>
        <time>2024-04-27T13:25:49Z</time>
      </trkpt>
      <trkpt lat="45.85964" lon="6.45245">
        <ele>2227.7</ele>
        <time>2024-04-27T13:25:50Z</time>
      </trkpt>
      <trkpt lat="45.85964" lon="6.45245">
        <ele>2227.7</ele>
        <time>2024-04-27T13:25:51Z</time>
      </trkpt>
      <trkpt lat="45.85964" lon="6.45244">
        <ele>2227.7</ele>
        <time>2024-04-27T13:25:52Z</time>
      </trkpt>
      <trkpt lat="45.85964" lon="6.45244">
        <ele>2227.7</ele>
        <time>2024-04-27T13:25:53Z</time>
      </trkpt>
      <trkpt lat="45.85964" lon="6.45244">
        <ele>2227.7</ele>
        <time>2024-04-27T13:25:54Z</time>
      </trkpt>
      <trkpt lat="45.85964" lon="6.45244">
        <ele>2227.7</ele>
        <time>2024-04-27T13:25:55Z</time>
      </trkpt>
      <trkpt lat="45.85964" lon="6.45244">
        <ele>2227.7</ele>
        <time>2024-04-27T13:25:56Z</time>
      </trkpt>
      <trkpt lat="45.85964" lon="6.45243">
        <ele>2227.7</ele>
        <time>2024-04-27T13:25:57Z</time>
      </trkpt>
      <trkpt lat="45.85964" lon="6.45243">
        <ele>2227.7</ele>
        <time>2024-04-27T13:25:58Z</time>
      </trkpt>
      <trkpt lat="45.85964" lon="6.45243">
        <ele>2227.7</ele>
        <time>2024-04-27T13:25:59Z</time>
      </trkpt>
      <trkpt lat="45.85964" lon="6.45243">
        <ele>2227.7</ele>
        <time>2024-04-27T13:26:00Z</time>
      </trkpt>
      <trkpt lat="45.85964" lon="6.45243">
        <ele>2227.7</ele>
        <time>2024-04-27T13:26:01Z</time>
      </trkpt>
      <trkpt lat="45.85964" lon="6.45243">
        <ele>2227.7</ele>
        <time>2024-04-27T13:26:02Z</time>
      </trkpt>
      <trkpt lat="45.85964" lon="6.45243">
        <ele>2227.7</ele>
        <time>2024-04-27T13:26:03Z</time>
      </trkpt>
      <trkpt lat="45.85964" lon="6.45242">
        <ele>2227.7</ele>
        <time>2024-04-27T13:26:04Z</time>
      </trkpt>
      <trkpt lat="45.85964" lon="6.45242">
        <ele>2227.7</ele>
        <time>2024-04-27T13:26:05Z</time>
      </trkpt>
      <trkpt lat="45.85964" lon="6.45242">
        <ele>2228.7</ele>
        <time>2024-04-27T13:26:06Z</time>
      </trkpt>
      <trkpt lat="45.85964" lon="6.45242">
        <ele>2228.7</ele>
        <time>2024-04-27T13:26:07Z</time>
      </trkpt>
      <trkpt lat="45.85964" lon="6.45242">
        <ele>2228.7</ele>
        <time>2024-04-27T13:26:08Z</time>
      </trkpt>
      <trkpt lat="45.85964" lon="6.45242">
        <ele>2228.7</ele>
        <time>2024-04-27T13:26:09Z</time>
      </trkpt>
      <trkpt lat="45.85964" lon="6.45242">
        <ele>2228.7</ele>
        <time>2024-04-27T13:26:10Z</time>
      </trkpt>
      <trkpt lat="45.85964" lon="6.45242">
        <ele>2228.7</ele>
        <time>2024-04-27T13:26:11Z</time>
      </trkpt>
      <trkpt lat="45.85964" lon="6.45241">
        <ele>2229.6</ele>
        <time>2024-04-27T13:26:12Z</time>
      </trkpt>
      <trkpt lat="45.85964" lon="6.45241">
        <ele>2229.6</ele>
        <time>2024-04-27T13:26:13Z</time>
      </trkpt>
      <trkpt lat="45.85964" lon="6.45241">
        <ele>2229.6</ele>
        <time>2024-04-27T13:26:14Z</time>
      </trkpt>
      <trkpt lat="45.85964" lon="6.45241">
        <ele>2229.6</ele>
        <time>2024-04-27T13:26:15Z</time>
      </trkpt>
      <trkpt lat="45.85964" lon="6.45241">
        <ele>2229.6</ele>
        <time>2024-04-27T13:26:16Z</time>
      </trkpt>
      <trkpt lat="45.85964" lon="6.45241">
        <ele>2229.6</ele>
        <time>2024-04-27T13:26:17Z</time>
      </trkpt>
      <trkpt lat="45.85964" lon="6.45241">
        <ele>2229.6</ele>
        <time>2024-04-27T13:26:18Z</time>
      </trkpt>
      <trkpt lat="45.85964" lon="6.45241">
        <ele>2229.6</ele>
        <time>2024-04-27T13:26:19Z</time>
      </trkpt>
      <trkpt lat="45.85965" lon="6.45241">
        <ele>2229.6</ele>
        <time>2024-04-27T13:26:20Z</time>
      </trkpt>
      <trkpt lat="45.85965" lon="6.45241">
        <ele>2229.6</ele>
        <time>2024-04-27T13:26:21Z</time>
      </trkpt>
      <trkpt lat="45.85965" lon="6.45241">
        <ele>2230.7</ele>
        <time>2024-04-27T13:26:22Z</time>
      </trkpt>
      <trkpt lat="45.85965" lon="6.45241">
        <ele>2230.7</ele>
        <time>2024-04-27T13:26:23Z</time>
      </trkpt>
      <trkpt lat="45.85965" lon="6.45241">
        <ele>2230.7</ele>
        <time>2024-04-27T13:26:24Z</time>
      </trkpt>
      <trkpt lat="45.85965" lon="6.45241">
        <ele>2230.7</ele>
        <time>2024-04-27T13:26:25Z</time>
      </trkpt>
      <trkpt lat="45.85965" lon="6.45241">
        <ele>2230.7</ele>
        <time>2024-04-27T13:26:26Z</time>
      </trkpt>
      <trkpt lat="45.85965" lon="6.45241">
        <ele>2230.7</ele>
        <time>2024-04-27T13:26:27Z</time>
      </trkpt>
      <trkpt lat="45.85965" lon="6.45241">
        <ele>2230.7</ele>
        <time>2024-04-27T13:26:28Z</time>
      </trkpt>
      <trkpt lat="45.85965" lon="6.45241">
        <ele>2230.7</ele>
        <time>2024-04-27T13:26:29Z</time>
      </trkpt>
      <trkpt lat="45.85965" lon="6.45241">
        <ele>2230.7</ele>
        <time>2024-04-27T13:26:30Z</time>
      </trkpt>
      <trkpt lat="45.85965" lon="6.45241">
        <ele>2230.7</ele>
        <time>2024-04-27T13:26:31Z</time>
      </trkpt>
      <trkpt lat="45.85965" lon="6.45241">
        <ele>2230.7</ele>
        <time>2024-04-27T13:26:32Z</time>
      </trkpt>
      <trkpt lat="45.85965" lon="6.45241">
        <ele>2230.7</ele>
        <time>2024-04-27T13:26:33Z</time>
      </trkpt>
      <trkpt lat="45.85965" lon="6.45241">
        <ele>2230.7</ele>
        <time>2024-04-27T13:26:34Z</time>
      </trkpt>
      <trkpt lat="45.85965" lon="6.45241">
        <ele>2230.7</ele>
        <time>2024-04-27T13:26:35Z</time>
      </trkpt>
      <trkpt lat="45.85965" lon="6.45241">
        <ele>2230.7</ele>
        <time>2024-04-27T13:26:36Z</time>
      </trkpt>
      <trkpt lat="45.85965" lon="6.45241">
        <ele>2230.7</ele>
        <time>2024-04-27T13:26:37Z</time>
      </trkpt>
      <trkpt lat="45.85965" lon="6.45241">
        <ele>2230.7</ele>
        <time>2024-04-27T13:26:38Z</time>
      </trkpt>
      <trkpt lat="45.85965" lon="6.45241">
        <ele>2230.7</ele>
        <time>2024-04-27T13:26:39Z</time>
      </trkpt>
      <trkpt lat="45.85965" lon="6.45241">
        <ele>2230.7</ele>
        <time>2024-04-27T13:26:40Z</time>
      </trkpt>
      <trkpt lat="45.85965" lon="6.45241">
        <ele>2230.7</ele>
        <time>2024-04-27T13:26:41Z</time>
      </trkpt>
      <trkpt lat="45.85965" lon="6.45241">
        <ele>2230.7</ele>
        <time>2024-04-27T13:26:42Z</time>
      </trkpt>
      <trkpt lat="45.85965" lon="6.45241">
        <ele>2230.7</ele>
        <time>2024-04-27T13:26:43Z</time>
      </trkpt>
      <trkpt lat="45.85965" lon="6.45241">
        <ele>2229.6</ele>
        <time>2024-04-27T13:26:44Z</time>
      </trkpt>
      <trkpt lat="45.85965" lon="6.45241">
        <ele>2229.6</ele>
        <time>2024-04-27T13:26:45Z</time>
      </trkpt>
      <trkpt lat="45.85965" lon="6.45241">
        <ele>2229.6</ele>
        <time>2024-04-27T13:26:46Z</time>
      </trkpt>
      <trkpt lat="45.85965" lon="6.45241">
        <ele>2229.6</ele>
        <time>2024-04-27T13:26:47Z</time>
      </trkpt>
      <trkpt lat="45.85964" lon="6.45241">
        <ele>2229.6</ele>
        <time>2024-04-27T13:26:48Z</time>
      </trkpt>
      <trkpt lat="45.85964" lon="6.45241">
        <ele>2229.6</ele>
        <time>2024-04-27T13:26:49Z</time>
      </trkpt>
      <trkpt lat="45.85964" lon="6.45241">
        <ele>2229.6</ele>
        <time>2024-04-27T13:26:50Z</time>
      </trkpt>
      <trkpt lat="45.85964" lon="6.45241">
        <ele>2229.6</ele>
        <time>2024-04-27T13:26:51Z</time>
      </trkpt>
      <trkpt lat="45.85964" lon="6.45241">
        <ele>2229.6</ele>
        <time>2024-04-27T13:26:52Z</time>
      </trkpt>
      <trkpt lat="45.85964" lon="6.45241">
        <ele>2229.6</ele>
        <time>2024-04-27T13:26:53Z</time>
      </trkpt>
      <trkpt lat="45.85964" lon="6.45241">
        <ele>2229.6</ele>
        <time>2024-04-27T13:26:54Z</time>
      </trkpt>
      <trkpt lat="45.85964" lon="6.45241">
        <ele>2229.6</ele>
        <time>2024-04-27T13:26:55Z</time>
      </trkpt>
      <trkpt lat="45.85964" lon="6.45242">
        <ele>2229.6</ele>
        <time>2024-04-27T13:26:56Z</time>
      </trkpt>
      <trkpt lat="45.85964" lon="6.45242">
        <ele>2229.6</ele>
        <time>2024-04-27T13:26:57Z</time>
      </trkpt>
      <trkpt lat="45.85964" lon="6.45242">
        <ele>2229.6</ele>
        <time>2024-04-27T13:26:58Z</time>
      </trkpt>
      <trkpt lat="45.85964" lon="6.45242">
        <ele>2229.6</ele>
        <time>2024-04-27T13:26:59Z</time>
      </trkpt>
      <trkpt lat="45.85964" lon="6.45243">
        <ele>2229.6</ele>
        <time>2024-04-27T13:27:00Z</time>
      </trkpt>
      <trkpt lat="45.85964" lon="6.45243">
        <ele>2229.6</ele>
        <time>2024-04-27T13:27:01Z</time>
      </trkpt>
      <trkpt lat="45.85964" lon="6.45243">
        <ele>2229.6</ele>
        <time>2024-04-27T13:27:02Z</time>
      </trkpt>
      <trkpt lat="45.85964" lon="6.45243">
        <ele>2229.6</ele>
        <time>2024-04-27T13:27:03Z</time>
      </trkpt>
      <trkpt lat="45.85964" lon="6.45243">
        <ele>2229.6</ele>
        <time>2024-04-27T13:27:04Z</time>
      </trkpt>
      <trkpt lat="45.85964" lon="6.45243">
        <ele>2229.6</ele>
        <time>2024-04-27T13:27:05Z</time>
      </trkpt>
      <trkpt lat="45.85964" lon="6.45243">
        <ele>2229.6</ele>
        <time>2024-04-27T13:27:06Z</time>
      </trkpt>
      <trkpt lat="45.85963" lon="6.45243">
        <ele>2229.6</ele>
        <time>2024-04-27T13:27:07Z</time>
      </trkpt>
      <trkpt lat="45.85963" lon="6.45243">
        <ele>2229.6</ele>
        <time>2024-04-27T13:27:08Z</time>
      </trkpt>
      <trkpt lat="45.85963" lon="6.45243">
        <ele>2229.6</ele>
        <time>2024-04-27T13:27:09Z</time>
      </trkpt>
      <trkpt lat="45.85963" lon="6.45243">
        <ele>2229.6</ele>
        <time>2024-04-27T13:27:10Z</time>
      </trkpt>
      <trkpt lat="45.85963" lon="6.45243">
        <ele>2229.6</ele>
        <time>2024-04-27T13:27:11Z</time>
      </trkpt>
      <trkpt lat="45.85963" lon="6.45243">
        <ele>2229.6</ele>
        <time>2024-04-27T13:27:12Z</time>
      </trkpt>
      <trkpt lat="45.85963" lon="6.45243">
        <ele>2229.6</ele>
        <time>2024-04-27T13:27:13Z</time>
      </trkpt>
      <trkpt lat="45.85963" lon="6.45243">
        <ele>2229.6</ele>
        <time>2024-04-27T13:27:14Z</time>
      </trkpt>
      <trkpt lat="45.85963" lon="6.45243">
        <ele>2229.6</ele>
        <time>2024-04-27T13:27:15Z</time>
      </trkpt>
      <trkpt lat="45.85963" lon="6.45243">
        <ele>2229.6</ele>
        <time>2024-04-27T13:27:16Z</time>
      </trkpt>
      <trkpt lat="45.85963" lon="6.45243">
        <ele>2229.6</ele>
        <time>2024-04-27T13:27:17Z</time>
      </trkpt>
      <trkpt lat="45.85963" lon="6.45243">
        <ele>2229.6</ele>
        <time>2024-04-27T13:27:18Z</time>
      </trkpt>
      <trkpt lat="45.85962" lon="6.45243">
        <ele>2229.6</ele>
        <time>2024-04-27T13:27:19Z</time>
      </trkpt>
      <trkpt lat="45.85962" lon="6.45243">
        <ele>2229.6</ele>
        <time>2024-04-27T13:27:20Z</time>
      </trkpt>
      <trkpt lat="45.85962" lon="6.45243">
        <ele>2229.6</ele>
        <time>2024-04-27T13:27:21Z</time>
      </trkpt>
      <trkpt lat="45.85962" lon="6.45243">
        <ele>2229.6</ele>
        <time>2024-04-27T13:27:22Z</time>
      </trkpt>
      <trkpt lat="45.85962" lon="6.45243">
        <ele>2229.6</ele>
        <time>2024-04-27T13:27:23Z</time>
      </trkpt>
      <trkpt lat="45.85962" lon="6.45243">
        <ele>2229.6</ele>
        <time>2024-04-27T13:27:24Z</time>
      </trkpt>
      <trkpt lat="45.85962" lon="6.45243">
        <ele>2229.6</ele>
        <time>2024-04-27T13:27:25Z</time>
      </trkpt>
      <trkpt lat="45.85962" lon="6.45243">
        <ele>2229.6</ele>
        <time>2024-04-27T13:27:26Z</time>
      </trkpt>
      <trkpt lat="45.85962" lon="6.45243">
        <ele>2229.6</ele>
        <time>2024-04-27T13:27:27Z</time>
      </trkpt>
      <trkpt lat="45.85962" lon="6.45243">
        <ele>2229.6</ele>
        <time>2024-04-27T13:27:28Z</time>
      </trkpt>
      <trkpt lat="45.85962" lon="6.45243">
        <ele>2229.6</ele>
        <time>2024-04-27T13:27:29Z</time>
      </trkpt>
      <trkpt lat="45.85962" lon="6.45243">
        <ele>2229.6</ele>
        <time>2024-04-27T13:27:30Z</time>
      </trkpt>
      <trkpt lat="45.85962" lon="6.45243">
        <ele>2229.6</ele>
        <time>2024-04-27T13:27:31Z</time>
      </trkpt>
      <trkpt lat="45.85962" lon="6.45243">
        <ele>2229.6</ele>
        <time>2024-04-27T13:27:32Z</time>
      </trkpt>
      <trkpt lat="45.85962" lon="6.45243">
        <ele>2229.6</ele>
        <time>2024-04-27T13:27:33Z</time>
      </trkpt>
      <trkpt lat="45.85962" lon="6.45243">
        <ele>2229.6</ele>
        <time>2024-04-27T13:27:34Z</time>
      </trkpt>
      <trkpt lat="45.85962" lon="6.45243">
        <ele>2229.6</ele>
        <time>2024-04-27T13:27:35Z</time>
      </trkpt>
      <trkpt lat="45.85962" lon="6.45243">
        <ele>2229.6</ele>
        <time>2024-04-27T13:27:36Z</time>
      </trkpt>
      <trkpt lat="45.85962" lon="6.45243">
        <ele>2229.6</ele>
        <time>2024-04-27T13:27:37Z</time>
      </trkpt>
      <trkpt lat="45.85962" lon="6.45242">
        <ele>2229.6</ele>
        <time>2024-04-27T13:27:38Z</time>
      </trkpt>
      <trkpt lat="45.85962" lon="6.45242">
        <ele>2229.6</ele>
        <time>2024-04-27T13:27:39Z</time>
      </trkpt>
      <trkpt lat="45.85962" lon="6.45242">
        <ele>2229.6</ele>
        <time>2024-04-27T13:27:40Z</time>
      </trkpt>
      <trkpt lat="45.85962" lon="6.45242">
        <ele>2229.6</ele>
        <time>2024-04-27T13:27:41Z</time>
      </trkpt>
      <trkpt lat="45.85962" lon="6.45242">
        <ele>2229.6</ele>
        <time>2024-04-27T13:27:42Z</time>
      </trkpt>
      <trkpt lat="45.85962" lon="6.45242">
        <ele>2229.6</ele>
        <time>2024-04-27T13:27:43Z</time>
      </trkpt>
      <trkpt lat="45.85962" lon="6.45242">
        <ele>2229.6</ele>
        <time>2024-04-27T13:27:44Z</time>
      </trkpt>
      <trkpt lat="45.85962" lon="6.45242">
        <ele>2229.6</ele>
        <time>2024-04-27T13:27:45Z</time>
      </trkpt>
      <trkpt lat="45.85962" lon="6.45242">
        <ele>2229.6</ele>
        <time>2024-04-27T13:27:46Z</time>
      </trkpt>
      <trkpt lat="45.85962" lon="6.45242">
        <ele>2229.6</ele>
        <time>2024-04-27T13:27:47Z</time>
      </trkpt>
      <trkpt lat="45.85962" lon="6.45241">
        <ele>2229.6</ele>
        <time>2024-04-27T13:27:48Z</time>
      </trkpt>
      <trkpt lat="45.85962" lon="6.45241">
        <ele>2229.6</ele>
        <time>2024-04-27T13:27:49Z</time>
      </trkpt>
      <trkpt lat="45.85962" lon="6.45241">
        <ele>2229.6</ele>
        <time>2024-04-27T13:27:50Z</time>
      </trkpt>
      <trkpt lat="45.85962" lon="6.45241">
        <ele>2229.6</ele>
        <time>2024-04-27T13:27:51Z</time>
      </trkpt>
      <trkpt lat="45.85962" lon="6.45241">
        <ele>2229.6</ele>
        <time>2024-04-27T13:27:52Z</time>
      </trkpt>
      <trkpt lat="45.85962" lon="6.45241">
        <ele>2229.6</ele>
        <time>2024-04-27T13:27:53Z</time>
      </trkpt>
      <trkpt lat="45.85962" lon="6.45241">
        <ele>2229.6</ele>
        <time>2024-04-27T13:27:54Z</time>
      </trkpt>
      <trkpt lat="45.85962" lon="6.45241">
        <ele>2229.6</ele>
        <time>2024-04-27T13:27:55Z</time>
      </trkpt>
      <trkpt lat="45.85962" lon="6.45241">
        <ele>2229.6</ele>
        <time>2024-04-27T13:27:56Z</time>
      </trkpt>
      <trkpt lat="45.85962" lon="6.45241">
        <ele>2229.6</ele>
        <time>2024-04-27T13:27:57Z</time>
      </trkpt>
      <trkpt lat="45.85962" lon="6.45241">
        <ele>2229.6</ele>
        <time>2024-04-27T13:27:58Z</time>
      </trkpt>
      <trkpt lat="45.85962" lon="6.45241">
        <ele>2229.6</ele>
        <time>2024-04-27T13:27:59Z</time>
      </trkpt>
      <trkpt lat="45.85962" lon="6.45241">
        <ele>2229.6</ele>
        <time>2024-04-27T13:28:00Z</time>
      </trkpt>
      <trkpt lat="45.85962" lon="6.45241">
        <ele>2229.6</ele>
        <time>2024-04-27T13:28:01Z</time>
      </trkpt>
      <trkpt lat="45.85962" lon="6.45241">
        <ele>2229.6</ele>
        <time>2024-04-27T13:28:02Z</time>
      </trkpt>
      <trkpt lat="45.85962" lon="6.45241">
        <ele>2229.6</ele>
        <time>2024-04-27T13:28:03Z</time>
      </trkpt>
      <trkpt lat="45.85962" lon="6.45241">
        <ele>2229.6</ele>
        <time>2024-04-27T13:28:04Z</time>
      </trkpt>
      <trkpt lat="45.85962" lon="6.45241">
        <ele>2229.6</ele>
        <time>2024-04-27T13:28:05Z</time>
      </trkpt>
      <trkpt lat="45.85962" lon="6.45241">
        <ele>2229.6</ele>
        <time>2024-04-27T13:28:06Z</time>
      </trkpt>
      <trkpt lat="45.85962" lon="6.45241">
        <ele>2229.6</ele>
        <time>2024-04-27T13:28:07Z</time>
      </trkpt>
      <trkpt lat="45.85962" lon="6.45241">
        <ele>2229.6</ele>
        <time>2024-04-27T13:28:08Z</time>
      </trkpt>
      <trkpt lat="45.85962" lon="6.45241">
        <ele>2229.6</ele>
        <time>2024-04-27T13:28:09Z</time>
      </trkpt>
      <trkpt lat="45.85962" lon="6.45241">
        <ele>2229.6</ele>
        <time>2024-04-27T13:28:10Z</time>
      </trkpt>
      <trkpt lat="45.85962" lon="6.45241">
        <ele>2229.6</ele>
        <time>2024-04-27T13:28:11Z</time>
      </trkpt>
      <trkpt lat="45.85962" lon="6.45241">
        <ele>2229.6</ele>
        <time>2024-04-27T13:28:12Z</time>
      </trkpt>
      <trkpt lat="45.85962" lon="6.45241">
        <ele>2229.6</ele>
        <time>2024-04-27T13:28:13Z</time>
      </trkpt>
      <trkpt lat="45.85962" lon="6.45241">
        <ele>2228.7</ele>
        <time>2024-04-27T13:28:14Z</time>
      </trkpt>
      <trkpt lat="45.85962" lon="6.45241">
        <ele>2228.7</ele>
        <time>2024-04-27T13:28:15Z</time>
      </trkpt>
      <trkpt lat="45.85962" lon="6.45241">
        <ele>2228.7</ele>
        <time>2024-04-27T13:28:16Z</time>
      </trkpt>
      <trkpt lat="45.85962" lon="6.45241">
        <ele>2228.7</ele>
        <time>2024-04-27T13:28:17Z</time>
      </trkpt>
      <trkpt lat="45.85962" lon="6.45241">
        <ele>2228.7</ele>
        <time>2024-04-27T13:28:18Z</time>
      </trkpt>
      <trkpt lat="45.85962" lon="6.45241">
        <ele>2228.7</ele>
        <time>2024-04-27T13:28:19Z</time>
      </trkpt>
      <trkpt lat="45.85962" lon="6.45241">
        <ele>2228.7</ele>
        <time>2024-04-27T13:28:20Z</time>
      </trkpt>
      <trkpt lat="45.85962" lon="6.45241">
        <ele>2228.7</ele>
        <time>2024-04-27T13:28:21Z</time>
      </trkpt>
      <trkpt lat="45.85962" lon="6.45241">
        <ele>2228.7</ele>
        <time>2024-04-27T13:28:22Z</time>
      </trkpt>
      <trkpt lat="45.85962" lon="6.45241">
        <ele>2228.7</ele>
        <time>2024-04-27T13:28:23Z</time>
      </trkpt>
      <trkpt lat="45.85962" lon="6.45241">
        <ele>2228.7</ele>
        <time>2024-04-27T13:28:24Z</time>
      </trkpt>
      <trkpt lat="45.85962" lon="6.45241">
        <ele>2228.7</ele>
        <time>2024-04-27T13:28:25Z</time>
      </trkpt>
      <trkpt lat="45.85962" lon="6.45241">
        <ele>2228.7</ele>
        <time>2024-04-27T13:28:26Z</time>
      </trkpt>
      <trkpt lat="45.85962" lon="6.45241">
        <ele>2228.7</ele>
        <time>2024-04-27T13:28:27Z</time>
      </trkpt>
      <trkpt lat="45.85962" lon="6.45241">
        <ele>2228.7</ele>
        <time>2024-04-27T13:28:28Z</time>
      </trkpt>
      <trkpt lat="45.85962" lon="6.45241">
        <ele>2228.7</ele>
        <time>2024-04-27T13:28:29Z</time>
      </trkpt>
      <trkpt lat="45.85962" lon="6.45241">
        <ele>2228.7</ele>
        <time>2024-04-27T13:28:30Z</time>
      </trkpt>
      <trkpt lat="45.85962" lon="6.45241">
        <ele>2228.7</ele>
        <time>2024-04-27T13:28:31Z</time>
      </trkpt>
      <trkpt lat="45.85962" lon="6.45241">
        <ele>2228.7</ele>
        <time>2024-04-27T13:28:32Z</time>
      </trkpt>
      <trkpt lat="45.85962" lon="6.45241">
        <ele>2228.7</ele>
        <time>2024-04-27T13:28:33Z</time>
      </trkpt>
      <trkpt lat="45.85962" lon="6.45241">
        <ele>2228.7</ele>
        <time>2024-04-27T13:28:34Z</time>
      </trkpt>
      <trkpt lat="45.85962" lon="6.45241">
        <ele>2228.7</ele>
        <time>2024-04-27T13:28:35Z</time>
      </trkpt>
      <trkpt lat="45.85962" lon="6.45241">
        <ele>2228.7</ele>
        <time>2024-04-27T13:28:36Z</time>
      </trkpt>
      <trkpt lat="45.85962" lon="6.45241">
        <ele>2228.7</ele>
        <time>2024-04-27T13:28:37Z</time>
      </trkpt>
      <trkpt lat="45.85962" lon="6.45241">
        <ele>2228.7</ele>
        <time>2024-04-27T13:28:38Z</time>
      </trkpt>
      <trkpt lat="45.85962" lon="6.45241">
        <ele>2228.7</ele>
        <time>2024-04-27T13:28:39Z</time>
      </trkpt>
      <trkpt lat="45.85962" lon="6.45241">
        <ele>2228.7</ele>
        <time>2024-04-27T13:28:40Z</time>
      </trkpt>
      <trkpt lat="45.85962" lon="6.45241">
        <ele>2228.7</ele>
        <time>2024-04-27T13:28:41Z</time>
      </trkpt>
      <trkpt lat="45.85962" lon="6.45241">
        <ele>2228.7</ele>
        <time>2024-04-27T13:28:42Z</time>
      </trkpt>
      <trkpt lat="45.85962" lon="6.45241">
        <ele>2228.7</ele>
        <time>2024-04-27T13:28:43Z</time>
      </trkpt>
      <trkpt lat="45.85962" lon="6.45241">
        <ele>2228.7</ele>
        <time>2024-04-27T13:28:44Z</time>
      </trkpt>
      <trkpt lat="45.85962" lon="6.4524">
        <ele>2228.7</ele>
        <time>2024-04-27T13:28:45Z</time>
      </trkpt>
      <trkpt lat="45.85962" lon="6.4524">
        <ele>2228.7</ele>
        <time>2024-04-27T13:28:46Z</time>
      </trkpt>
      <trkpt lat="45.85962" lon="6.4524">
        <ele>2228.7</ele>
        <time>2024-04-27T13:28:47Z</time>
      </trkpt>
      <trkpt lat="45.85962" lon="6.4524">
        <ele>2228.7</ele>
        <time>2024-04-27T13:28:48Z</time>
      </trkpt>
      <trkpt lat="45.85962" lon="6.4524">
        <ele>2228.7</ele>
        <time>2024-04-27T13:28:49Z</time>
      </trkpt>
      <trkpt lat="45.85962" lon="6.4524">
        <ele>2228.7</ele>
        <time>2024-04-27T13:28:50Z</time>
      </trkpt>
      <trkpt lat="45.85962" lon="6.4524">
        <ele>2228.7</ele>
        <time>2024-04-27T13:28:51Z</time>
      </trkpt>
      <trkpt lat="45.85962" lon="6.4524">
        <ele>2228.7</ele>
        <time>2024-04-27T13:28:52Z</time>
      </trkpt>
      <trkpt lat="45.85962" lon="6.4524">
        <ele>2228.7</ele>
        <time>2024-04-27T13:28:53Z</time>
      </trkpt>
      <trkpt lat="45.85962" lon="6.4524">
        <ele>2228.7</ele>
        <time>2024-04-27T13:28:54Z</time>
      </trkpt>
      <trkpt lat="45.85962" lon="6.4524">
        <ele>2228.7</ele>
        <time>2024-04-27T13:28:55Z</time>
      </trkpt>
      <trkpt lat="45.85962" lon="6.4524">
        <ele>2228.7</ele>
        <time>2024-04-27T13:28:56Z</time>
      </trkpt>
      <trkpt lat="45.85962" lon="6.4524">
        <ele>2228.7</ele>
        <time>2024-04-27T13:28:57Z</time>
      </trkpt>
      <trkpt lat="45.85962" lon="6.4524">
        <ele>2228.7</ele>
        <time>2024-04-27T13:28:58Z</time>
      </trkpt>
      <trkpt lat="45.85962" lon="6.4524">
        <ele>2228.7</ele>
        <time>2024-04-27T13:28:59Z</time>
      </trkpt>
      <trkpt lat="45.85962" lon="6.4524">
        <ele>2228.7</ele>
        <time>2024-04-27T13:29:00Z</time>
      </trkpt>
      <trkpt lat="45.85962" lon="6.4524">
        <ele>2228.7</ele>
        <time>2024-04-27T13:29:01Z</time>
      </trkpt>
      <trkpt lat="45.85962" lon="6.4524">
        <ele>2228.7</ele>
        <time>2024-04-27T13:29:02Z</time>
      </trkpt>
      <trkpt lat="45.85962" lon="6.4524">
        <ele>2228.7</ele>
        <time>2024-04-27T13:29:03Z</time>
      </trkpt>
      <trkpt lat="45.85962" lon="6.4524">
        <ele>2228.7</ele>
        <time>2024-04-27T13:29:04Z</time>
      </trkpt>
      <trkpt lat="45.85962" lon="6.4524">
        <ele>2228.7</ele>
        <time>2024-04-27T13:29:05Z</time>
      </trkpt>
      <trkpt lat="45.85962" lon="6.4524">
        <ele>2228.7</ele>
        <time>2024-04-27T13:29:06Z</time>
      </trkpt>
      <trkpt lat="45.85962" lon="6.4524">
        <ele>2228.7</ele>
        <time>2024-04-27T13:29:07Z</time>
      </trkpt>
      <trkpt lat="45.85962" lon="6.4524">
        <ele>2228.7</ele>
        <time>2024-04-27T13:29:08Z</time>
      </trkpt>
      <trkpt lat="45.85962" lon="6.4524">
        <ele>2228.7</ele>
        <time>2024-04-27T13:29:09Z</time>
      </trkpt>
      <trkpt lat="45.85962" lon="6.4524">
        <ele>2228.7</ele>
        <time>2024-04-27T13:29:10Z</time>
      </trkpt>
      <trkpt lat="45.85962" lon="6.4524">
        <ele>2228.7</ele>
        <time>2024-04-27T13:29:11Z</time>
      </trkpt>
      <trkpt lat="45.85962" lon="6.4524">
        <ele>2228.7</ele>
        <time>2024-04-27T13:29:12Z</time>
      </trkpt>
      <trkpt lat="45.85962" lon="6.4524">
        <ele>2228.7</ele>
        <time>2024-04-27T13:29:13Z</time>
      </trkpt>
      <trkpt lat="45.85962" lon="6.4524">
        <ele>2228.7</ele>
        <time>2024-04-27T13:29:14Z</time>
      </trkpt>
      <trkpt lat="45.85962" lon="6.4524">
        <ele>2228.7</ele>
        <time>2024-04-27T13:29:15Z</time>
      </trkpt>
      <trkpt lat="45.85962" lon="6.4524">
        <ele>2228.7</ele>
        <time>2024-04-27T13:29:16Z</time>
      </trkpt>
      <trkpt lat="45.85962" lon="6.4524">
        <ele>2228.7</ele>
        <time>2024-04-27T13:29:17Z</time>
      </trkpt>
      <trkpt lat="45.85962" lon="6.4524">
        <ele>2228.7</ele>
        <time>2024-04-27T13:29:18Z</time>
      </trkpt>
      <trkpt lat="45.85962" lon="6.4524">
        <ele>2228.7</ele>
        <time>2024-04-27T13:29:19Z</time>
      </trkpt>
      <trkpt lat="45.85962" lon="6.4524">
        <ele>2228.7</ele>
        <time>2024-04-27T13:29:20Z</time>
      </trkpt>
      <trkpt lat="45.85962" lon="6.4524">
        <ele>2228.7</ele>
        <time>2024-04-27T13:29:21Z</time>
      </trkpt>
      <trkpt lat="45.85962" lon="6.4524">
        <ele>2228.7</ele>
        <time>2024-04-27T13:29:22Z</time>
      </trkpt>
      <trkpt lat="45.85962" lon="6.4524">
        <ele>2228.7</ele>
        <time>2024-04-27T13:29:23Z</time>
      </trkpt>
      <trkpt lat="45.85962" lon="6.4524">
        <ele>2228.7</ele>
        <time>2024-04-27T13:29:24Z</time>
      </trkpt>
      <trkpt lat="45.85962" lon="6.4524">
        <ele>2228.7</ele>
        <time>2024-04-27T13:29:25Z</time>
      </trkpt>
      <trkpt lat="45.85962" lon="6.4524">
        <ele>2228.7</ele>
        <time>2024-04-27T13:29:26Z</time>
      </trkpt>
      <trkpt lat="45.85962" lon="6.4524">
        <ele>2228.7</ele>
        <time>2024-04-27T13:29:27Z</time>
      </trkpt>
      <trkpt lat="45.85962" lon="6.4524">
        <ele>2228.7</ele>
        <time>2024-04-27T13:29:28Z</time>
      </trkpt>
      <trkpt lat="45.85962" lon="6.4524">
        <ele>2228.7</ele>
        <time>2024-04-27T13:29:29Z</time>
      </trkpt>
      <trkpt lat="45.85962" lon="6.4524">
        <ele>2228.7</ele>
        <time>2024-04-27T13:29:30Z</time>
      </trkpt>
      <trkpt lat="45.85962" lon="6.4524">
        <ele>2228.7</ele>
        <time>2024-04-27T13:29:31Z</time>
      </trkpt>
      <trkpt lat="45.85962" lon="6.4524">
        <ele>2228.7</ele>
        <time>2024-04-27T13:29:32Z</time>
      </trkpt>
      <trkpt lat="45.85962" lon="6.4524">
        <ele>2228.7</ele>
        <time>2024-04-27T13:29:33Z</time>
      </trkpt>
      <trkpt lat="45.85962" lon="6.4524">
        <ele>2228.7</ele>
        <time>2024-04-27T13:29:34Z</time>
      </trkpt>
      <trkpt lat="45.85962" lon="6.4524">
        <ele>2228.7</ele>
        <time>2024-04-27T13:29:35Z</time>
      </trkpt>
      <trkpt lat="45.85962" lon="6.4524">
        <ele>2228.7</ele>
        <time>2024-04-27T13:29:36Z</time>
      </trkpt>
      <trkpt lat="45.85962" lon="6.4524">
        <ele>2228.7</ele>
        <time>2024-04-27T13:29:37Z</time>
      </trkpt>
      <trkpt lat="45.85962" lon="6.4524">
        <ele>2228.7</ele>
        <time>2024-04-27T13:29:38Z</time>
      </trkpt>
      <trkpt lat="45.85962" lon="6.4524">
        <ele>2228.7</ele>
        <time>2024-04-27T13:29:39Z</time>
      </trkpt>
      <trkpt lat="45.85962" lon="6.4524">
        <ele>2228.7</ele>
        <time>2024-04-27T13:29:40Z</time>
      </trkpt>
      <trkpt lat="45.85962" lon="6.4524">
        <ele>2228.7</ele>
        <time>2024-04-27T13:29:41Z</time>
      </trkpt>
      <trkpt lat="45.85962" lon="6.4524">
        <ele>2227.7</ele>
        <time>2024-04-27T13:29:42Z</time>
      </trkpt>
      <trkpt lat="45.85962" lon="6.4524">
        <ele>2227.7</ele>
        <time>2024-04-27T13:29:43Z</time>
      </trkpt>
      <trkpt lat="45.85962" lon="6.4524">
        <ele>2227.7</ele>
        <time>2024-04-27T13:29:44Z</time>
      </trkpt>
      <trkpt lat="45.85962" lon="6.4524">
        <ele>2227.7</ele>
        <time>2024-04-27T13:29:45Z</time>
      </trkpt>
      <trkpt lat="45.85962" lon="6.4524">
        <ele>2227.7</ele>
        <time>2024-04-27T13:29:46Z</time>
      </trkpt>
      <trkpt lat="45.85962" lon="6.4524">
        <ele>2227.7</ele>
        <time>2024-04-27T13:29:47Z</time>
      </trkpt>
      <trkpt lat="45.85962" lon="6.4524">
        <ele>2227.7</ele>
        <time>2024-04-27T13:29:48Z</time>
      </trkpt>
      <trkpt lat="45.85962" lon="6.4524">
        <ele>2227.7</ele>
        <time>2024-04-27T13:29:49Z</time>
      </trkpt>
      <trkpt lat="45.85962" lon="6.4524">
        <ele>2227.7</ele>
        <time>2024-04-27T13:29:50Z</time>
      </trkpt>
      <trkpt lat="45.85962" lon="6.4524">
        <ele>2227.7</ele>
        <time>2024-04-27T13:29:51Z</time>
      </trkpt>
      <trkpt lat="45.85962" lon="6.4524">
        <ele>2227.7</ele>
        <time>2024-04-27T13:29:52Z</time>
      </trkpt>
      <trkpt lat="45.85962" lon="6.4524">
        <ele>2227.7</ele>
        <time>2024-04-27T13:29:53Z</time>
      </trkpt>
      <trkpt lat="45.85962" lon="6.4524">
        <ele>2227.7</ele>
        <time>2024-04-27T13:29:54Z</time>
      </trkpt>
      <trkpt lat="45.85962" lon="6.4524">
        <ele>2227.7</ele>
        <time>2024-04-27T13:29:55Z</time>
      </trkpt>
      <trkpt lat="45.85962" lon="6.4524">
        <ele>2227.7</ele>
        <time>2024-04-27T13:29:56Z</time>
      </trkpt>
      <trkpt lat="45.85962" lon="6.4524">
        <ele>2227.7</ele>
        <time>2024-04-27T13:29:57Z</time>
      </trkpt>
      <trkpt lat="45.85962" lon="6.4524">
        <ele>2227.7</ele>
        <time>2024-04-27T13:29:58Z</time>
      </trkpt>
      <trkpt lat="45.85962" lon="6.4524">
        <ele>2227.7</ele>
        <time>2024-04-27T13:29:59Z</time>
      </trkpt>
      <trkpt lat="45.85962" lon="6.4524">
        <ele>2227.7</ele>
        <time>2024-04-27T13:30:00Z</time>
      </trkpt>
      <trkpt lat="45.85962" lon="6.4524">
        <ele>2227.7</ele>
        <time>2024-04-27T13:30:01Z</time>
      </trkpt>
      <trkpt lat="45.85962" lon="6.4524">
        <ele>2227.7</ele>
        <time>2024-04-27T13:30:02Z</time>
      </trkpt>
      <trkpt lat="45.85962" lon="6.4524">
        <ele>2227.7</ele>
        <time>2024-04-27T13:30:03Z</time>
      </trkpt>
      <trkpt lat="45.85962" lon="6.4524">
        <ele>2227.7</ele>
        <time>2024-04-27T13:30:04Z</time>
      </trkpt>
      <trkpt lat="45.85962" lon="6.4524">
        <ele>2227.7</ele>
        <time>2024-04-27T13:30:05Z</time>
      </trkpt>
      <trkpt lat="45.85962" lon="6.4524">
        <ele>2227.7</ele>
        <time>2024-04-27T13:30:06Z</time>
      </trkpt>
      <trkpt lat="45.85962" lon="6.4524">
        <ele>2227.7</ele>
        <time>2024-04-27T13:30:07Z</time>
      </trkpt>
      <trkpt lat="45.85962" lon="6.4524">
        <ele>2227.7</ele>
        <time>2024-04-27T13:30:08Z</time>
      </trkpt>
      <trkpt lat="45.85962" lon="6.4524">
        <ele>2227.7</ele>
        <time>2024-04-27T13:30:09Z</time>
      </trkpt>
      <trkpt lat="45.85962" lon="6.4524">
        <ele>2227.7</ele>
        <time>2024-04-27T13:30:10Z</time>
      </trkpt>
      <trkpt lat="45.85962" lon="6.4524">
        <ele>2227.7</ele>
        <time>2024-04-27T13:30:11Z</time>
      </trkpt>
      <trkpt lat="45.85962" lon="6.4524">
        <ele>2227.7</ele>
        <time>2024-04-27T13:30:12Z</time>
      </trkpt>
      <trkpt lat="45.85962" lon="6.4524">
        <ele>2227.7</ele>
        <time>2024-04-27T13:30:13Z</time>
      </trkpt>
      <trkpt lat="45.85962" lon="6.4524">
        <ele>2227.7</ele>
        <time>2024-04-27T13:30:14Z</time>
      </trkpt>
      <trkpt lat="45.85962" lon="6.4524">
        <ele>2227.7</ele>
        <time>2024-04-27T13:30:15Z</time>
      </trkpt>
      <trkpt lat="45.85962" lon="6.4524">
        <ele>2227.7</ele>
        <time>2024-04-27T13:30:16Z</time>
      </trkpt>
      <trkpt lat="45.85962" lon="6.4524">
        <ele>2227.7</ele>
        <time>2024-04-27T13:30:17Z</time>
      </trkpt>
      <trkpt lat="45.85962" lon="6.4524">
        <ele>2227.7</ele>
        <time>2024-04-27T13:30:18Z</time>
      </trkpt>
      <trkpt lat="45.85962" lon="6.4524">
        <ele>2227.7</ele>
        <time>2024-04-27T13:30:19Z</time>
      </trkpt>
      <trkpt lat="45.85962" lon="6.4524">
        <ele>2227.7</ele>
        <time>2024-04-27T13:30:20Z</time>
      </trkpt>
      <trkpt lat="45.85962" lon="6.4524">
        <ele>2227.7</ele>
        <time>2024-04-27T13:30:21Z</time>
      </trkpt>
      <trkpt lat="45.85962" lon="6.4524">
        <ele>2227.7</ele>
        <time>2024-04-27T13:30:22Z</time>
      </trkpt>
      <trkpt lat="45.85962" lon="6.4524">
        <ele>2227.7</ele>
        <time>2024-04-27T13:30:23Z</time>
      </trkpt>
      <trkpt lat="45.85962" lon="6.4524">
        <ele>2227.7</ele>
        <time>2024-04-27T13:30:24Z</time>
      </trkpt>
      <trkpt lat="45.85962" lon="6.4524">
        <ele>2227.7</ele>
        <time>2024-04-27T13:30:25Z</time>
      </trkpt>
      <trkpt lat="45.85962" lon="6.4524">
        <ele>2227.7</ele>
        <time>2024-04-27T13:30:26Z</time>
      </trkpt>
      <trkpt lat="45.85962" lon="6.4524">
        <ele>2227.7</ele>
        <time>2024-04-27T13:30:27Z</time>
      </trkpt>
      <trkpt lat="45.85962" lon="6.4524">
        <ele>2227.7</ele>
        <time>2024-04-27T13:30:28Z</time>
      </trkpt>
      <trkpt lat="45.85962" lon="6.4524">
        <ele>2227.7</ele>
        <time>2024-04-27T13:30:29Z</time>
      </trkpt>
      <trkpt lat="45.85962" lon="6.4524">
        <ele>2227.7</ele>
        <time>2024-04-27T13:30:30Z</time>
      </trkpt>
      <trkpt lat="45.85962" lon="6.4524">
        <ele>2227.7</ele>
        <time>2024-04-27T13:30:31Z</time>
      </trkpt>
      <trkpt lat="45.85962" lon="6.4524">
        <ele>2227.7</ele>
        <time>2024-04-27T13:30:32Z</time>
      </trkpt>
      <trkpt lat="45.85962" lon="6.4524">
        <ele>2227.7</ele>
        <time>2024-04-27T13:30:33Z</time>
      </trkpt>
      <trkpt lat="45.85962" lon="6.4524">
        <ele>2227.7</ele>
        <time>2024-04-27T13:30:34Z</time>
      </trkpt>
      <trkpt lat="45.85962" lon="6.4524">
        <ele>2227.7</ele>
        <time>2024-04-27T13:30:35Z</time>
      </trkpt>
      <trkpt lat="45.85962" lon="6.4524">
        <ele>2227.7</ele>
        <time>2024-04-27T13:30:36Z</time>
      </trkpt>
      <trkpt lat="45.85962" lon="6.4524">
        <ele>2227.7</ele>
        <time>2024-04-27T13:30:37Z</time>
      </trkpt>
      <trkpt lat="45.85962" lon="6.4524">
        <ele>2227.7</ele>
        <time>2024-04-27T13:30:38Z</time>
      </trkpt>
      <trkpt lat="45.85962" lon="6.4524">
        <ele>2227.7</ele>
        <time>2024-04-27T13:30:39Z</time>
      </trkpt>
      <trkpt lat="45.85962" lon="6.4524">
        <ele>2227.7</ele>
        <time>2024-04-27T13:30:40Z</time>
      </trkpt>
      <trkpt lat="45.85962" lon="6.4524">
        <ele>2227.7</ele>
        <time>2024-04-27T13:30:41Z</time>
      </trkpt>
      <trkpt lat="45.85962" lon="6.4524">
        <ele>2227.7</ele>
        <time>2024-04-27T13:30:42Z</time>
      </trkpt>
      <trkpt lat="45.85962" lon="6.4524">
        <ele>2227.7</ele>
        <time>2024-04-27T13:30:43Z</time>
      </trkpt>
      <trkpt lat="45.85962" lon="6.4524">
        <ele>2227.7</ele>
        <time>2024-04-27T13:30:44Z</time>
      </trkpt>
      <trkpt lat="45.85962" lon="6.4524">
        <ele>2227.7</ele>
        <time>2024-04-27T13:30:45Z</time>
      </trkpt>
      <trkpt lat="45.85962" lon="6.4524">
        <ele>2227.7</ele>
        <time>2024-04-27T13:30:46Z</time>
      </trkpt>
      <trkpt lat="45.85962" lon="6.4524">
        <ele>2227.7</ele>
        <time>2024-04-27T13:30:47Z</time>
      </trkpt>
      <trkpt lat="45.85962" lon="6.4524">
        <ele>2227.7</ele>
        <time>2024-04-27T13:30:48Z</time>
      </trkpt>
      <trkpt lat="45.85962" lon="6.4524">
        <ele>2227.7</ele>
        <time>2024-04-27T13:30:49Z</time>
      </trkpt>
      <trkpt lat="45.85962" lon="6.4524">
        <ele>2227.7</ele>
        <time>2024-04-27T13:30:50Z</time>
      </trkpt>
      <trkpt lat="45.85962" lon="6.4524">
        <ele>2227.7</ele>
        <time>2024-04-27T13:30:51Z</time>
      </trkpt>
      <trkpt lat="45.85962" lon="6.4524">
        <ele>2227.7</ele>
        <time>2024-04-27T13:30:52Z</time>
      </trkpt>
      <trkpt lat="45.85962" lon="6.4524">
        <ele>2227.7</ele>
        <time>2024-04-27T13:30:53Z</time>
      </trkpt>
      <trkpt lat="45.85962" lon="6.45239">
        <ele>2227.7</ele>
        <time>2024-04-27T13:30:54Z</time>
      </trkpt>
      <trkpt lat="45.85961" lon="6.45239">
        <ele>2227.7</ele>
        <time>2024-04-27T13:30:55Z</time>
      </trkpt>
      <trkpt lat="45.85961" lon="6.45238">
        <ele>2227.7</ele>
        <time>2024-04-27T13:30:56Z</time>
      </trkpt>
      <trkpt lat="45.85961" lon="6.45238">
        <ele>2227.7</ele>
        <time>2024-04-27T13:30:57Z</time>
      </trkpt>
      <trkpt lat="45.85961" lon="6.45238">
        <ele>2227.7</ele>
        <time>2024-04-27T13:30:58Z</time>
      </trkpt>
      <trkpt lat="45.8596" lon="6.45238">
        <ele>2227.7</ele>
        <time>2024-04-27T13:30:59Z</time>
      </trkpt>
      <trkpt lat="45.8596" lon="6.45238">
        <ele>2227.7</ele>
        <time>2024-04-27T13:31:00Z</time>
      </trkpt>
      <trkpt lat="45.8596" lon="6.45238">
        <ele>2227.7</ele>
        <time>2024-04-27T13:31:01Z</time>
      </trkpt>
      <trkpt lat="45.8596" lon="6.45238">
        <ele>2227.7</ele>
        <time>2024-04-27T13:31:02Z</time>
      </trkpt>
      <trkpt lat="45.8596" lon="6.45238">
        <ele>2227.7</ele>
        <time>2024-04-27T13:31:03Z</time>
      </trkpt>
      <trkpt lat="45.8596" lon="6.45238">
        <ele>2227.7</ele>
        <time>2024-04-27T13:31:04Z</time>
      </trkpt>
      <trkpt lat="45.8596" lon="6.45238">
        <ele>2227.7</ele>
        <time>2024-04-27T13:31:05Z</time>
      </trkpt>
      <trkpt lat="45.8596" lon="6.45238">
        <ele>2227.7</ele>
        <time>2024-04-27T13:31:06Z</time>
      </trkpt>
      <trkpt lat="45.8596" lon="6.45238">
        <ele>2227.7</ele>
        <time>2024-04-27T13:31:07Z</time>
      </trkpt>
      <trkpt lat="45.8596" lon="6.45238">
        <ele>2227.7</ele>
        <time>2024-04-27T13:31:08Z</time>
      </trkpt>
      <trkpt lat="45.8596" lon="6.45238">
        <ele>2227.7</ele>
        <time>2024-04-27T13:31:09Z</time>
      </trkpt>
      <trkpt lat="45.8596" lon="6.45238">
        <ele>2227.7</ele>
        <time>2024-04-27T13:31:10Z</time>
      </trkpt>
      <trkpt lat="45.8596" lon="6.45238">
        <ele>2227.7</ele>
        <time>2024-04-27T13:31:11Z</time>
      </trkpt>
      <trkpt lat="45.8596" lon="6.45238">
        <ele>2227.7</ele>
        <time>2024-04-27T13:31:12Z</time>
      </trkpt>
      <trkpt lat="45.8596" lon="6.45238">
        <ele>2227.7</ele>
        <time>2024-04-27T13:31:13Z</time>
      </trkpt>
      <trkpt lat="45.8596" lon="6.45238">
        <ele>2227.7</ele>
        <time>2024-04-27T13:31:14Z</time>
      </trkpt>
      <trkpt lat="45.8596" lon="6.45238">
        <ele>2227.7</ele>
        <time>2024-04-27T13:31:15Z</time>
      </trkpt>
      <trkpt lat="45.8596" lon="6.45238">
        <ele>2227.7</ele>
        <time>2024-04-27T13:31:16Z</time>
      </trkpt>
      <trkpt lat="45.8596" lon="6.45238">
        <ele>2227.7</ele>
        <time>2024-04-27T13:31:17Z</time>
      </trkpt>
      <trkpt lat="45.8596" lon="6.45238">
        <ele>2227.7</ele>
        <time>2024-04-27T13:31:18Z</time>
      </trkpt>
      <trkpt lat="45.8596" lon="6.45238">
        <ele>2227.7</ele>
        <time>2024-04-27T13:31:19Z</time>
      </trkpt>
      <trkpt lat="45.8596" lon="6.45238">
        <ele>2227.7</ele>
        <time>2024-04-27T13:31:20Z</time>
      </trkpt>
      <trkpt lat="45.8596" lon="6.45238">
        <ele>2227.7</ele>
        <time>2024-04-27T13:31:21Z</time>
      </trkpt>
      <trkpt lat="45.8596" lon="6.45238">
        <ele>2227.7</ele>
        <time>2024-04-27T13:31:22Z</time>
      </trkpt>
      <trkpt lat="45.8596" lon="6.45238">
        <ele>2227.7</ele>
        <time>2024-04-27T13:31:23Z</time>
      </trkpt>
      <trkpt lat="45.8596" lon="6.45238">
        <ele>2227.7</ele>
        <time>2024-04-27T13:31:24Z</time>
      </trkpt>
      <trkpt lat="45.8596" lon="6.45238">
        <ele>2227.7</ele>
        <time>2024-04-27T13:31:25Z</time>
      </trkpt>
      <trkpt lat="45.8596" lon="6.45238">
        <ele>2227.7</ele>
        <time>2024-04-27T13:31:26Z</time>
      </trkpt>
      <trkpt lat="45.8596" lon="6.45238">
        <ele>2227.7</ele>
        <time>2024-04-27T13:31:27Z</time>
      </trkpt>
      <trkpt lat="45.8596" lon="6.45238">
        <ele>2227.7</ele>
        <time>2024-04-27T13:31:28Z</time>
      </trkpt>
      <trkpt lat="45.8596" lon="6.45238">
        <ele>2227.7</ele>
        <time>2024-04-27T13:31:29Z</time>
      </trkpt>
      <trkpt lat="45.8596" lon="6.45239">
        <ele>2227.7</ele>
        <time>2024-04-27T13:31:30Z</time>
      </trkpt>
      <trkpt lat="45.8596" lon="6.45239">
        <ele>2227.7</ele>
        <time>2024-04-27T13:31:31Z</time>
      </trkpt>
      <trkpt lat="45.8596" lon="6.45239">
        <ele>2227.7</ele>
        <time>2024-04-27T13:31:32Z</time>
      </trkpt>
      <trkpt lat="45.8596" lon="6.45239">
        <ele>2227.7</ele>
        <time>2024-04-27T13:31:33Z</time>
      </trkpt>
      <trkpt lat="45.8596" lon="6.45239">
        <ele>2227.7</ele>
        <time>2024-04-27T13:31:34Z</time>
      </trkpt>
      <trkpt lat="45.8596" lon="6.45239">
        <ele>2227.7</ele>
        <time>2024-04-27T13:31:35Z</time>
      </trkpt>
      <trkpt lat="45.8596" lon="6.45239">
        <ele>2227.7</ele>
        <time>2024-04-27T13:31:36Z</time>
      </trkpt>
      <trkpt lat="45.85961" lon="6.45239">
        <ele>2227.7</ele>
        <time>2024-04-27T13:31:37Z</time>
      </trkpt>
      <trkpt lat="45.85961" lon="6.45239">
        <ele>2227.7</ele>
        <time>2024-04-27T13:31:38Z</time>
      </trkpt>
      <trkpt lat="45.85961" lon="6.45239">
        <ele>2227.7</ele>
        <time>2024-04-27T13:31:39Z</time>
      </trkpt>
      <trkpt lat="45.85961" lon="6.45239">
        <ele>2227.7</ele>
        <time>2024-04-27T13:31:40Z</time>
      </trkpt>
      <trkpt lat="45.85961" lon="6.4524">
        <ele>2227.7</ele>
        <time>2024-04-27T13:31:41Z</time>
      </trkpt>
      <trkpt lat="45.85961" lon="6.4524">
        <ele>2227.7</ele>
        <time>2024-04-27T13:31:42Z</time>
      </trkpt>
      <trkpt lat="45.85961" lon="6.4524">
        <ele>2227.7</ele>
        <time>2024-04-27T13:31:43Z</time>
      </trkpt>
      <trkpt lat="45.85961" lon="6.45241">
        <ele>2227.7</ele>
        <time>2024-04-27T13:31:44Z</time>
      </trkpt>
      <trkpt lat="45.85961" lon="6.45241">
        <ele>2227.7</ele>
        <time>2024-04-27T13:31:45Z</time>
      </trkpt>
      <trkpt lat="45.85961" lon="6.45241">
        <ele>2227.7</ele>
        <time>2024-04-27T13:31:46Z</time>
      </trkpt>
      <trkpt lat="45.85961" lon="6.45241">
        <ele>2227.7</ele>
        <time>2024-04-27T13:31:47Z</time>
      </trkpt>
      <trkpt lat="45.85961" lon="6.45241">
        <ele>2227.7</ele>
        <time>2024-04-27T13:31:48Z</time>
      </trkpt>
      <trkpt lat="45.85961" lon="6.45241">
        <ele>2227.7</ele>
        <time>2024-04-27T13:31:49Z</time>
      </trkpt>
      <trkpt lat="45.85961" lon="6.45241">
        <ele>2227.7</ele>
        <time>2024-04-27T13:31:50Z</time>
      </trkpt>
      <trkpt lat="45.85961" lon="6.45241">
        <ele>2227.7</ele>
        <time>2024-04-27T13:31:51Z</time>
      </trkpt>
      <trkpt lat="45.85961" lon="6.45241">
        <ele>2227.7</ele>
        <time>2024-04-27T13:31:52Z</time>
      </trkpt>
      <trkpt lat="45.85961" lon="6.45241">
        <ele>2227.7</ele>
        <time>2024-04-27T13:31:53Z</time>
      </trkpt>
      <trkpt lat="45.85961" lon="6.45241">
        <ele>2227.7</ele>
        <time>2024-04-27T13:31:54Z</time>
      </trkpt>
      <trkpt lat="45.85961" lon="6.45241">
        <ele>2227.7</ele>
        <time>2024-04-27T13:31:55Z</time>
      </trkpt>
      <trkpt lat="45.85961" lon="6.45241">
        <ele>2227.7</ele>
        <time>2024-04-27T13:31:56Z</time>
      </trkpt>
      <trkpt lat="45.85961" lon="6.45241">
        <ele>2227.7</ele>
        <time>2024-04-27T13:31:57Z</time>
      </trkpt>
      <trkpt lat="45.85961" lon="6.45241">
        <ele>2227.7</ele>
        <time>2024-04-27T13:31:58Z</time>
      </trkpt>
      <trkpt lat="45.85961" lon="6.45241">
        <ele>2227.7</ele>
        <time>2024-04-27T13:31:59Z</time>
      </trkpt>
      <trkpt lat="45.85961" lon="6.45241">
        <ele>2227.7</ele>
        <time>2024-04-27T13:32:00Z</time>
      </trkpt>
      <trkpt lat="45.85961" lon="6.45241">
        <ele>2227.7</ele>
        <time>2024-04-27T13:32:01Z</time>
      </trkpt>
      <trkpt lat="45.85961" lon="6.45241">
        <ele>2227.7</ele>
        <time>2024-04-27T13:32:02Z</time>
      </trkpt>
      <trkpt lat="45.85961" lon="6.45241">
        <ele>2227.7</ele>
        <time>2024-04-27T13:32:03Z</time>
      </trkpt>
      <trkpt lat="45.85961" lon="6.45241">
        <ele>2229.6</ele>
        <time>2024-04-27T13:32:04Z</time>
      </trkpt>
      <trkpt lat="45.85961" lon="6.45241">
        <ele>2229.6</ele>
        <time>2024-04-27T13:32:05Z</time>
      </trkpt>
      <trkpt lat="45.85962" lon="6.45241">
        <ele>2229.6</ele>
        <time>2024-04-27T13:32:06Z</time>
      </trkpt>
      <trkpt lat="45.85962" lon="6.45241">
        <ele>2229.6</ele>
        <time>2024-04-27T13:32:07Z</time>
      </trkpt>
      <trkpt lat="45.85962" lon="6.45241">
        <ele>2229.6</ele>
        <time>2024-04-27T13:32:08Z</time>
      </trkpt>
      <trkpt lat="45.85962" lon="6.45241">
        <ele>2229.6</ele>
        <time>2024-04-27T13:32:09Z</time>
      </trkpt>
      <trkpt lat="45.85962" lon="6.45241">
        <ele>2229.6</ele>
        <time>2024-04-27T13:32:10Z</time>
      </trkpt>
      <trkpt lat="45.85962" lon="6.45241">
        <ele>2229.6</ele>
        <time>2024-04-27T13:32:11Z</time>
      </trkpt>
      <trkpt lat="45.85963" lon="6.45241">
        <ele>2229.6</ele>
        <time>2024-04-27T13:32:12Z</time>
      </trkpt>
      <trkpt lat="45.85963" lon="6.45242">
        <ele>2229.6</ele>
        <time>2024-04-27T13:32:13Z</time>
      </trkpt>
      <trkpt lat="45.85964" lon="6.45242">
        <ele>2230.7</ele>
        <time>2024-04-27T13:32:14Z</time>
      </trkpt>
      <trkpt lat="45.85964" lon="6.45242">
        <ele>2230.7</ele>
        <time>2024-04-27T13:32:15Z</time>
      </trkpt>
      <trkpt lat="45.85964" lon="6.45242">
        <ele>2230.7</ele>
        <time>2024-04-27T13:32:16Z</time>
      </trkpt>
      <trkpt lat="45.85964" lon="6.45242">
        <ele>2230.7</ele>
        <time>2024-04-27T13:32:17Z</time>
      </trkpt>
      <trkpt lat="45.85964" lon="6.45242">
        <ele>2230.7</ele>
        <time>2024-04-27T13:32:18Z</time>
      </trkpt>
      <trkpt lat="45.85964" lon="6.45242">
        <ele>2230.7</ele>
        <time>2024-04-27T13:32:19Z</time>
      </trkpt>
      <trkpt lat="45.85964" lon="6.45242">
        <ele>2230.7</ele>
        <time>2024-04-27T13:32:20Z</time>
      </trkpt>
      <trkpt lat="45.85964" lon="6.45242">
        <ele>2230.7</ele>
        <time>2024-04-27T13:32:21Z</time>
      </trkpt>
      <trkpt lat="45.85964" lon="6.45242">
        <ele>2230.7</ele>
        <time>2024-04-27T13:32:22Z</time>
      </trkpt>
      <trkpt lat="45.85964" lon="6.45242">
        <ele>2230.7</ele>
        <time>2024-04-27T13:32:23Z</time>
      </trkpt>
      <trkpt lat="45.85964" lon="6.45242">
        <ele>2230.7</ele>
        <time>2024-04-27T13:32:24Z</time>
      </trkpt>
      <trkpt lat="45.85964" lon="6.45242">
        <ele>2230.7</ele>
        <time>2024-04-27T13:32:25Z</time>
      </trkpt>
      <trkpt lat="45.85964" lon="6.45242">
        <ele>2230.7</ele>
        <time>2024-04-27T13:32:26Z</time>
      </trkpt>
      <trkpt lat="45.85964" lon="6.45242">
        <ele>2230.7</ele>
        <time>2024-04-27T13:32:27Z</time>
      </trkpt>
      <trkpt lat="45.85964" lon="6.45242">
        <ele>2230.7</ele>
        <time>2024-04-27T13:32:28Z</time>
      </trkpt>
      <trkpt lat="45.85964" lon="6.45242">
        <ele>2230.7</ele>
        <time>2024-04-27T13:32:29Z</time>
      </trkpt>
      <trkpt lat="45.85964" lon="6.45242">
        <ele>2230.7</ele>
        <time>2024-04-27T13:32:30Z</time>
      </trkpt>
      <trkpt lat="45.85964" lon="6.45242">
        <ele>2230.7</ele>
        <time>2024-04-27T13:32:31Z</time>
      </trkpt>
      <trkpt lat="45.85964" lon="6.45242">
        <ele>2230.7</ele>
        <time>2024-04-27T13:32:32Z</time>
      </trkpt>
      <trkpt lat="45.85964" lon="6.45242">
        <ele>2230.7</ele>
        <time>2024-04-27T13:32:33Z</time>
      </trkpt>
      <trkpt lat="45.85964" lon="6.45242">
        <ele>2230.7</ele>
        <time>2024-04-27T13:32:34Z</time>
      </trkpt>
      <trkpt lat="45.85964" lon="6.45242">
        <ele>2230.7</ele>
        <time>2024-04-27T13:32:35Z</time>
      </trkpt>
      <trkpt lat="45.85964" lon="6.45242">
        <ele>2230.7</ele>
        <time>2024-04-27T13:32:36Z</time>
      </trkpt>
      <trkpt lat="45.85964" lon="6.45242">
        <ele>2230.7</ele>
        <time>2024-04-27T13:32:37Z</time>
      </trkpt>
      <trkpt lat="45.85964" lon="6.45242">
        <ele>2230.7</ele>
        <time>2024-04-27T13:32:38Z</time>
      </trkpt>
      <trkpt lat="45.85964" lon="6.45242">
        <ele>2230.7</ele>
        <time>2024-04-27T13:32:39Z</time>
      </trkpt>
      <trkpt lat="45.85964" lon="6.45242">
        <ele>2230.7</ele>
        <time>2024-04-27T13:32:40Z</time>
      </trkpt>
      <trkpt lat="45.85964" lon="6.45242">
        <ele>2230.7</ele>
        <time>2024-04-27T13:32:41Z</time>
      </trkpt>
      <trkpt lat="45.85964" lon="6.45242">
        <ele>2230.7</ele>
        <time>2024-04-27T13:32:42Z</time>
      </trkpt>
      <trkpt lat="45.85964" lon="6.45242">
        <ele>2230.7</ele>
        <time>2024-04-27T13:32:43Z</time>
      </trkpt>
      <trkpt lat="45.85964" lon="6.45242">
        <ele>2230.7</ele>
        <time>2024-04-27T13:32:44Z</time>
      </trkpt>
      <trkpt lat="45.85964" lon="6.45242">
        <ele>2230.7</ele>
        <time>2024-04-27T13:32:45Z</time>
      </trkpt>
      <trkpt lat="45.85964" lon="6.45241">
        <ele>2230.7</ele>
        <time>2024-04-27T13:32:46Z</time>
      </trkpt>
      <trkpt lat="45.85964" lon="6.45241">
        <ele>2229.6</ele>
        <time>2024-04-27T13:32:47Z</time>
      </trkpt>
      <trkpt lat="45.85964" lon="6.45241">
        <ele>2229.6</ele>
        <time>2024-04-27T13:32:48Z</time>
      </trkpt>
      <trkpt lat="45.85964" lon="6.45241">
        <ele>2229.6</ele>
        <time>2024-04-27T13:32:49Z</time>
      </trkpt>
      <trkpt lat="45.85964" lon="6.45241">
        <ele>2229.6</ele>
        <time>2024-04-27T13:32:50Z</time>
      </trkpt>
      <trkpt lat="45.85964" lon="6.45241">
        <ele>2229.6</ele>
        <time>2024-04-27T13:32:51Z</time>
      </trkpt>
      <trkpt lat="45.85964" lon="6.45241">
        <ele>2229.6</ele>
        <time>2024-04-27T13:32:52Z</time>
      </trkpt>
      <trkpt lat="45.85964" lon="6.45241">
        <ele>2229.6</ele>
        <time>2024-04-27T13:32:53Z</time>
      </trkpt>
      <trkpt lat="45.85964" lon="6.45241">
        <ele>2229.6</ele>
        <time>2024-04-27T13:32:54Z</time>
      </trkpt>
      <trkpt lat="45.85964" lon="6.45241">
        <ele>2229.6</ele>
        <time>2024-04-27T13:32:55Z</time>
      </trkpt>
      <trkpt lat="45.85964" lon="6.45241">
        <ele>2229.6</ele>
        <time>2024-04-27T13:32:56Z</time>
      </trkpt>
      <trkpt lat="45.85964" lon="6.45241">
        <ele>2229.6</ele>
        <time>2024-04-27T13:32:57Z</time>
      </trkpt>
      <trkpt lat="45.85964" lon="6.45241">
        <ele>2229.6</ele>
        <time>2024-04-27T13:32:58Z</time>
      </trkpt>
      <trkpt lat="45.85964" lon="6.45241">
        <ele>2229.6</ele>
        <time>2024-04-27T13:32:59Z</time>
      </trkpt>
      <trkpt lat="45.85964" lon="6.45241">
        <ele>2229.6</ele>
        <time>2024-04-27T13:33:00Z</time>
      </trkpt>
      <trkpt lat="45.85963" lon="6.45241">
        <ele>2230.7</ele>
        <time>2024-04-27T13:33:01Z</time>
      </trkpt>
      <trkpt lat="45.85963" lon="6.45241">
        <ele>2230.7</ele>
        <time>2024-04-27T13:33:02Z</time>
      </trkpt>
      <trkpt lat="45.85963" lon="6.45241">
        <ele>2230.7</ele>
        <time>2024-04-27T13:33:03Z</time>
      </trkpt>
      <trkpt lat="45.85963" lon="6.45241">
        <ele>2230.7</ele>
        <time>2024-04-27T13:33:04Z</time>
      </trkpt>
      <trkpt lat="45.85963" lon="6.45241">
        <ele>2230.7</ele>
        <time>2024-04-27T13:33:05Z</time>
      </trkpt>
      <trkpt lat="45.85963" lon="6.45241">
        <ele>2230.7</ele>
        <time>2024-04-27T13:33:06Z</time>
      </trkpt>
      <trkpt lat="45.85963" lon="6.45241">
        <ele>2230.7</ele>
        <time>2024-04-27T13:33:07Z</time>
      </trkpt>
      <trkpt lat="45.85963" lon="6.45241">
        <ele>2230.7</ele>
        <time>2024-04-27T13:33:08Z</time>
      </trkpt>
      <trkpt lat="45.85963" lon="6.45241">
        <ele>2230.7</ele>
        <time>2024-04-27T13:33:09Z</time>
      </trkpt>
      <trkpt lat="45.85963" lon="6.45241">
        <ele>2230.7</ele>
        <time>2024-04-27T13:33:10Z</time>
      </trkpt>
      <trkpt lat="45.85963" lon="6.45241">
        <ele>2230.7</ele>
        <time>2024-04-27T13:33:11Z</time>
      </trkpt>
      <trkpt lat="45.85963" lon="6.45241">
        <ele>2230.7</ele>
        <time>2024-04-27T13:33:12Z</time>
      </trkpt>
      <trkpt lat="45.85963" lon="6.45241">
        <ele>2229.6</ele>
        <time>2024-04-27T13:33:13Z</time>
      </trkpt>
      <trkpt lat="45.85963" lon="6.45241">
        <ele>2229.6</ele>
        <time>2024-04-27T13:33:14Z</time>
      </trkpt>
      <trkpt lat="45.85963" lon="6.45241">
        <ele>2229.6</ele>
        <time>2024-04-27T13:33:15Z</time>
      </trkpt>
      <trkpt lat="45.85963" lon="6.45241">
        <ele>2229.6</ele>
        <time>2024-04-27T13:33:16Z</time>
      </trkpt>
      <trkpt lat="45.85963" lon="6.45241">
        <ele>2229.6</ele>
        <time>2024-04-27T13:33:17Z</time>
      </trkpt>
      <trkpt lat="45.85963" lon="6.45241">
        <ele>2229.6</ele>
        <time>2024-04-27T13:33:18Z</time>
      </trkpt>
      <trkpt lat="45.85963" lon="6.45241">
        <ele>2229.6</ele>
        <time>2024-04-27T13:33:19Z</time>
      </trkpt>
      <trkpt lat="45.85963" lon="6.45241">
        <ele>2229.6</ele>
        <time>2024-04-27T13:33:20Z</time>
      </trkpt>
      <trkpt lat="45.85963" lon="6.45241">
        <ele>2230.7</ele>
        <time>2024-04-27T13:33:21Z</time>
      </trkpt>
      <trkpt lat="45.85963" lon="6.45241">
        <ele>2230.7</ele>
        <time>2024-04-27T13:33:22Z</time>
      </trkpt>
      <trkpt lat="45.85964" lon="6.45241">
        <ele>2230.7</ele>
        <time>2024-04-27T13:33:23Z</time>
      </trkpt>
      <trkpt lat="45.85965" lon="6.45241">
        <ele>2230.7</ele>
        <time>2024-04-27T13:33:24Z</time>
      </trkpt>
      <trkpt lat="45.85967" lon="6.45241">
        <ele>2230.7</ele>
        <time>2024-04-27T13:33:25Z</time>
      </trkpt>
      <trkpt lat="45.85968" lon="6.45241">
        <ele>2230.7</ele>
        <time>2024-04-27T13:33:26Z</time>
      </trkpt>
      <trkpt lat="45.85969" lon="6.45239">
        <ele>2230.7</ele>
        <time>2024-04-27T13:33:27Z</time>
      </trkpt>
      <trkpt lat="45.8597" lon="6.45237">
        <ele>2230.7</ele>
        <time>2024-04-27T13:33:28Z</time>
      </trkpt>
      <trkpt lat="45.8597" lon="6.45234">
        <ele>2224.6</ele>
        <time>2024-04-27T13:33:29Z</time>
      </trkpt>
      <trkpt lat="45.8597" lon="6.45232">
        <ele>2224.6</ele>
        <time>2024-04-27T13:33:30Z</time>
      </trkpt>
      <trkpt lat="45.85971" lon="6.45229">
        <ele>2223.7</ele>
        <time>2024-04-27T13:33:31Z</time>
      </trkpt>
      <trkpt lat="45.85971" lon="6.45228">
        <ele>2223.7</ele>
        <time>2024-04-27T13:33:32Z</time>
      </trkpt>
      <trkpt lat="45.85971" lon="6.45225">
        <ele>2223.7</ele>
        <time>2024-04-27T13:33:33Z</time>
      </trkpt>
      <trkpt lat="45.85971" lon="6.45224">
        <ele>2223.7</ele>
        <time>2024-04-27T13:33:34Z</time>
      </trkpt>
      <trkpt lat="45.85972" lon="6.45222">
        <ele>2222.6</ele>
        <time>2024-04-27T13:33:35Z</time>
      </trkpt>
      <trkpt lat="45.85973" lon="6.45219">
        <ele>2222.6</ele>
        <time>2024-04-27T13:33:36Z</time>
      </trkpt>
      <trkpt lat="45.85974" lon="6.45216">
        <ele>2222.6</ele>
        <time>2024-04-27T13:33:37Z</time>
      </trkpt>
      <trkpt lat="45.85975" lon="6.45214">
        <ele>2222.6</ele>
        <time>2024-04-27T13:33:38Z</time>
      </trkpt>
      <trkpt lat="45.85976" lon="6.45216">
        <ele>2222.6</ele>
        <time>2024-04-27T13:33:39Z</time>
      </trkpt>
      <trkpt lat="45.85978" lon="6.4522">
        <ele>2222.6</ele>
        <time>2024-04-27T13:33:40Z</time>
      </trkpt>
      <trkpt lat="45.8598" lon="6.45224">
        <ele>2222.6</ele>
        <time>2024-04-27T13:33:41Z</time>
      </trkpt>
      <trkpt lat="45.85981" lon="6.45229">
        <ele>2222.6</ele>
        <time>2024-04-27T13:33:42Z</time>
      </trkpt>
      <trkpt lat="45.85982" lon="6.45233">
        <ele>2216.7</ele>
        <time>2024-04-27T13:33:43Z</time>
      </trkpt>
      <trkpt lat="45.85983" lon="6.45236">
        <ele>2216.7</ele>
        <time>2024-04-27T13:33:44Z</time>
      </trkpt>
      <trkpt lat="45.85985" lon="6.45237">
        <ele>2214.7</ele>
        <time>2024-04-27T13:33:45Z</time>
      </trkpt>
      <trkpt lat="45.85986" lon="6.45236">
        <ele>2214.7</ele>
        <time>2024-04-27T13:33:46Z</time>
      </trkpt>
      <trkpt lat="45.85988" lon="6.45233">
        <ele>2212.7</ele>
        <time>2024-04-27T13:33:47Z</time>
      </trkpt>
      <trkpt lat="45.85988" lon="6.45229">
        <ele>2212.7</ele>
        <time>2024-04-27T13:33:48Z</time>
      </trkpt>
      <trkpt lat="45.85989" lon="6.45226">
        <ele>2210.6</ele>
        <time>2024-04-27T13:33:49Z</time>
      </trkpt>
      <trkpt lat="45.85992" lon="6.45226">
        <ele>2210.6</ele>
        <time>2024-04-27T13:33:50Z</time>
      </trkpt>
      <trkpt lat="45.85994" lon="6.45229">
        <ele>2208.6</ele>
        <time>2024-04-27T13:33:51Z</time>
      </trkpt>
      <trkpt lat="45.85995" lon="6.45233">
        <ele>2208.6</ele>
        <time>2024-04-27T13:33:52Z</time>
      </trkpt>
      <trkpt lat="45.85996" lon="6.45236">
        <ele>2205.7</ele>
        <time>2024-04-27T13:33:53Z</time>
      </trkpt>
      <trkpt lat="45.85996" lon="6.4524">
        <ele>2205.7</ele>
        <time>2024-04-27T13:33:54Z</time>
      </trkpt>
      <trkpt lat="45.85997" lon="6.45244">
        <ele>2203.6</ele>
        <time>2024-04-27T13:33:55Z</time>
      </trkpt>
      <trkpt lat="45.85998" lon="6.45247">
        <ele>2203.6</ele>
        <time>2024-04-27T13:33:56Z</time>
      </trkpt>
      <trkpt lat="45.85999" lon="6.45249">
        <ele>2201.6</ele>
        <time>2024-04-27T13:33:57Z</time>
      </trkpt>
      <trkpt lat="45.85999" lon="6.45248">
        <ele>2201.6</ele>
        <time>2024-04-27T13:33:58Z</time>
      </trkpt>
      <trkpt lat="45.86" lon="6.45246">
        <ele>2200.7</ele>
        <time>2024-04-27T13:33:59Z</time>
      </trkpt>
      <trkpt lat="45.86" lon="6.45241">
        <ele>2200.7</ele>
        <time>2024-04-27T13:34:00Z</time>
      </trkpt>
      <trkpt lat="45.86" lon="6.45237">
        <ele>2198.7</ele>
        <time>2024-04-27T13:34:01Z</time>
      </trkpt>
      <trkpt lat="45.86001" lon="6.45231">
        <ele>2198.7</ele>
        <time>2024-04-27T13:34:02Z</time>
      </trkpt>
      <trkpt lat="45.86002" lon="6.45229">
        <ele>2197.6</ele>
        <time>2024-04-27T13:34:03Z</time>
      </trkpt>
      <trkpt lat="45.86003" lon="6.4523">
        <ele>2197.6</ele>
        <time>2024-04-27T13:34:04Z</time>
      </trkpt>
      <trkpt lat="45.86005" lon="6.45237">
        <ele>2195.7</ele>
        <time>2024-04-27T13:34:05Z</time>
      </trkpt>
      <trkpt lat="45.86006" lon="6.4524">
        <ele>2195.7</ele>
        <time>2024-04-27T13:34:06Z</time>
      </trkpt>
      <trkpt lat="45.86007" lon="6.45243">
        <ele>2193.7</ele>
        <time>2024-04-27T13:34:07Z</time>
      </trkpt>
      <trkpt lat="45.86008" lon="6.45246">
        <ele>2193.7</ele>
        <time>2024-04-27T13:34:08Z</time>
      </trkpt>
      <trkpt lat="45.86008" lon="6.45246">
        <ele>2191.7</ele>
        <time>2024-04-27T13:34:09Z</time>
      </trkpt>
      <trkpt lat="45.86009" lon="6.45244">
        <ele>2191.7</ele>
        <time>2024-04-27T13:34:10Z</time>
      </trkpt>
      <trkpt lat="45.8601" lon="6.45241">
        <ele>2190.6</ele>
        <time>2024-04-27T13:34:11Z</time>
      </trkpt>
      <trkpt lat="45.8601" lon="6.45237">
        <ele>2190.6</ele>
        <time>2024-04-27T13:34:12Z</time>
      </trkpt>
      <trkpt lat="45.86011" lon="6.45233">
        <ele>2187.6</ele>
        <time>2024-04-27T13:34:13Z</time>
      </trkpt>
      <trkpt lat="45.86012" lon="6.45229">
        <ele>2187.6</ele>
        <time>2024-04-27T13:34:14Z</time>
      </trkpt>
      <trkpt lat="45.86014" lon="6.45223">
        <ele>2185.6</ele>
        <time>2024-04-27T13:34:15Z</time>
      </trkpt>
      <trkpt lat="45.86016" lon="6.45219">
        <ele>2185.6</ele>
        <time>2024-04-27T13:34:16Z</time>
      </trkpt>
      <trkpt lat="45.86018" lon="6.45215">
        <ele>2184.7</ele>
        <time>2024-04-27T13:34:17Z</time>
      </trkpt>
      <trkpt lat="45.8602" lon="6.45213">
        <ele>2184.7</ele>
        <time>2024-04-27T13:34:18Z</time>
      </trkpt>
      <trkpt lat="45.86021" lon="6.45211">
        <ele>2183.6</ele>
        <time>2024-04-27T13:34:19Z</time>
      </trkpt>
      <trkpt lat="45.86023" lon="6.45211">
        <ele>2183.6</ele>
        <time>2024-04-27T13:34:20Z</time>
      </trkpt>
      <trkpt lat="45.86024" lon="6.45215">
        <ele>2182.7</ele>
        <time>2024-04-27T13:34:21Z</time>
      </trkpt>
      <trkpt lat="45.86024" lon="6.45219">
        <ele>2182.7</ele>
        <time>2024-04-27T13:34:22Z</time>
      </trkpt>
      <trkpt lat="45.86024" lon="6.45225">
        <ele>2179.7</ele>
        <time>2024-04-27T13:34:23Z</time>
      </trkpt>
      <trkpt lat="45.86024" lon="6.45231">
        <ele>2179.7</ele>
        <time>2024-04-27T13:34:24Z</time>
      </trkpt>
      <trkpt lat="45.86024" lon="6.45235">
        <ele>2177.7</ele>
        <time>2024-04-27T13:34:25Z</time>
      </trkpt>
      <trkpt lat="45.86024" lon="6.45239">
        <ele>2177.7</ele>
        <time>2024-04-27T13:34:26Z</time>
      </trkpt>
      <trkpt lat="45.86024" lon="6.45241">
        <ele>2177.7</ele>
        <time>2024-04-27T13:34:27Z</time>
      </trkpt>
      <trkpt lat="45.86025" lon="6.4524">
        <ele>2177.7</ele>
        <time>2024-04-27T13:34:28Z</time>
      </trkpt>
      <trkpt lat="45.86026" lon="6.45237">
        <ele>2177.7</ele>
        <time>2024-04-27T13:34:29Z</time>
      </trkpt>
      <trkpt lat="45.86027" lon="6.45234">
        <ele>2177.7</ele>
        <time>2024-04-27T13:34:30Z</time>
      </trkpt>
      <trkpt lat="45.86028" lon="6.4523">
        <ele>2172.6</ele>
        <time>2024-04-27T13:34:31Z</time>
      </trkpt>
      <trkpt lat="45.86029" lon="6.45229">
        <ele>2172.6</ele>
        <time>2024-04-27T13:34:32Z</time>
      </trkpt>
      <trkpt lat="45.8603" lon="6.45228">
        <ele>2170.7</ele>
        <time>2024-04-27T13:34:33Z</time>
      </trkpt>
      <trkpt lat="45.86032" lon="6.45229">
        <ele>2170.7</ele>
        <time>2024-04-27T13:34:34Z</time>
      </trkpt>
      <trkpt lat="45.86033" lon="6.45234">
        <ele>2169.6</ele>
        <time>2024-04-27T13:34:35Z</time>
      </trkpt>
      <trkpt lat="45.86033" lon="6.45239">
        <ele>2169.6</ele>
        <time>2024-04-27T13:34:36Z</time>
      </trkpt>
      <trkpt lat="45.86034" lon="6.45244">
        <ele>2167.6</ele>
        <time>2024-04-27T13:34:37Z</time>
      </trkpt>
      <trkpt lat="45.86034" lon="6.45246">
        <ele>2167.6</ele>
        <time>2024-04-27T13:34:38Z</time>
      </trkpt>
      <trkpt lat="45.86035" lon="6.45247">
        <ele>2165.6</ele>
        <time>2024-04-27T13:34:39Z</time>
      </trkpt>
      <trkpt lat="45.86035" lon="6.45247">
        <ele>2165.6</ele>
        <time>2024-04-27T13:34:40Z</time>
      </trkpt>
      <trkpt lat="45.86036" lon="6.45246">
        <ele>2164.7</ele>
        <time>2024-04-27T13:34:41Z</time>
      </trkpt>
      <trkpt lat="45.86037" lon="6.45243">
        <ele>2164.7</ele>
        <time>2024-04-27T13:34:42Z</time>
      </trkpt>
      <trkpt lat="45.86039" lon="6.45239">
        <ele>2164.7</ele>
        <time>2024-04-27T13:34:43Z</time>
      </trkpt>
      <trkpt lat="45.86041" lon="6.45235">
        <ele>2164.7</ele>
        <time>2024-04-27T13:34:44Z</time>
      </trkpt>
      <trkpt lat="45.86042" lon="6.45233">
        <ele>2164.7</ele>
        <time>2024-04-27T13:34:45Z</time>
      </trkpt>
      <trkpt lat="45.86043" lon="6.45231">
        <ele>2164.7</ele>
        <time>2024-04-27T13:34:46Z</time>
      </trkpt>
      <trkpt lat="45.86043" lon="6.4523">
        <ele>2161.7</ele>
        <time>2024-04-27T13:34:47Z</time>
      </trkpt>
      <trkpt lat="45.86043" lon="6.4523">
        <ele>2161.7</ele>
        <time>2024-04-27T13:34:48Z</time>
      </trkpt>
      <trkpt lat="45.86043" lon="6.45229">
        <ele>2159.7</ele>
        <time>2024-04-27T13:34:49Z</time>
      </trkpt>
      <trkpt lat="45.86043" lon="6.4523">
        <ele>2159.7</ele>
        <time>2024-04-27T13:34:50Z</time>
      </trkpt>
      <trkpt lat="45.86044" lon="6.45231">
        <ele>2159.7</ele>
        <time>2024-04-27T13:34:51Z</time>
      </trkpt>
      <trkpt lat="45.86045" lon="6.45234">
        <ele>2159.7</ele>
        <time>2024-04-27T13:34:52Z</time>
      </trkpt>
      <trkpt lat="45.86045" lon="6.45239">
        <ele>2158.6</ele>
        <time>2024-04-27T13:34:53Z</time>
      </trkpt>
      <trkpt lat="45.86045" lon="6.45243">
        <ele>2158.6</ele>
        <time>2024-04-27T13:34:54Z</time>
      </trkpt>
      <trkpt lat="45.86045" lon="6.45246">
        <ele>2156.6</ele>
        <time>2024-04-27T13:34:55Z</time>
      </trkpt>
      <trkpt lat="45.86044" lon="6.45248">
        <ele>2156.6</ele>
        <time>2024-04-27T13:34:56Z</time>
      </trkpt>
      <trkpt lat="45.86044" lon="6.45249">
        <ele>2155.7</ele>
        <time>2024-04-27T13:34:57Z</time>
      </trkpt>
      <trkpt lat="45.86045" lon="6.45249">
        <ele>2155.7</ele>
        <time>2024-04-27T13:34:58Z</time>
      </trkpt>
      <trkpt lat="45.86046" lon="6.45248">
        <ele>2154.7</ele>
        <time>2024-04-27T13:34:59Z</time>
      </trkpt>
      <trkpt lat="45.86047" lon="6.45245">
        <ele>2154.7</ele>
        <time>2024-04-27T13:35:00Z</time>
      </trkpt>
      <trkpt lat="45.86049" lon="6.45242">
        <ele>2152.7</ele>
        <time>2024-04-27T13:35:01Z</time>
      </trkpt>
      <trkpt lat="45.86051" lon="6.4524">
        <ele>2152.7</ele>
        <time>2024-04-27T13:35:02Z</time>
      </trkpt>
      <trkpt lat="45.86052" lon="6.45241">
        <ele>2151.6</ele>
        <time>2024-04-27T13:35:03Z</time>
      </trkpt>
      <trkpt lat="45.86054" lon="6.45245">
        <ele>2151.6</ele>
        <time>2024-04-27T13:35:04Z</time>
      </trkpt>
      <trkpt lat="45.86055" lon="6.45249">
        <ele>2149.6</ele>
        <time>2024-04-27T13:35:05Z</time>
      </trkpt>
      <trkpt lat="45.86056" lon="6.45252">
        <ele>2149.6</ele>
        <time>2024-04-27T13:35:06Z</time>
      </trkpt>
      <trkpt lat="45.86056" lon="6.45254">
        <ele>2147.6</ele>
        <time>2024-04-27T13:35:07Z</time>
      </trkpt>
      <trkpt lat="45.86057" lon="6.45253">
        <ele>2147.6</ele>
        <time>2024-04-27T13:35:08Z</time>
      </trkpt>
      <trkpt lat="45.86058" lon="6.4525">
        <ele>2145.7</ele>
        <time>2024-04-27T13:35:09Z</time>
      </trkpt>
      <trkpt lat="45.86058" lon="6.45247">
        <ele>2145.7</ele>
        <time>2024-04-27T13:35:10Z</time>
      </trkpt>
      <trkpt lat="45.8606" lon="6.45247">
        <ele>2144.6</ele>
        <time>2024-04-27T13:35:11Z</time>
      </trkpt>
      <trkpt lat="45.86061" lon="6.45248">
        <ele>2144.6</ele>
        <time>2024-04-27T13:35:12Z</time>
      </trkpt>
      <trkpt lat="45.86061" lon="6.45251">
        <ele>2143.7</ele>
        <time>2024-04-27T13:35:13Z</time>
      </trkpt>
      <trkpt lat="45.8606" lon="6.45256">
        <ele>2143.7</ele>
        <time>2024-04-27T13:35:14Z</time>
      </trkpt>
      <trkpt lat="45.8606" lon="6.45261">
        <ele>2140.6</ele>
        <time>2024-04-27T13:35:15Z</time>
      </trkpt>
      <trkpt lat="45.8606" lon="6.45267">
        <ele>2140.6</ele>
        <time>2024-04-27T13:35:16Z</time>
      </trkpt>
      <trkpt lat="45.86061" lon="6.45273">
        <ele>2138.7</ele>
        <time>2024-04-27T13:35:17Z</time>
      </trkpt>
      <trkpt lat="45.86062" lon="6.4528">
        <ele>2138.7</ele>
        <time>2024-04-27T13:35:18Z</time>
      </trkpt>
      <trkpt lat="45.86063" lon="6.45287">
        <ele>2136.7</ele>
        <time>2024-04-27T13:35:19Z</time>
      </trkpt>
      <trkpt lat="45.86064" lon="6.45293">
        <ele>2136.7</ele>
        <time>2024-04-27T13:35:20Z</time>
      </trkpt>
      <trkpt lat="45.86064" lon="6.453">
        <ele>2133.6</ele>
        <time>2024-04-27T13:35:21Z</time>
      </trkpt>
      <trkpt lat="45.86065" lon="6.45305">
        <ele>2133.6</ele>
        <time>2024-04-27T13:35:22Z</time>
      </trkpt>
      <trkpt lat="45.86065" lon="6.45312">
        <ele>2132.7</ele>
        <time>2024-04-27T13:35:23Z</time>
      </trkpt>
      <trkpt lat="45.86066" lon="6.45316">
        <ele>2132.7</ele>
        <time>2024-04-27T13:35:24Z</time>
      </trkpt>
      <trkpt lat="45.86067" lon="6.45321">
        <ele>2130.6</ele>
        <time>2024-04-27T13:35:25Z</time>
      </trkpt>
      <trkpt lat="45.86068" lon="6.45327">
        <ele>2130.6</ele>
        <time>2024-04-27T13:35:26Z</time>
      </trkpt>
      <trkpt lat="45.86069" lon="6.45332">
        <ele>2129.7</ele>
        <time>2024-04-27T13:35:27Z</time>
      </trkpt>
      <trkpt lat="45.86071" lon="6.45339">
        <ele>2129.7</ele>
        <time>2024-04-27T13:35:28Z</time>
      </trkpt>
      <trkpt lat="45.86073" lon="6.45346">
        <ele>2129.7</ele>
        <time>2024-04-27T13:35:29Z</time>
      </trkpt>
      <trkpt lat="45.86077" lon="6.45352">
        <ele>2129.7</ele>
        <time>2024-04-27T13:35:30Z</time>
      </trkpt>
      <trkpt lat="45.86079" lon="6.45359">
        <ele>2129.7</ele>
        <time>2024-04-27T13:35:31Z</time>
      </trkpt>
      <trkpt lat="45.86081" lon="6.45366">
        <ele>2129.7</ele>
        <time>2024-04-27T13:35:32Z</time>
      </trkpt>
      <trkpt lat="45.86084" lon="6.45373">
        <ele>2122.7</ele>
        <time>2024-04-27T13:35:33Z</time>
      </trkpt>
      <trkpt lat="45.86088" lon="6.45378">
        <ele>2122.7</ele>
        <time>2024-04-27T13:35:34Z</time>
      </trkpt>
      <trkpt lat="45.86092" lon="6.45382">
        <ele>2120.7</ele>
        <time>2024-04-27T13:35:35Z</time>
      </trkpt>
      <trkpt lat="45.86096" lon="6.45384">
        <ele>2120.7</ele>
        <time>2024-04-27T13:35:36Z</time>
      </trkpt>
      <trkpt lat="45.86099" lon="6.45385">
        <ele>2119.6</ele>
        <time>2024-04-27T13:35:37Z</time>
      </trkpt>
      <trkpt lat="45.86103" lon="6.45385">
        <ele>2119.6</ele>
        <time>2024-04-27T13:35:38Z</time>
      </trkpt>
      <trkpt lat="45.86107" lon="6.45386">
        <ele>2118.7</ele>
        <time>2024-04-27T13:35:39Z</time>
      </trkpt>
      <trkpt lat="45.86109" lon="6.45385">
        <ele>2118.7</ele>
        <time>2024-04-27T13:35:40Z</time>
      </trkpt>
      <trkpt lat="45.86111" lon="6.45384">
        <ele>2116.7</ele>
        <time>2024-04-27T13:35:41Z</time>
      </trkpt>
      <trkpt lat="45.86113" lon="6.45383">
        <ele>2116.7</ele>
        <time>2024-04-27T13:35:42Z</time>
      </trkpt>
      <trkpt lat="45.86113" lon="6.45381">
        <ele>2115.6</ele>
        <time>2024-04-27T13:35:43Z</time>
      </trkpt>
      <trkpt lat="45.86113" lon="6.45379">
        <ele>2115.6</ele>
        <time>2024-04-27T13:35:44Z</time>
      </trkpt>
      <trkpt lat="45.86112" lon="6.45377">
        <ele>2114.6</ele>
        <time>2024-04-27T13:35:45Z</time>
      </trkpt>
      <trkpt lat="45.86111" lon="6.45374">
        <ele>2114.6</ele>
        <time>2024-04-27T13:35:46Z</time>
      </trkpt>
      <trkpt lat="45.86113" lon="6.45371">
        <ele>2114.6</ele>
        <time>2024-04-27T13:35:47Z</time>
      </trkpt>
      <trkpt lat="45.86115" lon="6.45369">
        <ele>2114.6</ele>
        <time>2024-04-27T13:35:48Z</time>
      </trkpt>
      <trkpt lat="45.86118" lon="6.45369">
        <ele>2114.6</ele>
        <time>2024-04-27T13:35:49Z</time>
      </trkpt>
      <trkpt lat="45.8612" lon="6.45369">
        <ele>2114.6</ele>
        <time>2024-04-27T13:35:50Z</time>
      </trkpt>
      <trkpt lat="45.86123" lon="6.45368">
        <ele>2108.6</ele>
        <time>2024-04-27T13:35:51Z</time>
      </trkpt>
      <trkpt lat="45.86124" lon="6.45368">
        <ele>2108.6</ele>
        <time>2024-04-27T13:35:52Z</time>
      </trkpt>
      <trkpt lat="45.86124" lon="6.45367">
        <ele>2107.7</ele>
        <time>2024-04-27T13:35:53Z</time>
      </trkpt>
      <trkpt lat="45.86123" lon="6.45367">
        <ele>2107.7</ele>
        <time>2024-04-27T13:35:54Z</time>
      </trkpt>
      <trkpt lat="45.86122" lon="6.45368">
        <ele>2105.6</ele>
        <time>2024-04-27T13:35:55Z</time>
      </trkpt>
      <trkpt lat="45.86121" lon="6.45368">
        <ele>2105.6</ele>
        <time>2024-04-27T13:35:56Z</time>
      </trkpt>
      <trkpt lat="45.86121" lon="6.45368">
        <ele>2105.6</ele>
        <time>2024-04-27T13:35:57Z</time>
      </trkpt>
      <trkpt lat="45.86121" lon="6.45368">
        <ele>2105.6</ele>
        <time>2024-04-27T13:35:58Z</time>
      </trkpt>
      <trkpt lat="45.8612" lon="6.45368">
        <ele>2105.6</ele>
        <time>2024-04-27T13:35:59Z</time>
      </trkpt>
      <trkpt lat="45.8612" lon="6.45366">
        <ele>2105.6</ele>
        <time>2024-04-27T13:36:00Z</time>
      </trkpt>
      <trkpt lat="45.86118" lon="6.45362">
        <ele>2104.7</ele>
        <time>2024-04-27T13:36:01Z</time>
      </trkpt>
      <trkpt lat="45.86116" lon="6.45357">
        <ele>2104.7</ele>
        <time>2024-04-27T13:36:02Z</time>
      </trkpt>
      <trkpt lat="45.86114" lon="6.4535">
        <ele>2102.7</ele>
        <time>2024-04-27T13:36:03Z</time>
      </trkpt>
      <trkpt lat="45.86113" lon="6.45342">
        <ele>2102.7</ele>
        <time>2024-04-27T13:36:04Z</time>
      </trkpt>
      <trkpt lat="45.86111" lon="6.45334">
        <ele>2101.6</ele>
        <time>2024-04-27T13:36:05Z</time>
      </trkpt>
      <trkpt lat="45.86109" lon="6.45325">
        <ele>2101.6</ele>
        <time>2024-04-27T13:36:06Z</time>
      </trkpt>
      <trkpt lat="45.86109" lon="6.45317">
        <ele>2100.7</ele>
        <time>2024-04-27T13:36:07Z</time>
      </trkpt>
      <trkpt lat="45.86109" lon="6.45309">
        <ele>2100.7</ele>
        <time>2024-04-27T13:36:08Z</time>
      </trkpt>
      <trkpt lat="45.86108" lon="6.45301">
        <ele>2099.6</ele>
        <time>2024-04-27T13:36:09Z</time>
      </trkpt>
      <trkpt lat="45.86108" lon="6.45292">
        <ele>2099.6</ele>
        <time>2024-04-27T13:36:10Z</time>
      </trkpt>
      <trkpt lat="45.8611" lon="6.45284">
        <ele>2096.6</ele>
        <time>2024-04-27T13:36:11Z</time>
      </trkpt>
      <trkpt lat="45.86111" lon="6.45277">
        <ele>2096.6</ele>
        <time>2024-04-27T13:36:12Z</time>
      </trkpt>
      <trkpt lat="45.86113" lon="6.45271">
        <ele>2095.7</ele>
        <time>2024-04-27T13:36:13Z</time>
      </trkpt>
      <trkpt lat="45.86114" lon="6.45266">
        <ele>2095.7</ele>
        <time>2024-04-27T13:36:14Z</time>
      </trkpt>
      <trkpt lat="45.86115" lon="6.45262">
        <ele>2094.6</ele>
        <time>2024-04-27T13:36:15Z</time>
      </trkpt>
      <trkpt lat="45.86115" lon="6.4526">
        <ele>2094.6</ele>
        <time>2024-04-27T13:36:16Z</time>
      </trkpt>
      <trkpt lat="45.86115" lon="6.4526">
        <ele>2094.6</ele>
        <time>2024-04-27T13:36:17Z</time>
      </trkpt>
      <trkpt lat="45.86116" lon="6.4526">
        <ele>2094.6</ele>
        <time>2024-04-27T13:36:18Z</time>
      </trkpt>
      <trkpt lat="45.86117" lon="6.45261">
        <ele>2094.6</ele>
        <time>2024-04-27T13:36:19Z</time>
      </trkpt>
      <trkpt lat="45.86119" lon="6.45265">
        <ele>2094.6</ele>
        <time>2024-04-27T13:36:20Z</time>
      </trkpt>
      <trkpt lat="45.8612" lon="6.4527">
        <ele>2091.7</ele>
        <time>2024-04-27T13:36:21Z</time>
      </trkpt>
      <trkpt lat="45.86121" lon="6.45276">
        <ele>2091.7</ele>
        <time>2024-04-27T13:36:22Z</time>
      </trkpt>
      <trkpt lat="45.86121" lon="6.45283">
        <ele>2089.6</ele>
        <time>2024-04-27T13:36:23Z</time>
      </trkpt>
      <trkpt lat="45.86123" lon="6.45289">
        <ele>2089.6</ele>
        <time>2024-04-27T13:36:24Z</time>
      </trkpt>
      <trkpt lat="45.86125" lon="6.45295">
        <ele>2086.7</ele>
        <time>2024-04-27T13:36:25Z</time>
      </trkpt>
      <trkpt lat="45.86127" lon="6.45301">
        <ele>2086.7</ele>
        <time>2024-04-27T13:36:26Z</time>
      </trkpt>
      <trkpt lat="45.8613" lon="6.45305">
        <ele>2085.6</ele>
        <time>2024-04-27T13:36:27Z</time>
      </trkpt>
      <trkpt lat="45.86131" lon="6.45307">
        <ele>2085.6</ele>
        <time>2024-04-27T13:36:28Z</time>
      </trkpt>
      <trkpt lat="45.86133" lon="6.45309">
        <ele>2083.6</ele>
        <time>2024-04-27T13:36:29Z</time>
      </trkpt>
      <trkpt lat="45.86135" lon="6.45311">
        <ele>2083.6</ele>
        <time>2024-04-27T13:36:30Z</time>
      </trkpt>
      <trkpt lat="45.86137" lon="6.45314">
        <ele>2083.6</ele>
        <time>2024-04-27T13:36:31Z</time>
      </trkpt>
      <trkpt lat="45.8614" lon="6.45316">
        <ele>2083.6</ele>
        <time>2024-04-27T13:36:32Z</time>
      </trkpt>
      <trkpt lat="45.86141" lon="6.45318">
        <ele>2083.6</ele>
        <time>2024-04-27T13:36:33Z</time>
      </trkpt>
      <trkpt lat="45.86142" lon="6.45318">
        <ele>2083.6</ele>
        <time>2024-04-27T13:36:34Z</time>
      </trkpt>
      <trkpt lat="45.86141" lon="6.45317">
        <ele>2083.6</ele>
        <time>2024-04-27T13:36:35Z</time>
      </trkpt>
      <trkpt lat="45.86141" lon="6.45315">
        <ele>2083.6</ele>
        <time>2024-04-27T13:36:36Z</time>
      </trkpt>
      <trkpt lat="45.8614" lon="6.45312">
        <ele>2078.6</ele>
        <time>2024-04-27T13:36:37Z</time>
      </trkpt>
      <trkpt lat="45.86139" lon="6.45309">
        <ele>2078.6</ele>
        <time>2024-04-27T13:36:38Z</time>
      </trkpt>
      <trkpt lat="45.86138" lon="6.45307">
        <ele>2077.7</ele>
        <time>2024-04-27T13:36:39Z</time>
      </trkpt>
      <trkpt lat="45.8614" lon="6.45305">
        <ele>2077.7</ele>
        <time>2024-04-27T13:36:40Z</time>
      </trkpt>
      <trkpt lat="45.86142" lon="6.45305">
        <ele>2076.6</ele>
        <time>2024-04-27T13:36:41Z</time>
      </trkpt>
      <trkpt lat="45.86143" lon="6.45306">
        <ele>2076.6</ele>
        <time>2024-04-27T13:36:42Z</time>
      </trkpt>
      <trkpt lat="45.86144" lon="6.45306">
        <ele>2074.6</ele>
        <time>2024-04-27T13:36:43Z</time>
      </trkpt>
      <trkpt lat="45.86144" lon="6.45304">
        <ele>2074.6</ele>
        <time>2024-04-27T13:36:44Z</time>
      </trkpt>
      <trkpt lat="45.86144" lon="6.453">
        <ele>2073.6</ele>
        <time>2024-04-27T13:36:45Z</time>
      </trkpt>
      <trkpt lat="45.86144" lon="6.45295">
        <ele>2073.6</ele>
        <time>2024-04-27T13:36:46Z</time>
      </trkpt>
      <trkpt lat="45.86144" lon="6.4529">
        <ele>2070.7</ele>
        <time>2024-04-27T13:36:47Z</time>
      </trkpt>
      <trkpt lat="45.86144" lon="6.45285">
        <ele>2070.7</ele>
        <time>2024-04-27T13:36:48Z</time>
      </trkpt>
      <trkpt lat="45.86145" lon="6.45281">
        <ele>2069.6</ele>
        <time>2024-04-27T13:36:49Z</time>
      </trkpt>
      <trkpt lat="45.86146" lon="6.45277">
        <ele>2069.6</ele>
        <time>2024-04-27T13:36:50Z</time>
      </trkpt>
      <trkpt lat="45.86147" lon="6.45274">
        <ele>2068.7</ele>
        <time>2024-04-27T13:36:51Z</time>
      </trkpt>
      <trkpt lat="45.86149" lon="6.45272">
        <ele>2068.7</ele>
        <time>2024-04-27T13:36:52Z</time>
      </trkpt>
      <trkpt lat="45.8615" lon="6.45273">
        <ele>2067.6</ele>
        <time>2024-04-27T13:36:53Z</time>
      </trkpt>
      <trkpt lat="45.86151" lon="6.45274">
        <ele>2067.6</ele>
        <time>2024-04-27T13:36:54Z</time>
      </trkpt>
      <trkpt lat="45.86151" lon="6.45275">
        <ele>2067.6</ele>
        <time>2024-04-27T13:36:55Z</time>
      </trkpt>
      <trkpt lat="45.86152" lon="6.45275">
        <ele>2067.6</ele>
        <time>2024-04-27T13:36:56Z</time>
      </trkpt>
      <trkpt lat="45.86153" lon="6.45273">
        <ele>2067.6</ele>
        <time>2024-04-27T13:36:57Z</time>
      </trkpt>
      <trkpt lat="45.86154" lon="6.45272">
        <ele>2067.6</ele>
        <time>2024-04-27T13:36:58Z</time>
      </trkpt>
      <trkpt lat="45.86156" lon="6.45273">
        <ele>2062.6</ele>
        <time>2024-04-27T13:36:59Z</time>
      </trkpt>
      <trkpt lat="45.86157" lon="6.45275">
        <ele>2062.6</ele>
        <time>2024-04-27T13:37:00Z</time>
      </trkpt>
      <trkpt lat="45.86158" lon="6.45278">
        <ele>2060.6</ele>
        <time>2024-04-27T13:37:01Z</time>
      </trkpt>
      <trkpt lat="45.86159" lon="6.45279">
        <ele>2060.6</ele>
        <time>2024-04-27T13:37:02Z</time>
      </trkpt>
      <trkpt lat="45.8616" lon="6.45277">
        <ele>2058.6</ele>
        <time>2024-04-27T13:37:03Z</time>
      </trkpt>
      <trkpt lat="45.86161" lon="6.45274">
        <ele>2058.6</ele>
        <time>2024-04-27T13:37:04Z</time>
      </trkpt>
      <trkpt lat="45.86162" lon="6.45271">
        <ele>2056.7</ele>
        <time>2024-04-27T13:37:05Z</time>
      </trkpt>
      <trkpt lat="45.86163" lon="6.45267">
        <ele>2056.7</ele>
        <time>2024-04-27T13:37:06Z</time>
      </trkpt>
      <trkpt lat="45.86164" lon="6.45264">
        <ele>2054.7</ele>
        <time>2024-04-27T13:37:07Z</time>
      </trkpt>
      <trkpt lat="45.86165" lon="6.45261">
        <ele>2054.7</ele>
        <time>2024-04-27T13:37:08Z</time>
      </trkpt>
      <trkpt lat="45.86167" lon="6.45259">
        <ele>2054.7</ele>
        <time>2024-04-27T13:37:09Z</time>
      </trkpt>
      <trkpt lat="45.86169" lon="6.45259">
        <ele>2054.7</ele>
        <time>2024-04-27T13:37:10Z</time>
      </trkpt>
      <trkpt lat="45.86171" lon="6.45262">
        <ele>2053.6</ele>
        <time>2024-04-27T13:37:11Z</time>
      </trkpt>
      <trkpt lat="45.86172" lon="6.45266">
        <ele>2053.6</ele>
        <time>2024-04-27T13:37:12Z</time>
      </trkpt>
      <trkpt lat="45.86172" lon="6.4527">
        <ele>2051.6</ele>
        <time>2024-04-27T13:37:13Z</time>
      </trkpt>
      <trkpt lat="45.86173" lon="6.45271">
        <ele>2051.6</ele>
        <time>2024-04-27T13:37:14Z</time>
      </trkpt>
      <trkpt lat="45.86173" lon="6.45271">
        <ele>2049.7</ele>
        <time>2024-04-27T13:37:15Z</time>
      </trkpt>
      <trkpt lat="45.86173" lon="6.45269">
        <ele>2049.7</ele>
        <time>2024-04-27T13:37:16Z</time>
      </trkpt>
      <trkpt lat="45.86174" lon="6.45266">
        <ele>2047.7</ele>
        <time>2024-04-27T13:37:17Z</time>
      </trkpt>
      <trkpt lat="45.86174" lon="6.45262">
        <ele>2047.7</ele>
        <time>2024-04-27T13:37:18Z</time>
      </trkpt>
      <trkpt lat="45.86175" lon="6.45258">
        <ele>2045.7</ele>
        <time>2024-04-27T13:37:19Z</time>
      </trkpt>
      <trkpt lat="45.86176" lon="6.45255">
        <ele>2045.7</ele>
        <time>2024-04-27T13:37:20Z</time>
      </trkpt>
      <trkpt lat="45.86177" lon="6.45252">
        <ele>2044.6</ele>
        <time>2024-04-27T13:37:21Z</time>
      </trkpt>
      <trkpt lat="45.86179" lon="6.45252">
        <ele>2044.6</ele>
        <time>2024-04-27T13:37:22Z</time>
      </trkpt>
      <trkpt lat="45.8618" lon="6.45254">
        <ele>2044.6</ele>
        <time>2024-04-27T13:37:23Z</time>
      </trkpt>
      <trkpt lat="45.86181" lon="6.45257">
        <ele>2044.6</ele>
        <time>2024-04-27T13:37:24Z</time>
      </trkpt>
      <trkpt lat="45.86183" lon="6.45262">
        <ele>2041.6</ele>
        <time>2024-04-27T13:37:25Z</time>
      </trkpt>
      <trkpt lat="45.86185" lon="6.45266">
        <ele>2041.6</ele>
        <time>2024-04-27T13:37:26Z</time>
      </trkpt>
      <trkpt lat="45.86186" lon="6.45268">
        <ele>2039.6</ele>
        <time>2024-04-27T13:37:27Z</time>
      </trkpt>
      <trkpt lat="45.86187" lon="6.45267">
        <ele>2039.6</ele>
        <time>2024-04-27T13:37:28Z</time>
      </trkpt>
      <trkpt lat="45.86188" lon="6.45263">
        <ele>2037.6</ele>
        <time>2024-04-27T13:37:29Z</time>
      </trkpt>
      <trkpt lat="45.86188" lon="6.45259">
        <ele>2037.6</ele>
        <time>2024-04-27T13:37:30Z</time>
      </trkpt>
      <trkpt lat="45.86189" lon="6.45254">
        <ele>2035.6</ele>
        <time>2024-04-27T13:37:31Z</time>
      </trkpt>
      <trkpt lat="45.86189" lon="6.45251">
        <ele>2035.6</ele>
        <time>2024-04-27T13:37:32Z</time>
      </trkpt>
      <trkpt lat="45.86189" lon="6.45248">
        <ele>2034.7</ele>
        <time>2024-04-27T13:37:33Z</time>
      </trkpt>
      <trkpt lat="45.8619" lon="6.45246">
        <ele>2034.7</ele>
        <time>2024-04-27T13:37:34Z</time>
      </trkpt>
      <trkpt lat="45.86189" lon="6.45245">
        <ele>2034.7</ele>
        <time>2024-04-27T13:37:35Z</time>
      </trkpt>
      <trkpt lat="45.86187" lon="6.45245">
        <ele>2034.7</ele>
        <time>2024-04-27T13:37:36Z</time>
      </trkpt>
      <trkpt lat="45.86187" lon="6.45244">
        <ele>2034.7</ele>
        <time>2024-04-27T13:37:37Z</time>
      </trkpt>
      <trkpt lat="45.86188" lon="6.45243">
        <ele>2034.7</ele>
        <time>2024-04-27T13:37:38Z</time>
      </trkpt>
      <trkpt lat="45.86188" lon="6.45242">
        <ele>2034.7</ele>
        <time>2024-04-27T13:37:39Z</time>
      </trkpt>
      <trkpt lat="45.86188" lon="6.4524">
        <ele>2034.7</ele>
        <time>2024-04-27T13:37:40Z</time>
      </trkpt>
      <trkpt lat="45.86192" lon="6.45239">
        <ele>2033.7</ele>
        <time>2024-04-27T13:37:41Z</time>
      </trkpt>
      <trkpt lat="45.86195" lon="6.45237">
        <ele>2033.7</ele>
        <time>2024-04-27T13:37:42Z</time>
      </trkpt>
      <trkpt lat="45.86198" lon="6.45235">
        <ele>2032.6</ele>
        <time>2024-04-27T13:37:43Z</time>
      </trkpt>
      <trkpt lat="45.86199" lon="6.45232">
        <ele>2032.6</ele>
        <time>2024-04-27T13:37:44Z</time>
      </trkpt>
      <trkpt lat="45.86199" lon="6.45229">
        <ele>2031.7</ele>
        <time>2024-04-27T13:37:45Z</time>
      </trkpt>
      <trkpt lat="45.862" lon="6.45227">
        <ele>2031.7</ele>
        <time>2024-04-27T13:37:46Z</time>
      </trkpt>
      <trkpt lat="45.86201" lon="6.45225">
        <ele>2031.7</ele>
        <time>2024-04-27T13:37:47Z</time>
      </trkpt>
      <trkpt lat="45.86203" lon="6.45223">
        <ele>2031.7</ele>
        <time>2024-04-27T13:37:48Z</time>
      </trkpt>
      <trkpt lat="45.86204" lon="6.45221">
        <ele>2030.6</ele>
        <time>2024-04-27T13:37:49Z</time>
      </trkpt>
      <trkpt lat="45.86205" lon="6.4522">
        <ele>2030.6</ele>
        <time>2024-04-27T13:37:50Z</time>
      </trkpt>
      <trkpt lat="45.86206" lon="6.45219">
        <ele>2030.6</ele>
        <time>2024-04-27T13:37:51Z</time>
      </trkpt>
      <trkpt lat="45.86207" lon="6.45218">
        <ele>2030.6</ele>
        <time>2024-04-27T13:37:52Z</time>
      </trkpt>
      <trkpt lat="45.86207" lon="6.45217">
        <ele>2030.6</ele>
        <time>2024-04-27T13:37:53Z</time>
      </trkpt>
      <trkpt lat="45.86207" lon="6.45216">
        <ele>2030.6</ele>
        <time>2024-04-27T13:37:54Z</time>
      </trkpt>
      <trkpt lat="45.86209" lon="6.45213">
        <ele>2030.6</ele>
        <time>2024-04-27T13:37:55Z</time>
      </trkpt>
      <trkpt lat="45.86211" lon="6.45211">
        <ele>2030.6</ele>
        <time>2024-04-27T13:37:56Z</time>
      </trkpt>
      <trkpt lat="45.86213" lon="6.45208">
        <ele>2030.6</ele>
        <time>2024-04-27T13:37:57Z</time>
      </trkpt>
      <trkpt lat="45.86215" lon="6.45205">
        <ele>2030.6</ele>
        <time>2024-04-27T13:37:58Z</time>
      </trkpt>
      <trkpt lat="45.86217" lon="6.45202">
        <ele>2030.6</ele>
        <time>2024-04-27T13:37:59Z</time>
      </trkpt>
      <trkpt lat="45.86218" lon="6.452">
        <ele>2030.6</ele>
        <time>2024-04-27T13:38:00Z</time>
      </trkpt>
      <trkpt lat="45.86218" lon="6.45197">
        <ele>2026.6</ele>
        <time>2024-04-27T13:38:01Z</time>
      </trkpt>
      <trkpt lat="45.86218" lon="6.45195">
        <ele>2026.6</ele>
        <time>2024-04-27T13:38:02Z</time>
      </trkpt>
      <trkpt lat="45.86217" lon="6.45193">
        <ele>2026.6</ele>
        <time>2024-04-27T13:38:03Z</time>
      </trkpt>
      <trkpt lat="45.86216" lon="6.45193">
        <ele>2026.6</ele>
        <time>2024-04-27T13:38:04Z</time>
      </trkpt>
      <trkpt lat="45.86216" lon="6.45193">
        <ele>2026.6</ele>
        <time>2024-04-27T13:38:05Z</time>
      </trkpt>
      <trkpt lat="45.86217" lon="6.45196">
        <ele>2026.6</ele>
        <time>2024-04-27T13:38:06Z</time>
      </trkpt>
      <trkpt lat="45.86217" lon="6.45198">
        <ele>2025.6</ele>
        <time>2024-04-27T13:38:07Z</time>
      </trkpt>
      <trkpt lat="45.86217" lon="6.452">
        <ele>2025.6</ele>
        <time>2024-04-27T13:38:08Z</time>
      </trkpt>
      <trkpt lat="45.86218" lon="6.45203">
        <ele>2024.7</ele>
        <time>2024-04-27T13:38:09Z</time>
      </trkpt>
      <trkpt lat="45.86218" lon="6.45205">
        <ele>2024.7</ele>
        <time>2024-04-27T13:38:10Z</time>
      </trkpt>
      <trkpt lat="45.86218" lon="6.45207">
        <ele>2024.7</ele>
        <time>2024-04-27T13:38:11Z</time>
      </trkpt>
      <trkpt lat="45.86219" lon="6.4521">
        <ele>2024.7</ele>
        <time>2024-04-27T13:38:12Z</time>
      </trkpt>
      <trkpt lat="45.86219" lon="6.45212">
        <ele>2024.7</ele>
        <time>2024-04-27T13:38:13Z</time>
      </trkpt>
      <trkpt lat="45.86219" lon="6.45214">
        <ele>2024.7</ele>
        <time>2024-04-27T13:38:14Z</time>
      </trkpt>
      <trkpt lat="45.86219" lon="6.45217">
        <ele>2019.6</ele>
        <time>2024-04-27T13:38:15Z</time>
      </trkpt>
      <trkpt lat="45.8622" lon="6.45219">
        <ele>2019.6</ele>
        <time>2024-04-27T13:38:16Z</time>
      </trkpt>
      <trkpt lat="45.86221" lon="6.45219">
        <ele>2018.7</ele>
        <time>2024-04-27T13:38:17Z</time>
      </trkpt>
      <trkpt lat="45.86224" lon="6.45217">
        <ele>2018.7</ele>
        <time>2024-04-27T13:38:18Z</time>
      </trkpt>
      <trkpt lat="45.86227" lon="6.45214">
        <ele>2016.6</ele>
        <time>2024-04-27T13:38:19Z</time>
      </trkpt>
      <trkpt lat="45.8623" lon="6.45211">
        <ele>2016.6</ele>
        <time>2024-04-27T13:38:20Z</time>
      </trkpt>
      <trkpt lat="45.86233" lon="6.45208">
        <ele>2015.7</ele>
        <time>2024-04-27T13:38:21Z</time>
      </trkpt>
      <trkpt lat="45.86235" lon="6.45205">
        <ele>2015.7</ele>
        <time>2024-04-27T13:38:22Z</time>
      </trkpt>
      <trkpt lat="45.86238" lon="6.45203">
        <ele>2013.7</ele>
        <time>2024-04-27T13:38:23Z</time>
      </trkpt>
      <trkpt lat="45.8624" lon="6.45203">
        <ele>2013.7</ele>
        <time>2024-04-27T13:38:24Z</time>
      </trkpt>
      <trkpt lat="45.86243" lon="6.45207">
        <ele>2012.6</ele>
        <time>2024-04-27T13:38:25Z</time>
      </trkpt>
      <trkpt lat="45.86243" lon="6.4521">
        <ele>2012.6</ele>
        <time>2024-04-27T13:38:26Z</time>
      </trkpt>
      <trkpt lat="45.86243" lon="6.45214">
        <ele>2010.6</ele>
        <time>2024-04-27T13:38:27Z</time>
      </trkpt>
      <trkpt lat="45.86242" lon="6.45218">
        <ele>2010.6</ele>
        <time>2024-04-27T13:38:28Z</time>
      </trkpt>
      <trkpt lat="45.86242" lon="6.45222">
        <ele>2008.7</ele>
        <time>2024-04-27T13:38:29Z</time>
      </trkpt>
      <trkpt lat="45.86241" lon="6.45226">
        <ele>2008.7</ele>
        <time>2024-04-27T13:38:30Z</time>
      </trkpt>
      <trkpt lat="45.8624" lon="6.4523">
        <ele>2008.7</ele>
        <time>2024-04-27T13:38:31Z</time>
      </trkpt>
      <trkpt lat="45.86239" lon="6.45231">
        <ele>2008.7</ele>
        <time>2024-04-27T13:38:32Z</time>
      </trkpt>
      <trkpt lat="45.8624" lon="6.45232">
        <ele>2007.6</ele>
        <time>2024-04-27T13:38:33Z</time>
      </trkpt>
      <trkpt lat="45.86242" lon="6.45231">
        <ele>2007.6</ele>
        <time>2024-04-27T13:38:34Z</time>
      </trkpt>
      <trkpt lat="45.86244" lon="6.45228">
        <ele>2006.7</ele>
        <time>2024-04-27T13:38:35Z</time>
      </trkpt>
      <trkpt lat="45.86245" lon="6.45225">
        <ele>2006.7</ele>
        <time>2024-04-27T13:38:36Z</time>
      </trkpt>
      <trkpt lat="45.86246" lon="6.45222">
        <ele>2004.7</ele>
        <time>2024-04-27T13:38:37Z</time>
      </trkpt>
      <trkpt lat="45.86246" lon="6.45219">
        <ele>2004.7</ele>
        <time>2024-04-27T13:38:38Z</time>
      </trkpt>
      <trkpt lat="45.86246" lon="6.45216">
        <ele>2003.6</ele>
        <time>2024-04-27T13:38:39Z</time>
      </trkpt>
      <trkpt lat="45.86246" lon="6.45214">
        <ele>2003.6</ele>
        <time>2024-04-27T13:38:40Z</time>
      </trkpt>
      <trkpt lat="45.86245" lon="6.45211">
        <ele>2003.6</ele>
        <time>2024-04-27T13:38:41Z</time>
      </trkpt>
      <trkpt lat="45.86246" lon="6.45208">
        <ele>2003.6</ele>
        <time>2024-04-27T13:38:42Z</time>
      </trkpt>
      <trkpt lat="45.86248" lon="6.45207">
        <ele>2001.6</ele>
        <time>2024-04-27T13:38:43Z</time>
      </trkpt>
      <trkpt lat="45.86251" lon="6.4521">
        <ele>2001.6</ele>
        <time>2024-04-27T13:38:44Z</time>
      </trkpt>
      <trkpt lat="45.86251" lon="6.45214">
        <ele>1999.7</ele>
        <time>2024-04-27T13:38:45Z</time>
      </trkpt>
      <trkpt lat="45.8625" lon="6.45217">
        <ele>1999.7</ele>
        <time>2024-04-27T13:38:46Z</time>
      </trkpt>
      <trkpt lat="45.86249" lon="6.4522">
        <ele>1998.6</ele>
        <time>2024-04-27T13:38:47Z</time>
      </trkpt>
      <trkpt lat="45.86248" lon="6.45224">
        <ele>1998.6</ele>
        <time>2024-04-27T13:38:48Z</time>
      </trkpt>
      <trkpt lat="45.86247" lon="6.45228">
        <ele>1997.7</ele>
        <time>2024-04-27T13:38:49Z</time>
      </trkpt>
      <trkpt lat="45.86246" lon="6.45232">
        <ele>1997.7</ele>
        <time>2024-04-27T13:38:50Z</time>
      </trkpt>
      <trkpt lat="45.86246" lon="6.45236">
        <ele>1997.7</ele>
        <time>2024-04-27T13:38:51Z</time>
      </trkpt>
      <trkpt lat="45.86245" lon="6.45238">
        <ele>1997.7</ele>
        <time>2024-04-27T13:38:52Z</time>
      </trkpt>
      <trkpt lat="45.86245" lon="6.4524">
        <ele>1996.6</ele>
        <time>2024-04-27T13:38:53Z</time>
      </trkpt>
      <trkpt lat="45.86245" lon="6.4524">
        <ele>1996.6</ele>
        <time>2024-04-27T13:38:54Z</time>
      </trkpt>
      <trkpt lat="45.86244" lon="6.45241">
        <ele>1996.6</ele>
        <time>2024-04-27T13:38:55Z</time>
      </trkpt>
      <trkpt lat="45.86245" lon="6.45241">
        <ele>1996.6</ele>
        <time>2024-04-27T13:38:56Z</time>
      </trkpt>
      <trkpt lat="45.86245" lon="6.45242">
        <ele>1995.7</ele>
        <time>2024-04-27T13:38:57Z</time>
      </trkpt>
      <trkpt lat="45.86246" lon="6.45244">
        <ele>1995.7</ele>
        <time>2024-04-27T13:38:58Z</time>
      </trkpt>
      <trkpt lat="45.86245" lon="6.45246">
        <ele>1995.7</ele>
        <time>2024-04-27T13:38:59Z</time>
      </trkpt>
      <trkpt lat="45.86242" lon="6.45249">
        <ele>1995.7</ele>
        <time>2024-04-27T13:39:00Z</time>
      </trkpt>
      <trkpt lat="45.86242" lon="6.45249">
        <ele>1995.7</ele>
        <time>2024-04-27T13:39:01Z</time>
      </trkpt>
      <trkpt lat="45.86244" lon="6.45249">
        <ele>1995.7</ele>
        <time>2024-04-27T13:39:02Z</time>
      </trkpt>
      <trkpt lat="45.86245" lon="6.45249">
        <ele>1995.7</ele>
        <time>2024-04-27T13:39:03Z</time>
      </trkpt>
      <trkpt lat="45.86246" lon="6.45249">
        <ele>1995.7</ele>
        <time>2024-04-27T13:39:04Z</time>
      </trkpt>
      <trkpt lat="45.86249" lon="6.45248">
        <ele>1994.6</ele>
        <time>2024-04-27T13:39:05Z</time>
      </trkpt>
      <trkpt lat="45.86251" lon="6.45246">
        <ele>1994.6</ele>
        <time>2024-04-27T13:39:06Z</time>
      </trkpt>
      <trkpt lat="45.86254" lon="6.45243">
        <ele>1994.6</ele>
        <time>2024-04-27T13:39:07Z</time>
      </trkpt>
      <trkpt lat="45.86258" lon="6.4524">
        <ele>1994.6</ele>
        <time>2024-04-27T13:39:08Z</time>
      </trkpt>
      <trkpt lat="45.86262" lon="6.45237">
        <ele>1994.6</ele>
        <time>2024-04-27T13:39:09Z</time>
      </trkpt>
      <trkpt lat="45.86265" lon="6.45235">
        <ele>1994.6</ele>
        <time>2024-04-27T13:39:10Z</time>
      </trkpt>
      <trkpt lat="45.86267" lon="6.45232">
        <ele>1989.6</ele>
        <time>2024-04-27T13:39:11Z</time>
      </trkpt>
      <trkpt lat="45.8627" lon="6.45232">
        <ele>1989.6</ele>
        <time>2024-04-27T13:39:12Z</time>
      </trkpt>
      <trkpt lat="45.86271" lon="6.45234">
        <ele>1988.7</ele>
        <time>2024-04-27T13:39:13Z</time>
      </trkpt>
      <trkpt lat="45.86271" lon="6.45239">
        <ele>1988.7</ele>
        <time>2024-04-27T13:39:14Z</time>
      </trkpt>
      <trkpt lat="45.8627" lon="6.45244">
        <ele>1988.7</ele>
        <time>2024-04-27T13:39:15Z</time>
      </trkpt>
      <trkpt lat="45.86267" lon="6.45252">
        <ele>1988.7</ele>
        <time>2024-04-27T13:39:16Z</time>
      </trkpt>
      <trkpt lat="45.86265" lon="6.45258">
        <ele>1988.7</ele>
        <time>2024-04-27T13:39:17Z</time>
      </trkpt>
      <trkpt lat="45.86263" lon="6.45263">
        <ele>1988.7</ele>
        <time>2024-04-27T13:39:18Z</time>
      </trkpt>
      <trkpt lat="45.86262" lon="6.45266">
        <ele>1981.7</ele>
        <time>2024-04-27T13:39:19Z</time>
      </trkpt>
      <trkpt lat="45.86261" lon="6.4527">
        <ele>1981.7</ele>
        <time>2024-04-27T13:39:20Z</time>
      </trkpt>
      <trkpt lat="45.8626" lon="6.45274">
        <ele>1981.7</ele>
        <time>2024-04-27T13:39:21Z</time>
      </trkpt>
      <trkpt lat="45.86259" lon="6.45278">
        <ele>1981.7</ele>
        <time>2024-04-27T13:39:22Z</time>
      </trkpt>
      <trkpt lat="45.86258" lon="6.45281">
        <ele>1980.6</ele>
        <time>2024-04-27T13:39:23Z</time>
      </trkpt>
      <trkpt lat="45.86258" lon="6.45283">
        <ele>1980.6</ele>
        <time>2024-04-27T13:39:24Z</time>
      </trkpt>
      <trkpt lat="45.86257" lon="6.45285">
        <ele>1980.6</ele>
        <time>2024-04-27T13:39:25Z</time>
      </trkpt>
      <trkpt lat="45.86256" lon="6.45288">
        <ele>1980.6</ele>
        <time>2024-04-27T13:39:26Z</time>
      </trkpt>
      <trkpt lat="45.86255" lon="6.45291">
        <ele>1978.6</ele>
        <time>2024-04-27T13:39:27Z</time>
      </trkpt>
      <trkpt lat="45.86254" lon="6.45294">
        <ele>1978.6</ele>
        <time>2024-04-27T13:39:28Z</time>
      </trkpt>
      <trkpt lat="45.86253" lon="6.45296">
        <ele>1978.6</ele>
        <time>2024-04-27T13:39:29Z</time>
      </trkpt>
      <trkpt lat="45.86252" lon="6.45297">
        <ele>1978.6</ele>
        <time>2024-04-27T13:39:30Z</time>
      </trkpt>
      <trkpt lat="45.86251" lon="6.45298">
        <ele>1978.6</ele>
        <time>2024-04-27T13:39:31Z</time>
      </trkpt>
      <trkpt lat="45.86251" lon="6.45298">
        <ele>1978.6</ele>
        <time>2024-04-27T13:39:32Z</time>
      </trkpt>
      <trkpt lat="45.86251" lon="6.45298">
        <ele>1978.6</ele>
        <time>2024-04-27T13:39:33Z</time>
      </trkpt>
      <trkpt lat="45.86251" lon="6.45298">
        <ele>1978.6</ele>
        <time>2024-04-27T13:39:34Z</time>
      </trkpt>
      <trkpt lat="45.86251" lon="6.45299">
        <ele>1978.6</ele>
        <time>2024-04-27T13:39:35Z</time>
      </trkpt>
      <trkpt lat="45.86251" lon="6.45301">
        <ele>1978.6</ele>
        <time>2024-04-27T13:39:36Z</time>
      </trkpt>
      <trkpt lat="45.86249" lon="6.45304">
        <ele>1977.7</ele>
        <time>2024-04-27T13:39:37Z</time>
      </trkpt>
      <trkpt lat="45.86248" lon="6.45307">
        <ele>1977.7</ele>
        <time>2024-04-27T13:39:38Z</time>
      </trkpt>
      <trkpt lat="45.86247" lon="6.45309">
        <ele>1975.6</ele>
        <time>2024-04-27T13:39:39Z</time>
      </trkpt>
      <trkpt lat="45.86245" lon="6.45311">
        <ele>1975.6</ele>
        <time>2024-04-27T13:39:40Z</time>
      </trkpt>
      <trkpt lat="45.86245" lon="6.45313">
        <ele>1974.7</ele>
        <time>2024-04-27T13:39:41Z</time>
      </trkpt>
      <trkpt lat="45.86247" lon="6.45313">
        <ele>1974.7</ele>
        <time>2024-04-27T13:39:42Z</time>
      </trkpt>
      <trkpt lat="45.86248" lon="6.45313">
        <ele>1973.6</ele>
        <time>2024-04-27T13:39:43Z</time>
      </trkpt>
      <trkpt lat="45.8625" lon="6.45311">
        <ele>1973.6</ele>
        <time>2024-04-27T13:39:44Z</time>
      </trkpt>
      <trkpt lat="45.86252" lon="6.45309">
        <ele>1971.6</ele>
        <time>2024-04-27T13:39:45Z</time>
      </trkpt>
      <trkpt lat="45.86254" lon="6.45308">
        <ele>1971.6</ele>
        <time>2024-04-27T13:39:46Z</time>
      </trkpt>
      <trkpt lat="45.86256" lon="6.4531">
        <ele>1969.6</ele>
        <time>2024-04-27T13:39:47Z</time>
      </trkpt>
      <trkpt lat="45.86257" lon="6.45313">
        <ele>1969.6</ele>
        <time>2024-04-27T13:39:48Z</time>
      </trkpt>
      <trkpt lat="45.86257" lon="6.45317">
        <ele>1966.6</ele>
        <time>2024-04-27T13:39:49Z</time>
      </trkpt>
      <trkpt lat="45.86256" lon="6.4532">
        <ele>1966.6</ele>
        <time>2024-04-27T13:39:50Z</time>
      </trkpt>
      <trkpt lat="45.86254" lon="6.45324">
        <ele>1964.6</ele>
        <time>2024-04-27T13:39:51Z</time>
      </trkpt>
      <trkpt lat="45.86253" lon="6.45327">
        <ele>1964.6</ele>
        <time>2024-04-27T13:39:52Z</time>
      </trkpt>
      <trkpt lat="45.86255" lon="6.45329">
        <ele>1962.6</ele>
        <time>2024-04-27T13:39:53Z</time>
      </trkpt>
      <trkpt lat="45.86257" lon="6.45329">
        <ele>1962.6</ele>
        <time>2024-04-27T13:39:54Z</time>
      </trkpt>
      <trkpt lat="45.8626" lon="6.45328">
        <ele>1960.7</ele>
        <time>2024-04-27T13:39:55Z</time>
      </trkpt>
      <trkpt lat="45.86262" lon="6.45329">
        <ele>1960.7</ele>
        <time>2024-04-27T13:39:56Z</time>
      </trkpt>
      <trkpt lat="45.86264" lon="6.45331">
        <ele>1958.7</ele>
        <time>2024-04-27T13:39:57Z</time>
      </trkpt>
      <trkpt lat="45.86265" lon="6.45335">
        <ele>1958.7</ele>
        <time>2024-04-27T13:39:58Z</time>
      </trkpt>
      <trkpt lat="45.86265" lon="6.4534">
        <ele>1955.6</ele>
        <time>2024-04-27T13:39:59Z</time>
      </trkpt>
      <trkpt lat="45.86264" lon="6.45345">
        <ele>1955.6</ele>
        <time>2024-04-27T13:40:00Z</time>
      </trkpt>
      <trkpt lat="45.86263" lon="6.45351">
        <ele>1953.6</ele>
        <time>2024-04-27T13:40:01Z</time>
      </trkpt>
      <trkpt lat="45.86265" lon="6.45353">
        <ele>1953.6</ele>
        <time>2024-04-27T13:40:02Z</time>
      </trkpt>
      <trkpt lat="45.86268" lon="6.45354">
        <ele>1951.7</ele>
        <time>2024-04-27T13:40:03Z</time>
      </trkpt>
      <trkpt lat="45.8627" lon="6.45353">
        <ele>1951.7</ele>
        <time>2024-04-27T13:40:04Z</time>
      </trkpt>
      <trkpt lat="45.86272" lon="6.4535">
        <ele>1948.6</ele>
        <time>2024-04-27T13:40:05Z</time>
      </trkpt>
      <trkpt lat="45.86274" lon="6.45347">
        <ele>1948.6</ele>
        <time>2024-04-27T13:40:06Z</time>
      </trkpt>
      <trkpt lat="45.86277" lon="6.45348">
        <ele>1946.6</ele>
        <time>2024-04-27T13:40:07Z</time>
      </trkpt>
      <trkpt lat="45.86279" lon="6.45351">
        <ele>1946.6</ele>
        <time>2024-04-27T13:40:08Z</time>
      </trkpt>
      <trkpt lat="45.8628" lon="6.45357">
        <ele>1946.6</ele>
        <time>2024-04-27T13:40:09Z</time>
      </trkpt>
      <trkpt lat="45.86279" lon="6.45363">
        <ele>1946.6</ele>
        <time>2024-04-27T13:40:10Z</time>
      </trkpt>
      <trkpt lat="45.86278" lon="6.45369">
        <ele>1946.6</ele>
        <time>2024-04-27T13:40:11Z</time>
      </trkpt>
      <trkpt lat="45.86276" lon="6.45375">
        <ele>1946.6</ele>
        <time>2024-04-27T13:40:12Z</time>
      </trkpt>
      <trkpt lat="45.86275" lon="6.4538">
        <ele>1939.6</ele>
        <time>2024-04-27T13:40:13Z</time>
      </trkpt>
      <trkpt lat="45.86273" lon="6.45383">
        <ele>1939.6</ele>
        <time>2024-04-27T13:40:14Z</time>
      </trkpt>
      <trkpt lat="45.86272" lon="6.45385">
        <ele>1937.6</ele>
        <time>2024-04-27T13:40:15Z</time>
      </trkpt>
      <trkpt lat="45.86272" lon="6.45386">
        <ele>1937.6</ele>
        <time>2024-04-27T13:40:16Z</time>
      </trkpt>
      <trkpt lat="45.86271" lon="6.45387">
        <ele>1936.7</ele>
        <time>2024-04-27T13:40:17Z</time>
      </trkpt>
      <trkpt lat="45.8627" lon="6.45388">
        <ele>1936.7</ele>
        <time>2024-04-27T13:40:18Z</time>
      </trkpt>
      <trkpt lat="45.8627" lon="6.45388">
        <ele>1936.7</ele>
        <time>2024-04-27T13:40:19Z</time>
      </trkpt>
      <trkpt lat="45.86271" lon="6.45387">
        <ele>1936.7</ele>
        <time>2024-04-27T13:40:20Z</time>
      </trkpt>
      <trkpt lat="45.86271" lon="6.45388">
        <ele>1935.7</ele>
        <time>2024-04-27T13:40:21Z</time>
      </trkpt>
      <trkpt lat="45.86271" lon="6.45389">
        <ele>1935.7</ele>
        <time>2024-04-27T13:40:22Z</time>
      </trkpt>
      <trkpt lat="45.86272" lon="6.4539">
        <ele>1935.7</ele>
        <time>2024-04-27T13:40:23Z</time>
      </trkpt>
      <trkpt lat="45.86275" lon="6.45388">
        <ele>1935.7</ele>
        <time>2024-04-27T13:40:24Z</time>
      </trkpt>
      <trkpt lat="45.86279" lon="6.45386">
        <ele>1935.7</ele>
        <time>2024-04-27T13:40:25Z</time>
      </trkpt>
      <trkpt lat="45.86281" lon="6.45383">
        <ele>1935.7</ele>
        <time>2024-04-27T13:40:26Z</time>
      </trkpt>
      <trkpt lat="45.86282" lon="6.4538">
        <ele>1935.7</ele>
        <time>2024-04-27T13:40:27Z</time>
      </trkpt>
      <trkpt lat="45.86282" lon="6.45378">
        <ele>1935.7</ele>
        <time>2024-04-27T13:40:28Z</time>
      </trkpt>
      <trkpt lat="45.8628" lon="6.45375">
        <ele>1932.6</ele>
        <time>2024-04-27T13:40:29Z</time>
      </trkpt>
      <trkpt lat="45.86282" lon="6.45375">
        <ele>1932.6</ele>
        <time>2024-04-27T13:40:30Z</time>
      </trkpt>
      <trkpt lat="45.86285" lon="6.45377">
        <ele>1930.6</ele>
        <time>2024-04-27T13:40:31Z</time>
      </trkpt>
      <trkpt lat="45.86287" lon="6.45382">
        <ele>1930.6</ele>
        <time>2024-04-27T13:40:32Z</time>
      </trkpt>
      <trkpt lat="45.86287" lon="6.45386">
        <ele>1928.6</ele>
        <time>2024-04-27T13:40:33Z</time>
      </trkpt>
      <trkpt lat="45.86288" lon="6.45389">
        <ele>1928.6</ele>
        <time>2024-04-27T13:40:34Z</time>
      </trkpt>
      <trkpt lat="45.8629" lon="6.45391">
        <ele>1926.7</ele>
        <time>2024-04-27T13:40:35Z</time>
      </trkpt>
      <trkpt lat="45.86293" lon="6.45389">
        <ele>1926.7</ele>
        <time>2024-04-27T13:40:36Z</time>
      </trkpt>
      <trkpt lat="45.86296" lon="6.45388">
        <ele>1924.7</ele>
        <time>2024-04-27T13:40:37Z</time>
      </trkpt>
      <trkpt lat="45.86299" lon="6.45388">
        <ele>1924.7</ele>
        <time>2024-04-27T13:40:38Z</time>
      </trkpt>
      <trkpt lat="45.86302" lon="6.4539">
        <ele>1922.7</ele>
        <time>2024-04-27T13:40:39Z</time>
      </trkpt>
      <trkpt lat="45.86303" lon="6.45395">
        <ele>1922.7</ele>
        <time>2024-04-27T13:40:40Z</time>
      </trkpt>
      <trkpt lat="45.86304" lon="6.45401">
        <ele>1918.6</ele>
        <time>2024-04-27T13:40:41Z</time>
      </trkpt>
      <trkpt lat="45.86304" lon="6.45405">
        <ele>1918.6</ele>
        <time>2024-04-27T13:40:42Z</time>
      </trkpt>
      <trkpt lat="45.86304" lon="6.4541">
        <ele>1916.6</ele>
        <time>2024-04-27T13:40:43Z</time>
      </trkpt>
      <trkpt lat="45.86304" lon="6.45414">
        <ele>1916.6</ele>
        <time>2024-04-27T13:40:44Z</time>
      </trkpt>
      <trkpt lat="45.86304" lon="6.45418">
        <ele>1914.6</ele>
        <time>2024-04-27T13:40:45Z</time>
      </trkpt>
      <trkpt lat="45.86305" lon="6.45422">
        <ele>1914.6</ele>
        <time>2024-04-27T13:40:46Z</time>
      </trkpt>
      <trkpt lat="45.86305" lon="6.45426">
        <ele>1913.7</ele>
        <time>2024-04-27T13:40:47Z</time>
      </trkpt>
      <trkpt lat="45.86306" lon="6.45429">
        <ele>1913.7</ele>
        <time>2024-04-27T13:40:48Z</time>
      </trkpt>
      <trkpt lat="45.86307" lon="6.45431">
        <ele>1913.7</ele>
        <time>2024-04-27T13:40:49Z</time>
      </trkpt>
      <trkpt lat="45.86307" lon="6.45434">
        <ele>1913.7</ele>
        <time>2024-04-27T13:40:50Z</time>
      </trkpt>
      <trkpt lat="45.86308" lon="6.45435">
        <ele>1912.6</ele>
        <time>2024-04-27T13:40:51Z</time>
      </trkpt>
      <trkpt lat="45.86309" lon="6.45436">
        <ele>1912.6</ele>
        <time>2024-04-27T13:40:52Z</time>
      </trkpt>
      <trkpt lat="45.8631" lon="6.45436">
        <ele>1912.6</ele>
        <time>2024-04-27T13:40:53Z</time>
      </trkpt>
      <trkpt lat="45.8631" lon="6.45437">
        <ele>1912.6</ele>
        <time>2024-04-27T13:40:54Z</time>
      </trkpt>
      <trkpt lat="45.8631" lon="6.45437">
        <ele>1911.6</ele>
        <time>2024-04-27T13:40:55Z</time>
      </trkpt>
      <trkpt lat="45.86311" lon="6.45438">
        <ele>1911.6</ele>
        <time>2024-04-27T13:40:56Z</time>
      </trkpt>
      <trkpt lat="45.86312" lon="6.4544">
        <ele>1911.6</ele>
        <time>2024-04-27T13:40:57Z</time>
      </trkpt>
      <trkpt lat="45.86312" lon="6.45442">
        <ele>1911.6</ele>
        <time>2024-04-27T13:40:58Z</time>
      </trkpt>
      <trkpt lat="45.86313" lon="6.45444">
        <ele>1910.7</ele>
        <time>2024-04-27T13:40:59Z</time>
      </trkpt>
      <trkpt lat="45.86314" lon="6.45447">
        <ele>1910.7</ele>
        <time>2024-04-27T13:41:00Z</time>
      </trkpt>
      <trkpt lat="45.86315" lon="6.4545">
        <ele>1910.7</ele>
        <time>2024-04-27T13:41:01Z</time>
      </trkpt>
      <trkpt lat="45.86317" lon="6.45454">
        <ele>1910.7</ele>
        <time>2024-04-27T13:41:02Z</time>
      </trkpt>
      <trkpt lat="45.86319" lon="6.45458">
        <ele>1909.6</ele>
        <time>2024-04-27T13:41:03Z</time>
      </trkpt>
      <trkpt lat="45.8632" lon="6.45462">
        <ele>1909.6</ele>
        <time>2024-04-27T13:41:04Z</time>
      </trkpt>
      <trkpt lat="45.86322" lon="6.45464">
        <ele>1908.7</ele>
        <time>2024-04-27T13:41:05Z</time>
      </trkpt>
      <trkpt lat="45.86324" lon="6.45463">
        <ele>1908.7</ele>
        <time>2024-04-27T13:41:06Z</time>
      </trkpt>
      <trkpt lat="45.86325" lon="6.45461">
        <ele>1907.6</ele>
        <time>2024-04-27T13:41:07Z</time>
      </trkpt>
      <trkpt lat="45.86326" lon="6.45457">
        <ele>1907.6</ele>
        <time>2024-04-27T13:41:08Z</time>
      </trkpt>
      <trkpt lat="45.86326" lon="6.45453">
        <ele>1905.6</ele>
        <time>2024-04-27T13:41:09Z</time>
      </trkpt>
      <trkpt lat="45.86327" lon="6.45449">
        <ele>1905.6</ele>
        <time>2024-04-27T13:41:10Z</time>
      </trkpt>
      <trkpt lat="45.86328" lon="6.45445">
        <ele>1905.6</ele>
        <time>2024-04-27T13:41:11Z</time>
      </trkpt>
      <trkpt lat="45.86329" lon="6.4544">
        <ele>1905.6</ele>
        <time>2024-04-27T13:41:12Z</time>
      </trkpt>
      <trkpt lat="45.86331" lon="6.45436">
        <ele>1905.6</ele>
        <time>2024-04-27T13:41:13Z</time>
      </trkpt>
      <trkpt lat="45.8633" lon="6.45433">
        <ele>1905.6</ele>
        <time>2024-04-27T13:41:14Z</time>
      </trkpt>
      <trkpt lat="45.8633" lon="6.45429">
        <ele>1901.7</ele>
        <time>2024-04-27T13:41:15Z</time>
      </trkpt>
      <trkpt lat="45.8633" lon="6.45426">
        <ele>1901.7</ele>
        <time>2024-04-27T13:41:16Z</time>
      </trkpt>
      <trkpt lat="45.8633" lon="6.45423">
        <ele>1901.7</ele>
        <time>2024-04-27T13:41:17Z</time>
      </trkpt>
      <trkpt lat="45.86331" lon="6.4542">
        <ele>1901.7</ele>
        <time>2024-04-27T13:41:18Z</time>
      </trkpt>
      <trkpt lat="45.86332" lon="6.45417">
        <ele>1899.7</ele>
        <time>2024-04-27T13:41:19Z</time>
      </trkpt>
      <trkpt lat="45.86334" lon="6.45414">
        <ele>1899.7</ele>
        <time>2024-04-27T13:41:20Z</time>
      </trkpt>
      <trkpt lat="45.86336" lon="6.4541">
        <ele>1898.6</ele>
        <time>2024-04-27T13:41:21Z</time>
      </trkpt>
      <trkpt lat="45.86338" lon="6.45407">
        <ele>1898.6</ele>
        <time>2024-04-27T13:41:22Z</time>
      </trkpt>
      <trkpt lat="45.8634" lon="6.45404">
        <ele>1897.7</ele>
        <time>2024-04-27T13:41:23Z</time>
      </trkpt>
      <trkpt lat="45.86341" lon="6.45402">
        <ele>1897.7</ele>
        <time>2024-04-27T13:41:24Z</time>
      </trkpt>
      <trkpt lat="45.86343" lon="6.45401">
        <ele>1896.6</ele>
        <time>2024-04-27T13:41:25Z</time>
      </trkpt>
      <trkpt lat="45.86345" lon="6.45401">
        <ele>1896.6</ele>
        <time>2024-04-27T13:41:26Z</time>
      </trkpt>
      <trkpt lat="45.86346" lon="6.45405">
        <ele>1896.6</ele>
        <time>2024-04-27T13:41:27Z</time>
      </trkpt>
      <trkpt lat="45.86348" lon="6.45411">
        <ele>1896.6</ele>
        <time>2024-04-27T13:41:28Z</time>
      </trkpt>
      <trkpt lat="45.86348" lon="6.45417">
        <ele>1896.6</ele>
        <time>2024-04-27T13:41:29Z</time>
      </trkpt>
      <trkpt lat="45.86347" lon="6.45421">
        <ele>1896.6</ele>
        <time>2024-04-27T13:41:30Z</time>
      </trkpt>
      <trkpt lat="45.86346" lon="6.45423">
        <ele>1890.7</ele>
        <time>2024-04-27T13:41:31Z</time>
      </trkpt>
      <trkpt lat="45.86347" lon="6.45424">
        <ele>1890.7</ele>
        <time>2024-04-27T13:41:32Z</time>
      </trkpt>
      <trkpt lat="45.86346" lon="6.45424">
        <ele>1890.7</ele>
        <time>2024-04-27T13:41:33Z</time>
      </trkpt>
      <trkpt lat="45.86347" lon="6.45423">
        <ele>1890.7</ele>
        <time>2024-04-27T13:41:34Z</time>
      </trkpt>
      <trkpt lat="45.86347" lon="6.45421">
        <ele>1889.6</ele>
        <time>2024-04-27T13:41:35Z</time>
      </trkpt>
      <trkpt lat="45.86349" lon="6.45418">
        <ele>1889.6</ele>
        <time>2024-04-27T13:41:36Z</time>
      </trkpt>
      <trkpt lat="45.86351" lon="6.45415">
        <ele>1887.6</ele>
        <time>2024-04-27T13:41:37Z</time>
      </trkpt>
      <trkpt lat="45.86353" lon="6.45412">
        <ele>1887.6</ele>
        <time>2024-04-27T13:41:38Z</time>
      </trkpt>
      <trkpt lat="45.86354" lon="6.45409">
        <ele>1886.6</ele>
        <time>2024-04-27T13:41:39Z</time>
      </trkpt>
      <trkpt lat="45.86355" lon="6.45407">
        <ele>1886.6</ele>
        <time>2024-04-27T13:41:40Z</time>
      </trkpt>
      <trkpt lat="45.86357" lon="6.45405">
        <ele>1886.6</ele>
        <time>2024-04-27T13:41:41Z</time>
      </trkpt>
      <trkpt lat="45.86359" lon="6.45403">
        <ele>1886.6</ele>
        <time>2024-04-27T13:41:42Z</time>
      </trkpt>
      <trkpt lat="45.8636" lon="6.45401">
        <ele>1884.6</ele>
        <time>2024-04-27T13:41:43Z</time>
      </trkpt>
      <trkpt lat="45.86362" lon="6.454">
        <ele>1884.6</ele>
        <time>2024-04-27T13:41:44Z</time>
      </trkpt>
      <trkpt lat="45.86363" lon="6.45402">
        <ele>1884.6</ele>
        <time>2024-04-27T13:41:45Z</time>
      </trkpt>
      <trkpt lat="45.86365" lon="6.45404">
        <ele>1884.6</ele>
        <time>2024-04-27T13:41:46Z</time>
      </trkpt>
      <trkpt lat="45.86366" lon="6.45405">
        <ele>1882.6</ele>
        <time>2024-04-27T13:41:47Z</time>
      </trkpt>
      <trkpt lat="45.86366" lon="6.45407">
        <ele>1882.6</ele>
        <time>2024-04-27T13:41:48Z</time>
      </trkpt>
      <trkpt lat="45.86367" lon="6.45408">
        <ele>1881.7</ele>
        <time>2024-04-27T13:41:49Z</time>
      </trkpt>
      <trkpt lat="45.86366" lon="6.45409">
        <ele>1881.7</ele>
        <time>2024-04-27T13:41:50Z</time>
      </trkpt>
      <trkpt lat="45.86366" lon="6.4541">
        <ele>1881.7</ele>
        <time>2024-04-27T13:41:51Z</time>
      </trkpt>
      <trkpt lat="45.86366" lon="6.45411">
        <ele>1881.7</ele>
        <time>2024-04-27T13:41:52Z</time>
      </trkpt>
      <trkpt lat="45.86366" lon="6.45413">
        <ele>1880.6</ele>
        <time>2024-04-27T13:41:53Z</time>
      </trkpt>
      <trkpt lat="45.86366" lon="6.45415">
        <ele>1880.6</ele>
        <time>2024-04-27T13:41:54Z</time>
      </trkpt>
      <trkpt lat="45.86365" lon="6.45418">
        <ele>1880.6</ele>
        <time>2024-04-27T13:41:55Z</time>
      </trkpt>
      <trkpt lat="45.86365" lon="6.45422">
        <ele>1880.6</ele>
        <time>2024-04-27T13:41:56Z</time>
      </trkpt>
      <trkpt lat="45.86364" lon="6.45427">
        <ele>1879.6</ele>
        <time>2024-04-27T13:41:57Z</time>
      </trkpt>
      <trkpt lat="45.86365" lon="6.4543">
        <ele>1879.6</ele>
        <time>2024-04-27T13:41:58Z</time>
      </trkpt>
      <trkpt lat="45.86366" lon="6.45433">
        <ele>1877.6</ele>
        <time>2024-04-27T13:41:59Z</time>
      </trkpt>
      <trkpt lat="45.86368" lon="6.45433">
        <ele>1877.6</ele>
        <time>2024-04-27T13:42:00Z</time>
      </trkpt>
      <trkpt lat="45.8637" lon="6.45433">
        <ele>1876.7</ele>
        <time>2024-04-27T13:42:01Z</time>
      </trkpt>
      <trkpt lat="45.8637" lon="6.45432">
        <ele>1876.7</ele>
        <time>2024-04-27T13:42:02Z</time>
      </trkpt>
      <trkpt lat="45.86371" lon="6.45431">
        <ele>1875.6</ele>
        <time>2024-04-27T13:42:03Z</time>
      </trkpt>
      <trkpt lat="45.86371" lon="6.45429">
        <ele>1875.6</ele>
        <time>2024-04-27T13:42:04Z</time>
      </trkpt>
      <trkpt lat="45.86372" lon="6.45426">
        <ele>1874.7</ele>
        <time>2024-04-27T13:42:05Z</time>
      </trkpt>
      <trkpt lat="45.86372" lon="6.45424">
        <ele>1874.7</ele>
        <time>2024-04-27T13:42:06Z</time>
      </trkpt>
      <trkpt lat="45.86374" lon="6.45423">
        <ele>1874.7</ele>
        <time>2024-04-27T13:42:07Z</time>
      </trkpt>
      <trkpt lat="45.86377" lon="6.45425">
        <ele>1874.7</ele>
        <time>2024-04-27T13:42:08Z</time>
      </trkpt>
      <trkpt lat="45.86378" lon="6.45429">
        <ele>1872.7</ele>
        <time>2024-04-27T13:42:09Z</time>
      </trkpt>
      <trkpt lat="45.86379" lon="6.45431">
        <ele>1872.7</ele>
        <time>2024-04-27T13:42:10Z</time>
      </trkpt>
      <trkpt lat="45.86379" lon="6.45432">
        <ele>1870.6</ele>
        <time>2024-04-27T13:42:11Z</time>
      </trkpt>
      <trkpt lat="45.86381" lon="6.45432">
        <ele>1870.6</ele>
        <time>2024-04-27T13:42:12Z</time>
      </trkpt>
      <trkpt lat="45.86382" lon="6.45431">
        <ele>1869.7</ele>
        <time>2024-04-27T13:42:13Z</time>
      </trkpt>
      <trkpt lat="45.86383" lon="6.45431">
        <ele>1869.7</ele>
        <time>2024-04-27T13:42:14Z</time>
      </trkpt>
      <trkpt lat="45.86384" lon="6.4543">
        <ele>1869.7</ele>
        <time>2024-04-27T13:42:15Z</time>
      </trkpt>
      <trkpt lat="45.86385" lon="6.45429">
        <ele>1869.7</ele>
        <time>2024-04-27T13:42:16Z</time>
      </trkpt>
      <trkpt lat="45.86386" lon="6.45428">
        <ele>1869.7</ele>
        <time>2024-04-27T13:42:17Z</time>
      </trkpt>
      <trkpt lat="45.86387" lon="6.45427">
        <ele>1869.7</ele>
        <time>2024-04-27T13:42:18Z</time>
      </trkpt>
      <trkpt lat="45.86388" lon="6.45427">
        <ele>1867.7</ele>
        <time>2024-04-27T13:42:19Z</time>
      </trkpt>
      <trkpt lat="45.86389" lon="6.45429">
        <ele>1867.7</ele>
        <time>2024-04-27T13:42:20Z</time>
      </trkpt>
      <trkpt lat="45.8639" lon="6.45432">
        <ele>1865.7</ele>
        <time>2024-04-27T13:42:21Z</time>
      </trkpt>
      <trkpt lat="45.8639" lon="6.45436">
        <ele>1865.7</ele>
        <time>2024-04-27T13:42:22Z</time>
      </trkpt>
      <trkpt lat="45.8639" lon="6.45439">
        <ele>1863.7</ele>
        <time>2024-04-27T13:42:23Z</time>
      </trkpt>
      <trkpt lat="45.86389" lon="6.45441">
        <ele>1863.7</ele>
        <time>2024-04-27T13:42:24Z</time>
      </trkpt>
      <trkpt lat="45.86389" lon="6.45443">
        <ele>1862.7</ele>
        <time>2024-04-27T13:42:25Z</time>
      </trkpt>
      <trkpt lat="45.8639" lon="6.45444">
        <ele>1862.7</ele>
        <time>2024-04-27T13:42:26Z</time>
      </trkpt>
      <trkpt lat="45.8639" lon="6.45445">
        <ele>1862.7</ele>
        <time>2024-04-27T13:42:27Z</time>
      </trkpt>
      <trkpt lat="45.86391" lon="6.45445">
        <ele>1862.7</ele>
        <time>2024-04-27T13:42:28Z</time>
      </trkpt>
      <trkpt lat="45.86393" lon="6.45445">
        <ele>1862.7</ele>
        <time>2024-04-27T13:42:29Z</time>
      </trkpt>
      <trkpt lat="45.86394" lon="6.45444">
        <ele>1862.7</ele>
        <time>2024-04-27T13:42:30Z</time>
      </trkpt>
      <trkpt lat="45.86396" lon="6.45442">
        <ele>1862.7</ele>
        <time>2024-04-27T13:42:31Z</time>
      </trkpt>
      <trkpt lat="45.86397" lon="6.45441">
        <ele>1862.7</ele>
        <time>2024-04-27T13:42:32Z</time>
      </trkpt>
      <trkpt lat="45.86399" lon="6.4544">
        <ele>1859.6</ele>
        <time>2024-04-27T13:42:33Z</time>
      </trkpt>
      <trkpt lat="45.86401" lon="6.45442">
        <ele>1859.6</ele>
        <time>2024-04-27T13:42:34Z</time>
      </trkpt>
      <trkpt lat="45.86401" lon="6.45446">
        <ele>1857.6</ele>
        <time>2024-04-27T13:42:35Z</time>
      </trkpt>
      <trkpt lat="45.86401" lon="6.45449">
        <ele>1857.6</ele>
        <time>2024-04-27T13:42:36Z</time>
      </trkpt>
      <trkpt lat="45.86402" lon="6.45452">
        <ele>1855.6</ele>
        <time>2024-04-27T13:42:37Z</time>
      </trkpt>
      <trkpt lat="45.86402" lon="6.45453">
        <ele>1855.6</ele>
        <time>2024-04-27T13:42:38Z</time>
      </trkpt>
      <trkpt lat="45.86403" lon="6.45454">
        <ele>1855.6</ele>
        <time>2024-04-27T13:42:39Z</time>
      </trkpt>
      <trkpt lat="45.86402" lon="6.45453">
        <ele>1855.6</ele>
        <time>2024-04-27T13:42:40Z</time>
      </trkpt>
      <trkpt lat="45.86401" lon="6.45453">
        <ele>1854.6</ele>
        <time>2024-04-27T13:42:41Z</time>
      </trkpt>
      <trkpt lat="45.86401" lon="6.45453">
        <ele>1854.6</ele>
        <time>2024-04-27T13:42:42Z</time>
      </trkpt>
      <trkpt lat="45.86401" lon="6.45454">
        <ele>1854.6</ele>
        <time>2024-04-27T13:42:43Z</time>
      </trkpt>
      <trkpt lat="45.86401" lon="6.45456">
        <ele>1854.6</ele>
        <time>2024-04-27T13:42:44Z</time>
      </trkpt>
      <trkpt lat="45.86401" lon="6.45458">
        <ele>1854.6</ele>
        <time>2024-04-27T13:42:45Z</time>
      </trkpt>
      <trkpt lat="45.86401" lon="6.4546">
        <ele>1854.6</ele>
        <time>2024-04-27T13:42:46Z</time>
      </trkpt>
      <trkpt lat="45.864" lon="6.45462">
        <ele>1853.7</ele>
        <time>2024-04-27T13:42:47Z</time>
      </trkpt>
      <trkpt lat="45.86401" lon="6.45464">
        <ele>1853.7</ele>
        <time>2024-04-27T13:42:48Z</time>
      </trkpt>
      <trkpt lat="45.86401" lon="6.45465">
        <ele>1852.6</ele>
        <time>2024-04-27T13:42:49Z</time>
      </trkpt>
      <trkpt lat="45.86401" lon="6.45465">
        <ele>1852.6</ele>
        <time>2024-04-27T13:42:50Z</time>
      </trkpt>
      <trkpt lat="45.86401" lon="6.45466">
        <ele>1852.6</ele>
        <time>2024-04-27T13:42:51Z</time>
      </trkpt>
      <trkpt lat="45.86402" lon="6.45466">
        <ele>1852.6</ele>
        <time>2024-04-27T13:42:52Z</time>
      </trkpt>
      <trkpt lat="45.86402" lon="6.45467">
        <ele>1851.7</ele>
        <time>2024-04-27T13:42:53Z</time>
      </trkpt>
      <trkpt lat="45.86402" lon="6.45468">
        <ele>1851.7</ele>
        <time>2024-04-27T13:42:54Z</time>
      </trkpt>
      <trkpt lat="45.86402" lon="6.45471">
        <ele>1851.7</ele>
        <time>2024-04-27T13:42:55Z</time>
      </trkpt>
      <trkpt lat="45.86403" lon="6.45474">
        <ele>1851.7</ele>
        <time>2024-04-27T13:42:56Z</time>
      </trkpt>
      <trkpt lat="45.86403" lon="6.45477">
        <ele>1851.7</ele>
        <time>2024-04-27T13:42:57Z</time>
      </trkpt>
      <trkpt lat="45.86403" lon="6.4548">
        <ele>1851.7</ele>
        <time>2024-04-27T13:42:58Z</time>
      </trkpt>
      <trkpt lat="45.86403" lon="6.45484">
        <ele>1850.6</ele>
        <time>2024-04-27T13:42:59Z</time>
      </trkpt>
      <trkpt lat="45.86405" lon="6.45488">
        <ele>1850.6</ele>
        <time>2024-04-27T13:43:00Z</time>
      </trkpt>
      <trkpt lat="45.86407" lon="6.45492">
        <ele>1850.6</ele>
        <time>2024-04-27T13:43:01Z</time>
      </trkpt>
      <trkpt lat="45.86408" lon="6.45495">
        <ele>1850.6</ele>
        <time>2024-04-27T13:43:02Z</time>
      </trkpt>
      <trkpt lat="45.86409" lon="6.45499">
        <ele>1849.7</ele>
        <time>2024-04-27T13:43:03Z</time>
      </trkpt>
      <trkpt lat="45.8641" lon="6.45503">
        <ele>1849.7</ele>
        <time>2024-04-27T13:43:04Z</time>
      </trkpt>
      <trkpt lat="45.8641" lon="6.45506">
        <ele>1848.6</ele>
        <time>2024-04-27T13:43:05Z</time>
      </trkpt>
      <trkpt lat="45.8641" lon="6.4551">
        <ele>1848.6</ele>
        <time>2024-04-27T13:43:06Z</time>
      </trkpt>
      <trkpt lat="45.86411" lon="6.45514">
        <ele>1846.7</ele>
        <time>2024-04-27T13:43:07Z</time>
      </trkpt>
      <trkpt lat="45.86411" lon="6.45518">
        <ele>1846.7</ele>
        <time>2024-04-27T13:43:08Z</time>
      </trkpt>
      <trkpt lat="45.86412" lon="6.45522">
        <ele>1846.7</ele>
        <time>2024-04-27T13:43:09Z</time>
      </trkpt>
      <trkpt lat="45.86411" lon="6.45526">
        <ele>1846.7</ele>
        <time>2024-04-27T13:43:10Z</time>
      </trkpt>
      <trkpt lat="45.86411" lon="6.4553">
        <ele>1844.7</ele>
        <time>2024-04-27T13:43:11Z</time>
      </trkpt>
      <trkpt lat="45.8641" lon="6.45534">
        <ele>1844.7</ele>
        <time>2024-04-27T13:43:12Z</time>
      </trkpt>
      <trkpt lat="45.8641" lon="6.45536">
        <ele>1843.6</ele>
        <time>2024-04-27T13:43:13Z</time>
      </trkpt>
      <trkpt lat="45.86409" lon="6.45538">
        <ele>1843.6</ele>
        <time>2024-04-27T13:43:14Z</time>
      </trkpt>
      <trkpt lat="45.86409" lon="6.45539">
        <ele>1843.6</ele>
        <time>2024-04-27T13:43:15Z</time>
      </trkpt>
      <trkpt lat="45.86408" lon="6.45541">
        <ele>1843.6</ele>
        <time>2024-04-27T13:43:16Z</time>
      </trkpt>
      <trkpt lat="45.86408" lon="6.45542">
        <ele>1842.7</ele>
        <time>2024-04-27T13:43:17Z</time>
      </trkpt>
      <trkpt lat="45.86408" lon="6.45543">
        <ele>1842.7</ele>
        <time>2024-04-27T13:43:18Z</time>
      </trkpt>
      <trkpt lat="45.86408" lon="6.45544">
        <ele>1842.7</ele>
        <time>2024-04-27T13:43:19Z</time>
      </trkpt>
      <trkpt lat="45.86407" lon="6.45544">
        <ele>1842.7</ele>
        <time>2024-04-27T13:43:20Z</time>
      </trkpt>
      <trkpt lat="45.86408" lon="6.45544">
        <ele>1841.6</ele>
        <time>2024-04-27T13:43:21Z</time>
      </trkpt>
      <trkpt lat="45.86408" lon="6.45543">
        <ele>1841.6</ele>
        <time>2024-04-27T13:43:22Z</time>
      </trkpt>
      <trkpt lat="45.86409" lon="6.45542">
        <ele>1841.6</ele>
        <time>2024-04-27T13:43:23Z</time>
      </trkpt>
      <trkpt lat="45.86409" lon="6.45542">
        <ele>1841.6</ele>
        <time>2024-04-27T13:43:24Z</time>
      </trkpt>
      <trkpt lat="45.86409" lon="6.45543">
        <ele>1841.6</ele>
        <time>2024-04-27T13:43:25Z</time>
      </trkpt>
      <trkpt lat="45.86409" lon="6.45542">
        <ele>1841.6</ele>
        <time>2024-04-27T13:43:26Z</time>
      </trkpt>
      <trkpt lat="45.8641" lon="6.45541">
        <ele>1841.6</ele>
        <time>2024-04-27T13:43:27Z</time>
      </trkpt>
      <trkpt lat="45.86412" lon="6.4554">
        <ele>1841.6</ele>
        <time>2024-04-27T13:43:28Z</time>
      </trkpt>
      <trkpt lat="45.86414" lon="6.45538">
        <ele>1840.7</ele>
        <time>2024-04-27T13:43:29Z</time>
      </trkpt>
      <trkpt lat="45.86417" lon="6.45538">
        <ele>1840.7</ele>
        <time>2024-04-27T13:43:30Z</time>
      </trkpt>
      <trkpt lat="45.86419" lon="6.45541">
        <ele>1840.7</ele>
        <time>2024-04-27T13:43:31Z</time>
      </trkpt>
      <trkpt lat="45.86421" lon="6.45545">
        <ele>1840.7</ele>
        <time>2024-04-27T13:43:32Z</time>
      </trkpt>
      <trkpt lat="45.86423" lon="6.45548">
        <ele>1840.7</ele>
        <time>2024-04-27T13:43:33Z</time>
      </trkpt>
      <trkpt lat="45.86425" lon="6.45549">
        <ele>1840.7</ele>
        <time>2024-04-27T13:43:34Z</time>
      </trkpt>
      <trkpt lat="45.86428" lon="6.45549">
        <ele>1831.7</ele>
        <time>2024-04-27T13:43:35Z</time>
      </trkpt>
      <trkpt lat="45.86431" lon="6.45549">
        <ele>1831.7</ele>
        <time>2024-04-27T13:43:36Z</time>
      </trkpt>
      <trkpt lat="45.86434" lon="6.4555">
        <ele>1831.7</ele>
        <time>2024-04-27T13:43:37Z</time>
      </trkpt>
      <trkpt lat="45.86435" lon="6.45553">
        <ele>1831.7</ele>
        <time>2024-04-27T13:43:38Z</time>
      </trkpt>
      <trkpt lat="45.86438" lon="6.45555">
        <ele>1824.7</ele>
        <time>2024-04-27T13:43:39Z</time>
      </trkpt>
      <trkpt lat="45.86441" lon="6.45556">
        <ele>1824.7</ele>
        <time>2024-04-27T13:43:40Z</time>
      </trkpt>
      <trkpt lat="45.86444" lon="6.45556">
        <ele>1822.6</ele>
        <time>2024-04-27T13:43:41Z</time>
      </trkpt>
      <trkpt lat="45.86446" lon="6.45559">
        <ele>1822.6</ele>
        <time>2024-04-27T13:43:42Z</time>
      </trkpt>
      <trkpt lat="45.86448" lon="6.45563">
        <ele>1818.6</ele>
        <time>2024-04-27T13:43:43Z</time>
      </trkpt>
      <trkpt lat="45.86448" lon="6.45567">
        <ele>1818.6</ele>
        <time>2024-04-27T13:43:44Z</time>
      </trkpt>
      <trkpt lat="45.86448" lon="6.45569">
        <ele>1816.6</ele>
        <time>2024-04-27T13:43:45Z</time>
      </trkpt>
      <trkpt lat="45.86449" lon="6.4557">
        <ele>1816.6</ele>
        <time>2024-04-27T13:43:46Z</time>
      </trkpt>
      <trkpt lat="45.86451" lon="6.45569">
        <ele>1813.6</ele>
        <time>2024-04-27T13:43:47Z</time>
      </trkpt>
      <trkpt lat="45.86452" lon="6.45567">
        <ele>1813.6</ele>
        <time>2024-04-27T13:43:48Z</time>
      </trkpt>
      <trkpt lat="45.86454" lon="6.45564">
        <ele>1811.6</ele>
        <time>2024-04-27T13:43:49Z</time>
      </trkpt>
      <trkpt lat="45.86455" lon="6.4556">
        <ele>1811.6</ele>
        <time>2024-04-27T13:43:50Z</time>
      </trkpt>
      <trkpt lat="45.86458" lon="6.45557">
        <ele>1809.6</ele>
        <time>2024-04-27T13:43:51Z</time>
      </trkpt>
      <trkpt lat="45.8646" lon="6.45554">
        <ele>1809.6</ele>
        <time>2024-04-27T13:43:52Z</time>
      </trkpt>
      <trkpt lat="45.86464" lon="6.45551">
        <ele>1808.7</ele>
        <time>2024-04-27T13:43:53Z</time>
      </trkpt>
      <trkpt lat="45.86468" lon="6.45549">
        <ele>1808.7</ele>
        <time>2024-04-27T13:43:54Z</time>
      </trkpt>
      <trkpt lat="45.86471" lon="6.45546">
        <ele>1806.6</ele>
        <time>2024-04-27T13:43:55Z</time>
      </trkpt>
      <trkpt lat="45.86473" lon="6.45545">
        <ele>1806.6</ele>
        <time>2024-04-27T13:43:56Z</time>
      </trkpt>
      <trkpt lat="45.86475" lon="6.45546">
        <ele>1804.6</ele>
        <time>2024-04-27T13:43:57Z</time>
      </trkpt>
      <trkpt lat="45.86477" lon="6.45549">
        <ele>1804.6</ele>
        <time>2024-04-27T13:43:58Z</time>
      </trkpt>
      <trkpt lat="45.86477" lon="6.45553">
        <ele>1802.6</ele>
        <time>2024-04-27T13:43:59Z</time>
      </trkpt>
      <trkpt lat="45.86477" lon="6.45557">
        <ele>1802.6</ele>
        <time>2024-04-27T13:44:00Z</time>
      </trkpt>
      <trkpt lat="45.86476" lon="6.45562">
        <ele>1800.6</ele>
        <time>2024-04-27T13:44:01Z</time>
      </trkpt>
      <trkpt lat="45.86475" lon="6.45567">
        <ele>1800.6</ele>
        <time>2024-04-27T13:44:02Z</time>
      </trkpt>
      <trkpt lat="45.86475" lon="6.45572">
        <ele>1798.6</ele>
        <time>2024-04-27T13:44:03Z</time>
      </trkpt>
      <trkpt lat="45.86474" lon="6.45577">
        <ele>1798.6</ele>
        <time>2024-04-27T13:44:04Z</time>
      </trkpt>
      <trkpt lat="45.86473" lon="6.45582">
        <ele>1797.6</ele>
        <time>2024-04-27T13:44:05Z</time>
      </trkpt>
      <trkpt lat="45.86473" lon="6.45586">
        <ele>1797.6</ele>
        <time>2024-04-27T13:44:06Z</time>
      </trkpt>
      <trkpt lat="45.86473" lon="6.4559">
        <ele>1795.6</ele>
        <time>2024-04-27T13:44:07Z</time>
      </trkpt>
      <trkpt lat="45.86472" lon="6.45592">
        <ele>1795.6</ele>
        <time>2024-04-27T13:44:08Z</time>
      </trkpt>
      <trkpt lat="45.86472" lon="6.45594">
        <ele>1794.7</ele>
        <time>2024-04-27T13:44:09Z</time>
      </trkpt>
      <trkpt lat="45.86472" lon="6.45595">
        <ele>1794.7</ele>
        <time>2024-04-27T13:44:10Z</time>
      </trkpt>
      <trkpt lat="45.86472" lon="6.45596">
        <ele>1794.7</ele>
        <time>2024-04-27T13:44:11Z</time>
      </trkpt>
      <trkpt lat="45.86472" lon="6.45596">
        <ele>1794.7</ele>
        <time>2024-04-27T13:44:12Z</time>
      </trkpt>
      <trkpt lat="45.86473" lon="6.45596">
        <ele>1794.7</ele>
        <time>2024-04-27T13:44:13Z</time>
      </trkpt>
      <trkpt lat="45.86473" lon="6.45597">
        <ele>1794.7</ele>
        <time>2024-04-27T13:44:14Z</time>
      </trkpt>
      <trkpt lat="45.86474" lon="6.45598">
        <ele>1794.7</ele>
        <time>2024-04-27T13:44:15Z</time>
      </trkpt>
      <trkpt lat="45.86474" lon="6.45598">
        <ele>1794.7</ele>
        <time>2024-04-27T13:44:16Z</time>
      </trkpt>
      <trkpt lat="45.86472" lon="6.45598">
        <ele>1794.7</ele>
        <time>2024-04-27T13:44:17Z</time>
      </trkpt>
      <trkpt lat="45.86471" lon="6.45599">
        <ele>1794.7</ele>
        <time>2024-04-27T13:44:18Z</time>
      </trkpt>
      <trkpt lat="45.86471" lon="6.45599">
        <ele>1794.7</ele>
        <time>2024-04-27T13:44:19Z</time>
      </trkpt>
      <trkpt lat="45.86471" lon="6.456">
        <ele>1794.7</ele>
        <time>2024-04-27T13:44:20Z</time>
      </trkpt>
      <trkpt lat="45.8647" lon="6.456">
        <ele>1794.7</ele>
        <time>2024-04-27T13:44:21Z</time>
      </trkpt>
      <trkpt lat="45.8647" lon="6.456">
        <ele>1794.7</ele>
        <time>2024-04-27T13:44:22Z</time>
      </trkpt>
      <trkpt lat="45.8647" lon="6.456">
        <ele>1794.7</ele>
        <time>2024-04-27T13:44:23Z</time>
      </trkpt>
      <trkpt lat="45.86469" lon="6.45601">
        <ele>1794.7</ele>
        <time>2024-04-27T13:44:24Z</time>
      </trkpt>
      <trkpt lat="45.86469" lon="6.456">
        <ele>1794.7</ele>
        <time>2024-04-27T13:44:25Z</time>
      </trkpt>
      <trkpt lat="45.86469" lon="6.45601">
        <ele>1794.7</ele>
        <time>2024-04-27T13:44:26Z</time>
      </trkpt>
      <trkpt lat="45.86468" lon="6.45601">
        <ele>1794.7</ele>
        <time>2024-04-27T13:44:27Z</time>
      </trkpt>
      <trkpt lat="45.86468" lon="6.45601">
        <ele>1794.7</ele>
        <time>2024-04-27T13:44:28Z</time>
      </trkpt>
      <trkpt lat="45.86468" lon="6.45601">
        <ele>1794.7</ele>
        <time>2024-04-27T13:44:29Z</time>
      </trkpt>
      <trkpt lat="45.86468" lon="6.45601">
        <ele>1794.7</ele>
        <time>2024-04-27T13:44:30Z</time>
      </trkpt>
      <trkpt lat="45.86468" lon="6.45601">
        <ele>1794.7</ele>
        <time>2024-04-27T13:44:31Z</time>
      </trkpt>
      <trkpt lat="45.86468" lon="6.45601">
        <ele>1794.7</ele>
        <time>2024-04-27T13:44:32Z</time>
      </trkpt>
      <trkpt lat="45.86468" lon="6.45601">
        <ele>1795.6</ele>
        <time>2024-04-27T13:44:33Z</time>
      </trkpt>
      <trkpt lat="45.86467" lon="6.456">
        <ele>1795.6</ele>
        <time>2024-04-27T13:44:34Z</time>
      </trkpt>
      <trkpt lat="45.86468" lon="6.456">
        <ele>1795.6</ele>
        <time>2024-04-27T13:44:35Z</time>
      </trkpt>
      <trkpt lat="45.86468" lon="6.45599">
        <ele>1795.6</ele>
        <time>2024-04-27T13:44:36Z</time>
      </trkpt>
      <trkpt lat="45.86468" lon="6.45599">
        <ele>1795.6</ele>
        <time>2024-04-27T13:44:37Z</time>
      </trkpt>
      <trkpt lat="45.86468" lon="6.45599">
        <ele>1795.6</ele>
        <time>2024-04-27T13:44:38Z</time>
      </trkpt>
      <trkpt lat="45.86468" lon="6.45599">
        <ele>1795.6</ele>
        <time>2024-04-27T13:44:39Z</time>
      </trkpt>
      <trkpt lat="45.86468" lon="6.45599">
        <ele>1795.6</ele>
        <time>2024-04-27T13:44:40Z</time>
      </trkpt>
      <trkpt lat="45.86468" lon="6.45599">
        <ele>1794.7</ele>
        <time>2024-04-27T13:44:41Z</time>
      </trkpt>
      <trkpt lat="45.86468" lon="6.45599">
        <ele>1794.7</ele>
        <time>2024-04-27T13:44:42Z</time>
      </trkpt>
      <trkpt lat="45.86468" lon="6.45599">
        <ele>1794.7</ele>
        <time>2024-04-27T13:44:43Z</time>
      </trkpt>
      <trkpt lat="45.86468" lon="6.456">
        <ele>1794.7</ele>
        <time>2024-04-27T13:44:44Z</time>
      </trkpt>
      <trkpt lat="45.86468" lon="6.456">
        <ele>1794.7</ele>
        <time>2024-04-27T13:44:45Z</time>
      </trkpt>
      <trkpt lat="45.86468" lon="6.456">
        <ele>1794.7</ele>
        <time>2024-04-27T13:44:46Z</time>
      </trkpt>
      <trkpt lat="45.86468" lon="6.456">
        <ele>1795.6</ele>
        <time>2024-04-27T13:44:47Z</time>
      </trkpt>
      <trkpt lat="45.86468" lon="6.456">
        <ele>1795.6</ele>
        <time>2024-04-27T13:44:48Z</time>
      </trkpt>
      <trkpt lat="45.86468" lon="6.456">
        <ele>1795.6</ele>
        <time>2024-04-27T13:44:49Z</time>
      </trkpt>
      <trkpt lat="45.86468" lon="6.456">
        <ele>1795.6</ele>
        <time>2024-04-27T13:44:50Z</time>
      </trkpt>
      <trkpt lat="45.86467" lon="6.456">
        <ele>1795.6</ele>
        <time>2024-04-27T13:44:51Z</time>
      </trkpt>
      <trkpt lat="45.86467" lon="6.456">
        <ele>1795.6</ele>
        <time>2024-04-27T13:44:52Z</time>
      </trkpt>
      <trkpt lat="45.86467" lon="6.456">
        <ele>1795.6</ele>
        <time>2024-04-27T13:44:53Z</time>
      </trkpt>
      <trkpt lat="45.86467" lon="6.45601">
        <ele>1795.6</ele>
        <time>2024-04-27T13:44:54Z</time>
      </trkpt>
      <trkpt lat="45.86465" lon="6.45602">
        <ele>1794.7</ele>
        <time>2024-04-27T13:44:55Z</time>
      </trkpt>
      <trkpt lat="45.86463" lon="6.45604">
        <ele>1794.7</ele>
        <time>2024-04-27T13:44:56Z</time>
      </trkpt>
      <trkpt lat="45.86462" lon="6.45605">
        <ele>1794.7</ele>
        <time>2024-04-27T13:44:57Z</time>
      </trkpt>
      <trkpt lat="45.86461" lon="6.45606">
        <ele>1794.7</ele>
        <time>2024-04-27T13:44:58Z</time>
      </trkpt>
      <trkpt lat="45.8646" lon="6.45607">
        <ele>1794.7</ele>
        <time>2024-04-27T13:44:59Z</time>
      </trkpt>
      <trkpt lat="45.86459" lon="6.45608">
        <ele>1794.7</ele>
        <time>2024-04-27T13:45:00Z</time>
      </trkpt>
      <trkpt lat="45.86458" lon="6.4561">
        <ele>1792.7</ele>
        <time>2024-04-27T13:45:01Z</time>
      </trkpt>
      <trkpt lat="45.86457" lon="6.45612">
        <ele>1792.7</ele>
        <time>2024-04-27T13:45:02Z</time>
      </trkpt>
      <trkpt lat="45.86455" lon="6.45615">
        <ele>1792.7</ele>
        <time>2024-04-27T13:45:03Z</time>
      </trkpt>
      <trkpt lat="45.86455" lon="6.45617">
        <ele>1792.7</ele>
        <time>2024-04-27T13:45:04Z</time>
      </trkpt>
      <trkpt lat="45.86454" lon="6.4562">
        <ele>1792.7</ele>
        <time>2024-04-27T13:45:05Z</time>
      </trkpt>
      <trkpt lat="45.86454" lon="6.45622">
        <ele>1792.7</ele>
        <time>2024-04-27T13:45:06Z</time>
      </trkpt>
      <trkpt lat="45.86454" lon="6.45626">
        <ele>1789.7</ele>
        <time>2024-04-27T13:45:07Z</time>
      </trkpt>
      <trkpt lat="45.86456" lon="6.4563">
        <ele>1789.7</ele>
        <time>2024-04-27T13:45:08Z</time>
      </trkpt>
      <trkpt lat="45.86457" lon="6.45635">
        <ele>1788.6</ele>
        <time>2024-04-27T13:45:09Z</time>
      </trkpt>
      <trkpt lat="45.86457" lon="6.45639">
        <ele>1788.6</ele>
        <time>2024-04-27T13:45:10Z</time>
      </trkpt>
      <trkpt lat="45.86458" lon="6.45644">
        <ele>1787.7</ele>
        <time>2024-04-27T13:45:11Z</time>
      </trkpt>
      <trkpt lat="45.86459" lon="6.45648">
        <ele>1787.7</ele>
        <time>2024-04-27T13:45:12Z</time>
      </trkpt>
      <trkpt lat="45.8646" lon="6.45653">
        <ele>1787.7</ele>
        <time>2024-04-27T13:45:13Z</time>
      </trkpt>
      <trkpt lat="45.86461" lon="6.45657">
        <ele>1787.7</ele>
        <time>2024-04-27T13:45:14Z</time>
      </trkpt>
      <trkpt lat="45.86463" lon="6.4566">
        <ele>1785.7</ele>
        <time>2024-04-27T13:45:15Z</time>
      </trkpt>
      <trkpt lat="45.86464" lon="6.45664">
        <ele>1785.7</ele>
        <time>2024-04-27T13:45:16Z</time>
      </trkpt>
      <trkpt lat="45.86466" lon="6.45667">
        <ele>1784.6</ele>
        <time>2024-04-27T13:45:17Z</time>
      </trkpt>
      <trkpt lat="45.86467" lon="6.45671">
        <ele>1784.6</ele>
        <time>2024-04-27T13:45:18Z</time>
      </trkpt>
      <trkpt lat="45.86468" lon="6.45674">
        <ele>1783.7</ele>
        <time>2024-04-27T13:45:19Z</time>
      </trkpt>
      <trkpt lat="45.86469" lon="6.45677">
        <ele>1783.7</ele>
        <time>2024-04-27T13:45:20Z</time>
      </trkpt>
      <trkpt lat="45.8647" lon="6.4568">
        <ele>1782.6</ele>
        <time>2024-04-27T13:45:21Z</time>
      </trkpt>
      <trkpt lat="45.8647" lon="6.45682">
        <ele>1782.6</ele>
        <time>2024-04-27T13:45:22Z</time>
      </trkpt>
      <trkpt lat="45.8647" lon="6.45684">
        <ele>1781.6</ele>
        <time>2024-04-27T13:45:23Z</time>
      </trkpt>
      <trkpt lat="45.8647" lon="6.45687">
        <ele>1781.6</ele>
        <time>2024-04-27T13:45:24Z</time>
      </trkpt>
      <trkpt lat="45.8647" lon="6.45689">
        <ele>1781.6</ele>
        <time>2024-04-27T13:45:25Z</time>
      </trkpt>
      <trkpt lat="45.86468" lon="6.45691">
        <ele>1781.6</ele>
        <time>2024-04-27T13:45:26Z</time>
      </trkpt>
      <trkpt lat="45.86468" lon="6.45694">
        <ele>1780.7</ele>
        <time>2024-04-27T13:45:27Z</time>
      </trkpt>
      <trkpt lat="45.86468" lon="6.45697">
        <ele>1780.7</ele>
        <time>2024-04-27T13:45:28Z</time>
      </trkpt>
      <trkpt lat="45.86467" lon="6.457">
        <ele>1778.7</ele>
        <time>2024-04-27T13:45:29Z</time>
      </trkpt>
      <trkpt lat="45.86467" lon="6.45703">
        <ele>1778.7</ele>
        <time>2024-04-27T13:45:30Z</time>
      </trkpt>
      <trkpt lat="45.86467" lon="6.45706">
        <ele>1777.6</ele>
        <time>2024-04-27T13:45:31Z</time>
      </trkpt>
      <trkpt lat="45.86468" lon="6.45708">
        <ele>1777.6</ele>
        <time>2024-04-27T13:45:32Z</time>
      </trkpt>
      <trkpt lat="45.86468" lon="6.45709">
        <ele>1776.7</ele>
        <time>2024-04-27T13:45:33Z</time>
      </trkpt>
      <trkpt lat="45.86468" lon="6.4571">
        <ele>1776.7</ele>
        <time>2024-04-27T13:45:34Z</time>
      </trkpt>
      <trkpt lat="45.86468" lon="6.45711">
        <ele>1776.7</ele>
        <time>2024-04-27T13:45:35Z</time>
      </trkpt>
      <trkpt lat="45.86468" lon="6.45712">
        <ele>1776.7</ele>
        <time>2024-04-27T13:45:36Z</time>
      </trkpt>
      <trkpt lat="45.86468" lon="6.45713">
        <ele>1774.7</ele>
        <time>2024-04-27T13:45:37Z</time>
      </trkpt>
      <trkpt lat="45.86469" lon="6.45713">
        <ele>1774.7</ele>
        <time>2024-04-27T13:45:38Z</time>
      </trkpt>
      <trkpt lat="45.86469" lon="6.45714">
        <ele>1774.7</ele>
        <time>2024-04-27T13:45:39Z</time>
      </trkpt>
      <trkpt lat="45.86469" lon="6.45715">
        <ele>1774.7</ele>
        <time>2024-04-27T13:45:40Z</time>
      </trkpt>
      <trkpt lat="45.86469" lon="6.45715">
        <ele>1774.7</ele>
        <time>2024-04-27T13:45:41Z</time>
      </trkpt>
      <trkpt lat="45.8647" lon="6.45716">
        <ele>1774.7</ele>
        <time>2024-04-27T13:45:42Z</time>
      </trkpt>
      <trkpt lat="45.86471" lon="6.45718">
        <ele>1774.7</ele>
        <time>2024-04-27T13:45:43Z</time>
      </trkpt>
      <trkpt lat="45.86473" lon="6.45721">
        <ele>1774.7</ele>
        <time>2024-04-27T13:45:44Z</time>
      </trkpt>
      <trkpt lat="45.86476" lon="6.45725">
        <ele>1772.6</ele>
        <time>2024-04-27T13:45:45Z</time>
      </trkpt>
      <trkpt lat="45.86478" lon="6.45728">
        <ele>1772.6</ele>
        <time>2024-04-27T13:45:46Z</time>
      </trkpt>
      <trkpt lat="45.86481" lon="6.45732">
        <ele>1770.6</ele>
        <time>2024-04-27T13:45:47Z</time>
      </trkpt>
      <trkpt lat="45.86483" lon="6.45735">
        <ele>1770.6</ele>
        <time>2024-04-27T13:45:48Z</time>
      </trkpt>
      <trkpt lat="45.86484" lon="6.45737">
        <ele>1769.7</ele>
        <time>2024-04-27T13:45:49Z</time>
      </trkpt>
      <trkpt lat="45.86485" lon="6.45739">
        <ele>1769.7</ele>
        <time>2024-04-27T13:45:50Z</time>
      </trkpt>
      <trkpt lat="45.86486" lon="6.45742">
        <ele>1768.6</ele>
        <time>2024-04-27T13:45:51Z</time>
      </trkpt>
      <trkpt lat="45.86487" lon="6.45745">
        <ele>1768.6</ele>
        <time>2024-04-27T13:45:52Z</time>
      </trkpt>
      <trkpt lat="45.86488" lon="6.45748">
        <ele>1768.6</ele>
        <time>2024-04-27T13:45:53Z</time>
      </trkpt>
      <trkpt lat="45.86488" lon="6.45751">
        <ele>1768.6</ele>
        <time>2024-04-27T13:45:54Z</time>
      </trkpt>
      <trkpt lat="45.86488" lon="6.45753">
        <ele>1767.7</ele>
        <time>2024-04-27T13:45:55Z</time>
      </trkpt>
      <trkpt lat="45.86488" lon="6.45755">
        <ele>1767.7</ele>
        <time>2024-04-27T13:45:56Z</time>
      </trkpt>
      <trkpt lat="45.86489" lon="6.45756">
        <ele>1767.7</ele>
        <time>2024-04-27T13:45:57Z</time>
      </trkpt>
      <trkpt lat="45.86489" lon="6.45758">
        <ele>1767.7</ele>
        <time>2024-04-27T13:45:58Z</time>
      </trkpt>
      <trkpt lat="45.86489" lon="6.4576">
        <ele>1766.6</ele>
        <time>2024-04-27T13:45:59Z</time>
      </trkpt>
      <trkpt lat="45.8649" lon="6.45761">
        <ele>1766.6</ele>
        <time>2024-04-27T13:46:00Z</time>
      </trkpt>
      <trkpt lat="45.86492" lon="6.45762">
        <ele>1765.6</ele>
        <time>2024-04-27T13:46:01Z</time>
      </trkpt>
      <trkpt lat="45.86494" lon="6.45763">
        <ele>1765.6</ele>
        <time>2024-04-27T13:46:02Z</time>
      </trkpt>
      <trkpt lat="45.86496" lon="6.45763">
        <ele>1765.6</ele>
        <time>2024-04-27T13:46:03Z</time>
      </trkpt>
      <trkpt lat="45.86498" lon="6.45763">
        <ele>1765.6</ele>
        <time>2024-04-27T13:46:04Z</time>
      </trkpt>
      <trkpt lat="45.865" lon="6.45763">
        <ele>1764.7</ele>
        <time>2024-04-27T13:46:05Z</time>
      </trkpt>
      <trkpt lat="45.86501" lon="6.45763">
        <ele>1764.7</ele>
        <time>2024-04-27T13:46:06Z</time>
      </trkpt>
      <trkpt lat="45.86502" lon="6.45763">
        <ele>1763.6</ele>
        <time>2024-04-27T13:46:07Z</time>
      </trkpt>
      <trkpt lat="45.86502" lon="6.45762">
        <ele>1763.6</ele>
        <time>2024-04-27T13:46:08Z</time>
      </trkpt>
      <trkpt lat="45.86502" lon="6.45762">
        <ele>1763.6</ele>
        <time>2024-04-27T13:46:09Z</time>
      </trkpt>
      <trkpt lat="45.86503" lon="6.45762">
        <ele>1763.6</ele>
        <time>2024-04-27T13:46:10Z</time>
      </trkpt>
      <trkpt lat="45.86503" lon="6.45761">
        <ele>1762.7</ele>
        <time>2024-04-27T13:46:11Z</time>
      </trkpt>
      <trkpt lat="45.86504" lon="6.45761">
        <ele>1762.7</ele>
        <time>2024-04-27T13:46:12Z</time>
      </trkpt>
      <trkpt lat="45.86504" lon="6.45761">
        <ele>1762.7</ele>
        <time>2024-04-27T13:46:13Z</time>
      </trkpt>
      <trkpt lat="45.86503" lon="6.45762">
        <ele>1762.7</ele>
        <time>2024-04-27T13:46:14Z</time>
      </trkpt>
      <trkpt lat="45.86502" lon="6.45762">
        <ele>1762.7</ele>
        <time>2024-04-27T13:46:15Z</time>
      </trkpt>
      <trkpt lat="45.86502" lon="6.45761">
        <ele>1762.7</ele>
        <time>2024-04-27T13:46:16Z</time>
      </trkpt>
      <trkpt lat="45.86502" lon="6.45761">
        <ele>1762.7</ele>
        <time>2024-04-27T13:46:17Z</time>
      </trkpt>
      <trkpt lat="45.86502" lon="6.45762">
        <ele>1762.7</ele>
        <time>2024-04-27T13:46:18Z</time>
      </trkpt>
      <trkpt lat="45.86501" lon="6.45762">
        <ele>1762.7</ele>
        <time>2024-04-27T13:46:19Z</time>
      </trkpt>
      <trkpt lat="45.86501" lon="6.45762">
        <ele>1762.7</ele>
        <time>2024-04-27T13:46:20Z</time>
      </trkpt>
      <trkpt lat="45.86501" lon="6.45762">
        <ele>1763.6</ele>
        <time>2024-04-27T13:46:21Z</time>
      </trkpt>
      <trkpt lat="45.86501" lon="6.45762">
        <ele>1763.6</ele>
        <time>2024-04-27T13:46:22Z</time>
      </trkpt>
      <trkpt lat="45.86501" lon="6.45762">
        <ele>1763.6</ele>
        <time>2024-04-27T13:46:23Z</time>
      </trkpt>
      <trkpt lat="45.86501" lon="6.45762">
        <ele>1763.6</ele>
        <time>2024-04-27T13:46:24Z</time>
      </trkpt>
      <trkpt lat="45.86501" lon="6.45762">
        <ele>1763.6</ele>
        <time>2024-04-27T13:46:25Z</time>
      </trkpt>
      <trkpt lat="45.86502" lon="6.45762">
        <ele>1763.6</ele>
        <time>2024-04-27T13:46:26Z</time>
      </trkpt>
      <trkpt lat="45.86503" lon="6.45766">
        <ele>1764.7</ele>
        <time>2024-04-27T13:46:27Z</time>
      </trkpt>
      <trkpt lat="45.86504" lon="6.4577">
        <ele>1764.7</ele>
        <time>2024-04-27T13:46:28Z</time>
      </trkpt>
      <trkpt lat="45.86505" lon="6.45774">
        <ele>1764.7</ele>
        <time>2024-04-27T13:46:29Z</time>
      </trkpt>
      <trkpt lat="45.86507" lon="6.45778">
        <ele>1764.7</ele>
        <time>2024-04-27T13:46:30Z</time>
      </trkpt>
      <trkpt lat="45.86508" lon="6.45783">
        <ele>1763.6</ele>
        <time>2024-04-27T13:46:31Z</time>
      </trkpt>
      <trkpt lat="45.8651" lon="6.45787">
        <ele>1763.6</ele>
        <time>2024-04-27T13:46:32Z</time>
      </trkpt>
      <trkpt lat="45.86511" lon="6.45792">
        <ele>1762.7</ele>
        <time>2024-04-27T13:46:33Z</time>
      </trkpt>
      <trkpt lat="45.86513" lon="6.45796">
        <ele>1762.7</ele>
        <time>2024-04-27T13:46:34Z</time>
      </trkpt>
      <trkpt lat="45.86514" lon="6.45801">
        <ele>1762.7</ele>
        <time>2024-04-27T13:46:35Z</time>
      </trkpt>
      <trkpt lat="45.86515" lon="6.45803">
        <ele>1762.7</ele>
        <time>2024-04-27T13:46:36Z</time>
      </trkpt>
      <trkpt lat="45.86517" lon="6.45802">
        <ele>1762.7</ele>
        <time>2024-04-27T13:46:37Z</time>
      </trkpt>
      <trkpt lat="45.86518" lon="6.458">
        <ele>1762.7</ele>
        <time>2024-04-27T13:46:38Z</time>
      </trkpt>
      <trkpt lat="45.86519" lon="6.45798">
        <ele>1757.7</ele>
        <time>2024-04-27T13:46:39Z</time>
      </trkpt>
      <trkpt lat="45.86521" lon="6.45796">
        <ele>1757.7</ele>
        <time>2024-04-27T13:46:40Z</time>
      </trkpt>
      <trkpt lat="45.86523" lon="6.45796">
        <ele>1757.7</ele>
        <time>2024-04-27T13:46:41Z</time>
      </trkpt>
      <trkpt lat="45.86525" lon="6.45797">
        <ele>1757.7</ele>
        <time>2024-04-27T13:46:42Z</time>
      </trkpt>
      <trkpt lat="45.86528" lon="6.45797">
        <ele>1757.7</ele>
        <time>2024-04-27T13:46:43Z</time>
      </trkpt>
      <trkpt lat="45.86531" lon="6.45796">
        <ele>1757.7</ele>
        <time>2024-04-27T13:46:44Z</time>
      </trkpt>
      <trkpt lat="45.86534" lon="6.45795">
        <ele>1748.7</ele>
        <time>2024-04-27T13:46:45Z</time>
      </trkpt>
      <trkpt lat="45.86536" lon="6.45796">
        <ele>1748.7</ele>
        <time>2024-04-27T13:46:46Z</time>
      </trkpt>
      <trkpt lat="45.86537" lon="6.45797">
        <ele>1745.6</ele>
        <time>2024-04-27T13:46:47Z</time>
      </trkpt>
      <trkpt lat="45.8654" lon="6.45796">
        <ele>1745.6</ele>
        <time>2024-04-27T13:46:48Z</time>
      </trkpt>
      <trkpt lat="45.86542" lon="6.45794">
        <ele>1742.7</ele>
        <time>2024-04-27T13:46:49Z</time>
      </trkpt>
      <trkpt lat="45.86546" lon="6.45794">
        <ele>1742.7</ele>
        <time>2024-04-27T13:46:50Z</time>
      </trkpt>
      <trkpt lat="45.8655" lon="6.45796">
        <ele>1738.6</ele>
        <time>2024-04-27T13:46:51Z</time>
      </trkpt>
      <trkpt lat="45.86553" lon="6.458">
        <ele>1738.6</ele>
        <time>2024-04-27T13:46:52Z</time>
      </trkpt>
      <trkpt lat="45.86555" lon="6.45803">
        <ele>1733.6</ele>
        <time>2024-04-27T13:46:53Z</time>
      </trkpt>
      <trkpt lat="45.86557" lon="6.45805">
        <ele>1733.6</ele>
        <time>2024-04-27T13:46:54Z</time>
      </trkpt>
      <trkpt lat="45.86559" lon="6.45805">
        <ele>1731.6</ele>
        <time>2024-04-27T13:46:55Z</time>
      </trkpt>
      <trkpt lat="45.86561" lon="6.45802">
        <ele>1731.6</ele>
        <time>2024-04-27T13:46:56Z</time>
      </trkpt>
      <trkpt lat="45.86563" lon="6.45798">
        <ele>1727.6</ele>
        <time>2024-04-27T13:46:57Z</time>
      </trkpt>
      <trkpt lat="45.86564" lon="6.45795">
        <ele>1727.6</ele>
        <time>2024-04-27T13:46:58Z</time>
      </trkpt>
      <trkpt lat="45.86565" lon="6.45792">
        <ele>1725.6</ele>
        <time>2024-04-27T13:46:59Z</time>
      </trkpt>
      <trkpt lat="45.86566" lon="6.45788">
        <ele>1725.6</ele>
        <time>2024-04-27T13:47:00Z</time>
      </trkpt>
      <trkpt lat="45.86567" lon="6.45784">
        <ele>1723.7</ele>
        <time>2024-04-27T13:47:01Z</time>
      </trkpt>
      <trkpt lat="45.86567" lon="6.45781">
        <ele>1723.7</ele>
        <time>2024-04-27T13:47:02Z</time>
      </trkpt>
      <trkpt lat="45.86567" lon="6.45779">
        <ele>1721.7</ele>
        <time>2024-04-27T13:47:03Z</time>
      </trkpt>
      <trkpt lat="45.86567" lon="6.45777">
        <ele>1721.7</ele>
        <time>2024-04-27T13:47:04Z</time>
      </trkpt>
      <trkpt lat="45.86567" lon="6.45777">
        <ele>1720.6</ele>
        <time>2024-04-27T13:47:05Z</time>
      </trkpt>
      <trkpt lat="45.86567" lon="6.45776">
        <ele>1720.6</ele>
        <time>2024-04-27T13:47:06Z</time>
      </trkpt>
      <trkpt lat="45.86567" lon="6.45776">
        <ele>1720.6</ele>
        <time>2024-04-27T13:47:07Z</time>
      </trkpt>
      <trkpt lat="45.86567" lon="6.45775">
        <ele>1720.6</ele>
        <time>2024-04-27T13:47:08Z</time>
      </trkpt>
      <trkpt lat="45.86567" lon="6.45775">
        <ele>1719.7</ele>
        <time>2024-04-27T13:47:09Z</time>
      </trkpt>
      <trkpt lat="45.86568" lon="6.45775">
        <ele>1719.7</ele>
        <time>2024-04-27T13:47:10Z</time>
      </trkpt>
      <trkpt lat="45.86568" lon="6.45774">
        <ele>1719.7</ele>
        <time>2024-04-27T13:47:11Z</time>
      </trkpt>
      <trkpt lat="45.86568" lon="6.45774">
        <ele>1719.7</ele>
        <time>2024-04-27T13:47:12Z</time>
      </trkpt>
      <trkpt lat="45.86568" lon="6.45773">
        <ele>1718.6</ele>
        <time>2024-04-27T13:47:13Z</time>
      </trkpt>
      <trkpt lat="45.86568" lon="6.45773">
        <ele>1718.6</ele>
        <time>2024-04-27T13:47:14Z</time>
      </trkpt>
      <trkpt lat="45.86568" lon="6.45773">
        <ele>1717.6</ele>
        <time>2024-04-27T13:47:15Z</time>
      </trkpt>
      <trkpt lat="45.86568" lon="6.45772">
        <ele>1717.6</ele>
        <time>2024-04-27T13:47:16Z</time>
      </trkpt>
      <trkpt lat="45.8657" lon="6.45771">
        <ele>1717.6</ele>
        <time>2024-04-27T13:47:17Z</time>
      </trkpt>
      <trkpt lat="45.86571" lon="6.4577">
        <ele>1717.6</ele>
        <time>2024-04-27T13:47:18Z</time>
      </trkpt>
      <trkpt lat="45.86571" lon="6.45769">
        <ele>1717.6</ele>
        <time>2024-04-27T13:47:19Z</time>
      </trkpt>
      <trkpt lat="45.86572" lon="6.45769">
        <ele>1717.6</ele>
        <time>2024-04-27T13:47:20Z</time>
      </trkpt>
      <trkpt lat="45.86572" lon="6.45768">
        <ele>1717.6</ele>
        <time>2024-04-27T13:47:21Z</time>
      </trkpt>
      <trkpt lat="45.86571" lon="6.45768">
        <ele>1717.6</ele>
        <time>2024-04-27T13:47:22Z</time>
      </trkpt>
      <trkpt lat="45.86572" lon="6.45767">
        <ele>1717.6</ele>
        <time>2024-04-27T13:47:23Z</time>
      </trkpt>
      <trkpt lat="45.86573" lon="6.45766">
        <ele>1717.6</ele>
        <time>2024-04-27T13:47:24Z</time>
      </trkpt>
      <trkpt lat="45.86574" lon="6.45767">
        <ele>1716.7</ele>
        <time>2024-04-27T13:47:25Z</time>
      </trkpt>
      <trkpt lat="45.86576" lon="6.45768">
        <ele>1716.7</ele>
        <time>2024-04-27T13:47:26Z</time>
      </trkpt>
      <trkpt lat="45.86577" lon="6.45772">
        <ele>1714.7</ele>
        <time>2024-04-27T13:47:27Z</time>
      </trkpt>
      <trkpt lat="45.86577" lon="6.45775">
        <ele>1714.7</ele>
        <time>2024-04-27T13:47:28Z</time>
      </trkpt>
      <trkpt lat="45.86577" lon="6.45779">
        <ele>1712.7</ele>
        <time>2024-04-27T13:47:29Z</time>
      </trkpt>
      <trkpt lat="45.86578" lon="6.45783">
        <ele>1712.7</ele>
        <time>2024-04-27T13:47:30Z</time>
      </trkpt>
      <trkpt lat="45.86579" lon="6.45786">
        <ele>1710.7</ele>
        <time>2024-04-27T13:47:31Z</time>
      </trkpt>
      <trkpt lat="45.8658" lon="6.45788">
        <ele>1710.7</ele>
        <time>2024-04-27T13:47:32Z</time>
      </trkpt>
      <trkpt lat="45.86581" lon="6.45789">
        <ele>1709.6</ele>
        <time>2024-04-27T13:47:33Z</time>
      </trkpt>
      <trkpt lat="45.86583" lon="6.4579">
        <ele>1709.6</ele>
        <time>2024-04-27T13:47:34Z</time>
      </trkpt>
      <trkpt lat="45.86584" lon="6.4579">
        <ele>1707.7</ele>
        <time>2024-04-27T13:47:35Z</time>
      </trkpt>
      <trkpt lat="45.86585" lon="6.45793">
        <ele>1707.7</ele>
        <time>2024-04-27T13:47:36Z</time>
      </trkpt>
      <trkpt lat="45.86586" lon="6.45795">
        <ele>1706.6</ele>
        <time>2024-04-27T13:47:37Z</time>
      </trkpt>
      <trkpt lat="45.86586" lon="6.45796">
        <ele>1706.6</ele>
        <time>2024-04-27T13:47:38Z</time>
      </trkpt>
      <trkpt lat="45.86586" lon="6.45798">
        <ele>1706.6</ele>
        <time>2024-04-27T13:47:39Z</time>
      </trkpt>
      <trkpt lat="45.86587" lon="6.45799">
        <ele>1706.6</ele>
        <time>2024-04-27T13:47:40Z</time>
      </trkpt>
      <trkpt lat="45.86587" lon="6.45801">
        <ele>1705.7</ele>
        <time>2024-04-27T13:47:41Z</time>
      </trkpt>
      <trkpt lat="45.86587" lon="6.45803">
        <ele>1705.7</ele>
        <time>2024-04-27T13:47:42Z</time>
      </trkpt>
      <trkpt lat="45.86588" lon="6.45805">
        <ele>1704.6</ele>
        <time>2024-04-27T13:47:43Z</time>
      </trkpt>
      <trkpt lat="45.86589" lon="6.45805">
        <ele>1704.6</ele>
        <time>2024-04-27T13:47:44Z</time>
      </trkpt>
      <trkpt lat="45.86589" lon="6.45805">
        <ele>1704.6</ele>
        <time>2024-04-27T13:47:45Z</time>
      </trkpt>
      <trkpt lat="45.86589" lon="6.45806">
        <ele>1704.6</ele>
        <time>2024-04-27T13:47:46Z</time>
      </trkpt>
      <trkpt lat="45.8659" lon="6.45806">
        <ele>1704.6</ele>
        <time>2024-04-27T13:47:47Z</time>
      </trkpt>
      <trkpt lat="45.8659" lon="6.45807">
        <ele>1704.6</ele>
        <time>2024-04-27T13:47:48Z</time>
      </trkpt>
      <trkpt lat="45.8659" lon="6.45808">
        <ele>1704.6</ele>
        <time>2024-04-27T13:47:49Z</time>
      </trkpt>
      <trkpt lat="45.8659" lon="6.45808">
        <ele>1704.6</ele>
        <time>2024-04-27T13:47:50Z</time>
      </trkpt>
      <trkpt lat="45.8659" lon="6.45808">
        <ele>1702.6</ele>
        <time>2024-04-27T13:47:51Z</time>
      </trkpt>
      <trkpt lat="45.8659" lon="6.45808">
        <ele>1702.6</ele>
        <time>2024-04-27T13:47:52Z</time>
      </trkpt>
      <trkpt lat="45.86591" lon="6.45808">
        <ele>1701.7</ele>
        <time>2024-04-27T13:47:53Z</time>
      </trkpt>
      <trkpt lat="45.86591" lon="6.45809">
        <ele>1701.7</ele>
        <time>2024-04-27T13:47:54Z</time>
      </trkpt>
      <trkpt lat="45.86591" lon="6.45811">
        <ele>1701.7</ele>
        <time>2024-04-27T13:47:55Z</time>
      </trkpt>
      <trkpt lat="45.86591" lon="6.45813">
        <ele>1701.7</ele>
        <time>2024-04-27T13:47:56Z</time>
      </trkpt>
      <trkpt lat="45.86591" lon="6.45816">
        <ele>1701.7</ele>
        <time>2024-04-27T13:47:57Z</time>
      </trkpt>
      <trkpt lat="45.86591" lon="6.45819">
        <ele>1701.7</ele>
        <time>2024-04-27T13:47:58Z</time>
      </trkpt>
      <trkpt lat="45.86592" lon="6.45822">
        <ele>1701.7</ele>
        <time>2024-04-27T13:47:59Z</time>
      </trkpt>
      <trkpt lat="45.86592" lon="6.45825">
        <ele>1701.7</ele>
        <time>2024-04-27T13:48:00Z</time>
      </trkpt>
      <trkpt lat="45.86593" lon="6.45827">
        <ele>1701.7</ele>
        <time>2024-04-27T13:48:01Z</time>
      </trkpt>
      <trkpt lat="45.86593" lon="6.45828">
        <ele>1701.7</ele>
        <time>2024-04-27T13:48:02Z</time>
      </trkpt>
      <trkpt lat="45.86594" lon="6.45828">
        <ele>1696.7</ele>
        <time>2024-04-27T13:48:03Z</time>
      </trkpt>
      <trkpt lat="45.86594" lon="6.45828">
        <ele>1696.7</ele>
        <time>2024-04-27T13:48:04Z</time>
      </trkpt>
      <trkpt lat="45.86594" lon="6.45828">
        <ele>1696.7</ele>
        <time>2024-04-27T13:48:05Z</time>
      </trkpt>
      <trkpt lat="45.86595" lon="6.45829">
        <ele>1696.7</ele>
        <time>2024-04-27T13:48:06Z</time>
      </trkpt>
      <trkpt lat="45.86595" lon="6.4583">
        <ele>1696.7</ele>
        <time>2024-04-27T13:48:07Z</time>
      </trkpt>
      <trkpt lat="45.86595" lon="6.45832">
        <ele>1696.7</ele>
        <time>2024-04-27T13:48:08Z</time>
      </trkpt>
      <trkpt lat="45.86596" lon="6.45834">
        <ele>1694.7</ele>
        <time>2024-04-27T13:48:09Z</time>
      </trkpt>
      <trkpt lat="45.86596" lon="6.45835">
        <ele>1694.7</ele>
        <time>2024-04-27T13:48:10Z</time>
      </trkpt>
      <trkpt lat="45.86596" lon="6.45835">
        <ele>1694.7</ele>
        <time>2024-04-27T13:48:11Z</time>
      </trkpt>
      <trkpt lat="45.86596" lon="6.45836">
        <ele>1694.7</ele>
        <time>2024-04-27T13:48:12Z</time>
      </trkpt>
      <trkpt lat="45.86596" lon="6.45836">
        <ele>1693.6</ele>
        <time>2024-04-27T13:48:13Z</time>
      </trkpt>
      <trkpt lat="45.86597" lon="6.45836">
        <ele>1693.6</ele>
        <time>2024-04-27T13:48:14Z</time>
      </trkpt>
      <trkpt lat="45.86597" lon="6.45836">
        <ele>1693.6</ele>
        <time>2024-04-27T13:48:15Z</time>
      </trkpt>
      <trkpt lat="45.86597" lon="6.45836">
        <ele>1693.6</ele>
        <time>2024-04-27T13:48:16Z</time>
      </trkpt>
      <trkpt lat="45.86596" lon="6.45836">
        <ele>1693.6</ele>
        <time>2024-04-27T13:48:17Z</time>
      </trkpt>
      <trkpt lat="45.86596" lon="6.45836">
        <ele>1693.6</ele>
        <time>2024-04-27T13:48:18Z</time>
      </trkpt>
      <trkpt lat="45.86596" lon="6.45836">
        <ele>1693.6</ele>
        <time>2024-04-27T13:48:19Z</time>
      </trkpt>
      <trkpt lat="45.86596" lon="6.45836">
        <ele>1693.6</ele>
        <time>2024-04-27T13:48:20Z</time>
      </trkpt>
      <trkpt lat="45.86596" lon="6.45837">
        <ele>1693.6</ele>
        <time>2024-04-27T13:48:21Z</time>
      </trkpt>
      <trkpt lat="45.86596" lon="6.45837">
        <ele>1693.6</ele>
        <time>2024-04-27T13:48:22Z</time>
      </trkpt>
      <trkpt lat="45.86596" lon="6.45837">
        <ele>1692.6</ele>
        <time>2024-04-27T13:48:23Z</time>
      </trkpt>
      <trkpt lat="45.86596" lon="6.45838">
        <ele>1692.6</ele>
        <time>2024-04-27T13:48:24Z</time>
      </trkpt>
      <trkpt lat="45.86596" lon="6.45838">
        <ele>1692.6</ele>
        <time>2024-04-27T13:48:25Z</time>
      </trkpt>
      <trkpt lat="45.86596" lon="6.45838">
        <ele>1692.6</ele>
        <time>2024-04-27T13:48:26Z</time>
      </trkpt>
      <trkpt lat="45.86596" lon="6.45838">
        <ele>1691.7</ele>
        <time>2024-04-27T13:48:27Z</time>
      </trkpt>
      <trkpt lat="45.86596" lon="6.45839">
        <ele>1691.7</ele>
        <time>2024-04-27T13:48:28Z</time>
      </trkpt>
      <trkpt lat="45.86596" lon="6.45839">
        <ele>1691.7</ele>
        <time>2024-04-27T13:48:29Z</time>
      </trkpt>
      <trkpt lat="45.86596" lon="6.45839">
        <ele>1691.7</ele>
        <time>2024-04-27T13:48:30Z</time>
      </trkpt>
      <trkpt lat="45.86596" lon="6.45839">
        <ele>1691.7</ele>
        <time>2024-04-27T13:48:31Z</time>
      </trkpt>
      <trkpt lat="45.86596" lon="6.45839">
        <ele>1691.7</ele>
        <time>2024-04-27T13:48:32Z</time>
      </trkpt>
      <trkpt lat="45.86596" lon="6.45839">
        <ele>1691.7</ele>
        <time>2024-04-27T13:48:33Z</time>
      </trkpt>
      <trkpt lat="45.86596" lon="6.45839">
        <ele>1691.7</ele>
        <time>2024-04-27T13:48:34Z</time>
      </trkpt>
      <trkpt lat="45.86596" lon="6.45839">
        <ele>1690.6</ele>
        <time>2024-04-27T13:48:35Z</time>
      </trkpt>
      <trkpt lat="45.86596" lon="6.45839">
        <ele>1690.6</ele>
        <time>2024-04-27T13:48:36Z</time>
      </trkpt>
      <trkpt lat="45.86596" lon="6.45839">
        <ele>1690.6</ele>
        <time>2024-04-27T13:48:37Z</time>
      </trkpt>
      <trkpt lat="45.86596" lon="6.45839">
        <ele>1690.6</ele>
        <time>2024-04-27T13:48:38Z</time>
      </trkpt>
      <trkpt lat="45.86596" lon="6.45839">
        <ele>1690.6</ele>
        <time>2024-04-27T13:48:39Z</time>
      </trkpt>
      <trkpt lat="45.86596" lon="6.45839">
        <ele>1690.6</ele>
        <time>2024-04-27T13:48:40Z</time>
      </trkpt>
      <trkpt lat="45.86596" lon="6.45839">
        <ele>1690.6</ele>
        <time>2024-04-27T13:48:41Z</time>
      </trkpt>
      <trkpt lat="45.86596" lon="6.45839">
        <ele>1690.6</ele>
        <time>2024-04-27T13:48:42Z</time>
      </trkpt>
      <trkpt lat="45.86596" lon="6.45839">
        <ele>1690.6</ele>
        <time>2024-04-27T13:48:43Z</time>
      </trkpt>
      <trkpt lat="45.86596" lon="6.45839">
        <ele>1690.6</ele>
        <time>2024-04-27T13:48:44Z</time>
      </trkpt>
      <trkpt lat="45.86596" lon="6.45839">
        <ele>1690.6</ele>
        <time>2024-04-27T13:48:45Z</time>
      </trkpt>
      <trkpt lat="45.86596" lon="6.45839">
        <ele>1690.6</ele>
        <time>2024-04-27T13:48:46Z</time>
      </trkpt>
      <trkpt lat="45.86596" lon="6.45839">
        <ele>1690.6</ele>
        <time>2024-04-27T13:48:47Z</time>
      </trkpt>
      <trkpt lat="45.86596" lon="6.45839">
        <ele>1690.6</ele>
        <time>2024-04-27T13:48:48Z</time>
      </trkpt>
      <trkpt lat="45.86597" lon="6.45839">
        <ele>1690.6</ele>
        <time>2024-04-27T13:48:49Z</time>
      </trkpt>
      <trkpt lat="45.86597" lon="6.45839">
        <ele>1690.6</ele>
        <time>2024-04-27T13:48:50Z</time>
      </trkpt>
      <trkpt lat="45.86597" lon="6.45839">
        <ele>1690.6</ele>
        <time>2024-04-27T13:48:51Z</time>
      </trkpt>
      <trkpt lat="45.86597" lon="6.45839">
        <ele>1690.6</ele>
        <time>2024-04-27T13:48:52Z</time>
      </trkpt>
      <trkpt lat="45.86598" lon="6.45843">
        <ele>1690.6</ele>
        <time>2024-04-27T13:48:53Z</time>
      </trkpt>
      <trkpt lat="45.86598" lon="6.45845">
        <ele>1690.6</ele>
        <time>2024-04-27T13:48:54Z</time>
      </trkpt>
      <trkpt lat="45.86599" lon="6.45848">
        <ele>1689.7</ele>
        <time>2024-04-27T13:48:55Z</time>
      </trkpt>
      <trkpt lat="45.86599" lon="6.45852">
        <ele>1689.7</ele>
        <time>2024-04-27T13:48:56Z</time>
      </trkpt>
      <trkpt lat="45.86599" lon="6.45855">
        <ele>1688.6</ele>
        <time>2024-04-27T13:48:57Z</time>
      </trkpt>
      <trkpt lat="45.866" lon="6.45859">
        <ele>1688.6</ele>
        <time>2024-04-27T13:48:58Z</time>
      </trkpt>
      <trkpt lat="45.866" lon="6.45862">
        <ele>1688.6</ele>
        <time>2024-04-27T13:48:59Z</time>
      </trkpt>
      <trkpt lat="45.866" lon="6.45865">
        <ele>1688.6</ele>
        <time>2024-04-27T13:49:00Z</time>
      </trkpt>
      <trkpt lat="45.866" lon="6.45869">
        <ele>1687.7</ele>
        <time>2024-04-27T13:49:01Z</time>
      </trkpt>
      <trkpt lat="45.86601" lon="6.45872">
        <ele>1687.7</ele>
        <time>2024-04-27T13:49:02Z</time>
      </trkpt>
      <trkpt lat="45.86601" lon="6.45877">
        <ele>1686.6</ele>
        <time>2024-04-27T13:49:03Z</time>
      </trkpt>
      <trkpt lat="45.86601" lon="6.45883">
        <ele>1686.6</ele>
        <time>2024-04-27T13:49:04Z</time>
      </trkpt>
      <trkpt lat="45.86601" lon="6.45888">
        <ele>1686.6</ele>
        <time>2024-04-27T13:49:05Z</time>
      </trkpt>
      <trkpt lat="45.866" lon="6.4589">
        <ele>1686.6</ele>
        <time>2024-04-27T13:49:06Z</time>
      </trkpt>
      <trkpt lat="45.866" lon="6.45891">
        <ele>1686.6</ele>
        <time>2024-04-27T13:49:07Z</time>
      </trkpt>
      <trkpt lat="45.866" lon="6.45892">
        <ele>1686.6</ele>
        <time>2024-04-27T13:49:08Z</time>
      </trkpt>
      <trkpt lat="45.866" lon="6.45893">
        <ele>1682.7</ele>
        <time>2024-04-27T13:49:09Z</time>
      </trkpt>
      <trkpt lat="45.866" lon="6.45895">
        <ele>1682.7</ele>
        <time>2024-04-27T13:49:10Z</time>
      </trkpt>
      <trkpt lat="45.866" lon="6.45896">
        <ele>1681.6</ele>
        <time>2024-04-27T13:49:11Z</time>
      </trkpt>
      <trkpt lat="45.866" lon="6.45896">
        <ele>1681.6</ele>
        <time>2024-04-27T13:49:12Z</time>
      </trkpt>
      <trkpt lat="45.866" lon="6.45896">
        <ele>1681.6</ele>
        <time>2024-04-27T13:49:13Z</time>
      </trkpt>
      <trkpt lat="45.866" lon="6.45897">
        <ele>1681.6</ele>
        <time>2024-04-27T13:49:14Z</time>
      </trkpt>
      <trkpt lat="45.866" lon="6.45899">
        <ele>1680.7</ele>
        <time>2024-04-27T13:49:15Z</time>
      </trkpt>
      <trkpt lat="45.866" lon="6.45902">
        <ele>1680.7</ele>
        <time>2024-04-27T13:49:16Z</time>
      </trkpt>
      <trkpt lat="45.86599" lon="6.45904">
        <ele>1680.7</ele>
        <time>2024-04-27T13:49:17Z</time>
      </trkpt>
      <trkpt lat="45.86598" lon="6.45906">
        <ele>1680.7</ele>
        <time>2024-04-27T13:49:18Z</time>
      </trkpt>
      <trkpt lat="45.86598" lon="6.45907">
        <ele>1680.7</ele>
        <time>2024-04-27T13:49:19Z</time>
      </trkpt>
      <trkpt lat="45.86597" lon="6.45909">
        <ele>1680.7</ele>
        <time>2024-04-27T13:49:20Z</time>
      </trkpt>
      <trkpt lat="45.86597" lon="6.45911">
        <ele>1679.6</ele>
        <time>2024-04-27T13:49:21Z</time>
      </trkpt>
      <trkpt lat="45.86597" lon="6.45915">
        <ele>1679.6</ele>
        <time>2024-04-27T13:49:22Z</time>
      </trkpt>
      <trkpt lat="45.86598" lon="6.45919">
        <ele>1678.7</ele>
        <time>2024-04-27T13:49:23Z</time>
      </trkpt>
      <trkpt lat="45.86598" lon="6.45923">
        <ele>1678.7</ele>
        <time>2024-04-27T13:49:24Z</time>
      </trkpt>
      <trkpt lat="45.86599" lon="6.45927">
        <ele>1677.6</ele>
        <time>2024-04-27T13:49:25Z</time>
      </trkpt>
      <trkpt lat="45.866" lon="6.45929">
        <ele>1677.6</ele>
        <time>2024-04-27T13:49:26Z</time>
      </trkpt>
      <trkpt lat="45.866" lon="6.4593">
        <ele>1677.6</ele>
        <time>2024-04-27T13:49:27Z</time>
      </trkpt>
      <trkpt lat="45.866" lon="6.45931">
        <ele>1677.6</ele>
        <time>2024-04-27T13:49:28Z</time>
      </trkpt>
      <trkpt lat="45.866" lon="6.45931">
        <ele>1677.6</ele>
        <time>2024-04-27T13:49:29Z</time>
      </trkpt>
      <trkpt lat="45.86601" lon="6.45931">
        <ele>1677.6</ele>
        <time>2024-04-27T13:49:30Z</time>
      </trkpt>
      <trkpt lat="45.86601" lon="6.45931">
        <ele>1675.7</ele>
        <time>2024-04-27T13:49:31Z</time>
      </trkpt>
      <trkpt lat="45.86602" lon="6.4593">
        <ele>1675.7</ele>
        <time>2024-04-27T13:49:32Z</time>
      </trkpt>
      <trkpt lat="45.86603" lon="6.45927">
        <ele>1673.7</ele>
        <time>2024-04-27T13:49:33Z</time>
      </trkpt>
      <trkpt lat="45.86604" lon="6.45924">
        <ele>1673.7</ele>
        <time>2024-04-27T13:49:34Z</time>
      </trkpt>
      <trkpt lat="45.86605" lon="6.45921">
        <ele>1672.6</ele>
        <time>2024-04-27T13:49:35Z</time>
      </trkpt>
      <trkpt lat="45.86605" lon="6.45919">
        <ele>1672.6</ele>
        <time>2024-04-27T13:49:36Z</time>
      </trkpt>
      <trkpt lat="45.86605" lon="6.45918">
        <ele>1672.6</ele>
        <time>2024-04-27T13:49:37Z</time>
      </trkpt>
      <trkpt lat="45.86605" lon="6.45917">
        <ele>1672.6</ele>
        <time>2024-04-27T13:49:38Z</time>
      </trkpt>
      <trkpt lat="45.86607" lon="6.45918">
        <ele>1671.7</ele>
        <time>2024-04-27T13:49:39Z</time>
      </trkpt>
      <trkpt lat="45.86609" lon="6.45919">
        <ele>1671.7</ele>
        <time>2024-04-27T13:49:40Z</time>
      </trkpt>
      <trkpt lat="45.8661" lon="6.4592">
        <ele>1670.6</ele>
        <time>2024-04-27T13:49:41Z</time>
      </trkpt>
      <trkpt lat="45.86609" lon="6.45921">
        <ele>1670.6</ele>
        <time>2024-04-27T13:49:42Z</time>
      </trkpt>
      <trkpt lat="45.86609" lon="6.45921">
        <ele>1669.7</ele>
        <time>2024-04-27T13:49:43Z</time>
      </trkpt>
      <trkpt lat="45.86609" lon="6.45921">
        <ele>1669.7</ele>
        <time>2024-04-27T13:49:44Z</time>
      </trkpt>
      <trkpt lat="45.86609" lon="6.45921">
        <ele>1669.7</ele>
        <time>2024-04-27T13:49:45Z</time>
      </trkpt>
      <trkpt lat="45.8661" lon="6.45921">
        <ele>1669.7</ele>
        <time>2024-04-27T13:49:46Z</time>
      </trkpt>
      <trkpt lat="45.8661" lon="6.45921">
        <ele>1669.7</ele>
        <time>2024-04-27T13:49:47Z</time>
      </trkpt>
      <trkpt lat="45.86611" lon="6.4592">
        <ele>1669.7</ele>
        <time>2024-04-27T13:49:48Z</time>
      </trkpt>
      <trkpt lat="45.86612" lon="6.45919">
        <ele>1668.6</ele>
        <time>2024-04-27T13:49:49Z</time>
      </trkpt>
      <trkpt lat="45.86612" lon="6.45918">
        <ele>1668.6</ele>
        <time>2024-04-27T13:49:50Z</time>
      </trkpt>
      <trkpt lat="45.86612" lon="6.45918">
        <ele>1668.6</ele>
        <time>2024-04-27T13:49:51Z</time>
      </trkpt>
      <trkpt lat="45.86612" lon="6.45918">
        <ele>1668.6</ele>
        <time>2024-04-27T13:49:52Z</time>
      </trkpt>
      <trkpt lat="45.86612" lon="6.45918">
        <ele>1667.6</ele>
        <time>2024-04-27T13:49:53Z</time>
      </trkpt>
      <trkpt lat="45.86613" lon="6.45918">
        <ele>1667.6</ele>
        <time>2024-04-27T13:49:54Z</time>
      </trkpt>
      <trkpt lat="45.86613" lon="6.45918">
        <ele>1667.6</ele>
        <time>2024-04-27T13:49:55Z</time>
      </trkpt>
      <trkpt lat="45.86613" lon="6.45919">
        <ele>1667.6</ele>
        <time>2024-04-27T13:49:56Z</time>
      </trkpt>
      <trkpt lat="45.86613" lon="6.45919">
        <ele>1667.6</ele>
        <time>2024-04-27T13:49:57Z</time>
      </trkpt>
      <trkpt lat="45.86613" lon="6.45919">
        <ele>1667.6</ele>
        <time>2024-04-27T13:49:58Z</time>
      </trkpt>
      <trkpt lat="45.86613" lon="6.45919">
        <ele>1667.6</ele>
        <time>2024-04-27T13:49:59Z</time>
      </trkpt>
      <trkpt lat="45.86614" lon="6.4592">
        <ele>1667.6</ele>
        <time>2024-04-27T13:50:00Z</time>
      </trkpt>
      <trkpt lat="45.86615" lon="6.45921">
        <ele>1667.6</ele>
        <time>2024-04-27T13:50:01Z</time>
      </trkpt>
      <trkpt lat="45.86615" lon="6.45922">
        <ele>1667.6</ele>
        <time>2024-04-27T13:50:02Z</time>
      </trkpt>
      <trkpt lat="45.86615" lon="6.45923">
        <ele>1666.7</ele>
        <time>2024-04-27T13:50:03Z</time>
      </trkpt>
      <trkpt lat="45.86616" lon="6.45922">
        <ele>1666.7</ele>
        <time>2024-04-27T13:50:04Z</time>
      </trkpt>
      <trkpt lat="45.86616" lon="6.45921">
        <ele>1666.7</ele>
        <time>2024-04-27T13:50:05Z</time>
      </trkpt>
      <trkpt lat="45.86616" lon="6.45921">
        <ele>1666.7</ele>
        <time>2024-04-27T13:50:06Z</time>
      </trkpt>
      <trkpt lat="45.86615" lon="6.4592">
        <ele>1665.6</ele>
        <time>2024-04-27T13:50:07Z</time>
      </trkpt>
      <trkpt lat="45.86616" lon="6.4592">
        <ele>1665.6</ele>
        <time>2024-04-27T13:50:08Z</time>
      </trkpt>
      <trkpt lat="45.86616" lon="6.4592">
        <ele>1665.6</ele>
        <time>2024-04-27T13:50:09Z</time>
      </trkpt>
      <trkpt lat="45.86617" lon="6.4592">
        <ele>1665.6</ele>
        <time>2024-04-27T13:50:10Z</time>
      </trkpt>
      <trkpt lat="45.86618" lon="6.45922">
        <ele>1665.6</ele>
        <time>2024-04-27T13:50:11Z</time>
      </trkpt>
      <trkpt lat="45.86619" lon="6.45924">
        <ele>1665.6</ele>
        <time>2024-04-27T13:50:12Z</time>
      </trkpt>
      <trkpt lat="45.8662" lon="6.45924">
        <ele>1665.6</ele>
        <time>2024-04-27T13:50:13Z</time>
      </trkpt>
      <trkpt lat="45.8662" lon="6.45924">
        <ele>1665.6</ele>
        <time>2024-04-27T13:50:14Z</time>
      </trkpt>
      <trkpt lat="45.8662" lon="6.45924">
        <ele>1665.6</ele>
        <time>2024-04-27T13:50:15Z</time>
      </trkpt>
      <trkpt lat="45.86621" lon="6.45924">
        <ele>1665.6</ele>
        <time>2024-04-27T13:50:16Z</time>
      </trkpt>
      <trkpt lat="45.86621" lon="6.45924">
        <ele>1661.6</ele>
        <time>2024-04-27T13:50:17Z</time>
      </trkpt>
      <trkpt lat="45.86621" lon="6.45924">
        <ele>1661.6</ele>
        <time>2024-04-27T13:50:18Z</time>
      </trkpt>
      <trkpt lat="45.86621" lon="6.45923">
        <ele>1661.6</ele>
        <time>2024-04-27T13:50:19Z</time>
      </trkpt>
      <trkpt lat="45.86621" lon="6.45922">
        <ele>1661.6</ele>
        <time>2024-04-27T13:50:20Z</time>
      </trkpt>
      <trkpt lat="45.86622" lon="6.45921">
        <ele>1660.6</ele>
        <time>2024-04-27T13:50:21Z</time>
      </trkpt>
      <trkpt lat="45.86622" lon="6.45921">
        <ele>1660.6</ele>
        <time>2024-04-27T13:50:22Z</time>
      </trkpt>
      <trkpt lat="45.86622" lon="6.4592">
        <ele>1660.6</ele>
        <time>2024-04-27T13:50:23Z</time>
      </trkpt>
      <trkpt lat="45.86622" lon="6.4592">
        <ele>1660.6</ele>
        <time>2024-04-27T13:50:24Z</time>
      </trkpt>
      <trkpt lat="45.86622" lon="6.4592">
        <ele>1660.6</ele>
        <time>2024-04-27T13:50:25Z</time>
      </trkpt>
      <trkpt lat="45.86622" lon="6.4592">
        <ele>1660.6</ele>
        <time>2024-04-27T13:50:26Z</time>
      </trkpt>
      <trkpt lat="45.86622" lon="6.4592">
        <ele>1660.6</ele>
        <time>2024-04-27T13:50:27Z</time>
      </trkpt>
      <trkpt lat="45.86622" lon="6.4592">
        <ele>1660.6</ele>
        <time>2024-04-27T13:50:28Z</time>
      </trkpt>
      <trkpt lat="45.86622" lon="6.4592">
        <ele>1660.6</ele>
        <time>2024-04-27T13:50:29Z</time>
      </trkpt>
      <trkpt lat="45.86622" lon="6.4592">
        <ele>1660.6</ele>
        <time>2024-04-27T13:50:30Z</time>
      </trkpt>
      <trkpt lat="45.86622" lon="6.4592">
        <ele>1660.6</ele>
        <time>2024-04-27T13:50:31Z</time>
      </trkpt>
      <trkpt lat="45.86622" lon="6.4592">
        <ele>1660.6</ele>
        <time>2024-04-27T13:50:32Z</time>
      </trkpt>
      <trkpt lat="45.86622" lon="6.45917">
        <ele>1660.6</ele>
        <time>2024-04-27T13:50:33Z</time>
      </trkpt>
      <trkpt lat="45.86622" lon="6.45916">
        <ele>1660.6</ele>
        <time>2024-04-27T13:50:34Z</time>
      </trkpt>
      <trkpt lat="45.86622" lon="6.45915">
        <ele>1659.7</ele>
        <time>2024-04-27T13:50:35Z</time>
      </trkpt>
      <trkpt lat="45.86622" lon="6.45914">
        <ele>1659.7</ele>
        <time>2024-04-27T13:50:36Z</time>
      </trkpt>
      <trkpt lat="45.86623" lon="6.45914">
        <ele>1659.7</ele>
        <time>2024-04-27T13:50:37Z</time>
      </trkpt>
      <trkpt lat="45.86623" lon="6.45913">
        <ele>1659.7</ele>
        <time>2024-04-27T13:50:38Z</time>
      </trkpt>
      <trkpt lat="45.86623" lon="6.45912">
        <ele>1659.7</ele>
        <time>2024-04-27T13:50:39Z</time>
      </trkpt>
      <trkpt lat="45.86623" lon="6.4591">
        <ele>1659.7</ele>
        <time>2024-04-27T13:50:40Z</time>
      </trkpt>
      <trkpt lat="45.86624" lon="6.45908">
        <ele>1658.6</ele>
        <time>2024-04-27T13:50:41Z</time>
      </trkpt>
      <trkpt lat="45.86624" lon="6.45907">
        <ele>1658.6</ele>
        <time>2024-04-27T13:50:42Z</time>
      </trkpt>
      <trkpt lat="45.86624" lon="6.45907">
        <ele>1658.6</ele>
        <time>2024-04-27T13:50:43Z</time>
      </trkpt>
      <trkpt lat="45.86624" lon="6.45908">
        <ele>1658.6</ele>
        <time>2024-04-27T13:50:44Z</time>
      </trkpt>
      <trkpt lat="45.86624" lon="6.45908">
        <ele>1658.6</ele>
        <time>2024-04-27T13:50:45Z</time>
      </trkpt>
      <trkpt lat="45.86624" lon="6.45907">
        <ele>1658.6</ele>
        <time>2024-04-27T13:50:46Z</time>
      </trkpt>
      <trkpt lat="45.86625" lon="6.45906">
        <ele>1657.7</ele>
        <time>2024-04-27T13:50:47Z</time>
      </trkpt>
      <trkpt lat="45.86626" lon="6.45904">
        <ele>1657.7</ele>
        <time>2024-04-27T13:50:48Z</time>
      </trkpt>
      <trkpt lat="45.86628" lon="6.45901">
        <ele>1656.6</ele>
        <time>2024-04-27T13:50:49Z</time>
      </trkpt>
      <trkpt lat="45.86629" lon="6.45898">
        <ele>1656.6</ele>
        <time>2024-04-27T13:50:50Z</time>
      </trkpt>
      <trkpt lat="45.8663" lon="6.45895">
        <ele>1655.7</ele>
        <time>2024-04-27T13:50:51Z</time>
      </trkpt>
      <trkpt lat="45.86631" lon="6.45894">
        <ele>1655.7</ele>
        <time>2024-04-27T13:50:52Z</time>
      </trkpt>
      <trkpt lat="45.86631" lon="6.45893">
        <ele>1654.6</ele>
        <time>2024-04-27T13:50:53Z</time>
      </trkpt>
      <trkpt lat="45.86631" lon="6.45893">
        <ele>1654.6</ele>
        <time>2024-04-27T13:50:54Z</time>
      </trkpt>
      <trkpt lat="45.86631" lon="6.45893">
        <ele>1653.7</ele>
        <time>2024-04-27T13:50:55Z</time>
      </trkpt>
      <trkpt lat="45.86631" lon="6.45893">
        <ele>1653.7</ele>
        <time>2024-04-27T13:50:56Z</time>
      </trkpt>
      <trkpt lat="45.86631" lon="6.45893">
        <ele>1653.7</ele>
        <time>2024-04-27T13:50:57Z</time>
      </trkpt>
      <trkpt lat="45.86632" lon="6.45892">
        <ele>1653.7</ele>
        <time>2024-04-27T13:50:58Z</time>
      </trkpt>
      <trkpt lat="45.86633" lon="6.45892">
        <ele>1653.7</ele>
        <time>2024-04-27T13:50:59Z</time>
      </trkpt>
      <trkpt lat="45.86633" lon="6.45892">
        <ele>1653.7</ele>
        <time>2024-04-27T13:51:00Z</time>
      </trkpt>
      <trkpt lat="45.86634" lon="6.45891">
        <ele>1652.6</ele>
        <time>2024-04-27T13:51:01Z</time>
      </trkpt>
      <trkpt lat="45.86635" lon="6.45891">
        <ele>1652.6</ele>
        <time>2024-04-27T13:51:02Z</time>
      </trkpt>
      <trkpt lat="45.86637" lon="6.45892">
        <ele>1652.6</ele>
        <time>2024-04-27T13:51:03Z</time>
      </trkpt>
      <trkpt lat="45.86637" lon="6.45893">
        <ele>1652.6</ele>
        <time>2024-04-27T13:51:04Z</time>
      </trkpt>
      <trkpt lat="45.86638" lon="6.45893">
        <ele>1652.6</ele>
        <time>2024-04-27T13:51:05Z</time>
      </trkpt>
      <trkpt lat="45.86639" lon="6.45891">
        <ele>1652.6</ele>
        <time>2024-04-27T13:51:06Z</time>
      </trkpt>
      <trkpt lat="45.8664" lon="6.45888">
        <ele>1648.7</ele>
        <time>2024-04-27T13:51:07Z</time>
      </trkpt>
      <trkpt lat="45.8664" lon="6.45885">
        <ele>1648.7</ele>
        <time>2024-04-27T13:51:08Z</time>
      </trkpt>
      <trkpt lat="45.86641" lon="6.45883">
        <ele>1647.6</ele>
        <time>2024-04-27T13:51:09Z</time>
      </trkpt>
      <trkpt lat="45.86641" lon="6.45881">
        <ele>1647.6</ele>
        <time>2024-04-27T13:51:10Z</time>
      </trkpt>
      <trkpt lat="45.86641" lon="6.4588">
        <ele>1646.7</ele>
        <time>2024-04-27T13:51:11Z</time>
      </trkpt>
      <trkpt lat="45.86641" lon="6.45879">
        <ele>1646.7</ele>
        <time>2024-04-27T13:51:12Z</time>
      </trkpt>
      <trkpt lat="45.86641" lon="6.45879">
        <ele>1646.7</ele>
        <time>2024-04-27T13:51:13Z</time>
      </trkpt>
      <trkpt lat="45.86641" lon="6.45879">
        <ele>1646.7</ele>
        <time>2024-04-27T13:51:14Z</time>
      </trkpt>
      <trkpt lat="45.86641" lon="6.45879">
        <ele>1646.7</ele>
        <time>2024-04-27T13:51:15Z</time>
      </trkpt>
      <trkpt lat="45.86641" lon="6.45879">
        <ele>1646.7</ele>
        <time>2024-04-27T13:51:16Z</time>
      </trkpt>
      <trkpt lat="45.86641" lon="6.45878">
        <ele>1646.7</ele>
        <time>2024-04-27T13:51:17Z</time>
      </trkpt>
      <trkpt lat="45.86642" lon="6.45876">
        <ele>1646.7</ele>
        <time>2024-04-27T13:51:18Z</time>
      </trkpt>
      <trkpt lat="45.86643" lon="6.45874">
        <ele>1646.7</ele>
        <time>2024-04-27T13:51:19Z</time>
      </trkpt>
      <trkpt lat="45.86644" lon="6.45873">
        <ele>1646.7</ele>
        <time>2024-04-27T13:51:20Z</time>
      </trkpt>
      <trkpt lat="45.86646" lon="6.45874">
        <ele>1646.7</ele>
        <time>2024-04-27T13:51:21Z</time>
      </trkpt>
      <trkpt lat="45.86649" lon="6.45877">
        <ele>1646.7</ele>
        <time>2024-04-27T13:51:22Z</time>
      </trkpt>
      <trkpt lat="45.86651" lon="6.4588">
        <ele>1641.7</ele>
        <time>2024-04-27T13:51:23Z</time>
      </trkpt>
      <trkpt lat="45.86653" lon="6.45882">
        <ele>1641.7</ele>
        <time>2024-04-27T13:51:24Z</time>
      </trkpt>
      <trkpt lat="45.86655" lon="6.45883">
        <ele>1640.6</ele>
        <time>2024-04-27T13:51:25Z</time>
      </trkpt>
      <trkpt lat="45.86656" lon="6.45882">
        <ele>1640.6</ele>
        <time>2024-04-27T13:51:26Z</time>
      </trkpt>
      <trkpt lat="45.86657" lon="6.45881">
        <ele>1638.6</ele>
        <time>2024-04-27T13:51:27Z</time>
      </trkpt>
      <trkpt lat="45.86657" lon="6.4588">
        <ele>1638.6</ele>
        <time>2024-04-27T13:51:28Z</time>
      </trkpt>
      <trkpt lat="45.86657" lon="6.4588">
        <ele>1637.7</ele>
        <time>2024-04-27T13:51:29Z</time>
      </trkpt>
      <trkpt lat="45.86657" lon="6.4588">
        <ele>1637.7</ele>
        <time>2024-04-27T13:51:30Z</time>
      </trkpt>
      <trkpt lat="45.86657" lon="6.45879">
        <ele>1636.6</ele>
        <time>2024-04-27T13:51:31Z</time>
      </trkpt>
      <trkpt lat="45.86657" lon="6.45879">
        <ele>1636.6</ele>
        <time>2024-04-27T13:51:32Z</time>
      </trkpt>
      <trkpt lat="45.86657" lon="6.45878">
        <ele>1636.6</ele>
        <time>2024-04-27T13:51:33Z</time>
      </trkpt>
      <trkpt lat="45.86658" lon="6.45874">
        <ele>1636.6</ele>
        <time>2024-04-27T13:51:34Z</time>
      </trkpt>
      <trkpt lat="45.86658" lon="6.45871">
        <ele>1634.7</ele>
        <time>2024-04-27T13:51:35Z</time>
      </trkpt>
      <trkpt lat="45.86659" lon="6.45868">
        <ele>1634.7</ele>
        <time>2024-04-27T13:51:36Z</time>
      </trkpt>
      <trkpt lat="45.86661" lon="6.45868">
        <ele>1633.6</ele>
        <time>2024-04-27T13:51:37Z</time>
      </trkpt>
      <trkpt lat="45.86663" lon="6.45869">
        <ele>1633.6</ele>
        <time>2024-04-27T13:51:38Z</time>
      </trkpt>
      <trkpt lat="45.86665" lon="6.4587">
        <ele>1631.6</ele>
        <time>2024-04-27T13:51:39Z</time>
      </trkpt>
      <trkpt lat="45.86666" lon="6.45869">
        <ele>1631.6</ele>
        <time>2024-04-27T13:51:40Z</time>
      </trkpt>
      <trkpt lat="45.86667" lon="6.45868">
        <ele>1629.6</ele>
        <time>2024-04-27T13:51:41Z</time>
      </trkpt>
      <trkpt lat="45.86668" lon="6.45867">
        <ele>1629.6</ele>
        <time>2024-04-27T13:51:42Z</time>
      </trkpt>
      <trkpt lat="45.86669" lon="6.45867">
        <ele>1628.7</ele>
        <time>2024-04-27T13:51:43Z</time>
      </trkpt>
      <trkpt lat="45.86671" lon="6.45867">
        <ele>1628.7</ele>
        <time>2024-04-27T13:51:44Z</time>
      </trkpt>
      <trkpt lat="45.86672" lon="6.45867">
        <ele>1626.6</ele>
        <time>2024-04-27T13:51:45Z</time>
      </trkpt>
      <trkpt lat="45.86673" lon="6.45867">
        <ele>1626.6</ele>
        <time>2024-04-27T13:51:46Z</time>
      </trkpt>
      <trkpt lat="45.86675" lon="6.45866">
        <ele>1624.6</ele>
        <time>2024-04-27T13:51:47Z</time>
      </trkpt>
      <trkpt lat="45.86676" lon="6.45865">
        <ele>1624.6</ele>
        <time>2024-04-27T13:51:48Z</time>
      </trkpt>
      <trkpt lat="45.86679" lon="6.45866">
        <ele>1622.6</ele>
        <time>2024-04-27T13:51:49Z</time>
      </trkpt>
      <trkpt lat="45.86681" lon="6.45869">
        <ele>1622.6</ele>
        <time>2024-04-27T13:51:50Z</time>
      </trkpt>
      <trkpt lat="45.86682" lon="6.45871">
        <ele>1619.6</ele>
        <time>2024-04-27T13:51:51Z</time>
      </trkpt>
      <trkpt lat="45.86684" lon="6.45873">
        <ele>1619.6</ele>
        <time>2024-04-27T13:51:52Z</time>
      </trkpt>
      <trkpt lat="45.86685" lon="6.45872">
        <ele>1618.7</ele>
        <time>2024-04-27T13:51:53Z</time>
      </trkpt>
      <trkpt lat="45.86685" lon="6.4587">
        <ele>1618.7</ele>
        <time>2024-04-27T13:51:54Z</time>
      </trkpt>
      <trkpt lat="45.86687" lon="6.45868">
        <ele>1616.7</ele>
        <time>2024-04-27T13:51:55Z</time>
      </trkpt>
      <trkpt lat="45.86688" lon="6.45866">
        <ele>1616.7</ele>
        <time>2024-04-27T13:51:56Z</time>
      </trkpt>
      <trkpt lat="45.8669" lon="6.45867">
        <ele>1614.7</ele>
        <time>2024-04-27T13:51:57Z</time>
      </trkpt>
      <trkpt lat="45.86692" lon="6.45868">
        <ele>1614.7</ele>
        <time>2024-04-27T13:51:58Z</time>
      </trkpt>
      <trkpt lat="45.86693" lon="6.45868">
        <ele>1611.7</ele>
        <time>2024-04-27T13:51:59Z</time>
      </trkpt>
      <trkpt lat="45.86694" lon="6.45868">
        <ele>1611.7</ele>
        <time>2024-04-27T13:52:00Z</time>
      </trkpt>
      <trkpt lat="45.86694" lon="6.45869">
        <ele>1610.6</ele>
        <time>2024-04-27T13:52:01Z</time>
      </trkpt>
      <trkpt lat="45.86694" lon="6.45868">
        <ele>1610.6</ele>
        <time>2024-04-27T13:52:02Z</time>
      </trkpt>
      <trkpt lat="45.86695" lon="6.45868">
        <ele>1610.6</ele>
        <time>2024-04-27T13:52:03Z</time>
      </trkpt>
      <trkpt lat="45.86695" lon="6.45868">
        <ele>1610.6</ele>
        <time>2024-04-27T13:52:04Z</time>
      </trkpt>
      <trkpt lat="45.86697" lon="6.45868">
        <ele>1609.7</ele>
        <time>2024-04-27T13:52:05Z</time>
      </trkpt>
      <trkpt lat="45.86699" lon="6.45869">
        <ele>1609.7</ele>
        <time>2024-04-27T13:52:06Z</time>
      </trkpt>
      <trkpt lat="45.86702" lon="6.45871">
        <ele>1609.7</ele>
        <time>2024-04-27T13:52:07Z</time>
      </trkpt>
      <trkpt lat="45.86704" lon="6.45873">
        <ele>1609.7</ele>
        <time>2024-04-27T13:52:08Z</time>
      </trkpt>
      <trkpt lat="45.86707" lon="6.45875">
        <ele>1609.7</ele>
        <time>2024-04-27T13:52:09Z</time>
      </trkpt>
      <trkpt lat="45.86708" lon="6.45876">
        <ele>1609.7</ele>
        <time>2024-04-27T13:52:10Z</time>
      </trkpt>
      <trkpt lat="45.86709" lon="6.45876">
        <ele>1604.6</ele>
        <time>2024-04-27T13:52:11Z</time>
      </trkpt>
      <trkpt lat="45.86709" lon="6.45876">
        <ele>1604.6</ele>
        <time>2024-04-27T13:52:12Z</time>
      </trkpt>
      <trkpt lat="45.86709" lon="6.45875">
        <ele>1604.6</ele>
        <time>2024-04-27T13:52:13Z</time>
      </trkpt>
      <trkpt lat="45.8671" lon="6.45875">
        <ele>1604.6</ele>
        <time>2024-04-27T13:52:14Z</time>
      </trkpt>
      <trkpt lat="45.86711" lon="6.45876">
        <ele>1603.6</ele>
        <time>2024-04-27T13:52:15Z</time>
      </trkpt>
      <trkpt lat="45.86713" lon="6.45878">
        <ele>1603.6</ele>
        <time>2024-04-27T13:52:16Z</time>
      </trkpt>
      <trkpt lat="45.86714" lon="6.45879">
        <ele>1603.6</ele>
        <time>2024-04-27T13:52:17Z</time>
      </trkpt>
      <trkpt lat="45.86716" lon="6.4588">
        <ele>1603.6</ele>
        <time>2024-04-27T13:52:18Z</time>
      </trkpt>
      <trkpt lat="45.86717" lon="6.45881">
        <ele>1603.6</ele>
        <time>2024-04-27T13:52:19Z</time>
      </trkpt>
      <trkpt lat="45.86719" lon="6.45883">
        <ele>1603.6</ele>
        <time>2024-04-27T13:52:20Z</time>
      </trkpt>
      <trkpt lat="45.8672" lon="6.45884">
        <ele>1603.6</ele>
        <time>2024-04-27T13:52:21Z</time>
      </trkpt>
      <trkpt lat="45.86722" lon="6.45885">
        <ele>1603.6</ele>
        <time>2024-04-27T13:52:22Z</time>
      </trkpt>
      <trkpt lat="45.86723" lon="6.45886">
        <ele>1603.6</ele>
        <time>2024-04-27T13:52:23Z</time>
      </trkpt>
      <trkpt lat="45.86725" lon="6.45888">
        <ele>1603.6</ele>
        <time>2024-04-27T13:52:24Z</time>
      </trkpt>
      <trkpt lat="45.86726" lon="6.45889">
        <ele>1602.7</ele>
        <time>2024-04-27T13:52:25Z</time>
      </trkpt>
      <trkpt lat="45.86728" lon="6.4589">
        <ele>1602.7</ele>
        <time>2024-04-27T13:52:26Z</time>
      </trkpt>
      <trkpt lat="45.86729" lon="6.45892">
        <ele>1602.7</ele>
        <time>2024-04-27T13:52:27Z</time>
      </trkpt>
      <trkpt lat="45.86731" lon="6.45893">
        <ele>1602.7</ele>
        <time>2024-04-27T13:52:28Z</time>
      </trkpt>
      <trkpt lat="45.86733" lon="6.45894">
        <ele>1602.7</ele>
        <time>2024-04-27T13:52:29Z</time>
      </trkpt>
      <trkpt lat="45.86735" lon="6.45899">
        <ele>1602.7</ele>
        <time>2024-04-27T13:52:30Z</time>
      </trkpt>
      <trkpt lat="45.86737" lon="6.45904">
        <ele>1594.6</ele>
        <time>2024-04-27T13:52:31Z</time>
      </trkpt>
      <trkpt lat="45.86738" lon="6.45908">
        <ele>1594.6</ele>
        <time>2024-04-27T13:52:32Z</time>
      </trkpt>
      <trkpt lat="45.8674" lon="6.45911">
        <ele>1592.6</ele>
        <time>2024-04-27T13:52:33Z</time>
      </trkpt>
      <trkpt lat="45.86742" lon="6.45911">
        <ele>1592.6</ele>
        <time>2024-04-27T13:52:34Z</time>
      </trkpt>
      <trkpt lat="45.86745" lon="6.45908">
        <ele>1590.6</ele>
        <time>2024-04-27T13:52:35Z</time>
      </trkpt>
      <trkpt lat="45.86747" lon="6.45904">
        <ele>1590.6</ele>
        <time>2024-04-27T13:52:36Z</time>
      </trkpt>
      <trkpt lat="45.86749" lon="6.45902">
        <ele>1588.6</ele>
        <time>2024-04-27T13:52:37Z</time>
      </trkpt>
      <trkpt lat="45.86751" lon="6.45902">
        <ele>1588.6</ele>
        <time>2024-04-27T13:52:38Z</time>
      </trkpt>
      <trkpt lat="45.86752" lon="6.45904">
        <ele>1586.7</ele>
        <time>2024-04-27T13:52:39Z</time>
      </trkpt>
      <trkpt lat="45.86754" lon="6.45904">
        <ele>1586.7</ele>
        <time>2024-04-27T13:52:40Z</time>
      </trkpt>
      <trkpt lat="45.86756" lon="6.45903">
        <ele>1584.7</ele>
        <time>2024-04-27T13:52:41Z</time>
      </trkpt>
      <trkpt lat="45.86756" lon="6.45901">
        <ele>1584.7</ele>
        <time>2024-04-27T13:52:42Z</time>
      </trkpt>
      <trkpt lat="45.86757" lon="6.459">
        <ele>1582.7</ele>
        <time>2024-04-27T13:52:43Z</time>
      </trkpt>
      <trkpt lat="45.86758" lon="6.45899">
        <ele>1582.7</ele>
        <time>2024-04-27T13:52:44Z</time>
      </trkpt>
      <trkpt lat="45.86758" lon="6.45899">
        <ele>1581.6</ele>
        <time>2024-04-27T13:52:45Z</time>
      </trkpt>
      <trkpt lat="45.86758" lon="6.45898">
        <ele>1581.6</ele>
        <time>2024-04-27T13:52:46Z</time>
      </trkpt>
      <trkpt lat="45.86759" lon="6.45898">
        <ele>1580.7</ele>
        <time>2024-04-27T13:52:47Z</time>
      </trkpt>
      <trkpt lat="45.86759" lon="6.45897">
        <ele>1580.7</ele>
        <time>2024-04-27T13:52:48Z</time>
      </trkpt>
      <trkpt lat="45.86761" lon="6.45898">
        <ele>1579.6</ele>
        <time>2024-04-27T13:52:49Z</time>
      </trkpt>
      <trkpt lat="45.86762" lon="6.45901">
        <ele>1579.6</ele>
        <time>2024-04-27T13:52:50Z</time>
      </trkpt>
      <trkpt lat="45.86764" lon="6.45905">
        <ele>1578.6</ele>
        <time>2024-04-27T13:52:51Z</time>
      </trkpt>
      <trkpt lat="45.86765" lon="6.45908">
        <ele>1578.6</ele>
        <time>2024-04-27T13:52:52Z</time>
      </trkpt>
      <trkpt lat="45.86767" lon="6.4591">
        <ele>1576.6</ele>
        <time>2024-04-27T13:52:53Z</time>
      </trkpt>
      <trkpt lat="45.86769" lon="6.45912">
        <ele>1576.6</ele>
        <time>2024-04-27T13:52:54Z</time>
      </trkpt>
      <trkpt lat="45.86769" lon="6.45916">
        <ele>1574.6</ele>
        <time>2024-04-27T13:52:55Z</time>
      </trkpt>
      <trkpt lat="45.8677" lon="6.45919">
        <ele>1574.6</ele>
        <time>2024-04-27T13:52:56Z</time>
      </trkpt>
      <trkpt lat="45.86771" lon="6.45923">
        <ele>1572.6</ele>
        <time>2024-04-27T13:52:57Z</time>
      </trkpt>
      <trkpt lat="45.86772" lon="6.45926">
        <ele>1572.6</ele>
        <time>2024-04-27T13:52:58Z</time>
      </trkpt>
      <trkpt lat="45.86774" lon="6.45929">
        <ele>1570.7</ele>
        <time>2024-04-27T13:52:59Z</time>
      </trkpt>
      <trkpt lat="45.86776" lon="6.45928">
        <ele>1570.7</ele>
        <time>2024-04-27T13:53:00Z</time>
      </trkpt>
      <trkpt lat="45.86778" lon="6.45926">
        <ele>1568.7</ele>
        <time>2024-04-27T13:53:01Z</time>
      </trkpt>
      <trkpt lat="45.8678" lon="6.45924">
        <ele>1568.7</ele>
        <time>2024-04-27T13:53:02Z</time>
      </trkpt>
      <trkpt lat="45.86781" lon="6.45922">
        <ele>1567.6</ele>
        <time>2024-04-27T13:53:03Z</time>
      </trkpt>
      <trkpt lat="45.86782" lon="6.45921">
        <ele>1567.6</ele>
        <time>2024-04-27T13:53:04Z</time>
      </trkpt>
      <trkpt lat="45.86782" lon="6.4592">
        <ele>1566.7</ele>
        <time>2024-04-27T13:53:05Z</time>
      </trkpt>
      <trkpt lat="45.86783" lon="6.45918">
        <ele>1566.7</ele>
        <time>2024-04-27T13:53:06Z</time>
      </trkpt>
      <trkpt lat="45.86784" lon="6.45917">
        <ele>1566.7</ele>
        <time>2024-04-27T13:53:07Z</time>
      </trkpt>
      <trkpt lat="45.86784" lon="6.45915">
        <ele>1566.7</ele>
        <time>2024-04-27T13:53:08Z</time>
      </trkpt>
      <trkpt lat="45.86786" lon="6.45913">
        <ele>1565.6</ele>
        <time>2024-04-27T13:53:09Z</time>
      </trkpt>
      <trkpt lat="45.86787" lon="6.45911">
        <ele>1565.6</ele>
        <time>2024-04-27T13:53:10Z</time>
      </trkpt>
      <trkpt lat="45.86789" lon="6.4591">
        <ele>1565.6</ele>
        <time>2024-04-27T13:53:11Z</time>
      </trkpt>
      <trkpt lat="45.86789" lon="6.45908">
        <ele>1565.6</ele>
        <time>2024-04-27T13:53:12Z</time>
      </trkpt>
      <trkpt lat="45.8679" lon="6.45906">
        <ele>1565.6</ele>
        <time>2024-04-27T13:53:13Z</time>
      </trkpt>
      <trkpt lat="45.8679" lon="6.45905">
        <ele>1565.6</ele>
        <time>2024-04-27T13:53:14Z</time>
      </trkpt>
      <trkpt lat="45.86791" lon="6.45905">
        <ele>1565.6</ele>
        <time>2024-04-27T13:53:15Z</time>
      </trkpt>
      <trkpt lat="45.86791" lon="6.45904">
        <ele>1565.6</ele>
        <time>2024-04-27T13:53:16Z</time>
      </trkpt>
      <trkpt lat="45.86792" lon="6.45904">
        <ele>1565.6</ele>
        <time>2024-04-27T13:53:17Z</time>
      </trkpt>
      <trkpt lat="45.86791" lon="6.45905">
        <ele>1565.6</ele>
        <time>2024-04-27T13:53:18Z</time>
      </trkpt>
      <trkpt lat="45.86791" lon="6.45905">
        <ele>1565.6</ele>
        <time>2024-04-27T13:53:19Z</time>
      </trkpt>
      <trkpt lat="45.86791" lon="6.45907">
        <ele>1565.6</ele>
        <time>2024-04-27T13:53:20Z</time>
      </trkpt>
      <trkpt lat="45.86791" lon="6.45909">
        <ele>1565.6</ele>
        <time>2024-04-27T13:53:21Z</time>
      </trkpt>
      <trkpt lat="45.86791" lon="6.45913">
        <ele>1565.6</ele>
        <time>2024-04-27T13:53:22Z</time>
      </trkpt>
      <trkpt lat="45.86791" lon="6.45915">
        <ele>1564.7</ele>
        <time>2024-04-27T13:53:23Z</time>
      </trkpt>
      <trkpt lat="45.86791" lon="6.45918">
        <ele>1564.7</ele>
        <time>2024-04-27T13:53:24Z</time>
      </trkpt>
      <trkpt lat="45.8679" lon="6.45921">
        <ele>1563.6</ele>
        <time>2024-04-27T13:53:25Z</time>
      </trkpt>
      <trkpt lat="45.8679" lon="6.45924">
        <ele>1563.6</ele>
        <time>2024-04-27T13:53:26Z</time>
      </trkpt>
      <trkpt lat="45.86791" lon="6.45929">
        <ele>1563.6</ele>
        <time>2024-04-27T13:53:27Z</time>
      </trkpt>
      <trkpt lat="45.86792" lon="6.45935">
        <ele>1563.6</ele>
        <time>2024-04-27T13:53:28Z</time>
      </trkpt>
      <trkpt lat="45.86792" lon="6.45941">
        <ele>1563.6</ele>
        <time>2024-04-27T13:53:29Z</time>
      </trkpt>
      <trkpt lat="45.86792" lon="6.45946">
        <ele>1563.6</ele>
        <time>2024-04-27T13:53:30Z</time>
      </trkpt>
      <trkpt lat="45.86792" lon="6.45951">
        <ele>1563.6</ele>
        <time>2024-04-27T13:53:31Z</time>
      </trkpt>
      <trkpt lat="45.86792" lon="6.45956">
        <ele>1563.6</ele>
        <time>2024-04-27T13:53:32Z</time>
      </trkpt>
      <trkpt lat="45.86793" lon="6.45959">
        <ele>1557.7</ele>
        <time>2024-04-27T13:53:33Z</time>
      </trkpt>
      <trkpt lat="45.86793" lon="6.45961">
        <ele>1557.7</ele>
        <time>2024-04-27T13:53:34Z</time>
      </trkpt>
      <trkpt lat="45.86794" lon="6.45964">
        <ele>1557.7</ele>
        <time>2024-04-27T13:53:35Z</time>
      </trkpt>
      <trkpt lat="45.86795" lon="6.45966">
        <ele>1557.7</ele>
        <time>2024-04-27T13:53:36Z</time>
      </trkpt>
      <trkpt lat="45.86796" lon="6.45967">
        <ele>1557.7</ele>
        <time>2024-04-27T13:53:37Z</time>
      </trkpt>
      <trkpt lat="45.86797" lon="6.45968">
        <ele>1557.7</ele>
        <time>2024-04-27T13:53:38Z</time>
      </trkpt>
      <trkpt lat="45.86798" lon="6.45971">
        <ele>1556.6</ele>
        <time>2024-04-27T13:53:39Z</time>
      </trkpt>
      <trkpt lat="45.86799" lon="6.45973">
        <ele>1556.6</ele>
        <time>2024-04-27T13:53:40Z</time>
      </trkpt>
      <trkpt lat="45.868" lon="6.45975">
        <ele>1556.6</ele>
        <time>2024-04-27T13:53:41Z</time>
      </trkpt>
      <trkpt lat="45.86801" lon="6.45977">
        <ele>1556.6</ele>
        <time>2024-04-27T13:53:42Z</time>
      </trkpt>
      <trkpt lat="45.86803" lon="6.45979">
        <ele>1556.6</ele>
        <time>2024-04-27T13:53:43Z</time>
      </trkpt>
      <trkpt lat="45.86805" lon="6.45982">
        <ele>1556.6</ele>
        <time>2024-04-27T13:53:44Z</time>
      </trkpt>
      <trkpt lat="45.86806" lon="6.45985">
        <ele>1552.7</ele>
        <time>2024-04-27T13:53:45Z</time>
      </trkpt>
      <trkpt lat="45.86808" lon="6.45986">
        <ele>1552.7</ele>
        <time>2024-04-27T13:53:46Z</time>
      </trkpt>
      <trkpt lat="45.86809" lon="6.45988">
        <ele>1550.7</ele>
        <time>2024-04-27T13:53:47Z</time>
      </trkpt>
      <trkpt lat="45.86811" lon="6.45989">
        <ele>1550.7</ele>
        <time>2024-04-27T13:53:48Z</time>
      </trkpt>
      <trkpt lat="45.86813" lon="6.45988">
        <ele>1549.6</ele>
        <time>2024-04-27T13:53:49Z</time>
      </trkpt>
      <trkpt lat="45.86816" lon="6.45985">
        <ele>1549.6</ele>
        <time>2024-04-27T13:53:50Z</time>
      </trkpt>
      <trkpt lat="45.86818" lon="6.45982">
        <ele>1547.6</ele>
        <time>2024-04-27T13:53:51Z</time>
      </trkpt>
      <trkpt lat="45.86819" lon="6.45979">
        <ele>1547.6</ele>
        <time>2024-04-27T13:53:52Z</time>
      </trkpt>
      <trkpt lat="45.8682" lon="6.45977">
        <ele>1546.6</ele>
        <time>2024-04-27T13:53:53Z</time>
      </trkpt>
      <trkpt lat="45.86821" lon="6.45976">
        <ele>1546.6</ele>
        <time>2024-04-27T13:53:54Z</time>
      </trkpt>
      <trkpt lat="45.86821" lon="6.45975">
        <ele>1546.6</ele>
        <time>2024-04-27T13:53:55Z</time>
      </trkpt>
      <trkpt lat="45.86822" lon="6.45974">
        <ele>1546.6</ele>
        <time>2024-04-27T13:53:56Z</time>
      </trkpt>
      <trkpt lat="45.86822" lon="6.45974">
        <ele>1546.6</ele>
        <time>2024-04-27T13:53:57Z</time>
      </trkpt>
      <trkpt lat="45.86822" lon="6.45974">
        <ele>1546.6</ele>
        <time>2024-04-27T13:53:58Z</time>
      </trkpt>
      <trkpt lat="45.86822" lon="6.45973">
        <ele>1546.6</ele>
        <time>2024-04-27T13:53:59Z</time>
      </trkpt>
      <trkpt lat="45.86822" lon="6.45973">
        <ele>1546.6</ele>
        <time>2024-04-27T13:54:00Z</time>
      </trkpt>
      <trkpt lat="45.86822" lon="6.45972">
        <ele>1546.6</ele>
        <time>2024-04-27T13:54:01Z</time>
      </trkpt>
      <trkpt lat="45.86823" lon="6.45973">
        <ele>1546.6</ele>
        <time>2024-04-27T13:54:02Z</time>
      </trkpt>
      <trkpt lat="45.86823" lon="6.45973">
        <ele>1544.6</ele>
        <time>2024-04-27T13:54:03Z</time>
      </trkpt>
      <trkpt lat="45.86823" lon="6.45973">
        <ele>1544.6</ele>
        <time>2024-04-27T13:54:04Z</time>
      </trkpt>
      <trkpt lat="45.86823" lon="6.45973">
        <ele>1544.6</ele>
        <time>2024-04-27T13:54:05Z</time>
      </trkpt>
      <trkpt lat="45.86823" lon="6.45973">
        <ele>1544.6</ele>
        <time>2024-04-27T13:54:06Z</time>
      </trkpt>
      <trkpt lat="45.86823" lon="6.45973">
        <ele>1544.6</ele>
        <time>2024-04-27T13:54:07Z</time>
      </trkpt>
      <trkpt lat="45.86823" lon="6.45973">
        <ele>1544.6</ele>
        <time>2024-04-27T13:54:08Z</time>
      </trkpt>
      <trkpt lat="45.86823" lon="6.45972">
        <ele>1544.6</ele>
        <time>2024-04-27T13:54:09Z</time>
      </trkpt>
      <trkpt lat="45.86823" lon="6.45972">
        <ele>1544.6</ele>
        <time>2024-04-27T13:54:10Z</time>
      </trkpt>
      <trkpt lat="45.86823" lon="6.45972">
        <ele>1543.7</ele>
        <time>2024-04-27T13:54:11Z</time>
      </trkpt>
      <trkpt lat="45.86823" lon="6.45972">
        <ele>1543.7</ele>
        <time>2024-04-27T13:54:12Z</time>
      </trkpt>
      <trkpt lat="45.86823" lon="6.45972">
        <ele>1543.7</ele>
        <time>2024-04-27T13:54:13Z</time>
      </trkpt>
      <trkpt lat="45.86823" lon="6.45972">
        <ele>1543.7</ele>
        <time>2024-04-27T13:54:14Z</time>
      </trkpt>
      <trkpt lat="45.86823" lon="6.45972">
        <ele>1543.7</ele>
        <time>2024-04-27T13:54:15Z</time>
      </trkpt>
      <trkpt lat="45.86823" lon="6.45972">
        <ele>1543.7</ele>
        <time>2024-04-27T13:54:16Z</time>
      </trkpt>
      <trkpt lat="45.86823" lon="6.45972">
        <ele>1543.7</ele>
        <time>2024-04-27T13:54:17Z</time>
      </trkpt>
      <trkpt lat="45.86823" lon="6.45973">
        <ele>1543.7</ele>
        <time>2024-04-27T13:54:18Z</time>
      </trkpt>
      <trkpt lat="45.86823" lon="6.45973">
        <ele>1543.7</ele>
        <time>2024-04-27T13:54:19Z</time>
      </trkpt>
      <trkpt lat="45.86823" lon="6.45973">
        <ele>1543.7</ele>
        <time>2024-04-27T13:54:20Z</time>
      </trkpt>
      <trkpt lat="45.86823" lon="6.45973">
        <ele>1543.7</ele>
        <time>2024-04-27T13:54:21Z</time>
      </trkpt>
      <trkpt lat="45.86823" lon="6.45973">
        <ele>1543.7</ele>
        <time>2024-04-27T13:54:22Z</time>
      </trkpt>
      <trkpt lat="45.86823" lon="6.45973">
        <ele>1543.7</ele>
        <time>2024-04-27T13:54:23Z</time>
      </trkpt>
      <trkpt lat="45.86823" lon="6.45973">
        <ele>1543.7</ele>
        <time>2024-04-27T13:54:24Z</time>
      </trkpt>
      <trkpt lat="45.86823" lon="6.45973">
        <ele>1544.6</ele>
        <time>2024-04-27T13:54:25Z</time>
      </trkpt>
      <trkpt lat="45.86823" lon="6.45973">
        <ele>1544.6</ele>
        <time>2024-04-27T13:54:26Z</time>
      </trkpt>
      <trkpt lat="45.86823" lon="6.45973">
        <ele>1544.6</ele>
        <time>2024-04-27T13:54:27Z</time>
      </trkpt>
      <trkpt lat="45.86823" lon="6.45973">
        <ele>1544.6</ele>
        <time>2024-04-27T13:54:28Z</time>
      </trkpt>
      <trkpt lat="45.86823" lon="6.45973">
        <ele>1544.6</ele>
        <time>2024-04-27T13:54:29Z</time>
      </trkpt>
      <trkpt lat="45.86823" lon="6.45973">
        <ele>1544.6</ele>
        <time>2024-04-27T13:54:30Z</time>
      </trkpt>
      <trkpt lat="45.86823" lon="6.45973">
        <ele>1544.6</ele>
        <time>2024-04-27T13:54:31Z</time>
      </trkpt>
      <trkpt lat="45.86823" lon="6.45973">
        <ele>1544.6</ele>
        <time>2024-04-27T13:54:32Z</time>
      </trkpt>
      <trkpt lat="45.86823" lon="6.45973">
        <ele>1544.6</ele>
        <time>2024-04-27T13:54:33Z</time>
      </trkpt>
      <trkpt lat="45.86823" lon="6.45973">
        <ele>1544.6</ele>
        <time>2024-04-27T13:54:34Z</time>
      </trkpt>
      <trkpt lat="45.86823" lon="6.45973">
        <ele>1545.7</ele>
        <time>2024-04-27T13:54:35Z</time>
      </trkpt>
      <trkpt lat="45.86823" lon="6.45973">
        <ele>1545.7</ele>
        <time>2024-04-27T13:54:36Z</time>
      </trkpt>
      <trkpt lat="45.86823" lon="6.45973">
        <ele>1545.7</ele>
        <time>2024-04-27T13:54:37Z</time>
      </trkpt>
      <trkpt lat="45.86823" lon="6.45973">
        <ele>1545.7</ele>
        <time>2024-04-27T13:54:38Z</time>
      </trkpt>
      <trkpt lat="45.86823" lon="6.45973">
        <ele>1545.7</ele>
        <time>2024-04-27T13:54:39Z</time>
      </trkpt>
      <trkpt lat="45.86823" lon="6.45972">
        <ele>1545.7</ele>
        <time>2024-04-27T13:54:40Z</time>
      </trkpt>
      <trkpt lat="45.86823" lon="6.45972">
        <ele>1545.7</ele>
        <time>2024-04-27T13:54:41Z</time>
      </trkpt>
      <trkpt lat="45.86823" lon="6.45972">
        <ele>1545.7</ele>
        <time>2024-04-27T13:54:42Z</time>
      </trkpt>
      <trkpt lat="45.86823" lon="6.45972">
        <ele>1545.7</ele>
        <time>2024-04-27T13:54:43Z</time>
      </trkpt>
      <trkpt lat="45.86823" lon="6.45972">
        <ele>1545.7</ele>
        <time>2024-04-27T13:54:44Z</time>
      </trkpt>
      <trkpt lat="45.86825" lon="6.45971">
        <ele>1545.7</ele>
        <time>2024-04-27T13:54:45Z</time>
      </trkpt>
      <trkpt lat="45.86826" lon="6.4597">
        <ele>1545.7</ele>
        <time>2024-04-27T13:54:46Z</time>
      </trkpt>
      <trkpt lat="45.86827" lon="6.45969">
        <ele>1545.7</ele>
        <time>2024-04-27T13:54:47Z</time>
      </trkpt>
      <trkpt lat="45.86829" lon="6.45969">
        <ele>1545.7</ele>
        <time>2024-04-27T13:54:48Z</time>
      </trkpt>
      <trkpt lat="45.8683" lon="6.45969">
        <ele>1545.7</ele>
        <time>2024-04-27T13:54:49Z</time>
      </trkpt>
      <trkpt lat="45.86831" lon="6.45969">
        <ele>1545.7</ele>
        <time>2024-04-27T13:54:50Z</time>
      </trkpt>
      <trkpt lat="45.86832" lon="6.4597">
        <ele>1542.6</ele>
        <time>2024-04-27T13:54:51Z</time>
      </trkpt>
      <trkpt lat="45.86833" lon="6.45971">
        <ele>1542.6</ele>
        <time>2024-04-27T13:54:52Z</time>
      </trkpt>
      <trkpt lat="45.86834" lon="6.45971">
        <ele>1541.7</ele>
        <time>2024-04-27T13:54:53Z</time>
      </trkpt>
      <trkpt lat="45.86835" lon="6.45971">
        <ele>1541.7</ele>
        <time>2024-04-27T13:54:54Z</time>
      </trkpt>
      <trkpt lat="45.86836" lon="6.45972">
        <ele>1540.6</ele>
        <time>2024-04-27T13:54:55Z</time>
      </trkpt>
      <trkpt lat="45.86837" lon="6.45973">
        <ele>1540.6</ele>
        <time>2024-04-27T13:54:56Z</time>
      </trkpt>
      <trkpt lat="45.86839" lon="6.45973">
        <ele>1540.6</ele>
        <time>2024-04-27T13:54:57Z</time>
      </trkpt>
      <trkpt lat="45.8684" lon="6.45973">
        <ele>1540.6</ele>
        <time>2024-04-27T13:54:58Z</time>
      </trkpt>
      <trkpt lat="45.86841" lon="6.45973">
        <ele>1539.7</ele>
        <time>2024-04-27T13:54:59Z</time>
      </trkpt>
      <trkpt lat="45.86843" lon="6.45974">
        <ele>1539.7</ele>
        <time>2024-04-27T13:55:00Z</time>
      </trkpt>
      <trkpt lat="45.86844" lon="6.45974">
        <ele>1538.6</ele>
        <time>2024-04-27T13:55:01Z</time>
      </trkpt>
      <trkpt lat="45.86845" lon="6.45974">
        <ele>1538.6</ele>
        <time>2024-04-27T13:55:02Z</time>
      </trkpt>
      <trkpt lat="45.86847" lon="6.45974">
        <ele>1538.6</ele>
        <time>2024-04-27T13:55:03Z</time>
      </trkpt>
      <trkpt lat="45.86848" lon="6.45974">
        <ele>1538.6</ele>
        <time>2024-04-27T13:55:04Z</time>
      </trkpt>
      <trkpt lat="45.86849" lon="6.45975">
        <ele>1538.6</ele>
        <time>2024-04-27T13:55:05Z</time>
      </trkpt>
      <trkpt lat="45.8685" lon="6.45975">
        <ele>1538.6</ele>
        <time>2024-04-27T13:55:06Z</time>
      </trkpt>
      <trkpt lat="45.86852" lon="6.45976">
        <ele>1538.6</ele>
        <time>2024-04-27T13:55:07Z</time>
      </trkpt>
      <trkpt lat="45.86853" lon="6.45977">
        <ele>1538.6</ele>
        <time>2024-04-27T13:55:08Z</time>
      </trkpt>
      <trkpt lat="45.86855" lon="6.45978">
        <ele>1538.6</ele>
        <time>2024-04-27T13:55:09Z</time>
      </trkpt>
      <trkpt lat="45.86856" lon="6.45978">
        <ele>1538.6</ele>
        <time>2024-04-27T13:55:10Z</time>
      </trkpt>
      <trkpt lat="45.86857" lon="6.45979">
        <ele>1538.6</ele>
        <time>2024-04-27T13:55:11Z</time>
      </trkpt>
      <trkpt lat="45.86858" lon="6.45979">
        <ele>1538.6</ele>
        <time>2024-04-27T13:55:12Z</time>
      </trkpt>
      <trkpt lat="45.8686" lon="6.45979">
        <ele>1535.6</ele>
        <time>2024-04-27T13:55:13Z</time>
      </trkpt>
      <trkpt lat="45.86861" lon="6.4598">
        <ele>1535.6</ele>
        <time>2024-04-27T13:55:14Z</time>
      </trkpt>
      <trkpt lat="45.86862" lon="6.4598">
        <ele>1535.6</ele>
        <time>2024-04-27T13:55:15Z</time>
      </trkpt>
      <trkpt lat="45.86863" lon="6.45981">
        <ele>1535.6</ele>
        <time>2024-04-27T13:55:16Z</time>
      </trkpt>
      <trkpt lat="45.86865" lon="6.45982">
        <ele>1533.6</ele>
        <time>2024-04-27T13:55:17Z</time>
      </trkpt>
      <trkpt lat="45.86866" lon="6.45982">
        <ele>1533.6</ele>
        <time>2024-04-27T13:55:18Z</time>
      </trkpt>
      <trkpt lat="45.86867" lon="6.45982">
        <ele>1533.6</ele>
        <time>2024-04-27T13:55:19Z</time>
      </trkpt>
      <trkpt lat="45.86868" lon="6.45982">
        <ele>1533.6</ele>
        <time>2024-04-27T13:55:20Z</time>
      </trkpt>
      <trkpt lat="45.86869" lon="6.45981">
        <ele>1532.7</ele>
        <time>2024-04-27T13:55:21Z</time>
      </trkpt>
      <trkpt lat="45.86871" lon="6.45982">
        <ele>1532.7</ele>
        <time>2024-04-27T13:55:22Z</time>
      </trkpt>
      <trkpt lat="45.86872" lon="6.45982">
        <ele>1532.7</ele>
        <time>2024-04-27T13:55:23Z</time>
      </trkpt>
      <trkpt lat="45.86873" lon="6.45983">
        <ele>1532.7</ele>
        <time>2024-04-27T13:55:24Z</time>
      </trkpt>
      <trkpt lat="45.86874" lon="6.45983">
        <ele>1531.6</ele>
        <time>2024-04-27T13:55:25Z</time>
      </trkpt>
      <trkpt lat="45.86876" lon="6.45984">
        <ele>1531.6</ele>
        <time>2024-04-27T13:55:26Z</time>
      </trkpt>
      <trkpt lat="45.86877" lon="6.45984">
        <ele>1530.6</ele>
        <time>2024-04-27T13:55:27Z</time>
      </trkpt>
      <trkpt lat="45.86879" lon="6.45985">
        <ele>1530.6</ele>
        <time>2024-04-27T13:55:28Z</time>
      </trkpt>
      <trkpt lat="45.8688" lon="6.45986">
        <ele>1530.6</ele>
        <time>2024-04-27T13:55:29Z</time>
      </trkpt>
      <trkpt lat="45.86882" lon="6.45987">
        <ele>1530.6</ele>
        <time>2024-04-27T13:55:30Z</time>
      </trkpt>
      <trkpt lat="45.86883" lon="6.45988">
        <ele>1528.6</ele>
        <time>2024-04-27T13:55:31Z</time>
      </trkpt>
      <trkpt lat="45.86885" lon="6.45989">
        <ele>1528.6</ele>
        <time>2024-04-27T13:55:32Z</time>
      </trkpt>
      <trkpt lat="45.86887" lon="6.45989">
        <ele>1527.7</ele>
        <time>2024-04-27T13:55:33Z</time>
      </trkpt>
      <trkpt lat="45.86889" lon="6.4599">
        <ele>1527.7</ele>
        <time>2024-04-27T13:55:34Z</time>
      </trkpt>
      <trkpt lat="45.8689" lon="6.4599">
        <ele>1526.6</ele>
        <time>2024-04-27T13:55:35Z</time>
      </trkpt>
      <trkpt lat="45.86892" lon="6.45991">
        <ele>1526.6</ele>
        <time>2024-04-27T13:55:36Z</time>
      </trkpt>
      <trkpt lat="45.86893" lon="6.45991">
        <ele>1526.6</ele>
        <time>2024-04-27T13:55:37Z</time>
      </trkpt>
      <trkpt lat="45.86895" lon="6.45992">
        <ele>1526.6</ele>
        <time>2024-04-27T13:55:38Z</time>
      </trkpt>
      <trkpt lat="45.86896" lon="6.45993">
        <ele>1526.6</ele>
        <time>2024-04-27T13:55:39Z</time>
      </trkpt>
      <trkpt lat="45.86898" lon="6.45994">
        <ele>1526.6</ele>
        <time>2024-04-27T13:55:40Z</time>
      </trkpt>
      <trkpt lat="45.86899" lon="6.45994">
        <ele>1524.6</ele>
        <time>2024-04-27T13:55:41Z</time>
      </trkpt>
      <trkpt lat="45.869" lon="6.45995">
        <ele>1524.6</ele>
        <time>2024-04-27T13:55:42Z</time>
      </trkpt>
      <trkpt lat="45.86901" lon="6.45996">
        <ele>1524.6</ele>
        <time>2024-04-27T13:55:43Z</time>
      </trkpt>
      <trkpt lat="45.86902" lon="6.45996">
        <ele>1524.6</ele>
        <time>2024-04-27T13:55:44Z</time>
      </trkpt>
      <trkpt lat="45.86903" lon="6.45997">
        <ele>1523.7</ele>
        <time>2024-04-27T13:55:45Z</time>
      </trkpt>
      <trkpt lat="45.86905" lon="6.45997">
        <ele>1523.7</ele>
        <time>2024-04-27T13:55:46Z</time>
      </trkpt>
      <trkpt lat="45.86906" lon="6.45997">
        <ele>1523.7</ele>
        <time>2024-04-27T13:55:47Z</time>
      </trkpt>
      <trkpt lat="45.86908" lon="6.45998">
        <ele>1523.7</ele>
        <time>2024-04-27T13:55:48Z</time>
      </trkpt>
      <trkpt lat="45.86909" lon="6.45999">
        <ele>1522.6</ele>
        <time>2024-04-27T13:55:49Z</time>
      </trkpt>
      <trkpt lat="45.8691" lon="6.45999">
        <ele>1522.6</ele>
        <time>2024-04-27T13:55:50Z</time>
      </trkpt>
      <trkpt lat="45.86912" lon="6.46">
        <ele>1521.6</ele>
        <time>2024-04-27T13:55:51Z</time>
      </trkpt>
      <trkpt lat="45.86913" lon="6.46">
        <ele>1521.6</ele>
        <time>2024-04-27T13:55:52Z</time>
      </trkpt>
      <trkpt lat="45.86915" lon="6.46001">
        <ele>1521.6</ele>
        <time>2024-04-27T13:55:53Z</time>
      </trkpt>
      <trkpt lat="45.86916" lon="6.46001">
        <ele>1521.6</ele>
        <time>2024-04-27T13:55:54Z</time>
      </trkpt>
      <trkpt lat="45.86917" lon="6.46001">
        <ele>1520.7</ele>
        <time>2024-04-27T13:55:55Z</time>
      </trkpt>
      <trkpt lat="45.86919" lon="6.46001">
        <ele>1520.7</ele>
        <time>2024-04-27T13:55:56Z</time>
      </trkpt>
      <trkpt lat="45.8692" lon="6.46">
        <ele>1520.7</ele>
        <time>2024-04-27T13:55:57Z</time>
      </trkpt>
      <trkpt lat="45.86921" lon="6.46001">
        <ele>1520.7</ele>
        <time>2024-04-27T13:55:58Z</time>
      </trkpt>
      <trkpt lat="45.86923" lon="6.46001">
        <ele>1519.6</ele>
        <time>2024-04-27T13:55:59Z</time>
      </trkpt>
      <trkpt lat="45.86924" lon="6.46001">
        <ele>1519.6</ele>
        <time>2024-04-27T13:56:00Z</time>
      </trkpt>
      <trkpt lat="45.86925" lon="6.46001">
        <ele>1518.7</ele>
        <time>2024-04-27T13:56:01Z</time>
      </trkpt>
      <trkpt lat="45.86926" lon="6.46001">
        <ele>1518.7</ele>
        <time>2024-04-27T13:56:02Z</time>
      </trkpt>
      <trkpt lat="45.86928" lon="6.46001">
        <ele>1517.6</ele>
        <time>2024-04-27T13:56:03Z</time>
      </trkpt>
      <trkpt lat="45.86929" lon="6.46">
        <ele>1517.6</ele>
        <time>2024-04-27T13:56:04Z</time>
      </trkpt>
      <trkpt lat="45.86931" lon="6.46">
        <ele>1516.7</ele>
        <time>2024-04-27T13:56:05Z</time>
      </trkpt>
      <trkpt lat="45.86932" lon="6.46001">
        <ele>1516.7</ele>
        <time>2024-04-27T13:56:06Z</time>
      </trkpt>
      <trkpt lat="45.86933" lon="6.46001">
        <ele>1516.7</ele>
        <time>2024-04-27T13:56:07Z</time>
      </trkpt>
      <trkpt lat="45.86934" lon="6.46002">
        <ele>1516.7</ele>
        <time>2024-04-27T13:56:08Z</time>
      </trkpt>
      <trkpt lat="45.86935" lon="6.46002">
        <ele>1516.7</ele>
        <time>2024-04-27T13:56:09Z</time>
      </trkpt>
      <trkpt lat="45.86936" lon="6.46002">
        <ele>1516.7</ele>
        <time>2024-04-27T13:56:10Z</time>
      </trkpt>
      <trkpt lat="45.86937" lon="6.46003">
        <ele>1515.6</ele>
        <time>2024-04-27T13:56:11Z</time>
      </trkpt>
      <trkpt lat="45.86938" lon="6.46003">
        <ele>1515.6</ele>
        <time>2024-04-27T13:56:12Z</time>
      </trkpt>
      <trkpt lat="45.86939" lon="6.46003">
        <ele>1515.6</ele>
        <time>2024-04-27T13:56:13Z</time>
      </trkpt>
      <trkpt lat="45.8694" lon="6.46002">
        <ele>1515.6</ele>
        <time>2024-04-27T13:56:14Z</time>
      </trkpt>
      <trkpt lat="45.86941" lon="6.46002">
        <ele>1515.6</ele>
        <time>2024-04-27T13:56:15Z</time>
      </trkpt>
      <trkpt lat="45.86941" lon="6.46001">
        <ele>1515.6</ele>
        <time>2024-04-27T13:56:16Z</time>
      </trkpt>
      <trkpt lat="45.86942" lon="6.45999">
        <ele>1515.6</ele>
        <time>2024-04-27T13:56:17Z</time>
      </trkpt>
      <trkpt lat="45.86942" lon="6.45998">
        <ele>1515.6</ele>
        <time>2024-04-27T13:56:18Z</time>
      </trkpt>
      <trkpt lat="45.86943" lon="6.45997">
        <ele>1513.7</ele>
        <time>2024-04-27T13:56:19Z</time>
      </trkpt>
      <trkpt lat="45.86943" lon="6.45996">
        <ele>1513.7</ele>
        <time>2024-04-27T13:56:20Z</time>
      </trkpt>
      <trkpt lat="45.86944" lon="6.45996">
        <ele>1513.7</ele>
        <time>2024-04-27T13:56:21Z</time>
      </trkpt>
      <trkpt lat="45.86944" lon="6.45995">
        <ele>1513.7</ele>
        <time>2024-04-27T13:56:22Z</time>
      </trkpt>
      <trkpt lat="45.86945" lon="6.45994">
        <ele>1513.7</ele>
        <time>2024-04-27T13:56:23Z</time>
      </trkpt>
      <trkpt lat="45.86946" lon="6.45993">
        <ele>1513.7</ele>
        <time>2024-04-27T13:56:24Z</time>
      </trkpt>
      <trkpt lat="45.86947" lon="6.45993">
        <ele>1513.7</ele>
        <time>2024-04-27T13:56:25Z</time>
      </trkpt>
      <trkpt lat="45.86948" lon="6.45993">
        <ele>1513.7</ele>
        <time>2024-04-27T13:56:26Z</time>
      </trkpt>
      <trkpt lat="45.86949" lon="6.45992">
        <ele>1511.7</ele>
        <time>2024-04-27T13:56:27Z</time>
      </trkpt>
      <trkpt lat="45.8695" lon="6.45992">
        <ele>1511.7</ele>
        <time>2024-04-27T13:56:28Z</time>
      </trkpt>
      <trkpt lat="45.86951" lon="6.45991">
        <ele>1511.7</ele>
        <time>2024-04-27T13:56:29Z</time>
      </trkpt>
      <trkpt lat="45.86953" lon="6.45992">
        <ele>1511.7</ele>
        <time>2024-04-27T13:56:30Z</time>
      </trkpt>
      <trkpt lat="45.86954" lon="6.45992">
        <ele>1510.6</ele>
        <time>2024-04-27T13:56:31Z</time>
      </trkpt>
      <trkpt lat="45.86955" lon="6.45993">
        <ele>1510.6</ele>
        <time>2024-04-27T13:56:32Z</time>
      </trkpt>
      <trkpt lat="45.86956" lon="6.45993">
        <ele>1509.7</ele>
        <time>2024-04-27T13:56:33Z</time>
      </trkpt>
      <trkpt lat="45.86957" lon="6.45994">
        <ele>1509.7</ele>
        <time>2024-04-27T13:56:34Z</time>
      </trkpt>
      <trkpt lat="45.86958" lon="6.45994">
        <ele>1507.7</ele>
        <time>2024-04-27T13:56:35Z</time>
      </trkpt>
      <trkpt lat="45.8696" lon="6.45995">
        <ele>1507.7</ele>
        <time>2024-04-27T13:56:36Z</time>
      </trkpt>
      <trkpt lat="45.86961" lon="6.45995">
        <ele>1505.6</ele>
        <time>2024-04-27T13:56:37Z</time>
      </trkpt>
      <trkpt lat="45.86963" lon="6.45995">
        <ele>1505.6</ele>
        <time>2024-04-27T13:56:38Z</time>
      </trkpt>
      <trkpt lat="45.86964" lon="6.45995">
        <ele>1504.7</ele>
        <time>2024-04-27T13:56:39Z</time>
      </trkpt>
      <trkpt lat="45.86966" lon="6.45995">
        <ele>1504.7</ele>
        <time>2024-04-27T13:56:40Z</time>
      </trkpt>
      <trkpt lat="45.86967" lon="6.45996">
        <ele>1503.6</ele>
        <time>2024-04-27T13:56:41Z</time>
      </trkpt>
      <trkpt lat="45.86968" lon="6.45996">
        <ele>1503.6</ele>
        <time>2024-04-27T13:56:42Z</time>
      </trkpt>
      <trkpt lat="45.86969" lon="6.45996">
        <ele>1503.6</ele>
        <time>2024-04-27T13:56:43Z</time>
      </trkpt>
      <trkpt lat="45.8697" lon="6.45996">
        <ele>1503.6</ele>
        <time>2024-04-27T13:56:44Z</time>
      </trkpt>
      <trkpt lat="45.86971" lon="6.45996">
        <ele>1502.7</ele>
        <time>2024-04-27T13:56:45Z</time>
      </trkpt>
      <trkpt lat="45.86973" lon="6.45995">
        <ele>1502.7</ele>
        <time>2024-04-27T13:56:46Z</time>
      </trkpt>
      <trkpt lat="45.86975" lon="6.45995">
        <ele>1502.7</ele>
        <time>2024-04-27T13:56:47Z</time>
      </trkpt>
      <trkpt lat="45.86976" lon="6.45995">
        <ele>1502.7</ele>
        <time>2024-04-27T13:56:48Z</time>
      </trkpt>
      <trkpt lat="45.86977" lon="6.45995">
        <ele>1502.7</ele>
        <time>2024-04-27T13:56:49Z</time>
      </trkpt>
      <trkpt lat="45.86979" lon="6.45995">
        <ele>1502.7</ele>
        <time>2024-04-27T13:56:50Z</time>
      </trkpt>
      <trkpt lat="45.8698" lon="6.45996">
        <ele>1501.6</ele>
        <time>2024-04-27T13:56:51Z</time>
      </trkpt>
      <trkpt lat="45.86982" lon="6.45997">
        <ele>1501.6</ele>
        <time>2024-04-27T13:56:52Z</time>
      </trkpt>
      <trkpt lat="45.86983" lon="6.45997">
        <ele>1499.6</ele>
        <time>2024-04-27T13:56:53Z</time>
      </trkpt>
      <trkpt lat="45.86984" lon="6.45998">
        <ele>1499.6</ele>
        <time>2024-04-27T13:56:54Z</time>
      </trkpt>
      <trkpt lat="45.86985" lon="6.45998">
        <ele>1498.6</ele>
        <time>2024-04-27T13:56:55Z</time>
      </trkpt>
      <trkpt lat="45.86986" lon="6.45999">
        <ele>1498.6</ele>
        <time>2024-04-27T13:56:56Z</time>
      </trkpt>
      <trkpt lat="45.86988" lon="6.45999">
        <ele>1497.7</ele>
        <time>2024-04-27T13:56:57Z</time>
      </trkpt>
      <trkpt lat="45.86989" lon="6.46">
        <ele>1497.7</ele>
        <time>2024-04-27T13:56:58Z</time>
      </trkpt>
      <trkpt lat="45.8699" lon="6.46001">
        <ele>1497.7</ele>
        <time>2024-04-27T13:56:59Z</time>
      </trkpt>
      <trkpt lat="45.86992" lon="6.46001">
        <ele>1497.7</ele>
        <time>2024-04-27T13:57:00Z</time>
      </trkpt>
      <trkpt lat="45.86993" lon="6.46001">
        <ele>1496.6</ele>
        <time>2024-04-27T13:57:01Z</time>
      </trkpt>
      <trkpt lat="45.86994" lon="6.46001">
        <ele>1496.6</ele>
        <time>2024-04-27T13:57:02Z</time>
      </trkpt>
      <trkpt lat="45.86996" lon="6.46001">
        <ele>1496.6</ele>
        <time>2024-04-27T13:57:03Z</time>
      </trkpt>
      <trkpt lat="45.86997" lon="6.46001">
        <ele>1496.6</ele>
        <time>2024-04-27T13:57:04Z</time>
      </trkpt>
      <trkpt lat="45.86999" lon="6.46">
        <ele>1495.7</ele>
        <time>2024-04-27T13:57:05Z</time>
      </trkpt>
      <trkpt lat="45.87" lon="6.46">
        <ele>1495.7</ele>
        <time>2024-04-27T13:57:06Z</time>
      </trkpt>
      <trkpt lat="45.87001" lon="6.46001">
        <ele>1494.6</ele>
        <time>2024-04-27T13:57:07Z</time>
      </trkpt>
      <trkpt lat="45.87003" lon="6.46001">
        <ele>1494.6</ele>
        <time>2024-04-27T13:57:08Z</time>
      </trkpt>
      <trkpt lat="45.87005" lon="6.46001">
        <ele>1493.7</ele>
        <time>2024-04-27T13:57:09Z</time>
      </trkpt>
      <trkpt lat="45.87006" lon="6.46001">
        <ele>1493.7</ele>
        <time>2024-04-27T13:57:10Z</time>
      </trkpt>
      <trkpt lat="45.87007" lon="6.46001">
        <ele>1492.6</ele>
        <time>2024-04-27T13:57:11Z</time>
      </trkpt>
      <trkpt lat="45.87009" lon="6.46001">
        <ele>1492.6</ele>
        <time>2024-04-27T13:57:12Z</time>
      </trkpt>
      <trkpt lat="45.8701" lon="6.46001">
        <ele>1492.6</ele>
        <time>2024-04-27T13:57:13Z</time>
      </trkpt>
      <trkpt lat="45.87011" lon="6.46001">
        <ele>1492.6</ele>
        <time>2024-04-27T13:57:14Z</time>
      </trkpt>
      <trkpt lat="45.87012" lon="6.46001">
        <ele>1491.7</ele>
        <time>2024-04-27T13:57:15Z</time>
      </trkpt>
      <trkpt lat="45.87014" lon="6.46">
        <ele>1491.7</ele>
        <time>2024-04-27T13:57:16Z</time>
      </trkpt>
      <trkpt lat="45.87015" lon="6.45999">
        <ele>1490.6</ele>
        <time>2024-04-27T13:57:17Z</time>
      </trkpt>
      <trkpt lat="45.87017" lon="6.45998">
        <ele>1490.6</ele>
        <time>2024-04-27T13:57:18Z</time>
      </trkpt>
      <trkpt lat="45.87018" lon="6.45997">
        <ele>1490.6</ele>
        <time>2024-04-27T13:57:19Z</time>
      </trkpt>
      <trkpt lat="45.8702" lon="6.45997">
        <ele>1490.6</ele>
        <time>2024-04-27T13:57:20Z</time>
      </trkpt>
      <trkpt lat="45.87022" lon="6.45997">
        <ele>1490.6</ele>
        <time>2024-04-27T13:57:21Z</time>
      </trkpt>
      <trkpt lat="45.87023" lon="6.45997">
        <ele>1490.6</ele>
        <time>2024-04-27T13:57:22Z</time>
      </trkpt>
      <trkpt lat="45.87025" lon="6.45997">
        <ele>1489.6</ele>
        <time>2024-04-27T13:57:23Z</time>
      </trkpt>
      <trkpt lat="45.87026" lon="6.45997">
        <ele>1489.6</ele>
        <time>2024-04-27T13:57:24Z</time>
      </trkpt>
      <trkpt lat="45.87028" lon="6.45997">
        <ele>1489.6</ele>
        <time>2024-04-27T13:57:25Z</time>
      </trkpt>
      <trkpt lat="45.87029" lon="6.45997">
        <ele>1489.6</ele>
        <time>2024-04-27T13:57:26Z</time>
      </trkpt>
      <trkpt lat="45.87031" lon="6.45997">
        <ele>1489.6</ele>
        <time>2024-04-27T13:57:27Z</time>
      </trkpt>
      <trkpt lat="45.87033" lon="6.45996">
        <ele>1489.6</ele>
        <time>2024-04-27T13:57:28Z</time>
      </trkpt>
      <trkpt lat="45.87035" lon="6.45996">
        <ele>1488.7</ele>
        <time>2024-04-27T13:57:29Z</time>
      </trkpt>
      <trkpt lat="45.87036" lon="6.45996">
        <ele>1488.7</ele>
        <time>2024-04-27T13:57:30Z</time>
      </trkpt>
      <trkpt lat="45.87038" lon="6.45995">
        <ele>1488.7</ele>
        <time>2024-04-27T13:57:31Z</time>
      </trkpt>
      <trkpt lat="45.87039" lon="6.45995">
        <ele>1488.7</ele>
        <time>2024-04-27T13:57:32Z</time>
      </trkpt>
      <trkpt lat="45.87041" lon="6.45994">
        <ele>1488.7</ele>
        <time>2024-04-27T13:57:33Z</time>
      </trkpt>
      <trkpt lat="45.87043" lon="6.45993">
        <ele>1488.7</ele>
        <time>2024-04-27T13:57:34Z</time>
      </trkpt>
      <trkpt lat="45.87044" lon="6.45994">
        <ele>1485.6</ele>
        <time>2024-04-27T13:57:35Z</time>
      </trkpt>
      <trkpt lat="45.87046" lon="6.45994">
        <ele>1485.6</ele>
        <time>2024-04-27T13:57:36Z</time>
      </trkpt>
      <trkpt lat="45.87048" lon="6.45994">
        <ele>1484.7</ele>
        <time>2024-04-27T13:57:37Z</time>
      </trkpt>
      <trkpt lat="45.8705" lon="6.45995">
        <ele>1484.7</ele>
        <time>2024-04-27T13:57:38Z</time>
      </trkpt>
      <trkpt lat="45.87051" lon="6.45995">
        <ele>1483.6</ele>
        <time>2024-04-27T13:57:39Z</time>
      </trkpt>
      <trkpt lat="45.87053" lon="6.45995">
        <ele>1483.6</ele>
        <time>2024-04-27T13:57:40Z</time>
      </trkpt>
      <trkpt lat="45.87054" lon="6.45995">
        <ele>1482.7</ele>
        <time>2024-04-27T13:57:41Z</time>
      </trkpt>
      <trkpt lat="45.87056" lon="6.45996">
        <ele>1482.7</ele>
        <time>2024-04-27T13:57:42Z</time>
      </trkpt>
      <trkpt lat="45.87058" lon="6.45997">
        <ele>1482.7</ele>
        <time>2024-04-27T13:57:43Z</time>
      </trkpt>
      <trkpt lat="45.87059" lon="6.45998">
        <ele>1482.7</ele>
        <time>2024-04-27T13:57:44Z</time>
      </trkpt>
      <trkpt lat="45.8706" lon="6.45999">
        <ele>1482.7</ele>
        <time>2024-04-27T13:57:45Z</time>
      </trkpt>
      <trkpt lat="45.87061" lon="6.46">
        <ele>1482.7</ele>
        <time>2024-04-27T13:57:46Z</time>
      </trkpt>
      <trkpt lat="45.87063" lon="6.46">
        <ele>1481.7</ele>
        <time>2024-04-27T13:57:47Z</time>
      </trkpt>
      <trkpt lat="45.87064" lon="6.46001">
        <ele>1481.7</ele>
        <time>2024-04-27T13:57:48Z</time>
      </trkpt>
      <trkpt lat="45.87065" lon="6.46001">
        <ele>1481.7</ele>
        <time>2024-04-27T13:57:49Z</time>
      </trkpt>
      <trkpt lat="45.87066" lon="6.46002">
        <ele>1481.7</ele>
        <time>2024-04-27T13:57:50Z</time>
      </trkpt>
      <trkpt lat="45.87068" lon="6.46002">
        <ele>1481.7</ele>
        <time>2024-04-27T13:57:51Z</time>
      </trkpt>
      <trkpt lat="45.87069" lon="6.46002">
        <ele>1481.7</ele>
        <time>2024-04-27T13:57:52Z</time>
      </trkpt>
      <trkpt lat="45.8707" lon="6.46003">
        <ele>1480.6</ele>
        <time>2024-04-27T13:57:53Z</time>
      </trkpt>
      <trkpt lat="45.87072" lon="6.46003">
        <ele>1480.6</ele>
        <time>2024-04-27T13:57:54Z</time>
      </trkpt>
      <trkpt lat="45.87073" lon="6.46003">
        <ele>1480.6</ele>
        <time>2024-04-27T13:57:55Z</time>
      </trkpt>
      <trkpt lat="45.87074" lon="6.46003">
        <ele>1480.6</ele>
        <time>2024-04-27T13:57:56Z</time>
      </trkpt>
      <trkpt lat="45.87076" lon="6.46004">
        <ele>1479.7</ele>
        <time>2024-04-27T13:57:57Z</time>
      </trkpt>
      <trkpt lat="45.87077" lon="6.46004">
        <ele>1479.7</ele>
        <time>2024-04-27T13:57:58Z</time>
      </trkpt>
      <trkpt lat="45.87078" lon="6.46004">
        <ele>1479.7</ele>
        <time>2024-04-27T13:57:59Z</time>
      </trkpt>
      <trkpt lat="45.8708" lon="6.46004">
        <ele>1479.7</ele>
        <time>2024-04-27T13:58:00Z</time>
      </trkpt>
      <trkpt lat="45.87081" lon="6.46004">
        <ele>1479.7</ele>
        <time>2024-04-27T13:58:01Z</time>
      </trkpt>
      <trkpt lat="45.87082" lon="6.46004">
        <ele>1479.7</ele>
        <time>2024-04-27T13:58:02Z</time>
      </trkpt>
      <trkpt lat="45.87084" lon="6.46004">
        <ele>1479.7</ele>
        <time>2024-04-27T13:58:03Z</time>
      </trkpt>
      <trkpt lat="45.87085" lon="6.46004">
        <ele>1479.7</ele>
        <time>2024-04-27T13:58:04Z</time>
      </trkpt>
      <trkpt lat="45.87087" lon="6.46004">
        <ele>1479.7</ele>
        <time>2024-04-27T13:58:05Z</time>
      </trkpt>
      <trkpt lat="45.87089" lon="6.46004">
        <ele>1479.7</ele>
        <time>2024-04-27T13:58:06Z</time>
      </trkpt>
      <trkpt lat="45.8709" lon="6.46004">
        <ele>1479.7</ele>
        <time>2024-04-27T13:58:07Z</time>
      </trkpt>
      <trkpt lat="45.87092" lon="6.46004">
        <ele>1479.7</ele>
        <time>2024-04-27T13:58:08Z</time>
      </trkpt>
      <trkpt lat="45.87093" lon="6.46003">
        <ele>1479.7</ele>
        <time>2024-04-27T13:58:09Z</time>
      </trkpt>
      <trkpt lat="45.87095" lon="6.46004">
        <ele>1479.7</ele>
        <time>2024-04-27T13:58:10Z</time>
      </trkpt>
      <trkpt lat="45.87096" lon="6.46004">
        <ele>1479.7</ele>
        <time>2024-04-27T13:58:11Z</time>
      </trkpt>
      <trkpt lat="45.87097" lon="6.46004">
        <ele>1478.6</ele>
        <time>2024-04-27T13:58:12Z</time>
      </trkpt>
      <trkpt lat="45.87099" lon="6.46005">
        <ele>1478.6</ele>
        <time>2024-04-27T13:58:13Z</time>
      </trkpt>
      <trkpt lat="45.871" lon="6.46005">
        <ele>1478.6</ele>
        <time>2024-04-27T13:58:14Z</time>
      </trkpt>
      <trkpt lat="45.87102" lon="6.46005">
        <ele>1478.6</ele>
        <time>2024-04-27T13:58:15Z</time>
      </trkpt>
      <trkpt lat="45.87104" lon="6.46005">
        <ele>1478.6</ele>
        <time>2024-04-27T13:58:16Z</time>
      </trkpt>
      <trkpt lat="45.87105" lon="6.46005">
        <ele>1478.6</ele>
        <time>2024-04-27T13:58:17Z</time>
      </trkpt>
      <trkpt lat="45.87106" lon="6.46005">
        <ele>1478.6</ele>
        <time>2024-04-27T13:58:18Z</time>
      </trkpt>
      <trkpt lat="45.87107" lon="6.46004">
        <ele>1478.6</ele>
        <time>2024-04-27T13:58:19Z</time>
      </trkpt>
      <trkpt lat="45.87109" lon="6.46004">
        <ele>1478.6</ele>
        <time>2024-04-27T13:58:20Z</time>
      </trkpt>
      <trkpt lat="45.87111" lon="6.46003">
        <ele>1478.6</ele>
        <time>2024-04-27T13:58:21Z</time>
      </trkpt>
      <trkpt lat="45.87112" lon="6.46002">
        <ele>1477.7</ele>
        <time>2024-04-27T13:58:22Z</time>
      </trkpt>
      <trkpt lat="45.87113" lon="6.46002">
        <ele>1477.7</ele>
        <time>2024-04-27T13:58:23Z</time>
      </trkpt>
      <trkpt lat="45.87115" lon="6.46001">
        <ele>1477.7</ele>
        <time>2024-04-27T13:58:24Z</time>
      </trkpt>
      <trkpt lat="45.87116" lon="6.46">
        <ele>1477.7</ele>
        <time>2024-04-27T13:58:25Z</time>
      </trkpt>
      <trkpt lat="45.87117" lon="6.45999">
        <ele>1477.7</ele>
        <time>2024-04-27T13:58:26Z</time>
      </trkpt>
      <trkpt lat="45.87119" lon="6.45999">
        <ele>1477.7</ele>
        <time>2024-04-27T13:58:27Z</time>
      </trkpt>
      <trkpt lat="45.8712" lon="6.45998">
        <ele>1477.7</ele>
        <time>2024-04-27T13:58:28Z</time>
      </trkpt>
      <trkpt lat="45.87121" lon="6.45998">
        <ele>1477.7</ele>
        <time>2024-04-27T13:58:29Z</time>
      </trkpt>
      <trkpt lat="45.87123" lon="6.45997">
        <ele>1477.7</ele>
        <time>2024-04-27T13:58:30Z</time>
      </trkpt>
      <trkpt lat="45.87124" lon="6.45997">
        <ele>1477.7</ele>
        <time>2024-04-27T13:58:31Z</time>
      </trkpt>
      <trkpt lat="45.87125" lon="6.45997">
        <ele>1476.6</ele>
        <time>2024-04-27T13:58:32Z</time>
      </trkpt>
      <trkpt lat="45.87127" lon="6.45997">
        <ele>1476.6</ele>
        <time>2024-04-27T13:58:33Z</time>
      </trkpt>
      <trkpt lat="45.87129" lon="6.45997">
        <ele>1476.6</ele>
        <time>2024-04-27T13:58:34Z</time>
      </trkpt>
      <trkpt lat="45.8713" lon="6.45997">
        <ele>1476.6</ele>
        <time>2024-04-27T13:58:35Z</time>
      </trkpt>
      <trkpt lat="45.87131" lon="6.45997">
        <ele>1476.6</ele>
        <time>2024-04-27T13:58:36Z</time>
      </trkpt>
      <trkpt lat="45.87133" lon="6.45997">
        <ele>1476.6</ele>
        <time>2024-04-27T13:58:37Z</time>
      </trkpt>
      <trkpt lat="45.87134" lon="6.45997">
        <ele>1476.6</ele>
        <time>2024-04-27T13:58:38Z</time>
      </trkpt>
      <trkpt lat="45.87136" lon="6.45997">
        <ele>1476.6</ele>
        <time>2024-04-27T13:58:39Z</time>
      </trkpt>
      <trkpt lat="45.87137" lon="6.45997">
        <ele>1475.7</ele>
        <time>2024-04-27T13:58:40Z</time>
      </trkpt>
      <trkpt lat="45.87138" lon="6.45996">
        <ele>1475.7</ele>
        <time>2024-04-27T13:58:41Z</time>
      </trkpt>
      <trkpt lat="45.8714" lon="6.45996">
        <ele>1475.7</ele>
        <time>2024-04-27T13:58:42Z</time>
      </trkpt>
      <trkpt lat="45.87141" lon="6.45996">
        <ele>1475.7</ele>
        <time>2024-04-27T13:58:43Z</time>
      </trkpt>
      <trkpt lat="45.87143" lon="6.45996">
        <ele>1474.6</ele>
        <time>2024-04-27T13:58:44Z</time>
      </trkpt>
      <trkpt lat="45.87144" lon="6.45996">
        <ele>1474.6</ele>
        <time>2024-04-27T13:58:45Z</time>
      </trkpt>
      <trkpt lat="45.87146" lon="6.45995">
        <ele>1473.6</ele>
        <time>2024-04-27T13:58:46Z</time>
      </trkpt>
      <trkpt lat="45.87147" lon="6.45995">
        <ele>1473.6</ele>
        <time>2024-04-27T13:58:47Z</time>
      </trkpt>
      <trkpt lat="45.87149" lon="6.45995">
        <ele>1473.6</ele>
        <time>2024-04-27T13:58:48Z</time>
      </trkpt>
      <trkpt lat="45.8715" lon="6.45994">
        <ele>1473.6</ele>
        <time>2024-04-27T13:58:49Z</time>
      </trkpt>
      <trkpt lat="45.87152" lon="6.45994">
        <ele>1472.7</ele>
        <time>2024-04-27T13:58:50Z</time>
      </trkpt>
      <trkpt lat="45.87154" lon="6.45993">
        <ele>1472.7</ele>
        <time>2024-04-27T13:58:51Z</time>
      </trkpt>
      <trkpt lat="45.87155" lon="6.45992">
        <ele>1472.7</ele>
        <time>2024-04-27T13:58:52Z</time>
      </trkpt>
      <trkpt lat="45.87157" lon="6.45991">
        <ele>1472.7</ele>
        <time>2024-04-27T13:58:53Z</time>
      </trkpt>
      <trkpt lat="45.87158" lon="6.4599">
        <ele>1472.7</ele>
        <time>2024-04-27T13:58:54Z</time>
      </trkpt>
      <trkpt lat="45.87159" lon="6.4599">
        <ele>1472.7</ele>
        <time>2024-04-27T13:58:55Z</time>
      </trkpt>
      <trkpt lat="45.8716" lon="6.45989">
        <ele>1472.7</ele>
        <time>2024-04-27T13:58:56Z</time>
      </trkpt>
      <trkpt lat="45.87162" lon="6.45989">
        <ele>1472.7</ele>
        <time>2024-04-27T13:58:57Z</time>
      </trkpt>
      <trkpt lat="45.87163" lon="6.45988">
        <ele>1472.7</ele>
        <time>2024-04-27T13:58:58Z</time>
      </trkpt>
      <trkpt lat="45.87164" lon="6.45987">
        <ele>1472.7</ele>
        <time>2024-04-27T13:58:59Z</time>
      </trkpt>
      <trkpt lat="45.87165" lon="6.45986">
        <ele>1471.6</ele>
        <time>2024-04-27T13:59:00Z</time>
      </trkpt>
      <trkpt lat="45.87166" lon="6.45985">
        <ele>1471.6</ele>
        <time>2024-04-27T13:59:01Z</time>
      </trkpt>
      <trkpt lat="45.87168" lon="6.45983">
        <ele>1471.6</ele>
        <time>2024-04-27T13:59:02Z</time>
      </trkpt>
      <trkpt lat="45.87169" lon="6.45983">
        <ele>1471.6</ele>
        <time>2024-04-27T13:59:03Z</time>
      </trkpt>
      <trkpt lat="45.8717" lon="6.45983">
        <ele>1471.6</ele>
        <time>2024-04-27T13:59:04Z</time>
      </trkpt>
      <trkpt lat="45.87171" lon="6.45982">
        <ele>1471.6</ele>
        <time>2024-04-27T13:59:05Z</time>
      </trkpt>
      <trkpt lat="45.87172" lon="6.45982">
        <ele>1471.6</ele>
        <time>2024-04-27T13:59:06Z</time>
      </trkpt>
      <trkpt lat="45.87174" lon="6.45982">
        <ele>1471.6</ele>
        <time>2024-04-27T13:59:07Z</time>
      </trkpt>
      <trkpt lat="45.87175" lon="6.45982">
        <ele>1471.6</ele>
        <time>2024-04-27T13:59:08Z</time>
      </trkpt>
      <trkpt lat="45.87176" lon="6.45982">
        <ele>1471.6</ele>
        <time>2024-04-27T13:59:09Z</time>
      </trkpt>
      <trkpt lat="45.87178" lon="6.45982">
        <ele>1471.6</ele>
        <time>2024-04-27T13:59:10Z</time>
      </trkpt>
      <trkpt lat="45.87179" lon="6.45982">
        <ele>1471.6</ele>
        <time>2024-04-27T13:59:11Z</time>
      </trkpt>
      <trkpt lat="45.87181" lon="6.45982">
        <ele>1470.7</ele>
        <time>2024-04-27T13:59:12Z</time>
      </trkpt>
      <trkpt lat="45.87182" lon="6.45981">
        <ele>1470.7</ele>
        <time>2024-04-27T13:59:13Z</time>
      </trkpt>
      <trkpt lat="45.87184" lon="6.45981">
        <ele>1470.7</ele>
        <time>2024-04-27T13:59:14Z</time>
      </trkpt>
      <trkpt lat="45.87185" lon="6.45981">
        <ele>1470.7</ele>
        <time>2024-04-27T13:59:15Z</time>
      </trkpt>
      <trkpt lat="45.87186" lon="6.45981">
        <ele>1470.7</ele>
        <time>2024-04-27T13:59:16Z</time>
      </trkpt>
      <trkpt lat="45.87187" lon="6.4598">
        <ele>1470.7</ele>
        <time>2024-04-27T13:59:17Z</time>
      </trkpt>
      <trkpt lat="45.87189" lon="6.4598">
        <ele>1469.6</ele>
        <time>2024-04-27T13:59:18Z</time>
      </trkpt>
      <trkpt lat="45.87191" lon="6.4598">
        <ele>1469.6</ele>
        <time>2024-04-27T13:59:19Z</time>
      </trkpt>
      <trkpt lat="45.87192" lon="6.4598">
        <ele>1469.6</ele>
        <time>2024-04-27T13:59:20Z</time>
      </trkpt>
      <trkpt lat="45.87194" lon="6.4598">
        <ele>1469.6</ele>
        <time>2024-04-27T13:59:21Z</time>
      </trkpt>
      <trkpt lat="45.87196" lon="6.45979">
        <ele>1469.6</ele>
        <time>2024-04-27T13:59:22Z</time>
      </trkpt>
      <trkpt lat="45.87197" lon="6.45979">
        <ele>1469.6</ele>
        <time>2024-04-27T13:59:23Z</time>
      </trkpt>
      <trkpt lat="45.87199" lon="6.45979">
        <ele>1469.6</ele>
        <time>2024-04-27T13:59:24Z</time>
      </trkpt>
      <trkpt lat="45.872" lon="6.45979">
        <ele>1469.6</ele>
        <time>2024-04-27T13:59:25Z</time>
      </trkpt>
      <trkpt lat="45.87202" lon="6.45979">
        <ele>1469.6</ele>
        <time>2024-04-27T13:59:26Z</time>
      </trkpt>
      <trkpt lat="45.87203" lon="6.45979">
        <ele>1469.6</ele>
        <time>2024-04-27T13:59:27Z</time>
      </trkpt>
      <trkpt lat="45.87205" lon="6.45979">
        <ele>1469.6</ele>
        <time>2024-04-27T13:59:28Z</time>
      </trkpt>
      <trkpt lat="45.87206" lon="6.45978">
        <ele>1469.6</ele>
        <time>2024-04-27T13:59:29Z</time>
      </trkpt>
      <trkpt lat="45.87208" lon="6.45978">
        <ele>1469.6</ele>
        <time>2024-04-27T13:59:30Z</time>
      </trkpt>
      <trkpt lat="45.87209" lon="6.45978">
        <ele>1469.6</ele>
        <time>2024-04-27T13:59:31Z</time>
      </trkpt>
      <trkpt lat="45.87211" lon="6.45979">
        <ele>1468.7</ele>
        <time>2024-04-27T13:59:32Z</time>
      </trkpt>
      <trkpt lat="45.87212" lon="6.45979">
        <ele>1468.7</ele>
        <time>2024-04-27T13:59:33Z</time>
      </trkpt>
      <trkpt lat="45.87214" lon="6.45979">
        <ele>1468.7</ele>
        <time>2024-04-27T13:59:34Z</time>
      </trkpt>
      <trkpt lat="45.87215" lon="6.45979">
        <ele>1468.7</ele>
        <time>2024-04-27T13:59:35Z</time>
      </trkpt>
      <trkpt lat="45.87216" lon="6.45978">
        <ele>1467.6</ele>
        <time>2024-04-27T13:59:36Z</time>
      </trkpt>
      <trkpt lat="45.87218" lon="6.45978">
        <ele>1467.6</ele>
        <time>2024-04-27T13:59:37Z</time>
      </trkpt>
      <trkpt lat="45.87219" lon="6.45979">
        <ele>1467.6</ele>
        <time>2024-04-27T13:59:38Z</time>
      </trkpt>
      <trkpt lat="45.87221" lon="6.45979">
        <ele>1467.6</ele>
        <time>2024-04-27T13:59:39Z</time>
      </trkpt>
      <trkpt lat="45.87222" lon="6.45979">
        <ele>1466.7</ele>
        <time>2024-04-27T13:59:40Z</time>
      </trkpt>
      <trkpt lat="45.87224" lon="6.45979">
        <ele>1466.7</ele>
        <time>2024-04-27T13:59:41Z</time>
      </trkpt>
      <trkpt lat="45.87225" lon="6.45979">
        <ele>1466.7</ele>
        <time>2024-04-27T13:59:42Z</time>
      </trkpt>
      <trkpt lat="45.87227" lon="6.45979">
        <ele>1466.7</ele>
        <time>2024-04-27T13:59:43Z</time>
      </trkpt>
      <trkpt lat="45.87228" lon="6.45979">
        <ele>1466.7</ele>
        <time>2024-04-27T13:59:44Z</time>
      </trkpt>
      <trkpt lat="45.87229" lon="6.45979">
        <ele>1466.7</ele>
        <time>2024-04-27T13:59:45Z</time>
      </trkpt>
      <trkpt lat="45.87231" lon="6.45978">
        <ele>1465.6</ele>
        <time>2024-04-27T13:59:46Z</time>
      </trkpt>
      <trkpt lat="45.87232" lon="6.45978">
        <ele>1465.6</ele>
        <time>2024-04-27T13:59:47Z</time>
      </trkpt>
      <trkpt lat="45.87234" lon="6.45978">
        <ele>1465.6</ele>
        <time>2024-04-27T13:59:48Z</time>
      </trkpt>
      <trkpt lat="45.87235" lon="6.45977">
        <ele>1465.6</ele>
        <time>2024-04-27T13:59:49Z</time>
      </trkpt>
      <trkpt lat="45.87236" lon="6.45977">
        <ele>1465.6</ele>
        <time>2024-04-27T13:59:50Z</time>
      </trkpt>
      <trkpt lat="45.87238" lon="6.45976">
        <ele>1465.6</ele>
        <time>2024-04-27T13:59:51Z</time>
      </trkpt>
      <trkpt lat="45.87239" lon="6.45976">
        <ele>1465.6</ele>
        <time>2024-04-27T13:59:52Z</time>
      </trkpt>
      <trkpt lat="45.8724" lon="6.45975">
        <ele>1465.6</ele>
        <time>2024-04-27T13:59:53Z</time>
      </trkpt>
      <trkpt lat="45.87242" lon="6.45975">
        <ele>1465.6</ele>
        <time>2024-04-27T13:59:54Z</time>
      </trkpt>
      <trkpt lat="45.87243" lon="6.45974">
        <ele>1465.6</ele>
        <time>2024-04-27T13:59:55Z</time>
      </trkpt>
      <trkpt lat="45.87245" lon="6.45974">
        <ele>1465.6</ele>
        <time>2024-04-27T13:59:56Z</time>
      </trkpt>
      <trkpt lat="45.87246" lon="6.45974">
        <ele>1465.6</ele>
        <time>2024-04-27T13:59:57Z</time>
      </trkpt>
      <trkpt lat="45.87248" lon="6.45974">
        <ele>1465.6</ele>
        <time>2024-04-27T13:59:58Z</time>
      </trkpt>
      <trkpt lat="45.87249" lon="6.45974">
        <ele>1465.6</ele>
        <time>2024-04-27T13:59:59Z</time>
      </trkpt>
      <trkpt lat="45.8725" lon="6.45974">
        <ele>1465.6</ele>
        <time>2024-04-27T14:00:00Z</time>
      </trkpt>
      <trkpt lat="45.87252" lon="6.45973">
        <ele>1465.6</ele>
        <time>2024-04-27T14:00:01Z</time>
      </trkpt>
      <trkpt lat="45.87253" lon="6.45973">
        <ele>1465.6</ele>
        <time>2024-04-27T14:00:02Z</time>
      </trkpt>
      <trkpt lat="45.87254" lon="6.45973">
        <ele>1465.6</ele>
        <time>2024-04-27T14:00:03Z</time>
      </trkpt>
      <trkpt lat="45.87255" lon="6.45973">
        <ele>1465.6</ele>
        <time>2024-04-27T14:00:04Z</time>
      </trkpt>
      <trkpt lat="45.87257" lon="6.45973">
        <ele>1465.6</ele>
        <time>2024-04-27T14:00:05Z</time>
      </trkpt>
      <trkpt lat="45.87258" lon="6.45973">
        <ele>1464.6</ele>
        <time>2024-04-27T14:00:06Z</time>
      </trkpt>
      <trkpt lat="45.8726" lon="6.45972">
        <ele>1464.6</ele>
        <time>2024-04-27T14:00:07Z</time>
      </trkpt>
      <trkpt lat="45.8726" lon="6.45972">
        <ele>1464.6</ele>
        <time>2024-04-27T14:00:08Z</time>
      </trkpt>
      <trkpt lat="45.87261" lon="6.45971">
        <ele>1464.6</ele>
        <time>2024-04-27T14:00:09Z</time>
      </trkpt>
      <trkpt lat="45.87261" lon="6.45971">
        <ele>1464.6</ele>
        <time>2024-04-27T14:00:10Z</time>
      </trkpt>
      <trkpt lat="45.87262" lon="6.4597">
        <ele>1464.6</ele>
        <time>2024-04-27T14:00:11Z</time>
      </trkpt>
      <trkpt lat="45.87263" lon="6.4597">
        <ele>1464.6</ele>
        <time>2024-04-27T14:00:12Z</time>
      </trkpt>
      <trkpt lat="45.87263" lon="6.45969">
        <ele>1464.6</ele>
        <time>2024-04-27T14:00:13Z</time>
      </trkpt>
      <trkpt lat="45.87263" lon="6.45969">
        <ele>1464.6</ele>
        <time>2024-04-27T14:00:14Z</time>
      </trkpt>
      <trkpt lat="45.87263" lon="6.45969">
        <ele>1464.6</ele>
        <time>2024-04-27T14:00:15Z</time>
      </trkpt>
      <trkpt lat="45.87263" lon="6.45969">
        <ele>1464.6</ele>
        <time>2024-04-27T14:00:16Z</time>
      </trkpt>
      <trkpt lat="45.87264" lon="6.45969">
        <ele>1464.6</ele>
        <time>2024-04-27T14:00:17Z</time>
      </trkpt>
      <trkpt lat="45.87264" lon="6.45969">
        <ele>1464.6</ele>
        <time>2024-04-27T14:00:18Z</time>
      </trkpt>
      <trkpt lat="45.87264" lon="6.4597">
        <ele>1464.6</ele>
        <time>2024-04-27T14:00:19Z</time>
      </trkpt>
      <trkpt lat="45.87263" lon="6.4597">
        <ele>1463.7</ele>
        <time>2024-04-27T14:00:20Z</time>
      </trkpt>
      <trkpt lat="45.87263" lon="6.4597">
        <ele>1463.7</ele>
        <time>2024-04-27T14:00:21Z</time>
      </trkpt>
      <trkpt lat="45.87263" lon="6.45969">
        <ele>1463.7</ele>
        <time>2024-04-27T14:00:22Z</time>
      </trkpt>
      <trkpt lat="45.87262" lon="6.45969">
        <ele>1463.7</ele>
        <time>2024-04-27T14:00:23Z</time>
      </trkpt>
      <trkpt lat="45.87262" lon="6.45969">
        <ele>1462.6</ele>
        <time>2024-04-27T14:00:24Z</time>
      </trkpt>
      <trkpt lat="45.87262" lon="6.45969">
        <ele>1462.6</ele>
        <time>2024-04-27T14:00:25Z</time>
      </trkpt>
      <trkpt lat="45.87262" lon="6.45969">
        <ele>1462.6</ele>
        <time>2024-04-27T14:00:26Z</time>
      </trkpt>
      <trkpt lat="45.87262" lon="6.45969">
        <ele>1462.6</ele>
        <time>2024-04-27T14:00:27Z</time>
      </trkpt>
      <trkpt lat="45.87262" lon="6.45969">
        <ele>1462.6</ele>
        <time>2024-04-27T14:00:28Z</time>
      </trkpt>
      <trkpt lat="45.87262" lon="6.45969">
        <ele>1462.6</ele>
        <time>2024-04-27T14:00:29Z</time>
      </trkpt>
      <trkpt lat="45.87262" lon="6.45969">
        <ele>1462.6</ele>
        <time>2024-04-27T14:00:30Z</time>
      </trkpt>
      <trkpt lat="45.87262" lon="6.45969">
        <ele>1462.6</ele>
        <time>2024-04-27T14:00:31Z</time>
      </trkpt>
      <trkpt lat="45.87262" lon="6.45969">
        <ele>1462.6</ele>
        <time>2024-04-27T14:00:32Z</time>
      </trkpt>
      <trkpt lat="45.87262" lon="6.45969">
        <ele>1462.6</ele>
        <time>2024-04-27T14:00:33Z</time>
      </trkpt>
      <trkpt lat="45.87263" lon="6.45969">
        <ele>1462.6</ele>
        <time>2024-04-27T14:00:34Z</time>
      </trkpt>
      <trkpt lat="45.87263" lon="6.45969">
        <ele>1462.6</ele>
        <time>2024-04-27T14:00:35Z</time>
      </trkpt>
      <trkpt lat="45.87263" lon="6.45969">
        <ele>1462.6</ele>
        <time>2024-04-27T14:00:36Z</time>
      </trkpt>
      <trkpt lat="45.87263" lon="6.4597">
        <ele>1462.6</ele>
        <time>2024-04-27T14:00:37Z</time>
      </trkpt>
      <trkpt lat="45.87263" lon="6.4597">
        <ele>1462.6</ele>
        <time>2024-04-27T14:00:38Z</time>
      </trkpt>
      <trkpt lat="45.87263" lon="6.4597">
        <ele>1462.6</ele>
        <time>2024-04-27T14:00:39Z</time>
      </trkpt>
      <trkpt lat="45.87263" lon="6.4597">
        <ele>1462.6</ele>
        <time>2024-04-27T14:00:40Z</time>
      </trkpt>
      <trkpt lat="45.87263" lon="6.4597">
        <ele>1462.6</ele>
        <time>2024-04-27T14:00:41Z</time>
      </trkpt>
      <trkpt lat="45.87263" lon="6.4597">
        <ele>1463.7</ele>
        <time>2024-04-27T14:00:42Z</time>
      </trkpt>
      <trkpt lat="45.87263" lon="6.45971">
        <ele>1463.7</ele>
        <time>2024-04-27T14:00:43Z</time>
      </trkpt>
      <trkpt lat="45.87263" lon="6.45971">
        <ele>1463.7</ele>
        <time>2024-04-27T14:00:44Z</time>
      </trkpt>
      <trkpt lat="45.87263" lon="6.45971">
        <ele>1463.7</ele>
        <time>2024-04-27T14:00:45Z</time>
      </trkpt>
      <trkpt lat="45.87263" lon="6.45972">
        <ele>1463.7</ele>
        <time>2024-04-27T14:00:46Z</time>
      </trkpt>
      <trkpt lat="45.87264" lon="6.45972">
        <ele>1463.7</ele>
        <time>2024-04-27T14:00:47Z</time>
      </trkpt>
      <trkpt lat="45.87264" lon="6.45973">
        <ele>1463.7</ele>
        <time>2024-04-27T14:00:48Z</time>
      </trkpt>
      <trkpt lat="45.87265" lon="6.45974">
        <ele>1463.7</ele>
        <time>2024-04-27T14:00:49Z</time>
      </trkpt>
      <trkpt lat="45.87266" lon="6.45975">
        <ele>1463.7</ele>
        <time>2024-04-27T14:00:50Z</time>
      </trkpt>
      <trkpt lat="45.87267" lon="6.45976">
        <ele>1463.7</ele>
        <time>2024-04-27T14:00:51Z</time>
      </trkpt>
      <trkpt lat="45.87268" lon="6.45977">
        <ele>1464.6</ele>
        <time>2024-04-27T14:00:52Z</time>
      </trkpt>
      <trkpt lat="45.8727" lon="6.45977">
        <ele>1464.6</ele>
        <time>2024-04-27T14:00:53Z</time>
      </trkpt>
      <trkpt lat="45.87271" lon="6.45978">
        <ele>1464.6</ele>
        <time>2024-04-27T14:00:54Z</time>
      </trkpt>
      <trkpt lat="45.87272" lon="6.45979">
        <ele>1464.6</ele>
        <time>2024-04-27T14:00:55Z</time>
      </trkpt>
      <trkpt lat="45.87274" lon="6.45981">
        <ele>1464.6</ele>
        <time>2024-04-27T14:00:56Z</time>
      </trkpt>
      <trkpt lat="45.87275" lon="6.45981">
        <ele>1464.6</ele>
        <time>2024-04-27T14:00:57Z</time>
      </trkpt>
      <trkpt lat="45.87276" lon="6.45982">
        <ele>1464.6</ele>
        <time>2024-04-27T14:00:58Z</time>
      </trkpt>
      <trkpt lat="45.87277" lon="6.45982">
        <ele>1464.6</ele>
        <time>2024-04-27T14:00:59Z</time>
      </trkpt>
      <trkpt lat="45.87279" lon="6.45983">
        <ele>1465.6</ele>
        <time>2024-04-27T14:01:00Z</time>
      </trkpt>
      <trkpt lat="45.8728" lon="6.45982">
        <ele>1465.6</ele>
        <time>2024-04-27T14:01:01Z</time>
      </trkpt>
      <trkpt lat="45.87281" lon="6.45983">
        <ele>1465.6</ele>
        <time>2024-04-27T14:01:02Z</time>
      </trkpt>
      <trkpt lat="45.87282" lon="6.45983">
        <ele>1465.6</ele>
        <time>2024-04-27T14:01:03Z</time>
      </trkpt>
      <trkpt lat="45.87284" lon="6.45983">
        <ele>1465.6</ele>
        <time>2024-04-27T14:01:04Z</time>
      </trkpt>
      <trkpt lat="45.87285" lon="6.45984">
        <ele>1465.6</ele>
        <time>2024-04-27T14:01:05Z</time>
      </trkpt>
      <trkpt lat="45.87286" lon="6.45984">
        <ele>1465.6</ele>
        <time>2024-04-27T14:01:06Z</time>
      </trkpt>
      <trkpt lat="45.87287" lon="6.45985">
        <ele>1465.6</ele>
        <time>2024-04-27T14:01:07Z</time>
      </trkpt>
      <trkpt lat="45.87289" lon="6.45985">
        <ele>1465.6</ele>
        <time>2024-04-27T14:01:08Z</time>
      </trkpt>
      <trkpt lat="45.8729" lon="6.45986">
        <ele>1465.6</ele>
        <time>2024-04-27T14:01:09Z</time>
      </trkpt>
      <trkpt lat="45.87291" lon="6.45987">
        <ele>1465.6</ele>
        <time>2024-04-27T14:01:10Z</time>
      </trkpt>
      <trkpt lat="45.87292" lon="6.45987">
        <ele>1465.6</ele>
        <time>2024-04-27T14:01:11Z</time>
      </trkpt>
      <trkpt lat="45.87292" lon="6.45988">
        <ele>1465.6</ele>
        <time>2024-04-27T14:01:12Z</time>
      </trkpt>
      <trkpt lat="45.87293" lon="6.45989">
        <ele>1465.6</ele>
        <time>2024-04-27T14:01:13Z</time>
      </trkpt>
      <trkpt lat="45.87294" lon="6.4599">
        <ele>1465.6</ele>
        <time>2024-04-27T14:01:14Z</time>
      </trkpt>
      <trkpt lat="45.87295" lon="6.4599">
        <ele>1465.6</ele>
        <time>2024-04-27T14:01:15Z</time>
      </trkpt>
      <trkpt lat="45.87296" lon="6.4599">
        <ele>1465.6</ele>
        <time>2024-04-27T14:01:16Z</time>
      </trkpt>
      <trkpt lat="45.87297" lon="6.4599">
        <ele>1465.6</ele>
        <time>2024-04-27T14:01:17Z</time>
      </trkpt>
      <trkpt lat="45.87298" lon="6.4599">
        <ele>1465.6</ele>
        <time>2024-04-27T14:01:18Z</time>
      </trkpt>
      <trkpt lat="45.87299" lon="6.4599">
        <ele>1465.6</ele>
        <time>2024-04-27T14:01:19Z</time>
      </trkpt>
      <trkpt lat="45.873" lon="6.4599">
        <ele>1465.6</ele>
        <time>2024-04-27T14:01:20Z</time>
      </trkpt>
      <trkpt lat="45.87302" lon="6.4599">
        <ele>1465.6</ele>
        <time>2024-04-27T14:01:21Z</time>
      </trkpt>
      <trkpt lat="45.87303" lon="6.4599">
        <ele>1465.6</ele>
        <time>2024-04-27T14:01:22Z</time>
      </trkpt>
      <trkpt lat="45.87304" lon="6.4599">
        <ele>1465.6</ele>
        <time>2024-04-27T14:01:23Z</time>
      </trkpt>
      <trkpt lat="45.87305" lon="6.45991">
        <ele>1465.6</ele>
        <time>2024-04-27T14:01:24Z</time>
      </trkpt>
      <trkpt lat="45.87306" lon="6.45991">
        <ele>1465.6</ele>
        <time>2024-04-27T14:01:25Z</time>
      </trkpt>
      <trkpt lat="45.87306" lon="6.45991">
        <ele>1466.7</ele>
        <time>2024-04-27T14:01:26Z</time>
      </trkpt>
      <trkpt lat="45.87307" lon="6.45991">
        <ele>1466.7</ele>
        <time>2024-04-27T14:01:27Z</time>
      </trkpt>
      <trkpt lat="45.87309" lon="6.45991">
        <ele>1466.7</ele>
        <time>2024-04-27T14:01:28Z</time>
      </trkpt>
      <trkpt lat="45.8731" lon="6.45991">
        <ele>1466.7</ele>
        <time>2024-04-27T14:01:29Z</time>
      </trkpt>
      <trkpt lat="45.87311" lon="6.45992">
        <ele>1466.7</ele>
        <time>2024-04-27T14:01:30Z</time>
      </trkpt>
      <trkpt lat="45.87312" lon="6.45992">
        <ele>1466.7</ele>
        <time>2024-04-27T14:01:31Z</time>
      </trkpt>
      <trkpt lat="45.87313" lon="6.45992">
        <ele>1466.7</ele>
        <time>2024-04-27T14:01:32Z</time>
      </trkpt>
      <trkpt lat="45.87314" lon="6.45993">
        <ele>1466.7</ele>
        <time>2024-04-27T14:01:33Z</time>
      </trkpt>
      <trkpt lat="45.87316" lon="6.45993">
        <ele>1466.7</ele>
        <time>2024-04-27T14:01:34Z</time>
      </trkpt>
      <trkpt lat="45.87317" lon="6.45993">
        <ele>1466.7</ele>
        <time>2024-04-27T14:01:35Z</time>
      </trkpt>
      <trkpt lat="45.87318" lon="6.45994">
        <ele>1466.7</ele>
        <time>2024-04-27T14:01:36Z</time>
      </trkpt>
      <trkpt lat="45.87319" lon="6.45994">
        <ele>1466.7</ele>
        <time>2024-04-27T14:01:37Z</time>
      </trkpt>
      <trkpt lat="45.87321" lon="6.45994">
        <ele>1466.7</ele>
        <time>2024-04-27T14:01:38Z</time>
      </trkpt>
      <trkpt lat="45.87322" lon="6.45994">
        <ele>1466.7</ele>
        <time>2024-04-27T14:01:39Z</time>
      </trkpt>
      <trkpt lat="45.87323" lon="6.45994">
        <ele>1467.6</ele>
        <time>2024-04-27T14:01:40Z</time>
      </trkpt>
      <trkpt lat="45.87324" lon="6.45994">
        <ele>1467.6</ele>
        <time>2024-04-27T14:01:41Z</time>
      </trkpt>
      <trkpt lat="45.87325" lon="6.45995">
        <ele>1467.6</ele>
        <time>2024-04-27T14:01:42Z</time>
      </trkpt>
      <trkpt lat="45.87326" lon="6.45995">
        <ele>1467.6</ele>
        <time>2024-04-27T14:01:43Z</time>
      </trkpt>
      <trkpt lat="45.87327" lon="6.45996">
        <ele>1467.6</ele>
        <time>2024-04-27T14:01:44Z</time>
      </trkpt>
      <trkpt lat="45.87328" lon="6.45997">
        <ele>1467.6</ele>
        <time>2024-04-27T14:01:45Z</time>
      </trkpt>
      <trkpt lat="45.87329" lon="6.45997">
        <ele>1467.6</ele>
        <time>2024-04-27T14:01:46Z</time>
      </trkpt>
      <trkpt lat="45.8733" lon="6.45998">
        <ele>1467.6</ele>
        <time>2024-04-27T14:01:47Z</time>
      </trkpt>
      <trkpt lat="45.87331" lon="6.45998">
        <ele>1467.6</ele>
        <time>2024-04-27T14:01:48Z</time>
      </trkpt>
      <trkpt lat="45.87332" lon="6.45999">
        <ele>1467.6</ele>
        <time>2024-04-27T14:01:49Z</time>
      </trkpt>
      <trkpt lat="45.87334" lon="6.45999">
        <ele>1467.6</ele>
        <time>2024-04-27T14:01:50Z</time>
      </trkpt>
      <trkpt lat="45.87335" lon="6.45999">
        <ele>1467.6</ele>
        <time>2024-04-27T14:01:51Z</time>
      </trkpt>
      <trkpt lat="45.87337" lon="6.45999">
        <ele>1467.6</ele>
        <time>2024-04-27T14:01:52Z</time>
      </trkpt>
      <trkpt lat="45.87338" lon="6.45999">
        <ele>1467.6</ele>
        <time>2024-04-27T14:01:53Z</time>
      </trkpt>
      <trkpt lat="45.87339" lon="6.46">
        <ele>1467.6</ele>
        <time>2024-04-27T14:01:54Z</time>
      </trkpt>
      <trkpt lat="45.8734" lon="6.46">
        <ele>1467.6</ele>
        <time>2024-04-27T14:01:55Z</time>
      </trkpt>
      <trkpt lat="45.87342" lon="6.46">
        <ele>1467.6</ele>
        <time>2024-04-27T14:01:56Z</time>
      </trkpt>
      <trkpt lat="45.87344" lon="6.45999">
        <ele>1467.6</ele>
        <time>2024-04-27T14:01:57Z</time>
      </trkpt>
      <trkpt lat="45.87345" lon="6.45999">
        <ele>1467.6</ele>
        <time>2024-04-27T14:01:58Z</time>
      </trkpt>
      <trkpt lat="45.87347" lon="6.46">
        <ele>1467.6</ele>
        <time>2024-04-27T14:01:59Z</time>
      </trkpt>
      <trkpt lat="45.87347" lon="6.46001">
        <ele>1467.6</ele>
        <time>2024-04-27T14:02:00Z</time>
      </trkpt>
      <trkpt lat="45.87348" lon="6.46001">
        <ele>1467.6</ele>
        <time>2024-04-27T14:02:01Z</time>
      </trkpt>
      <trkpt lat="45.8735" lon="6.46001">
        <ele>1467.6</ele>
        <time>2024-04-27T14:02:02Z</time>
      </trkpt>
      <trkpt lat="45.87351" lon="6.46001">
        <ele>1467.6</ele>
        <time>2024-04-27T14:02:03Z</time>
      </trkpt>
      <trkpt lat="45.87352" lon="6.46002">
        <ele>1467.6</ele>
        <time>2024-04-27T14:02:04Z</time>
      </trkpt>
      <trkpt lat="45.87353" lon="6.46003">
        <ele>1467.6</ele>
        <time>2024-04-27T14:02:05Z</time>
      </trkpt>
      <trkpt lat="45.87353" lon="6.46004">
        <ele>1467.6</ele>
        <time>2024-04-27T14:02:06Z</time>
      </trkpt>
      <trkpt lat="45.87354" lon="6.46006">
        <ele>1467.6</ele>
        <time>2024-04-27T14:02:07Z</time>
      </trkpt>
      <trkpt lat="45.87355" lon="6.46007">
        <ele>1466.7</ele>
        <time>2024-04-27T14:02:08Z</time>
      </trkpt>
      <trkpt lat="45.87355" lon="6.46008">
        <ele>1466.7</ele>
        <time>2024-04-27T14:02:09Z</time>
      </trkpt>
      <trkpt lat="45.87356" lon="6.46008">
        <ele>1466.7</ele>
        <time>2024-04-27T14:02:10Z</time>
      </trkpt>
      <trkpt lat="45.87356" lon="6.46008">
        <ele>1466.7</ele>
        <time>2024-04-27T14:02:11Z</time>
      </trkpt>
      <trkpt lat="45.87356" lon="6.46008">
        <ele>1466.7</ele>
        <time>2024-04-27T14:02:12Z</time>
      </trkpt>
      <trkpt lat="45.87356" lon="6.46008">
        <ele>1466.7</ele>
        <time>2024-04-27T14:02:13Z</time>
      </trkpt>
      <trkpt lat="45.87356" lon="6.46008">
        <ele>1466.7</ele>
        <time>2024-04-27T14:02:14Z</time>
      </trkpt>
      <trkpt lat="45.87356" lon="6.46009">
        <ele>1466.7</ele>
        <time>2024-04-27T14:02:15Z</time>
      </trkpt>
      <trkpt lat="45.87356" lon="6.46008">
        <ele>1466.7</ele>
        <time>2024-04-27T14:02:16Z</time>
      </trkpt>
      <trkpt lat="45.87356" lon="6.46008">
        <ele>1466.7</ele>
        <time>2024-04-27T14:02:17Z</time>
      </trkpt>
      <trkpt lat="45.87356" lon="6.46008">
        <ele>1466.7</ele>
        <time>2024-04-27T14:02:18Z</time>
      </trkpt>
      <trkpt lat="45.87356" lon="6.46008">
        <ele>1466.7</ele>
        <time>2024-04-27T14:02:19Z</time>
      </trkpt>
      <trkpt lat="45.87355" lon="6.46008">
        <ele>1466.7</ele>
        <time>2024-04-27T14:02:20Z</time>
      </trkpt>
      <trkpt lat="45.87355" lon="6.46008">
        <ele>1466.7</ele>
        <time>2024-04-27T14:02:21Z</time>
      </trkpt>
      <trkpt lat="45.87355" lon="6.46008">
        <ele>1466.7</ele>
        <time>2024-04-27T14:02:22Z</time>
      </trkpt>
      <trkpt lat="45.87355" lon="6.46008">
        <ele>1466.7</ele>
        <time>2024-04-27T14:02:23Z</time>
      </trkpt>
      <trkpt lat="45.87355" lon="6.46008">
        <ele>1466.7</ele>
        <time>2024-04-27T14:02:24Z</time>
      </trkpt>
      <trkpt lat="45.87355" lon="6.46008">
        <ele>1466.7</ele>
        <time>2024-04-27T14:02:25Z</time>
      </trkpt>
      <trkpt lat="45.87355" lon="6.46008">
        <ele>1466.7</ele>
        <time>2024-04-27T14:02:26Z</time>
      </trkpt>
      <trkpt lat="45.87355" lon="6.46008">
        <ele>1466.7</ele>
        <time>2024-04-27T14:02:27Z</time>
      </trkpt>
      <trkpt lat="45.87356" lon="6.46009">
        <ele>1466.7</ele>
        <time>2024-04-27T14:02:28Z</time>
      </trkpt>
      <trkpt lat="45.87356" lon="6.4601">
        <ele>1466.7</ele>
        <time>2024-04-27T14:02:29Z</time>
      </trkpt>
      <trkpt lat="45.87356" lon="6.46012">
        <ele>1467.6</ele>
        <time>2024-04-27T14:02:30Z</time>
      </trkpt>
      <trkpt lat="45.87357" lon="6.46014">
        <ele>1467.6</ele>
        <time>2024-04-27T14:02:31Z</time>
      </trkpt>
      <trkpt lat="45.87357" lon="6.46015">
        <ele>1467.6</ele>
        <time>2024-04-27T14:02:32Z</time>
      </trkpt>
      <trkpt lat="45.87358" lon="6.46017">
        <ele>1467.6</ele>
        <time>2024-04-27T14:02:33Z</time>
      </trkpt>
      <trkpt lat="45.87359" lon="6.46018">
        <ele>1468.7</ele>
        <time>2024-04-27T14:02:34Z</time>
      </trkpt>
      <trkpt lat="45.8736" lon="6.4602">
        <ele>1468.7</ele>
        <time>2024-04-27T14:02:35Z</time>
      </trkpt>
      <trkpt lat="45.8736" lon="6.46022">
        <ele>1468.7</ele>
        <time>2024-04-27T14:02:36Z</time>
      </trkpt>
      <trkpt lat="45.87361" lon="6.46024">
        <ele>1468.7</ele>
        <time>2024-04-27T14:02:37Z</time>
      </trkpt>
      <trkpt lat="45.87361" lon="6.46025">
        <ele>1469.6</ele>
        <time>2024-04-27T14:02:38Z</time>
      </trkpt>
      <trkpt lat="45.87361" lon="6.46027">
        <ele>1469.6</ele>
        <time>2024-04-27T14:02:39Z</time>
      </trkpt>
      <trkpt lat="45.87361" lon="6.46028">
        <ele>1469.6</ele>
        <time>2024-04-27T14:02:40Z</time>
      </trkpt>
      <trkpt lat="45.87361" lon="6.4603">
        <ele>1469.6</ele>
        <time>2024-04-27T14:02:41Z</time>
      </trkpt>
      <trkpt lat="45.87362" lon="6.46031">
        <ele>1469.6</ele>
        <time>2024-04-27T14:02:42Z</time>
      </trkpt>
      <trkpt lat="45.87362" lon="6.46032">
        <ele>1469.6</ele>
        <time>2024-04-27T14:02:43Z</time>
      </trkpt>
      <trkpt lat="45.87363" lon="6.46033">
        <ele>1469.6</ele>
        <time>2024-04-27T14:02:44Z</time>
      </trkpt>
      <trkpt lat="45.87363" lon="6.46034">
        <ele>1469.6</ele>
        <time>2024-04-27T14:02:45Z</time>
      </trkpt>
      <trkpt lat="45.87363" lon="6.46035">
        <ele>1469.6</ele>
        <time>2024-04-27T14:02:46Z</time>
      </trkpt>
      <trkpt lat="45.87364" lon="6.46036">
        <ele>1469.6</ele>
        <time>2024-04-27T14:02:47Z</time>
      </trkpt>
      <trkpt lat="45.87364" lon="6.46038">
        <ele>1469.6</ele>
        <time>2024-04-27T14:02:48Z</time>
      </trkpt>
      <trkpt lat="45.87364" lon="6.46039">
        <ele>1469.6</ele>
        <time>2024-04-27T14:02:49Z</time>
      </trkpt>
      <trkpt lat="45.87364" lon="6.4604">
        <ele>1470.7</ele>
        <time>2024-04-27T14:02:50Z</time>
      </trkpt>
      <trkpt lat="45.87365" lon="6.46041">
        <ele>1470.7</ele>
        <time>2024-04-27T14:02:51Z</time>
      </trkpt>
      <trkpt lat="45.87366" lon="6.46042">
        <ele>1470.7</ele>
        <time>2024-04-27T14:02:52Z</time>
      </trkpt>
      <trkpt lat="45.87366" lon="6.46043">
        <ele>1470.7</ele>
        <time>2024-04-27T14:02:53Z</time>
      </trkpt>
      <trkpt lat="45.87367" lon="6.46045">
        <ele>1470.7</ele>
        <time>2024-04-27T14:02:54Z</time>
      </trkpt>
      <trkpt lat="45.87367" lon="6.46046">
        <ele>1470.7</ele>
        <time>2024-04-27T14:02:55Z</time>
      </trkpt>
      <trkpt lat="45.87368" lon="6.46047">
        <ele>1469.6</ele>
        <time>2024-04-27T14:02:56Z</time>
      </trkpt>
      <trkpt lat="45.87368" lon="6.46049">
        <ele>1469.6</ele>
        <time>2024-04-27T14:02:57Z</time>
      </trkpt>
      <trkpt lat="45.87369" lon="6.46051">
        <ele>1469.6</ele>
        <time>2024-04-27T14:02:58Z</time>
      </trkpt>
      <trkpt lat="45.87369" lon="6.46052">
        <ele>1469.6</ele>
        <time>2024-04-27T14:02:59Z</time>
      </trkpt>
      <trkpt lat="45.87369" lon="6.46052">
        <ele>1469.6</ele>
        <time>2024-04-27T14:03:00Z</time>
      </trkpt>
      <trkpt lat="45.87368" lon="6.46052">
        <ele>1469.6</ele>
        <time>2024-04-27T14:03:01Z</time>
      </trkpt>
      <trkpt lat="45.87368" lon="6.46053">
        <ele>1470.7</ele>
        <time>2024-04-27T14:03:02Z</time>
      </trkpt>
      <trkpt lat="45.87367" lon="6.46053">
        <ele>1470.7</ele>
        <time>2024-04-27T14:03:03Z</time>
      </trkpt>
      <trkpt lat="45.87367" lon="6.46053">
        <ele>1470.7</ele>
        <time>2024-04-27T14:03:04Z</time>
      </trkpt>
      <trkpt lat="45.87367" lon="6.46052">
        <ele>1470.7</ele>
        <time>2024-04-27T14:03:05Z</time>
      </trkpt>
      <trkpt lat="45.87368" lon="6.46052">
        <ele>1471.6</ele>
        <time>2024-04-27T14:03:06Z</time>
      </trkpt>
      <trkpt lat="45.87368" lon="6.46052">
        <ele>1471.6</ele>
        <time>2024-04-27T14:03:07Z</time>
      </trkpt>
      <trkpt lat="45.87368" lon="6.46051">
        <ele>1471.6</ele>
        <time>2024-04-27T14:03:08Z</time>
      </trkpt>
      <trkpt lat="45.87369" lon="6.46051">
        <ele>1471.6</ele>
        <time>2024-04-27T14:03:09Z</time>
      </trkpt>
      <trkpt lat="45.87369" lon="6.46051">
        <ele>1471.6</ele>
        <time>2024-04-27T14:03:10Z</time>
      </trkpt>
      <trkpt lat="45.87369" lon="6.46051">
        <ele>1471.6</ele>
        <time>2024-04-27T14:03:11Z</time>
      </trkpt>
      <trkpt lat="45.87369" lon="6.46051">
        <ele>1471.6</ele>
        <time>2024-04-27T14:03:12Z</time>
      </trkpt>
      <trkpt lat="45.87369" lon="6.4605">
        <ele>1471.6</ele>
        <time>2024-04-27T14:03:13Z</time>
      </trkpt>
      <trkpt lat="45.87369" lon="6.4605">
        <ele>1470.7</ele>
        <time>2024-04-27T14:03:14Z</time>
      </trkpt>
      <trkpt lat="45.87369" lon="6.4605">
        <ele>1470.7</ele>
        <time>2024-04-27T14:03:15Z</time>
      </trkpt>
      <trkpt lat="45.87369" lon="6.4605">
        <ele>1470.7</ele>
        <time>2024-04-27T14:03:16Z</time>
      </trkpt>
      <trkpt lat="45.87369" lon="6.4605">
        <ele>1470.7</ele>
        <time>2024-04-27T14:03:17Z</time>
      </trkpt>
      <trkpt lat="45.87369" lon="6.4605">
        <ele>1469.6</ele>
        <time>2024-04-27T14:03:18Z</time>
      </trkpt>
      <trkpt lat="45.87369" lon="6.4605">
        <ele>1469.6</ele>
        <time>2024-04-27T14:03:19Z</time>
      </trkpt>
      <trkpt lat="45.87369" lon="6.4605">
        <ele>1469.6</ele>
        <time>2024-04-27T14:03:20Z</time>
      </trkpt>
      <trkpt lat="45.87369" lon="6.4605">
        <ele>1469.6</ele>
        <time>2024-04-27T14:03:21Z</time>
      </trkpt>
      <trkpt lat="45.87369" lon="6.4605">
        <ele>1469.6</ele>
        <time>2024-04-27T14:03:22Z</time>
      </trkpt>
      <trkpt lat="45.87369" lon="6.4605">
        <ele>1469.6</ele>
        <time>2024-04-27T14:03:23Z</time>
      </trkpt>
      <trkpt lat="45.87369" lon="6.4605">
        <ele>1469.6</ele>
        <time>2024-04-27T14:03:24Z</time>
      </trkpt>
      <trkpt lat="45.87369" lon="6.4605">
        <ele>1469.6</ele>
        <time>2024-04-27T14:03:25Z</time>
      </trkpt>
      <trkpt lat="45.87369" lon="6.4605">
        <ele>1469.6</ele>
        <time>2024-04-27T14:03:26Z</time>
      </trkpt>
      <trkpt lat="45.87369" lon="6.4605">
        <ele>1469.6</ele>
        <time>2024-04-27T14:03:27Z</time>
      </trkpt>
      <trkpt lat="45.87369" lon="6.4605">
        <ele>1469.6</ele>
        <time>2024-04-27T14:03:28Z</time>
      </trkpt>
      <trkpt lat="45.87369" lon="6.46051">
        <ele>1469.6</ele>
        <time>2024-04-27T14:03:29Z</time>
      </trkpt>
      <trkpt lat="45.87369" lon="6.46051">
        <ele>1469.6</ele>
        <time>2024-04-27T14:03:30Z</time>
      </trkpt>
      <trkpt lat="45.87369" lon="6.46051">
        <ele>1469.6</ele>
        <time>2024-04-27T14:03:31Z</time>
      </trkpt>
      <trkpt lat="45.87369" lon="6.46051">
        <ele>1469.6</ele>
        <time>2024-04-27T14:03:32Z</time>
      </trkpt>
      <trkpt lat="45.87369" lon="6.46051">
        <ele>1469.6</ele>
        <time>2024-04-27T14:03:33Z</time>
      </trkpt>
      <trkpt lat="45.87369" lon="6.46051">
        <ele>1469.6</ele>
        <time>2024-04-27T14:03:34Z</time>
      </trkpt>
      <trkpt lat="45.87369" lon="6.46051">
        <ele>1469.6</ele>
        <time>2024-04-27T14:03:35Z</time>
      </trkpt>
      <trkpt lat="45.87369" lon="6.46051">
        <ele>1469.6</ele>
        <time>2024-04-27T14:03:36Z</time>
      </trkpt>
      <trkpt lat="45.87369" lon="6.46051">
        <ele>1469.6</ele>
        <time>2024-04-27T14:03:37Z</time>
      </trkpt>
      <trkpt lat="45.87369" lon="6.46051">
        <ele>1469.6</ele>
        <time>2024-04-27T14:03:38Z</time>
      </trkpt>
      <trkpt lat="45.87368" lon="6.46051">
        <ele>1469.6</ele>
        <time>2024-04-27T14:03:39Z</time>
      </trkpt>
      <trkpt lat="45.87368" lon="6.46051">
        <ele>1469.6</ele>
        <time>2024-04-27T14:03:40Z</time>
      </trkpt>
      <trkpt lat="45.87368" lon="6.46051">
        <ele>1469.6</ele>
        <time>2024-04-27T14:03:41Z</time>
      </trkpt>
      <trkpt lat="45.87368" lon="6.4605">
        <ele>1469.6</ele>
        <time>2024-04-27T14:03:42Z</time>
      </trkpt>
      <trkpt lat="45.87368" lon="6.4605">
        <ele>1469.6</ele>
        <time>2024-04-27T14:03:43Z</time>
      </trkpt>
      <trkpt lat="45.87368" lon="6.4605">
        <ele>1469.6</ele>
        <time>2024-04-27T14:03:44Z</time>
      </trkpt>
      <trkpt lat="45.87368" lon="6.4605">
        <ele>1469.6</ele>
        <time>2024-04-27T14:03:45Z</time>
      </trkpt>
      <trkpt lat="45.87368" lon="6.4605">
        <ele>1469.6</ele>
        <time>2024-04-27T14:03:46Z</time>
      </trkpt>
      <trkpt lat="45.87368" lon="6.4605">
        <ele>1469.6</ele>
        <time>2024-04-27T14:03:47Z</time>
      </trkpt>
      <trkpt lat="45.87368" lon="6.4605">
        <ele>1468.7</ele>
        <time>2024-04-27T14:03:48Z</time>
      </trkpt>
      <trkpt lat="45.87368" lon="6.4605">
        <ele>1468.7</ele>
        <time>2024-04-27T14:03:49Z</time>
      </trkpt>
      <trkpt lat="45.87368" lon="6.4605">
        <ele>1468.7</ele>
        <time>2024-04-27T14:03:50Z</time>
      </trkpt>
      <trkpt lat="45.87368" lon="6.4605">
        <ele>1468.7</ele>
        <time>2024-04-27T14:03:51Z</time>
      </trkpt>
      <trkpt lat="45.87368" lon="6.4605">
        <ele>1468.7</ele>
        <time>2024-04-27T14:03:52Z</time>
      </trkpt>
      <trkpt lat="45.87368" lon="6.4605">
        <ele>1468.7</ele>
        <time>2024-04-27T14:03:53Z</time>
      </trkpt>
      <trkpt lat="45.87368" lon="6.4605">
        <ele>1468.7</ele>
        <time>2024-04-27T14:03:54Z</time>
      </trkpt>
      <trkpt lat="45.87368" lon="6.4605">
        <ele>1468.7</ele>
        <time>2024-04-27T14:03:55Z</time>
      </trkpt>
      <trkpt lat="45.87368" lon="6.4605">
        <ele>1468.7</ele>
        <time>2024-04-27T14:03:56Z</time>
      </trkpt>
      <trkpt lat="45.87368" lon="6.4605">
        <ele>1468.7</ele>
        <time>2024-04-27T14:03:57Z</time>
      </trkpt>
      <trkpt lat="45.87368" lon="6.4605">
        <ele>1469.6</ele>
        <time>2024-04-27T14:03:58Z</time>
      </trkpt>
      <trkpt lat="45.87368" lon="6.4605">
        <ele>1469.6</ele>
        <time>2024-04-27T14:03:59Z</time>
      </trkpt>
      <trkpt lat="45.87368" lon="6.4605">
        <ele>1469.6</ele>
        <time>2024-04-27T14:04:00Z</time>
      </trkpt>
      <trkpt lat="45.87368" lon="6.4605">
        <ele>1469.6</ele>
        <time>2024-04-27T14:04:01Z</time>
      </trkpt>
      <trkpt lat="45.87368" lon="6.46049">
        <ele>1469.6</ele>
        <time>2024-04-27T14:04:02Z</time>
      </trkpt>
      <trkpt lat="45.87368" lon="6.46049">
        <ele>1469.6</ele>
        <time>2024-04-27T14:04:03Z</time>
      </trkpt>
      <trkpt lat="45.87368" lon="6.46049">
        <ele>1469.6</ele>
        <time>2024-04-27T14:04:04Z</time>
      </trkpt>
      <trkpt lat="45.87368" lon="6.46049">
        <ele>1469.6</ele>
        <time>2024-04-27T14:04:05Z</time>
      </trkpt>
      <trkpt lat="45.87368" lon="6.46049">
        <ele>1469.6</ele>
        <time>2024-04-27T14:04:06Z</time>
      </trkpt>
      <trkpt lat="45.87368" lon="6.46048">
        <ele>1469.6</ele>
        <time>2024-04-27T14:04:07Z</time>
      </trkpt>
      <trkpt lat="45.87368" lon="6.46048">
        <ele>1469.6</ele>
        <time>2024-04-27T14:04:08Z</time>
      </trkpt>
      <trkpt lat="45.87368" lon="6.46048">
        <ele>1469.6</ele>
        <time>2024-04-27T14:04:09Z</time>
      </trkpt>
      <trkpt lat="45.87368" lon="6.46048">
        <ele>1469.6</ele>
        <time>2024-04-27T14:04:10Z</time>
      </trkpt>
      <trkpt lat="45.87368" lon="6.46048">
        <ele>1469.6</ele>
        <time>2024-04-27T14:04:11Z</time>
      </trkpt>
      <trkpt lat="45.87368" lon="6.46048">
        <ele>1469.6</ele>
        <time>2024-04-27T14:04:12Z</time>
      </trkpt>
      <trkpt lat="45.87368" lon="6.46048">
        <ele>1469.6</ele>
        <time>2024-04-27T14:04:13Z</time>
      </trkpt>
      <trkpt lat="45.87368" lon="6.46048">
        <ele>1469.6</ele>
        <time>2024-04-27T14:04:14Z</time>
      </trkpt>
      <trkpt lat="45.87368" lon="6.46048">
        <ele>1469.6</ele>
        <time>2024-04-27T14:04:15Z</time>
      </trkpt>
      <trkpt lat="45.87368" lon="6.46048">
        <ele>1469.6</ele>
        <time>2024-04-27T14:04:16Z</time>
      </trkpt>
      <trkpt lat="45.87368" lon="6.46048">
        <ele>1469.6</ele>
        <time>2024-04-27T14:04:17Z</time>
      </trkpt>
      <trkpt lat="45.87369" lon="6.46048">
        <ele>1469.6</ele>
        <time>2024-04-27T14:04:18Z</time>
      </trkpt>
      <trkpt lat="45.87369" lon="6.46048">
        <ele>1469.6</ele>
        <time>2024-04-27T14:04:19Z</time>
      </trkpt>
      <trkpt lat="45.87369" lon="6.46048">
        <ele>1469.6</ele>
        <time>2024-04-27T14:04:20Z</time>
      </trkpt>
      <trkpt lat="45.87369" lon="6.46048">
        <ele>1469.6</ele>
        <time>2024-04-27T14:04:21Z</time>
      </trkpt>
      <trkpt lat="45.87369" lon="6.46048">
        <ele>1469.6</ele>
        <time>2024-04-27T14:04:22Z</time>
      </trkpt>
      <trkpt lat="45.87369" lon="6.46048">
        <ele>1469.6</ele>
        <time>2024-04-27T14:04:23Z</time>
      </trkpt>
      <trkpt lat="45.87369" lon="6.46048">
        <ele>1469.6</ele>
        <time>2024-04-27T14:04:24Z</time>
      </trkpt>
      <trkpt lat="45.87369" lon="6.46048">
        <ele>1469.6</ele>
        <time>2024-04-27T14:04:25Z</time>
      </trkpt>
      <trkpt lat="45.87369" lon="6.46049">
        <ele>1469.6</ele>
        <time>2024-04-27T14:04:26Z</time>
      </trkpt>
      <trkpt lat="45.87369" lon="6.46049">
        <ele>1469.6</ele>
        <time>2024-04-27T14:04:27Z</time>
      </trkpt>
      <trkpt lat="45.87369" lon="6.46049">
        <ele>1469.6</ele>
        <time>2024-04-27T14:04:28Z</time>
      </trkpt>
      <trkpt lat="45.87369" lon="6.46049">
        <ele>1469.6</ele>
        <time>2024-04-27T14:04:29Z</time>
      </trkpt>
      <trkpt lat="45.87369" lon="6.46049">
        <ele>1469.6</ele>
        <time>2024-04-27T14:04:30Z</time>
      </trkpt>
      <trkpt lat="45.87369" lon="6.46049">
        <ele>1469.6</ele>
        <time>2024-04-27T14:04:31Z</time>
      </trkpt>
      <trkpt lat="45.87369" lon="6.46049">
        <ele>1469.6</ele>
        <time>2024-04-27T14:04:32Z</time>
      </trkpt>
      <trkpt lat="45.87369" lon="6.4605">
        <ele>1469.6</ele>
        <time>2024-04-27T14:04:33Z</time>
      </trkpt>
      <trkpt lat="45.8737" lon="6.4605">
        <ele>1469.6</ele>
        <time>2024-04-27T14:04:34Z</time>
      </trkpt>
      <trkpt lat="45.8737" lon="6.4605">
        <ele>1469.6</ele>
        <time>2024-04-27T14:04:35Z</time>
      </trkpt>
      <trkpt lat="45.8737" lon="6.4605">
        <ele>1469.6</ele>
        <time>2024-04-27T14:04:36Z</time>
      </trkpt>
      <trkpt lat="45.8737" lon="6.4605">
        <ele>1469.6</ele>
        <time>2024-04-27T14:04:37Z</time>
      </trkpt>
      <trkpt lat="45.8737" lon="6.4605">
        <ele>1469.6</ele>
        <time>2024-04-27T14:04:38Z</time>
      </trkpt>
      <trkpt lat="45.8737" lon="6.4605">
        <ele>1469.6</ele>
        <time>2024-04-27T14:04:39Z</time>
      </trkpt>
      <trkpt lat="45.8737" lon="6.4605">
        <ele>1469.6</ele>
        <time>2024-04-27T14:04:40Z</time>
      </trkpt>
      <trkpt lat="45.8737" lon="6.4605">
        <ele>1469.6</ele>
        <time>2024-04-27T14:04:41Z</time>
      </trkpt>
      <trkpt lat="45.8737" lon="6.4605">
        <ele>1469.6</ele>
        <time>2024-04-27T14:04:42Z</time>
      </trkpt>
      <trkpt lat="45.8737" lon="6.4605">
        <ele>1469.6</ele>
        <time>2024-04-27T14:04:43Z</time>
      </trkpt>
      <trkpt lat="45.8737" lon="6.4605">
        <ele>1469.6</ele>
        <time>2024-04-27T14:04:44Z</time>
      </trkpt>
      <trkpt lat="45.8737" lon="6.4605">
        <ele>1469.6</ele>
        <time>2024-04-27T14:04:45Z</time>
      </trkpt>
      <trkpt lat="45.8737" lon="6.4605">
        <ele>1469.6</ele>
        <time>2024-04-27T14:04:46Z</time>
      </trkpt>
      <trkpt lat="45.8737" lon="6.46051">
        <ele>1469.6</ele>
        <time>2024-04-27T14:04:47Z</time>
      </trkpt>
      <trkpt lat="45.8737" lon="6.46051">
        <ele>1469.6</ele>
        <time>2024-04-27T14:04:48Z</time>
      </trkpt>
      <trkpt lat="45.8737" lon="6.46051">
        <ele>1469.6</ele>
        <time>2024-04-27T14:04:49Z</time>
      </trkpt>
      <trkpt lat="45.8737" lon="6.46051">
        <ele>1469.6</ele>
        <time>2024-04-27T14:04:50Z</time>
      </trkpt>
      <trkpt lat="45.8737" lon="6.46051">
        <ele>1469.6</ele>
        <time>2024-04-27T14:04:51Z</time>
      </trkpt>
      <trkpt lat="45.8737" lon="6.46051">
        <ele>1470.7</ele>
        <time>2024-04-27T14:04:52Z</time>
      </trkpt>
      <trkpt lat="45.8737" lon="6.46051">
        <ele>1470.7</ele>
        <time>2024-04-27T14:04:53Z</time>
      </trkpt>
      <trkpt lat="45.8737" lon="6.46051">
        <ele>1470.7</ele>
        <time>2024-04-27T14:04:54Z</time>
      </trkpt>
      <trkpt lat="45.8737" lon="6.46051">
        <ele>1470.7</ele>
        <time>2024-04-27T14:04:55Z</time>
      </trkpt>
      <trkpt lat="45.8737" lon="6.46051">
        <ele>1470.7</ele>
        <time>2024-04-27T14:04:56Z</time>
      </trkpt>
      <trkpt lat="45.8737" lon="6.46051">
        <ele>1470.7</ele>
        <time>2024-04-27T14:04:57Z</time>
      </trkpt>
      <trkpt lat="45.8737" lon="6.46051">
        <ele>1470.7</ele>
        <time>2024-04-27T14:04:58Z</time>
      </trkpt>
      <trkpt lat="45.8737" lon="6.46051">
        <ele>1470.7</ele>
        <time>2024-04-27T14:04:59Z</time>
      </trkpt>
      <trkpt lat="45.8737" lon="6.46051">
        <ele>1470.7</ele>
        <time>2024-04-27T14:05:00Z</time>
      </trkpt>
      <trkpt lat="45.8737" lon="6.46051">
        <ele>1470.7</ele>
        <time>2024-04-27T14:05:01Z</time>
      </trkpt>
      <trkpt lat="45.8737" lon="6.46051">
        <ele>1470.7</ele>
        <time>2024-04-27T14:05:02Z</time>
      </trkpt>
      <trkpt lat="45.8737" lon="6.46051">
        <ele>1470.7</ele>
        <time>2024-04-27T14:05:03Z</time>
      </trkpt>
      <trkpt lat="45.8737" lon="6.46051">
        <ele>1470.7</ele>
        <time>2024-04-27T14:05:04Z</time>
      </trkpt>
      <trkpt lat="45.8737" lon="6.46051">
        <ele>1470.7</ele>
        <time>2024-04-27T14:05:05Z</time>
      </trkpt>
      <trkpt lat="45.8737" lon="6.46051">
        <ele>1471.6</ele>
        <time>2024-04-27T14:05:06Z</time>
      </trkpt>
      <trkpt lat="45.8737" lon="6.46051">
        <ele>1471.6</ele>
        <time>2024-04-27T14:05:07Z</time>
      </trkpt>
      <trkpt lat="45.8737" lon="6.46051">
        <ele>1471.6</ele>
        <time>2024-04-27T14:05:08Z</time>
      </trkpt>
      <trkpt lat="45.8737" lon="6.4605">
        <ele>1471.6</ele>
        <time>2024-04-27T14:05:09Z</time>
      </trkpt>
      <trkpt lat="45.8737" lon="6.4605">
        <ele>1471.6</ele>
        <time>2024-04-27T14:05:10Z</time>
      </trkpt>
      <trkpt lat="45.8737" lon="6.4605">
        <ele>1471.6</ele>
        <time>2024-04-27T14:05:11Z</time>
      </trkpt>
      <trkpt lat="45.8737" lon="6.4605">
        <ele>1471.6</ele>
        <time>2024-04-27T14:05:12Z</time>
      </trkpt>
      <trkpt lat="45.8737" lon="6.4605">
        <ele>1471.6</ele>
        <time>2024-04-27T14:05:13Z</time>
      </trkpt>
      <trkpt lat="45.8737" lon="6.4605">
        <ele>1471.6</ele>
        <time>2024-04-27T14:05:14Z</time>
      </trkpt>
      <trkpt lat="45.8737" lon="6.4605">
        <ele>1471.6</ele>
        <time>2024-04-27T14:05:15Z</time>
      </trkpt>
      <trkpt lat="45.8737" lon="6.4605">
        <ele>1471.6</ele>
        <time>2024-04-27T14:05:16Z</time>
      </trkpt>
      <trkpt lat="45.8737" lon="6.4605">
        <ele>1471.6</ele>
        <time>2024-04-27T14:05:17Z</time>
      </trkpt>
      <trkpt lat="45.8737" lon="6.4605">
        <ele>1469.6</ele>
        <time>2024-04-27T14:05:18Z</time>
      </trkpt>
      <trkpt lat="45.87369" lon="6.4605">
        <ele>1469.6</ele>
        <time>2024-04-27T14:05:19Z</time>
      </trkpt>
      <trkpt lat="45.87369" lon="6.4605">
        <ele>1469.6</ele>
        <time>2024-04-27T14:05:20Z</time>
      </trkpt>
      <trkpt lat="45.87369" lon="6.4605">
        <ele>1469.6</ele>
        <time>2024-04-27T14:05:21Z</time>
      </trkpt>
      <trkpt lat="45.87369" lon="6.4605">
        <ele>1469.6</ele>
        <time>2024-04-27T14:05:22Z</time>
      </trkpt>
      <trkpt lat="45.87369" lon="6.4605">
        <ele>1469.6</ele>
        <time>2024-04-27T14:05:23Z</time>
      </trkpt>
      <trkpt lat="45.87369" lon="6.4605">
        <ele>1468.7</ele>
        <time>2024-04-27T14:05:24Z</time>
      </trkpt>
      <trkpt lat="45.87369" lon="6.46049">
        <ele>1468.7</ele>
        <time>2024-04-27T14:05:25Z</time>
      </trkpt>
      <trkpt lat="45.87369" lon="6.46049">
        <ele>1468.7</ele>
        <time>2024-04-27T14:05:26Z</time>
      </trkpt>
      <trkpt lat="45.87369" lon="6.46049">
        <ele>1468.7</ele>
        <time>2024-04-27T14:05:27Z</time>
      </trkpt>
      <trkpt lat="45.87369" lon="6.46049">
        <ele>1468.7</ele>
        <time>2024-04-27T14:05:28Z</time>
      </trkpt>
      <trkpt lat="45.87369" lon="6.46049">
        <ele>1468.7</ele>
        <time>2024-04-27T14:05:29Z</time>
      </trkpt>
      <trkpt lat="45.87369" lon="6.46049">
        <ele>1468.7</ele>
        <time>2024-04-27T14:05:30Z</time>
      </trkpt>
      <trkpt lat="45.87369" lon="6.46049">
        <ele>1468.7</ele>
        <time>2024-04-27T14:05:31Z</time>
      </trkpt>
      <trkpt lat="45.87369" lon="6.46049">
        <ele>1468.7</ele>
        <time>2024-04-27T14:05:32Z</time>
      </trkpt>
      <trkpt lat="45.87369" lon="6.46049">
        <ele>1468.7</ele>
        <time>2024-04-27T14:05:33Z</time>
      </trkpt>
      <trkpt lat="45.87369" lon="6.46049">
        <ele>1468.7</ele>
        <time>2024-04-27T14:05:34Z</time>
      </trkpt>
      <trkpt lat="45.8737" lon="6.46049">
        <ele>1468.7</ele>
        <time>2024-04-27T14:05:35Z</time>
      </trkpt>
      <trkpt lat="45.8737" lon="6.46049">
        <ele>1468.7</ele>
        <time>2024-04-27T14:05:36Z</time>
      </trkpt>
      <trkpt lat="45.8737" lon="6.46049">
        <ele>1468.7</ele>
        <time>2024-04-27T14:05:37Z</time>
      </trkpt>
      <trkpt lat="45.8737" lon="6.46049">
        <ele>1468.7</ele>
        <time>2024-04-27T14:05:38Z</time>
      </trkpt>
      <trkpt lat="45.8737" lon="6.46049">
        <ele>1468.7</ele>
        <time>2024-04-27T14:05:39Z</time>
      </trkpt>
      <trkpt lat="45.8737" lon="6.46049">
        <ele>1468.7</ele>
        <time>2024-04-27T14:05:40Z</time>
      </trkpt>
      <trkpt lat="45.8737" lon="6.46049">
        <ele>1468.7</ele>
        <time>2024-04-27T14:05:41Z</time>
      </trkpt>
      <trkpt lat="45.8737" lon="6.46049">
        <ele>1468.7</ele>
        <time>2024-04-27T14:05:42Z</time>
      </trkpt>
      <trkpt lat="45.8737" lon="6.46049">
        <ele>1468.7</ele>
        <time>2024-04-27T14:05:43Z</time>
      </trkpt>
      <trkpt lat="45.8737" lon="6.46049">
        <ele>1468.7</ele>
        <time>2024-04-27T14:05:44Z</time>
      </trkpt>
      <trkpt lat="45.8737" lon="6.4605">
        <ele>1468.7</ele>
        <time>2024-04-27T14:05:45Z</time>
      </trkpt>
      <trkpt lat="45.8737" lon="6.4605">
        <ele>1468.7</ele>
        <time>2024-04-27T14:05:46Z</time>
      </trkpt>
      <trkpt lat="45.8737" lon="6.4605">
        <ele>1468.7</ele>
        <time>2024-04-27T14:05:47Z</time>
      </trkpt>
      <trkpt lat="45.8737" lon="6.4605">
        <ele>1469.6</ele>
        <time>2024-04-27T14:05:48Z</time>
      </trkpt>
      <trkpt lat="45.8737" lon="6.4605">
        <ele>1469.6</ele>
        <time>2024-04-27T14:05:49Z</time>
      </trkpt>
      <trkpt lat="45.8737" lon="6.4605">
        <ele>1469.6</ele>
        <time>2024-04-27T14:05:50Z</time>
      </trkpt>
      <trkpt lat="45.8737" lon="6.4605">
        <ele>1469.6</ele>
        <time>2024-04-27T14:05:51Z</time>
      </trkpt>
      <trkpt lat="45.8737" lon="6.46051">
        <ele>1469.6</ele>
        <time>2024-04-27T14:05:52Z</time>
      </trkpt>
      <trkpt lat="45.8737" lon="6.46051">
        <ele>1469.6</ele>
        <time>2024-04-27T14:05:53Z</time>
      </trkpt>
      <trkpt lat="45.87369" lon="6.46051">
        <ele>1469.6</ele>
        <time>2024-04-27T14:05:54Z</time>
      </trkpt>
      <trkpt lat="45.87369" lon="6.46051">
        <ele>1469.6</ele>
        <time>2024-04-27T14:05:55Z</time>
      </trkpt>
      <trkpt lat="45.87369" lon="6.46051">
        <ele>1470.7</ele>
        <time>2024-04-27T14:05:56Z</time>
      </trkpt>
      <trkpt lat="45.87369" lon="6.46051">
        <ele>1470.7</ele>
        <time>2024-04-27T14:05:57Z</time>
      </trkpt>
      <trkpt lat="45.87369" lon="6.46051">
        <ele>1470.7</ele>
        <time>2024-04-27T14:05:58Z</time>
      </trkpt>
      <trkpt lat="45.87369" lon="6.46051">
        <ele>1470.7</ele>
        <time>2024-04-27T14:05:59Z</time>
      </trkpt>
      <trkpt lat="45.87369" lon="6.46051">
        <ele>1470.7</ele>
        <time>2024-04-27T14:06:00Z</time>
      </trkpt>
      <trkpt lat="45.87369" lon="6.46051">
        <ele>1470.7</ele>
        <time>2024-04-27T14:06:01Z</time>
      </trkpt>
      <trkpt lat="45.87369" lon="6.46051">
        <ele>1470.7</ele>
        <time>2024-04-27T14:06:02Z</time>
      </trkpt>
      <trkpt lat="45.87369" lon="6.46051">
        <ele>1470.7</ele>
        <time>2024-04-27T14:06:03Z</time>
      </trkpt>
      <trkpt lat="45.87369" lon="6.46051">
        <ele>1470.7</ele>
        <time>2024-04-27T14:06:04Z</time>
      </trkpt>
      <trkpt lat="45.87369" lon="6.46052">
        <ele>1470.7</ele>
        <time>2024-04-27T14:06:05Z</time>
      </trkpt>
      <trkpt lat="45.87368" lon="6.46052">
        <ele>1470.7</ele>
        <time>2024-04-27T14:06:06Z</time>
      </trkpt>
      <trkpt lat="45.87368" lon="6.46052">
        <ele>1470.7</ele>
        <time>2024-04-27T14:06:07Z</time>
      </trkpt>
      <trkpt lat="45.87368" lon="6.46052">
        <ele>1470.7</ele>
        <time>2024-04-27T14:06:08Z</time>
      </trkpt>
      <trkpt lat="45.87368" lon="6.46052">
        <ele>1470.7</ele>
        <time>2024-04-27T14:06:09Z</time>
      </trkpt>
      <trkpt lat="45.87368" lon="6.46052">
        <ele>1470.7</ele>
        <time>2024-04-27T14:06:10Z</time>
      </trkpt>
      <trkpt lat="45.87368" lon="6.46052">
        <ele>1470.7</ele>
        <time>2024-04-27T14:06:11Z</time>
      </trkpt>
      <trkpt lat="45.87368" lon="6.46052">
        <ele>1470.7</ele>
        <time>2024-04-27T14:06:12Z</time>
      </trkpt>
      <trkpt lat="45.87368" lon="6.46052">
        <ele>1470.7</ele>
        <time>2024-04-27T14:06:13Z</time>
      </trkpt>
      <trkpt lat="45.87368" lon="6.46052">
        <ele>1469.6</ele>
        <time>2024-04-27T14:06:14Z</time>
      </trkpt>
      <trkpt lat="45.87368" lon="6.46052">
        <ele>1469.6</ele>
        <time>2024-04-27T14:06:15Z</time>
      </trkpt>
      <trkpt lat="45.87368" lon="6.46052">
        <ele>1469.6</ele>
        <time>2024-04-27T14:06:16Z</time>
      </trkpt>
      <trkpt lat="45.87368" lon="6.46052">
        <ele>1469.6</ele>
        <time>2024-04-27T14:06:17Z</time>
      </trkpt>
      <trkpt lat="45.87368" lon="6.46052">
        <ele>1469.6</ele>
        <time>2024-04-27T14:06:18Z</time>
      </trkpt>
      <trkpt lat="45.87368" lon="6.46052">
        <ele>1469.6</ele>
        <time>2024-04-27T14:06:19Z</time>
      </trkpt>
      <trkpt lat="45.87368" lon="6.46052">
        <ele>1470.7</ele>
        <time>2024-04-27T14:06:20Z</time>
      </trkpt>
      <trkpt lat="45.87368" lon="6.46052">
        <ele>1470.7</ele>
        <time>2024-04-27T14:06:21Z</time>
      </trkpt>
      <trkpt lat="45.87368" lon="6.46052">
        <ele>1470.7</ele>
        <time>2024-04-27T14:06:22Z</time>
      </trkpt>
      <trkpt lat="45.87368" lon="6.46052">
        <ele>1470.7</ele>
        <time>2024-04-27T14:06:23Z</time>
      </trkpt>
      <trkpt lat="45.87368" lon="6.46052">
        <ele>1470.7</ele>
        <time>2024-04-27T14:06:24Z</time>
      </trkpt>
      <trkpt lat="45.87368" lon="6.46052">
        <ele>1470.7</ele>
        <time>2024-04-27T14:06:25Z</time>
      </trkpt>
      <trkpt lat="45.87368" lon="6.46052">
        <ele>1470.7</ele>
        <time>2024-04-27T14:06:26Z</time>
      </trkpt>
      <trkpt lat="45.87368" lon="6.46052">
        <ele>1470.7</ele>
        <time>2024-04-27T14:06:27Z</time>
      </trkpt>
      <trkpt lat="45.87368" lon="6.46052">
        <ele>1470.7</ele>
        <time>2024-04-27T14:06:28Z</time>
      </trkpt>
      <trkpt lat="45.87368" lon="6.46052">
        <ele>1470.7</ele>
        <time>2024-04-27T14:06:29Z</time>
      </trkpt>
      <trkpt lat="45.87368" lon="6.46052">
        <ele>1470.7</ele>
        <time>2024-04-27T14:06:30Z</time>
      </trkpt>
      <trkpt lat="45.87368" lon="6.46052">
        <ele>1470.7</ele>
        <time>2024-04-27T14:06:31Z</time>
      </trkpt>
      <trkpt lat="45.87368" lon="6.46052">
        <ele>1470.7</ele>
        <time>2024-04-27T14:06:32Z</time>
      </trkpt>
      <trkpt lat="45.87368" lon="6.46052">
        <ele>1470.7</ele>
        <time>2024-04-27T14:06:33Z</time>
      </trkpt>
      <trkpt lat="45.87368" lon="6.46052">
        <ele>1469.6</ele>
        <time>2024-04-27T14:06:34Z</time>
      </trkpt>
      <trkpt lat="45.87368" lon="6.46052">
        <ele>1469.6</ele>
        <time>2024-04-27T14:06:35Z</time>
      </trkpt>
      <trkpt lat="45.87368" lon="6.46052">
        <ele>1469.6</ele>
        <time>2024-04-27T14:06:36Z</time>
      </trkpt>
      <trkpt lat="45.87368" lon="6.46052">
        <ele>1469.6</ele>
        <time>2024-04-27T14:06:37Z</time>
      </trkpt>
      <trkpt lat="45.87368" lon="6.46052">
        <ele>1469.6</ele>
        <time>2024-04-27T14:06:38Z</time>
      </trkpt>
      <trkpt lat="45.87368" lon="6.46052">
        <ele>1469.6</ele>
        <time>2024-04-27T14:06:39Z</time>
      </trkpt>
      <trkpt lat="45.87368" lon="6.46052">
        <ele>1469.6</ele>
        <time>2024-04-27T14:06:40Z</time>
      </trkpt>
      <trkpt lat="45.87368" lon="6.46052">
        <ele>1469.6</ele>
        <time>2024-04-27T14:06:41Z</time>
      </trkpt>
      <trkpt lat="45.87368" lon="6.46052">
        <ele>1469.6</ele>
        <time>2024-04-27T14:06:42Z</time>
      </trkpt>
      <trkpt lat="45.87368" lon="6.46052">
        <ele>1469.6</ele>
        <time>2024-04-27T14:06:43Z</time>
      </trkpt>
      <trkpt lat="45.87368" lon="6.46052">
        <ele>1469.6</ele>
        <time>2024-04-27T14:06:44Z</time>
      </trkpt>
      <trkpt lat="45.87368" lon="6.46052">
        <ele>1469.6</ele>
        <time>2024-04-27T14:06:45Z</time>
      </trkpt>
      <trkpt lat="45.87368" lon="6.46052">
        <ele>1469.6</ele>
        <time>2024-04-27T14:06:46Z</time>
      </trkpt>
      <trkpt lat="45.87368" lon="6.46052">
        <ele>1469.6</ele>
        <time>2024-04-27T14:06:47Z</time>
      </trkpt>
      <trkpt lat="45.87368" lon="6.46052">
        <ele>1469.6</ele>
        <time>2024-04-27T14:06:48Z</time>
      </trkpt>
      <trkpt lat="45.87368" lon="6.46052">
        <ele>1469.6</ele>
        <time>2024-04-27T14:06:49Z</time>
      </trkpt>
      <trkpt lat="45.87368" lon="6.46052">
        <ele>1469.6</ele>
        <time>2024-04-27T14:06:50Z</time>
      </trkpt>
      <trkpt lat="45.87368" lon="6.46052">
        <ele>1469.6</ele>
        <time>2024-04-27T14:06:51Z</time>
      </trkpt>
      <trkpt lat="45.87368" lon="6.46052">
        <ele>1468.7</ele>
        <time>2024-04-27T14:06:52Z</time>
      </trkpt>
      <trkpt lat="45.87368" lon="6.46052">
        <ele>1468.7</ele>
        <time>2024-04-27T14:06:53Z</time>
      </trkpt>
      <trkpt lat="45.87368" lon="6.46052">
        <ele>1468.7</ele>
        <time>2024-04-27T14:06:54Z</time>
      </trkpt>
      <trkpt lat="45.87368" lon="6.46052">
        <ele>1468.7</ele>
        <time>2024-04-27T14:06:55Z</time>
      </trkpt>
      <trkpt lat="45.87368" lon="6.46052">
        <ele>1468.7</ele>
        <time>2024-04-27T14:06:56Z</time>
      </trkpt>
      <trkpt lat="45.87368" lon="6.46052">
        <ele>1468.7</ele>
        <time>2024-04-27T14:06:57Z</time>
      </trkpt>
      <trkpt lat="45.87368" lon="6.46052">
        <ele>1468.7</ele>
        <time>2024-04-27T14:06:58Z</time>
      </trkpt>
      <trkpt lat="45.87368" lon="6.46052">
        <ele>1468.7</ele>
        <time>2024-04-27T14:06:59Z</time>
      </trkpt>
      <trkpt lat="45.87368" lon="6.46052">
        <ele>1468.7</ele>
        <time>2024-04-27T14:07:00Z</time>
      </trkpt>
      <trkpt lat="45.87368" lon="6.46052">
        <ele>1468.7</ele>
        <time>2024-04-27T14:07:01Z</time>
      </trkpt>
      <trkpt lat="45.87368" lon="6.46052">
        <ele>1468.7</ele>
        <time>2024-04-27T14:07:02Z</time>
      </trkpt>
      <trkpt lat="45.87368" lon="6.46052">
        <ele>1468.7</ele>
        <time>2024-04-27T14:07:03Z</time>
      </trkpt>
      <trkpt lat="45.87368" lon="6.46052">
        <ele>1468.7</ele>
        <time>2024-04-27T14:07:04Z</time>
      </trkpt>
      <trkpt lat="45.87368" lon="6.46052">
        <ele>1468.7</ele>
        <time>2024-04-27T14:07:05Z</time>
      </trkpt>
      <trkpt lat="45.87368" lon="6.46052">
        <ele>1469.6</ele>
        <time>2024-04-27T14:07:06Z</time>
      </trkpt>
      <trkpt lat="45.87368" lon="6.46052">
        <ele>1469.6</ele>
        <time>2024-04-27T14:07:07Z</time>
      </trkpt>
      <trkpt lat="45.87368" lon="6.46052">
        <ele>1469.6</ele>
        <time>2024-04-27T14:07:08Z</time>
      </trkpt>
      <trkpt lat="45.87368" lon="6.46052">
        <ele>1469.6</ele>
        <time>2024-04-27T14:07:09Z</time>
      </trkpt>
      <trkpt lat="45.87368" lon="6.46052">
        <ele>1470.7</ele>
        <time>2024-04-27T14:07:10Z</time>
      </trkpt>
      <trkpt lat="45.87368" lon="6.46052">
        <ele>1470.7</ele>
        <time>2024-04-27T14:07:11Z</time>
      </trkpt>
      <trkpt lat="45.87368" lon="6.46052">
        <ele>1470.7</ele>
        <time>2024-04-27T14:07:12Z</time>
      </trkpt>
      <trkpt lat="45.87368" lon="6.46052">
        <ele>1470.7</ele>
        <time>2024-04-27T14:07:13Z</time>
      </trkpt>
      <trkpt lat="45.87368" lon="6.46052">
        <ele>1470.7</ele>
        <time>2024-04-27T14:07:14Z</time>
      </trkpt>
      <trkpt lat="45.87368" lon="6.46052">
        <ele>1470.7</ele>
        <time>2024-04-27T14:07:15Z</time>
      </trkpt>
      <trkpt lat="45.87368" lon="6.46052">
        <ele>1470.7</ele>
        <time>2024-04-27T14:07:16Z</time>
      </trkpt>
      <trkpt lat="45.87368" lon="6.46052">
        <ele>1470.7</ele>
        <time>2024-04-27T14:07:17Z</time>
      </trkpt>
      <trkpt lat="45.87368" lon="6.46052">
        <ele>1470.7</ele>
        <time>2024-04-27T14:07:18Z</time>
      </trkpt>
      <trkpt lat="45.87368" lon="6.46052">
        <ele>1470.7</ele>
        <time>2024-04-27T14:07:19Z</time>
      </trkpt>
      <trkpt lat="45.87368" lon="6.46052">
        <ele>1470.7</ele>
        <time>2024-04-27T14:07:20Z</time>
      </trkpt>
      <trkpt lat="45.87368" lon="6.46052">
        <ele>1470.7</ele>
        <time>2024-04-27T14:07:21Z</time>
      </trkpt>
      <trkpt lat="45.87368" lon="6.46052">
        <ele>1470.7</ele>
        <time>2024-04-27T14:07:22Z</time>
      </trkpt>
      <trkpt lat="45.87368" lon="6.46052">
        <ele>1470.7</ele>
        <time>2024-04-27T14:07:23Z</time>
      </trkpt>
      <trkpt lat="45.87368" lon="6.46052">
        <ele>1469.6</ele>
        <time>2024-04-27T14:07:24Z</time>
      </trkpt>
      <trkpt lat="45.87368" lon="6.46052">
        <ele>1469.6</ele>
        <time>2024-04-27T14:07:25Z</time>
      </trkpt>
      <trkpt lat="45.87368" lon="6.46052">
        <ele>1469.6</ele>
        <time>2024-04-27T14:07:26Z</time>
      </trkpt>
      <trkpt lat="45.87368" lon="6.46052">
        <ele>1469.6</ele>
        <time>2024-04-27T14:07:27Z</time>
      </trkpt>
      <trkpt lat="45.87368" lon="6.46052">
        <ele>1469.6</ele>
        <time>2024-04-27T14:07:28Z</time>
      </trkpt>
      <trkpt lat="45.87368" lon="6.46052">
        <ele>1469.6</ele>
        <time>2024-04-27T14:07:29Z</time>
      </trkpt>
      <trkpt lat="45.87368" lon="6.46052">
        <ele>1469.6</ele>
        <time>2024-04-27T14:07:30Z</time>
      </trkpt>
      <trkpt lat="45.87368" lon="6.46052">
        <ele>1469.6</ele>
        <time>2024-04-27T14:07:31Z</time>
      </trkpt>
      <trkpt lat="45.87368" lon="6.46052">
        <ele>1469.6</ele>
        <time>2024-04-27T14:07:32Z</time>
      </trkpt>
      <trkpt lat="45.87368" lon="6.46052">
        <ele>1469.6</ele>
        <time>2024-04-27T14:07:33Z</time>
      </trkpt>
      <trkpt lat="45.87368" lon="6.46052">
        <ele>1469.6</ele>
        <time>2024-04-27T14:07:34Z</time>
      </trkpt>
      <trkpt lat="45.87368" lon="6.46052">
        <ele>1469.6</ele>
        <time>2024-04-27T14:07:35Z</time>
      </trkpt>
      <trkpt lat="45.87368" lon="6.46052">
        <ele>1469.6</ele>
        <time>2024-04-27T14:07:36Z</time>
      </trkpt>
      <trkpt lat="45.87368" lon="6.46052">
        <ele>1469.6</ele>
        <time>2024-04-27T14:07:37Z</time>
      </trkpt>
      <trkpt lat="45.87368" lon="6.46052">
        <ele>1469.6</ele>
        <time>2024-04-27T14:07:38Z</time>
      </trkpt>
      <trkpt lat="45.87368" lon="6.46052">
        <ele>1469.6</ele>
        <time>2024-04-27T14:07:39Z</time>
      </trkpt>
      <trkpt lat="45.87368" lon="6.46052">
        <ele>1469.6</ele>
        <time>2024-04-27T14:07:40Z</time>
      </trkpt>
      <trkpt lat="45.87368" lon="6.46052">
        <ele>1469.6</ele>
        <time>2024-04-27T14:07:41Z</time>
      </trkpt>
      <trkpt lat="45.87368" lon="6.46052">
        <ele>1468.7</ele>
        <time>2024-04-27T14:07:42Z</time>
      </trkpt>
      <trkpt lat="45.87368" lon="6.46052">
        <ele>1468.7</ele>
        <time>2024-04-27T14:07:43Z</time>
      </trkpt>
      <trkpt lat="45.87368" lon="6.46052">
        <ele>1468.7</ele>
        <time>2024-04-27T14:07:44Z</time>
      </trkpt>
      <trkpt lat="45.87368" lon="6.46052">
        <ele>1468.7</ele>
        <time>2024-04-27T14:07:45Z</time>
      </trkpt>
      <trkpt lat="45.87368" lon="6.46052">
        <ele>1468.7</ele>
        <time>2024-04-27T14:07:46Z</time>
      </trkpt>
      <trkpt lat="45.87368" lon="6.46052">
        <ele>1468.7</ele>
        <time>2024-04-27T14:07:47Z</time>
      </trkpt>
      <trkpt lat="45.87368" lon="6.46052">
        <ele>1468.7</ele>
        <time>2024-04-27T14:07:48Z</time>
      </trkpt>
      <trkpt lat="45.87368" lon="6.46052">
        <ele>1468.7</ele>
        <time>2024-04-27T14:07:49Z</time>
      </trkpt>
      <trkpt lat="45.87368" lon="6.46052">
        <ele>1468.7</ele>
        <time>2024-04-27T14:07:50Z</time>
      </trkpt>
      <trkpt lat="45.87368" lon="6.46052">
        <ele>1468.7</ele>
        <time>2024-04-27T14:07:51Z</time>
      </trkpt>
      <trkpt lat="45.87368" lon="6.46052">
        <ele>1468.7</ele>
        <time>2024-04-27T14:07:52Z</time>
      </trkpt>
      <trkpt lat="45.87368" lon="6.46052">
        <ele>1468.7</ele>
        <time>2024-04-27T14:07:53Z</time>
      </trkpt>
      <trkpt lat="45.87368" lon="6.46052">
        <ele>1468.7</ele>
        <time>2024-04-27T14:07:54Z</time>
      </trkpt>
      <trkpt lat="45.87368" lon="6.46052">
        <ele>1468.7</ele>
        <time>2024-04-27T14:07:55Z</time>
      </trkpt>
      <trkpt lat="45.87368" lon="6.46052">
        <ele>1468.7</ele>
        <time>2024-04-27T14:07:56Z</time>
      </trkpt>
      <trkpt lat="45.87368" lon="6.46052">
        <ele>1468.7</ele>
        <time>2024-04-27T14:07:57Z</time>
      </trkpt>
      <trkpt lat="45.87368" lon="6.46052">
        <ele>1468.7</ele>
        <time>2024-04-27T14:07:58Z</time>
      </trkpt>
      <trkpt lat="45.87368" lon="6.46052">
        <ele>1468.7</ele>
        <time>2024-04-27T14:07:59Z</time>
      </trkpt>
      <trkpt lat="45.87368" lon="6.46052">
        <ele>1468.7</ele>
        <time>2024-04-27T14:08:00Z</time>
      </trkpt>
      <trkpt lat="45.87368" lon="6.46052">
        <ele>1468.7</ele>
        <time>2024-04-27T14:08:01Z</time>
      </trkpt>
      <trkpt lat="45.87368" lon="6.46052">
        <ele>1468.7</ele>
        <time>2024-04-27T14:08:02Z</time>
      </trkpt>
      <trkpt lat="45.87368" lon="6.46052">
        <ele>1468.7</ele>
        <time>2024-04-27T14:08:03Z</time>
      </trkpt>
      <trkpt lat="45.87368" lon="6.46052">
        <ele>1468.7</ele>
        <time>2024-04-27T14:08:04Z</time>
      </trkpt>
      <trkpt lat="45.87368" lon="6.46052">
        <ele>1468.7</ele>
        <time>2024-04-27T14:08:05Z</time>
      </trkpt>
      <trkpt lat="45.87368" lon="6.46052">
        <ele>1468.7</ele>
        <time>2024-04-27T14:08:06Z</time>
      </trkpt>
      <trkpt lat="45.87368" lon="6.46052">
        <ele>1468.7</ele>
        <time>2024-04-27T14:08:07Z</time>
      </trkpt>
      <trkpt lat="45.87368" lon="6.46052">
        <ele>1468.7</ele>
        <time>2024-04-27T14:08:08Z</time>
      </trkpt>
      <trkpt lat="45.87368" lon="6.46052">
        <ele>1468.7</ele>
        <time>2024-04-27T14:08:09Z</time>
      </trkpt>
      <trkpt lat="45.87368" lon="6.46052">
        <ele>1468.7</ele>
        <time>2024-04-27T14:08:10Z</time>
      </trkpt>
      <trkpt lat="45.87368" lon="6.46052">
        <ele>1468.7</ele>
        <time>2024-04-27T14:08:11Z</time>
      </trkpt>
      <trkpt lat="45.87368" lon="6.46052">
        <ele>1468.7</ele>
        <time>2024-04-27T14:08:12Z</time>
      </trkpt>
      <trkpt lat="45.87368" lon="6.46052">
        <ele>1468.7</ele>
        <time>2024-04-27T14:08:13Z</time>
      </trkpt>
      <trkpt lat="45.87368" lon="6.46052">
        <ele>1468.7</ele>
        <time>2024-04-27T14:08:14Z</time>
      </trkpt>
      <trkpt lat="45.87368" lon="6.46052">
        <ele>1468.7</ele>
        <time>2024-04-27T14:08:15Z</time>
      </trkpt>
      <trkpt lat="45.87368" lon="6.46052">
        <ele>1468.7</ele>
        <time>2024-04-27T14:08:16Z</time>
      </trkpt>
      <trkpt lat="45.87368" lon="6.46052">
        <ele>1468.7</ele>
        <time>2024-04-27T14:08:17Z</time>
      </trkpt>
      <trkpt lat="45.87368" lon="6.46052">
        <ele>1468.7</ele>
        <time>2024-04-27T14:08:18Z</time>
      </trkpt>
      <trkpt lat="45.87368" lon="6.46052">
        <ele>1468.7</ele>
        <time>2024-04-27T14:08:19Z</time>
      </trkpt>
      <trkpt lat="45.87368" lon="6.46052">
        <ele>1468.7</ele>
        <time>2024-04-27T14:08:20Z</time>
      </trkpt>
      <trkpt lat="45.87368" lon="6.46052">
        <ele>1468.7</ele>
        <time>2024-04-27T14:08:21Z</time>
      </trkpt>
      <trkpt lat="45.87368" lon="6.46052">
        <ele>1468.7</ele>
        <time>2024-04-27T14:08:22Z</time>
      </trkpt>
      <trkpt lat="45.87368" lon="6.46052">
        <ele>1468.7</ele>
        <time>2024-04-27T14:08:23Z</time>
      </trkpt>
      <trkpt lat="45.87368" lon="6.46052">
        <ele>1468.7</ele>
        <time>2024-04-27T14:08:24Z</time>
      </trkpt>
      <trkpt lat="45.87368" lon="6.46052">
        <ele>1468.7</ele>
        <time>2024-04-27T14:08:25Z</time>
      </trkpt>
      <trkpt lat="45.87368" lon="6.46052">
        <ele>1468.7</ele>
        <time>2024-04-27T14:08:26Z</time>
      </trkpt>
      <trkpt lat="45.87368" lon="6.46052">
        <ele>1468.7</ele>
        <time>2024-04-27T14:08:27Z</time>
      </trkpt>
      <trkpt lat="45.87368" lon="6.46052">
        <ele>1468.7</ele>
        <time>2024-04-27T14:08:28Z</time>
      </trkpt>
      <trkpt lat="45.87368" lon="6.46052">
        <ele>1468.7</ele>
        <time>2024-04-27T14:08:29Z</time>
      </trkpt>
      <trkpt lat="45.87368" lon="6.46052">
        <ele>1468.7</ele>
        <time>2024-04-27T14:08:30Z</time>
      </trkpt>
      <trkpt lat="45.87368" lon="6.46052">
        <ele>1468.7</ele>
        <time>2024-04-27T14:08:31Z</time>
      </trkpt>
      <trkpt lat="45.87368" lon="6.46052">
        <ele>1467.6</ele>
        <time>2024-04-27T14:08:32Z</time>
      </trkpt>
      <trkpt lat="45.87368" lon="6.46052">
        <ele>1467.6</ele>
        <time>2024-04-27T14:08:33Z</time>
      </trkpt>
      <trkpt lat="45.87368" lon="6.46052">
        <ele>1467.6</ele>
        <time>2024-04-27T14:08:34Z</time>
      </trkpt>
      <trkpt lat="45.87368" lon="6.46052">
        <ele>1467.6</ele>
        <time>2024-04-27T14:08:35Z</time>
      </trkpt>
      <trkpt lat="45.87368" lon="6.46052">
        <ele>1467.6</ele>
        <time>2024-04-27T14:08:36Z</time>
      </trkpt>
      <trkpt lat="45.87368" lon="6.46052">
        <ele>1467.6</ele>
        <time>2024-04-27T14:08:37Z</time>
      </trkpt>
      <trkpt lat="45.87368" lon="6.46052">
        <ele>1467.6</ele>
        <time>2024-04-27T14:08:38Z</time>
      </trkpt>
      <trkpt lat="45.87368" lon="6.46052">
        <ele>1467.6</ele>
        <time>2024-04-27T14:08:39Z</time>
      </trkpt>
      <trkpt lat="45.87368" lon="6.46052">
        <ele>1469.6</ele>
        <time>2024-04-27T14:08:40Z</time>
      </trkpt>
      <trkpt lat="45.87368" lon="6.46052">
        <ele>1469.6</ele>
        <time>2024-04-27T14:08:41Z</time>
      </trkpt>
      <trkpt lat="45.87368" lon="6.46052">
        <ele>1469.6</ele>
        <time>2024-04-27T14:08:42Z</time>
      </trkpt>
      <trkpt lat="45.87368" lon="6.46052">
        <ele>1469.6</ele>
        <time>2024-04-27T14:08:43Z</time>
      </trkpt>
      <trkpt lat="45.87368" lon="6.46052">
        <ele>1469.6</ele>
        <time>2024-04-27T14:08:44Z</time>
      </trkpt>
      <trkpt lat="45.87368" lon="6.46052">
        <ele>1469.6</ele>
        <time>2024-04-27T14:08:45Z</time>
      </trkpt>
      <trkpt lat="45.87368" lon="6.46052">
        <ele>1469.6</ele>
        <time>2024-04-27T14:08:46Z</time>
      </trkpt>
      <trkpt lat="45.87368" lon="6.46052">
        <ele>1469.6</ele>
        <time>2024-04-27T14:08:47Z</time>
      </trkpt>
      <trkpt lat="45.87368" lon="6.46052">
        <ele>1469.6</ele>
        <time>2024-04-27T14:08:48Z</time>
      </trkpt>
      <trkpt lat="45.87368" lon="6.46052">
        <ele>1469.6</ele>
        <time>2024-04-27T14:08:49Z</time>
      </trkpt>
      <trkpt lat="45.87368" lon="6.46052">
        <ele>1469.6</ele>
        <time>2024-04-27T14:08:50Z</time>
      </trkpt>
      <trkpt lat="45.87368" lon="6.46052">
        <ele>1469.6</ele>
        <time>2024-04-27T14:08:51Z</time>
      </trkpt>
      <trkpt lat="45.87368" lon="6.46052">
        <ele>1469.6</ele>
        <time>2024-04-27T14:08:52Z</time>
      </trkpt>
      <trkpt lat="45.87368" lon="6.46052">
        <ele>1469.6</ele>
        <time>2024-04-27T14:08:53Z</time>
      </trkpt>
      <trkpt lat="45.87368" lon="6.46052">
        <ele>1469.6</ele>
        <time>2024-04-27T14:08:54Z</time>
      </trkpt>
      <trkpt lat="45.87368" lon="6.46052">
        <ele>1469.6</ele>
        <time>2024-04-27T14:08:55Z</time>
      </trkpt>
      <trkpt lat="45.87368" lon="6.46052">
        <ele>1469.6</ele>
        <time>2024-04-27T14:08:56Z</time>
      </trkpt>
      <trkpt lat="45.87368" lon="6.46052">
        <ele>1469.6</ele>
        <time>2024-04-27T14:08:57Z</time>
      </trkpt>
      <trkpt lat="45.87368" lon="6.46052">
        <ele>1469.6</ele>
        <time>2024-04-27T14:08:58Z</time>
      </trkpt>
      <trkpt lat="45.87368" lon="6.46052">
        <ele>1469.6</ele>
        <time>2024-04-27T14:08:59Z</time>
      </trkpt>
      <trkpt lat="45.87368" lon="6.46052">
        <ele>1469.6</ele>
        <time>2024-04-27T14:09:00Z</time>
      </trkpt>
      <trkpt lat="45.87368" lon="6.46052">
        <ele>1469.6</ele>
        <time>2024-04-27T14:09:01Z</time>
      </trkpt>
      <trkpt lat="45.87368" lon="6.46052">
        <ele>1469.6</ele>
        <time>2024-04-27T14:09:02Z</time>
      </trkpt>
      <trkpt lat="45.87368" lon="6.46052">
        <ele>1469.6</ele>
        <time>2024-04-27T14:09:03Z</time>
      </trkpt>
      <trkpt lat="45.87368" lon="6.46052">
        <ele>1469.6</ele>
        <time>2024-04-27T14:09:04Z</time>
      </trkpt>
      <trkpt lat="45.87368" lon="6.46052">
        <ele>1469.6</ele>
        <time>2024-04-27T14:09:05Z</time>
      </trkpt>
      <trkpt lat="45.87368" lon="6.46052">
        <ele>1469.6</ele>
        <time>2024-04-27T14:09:06Z</time>
      </trkpt>
      <trkpt lat="45.87368" lon="6.46052">
        <ele>1469.6</ele>
        <time>2024-04-27T14:09:07Z</time>
      </trkpt>
      <trkpt lat="45.87368" lon="6.46052">
        <ele>1469.6</ele>
        <time>2024-04-27T14:09:08Z</time>
      </trkpt>
      <trkpt lat="45.87368" lon="6.46052">
        <ele>1469.6</ele>
        <time>2024-04-27T14:09:09Z</time>
      </trkpt>
      <trkpt lat="45.87368" lon="6.46052">
        <ele>1469.6</ele>
        <time>2024-04-27T14:09:10Z</time>
      </trkpt>
      <trkpt lat="45.87368" lon="6.46052">
        <ele>1469.6</ele>
        <time>2024-04-27T14:09:11Z</time>
      </trkpt>
      <trkpt lat="45.87368" lon="6.46052">
        <ele>1469.6</ele>
        <time>2024-04-27T14:09:12Z</time>
      </trkpt>
      <trkpt lat="45.87368" lon="6.46052">
        <ele>1469.6</ele>
        <time>2024-04-27T14:09:13Z</time>
      </trkpt>
      <trkpt lat="45.87368" lon="6.46052">
        <ele>1469.6</ele>
        <time>2024-04-27T14:09:14Z</time>
      </trkpt>
      <trkpt lat="45.87368" lon="6.46052">
        <ele>1469.6</ele>
        <time>2024-04-27T14:09:15Z</time>
      </trkpt>
      <trkpt lat="45.87368" lon="6.46052">
        <ele>1469.6</ele>
        <time>2024-04-27T14:09:16Z</time>
      </trkpt>
      <trkpt lat="45.87368" lon="6.46052">
        <ele>1469.6</ele>
        <time>2024-04-27T14:09:17Z</time>
      </trkpt>
      <trkpt lat="45.87368" lon="6.46052">
        <ele>1469.6</ele>
        <time>2024-04-27T14:09:18Z</time>
      </trkpt>
      <trkpt lat="45.87368" lon="6.46052">
        <ele>1469.6</ele>
        <time>2024-04-27T14:09:19Z</time>
      </trkpt>
      <trkpt lat="45.87368" lon="6.46052">
        <ele>1469.6</ele>
        <time>2024-04-27T14:09:20Z</time>
      </trkpt>
      <trkpt lat="45.87368" lon="6.46052">
        <ele>1469.6</ele>
        <time>2024-04-27T14:09:21Z</time>
      </trkpt>
      <trkpt lat="45.87368" lon="6.46052">
        <ele>1469.6</ele>
        <time>2024-04-27T14:09:22Z</time>
      </trkpt>
      <trkpt lat="45.87368" lon="6.46052">
        <ele>1469.6</ele>
        <time>2024-04-27T14:09:23Z</time>
      </trkpt>
      <trkpt lat="45.87368" lon="6.46052">
        <ele>1469.6</ele>
        <time>2024-04-27T14:09:24Z</time>
      </trkpt>
      <trkpt lat="45.87368" lon="6.46051">
        <ele>1469.6</ele>
        <time>2024-04-27T14:09:25Z</time>
      </trkpt>
      <trkpt lat="45.87367" lon="6.46051">
        <ele>1469.6</ele>
        <time>2024-04-27T14:09:26Z</time>
      </trkpt>
      <trkpt lat="45.87367" lon="6.4605">
        <ele>1469.6</ele>
        <time>2024-04-27T14:09:27Z</time>
      </trkpt>
      <trkpt lat="45.87367" lon="6.4605">
        <ele>1469.6</ele>
        <time>2024-04-27T14:09:28Z</time>
      </trkpt>
      <trkpt lat="45.87367" lon="6.46049">
        <ele>1469.6</ele>
        <time>2024-04-27T14:09:29Z</time>
      </trkpt>
      <trkpt lat="45.87367" lon="6.46049">
        <ele>1468.7</ele>
        <time>2024-04-27T14:09:30Z</time>
      </trkpt>
      <trkpt lat="45.87368" lon="6.46049">
        <ele>1468.7</ele>
        <time>2024-04-27T14:09:31Z</time>
      </trkpt>
      <trkpt lat="45.87368" lon="6.4605">
        <ele>1468.7</ele>
        <time>2024-04-27T14:09:32Z</time>
      </trkpt>
      <trkpt lat="45.87367" lon="6.46051">
        <ele>1468.7</ele>
        <time>2024-04-27T14:09:33Z</time>
      </trkpt>
      <trkpt lat="45.87367" lon="6.46052">
        <ele>1468.7</ele>
        <time>2024-04-27T14:09:34Z</time>
      </trkpt>
      <trkpt lat="45.87367" lon="6.46052">
        <ele>1468.7</ele>
        <time>2024-04-27T14:09:35Z</time>
      </trkpt>
      <trkpt lat="45.87367" lon="6.46053">
        <ele>1468.7</ele>
        <time>2024-04-27T14:09:36Z</time>
      </trkpt>
      <trkpt lat="45.87367" lon="6.46052">
        <ele>1468.7</ele>
        <time>2024-04-27T14:09:37Z</time>
      </trkpt>
      <trkpt lat="45.87367" lon="6.46052">
        <ele>1468.7</ele>
        <time>2024-04-27T14:09:38Z</time>
      </trkpt>
      <trkpt lat="45.87367" lon="6.46052">
        <ele>1468.7</ele>
        <time>2024-04-27T14:09:39Z</time>
      </trkpt>
      <trkpt lat="45.87366" lon="6.46051">
        <ele>1468.7</ele>
        <time>2024-04-27T14:09:40Z</time>
      </trkpt>
      <trkpt lat="45.87366" lon="6.46049">
        <ele>1468.7</ele>
        <time>2024-04-27T14:09:41Z</time>
      </trkpt>
      <trkpt lat="45.87366" lon="6.46047">
        <ele>1468.7</ele>
        <time>2024-04-27T14:09:42Z</time>
      </trkpt>
      <trkpt lat="45.87365" lon="6.46045">
        <ele>1468.7</ele>
        <time>2024-04-27T14:09:43Z</time>
      </trkpt>
      <trkpt lat="45.87365" lon="6.46044">
        <ele>1468.7</ele>
        <time>2024-04-27T14:09:44Z</time>
      </trkpt>
      <trkpt lat="45.87364" lon="6.46042">
        <ele>1468.7</ele>
        <time>2024-04-27T14:09:45Z</time>
      </trkpt>
      <trkpt lat="45.87363" lon="6.4604">
        <ele>1467.6</ele>
        <time>2024-04-27T14:09:46Z</time>
      </trkpt>
      <trkpt lat="45.87363" lon="6.46038">
        <ele>1467.6</ele>
        <time>2024-04-27T14:09:47Z</time>
      </trkpt>
      <trkpt lat="45.87362" lon="6.46036">
        <ele>1467.6</ele>
        <time>2024-04-27T14:09:48Z</time>
      </trkpt>
      <trkpt lat="45.87362" lon="6.46035">
        <ele>1467.6</ele>
        <time>2024-04-27T14:09:49Z</time>
      </trkpt>
      <trkpt lat="45.87361" lon="6.46033">
        <ele>1467.6</ele>
        <time>2024-04-27T14:09:50Z</time>
      </trkpt>
      <trkpt lat="45.87361" lon="6.4603">
        <ele>1467.6</ele>
        <time>2024-04-27T14:09:51Z</time>
      </trkpt>
      <trkpt lat="45.8736" lon="6.46028">
        <ele>1467.6</ele>
        <time>2024-04-27T14:09:52Z</time>
      </trkpt>
      <trkpt lat="45.8736" lon="6.46026">
        <ele>1467.6</ele>
        <time>2024-04-27T14:09:53Z</time>
      </trkpt>
      <trkpt lat="45.87359" lon="6.46024">
        <ele>1467.6</ele>
        <time>2024-04-27T14:09:54Z</time>
      </trkpt>
      <trkpt lat="45.87358" lon="6.46022">
        <ele>1467.6</ele>
        <time>2024-04-27T14:09:55Z</time>
      </trkpt>
      <trkpt lat="45.87357" lon="6.4602">
        <ele>1467.6</ele>
        <time>2024-04-27T14:09:56Z</time>
      </trkpt>
      <trkpt lat="45.87357" lon="6.46019">
        <ele>1467.6</ele>
        <time>2024-04-27T14:09:57Z</time>
      </trkpt>
      <trkpt lat="45.87356" lon="6.46017">
        <ele>1467.6</ele>
        <time>2024-04-27T14:09:58Z</time>
      </trkpt>
      <trkpt lat="45.87355" lon="6.46015">
        <ele>1467.6</ele>
        <time>2024-04-27T14:09:59Z</time>
      </trkpt>
      <trkpt lat="45.87355" lon="6.46013">
        <ele>1467.6</ele>
        <time>2024-04-27T14:10:00Z</time>
      </trkpt>
      <trkpt lat="45.87354" lon="6.46011">
        <ele>1467.6</ele>
        <time>2024-04-27T14:10:01Z</time>
      </trkpt>
      <trkpt lat="45.87354" lon="6.46009">
        <ele>1466.7</ele>
        <time>2024-04-27T14:10:02Z</time>
      </trkpt>
      <trkpt lat="45.87354" lon="6.46008">
        <ele>1466.7</ele>
        <time>2024-04-27T14:10:03Z</time>
      </trkpt>
      <trkpt lat="45.87353" lon="6.46007">
        <ele>1466.7</ele>
        <time>2024-04-27T14:10:04Z</time>
      </trkpt>
      <trkpt lat="45.87353" lon="6.46007">
        <ele>1466.7</ele>
        <time>2024-04-27T14:10:05Z</time>
      </trkpt>
      <trkpt lat="45.87353" lon="6.46007">
        <ele>1466.7</ele>
        <time>2024-04-27T14:10:06Z</time>
      </trkpt>
      <trkpt lat="45.87353" lon="6.46006">
        <ele>1466.7</ele>
        <time>2024-04-27T14:10:07Z</time>
      </trkpt>
      <trkpt lat="45.87354" lon="6.46006">
        <ele>1465.6</ele>
        <time>2024-04-27T14:10:08Z</time>
      </trkpt>
      <trkpt lat="45.87354" lon="6.46006">
        <ele>1465.6</ele>
        <time>2024-04-27T14:10:09Z</time>
      </trkpt>
      <trkpt lat="45.87354" lon="6.46006">
        <ele>1465.6</ele>
        <time>2024-04-27T14:10:10Z</time>
      </trkpt>
      <trkpt lat="45.87354" lon="6.46006">
        <ele>1465.6</ele>
        <time>2024-04-27T14:10:11Z</time>
      </trkpt>
      <trkpt lat="45.87354" lon="6.46006">
        <ele>1465.6</ele>
        <time>2024-04-27T14:10:12Z</time>
      </trkpt>
      <trkpt lat="45.87354" lon="6.46006">
        <ele>1465.6</ele>
        <time>2024-04-27T14:10:13Z</time>
      </trkpt>
      <trkpt lat="45.87354" lon="6.46006">
        <ele>1465.6</ele>
        <time>2024-04-27T14:10:14Z</time>
      </trkpt>
      <trkpt lat="45.87354" lon="6.46006">
        <ele>1465.6</ele>
        <time>2024-04-27T14:10:15Z</time>
      </trkpt>
      <trkpt lat="45.87354" lon="6.46006">
        <ele>1465.6</ele>
        <time>2024-04-27T14:10:16Z</time>
      </trkpt>
      <trkpt lat="45.87354" lon="6.46006">
        <ele>1465.6</ele>
        <time>2024-04-27T14:10:17Z</time>
      </trkpt>
      <trkpt lat="45.87354" lon="6.46006">
        <ele>1465.6</ele>
        <time>2024-04-27T14:10:18Z</time>
      </trkpt>
      <trkpt lat="45.87354" lon="6.46006">
        <ele>1465.6</ele>
        <time>2024-04-27T14:10:19Z</time>
      </trkpt>
      <trkpt lat="45.87354" lon="6.46006">
        <ele>1465.6</ele>
        <time>2024-04-27T14:10:20Z</time>
      </trkpt>
      <trkpt lat="45.87354" lon="6.46006">
        <ele>1465.6</ele>
        <time>2024-04-27T14:10:21Z</time>
      </trkpt>
      <trkpt lat="45.87354" lon="6.46006">
        <ele>1465.6</ele>
        <time>2024-04-27T14:10:22Z</time>
      </trkpt>
      <trkpt lat="45.87354" lon="6.46006">
        <ele>1465.6</ele>
        <time>2024-04-27T14:10:23Z</time>
      </trkpt>
      <trkpt lat="45.87354" lon="6.46006">
        <ele>1465.6</ele>
        <time>2024-04-27T14:10:24Z</time>
      </trkpt>
      <trkpt lat="45.87354" lon="6.46006">
        <ele>1465.6</ele>
        <time>2024-04-27T14:10:25Z</time>
      </trkpt>
      <trkpt lat="45.87354" lon="6.46006">
        <ele>1465.6</ele>
        <time>2024-04-27T14:10:26Z</time>
      </trkpt>
      <trkpt lat="45.87354" lon="6.46006">
        <ele>1465.6</ele>
        <time>2024-04-27T14:10:27Z</time>
      </trkpt>
      <trkpt lat="45.87354" lon="6.46006">
        <ele>1465.6</ele>
        <time>2024-04-27T14:10:28Z</time>
      </trkpt>
      <trkpt lat="45.87354" lon="6.46006">
        <ele>1465.6</ele>
        <time>2024-04-27T14:10:29Z</time>
      </trkpt>
      <trkpt lat="45.87354" lon="6.46006">
        <ele>1465.6</ele>
        <time>2024-04-27T14:10:30Z</time>
      </trkpt>
      <trkpt lat="45.87354" lon="6.46006">
        <ele>1465.6</ele>
        <time>2024-04-27T14:10:31Z</time>
      </trkpt>
      <trkpt lat="45.87354" lon="6.46006">
        <ele>1466.7</ele>
        <time>2024-04-27T14:10:32Z</time>
      </trkpt>
      <trkpt lat="45.87354" lon="6.46006">
        <ele>1466.7</ele>
        <time>2024-04-27T14:10:33Z</time>
      </trkpt>
      <trkpt lat="45.87354" lon="6.46006">
        <ele>1466.7</ele>
        <time>2024-04-27T14:10:34Z</time>
      </trkpt>
      <trkpt lat="45.87354" lon="6.46006">
        <ele>1466.7</ele>
        <time>2024-04-27T14:10:35Z</time>
      </trkpt>
      <trkpt lat="45.87354" lon="6.46006">
        <ele>1466.7</ele>
        <time>2024-04-27T14:10:36Z</time>
      </trkpt>
      <trkpt lat="45.87354" lon="6.46006">
        <ele>1466.7</ele>
        <time>2024-04-27T14:10:37Z</time>
      </trkpt>
      <trkpt lat="45.87354" lon="6.46007">
        <ele>1467.6</ele>
        <time>2024-04-27T14:10:38Z</time>
      </trkpt>
      <trkpt lat="45.87354" lon="6.46008">
        <ele>1467.6</ele>
        <time>2024-04-27T14:10:39Z</time>
      </trkpt>
      <trkpt lat="45.87354" lon="6.46008">
        <ele>1467.6</ele>
        <time>2024-04-27T14:10:40Z</time>
      </trkpt>
      <trkpt lat="45.87354" lon="6.46008">
        <ele>1467.6</ele>
        <time>2024-04-27T14:10:41Z</time>
      </trkpt>
      <trkpt lat="45.87354" lon="6.46008">
        <ele>1468.7</ele>
        <time>2024-04-27T14:10:42Z</time>
      </trkpt>
      <trkpt lat="45.87354" lon="6.46009">
        <ele>1468.7</ele>
        <time>2024-04-27T14:10:43Z</time>
      </trkpt>
      <trkpt lat="45.87354" lon="6.46009">
        <ele>1468.7</ele>
        <time>2024-04-27T14:10:44Z</time>
      </trkpt>
      <trkpt lat="45.87354" lon="6.46009">
        <ele>1468.7</ele>
        <time>2024-04-27T14:10:45Z</time>
      </trkpt>
      <trkpt lat="45.87354" lon="6.46009">
        <ele>1468.7</ele>
        <time>2024-04-27T14:10:46Z</time>
      </trkpt>
      <trkpt lat="45.87354" lon="6.46009">
        <ele>1468.7</ele>
        <time>2024-04-27T14:10:47Z</time>
      </trkpt>
      <trkpt lat="45.87354" lon="6.4601">
        <ele>1468.7</ele>
        <time>2024-04-27T14:10:48Z</time>
      </trkpt>
      <trkpt lat="45.87354" lon="6.4601">
        <ele>1468.7</ele>
        <time>2024-04-27T14:10:49Z</time>
      </trkpt>
      <trkpt lat="45.87354" lon="6.4601">
        <ele>1468.7</ele>
        <time>2024-04-27T14:10:50Z</time>
      </trkpt>
      <trkpt lat="45.87354" lon="6.4601">
        <ele>1468.7</ele>
        <time>2024-04-27T14:10:51Z</time>
      </trkpt>
      <trkpt lat="45.87354" lon="6.4601">
        <ele>1468.7</ele>
        <time>2024-04-27T14:10:52Z</time>
      </trkpt>
      <trkpt lat="45.87354" lon="6.46011">
        <ele>1468.7</ele>
        <time>2024-04-27T14:10:53Z</time>
      </trkpt>
      <trkpt lat="45.87354" lon="6.46011">
        <ele>1468.7</ele>
        <time>2024-04-27T14:10:54Z</time>
      </trkpt>
      <trkpt lat="45.87354" lon="6.46011">
        <ele>1468.7</ele>
        <time>2024-04-27T14:10:55Z</time>
      </trkpt>
      <trkpt lat="45.87354" lon="6.46011">
        <ele>1468.7</ele>
        <time>2024-04-27T14:10:56Z</time>
      </trkpt>
      <trkpt lat="45.87354" lon="6.46011">
        <ele>1468.7</ele>
        <time>2024-04-27T14:10:57Z</time>
      </trkpt>
      <trkpt lat="45.87354" lon="6.46011">
        <ele>1466.7</ele>
        <time>2024-04-27T14:10:58Z</time>
      </trkpt>
      <trkpt lat="45.87354" lon="6.46011">
        <ele>1466.7</ele>
        <time>2024-04-27T14:10:59Z</time>
      </trkpt>
      <trkpt lat="45.87354" lon="6.46011">
        <ele>1466.7</ele>
        <time>2024-04-27T14:11:00Z</time>
      </trkpt>
      <trkpt lat="45.87354" lon="6.46011">
        <ele>1466.7</ele>
        <time>2024-04-27T14:11:01Z</time>
      </trkpt>
      <trkpt lat="45.87354" lon="6.46011">
        <ele>1466.7</ele>
        <time>2024-04-27T14:11:02Z</time>
      </trkpt>
      <trkpt lat="45.87354" lon="6.46011">
        <ele>1466.7</ele>
        <time>2024-04-27T14:11:03Z</time>
      </trkpt>
      <trkpt lat="45.87354" lon="6.46011">
        <ele>1465.6</ele>
        <time>2024-04-27T14:11:04Z</time>
      </trkpt>
      <trkpt lat="45.87354" lon="6.46011">
        <ele>1465.6</ele>
        <time>2024-04-27T14:11:05Z</time>
      </trkpt>
      <trkpt lat="45.87354" lon="6.46011">
        <ele>1465.6</ele>
        <time>2024-04-27T14:11:06Z</time>
      </trkpt>
      <trkpt lat="45.87354" lon="6.46011">
        <ele>1465.6</ele>
        <time>2024-04-27T14:11:07Z</time>
      </trkpt>
      <trkpt lat="45.87354" lon="6.46011">
        <ele>1465.6</ele>
        <time>2024-04-27T14:11:08Z</time>
      </trkpt>
      <trkpt lat="45.87354" lon="6.46011">
        <ele>1465.6</ele>
        <time>2024-04-27T14:11:09Z</time>
      </trkpt>
      <trkpt lat="45.87354" lon="6.46011">
        <ele>1465.6</ele>
        <time>2024-04-27T14:11:10Z</time>
      </trkpt>
      <trkpt lat="45.87354" lon="6.4601">
        <ele>1465.6</ele>
        <time>2024-04-27T14:11:11Z</time>
      </trkpt>
      <trkpt lat="45.87354" lon="6.46009">
        <ele>1465.6</ele>
        <time>2024-04-27T14:11:12Z</time>
      </trkpt>
      <trkpt lat="45.87354" lon="6.46009">
        <ele>1465.6</ele>
        <time>2024-04-27T14:11:13Z</time>
      </trkpt>
      <trkpt lat="45.87354" lon="6.46009">
        <ele>1465.6</ele>
        <time>2024-04-27T14:11:14Z</time>
      </trkpt>
      <trkpt lat="45.87354" lon="6.46008">
        <ele>1465.6</ele>
        <time>2024-04-27T14:11:15Z</time>
      </trkpt>
      <trkpt lat="45.87354" lon="6.46008">
        <ele>1465.6</ele>
        <time>2024-04-27T14:11:16Z</time>
      </trkpt>
      <trkpt lat="45.87354" lon="6.46008">
        <ele>1465.6</ele>
        <time>2024-04-27T14:11:17Z</time>
      </trkpt>
      <trkpt lat="45.87354" lon="6.46008">
        <ele>1465.6</ele>
        <time>2024-04-27T14:11:18Z</time>
      </trkpt>
      <trkpt lat="45.87354" lon="6.46008">
        <ele>1465.6</ele>
        <time>2024-04-27T14:11:19Z</time>
      </trkpt>
      <trkpt lat="45.87354" lon="6.46008">
        <ele>1465.6</ele>
        <time>2024-04-27T14:11:20Z</time>
      </trkpt>
      <trkpt lat="45.87354" lon="6.46008">
        <ele>1465.6</ele>
        <time>2024-04-27T14:11:21Z</time>
      </trkpt>
      <trkpt lat="45.87354" lon="6.46008">
        <ele>1465.6</ele>
        <time>2024-04-27T14:11:22Z</time>
      </trkpt>
      <trkpt lat="45.87354" lon="6.46008">
        <ele>1465.6</ele>
        <time>2024-04-27T14:11:23Z</time>
      </trkpt>
      <trkpt lat="45.87354" lon="6.46008">
        <ele>1465.6</ele>
        <time>2024-04-27T14:11:24Z</time>
      </trkpt>
      <trkpt lat="45.87354" lon="6.46008">
        <ele>1465.6</ele>
        <time>2024-04-27T14:11:25Z</time>
      </trkpt>
      <trkpt lat="45.87354" lon="6.46008">
        <ele>1465.6</ele>
        <time>2024-04-27T14:11:26Z</time>
      </trkpt>
      <trkpt lat="45.87354" lon="6.46009">
        <ele>1465.6</ele>
        <time>2024-04-27T14:11:27Z</time>
      </trkpt>
      <trkpt lat="45.87355" lon="6.46011">
        <ele>1466.7</ele>
        <time>2024-04-27T14:11:28Z</time>
      </trkpt>
      <trkpt lat="45.87357" lon="6.46013">
        <ele>1466.7</ele>
        <time>2024-04-27T14:11:29Z</time>
      </trkpt>
      <trkpt lat="45.87357" lon="6.46015">
        <ele>1466.7</ele>
        <time>2024-04-27T14:11:30Z</time>
      </trkpt>
      <trkpt lat="45.87358" lon="6.46018">
        <ele>1466.7</ele>
        <time>2024-04-27T14:11:31Z</time>
      </trkpt>
      <trkpt lat="45.87359" lon="6.4602">
        <ele>1467.6</ele>
        <time>2024-04-27T14:11:32Z</time>
      </trkpt>
      <trkpt lat="45.8736" lon="6.46022">
        <ele>1467.6</ele>
        <time>2024-04-27T14:11:33Z</time>
      </trkpt>
      <trkpt lat="45.87361" lon="6.46024">
        <ele>1467.6</ele>
        <time>2024-04-27T14:11:34Z</time>
      </trkpt>
      <trkpt lat="45.87362" lon="6.46026">
        <ele>1467.6</ele>
        <time>2024-04-27T14:11:35Z</time>
      </trkpt>
      <trkpt lat="45.87363" lon="6.46029">
        <ele>1467.6</ele>
        <time>2024-04-27T14:11:36Z</time>
      </trkpt>
      <trkpt lat="45.87363" lon="6.4603">
        <ele>1467.6</ele>
        <time>2024-04-27T14:11:37Z</time>
      </trkpt>
      <trkpt lat="45.87364" lon="6.46032">
        <ele>1467.6</ele>
        <time>2024-04-27T14:11:38Z</time>
      </trkpt>
      <trkpt lat="45.87364" lon="6.46034">
        <ele>1467.6</ele>
        <time>2024-04-27T14:11:39Z</time>
      </trkpt>
      <trkpt lat="45.87365" lon="6.46035">
        <ele>1467.6</ele>
        <time>2024-04-27T14:11:40Z</time>
      </trkpt>
      <trkpt lat="45.87366" lon="6.46037">
        <ele>1467.6</ele>
        <time>2024-04-27T14:11:41Z</time>
      </trkpt>
      <trkpt lat="45.87366" lon="6.46039">
        <ele>1467.6</ele>
        <time>2024-04-27T14:11:42Z</time>
      </trkpt>
      <trkpt lat="45.87367" lon="6.46041">
        <ele>1467.6</ele>
        <time>2024-04-27T14:11:43Z</time>
      </trkpt>
      <trkpt lat="45.87367" lon="6.46042">
        <ele>1467.6</ele>
        <time>2024-04-27T14:11:44Z</time>
      </trkpt>
      <trkpt lat="45.87367" lon="6.46044">
        <ele>1467.6</ele>
        <time>2024-04-27T14:11:45Z</time>
      </trkpt>
      <trkpt lat="45.87368" lon="6.46046">
        <ele>1468.7</ele>
        <time>2024-04-27T14:11:46Z</time>
      </trkpt>
      <trkpt lat="45.87369" lon="6.46047">
        <ele>1468.7</ele>
        <time>2024-04-27T14:11:47Z</time>
      </trkpt>
      <trkpt lat="45.87369" lon="6.46048">
        <ele>1468.7</ele>
        <time>2024-04-27T14:11:48Z</time>
      </trkpt>
      <trkpt lat="45.87369" lon="6.46049">
        <ele>1468.7</ele>
        <time>2024-04-27T14:11:49Z</time>
      </trkpt>
      <trkpt lat="45.8737" lon="6.46049">
        <ele>1468.7</ele>
        <time>2024-04-27T14:11:50Z</time>
      </trkpt>
      <trkpt lat="45.8737" lon="6.4605">
        <ele>1468.7</ele>
        <time>2024-04-27T14:11:51Z</time>
      </trkpt>
      <trkpt lat="45.8737" lon="6.4605">
        <ele>1468.7</ele>
        <time>2024-04-27T14:11:52Z</time>
      </trkpt>
      <trkpt lat="45.8737" lon="6.4605">
        <ele>1468.7</ele>
        <time>2024-04-27T14:11:53Z</time>
      </trkpt>
      <trkpt lat="45.8737" lon="6.4605">
        <ele>1467.6</ele>
        <time>2024-04-27T14:11:54Z</time>
      </trkpt>
      <trkpt lat="45.87371" lon="6.46051">
        <ele>1467.6</ele>
        <time>2024-04-27T14:11:55Z</time>
      </trkpt>
      <trkpt lat="45.87371" lon="6.46051">
        <ele>1467.6</ele>
        <time>2024-04-27T14:11:56Z</time>
      </trkpt>
      <trkpt lat="45.8737" lon="6.46051">
        <ele>1467.6</ele>
        <time>2024-04-27T14:11:57Z</time>
      </trkpt>
      <trkpt lat="45.8737" lon="6.46051">
        <ele>1467.6</ele>
        <time>2024-04-27T14:11:58Z</time>
      </trkpt>
      <trkpt lat="45.8737" lon="6.46051">
        <ele>1467.6</ele>
        <time>2024-04-27T14:11:59Z</time>
      </trkpt>
      <trkpt lat="45.8737" lon="6.46051">
        <ele>1467.6</ele>
        <time>2024-04-27T14:12:00Z</time>
      </trkpt>
      <trkpt lat="45.8737" lon="6.46051">
        <ele>1467.6</ele>
        <time>2024-04-27T14:12:01Z</time>
      </trkpt>
      <trkpt lat="45.8737" lon="6.46051">
        <ele>1467.6</ele>
        <time>2024-04-27T14:12:02Z</time>
      </trkpt>
      <trkpt lat="45.8737" lon="6.46051">
        <ele>1467.6</ele>
        <time>2024-04-27T14:12:03Z</time>
      </trkpt>
      <trkpt lat="45.8737" lon="6.46051">
        <ele>1467.6</ele>
        <time>2024-04-27T14:12:04Z</time>
      </trkpt>
      <trkpt lat="45.8737" lon="6.46051">
        <ele>1467.6</ele>
        <time>2024-04-27T14:12:05Z</time>
      </trkpt>
      <trkpt lat="45.8737" lon="6.46051">
        <ele>1467.6</ele>
        <time>2024-04-27T14:12:06Z</time>
      </trkpt>
      <trkpt lat="45.8737" lon="6.46051">
        <ele>1467.6</ele>
        <time>2024-04-27T14:12:07Z</time>
      </trkpt>
      <trkpt lat="45.8737" lon="6.46051">
        <ele>1467.6</ele>
        <time>2024-04-27T14:12:08Z</time>
      </trkpt>
      <trkpt lat="45.8737" lon="6.46051">
        <ele>1467.6</ele>
        <time>2024-04-27T14:12:09Z</time>
      </trkpt>
      <trkpt lat="45.8737" lon="6.46051">
        <ele>1467.6</ele>
        <time>2024-04-27T14:12:10Z</time>
      </trkpt>
      <trkpt lat="45.8737" lon="6.46051">
        <ele>1467.6</ele>
        <time>2024-04-27T14:12:11Z</time>
      </trkpt>
      <trkpt lat="45.8737" lon="6.46051">
        <ele>1467.6</ele>
        <time>2024-04-27T14:12:12Z</time>
      </trkpt>
      <trkpt lat="45.8737" lon="6.46051">
        <ele>1467.6</ele>
        <time>2024-04-27T14:12:13Z</time>
      </trkpt>
      <trkpt lat="45.8737" lon="6.46051">
        <ele>1467.6</ele>
        <time>2024-04-27T14:12:14Z</time>
      </trkpt>
      <trkpt lat="45.8737" lon="6.46051">
        <ele>1467.6</ele>
        <time>2024-04-27T14:12:15Z</time>
      </trkpt>
      <trkpt lat="45.8737" lon="6.46051">
        <ele>1467.6</ele>
        <time>2024-04-27T14:12:16Z</time>
      </trkpt>
      <trkpt lat="45.8737" lon="6.46051">
        <ele>1467.6</ele>
        <time>2024-04-27T14:12:17Z</time>
      </trkpt>
      <trkpt lat="45.8737" lon="6.46051">
        <ele>1467.6</ele>
        <time>2024-04-27T14:12:18Z</time>
      </trkpt>
      <trkpt lat="45.8737" lon="6.46051">
        <ele>1467.6</ele>
        <time>2024-04-27T14:12:19Z</time>
      </trkpt>
      <trkpt lat="45.8737" lon="6.46051">
        <ele>1467.6</ele>
        <time>2024-04-27T14:12:20Z</time>
      </trkpt>
      <trkpt lat="45.8737" lon="6.46051">
        <ele>1467.6</ele>
        <time>2024-04-27T14:12:21Z</time>
      </trkpt>
      <trkpt lat="45.8737" lon="6.46051">
        <ele>1467.6</ele>
        <time>2024-04-27T14:12:22Z</time>
      </trkpt>
      <trkpt lat="45.8737" lon="6.46051">
        <ele>1467.6</ele>
        <time>2024-04-27T14:12:23Z</time>
      </trkpt>
      <trkpt lat="45.8737" lon="6.46051">
        <ele>1467.6</ele>
        <time>2024-04-27T14:12:24Z</time>
      </trkpt>
      <trkpt lat="45.8737" lon="6.46051">
        <ele>1467.6</ele>
        <time>2024-04-27T14:12:25Z</time>
      </trkpt>
      <trkpt lat="45.8737" lon="6.46051">
        <ele>1467.6</ele>
        <time>2024-04-27T14:12:26Z</time>
      </trkpt>
      <trkpt lat="45.8737" lon="6.46051">
        <ele>1467.6</ele>
        <time>2024-04-27T14:12:27Z</time>
      </trkpt>
      <trkpt lat="45.8737" lon="6.46051">
        <ele>1467.6</ele>
        <time>2024-04-27T14:12:28Z</time>
      </trkpt>
      <trkpt lat="45.8737" lon="6.46051">
        <ele>1467.6</ele>
        <time>2024-04-27T14:12:29Z</time>
      </trkpt>
      <trkpt lat="45.8737" lon="6.46051">
        <ele>1467.6</ele>
        <time>2024-04-27T14:12:30Z</time>
      </trkpt>
      <trkpt lat="45.8737" lon="6.46051">
        <ele>1467.6</ele>
        <time>2024-04-27T14:12:31Z</time>
      </trkpt>
      <trkpt lat="45.8737" lon="6.46051">
        <ele>1467.6</ele>
        <time>2024-04-27T14:12:32Z</time>
      </trkpt>
      <trkpt lat="45.8737" lon="6.46051">
        <ele>1467.6</ele>
        <time>2024-04-27T14:12:33Z</time>
      </trkpt>
      <trkpt lat="45.8737" lon="6.46051">
        <ele>1467.6</ele>
        <time>2024-04-27T14:12:34Z</time>
      </trkpt>
      <trkpt lat="45.8737" lon="6.46051">
        <ele>1467.6</ele>
        <time>2024-04-27T14:12:35Z</time>
      </trkpt>
      <trkpt lat="45.8737" lon="6.46051">
        <ele>1467.6</ele>
        <time>2024-04-27T14:12:36Z</time>
      </trkpt>
      <trkpt lat="45.8737" lon="6.46051">
        <ele>1467.6</ele>
        <time>2024-04-27T14:12:37Z</time>
      </trkpt>
      <trkpt lat="45.8737" lon="6.46051">
        <ele>1467.6</ele>
        <time>2024-04-27T14:12:38Z</time>
      </trkpt>
      <trkpt lat="45.8737" lon="6.46051">
        <ele>1467.6</ele>
        <time>2024-04-27T14:12:39Z</time>
      </trkpt>
      <trkpt lat="45.8737" lon="6.46051">
        <ele>1467.6</ele>
        <time>2024-04-27T14:12:40Z</time>
      </trkpt>
      <trkpt lat="45.8737" lon="6.46051">
        <ele>1467.6</ele>
        <time>2024-04-27T14:12:41Z</time>
      </trkpt>
      <trkpt lat="45.8737" lon="6.46052">
        <ele>1467.6</ele>
        <time>2024-04-27T14:12:42Z</time>
      </trkpt>
      <trkpt lat="45.8737" lon="6.46052">
        <ele>1467.6</ele>
        <time>2024-04-27T14:12:43Z</time>
      </trkpt>
      <trkpt lat="45.8737" lon="6.46052">
        <ele>1467.6</ele>
        <time>2024-04-27T14:12:44Z</time>
      </trkpt>
      <trkpt lat="45.8737" lon="6.46052">
        <ele>1467.6</ele>
        <time>2024-04-27T14:12:45Z</time>
      </trkpt>
      <trkpt lat="45.8737" lon="6.46052">
        <ele>1467.6</ele>
        <time>2024-04-27T14:12:46Z</time>
      </trkpt>
      <trkpt lat="45.8737" lon="6.46052">
        <ele>1467.6</ele>
        <time>2024-04-27T14:12:47Z</time>
      </trkpt>
      <trkpt lat="45.8737" lon="6.46052">
        <ele>1467.6</ele>
        <time>2024-04-27T14:12:48Z</time>
      </trkpt>
      <trkpt lat="45.8737" lon="6.46052">
        <ele>1467.6</ele>
        <time>2024-04-27T14:12:49Z</time>
      </trkpt>
      <trkpt lat="45.8737" lon="6.46052">
        <ele>1468.7</ele>
        <time>2024-04-27T14:12:50Z</time>
      </trkpt>
      <trkpt lat="45.8737" lon="6.46052">
        <ele>1468.7</ele>
        <time>2024-04-27T14:12:51Z</time>
      </trkpt>
      <trkpt lat="45.8737" lon="6.46052">
        <ele>1468.7</ele>
        <time>2024-04-27T14:12:52Z</time>
      </trkpt>
      <trkpt lat="45.8737" lon="6.46052">
        <ele>1468.7</ele>
        <time>2024-04-27T14:12:53Z</time>
      </trkpt>
      <trkpt lat="45.8737" lon="6.46052">
        <ele>1468.7</ele>
        <time>2024-04-27T14:12:54Z</time>
      </trkpt>
      <trkpt lat="45.8737" lon="6.46052">
        <ele>1468.7</ele>
        <time>2024-04-27T14:12:55Z</time>
      </trkpt>
      <trkpt lat="45.8737" lon="6.46052">
        <ele>1468.7</ele>
        <time>2024-04-27T14:12:56Z</time>
      </trkpt>
      <trkpt lat="45.8737" lon="6.46052">
        <ele>1468.7</ele>
        <time>2024-04-27T14:12:57Z</time>
      </trkpt>
      <trkpt lat="45.8737" lon="6.46052">
        <ele>1468.7</ele>
        <time>2024-04-27T14:12:58Z</time>
      </trkpt>
      <trkpt lat="45.8737" lon="6.46052">
        <ele>1468.7</ele>
        <time>2024-04-27T14:12:59Z</time>
      </trkpt>
      <trkpt lat="45.8737" lon="6.46052">
        <ele>1468.7</ele>
        <time>2024-04-27T14:13:00Z</time>
      </trkpt>
      <trkpt lat="45.8737" lon="6.46052">
        <ele>1468.7</ele>
        <time>2024-04-27T14:13:01Z</time>
      </trkpt>
      <trkpt lat="45.8737" lon="6.46052">
        <ele>1468.7</ele>
        <time>2024-04-27T14:13:02Z</time>
      </trkpt>
      <trkpt lat="45.8737" lon="6.46052">
        <ele>1468.7</ele>
        <time>2024-04-27T14:13:03Z</time>
      </trkpt>
      <trkpt lat="45.8737" lon="6.46052">
        <ele>1468.7</ele>
        <time>2024-04-27T14:13:04Z</time>
      </trkpt>
      <trkpt lat="45.8737" lon="6.46052">
        <ele>1468.7</ele>
        <time>2024-04-27T14:13:05Z</time>
      </trkpt>
      <trkpt lat="45.8737" lon="6.46052">
        <ele>1468.7</ele>
        <time>2024-04-27T14:13:06Z</time>
      </trkpt>
      <trkpt lat="45.8737" lon="6.46052">
        <ele>1468.7</ele>
        <time>2024-04-27T14:13:07Z</time>
      </trkpt>
      <trkpt lat="45.8737" lon="6.46052">
        <ele>1468.7</ele>
        <time>2024-04-27T14:13:08Z</time>
      </trkpt>
      <trkpt lat="45.8737" lon="6.46052">
        <ele>1468.7</ele>
        <time>2024-04-27T14:13:09Z</time>
      </trkpt>
      <trkpt lat="45.8737" lon="6.46052">
        <ele>1468.7</ele>
        <time>2024-04-27T14:13:10Z</time>
      </trkpt>
      <trkpt lat="45.8737" lon="6.46052">
        <ele>1468.7</ele>
        <time>2024-04-27T14:13:11Z</time>
      </trkpt>
      <trkpt lat="45.8737" lon="6.46052">
        <ele>1468.7</ele>
        <time>2024-04-27T14:13:12Z</time>
      </trkpt>
      <trkpt lat="45.8737" lon="6.46052">
        <ele>1468.7</ele>
        <time>2024-04-27T14:13:13Z</time>
      </trkpt>
      <trkpt lat="45.8737" lon="6.46052">
        <ele>1469.6</ele>
        <time>2024-04-27T14:13:14Z</time>
      </trkpt>
      <trkpt lat="45.8737" lon="6.46052">
        <ele>1469.6</ele>
        <time>2024-04-27T14:13:15Z</time>
      </trkpt>
      <trkpt lat="45.8737" lon="6.46052">
        <ele>1469.6</ele>
        <time>2024-04-27T14:13:16Z</time>
      </trkpt>
      <trkpt lat="45.8737" lon="6.46052">
        <ele>1469.6</ele>
        <time>2024-04-27T14:13:17Z</time>
      </trkpt>
      <trkpt lat="45.8737" lon="6.46052">
        <ele>1469.6</ele>
        <time>2024-04-27T14:13:18Z</time>
      </trkpt>
      <trkpt lat="45.8737" lon="6.46052">
        <ele>1469.6</ele>
        <time>2024-04-27T14:13:19Z</time>
      </trkpt>
      <trkpt lat="45.8737" lon="6.46052">
        <ele>1469.6</ele>
        <time>2024-04-27T14:13:20Z</time>
      </trkpt>
      <trkpt lat="45.8737" lon="6.46052">
        <ele>1469.6</ele>
        <time>2024-04-27T14:13:21Z</time>
      </trkpt>
      <trkpt lat="45.8737" lon="6.46052">
        <ele>1469.6</ele>
        <time>2024-04-27T14:13:22Z</time>
      </trkpt>
      <trkpt lat="45.8737" lon="6.46052">
        <ele>1469.6</ele>
        <time>2024-04-27T14:13:23Z</time>
      </trkpt>
      <trkpt lat="45.8737" lon="6.46052">
        <ele>1469.6</ele>
        <time>2024-04-27T14:13:24Z</time>
      </trkpt>
      <trkpt lat="45.8737" lon="6.46052">
        <ele>1469.6</ele>
        <time>2024-04-27T14:13:25Z</time>
      </trkpt>
      <trkpt lat="45.87369" lon="6.46052">
        <ele>1469.6</ele>
        <time>2024-04-27T14:13:26Z</time>
      </trkpt>
      <trkpt lat="45.87369" lon="6.46052">
        <ele>1469.6</ele>
        <time>2024-04-27T14:13:27Z</time>
      </trkpt>
      <trkpt lat="45.87369" lon="6.46052">
        <ele>1469.6</ele>
        <time>2024-04-27T14:13:28Z</time>
      </trkpt>
      <trkpt lat="45.87369" lon="6.46052">
        <ele>1469.6</ele>
        <time>2024-04-27T14:13:29Z</time>
      </trkpt>
      <trkpt lat="45.87369" lon="6.46052">
        <ele>1469.6</ele>
        <time>2024-04-27T14:13:30Z</time>
      </trkpt>
      <trkpt lat="45.87369" lon="6.46052">
        <ele>1469.6</ele>
        <time>2024-04-27T14:13:31Z</time>
      </trkpt>
      <trkpt lat="45.87369" lon="6.46052">
        <ele>1469.6</ele>
        <time>2024-04-27T14:13:32Z</time>
      </trkpt>
      <trkpt lat="45.87369" lon="6.46052">
        <ele>1469.6</ele>
        <time>2024-04-27T14:13:33Z</time>
      </trkpt>
      <trkpt lat="45.87369" lon="6.46052">
        <ele>1469.6</ele>
        <time>2024-04-27T14:13:34Z</time>
      </trkpt>
      <trkpt lat="45.87369" lon="6.46052">
        <ele>1469.6</ele>
        <time>2024-04-27T14:13:35Z</time>
      </trkpt>
      <trkpt lat="45.87369" lon="6.46052">
        <ele>1469.6</ele>
        <time>2024-04-27T14:13:36Z</time>
      </trkpt>
      <trkpt lat="45.87369" lon="6.46052">
        <ele>1469.6</ele>
        <time>2024-04-27T14:13:37Z</time>
      </trkpt>
      <trkpt lat="45.87369" lon="6.46052">
        <ele>1468.7</ele>
        <time>2024-04-27T14:13:38Z</time>
      </trkpt>
      <trkpt lat="45.87369" lon="6.46052">
        <ele>1468.7</ele>
        <time>2024-04-27T14:13:39Z</time>
      </trkpt>
      <trkpt lat="45.87369" lon="6.46052">
        <ele>1468.7</ele>
        <time>2024-04-27T14:13:40Z</time>
      </trkpt>
      <trkpt lat="45.87369" lon="6.46052">
        <ele>1468.7</ele>
        <time>2024-04-27T14:13:41Z</time>
      </trkpt>
      <trkpt lat="45.8737" lon="6.46052">
        <ele>1468.7</ele>
        <time>2024-04-27T14:13:42Z</time>
      </trkpt>
      <trkpt lat="45.8737" lon="6.46052">
        <ele>1468.7</ele>
        <time>2024-04-27T14:13:43Z</time>
      </trkpt>
      <trkpt lat="45.8737" lon="6.46052">
        <ele>1468.7</ele>
        <time>2024-04-27T14:13:44Z</time>
      </trkpt>
      <trkpt lat="45.8737" lon="6.46052">
        <ele>1468.7</ele>
        <time>2024-04-27T14:13:45Z</time>
      </trkpt>
      <trkpt lat="45.8737" lon="6.46052">
        <ele>1468.7</ele>
        <time>2024-04-27T14:13:46Z</time>
      </trkpt>
      <trkpt lat="45.8737" lon="6.46052">
        <ele>1468.7</ele>
        <time>2024-04-27T14:13:47Z</time>
      </trkpt>
      <trkpt lat="45.8737" lon="6.46052">
        <ele>1468.7</ele>
        <time>2024-04-27T14:13:48Z</time>
      </trkpt>
      <trkpt lat="45.8737" lon="6.46052">
        <ele>1468.7</ele>
        <time>2024-04-27T14:13:49Z</time>
      </trkpt>
      <trkpt lat="45.8737" lon="6.46052">
        <ele>1468.7</ele>
        <time>2024-04-27T14:13:50Z</time>
      </trkpt>
      <trkpt lat="45.8737" lon="6.46052">
        <ele>1468.7</ele>
        <time>2024-04-27T14:13:51Z</time>
      </trkpt>
      <trkpt lat="45.8737" lon="6.46052">
        <ele>1468.7</ele>
        <time>2024-04-27T14:13:52Z</time>
      </trkpt>
      <trkpt lat="45.8737" lon="6.46052">
        <ele>1468.7</ele>
        <time>2024-04-27T14:13:53Z</time>
      </trkpt>
      <trkpt lat="45.8737" lon="6.46052">
        <ele>1468.7</ele>
        <time>2024-04-27T14:13:54Z</time>
      </trkpt>
      <trkpt lat="45.8737" lon="6.46052">
        <ele>1468.7</ele>
        <time>2024-04-27T14:13:55Z</time>
      </trkpt>
      <trkpt lat="45.8737" lon="6.46053">
        <ele>1468.7</ele>
        <time>2024-04-27T14:13:56Z</time>
      </trkpt>
      <trkpt lat="45.8737" lon="6.46053">
        <ele>1468.7</ele>
        <time>2024-04-27T14:13:57Z</time>
      </trkpt>
      <trkpt lat="45.8737" lon="6.46053">
        <ele>1468.7</ele>
        <time>2024-04-27T14:13:58Z</time>
      </trkpt>
      <trkpt lat="45.8737" lon="6.46053">
        <ele>1468.7</ele>
        <time>2024-04-27T14:13:59Z</time>
      </trkpt>
      <trkpt lat="45.8737" lon="6.46053">
        <ele>1468.7</ele>
        <time>2024-04-27T14:14:00Z</time>
      </trkpt>
      <trkpt lat="45.8737" lon="6.46053">
        <ele>1468.7</ele>
        <time>2024-04-27T14:14:01Z</time>
      </trkpt>
      <trkpt lat="45.8737" lon="6.46053">
        <ele>1468.7</ele>
        <time>2024-04-27T14:14:02Z</time>
      </trkpt>
      <trkpt lat="45.8737" lon="6.46053">
        <ele>1468.7</ele>
        <time>2024-04-27T14:14:03Z</time>
      </trkpt>
      <trkpt lat="45.8737" lon="6.46053">
        <ele>1467.6</ele>
        <time>2024-04-27T14:14:04Z</time>
      </trkpt>
      <trkpt lat="45.8737" lon="6.46053">
        <ele>1467.6</ele>
        <time>2024-04-27T14:14:05Z</time>
      </trkpt>
      <trkpt lat="45.8737" lon="6.46053">
        <ele>1467.6</ele>
        <time>2024-04-27T14:14:06Z</time>
      </trkpt>
      <trkpt lat="45.8737" lon="6.46053">
        <ele>1467.6</ele>
        <time>2024-04-27T14:14:07Z</time>
      </trkpt>
      <trkpt lat="45.8737" lon="6.46053">
        <ele>1467.6</ele>
        <time>2024-04-27T14:14:08Z</time>
      </trkpt>
      <trkpt lat="45.8737" lon="6.46053">
        <ele>1467.6</ele>
        <time>2024-04-27T14:14:09Z</time>
      </trkpt>
      <trkpt lat="45.8737" lon="6.46053">
        <ele>1468.7</ele>
        <time>2024-04-27T14:14:10Z</time>
      </trkpt>
      <trkpt lat="45.8737" lon="6.46053">
        <ele>1468.7</ele>
        <time>2024-04-27T14:14:11Z</time>
      </trkpt>
      <trkpt lat="45.8737" lon="6.46053">
        <ele>1468.7</ele>
        <time>2024-04-27T14:14:12Z</time>
      </trkpt>
      <trkpt lat="45.8737" lon="6.46053">
        <ele>1468.7</ele>
        <time>2024-04-27T14:14:13Z</time>
      </trkpt>
      <trkpt lat="45.8737" lon="6.46054">
        <ele>1468.7</ele>
        <time>2024-04-27T14:14:14Z</time>
      </trkpt>
      <trkpt lat="45.8737" lon="6.46054">
        <ele>1468.7</ele>
        <time>2024-04-27T14:14:15Z</time>
      </trkpt>
      <trkpt lat="45.8737" lon="6.46054">
        <ele>1468.7</ele>
        <time>2024-04-27T14:14:16Z</time>
      </trkpt>
      <trkpt lat="45.8737" lon="6.46054">
        <ele>1468.7</ele>
        <time>2024-04-27T14:14:17Z</time>
      </trkpt>
      <trkpt lat="45.8737" lon="6.46054">
        <ele>1468.7</ele>
        <time>2024-04-27T14:14:18Z</time>
      </trkpt>
      <trkpt lat="45.87369" lon="6.46054">
        <ele>1468.7</ele>
        <time>2024-04-27T14:14:19Z</time>
      </trkpt>
      <trkpt lat="45.87369" lon="6.46054">
        <ele>1468.7</ele>
        <time>2024-04-27T14:14:20Z</time>
      </trkpt>
      <trkpt lat="45.87369" lon="6.46054">
        <ele>1468.7</ele>
        <time>2024-04-27T14:14:21Z</time>
      </trkpt>
      <trkpt lat="45.87369" lon="6.46055">
        <ele>1468.7</ele>
        <time>2024-04-27T14:14:22Z</time>
      </trkpt>
      <trkpt lat="45.87369" lon="6.46055">
        <ele>1468.7</ele>
        <time>2024-04-27T14:14:23Z</time>
      </trkpt>
      <trkpt lat="45.87369" lon="6.46055">
        <ele>1468.7</ele>
        <time>2024-04-27T14:14:24Z</time>
      </trkpt>
      <trkpt lat="45.87369" lon="6.46055">
        <ele>1468.7</ele>
        <time>2024-04-27T14:14:25Z</time>
      </trkpt>
      <trkpt lat="45.87369" lon="6.46055">
        <ele>1468.7</ele>
        <time>2024-04-27T14:14:26Z</time>
      </trkpt>
      <trkpt lat="45.87369" lon="6.46055">
        <ele>1468.7</ele>
        <time>2024-04-27T14:14:27Z</time>
      </trkpt>
      <trkpt lat="45.87369" lon="6.46055">
        <ele>1469.6</ele>
        <time>2024-04-27T14:14:28Z</time>
      </trkpt>
      <trkpt lat="45.87369" lon="6.46055">
        <ele>1469.6</ele>
        <time>2024-04-27T14:14:29Z</time>
      </trkpt>
      <trkpt lat="45.87369" lon="6.46055">
        <ele>1469.6</ele>
        <time>2024-04-27T14:14:30Z</time>
      </trkpt>
      <trkpt lat="45.87369" lon="6.46055">
        <ele>1469.6</ele>
        <time>2024-04-27T14:14:31Z</time>
      </trkpt>
      <trkpt lat="45.87369" lon="6.46055">
        <ele>1469.6</ele>
        <time>2024-04-27T14:14:32Z</time>
      </trkpt>
      <trkpt lat="45.87369" lon="6.46055">
        <ele>1469.6</ele>
        <time>2024-04-27T14:14:33Z</time>
      </trkpt>
      <trkpt lat="45.87369" lon="6.46055">
        <ele>1469.6</ele>
        <time>2024-04-27T14:14:34Z</time>
      </trkpt>
      <trkpt lat="45.87369" lon="6.46055">
        <ele>1469.6</ele>
        <time>2024-04-27T14:14:35Z</time>
      </trkpt>
      <trkpt lat="45.87369" lon="6.46055">
        <ele>1469.6</ele>
        <time>2024-04-27T14:14:36Z</time>
      </trkpt>
      <trkpt lat="45.87369" lon="6.46055">
        <ele>1469.6</ele>
        <time>2024-04-27T14:14:37Z</time>
      </trkpt>
      <trkpt lat="45.87369" lon="6.46055">
        <ele>1469.6</ele>
        <time>2024-04-27T14:14:38Z</time>
      </trkpt>
      <trkpt lat="45.87369" lon="6.46055">
        <ele>1469.6</ele>
        <time>2024-04-27T14:14:39Z</time>
      </trkpt>
      <trkpt lat="45.87369" lon="6.46055">
        <ele>1469.6</ele>
        <time>2024-04-27T14:14:40Z</time>
      </trkpt>
      <trkpt lat="45.87369" lon="6.46055">
        <ele>1469.6</ele>
        <time>2024-04-27T14:14:41Z</time>
      </trkpt>
      <trkpt lat="45.87369" lon="6.46055">
        <ele>1469.6</ele>
        <time>2024-04-27T14:14:42Z</time>
      </trkpt>
      <trkpt lat="45.87369" lon="6.46055">
        <ele>1469.6</ele>
        <time>2024-04-27T14:14:43Z</time>
      </trkpt>
      <trkpt lat="45.87369" lon="6.46054">
        <ele>1469.6</ele>
        <time>2024-04-27T14:14:44Z</time>
      </trkpt>
      <trkpt lat="45.87369" lon="6.46054">
        <ele>1469.6</ele>
        <time>2024-04-27T14:14:45Z</time>
      </trkpt>
      <trkpt lat="45.87369" lon="6.46054">
        <ele>1469.6</ele>
        <time>2024-04-27T14:14:46Z</time>
      </trkpt>
      <trkpt lat="45.87369" lon="6.46054">
        <ele>1469.6</ele>
        <time>2024-04-27T14:14:47Z</time>
      </trkpt>
      <trkpt lat="45.87369" lon="6.46054">
        <ele>1469.6</ele>
        <time>2024-04-27T14:14:48Z</time>
      </trkpt>
      <trkpt lat="45.87369" lon="6.46054">
        <ele>1469.6</ele>
        <time>2024-04-27T14:14:49Z</time>
      </trkpt>
      <trkpt lat="45.87369" lon="6.46054">
        <ele>1469.6</ele>
        <time>2024-04-27T14:14:50Z</time>
      </trkpt>
      <trkpt lat="45.87369" lon="6.46054">
        <ele>1469.6</ele>
        <time>2024-04-27T14:14:51Z</time>
      </trkpt>
      <trkpt lat="45.87369" lon="6.46054">
        <ele>1469.6</ele>
        <time>2024-04-27T14:14:52Z</time>
      </trkpt>
      <trkpt lat="45.87369" lon="6.46054">
        <ele>1469.6</ele>
        <time>2024-04-27T14:14:53Z</time>
      </trkpt>
      <trkpt lat="45.87369" lon="6.46054">
        <ele>1469.6</ele>
        <time>2024-04-27T14:14:54Z</time>
      </trkpt>
      <trkpt lat="45.8737" lon="6.46054">
        <ele>1469.6</ele>
        <time>2024-04-27T14:14:55Z</time>
      </trkpt>
      <trkpt lat="45.8737" lon="6.46054">
        <ele>1469.6</ele>
        <time>2024-04-27T14:14:56Z</time>
      </trkpt>
      <trkpt lat="45.8737" lon="6.46054">
        <ele>1469.6</ele>
        <time>2024-04-27T14:14:57Z</time>
      </trkpt>
      <trkpt lat="45.8737" lon="6.46054">
        <ele>1469.6</ele>
        <time>2024-04-27T14:14:58Z</time>
      </trkpt>
      <trkpt lat="45.8737" lon="6.46054">
        <ele>1469.6</ele>
        <time>2024-04-27T14:14:59Z</time>
      </trkpt>
      <trkpt lat="45.8737" lon="6.46054">
        <ele>1469.6</ele>
        <time>2024-04-27T14:15:00Z</time>
      </trkpt>
      <trkpt lat="45.8737" lon="6.46054">
        <ele>1469.6</ele>
        <time>2024-04-27T14:15:01Z</time>
      </trkpt>
      <trkpt lat="45.8737" lon="6.46054">
        <ele>1469.6</ele>
        <time>2024-04-27T14:15:02Z</time>
      </trkpt>
      <trkpt lat="45.8737" lon="6.46054">
        <ele>1469.6</ele>
        <time>2024-04-27T14:15:03Z</time>
      </trkpt>
      <trkpt lat="45.8737" lon="6.46054">
        <ele>1469.6</ele>
        <time>2024-04-27T14:15:04Z</time>
      </trkpt>
      <trkpt lat="45.8737" lon="6.46054">
        <ele>1469.6</ele>
        <time>2024-04-27T14:15:05Z</time>
      </trkpt>
      <trkpt lat="45.8737" lon="6.46054">
        <ele>1469.6</ele>
        <time>2024-04-27T14:15:06Z</time>
      </trkpt>
      <trkpt lat="45.8737" lon="6.46054">
        <ele>1469.6</ele>
        <time>2024-04-27T14:15:07Z</time>
      </trkpt>
      <trkpt lat="45.8737" lon="6.46054">
        <ele>1469.6</ele>
        <time>2024-04-27T14:15:08Z</time>
      </trkpt>
      <trkpt lat="45.8737" lon="6.46054">
        <ele>1469.6</ele>
        <time>2024-04-27T14:15:09Z</time>
      </trkpt>
      <trkpt lat="45.8737" lon="6.46053">
        <ele>1469.6</ele>
        <time>2024-04-27T14:15:10Z</time>
      </trkpt>
      <trkpt lat="45.8737" lon="6.46053">
        <ele>1469.6</ele>
        <time>2024-04-27T14:15:11Z</time>
      </trkpt>
      <trkpt lat="45.8737" lon="6.46053">
        <ele>1469.6</ele>
        <time>2024-04-27T14:15:12Z</time>
      </trkpt>
      <trkpt lat="45.8737" lon="6.46053">
        <ele>1469.6</ele>
        <time>2024-04-27T14:15:13Z</time>
      </trkpt>
      <trkpt lat="45.8737" lon="6.46053">
        <ele>1469.6</ele>
        <time>2024-04-27T14:15:14Z</time>
      </trkpt>
      <trkpt lat="45.8737" lon="6.46053">
        <ele>1469.6</ele>
        <time>2024-04-27T14:15:15Z</time>
      </trkpt>
      <trkpt lat="45.8737" lon="6.46053">
        <ele>1469.6</ele>
        <time>2024-04-27T14:15:16Z</time>
      </trkpt>
      <trkpt lat="45.8737" lon="6.46053">
        <ele>1469.6</ele>
        <time>2024-04-27T14:15:17Z</time>
      </trkpt>
      <trkpt lat="45.8737" lon="6.46053">
        <ele>1469.6</ele>
        <time>2024-04-27T14:15:18Z</time>
      </trkpt>
      <trkpt lat="45.8737" lon="6.46053">
        <ele>1469.6</ele>
        <time>2024-04-27T14:15:19Z</time>
      </trkpt>
      <trkpt lat="45.8737" lon="6.46053">
        <ele>1469.6</ele>
        <time>2024-04-27T14:15:20Z</time>
      </trkpt>
      <trkpt lat="45.8737" lon="6.46053">
        <ele>1469.6</ele>
        <time>2024-04-27T14:15:21Z</time>
      </trkpt>
      <trkpt lat="45.8737" lon="6.46053">
        <ele>1469.6</ele>
        <time>2024-04-27T14:15:22Z</time>
      </trkpt>
      <trkpt lat="45.8737" lon="6.46053">
        <ele>1469.6</ele>
        <time>2024-04-27T14:15:23Z</time>
      </trkpt>
      <trkpt lat="45.8737" lon="6.46053">
        <ele>1469.6</ele>
        <time>2024-04-27T14:15:24Z</time>
      </trkpt>
      <trkpt lat="45.8737" lon="6.46053">
        <ele>1469.6</ele>
        <time>2024-04-27T14:15:25Z</time>
      </trkpt>
      <trkpt lat="45.8737" lon="6.46053">
        <ele>1470.7</ele>
        <time>2024-04-27T14:15:26Z</time>
      </trkpt>
      <trkpt lat="45.8737" lon="6.46053">
        <ele>1470.7</ele>
        <time>2024-04-27T14:15:27Z</time>
      </trkpt>
      <trkpt lat="45.8737" lon="6.46053">
        <ele>1470.7</ele>
        <time>2024-04-27T14:15:28Z</time>
      </trkpt>
      <trkpt lat="45.8737" lon="6.46053">
        <ele>1470.7</ele>
        <time>2024-04-27T14:15:29Z</time>
      </trkpt>
      <trkpt lat="45.8737" lon="6.46053">
        <ele>1470.7</ele>
        <time>2024-04-27T14:15:30Z</time>
      </trkpt>
      <trkpt lat="45.8737" lon="6.46053">
        <ele>1470.7</ele>
        <time>2024-04-27T14:15:31Z</time>
      </trkpt>
      <trkpt lat="45.8737" lon="6.46053">
        <ele>1470.7</ele>
        <time>2024-04-27T14:15:32Z</time>
      </trkpt>
      <trkpt lat="45.8737" lon="6.46053">
        <ele>1470.7</ele>
        <time>2024-04-27T14:15:33Z</time>
      </trkpt>
      <trkpt lat="45.8737" lon="6.46053">
        <ele>1470.7</ele>
        <time>2024-04-27T14:15:34Z</time>
      </trkpt>
      <trkpt lat="45.8737" lon="6.46053">
        <ele>1470.7</ele>
        <time>2024-04-27T14:15:35Z</time>
      </trkpt>
      <trkpt lat="45.8737" lon="6.46053">
        <ele>1469.6</ele>
        <time>2024-04-27T14:15:36Z</time>
      </trkpt>
      <trkpt lat="45.8737" lon="6.46053">
        <ele>1469.6</ele>
        <time>2024-04-27T14:15:37Z</time>
      </trkpt>
      <trkpt lat="45.8737" lon="6.46053">
        <ele>1469.6</ele>
        <time>2024-04-27T14:15:38Z</time>
      </trkpt>
      <trkpt lat="45.8737" lon="6.46053">
        <ele>1469.6</ele>
        <time>2024-04-27T14:15:39Z</time>
      </trkpt>
      <trkpt lat="45.8737" lon="6.46053">
        <ele>1469.6</ele>
        <time>2024-04-27T14:15:40Z</time>
      </trkpt>
      <trkpt lat="45.8737" lon="6.46053">
        <ele>1469.6</ele>
        <time>2024-04-27T14:15:41Z</time>
      </trkpt>
      <trkpt lat="45.8737" lon="6.46053">
        <ele>1470.7</ele>
        <time>2024-04-27T14:15:42Z</time>
      </trkpt>
      <trkpt lat="45.8737" lon="6.46053">
        <ele>1470.7</ele>
        <time>2024-04-27T14:15:43Z</time>
      </trkpt>
      <trkpt lat="45.8737" lon="6.46053">
        <ele>1470.7</ele>
        <time>2024-04-27T14:15:44Z</time>
      </trkpt>
      <trkpt lat="45.8737" lon="6.46053">
        <ele>1470.7</ele>
        <time>2024-04-27T14:15:45Z</time>
      </trkpt>
      <trkpt lat="45.8737" lon="6.46053">
        <ele>1470.7</ele>
        <time>2024-04-27T14:15:46Z</time>
      </trkpt>
      <trkpt lat="45.8737" lon="6.46053">
        <ele>1470.7</ele>
        <time>2024-04-27T14:15:47Z</time>
      </trkpt>
      <trkpt lat="45.8737" lon="6.46053">
        <ele>1470.7</ele>
        <time>2024-04-27T14:15:48Z</time>
      </trkpt>
      <trkpt lat="45.8737" lon="6.46053">
        <ele>1470.7</ele>
        <time>2024-04-27T14:15:49Z</time>
      </trkpt>
      <trkpt lat="45.8737" lon="6.46053">
        <ele>1470.7</ele>
        <time>2024-04-27T14:15:50Z</time>
      </trkpt>
      <trkpt lat="45.8737" lon="6.46053">
        <ele>1470.7</ele>
        <time>2024-04-27T14:15:51Z</time>
      </trkpt>
      <trkpt lat="45.8737" lon="6.46053">
        <ele>1470.7</ele>
        <time>2024-04-27T14:15:52Z</time>
      </trkpt>
      <trkpt lat="45.8737" lon="6.46053">
        <ele>1470.7</ele>
        <time>2024-04-27T14:15:53Z</time>
      </trkpt>
      <trkpt lat="45.8737" lon="6.46053">
        <ele>1470.7</ele>
        <time>2024-04-27T14:15:54Z</time>
      </trkpt>
      <trkpt lat="45.8737" lon="6.46053">
        <ele>1470.7</ele>
        <time>2024-04-27T14:15:55Z</time>
      </trkpt>
      <trkpt lat="45.8737" lon="6.46053">
        <ele>1470.7</ele>
        <time>2024-04-27T14:15:56Z</time>
      </trkpt>
      <trkpt lat="45.8737" lon="6.46053">
        <ele>1470.7</ele>
        <time>2024-04-27T14:15:57Z</time>
      </trkpt>
      <trkpt lat="45.8737" lon="6.46053">
        <ele>1470.7</ele>
        <time>2024-04-27T14:15:58Z</time>
      </trkpt>
      <trkpt lat="45.8737" lon="6.46053">
        <ele>1470.7</ele>
        <time>2024-04-27T14:15:59Z</time>
      </trkpt>
      <trkpt lat="45.8737" lon="6.46053">
        <ele>1470.7</ele>
        <time>2024-04-27T14:16:00Z</time>
      </trkpt>
      <trkpt lat="45.8737" lon="6.46053">
        <ele>1470.7</ele>
        <time>2024-04-27T14:16:01Z</time>
      </trkpt>
      <trkpt lat="45.8737" lon="6.46053">
        <ele>1470.7</ele>
        <time>2024-04-27T14:16:02Z</time>
      </trkpt>
      <trkpt lat="45.8737" lon="6.46053">
        <ele>1470.7</ele>
        <time>2024-04-27T14:16:03Z</time>
      </trkpt>
      <trkpt lat="45.8737" lon="6.46053">
        <ele>1470.7</ele>
        <time>2024-04-27T14:16:04Z</time>
      </trkpt>
      <trkpt lat="45.8737" lon="6.46053">
        <ele>1470.7</ele>
        <time>2024-04-27T14:16:05Z</time>
      </trkpt>
      <trkpt lat="45.8737" lon="6.46053">
        <ele>1470.7</ele>
        <time>2024-04-27T14:16:06Z</time>
      </trkpt>
      <trkpt lat="45.8737" lon="6.46053">
        <ele>1470.7</ele>
        <time>2024-04-27T14:16:07Z</time>
      </trkpt>
      <trkpt lat="45.8737" lon="6.46053">
        <ele>1470.7</ele>
        <time>2024-04-27T14:16:08Z</time>
      </trkpt>
      <trkpt lat="45.8737" lon="6.46053">
        <ele>1470.7</ele>
        <time>2024-04-27T14:16:09Z</time>
      </trkpt>
      <trkpt lat="45.8737" lon="6.46053">
        <ele>1470.7</ele>
        <time>2024-04-27T14:16:10Z</time>
      </trkpt>
      <trkpt lat="45.8737" lon="6.46053">
        <ele>1470.7</ele>
        <time>2024-04-27T14:16:11Z</time>
      </trkpt>
      <trkpt lat="45.8737" lon="6.46053">
        <ele>1470.7</ele>
        <time>2024-04-27T14:16:12Z</time>
      </trkpt>
      <trkpt lat="45.8737" lon="6.46053">
        <ele>1470.7</ele>
        <time>2024-04-27T14:16:13Z</time>
      </trkpt>
      <trkpt lat="45.8737" lon="6.46053">
        <ele>1470.7</ele>
        <time>2024-04-27T14:16:14Z</time>
      </trkpt>
      <trkpt lat="45.8737" lon="6.46053">
        <ele>1470.7</ele>
        <time>2024-04-27T14:16:19Z</time>
      </trkpt>
    </trkseg>
  </trk>
</gpx>